<?xml version='1.0' encoding='UTF-8'?><gpx version="1.1" creator="JPX - https://github.com/jenetics/jpx" xmlns="http://www.topografix.com/GPX/1/1"><trk><trkseg><trkpt lat="38.2583323" lon="-0.734578"><ele>84.0</ele><time>2026-04-11T06:29:08.422Z</time></trkpt><trkpt lat="38.2583022" lon="-0.734824"><ele>84.0</ele><time>2026-04-11T06:29:09.395Z</time></trkpt><trkpt lat="38.2582717" lon="-0.7350666"><ele>84.0</ele><time>2026-04-11T06:29:10.391Z</time></trkpt><trkpt lat="38.2582344" lon="-0.735312"><ele>84.66666666666667</ele><time>2026-04-11T06:29:11.384Z</time></trkpt><trkpt lat="38.2581989" lon="-0.7355519"><ele>85.33333333333334</ele><time>2026-04-11T06:29:12.38Z</time></trkpt><trkpt lat="38.2581626" lon="-0.7357897"><ele>86.0</ele><time>2026-04-11T06:29:13.388Z</time></trkpt><trkpt lat="38.2581292" lon="-0.7360229"><ele>85.33333333333334</ele><time>2026-04-11T06:29:14.381Z</time></trkpt><trkpt lat="38.2580994" lon="-0.7362576"><ele>84.66666666666667</ele><time>2026-04-11T06:29:15.38Z</time></trkpt><trkpt lat="38.258068" lon="-0.73648"><ele>84.0</ele><time>2026-04-11T06:29:16.385Z</time></trkpt><trkpt lat="38.2580351" lon="-0.7366997"><ele>84.25</ele><time>2026-04-11T06:29:17.382Z</time></trkpt><trkpt lat="38.2580063" lon="-0.7369018"><ele>84.5</ele><time>2026-04-11T06:29:18.381Z</time></trkpt><trkpt lat="38.2579815" lon="-0.737082"><ele>84.75</ele><time>2026-04-11T06:29:19.389Z</time></trkpt><trkpt lat="38.2579572" lon="-0.7372417"><ele>85.0</ele><time>2026-04-11T06:29:20.388Z</time></trkpt><trkpt lat="38.2579366" lon="-0.7373853"><ele>85.0</ele><time>2026-04-11T06:29:21.381Z</time></trkpt><trkpt lat="38.2579302" lon="-0.7375205"><ele>85.0</ele><time>2026-04-11T06:29:22.387Z</time></trkpt><trkpt lat="38.2579549" lon="-0.7376511"><ele>85.0</ele><time>2026-04-11T06:29:23.39Z</time></trkpt><trkpt lat="38.2580046" lon="-0.7377723"><ele>85.0</ele><time>2026-04-11T06:29:24.384Z</time></trkpt><trkpt lat="38.2580531" lon="-0.7378964"><ele>85.0</ele><time>2026-04-11T06:29:25.395Z</time></trkpt><trkpt lat="38.2580639" lon="-0.7380283"><ele>85.0</ele><time>2026-04-11T06:29:26.387Z</time></trkpt><trkpt lat="38.2580303" lon="-0.7381597"><ele>85.0</ele><time>2026-04-11T06:29:27.388Z</time></trkpt><trkpt lat="38.2579499" lon="-0.7382621"><ele>85.0</ele><time>2026-04-11T06:29:28.382Z</time></trkpt><trkpt lat="38.257863" lon="-0.7383612"><ele>85.0</ele><time>2026-04-11T06:29:29.394Z</time></trkpt><trkpt lat="38.257798" lon="-0.7384927"><ele>85.25</ele><time>2026-04-11T06:29:30.381Z</time></trkpt><trkpt lat="38.257762" lon="-0.7386563"><ele>85.5</ele><time>2026-04-11T06:29:31.386Z</time></trkpt><trkpt lat="38.257741" lon="-0.738836"><ele>85.75</ele><time>2026-04-11T06:29:32.387Z</time></trkpt><trkpt lat="38.2577102" lon="-0.7390224"><ele>86.0</ele><time>2026-04-11T06:29:33.382Z</time></trkpt><trkpt lat="38.2576811" lon="-0.739221"><ele>85.66666666666667</ele><time>2026-04-11T06:29:34.388Z</time></trkpt><trkpt lat="38.2576497" lon="-0.7394283"><ele>85.33333333333333</ele><time>2026-04-11T06:29:35.383Z</time></trkpt><trkpt lat="38.2576168" lon="-0.7396445"><ele>85.0</ele><time>2026-04-11T06:29:36.386Z</time></trkpt><trkpt lat="38.2575834" lon="-0.7398741"><ele>85.0</ele><time>2026-04-11T06:29:37.389Z</time></trkpt><trkpt lat="38.2575469" lon="-0.7401141"><ele>85.0</ele><time>2026-04-11T06:29:38.38Z</time></trkpt><trkpt lat="38.2575117" lon="-0.7403558"><ele>85.0</ele><time>2026-04-11T06:29:39.384Z</time></trkpt><trkpt lat="38.2574755" lon="-0.7406034"><ele>86.0</ele><time>2026-04-11T06:29:40.389Z</time></trkpt><trkpt lat="38.2574384" lon="-0.7408499"><ele>87.0</ele><time>2026-04-11T06:29:41.381Z</time></trkpt><trkpt lat="38.2574048" lon="-0.7411077"><ele>88.0</ele><time>2026-04-11T06:29:42.384Z</time></trkpt><trkpt lat="38.2573687" lon="-0.7413618"><ele>88.66666666666666</ele><time>2026-04-11T06:29:43.394Z</time></trkpt><trkpt lat="38.2573324" lon="-0.7416274"><ele>89.33333333333333</ele><time>2026-04-11T06:29:44.388Z</time></trkpt><trkpt lat="38.257296" lon="-0.7418924"><ele>90.0</ele><time>2026-04-11T06:29:45.387Z</time></trkpt><trkpt lat="38.25726" lon="-0.7421584"><ele>90.0</ele><time>2026-04-11T06:29:46.382Z</time></trkpt><trkpt lat="38.2572243" lon="-0.7424348"><ele>90.0</ele><time>2026-04-11T06:29:47.383Z</time></trkpt><trkpt lat="38.2571816" lon="-0.7427094"><ele>90.0</ele><time>2026-04-11T06:29:48.383Z</time></trkpt><trkpt lat="38.2571404" lon="-0.7429749"><ele>90.0</ele><time>2026-04-11T06:29:49.385Z</time></trkpt><trkpt lat="38.2571025" lon="-0.7432449"><ele>90.0</ele><time>2026-04-11T06:29:50.382Z</time></trkpt><trkpt lat="38.2570622" lon="-0.7435158"><ele>90.0</ele><time>2026-04-11T06:29:51.383Z</time></trkpt><trkpt lat="38.2570238" lon="-0.7437852"><ele>91.0</ele><time>2026-04-11T06:29:52.386Z</time></trkpt><trkpt lat="38.2569836" lon="-0.7440524"><ele>92.0</ele><time>2026-04-11T06:29:53.386Z</time></trkpt><trkpt lat="38.2569458" lon="-0.7443187"><ele>93.0</ele><time>2026-04-11T06:29:54.391Z</time></trkpt><trkpt lat="38.2569079" lon="-0.7445808"><ele>93.66666666666667</ele><time>2026-04-11T06:29:55.384Z</time></trkpt><trkpt lat="38.2568722" lon="-0.7448464"><ele>94.33333333333334</ele><time>2026-04-11T06:29:56.38Z</time></trkpt><trkpt lat="38.2568361" lon="-0.7451038"><ele>95.0</ele><time>2026-04-11T06:29:57.397Z</time></trkpt><trkpt lat="38.2567982" lon="-0.7453622"><ele>95.0</ele><time>2026-04-11T06:29:58.384Z</time></trkpt><trkpt lat="38.2567595" lon="-0.745617"><ele>95.0</ele><time>2026-04-11T06:29:59.385Z</time></trkpt><trkpt lat="38.2567256" lon="-0.7458697"><ele>95.0</ele><time>2026-04-11T06:30:00.384Z</time></trkpt><trkpt lat="38.2566898" lon="-0.7461209"><ele>95.0</ele><time>2026-04-11T06:30:01.39Z</time></trkpt><trkpt lat="38.256654" lon="-0.7463775"><ele>95.0</ele><time>2026-04-11T06:30:02.382Z</time></trkpt><trkpt lat="38.2566162" lon="-0.7466332"><ele>95.0</ele><time>2026-04-11T06:30:03.388Z</time></trkpt><trkpt lat="38.256579" lon="-0.7468889"><ele>94.66666666666667</ele><time>2026-04-11T06:30:04.394Z</time></trkpt><trkpt lat="38.256542" lon="-0.7471553"><ele>94.33333333333333</ele><time>2026-04-11T06:30:05.385Z</time></trkpt><trkpt lat="38.256504" lon="-0.7474174"><ele>94.0</ele><time>2026-04-11T06:30:06.384Z</time></trkpt><trkpt lat="38.2564633" lon="-0.7476821"><ele>93.0</ele><time>2026-04-11T06:30:07.386Z</time></trkpt><trkpt lat="38.2564268" lon="-0.7479503"><ele>92.0</ele><time>2026-04-11T06:30:08.387Z</time></trkpt><trkpt lat="38.2563905" lon="-0.7482181"><ele>91.0</ele><time>2026-04-11T06:30:09.402Z</time></trkpt><trkpt lat="38.2563543" lon="-0.7484845"><ele>90.33333333333333</ele><time>2026-04-11T06:30:10.387Z</time></trkpt><trkpt lat="38.2563179" lon="-0.7487545"><ele>89.66666666666667</ele><time>2026-04-11T06:30:11.384Z</time></trkpt><trkpt lat="38.256277" lon="-0.7490214"><ele>89.0</ele><time>2026-04-11T06:30:12.383Z</time></trkpt><trkpt lat="38.2562383" lon="-0.7492849"><ele>89.0</ele><time>2026-04-11T06:30:13.388Z</time></trkpt><trkpt lat="38.2562035" lon="-0.7495443"><ele>89.0</ele><time>2026-04-11T06:30:14.388Z</time></trkpt><trkpt lat="38.2561702" lon="-0.7497965"><ele>89.0</ele><time>2026-04-11T06:30:15.392Z</time></trkpt><trkpt lat="38.2561409" lon="-0.7500372"><ele>88.0</ele><time>2026-04-11T06:30:16.387Z</time></trkpt><trkpt lat="38.2561122" lon="-0.7502678"><ele>87.0</ele><time>2026-04-11T06:30:17.391Z</time></trkpt><trkpt lat="38.2560792" lon="-0.750493"><ele>86.0</ele><time>2026-04-11T06:30:18.386Z</time></trkpt><trkpt lat="38.2560487" lon="-0.7507095"><ele>86.0</ele><time>2026-04-11T06:30:19.384Z</time></trkpt><trkpt lat="38.2560208" lon="-0.7509077"><ele>86.0</ele><time>2026-04-11T06:30:20.384Z</time></trkpt><trkpt lat="38.2559951" lon="-0.7510858"><ele>86.0</ele><time>2026-04-11T06:30:21.383Z</time></trkpt><trkpt lat="38.2559754" lon="-0.7512326"><ele>86.0</ele><time>2026-04-11T06:30:22.385Z</time></trkpt><trkpt lat="38.2559655" lon="-0.7513528"><ele>86.6</ele><time>2026-04-11T06:30:23.384Z</time></trkpt><trkpt lat="38.2559741" lon="-0.7514679"><ele>87.19999999999999</ele><time>2026-04-11T06:30:24.389Z</time></trkpt><trkpt lat="38.2560166" lon="-0.7515752"><ele>87.80000000000001</ele><time>2026-04-11T06:30:25.381Z</time></trkpt><trkpt lat="38.2560674" lon="-0.7516839"><ele>88.4</ele><time>2026-04-11T06:30:26.381Z</time></trkpt><trkpt lat="38.2560959" lon="-0.7518083"><ele>89.0</ele><time>2026-04-11T06:30:27.383Z</time></trkpt><trkpt lat="38.2560802" lon="-0.7519309"><ele>89.0</ele><time>2026-04-11T06:30:28.385Z</time></trkpt><trkpt lat="38.2560425" lon="-0.7520452"><ele>89.0</ele><time>2026-04-11T06:30:29.386Z</time></trkpt><trkpt lat="38.255957" lon="-0.7521382"><ele>89.0</ele><time>2026-04-11T06:30:30.388Z</time></trkpt><trkpt lat="38.2558863" lon="-0.7522484"><ele>89.0</ele><time>2026-04-11T06:30:31.384Z</time></trkpt><trkpt lat="38.2558234" lon="-0.752381"><ele>89.0</ele><time>2026-04-11T06:30:32.386Z</time></trkpt><trkpt lat="38.2557865" lon="-0.752544"><ele>89.33333333333334</ele><time>2026-04-11T06:30:33.387Z</time></trkpt><trkpt lat="38.2557544" lon="-0.7527246"><ele>89.66666666666667</ele><time>2026-04-11T06:30:34.387Z</time></trkpt><trkpt lat="38.2557256" lon="-0.7529102"><ele>90.0</ele><time>2026-04-11T06:30:35.388Z</time></trkpt><trkpt lat="38.2556946" lon="-0.7531117"><ele>90.0</ele><time>2026-04-11T06:30:36.384Z</time></trkpt><trkpt lat="38.2556673" lon="-0.7533178"><ele>90.0</ele><time>2026-04-11T06:30:37.387Z</time></trkpt><trkpt lat="38.2556357" lon="-0.7535327"><ele>90.0</ele><time>2026-04-11T06:30:38.39Z</time></trkpt><trkpt lat="38.2556063" lon="-0.7537545"><ele>89.33333333333333</ele><time>2026-04-11T06:30:39.387Z</time></trkpt><trkpt lat="38.2555716" lon="-0.7539771"><ele>88.66666666666666</ele><time>2026-04-11T06:30:40.39Z</time></trkpt><trkpt lat="38.2555359" lon="-0.7542086"><ele>88.0</ele><time>2026-04-11T06:30:41.388Z</time></trkpt><trkpt lat="38.2555014" lon="-0.7544481"><ele>88.0</ele><time>2026-04-11T06:30:42.394Z</time></trkpt><trkpt lat="38.2554636" lon="-0.7546964"><ele>88.0</ele><time>2026-04-11T06:30:43.388Z</time></trkpt><trkpt lat="38.255424" lon="-0.7549499"><ele>88.0</ele><time>2026-04-11T06:30:44.387Z</time></trkpt><trkpt lat="38.2553861" lon="-0.7552062"><ele>88.33333333333333</ele><time>2026-04-11T06:30:45.385Z</time></trkpt><trkpt lat="38.2553462" lon="-0.7554722"><ele>88.66666666666667</ele><time>2026-04-11T06:30:46.382Z</time></trkpt><trkpt lat="38.2553088" lon="-0.7557414"><ele>89.0</ele><time>2026-04-11T06:30:47.381Z</time></trkpt><trkpt lat="38.2552712" lon="-0.756014"><ele>88.33333333333334</ele><time>2026-04-11T06:30:48.387Z</time></trkpt><trkpt lat="38.255231" lon="-0.756287"><ele>87.66666666666667</ele><time>2026-04-11T06:30:49.386Z</time></trkpt><trkpt lat="38.2551928" lon="-0.7565575"><ele>87.0</ele><time>2026-04-11T06:30:50.389Z</time></trkpt><trkpt lat="38.255154" lon="-0.7568277"><ele>87.66666666666667</ele><time>2026-04-11T06:30:51.383Z</time></trkpt><trkpt lat="38.2551147" lon="-0.7571068"><ele>88.33333333333334</ele><time>2026-04-11T06:30:52.382Z</time></trkpt><trkpt lat="38.2550776" lon="-0.7573817"><ele>89.0</ele><time>2026-04-11T06:30:53.388Z</time></trkpt><trkpt lat="38.2550401" lon="-0.7576524"><ele>90.0</ele><time>2026-04-11T06:30:54.387Z</time></trkpt><trkpt lat="38.2550024" lon="-0.7579284"><ele>91.0</ele><time>2026-04-11T06:30:55.389Z</time></trkpt><trkpt lat="38.2549654" lon="-0.7582065"><ele>92.0</ele><time>2026-04-11T06:30:56.39Z</time></trkpt><trkpt lat="38.2549313" lon="-0.7584844"><ele>92.33333333333334</ele><time>2026-04-11T06:30:57.388Z</time></trkpt><trkpt lat="38.2548998" lon="-0.7587702"><ele>92.66666666666667</ele><time>2026-04-11T06:30:58.39Z</time></trkpt><trkpt lat="38.2548654" lon="-0.7590503"><ele>93.0</ele><time>2026-04-11T06:30:59.386Z</time></trkpt><trkpt lat="38.2548281" lon="-0.7593356"><ele>92.0</ele><time>2026-04-11T06:31:00.388Z</time></trkpt><trkpt lat="38.2547919" lon="-0.759622"><ele>91.0</ele><time>2026-04-11T06:31:01.387Z</time></trkpt><trkpt lat="38.254751" lon="-0.7599097"><ele>90.0</ele><time>2026-04-11T06:31:02.386Z</time></trkpt><trkpt lat="38.2547099" lon="-0.7601985"><ele>89.0</ele><time>2026-04-11T06:31:03.393Z</time></trkpt><trkpt lat="38.2546688" lon="-0.7604864"><ele>89.0</ele><time>2026-04-11T06:31:04.387Z</time></trkpt><trkpt lat="38.2546254" lon="-0.7607752"><ele>89.0</ele><time>2026-04-11T06:31:05.386Z</time></trkpt><trkpt lat="38.254583" lon="-0.7610648"><ele>87.5</ele><time>2026-04-11T06:31:06.391Z</time></trkpt><trkpt lat="38.2545399" lon="-0.761359"><ele>86.0</ele><time>2026-04-11T06:31:07.388Z</time></trkpt><trkpt lat="38.2544991" lon="-0.761656"><ele>87.5</ele><time>2026-04-11T06:31:08.388Z</time></trkpt><trkpt lat="38.2544545" lon="-0.7619482"><ele>89.0</ele><time>2026-04-11T06:31:09.386Z</time></trkpt><trkpt lat="38.2544093" lon="-0.7622412"><ele>89.0</ele><time>2026-04-11T06:31:10.39Z</time></trkpt><trkpt lat="38.254365" lon="-0.7625301"><ele>89.0</ele><time>2026-04-11T06:31:11.392Z</time></trkpt><trkpt lat="38.2543251" lon="-0.7628075"><ele>88.0</ele><time>2026-04-11T06:31:12.388Z</time></trkpt><trkpt lat="38.254284" lon="-0.7631157"><ele>87.0</ele><time>2026-04-11T06:31:13.392Z</time></trkpt><trkpt lat="38.2542443" lon="-0.7634072"><ele>86.0</ele><time>2026-04-11T06:31:14.385Z</time></trkpt><trkpt lat="38.2542029" lon="-0.7637049"><ele>85.0</ele><time>2026-04-11T06:31:15.384Z</time></trkpt><trkpt lat="38.2541597" lon="-0.7639866"><ele>85.0</ele><time>2026-04-11T06:31:16.385Z</time></trkpt><trkpt lat="38.2541236" lon="-0.7642714"><ele>85.0</ele><time>2026-04-11T06:31:17.387Z</time></trkpt><trkpt lat="38.2540847" lon="-0.7645431"><ele>85.0</ele><time>2026-04-11T06:31:18.384Z</time></trkpt><trkpt lat="38.254048" lon="-0.7648139"><ele>85.33333333333333</ele><time>2026-04-11T06:31:19.389Z</time></trkpt><trkpt lat="38.2540092" lon="-0.765076"><ele>85.66666666666667</ele><time>2026-04-11T06:31:20.382Z</time></trkpt><trkpt lat="38.2539713" lon="-0.7653244"><ele>86.0</ele><time>2026-04-11T06:31:21.392Z</time></trkpt><trkpt lat="38.2539365" lon="-0.765557"><ele>86.0</ele><time>2026-04-11T06:31:22.381Z</time></trkpt><trkpt lat="38.2538997" lon="-0.7657858"><ele>86.0</ele><time>2026-04-11T06:31:23.385Z</time></trkpt><trkpt lat="38.2538689" lon="-0.7659978"><ele>86.0</ele><time>2026-04-11T06:31:24.383Z</time></trkpt><trkpt lat="38.2538394" lon="-0.7661912"><ele>86.25</ele><time>2026-04-11T06:31:25.384Z</time></trkpt><trkpt lat="38.2538146" lon="-0.7663642"><ele>86.5</ele><time>2026-04-11T06:31:26.387Z</time></trkpt><trkpt lat="38.2537974" lon="-0.7665142"><ele>86.75</ele><time>2026-04-11T06:31:27.387Z</time></trkpt><trkpt lat="38.2537999" lon="-0.7666556"><ele>87.0</ele><time>2026-04-11T06:31:28.392Z</time></trkpt><trkpt lat="38.2538282" lon="-0.7667899"><ele>87.19999999999999</ele><time>2026-04-11T06:31:29.388Z</time></trkpt><trkpt lat="38.253869" lon="-0.7669239"><ele>87.4</ele><time>2026-04-11T06:31:30.382Z</time></trkpt><trkpt lat="38.2538908" lon="-0.7670609"><ele>87.6</ele><time>2026-04-11T06:31:31.383Z</time></trkpt><trkpt lat="38.2538723" lon="-0.7671979"><ele>87.80000000000001</ele><time>2026-04-11T06:31:32.386Z</time></trkpt><trkpt lat="38.2538207" lon="-0.7673289"><ele>88.0</ele><time>2026-04-11T06:31:33.385Z</time></trkpt><trkpt lat="38.2537436" lon="-0.76745"><ele>88.0</ele><time>2026-04-11T06:31:34.384Z</time></trkpt><trkpt lat="38.2536692" lon="-0.7675799"><ele>88.0</ele><time>2026-04-11T06:31:35.385Z</time></trkpt><trkpt lat="38.2536211" lon="-0.7677504"><ele>88.0</ele><time>2026-04-11T06:31:36.384Z</time></trkpt><trkpt lat="38.2535902" lon="-0.7679364"><ele>88.0</ele><time>2026-04-11T06:31:37.388Z</time></trkpt><trkpt lat="38.2535629" lon="-0.768132"><ele>88.0</ele><time>2026-04-11T06:31:38.382Z</time></trkpt><trkpt lat="38.2535346" lon="-0.7683324"><ele>88.0</ele><time>2026-04-11T06:31:39.39Z</time></trkpt><trkpt lat="38.2535048" lon="-0.7685431"><ele>88.0</ele><time>2026-04-11T06:31:40.389Z</time></trkpt><trkpt lat="38.2534734" lon="-0.7687649"><ele>88.0</ele><time>2026-04-11T06:31:41.382Z</time></trkpt><trkpt lat="38.25344" lon="-0.7689956"><ele>88.0</ele><time>2026-04-11T06:31:42.422Z</time></trkpt><trkpt lat="38.2534093" lon="-0.7692324"><ele>88.0</ele><time>2026-04-11T06:31:43.386Z</time></trkpt><trkpt lat="38.2533755" lon="-0.7694668"><ele>89.33333333333333</ele><time>2026-04-11T06:31:44.393Z</time></trkpt><trkpt lat="38.2533427" lon="-0.7697087"><ele>90.66666666666667</ele><time>2026-04-11T06:31:45.39Z</time></trkpt><trkpt lat="38.2533074" lon="-0.7699536"><ele>92.0</ele><time>2026-04-11T06:31:46.384Z</time></trkpt><trkpt lat="38.2532698" lon="-0.7702031"><ele>93.0</ele><time>2026-04-11T06:31:47.386Z</time></trkpt><trkpt lat="38.253233" lon="-0.7704567"><ele>94.0</ele><time>2026-04-11T06:31:48.392Z</time></trkpt><trkpt lat="38.2531967" lon="-0.7707133"><ele>95.0</ele><time>2026-04-11T06:31:49.387Z</time></trkpt><trkpt lat="38.2531589" lon="-0.770969"><ele>94.66666666666667</ele><time>2026-04-11T06:31:50.383Z</time></trkpt><trkpt lat="38.2531235" lon="-0.7712278"><ele>94.33333333333333</ele><time>2026-04-11T06:31:51.383Z</time></trkpt><trkpt lat="38.2530865" lon="-0.7714925"><ele>94.0</ele><time>2026-04-11T06:31:52.383Z</time></trkpt><trkpt lat="38.2530489" lon="-0.7717569"><ele>92.66666666666666</ele><time>2026-04-11T06:31:53.387Z</time></trkpt><trkpt lat="38.2530109" lon="-0.7720234"><ele>91.33333333333333</ele><time>2026-04-11T06:31:54.385Z</time></trkpt><trkpt lat="38.2529741" lon="-0.7722893"><ele>90.0</ele><time>2026-04-11T06:31:55.389Z</time></trkpt><trkpt lat="38.2529363" lon="-0.7725596"><ele>90.66666666666667</ele><time>2026-04-11T06:31:56.387Z</time></trkpt><trkpt lat="38.2528978" lon="-0.7728279"><ele>91.33333333333334</ele><time>2026-04-11T06:31:57.387Z</time></trkpt><trkpt lat="38.2528599" lon="-0.7731008"><ele>92.0</ele><time>2026-04-11T06:31:58.389Z</time></trkpt><trkpt lat="38.2528211" lon="-0.7733738"><ele>91.66666666666667</ele><time>2026-04-11T06:31:59.386Z</time></trkpt><trkpt lat="38.2527752" lon="-0.7736465"><ele>91.33333333333333</ele><time>2026-04-11T06:32:00.384Z</time></trkpt><trkpt lat="38.2527358" lon="-0.773921"><ele>91.0</ele><time>2026-04-11T06:32:01.383Z</time></trkpt><trkpt lat="38.2526953" lon="-0.7741963"><ele>91.33333333333333</ele><time>2026-04-11T06:32:02.387Z</time></trkpt><trkpt lat="38.2526571" lon="-0.7744707"><ele>91.66666666666667</ele><time>2026-04-11T06:32:03.384Z</time></trkpt><trkpt lat="38.252619" lon="-0.7747457"><ele>92.0</ele><time>2026-04-11T06:32:04.387Z</time></trkpt><trkpt lat="38.2525806" lon="-0.7750233"><ele>92.0</ele><time>2026-04-11T06:32:05.384Z</time></trkpt><trkpt lat="38.2525427" lon="-0.7752963"><ele>92.0</ele><time>2026-04-11T06:32:06.383Z</time></trkpt><trkpt lat="38.2525053" lon="-0.7755711"><ele>92.0</ele><time>2026-04-11T06:32:07.389Z</time></trkpt><trkpt lat="38.2524619" lon="-0.7758477"><ele>92.0</ele><time>2026-04-11T06:32:08.386Z</time></trkpt><trkpt lat="38.2524211" lon="-0.7761318"><ele>92.0</ele><time>2026-04-11T06:32:09.382Z</time></trkpt><trkpt lat="38.2523823" lon="-0.7764035"><ele>92.0</ele><time>2026-04-11T06:32:10.384Z</time></trkpt><trkpt lat="38.2523448" lon="-0.7766857"><ele>92.0</ele><time>2026-04-11T06:32:11.384Z</time></trkpt><trkpt lat="38.2523047" lon="-0.776958"><ele>92.0</ele><time>2026-04-11T06:32:12.388Z</time></trkpt><trkpt lat="38.2522673" lon="-0.7772227"><ele>92.0</ele><time>2026-04-11T06:32:13.386Z</time></trkpt><trkpt lat="38.2522311" lon="-0.7774944"><ele>92.0</ele><time>2026-04-11T06:32:14.384Z</time></trkpt><trkpt lat="38.2521938" lon="-0.7777612"><ele>92.0</ele><time>2026-04-11T06:32:15.385Z</time></trkpt><trkpt lat="38.2521568" lon="-0.778028"><ele>92.0</ele><time>2026-04-11T06:32:16.379Z</time></trkpt><trkpt lat="38.2521138" lon="-0.7782902"><ele>93.33333333333334</ele><time>2026-04-11T06:32:17.389Z</time></trkpt><trkpt lat="38.2520738" lon="-0.7785497"><ele>94.66666666666667</ele><time>2026-04-11T06:32:18.395Z</time></trkpt><trkpt lat="38.2520338" lon="-0.7788072"><ele>96.0</ele><time>2026-04-11T06:32:19.383Z</time></trkpt><trkpt lat="38.251997" lon="-0.7790619"><ele>96.0</ele><time>2026-04-11T06:32:20.388Z</time></trkpt><trkpt lat="38.2519616" lon="-0.7793171"><ele>96.0</ele><time>2026-04-11T06:32:21.387Z</time></trkpt><trkpt lat="38.2519263" lon="-0.7795676"><ele>96.0</ele><time>2026-04-11T06:32:22.385Z</time></trkpt><trkpt lat="38.2518902" lon="-0.7798193"><ele>96.0</ele><time>2026-04-11T06:32:23.385Z</time></trkpt><trkpt lat="38.2518578" lon="-0.7800693"><ele>96.0</ele><time>2026-04-11T06:32:24.388Z</time></trkpt><trkpt lat="38.2518258" lon="-0.7803142"><ele>96.0</ele><time>2026-04-11T06:32:25.383Z</time></trkpt><trkpt lat="38.2517927" lon="-0.7805548"><ele>97.0</ele><time>2026-04-11T06:32:26.384Z</time></trkpt><trkpt lat="38.2517576" lon="-0.7808"><ele>98.0</ele><time>2026-04-11T06:32:27.389Z</time></trkpt><trkpt lat="38.2517217" lon="-0.7810277"><ele>99.0</ele><time>2026-04-11T06:32:28.384Z</time></trkpt><trkpt lat="38.2516866" lon="-0.7812634"><ele>99.33333333333334</ele><time>2026-04-11T06:32:29.387Z</time></trkpt><trkpt lat="38.2516522" lon="-0.7814941"><ele>99.66666666666667</ele><time>2026-04-11T06:32:30.392Z</time></trkpt><trkpt lat="38.2516194" lon="-0.781721"><ele>100.0</ele><time>2026-04-11T06:32:31.387Z</time></trkpt><trkpt lat="38.2515848" lon="-0.7819441"><ele>100.0</ele><time>2026-04-11T06:32:32.387Z</time></trkpt><trkpt lat="38.2515535" lon="-0.7821607"><ele>100.0</ele><time>2026-04-11T06:32:33.386Z</time></trkpt><trkpt lat="38.2515248" lon="-0.7823697"><ele>100.0</ele><time>2026-04-11T06:32:34.4Z</time></trkpt><trkpt lat="38.251496" lon="-0.7825694"><ele>100.75</ele><time>2026-04-11T06:32:35.392Z</time></trkpt><trkpt lat="38.2514705" lon="-0.7827537"><ele>101.5</ele><time>2026-04-11T06:32:36.382Z</time></trkpt><trkpt lat="38.251447" lon="-0.7829155"><ele>102.25</ele><time>2026-04-11T06:32:37.383Z</time></trkpt><trkpt lat="38.251438" lon="-0.7830894"><ele>103.0</ele><time>2026-04-11T06:32:38.383Z</time></trkpt><trkpt lat="38.2514685" lon="-0.7832012"><ele>103.0</ele><time>2026-04-11T06:32:39.389Z</time></trkpt><trkpt lat="38.2515135" lon="-0.7833266"><ele>103.0</ele><time>2026-04-11T06:32:40.387Z</time></trkpt><trkpt lat="38.2515325" lon="-0.7834526"><ele>103.0</ele><time>2026-04-11T06:32:41.383Z</time></trkpt><trkpt lat="38.2515298" lon="-0.7835883"><ele>103.0</ele><time>2026-04-11T06:32:42.387Z</time></trkpt><trkpt lat="38.2514871" lon="-0.7837163"><ele>103.0</ele><time>2026-04-11T06:32:43.391Z</time></trkpt><trkpt lat="38.2514221" lon="-0.7838341"><ele>101.75</ele><time>2026-04-11T06:32:44.387Z</time></trkpt><trkpt lat="38.2513458" lon="-0.7839582"><ele>100.5</ele><time>2026-04-11T06:32:45.391Z</time></trkpt><trkpt lat="38.2512824" lon="-0.7840923"><ele>99.25</ele><time>2026-04-11T06:32:46.384Z</time></trkpt><trkpt lat="38.2512488" lon="-0.7842519"><ele>98.0</ele><time>2026-04-11T06:32:47.388Z</time></trkpt><trkpt lat="38.2512302" lon="-0.7844385"><ele>98.0</ele><time>2026-04-11T06:32:48.389Z</time></trkpt><trkpt lat="38.2512037" lon="-0.7846308"><ele>98.0</ele><time>2026-04-11T06:32:49.383Z</time></trkpt><trkpt lat="38.2511759" lon="-0.7848205"><ele>98.0</ele><time>2026-04-11T06:32:50.389Z</time></trkpt><trkpt lat="38.2511475" lon="-0.7850173"><ele>98.0</ele><time>2026-04-11T06:32:51.387Z</time></trkpt><trkpt lat="38.2511165" lon="-0.7852224"><ele>98.0</ele><time>2026-04-11T06:32:52.384Z</time></trkpt><trkpt lat="38.2510857" lon="-0.7854337"><ele>98.0</ele><time>2026-04-11T06:32:53.39Z</time></trkpt><trkpt lat="38.251056" lon="-0.78566"><ele>98.0</ele><time>2026-04-11T06:32:54.384Z</time></trkpt><trkpt lat="38.2510236" lon="-0.7858928"><ele>98.0</ele><time>2026-04-11T06:32:55.39Z</time></trkpt><trkpt lat="38.2509903" lon="-0.7861284"><ele>98.0</ele><time>2026-04-11T06:32:56.39Z</time></trkpt><trkpt lat="38.2509548" lon="-0.7863711"><ele>97.66666666666666</ele><time>2026-04-11T06:32:57.393Z</time></trkpt><trkpt lat="38.250921" lon="-0.7866176"><ele>97.33333333333334</ele><time>2026-04-11T06:32:58.385Z</time></trkpt><trkpt lat="38.2508853" lon="-0.7868673"><ele>97.0</ele><time>2026-04-11T06:32:59.382Z</time></trkpt><trkpt lat="38.2508473" lon="-0.7871263"><ele>96.33333333333334</ele><time>2026-04-11T06:33:00.386Z</time></trkpt><trkpt lat="38.2508098" lon="-0.7873919"><ele>95.66666666666667</ele><time>2026-04-11T06:33:01.386Z</time></trkpt><trkpt lat="38.2507725" lon="-0.7876586"><ele>95.0</ele><time>2026-04-11T06:33:02.407Z</time></trkpt><trkpt lat="38.250735" lon="-0.7879262"><ele>95.33333333333334</ele><time>2026-04-11T06:33:03.385Z</time></trkpt><trkpt lat="38.2506957" lon="-0.7881969"><ele>95.66666666666667</ele><time>2026-04-11T06:33:04.384Z</time></trkpt><trkpt lat="38.2506554" lon="-0.7884679"><ele>96.0</ele><time>2026-04-11T06:33:05.385Z</time></trkpt><trkpt lat="38.2506163" lon="-0.788741"><ele>96.0</ele><time>2026-04-11T06:33:06.391Z</time></trkpt><trkpt lat="38.2505748" lon="-0.7890122"><ele>96.0</ele><time>2026-04-11T06:33:07.392Z</time></trkpt><trkpt lat="38.2505384" lon="-0.7892835"><ele>96.0</ele><time>2026-04-11T06:33:08.384Z</time></trkpt><trkpt lat="38.2505003" lon="-0.7895582"><ele>97.33333333333334</ele><time>2026-04-11T06:33:09.381Z</time></trkpt><trkpt lat="38.2504633" lon="-0.7898267"><ele>98.66666666666667</ele><time>2026-04-11T06:33:10.384Z</time></trkpt><trkpt lat="38.2504269" lon="-0.7900953"><ele>100.0</ele><time>2026-04-11T06:33:11.382Z</time></trkpt><trkpt lat="38.2503871" lon="-0.7903668"><ele>101.66666666666667</ele><time>2026-04-11T06:33:12.38Z</time></trkpt><trkpt lat="38.2503484" lon="-0.7906349"><ele>103.33333333333334</ele><time>2026-04-11T06:33:13.385Z</time></trkpt><trkpt lat="38.2503136" lon="-0.7909007"><ele>105.0</ele><time>2026-04-11T06:33:14.386Z</time></trkpt><trkpt lat="38.2500358" lon="-0.7937154"><ele>105.33333333333333</ele><time>2026-04-11T06:33:28.386Z</time></trkpt><trkpt lat="38.2500345" lon="-0.7938055"><ele>105.66666666666666</ele><time>2026-04-11T06:33:29.387Z</time></trkpt><trkpt lat="38.2500524" lon="-0.7938976"><ele>106.0</ele><time>2026-04-11T06:33:30.388Z</time></trkpt><trkpt lat="38.2500942" lon="-0.7939814"><ele>106.33333333333333</ele><time>2026-04-11T06:33:31.382Z</time></trkpt><trkpt lat="38.2501507" lon="-0.794073"><ele>106.66666666666666</ele><time>2026-04-11T06:33:32.388Z</time></trkpt><trkpt lat="38.2501874" lon="-0.7941794"><ele>107.0</ele><time>2026-04-11T06:33:33.386Z</time></trkpt><trkpt lat="38.2501932" lon="-0.7942995"><ele>106.8</ele><time>2026-04-11T06:33:34.387Z</time></trkpt><trkpt lat="38.2501787" lon="-0.7944138"><ele>106.6</ele><time>2026-04-11T06:33:35.384Z</time></trkpt><trkpt lat="38.2501122" lon="-0.794516"><ele>106.39999999999999</ele><time>2026-04-11T06:33:36.389Z</time></trkpt><trkpt lat="38.2500301" lon="-0.7946029"><ele>106.19999999999999</ele><time>2026-04-11T06:33:37.393Z</time></trkpt><trkpt lat="38.2499534" lon="-0.7946993"><ele>106.0</ele><time>2026-04-11T06:33:38.39Z</time></trkpt><trkpt lat="38.2498943" lon="-0.7948201"><ele>106.0</ele><time>2026-04-11T06:33:39.393Z</time></trkpt><trkpt lat="38.2498647" lon="-0.794969"><ele>106.0</ele><time>2026-04-11T06:33:40.386Z</time></trkpt><trkpt lat="38.2498441" lon="-0.7951338"><ele>106.0</ele><time>2026-04-11T06:33:41.391Z</time></trkpt><trkpt lat="38.2498234" lon="-0.795302"><ele>106.0</ele><time>2026-04-11T06:33:42.39Z</time></trkpt><trkpt lat="38.2498025" lon="-0.7954804"><ele>106.33333333333334</ele><time>2026-04-11T06:33:43.384Z</time></trkpt><trkpt lat="38.249781" lon="-0.795666"><ele>106.66666666666666</ele><time>2026-04-11T06:33:44.386Z</time></trkpt><trkpt lat="38.2497558" lon="-0.7958652"><ele>107.0</ele><time>2026-04-11T06:33:45.385Z</time></trkpt><trkpt lat="38.2497099" lon="-0.7962699"><ele>107.0</ele><time>2026-04-11T06:33:47.387Z</time></trkpt><trkpt lat="38.2496816" lon="-0.7964728"><ele>107.0</ele><time>2026-04-11T06:33:48.395Z</time></trkpt><trkpt lat="38.2496495" lon="-0.7966805"><ele>107.0</ele><time>2026-04-11T06:33:49.392Z</time></trkpt><trkpt lat="38.249602" lon="-0.7968787"><ele>106.66666666666666</ele><time>2026-04-11T06:33:50.392Z</time></trkpt><trkpt lat="38.2495332" lon="-0.7970723"><ele>106.33333333333334</ele><time>2026-04-11T06:33:51.391Z</time></trkpt><trkpt lat="38.2494432" lon="-0.7972552"><ele>106.0</ele><time>2026-04-11T06:33:52.39Z</time></trkpt><trkpt lat="38.2493483" lon="-0.7974332"><ele>106.0</ele><time>2026-04-11T06:33:53.388Z</time></trkpt><trkpt lat="38.2492494" lon="-0.7976098"><ele>106.0</ele><time>2026-04-11T06:33:54.39Z</time></trkpt><trkpt lat="38.2491504" lon="-0.79779"><ele>106.0</ele><time>2026-04-11T06:33:55.388Z</time></trkpt><trkpt lat="38.2490561" lon="-0.7979695"><ele>106.33333333333334</ele><time>2026-04-11T06:33:56.387Z</time></trkpt><trkpt lat="38.2489612" lon="-0.7981482"><ele>106.66666666666666</ele><time>2026-04-11T06:33:57.386Z</time></trkpt><trkpt lat="38.2488684" lon="-0.7983255"><ele>107.0</ele><time>2026-04-11T06:33:58.389Z</time></trkpt><trkpt lat="38.2487789" lon="-0.7985034"><ele>107.66666666666666</ele><time>2026-04-11T06:33:59.387Z</time></trkpt><trkpt lat="38.2486882" lon="-0.7986843"><ele>108.33333333333334</ele><time>2026-04-11T06:34:00.382Z</time></trkpt><trkpt lat="38.2486142" lon="-0.7988615"><ele>109.0</ele><time>2026-04-11T06:34:01.387Z</time></trkpt><trkpt lat="38.2485515" lon="-0.7990356"><ele>109.0</ele><time>2026-04-11T06:34:02.385Z</time></trkpt><trkpt lat="38.2484998" lon="-0.7992186"><ele>109.0</ele><time>2026-04-11T06:34:03.39Z</time></trkpt><trkpt lat="38.2484533" lon="-0.7994133"><ele>109.0</ele><time>2026-04-11T06:34:04.396Z</time></trkpt><trkpt lat="38.2484086" lon="-0.7996033"><ele>109.0</ele><time>2026-04-11T06:34:05.383Z</time></trkpt><trkpt lat="38.2483626" lon="-0.799795"><ele>109.0</ele><time>2026-04-11T06:34:06.384Z</time></trkpt><trkpt lat="38.2482816" lon="-0.8001459"><ele>109.0</ele><time>2026-04-11T06:34:08.381Z</time></trkpt><trkpt lat="38.2482417" lon="-0.8003093"><ele>109.5</ele><time>2026-04-11T06:34:09.386Z</time></trkpt><trkpt lat="38.2481982" lon="-0.8004741"><ele>110.0</ele><time>2026-04-11T06:34:10.397Z</time></trkpt><trkpt lat="38.2481569" lon="-0.8006411"><ele>110.5</ele><time>2026-04-11T06:34:11.385Z</time></trkpt><trkpt lat="38.2481162" lon="-0.8008157"><ele>111.0</ele><time>2026-04-11T06:34:12.381Z</time></trkpt><trkpt lat="38.2480883" lon="-0.8009625"><ele>111.4</ele><time>2026-04-11T06:34:13.384Z</time></trkpt><trkpt lat="38.2480583" lon="-0.8011067"><ele>111.8</ele><time>2026-04-11T06:34:14.388Z</time></trkpt><trkpt lat="38.2480365" lon="-0.8012432"><ele>112.20000000000002</ele><time>2026-04-11T06:34:15.392Z</time></trkpt><trkpt lat="38.2480276" lon="-0.8013656"><ele>112.60000000000001</ele><time>2026-04-11T06:34:16.382Z</time></trkpt><trkpt lat="38.2480383" lon="-0.8014457"><ele>113.0</ele><time>2026-04-11T06:34:17.395Z</time></trkpt><trkpt lat="38.248089" lon="-0.8015069"><ele>113.14285714285714</ele><time>2026-04-11T06:34:19.385Z</time></trkpt><trkpt lat="38.2481562" lon="-0.8014996"><ele>113.28571428571428</ele><time>2026-04-11T06:34:21.383Z</time></trkpt><trkpt lat="38.2482082" lon="-0.8014341"><ele>113.42857142857142</ele><time>2026-04-11T06:34:23.4Z</time></trkpt><trkpt lat="38.2482784" lon="-0.8014627"><ele>113.57142857142857</ele><time>2026-04-11T06:34:25.394Z</time></trkpt><trkpt lat="38.2482873" lon="-0.8015468"><ele>113.7142857142857</ele><time>2026-04-11T06:34:28.392Z</time></trkpt><trkpt lat="38.2482148" lon="-0.8015957"><ele>113.85714285714285</ele><time>2026-04-11T06:37:10.359Z</time></trkpt><trkpt lat="38.2482022" lon="-0.8016757"><ele>114.0</ele><time>2026-04-11T06:37:30.355Z</time></trkpt><trkpt lat="38.2481287" lon="-0.8016174"><ele>113.83333333333333</ele><time>2026-04-11T06:38:21.403Z</time></trkpt><trkpt lat="38.2480658" lon="-0.801588"><ele>113.66666666666666</ele><time>2026-04-11T06:38:24.387Z</time></trkpt><trkpt lat="38.2479959" lon="-0.8016625"><ele>113.5</ele><time>2026-04-11T06:38:29.387Z</time></trkpt><trkpt lat="38.247974" lon="-0.8017617"><ele>113.33333333333333</ele><time>2026-04-11T06:38:31.391Z</time></trkpt><trkpt lat="38.2479612" lon="-0.8018551"><ele>113.16666666666666</ele><time>2026-04-11T06:38:33.404Z</time></trkpt><trkpt lat="38.2479209" lon="-0.8019327"><ele>113.0</ele><time>2026-04-11T06:38:37.393Z</time></trkpt><trkpt lat="38.2478439" lon="-0.8019156"><ele>112.99999999999999</ele><time>2026-04-11T06:39:29.416Z</time></trkpt><trkpt lat="38.2478292" lon="-0.801766"><ele>113.0</ele><time>2026-04-11T06:39:31.394Z</time></trkpt><trkpt lat="38.2478485" lon="-0.8016794"><ele>113.0</ele><time>2026-04-11T06:39:32.394Z</time></trkpt><trkpt lat="38.247869" lon="-0.8015857"><ele>113.0</ele><time>2026-04-11T06:39:33.4Z</time></trkpt><trkpt lat="38.2478924" lon="-0.8014891"><ele>112.99999999999999</ele><time>2026-04-11T06:39:34.393Z</time></trkpt><trkpt lat="38.2479178" lon="-0.8013827"><ele>113.0</ele><time>2026-04-11T06:39:35.4Z</time></trkpt><trkpt lat="38.2479444" lon="-0.8012718"><ele>113.0</ele><time>2026-04-11T06:39:36.396Z</time></trkpt><trkpt lat="38.2479718" lon="-0.8011613"><ele>113.00000000000001</ele><time>2026-04-11T06:39:37.391Z</time></trkpt><trkpt lat="38.2479986" lon="-0.8010543"><ele>113.00000000000001</ele><time>2026-04-11T06:39:38.395Z</time></trkpt><trkpt lat="38.2480301" lon="-0.8009359"><ele>113.0</ele><time>2026-04-11T06:39:39.388Z</time></trkpt><trkpt lat="38.248057" lon="-0.8008277"><ele>113.0</ele><time>2026-04-11T06:39:40.402Z</time></trkpt><trkpt lat="38.2480776" lon="-0.8007203"><ele>112.83333333333333</ele><time>2026-04-11T06:39:41.389Z</time></trkpt><trkpt lat="38.2481025" lon="-0.8006142"><ele>112.66666666666666</ele><time>2026-04-11T06:39:42.398Z</time></trkpt><trkpt lat="38.2481229" lon="-0.800514"><ele>112.5</ele><time>2026-04-11T06:39:43.382Z</time></trkpt><trkpt lat="38.248146" lon="-0.8004199"><ele>112.33333333333334</ele><time>2026-04-11T06:39:44.399Z</time></trkpt><trkpt lat="38.248169" lon="-0.8003197"><ele>112.16666666666667</ele><time>2026-04-11T06:39:45.395Z</time></trkpt><trkpt lat="38.2481924" lon="-0.8002232"><ele>112.0</ele><time>2026-04-11T06:39:46.405Z</time></trkpt><trkpt lat="38.2482145" lon="-0.8001353"><ele>111.57142857142857</ele><time>2026-04-11T06:39:47.394Z</time></trkpt><trkpt lat="38.2482328" lon="-0.8000473"><ele>111.14285714285714</ele><time>2026-04-11T06:39:48.396Z</time></trkpt><trkpt lat="38.2482556" lon="-0.7999637"><ele>110.71428571428572</ele><time>2026-04-11T06:39:49.395Z</time></trkpt><trkpt lat="38.2482729" lon="-0.799876"><ele>110.28571428571428</ele><time>2026-04-11T06:39:50.387Z</time></trkpt><trkpt lat="38.2482922" lon="-0.7997871"><ele>109.85714285714286</ele><time>2026-04-11T06:39:51.405Z</time></trkpt><trkpt lat="38.248312" lon="-0.7996939"><ele>109.42857142857143</ele><time>2026-04-11T06:39:52.403Z</time></trkpt><trkpt lat="38.2483343" lon="-0.7996018"><ele>109.0</ele><time>2026-04-11T06:39:53.417Z</time></trkpt><trkpt lat="38.2483623" lon="-0.7995"><ele>109.0</ele><time>2026-04-11T06:39:54.386Z</time></trkpt><trkpt lat="38.2483896" lon="-0.7993953"><ele>109.0</ele><time>2026-04-11T06:39:55.39Z</time></trkpt><trkpt lat="38.2484183" lon="-0.7992783"><ele>109.0</ele><time>2026-04-11T06:39:56.386Z</time></trkpt><trkpt lat="38.2484445" lon="-0.7991629"><ele>109.0</ele><time>2026-04-11T06:39:57.394Z</time></trkpt><trkpt lat="38.2484687" lon="-0.7990467"><ele>109.0</ele><time>2026-04-11T06:39:58.4Z</time></trkpt><trkpt lat="38.2485173" lon="-0.7988982"><ele>109.0</ele><time>2026-04-11T06:39:59.394Z</time></trkpt><trkpt lat="38.2485756" lon="-0.7987596"><ele>109.0</ele><time>2026-04-11T06:40:00.38Z</time></trkpt><trkpt lat="38.2486371" lon="-0.7986156"><ele>109.0</ele><time>2026-04-11T06:40:01.387Z</time></trkpt><trkpt lat="38.2486996" lon="-0.7984787"><ele>109.0</ele><time>2026-04-11T06:40:02.401Z</time></trkpt><trkpt lat="38.2487819" lon="-0.7983335"><ele>109.25</ele><time>2026-04-11T06:40:03.387Z</time></trkpt><trkpt lat="38.2488591" lon="-0.7981904"><ele>109.5</ele><time>2026-04-11T06:40:04.39Z</time></trkpt><trkpt lat="38.2489359" lon="-0.7980432"><ele>109.75</ele><time>2026-04-11T06:40:05.387Z</time></trkpt><trkpt lat="38.2490144" lon="-0.797896"><ele>110.0</ele><time>2026-04-11T06:40:06.402Z</time></trkpt><trkpt lat="38.2490909" lon="-0.7977541"><ele>109.0</ele><time>2026-04-11T06:40:07.407Z</time></trkpt><trkpt lat="38.2491714" lon="-0.7976116"><ele>108.0</ele><time>2026-04-11T06:40:08.387Z</time></trkpt><trkpt lat="38.2492529" lon="-0.797467"><ele>107.0</ele><time>2026-04-11T06:40:09.393Z</time></trkpt><trkpt lat="38.2493314" lon="-0.7973187"><ele>106.0</ele><time>2026-04-11T06:40:10.401Z</time></trkpt><trkpt lat="38.2494058" lon="-0.7971677"><ele>106.0</ele><time>2026-04-11T06:40:11.384Z</time></trkpt><trkpt lat="38.2494765" lon="-0.7970182"><ele>106.0</ele><time>2026-04-11T06:40:12.387Z</time></trkpt><trkpt lat="38.2495373" lon="-0.796858"><ele>106.0</ele><time>2026-04-11T06:40:13.404Z</time></trkpt><trkpt lat="38.2495876" lon="-0.7966847"><ele>106.0</ele><time>2026-04-11T06:40:14.41Z</time></trkpt><trkpt lat="38.2496174" lon="-0.7965042"><ele>106.25</ele><time>2026-04-11T06:40:15.383Z</time></trkpt><trkpt lat="38.2496411" lon="-0.7963185"><ele>106.5</ele><time>2026-04-11T06:40:16.384Z</time></trkpt><trkpt lat="38.2496626" lon="-0.796137"><ele>106.75</ele><time>2026-04-11T06:40:17.403Z</time></trkpt><trkpt lat="38.2496869" lon="-0.7959563"><ele>107.0</ele><time>2026-04-11T06:40:18.401Z</time></trkpt><trkpt lat="38.2497103" lon="-0.7957727"><ele>106.75</ele><time>2026-04-11T06:40:19.39Z</time></trkpt><trkpt lat="38.2497349" lon="-0.7955948"><ele>106.5</ele><time>2026-04-11T06:40:20.384Z</time></trkpt><trkpt lat="38.2497595" lon="-0.7954249"><ele>106.25</ele><time>2026-04-11T06:40:21.39Z</time></trkpt><trkpt lat="38.2497804" lon="-0.7952561"><ele>106.0</ele><time>2026-04-11T06:40:22.388Z</time></trkpt><trkpt lat="38.2497975" lon="-0.7950972"><ele>106.00000000000001</ele><time>2026-04-11T06:40:23.382Z</time></trkpt><trkpt lat="38.2498142" lon="-0.7949524"><ele>106.0</ele><time>2026-04-11T06:40:24.392Z</time></trkpt><trkpt lat="38.2498216" lon="-0.7948318"><ele>106.0</ele><time>2026-04-11T06:40:25.385Z</time></trkpt><trkpt lat="38.2498158" lon="-0.7947314"><ele>106.0</ele><time>2026-04-11T06:40:26.39Z</time></trkpt><trkpt lat="38.2497931" lon="-0.7946389"><ele>106.00000000000001</ele><time>2026-04-11T06:40:27.398Z</time></trkpt><trkpt lat="38.249747" lon="-0.794555"><ele>106.0</ele><time>2026-04-11T06:40:28.388Z</time></trkpt><trkpt lat="38.2496887" lon="-0.7944809"><ele>106.25</ele><time>2026-04-11T06:40:29.404Z</time></trkpt><trkpt lat="38.2496317" lon="-0.7944117"><ele>106.5</ele><time>2026-04-11T06:40:30.382Z</time></trkpt><trkpt lat="38.2495377" lon="-0.7943318"><ele>106.75</ele><time>2026-04-11T06:40:32.284Z</time></trkpt><trkpt lat="38.2493341" lon="-0.7943814"><ele>107.0</ele><time>2026-04-11T06:40:33.361Z</time></trkpt><trkpt lat="38.2492269" lon="-0.7944033"><ele>107.0</ele><time>2026-04-11T06:40:34.363Z</time></trkpt><trkpt lat="38.2490999" lon="-0.794427"><ele>107.0</ele><time>2026-04-11T06:40:35.364Z</time></trkpt><trkpt lat="38.2489709" lon="-0.7944622"><ele>107.0</ele><time>2026-04-11T06:40:36.354Z</time></trkpt><trkpt lat="38.2488367" lon="-0.7945145"><ele>107.0</ele><time>2026-04-11T06:40:37.357Z</time></trkpt><trkpt lat="38.2487078" lon="-0.7945896"><ele>105.0</ele><time>2026-04-11T06:40:38.358Z</time></trkpt><trkpt lat="38.2485831" lon="-0.7946942"><ele>103.0</ele><time>2026-04-11T06:40:39.358Z</time></trkpt><trkpt lat="38.2484613" lon="-0.7948185"><ele>101.0</ele><time>2026-04-11T06:40:40.357Z</time></trkpt><trkpt lat="38.2483413" lon="-0.7949345"><ele>101.0</ele><time>2026-04-11T06:40:41.358Z</time></trkpt><trkpt lat="38.2482127" lon="-0.7950587"><ele>101.0</ele><time>2026-04-11T06:40:42.357Z</time></trkpt><trkpt lat="38.2480883" lon="-0.7951857"><ele>101.0</ele><time>2026-04-11T06:40:43.358Z</time></trkpt><trkpt lat="38.2479658" lon="-0.7953082"><ele>100.33333333333333</ele><time>2026-04-11T06:40:44.358Z</time></trkpt><trkpt lat="38.2478463" lon="-0.7954267"><ele>99.66666666666666</ele><time>2026-04-11T06:40:45.358Z</time></trkpt><trkpt lat="38.2477227" lon="-0.7955522"><ele>99.0</ele><time>2026-04-11T06:40:46.358Z</time></trkpt><trkpt lat="38.2475966" lon="-0.7956778"><ele>99.0</ele><time>2026-04-11T06:40:47.358Z</time></trkpt><trkpt lat="38.2474707" lon="-0.7958035"><ele>99.0</ele><time>2026-04-11T06:40:48.358Z</time></trkpt><trkpt lat="38.2473458" lon="-0.7959311"><ele>99.0</ele><time>2026-04-11T06:40:49.358Z</time></trkpt><trkpt lat="38.2472218" lon="-0.796057"><ele>98.0</ele><time>2026-04-11T06:40:50.358Z</time></trkpt><trkpt lat="38.2470939" lon="-0.7961815"><ele>97.0</ele><time>2026-04-11T06:40:51.358Z</time></trkpt><trkpt lat="38.2469652" lon="-0.7963058"><ele>96.0</ele><time>2026-04-11T06:40:52.357Z</time></trkpt><trkpt lat="38.246839" lon="-0.7964284"><ele>96.0</ele><time>2026-04-11T06:40:53.357Z</time></trkpt><trkpt lat="38.2467132" lon="-0.7965485"><ele>96.0</ele><time>2026-04-11T06:40:54.358Z</time></trkpt><trkpt lat="38.2465878" lon="-0.7966723"><ele>96.0</ele><time>2026-04-11T06:40:55.358Z</time></trkpt><trkpt lat="38.2464654" lon="-0.7967934"><ele>96.5</ele><time>2026-04-11T06:40:56.358Z</time></trkpt><trkpt lat="38.2463486" lon="-0.7969147"><ele>97.0</ele><time>2026-04-11T06:40:57.358Z</time></trkpt><trkpt lat="38.2462294" lon="-0.7970254"><ele>97.5</ele><time>2026-04-11T06:40:58.358Z</time></trkpt><trkpt lat="38.2461104" lon="-0.7971375"><ele>98.0</ele><time>2026-04-11T06:40:59.358Z</time></trkpt><trkpt lat="38.2459912" lon="-0.7972559"><ele>98.0</ele><time>2026-04-11T06:41:00.358Z</time></trkpt><trkpt lat="38.2458796" lon="-0.797365"><ele>98.0</ele><time>2026-04-11T06:41:01.358Z</time></trkpt><trkpt lat="38.2457712" lon="-0.7974738"><ele>98.0</ele><time>2026-04-11T06:41:02.358Z</time></trkpt><trkpt lat="38.2456653" lon="-0.7975731"><ele>98.0</ele><time>2026-04-11T06:41:03.358Z</time></trkpt><trkpt lat="38.245564" lon="-0.7976699"><ele>97.0</ele><time>2026-04-11T06:41:04.357Z</time></trkpt><trkpt lat="38.245475" lon="-0.7977555"><ele>96.0</ele><time>2026-04-11T06:41:05.358Z</time></trkpt><trkpt lat="38.2453979" lon="-0.7978346"><ele>95.0</ele><time>2026-04-11T06:41:06.358Z</time></trkpt><trkpt lat="38.2453333" lon="-0.7979094"><ele>94.0</ele><time>2026-04-11T06:41:07.358Z</time></trkpt><trkpt lat="38.2452789" lon="-0.7979904"><ele>93.0</ele><time>2026-04-11T06:41:08.358Z</time></trkpt><trkpt lat="38.2452374" lon="-0.7980629"><ele>93.0</ele><time>2026-04-11T06:41:09.357Z</time></trkpt><trkpt lat="38.2451809" lon="-0.798162"><ele>93.0</ele><time>2026-04-11T06:41:11.357Z</time></trkpt><trkpt lat="38.2451049" lon="-0.7982083"><ele>93.0</ele><time>2026-04-11T06:41:21.358Z</time></trkpt><trkpt lat="38.2450275" lon="-0.7981747"><ele>93.0</ele><time>2026-04-11T06:41:23.358Z</time></trkpt><trkpt lat="38.2449637" lon="-0.7980812"><ele>93.0</ele><time>2026-04-11T06:41:24.358Z</time></trkpt><trkpt lat="38.2449118" lon="-0.798006"><ele>93.0</ele><time>2026-04-11T06:41:25.357Z</time></trkpt><trkpt lat="38.2448601" lon="-0.7979413"><ele>93.0</ele><time>2026-04-11T06:41:26.358Z</time></trkpt><trkpt lat="38.2448101" lon="-0.7978826"><ele>93.0</ele><time>2026-04-11T06:41:27.358Z</time></trkpt><trkpt lat="38.2447405" lon="-0.7977984"><ele>93.0</ele><time>2026-04-11T06:41:29.357Z</time></trkpt><trkpt lat="38.2446746" lon="-0.7977403"><ele>93.0</ele><time>2026-04-11T06:41:31.358Z</time></trkpt><trkpt lat="38.2445754" lon="-0.7977202"><ele>93.0</ele><time>2026-04-11T06:41:33.358Z</time></trkpt><trkpt lat="38.2444627" lon="-0.7977581"><ele>92.5</ele><time>2026-04-11T06:41:35.358Z</time></trkpt><trkpt lat="38.2443969" lon="-0.7977674"><ele>92.0</ele><time>2026-04-11T06:41:36.358Z</time></trkpt><trkpt lat="38.2443262" lon="-0.7977658"><ele>91.5</ele><time>2026-04-11T06:41:37.357Z</time></trkpt><trkpt lat="38.2442492" lon="-0.7977412"><ele>91.0</ele><time>2026-04-11T06:41:38.358Z</time></trkpt><trkpt lat="38.2441739" lon="-0.7977038"><ele>90.5</ele><time>2026-04-11T06:41:39.358Z</time></trkpt><trkpt lat="38.2440983" lon="-0.7976348"><ele>90.0</ele><time>2026-04-11T06:41:40.357Z</time></trkpt><trkpt lat="38.2440304" lon="-0.7975601"><ele>89.8</ele><time>2026-04-11T06:41:41.357Z</time></trkpt><trkpt lat="38.243965" lon="-0.7974698"><ele>89.6</ele><time>2026-04-11T06:41:42.358Z</time></trkpt><trkpt lat="38.2439072" lon="-0.7973673"><ele>89.4</ele><time>2026-04-11T06:41:43.357Z</time></trkpt><trkpt lat="38.2438419" lon="-0.7972728"><ele>89.2</ele><time>2026-04-11T06:41:44.358Z</time></trkpt><trkpt lat="38.2437757" lon="-0.7971755"><ele>89.0</ele><time>2026-04-11T06:41:45.358Z</time></trkpt><trkpt lat="38.2437053" lon="-0.7970756"><ele>88.75</ele><time>2026-04-11T06:41:46.358Z</time></trkpt><trkpt lat="38.2436309" lon="-0.7969699"><ele>88.5</ele><time>2026-04-11T06:41:47.358Z</time></trkpt><trkpt lat="38.2435546" lon="-0.7968604"><ele>88.25</ele><time>2026-04-11T06:41:48.357Z</time></trkpt><trkpt lat="38.2434792" lon="-0.7967529"><ele>88.0</ele><time>2026-04-11T06:41:49.358Z</time></trkpt><trkpt lat="38.2434018" lon="-0.7966426"><ele>87.5</ele><time>2026-04-11T06:41:50.358Z</time></trkpt><trkpt lat="38.2433204" lon="-0.7965325"><ele>87.0</ele><time>2026-04-11T06:41:51.358Z</time></trkpt><trkpt lat="38.2432359" lon="-0.7964255"><ele>86.5</ele><time>2026-04-11T06:41:52.357Z</time></trkpt><trkpt lat="38.2431489" lon="-0.7963277"><ele>86.0</ele><time>2026-04-11T06:41:53.358Z</time></trkpt><trkpt lat="38.2430581" lon="-0.7962412"><ele>85.75</ele><time>2026-04-11T06:41:54.358Z</time></trkpt><trkpt lat="38.2429576" lon="-0.7961537"><ele>85.5</ele><time>2026-04-11T06:41:55.357Z</time></trkpt><trkpt lat="38.2428507" lon="-0.7960795"><ele>85.25</ele><time>2026-04-11T06:41:56.358Z</time></trkpt><trkpt lat="38.2427389" lon="-0.7960127"><ele>85.0</ele><time>2026-04-11T06:41:57.358Z</time></trkpt><trkpt lat="38.2426258" lon="-0.7959547"><ele>85.0</ele><time>2026-04-11T06:41:58.358Z</time></trkpt><trkpt lat="38.2425146" lon="-0.795899"><ele>85.0</ele><time>2026-04-11T06:41:59.358Z</time></trkpt><trkpt lat="38.242399" lon="-0.7958466"><ele>85.0</ele><time>2026-04-11T06:42:00.358Z</time></trkpt><trkpt lat="38.2422837" lon="-0.7958037"><ele>85.0</ele><time>2026-04-11T06:42:01.357Z</time></trkpt><trkpt lat="38.2421659" lon="-0.7957594"><ele>83.5</ele><time>2026-04-11T06:42:02.358Z</time></trkpt><trkpt lat="38.2420409" lon="-0.7957289"><ele>82.0</ele><time>2026-04-11T06:42:03.357Z</time></trkpt><trkpt lat="38.2419272" lon="-0.7956864"><ele>80.5</ele><time>2026-04-11T06:42:04.357Z</time></trkpt><trkpt lat="38.241815" lon="-0.7956327"><ele>79.0</ele><time>2026-04-11T06:42:05.357Z</time></trkpt><trkpt lat="38.2417049" lon="-0.7955801"><ele>79.0</ele><time>2026-04-11T06:42:06.358Z</time></trkpt><trkpt lat="38.2415991" lon="-0.7955125"><ele>79.0</ele><time>2026-04-11T06:42:07.358Z</time></trkpt><trkpt lat="38.2414892" lon="-0.7954405"><ele>79.0</ele><time>2026-04-11T06:42:08.358Z</time></trkpt><trkpt lat="38.241381" lon="-0.7953677"><ele>79.0</ele><time>2026-04-11T06:42:09.358Z</time></trkpt><trkpt lat="38.2412709" lon="-0.7952941"><ele>78.5</ele><time>2026-04-11T06:42:10.358Z</time></trkpt><trkpt lat="38.2411781" lon="-0.7952142"><ele>78.0</ele><time>2026-04-11T06:42:11.357Z</time></trkpt><trkpt lat="38.2410811" lon="-0.795129"><ele>77.5</ele><time>2026-04-11T06:42:12.358Z</time></trkpt><trkpt lat="38.2409844" lon="-0.7950451"><ele>77.0</ele><time>2026-04-11T06:42:13.358Z</time></trkpt><trkpt lat="38.2408929" lon="-0.794963"><ele>77.0</ele><time>2026-04-11T06:42:14.358Z</time></trkpt><trkpt lat="38.2407992" lon="-0.7948803"><ele>77.0</ele><time>2026-04-11T06:42:15.358Z</time></trkpt><trkpt lat="38.2407054" lon="-0.7947941"><ele>77.0</ele><time>2026-04-11T06:42:16.358Z</time></trkpt><trkpt lat="38.2406154" lon="-0.7947131"><ele>77.0</ele><time>2026-04-11T06:42:17.358Z</time></trkpt><trkpt lat="38.2405231" lon="-0.7946315"><ele>76.8</ele><time>2026-04-11T06:42:18.358Z</time></trkpt><trkpt lat="38.2404348" lon="-0.7945511"><ele>76.6</ele><time>2026-04-11T06:42:19.357Z</time></trkpt><trkpt lat="38.240348" lon="-0.7944702"><ele>76.39999999999999</ele><time>2026-04-11T06:42:20.358Z</time></trkpt><trkpt lat="38.2402602" lon="-0.7943854"><ele>76.2</ele><time>2026-04-11T06:42:21.357Z</time></trkpt><trkpt lat="38.2401713" lon="-0.7943043"><ele>76.0</ele><time>2026-04-11T06:42:22.358Z</time></trkpt><trkpt lat="38.2400818" lon="-0.7942269"><ele>76.0</ele><time>2026-04-11T06:42:23.358Z</time></trkpt><trkpt lat="38.2399946" lon="-0.7941456"><ele>76.0</ele><time>2026-04-11T06:42:24.358Z</time></trkpt><trkpt lat="38.2399187" lon="-0.7940485"><ele>76.0</ele><time>2026-04-11T06:42:25.358Z</time></trkpt><trkpt lat="38.2398569" lon="-0.7939346"><ele>76.0</ele><time>2026-04-11T06:42:26.358Z</time></trkpt><trkpt lat="38.2398003" lon="-0.7938105"><ele>76.0</ele><time>2026-04-11T06:42:27.357Z</time></trkpt><trkpt lat="38.2397495" lon="-0.793682"><ele>75.6</ele><time>2026-04-11T06:42:28.358Z</time></trkpt><trkpt lat="38.2396949" lon="-0.793558"><ele>75.19999999999999</ele><time>2026-04-11T06:42:29.357Z</time></trkpt><trkpt lat="38.2396333" lon="-0.7934424"><ele>74.80000000000001</ele><time>2026-04-11T06:42:30.358Z</time></trkpt><trkpt lat="38.2395686" lon="-0.7933287"><ele>74.4</ele><time>2026-04-11T06:42:31.358Z</time></trkpt><trkpt lat="38.2395086" lon="-0.7932161"><ele>74.0</ele><time>2026-04-11T06:42:32.358Z</time></trkpt><trkpt lat="38.2394487" lon="-0.7931013"><ele>73.4</ele><time>2026-04-11T06:42:33.358Z</time></trkpt><trkpt lat="38.2393856" lon="-0.7929924"><ele>72.80000000000001</ele><time>2026-04-11T06:42:34.358Z</time></trkpt><trkpt lat="38.2393232" lon="-0.7928843"><ele>72.19999999999999</ele><time>2026-04-11T06:42:35.358Z</time></trkpt><trkpt lat="38.239259" lon="-0.7927709"><ele>71.6</ele><time>2026-04-11T06:42:36.358Z</time></trkpt><trkpt lat="38.2392031" lon="-0.7926682"><ele>71.0</ele><time>2026-04-11T06:42:37.358Z</time></trkpt><trkpt lat="38.2391401" lon="-0.7925653"><ele>71.0</ele><time>2026-04-11T06:42:38.358Z</time></trkpt><trkpt lat="38.239081" lon="-0.7924581"><ele>71.0</ele><time>2026-04-11T06:42:39.358Z</time></trkpt><trkpt lat="38.2390124" lon="-0.7923556"><ele>71.0</ele><time>2026-04-11T06:42:40.358Z</time></trkpt><trkpt lat="38.2389329" lon="-0.7922601"><ele>71.0</ele><time>2026-04-11T06:42:41.358Z</time></trkpt><trkpt lat="38.2388482" lon="-0.7921753"><ele>71.0</ele><time>2026-04-11T06:42:42.358Z</time></trkpt><trkpt lat="38.2387566" lon="-0.7921033"><ele>71.0</ele><time>2026-04-11T06:42:43.358Z</time></trkpt><trkpt lat="38.2386576" lon="-0.7920468"><ele>71.0</ele><time>2026-04-11T06:42:44.358Z</time></trkpt><trkpt lat="38.2385556" lon="-0.7920062"><ele>71.0</ele><time>2026-04-11T06:42:45.357Z</time></trkpt><trkpt lat="38.2384514" lon="-0.7919705"><ele>71.0</ele><time>2026-04-11T06:42:46.357Z</time></trkpt><trkpt lat="38.2383476" lon="-0.7919414"><ele>71.0</ele><time>2026-04-11T06:42:47.358Z</time></trkpt><trkpt lat="38.2382347" lon="-0.7919161"><ele>70.0</ele><time>2026-04-11T06:42:48.358Z</time></trkpt><trkpt lat="38.2381268" lon="-0.7919088"><ele>69.0</ele><time>2026-04-11T06:42:49.358Z</time></trkpt><trkpt lat="38.2380117" lon="-0.7919128"><ele>68.0</ele><time>2026-04-11T06:42:50.358Z</time></trkpt><trkpt lat="38.2378905" lon="-0.7919247"><ele>67.0</ele><time>2026-04-11T06:42:51.357Z</time></trkpt><trkpt lat="38.2377553" lon="-0.791936"><ele>67.0</ele><time>2026-04-11T06:42:52.358Z</time></trkpt><trkpt lat="38.2376115" lon="-0.7919466"><ele>67.0</ele><time>2026-04-11T06:42:53.358Z</time></trkpt><trkpt lat="38.2374544" lon="-0.7919581"><ele>67.0</ele><time>2026-04-11T06:42:54.358Z</time></trkpt><trkpt lat="38.2372907" lon="-0.7919674"><ele>66.33333333333333</ele><time>2026-04-11T06:42:55.358Z</time></trkpt><trkpt lat="38.2371153" lon="-0.7919776"><ele>65.66666666666667</ele><time>2026-04-11T06:42:56.357Z</time></trkpt><trkpt lat="38.2369344" lon="-0.7919893"><ele>65.0</ele><time>2026-04-11T06:42:57.358Z</time></trkpt><trkpt lat="38.2367546" lon="-0.7919987"><ele>65.0</ele><time>2026-04-11T06:42:58.358Z</time></trkpt><trkpt lat="38.2365708" lon="-0.7920128"><ele>65.0</ele><time>2026-04-11T06:42:59.358Z</time></trkpt><trkpt lat="38.2363845" lon="-0.7920179"><ele>65.0</ele><time>2026-04-11T06:43:00.357Z</time></trkpt><trkpt lat="38.2361997" lon="-0.7920135"><ele>65.0</ele><time>2026-04-11T06:43:01.358Z</time></trkpt><trkpt lat="38.2360148" lon="-0.7919886"><ele>65.0</ele><time>2026-04-11T06:43:02.358Z</time></trkpt><trkpt lat="38.23583" lon="-0.7919417"><ele>65.0</ele><time>2026-04-11T06:43:03.358Z</time></trkpt><trkpt lat="38.2356482" lon="-0.7918764"><ele>64.66666666666667</ele><time>2026-04-11T06:43:04.358Z</time></trkpt><trkpt lat="38.2354701" lon="-0.7917882"><ele>64.33333333333333</ele><time>2026-04-11T06:43:05.358Z</time></trkpt><trkpt lat="38.2352962" lon="-0.7916947"><ele>64.0</ele><time>2026-04-11T06:43:06.357Z</time></trkpt><trkpt lat="38.2351236" lon="-0.7915928"><ele>64.0</ele><time>2026-04-11T06:43:07.358Z</time></trkpt><trkpt lat="38.2349539" lon="-0.7914903"><ele>64.0</ele><time>2026-04-11T06:43:08.357Z</time></trkpt><trkpt lat="38.2347837" lon="-0.7913842"><ele>64.0</ele><time>2026-04-11T06:43:09.358Z</time></trkpt><trkpt lat="38.234613" lon="-0.7912766"><ele>63.0</ele><time>2026-04-11T06:43:10.358Z</time></trkpt><trkpt lat="38.2344519" lon="-0.7911783"><ele>62.0</ele><time>2026-04-11T06:43:11.358Z</time></trkpt><trkpt lat="38.2343024" lon="-0.7911004"><ele>61.0</ele><time>2026-04-11T06:43:12.357Z</time></trkpt><trkpt lat="38.2341484" lon="-0.7910417"><ele>61.0</ele><time>2026-04-11T06:43:13.358Z</time></trkpt><trkpt lat="38.2339904" lon="-0.7910096"><ele>61.0</ele><time>2026-04-11T06:43:14.358Z</time></trkpt><trkpt lat="38.2338336" lon="-0.7910132"><ele>61.0</ele><time>2026-04-11T06:43:15.358Z</time></trkpt><trkpt lat="38.2336774" lon="-0.7910279"><ele>60.33333333333333</ele><time>2026-04-11T06:43:16.358Z</time></trkpt><trkpt lat="38.2335297" lon="-0.7910995"><ele>59.66666666666667</ele><time>2026-04-11T06:43:17.358Z</time></trkpt><trkpt lat="38.2334111" lon="-0.791255"><ele>59.0</ele><time>2026-04-11T06:43:18.358Z</time></trkpt><trkpt lat="38.2332813" lon="-0.7913734"><ele>59.0</ele><time>2026-04-11T06:43:19.357Z</time></trkpt><trkpt lat="38.2331866" lon="-0.7915512"><ele>59.0</ele><time>2026-04-11T06:43:20.357Z</time></trkpt><trkpt lat="38.2330824" lon="-0.7917081"><ele>59.0</ele><time>2026-04-11T06:43:21.358Z</time></trkpt><trkpt lat="38.2329783" lon="-0.7918678"><ele>58.66666666666667</ele><time>2026-04-11T06:43:22.358Z</time></trkpt><trkpt lat="38.2328588" lon="-0.792011"><ele>58.33333333333333</ele><time>2026-04-11T06:43:23.357Z</time></trkpt><trkpt lat="38.2327183" lon="-0.7921328"><ele>58.0</ele><time>2026-04-11T06:43:24.358Z</time></trkpt><trkpt lat="38.2325674" lon="-0.7922275"><ele>58.0</ele><time>2026-04-11T06:43:25.358Z</time></trkpt><trkpt lat="38.2323775" lon="-0.7922596"><ele>58.0</ele><time>2026-04-11T06:43:26.358Z</time></trkpt><trkpt lat="38.2321914" lon="-0.7922585"><ele>58.0</ele><time>2026-04-11T06:43:27.358Z</time></trkpt><trkpt lat="38.2320001" lon="-0.792229"><ele>57.666666666666664</ele><time>2026-04-11T06:43:28.358Z</time></trkpt><trkpt lat="38.2318098" lon="-0.7921771"><ele>57.33333333333333</ele><time>2026-04-11T06:43:29.358Z</time></trkpt><trkpt lat="38.2316257" lon="-0.7920978"><ele>57.0</ele><time>2026-04-11T06:43:30.358Z</time></trkpt><trkpt lat="38.2314347" lon="-0.7919942"><ele>57.0</ele><time>2026-04-11T06:43:31.358Z</time></trkpt><trkpt lat="38.2312575" lon="-0.7918569"><ele>57.0</ele><time>2026-04-11T06:43:32.358Z</time></trkpt><trkpt lat="38.2310875" lon="-0.7917023"><ele>57.0</ele><time>2026-04-11T06:43:33.357Z</time></trkpt><trkpt lat="38.2309099" lon="-0.7915532"><ele>56.66666666666667</ele><time>2026-04-11T06:43:34.358Z</time></trkpt><trkpt lat="38.2307323" lon="-0.7914107"><ele>56.333333333333336</ele><time>2026-04-11T06:43:35.358Z</time></trkpt><trkpt lat="38.2305389" lon="-0.7913036"><ele>56.0</ele><time>2026-04-11T06:43:36.358Z</time></trkpt><trkpt lat="38.2303457" lon="-0.7912107"><ele>56.66666666666667</ele><time>2026-04-11T06:43:37.358Z</time></trkpt><trkpt lat="38.2301357" lon="-0.7912136"><ele>57.33333333333333</ele><time>2026-04-11T06:43:38.358Z</time></trkpt><trkpt lat="38.2299229" lon="-0.7912758"><ele>58.0</ele><time>2026-04-11T06:43:39.358Z</time></trkpt><trkpt lat="38.2297202" lon="-0.7913834"><ele>55.0</ele><time>2026-04-11T06:43:40.358Z</time></trkpt><trkpt lat="38.2295257" lon="-0.7915284"><ele>52.0</ele><time>2026-04-11T06:43:41.358Z</time></trkpt><trkpt lat="38.2293359" lon="-0.7916931"><ele>52.0</ele><time>2026-04-11T06:43:42.358Z</time></trkpt><trkpt lat="38.2291427" lon="-0.7918084"><ele>52.0</ele><time>2026-04-11T06:43:43.358Z</time></trkpt><trkpt lat="38.2289486" lon="-0.7920364"><ele>51.0</ele><time>2026-04-11T06:43:44.358Z</time></trkpt><trkpt lat="38.22876" lon="-0.7922489"><ele>50.0</ele><time>2026-04-11T06:43:45.358Z</time></trkpt><trkpt lat="38.2285686" lon="-0.7924685"><ele>50.5</ele><time>2026-04-11T06:43:46.357Z</time></trkpt><trkpt lat="38.2283789" lon="-0.7926985"><ele>51.0</ele><time>2026-04-11T06:43:47.358Z</time></trkpt><trkpt lat="38.2282015" lon="-0.7929476"><ele>49.0</ele><time>2026-04-11T06:43:48.358Z</time></trkpt><trkpt lat="38.2280206" lon="-0.7932078"><ele>47.0</ele><time>2026-04-11T06:43:49.358Z</time></trkpt><trkpt lat="38.2278499" lon="-0.7934901"><ele>47.0</ele><time>2026-04-11T06:43:50.358Z</time></trkpt><trkpt lat="38.2276818" lon="-0.7937825"><ele>47.0</ele><time>2026-04-11T06:43:51.357Z</time></trkpt><trkpt lat="38.2275217" lon="-0.7940802"><ele>47.5</ele><time>2026-04-11T06:43:52.358Z</time></trkpt><trkpt lat="38.2273784" lon="-0.7944196"><ele>48.0</ele><time>2026-04-11T06:43:53.358Z</time></trkpt><trkpt lat="38.2272348" lon="-0.7947517"><ele>47.5</ele><time>2026-04-11T06:43:54.358Z</time></trkpt><trkpt lat="38.2270894" lon="-0.7950882"><ele>47.0</ele><time>2026-04-11T06:43:55.358Z</time></trkpt><trkpt lat="38.2269496" lon="-0.7954306"><ele>47.0</ele><time>2026-04-11T06:43:56.358Z</time></trkpt><trkpt lat="38.226809" lon="-0.7957832"><ele>47.0</ele><time>2026-04-11T06:43:57.357Z</time></trkpt><trkpt lat="38.2266648" lon="-0.7961392"><ele>46.0</ele><time>2026-04-11T06:43:58.358Z</time></trkpt><trkpt lat="38.2265119" lon="-0.7964963"><ele>45.0</ele><time>2026-04-11T06:43:59.358Z</time></trkpt><trkpt lat="38.2263574" lon="-0.7968542"><ele>45.0</ele><time>2026-04-11T06:44:00.357Z</time></trkpt><trkpt lat="38.2262039" lon="-0.7972053"><ele>45.0</ele><time>2026-04-11T06:44:01.357Z</time></trkpt><trkpt lat="38.2260498" lon="-0.7975546"><ele>46.0</ele><time>2026-04-11T06:44:02.358Z</time></trkpt><trkpt lat="38.2258791" lon="-0.7978941"><ele>47.0</ele><time>2026-04-11T06:44:03.358Z</time></trkpt><trkpt lat="38.225722" lon="-0.7982433"><ele>47.0</ele><time>2026-04-11T06:44:04.358Z</time></trkpt><trkpt lat="38.2255527" lon="-0.7985784"><ele>47.0</ele><time>2026-04-11T06:44:05.358Z</time></trkpt><trkpt lat="38.2253813" lon="-0.7988667"><ele>47.0</ele><time>2026-04-11T06:44:06.358Z</time></trkpt><trkpt lat="38.2252073" lon="-0.7991529"><ele>47.0</ele><time>2026-04-11T06:44:07.358Z</time></trkpt><trkpt lat="38.2250186" lon="-0.7995289"><ele>48.0</ele><time>2026-04-11T06:44:08.358Z</time></trkpt><trkpt lat="38.2248361" lon="-0.7998652"><ele>49.0</ele><time>2026-04-11T06:44:09.358Z</time></trkpt><trkpt lat="38.2246594" lon="-0.8002018"><ele>49.0</ele><time>2026-04-11T06:44:10.358Z</time></trkpt><trkpt lat="38.2244785" lon="-0.8005371"><ele>49.0</ele><time>2026-04-11T06:44:11.358Z</time></trkpt><trkpt lat="38.2243047" lon="-0.8008812"><ele>49.0</ele><time>2026-04-11T06:44:12.358Z</time></trkpt><trkpt lat="38.2241413" lon="-0.801228"><ele>49.0</ele><time>2026-04-11T06:44:13.358Z</time></trkpt><trkpt lat="38.2239843" lon="-0.8015876"><ele>49.5</ele><time>2026-04-11T06:44:14.358Z</time></trkpt><trkpt lat="38.223836" lon="-0.801956"><ele>50.0</ele><time>2026-04-11T06:44:15.358Z</time></trkpt><trkpt lat="38.2236954" lon="-0.8023308"><ele>52.0</ele><time>2026-04-11T06:44:16.358Z</time></trkpt><trkpt lat="38.2235689" lon="-0.8027124"><ele>54.0</ele><time>2026-04-11T06:44:17.358Z</time></trkpt><trkpt lat="38.2234482" lon="-0.8030971"><ele>54.0</ele><time>2026-04-11T06:44:18.358Z</time></trkpt><trkpt lat="38.2233394" lon="-0.8034798"><ele>54.0</ele><time>2026-04-11T06:44:19.358Z</time></trkpt><trkpt lat="38.2232259" lon="-0.803874"><ele>53.5</ele><time>2026-04-11T06:44:20.358Z</time></trkpt><trkpt lat="38.2231146" lon="-0.8042616"><ele>53.0</ele><time>2026-04-11T06:44:21.358Z</time></trkpt><trkpt lat="38.2230002" lon="-0.8046481"><ele>50.5</ele><time>2026-04-11T06:44:22.358Z</time></trkpt><trkpt lat="38.2228853" lon="-0.805033"><ele>48.0</ele><time>2026-04-11T06:44:23.358Z</time></trkpt><trkpt lat="38.222766" lon="-0.8054175"><ele>48.0</ele><time>2026-04-11T06:44:24.358Z</time></trkpt><trkpt lat="38.2226492" lon="-0.8057956"><ele>48.0</ele><time>2026-04-11T06:44:25.358Z</time></trkpt><trkpt lat="38.2225288" lon="-0.8061719"><ele>47.5</ele><time>2026-04-11T06:44:26.358Z</time></trkpt><trkpt lat="38.2224045" lon="-0.8065534"><ele>47.0</ele><time>2026-04-11T06:44:27.358Z</time></trkpt><trkpt lat="38.2222783" lon="-0.8069337"><ele>45.5</ele><time>2026-04-11T06:44:28.357Z</time></trkpt><trkpt lat="38.2221484" lon="-0.8073135"><ele>44.0</ele><time>2026-04-11T06:44:29.358Z</time></trkpt><trkpt lat="38.2220168" lon="-0.807688"><ele>44.0</ele><time>2026-04-11T06:44:30.357Z</time></trkpt><trkpt lat="38.2218834" lon="-0.8080624"><ele>44.0</ele><time>2026-04-11T06:44:31.357Z</time></trkpt><trkpt lat="38.2217488" lon="-0.8084356"><ele>45.0</ele><time>2026-04-11T06:44:32.357Z</time></trkpt><trkpt lat="38.2216094" lon="-0.8088081"><ele>46.0</ele><time>2026-04-11T06:44:33.357Z</time></trkpt><trkpt lat="38.2214685" lon="-0.8091776"><ele>43.0</ele><time>2026-04-11T06:44:34.358Z</time></trkpt><trkpt lat="38.221324" lon="-0.8095487"><ele>40.0</ele><time>2026-04-11T06:44:35.358Z</time></trkpt><trkpt lat="38.221178" lon="-0.8099185"><ele>41.0</ele><time>2026-04-11T06:44:36.358Z</time></trkpt><trkpt lat="38.2210301" lon="-0.810287"><ele>42.0</ele><time>2026-04-11T06:44:37.358Z</time></trkpt><trkpt lat="38.2208857" lon="-0.8106387"><ele>42.0</ele><time>2026-04-11T06:44:38.358Z</time></trkpt><trkpt lat="38.220734" lon="-0.8109998"><ele>42.0</ele><time>2026-04-11T06:44:39.358Z</time></trkpt><trkpt lat="38.2205839" lon="-0.8113547"><ele>40.0</ele><time>2026-04-11T06:44:40.358Z</time></trkpt><trkpt lat="38.2204309" lon="-0.8117126"><ele>38.0</ele><time>2026-04-11T06:44:41.358Z</time></trkpt><trkpt lat="38.2202732" lon="-0.8120736"><ele>37.0</ele><time>2026-04-11T06:44:42.357Z</time></trkpt><trkpt lat="38.220114" lon="-0.8124335"><ele>36.0</ele><time>2026-04-11T06:44:43.358Z</time></trkpt><trkpt lat="38.219953" lon="-0.8127953"><ele>37.5</ele><time>2026-04-11T06:44:44.357Z</time></trkpt><trkpt lat="38.2197722" lon="-0.8131862"><ele>39.0</ele><time>2026-04-11T06:44:45.358Z</time></trkpt><trkpt lat="38.2196188" lon="-0.813508"><ele>39.5</ele><time>2026-04-11T06:44:46.358Z</time></trkpt><trkpt lat="38.2194519" lon="-0.8138631"><ele>40.0</ele><time>2026-04-11T06:44:47.358Z</time></trkpt><trkpt lat="38.2192845" lon="-0.8142091"><ele>39.5</ele><time>2026-04-11T06:44:48.358Z</time></trkpt><trkpt lat="38.2191135" lon="-0.8145566"><ele>39.0</ele><time>2026-04-11T06:44:49.358Z</time></trkpt><trkpt lat="38.2189398" lon="-0.8148986"><ele>40.0</ele><time>2026-04-11T06:44:50.358Z</time></trkpt><trkpt lat="38.218764" lon="-0.8152384"><ele>41.0</ele><time>2026-04-11T06:44:51.358Z</time></trkpt><trkpt lat="38.2185842" lon="-0.8155779"><ele>41.0</ele><time>2026-04-11T06:44:52.358Z</time></trkpt><trkpt lat="38.2184041" lon="-0.8159192"><ele>41.0</ele><time>2026-04-11T06:44:53.358Z</time></trkpt><trkpt lat="38.218223" lon="-0.8162573"><ele>40.5</ele><time>2026-04-11T06:44:54.358Z</time></trkpt><trkpt lat="38.2180393" lon="-0.8165949"><ele>40.0</ele><time>2026-04-11T06:44:55.358Z</time></trkpt><trkpt lat="38.2178547" lon="-0.8169292"><ele>39.5</ele><time>2026-04-11T06:44:56.358Z</time></trkpt><trkpt lat="38.2176675" lon="-0.8172603"><ele>39.0</ele><time>2026-04-11T06:44:57.358Z</time></trkpt><trkpt lat="38.2174763" lon="-0.8175909"><ele>38.5</ele><time>2026-04-11T06:44:58.358Z</time></trkpt><trkpt lat="38.2172819" lon="-0.8179124"><ele>38.0</ele><time>2026-04-11T06:44:59.358Z</time></trkpt><trkpt lat="38.2170859" lon="-0.8182402"><ele>38.0</ele><time>2026-04-11T06:45:00.357Z</time></trkpt><trkpt lat="38.2169006" lon="-0.8185534"><ele>38.0</ele><time>2026-04-11T06:45:01.357Z</time></trkpt><trkpt lat="38.2167254" lon="-0.818845"><ele>38.0</ele><time>2026-04-11T06:45:02.358Z</time></trkpt><trkpt lat="38.2165632" lon="-0.8191088"><ele>38.0</ele><time>2026-04-11T06:45:03.358Z</time></trkpt><trkpt lat="38.2164131" lon="-0.819351"><ele>39.0</ele><time>2026-04-11T06:45:04.357Z</time></trkpt><trkpt lat="38.2162674" lon="-0.8195816"><ele>40.0</ele><time>2026-04-11T06:45:05.358Z</time></trkpt><trkpt lat="38.2161264" lon="-0.8197991"><ele>40.0</ele><time>2026-04-11T06:45:06.358Z</time></trkpt><trkpt lat="38.2159855" lon="-0.8200155"><ele>40.0</ele><time>2026-04-11T06:45:07.358Z</time></trkpt><trkpt lat="38.2158404" lon="-0.8202385"><ele>40.0</ele><time>2026-04-11T06:45:08.358Z</time></trkpt><trkpt lat="38.2156926" lon="-0.820462"><ele>40.0</ele><time>2026-04-11T06:45:09.358Z</time></trkpt><trkpt lat="38.215534" lon="-0.8206957"><ele>40.0</ele><time>2026-04-11T06:45:10.358Z</time></trkpt><trkpt lat="38.2153712" lon="-0.8209326"><ele>40.5</ele><time>2026-04-11T06:45:11.358Z</time></trkpt><trkpt lat="38.2152082" lon="-0.8211674"><ele>41.0</ele><time>2026-04-11T06:45:12.358Z</time></trkpt><trkpt lat="38.2150365" lon="-0.8214131"><ele>41.0</ele><time>2026-04-11T06:45:13.358Z</time></trkpt><trkpt lat="38.2148628" lon="-0.8216637"><ele>41.0</ele><time>2026-04-11T06:45:14.357Z</time></trkpt><trkpt lat="38.2146829" lon="-0.8219175"><ele>39.5</ele><time>2026-04-11T06:45:15.358Z</time></trkpt><trkpt lat="38.2144993" lon="-0.8221749"><ele>38.0</ele><time>2026-04-11T06:45:16.358Z</time></trkpt><trkpt lat="38.2143124" lon="-0.8224367"><ele>39.0</ele><time>2026-04-11T06:45:17.358Z</time></trkpt><trkpt lat="38.2141153" lon="-0.822699"><ele>40.0</ele><time>2026-04-11T06:45:18.357Z</time></trkpt><trkpt lat="38.213916" lon="-0.8229653"><ele>40.0</ele><time>2026-04-11T06:45:19.358Z</time></trkpt><trkpt lat="38.2137119" lon="-0.8232325"><ele>40.0</ele><time>2026-04-11T06:45:20.358Z</time></trkpt><trkpt lat="38.2135074" lon="-0.8234983"><ele>38.5</ele><time>2026-04-11T06:45:21.358Z</time></trkpt><trkpt lat="38.213298" lon="-0.8237617"><ele>37.0</ele><time>2026-04-11T06:45:22.358Z</time></trkpt><trkpt lat="38.2130889" lon="-0.8240236"><ele>37.0</ele><time>2026-04-11T06:45:23.358Z</time></trkpt><trkpt lat="38.2128795" lon="-0.8242851"><ele>37.0</ele><time>2026-04-11T06:45:24.358Z</time></trkpt><trkpt lat="38.2126679" lon="-0.8245439"><ele>37.0</ele><time>2026-04-11T06:45:25.358Z</time></trkpt><trkpt lat="38.2124566" lon="-0.8247928"><ele>37.0</ele><time>2026-04-11T06:45:26.358Z</time></trkpt><trkpt lat="38.2122499" lon="-0.8250406"><ele>37.0</ele><time>2026-04-11T06:45:27.357Z</time></trkpt><trkpt lat="38.2120428" lon="-0.8252868"><ele>37.0</ele><time>2026-04-11T06:45:28.358Z</time></trkpt><trkpt lat="38.2118349" lon="-0.8255264"><ele>37.0</ele><time>2026-04-11T06:45:29.358Z</time></trkpt><trkpt lat="38.2116253" lon="-0.825765"><ele>37.0</ele><time>2026-04-11T06:45:30.357Z</time></trkpt><trkpt lat="38.2114109" lon="-0.8260023"><ele>38.0</ele><time>2026-04-11T06:45:31.358Z</time></trkpt><trkpt lat="38.2111984" lon="-0.8262383"><ele>39.0</ele><time>2026-04-11T06:45:32.358Z</time></trkpt><trkpt lat="38.210989" lon="-0.8264742"><ele>39.0</ele><time>2026-04-11T06:45:33.358Z</time></trkpt><trkpt lat="38.2107798" lon="-0.8267005"><ele>39.0</ele><time>2026-04-11T06:45:34.358Z</time></trkpt><trkpt lat="38.2105704" lon="-0.8269175"><ele>37.0</ele><time>2026-04-11T06:45:35.358Z</time></trkpt><trkpt lat="38.2103629" lon="-0.8271195"><ele>35.0</ele><time>2026-04-11T06:45:36.358Z</time></trkpt><trkpt lat="38.2101625" lon="-0.8273068"><ele>35.0</ele><time>2026-04-11T06:45:37.357Z</time></trkpt><trkpt lat="38.2099655" lon="-0.8274894"><ele>35.0</ele><time>2026-04-11T06:45:38.358Z</time></trkpt><trkpt lat="38.2097604" lon="-0.8276735"><ele>35.0</ele><time>2026-04-11T06:45:39.358Z</time></trkpt><trkpt lat="38.2095523" lon="-0.8278564"><ele>35.0</ele><time>2026-04-11T06:45:40.357Z</time></trkpt><trkpt lat="38.2093404" lon="-0.8280348"><ele>35.0</ele><time>2026-04-11T06:45:41.358Z</time></trkpt><trkpt lat="38.2091238" lon="-0.8282111"><ele>35.0</ele><time>2026-04-11T06:45:42.358Z</time></trkpt><trkpt lat="38.2089" lon="-0.8283862"><ele>33.5</ele><time>2026-04-11T06:45:43.358Z</time></trkpt><trkpt lat="38.2086714" lon="-0.8285598"><ele>32.0</ele><time>2026-04-11T06:45:44.358Z</time></trkpt><trkpt lat="38.208435" lon="-0.8287344"><ele>32.0</ele><time>2026-04-11T06:45:45.358Z</time></trkpt><trkpt lat="38.2081958" lon="-0.8289101"><ele>32.0</ele><time>2026-04-11T06:45:46.358Z</time></trkpt><trkpt lat="38.2079507" lon="-0.8290803"><ele>32.5</ele><time>2026-04-11T06:45:47.357Z</time></trkpt><trkpt lat="38.207694" lon="-0.829248"><ele>33.0</ele><time>2026-04-11T06:45:48.358Z</time></trkpt><trkpt lat="38.2074317" lon="-0.8294182"><ele>31.0</ele><time>2026-04-11T06:45:49.358Z</time></trkpt><trkpt lat="38.2071642" lon="-0.8295758"><ele>29.0</ele><time>2026-04-11T06:45:50.358Z</time></trkpt><trkpt lat="38.2068955" lon="-0.8297361"><ele>29.0</ele><time>2026-04-11T06:45:51.357Z</time></trkpt><trkpt lat="38.2066245" lon="-0.8298925"><ele>29.0</ele><time>2026-04-11T06:45:52.358Z</time></trkpt><trkpt lat="38.2063438" lon="-0.8300433"><ele>28.0</ele><time>2026-04-11T06:45:53.358Z</time></trkpt><trkpt lat="38.2060524" lon="-0.8301899"><ele>27.0</ele><time>2026-04-11T06:45:54.357Z</time></trkpt><trkpt lat="38.2057561" lon="-0.830335"><ele>25.5</ele><time>2026-04-11T06:45:55.358Z</time></trkpt><trkpt lat="38.205456" lon="-0.830473"><ele>24.0</ele><time>2026-04-11T06:45:56.358Z</time></trkpt><trkpt lat="38.2051508" lon="-0.8306053"><ele>24.0</ele><time>2026-04-11T06:45:57.358Z</time></trkpt><trkpt lat="38.2048422" lon="-0.8307324"><ele>24.0</ele><time>2026-04-11T06:45:58.358Z</time></trkpt><trkpt lat="38.2045288" lon="-0.8308522"><ele>23.5</ele><time>2026-04-11T06:45:59.358Z</time></trkpt><trkpt lat="38.2042148" lon="-0.8309649"><ele>23.0</ele><time>2026-04-11T06:46:00.358Z</time></trkpt><trkpt lat="38.2039044" lon="-0.8310694"><ele>21.5</ele><time>2026-04-11T06:46:01.358Z</time></trkpt><trkpt lat="38.2035859" lon="-0.8311699"><ele>20.0</ele><time>2026-04-11T06:46:02.358Z</time></trkpt><trkpt lat="38.2032729" lon="-0.8312715"><ele>20.0</ele><time>2026-04-11T06:46:03.358Z</time></trkpt><trkpt lat="38.2029595" lon="-0.8313792"><ele>20.0</ele><time>2026-04-11T06:46:04.358Z</time></trkpt><trkpt lat="38.2026472" lon="-0.8314915"><ele>20.0</ele><time>2026-04-11T06:46:05.358Z</time></trkpt><trkpt lat="38.2023392" lon="-0.8316176"><ele>20.0</ele><time>2026-04-11T06:46:06.358Z</time></trkpt><trkpt lat="38.2020342" lon="-0.8317585"><ele>19.5</ele><time>2026-04-11T06:46:07.358Z</time></trkpt><trkpt lat="38.2017343" lon="-0.8319154"><ele>19.0</ele><time>2026-04-11T06:46:08.357Z</time></trkpt><trkpt lat="38.2014358" lon="-0.8320829"><ele>18.5</ele><time>2026-04-11T06:46:09.358Z</time></trkpt><trkpt lat="38.201148" lon="-0.8322561"><ele>18.0</ele><time>2026-04-11T06:46:10.357Z</time></trkpt><trkpt lat="38.2008604" lon="-0.8324435"><ele>18.0</ele><time>2026-04-11T06:46:11.358Z</time></trkpt><trkpt lat="38.2005733" lon="-0.8326333"><ele>18.0</ele><time>2026-04-11T06:46:12.358Z</time></trkpt><trkpt lat="38.2002836" lon="-0.832826"><ele>17.0</ele><time>2026-04-11T06:46:13.358Z</time></trkpt><trkpt lat="38.1999958" lon="-0.8330134"><ele>16.0</ele><time>2026-04-11T06:46:14.357Z</time></trkpt><trkpt lat="38.1997036" lon="-0.8331975"><ele>16.0</ele><time>2026-04-11T06:46:15.358Z</time></trkpt><trkpt lat="38.1994129" lon="-0.8333792"><ele>16.0</ele><time>2026-04-11T06:46:16.357Z</time></trkpt><trkpt lat="38.1991227" lon="-0.8335598"><ele>14.5</ele><time>2026-04-11T06:46:17.358Z</time></trkpt><trkpt lat="38.1988323" lon="-0.8337408"><ele>13.0</ele><time>2026-04-11T06:46:18.358Z</time></trkpt><trkpt lat="38.1985366" lon="-0.8339214"><ele>13.0</ele><time>2026-04-11T06:46:19.357Z</time></trkpt><trkpt lat="38.1982463" lon="-0.8341019"><ele>13.0</ele><time>2026-04-11T06:46:20.358Z</time></trkpt><trkpt lat="38.1979647" lon="-0.8342956"><ele>13.0</ele><time>2026-04-11T06:46:21.358Z</time></trkpt><trkpt lat="38.1976869" lon="-0.8345055"><ele>13.0</ele><time>2026-04-11T06:46:22.358Z</time></trkpt><trkpt lat="38.197415" lon="-0.8347217"><ele>12.0</ele><time>2026-04-11T06:46:23.358Z</time></trkpt><trkpt lat="38.1971504" lon="-0.8349529"><ele>11.0</ele><time>2026-04-11T06:46:24.358Z</time></trkpt><trkpt lat="38.1968922" lon="-0.8352009"><ele>11.0</ele><time>2026-04-11T06:46:25.358Z</time></trkpt><trkpt lat="38.1966439" lon="-0.8354577"><ele>11.0</ele><time>2026-04-11T06:46:26.358Z</time></trkpt><trkpt lat="38.1963979" lon="-0.8357271"><ele>11.0</ele><time>2026-04-11T06:46:27.358Z</time></trkpt><trkpt lat="38.1961614" lon="-0.8359994"><ele>11.0</ele><time>2026-04-11T06:46:28.357Z</time></trkpt><trkpt lat="38.1959364" lon="-0.8362885"><ele>11.0</ele><time>2026-04-11T06:46:29.358Z</time></trkpt><trkpt lat="38.1957156" lon="-0.8365896"><ele>11.0</ele><time>2026-04-11T06:46:30.358Z</time></trkpt><trkpt lat="38.1955015" lon="-0.8368993"><ele>11.5</ele><time>2026-04-11T06:46:31.358Z</time></trkpt><trkpt lat="38.1952988" lon="-0.8372157"><ele>12.0</ele><time>2026-04-11T06:46:32.358Z</time></trkpt><trkpt lat="38.1951064" lon="-0.8375422"><ele>11.0</ele><time>2026-04-11T06:46:33.358Z</time></trkpt><trkpt lat="38.1949207" lon="-0.8378715"><ele>10.0</ele><time>2026-04-11T06:46:34.358Z</time></trkpt><trkpt lat="38.1947383" lon="-0.8382071"><ele>9.5</ele><time>2026-04-11T06:46:35.357Z</time></trkpt><trkpt lat="38.1945528" lon="-0.8385392"><ele>9.0</ele><time>2026-04-11T06:46:36.357Z</time></trkpt><trkpt lat="38.1943683" lon="-0.838871"><ele>9.0</ele><time>2026-04-11T06:46:37.358Z</time></trkpt><trkpt lat="38.1941826" lon="-0.8392023"><ele>9.0</ele><time>2026-04-11T06:46:38.358Z</time></trkpt><trkpt lat="38.1939931" lon="-0.8395272"><ele>8.5</ele><time>2026-04-11T06:46:39.358Z</time></trkpt><trkpt lat="38.1937978" lon="-0.8398538"><ele>8.0</ele><time>2026-04-11T06:46:40.357Z</time></trkpt><trkpt lat="38.1935981" lon="-0.8401824"><ele>8.0</ele><time>2026-04-11T06:46:41.358Z</time></trkpt><trkpt lat="38.1934002" lon="-0.8405061"><ele>8.0</ele><time>2026-04-11T06:46:42.358Z</time></trkpt><trkpt lat="38.1931958" lon="-0.8408257"><ele>9.0</ele><time>2026-04-11T06:46:43.358Z</time></trkpt><trkpt lat="38.1929875" lon="-0.8411421"><ele>10.0</ele><time>2026-04-11T06:46:44.358Z</time></trkpt><trkpt lat="38.1927796" lon="-0.8414558"><ele>10.0</ele><time>2026-04-11T06:46:45.358Z</time></trkpt><trkpt lat="38.1925682" lon="-0.8417647"><ele>10.0</ele><time>2026-04-11T06:46:46.358Z</time></trkpt><trkpt lat="38.1923525" lon="-0.8420691"><ele>10.0</ele><time>2026-04-11T06:46:47.358Z</time></trkpt><trkpt lat="38.1921328" lon="-0.8423695"><ele>10.0</ele><time>2026-04-11T06:46:48.358Z</time></trkpt><trkpt lat="38.1919106" lon="-0.8426686"><ele>10.0</ele><time>2026-04-11T06:46:49.358Z</time></trkpt><trkpt lat="38.1916847" lon="-0.8429615"><ele>10.0</ele><time>2026-04-11T06:46:50.358Z</time></trkpt><trkpt lat="38.1914582" lon="-0.843254"><ele>8.5</ele><time>2026-04-11T06:46:51.358Z</time></trkpt><trkpt lat="38.1912297" lon="-0.8435479"><ele>7.0</ele><time>2026-04-11T06:46:52.358Z</time></trkpt><trkpt lat="38.191" lon="-0.8438377"><ele>7.0</ele><time>2026-04-11T06:46:53.358Z</time></trkpt><trkpt lat="38.1907626" lon="-0.8441242"><ele>7.0</ele><time>2026-04-11T06:46:54.358Z</time></trkpt><trkpt lat="38.1905206" lon="-0.8444059"><ele>8.5</ele><time>2026-04-11T06:46:55.358Z</time></trkpt><trkpt lat="38.1902745" lon="-0.8446849"><ele>10.0</ele><time>2026-04-11T06:46:56.358Z</time></trkpt><trkpt lat="38.1900258" lon="-0.8449642"><ele>10.5</ele><time>2026-04-11T06:46:57.357Z</time></trkpt><trkpt lat="38.1897755" lon="-0.8452411"><ele>11.0</ele><time>2026-04-11T06:46:58.358Z</time></trkpt><trkpt lat="38.1895221" lon="-0.8455115"><ele>11.0</ele><time>2026-04-11T06:46:59.358Z</time></trkpt><trkpt lat="38.1892648" lon="-0.8457799"><ele>11.0</ele><time>2026-04-11T06:47:00.358Z</time></trkpt><trkpt lat="38.1890035" lon="-0.8460424"><ele>9.5</ele><time>2026-04-11T06:47:01.358Z</time></trkpt><trkpt lat="38.188739" lon="-0.8463023"><ele>8.0</ele><time>2026-04-11T06:47:02.358Z</time></trkpt><trkpt lat="38.1884726" lon="-0.846558"><ele>8.0</ele><time>2026-04-11T06:47:03.358Z</time></trkpt><trkpt lat="38.1882061" lon="-0.8468078"><ele>8.0</ele><time>2026-04-11T06:47:04.358Z</time></trkpt><trkpt lat="38.1879371" lon="-0.8470551"><ele>8.0</ele><time>2026-04-11T06:47:05.357Z</time></trkpt><trkpt lat="38.1876674" lon="-0.8472921"><ele>8.0</ele><time>2026-04-11T06:47:06.358Z</time></trkpt><trkpt lat="38.1873904" lon="-0.8475274"><ele>8.0</ele><time>2026-04-11T06:47:07.358Z</time></trkpt><trkpt lat="38.1871145" lon="-0.8477549"><ele>8.0</ele><time>2026-04-11T06:47:08.358Z</time></trkpt><trkpt lat="38.1868328" lon="-0.847986"><ele>8.0</ele><time>2026-04-11T06:47:09.358Z</time></trkpt><trkpt lat="38.1865508" lon="-0.8482146"><ele>8.0</ele><time>2026-04-11T06:47:10.358Z</time></trkpt><trkpt lat="38.1862654" lon="-0.8484465"><ele>8.0</ele><time>2026-04-11T06:47:11.358Z</time></trkpt><trkpt lat="38.1859874" lon="-0.848676"><ele>8.0</ele><time>2026-04-11T06:47:12.358Z</time></trkpt><trkpt lat="38.1857087" lon="-0.8489108"><ele>8.0</ele><time>2026-04-11T06:47:13.358Z</time></trkpt><trkpt lat="38.1854321" lon="-0.8491497"><ele>8.0</ele><time>2026-04-11T06:47:14.358Z</time></trkpt><trkpt lat="38.1851593" lon="-0.8493948"><ele>8.0</ele><time>2026-04-11T06:47:15.358Z</time></trkpt><trkpt lat="38.1848897" lon="-0.8496467"><ele>8.0</ele><time>2026-04-11T06:47:16.357Z</time></trkpt><trkpt lat="38.1846198" lon="-0.8499028"><ele>8.5</ele><time>2026-04-11T06:47:17.358Z</time></trkpt><trkpt lat="38.1843538" lon="-0.8501619"><ele>9.0</ele><time>2026-04-11T06:47:18.357Z</time></trkpt><trkpt lat="38.1840944" lon="-0.8504248"><ele>9.0</ele><time>2026-04-11T06:47:19.358Z</time></trkpt><trkpt lat="38.1838326" lon="-0.8506911"><ele>9.0</ele><time>2026-04-11T06:47:20.358Z</time></trkpt><trkpt lat="38.1835732" lon="-0.850958"><ele>9.0</ele><time>2026-04-11T06:47:21.358Z</time></trkpt><trkpt lat="38.1833215" lon="-0.8512282"><ele>9.0</ele><time>2026-04-11T06:47:22.358Z</time></trkpt><trkpt lat="38.1830704" lon="-0.8515055"><ele>9.5</ele><time>2026-04-11T06:47:23.358Z</time></trkpt><trkpt lat="38.1828206" lon="-0.8517845"><ele>10.0</ele><time>2026-04-11T06:47:24.358Z</time></trkpt><trkpt lat="38.1825734" lon="-0.8520662"><ele>10.0</ele><time>2026-04-11T06:47:25.358Z</time></trkpt><trkpt lat="38.1823277" lon="-0.8523528"><ele>10.0</ele><time>2026-04-11T06:47:26.357Z</time></trkpt><trkpt lat="38.182083" lon="-0.8526424"><ele>10.0</ele><time>2026-04-11T06:47:27.358Z</time></trkpt><trkpt lat="38.1818458" lon="-0.8529368"><ele>10.0</ele><time>2026-04-11T06:47:28.358Z</time></trkpt><trkpt lat="38.1816138" lon="-0.8532347"><ele>9.5</ele><time>2026-04-11T06:47:29.358Z</time></trkpt><trkpt lat="38.1813812" lon="-0.8535399"><ele>9.0</ele><time>2026-04-11T06:47:30.358Z</time></trkpt><trkpt lat="38.1811533" lon="-0.8538499"><ele>9.0</ele><time>2026-04-11T06:47:31.358Z</time></trkpt><trkpt lat="38.1809269" lon="-0.8541594"><ele>9.0</ele><time>2026-04-11T06:47:32.358Z</time></trkpt><trkpt lat="38.1807002" lon="-0.8544708"><ele>9.5</ele><time>2026-04-11T06:47:33.358Z</time></trkpt><trkpt lat="38.1804757" lon="-0.8547787"><ele>10.0</ele><time>2026-04-11T06:47:34.358Z</time></trkpt><trkpt lat="38.1802495" lon="-0.8550796"><ele>10.0</ele><time>2026-04-11T06:47:35.358Z</time></trkpt><trkpt lat="38.1800136" lon="-0.855377"><ele>10.0</ele><time>2026-04-11T06:47:36.358Z</time></trkpt><trkpt lat="38.1797758" lon="-0.855672"><ele>10.0</ele><time>2026-04-11T06:47:37.358Z</time></trkpt><trkpt lat="38.1795372" lon="-0.8559664"><ele>10.0</ele><time>2026-04-11T06:47:38.358Z</time></trkpt><trkpt lat="38.1792926" lon="-0.8562564"><ele>10.0</ele><time>2026-04-11T06:47:39.358Z</time></trkpt><trkpt lat="38.1790472" lon="-0.8565427"><ele>10.0</ele><time>2026-04-11T06:47:40.358Z</time></trkpt><trkpt lat="38.1788005" lon="-0.8568282"><ele>10.5</ele><time>2026-04-11T06:47:41.358Z</time></trkpt><trkpt lat="38.1785539" lon="-0.8571128"><ele>11.0</ele><time>2026-04-11T06:47:42.358Z</time></trkpt><trkpt lat="38.1783053" lon="-0.8573924"><ele>11.0</ele><time>2026-04-11T06:47:43.358Z</time></trkpt><trkpt lat="38.1780554" lon="-0.8576718"><ele>11.0</ele><time>2026-04-11T06:47:44.357Z</time></trkpt><trkpt lat="38.1777998" lon="-0.8579421"><ele>11.0</ele><time>2026-04-11T06:47:45.358Z</time></trkpt><trkpt lat="38.1775375" lon="-0.8582061"><ele>11.0</ele><time>2026-04-11T06:47:46.358Z</time></trkpt><trkpt lat="38.1772734" lon="-0.8584683"><ele>10.5</ele><time>2026-04-11T06:47:47.358Z</time></trkpt><trkpt lat="38.1770076" lon="-0.8587267"><ele>10.0</ele><time>2026-04-11T06:47:48.357Z</time></trkpt><trkpt lat="38.1767441" lon="-0.8589819"><ele>10.5</ele><time>2026-04-11T06:47:49.358Z</time></trkpt><trkpt lat="38.1764804" lon="-0.8592404"><ele>11.0</ele><time>2026-04-11T06:47:50.357Z</time></trkpt><trkpt lat="38.1762142" lon="-0.8595023"><ele>11.0</ele><time>2026-04-11T06:47:51.358Z</time></trkpt><trkpt lat="38.1759547" lon="-0.8597633"><ele>11.0</ele><time>2026-04-11T06:47:52.357Z</time></trkpt><trkpt lat="38.175694" lon="-0.8600278"><ele>10.5</ele><time>2026-04-11T06:47:53.358Z</time></trkpt><trkpt lat="38.1754365" lon="-0.8602979"><ele>10.0</ele><time>2026-04-11T06:47:54.358Z</time></trkpt><trkpt lat="38.175178" lon="-0.8605693"><ele>10.0</ele><time>2026-04-11T06:47:55.358Z</time></trkpt><trkpt lat="38.1749235" lon="-0.8608397"><ele>10.0</ele><time>2026-04-11T06:47:56.358Z</time></trkpt><trkpt lat="38.1746709" lon="-0.8611173"><ele>10.0</ele><time>2026-04-11T06:47:57.358Z</time></trkpt><trkpt lat="38.1744193" lon="-0.8613952"><ele>10.0</ele><time>2026-04-11T06:47:58.358Z</time></trkpt><trkpt lat="38.1741716" lon="-0.8616755"><ele>9.5</ele><time>2026-04-11T06:47:59.357Z</time></trkpt><trkpt lat="38.1739303" lon="-0.8619537"><ele>9.0</ele><time>2026-04-11T06:48:00.358Z</time></trkpt><trkpt lat="38.1736824" lon="-0.8622341"><ele>9.0</ele><time>2026-04-11T06:48:01.358Z</time></trkpt><trkpt lat="38.1734339" lon="-0.8625194"><ele>9.0</ele><time>2026-04-11T06:48:02.358Z</time></trkpt><trkpt lat="38.1731905" lon="-0.8628034"><ele>11.0</ele><time>2026-04-11T06:48:03.358Z</time></trkpt><trkpt lat="38.1729466" lon="-0.8630954"><ele>13.0</ele><time>2026-04-11T06:48:04.357Z</time></trkpt><trkpt lat="38.1727082" lon="-0.8633889"><ele>11.5</ele><time>2026-04-11T06:48:05.358Z</time></trkpt><trkpt lat="38.1724693" lon="-0.8636836"><ele>10.0</ele><time>2026-04-11T06:48:06.357Z</time></trkpt><trkpt lat="38.1722319" lon="-0.8639805"><ele>9.5</ele><time>2026-04-11T06:48:07.358Z</time></trkpt><trkpt lat="38.1719942" lon="-0.8642752"><ele>9.0</ele><time>2026-04-11T06:48:08.357Z</time></trkpt><trkpt lat="38.1717577" lon="-0.8645708"><ele>9.5</ele><time>2026-04-11T06:48:09.358Z</time></trkpt><trkpt lat="38.1715195" lon="-0.8648674"><ele>10.0</ele><time>2026-04-11T06:48:10.358Z</time></trkpt><trkpt lat="38.1712856" lon="-0.8651664"><ele>10.0</ele><time>2026-04-11T06:48:11.358Z</time></trkpt><trkpt lat="38.1710541" lon="-0.8654693"><ele>10.0</ele><time>2026-04-11T06:48:12.358Z</time></trkpt><trkpt lat="38.170823" lon="-0.8657774"><ele>11.0</ele><time>2026-04-11T06:48:13.358Z</time></trkpt><trkpt lat="38.1705943" lon="-0.8660931"><ele>12.0</ele><time>2026-04-11T06:48:14.358Z</time></trkpt><trkpt lat="38.1703712" lon="-0.8664083"><ele>12.0</ele><time>2026-04-11T06:48:15.358Z</time></trkpt><trkpt lat="38.1701537" lon="-0.8667255"><ele>12.0</ele><time>2026-04-11T06:48:16.358Z</time></trkpt><trkpt lat="38.1699344" lon="-0.8670464"><ele>11.5</ele><time>2026-04-11T06:48:17.358Z</time></trkpt><trkpt lat="38.169716" lon="-0.8673668"><ele>11.0</ele><time>2026-04-11T06:48:18.358Z</time></trkpt><trkpt lat="38.1695006" lon="-0.8676919"><ele>11.0</ele><time>2026-04-11T06:48:19.358Z</time></trkpt><trkpt lat="38.1692879" lon="-0.8680161"><ele>11.0</ele><time>2026-04-11T06:48:20.358Z</time></trkpt><trkpt lat="38.1690797" lon="-0.8683505"><ele>10.5</ele><time>2026-04-11T06:48:21.358Z</time></trkpt><trkpt lat="38.1688693" lon="-0.8686805"><ele>10.0</ele><time>2026-04-11T06:48:22.357Z</time></trkpt><trkpt lat="38.1686602" lon="-0.8690086"><ele>9.5</ele><time>2026-04-11T06:48:23.358Z</time></trkpt><trkpt lat="38.1684539" lon="-0.8693378"><ele>9.0</ele><time>2026-04-11T06:48:24.358Z</time></trkpt><trkpt lat="38.1682467" lon="-0.8696682"><ele>9.5</ele><time>2026-04-11T06:48:25.357Z</time></trkpt><trkpt lat="38.1680457" lon="-0.8700029"><ele>10.0</ele><time>2026-04-11T06:48:26.358Z</time></trkpt><trkpt lat="38.1678463" lon="-0.8703373"><ele>10.0</ele><time>2026-04-11T06:48:27.358Z</time></trkpt><trkpt lat="38.1676472" lon="-0.8706755"><ele>10.0</ele><time>2026-04-11T06:48:28.357Z</time></trkpt><trkpt lat="38.1674493" lon="-0.8710165"><ele>9.5</ele><time>2026-04-11T06:48:29.358Z</time></trkpt><trkpt lat="38.1672561" lon="-0.8713609"><ele>9.0</ele><time>2026-04-11T06:48:30.358Z</time></trkpt><trkpt lat="38.1670649" lon="-0.8717077"><ele>10.0</ele><time>2026-04-11T06:48:31.358Z</time></trkpt><trkpt lat="38.1668762" lon="-0.872057"><ele>11.0</ele><time>2026-04-11T06:48:32.358Z</time></trkpt><trkpt lat="38.1666911" lon="-0.8724062"><ele>10.5</ele><time>2026-04-11T06:48:33.358Z</time></trkpt><trkpt lat="38.1665097" lon="-0.8727594"><ele>10.0</ele><time>2026-04-11T06:48:34.357Z</time></trkpt><trkpt lat="38.1663326" lon="-0.8731155"><ele>11.5</ele><time>2026-04-11T06:48:35.358Z</time></trkpt><trkpt lat="38.1661568" lon="-0.8734761"><ele>13.0</ele><time>2026-04-11T06:48:36.358Z</time></trkpt><trkpt lat="38.1659832" lon="-0.8738357"><ele>13.0</ele><time>2026-04-11T06:48:37.358Z</time></trkpt><trkpt lat="38.1658081" lon="-0.8741994"><ele>13.0</ele><time>2026-04-11T06:48:38.358Z</time></trkpt><trkpt lat="38.165634" lon="-0.874561"><ele>13.0</ele><time>2026-04-11T06:48:39.358Z</time></trkpt><trkpt lat="38.1654655" lon="-0.8749206"><ele>13.0</ele><time>2026-04-11T06:48:40.358Z</time></trkpt><trkpt lat="38.1652944" lon="-0.8752805"><ele>12.0</ele><time>2026-04-11T06:48:41.358Z</time></trkpt><trkpt lat="38.1651211" lon="-0.8756431"><ele>11.0</ele><time>2026-04-11T06:48:42.358Z</time></trkpt><trkpt lat="38.1649485" lon="-0.8760061"><ele>11.0</ele><time>2026-04-11T06:48:43.357Z</time></trkpt><trkpt lat="38.1647773" lon="-0.8763685"><ele>11.0</ele><time>2026-04-11T06:48:44.358Z</time></trkpt><trkpt lat="38.1646119" lon="-0.8767316"><ele>12.0</ele><time>2026-04-11T06:48:45.358Z</time></trkpt><trkpt lat="38.1644512" lon="-0.8771052"><ele>13.0</ele><time>2026-04-11T06:48:46.358Z</time></trkpt><trkpt lat="38.1642937" lon="-0.877473"><ele>12.5</ele><time>2026-04-11T06:48:47.358Z</time></trkpt><trkpt lat="38.1641377" lon="-0.8778434"><ele>12.0</ele><time>2026-04-11T06:48:48.358Z</time></trkpt><trkpt lat="38.1639868" lon="-0.8782177"><ele>11.0</ele><time>2026-04-11T06:48:49.358Z</time></trkpt><trkpt lat="38.1638388" lon="-0.8785902"><ele>10.0</ele><time>2026-04-11T06:48:50.358Z</time></trkpt><trkpt lat="38.1636959" lon="-0.8789715"><ele>11.0</ele><time>2026-04-11T06:48:51.357Z</time></trkpt><trkpt lat="38.1635548" lon="-0.8793489"><ele>12.0</ele><time>2026-04-11T06:48:52.358Z</time></trkpt><trkpt lat="38.1634142" lon="-0.8797273"><ele>13.0</ele><time>2026-04-11T06:48:53.358Z</time></trkpt><trkpt lat="38.1632734" lon="-0.8801129"><ele>14.0</ele><time>2026-04-11T06:48:54.358Z</time></trkpt><trkpt lat="38.1631337" lon="-0.8805013"><ele>14.0</ele><time>2026-04-11T06:48:55.357Z</time></trkpt><trkpt lat="38.162996" lon="-0.8808876"><ele>14.0</ele><time>2026-04-11T06:48:56.358Z</time></trkpt><trkpt lat="38.1628615" lon="-0.881275"><ele>15.0</ele><time>2026-04-11T06:48:57.358Z</time></trkpt><trkpt lat="38.1627268" lon="-0.8816623"><ele>16.0</ele><time>2026-04-11T06:48:58.358Z</time></trkpt><trkpt lat="38.1625948" lon="-0.8820523"><ele>17.0</ele><time>2026-04-11T06:48:59.358Z</time></trkpt><trkpt lat="38.1624691" lon="-0.8824439"><ele>18.0</ele><time>2026-04-11T06:49:00.358Z</time></trkpt><trkpt lat="38.1623444" lon="-0.8828385"><ele>15.5</ele><time>2026-04-11T06:49:01.358Z</time></trkpt><trkpt lat="38.1622205" lon="-0.8832321"><ele>13.0</ele><time>2026-04-11T06:49:02.358Z</time></trkpt><trkpt lat="38.1621011" lon="-0.8836302"><ele>12.5</ele><time>2026-04-11T06:49:03.358Z</time></trkpt><trkpt lat="38.1619821" lon="-0.8840257"><ele>12.0</ele><time>2026-04-11T06:49:04.358Z</time></trkpt><trkpt lat="38.1618612" lon="-0.8844201"><ele>13.0</ele><time>2026-04-11T06:49:05.358Z</time></trkpt><trkpt lat="38.1617367" lon="-0.8848141"><ele>14.0</ele><time>2026-04-11T06:49:06.358Z</time></trkpt><trkpt lat="38.1616107" lon="-0.8852043"><ele>14.5</ele><time>2026-04-11T06:49:07.358Z</time></trkpt><trkpt lat="38.1614807" lon="-0.8855929"><ele>15.0</ele><time>2026-04-11T06:49:08.358Z</time></trkpt><trkpt lat="38.1613496" lon="-0.8859818"><ele>15.0</ele><time>2026-04-11T06:49:09.358Z</time></trkpt><trkpt lat="38.1612178" lon="-0.8863713"><ele>15.0</ele><time>2026-04-11T06:49:10.358Z</time></trkpt><trkpt lat="38.1610856" lon="-0.8867584"><ele>16.5</ele><time>2026-04-11T06:49:11.358Z</time></trkpt><trkpt lat="38.16095" lon="-0.8871428"><ele>18.0</ele><time>2026-04-11T06:49:12.358Z</time></trkpt><trkpt lat="38.1608154" lon="-0.8875266"><ele>17.0</ele><time>2026-04-11T06:49:13.358Z</time></trkpt><trkpt lat="38.160677" lon="-0.8879101"><ele>16.0</ele><time>2026-04-11T06:49:14.357Z</time></trkpt><trkpt lat="38.1605384" lon="-0.8882936"><ele>16.0</ele><time>2026-04-11T06:49:15.358Z</time></trkpt><trkpt lat="38.1603985" lon="-0.888675"><ele>16.0</ele><time>2026-04-11T06:49:16.358Z</time></trkpt><trkpt lat="38.1602544" lon="-0.8890582"><ele>16.0</ele><time>2026-04-11T06:49:17.357Z</time></trkpt><trkpt lat="38.1601082" lon="-0.889446"><ele>16.0</ele><time>2026-04-11T06:49:18.358Z</time></trkpt><trkpt lat="38.1599585" lon="-0.8898237"><ele>15.5</ele><time>2026-04-11T06:49:19.358Z</time></trkpt><trkpt lat="38.1598089" lon="-0.890197"><ele>15.0</ele><time>2026-04-11T06:49:20.357Z</time></trkpt><trkpt lat="38.1596577" lon="-0.8905724"><ele>15.0</ele><time>2026-04-11T06:49:21.358Z</time></trkpt><trkpt lat="38.1595064" lon="-0.8909433"><ele>15.0</ele><time>2026-04-11T06:49:22.358Z</time></trkpt><trkpt lat="38.1593501" lon="-0.8913217"><ele>15.0</ele><time>2026-04-11T06:49:23.358Z</time></trkpt><trkpt lat="38.1591914" lon="-0.8916952"><ele>15.0</ele><time>2026-04-11T06:49:24.358Z</time></trkpt><trkpt lat="38.1590303" lon="-0.8920676"><ele>15.0</ele><time>2026-04-11T06:49:25.357Z</time></trkpt><trkpt lat="38.1588662" lon="-0.892438"><ele>15.0</ele><time>2026-04-11T06:49:26.358Z</time></trkpt><trkpt lat="38.1587027" lon="-0.892804"><ele>15.0</ele><time>2026-04-11T06:49:27.358Z</time></trkpt><trkpt lat="38.1585354" lon="-0.893171"><ele>15.0</ele><time>2026-04-11T06:49:28.358Z</time></trkpt><trkpt lat="38.1583657" lon="-0.8935337"><ele>14.5</ele><time>2026-04-11T06:49:29.358Z</time></trkpt><trkpt lat="38.1581936" lon="-0.8938971"><ele>14.0</ele><time>2026-04-11T06:49:30.358Z</time></trkpt><trkpt lat="38.1580198" lon="-0.8942616"><ele>15.0</ele><time>2026-04-11T06:49:31.358Z</time></trkpt><trkpt lat="38.1578414" lon="-0.8946207"><ele>16.0</ele><time>2026-04-11T06:49:32.357Z</time></trkpt><trkpt lat="38.1576615" lon="-0.8949783"><ele>16.0</ele><time>2026-04-11T06:49:33.358Z</time></trkpt><trkpt lat="38.1574816" lon="-0.8953316"><ele>16.0</ele><time>2026-04-11T06:49:34.358Z</time></trkpt><trkpt lat="38.1572994" lon="-0.8956848"><ele>16.5</ele><time>2026-04-11T06:49:35.358Z</time></trkpt><trkpt lat="38.1571174" lon="-0.8960372"><ele>17.0</ele><time>2026-04-11T06:49:36.358Z</time></trkpt><trkpt lat="38.1569326" lon="-0.8963874"><ele>17.0</ele><time>2026-04-11T06:49:37.358Z</time></trkpt><trkpt lat="38.1567445" lon="-0.8967372"><ele>17.0</ele><time>2026-04-11T06:49:38.358Z</time></trkpt><trkpt lat="38.1565541" lon="-0.8970848"><ele>17.0</ele><time>2026-04-11T06:49:39.358Z</time></trkpt><trkpt lat="38.1563622" lon="-0.8974293"><ele>17.0</ele><time>2026-04-11T06:49:40.358Z</time></trkpt><trkpt lat="38.1561686" lon="-0.8977722"><ele>17.0</ele><time>2026-04-11T06:49:41.358Z</time></trkpt><trkpt lat="38.1559706" lon="-0.8981122"><ele>17.0</ele><time>2026-04-11T06:49:42.357Z</time></trkpt><trkpt lat="38.1557703" lon="-0.8984517"><ele>18.0</ele><time>2026-04-11T06:49:43.357Z</time></trkpt><trkpt lat="38.1555711" lon="-0.8987863"><ele>19.0</ele><time>2026-04-11T06:49:44.358Z</time></trkpt><trkpt lat="38.1553702" lon="-0.8991185"><ele>18.0</ele><time>2026-04-11T06:49:45.357Z</time></trkpt><trkpt lat="38.1551678" lon="-0.8994508"><ele>17.0</ele><time>2026-04-11T06:49:46.358Z</time></trkpt><trkpt lat="38.1549617" lon="-0.8997823"><ele>18.0</ele><time>2026-04-11T06:49:47.358Z</time></trkpt><trkpt lat="38.1547539" lon="-0.9001142"><ele>19.0</ele><time>2026-04-11T06:49:48.358Z</time></trkpt><trkpt lat="38.1545457" lon="-0.9004468"><ele>19.0</ele><time>2026-04-11T06:49:49.357Z</time></trkpt><trkpt lat="38.1543382" lon="-0.9007774"><ele>19.0</ele><time>2026-04-11T06:49:50.357Z</time></trkpt><trkpt lat="38.1541321" lon="-0.9011091"><ele>19.0</ele><time>2026-04-11T06:49:51.358Z</time></trkpt><trkpt lat="38.1539328" lon="-0.9014455"><ele>19.0</ele><time>2026-04-11T06:49:52.357Z</time></trkpt><trkpt lat="38.1537406" lon="-0.9017854"><ele>19.0</ele><time>2026-04-11T06:49:53.358Z</time></trkpt><trkpt lat="38.1535539" lon="-0.9021348"><ele>19.0</ele><time>2026-04-11T06:49:54.358Z</time></trkpt><trkpt lat="38.153372" lon="-0.902489"><ele>19.0</ele><time>2026-04-11T06:49:55.358Z</time></trkpt><trkpt lat="38.1531972" lon="-0.9028474"><ele>19.0</ele><time>2026-04-11T06:49:56.357Z</time></trkpt><trkpt lat="38.1530326" lon="-0.9032167"><ele>18.5</ele><time>2026-04-11T06:49:57.358Z</time></trkpt><trkpt lat="38.1528736" lon="-0.9035815"><ele>18.0</ele><time>2026-04-11T06:49:58.358Z</time></trkpt><trkpt lat="38.1527213" lon="-0.9039682"><ele>18.5</ele><time>2026-04-11T06:49:59.358Z</time></trkpt><trkpt lat="38.1525753" lon="-0.9043459"><ele>19.0</ele><time>2026-04-11T06:50:00.358Z</time></trkpt><trkpt lat="38.1524338" lon="-0.9047272"><ele>20.5</ele><time>2026-04-11T06:50:01.358Z</time></trkpt><trkpt lat="38.1523001" lon="-0.9051138"><ele>22.0</ele><time>2026-04-11T06:50:02.358Z</time></trkpt><trkpt lat="38.1521739" lon="-0.9055033"><ele>22.0</ele><time>2026-04-11T06:50:03.358Z</time></trkpt><trkpt lat="38.152055" lon="-0.9059073"><ele>22.0</ele><time>2026-04-11T06:50:04.358Z</time></trkpt><trkpt lat="38.1519523" lon="-0.9063019"><ele>21.0</ele><time>2026-04-11T06:50:05.357Z</time></trkpt><trkpt lat="38.1518533" lon="-0.9066974"><ele>20.0</ele><time>2026-04-11T06:50:06.357Z</time></trkpt><trkpt lat="38.1517649" lon="-0.9071022"><ele>20.0</ele><time>2026-04-11T06:50:07.358Z</time></trkpt><trkpt lat="38.1516804" lon="-0.9075152"><ele>20.0</ele><time>2026-04-11T06:50:08.358Z</time></trkpt><trkpt lat="38.151601" lon="-0.9079374"><ele>20.0</ele><time>2026-04-11T06:50:09.357Z</time></trkpt><trkpt lat="38.1515334" lon="-0.9083491"><ele>20.0</ele><time>2026-04-11T06:50:10.358Z</time></trkpt><trkpt lat="38.1514745" lon="-0.9087656"><ele>20.5</ele><time>2026-04-11T06:50:11.358Z</time></trkpt><trkpt lat="38.151427" lon="-0.9091805"><ele>21.0</ele><time>2026-04-11T06:50:12.358Z</time></trkpt><trkpt lat="38.1513878" lon="-0.9096027"><ele>21.5</ele><time>2026-04-11T06:50:13.358Z</time></trkpt><trkpt lat="38.1513554" lon="-0.9100174"><ele>22.0</ele><time>2026-04-11T06:50:14.358Z</time></trkpt><trkpt lat="38.1513357" lon="-0.9104263"><ele>23.5</ele><time>2026-04-11T06:50:15.357Z</time></trkpt><trkpt lat="38.1513286" lon="-0.9108401"><ele>25.0</ele><time>2026-04-11T06:50:16.358Z</time></trkpt><trkpt lat="38.1513373" lon="-0.9112226"><ele>25.0</ele><time>2026-04-11T06:50:17.357Z</time></trkpt><trkpt lat="38.1513538" lon="-0.9116165"><ele>25.0</ele><time>2026-04-11T06:50:18.358Z</time></trkpt><trkpt lat="38.1513813" lon="-0.9120127"><ele>26.0</ele><time>2026-04-11T06:50:19.357Z</time></trkpt><trkpt lat="38.15142" lon="-0.9124134"><ele>27.0</ele><time>2026-04-11T06:50:20.358Z</time></trkpt><trkpt lat="38.1514668" lon="-0.912811"><ele>27.0</ele><time>2026-04-11T06:50:21.357Z</time></trkpt><trkpt lat="38.1515243" lon="-0.9131967"><ele>27.0</ele><time>2026-04-11T06:50:22.358Z</time></trkpt><trkpt lat="38.1515941" lon="-0.913577"><ele>27.5</ele><time>2026-04-11T06:50:23.358Z</time></trkpt><trkpt lat="38.1516659" lon="-0.9139469"><ele>28.0</ele><time>2026-04-11T06:50:24.358Z</time></trkpt><trkpt lat="38.1517411" lon="-0.9143179"><ele>27.0</ele><time>2026-04-11T06:50:25.358Z</time></trkpt><trkpt lat="38.1518161" lon="-0.9146781"><ele>26.0</ele><time>2026-04-11T06:50:26.358Z</time></trkpt><trkpt lat="38.1518927" lon="-0.9150401"><ele>26.0</ele><time>2026-04-11T06:50:27.357Z</time></trkpt><trkpt lat="38.1519623" lon="-0.9153847"><ele>26.0</ele><time>2026-04-11T06:50:28.358Z</time></trkpt><trkpt lat="38.1520169" lon="-0.9157404"><ele>26.0</ele><time>2026-04-11T06:50:29.358Z</time></trkpt><trkpt lat="38.1520673" lon="-0.9160979"><ele>26.0</ele><time>2026-04-11T06:50:30.358Z</time></trkpt><trkpt lat="38.1521054" lon="-0.9164558"><ele>25.0</ele><time>2026-04-11T06:50:31.358Z</time></trkpt><trkpt lat="38.1521331" lon="-0.9168056"><ele>24.0</ele><time>2026-04-11T06:50:32.357Z</time></trkpt><trkpt lat="38.152151" lon="-0.9171593"><ele>24.0</ele><time>2026-04-11T06:50:33.358Z</time></trkpt><trkpt lat="38.152158" lon="-0.9175067"><ele>24.0</ele><time>2026-04-11T06:50:34.358Z</time></trkpt><trkpt lat="38.1521595" lon="-0.9178524"><ele>24.0</ele><time>2026-04-11T06:50:35.358Z</time></trkpt><trkpt lat="38.1521526" lon="-0.9182035"><ele>24.0</ele><time>2026-04-11T06:50:36.358Z</time></trkpt><trkpt lat="38.1521365" lon="-0.9185538"><ele>24.0</ele><time>2026-04-11T06:50:37.358Z</time></trkpt><trkpt lat="38.1521078" lon="-0.9189142"><ele>24.0</ele><time>2026-04-11T06:50:38.358Z</time></trkpt><trkpt lat="38.1520697" lon="-0.9192776"><ele>25.0</ele><time>2026-04-11T06:50:39.358Z</time></trkpt><trkpt lat="38.1520159" lon="-0.9196369"><ele>26.0</ele><time>2026-04-11T06:50:40.358Z</time></trkpt><trkpt lat="38.1519517" lon="-0.9200066"><ele>26.5</ele><time>2026-04-11T06:50:41.358Z</time></trkpt><trkpt lat="38.1518819" lon="-0.9203716"><ele>27.0</ele><time>2026-04-11T06:50:42.358Z</time></trkpt><trkpt lat="38.1517934" lon="-0.9207485"><ele>25.5</ele><time>2026-04-11T06:50:43.358Z</time></trkpt><trkpt lat="38.1516933" lon="-0.9211146"><ele>24.0</ele><time>2026-04-11T06:50:44.358Z</time></trkpt><trkpt lat="38.1515834" lon="-0.9214836"><ele>24.5</ele><time>2026-04-11T06:50:45.358Z</time></trkpt><trkpt lat="38.151465" lon="-0.9218482"><ele>25.0</ele><time>2026-04-11T06:50:46.358Z</time></trkpt><trkpt lat="38.1513331" lon="-0.9222052"><ele>25.0</ele><time>2026-04-11T06:50:47.358Z</time></trkpt><trkpt lat="38.1511926" lon="-0.9225581"><ele>25.0</ele><time>2026-04-11T06:50:48.358Z</time></trkpt><trkpt lat="38.1510407" lon="-0.9229045"><ele>26.5</ele><time>2026-04-11T06:50:49.358Z</time></trkpt><trkpt lat="38.1508768" lon="-0.9232438"><ele>28.0</ele><time>2026-04-11T06:50:50.358Z</time></trkpt><trkpt lat="38.1507042" lon="-0.9235755"><ele>29.0</ele><time>2026-04-11T06:50:51.358Z</time></trkpt><trkpt lat="38.1505198" lon="-0.9238974"><ele>30.0</ele><time>2026-04-11T06:50:52.358Z</time></trkpt><trkpt lat="38.1503261" lon="-0.9242127"><ele>32.0</ele><time>2026-04-11T06:50:53.358Z</time></trkpt><trkpt lat="38.150121" lon="-0.9245176"><ele>34.0</ele><time>2026-04-11T06:50:54.358Z</time></trkpt><trkpt lat="38.1499065" lon="-0.9248105"><ele>33.0</ele><time>2026-04-11T06:50:55.358Z</time></trkpt><trkpt lat="38.1496882" lon="-0.9250945"><ele>32.0</ele><time>2026-04-11T06:50:56.358Z</time></trkpt><trkpt lat="38.1494631" lon="-0.9253709"><ele>32.0</ele><time>2026-04-11T06:50:57.358Z</time></trkpt><trkpt lat="38.1492333" lon="-0.9256387"><ele>32.0</ele><time>2026-04-11T06:50:58.358Z</time></trkpt><trkpt lat="38.1490032" lon="-0.9259096"><ele>30.5</ele><time>2026-04-11T06:50:59.358Z</time></trkpt><trkpt lat="38.1487752" lon="-0.9261809"><ele>29.0</ele><time>2026-04-11T06:51:00.357Z</time></trkpt><trkpt lat="38.1485456" lon="-0.9264531"><ele>30.0</ele><time>2026-04-11T06:51:01.358Z</time></trkpt><trkpt lat="38.1483216" lon="-0.9267308"><ele>31.0</ele><time>2026-04-11T06:51:02.358Z</time></trkpt><trkpt lat="38.1481" lon="-0.9270077"><ele>31.0</ele><time>2026-04-11T06:51:03.358Z</time></trkpt><trkpt lat="38.1478843" lon="-0.9272919"><ele>31.0</ele><time>2026-04-11T06:51:04.358Z</time></trkpt><trkpt lat="38.1476692" lon="-0.927576"><ele>31.0</ele><time>2026-04-11T06:51:05.357Z</time></trkpt><trkpt lat="38.1474569" lon="-0.927863"><ele>31.0</ele><time>2026-04-11T06:51:06.358Z</time></trkpt><trkpt lat="38.1472467" lon="-0.9281582"><ele>31.5</ele><time>2026-04-11T06:51:07.358Z</time></trkpt><trkpt lat="38.1470384" lon="-0.9284576"><ele>32.0</ele><time>2026-04-11T06:51:08.357Z</time></trkpt><trkpt lat="38.1468322" lon="-0.9287668"><ele>32.0</ele><time>2026-04-11T06:51:09.357Z</time></trkpt><trkpt lat="38.1466324" lon="-0.9290731"><ele>32.0</ele><time>2026-04-11T06:51:10.358Z</time></trkpt><trkpt lat="38.1464336" lon="-0.9293813"><ele>33.0</ele><time>2026-04-11T06:51:11.358Z</time></trkpt><trkpt lat="38.1462331" lon="-0.9296941"><ele>34.0</ele><time>2026-04-11T06:51:12.358Z</time></trkpt><trkpt lat="38.1460365" lon="-0.930008"><ele>35.0</ele><time>2026-04-11T06:51:13.358Z</time></trkpt><trkpt lat="38.1458441" lon="-0.9303216"><ele>36.0</ele><time>2026-04-11T06:51:14.358Z</time></trkpt><trkpt lat="38.1456538" lon="-0.9306407"><ele>36.0</ele><time>2026-04-11T06:51:15.358Z</time></trkpt><trkpt lat="38.1454664" lon="-0.9309645"><ele>36.0</ele><time>2026-04-11T06:51:16.358Z</time></trkpt><trkpt lat="38.1452804" lon="-0.9312937"><ele>36.0</ele><time>2026-04-11T06:51:17.358Z</time></trkpt><trkpt lat="38.1450937" lon="-0.9316262"><ele>36.0</ele><time>2026-04-11T06:51:18.358Z</time></trkpt><trkpt lat="38.1449096" lon="-0.9319575"><ele>36.5</ele><time>2026-04-11T06:51:19.358Z</time></trkpt><trkpt lat="38.1447256" lon="-0.9322834"><ele>37.0</ele><time>2026-04-11T06:51:20.358Z</time></trkpt><trkpt lat="38.1445355" lon="-0.9326046"><ele>37.5</ele><time>2026-04-11T06:51:21.358Z</time></trkpt><trkpt lat="38.1443474" lon="-0.9329258"><ele>38.0</ele><time>2026-04-11T06:51:22.358Z</time></trkpt><trkpt lat="38.1441537" lon="-0.933243"><ele>37.0</ele><time>2026-04-11T06:51:23.358Z</time></trkpt><trkpt lat="38.1439587" lon="-0.933558"><ele>36.0</ele><time>2026-04-11T06:51:24.358Z</time></trkpt><trkpt lat="38.1437653" lon="-0.9338744"><ele>36.0</ele><time>2026-04-11T06:51:25.357Z</time></trkpt><trkpt lat="38.1435704" lon="-0.9341916"><ele>36.0</ele><time>2026-04-11T06:51:26.358Z</time></trkpt><trkpt lat="38.1433708" lon="-0.9345029"><ele>37.5</ele><time>2026-04-11T06:51:27.357Z</time></trkpt><trkpt lat="38.1431684" lon="-0.9348083"><ele>39.0</ele><time>2026-04-11T06:51:28.358Z</time></trkpt><trkpt lat="38.142958" lon="-0.9351137"><ele>39.0</ele><time>2026-04-11T06:51:29.358Z</time></trkpt><trkpt lat="38.1427411" lon="-0.9354016"><ele>39.0</ele><time>2026-04-11T06:51:30.358Z</time></trkpt><trkpt lat="38.1425076" lon="-0.9356797"><ele>39.5</ele><time>2026-04-11T06:51:31.358Z</time></trkpt><trkpt lat="38.1422745" lon="-0.9359609"><ele>40.0</ele><time>2026-04-11T06:51:32.358Z</time></trkpt><trkpt lat="38.1420435" lon="-0.9362497"><ele>40.0</ele><time>2026-04-11T06:51:33.357Z</time></trkpt><trkpt lat="38.1418122" lon="-0.9365378"><ele>40.0</ele><time>2026-04-11T06:51:34.358Z</time></trkpt><trkpt lat="38.14158" lon="-0.9368258"><ele>41.0</ele><time>2026-04-11T06:51:35.358Z</time></trkpt><trkpt lat="38.141342" lon="-0.9371126"><ele>42.0</ele><time>2026-04-11T06:51:36.358Z</time></trkpt><trkpt lat="38.1411019" lon="-0.9373932"><ele>42.0</ele><time>2026-04-11T06:51:37.358Z</time></trkpt><trkpt lat="38.1408574" lon="-0.9376703"><ele>42.0</ele><time>2026-04-11T06:51:38.357Z</time></trkpt><trkpt lat="38.1406099" lon="-0.9379414"><ele>42.5</ele><time>2026-04-11T06:51:39.358Z</time></trkpt><trkpt lat="38.1403581" lon="-0.9382126"><ele>43.0</ele><time>2026-04-11T06:51:40.358Z</time></trkpt><trkpt lat="38.1401022" lon="-0.938477"><ele>44.0</ele><time>2026-04-11T06:51:41.358Z</time></trkpt><trkpt lat="38.1398465" lon="-0.9387422"><ele>45.0</ele><time>2026-04-11T06:51:42.358Z</time></trkpt><trkpt lat="38.1395859" lon="-0.9390047"><ele>44.5</ele><time>2026-04-11T06:51:43.358Z</time></trkpt><trkpt lat="38.1393278" lon="-0.939262"><ele>44.0</ele><time>2026-04-11T06:51:44.358Z</time></trkpt><trkpt lat="38.1390632" lon="-0.9395186"><ele>44.0</ele><time>2026-04-11T06:51:45.358Z</time></trkpt><trkpt lat="38.1388017" lon="-0.939773"><ele>44.0</ele><time>2026-04-11T06:51:46.358Z</time></trkpt><trkpt lat="38.1385395" lon="-0.9400309"><ele>43.5</ele><time>2026-04-11T06:51:47.358Z</time></trkpt><trkpt lat="38.1382824" lon="-0.9402966"><ele>43.0</ele><time>2026-04-11T06:51:48.358Z</time></trkpt><trkpt lat="38.1380291" lon="-0.9405659"><ele>43.0</ele><time>2026-04-11T06:51:49.358Z</time></trkpt><trkpt lat="38.1377785" lon="-0.9408354"><ele>43.0</ele><time>2026-04-11T06:51:50.358Z</time></trkpt><trkpt lat="38.1375294" lon="-0.9411057"><ele>42.5</ele><time>2026-04-11T06:51:51.357Z</time></trkpt><trkpt lat="38.1372842" lon="-0.9413834"><ele>42.0</ele><time>2026-04-11T06:51:52.358Z</time></trkpt><trkpt lat="38.1370399" lon="-0.9416622"><ele>43.0</ele><time>2026-04-11T06:51:53.357Z</time></trkpt><trkpt lat="38.1368036" lon="-0.9419458"><ele>44.0</ele><time>2026-04-11T06:51:54.358Z</time></trkpt><trkpt lat="38.1365687" lon="-0.942235"><ele>44.0</ele><time>2026-04-11T06:51:55.358Z</time></trkpt><trkpt lat="38.1363384" lon="-0.9425241"><ele>44.0</ele><time>2026-04-11T06:51:56.357Z</time></trkpt><trkpt lat="38.1361109" lon="-0.9428199"><ele>44.0</ele><time>2026-04-11T06:51:57.358Z</time></trkpt><trkpt lat="38.1358843" lon="-0.9431156"><ele>44.0</ele><time>2026-04-11T06:51:58.358Z</time></trkpt><trkpt lat="38.1356629" lon="-0.9434135"><ele>43.5</ele><time>2026-04-11T06:51:59.358Z</time></trkpt><trkpt lat="38.1354532" lon="-0.9437018"><ele>43.0</ele><time>2026-04-11T06:52:00.358Z</time></trkpt><trkpt lat="38.13526" lon="-0.9439679"><ele>43.0</ele><time>2026-04-11T06:52:01.358Z</time></trkpt><trkpt lat="38.1350794" lon="-0.9442284"><ele>43.0</ele><time>2026-04-11T06:52:02.358Z</time></trkpt><trkpt lat="38.1348987" lon="-0.9444913"><ele>44.5</ele><time>2026-04-11T06:52:03.358Z</time></trkpt><trkpt lat="38.1347173" lon="-0.9447625"><ele>46.0</ele><time>2026-04-11T06:52:04.357Z</time></trkpt><trkpt lat="38.1345327" lon="-0.9450382"><ele>45.5</ele><time>2026-04-11T06:52:05.357Z</time></trkpt><trkpt lat="38.1343543" lon="-0.9453162"><ele>45.0</ele><time>2026-04-11T06:52:06.358Z</time></trkpt><trkpt lat="38.1341697" lon="-0.9456085"><ele>43.5</ele><time>2026-04-11T06:52:07.358Z</time></trkpt><trkpt lat="38.1339923" lon="-0.9459044"><ele>42.0</ele><time>2026-04-11T06:52:08.358Z</time></trkpt><trkpt lat="38.1338144" lon="-0.9462096"><ele>42.0</ele><time>2026-04-11T06:52:09.358Z</time></trkpt><trkpt lat="38.1336415" lon="-0.9465255"><ele>42.0</ele><time>2026-04-11T06:52:10.358Z</time></trkpt><trkpt lat="38.1334701" lon="-0.9468498"><ele>43.0</ele><time>2026-04-11T06:52:11.358Z</time></trkpt><trkpt lat="38.1332971" lon="-0.9471806"><ele>44.0</ele><time>2026-04-11T06:52:12.357Z</time></trkpt><trkpt lat="38.1331217" lon="-0.9475122"><ele>43.5</ele><time>2026-04-11T06:52:13.358Z</time></trkpt><trkpt lat="38.1329458" lon="-0.947848"><ele>43.0</ele><time>2026-04-11T06:52:14.358Z</time></trkpt><trkpt lat="38.1327732" lon="-0.9481856"><ele>43.0</ele><time>2026-04-11T06:52:15.358Z</time></trkpt><trkpt lat="38.1325991" lon="-0.9485262"><ele>43.0</ele><time>2026-04-11T06:52:16.358Z</time></trkpt><trkpt lat="38.1324265" lon="-0.9488714"><ele>41.5</ele><time>2026-04-11T06:52:17.358Z</time></trkpt><trkpt lat="38.1322598" lon="-0.9492201"><ele>40.0</ele><time>2026-04-11T06:52:18.357Z</time></trkpt><trkpt lat="38.1320917" lon="-0.9495699"><ele>40.0</ele><time>2026-04-11T06:52:19.358Z</time></trkpt><trkpt lat="38.1319225" lon="-0.9499215"><ele>40.0</ele><time>2026-04-11T06:52:20.358Z</time></trkpt><trkpt lat="38.1317501" lon="-0.9502679"><ele>40.0</ele><time>2026-04-11T06:52:21.358Z</time></trkpt><trkpt lat="38.1315744" lon="-0.9506162"><ele>40.0</ele><time>2026-04-11T06:52:22.357Z</time></trkpt><trkpt lat="38.1314004" lon="-0.950957"><ele>40.0</ele><time>2026-04-11T06:52:23.358Z</time></trkpt><trkpt lat="38.1312198" lon="-0.9513002"><ele>40.0</ele><time>2026-04-11T06:52:24.358Z</time></trkpt><trkpt lat="38.1310369" lon="-0.9516377"><ele>40.5</ele><time>2026-04-11T06:52:25.357Z</time></trkpt><trkpt lat="38.1308512" lon="-0.9519744"><ele>41.0</ele><time>2026-04-11T06:52:26.357Z</time></trkpt><trkpt lat="38.1306656" lon="-0.9523055"><ele>40.0</ele><time>2026-04-11T06:52:27.358Z</time></trkpt><trkpt lat="38.1304759" lon="-0.9526388"><ele>39.0</ele><time>2026-04-11T06:52:28.357Z</time></trkpt><trkpt lat="38.1302836" lon="-0.952973"><ele>39.0</ele><time>2026-04-11T06:52:29.357Z</time></trkpt><trkpt lat="38.1300916" lon="-0.9533007"><ele>39.0</ele><time>2026-04-11T06:52:30.358Z</time></trkpt><trkpt lat="38.1298946" lon="-0.9536321"><ele>39.5</ele><time>2026-04-11T06:52:31.358Z</time></trkpt><trkpt lat="38.1296963" lon="-0.9539572"><ele>40.0</ele><time>2026-04-11T06:52:32.358Z</time></trkpt><trkpt lat="38.1294973" lon="-0.954281"><ele>40.0</ele><time>2026-04-11T06:52:33.357Z</time></trkpt><trkpt lat="38.1292963" lon="-0.9546078"><ele>40.0</ele><time>2026-04-11T06:52:34.358Z</time></trkpt><trkpt lat="38.1290959" lon="-0.9549341"><ele>39.5</ele><time>2026-04-11T06:52:35.357Z</time></trkpt><trkpt lat="38.1288976" lon="-0.9552599"><ele>39.0</ele><time>2026-04-11T06:52:36.358Z</time></trkpt><trkpt lat="38.1287006" lon="-0.9555874"><ele>39.0</ele><time>2026-04-11T06:52:37.358Z</time></trkpt><trkpt lat="38.1285086" lon="-0.9559184"><ele>39.0</ele><time>2026-04-11T06:52:38.358Z</time></trkpt><trkpt lat="38.128316" lon="-0.9562492"><ele>39.0</ele><time>2026-04-11T06:52:39.357Z</time></trkpt><trkpt lat="38.1281248" lon="-0.9565828"><ele>39.0</ele><time>2026-04-11T06:52:40.358Z</time></trkpt><trkpt lat="38.1279374" lon="-0.9569181"><ele>40.0</ele><time>2026-04-11T06:52:41.358Z</time></trkpt><trkpt lat="38.1277515" lon="-0.957252"><ele>41.0</ele><time>2026-04-11T06:52:42.358Z</time></trkpt><trkpt lat="38.1275591" lon="-0.9576056"><ele>42.0</ele><time>2026-04-11T06:52:43.358Z</time></trkpt><trkpt lat="38.1273673" lon="-0.9579605"><ele>43.0</ele><time>2026-04-11T06:52:44.358Z</time></trkpt><trkpt lat="38.1271899" lon="-0.9582948"><ele>43.0</ele><time>2026-04-11T06:52:45.358Z</time></trkpt><trkpt lat="38.1270156" lon="-0.9586321"><ele>43.0</ele><time>2026-04-11T06:52:46.358Z</time></trkpt><trkpt lat="38.1268351" lon="-0.9589823"><ele>44.0</ele><time>2026-04-11T06:52:47.358Z</time></trkpt><trkpt lat="38.1266595" lon="-0.9593252"><ele>45.0</ele><time>2026-04-11T06:52:48.357Z</time></trkpt><trkpt lat="38.126482" lon="-0.9596714"><ele>45.5</ele><time>2026-04-11T06:52:49.358Z</time></trkpt><trkpt lat="38.1263059" lon="-0.9600169"><ele>46.0</ele><time>2026-04-11T06:52:50.358Z</time></trkpt><trkpt lat="38.1261314" lon="-0.9603606"><ele>48.0</ele><time>2026-04-11T06:52:51.358Z</time></trkpt><trkpt lat="38.1259604" lon="-0.9607046"><ele>50.0</ele><time>2026-04-11T06:52:52.358Z</time></trkpt><trkpt lat="38.1257935" lon="-0.9610537"><ele>51.5</ele><time>2026-04-11T06:52:53.357Z</time></trkpt><trkpt lat="38.1256321" lon="-0.9613988"><ele>53.0</ele><time>2026-04-11T06:52:54.358Z</time></trkpt><trkpt lat="38.1254729" lon="-0.9617565"><ele>53.0</ele><time>2026-04-11T06:52:55.358Z</time></trkpt><trkpt lat="38.1253185" lon="-0.9621117"><ele>53.0</ele><time>2026-04-11T06:52:56.358Z</time></trkpt><trkpt lat="38.1251596" lon="-0.9624693"><ele>54.0</ele><time>2026-04-11T06:52:57.358Z</time></trkpt><trkpt lat="38.1250063" lon="-0.96283"><ele>55.0</ele><time>2026-04-11T06:52:58.357Z</time></trkpt><trkpt lat="38.1248548" lon="-0.9631916"><ele>58.0</ele><time>2026-04-11T06:52:59.358Z</time></trkpt><trkpt lat="38.1247042" lon="-0.9635548"><ele>61.0</ele><time>2026-04-11T06:53:00.358Z</time></trkpt><trkpt lat="38.1245577" lon="-0.9639196"><ele>63.0</ele><time>2026-04-11T06:53:01.358Z</time></trkpt><trkpt lat="38.124411" lon="-0.964285"><ele>65.0</ele><time>2026-04-11T06:53:02.358Z</time></trkpt><trkpt lat="38.1242614" lon="-0.9646443"><ele>65.0</ele><time>2026-04-11T06:53:03.357Z</time></trkpt><trkpt lat="38.1241109" lon="-0.9650085"><ele>65.0</ele><time>2026-04-11T06:53:04.358Z</time></trkpt><trkpt lat="38.1239639" lon="-0.9653762"><ele>66.5</ele><time>2026-04-11T06:53:05.358Z</time></trkpt><trkpt lat="38.1238147" lon="-0.9657414"><ele>68.0</ele><time>2026-04-11T06:53:06.357Z</time></trkpt><trkpt lat="38.1236649" lon="-0.9660943"><ele>70.0</ele><time>2026-04-11T06:53:07.358Z</time></trkpt><trkpt lat="38.1235065" lon="-0.9664621"><ele>72.0</ele><time>2026-04-11T06:53:08.358Z</time></trkpt><trkpt lat="38.1233396" lon="-0.966816"><ele>74.0</ele><time>2026-04-11T06:53:09.358Z</time></trkpt><trkpt lat="38.1231752" lon="-0.9671746"><ele>76.0</ele><time>2026-04-11T06:53:10.358Z</time></trkpt><trkpt lat="38.1230064" lon="-0.9675328"><ele>76.0</ele><time>2026-04-11T06:53:11.358Z</time></trkpt><trkpt lat="38.1228342" lon="-0.967885"><ele>76.0</ele><time>2026-04-11T06:53:12.358Z</time></trkpt><trkpt lat="38.1226622" lon="-0.9682361"><ele>76.5</ele><time>2026-04-11T06:53:13.358Z</time></trkpt><trkpt lat="38.1224894" lon="-0.9685833"><ele>77.0</ele><time>2026-04-11T06:53:14.358Z</time></trkpt><trkpt lat="38.1223138" lon="-0.9689356"><ele>80.0</ele><time>2026-04-11T06:53:15.358Z</time></trkpt><trkpt lat="38.1221374" lon="-0.9692842"><ele>83.0</ele><time>2026-04-11T06:53:16.358Z</time></trkpt><trkpt lat="38.1219558" lon="-0.9696261"><ele>83.0</ele><time>2026-04-11T06:53:17.358Z</time></trkpt><trkpt lat="38.1217708" lon="-0.9699691"><ele>83.0</ele><time>2026-04-11T06:53:18.358Z</time></trkpt><trkpt lat="38.1215887" lon="-0.9703067"><ele>84.5</ele><time>2026-04-11T06:53:19.358Z</time></trkpt><trkpt lat="38.1214035" lon="-0.9706453"><ele>86.0</ele><time>2026-04-11T06:53:20.358Z</time></trkpt><trkpt lat="38.1212182" lon="-0.9709822"><ele>87.0</ele><time>2026-04-11T06:53:21.358Z</time></trkpt><trkpt lat="38.1210337" lon="-0.9713225"><ele>88.0</ele><time>2026-04-11T06:53:22.358Z</time></trkpt><trkpt lat="38.1208531" lon="-0.9716673"><ele>89.0</ele><time>2026-04-11T06:53:23.358Z</time></trkpt><trkpt lat="38.1206802" lon="-0.9720168"><ele>90.0</ele><time>2026-04-11T06:53:24.358Z</time></trkpt><trkpt lat="38.1205106" lon="-0.9723683"><ele>90.0</ele><time>2026-04-11T06:53:25.358Z</time></trkpt><trkpt lat="38.1203477" lon="-0.9727227"><ele>90.0</ele><time>2026-04-11T06:53:26.358Z</time></trkpt><trkpt lat="38.1201893" lon="-0.9730834"><ele>91.5</ele><time>2026-04-11T06:53:27.358Z</time></trkpt><trkpt lat="38.1200414" lon="-0.9734477"><ele>93.0</ele><time>2026-04-11T06:53:28.358Z</time></trkpt><trkpt lat="38.1199013" lon="-0.9738183"><ele>97.0</ele><time>2026-04-11T06:53:29.358Z</time></trkpt><trkpt lat="38.1197694" lon="-0.9741889"><ele>101.0</ele><time>2026-04-11T06:53:30.358Z</time></trkpt><trkpt lat="38.119645" lon="-0.9745707"><ele>101.0</ele><time>2026-04-11T06:53:31.358Z</time></trkpt><trkpt lat="38.1195249" lon="-0.9749566"><ele>101.0</ele><time>2026-04-11T06:53:32.358Z</time></trkpt><trkpt lat="38.1194147" lon="-0.9753432"><ele>101.0</ele><time>2026-04-11T06:53:33.357Z</time></trkpt><trkpt lat="38.1193088" lon="-0.9757366"><ele>101.0</ele><time>2026-04-11T06:53:34.358Z</time></trkpt><trkpt lat="38.1192111" lon="-0.9761332"><ele>100.5</ele><time>2026-04-11T06:53:35.358Z</time></trkpt><trkpt lat="38.1191202" lon="-0.9765328"><ele>100.0</ele><time>2026-04-11T06:53:36.358Z</time></trkpt><trkpt lat="38.1190348" lon="-0.9769401"><ele>102.0</ele><time>2026-04-11T06:53:37.358Z</time></trkpt><trkpt lat="38.118956" lon="-0.977341"><ele>104.0</ele><time>2026-04-11T06:53:38.357Z</time></trkpt><trkpt lat="38.1188856" lon="-0.9777403"><ele>104.0</ele><time>2026-04-11T06:53:39.358Z</time></trkpt><trkpt lat="38.1188219" lon="-0.9781448"><ele>104.0</ele><time>2026-04-11T06:53:40.358Z</time></trkpt><trkpt lat="38.1187678" lon="-0.9785491"><ele>103.5</ele><time>2026-04-11T06:53:41.358Z</time></trkpt><trkpt lat="38.1187196" lon="-0.9789584"><ele>103.0</ele><time>2026-04-11T06:53:42.358Z</time></trkpt><trkpt lat="38.1186794" lon="-0.9793667"><ele>104.0</ele><time>2026-04-11T06:53:43.357Z</time></trkpt><trkpt lat="38.1186468" lon="-0.9797745"><ele>105.0</ele><time>2026-04-11T06:53:44.358Z</time></trkpt><trkpt lat="38.1186105" lon="-0.9801867"><ele>105.5</ele><time>2026-04-11T06:53:45.358Z</time></trkpt><trkpt lat="38.1185763" lon="-0.9805952"><ele>106.0</ele><time>2026-04-11T06:53:46.358Z</time></trkpt><trkpt lat="38.118545" lon="-0.9810036"><ele>107.0</ele><time>2026-04-11T06:53:47.358Z</time></trkpt><trkpt lat="38.1185132" lon="-0.9814113"><ele>108.0</ele><time>2026-04-11T06:53:48.357Z</time></trkpt><trkpt lat="38.1184865" lon="-0.9818215"><ele>109.0</ele><time>2026-04-11T06:53:49.358Z</time></trkpt><trkpt lat="38.118461" lon="-0.9822316"><ele>110.0</ele><time>2026-04-11T06:53:50.358Z</time></trkpt><trkpt lat="38.1184365" lon="-0.9826425"><ele>110.5</ele><time>2026-04-11T06:53:51.358Z</time></trkpt><trkpt lat="38.1184156" lon="-0.9830557"><ele>111.0</ele><time>2026-04-11T06:53:52.358Z</time></trkpt><trkpt lat="38.1183961" lon="-0.9834643"><ele>112.5</ele><time>2026-04-11T06:53:53.358Z</time></trkpt><trkpt lat="38.1183785" lon="-0.9838765"><ele>114.0</ele><time>2026-04-11T06:53:54.358Z</time></trkpt><trkpt lat="38.1183644" lon="-0.9842778"><ele>114.5</ele><time>2026-04-11T06:53:55.358Z</time></trkpt><trkpt lat="38.1183524" lon="-0.9846919"><ele>115.0</ele><time>2026-04-11T06:53:56.357Z</time></trkpt><trkpt lat="38.1183427" lon="-0.985104"><ele>113.5</ele><time>2026-04-11T06:53:57.358Z</time></trkpt><trkpt lat="38.1183367" lon="-0.9855154"><ele>112.0</ele><time>2026-04-11T06:53:58.357Z</time></trkpt><trkpt lat="38.1183332" lon="-0.9859285"><ele>111.5</ele><time>2026-04-11T06:53:59.358Z</time></trkpt><trkpt lat="38.1183314" lon="-0.9863435"><ele>111.0</ele><time>2026-04-11T06:54:00.358Z</time></trkpt><trkpt lat="38.1183323" lon="-0.9867539"><ele>112.5</ele><time>2026-04-11T06:54:01.358Z</time></trkpt><trkpt lat="38.1183323" lon="-0.9871691"><ele>114.0</ele><time>2026-04-11T06:54:02.358Z</time></trkpt><trkpt lat="38.1183353" lon="-0.9875852"><ele>114.0</ele><time>2026-04-11T06:54:03.358Z</time></trkpt><trkpt lat="38.118343" lon="-0.9879992"><ele>114.0</ele><time>2026-04-11T06:54:04.358Z</time></trkpt><trkpt lat="38.1183518" lon="-0.9884118"><ele>113.5</ele><time>2026-04-11T06:54:05.358Z</time></trkpt><trkpt lat="38.1183622" lon="-0.9888309"><ele>113.0</ele><time>2026-04-11T06:54:06.358Z</time></trkpt><trkpt lat="38.1183705" lon="-0.9892459"><ele>113.0</ele><time>2026-04-11T06:54:07.358Z</time></trkpt><trkpt lat="38.1183853" lon="-0.9896637"><ele>113.0</ele><time>2026-04-11T06:54:08.357Z</time></trkpt><trkpt lat="38.1184199" lon="-0.9900729"><ele>113.0</ele><time>2026-04-11T06:54:09.358Z</time></trkpt><trkpt lat="38.1184617" lon="-0.9904926"><ele>113.0</ele><time>2026-04-11T06:54:10.358Z</time></trkpt><trkpt lat="38.1184922" lon="-0.9909045"><ele>112.5</ele><time>2026-04-11T06:54:11.358Z</time></trkpt><trkpt lat="38.1185104" lon="-0.9913141"><ele>112.0</ele><time>2026-04-11T06:54:12.357Z</time></trkpt><trkpt lat="38.1185192" lon="-0.991726"><ele>111.0</ele><time>2026-04-11T06:54:13.358Z</time></trkpt><trkpt lat="38.1185229" lon="-0.9921377"><ele>110.0</ele><time>2026-04-11T06:54:14.358Z</time></trkpt><trkpt lat="38.1185215" lon="-0.9925501"><ele>109.5</ele><time>2026-04-11T06:54:15.358Z</time></trkpt><trkpt lat="38.118512" lon="-0.9929633"><ele>109.0</ele><time>2026-04-11T06:54:16.357Z</time></trkpt><trkpt lat="38.1184909" lon="-0.9933834"><ele>108.5</ele><time>2026-04-11T06:54:17.358Z</time></trkpt><trkpt lat="38.1184558" lon="-0.9937889"><ele>108.0</ele><time>2026-04-11T06:54:18.358Z</time></trkpt><trkpt lat="38.1184139" lon="-0.994195"><ele>108.0</ele><time>2026-04-11T06:54:19.358Z</time></trkpt><trkpt lat="38.1183684" lon="-0.9946025"><ele>108.0</ele><time>2026-04-11T06:54:20.358Z</time></trkpt><trkpt lat="38.1183187" lon="-0.9950146"><ele>107.5</ele><time>2026-04-11T06:54:21.358Z</time></trkpt><trkpt lat="38.1182664" lon="-0.9954232"><ele>107.0</ele><time>2026-04-11T06:54:22.358Z</time></trkpt><trkpt lat="38.1182094" lon="-0.9958283"><ele>112.0</ele><time>2026-04-11T06:54:23.358Z</time></trkpt><trkpt lat="38.1181462" lon="-0.9962275"><ele>117.0</ele><time>2026-04-11T06:54:24.357Z</time></trkpt><trkpt lat="38.1180768" lon="-0.9966246"><ele>119.0</ele><time>2026-04-11T06:54:25.358Z</time></trkpt><trkpt lat="38.118" lon="-0.9970222"><ele>121.0</ele><time>2026-04-11T06:54:26.358Z</time></trkpt><trkpt lat="38.1179147" lon="-0.9974171"><ele>118.5</ele><time>2026-04-11T06:54:27.358Z</time></trkpt><trkpt lat="38.1178233" lon="-0.9978095"><ele>116.0</ele><time>2026-04-11T06:54:28.358Z</time></trkpt><trkpt lat="38.1177274" lon="-0.9982023"><ele>117.0</ele><time>2026-04-11T06:54:29.358Z</time></trkpt><trkpt lat="38.1176255" lon="-0.9985921"><ele>118.0</ele><time>2026-04-11T06:54:30.358Z</time></trkpt><trkpt lat="38.1175162" lon="-0.9989765"><ele>126.5</ele><time>2026-04-11T06:54:31.357Z</time></trkpt><trkpt lat="38.1173986" lon="-0.9993558"><ele>135.0</ele><time>2026-04-11T06:54:32.358Z</time></trkpt><trkpt lat="38.1172774" lon="-0.9997363"><ele>135.0</ele><time>2026-04-11T06:54:33.357Z</time></trkpt><trkpt lat="38.1171462" lon="-1.0001099"><ele>135.0</ele><time>2026-04-11T06:54:34.358Z</time></trkpt><trkpt lat="38.11701" lon="-1.0004831"><ele>131.0</ele><time>2026-04-11T06:54:35.358Z</time></trkpt><trkpt lat="38.1168675" lon="-1.0008483"><ele>127.0</ele><time>2026-04-11T06:54:36.358Z</time></trkpt><trkpt lat="38.1167218" lon="-1.0012153"><ele>127.0</ele><time>2026-04-11T06:54:37.358Z</time></trkpt><trkpt lat="38.1165712" lon="-1.001576"><ele>127.0</ele><time>2026-04-11T06:54:38.358Z</time></trkpt><trkpt lat="38.1164185" lon="-1.0019362"><ele>128.5</ele><time>2026-04-11T06:54:39.358Z</time></trkpt><trkpt lat="38.116267" lon="-1.0023017"><ele>130.0</ele><time>2026-04-11T06:54:40.358Z</time></trkpt><trkpt lat="38.1161154" lon="-1.0026654"><ele>130.0</ele><time>2026-04-11T06:54:41.358Z</time></trkpt><trkpt lat="38.1159654" lon="-1.0030268"><ele>130.0</ele><time>2026-04-11T06:54:42.358Z</time></trkpt><trkpt lat="38.115818" lon="-1.0033915"><ele>133.5</ele><time>2026-04-11T06:54:43.358Z</time></trkpt><trkpt lat="38.1156729" lon="-1.0037551"><ele>137.0</ele><time>2026-04-11T06:54:44.358Z</time></trkpt><trkpt lat="38.1155317" lon="-1.0041246"><ele>135.5</ele><time>2026-04-11T06:54:45.358Z</time></trkpt><trkpt lat="38.1153965" lon="-1.0045018"><ele>134.0</ele><time>2026-04-11T06:54:46.358Z</time></trkpt><trkpt lat="38.1152687" lon="-1.0048831"><ele>133.0</ele><time>2026-04-11T06:54:47.358Z</time></trkpt><trkpt lat="38.1151425" lon="-1.0052651"><ele>132.0</ele><time>2026-04-11T06:54:48.358Z</time></trkpt><trkpt lat="38.1150129" lon="-1.0056456"><ele>133.5</ele><time>2026-04-11T06:54:49.358Z</time></trkpt><trkpt lat="38.1148836" lon="-1.0060252"><ele>135.0</ele><time>2026-04-11T06:54:50.357Z</time></trkpt><trkpt lat="38.1147554" lon="-1.0064045"><ele>134.0</ele><time>2026-04-11T06:54:51.358Z</time></trkpt><trkpt lat="38.1146291" lon="-1.0067877"><ele>133.0</ele><time>2026-04-11T06:54:52.358Z</time></trkpt><trkpt lat="38.114503" lon="-1.0071697"><ele>132.5</ele><time>2026-04-11T06:54:53.357Z</time></trkpt><trkpt lat="38.1143796" lon="-1.0075477"><ele>132.0</ele><time>2026-04-11T06:54:54.358Z</time></trkpt><trkpt lat="38.1142562" lon="-1.0079324"><ele>132.0</ele><time>2026-04-11T06:54:55.358Z</time></trkpt><trkpt lat="38.1141335" lon="-1.0083177"><ele>132.0</ele><time>2026-04-11T06:54:56.357Z</time></trkpt><trkpt lat="38.114015" lon="-1.0086975"><ele>135.5</ele><time>2026-04-11T06:54:57.358Z</time></trkpt><trkpt lat="38.1138971" lon="-1.0090849"><ele>139.0</ele><time>2026-04-11T06:54:58.358Z</time></trkpt><trkpt lat="38.1137815" lon="-1.0094735"><ele>139.5</ele><time>2026-04-11T06:54:59.357Z</time></trkpt><trkpt lat="38.1136727" lon="-1.0098549"><ele>140.0</ele><time>2026-04-11T06:55:00.357Z</time></trkpt><trkpt lat="38.1135628" lon="-1.0102442"><ele>141.5</ele><time>2026-04-11T06:55:01.358Z</time></trkpt><trkpt lat="38.1134565" lon="-1.0106324"><ele>143.0</ele><time>2026-04-11T06:55:02.358Z</time></trkpt><trkpt lat="38.1133531" lon="-1.0110226"><ele>143.0</ele><time>2026-04-11T06:55:03.358Z</time></trkpt><trkpt lat="38.1132542" lon="-1.0114147"><ele>143.0</ele><time>2026-04-11T06:55:04.358Z</time></trkpt><trkpt lat="38.1131559" lon="-1.0118065"><ele>146.0</ele><time>2026-04-11T06:55:05.358Z</time></trkpt><trkpt lat="38.1130601" lon="-1.0122023"><ele>149.0</ele><time>2026-04-11T06:55:06.358Z</time></trkpt><trkpt lat="38.1129655" lon="-1.0125937"><ele>149.5</ele><time>2026-04-11T06:55:07.358Z</time></trkpt><trkpt lat="38.1128742" lon="-1.0129887"><ele>150.0</ele><time>2026-04-11T06:55:08.358Z</time></trkpt><trkpt lat="38.1127844" lon="-1.0133829"><ele>150.0</ele><time>2026-04-11T06:55:09.358Z</time></trkpt><trkpt lat="38.1126979" lon="-1.0137774"><ele>150.0</ele><time>2026-04-11T06:55:10.358Z</time></trkpt><trkpt lat="38.1126173" lon="-1.0141644"><ele>150.0</ele><time>2026-04-11T06:55:11.358Z</time></trkpt><trkpt lat="38.1125309" lon="-1.0145664"><ele>150.0</ele><time>2026-04-11T06:55:12.358Z</time></trkpt><trkpt lat="38.1124464" lon="-1.0149628"><ele>153.0</ele><time>2026-04-11T06:55:13.358Z</time></trkpt><trkpt lat="38.1123677" lon="-1.0153666"><ele>156.0</ele><time>2026-04-11T06:55:14.358Z</time></trkpt><trkpt lat="38.1122889" lon="-1.015774"><ele>154.5</ele><time>2026-04-11T06:55:15.358Z</time></trkpt><trkpt lat="38.1122106" lon="-1.0161767"><ele>153.0</ele><time>2026-04-11T06:55:16.358Z</time></trkpt><trkpt lat="38.1121285" lon="-1.0165815"><ele>152.5</ele><time>2026-04-11T06:55:17.358Z</time></trkpt><trkpt lat="38.1120446" lon="-1.0169832"><ele>152.0</ele><time>2026-04-11T06:55:18.358Z</time></trkpt><trkpt lat="38.1119582" lon="-1.017379"><ele>151.5</ele><time>2026-04-11T06:55:19.358Z</time></trkpt><trkpt lat="38.1118683" lon="-1.017781"><ele>151.0</ele><time>2026-04-11T06:55:20.357Z</time></trkpt><trkpt lat="38.1117762" lon="-1.0181761"><ele>149.5</ele><time>2026-04-11T06:55:21.357Z</time></trkpt><trkpt lat="38.1116841" lon="-1.0185772"><ele>148.0</ele><time>2026-04-11T06:55:22.358Z</time></trkpt><trkpt lat="38.1115897" lon="-1.0189735"><ele>149.5</ele><time>2026-04-11T06:55:23.357Z</time></trkpt><trkpt lat="38.1114877" lon="-1.0193732"><ele>151.0</ele><time>2026-04-11T06:55:24.358Z</time></trkpt><trkpt lat="38.1113879" lon="-1.0197663"><ele>150.5</ele><time>2026-04-11T06:55:25.358Z</time></trkpt><trkpt lat="38.1112854" lon="-1.0201577"><ele>150.0</ele><time>2026-04-11T06:55:26.358Z</time></trkpt><trkpt lat="38.1111797" lon="-1.0205503"><ele>148.5</ele><time>2026-04-11T06:55:27.358Z</time></trkpt><trkpt lat="38.1110727" lon="-1.020939"><ele>147.0</ele><time>2026-04-11T06:55:28.357Z</time></trkpt><trkpt lat="38.1109635" lon="-1.0213266"><ele>147.5</ele><time>2026-04-11T06:55:29.358Z</time></trkpt><trkpt lat="38.1108498" lon="-1.0217126"><ele>148.0</ele><time>2026-04-11T06:55:30.358Z</time></trkpt><trkpt lat="38.1107334" lon="-1.0220976"><ele>148.0</ele><time>2026-04-11T06:55:31.357Z</time></trkpt><trkpt lat="38.1106121" lon="-1.0224824"><ele>148.0</ele><time>2026-04-11T06:55:32.358Z</time></trkpt><trkpt lat="38.1104818" lon="-1.0228592"><ele>148.0</ele><time>2026-04-11T06:55:33.358Z</time></trkpt><trkpt lat="38.1103424" lon="-1.0232312"><ele>148.0</ele><time>2026-04-11T06:55:34.358Z</time></trkpt><trkpt lat="38.1101906" lon="-1.023599"><ele>147.5</ele><time>2026-04-11T06:55:35.358Z</time></trkpt><trkpt lat="38.1100313" lon="-1.0239571"><ele>147.0</ele><time>2026-04-11T06:55:36.357Z</time></trkpt><trkpt lat="38.1098597" lon="-1.0243083"><ele>146.5</ele><time>2026-04-11T06:55:37.358Z</time></trkpt><trkpt lat="38.1096796" lon="-1.0246499"><ele>146.0</ele><time>2026-04-11T06:55:38.358Z</time></trkpt><trkpt lat="38.1094889" lon="-1.0249824"><ele>145.0</ele><time>2026-04-11T06:55:39.358Z</time></trkpt><trkpt lat="38.1092876" lon="-1.0253081"><ele>144.0</ele><time>2026-04-11T06:55:40.358Z</time></trkpt><trkpt lat="38.1090779" lon="-1.025623"><ele>144.0</ele><time>2026-04-11T06:55:41.358Z</time></trkpt><trkpt lat="38.1088612" lon="-1.025926"><ele>144.0</ele><time>2026-04-11T06:55:42.358Z</time></trkpt><trkpt lat="38.1086371" lon="-1.0262197"><ele>144.0</ele><time>2026-04-11T06:55:43.357Z</time></trkpt><trkpt lat="38.1083993" lon="-1.0265048"><ele>144.0</ele><time>2026-04-11T06:55:44.358Z</time></trkpt><trkpt lat="38.108154" lon="-1.0267778"><ele>145.0</ele><time>2026-04-11T06:55:45.358Z</time></trkpt><trkpt lat="38.1079058" lon="-1.0270448"><ele>146.0</ele><time>2026-04-11T06:55:46.357Z</time></trkpt><trkpt lat="38.1076534" lon="-1.0273068"><ele>146.0</ele><time>2026-04-11T06:55:47.358Z</time></trkpt><trkpt lat="38.1074045" lon="-1.0275708"><ele>146.0</ele><time>2026-04-11T06:55:48.357Z</time></trkpt><trkpt lat="38.1071528" lon="-1.0278324"><ele>146.0</ele><time>2026-04-11T06:55:49.358Z</time></trkpt><trkpt lat="38.1069007" lon="-1.0280826"><ele>146.0</ele><time>2026-04-11T06:55:50.358Z</time></trkpt><trkpt lat="38.1066526" lon="-1.0283479"><ele>147.0</ele><time>2026-04-11T06:55:51.358Z</time></trkpt><trkpt lat="38.1064084" lon="-1.0286175"><ele>148.0</ele><time>2026-04-11T06:55:52.358Z</time></trkpt><trkpt lat="38.1061638" lon="-1.0288887"><ele>148.0</ele><time>2026-04-11T06:55:53.358Z</time></trkpt><trkpt lat="38.1059244" lon="-1.0291698"><ele>148.0</ele><time>2026-04-11T06:55:54.358Z</time></trkpt><trkpt lat="38.1056863" lon="-1.0294542"><ele>148.0</ele><time>2026-04-11T06:55:55.358Z</time></trkpt><trkpt lat="38.1054506" lon="-1.0297373"><ele>148.0</ele><time>2026-04-11T06:55:56.357Z</time></trkpt><trkpt lat="38.1052195" lon="-1.0300274"><ele>148.5</ele><time>2026-04-11T06:55:57.358Z</time></trkpt><trkpt lat="38.1049924" lon="-1.0303198"><ele>149.0</ele><time>2026-04-11T06:55:58.358Z</time></trkpt><trkpt lat="38.1047664" lon="-1.0306159"><ele>148.0</ele><time>2026-04-11T06:55:59.357Z</time></trkpt><trkpt lat="38.104543" lon="-1.0309128"><ele>147.0</ele><time>2026-04-11T06:56:00.357Z</time></trkpt><trkpt lat="38.1043202" lon="-1.0312104"><ele>147.0</ele><time>2026-04-11T06:56:01.357Z</time></trkpt><trkpt lat="38.1040962" lon="-1.0315087"><ele>147.0</ele><time>2026-04-11T06:56:02.358Z</time></trkpt><trkpt lat="38.1038759" lon="-1.0318096"><ele>149.5</ele><time>2026-04-11T06:56:03.358Z</time></trkpt><trkpt lat="38.1036582" lon="-1.0321122"><ele>152.0</ele><time>2026-04-11T06:56:04.357Z</time></trkpt><trkpt lat="38.10345" lon="-1.0324221"><ele>155.0</ele><time>2026-04-11T06:56:05.357Z</time></trkpt><trkpt lat="38.103244" lon="-1.0327403"><ele>158.0</ele><time>2026-04-11T06:56:06.358Z</time></trkpt><trkpt lat="38.1030449" lon="-1.0330614"><ele>156.0</ele><time>2026-04-11T06:56:07.358Z</time></trkpt><trkpt lat="38.1028465" lon="-1.0333881"><ele>154.0</ele><time>2026-04-11T06:56:08.358Z</time></trkpt><trkpt lat="38.1026535" lon="-1.0337172"><ele>154.0</ele><time>2026-04-11T06:56:09.358Z</time></trkpt><trkpt lat="38.1024594" lon="-1.0340489"><ele>154.0</ele><time>2026-04-11T06:56:10.358Z</time></trkpt><trkpt lat="38.1022686" lon="-1.0343863"><ele>154.0</ele><time>2026-04-11T06:56:11.358Z</time></trkpt><trkpt lat="38.1020796" lon="-1.0347268"><ele>154.0</ele><time>2026-04-11T06:56:12.358Z</time></trkpt><trkpt lat="38.1018907" lon="-1.0350724"><ele>153.0</ele><time>2026-04-11T06:56:13.358Z</time></trkpt><trkpt lat="38.1017067" lon="-1.0354188"><ele>152.0</ele><time>2026-04-11T06:56:14.357Z</time></trkpt><trkpt lat="38.1015276" lon="-1.0357654"><ele>154.5</ele><time>2026-04-11T06:56:15.358Z</time></trkpt><trkpt lat="38.1013543" lon="-1.0361151"><ele>157.0</ele><time>2026-04-11T06:56:16.358Z</time></trkpt><trkpt lat="38.1011834" lon="-1.0364708"><ele>153.5</ele><time>2026-04-11T06:56:17.358Z</time></trkpt><trkpt lat="38.1010162" lon="-1.0368241"><ele>150.0</ele><time>2026-04-11T06:56:18.357Z</time></trkpt><trkpt lat="38.1008498" lon="-1.0371815"><ele>151.0</ele><time>2026-04-11T06:56:19.358Z</time></trkpt><trkpt lat="38.1006883" lon="-1.03754"><ele>152.0</ele><time>2026-04-11T06:56:20.357Z</time></trkpt><trkpt lat="38.1005319" lon="-1.0379002"><ele>152.0</ele><time>2026-04-11T06:56:21.358Z</time></trkpt><trkpt lat="38.1003769" lon="-1.0382656"><ele>152.0</ele><time>2026-04-11T06:56:22.358Z</time></trkpt><trkpt lat="38.1002267" lon="-1.0386331"><ele>149.0</ele><time>2026-04-11T06:56:23.357Z</time></trkpt><trkpt lat="38.1000745" lon="-1.0389985"><ele>146.0</ele><time>2026-04-11T06:56:24.358Z</time></trkpt><trkpt lat="38.0999265" lon="-1.039364"><ele>145.5</ele><time>2026-04-11T06:56:25.358Z</time></trkpt><trkpt lat="38.09978" lon="-1.0397368"><ele>145.0</ele><time>2026-04-11T06:56:26.358Z</time></trkpt><trkpt lat="38.099631" lon="-1.040102"><ele>144.0</ele><time>2026-04-11T06:56:27.358Z</time></trkpt><trkpt lat="38.0994838" lon="-1.0404687"><ele>143.0</ele><time>2026-04-11T06:56:28.358Z</time></trkpt><trkpt lat="38.0993385" lon="-1.0408386"><ele>143.0</ele><time>2026-04-11T06:56:29.358Z</time></trkpt><trkpt lat="38.099193" lon="-1.0412053"><ele>143.0</ele><time>2026-04-11T06:56:30.358Z</time></trkpt><trkpt lat="38.0990469" lon="-1.0415745"><ele>140.5</ele><time>2026-04-11T06:56:31.358Z</time></trkpt><trkpt lat="38.0989053" lon="-1.0419364"><ele>138.0</ele><time>2026-04-11T06:56:32.358Z</time></trkpt><trkpt lat="38.0987601" lon="-1.0423084"><ele>135.5</ele><time>2026-04-11T06:56:33.358Z</time></trkpt><trkpt lat="38.0986176" lon="-1.0426783"><ele>133.0</ele><time>2026-04-11T06:56:34.358Z</time></trkpt><trkpt lat="38.0984775" lon="-1.0430505"><ele>133.0</ele><time>2026-04-11T06:56:35.358Z</time></trkpt><trkpt lat="38.0983385" lon="-1.0434243"><ele>133.0</ele><time>2026-04-11T06:56:36.358Z</time></trkpt><trkpt lat="38.0982004" lon="-1.0437962"><ele>132.5</ele><time>2026-04-11T06:56:37.358Z</time></trkpt><trkpt lat="38.098064" lon="-1.044166"><ele>132.0</ele><time>2026-04-11T06:56:38.358Z</time></trkpt><trkpt lat="38.0979298" lon="-1.0445378"><ele>132.0</ele><time>2026-04-11T06:56:39.358Z</time></trkpt><trkpt lat="38.0977954" lon="-1.0449144"><ele>132.0</ele><time>2026-04-11T06:56:40.357Z</time></trkpt><trkpt lat="38.0976614" lon="-1.0452871"><ele>133.0</ele><time>2026-04-11T06:56:41.358Z</time></trkpt><trkpt lat="38.0975294" lon="-1.045663"><ele>134.0</ele><time>2026-04-11T06:56:42.358Z</time></trkpt><trkpt lat="38.0974004" lon="-1.046039"><ele>133.5</ele><time>2026-04-11T06:56:43.358Z</time></trkpt><trkpt lat="38.0972705" lon="-1.0464187"><ele>133.0</ele><time>2026-04-11T06:56:44.357Z</time></trkpt><trkpt lat="38.0971376" lon="-1.0467971"><ele>133.0</ele><time>2026-04-11T06:56:45.357Z</time></trkpt><trkpt lat="38.0970095" lon="-1.0471755"><ele>133.0</ele><time>2026-04-11T06:56:46.358Z</time></trkpt><trkpt lat="38.096879" lon="-1.0475558"><ele>130.5</ele><time>2026-04-11T06:56:47.358Z</time></trkpt><trkpt lat="38.0967515" lon="-1.0479362"><ele>128.0</ele><time>2026-04-11T06:56:48.358Z</time></trkpt><trkpt lat="38.0966266" lon="-1.0483158"><ele>127.5</ele><time>2026-04-11T06:56:49.358Z</time></trkpt><trkpt lat="38.0965025" lon="-1.0486997"><ele>127.0</ele><time>2026-04-11T06:56:50.357Z</time></trkpt><trkpt lat="38.0963779" lon="-1.0490798"><ele>124.5</ele><time>2026-04-11T06:56:51.358Z</time></trkpt><trkpt lat="38.0962547" lon="-1.0494635"><ele>122.0</ele><time>2026-04-11T06:56:52.358Z</time></trkpt><trkpt lat="38.0961353" lon="-1.049853"><ele>121.0</ele><time>2026-04-11T06:56:53.358Z</time></trkpt><trkpt lat="38.0960159" lon="-1.0502384"><ele>120.0</ele><time>2026-04-11T06:56:54.358Z</time></trkpt><trkpt lat="38.095895" lon="-1.0506243"><ele>119.0</ele><time>2026-04-11T06:56:55.357Z</time></trkpt><trkpt lat="38.0957776" lon="-1.051012"><ele>118.0</ele><time>2026-04-11T06:56:56.358Z</time></trkpt><trkpt lat="38.0956592" lon="-1.0514002"><ele>117.0</ele><time>2026-04-11T06:56:57.357Z</time></trkpt><trkpt lat="38.0955418" lon="-1.0517851"><ele>116.0</ele><time>2026-04-11T06:56:58.357Z</time></trkpt><trkpt lat="38.0954299" lon="-1.0521755"><ele>113.5</ele><time>2026-04-11T06:56:59.358Z</time></trkpt><trkpt lat="38.0953176" lon="-1.0525651"><ele>111.0</ele><time>2026-04-11T06:57:00.358Z</time></trkpt><trkpt lat="38.0952053" lon="-1.0529539"><ele>109.0</ele><time>2026-04-11T06:57:01.358Z</time></trkpt><trkpt lat="38.0950925" lon="-1.0533451"><ele>107.0</ele><time>2026-04-11T06:57:02.358Z</time></trkpt><trkpt lat="38.0949806" lon="-1.0537328"><ele>106.5</ele><time>2026-04-11T06:57:03.358Z</time></trkpt><trkpt lat="38.0948738" lon="-1.0541225"><ele>106.0</ele><time>2026-04-11T06:57:04.358Z</time></trkpt><trkpt lat="38.0947679" lon="-1.0545089"><ele>106.0</ele><time>2026-04-11T06:57:05.358Z</time></trkpt><trkpt lat="38.0946637" lon="-1.0549017"><ele>106.0</ele><time>2026-04-11T06:57:06.357Z</time></trkpt><trkpt lat="38.0945639" lon="-1.0553002"><ele>102.0</ele><time>2026-04-11T06:57:07.358Z</time></trkpt><trkpt lat="38.0944726" lon="-1.0556972"><ele>98.0</ele><time>2026-04-11T06:57:08.357Z</time></trkpt><trkpt lat="38.0943925" lon="-1.0561003"><ele>97.0</ele><time>2026-04-11T06:57:09.357Z</time></trkpt><trkpt lat="38.0943152" lon="-1.056502"><ele>96.0</ele><time>2026-04-11T06:57:10.357Z</time></trkpt><trkpt lat="38.0942469" lon="-1.056903"><ele>94.0</ele><time>2026-04-11T06:57:11.357Z</time></trkpt><trkpt lat="38.0941837" lon="-1.0573009"><ele>92.0</ele><time>2026-04-11T06:57:12.358Z</time></trkpt><trkpt lat="38.0941288" lon="-1.0577083"><ele>90.0</ele><time>2026-04-11T06:57:13.358Z</time></trkpt><trkpt lat="38.094081" lon="-1.0581123"><ele>88.0</ele><time>2026-04-11T06:57:14.358Z</time></trkpt><trkpt lat="38.0940402" lon="-1.0585169"><ele>88.0</ele><time>2026-04-11T06:57:15.357Z</time></trkpt><trkpt lat="38.094006" lon="-1.0589207"><ele>88.0</ele><time>2026-04-11T06:57:16.358Z</time></trkpt><trkpt lat="38.0939771" lon="-1.0593252"><ele>91.5</ele><time>2026-04-11T06:57:17.358Z</time></trkpt><trkpt lat="38.0939546" lon="-1.059734"><ele>95.0</ele><time>2026-04-11T06:57:18.357Z</time></trkpt><trkpt lat="38.0939359" lon="-1.0601423"><ele>101.5</ele><time>2026-04-11T06:57:19.358Z</time></trkpt><trkpt lat="38.0939219" lon="-1.0605508"><ele>108.0</ele><time>2026-04-11T06:57:20.358Z</time></trkpt><trkpt lat="38.0939037" lon="-1.0609334"><ele>111.5</ele><time>2026-04-11T06:57:21.358Z</time></trkpt><trkpt lat="38.0938866" lon="-1.0612816"><ele>115.0</ele><time>2026-04-11T06:57:22.358Z</time></trkpt><trkpt lat="38.0938657" lon="-1.0616207"><ele>116.5</ele><time>2026-04-11T06:57:23.358Z</time></trkpt><trkpt lat="38.0938401" lon="-1.0619539"><ele>118.0</ele><time>2026-04-11T06:57:24.358Z</time></trkpt><trkpt lat="38.0938069" lon="-1.062284"><ele>113.5</ele><time>2026-04-11T06:57:25.358Z</time></trkpt><trkpt lat="38.0937717" lon="-1.0626154"><ele>109.0</ele><time>2026-04-11T06:57:26.358Z</time></trkpt><trkpt lat="38.0937315" lon="-1.0629482"><ele>106.0</ele><time>2026-04-11T06:57:27.358Z</time></trkpt><trkpt lat="38.0936857" lon="-1.0632885"><ele>103.0</ele><time>2026-04-11T06:57:28.358Z</time></trkpt><trkpt lat="38.0936386" lon="-1.0636363"><ele>103.0</ele><time>2026-04-11T06:57:29.358Z</time></trkpt><trkpt lat="38.0935842" lon="-1.0639857"><ele>103.0</ele><time>2026-04-11T06:57:30.357Z</time></trkpt><trkpt lat="38.0935264" lon="-1.0643376"><ele>101.5</ele><time>2026-04-11T06:57:31.358Z</time></trkpt><trkpt lat="38.0934631" lon="-1.0646861"><ele>100.0</ele><time>2026-04-11T06:57:32.358Z</time></trkpt><trkpt lat="38.0933965" lon="-1.065025"><ele>99.5</ele><time>2026-04-11T06:57:33.358Z</time></trkpt><trkpt lat="38.0933263" lon="-1.0653598"><ele>99.0</ele><time>2026-04-11T06:57:34.357Z</time></trkpt><trkpt lat="38.0932497" lon="-1.0656943"><ele>95.0</ele><time>2026-04-11T06:57:35.358Z</time></trkpt><trkpt lat="38.0931711" lon="-1.066026"><ele>91.0</ele><time>2026-04-11T06:57:36.357Z</time></trkpt><trkpt lat="38.0930899" lon="-1.066356"><ele>91.5</ele><time>2026-04-11T06:57:37.358Z</time></trkpt><trkpt lat="38.0930048" lon="-1.0666879"><ele>92.0</ele><time>2026-04-11T06:57:38.358Z</time></trkpt><trkpt lat="38.0929163" lon="-1.0670211"><ele>92.0</ele><time>2026-04-11T06:57:39.358Z</time></trkpt><trkpt lat="38.0928232" lon="-1.0673554"><ele>92.0</ele><time>2026-04-11T06:57:40.357Z</time></trkpt><trkpt lat="38.0927254" lon="-1.0676885"><ele>91.0</ele><time>2026-04-11T06:57:41.357Z</time></trkpt><trkpt lat="38.0926215" lon="-1.0680184"><ele>90.0</ele><time>2026-04-11T06:57:42.358Z</time></trkpt><trkpt lat="38.0925121" lon="-1.0683462"><ele>88.5</ele><time>2026-04-11T06:57:43.358Z</time></trkpt><trkpt lat="38.0923971" lon="-1.0686729"><ele>87.0</ele><time>2026-04-11T06:57:44.357Z</time></trkpt><trkpt lat="38.0922798" lon="-1.0689986"><ele>87.5</ele><time>2026-04-11T06:57:45.358Z</time></trkpt><trkpt lat="38.0921594" lon="-1.0693239"><ele>88.0</ele><time>2026-04-11T06:57:46.358Z</time></trkpt><trkpt lat="38.0920344" lon="-1.0696442"><ele>89.5</ele><time>2026-04-11T06:57:47.358Z</time></trkpt><trkpt lat="38.0919034" lon="-1.0699665"><ele>91.0</ele><time>2026-04-11T06:57:48.358Z</time></trkpt><trkpt lat="38.091768" lon="-1.0702877"><ele>91.0</ele><time>2026-04-11T06:57:49.358Z</time></trkpt><trkpt lat="38.0916283" lon="-1.0706094"><ele>91.0</ele><time>2026-04-11T06:57:50.358Z</time></trkpt><trkpt lat="38.0914811" lon="-1.070928"><ele>94.0</ele><time>2026-04-11T06:57:51.358Z</time></trkpt><trkpt lat="38.0913286" lon="-1.0712508"><ele>97.0</ele><time>2026-04-11T06:57:52.357Z</time></trkpt><trkpt lat="38.0911739" lon="-1.0715725"><ele>95.0</ele><time>2026-04-11T06:57:53.358Z</time></trkpt><trkpt lat="38.0910122" lon="-1.0718935"><ele>93.0</ele><time>2026-04-11T06:57:54.358Z</time></trkpt><trkpt lat="38.090846" lon="-1.0722116"><ele>90.0</ele><time>2026-04-11T06:57:55.357Z</time></trkpt><trkpt lat="38.0906763" lon="-1.0725275"><ele>87.0</ele><time>2026-04-11T06:57:56.358Z</time></trkpt><trkpt lat="38.0904996" lon="-1.0728482"><ele>87.0</ele><time>2026-04-11T06:57:57.358Z</time></trkpt><trkpt lat="38.0903106" lon="-1.0731692"><ele>87.0</ele><time>2026-04-11T06:57:58.357Z</time></trkpt><trkpt lat="38.090115" lon="-1.0734894"><ele>81.0</ele><time>2026-04-11T06:57:59.358Z</time></trkpt><trkpt lat="38.0899138" lon="-1.0738093"><ele>75.0</ele><time>2026-04-11T06:58:00.358Z</time></trkpt><trkpt lat="38.0897096" lon="-1.0741222"><ele>73.0</ele><time>2026-04-11T06:58:01.358Z</time></trkpt><trkpt lat="38.0894941" lon="-1.0744396"><ele>71.0</ele><time>2026-04-11T06:58:02.358Z</time></trkpt><trkpt lat="38.0892781" lon="-1.0747403"><ele>69.0</ele><time>2026-04-11T06:58:03.358Z</time></trkpt><trkpt lat="38.0890541" lon="-1.0750395"><ele>67.0</ele><time>2026-04-11T06:58:04.358Z</time></trkpt><trkpt lat="38.0888274" lon="-1.0753373"><ele>67.0</ele><time>2026-04-11T06:58:05.358Z</time></trkpt><trkpt lat="38.0886021" lon="-1.0756298"><ele>67.0</ele><time>2026-04-11T06:58:06.358Z</time></trkpt><trkpt lat="38.0883658" lon="-1.0759219"><ele>64.5</ele><time>2026-04-11T06:58:07.358Z</time></trkpt><trkpt lat="38.0881248" lon="-1.0762118"><ele>62.0</ele><time>2026-04-11T06:58:08.358Z</time></trkpt><trkpt lat="38.0878798" lon="-1.0764994"><ele>61.5</ele><time>2026-04-11T06:58:09.358Z</time></trkpt><trkpt lat="38.0876292" lon="-1.0767783"><ele>61.0</ele><time>2026-04-11T06:58:10.358Z</time></trkpt><trkpt lat="38.0873753" lon="-1.0770514"><ele>60.5</ele><time>2026-04-11T06:58:11.358Z</time></trkpt><trkpt lat="38.0871144" lon="-1.0773147"><ele>60.0</ele><time>2026-04-11T06:58:12.358Z</time></trkpt><trkpt lat="38.0868528" lon="-1.077574"><ele>58.0</ele><time>2026-04-11T06:58:13.358Z</time></trkpt><trkpt lat="38.0865876" lon="-1.0778218"><ele>56.0</ele><time>2026-04-11T06:58:14.358Z</time></trkpt><trkpt lat="38.0863209" lon="-1.0780701"><ele>57.0</ele><time>2026-04-11T06:58:15.358Z</time></trkpt><trkpt lat="38.0860502" lon="-1.0783149"><ele>58.0</ele><time>2026-04-11T06:58:16.358Z</time></trkpt><trkpt lat="38.0857822" lon="-1.0785639"><ele>58.5</ele><time>2026-04-11T06:58:17.358Z</time></trkpt><trkpt lat="38.0855146" lon="-1.078816"><ele>59.0</ele><time>2026-04-11T06:58:18.358Z</time></trkpt><trkpt lat="38.0852484" lon="-1.0790699"><ele>58.0</ele><time>2026-04-11T06:58:19.358Z</time></trkpt><trkpt lat="38.0849824" lon="-1.0793292"><ele>57.0</ele><time>2026-04-11T06:58:20.358Z</time></trkpt><trkpt lat="38.0847157" lon="-1.0795936"><ele>57.0</ele><time>2026-04-11T06:58:21.358Z</time></trkpt><trkpt lat="38.0844547" lon="-1.079858"><ele>57.0</ele><time>2026-04-11T06:58:22.358Z</time></trkpt><trkpt lat="38.0841939" lon="-1.0801226"><ele>59.0</ele><time>2026-04-11T06:58:23.358Z</time></trkpt><trkpt lat="38.0839378" lon="-1.0803925"><ele>61.0</ele><time>2026-04-11T06:58:24.357Z</time></trkpt><trkpt lat="38.0836819" lon="-1.0806653"><ele>63.0</ele><time>2026-04-11T06:58:25.357Z</time></trkpt><trkpt lat="38.0834292" lon="-1.0809395"><ele>65.0</ele><time>2026-04-11T06:58:26.358Z</time></trkpt><trkpt lat="38.0831789" lon="-1.0812133"><ele>65.5</ele><time>2026-04-11T06:58:27.357Z</time></trkpt><trkpt lat="38.0829269" lon="-1.0814924"><ele>66.0</ele><time>2026-04-11T06:58:28.358Z</time></trkpt><trkpt lat="38.0826778" lon="-1.0817704"><ele>67.0</ele><time>2026-04-11T06:58:29.358Z</time></trkpt><trkpt lat="38.0824316" lon="-1.0820531"><ele>68.0</ele><time>2026-04-11T06:58:30.357Z</time></trkpt><trkpt lat="38.082189" lon="-1.0823341"><ele>70.0</ele><time>2026-04-11T06:58:31.357Z</time></trkpt><trkpt lat="38.0819481" lon="-1.0826215"><ele>72.0</ele><time>2026-04-11T06:58:32.358Z</time></trkpt><trkpt lat="38.0817062" lon="-1.0829112"><ele>72.0</ele><time>2026-04-11T06:58:33.358Z</time></trkpt><trkpt lat="38.0814668" lon="-1.0832023"><ele>72.0</ele><time>2026-04-11T06:58:34.357Z</time></trkpt><trkpt lat="38.0812275" lon="-1.0834923"><ele>74.0</ele><time>2026-04-11T06:58:35.357Z</time></trkpt><trkpt lat="38.0809886" lon="-1.0837839"><ele>76.0</ele><time>2026-04-11T06:58:36.358Z</time></trkpt><trkpt lat="38.0807517" lon="-1.0840765"><ele>86.0</ele><time>2026-04-11T06:58:37.358Z</time></trkpt><trkpt lat="38.0805193" lon="-1.0843745"><ele>96.0</ele><time>2026-04-11T06:58:38.358Z</time></trkpt><trkpt lat="38.0802876" lon="-1.0846776"><ele>93.0</ele><time>2026-04-11T06:58:39.358Z</time></trkpt><trkpt lat="38.0800569" lon="-1.0849779"><ele>90.0</ele><time>2026-04-11T06:58:40.357Z</time></trkpt><trkpt lat="38.0798279" lon="-1.0852825"><ele>92.0</ele><time>2026-04-11T06:58:41.358Z</time></trkpt><trkpt lat="38.0796018" lon="-1.0855892"><ele>94.0</ele><time>2026-04-11T06:58:42.358Z</time></trkpt><trkpt lat="38.0793777" lon="-1.0858987"><ele>94.0</ele><time>2026-04-11T06:58:43.357Z</time></trkpt><trkpt lat="38.0791548" lon="-1.0862125"><ele>94.0</ele><time>2026-04-11T06:58:44.358Z</time></trkpt><trkpt lat="38.0789374" lon="-1.08652"><ele>93.0</ele><time>2026-04-11T06:58:45.357Z</time></trkpt><trkpt lat="38.0787298" lon="-1.0868169"><ele>92.0</ele><time>2026-04-11T06:58:46.358Z</time></trkpt><trkpt lat="38.0785214" lon="-1.0871179"><ele>92.0</ele><time>2026-04-11T06:58:47.358Z</time></trkpt><trkpt lat="38.0783134" lon="-1.0874151"><ele>92.0</ele><time>2026-04-11T06:58:48.358Z</time></trkpt><trkpt lat="38.0781088" lon="-1.0877235"><ele>91.5</ele><time>2026-04-11T06:58:49.357Z</time></trkpt><trkpt lat="38.0779047" lon="-1.0880335"><ele>91.0</ele><time>2026-04-11T06:58:50.358Z</time></trkpt><trkpt lat="38.0777008" lon="-1.0883458"><ele>92.5</ele><time>2026-04-11T06:58:51.358Z</time></trkpt><trkpt lat="38.0774993" lon="-1.0886645"><ele>94.0</ele><time>2026-04-11T06:58:52.357Z</time></trkpt><trkpt lat="38.0772957" lon="-1.088985"><ele>93.0</ele><time>2026-04-11T06:58:53.358Z</time></trkpt><trkpt lat="38.077092" lon="-1.0893107"><ele>92.0</ele><time>2026-04-11T06:58:54.358Z</time></trkpt><trkpt lat="38.0768898" lon="-1.0896426"><ele>93.0</ele><time>2026-04-11T06:58:55.357Z</time></trkpt><trkpt lat="38.0766888" lon="-1.0899774"><ele>94.0</ele><time>2026-04-11T06:58:56.357Z</time></trkpt><trkpt lat="38.0764913" lon="-1.0903125"><ele>96.0</ele><time>2026-04-11T06:58:57.358Z</time></trkpt><trkpt lat="38.0762927" lon="-1.0906543"><ele>98.0</ele><time>2026-04-11T06:58:58.358Z</time></trkpt><trkpt lat="38.0761001" lon="-1.0909955"><ele>98.0</ele><time>2026-04-11T06:58:59.357Z</time></trkpt><trkpt lat="38.0759143" lon="-1.0913369"><ele>98.0</ele><time>2026-04-11T06:59:00.358Z</time></trkpt><trkpt lat="38.0757316" lon="-1.0916847"><ele>101.5</ele><time>2026-04-11T06:59:01.358Z</time></trkpt><trkpt lat="38.075555" lon="-1.092032"><ele>105.0</ele><time>2026-04-11T06:59:02.358Z</time></trkpt><trkpt lat="38.075379" lon="-1.0923866"><ele>104.5</ele><time>2026-04-11T06:59:03.358Z</time></trkpt><trkpt lat="38.0752023" lon="-1.0927413"><ele>104.0</ele><time>2026-04-11T06:59:04.358Z</time></trkpt><trkpt lat="38.0750235" lon="-1.093088"><ele>101.5</ele><time>2026-04-11T06:59:05.358Z</time></trkpt><trkpt lat="38.0748315" lon="-1.0934291"><ele>99.0</ele><time>2026-04-11T06:59:06.358Z</time></trkpt><trkpt lat="38.0746284" lon="-1.0937572"><ele>99.0</ele><time>2026-04-11T06:59:07.358Z</time></trkpt><trkpt lat="38.0744114" lon="-1.0940735"><ele>99.0</ele><time>2026-04-11T06:59:08.358Z</time></trkpt><trkpt lat="38.0741839" lon="-1.0943757"><ele>99.5</ele><time>2026-04-11T06:59:09.358Z</time></trkpt><trkpt lat="38.0739466" lon="-1.0946637"><ele>100.0</ele><time>2026-04-11T06:59:10.358Z</time></trkpt><trkpt lat="38.0736982" lon="-1.0949441"><ele>100.5</ele><time>2026-04-11T06:59:11.358Z</time></trkpt><trkpt lat="38.0734414" lon="-1.0952074"><ele>101.0</ele><time>2026-04-11T06:59:12.358Z</time></trkpt><trkpt lat="38.0731757" lon="-1.0954529"><ele>105.0</ele><time>2026-04-11T06:59:13.358Z</time></trkpt><trkpt lat="38.0729022" lon="-1.095685"><ele>109.0</ele><time>2026-04-11T06:59:14.358Z</time></trkpt><trkpt lat="38.0726228" lon="-1.0958961"><ele>114.5</ele><time>2026-04-11T06:59:15.358Z</time></trkpt><trkpt lat="38.072336" lon="-1.0960925"><ele>120.0</ele><time>2026-04-11T06:59:16.358Z</time></trkpt><trkpt lat="38.0720419" lon="-1.0962738"><ele>120.0</ele><time>2026-04-11T06:59:17.357Z</time></trkpt><trkpt lat="38.0717403" lon="-1.0964369"><ele>120.0</ele><time>2026-04-11T06:59:18.358Z</time></trkpt><trkpt lat="38.0714352" lon="-1.0965867"><ele>118.5</ele><time>2026-04-11T06:59:19.358Z</time></trkpt><trkpt lat="38.0711293" lon="-1.0967358"><ele>117.0</ele><time>2026-04-11T06:59:20.358Z</time></trkpt><trkpt lat="38.0708236" lon="-1.0968812"><ele>118.5</ele><time>2026-04-11T06:59:21.358Z</time></trkpt><trkpt lat="38.0705187" lon="-1.0970334"><ele>120.0</ele><time>2026-04-11T06:59:22.358Z</time></trkpt><trkpt lat="38.0702155" lon="-1.0971999"><ele>120.0</ele><time>2026-04-11T06:59:23.358Z</time></trkpt><trkpt lat="38.0699188" lon="-1.0973872"><ele>120.0</ele><time>2026-04-11T06:59:24.358Z</time></trkpt><trkpt lat="38.0696289" lon="-1.0975964"><ele>120.0</ele><time>2026-04-11T06:59:25.358Z</time></trkpt><trkpt lat="38.0693452" lon="-1.0978182"><ele>120.0</ele><time>2026-04-11T06:59:26.357Z</time></trkpt><trkpt lat="38.0690679" lon="-1.0980549"><ele>120.5</ele><time>2026-04-11T06:59:27.358Z</time></trkpt><trkpt lat="38.0687996" lon="-1.0983077"><ele>121.0</ele><time>2026-04-11T06:59:28.358Z</time></trkpt><trkpt lat="38.0685427" lon="-1.0985787"><ele>121.0</ele><time>2026-04-11T06:59:29.358Z</time></trkpt><trkpt lat="38.0682985" lon="-1.0988611"><ele>121.0</ele><time>2026-04-11T06:59:30.358Z</time></trkpt><trkpt lat="38.0680635" lon="-1.0991588"><ele>123.5</ele><time>2026-04-11T06:59:31.357Z</time></trkpt><trkpt lat="38.0678409" lon="-1.0994676"><ele>126.0</ele><time>2026-04-11T06:59:32.358Z</time></trkpt><trkpt lat="38.0676289" lon="-1.0997935"><ele>123.5</ele><time>2026-04-11T06:59:33.357Z</time></trkpt><trkpt lat="38.0674295" lon="-1.1001312"><ele>121.0</ele><time>2026-04-11T06:59:34.358Z</time></trkpt><trkpt lat="38.0672413" lon="-1.1004806"><ele>118.5</ele><time>2026-04-11T06:59:35.358Z</time></trkpt><trkpt lat="38.0670654" lon="-1.1008396"><ele>116.0</ele><time>2026-04-11T06:59:36.358Z</time></trkpt><trkpt lat="38.0669052" lon="-1.1012107"><ele>116.5</ele><time>2026-04-11T06:59:37.358Z</time></trkpt><trkpt lat="38.0667575" lon="-1.1015867"><ele>117.0</ele><time>2026-04-11T06:59:38.358Z</time></trkpt><trkpt lat="38.0666239" lon="-1.1019735"><ele>115.5</ele><time>2026-04-11T06:59:39.358Z</time></trkpt><trkpt lat="38.0665053" lon="-1.1023703"><ele>114.0</ele><time>2026-04-11T06:59:40.358Z</time></trkpt><trkpt lat="38.0663994" lon="-1.1027701"><ele>112.0</ele><time>2026-04-11T06:59:41.358Z</time></trkpt><trkpt lat="38.0662938" lon="-1.1031746"><ele>110.0</ele><time>2026-04-11T06:59:42.358Z</time></trkpt><trkpt lat="38.0661843" lon="-1.1035757"><ele>109.5</ele><time>2026-04-11T06:59:43.358Z</time></trkpt><trkpt lat="38.0660674" lon="-1.1039686"><ele>109.0</ele><time>2026-04-11T06:59:44.358Z</time></trkpt><trkpt lat="38.0659407" lon="-1.1043691"><ele>107.5</ele><time>2026-04-11T06:59:45.358Z</time></trkpt><trkpt lat="38.0657973" lon="-1.1047479"><ele>106.0</ele><time>2026-04-11T06:59:46.358Z</time></trkpt><trkpt lat="38.0656463" lon="-1.1051172"><ele>103.0</ele><time>2026-04-11T06:59:47.358Z</time></trkpt><trkpt lat="38.0654795" lon="-1.1054778"><ele>100.0</ele><time>2026-04-11T06:59:48.357Z</time></trkpt><trkpt lat="38.0653013" lon="-1.1058331"><ele>98.5</ele><time>2026-04-11T06:59:49.357Z</time></trkpt><trkpt lat="38.0651075" lon="-1.1061664"><ele>97.0</ele><time>2026-04-11T06:59:50.358Z</time></trkpt><trkpt lat="38.0649055" lon="-1.1064876"><ele>97.5</ele><time>2026-04-11T06:59:51.358Z</time></trkpt><trkpt lat="38.064692" lon="-1.1067986"><ele>98.0</ele><time>2026-04-11T06:59:52.358Z</time></trkpt><trkpt lat="38.0644697" lon="-1.1070979"><ele>98.0</ele><time>2026-04-11T06:59:53.358Z</time></trkpt><trkpt lat="38.0642384" lon="-1.1073819"><ele>98.0</ele><time>2026-04-11T06:59:54.358Z</time></trkpt><trkpt lat="38.0639971" lon="-1.1076589"><ele>99.0</ele><time>2026-04-11T06:59:55.358Z</time></trkpt><trkpt lat="38.0637463" lon="-1.1079167"><ele>100.0</ele><time>2026-04-11T06:59:56.358Z</time></trkpt><trkpt lat="38.0634851" lon="-1.1081623"><ele>98.0</ele><time>2026-04-11T06:59:57.357Z</time></trkpt><trkpt lat="38.0632152" lon="-1.1083917"><ele>96.0</ele><time>2026-04-11T06:59:58.358Z</time></trkpt><trkpt lat="38.0629403" lon="-1.1086074"><ele>96.0</ele><time>2026-04-11T06:59:59.358Z</time></trkpt><trkpt lat="38.0626604" lon="-1.10881"><ele>96.0</ele><time>2026-04-11T07:00:00.357Z</time></trkpt><trkpt lat="38.0623816" lon="-1.1090208"><ele>100.0</ele><time>2026-04-11T07:00:01.358Z</time></trkpt><trkpt lat="38.0621024" lon="-1.1092339"><ele>104.0</ele><time>2026-04-11T07:00:02.357Z</time></trkpt><trkpt lat="38.0618256" lon="-1.1094575"><ele>104.0</ele><time>2026-04-11T07:00:03.357Z</time></trkpt><trkpt lat="38.0615556" lon="-1.1096861"><ele>104.0</ele><time>2026-04-11T07:00:04.358Z</time></trkpt><trkpt lat="38.0612923" lon="-1.1099261"><ele>105.5</ele><time>2026-04-11T07:00:05.357Z</time></trkpt><trkpt lat="38.0610371" lon="-1.1101808"><ele>107.0</ele><time>2026-04-11T07:00:06.358Z</time></trkpt><trkpt lat="38.0607856" lon="-1.110446"><ele>104.5</ele><time>2026-04-11T07:00:07.357Z</time></trkpt><trkpt lat="38.060549" lon="-1.1107233"><ele>102.0</ele><time>2026-04-11T07:00:08.358Z</time></trkpt><trkpt lat="38.0603172" lon="-1.1110081"><ele>101.5</ele><time>2026-04-11T07:00:09.358Z</time></trkpt><trkpt lat="38.0600936" lon="-1.1113031"><ele>101.0</ele><time>2026-04-11T07:00:10.358Z</time></trkpt><trkpt lat="38.0598758" lon="-1.1116086"><ele>100.0</ele><time>2026-04-11T07:00:11.357Z</time></trkpt><trkpt lat="38.0596693" lon="-1.1119274"><ele>99.0</ele><time>2026-04-11T07:00:12.357Z</time></trkpt><trkpt lat="38.0594709" lon="-1.1122565"><ele>99.5</ele><time>2026-04-11T07:00:13.358Z</time></trkpt><trkpt lat="38.0592769" lon="-1.1125875"><ele>100.0</ele><time>2026-04-11T07:00:14.358Z</time></trkpt><trkpt lat="38.0590851" lon="-1.1129186"><ele>103.5</ele><time>2026-04-11T07:00:15.357Z</time></trkpt><trkpt lat="38.0588918" lon="-1.113248"><ele>107.0</ele><time>2026-04-11T07:00:16.358Z</time></trkpt><trkpt lat="38.0586967" lon="-1.1135758"><ele>107.0</ele><time>2026-04-11T07:00:17.358Z</time></trkpt><trkpt lat="38.0584992" lon="-1.1139022"><ele>107.0</ele><time>2026-04-11T07:00:18.358Z</time></trkpt><trkpt lat="38.0582974" lon="-1.1142237"><ele>113.0</ele><time>2026-04-11T07:00:19.357Z</time></trkpt><trkpt lat="38.058085" lon="-1.1145354"><ele>119.0</ele><time>2026-04-11T07:00:20.358Z</time></trkpt><trkpt lat="38.057862" lon="-1.1148341"><ele>119.0</ele><time>2026-04-11T07:00:21.358Z</time></trkpt><trkpt lat="38.0576342" lon="-1.1151181"><ele>119.0</ele><time>2026-04-11T07:00:22.358Z</time></trkpt><trkpt lat="38.0573879" lon="-1.1153909"><ele>118.5</ele><time>2026-04-11T07:00:23.358Z</time></trkpt><trkpt lat="38.0571342" lon="-1.1156518"><ele>118.0</ele><time>2026-04-11T07:00:24.358Z</time></trkpt><trkpt lat="38.0568759" lon="-1.1159012"><ele>118.0</ele><time>2026-04-11T07:00:25.358Z</time></trkpt><trkpt lat="38.0566095" lon="-1.1161372"><ele>118.0</ele><time>2026-04-11T07:00:26.358Z</time></trkpt><trkpt lat="38.0563378" lon="-1.1163645"><ele>115.0</ele><time>2026-04-11T07:00:27.358Z</time></trkpt><trkpt lat="38.0560651" lon="-1.116571"><ele>112.0</ele><time>2026-04-11T07:00:28.358Z</time></trkpt><trkpt lat="38.0557953" lon="-1.1167646"><ele>109.0</ele><time>2026-04-11T07:00:29.358Z</time></trkpt><trkpt lat="38.0555353" lon="-1.116937"><ele>106.0</ele><time>2026-04-11T07:00:30.358Z</time></trkpt><trkpt lat="38.0552862" lon="-1.1170981"><ele>106.0</ele><time>2026-04-11T07:00:31.358Z</time></trkpt><trkpt lat="38.0550363" lon="-1.1172348"><ele>106.0</ele><time>2026-04-11T07:00:32.357Z</time></trkpt><trkpt lat="38.0547847" lon="-1.1173651"><ele>107.5</ele><time>2026-04-11T07:00:33.358Z</time></trkpt><trkpt lat="38.0545288" lon="-1.1174828"><ele>109.0</ele><time>2026-04-11T07:00:34.358Z</time></trkpt><trkpt lat="38.0542739" lon="-1.117595"><ele>106.5</ele><time>2026-04-11T07:00:35.357Z</time></trkpt><trkpt lat="38.0540192" lon="-1.1177015"><ele>104.0</ele><time>2026-04-11T07:00:36.358Z</time></trkpt><trkpt lat="38.0537629" lon="-1.1178055"><ele>104.0</ele><time>2026-04-11T07:00:37.357Z</time></trkpt><trkpt lat="38.0535076" lon="-1.1179168"><ele>104.0</ele><time>2026-04-11T07:00:38.358Z</time></trkpt><trkpt lat="38.0532513" lon="-1.1180261"><ele>104.5</ele><time>2026-04-11T07:00:39.358Z</time></trkpt><trkpt lat="38.0529978" lon="-1.1181425"><ele>105.0</ele><time>2026-04-11T07:00:40.357Z</time></trkpt><trkpt lat="38.0527455" lon="-1.1182635"><ele>105.0</ele><time>2026-04-11T07:00:41.357Z</time></trkpt><trkpt lat="38.052493" lon="-1.1183903"><ele>105.0</ele><time>2026-04-11T07:00:42.357Z</time></trkpt><trkpt lat="38.0522461" lon="-1.1185287"><ele>105.5</ele><time>2026-04-11T07:00:43.358Z</time></trkpt><trkpt lat="38.0519994" lon="-1.1186752"><ele>106.0</ele><time>2026-04-11T07:00:44.358Z</time></trkpt><trkpt lat="38.0517578" lon="-1.1188321"><ele>106.5</ele><time>2026-04-11T07:00:45.358Z</time></trkpt><trkpt lat="38.0514944" lon="-1.1190224"><ele>107.0</ele><time>2026-04-11T07:00:46.357Z</time></trkpt><trkpt lat="38.0512408" lon="-1.1192141"><ele>104.5</ele><time>2026-04-11T07:00:47.358Z</time></trkpt><trkpt lat="38.0509849" lon="-1.1194253"><ele>102.0</ele><time>2026-04-11T07:00:48.358Z</time></trkpt><trkpt lat="38.0507345" lon="-1.1196451"><ele>100.5</ele><time>2026-04-11T07:00:49.358Z</time></trkpt><trkpt lat="38.0504871" lon="-1.1198866"><ele>99.0</ele><time>2026-04-11T07:00:50.358Z</time></trkpt><trkpt lat="38.0502463" lon="-1.1201434"><ele>98.5</ele><time>2026-04-11T07:00:51.358Z</time></trkpt><trkpt lat="38.0500166" lon="-1.1204176"><ele>98.0</ele><time>2026-04-11T07:00:52.358Z</time></trkpt><trkpt lat="38.0497932" lon="-1.1206879"><ele>96.5</ele><time>2026-04-11T07:00:53.358Z</time></trkpt><trkpt lat="38.0495814" lon="-1.1209715"><ele>95.0</ele><time>2026-04-11T07:00:54.357Z</time></trkpt><trkpt lat="38.0493769" lon="-1.1212637"><ele>95.0</ele><time>2026-04-11T07:00:55.358Z</time></trkpt><trkpt lat="38.0491821" lon="-1.121564"><ele>95.0</ele><time>2026-04-11T07:00:56.357Z</time></trkpt><trkpt lat="38.048997" lon="-1.1218711"><ele>94.5</ele><time>2026-04-11T07:00:57.358Z</time></trkpt><trkpt lat="38.0488189" lon="-1.1221839"><ele>94.0</ele><time>2026-04-11T07:00:58.357Z</time></trkpt><trkpt lat="38.0486455" lon="-1.1224936"><ele>94.0</ele><time>2026-04-11T07:00:59.358Z</time></trkpt><trkpt lat="38.0484752" lon="-1.122821"><ele>94.0</ele><time>2026-04-11T07:01:00.357Z</time></trkpt><trkpt lat="38.0483097" lon="-1.123138"><ele>95.0</ele><time>2026-04-11T07:01:01.358Z</time></trkpt><trkpt lat="38.0481444" lon="-1.1234561"><ele>96.0</ele><time>2026-04-11T07:01:02.358Z</time></trkpt><trkpt lat="38.047979" lon="-1.1237764"><ele>95.5</ele><time>2026-04-11T07:01:03.357Z</time></trkpt><trkpt lat="38.0478163" lon="-1.1240944"><ele>95.0</ele><time>2026-04-11T07:01:04.358Z</time></trkpt><trkpt lat="38.0476527" lon="-1.1244145"><ele>95.0</ele><time>2026-04-11T07:01:05.358Z</time></trkpt><trkpt lat="38.0474939" lon="-1.1247242"><ele>95.0</ele><time>2026-04-11T07:01:06.358Z</time></trkpt><trkpt lat="38.0473313" lon="-1.1250429"><ele>94.5</ele><time>2026-04-11T07:01:07.358Z</time></trkpt><trkpt lat="38.0471647" lon="-1.1253609"><ele>94.0</ele><time>2026-04-11T07:01:08.358Z</time></trkpt><trkpt lat="38.0469921" lon="-1.125672"><ele>94.0</ele><time>2026-04-11T07:01:09.358Z</time></trkpt><trkpt lat="38.0468171" lon="-1.1259904"><ele>94.0</ele><time>2026-04-11T07:01:10.358Z</time></trkpt><trkpt lat="38.0466473" lon="-1.1263013"><ele>94.5</ele><time>2026-04-11T07:01:11.358Z</time></trkpt><trkpt lat="38.0464786" lon="-1.1266198"><ele>95.0</ele><time>2026-04-11T07:01:12.358Z</time></trkpt><trkpt lat="38.046307" lon="-1.1269488"><ele>95.0</ele><time>2026-04-11T07:01:13.357Z</time></trkpt><trkpt lat="38.0461403" lon="-1.1272745"><ele>95.0</ele><time>2026-04-11T07:01:14.358Z</time></trkpt><trkpt lat="38.0459722" lon="-1.1276034"><ele>96.0</ele><time>2026-04-11T07:01:15.358Z</time></trkpt><trkpt lat="38.045808" lon="-1.1279356"><ele>97.0</ele><time>2026-04-11T07:01:16.358Z</time></trkpt><trkpt lat="38.0456441" lon="-1.1282727"><ele>94.0</ele><time>2026-04-11T07:01:17.358Z</time></trkpt><trkpt lat="38.0454886" lon="-1.1286087"><ele>91.0</ele><time>2026-04-11T07:01:18.358Z</time></trkpt><trkpt lat="38.0453352" lon="-1.1289578"><ele>91.0</ele><time>2026-04-11T07:01:19.358Z</time></trkpt><trkpt lat="38.0451897" lon="-1.1293072"><ele>91.0</ele><time>2026-04-11T07:01:20.358Z</time></trkpt><trkpt lat="38.0450496" lon="-1.1296598"><ele>88.5</ele><time>2026-04-11T07:01:21.358Z</time></trkpt><trkpt lat="38.044919" lon="-1.1300185"><ele>86.0</ele><time>2026-04-11T07:01:22.358Z</time></trkpt><trkpt lat="38.0447936" lon="-1.1303756"><ele>86.5</ele><time>2026-04-11T07:01:23.357Z</time></trkpt><trkpt lat="38.0446702" lon="-1.1307257"><ele>87.0</ele><time>2026-04-11T07:01:24.358Z</time></trkpt><trkpt lat="38.0445506" lon="-1.1310753"><ele>87.0</ele><time>2026-04-11T07:01:25.358Z</time></trkpt><trkpt lat="38.0444297" lon="-1.1314235"><ele>87.0</ele><time>2026-04-11T07:01:26.358Z</time></trkpt><trkpt lat="38.0441667" lon="-1.1321122"><ele>88.5</ele><time>2026-04-11T07:01:28.358Z</time></trkpt><trkpt lat="38.0440459" lon="-1.1324545"><ele>90.0</ele><time>2026-04-11T07:01:29.358Z</time></trkpt><trkpt lat="38.0437972" lon="-1.1331459"><ele>90.5</ele><time>2026-04-11T07:01:31.358Z</time></trkpt><trkpt lat="38.0436725" lon="-1.1334945"><ele>91.0</ele><time>2026-04-11T07:01:32.358Z</time></trkpt><trkpt lat="38.0435545" lon="-1.1338421"><ele>93.5</ele><time>2026-04-11T07:01:33.358Z</time></trkpt><trkpt lat="38.0434306" lon="-1.134188"><ele>96.0</ele><time>2026-04-11T07:01:34.357Z</time></trkpt><trkpt lat="38.0433045" lon="-1.1345327"><ele>96.0</ele><time>2026-04-11T07:01:35.358Z</time></trkpt><trkpt lat="38.0431775" lon="-1.1348758"><ele>96.0</ele><time>2026-04-11T07:01:36.358Z</time></trkpt><trkpt lat="38.0430397" lon="-1.1352082"><ele>96.0</ele><time>2026-04-11T07:01:37.357Z</time></trkpt><trkpt lat="38.0429116" lon="-1.1355562"><ele>96.0</ele><time>2026-04-11T07:01:38.357Z</time></trkpt><trkpt lat="38.0427777" lon="-1.1359065"><ele>96.5</ele><time>2026-04-11T07:01:39.358Z</time></trkpt><trkpt lat="38.0426384" lon="-1.1362557"><ele>97.0</ele><time>2026-04-11T07:01:40.358Z</time></trkpt><trkpt lat="38.042496" lon="-1.1366069"><ele>99.0</ele><time>2026-04-11T07:01:41.358Z</time></trkpt><trkpt lat="38.0420464" lon="-1.1376309"><ele>99.0</ele><time>2026-04-11T07:01:44.357Z</time></trkpt><trkpt lat="38.041891" lon="-1.1379735"><ele>99.0</ele><time>2026-04-11T07:01:45.358Z</time></trkpt><trkpt lat="38.0415525" lon="-1.1386453"><ele>99.0</ele><time>2026-04-11T07:01:47.358Z</time></trkpt><trkpt lat="38.0411953" lon="-1.1393087"><ele>99.0</ele><time>2026-04-11T07:01:49.358Z</time></trkpt><trkpt lat="38.0410141" lon="-1.1396391"><ele>99.0</ele><time>2026-04-11T07:01:50.357Z</time></trkpt><trkpt lat="38.0408304" lon="-1.1399685"><ele>99.5</ele><time>2026-04-11T07:01:51.357Z</time></trkpt><trkpt lat="38.0406454" lon="-1.140296"><ele>100.0</ele><time>2026-04-11T07:01:52.358Z</time></trkpt><trkpt lat="38.0404583" lon="-1.1406198"><ele>102.0</ele><time>2026-04-11T07:01:53.358Z</time></trkpt><trkpt lat="38.0402689" lon="-1.1409407"><ele>104.0</ele><time>2026-04-11T07:01:54.358Z</time></trkpt><trkpt lat="38.0400772" lon="-1.1412568"><ele>104.0</ele><time>2026-04-11T07:01:55.357Z</time></trkpt><trkpt lat="38.0398821" lon="-1.1415804"><ele>104.0</ele><time>2026-04-11T07:01:56.358Z</time></trkpt><trkpt lat="38.0396902" lon="-1.1418896"><ele>104.0</ele><time>2026-04-11T07:01:57.358Z</time></trkpt><trkpt lat="38.0394991" lon="-1.1421939"><ele>104.0</ele><time>2026-04-11T07:01:58.358Z</time></trkpt><trkpt lat="38.0393093" lon="-1.1424988"><ele>104.5</ele><time>2026-04-11T07:01:59.358Z</time></trkpt><trkpt lat="38.0391189" lon="-1.142802"><ele>105.0</ele><time>2026-04-11T07:02:00.357Z</time></trkpt><trkpt lat="38.0389339" lon="-1.1431032"><ele>103.0</ele><time>2026-04-11T07:02:01.358Z</time></trkpt><trkpt lat="38.0387463" lon="-1.1433932"><ele>101.0</ele><time>2026-04-11T07:02:02.358Z</time></trkpt><trkpt lat="38.0385533" lon="-1.1436833"><ele>101.0</ele><time>2026-04-11T07:02:03.358Z</time></trkpt><trkpt lat="38.0383638" lon="-1.1439627"><ele>101.0</ele><time>2026-04-11T07:02:04.357Z</time></trkpt><trkpt lat="38.0381703" lon="-1.1442373"><ele>99.0</ele><time>2026-04-11T07:02:05.358Z</time></trkpt><trkpt lat="38.0379859" lon="-1.1445061"><ele>97.0</ele><time>2026-04-11T07:02:06.358Z</time></trkpt><trkpt lat="38.0377974" lon="-1.1447709"><ele>97.0</ele><time>2026-04-11T07:02:07.358Z</time></trkpt><trkpt lat="38.0376106" lon="-1.1450293"><ele>97.0</ele><time>2026-04-11T07:02:08.358Z</time></trkpt><trkpt lat="38.0374257" lon="-1.1452917"><ele>96.5</ele><time>2026-04-11T07:02:09.358Z</time></trkpt><trkpt lat="38.0372394" lon="-1.145545"><ele>96.0</ele><time>2026-04-11T07:02:10.358Z</time></trkpt><trkpt lat="38.0370532" lon="-1.1458029"><ele>97.0</ele><time>2026-04-11T07:02:11.358Z</time></trkpt><trkpt lat="38.0368676" lon="-1.1460597"><ele>98.0</ele><time>2026-04-11T07:02:12.358Z</time></trkpt><trkpt lat="38.0366809" lon="-1.146315"><ele>97.5</ele><time>2026-04-11T07:02:13.358Z</time></trkpt><trkpt lat="38.0364881" lon="-1.1465773"><ele>97.0</ele><time>2026-04-11T07:02:14.358Z</time></trkpt><trkpt lat="38.0362991" lon="-1.1468363"><ele>97.0</ele><time>2026-04-11T07:02:15.358Z</time></trkpt><trkpt lat="38.0361067" lon="-1.1470941"><ele>97.0</ele><time>2026-04-11T07:02:16.358Z</time></trkpt><trkpt lat="38.0359199" lon="-1.1473503"><ele>93.5</ele><time>2026-04-11T07:02:17.357Z</time></trkpt><trkpt lat="38.0357319" lon="-1.1476077"><ele>90.0</ele><time>2026-04-11T07:02:18.358Z</time></trkpt><trkpt lat="38.0355415" lon="-1.1478628"><ele>90.0</ele><time>2026-04-11T07:02:19.357Z</time></trkpt><trkpt lat="38.0353536" lon="-1.1481208"><ele>90.0</ele><time>2026-04-11T07:02:20.358Z</time></trkpt><trkpt lat="38.0351581" lon="-1.1483733"><ele>94.5</ele><time>2026-04-11T07:02:21.358Z</time></trkpt><trkpt lat="38.0349687" lon="-1.1486284"><ele>99.0</ele><time>2026-04-11T07:02:22.358Z</time></trkpt><trkpt lat="38.0347833" lon="-1.1488853"><ele>101.5</ele><time>2026-04-11T07:02:23.358Z</time></trkpt><trkpt lat="38.0345959" lon="-1.1491395"><ele>104.0</ele><time>2026-04-11T07:02:24.358Z</time></trkpt><trkpt lat="38.0344146" lon="-1.1493889"><ele>104.0</ele><time>2026-04-11T07:02:25.358Z</time></trkpt><trkpt lat="38.0342211" lon="-1.1496438"><ele>104.0</ele><time>2026-04-11T07:02:26.358Z</time></trkpt><trkpt lat="38.0340273" lon="-1.1498944"><ele>101.5</ele><time>2026-04-11T07:02:27.358Z</time></trkpt><trkpt lat="38.0338409" lon="-1.1501453"><ele>99.0</ele><time>2026-04-11T07:02:28.358Z</time></trkpt><trkpt lat="38.033648" lon="-1.1504024"><ele>99.0</ele><time>2026-04-11T07:02:29.357Z</time></trkpt><trkpt lat="38.0334587" lon="-1.1506583"><ele>99.0</ele><time>2026-04-11T07:02:30.358Z</time></trkpt><trkpt lat="38.0332696" lon="-1.1509204"><ele>96.5</ele><time>2026-04-11T07:02:31.358Z</time></trkpt><trkpt lat="38.0330783" lon="-1.1511846"><ele>94.0</ele><time>2026-04-11T07:02:32.358Z</time></trkpt><trkpt lat="38.0328821" lon="-1.1514467"><ele>95.0</ele><time>2026-04-11T07:02:33.358Z</time></trkpt><trkpt lat="38.03269" lon="-1.1517157"><ele>96.0</ele><time>2026-04-11T07:02:34.357Z</time></trkpt><trkpt lat="38.0324939" lon="-1.1519776"><ele>96.5</ele><time>2026-04-11T07:02:35.358Z</time></trkpt><trkpt lat="38.0322963" lon="-1.1522441"><ele>97.0</ele><time>2026-04-11T07:02:36.357Z</time></trkpt><trkpt lat="38.0320997" lon="-1.1525064"><ele>97.0</ele><time>2026-04-11T07:02:37.358Z</time></trkpt><trkpt lat="38.0319034" lon="-1.1527759"><ele>97.0</ele><time>2026-04-11T07:02:38.357Z</time></trkpt><trkpt lat="38.0317091" lon="-1.1530459"><ele>94.5</ele><time>2026-04-11T07:02:39.357Z</time></trkpt><trkpt lat="38.0315127" lon="-1.1533233"><ele>92.0</ele><time>2026-04-11T07:02:40.357Z</time></trkpt><trkpt lat="38.0313281" lon="-1.1535958"><ele>92.0</ele><time>2026-04-11T07:02:41.358Z</time></trkpt><trkpt lat="38.0311377" lon="-1.1538774"><ele>92.0</ele><time>2026-04-11T07:02:42.358Z</time></trkpt><trkpt lat="38.03095" lon="-1.1541504"><ele>90.5</ele><time>2026-04-11T07:02:43.358Z</time></trkpt><trkpt lat="38.030765" lon="-1.1544266"><ele>89.0</ele><time>2026-04-11T07:02:44.358Z</time></trkpt><trkpt lat="38.0305787" lon="-1.1547034"><ele>92.0</ele><time>2026-04-11T07:02:45.358Z</time></trkpt><trkpt lat="38.030393" lon="-1.1549839"><ele>95.0</ele><time>2026-04-11T07:02:46.358Z</time></trkpt><trkpt lat="38.0302191" lon="-1.1552708"><ele>95.0</ele><time>2026-04-11T07:02:47.357Z</time></trkpt><trkpt lat="38.0300529" lon="-1.1555632"><ele>95.0</ele><time>2026-04-11T07:02:48.358Z</time></trkpt><trkpt lat="38.0298965" lon="-1.1558642"><ele>94.5</ele><time>2026-04-11T07:02:49.358Z</time></trkpt><trkpt lat="38.0297431" lon="-1.1561616"><ele>94.0</ele><time>2026-04-11T07:02:50.358Z</time></trkpt><trkpt lat="38.0295915" lon="-1.1564656"><ele>95.5</ele><time>2026-04-11T07:02:51.358Z</time></trkpt><trkpt lat="38.0294515" lon="-1.1567696"><ele>97.0</ele><time>2026-04-11T07:02:52.358Z</time></trkpt><trkpt lat="38.0293156" lon="-1.1570734"><ele>98.0</ele><time>2026-04-11T07:02:53.358Z</time></trkpt><trkpt lat="38.0291852" lon="-1.1573825"><ele>99.0</ele><time>2026-04-11T07:02:54.358Z</time></trkpt><trkpt lat="38.0290552" lon="-1.1576968"><ele>99.0</ele><time>2026-04-11T07:02:55.357Z</time></trkpt><trkpt lat="38.0289356" lon="-1.1580111"><ele>99.0</ele><time>2026-04-11T07:02:56.358Z</time></trkpt><trkpt lat="38.0288191" lon="-1.1583409"><ele>99.5</ele><time>2026-04-11T07:02:57.358Z</time></trkpt><trkpt lat="38.0287059" lon="-1.158672"><ele>100.0</ele><time>2026-04-11T07:02:58.358Z</time></trkpt><trkpt lat="38.0286005" lon="-1.1590083"><ele>101.5</ele><time>2026-04-11T07:02:59.357Z</time></trkpt><trkpt lat="38.0284988" lon="-1.1593455"><ele>103.0</ele><time>2026-04-11T07:03:00.357Z</time></trkpt><trkpt lat="38.0283943" lon="-1.1596816"><ele>102.5</ele><time>2026-04-11T07:03:01.358Z</time></trkpt><trkpt lat="38.0282988" lon="-1.1599977"><ele>102.0</ele><time>2026-04-11T07:03:02.358Z</time></trkpt><trkpt lat="38.0282138" lon="-1.1602834"><ele>102.0</ele><time>2026-04-11T07:03:03.358Z</time></trkpt><trkpt lat="38.0281318" lon="-1.1605559"><ele>102.0</ele><time>2026-04-11T07:03:04.358Z</time></trkpt><trkpt lat="38.0280476" lon="-1.1608331"><ele>104.5</ele><time>2026-04-11T07:03:05.358Z</time></trkpt><trkpt lat="38.0279627" lon="-1.1611135"><ele>107.0</ele><time>2026-04-11T07:03:06.358Z</time></trkpt><trkpt lat="38.0278781" lon="-1.1613966"><ele>111.5</ele><time>2026-04-11T07:03:07.357Z</time></trkpt><trkpt lat="38.0277834" lon="-1.1616879"><ele>116.0</ele><time>2026-04-11T07:03:08.358Z</time></trkpt><trkpt lat="38.0276693" lon="-1.1619705"><ele>116.0</ele><time>2026-04-11T07:03:09.358Z</time></trkpt><trkpt lat="38.0275414" lon="-1.1622488"><ele>116.0</ele><time>2026-04-11T07:03:10.357Z</time></trkpt><trkpt lat="38.0274022" lon="-1.1625255"><ele>112.0</ele><time>2026-04-11T07:03:11.357Z</time></trkpt><trkpt lat="38.027246" lon="-1.1627957"><ele>108.0</ele><time>2026-04-11T07:03:12.357Z</time></trkpt><trkpt lat="38.0270735" lon="-1.1630523"><ele>107.5</ele><time>2026-04-11T07:03:13.358Z</time></trkpt><trkpt lat="38.0268932" lon="-1.1632962"><ele>107.0</ele><time>2026-04-11T07:03:14.358Z</time></trkpt><trkpt lat="38.0266988" lon="-1.1635138"><ele>104.0</ele><time>2026-04-11T07:03:15.357Z</time></trkpt><trkpt lat="38.0264943" lon="-1.1637143"><ele>101.0</ele><time>2026-04-11T07:03:16.357Z</time></trkpt><trkpt lat="38.0262811" lon="-1.1638977"><ele>103.0</ele><time>2026-04-11T07:03:17.358Z</time></trkpt><trkpt lat="38.0260638" lon="-1.1640674"><ele>105.0</ele><time>2026-04-11T07:03:18.357Z</time></trkpt><trkpt lat="38.0258401" lon="-1.1642197"><ele>102.0</ele><time>2026-04-11T07:03:19.358Z</time></trkpt><trkpt lat="38.0256135" lon="-1.1643537"><ele>99.0</ele><time>2026-04-11T07:03:20.358Z</time></trkpt><trkpt lat="38.0253789" lon="-1.1644507"><ele>99.0</ele><time>2026-04-11T07:03:21.358Z</time></trkpt><trkpt lat="38.0251383" lon="-1.1645467"><ele>99.0</ele><time>2026-04-11T07:03:22.358Z</time></trkpt><trkpt lat="38.0244147" lon="-1.1647434"><ele>99.0</ele><time>2026-04-11T07:03:25.358Z</time></trkpt><trkpt lat="38.0241761" lon="-1.1647797"><ele>99.0</ele><time>2026-04-11T07:03:26.357Z</time></trkpt><trkpt lat="38.023942" lon="-1.1648288"><ele>100.0</ele><time>2026-04-11T07:03:27.358Z</time></trkpt><trkpt lat="38.0237008" lon="-1.1648657"><ele>101.0</ele><time>2026-04-11T07:03:28.358Z</time></trkpt><trkpt lat="38.0234673" lon="-1.1649067"><ele>98.5</ele><time>2026-04-11T07:03:29.358Z</time></trkpt><trkpt lat="38.0232311" lon="-1.1649402"><ele>96.0</ele><time>2026-04-11T07:03:30.358Z</time></trkpt><trkpt lat="38.0227596" lon="-1.1650325"><ele>96.0</ele><time>2026-04-11T07:03:32.358Z</time></trkpt><trkpt lat="38.0225175" lon="-1.1650725"><ele>96.0</ele><time>2026-04-11T07:03:33.358Z</time></trkpt><trkpt lat="38.0222702" lon="-1.1651105"><ele>94.5</ele><time>2026-04-11T07:03:34.357Z</time></trkpt><trkpt lat="38.0220154" lon="-1.1651462"><ele>93.0</ele><time>2026-04-11T07:03:35.358Z</time></trkpt><trkpt lat="38.0217514" lon="-1.1651778"><ele>91.0</ele><time>2026-04-11T07:03:36.358Z</time></trkpt><trkpt lat="38.0214807" lon="-1.1652187"><ele>89.0</ele><time>2026-04-11T07:03:37.358Z</time></trkpt><trkpt lat="38.0212059" lon="-1.1652717"><ele>89.0</ele><time>2026-04-11T07:03:38.358Z</time></trkpt><trkpt lat="38.0209259" lon="-1.1653174"><ele>89.0</ele><time>2026-04-11T07:03:39.358Z</time></trkpt><trkpt lat="38.0206341" lon="-1.1653702"><ele>87.0</ele><time>2026-04-11T07:03:40.358Z</time></trkpt><trkpt lat="38.0203459" lon="-1.1654286"><ele>85.0</ele><time>2026-04-11T07:03:41.358Z</time></trkpt><trkpt lat="38.020058" lon="-1.1654781"><ele>84.5</ele><time>2026-04-11T07:03:42.358Z</time></trkpt><trkpt lat="38.019772" lon="-1.1655311"><ele>84.0</ele><time>2026-04-11T07:03:43.358Z</time></trkpt><trkpt lat="38.0194964" lon="-1.1655898"><ele>84.0</ele><time>2026-04-11T07:03:44.358Z</time></trkpt><trkpt lat="38.0192333" lon="-1.1656445"><ele>84.0</ele><time>2026-04-11T07:03:45.358Z</time></trkpt><trkpt lat="38.0189781" lon="-1.1656982"><ele>85.0</ele><time>2026-04-11T07:03:46.358Z</time></trkpt><trkpt lat="38.018725" lon="-1.1657475"><ele>86.0</ele><time>2026-04-11T07:03:47.357Z</time></trkpt><trkpt lat="38.0184739" lon="-1.1657964"><ele>85.0</ele><time>2026-04-11T07:03:48.358Z</time></trkpt><trkpt lat="38.0182229" lon="-1.1658343"><ele>84.0</ele><time>2026-04-11T07:03:49.358Z</time></trkpt><trkpt lat="38.0179712" lon="-1.1658883"><ele>84.0</ele><time>2026-04-11T07:03:50.357Z</time></trkpt><trkpt lat="38.0177204" lon="-1.1659497"><ele>84.0</ele><time>2026-04-11T07:03:51.358Z</time></trkpt><trkpt lat="38.0174737" lon="-1.1660277"><ele>81.5</ele><time>2026-04-11T07:03:52.358Z</time></trkpt><trkpt lat="38.0172341" lon="-1.1661144"><ele>79.0</ele><time>2026-04-11T07:03:53.357Z</time></trkpt><trkpt lat="38.0169996" lon="-1.1662121"><ele>79.0</ele><time>2026-04-11T07:03:54.358Z</time></trkpt><trkpt lat="38.0167694" lon="-1.1663135"><ele>79.0</ele><time>2026-04-11T07:03:55.358Z</time></trkpt><trkpt lat="38.0165442" lon="-1.1664217"><ele>81.5</ele><time>2026-04-11T07:03:56.357Z</time></trkpt><trkpt lat="38.0163193" lon="-1.166537"><ele>84.0</ele><time>2026-04-11T07:03:57.358Z</time></trkpt><trkpt lat="38.0161" lon="-1.1666505"><ele>84.0</ele><time>2026-04-11T07:03:58.358Z</time></trkpt><trkpt lat="38.0158818" lon="-1.1667591"><ele>84.0</ele><time>2026-04-11T07:03:59.358Z</time></trkpt><trkpt lat="38.0156677" lon="-1.1668583"><ele>82.5</ele><time>2026-04-11T07:04:00.358Z</time></trkpt><trkpt lat="38.0154523" lon="-1.1669603"><ele>81.0</ele><time>2026-04-11T07:04:01.358Z</time></trkpt><trkpt lat="38.0152408" lon="-1.1670501"><ele>81.0</ele><time>2026-04-11T07:04:02.358Z</time></trkpt><trkpt lat="38.0150327" lon="-1.1671386"><ele>81.0</ele><time>2026-04-11T07:04:03.358Z</time></trkpt><trkpt lat="38.0148253" lon="-1.1672204"><ele>81.0</ele><time>2026-04-11T07:04:04.358Z</time></trkpt><trkpt lat="38.0146194" lon="-1.1673031"><ele>81.0</ele><time>2026-04-11T07:04:05.358Z</time></trkpt><trkpt lat="38.0144162" lon="-1.1673802"><ele>81.0</ele><time>2026-04-11T07:04:06.358Z</time></trkpt><trkpt lat="38.0142162" lon="-1.1674478"><ele>81.0</ele><time>2026-04-11T07:04:07.358Z</time></trkpt><trkpt lat="38.0140152" lon="-1.167509"><ele>81.66666666666667</ele><time>2026-04-11T07:04:08.357Z</time></trkpt><trkpt lat="38.0138207" lon="-1.1675725"><ele>82.33333333333334</ele><time>2026-04-11T07:04:09.357Z</time></trkpt><trkpt lat="38.0136242" lon="-1.1676268"><ele>83.0</ele><time>2026-04-11T07:04:10.358Z</time></trkpt><trkpt lat="38.013432" lon="-1.1676802"><ele>82.0</ele><time>2026-04-11T07:04:11.358Z</time></trkpt><trkpt lat="38.0132437" lon="-1.1677295"><ele>81.0</ele><time>2026-04-11T07:04:12.358Z</time></trkpt><trkpt lat="38.0130516" lon="-1.1677653"><ele>80.0</ele><time>2026-04-11T07:04:13.358Z</time></trkpt><trkpt lat="38.0128659" lon="-1.1677935"><ele>80.0</ele><time>2026-04-11T07:04:14.358Z</time></trkpt><trkpt lat="38.0126813" lon="-1.1678226"><ele>80.0</ele><time>2026-04-11T07:04:15.357Z</time></trkpt><trkpt lat="38.0124964" lon="-1.167847"><ele>80.0</ele><time>2026-04-11T07:04:16.357Z</time></trkpt><trkpt lat="38.0123159" lon="-1.1678772"><ele>80.0</ele><time>2026-04-11T07:04:17.357Z</time></trkpt><trkpt lat="38.0121407" lon="-1.1679028"><ele>80.0</ele><time>2026-04-11T07:04:18.358Z</time></trkpt><trkpt lat="38.0119653" lon="-1.1679372"><ele>80.0</ele><time>2026-04-11T07:04:19.358Z</time></trkpt><trkpt lat="38.0117901" lon="-1.1679621"><ele>79.66666666666667</ele><time>2026-04-11T07:04:20.358Z</time></trkpt><trkpt lat="38.0116241" lon="-1.1679879"><ele>79.33333333333333</ele><time>2026-04-11T07:04:21.358Z</time></trkpt><trkpt lat="38.0114458" lon="-1.1680015"><ele>79.0</ele><time>2026-04-11T07:04:22.358Z</time></trkpt><trkpt lat="38.0112665" lon="-1.1680086"><ele>79.0</ele><time>2026-04-11T07:04:23.358Z</time></trkpt><trkpt lat="38.011077" lon="-1.1680317"><ele>79.0</ele><time>2026-04-11T07:04:24.358Z</time></trkpt><trkpt lat="38.0108753" lon="-1.1680666"><ele>79.0</ele><time>2026-04-11T07:04:25.358Z</time></trkpt><trkpt lat="38.010676" lon="-1.16808"><ele>79.66666666666666</ele><time>2026-04-11T07:04:26.358Z</time></trkpt><trkpt lat="38.0104736" lon="-1.168087"><ele>80.33333333333333</ele><time>2026-04-11T07:04:27.358Z</time></trkpt><trkpt lat="38.0102649" lon="-1.1680937"><ele>81.0</ele><time>2026-04-11T07:04:28.358Z</time></trkpt><trkpt lat="38.0100513" lon="-1.1680864"><ele>80.0</ele><time>2026-04-11T07:04:29.358Z</time></trkpt><trkpt lat="38.0098274" lon="-1.1680735"><ele>79.0</ele><time>2026-04-11T07:04:30.358Z</time></trkpt><trkpt lat="38.0095923" lon="-1.1680545"><ele>79.0</ele><time>2026-04-11T07:04:31.358Z</time></trkpt><trkpt lat="38.0093516" lon="-1.1680278"><ele>79.0</ele><time>2026-04-11T07:04:32.358Z</time></trkpt><trkpt lat="38.009103" lon="-1.1679931"><ele>78.5</ele><time>2026-04-11T07:04:33.358Z</time></trkpt><trkpt lat="38.0088507" lon="-1.1679549"><ele>78.0</ele><time>2026-04-11T07:04:34.358Z</time></trkpt><trkpt lat="38.0085979" lon="-1.1679186"><ele>78.0</ele><time>2026-04-11T07:04:35.357Z</time></trkpt><trkpt lat="38.0083404" lon="-1.1678923"><ele>78.0</ele><time>2026-04-11T07:04:36.358Z</time></trkpt><trkpt lat="38.0080783" lon="-1.1678845"><ele>75.5</ele><time>2026-04-11T07:04:37.358Z</time></trkpt><trkpt lat="38.0078168" lon="-1.1678764"><ele>73.0</ele><time>2026-04-11T07:04:38.358Z</time></trkpt><trkpt lat="38.0075434" lon="-1.1679213"><ele>72.5</ele><time>2026-04-11T07:04:39.358Z</time></trkpt><trkpt lat="38.0072755" lon="-1.1679847"><ele>72.0</ele><time>2026-04-11T07:04:40.358Z</time></trkpt><trkpt lat="38.0070079" lon="-1.1680794"><ele>71.0</ele><time>2026-04-11T07:04:41.358Z</time></trkpt><trkpt lat="38.0067471" lon="-1.1682024"><ele>70.0</ele><time>2026-04-11T07:04:42.358Z</time></trkpt><trkpt lat="38.0064984" lon="-1.1683448"><ele>70.0</ele><time>2026-04-11T07:04:43.358Z</time></trkpt><trkpt lat="38.0062575" lon="-1.1685112"><ele>70.0</ele><time>2026-04-11T07:04:44.357Z</time></trkpt><trkpt lat="38.0060296" lon="-1.1686967"><ele>70.0</ele><time>2026-04-11T07:04:45.358Z</time></trkpt><trkpt lat="38.0058132" lon="-1.1689026"><ele>70.0</ele><time>2026-04-11T07:04:46.358Z</time></trkpt><trkpt lat="38.0056081" lon="-1.1691291"><ele>70.0</ele><time>2026-04-11T07:04:47.358Z</time></trkpt><trkpt lat="38.0054125" lon="-1.1693704"><ele>70.0</ele><time>2026-04-11T07:04:48.358Z</time></trkpt><trkpt lat="38.0052267" lon="-1.169636"><ele>69.5</ele><time>2026-04-11T07:04:49.358Z</time></trkpt><trkpt lat="38.0050504" lon="-1.1699128"><ele>69.0</ele><time>2026-04-11T07:04:50.358Z</time></trkpt><trkpt lat="38.0048792" lon="-1.1702025"><ele>70.0</ele><time>2026-04-11T07:04:51.358Z</time></trkpt><trkpt lat="38.0047139" lon="-1.1704992"><ele>71.0</ele><time>2026-04-11T07:04:52.358Z</time></trkpt><trkpt lat="38.0045561" lon="-1.1708046"><ele>71.0</ele><time>2026-04-11T07:04:53.357Z</time></trkpt><trkpt lat="38.004412" lon="-1.1711133"><ele>71.0</ele><time>2026-04-11T07:04:54.358Z</time></trkpt><trkpt lat="38.0042643" lon="-1.1714168"><ele>69.5</ele><time>2026-04-11T07:04:55.358Z</time></trkpt><trkpt lat="38.0041496" lon="-1.1717234"><ele>68.0</ele><time>2026-04-11T07:04:56.358Z</time></trkpt><trkpt lat="38.0040406" lon="-1.172025"><ele>68.0</ele><time>2026-04-11T07:04:57.358Z</time></trkpt><trkpt lat="38.0039393" lon="-1.1723281"><ele>68.0</ele><time>2026-04-11T07:04:58.358Z</time></trkpt><trkpt lat="38.0038409" lon="-1.1726395"><ele>69.0</ele><time>2026-04-11T07:04:59.358Z</time></trkpt><trkpt lat="38.0037517" lon="-1.172954"><ele>70.0</ele><time>2026-04-11T07:05:00.358Z</time></trkpt><trkpt lat="38.00367" lon="-1.1732702"><ele>70.5</ele><time>2026-04-11T07:05:01.358Z</time></trkpt><trkpt lat="38.0035892" lon="-1.1735975"><ele>71.0</ele><time>2026-04-11T07:05:02.358Z</time></trkpt><trkpt lat="38.0035112" lon="-1.1739277"><ele>71.0</ele><time>2026-04-11T07:05:03.358Z</time></trkpt><trkpt lat="38.003438" lon="-1.1742656"><ele>71.0</ele><time>2026-04-11T07:05:04.357Z</time></trkpt><trkpt lat="38.0033708" lon="-1.1746116"><ele>69.5</ele><time>2026-04-11T07:05:05.358Z</time></trkpt><trkpt lat="38.0033213" lon="-1.1749643"><ele>68.0</ele><time>2026-04-11T07:05:06.357Z</time></trkpt><trkpt lat="38.0032788" lon="-1.1753262"><ele>70.0</ele><time>2026-04-11T07:05:07.358Z</time></trkpt><trkpt lat="38.003249" lon="-1.1756949"><ele>72.0</ele><time>2026-04-11T07:05:08.357Z</time></trkpt><trkpt lat="38.0032267" lon="-1.1760668"><ele>72.0</ele><time>2026-04-11T07:05:09.357Z</time></trkpt><trkpt lat="38.0032061" lon="-1.1764379"><ele>72.0</ele><time>2026-04-11T07:05:10.358Z</time></trkpt><trkpt lat="38.0031995" lon="-1.1768249"><ele>72.5</ele><time>2026-04-11T07:05:11.358Z</time></trkpt><trkpt lat="38.003191" lon="-1.1772161"><ele>73.0</ele><time>2026-04-11T07:05:12.358Z</time></trkpt><trkpt lat="38.0031823" lon="-1.1776106"><ele>73.0</ele><time>2026-04-11T07:05:13.357Z</time></trkpt><trkpt lat="38.0031725" lon="-1.1780065"><ele>73.0</ele><time>2026-04-11T07:05:14.358Z</time></trkpt><trkpt lat="38.0031598" lon="-1.1784058"><ele>74.0</ele><time>2026-04-11T07:05:15.358Z</time></trkpt><trkpt lat="38.003144" lon="-1.178803"><ele>75.0</ele><time>2026-04-11T07:05:16.358Z</time></trkpt><trkpt lat="38.0031214" lon="-1.1792016"><ele>76.5</ele><time>2026-04-11T07:05:17.358Z</time></trkpt><trkpt lat="38.0030964" lon="-1.1796099"><ele>78.0</ele><time>2026-04-11T07:05:18.358Z</time></trkpt><trkpt lat="38.0030626" lon="-1.1800106"><ele>78.5</ele><time>2026-04-11T07:05:19.358Z</time></trkpt><trkpt lat="38.0030264" lon="-1.1804166"><ele>79.0</ele><time>2026-04-11T07:05:20.357Z</time></trkpt><trkpt lat="38.0029892" lon="-1.1808219"><ele>79.5</ele><time>2026-04-11T07:05:21.358Z</time></trkpt><trkpt lat="38.0029351" lon="-1.1812241"><ele>80.0</ele><time>2026-04-11T07:05:22.358Z</time></trkpt><trkpt lat="38.0028728" lon="-1.1816233"><ele>82.0</ele><time>2026-04-11T07:05:23.358Z</time></trkpt><trkpt lat="38.0027958" lon="-1.1820251"><ele>84.0</ele><time>2026-04-11T07:05:24.358Z</time></trkpt><trkpt lat="38.0027086" lon="-1.1824197"><ele>85.5</ele><time>2026-04-11T07:05:25.358Z</time></trkpt><trkpt lat="38.0026181" lon="-1.1828127"><ele>87.0</ele><time>2026-04-11T07:05:26.358Z</time></trkpt><trkpt lat="38.0025176" lon="-1.1832029"><ele>86.0</ele><time>2026-04-11T07:05:27.358Z</time></trkpt><trkpt lat="38.0024109" lon="-1.1835953"><ele>85.0</ele><time>2026-04-11T07:05:28.357Z</time></trkpt><trkpt lat="38.0022951" lon="-1.1839825"><ele>84.5</ele><time>2026-04-11T07:05:29.357Z</time></trkpt><trkpt lat="38.0021716" lon="-1.1843636"><ele>84.0</ele><time>2026-04-11T07:05:30.358Z</time></trkpt><trkpt lat="38.0020438" lon="-1.1847437"><ele>86.0</ele><time>2026-04-11T07:05:31.358Z</time></trkpt><trkpt lat="38.0019075" lon="-1.1851197"><ele>88.0</ele><time>2026-04-11T07:05:32.358Z</time></trkpt><trkpt lat="38.0017649" lon="-1.1854905"><ele>88.0</ele><time>2026-04-11T07:05:33.358Z</time></trkpt><trkpt lat="38.0016137" lon="-1.1858562"><ele>88.0</ele><time>2026-04-11T07:05:34.358Z</time></trkpt><trkpt lat="38.0014564" lon="-1.186218"><ele>89.0</ele><time>2026-04-11T07:05:35.358Z</time></trkpt><trkpt lat="38.0012926" lon="-1.1865746"><ele>90.0</ele><time>2026-04-11T07:05:36.357Z</time></trkpt><trkpt lat="38.0011232" lon="-1.1869262"><ele>90.0</ele><time>2026-04-11T07:05:37.358Z</time></trkpt><trkpt lat="38.0009449" lon="-1.1872702"><ele>90.0</ele><time>2026-04-11T07:05:38.358Z</time></trkpt><trkpt lat="38.000759" lon="-1.1876077"><ele>90.0</ele><time>2026-04-11T07:05:39.358Z</time></trkpt><trkpt lat="38.0005677" lon="-1.1879411"><ele>90.0</ele><time>2026-04-11T07:05:40.358Z</time></trkpt><trkpt lat="38.0003718" lon="-1.1882696"><ele>91.0</ele><time>2026-04-11T07:05:41.358Z</time></trkpt><trkpt lat="38.0001751" lon="-1.1885968"><ele>92.0</ele><time>2026-04-11T07:05:42.358Z</time></trkpt><trkpt lat="37.999973" lon="-1.1889242"><ele>94.5</ele><time>2026-04-11T07:05:43.358Z</time></trkpt><trkpt lat="37.9997745" lon="-1.1892496"><ele>97.0</ele><time>2026-04-11T07:05:44.357Z</time></trkpt><trkpt lat="37.9995736" lon="-1.1895757"><ele>98.0</ele><time>2026-04-11T07:05:45.358Z</time></trkpt><trkpt lat="37.9993781" lon="-1.1899048"><ele>99.0</ele><time>2026-04-11T07:05:46.358Z</time></trkpt><trkpt lat="37.9991916" lon="-1.1902445"><ele>99.0</ele><time>2026-04-11T07:05:47.357Z</time></trkpt><trkpt lat="37.9990138" lon="-1.1905875"><ele>99.0</ele><time>2026-04-11T07:05:48.358Z</time></trkpt><trkpt lat="37.9988476" lon="-1.1909396"><ele>101.5</ele><time>2026-04-11T07:05:49.358Z</time></trkpt><trkpt lat="37.9986925" lon="-1.191303"><ele>104.0</ele><time>2026-04-11T07:05:50.358Z</time></trkpt><trkpt lat="37.9985526" lon="-1.1916799"><ele>102.5</ele><time>2026-04-11T07:05:51.358Z</time></trkpt><trkpt lat="37.9984202" lon="-1.1920622"><ele>101.0</ele><time>2026-04-11T07:05:52.358Z</time></trkpt><trkpt lat="37.998299" lon="-1.1924455"><ele>101.0</ele><time>2026-04-11T07:05:53.358Z</time></trkpt><trkpt lat="37.9981872" lon="-1.1928355"><ele>101.0</ele><time>2026-04-11T07:05:54.358Z</time></trkpt><trkpt lat="37.9980884" lon="-1.193226"><ele>100.0</ele><time>2026-04-11T07:05:55.358Z</time></trkpt><trkpt lat="37.9980049" lon="-1.1936266"><ele>99.0</ele><time>2026-04-11T07:05:56.357Z</time></trkpt><trkpt lat="37.9979382" lon="-1.1940322"><ele>93.0</ele><time>2026-04-11T07:05:57.358Z</time></trkpt><trkpt lat="37.9978841" lon="-1.1944422"><ele>87.0</ele><time>2026-04-11T07:05:58.358Z</time></trkpt><trkpt lat="37.9978413" lon="-1.1948544"><ele>86.5</ele><time>2026-04-11T07:05:59.358Z</time></trkpt><trkpt lat="37.997813" lon="-1.1952685"><ele>86.0</ele><time>2026-04-11T07:06:00.358Z</time></trkpt><trkpt lat="37.9977985" lon="-1.1956828"><ele>85.0</ele><time>2026-04-11T07:06:01.358Z</time></trkpt><trkpt lat="37.9977968" lon="-1.1960955"><ele>84.0</ele><time>2026-04-11T07:06:02.357Z</time></trkpt><trkpt lat="37.9978079" lon="-1.196508"><ele>86.5</ele><time>2026-04-11T07:06:03.357Z</time></trkpt><trkpt lat="37.9978356" lon="-1.1969186"><ele>89.0</ele><time>2026-04-11T07:06:04.357Z</time></trkpt><trkpt lat="37.9978752" lon="-1.197327"><ele>90.0</ele><time>2026-04-11T07:06:05.357Z</time></trkpt><trkpt lat="37.9979282" lon="-1.1977309"><ele>91.0</ele><time>2026-04-11T07:06:06.358Z</time></trkpt><trkpt lat="37.9979958" lon="-1.1981293"><ele>92.5</ele><time>2026-04-11T07:06:07.357Z</time></trkpt><trkpt lat="37.9980698" lon="-1.1985266"><ele>94.0</ele><time>2026-04-11T07:06:08.358Z</time></trkpt><trkpt lat="37.9981585" lon="-1.1989164"><ele>94.5</ele><time>2026-04-11T07:06:09.358Z</time></trkpt><trkpt lat="37.9982624" lon="-1.1993142"><ele>95.0</ele><time>2026-04-11T07:06:10.357Z</time></trkpt><trkpt lat="37.9983645" lon="-1.1996906"><ele>98.5</ele><time>2026-04-11T07:06:11.358Z</time></trkpt><trkpt lat="37.9984699" lon="-1.2000631"><ele>102.0</ele><time>2026-04-11T07:06:12.358Z</time></trkpt><trkpt lat="37.998572" lon="-1.2004144"><ele>100.5</ele><time>2026-04-11T07:06:13.358Z</time></trkpt><trkpt lat="37.9986718" lon="-1.2007632"><ele>99.0</ele><time>2026-04-11T07:06:14.357Z</time></trkpt><trkpt lat="37.9987708" lon="-1.2011195"><ele>99.0</ele><time>2026-04-11T07:06:15.358Z</time></trkpt><trkpt lat="37.9988684" lon="-1.2014752"><ele>99.0</ele><time>2026-04-11T07:06:16.358Z</time></trkpt><trkpt lat="37.9989694" lon="-1.2018321"><ele>101.5</ele><time>2026-04-11T07:06:17.358Z</time></trkpt><trkpt lat="37.9990678" lon="-1.2022011"><ele>104.0</ele><time>2026-04-11T07:06:18.358Z</time></trkpt><trkpt lat="37.999167" lon="-1.202568"><ele>107.5</ele><time>2026-04-11T07:06:19.358Z</time></trkpt><trkpt lat="37.9992652" lon="-1.2029422"><ele>111.0</ele><time>2026-04-11T07:06:20.358Z</time></trkpt><trkpt lat="37.9993617" lon="-1.2033225"><ele>111.0</ele><time>2026-04-11T07:06:21.358Z</time></trkpt><trkpt lat="37.9994574" lon="-1.2037033"><ele>111.0</ele><time>2026-04-11T07:06:22.358Z</time></trkpt><trkpt lat="37.9995561" lon="-1.2040861"><ele>109.5</ele><time>2026-04-11T07:06:23.358Z</time></trkpt><trkpt lat="37.9996576" lon="-1.2044706"><ele>108.0</ele><time>2026-04-11T07:06:24.358Z</time></trkpt><trkpt lat="37.9997577" lon="-1.2048591"><ele>108.0</ele><time>2026-04-11T07:06:25.357Z</time></trkpt><trkpt lat="37.9998566" lon="-1.2052521"><ele>108.0</ele><time>2026-04-11T07:06:26.358Z</time></trkpt><trkpt lat="37.9999511" lon="-1.2056513"><ele>107.5</ele><time>2026-04-11T07:06:27.358Z</time></trkpt><trkpt lat="38.0000456" lon="-1.2060525"><ele>107.0</ele><time>2026-04-11T07:06:28.358Z</time></trkpt><trkpt lat="38.00014" lon="-1.2064571"><ele>105.5</ele><time>2026-04-11T07:06:29.358Z</time></trkpt><trkpt lat="38.0002341" lon="-1.2068623"><ele>104.0</ele><time>2026-04-11T07:06:30.358Z</time></trkpt><trkpt lat="38.0003262" lon="-1.2072721"><ele>101.5</ele><time>2026-04-11T07:06:31.358Z</time></trkpt><trkpt lat="38.0004204" lon="-1.2076826"><ele>99.0</ele><time>2026-04-11T07:06:32.357Z</time></trkpt><trkpt lat="38.0005139" lon="-1.2080938"><ele>95.5</ele><time>2026-04-11T07:06:33.358Z</time></trkpt><trkpt lat="38.0006043" lon="-1.2085061"><ele>92.0</ele><time>2026-04-11T07:06:34.358Z</time></trkpt><trkpt lat="38.0006922" lon="-1.2089203"><ele>90.0</ele><time>2026-04-11T07:06:35.358Z</time></trkpt><trkpt lat="38.0007785" lon="-1.2093296"><ele>88.0</ele><time>2026-04-11T07:06:36.358Z</time></trkpt><trkpt lat="38.0008655" lon="-1.2097403"><ele>86.0</ele><time>2026-04-11T07:06:37.358Z</time></trkpt><trkpt lat="38.0009497" lon="-1.210152"><ele>84.0</ele><time>2026-04-11T07:06:38.358Z</time></trkpt><trkpt lat="38.0010348" lon="-1.2105668"><ele>82.5</ele><time>2026-04-11T07:06:39.358Z</time></trkpt><trkpt lat="38.0011145" lon="-1.2109784"><ele>81.0</ele><time>2026-04-11T07:06:40.357Z</time></trkpt><trkpt lat="38.0011933" lon="-1.2113932"><ele>79.5</ele><time>2026-04-11T07:06:41.358Z</time></trkpt><trkpt lat="38.0012715" lon="-1.2118041"><ele>78.0</ele><time>2026-04-11T07:06:42.358Z</time></trkpt><trkpt lat="38.0013458" lon="-1.2122123"><ele>77.0</ele><time>2026-04-11T07:06:43.358Z</time></trkpt><trkpt lat="38.0014247" lon="-1.2126289"><ele>76.0</ele><time>2026-04-11T07:06:44.358Z</time></trkpt><trkpt lat="38.0015006" lon="-1.2130383"><ele>76.5</ele><time>2026-04-11T07:06:45.358Z</time></trkpt><trkpt lat="38.0015736" lon="-1.2134471"><ele>77.0</ele><time>2026-04-11T07:06:46.357Z</time></trkpt><trkpt lat="38.0016467" lon="-1.213863"><ele>75.0</ele><time>2026-04-11T07:06:47.358Z</time></trkpt><trkpt lat="38.0017201" lon="-1.2142749"><ele>73.0</ele><time>2026-04-11T07:06:48.358Z</time></trkpt><trkpt lat="38.0017928" lon="-1.2146893"><ele>70.5</ele><time>2026-04-11T07:06:49.357Z</time></trkpt><trkpt lat="38.001862" lon="-1.2151016"><ele>68.0</ele><time>2026-04-11T07:06:50.358Z</time></trkpt><trkpt lat="38.001925" lon="-1.2155183"><ele>64.5</ele><time>2026-04-11T07:06:51.358Z</time></trkpt><trkpt lat="38.0019845" lon="-1.2159341"><ele>61.0</ele><time>2026-04-11T07:06:52.358Z</time></trkpt><trkpt lat="38.0020405" lon="-1.2163521"><ele>60.0</ele><time>2026-04-11T07:06:53.358Z</time></trkpt><trkpt lat="38.0020899" lon="-1.2167674"><ele>59.0</ele><time>2026-04-11T07:06:54.358Z</time></trkpt><trkpt lat="38.00213" lon="-1.2171898"><ele>60.0</ele><time>2026-04-11T07:06:55.358Z</time></trkpt><trkpt lat="38.0021606" lon="-1.2176113"><ele>61.0</ele><time>2026-04-11T07:06:56.358Z</time></trkpt><trkpt lat="38.0021829" lon="-1.2180321"><ele>60.5</ele><time>2026-04-11T07:06:57.358Z</time></trkpt><trkpt lat="38.0022023" lon="-1.2184517"><ele>60.0</ele><time>2026-04-11T07:06:58.358Z</time></trkpt><trkpt lat="38.0022119" lon="-1.2188707"><ele>61.0</ele><time>2026-04-11T07:06:59.358Z</time></trkpt><trkpt lat="38.002216" lon="-1.2192941"><ele>62.0</ele><time>2026-04-11T07:07:00.357Z</time></trkpt><trkpt lat="38.002216" lon="-1.2197134"><ele>63.0</ele><time>2026-04-11T07:07:01.358Z</time></trkpt><trkpt lat="38.0022085" lon="-1.2201354"><ele>64.0</ele><time>2026-04-11T07:07:02.358Z</time></trkpt><trkpt lat="38.0021939" lon="-1.2205532"><ele>64.0</ele><time>2026-04-11T07:07:03.358Z</time></trkpt><trkpt lat="38.002169" lon="-1.220971"><ele>64.0</ele><time>2026-04-11T07:07:04.357Z</time></trkpt><trkpt lat="38.002141" lon="-1.2213883"><ele>66.5</ele><time>2026-04-11T07:07:05.358Z</time></trkpt><trkpt lat="38.0021093" lon="-1.2218048"><ele>69.0</ele><time>2026-04-11T07:07:06.358Z</time></trkpt><trkpt lat="38.0020705" lon="-1.2222213"><ele>70.0</ele><time>2026-04-11T07:07:07.358Z</time></trkpt><trkpt lat="38.0020309" lon="-1.2226403"><ele>71.0</ele><time>2026-04-11T07:07:08.357Z</time></trkpt><trkpt lat="38.0019895" lon="-1.2230572"><ele>73.0</ele><time>2026-04-11T07:07:09.358Z</time></trkpt><trkpt lat="38.001942" lon="-1.2234753"><ele>75.0</ele><time>2026-04-11T07:07:10.358Z</time></trkpt><trkpt lat="38.0018865" lon="-1.2238889"><ele>77.0</ele><time>2026-04-11T07:07:11.358Z</time></trkpt><trkpt lat="38.0018166" lon="-1.2242954"><ele>79.0</ele><time>2026-04-11T07:07:12.358Z</time></trkpt><trkpt lat="38.0017394" lon="-1.2247074"><ele>81.0</ele><time>2026-04-11T07:07:13.358Z</time></trkpt><trkpt lat="38.0016567" lon="-1.2251131"><ele>83.0</ele><time>2026-04-11T07:07:14.358Z</time></trkpt><trkpt lat="38.0015681" lon="-1.2255181"><ele>84.5</ele><time>2026-04-11T07:07:15.357Z</time></trkpt><trkpt lat="38.0014722" lon="-1.2259189"><ele>86.0</ele><time>2026-04-11T07:07:16.357Z</time></trkpt><trkpt lat="38.0013697" lon="-1.2263207"><ele>89.5</ele><time>2026-04-11T07:07:17.358Z</time></trkpt><trkpt lat="38.0012619" lon="-1.2267177"><ele>93.0</ele><time>2026-04-11T07:07:18.358Z</time></trkpt><trkpt lat="38.0011416" lon="-1.2271118"><ele>96.0</ele><time>2026-04-11T07:07:19.357Z</time></trkpt><trkpt lat="38.0010145" lon="-1.227507"><ele>99.0</ele><time>2026-04-11T07:07:20.358Z</time></trkpt><trkpt lat="38.0008795" lon="-1.2278924"><ele>102.0</ele><time>2026-04-11T07:07:21.358Z</time></trkpt><trkpt lat="38.0007405" lon="-1.2282813"><ele>105.0</ele><time>2026-04-11T07:07:22.358Z</time></trkpt><trkpt lat="38.0005965" lon="-1.228663"><ele>105.0</ele><time>2026-04-11T07:07:23.358Z</time></trkpt><trkpt lat="38.0004504" lon="-1.2290451"><ele>105.0</ele><time>2026-04-11T07:07:24.358Z</time></trkpt><trkpt lat="38.000296" lon="-1.2294244"><ele>105.0</ele><time>2026-04-11T07:07:25.358Z</time></trkpt><trkpt lat="38.0001388" lon="-1.2298"><ele>105.0</ele><time>2026-04-11T07:07:26.358Z</time></trkpt><trkpt lat="37.9999755" lon="-1.230171"><ele>106.5</ele><time>2026-04-11T07:07:27.357Z</time></trkpt><trkpt lat="37.999807" lon="-1.2305384"><ele>108.0</ele><time>2026-04-11T07:07:28.358Z</time></trkpt><trkpt lat="37.9996316" lon="-1.2308987"><ele>111.5</ele><time>2026-04-11T07:07:29.358Z</time></trkpt><trkpt lat="37.9994514" lon="-1.231261"><ele>115.0</ele><time>2026-04-11T07:07:30.358Z</time></trkpt><trkpt lat="37.9992648" lon="-1.2316145"><ele>111.0</ele><time>2026-04-11T07:07:31.358Z</time></trkpt><trkpt lat="37.9990724" lon="-1.2319679"><ele>107.0</ele><time>2026-04-11T07:07:32.358Z</time></trkpt><trkpt lat="37.9988736" lon="-1.2323125"><ele>107.0</ele><time>2026-04-11T07:07:33.358Z</time></trkpt><trkpt lat="37.9986724" lon="-1.2326524"><ele>107.0</ele><time>2026-04-11T07:07:34.358Z</time></trkpt><trkpt lat="37.998464" lon="-1.232982"><ele>105.5</ele><time>2026-04-11T07:07:35.357Z</time></trkpt><trkpt lat="37.9982538" lon="-1.2333147"><ele>104.0</ele><time>2026-04-11T07:07:36.358Z</time></trkpt><trkpt lat="37.9980368" lon="-1.2336449"><ele>104.0</ele><time>2026-04-11T07:07:37.358Z</time></trkpt><trkpt lat="37.9978218" lon="-1.2339677"><ele>104.0</ele><time>2026-04-11T07:07:38.358Z</time></trkpt><trkpt lat="37.9975992" lon="-1.2342896"><ele>105.5</ele><time>2026-04-11T07:07:39.358Z</time></trkpt><trkpt lat="37.9973701" lon="-1.2346016"><ele>107.0</ele><time>2026-04-11T07:07:40.357Z</time></trkpt><trkpt lat="37.9971366" lon="-1.2349063"><ele>107.0</ele><time>2026-04-11T07:07:41.357Z</time></trkpt><trkpt lat="37.9968965" lon="-1.2352061"><ele>107.0</ele><time>2026-04-11T07:07:42.358Z</time></trkpt><trkpt lat="37.9966536" lon="-1.2354921"><ele>108.5</ele><time>2026-04-11T07:07:43.358Z</time></trkpt><trkpt lat="37.9964069" lon="-1.2357723"><ele>110.0</ele><time>2026-04-11T07:07:44.357Z</time></trkpt><trkpt lat="37.9961567" lon="-1.2360589"><ele>110.0</ele><time>2026-04-11T07:07:45.358Z</time></trkpt><trkpt lat="37.9959026" lon="-1.2363293"><ele>110.0</ele><time>2026-04-11T07:07:46.358Z</time></trkpt><trkpt lat="37.9956399" lon="-1.2365927"><ele>111.0</ele><time>2026-04-11T07:07:47.358Z</time></trkpt><trkpt lat="37.9953733" lon="-1.2368517"><ele>112.0</ele><time>2026-04-11T07:07:48.357Z</time></trkpt><trkpt lat="37.9950968" lon="-1.2370959"><ele>111.5</ele><time>2026-04-11T07:07:49.358Z</time></trkpt><trkpt lat="37.9948128" lon="-1.237324"><ele>111.0</ele><time>2026-04-11T07:07:50.357Z</time></trkpt><trkpt lat="37.9945282" lon="-1.2375433"><ele>111.0</ele><time>2026-04-11T07:07:51.357Z</time></trkpt><trkpt lat="37.9942407" lon="-1.2377685"><ele>111.0</ele><time>2026-04-11T07:07:52.358Z</time></trkpt><trkpt lat="37.9939557" lon="-1.2379888"><ele>113.5</ele><time>2026-04-11T07:07:53.357Z</time></trkpt><trkpt lat="37.9936716" lon="-1.2382074"><ele>116.0</ele><time>2026-04-11T07:07:54.358Z</time></trkpt><trkpt lat="37.9933892" lon="-1.2384251"><ele>118.5</ele><time>2026-04-11T07:07:55.358Z</time></trkpt><trkpt lat="37.9931032" lon="-1.2386353"><ele>121.0</ele><time>2026-04-11T07:07:56.358Z</time></trkpt><trkpt lat="37.9928128" lon="-1.238838"><ele>121.5</ele><time>2026-04-11T07:07:57.357Z</time></trkpt><trkpt lat="37.9925172" lon="-1.2390277"><ele>122.0</ele><time>2026-04-11T07:07:58.358Z</time></trkpt><trkpt lat="37.9922177" lon="-1.2392063"><ele>126.5</ele><time>2026-04-11T07:07:59.357Z</time></trkpt><trkpt lat="37.9919142" lon="-1.239379"><ele>131.0</ele><time>2026-04-11T07:08:00.358Z</time></trkpt><trkpt lat="37.9916091" lon="-1.239544"><ele>135.5</ele><time>2026-04-11T07:08:01.358Z</time></trkpt><trkpt lat="37.9913" lon="-1.2397033"><ele>140.0</ele><time>2026-04-11T07:08:02.358Z</time></trkpt><trkpt lat="37.9909903" lon="-1.2398596"><ele>141.0</ele><time>2026-04-11T07:08:03.358Z</time></trkpt><trkpt lat="37.9906779" lon="-1.2400069"><ele>142.0</ele><time>2026-04-11T07:08:04.358Z</time></trkpt><trkpt lat="37.9903657" lon="-1.2401593"><ele>142.0</ele><time>2026-04-11T07:08:05.358Z</time></trkpt><trkpt lat="37.9900516" lon="-1.2403109"><ele>142.0</ele><time>2026-04-11T07:08:06.358Z</time></trkpt><trkpt lat="37.9897361" lon="-1.2404585"><ele>141.0</ele><time>2026-04-11T07:08:07.358Z</time></trkpt><trkpt lat="37.9894216" lon="-1.2406081"><ele>140.0</ele><time>2026-04-11T07:08:08.358Z</time></trkpt><trkpt lat="37.9891033" lon="-1.2407468"><ele>140.0</ele><time>2026-04-11T07:08:09.358Z</time></trkpt><trkpt lat="37.9887873" lon="-1.2408985"><ele>140.0</ele><time>2026-04-11T07:08:10.358Z</time></trkpt><trkpt lat="37.9884732" lon="-1.2410507"><ele>141.0</ele><time>2026-04-11T07:08:11.358Z</time></trkpt><trkpt lat="37.9881582" lon="-1.2412058"><ele>142.0</ele><time>2026-04-11T07:08:12.358Z</time></trkpt><trkpt lat="37.9878449" lon="-1.2413642"><ele>141.5</ele><time>2026-04-11T07:08:13.357Z</time></trkpt><trkpt lat="37.9875343" lon="-1.2415231"><ele>141.0</ele><time>2026-04-11T07:08:14.357Z</time></trkpt><trkpt lat="37.9872227" lon="-1.2416912"><ele>141.0</ele><time>2026-04-11T07:08:15.358Z</time></trkpt><trkpt lat="37.9869173" lon="-1.2418545"><ele>141.0</ele><time>2026-04-11T07:08:16.358Z</time></trkpt><trkpt lat="37.9866081" lon="-1.2420275"><ele>142.0</ele><time>2026-04-11T07:08:17.358Z</time></trkpt><trkpt lat="37.986303" lon="-1.2421945"><ele>143.0</ele><time>2026-04-11T07:08:18.358Z</time></trkpt><trkpt lat="37.9859942" lon="-1.2423713"><ele>139.5</ele><time>2026-04-11T07:08:19.358Z</time></trkpt><trkpt lat="37.985684" lon="-1.2425503"><ele>136.0</ele><time>2026-04-11T07:08:20.358Z</time></trkpt><trkpt lat="37.9853752" lon="-1.2427232"><ele>136.0</ele><time>2026-04-11T07:08:21.357Z</time></trkpt><trkpt lat="37.9850673" lon="-1.2428989"><ele>136.0</ele><time>2026-04-11T07:08:22.357Z</time></trkpt><trkpt lat="37.9847573" lon="-1.2430746"><ele>135.5</ele><time>2026-04-11T07:08:23.358Z</time></trkpt><trkpt lat="37.9844524" lon="-1.2432472"><ele>135.0</ele><time>2026-04-11T07:08:24.358Z</time></trkpt><trkpt lat="37.9841457" lon="-1.2434214"><ele>134.0</ele><time>2026-04-11T07:08:25.358Z</time></trkpt><trkpt lat="37.9838374" lon="-1.2435993"><ele>133.0</ele><time>2026-04-11T07:08:26.358Z</time></trkpt><trkpt lat="37.9835305" lon="-1.243777"><ele>132.0</ele><time>2026-04-11T07:08:27.357Z</time></trkpt><trkpt lat="37.983229" lon="-1.2439498"><ele>131.0</ele><time>2026-04-11T07:08:28.358Z</time></trkpt><trkpt lat="37.9829236" lon="-1.2441293"><ele>131.0</ele><time>2026-04-11T07:08:29.357Z</time></trkpt><trkpt lat="37.9826196" lon="-1.2443118"><ele>131.0</ele><time>2026-04-11T07:08:30.358Z</time></trkpt><trkpt lat="37.9823154" lon="-1.2444895"><ele>130.5</ele><time>2026-04-11T07:08:31.358Z</time></trkpt><trkpt lat="37.982006" lon="-1.2446661"><ele>130.0</ele><time>2026-04-11T07:08:32.358Z</time></trkpt><trkpt lat="37.9816988" lon="-1.2448353"><ele>130.5</ele><time>2026-04-11T07:08:33.357Z</time></trkpt><trkpt lat="37.9813909" lon="-1.2450067"><ele>131.0</ele><time>2026-04-11T07:08:34.357Z</time></trkpt><trkpt lat="37.9810804" lon="-1.2451711"><ele>131.5</ele><time>2026-04-11T07:08:35.358Z</time></trkpt><trkpt lat="37.9807732" lon="-1.245335"><ele>132.0</ele><time>2026-04-11T07:08:36.358Z</time></trkpt><trkpt lat="37.9804647" lon="-1.2454999"><ele>133.5</ele><time>2026-04-11T07:08:37.358Z</time></trkpt><trkpt lat="37.9801573" lon="-1.2456634"><ele>135.0</ele><time>2026-04-11T07:08:38.358Z</time></trkpt><trkpt lat="37.9798436" lon="-1.2458232"><ele>135.0</ele><time>2026-04-11T07:08:39.358Z</time></trkpt><trkpt lat="37.9795326" lon="-1.2459809"><ele>135.0</ele><time>2026-04-11T07:08:40.358Z</time></trkpt><trkpt lat="37.9792281" lon="-1.2461304"><ele>132.0</ele><time>2026-04-11T07:08:41.358Z</time></trkpt><trkpt lat="37.9789153" lon="-1.2462826"><ele>129.0</ele><time>2026-04-11T07:08:42.358Z</time></trkpt><trkpt lat="37.978598" lon="-1.24644"><ele>127.5</ele><time>2026-04-11T07:08:43.358Z</time></trkpt><trkpt lat="37.9782887" lon="-1.2465817"><ele>126.0</ele><time>2026-04-11T07:08:44.358Z</time></trkpt><trkpt lat="37.9779743" lon="-1.2467324"><ele>126.0</ele><time>2026-04-11T07:08:45.358Z</time></trkpt><trkpt lat="37.977657" lon="-1.2468842"><ele>126.0</ele><time>2026-04-11T07:08:46.358Z</time></trkpt><trkpt lat="37.9773427" lon="-1.2470278"><ele>126.0</ele><time>2026-04-11T07:08:47.358Z</time></trkpt><trkpt lat="37.9770226" lon="-1.2471652"><ele>126.0</ele><time>2026-04-11T07:08:48.358Z</time></trkpt><trkpt lat="37.9767005" lon="-1.2472969"><ele>125.5</ele><time>2026-04-11T07:08:49.358Z</time></trkpt><trkpt lat="37.9763798" lon="-1.2474328"><ele>125.0</ele><time>2026-04-11T07:08:50.358Z</time></trkpt><trkpt lat="37.9760575" lon="-1.2475669"><ele>124.0</ele><time>2026-04-11T07:08:51.358Z</time></trkpt><trkpt lat="37.9757355" lon="-1.2477036"><ele>123.0</ele><time>2026-04-11T07:08:52.357Z</time></trkpt><trkpt lat="37.9754159" lon="-1.2478397"><ele>123.0</ele><time>2026-04-11T07:08:53.357Z</time></trkpt><trkpt lat="37.975097" lon="-1.2479677"><ele>123.0</ele><time>2026-04-11T07:08:54.358Z</time></trkpt><trkpt lat="37.9747769" lon="-1.2481033"><ele>124.5</ele><time>2026-04-11T07:08:55.358Z</time></trkpt><trkpt lat="37.974457" lon="-1.2482408"><ele>126.0</ele><time>2026-04-11T07:08:56.358Z</time></trkpt><trkpt lat="37.9741363" lon="-1.2483739"><ele>122.5</ele><time>2026-04-11T07:08:57.358Z</time></trkpt><trkpt lat="37.9738148" lon="-1.2485045"><ele>119.0</ele><time>2026-04-11T07:08:58.358Z</time></trkpt><trkpt lat="37.973496" lon="-1.2486307"><ele>118.5</ele><time>2026-04-11T07:08:59.358Z</time></trkpt><trkpt lat="37.9731758" lon="-1.2487527"><ele>118.0</ele><time>2026-04-11T07:09:00.358Z</time></trkpt><trkpt lat="37.9728517" lon="-1.2488792"><ele>117.5</ele><time>2026-04-11T07:09:01.358Z</time></trkpt><trkpt lat="37.9725305" lon="-1.2490052"><ele>117.0</ele><time>2026-04-11T07:09:02.358Z</time></trkpt><trkpt lat="37.9722074" lon="-1.2491335"><ele>117.0</ele><time>2026-04-11T07:09:03.358Z</time></trkpt><trkpt lat="37.9718842" lon="-1.2492536"><ele>117.0</ele><time>2026-04-11T07:09:04.358Z</time></trkpt><trkpt lat="37.9715614" lon="-1.2493767"><ele>116.5</ele><time>2026-04-11T07:09:05.357Z</time></trkpt><trkpt lat="37.971239" lon="-1.2495019"><ele>116.0</ele><time>2026-04-11T07:09:06.358Z</time></trkpt><trkpt lat="37.9709171" lon="-1.2496301"><ele>114.5</ele><time>2026-04-11T07:09:07.358Z</time></trkpt><trkpt lat="37.9705986" lon="-1.2497554"><ele>113.0</ele><time>2026-04-11T07:09:08.358Z</time></trkpt><trkpt lat="37.9702759" lon="-1.2498785"><ele>115.0</ele><time>2026-04-11T07:09:09.358Z</time></trkpt><trkpt lat="37.9699531" lon="-1.2499954"><ele>117.0</ele><time>2026-04-11T07:09:10.358Z</time></trkpt><trkpt lat="37.969628" lon="-1.2501079"><ele>117.0</ele><time>2026-04-11T07:09:11.358Z</time></trkpt><trkpt lat="37.9693042" lon="-1.2502151"><ele>117.0</ele><time>2026-04-11T07:09:12.358Z</time></trkpt><trkpt lat="37.9689771" lon="-1.2503231"><ele>116.0</ele><time>2026-04-11T07:09:13.358Z</time></trkpt><trkpt lat="37.9686539" lon="-1.2504261"><ele>115.0</ele><time>2026-04-11T07:09:14.358Z</time></trkpt><trkpt lat="37.9683304" lon="-1.2505335"><ele>116.0</ele><time>2026-04-11T07:09:15.357Z</time></trkpt><trkpt lat="37.9680039" lon="-1.2506392"><ele>117.0</ele><time>2026-04-11T07:09:16.357Z</time></trkpt><trkpt lat="37.9676782" lon="-1.2507439"><ele>117.0</ele><time>2026-04-11T07:09:17.358Z</time></trkpt><trkpt lat="37.9673522" lon="-1.2508458"><ele>117.0</ele><time>2026-04-11T07:09:18.358Z</time></trkpt><trkpt lat="37.9670269" lon="-1.2509432"><ele>117.0</ele><time>2026-04-11T07:09:19.358Z</time></trkpt><trkpt lat="37.9666989" lon="-1.2510416"><ele>117.0</ele><time>2026-04-11T07:09:20.357Z</time></trkpt><trkpt lat="37.9663708" lon="-1.2511396"><ele>116.5</ele><time>2026-04-11T07:09:21.358Z</time></trkpt><trkpt lat="37.9660445" lon="-1.2512322"><ele>116.0</ele><time>2026-04-11T07:09:22.357Z</time></trkpt><trkpt lat="37.9657161" lon="-1.251323"><ele>116.0</ele><time>2026-04-11T07:09:23.358Z</time></trkpt><trkpt lat="37.9653865" lon="-1.2514104"><ele>116.0</ele><time>2026-04-11T07:09:24.358Z</time></trkpt><trkpt lat="37.9650567" lon="-1.2514894"><ele>115.5</ele><time>2026-04-11T07:09:25.358Z</time></trkpt><trkpt lat="37.9647276" lon="-1.251565"><ele>115.0</ele><time>2026-04-11T07:09:26.357Z</time></trkpt><trkpt lat="37.9643965" lon="-1.2516461"><ele>113.5</ele><time>2026-04-11T07:09:27.358Z</time></trkpt><trkpt lat="37.9640659" lon="-1.2517259"><ele>112.0</ele><time>2026-04-11T07:09:28.358Z</time></trkpt><trkpt lat="37.9637343" lon="-1.2518054"><ele>112.0</ele><time>2026-04-11T07:09:29.358Z</time></trkpt><trkpt lat="37.9634047" lon="-1.2518876"><ele>112.0</ele><time>2026-04-11T07:09:30.358Z</time></trkpt><trkpt lat="37.9630792" lon="-1.251973"><ele>111.5</ele><time>2026-04-11T07:09:31.358Z</time></trkpt><trkpt lat="37.9627491" lon="-1.2520549"><ele>111.0</ele><time>2026-04-11T07:09:32.357Z</time></trkpt><trkpt lat="37.9624116" lon="-1.2521483"><ele>111.0</ele><time>2026-04-11T07:09:33.357Z</time></trkpt><trkpt lat="37.9620844" lon="-1.2522341"><ele>111.0</ele><time>2026-04-11T07:09:34.358Z</time></trkpt><trkpt lat="37.9617529" lon="-1.2523196"><ele>111.0</ele><time>2026-04-11T07:09:35.358Z</time></trkpt><trkpt lat="37.961436" lon="-1.2524108"><ele>111.0</ele><time>2026-04-11T07:09:36.358Z</time></trkpt><trkpt lat="37.9611099" lon="-1.2525109"><ele>112.0</ele><time>2026-04-11T07:09:37.358Z</time></trkpt><trkpt lat="37.9607823" lon="-1.2526124"><ele>113.0</ele><time>2026-04-11T07:09:38.358Z</time></trkpt><trkpt lat="37.9604496" lon="-1.2527155"><ele>113.0</ele><time>2026-04-11T07:09:39.358Z</time></trkpt><trkpt lat="37.9601245" lon="-1.2528191"><ele>113.0</ele><time>2026-04-11T07:09:40.358Z</time></trkpt><trkpt lat="37.9597979" lon="-1.2529216"><ele>112.0</ele><time>2026-04-11T07:09:41.358Z</time></trkpt><trkpt lat="37.9594705" lon="-1.2530223"><ele>111.0</ele><time>2026-04-11T07:09:42.358Z</time></trkpt><trkpt lat="37.9591468" lon="-1.2531318"><ele>111.0</ele><time>2026-04-11T07:09:43.358Z</time></trkpt><trkpt lat="37.9588267" lon="-1.2532467"><ele>111.0</ele><time>2026-04-11T07:09:44.358Z</time></trkpt><trkpt lat="37.9585059" lon="-1.2533655"><ele>111.5</ele><time>2026-04-11T07:09:45.358Z</time></trkpt><trkpt lat="37.9581859" lon="-1.2534973"><ele>112.0</ele><time>2026-04-11T07:09:46.358Z</time></trkpt><trkpt lat="37.9578677" lon="-1.2536289"><ele>112.0</ele><time>2026-04-11T07:09:47.358Z</time></trkpt><trkpt lat="37.9575512" lon="-1.253766"><ele>112.0</ele><time>2026-04-11T07:09:48.358Z</time></trkpt><trkpt lat="37.9572377" lon="-1.2539128"><ele>111.0</ele><time>2026-04-11T07:09:49.358Z</time></trkpt><trkpt lat="37.9569265" lon="-1.2540704"><ele>110.0</ele><time>2026-04-11T07:09:50.358Z</time></trkpt><trkpt lat="37.9566165" lon="-1.2542356"><ele>109.5</ele><time>2026-04-11T07:09:51.357Z</time></trkpt><trkpt lat="37.9563111" lon="-1.2544042"><ele>109.0</ele><time>2026-04-11T07:09:52.358Z</time></trkpt><trkpt lat="37.9560076" lon="-1.2545806"><ele>108.0</ele><time>2026-04-11T07:09:53.358Z</time></trkpt><trkpt lat="37.9557074" lon="-1.2547672"><ele>107.0</ele><time>2026-04-11T07:09:54.358Z</time></trkpt><trkpt lat="37.9554087" lon="-1.2549538"><ele>107.0</ele><time>2026-04-11T07:09:55.358Z</time></trkpt><trkpt lat="37.9551125" lon="-1.2551492"><ele>107.0</ele><time>2026-04-11T07:09:56.358Z</time></trkpt><trkpt lat="37.9548197" lon="-1.2553571"><ele>108.5</ele><time>2026-04-11T07:09:57.358Z</time></trkpt><trkpt lat="37.9545297" lon="-1.2555701"><ele>110.0</ele><time>2026-04-11T07:09:58.358Z</time></trkpt><trkpt lat="37.9542424" lon="-1.2557875"><ele>108.5</ele><time>2026-04-11T07:09:59.358Z</time></trkpt><trkpt lat="37.9539589" lon="-1.2560107"><ele>107.0</ele><time>2026-04-11T07:10:00.358Z</time></trkpt><trkpt lat="37.9536784" lon="-1.2562415"><ele>107.0</ele><time>2026-04-11T07:10:01.358Z</time></trkpt><trkpt lat="37.953401" lon="-1.2564805"><ele>107.0</ele><time>2026-04-11T07:10:02.358Z</time></trkpt><trkpt lat="37.9531275" lon="-1.2567234"><ele>107.0</ele><time>2026-04-11T07:10:03.358Z</time></trkpt><trkpt lat="37.952856" lon="-1.2569701"><ele>107.0</ele><time>2026-04-11T07:10:04.358Z</time></trkpt><trkpt lat="37.9525902" lon="-1.257228"><ele>108.5</ele><time>2026-04-11T07:10:05.358Z</time></trkpt><trkpt lat="37.952325" lon="-1.2574906"><ele>110.0</ele><time>2026-04-11T07:10:06.358Z</time></trkpt><trkpt lat="37.9520662" lon="-1.2577613"><ele>110.0</ele><time>2026-04-11T07:10:07.358Z</time></trkpt><trkpt lat="37.9518118" lon="-1.2580378"><ele>110.0</ele><time>2026-04-11T07:10:08.357Z</time></trkpt><trkpt lat="37.9515615" lon="-1.2583182"><ele>113.0</ele><time>2026-04-11T07:10:09.358Z</time></trkpt><trkpt lat="37.9513158" lon="-1.2586075"><ele>116.0</ele><time>2026-04-11T07:10:10.358Z</time></trkpt><trkpt lat="37.9510726" lon="-1.2589001"><ele>113.0</ele><time>2026-04-11T07:10:11.358Z</time></trkpt><trkpt lat="37.9508364" lon="-1.2591992"><ele>110.0</ele><time>2026-04-11T07:10:12.358Z</time></trkpt><trkpt lat="37.9505983" lon="-1.259506"><ele>112.0</ele><time>2026-04-11T07:10:13.358Z</time></trkpt><trkpt lat="37.9503645" lon="-1.2598255"><ele>114.0</ele><time>2026-04-11T07:10:14.358Z</time></trkpt><trkpt lat="37.9501384" lon="-1.26014"><ele>112.5</ele><time>2026-04-11T07:10:15.358Z</time></trkpt><trkpt lat="37.9499158" lon="-1.2604553"><ele>111.0</ele><time>2026-04-11T07:10:16.357Z</time></trkpt><trkpt lat="37.9496926" lon="-1.2607684"><ele>111.0</ele><time>2026-04-11T07:10:17.358Z</time></trkpt><trkpt lat="37.9494696" lon="-1.2610838"><ele>111.0</ele><time>2026-04-11T07:10:18.358Z</time></trkpt><trkpt lat="37.9492509" lon="-1.2614092"><ele>111.0</ele><time>2026-04-11T07:10:19.358Z</time></trkpt><trkpt lat="37.9490312" lon="-1.2617351"><ele>111.0</ele><time>2026-04-11T07:10:20.358Z</time></trkpt><trkpt lat="37.9488143" lon="-1.2620604"><ele>111.5</ele><time>2026-04-11T07:10:21.357Z</time></trkpt><trkpt lat="37.9486" lon="-1.2623852"><ele>112.0</ele><time>2026-04-11T07:10:22.358Z</time></trkpt><trkpt lat="37.9483861" lon="-1.2627082"><ele>111.0</ele><time>2026-04-11T07:10:23.358Z</time></trkpt><trkpt lat="37.948173" lon="-1.2630399"><ele>110.0</ele><time>2026-04-11T07:10:24.358Z</time></trkpt><trkpt lat="37.947956" lon="-1.2633687"><ele>112.0</ele><time>2026-04-11T07:10:25.358Z</time></trkpt><trkpt lat="37.9477418" lon="-1.2636924"><ele>114.0</ele><time>2026-04-11T07:10:26.358Z</time></trkpt><trkpt lat="37.9475252" lon="-1.2640141"><ele>116.0</ele><time>2026-04-11T07:10:27.358Z</time></trkpt><trkpt lat="37.9473036" lon="-1.2643413"><ele>118.0</ele><time>2026-04-11T07:10:28.358Z</time></trkpt><trkpt lat="37.9470779" lon="-1.2646569"><ele>117.5</ele><time>2026-04-11T07:10:29.358Z</time></trkpt><trkpt lat="37.9468512" lon="-1.2649681"><ele>117.0</ele><time>2026-04-11T07:10:30.358Z</time></trkpt><trkpt lat="37.9466195" lon="-1.2652738"><ele>116.0</ele><time>2026-04-11T07:10:31.357Z</time></trkpt><trkpt lat="37.9463843" lon="-1.2655774"><ele>115.0</ele><time>2026-04-11T07:10:32.358Z</time></trkpt><trkpt lat="37.946144" lon="-1.2658794"><ele>115.0</ele><time>2026-04-11T07:10:33.357Z</time></trkpt><trkpt lat="37.9459014" lon="-1.2661709"><ele>115.0</ele><time>2026-04-11T07:10:34.358Z</time></trkpt><trkpt lat="37.9456497" lon="-1.2664549"><ele>112.5</ele><time>2026-04-11T07:10:35.358Z</time></trkpt><trkpt lat="37.9453981" lon="-1.2667334"><ele>110.0</ele><time>2026-04-11T07:10:36.358Z</time></trkpt><trkpt lat="37.94514" lon="-1.267006"><ele>112.0</ele><time>2026-04-11T07:10:37.358Z</time></trkpt><trkpt lat="37.9448796" lon="-1.2672729"><ele>114.0</ele><time>2026-04-11T07:10:38.358Z</time></trkpt><trkpt lat="37.9446106" lon="-1.2675252"><ele>114.5</ele><time>2026-04-11T07:10:39.358Z</time></trkpt><trkpt lat="37.9443403" lon="-1.2677791"><ele>115.0</ele><time>2026-04-11T07:10:40.358Z</time></trkpt><trkpt lat="37.9440685" lon="-1.2680266"><ele>117.0</ele><time>2026-04-11T07:10:41.358Z</time></trkpt><trkpt lat="37.943791" lon="-1.2682669"><ele>119.0</ele><time>2026-04-11T07:10:42.358Z</time></trkpt><trkpt lat="37.9435097" lon="-1.2685014"><ele>118.0</ele><time>2026-04-11T07:10:43.358Z</time></trkpt><trkpt lat="37.9432262" lon="-1.268726"><ele>117.0</ele><time>2026-04-11T07:10:44.357Z</time></trkpt><trkpt lat="37.9429391" lon="-1.2689436"><ele>116.5</ele><time>2026-04-11T07:10:45.358Z</time></trkpt><trkpt lat="37.9426485" lon="-1.2691558"><ele>116.0</ele><time>2026-04-11T07:10:46.358Z</time></trkpt><trkpt lat="37.9423569" lon="-1.2693618"><ele>116.0</ele><time>2026-04-11T07:10:47.358Z</time></trkpt><trkpt lat="37.9420586" lon="-1.2695623"><ele>116.0</ele><time>2026-04-11T07:10:48.358Z</time></trkpt><trkpt lat="37.9417582" lon="-1.2697528"><ele>114.5</ele><time>2026-04-11T07:10:49.357Z</time></trkpt><trkpt lat="37.9414547" lon="-1.2699352"><ele>113.0</ele><time>2026-04-11T07:10:50.358Z</time></trkpt><trkpt lat="37.9411511" lon="-1.2701129"><ele>113.0</ele><time>2026-04-11T07:10:51.358Z</time></trkpt><trkpt lat="37.9408439" lon="-1.2702837"><ele>113.0</ele><time>2026-04-11T07:10:52.358Z</time></trkpt><trkpt lat="37.9405341" lon="-1.2704529"><ele>113.0</ele><time>2026-04-11T07:10:53.358Z</time></trkpt><trkpt lat="37.9402198" lon="-1.2706058"><ele>113.0</ele><time>2026-04-11T07:10:54.358Z</time></trkpt><trkpt lat="37.9399061" lon="-1.270755"><ele>112.5</ele><time>2026-04-11T07:10:55.358Z</time></trkpt><trkpt lat="37.9395912" lon="-1.2709009"><ele>112.0</ele><time>2026-04-11T07:10:56.357Z</time></trkpt><trkpt lat="37.9392773" lon="-1.2710444"><ele>111.5</ele><time>2026-04-11T07:10:57.357Z</time></trkpt><trkpt lat="37.9389612" lon="-1.2711886"><ele>111.0</ele><time>2026-04-11T07:10:58.358Z</time></trkpt><trkpt lat="37.9386448" lon="-1.2713331"><ele>112.0</ele><time>2026-04-11T07:10:59.358Z</time></trkpt><trkpt lat="37.9383305" lon="-1.2714799"><ele>113.0</ele><time>2026-04-11T07:11:00.358Z</time></trkpt><trkpt lat="37.9380077" lon="-1.271635"><ele>113.0</ele><time>2026-04-11T07:11:01.358Z</time></trkpt><trkpt lat="37.9377046" lon="-1.2718001"><ele>113.0</ele><time>2026-04-11T07:11:02.358Z</time></trkpt><trkpt lat="37.9374081" lon="-1.2719958"><ele>113.5</ele><time>2026-04-11T07:11:03.358Z</time></trkpt><trkpt lat="37.9371131" lon="-1.2721986"><ele>114.0</ele><time>2026-04-11T07:11:04.358Z</time></trkpt><trkpt lat="37.9368269" lon="-1.2724139"><ele>113.0</ele><time>2026-04-11T07:11:05.357Z</time></trkpt><trkpt lat="37.9365469" lon="-1.2726424"><ele>112.0</ele><time>2026-04-11T07:11:06.358Z</time></trkpt><trkpt lat="37.9362736" lon="-1.272886"><ele>112.5</ele><time>2026-04-11T07:11:07.358Z</time></trkpt><trkpt lat="37.9360025" lon="-1.2731416"><ele>113.0</ele><time>2026-04-11T07:11:08.358Z</time></trkpt><trkpt lat="37.9357402" lon="-1.2734076"><ele>113.0</ele><time>2026-04-11T07:11:09.358Z</time></trkpt><trkpt lat="37.9354862" lon="-1.2736867"><ele>113.0</ele><time>2026-04-11T07:11:10.358Z</time></trkpt><trkpt lat="37.9352433" lon="-1.2739776"><ele>113.0</ele><time>2026-04-11T07:11:11.358Z</time></trkpt><trkpt lat="37.9350055" lon="-1.2742811"><ele>113.0</ele><time>2026-04-11T07:11:12.358Z</time></trkpt><trkpt lat="37.9347756" lon="-1.2745943"><ele>113.0</ele><time>2026-04-11T07:11:13.358Z</time></trkpt><trkpt lat="37.9345535" lon="-1.2749064"><ele>113.0</ele><time>2026-04-11T07:11:14.358Z</time></trkpt><trkpt lat="37.9343299" lon="-1.275226"><ele>112.0</ele><time>2026-04-11T07:11:15.358Z</time></trkpt><trkpt lat="37.9341105" lon="-1.2755428"><ele>111.0</ele><time>2026-04-11T07:11:16.358Z</time></trkpt><trkpt lat="37.9338919" lon="-1.2758638"><ele>113.0</ele><time>2026-04-11T07:11:17.358Z</time></trkpt><trkpt lat="37.9336707" lon="-1.2761853"><ele>115.0</ele><time>2026-04-11T07:11:18.358Z</time></trkpt><trkpt lat="37.9334551" lon="-1.276508"><ele>115.5</ele><time>2026-04-11T07:11:19.358Z</time></trkpt><trkpt lat="37.9332373" lon="-1.2768312"><ele>116.0</ele><time>2026-04-11T07:11:20.358Z</time></trkpt><trkpt lat="37.9330211" lon="-1.277152"><ele>116.5</ele><time>2026-04-11T07:11:21.358Z</time></trkpt><trkpt lat="37.9328025" lon="-1.2774749"><ele>117.0</ele><time>2026-04-11T07:11:22.358Z</time></trkpt><trkpt lat="37.9325848" lon="-1.2777942"><ele>117.0</ele><time>2026-04-11T07:11:23.358Z</time></trkpt><trkpt lat="37.9323672" lon="-1.278116"><ele>117.0</ele><time>2026-04-11T07:11:24.358Z</time></trkpt><trkpt lat="37.932152" lon="-1.27844"><ele>117.0</ele><time>2026-04-11T07:11:25.358Z</time></trkpt><trkpt lat="37.9319352" lon="-1.278766"><ele>117.0</ele><time>2026-04-11T07:11:26.357Z</time></trkpt><trkpt lat="37.9317172" lon="-1.2790902"><ele>116.5</ele><time>2026-04-11T07:11:27.358Z</time></trkpt><trkpt lat="37.9315003" lon="-1.2794118"><ele>116.0</ele><time>2026-04-11T07:11:28.358Z</time></trkpt><trkpt lat="37.9312806" lon="-1.2797312"><ele>116.5</ele><time>2026-04-11T07:11:29.358Z</time></trkpt><trkpt lat="37.9310574" lon="-1.2800503"><ele>117.0</ele><time>2026-04-11T07:11:30.358Z</time></trkpt><trkpt lat="37.9308325" lon="-1.280367"><ele>118.0</ele><time>2026-04-11T07:11:31.357Z</time></trkpt><trkpt lat="37.9306059" lon="-1.2806816"><ele>119.0</ele><time>2026-04-11T07:11:32.358Z</time></trkpt><trkpt lat="37.9303769" lon="-1.2809949"><ele>119.0</ele><time>2026-04-11T07:11:33.358Z</time></trkpt><trkpt lat="37.9301463" lon="-1.2813065"><ele>119.0</ele><time>2026-04-11T07:11:34.357Z</time></trkpt><trkpt lat="37.9299138" lon="-1.2816115"><ele>119.5</ele><time>2026-04-11T07:11:35.357Z</time></trkpt><trkpt lat="37.929737" lon="-1.2818296"><ele>120.0</ele><time>2026-04-11T07:11:36.613Z</time></trkpt><trkpt lat="37.9294372" lon="-1.2822055"><ele>119.5</ele><time>2026-04-11T07:11:37.355Z</time></trkpt><trkpt lat="37.9292008" lon="-1.2825069"><ele>119.0</ele><time>2026-04-11T07:11:38.368Z</time></trkpt><trkpt lat="37.9289581" lon="-1.282808"><ele>120.0</ele><time>2026-04-11T07:11:39.364Z</time></trkpt><trkpt lat="37.9287179" lon="-1.2831028"><ele>121.0</ele><time>2026-04-11T07:11:40.357Z</time></trkpt><trkpt lat="37.9284784" lon="-1.2833987"><ele>121.0</ele><time>2026-04-11T07:11:41.367Z</time></trkpt><trkpt lat="37.9282432" lon="-1.2836904"><ele>121.0</ele><time>2026-04-11T07:11:42.363Z</time></trkpt><trkpt lat="37.9280018" lon="-1.2839915"><ele>122.0</ele><time>2026-04-11T07:11:43.362Z</time></trkpt><trkpt lat="37.9277613" lon="-1.2842918"><ele>123.0</ele><time>2026-04-11T07:11:44.363Z</time></trkpt><trkpt lat="37.9275214" lon="-1.2845899"><ele>123.5</ele><time>2026-04-11T07:11:45.363Z</time></trkpt><trkpt lat="37.9273578" lon="-1.2847987"><ele>124.0</ele><time>2026-04-11T07:11:46.582Z</time></trkpt><trkpt lat="37.9268032" lon="-1.2854807"><ele>123.0</ele><time>2026-04-11T07:11:48.356Z</time></trkpt><trkpt lat="37.9265643" lon="-1.2857784"><ele>122.0</ele><time>2026-04-11T07:11:49.353Z</time></trkpt><trkpt lat="37.9263203" lon="-1.2860768"><ele>122.0</ele><time>2026-04-11T07:11:50.353Z</time></trkpt><trkpt lat="37.9260793" lon="-1.2863762"><ele>122.0</ele><time>2026-04-11T07:11:51.356Z</time></trkpt><trkpt lat="37.9258437" lon="-1.2866745"><ele>121.5</ele><time>2026-04-11T07:11:52.353Z</time></trkpt><trkpt lat="37.9256071" lon="-1.2869728"><ele>121.0</ele><time>2026-04-11T07:11:53.353Z</time></trkpt><trkpt lat="37.9253707" lon="-1.2872757"><ele>121.5</ele><time>2026-04-11T07:11:54.354Z</time></trkpt><trkpt lat="37.9251343" lon="-1.2875804"><ele>122.0</ele><time>2026-04-11T07:11:55.354Z</time></trkpt><trkpt lat="37.9248989" lon="-1.2878806"><ele>122.0</ele><time>2026-04-11T07:11:56.354Z</time></trkpt><trkpt lat="37.9246631" lon="-1.2881833"><ele>122.0</ele><time>2026-04-11T07:11:57.354Z</time></trkpt><trkpt lat="37.9244271" lon="-1.2884824"><ele>122.0</ele><time>2026-04-11T07:11:58.353Z</time></trkpt><trkpt lat="37.9241932" lon="-1.2887831"><ele>122.0</ele><time>2026-04-11T07:11:59.353Z</time></trkpt><trkpt lat="37.9239592" lon="-1.2890805"><ele>122.5</ele><time>2026-04-11T07:12:00.353Z</time></trkpt><trkpt lat="37.9237234" lon="-1.2893824"><ele>123.0</ele><time>2026-04-11T07:12:01.353Z</time></trkpt><trkpt lat="37.9234892" lon="-1.2896884"><ele>124.0</ele><time>2026-04-11T07:12:02.354Z</time></trkpt><trkpt lat="37.9232595" lon="-1.2899942"><ele>125.0</ele><time>2026-04-11T07:12:03.354Z</time></trkpt><trkpt lat="37.9230365" lon="-1.2903101"><ele>125.0</ele><time>2026-04-11T07:12:04.354Z</time></trkpt><trkpt lat="37.922827" lon="-1.2906373"><ele>125.0</ele><time>2026-04-11T07:12:05.354Z</time></trkpt><trkpt lat="37.9226287" lon="-1.2909753"><ele>125.0</ele><time>2026-04-11T07:12:06.353Z</time></trkpt><trkpt lat="37.922441" lon="-1.291323"><ele>125.0</ele><time>2026-04-11T07:12:07.354Z</time></trkpt><trkpt lat="37.9222635" lon="-1.2916808"><ele>125.0</ele><time>2026-04-11T07:12:08.353Z</time></trkpt><trkpt lat="37.9220963" lon="-1.2920455"><ele>125.0</ele><time>2026-04-11T07:12:09.353Z</time></trkpt><trkpt lat="37.92194" lon="-1.2924207"><ele>126.0</ele><time>2026-04-11T07:12:10.353Z</time></trkpt><trkpt lat="37.9218001" lon="-1.2928037"><ele>127.0</ele><time>2026-04-11T07:12:11.353Z</time></trkpt><trkpt lat="37.9216722" lon="-1.2931971"><ele>128.5</ele><time>2026-04-11T07:12:12.354Z</time></trkpt><trkpt lat="37.9215551" lon="-1.2935954"><ele>130.0</ele><time>2026-04-11T07:12:13.354Z</time></trkpt><trkpt lat="37.9214511" lon="-1.2939932"><ele>131.0</ele><time>2026-04-11T07:12:14.354Z</time></trkpt><trkpt lat="37.9213611" lon="-1.2944027"><ele>132.0</ele><time>2026-04-11T07:12:15.354Z</time></trkpt><trkpt lat="37.9212803" lon="-1.2948131"><ele>133.5</ele><time>2026-04-11T07:12:16.354Z</time></trkpt><trkpt lat="37.9212072" lon="-1.2952303"><ele>135.0</ele><time>2026-04-11T07:12:17.354Z</time></trkpt><trkpt lat="37.9211347" lon="-1.2956417"><ele>137.0</ele><time>2026-04-11T07:12:18.353Z</time></trkpt><trkpt lat="37.9210593" lon="-1.2960565"><ele>139.0</ele><time>2026-04-11T07:12:19.354Z</time></trkpt><trkpt lat="37.9209818" lon="-1.2964695"><ele>139.0</ele><time>2026-04-11T07:12:20.354Z</time></trkpt><trkpt lat="37.9209072" lon="-1.2968802"><ele>139.0</ele><time>2026-04-11T07:12:21.354Z</time></trkpt><trkpt lat="37.9208297" lon="-1.297292"><ele>136.5</ele><time>2026-04-11T07:12:22.354Z</time></trkpt><trkpt lat="37.9207446" lon="-1.2977038"><ele>134.0</ele><time>2026-04-11T07:12:23.354Z</time></trkpt><trkpt lat="37.9206471" lon="-1.2981144"><ele>134.0</ele><time>2026-04-11T07:12:24.353Z</time></trkpt><trkpt lat="37.9205396" lon="-1.298518"><ele>134.0</ele><time>2026-04-11T07:12:25.354Z</time></trkpt><trkpt lat="37.9204148" lon="-1.2989155"><ele>136.0</ele><time>2026-04-11T07:12:26.354Z</time></trkpt><trkpt lat="37.9202803" lon="-1.299306"><ele>138.0</ele><time>2026-04-11T07:12:27.354Z</time></trkpt><trkpt lat="37.9201337" lon="-1.2996911"><ele>135.0</ele><time>2026-04-11T07:12:28.354Z</time></trkpt><trkpt lat="37.9199761" lon="-1.3000715"><ele>132.0</ele><time>2026-04-11T07:12:29.354Z</time></trkpt><trkpt lat="37.9198093" lon="-1.3004411"><ele>131.0</ele><time>2026-04-11T07:12:30.354Z</time></trkpt><trkpt lat="37.9196331" lon="-1.3008043"><ele>130.0</ele><time>2026-04-11T07:12:31.354Z</time></trkpt><trkpt lat="37.919446" lon="-1.301159"><ele>130.0</ele><time>2026-04-11T07:12:32.354Z</time></trkpt><trkpt lat="37.9192517" lon="-1.3015044"><ele>130.0</ele><time>2026-04-11T07:12:33.354Z</time></trkpt><trkpt lat="37.9190489" lon="-1.3018464"><ele>130.0</ele><time>2026-04-11T07:12:34.354Z</time></trkpt><trkpt lat="37.9188375" lon="-1.3021776"><ele>130.0</ele><time>2026-04-11T07:12:35.353Z</time></trkpt><trkpt lat="37.9186184" lon="-1.3025009"><ele>131.0</ele><time>2026-04-11T07:12:36.354Z</time></trkpt><trkpt lat="37.9183937" lon="-1.3028187"><ele>132.0</ele><time>2026-04-11T07:12:37.354Z</time></trkpt><trkpt lat="37.9181664" lon="-1.3031321"><ele>132.0</ele><time>2026-04-11T07:12:38.354Z</time></trkpt><trkpt lat="37.9179387" lon="-1.3034453"><ele>132.0</ele><time>2026-04-11T07:12:39.354Z</time></trkpt><trkpt lat="37.9177147" lon="-1.3037583"><ele>132.0</ele><time>2026-04-11T07:12:40.353Z</time></trkpt><trkpt lat="37.9174909" lon="-1.304068"><ele>132.0</ele><time>2026-04-11T07:12:41.353Z</time></trkpt><trkpt lat="37.9172648" lon="-1.3043787"><ele>132.0</ele><time>2026-04-11T07:12:42.354Z</time></trkpt><trkpt lat="37.9170379" lon="-1.3046912"><ele>132.0</ele><time>2026-04-11T07:12:43.354Z</time></trkpt><trkpt lat="37.9168092" lon="-1.3050041"><ele>135.0</ele><time>2026-04-11T07:12:44.354Z</time></trkpt><trkpt lat="37.9165818" lon="-1.3053163"><ele>138.0</ele><time>2026-04-11T07:12:45.354Z</time></trkpt><trkpt lat="37.9163565" lon="-1.305629"><ele>138.5</ele><time>2026-04-11T07:12:46.354Z</time></trkpt><trkpt lat="37.9161282" lon="-1.30594"><ele>139.0</ele><time>2026-04-11T07:12:47.354Z</time></trkpt><trkpt lat="37.9158979" lon="-1.3062469"><ele>139.5</ele><time>2026-04-11T07:12:48.354Z</time></trkpt><trkpt lat="37.9156655" lon="-1.3065539"><ele>140.0</ele><time>2026-04-11T07:12:49.353Z</time></trkpt><trkpt lat="37.9154355" lon="-1.3068575"><ele>140.0</ele><time>2026-04-11T07:12:50.354Z</time></trkpt><trkpt lat="37.9152058" lon="-1.3071621"><ele>140.0</ele><time>2026-04-11T07:12:51.354Z</time></trkpt><trkpt lat="37.9149738" lon="-1.3074724"><ele>141.5</ele><time>2026-04-11T07:12:52.354Z</time></trkpt><trkpt lat="37.9147416" lon="-1.307779"><ele>143.0</ele><time>2026-04-11T07:12:53.354Z</time></trkpt><trkpt lat="37.9145145" lon="-1.3080876"><ele>143.0</ele><time>2026-04-11T07:12:54.353Z</time></trkpt><trkpt lat="37.9142841" lon="-1.3084002"><ele>143.0</ele><time>2026-04-11T07:12:55.354Z</time></trkpt><trkpt lat="37.9140591" lon="-1.3087125"><ele>144.0</ele><time>2026-04-11T07:12:56.354Z</time></trkpt><trkpt lat="37.9138312" lon="-1.3090257"><ele>145.0</ele><time>2026-04-11T07:12:57.354Z</time></trkpt><trkpt lat="37.9136067" lon="-1.3093324"><ele>145.5</ele><time>2026-04-11T07:12:58.354Z</time></trkpt><trkpt lat="37.9133773" lon="-1.3096434"><ele>146.0</ele><time>2026-04-11T07:12:59.354Z</time></trkpt><trkpt lat="37.9131493" lon="-1.3099512"><ele>146.0</ele><time>2026-04-11T07:13:00.353Z</time></trkpt><trkpt lat="37.9129232" lon="-1.3102588"><ele>146.0</ele><time>2026-04-11T07:13:01.354Z</time></trkpt><trkpt lat="37.9126961" lon="-1.3105706"><ele>148.5</ele><time>2026-04-11T07:13:02.354Z</time></trkpt><trkpt lat="37.9124668" lon="-1.3108845"><ele>151.0</ele><time>2026-04-11T07:13:03.354Z</time></trkpt><trkpt lat="37.9122378" lon="-1.311195"><ele>151.5</ele><time>2026-04-11T07:13:04.354Z</time></trkpt><trkpt lat="37.9120084" lon="-1.3115037"><ele>152.0</ele><time>2026-04-11T07:13:05.354Z</time></trkpt><trkpt lat="37.9117787" lon="-1.3118156"><ele>152.5</ele><time>2026-04-11T07:13:06.354Z</time></trkpt><trkpt lat="37.911553" lon="-1.3121257"><ele>153.0</ele><time>2026-04-11T07:13:07.354Z</time></trkpt><trkpt lat="37.9113284" lon="-1.312437"><ele>153.0</ele><time>2026-04-11T07:13:08.354Z</time></trkpt><trkpt lat="37.9111045" lon="-1.3127471"><ele>153.0</ele><time>2026-04-11T07:13:09.353Z</time></trkpt><trkpt lat="37.91088" lon="-1.3130708"><ele>151.5</ele><time>2026-04-11T07:13:10.354Z</time></trkpt><trkpt lat="37.9106554" lon="-1.313401"><ele>150.0</ele><time>2026-04-11T07:13:11.353Z</time></trkpt><trkpt lat="37.9104426" lon="-1.3137273"><ele>149.5</ele><time>2026-04-11T07:13:12.354Z</time></trkpt><trkpt lat="37.910237" lon="-1.314054"><ele>149.0</ele><time>2026-04-11T07:13:13.354Z</time></trkpt><trkpt lat="37.9100251" lon="-1.3143856"><ele>149.0</ele><time>2026-04-11T07:13:14.354Z</time></trkpt><trkpt lat="37.9098176" lon="-1.3147172"><ele>149.0</ele><time>2026-04-11T07:13:15.353Z</time></trkpt><trkpt lat="37.9096107" lon="-1.3150476"><ele>150.5</ele><time>2026-04-11T07:13:16.354Z</time></trkpt><trkpt lat="37.9094055" lon="-1.3153772"><ele>152.0</ele><time>2026-04-11T07:13:17.353Z</time></trkpt><trkpt lat="37.9091976" lon="-1.3157134"><ele>152.0</ele><time>2026-04-11T07:13:18.353Z</time></trkpt><trkpt lat="37.9089897" lon="-1.3160482"><ele>152.0</ele><time>2026-04-11T07:13:19.354Z</time></trkpt><trkpt lat="37.9087798" lon="-1.3163824"><ele>152.5</ele><time>2026-04-11T07:13:20.354Z</time></trkpt><trkpt lat="37.908575" lon="-1.3167166"><ele>153.0</ele><time>2026-04-11T07:13:21.354Z</time></trkpt><trkpt lat="37.908373" lon="-1.3170565"><ele>152.5</ele><time>2026-04-11T07:13:22.354Z</time></trkpt><trkpt lat="37.9081719" lon="-1.3174031"><ele>152.0</ele><time>2026-04-11T07:13:23.354Z</time></trkpt><trkpt lat="37.907977" lon="-1.3177503"><ele>153.0</ele><time>2026-04-11T07:13:24.354Z</time></trkpt><trkpt lat="37.9077877" lon="-1.3180885"><ele>154.0</ele><time>2026-04-11T07:13:25.354Z</time></trkpt><trkpt lat="37.9076127" lon="-1.3184084"><ele>152.5</ele><time>2026-04-11T07:13:26.354Z</time></trkpt><trkpt lat="37.9074395" lon="-1.3187294"><ele>151.0</ele><time>2026-04-11T07:13:27.354Z</time></trkpt><trkpt lat="37.9072707" lon="-1.3190391"><ele>151.0</ele><time>2026-04-11T07:13:28.354Z</time></trkpt><trkpt lat="37.9071144" lon="-1.3193494"><ele>151.0</ele><time>2026-04-11T07:13:29.354Z</time></trkpt><trkpt lat="37.9069589" lon="-1.3196534"><ele>151.0</ele><time>2026-04-11T07:13:30.353Z</time></trkpt><trkpt lat="37.9068047" lon="-1.3199651"><ele>151.0</ele><time>2026-04-11T07:13:31.354Z</time></trkpt><trkpt lat="37.9066496" lon="-1.3202792"><ele>152.0</ele><time>2026-04-11T07:13:32.354Z</time></trkpt><trkpt lat="37.9064869" lon="-1.3206065"><ele>153.0</ele><time>2026-04-11T07:13:33.354Z</time></trkpt><trkpt lat="37.9063214" lon="-1.3209375"><ele>153.0</ele><time>2026-04-11T07:13:34.354Z</time></trkpt><trkpt lat="37.9061468" lon="-1.321268"><ele>153.0</ele><time>2026-04-11T07:13:35.354Z</time></trkpt><trkpt lat="37.9059657" lon="-1.3215964"><ele>153.5</ele><time>2026-04-11T07:13:36.353Z</time></trkpt><trkpt lat="37.905776" lon="-1.3219174"><ele>154.0</ele><time>2026-04-11T07:13:37.354Z</time></trkpt><trkpt lat="37.9055734" lon="-1.3222387"><ele>154.0</ele><time>2026-04-11T07:13:38.353Z</time></trkpt><trkpt lat="37.9053636" lon="-1.322555"><ele>154.0</ele><time>2026-04-11T07:13:39.354Z</time></trkpt><trkpt lat="37.9051426" lon="-1.3228664"><ele>153.0</ele><time>2026-04-11T07:13:40.354Z</time></trkpt><trkpt lat="37.9049178" lon="-1.3231592"><ele>152.0</ele><time>2026-04-11T07:13:41.354Z</time></trkpt><trkpt lat="37.9046846" lon="-1.3234457"><ele>152.0</ele><time>2026-04-11T07:13:42.354Z</time></trkpt><trkpt lat="37.9044435" lon="-1.3237276"><ele>152.0</ele><time>2026-04-11T07:13:43.354Z</time></trkpt><trkpt lat="37.9041949" lon="-1.324001"><ele>152.5</ele><time>2026-04-11T07:13:44.353Z</time></trkpt><trkpt lat="37.9039393" lon="-1.3242698"><ele>153.0</ele><time>2026-04-11T07:13:45.354Z</time></trkpt><trkpt lat="37.9036868" lon="-1.3245307"><ele>154.0</ele><time>2026-04-11T07:13:46.354Z</time></trkpt><trkpt lat="37.9034386" lon="-1.3247901"><ele>155.0</ele><time>2026-04-11T07:13:47.354Z</time></trkpt><trkpt lat="37.9032021" lon="-1.3250367"><ele>155.5</ele><time>2026-04-11T07:13:48.354Z</time></trkpt><trkpt lat="37.9029681" lon="-1.3252879"><ele>156.0</ele><time>2026-04-11T07:13:49.354Z</time></trkpt><trkpt lat="37.902742" lon="-1.3255396"><ele>155.5</ele><time>2026-04-11T07:13:50.354Z</time></trkpt><trkpt lat="37.9025218" lon="-1.3258033"><ele>155.0</ele><time>2026-04-11T07:13:51.354Z</time></trkpt><trkpt lat="37.9023136" lon="-1.3260682"><ele>155.0</ele><time>2026-04-11T07:13:52.354Z</time></trkpt><trkpt lat="37.9021139" lon="-1.3263382"><ele>155.0</ele><time>2026-04-11T07:13:53.354Z</time></trkpt><trkpt lat="37.901919" lon="-1.3266177"><ele>152.5</ele><time>2026-04-11T07:13:54.354Z</time></trkpt><trkpt lat="37.9017221" lon="-1.3269026"><ele>150.0</ele><time>2026-04-11T07:13:55.354Z</time></trkpt><trkpt lat="37.9015281" lon="-1.3271971"><ele>151.5</ele><time>2026-04-11T07:13:56.354Z</time></trkpt><trkpt lat="37.9013319" lon="-1.3274978"><ele>153.0</ele><time>2026-04-11T07:13:57.354Z</time></trkpt><trkpt lat="37.901141" lon="-1.3278002"><ele>154.0</ele><time>2026-04-11T07:13:58.354Z</time></trkpt><trkpt lat="37.9009474" lon="-1.3281046"><ele>155.0</ele><time>2026-04-11T07:13:59.354Z</time></trkpt><trkpt lat="37.9007504" lon="-1.3284127"><ele>155.0</ele><time>2026-04-11T07:14:00.353Z</time></trkpt><trkpt lat="37.900554" lon="-1.3287251"><ele>155.0</ele><time>2026-04-11T07:14:01.353Z</time></trkpt><trkpt lat="37.900356" lon="-1.3290342"><ele>154.5</ele><time>2026-04-11T07:14:02.354Z</time></trkpt><trkpt lat="37.9001591" lon="-1.3293489"><ele>154.0</ele><time>2026-04-11T07:14:03.354Z</time></trkpt><trkpt lat="37.899957" lon="-1.3296708"><ele>154.5</ele><time>2026-04-11T07:14:04.354Z</time></trkpt><trkpt lat="37.8997507" lon="-1.329989"><ele>155.0</ele><time>2026-04-11T07:14:05.353Z</time></trkpt><trkpt lat="37.8995422" lon="-1.3303161"><ele>155.5</ele><time>2026-04-11T07:14:06.354Z</time></trkpt><trkpt lat="37.8993295" lon="-1.330639"><ele>156.0</ele><time>2026-04-11T07:14:07.353Z</time></trkpt><trkpt lat="37.8991165" lon="-1.3309653"><ele>156.0</ele><time>2026-04-11T07:14:08.354Z</time></trkpt><trkpt lat="37.8989028" lon="-1.3312912"><ele>156.0</ele><time>2026-04-11T07:14:09.354Z</time></trkpt><trkpt lat="37.8986882" lon="-1.33161"><ele>156.0</ele><time>2026-04-11T07:14:10.353Z</time></trkpt><trkpt lat="37.8984675" lon="-1.3319366"><ele>156.0</ele><time>2026-04-11T07:14:11.354Z</time></trkpt><trkpt lat="37.8982498" lon="-1.3322561"><ele>156.5</ele><time>2026-04-11T07:14:12.354Z</time></trkpt><trkpt lat="37.8980257" lon="-1.3325767"><ele>157.0</ele><time>2026-04-11T07:14:13.354Z</time></trkpt><trkpt lat="37.8978044" lon="-1.3328954"><ele>156.0</ele><time>2026-04-11T07:14:14.354Z</time></trkpt><trkpt lat="37.8975823" lon="-1.3332129"><ele>155.0</ele><time>2026-04-11T07:14:15.354Z</time></trkpt><trkpt lat="37.897363" lon="-1.3335356"><ele>155.0</ele><time>2026-04-11T07:14:16.354Z</time></trkpt><trkpt lat="37.8971427" lon="-1.3338541"><ele>155.0</ele><time>2026-04-11T07:14:17.354Z</time></trkpt><trkpt lat="37.8969287" lon="-1.3341731"><ele>153.5</ele><time>2026-04-11T07:14:18.354Z</time></trkpt><trkpt lat="37.896706" lon="-1.3344942"><ele>152.0</ele><time>2026-04-11T07:14:19.354Z</time></trkpt><trkpt lat="37.8964843" lon="-1.334809"><ele>152.0</ele><time>2026-04-11T07:14:20.354Z</time></trkpt><trkpt lat="37.8962671" lon="-1.3351296"><ele>152.0</ele><time>2026-04-11T07:14:21.354Z</time></trkpt><trkpt lat="37.8960499" lon="-1.3354471"><ele>153.0</ele><time>2026-04-11T07:14:22.354Z</time></trkpt><trkpt lat="37.8958306" lon="-1.3357673"><ele>154.0</ele><time>2026-04-11T07:14:23.354Z</time></trkpt><trkpt lat="37.8956115" lon="-1.3360817"><ele>153.5</ele><time>2026-04-11T07:14:24.354Z</time></trkpt><trkpt lat="37.895387" lon="-1.336401"><ele>153.0</ele><time>2026-04-11T07:14:25.353Z</time></trkpt><trkpt lat="37.8951647" lon="-1.336723"><ele>154.0</ele><time>2026-04-11T07:14:26.354Z</time></trkpt><trkpt lat="37.8949416" lon="-1.3370462"><ele>155.0</ele><time>2026-04-11T07:14:27.354Z</time></trkpt><trkpt lat="37.8947283" lon="-1.3373625"><ele>157.0</ele><time>2026-04-11T07:14:28.353Z</time></trkpt><trkpt lat="37.8945156" lon="-1.3376898"><ele>159.0</ele><time>2026-04-11T07:14:29.354Z</time></trkpt><trkpt lat="37.8943164" lon="-1.3380157"><ele>161.0</ele><time>2026-04-11T07:14:30.354Z</time></trkpt><trkpt lat="37.894128" lon="-1.338365"><ele>163.0</ele><time>2026-04-11T07:14:31.354Z</time></trkpt><trkpt lat="37.8939524" lon="-1.3387218"><ele>163.0</ele><time>2026-04-11T07:14:32.354Z</time></trkpt><trkpt lat="37.8937899" lon="-1.3390695"><ele>163.0</ele><time>2026-04-11T07:14:33.354Z</time></trkpt><trkpt lat="37.8936403" lon="-1.3394215"><ele>163.0</ele><time>2026-04-11T07:14:34.354Z</time></trkpt><trkpt lat="37.8934995" lon="-1.3397846"><ele>163.0</ele><time>2026-04-11T07:14:35.354Z</time></trkpt><trkpt lat="37.8933756" lon="-1.3401542"><ele>163.0</ele><time>2026-04-11T07:14:36.353Z</time></trkpt><trkpt lat="37.8932664" lon="-1.340535"><ele>163.0</ele><time>2026-04-11T07:14:37.354Z</time></trkpt><trkpt lat="37.8931638" lon="-1.3409178"><ele>163.0</ele><time>2026-04-11T07:14:38.354Z</time></trkpt><trkpt lat="37.8930736" lon="-1.3413083"><ele>163.0</ele><time>2026-04-11T07:14:39.354Z</time></trkpt><trkpt lat="37.892997" lon="-1.341696"><ele>164.0</ele><time>2026-04-11T07:14:40.354Z</time></trkpt><trkpt lat="37.892931" lon="-1.3420847"><ele>165.0</ele><time>2026-04-11T07:14:41.354Z</time></trkpt><trkpt lat="37.8928767" lon="-1.3424828"><ele>166.0</ele><time>2026-04-11T07:14:42.354Z</time></trkpt><trkpt lat="37.8928349" lon="-1.3428828"><ele>167.0</ele><time>2026-04-11T07:14:43.354Z</time></trkpt><trkpt lat="37.8928051" lon="-1.3432858"><ele>167.0</ele><time>2026-04-11T07:14:44.354Z</time></trkpt><trkpt lat="37.8927874" lon="-1.3436903"><ele>167.0</ele><time>2026-04-11T07:14:45.354Z</time></trkpt><trkpt lat="37.8927723" lon="-1.3440951"><ele>168.0</ele><time>2026-04-11T07:14:46.353Z</time></trkpt><trkpt lat="37.8927583" lon="-1.3445005"><ele>169.0</ele><time>2026-04-11T07:14:47.353Z</time></trkpt><trkpt lat="37.8927394" lon="-1.3449032"><ele>170.0</ele><time>2026-04-11T07:14:48.354Z</time></trkpt><trkpt lat="37.8927191" lon="-1.3453069"><ele>171.0</ele><time>2026-04-11T07:14:49.354Z</time></trkpt><trkpt lat="37.8926994" lon="-1.3457119"><ele>171.0</ele><time>2026-04-11T07:14:50.354Z</time></trkpt><trkpt lat="37.8926793" lon="-1.346115"><ele>171.0</ele><time>2026-04-11T07:14:51.354Z</time></trkpt><trkpt lat="37.8926569" lon="-1.3465191"><ele>171.0</ele><time>2026-04-11T07:14:52.354Z</time></trkpt><trkpt lat="37.8926322" lon="-1.3469226"><ele>171.0</ele><time>2026-04-11T07:14:53.354Z</time></trkpt><trkpt lat="37.892602" lon="-1.3473237"><ele>172.0</ele><time>2026-04-11T07:14:54.354Z</time></trkpt><trkpt lat="37.8925735" lon="-1.3477233"><ele>173.0</ele><time>2026-04-11T07:14:55.354Z</time></trkpt><trkpt lat="37.8925474" lon="-1.3481241"><ele>174.0</ele><time>2026-04-11T07:14:56.354Z</time></trkpt><trkpt lat="37.8925188" lon="-1.3485256"><ele>175.0</ele><time>2026-04-11T07:14:57.354Z</time></trkpt><trkpt lat="37.8924912" lon="-1.3489292"><ele>175.0</ele><time>2026-04-11T07:14:58.354Z</time></trkpt><trkpt lat="37.8924619" lon="-1.3493334"><ele>175.0</ele><time>2026-04-11T07:14:59.354Z</time></trkpt><trkpt lat="37.8924255" lon="-1.3497368"><ele>176.5</ele><time>2026-04-11T07:15:00.354Z</time></trkpt><trkpt lat="37.8923807" lon="-1.3501381"><ele>178.0</ele><time>2026-04-11T07:15:01.354Z</time></trkpt><trkpt lat="37.8923272" lon="-1.3505383"><ele>177.0</ele><time>2026-04-11T07:15:02.354Z</time></trkpt><trkpt lat="37.8922597" lon="-1.3509308"><ele>176.0</ele><time>2026-04-11T07:15:03.353Z</time></trkpt><trkpt lat="37.8921802" lon="-1.3513233"><ele>175.5</ele><time>2026-04-11T07:15:04.354Z</time></trkpt><trkpt lat="37.8920879" lon="-1.3517084"><ele>175.0</ele><time>2026-04-11T07:15:05.354Z</time></trkpt><trkpt lat="37.8919851" lon="-1.3520862"><ele>175.0</ele><time>2026-04-11T07:15:06.353Z</time></trkpt><trkpt lat="37.8918732" lon="-1.352462"><ele>175.0</ele><time>2026-04-11T07:15:07.354Z</time></trkpt><trkpt lat="37.8917541" lon="-1.3528301"><ele>176.0</ele><time>2026-04-11T07:15:08.354Z</time></trkpt><trkpt lat="37.891624" lon="-1.3531847"><ele>177.0</ele><time>2026-04-11T07:15:09.354Z</time></trkpt><trkpt lat="37.8914875" lon="-1.353532"><ele>178.0</ele><time>2026-04-11T07:15:10.354Z</time></trkpt><trkpt lat="37.8913414" lon="-1.3538743"><ele>179.0</ele><time>2026-04-11T07:15:11.354Z</time></trkpt><trkpt lat="37.8911864" lon="-1.3542116"><ele>179.0</ele><time>2026-04-11T07:15:12.354Z</time></trkpt><trkpt lat="37.8910236" lon="-1.3545398"><ele>179.0</ele><time>2026-04-11T07:15:13.354Z</time></trkpt><trkpt lat="37.8908535" lon="-1.3548644"><ele>179.0</ele><time>2026-04-11T07:15:14.354Z</time></trkpt><trkpt lat="37.8906834" lon="-1.3551855"><ele>179.0</ele><time>2026-04-11T07:15:15.353Z</time></trkpt><trkpt lat="37.8905094" lon="-1.3555042"><ele>179.5</ele><time>2026-04-11T07:15:16.354Z</time></trkpt><trkpt lat="37.8903252" lon="-1.3558161"><ele>180.0</ele><time>2026-04-11T07:15:17.354Z</time></trkpt><trkpt lat="37.8901333" lon="-1.3561186"><ele>179.0</ele><time>2026-04-11T07:15:18.354Z</time></trkpt><trkpt lat="37.8899348" lon="-1.3564064"><ele>178.0</ele><time>2026-04-11T07:15:19.353Z</time></trkpt><trkpt lat="37.8897238" lon="-1.3566878"><ele>178.0</ele><time>2026-04-11T07:15:20.354Z</time></trkpt><trkpt lat="37.8895048" lon="-1.3569579"><ele>178.0</ele><time>2026-04-11T07:15:21.354Z</time></trkpt><trkpt lat="37.8892783" lon="-1.357222"><ele>177.5</ele><time>2026-04-11T07:15:22.354Z</time></trkpt><trkpt lat="37.8890442" lon="-1.3574738"><ele>177.0</ele><time>2026-04-11T07:15:23.354Z</time></trkpt><trkpt lat="37.8888048" lon="-1.357717"><ele>177.0</ele><time>2026-04-11T07:15:24.354Z</time></trkpt><trkpt lat="37.8885564" lon="-1.3579473"><ele>177.0</ele><time>2026-04-11T07:15:25.354Z</time></trkpt><trkpt lat="37.8883041" lon="-1.3581707"><ele>177.5</ele><time>2026-04-11T07:15:26.354Z</time></trkpt><trkpt lat="37.8880453" lon="-1.3583855"><ele>178.0</ele><time>2026-04-11T07:15:27.354Z</time></trkpt><trkpt lat="37.8877847" lon="-1.3585901"><ele>178.0</ele><time>2026-04-11T07:15:28.354Z</time></trkpt><trkpt lat="37.8875219" lon="-1.3587911"><ele>178.0</ele><time>2026-04-11T07:15:29.353Z</time></trkpt><trkpt lat="37.8872558" lon="-1.3589791"><ele>179.0</ele><time>2026-04-11T07:15:30.353Z</time></trkpt><trkpt lat="37.8869863" lon="-1.3591632"><ele>180.0</ele><time>2026-04-11T07:15:31.354Z</time></trkpt><trkpt lat="37.8867158" lon="-1.359343"><ele>178.0</ele><time>2026-04-11T07:15:32.354Z</time></trkpt><trkpt lat="37.8864373" lon="-1.3595182"><ele>176.0</ele><time>2026-04-11T07:15:33.354Z</time></trkpt><trkpt lat="37.8861555" lon="-1.3596825"><ele>177.0</ele><time>2026-04-11T07:15:34.353Z</time></trkpt><trkpt lat="37.8858735" lon="-1.3598381"><ele>178.0</ele><time>2026-04-11T07:15:35.353Z</time></trkpt><trkpt lat="37.8855889" lon="-1.3599873"><ele>178.0</ele><time>2026-04-11T07:15:36.354Z</time></trkpt><trkpt lat="37.8853055" lon="-1.3601366"><ele>178.0</ele><time>2026-04-11T07:15:37.353Z</time></trkpt><trkpt lat="37.885021" lon="-1.3602843"><ele>178.0</ele><time>2026-04-11T07:15:38.353Z</time></trkpt><trkpt lat="37.8847404" lon="-1.3604329"><ele>178.0</ele><time>2026-04-11T07:15:39.354Z</time></trkpt><trkpt lat="37.8844577" lon="-1.3605831"><ele>177.5</ele><time>2026-04-11T07:15:40.354Z</time></trkpt><trkpt lat="37.8841741" lon="-1.3607364"><ele>177.0</ele><time>2026-04-11T07:15:41.353Z</time></trkpt><trkpt lat="37.8838916" lon="-1.3608895"><ele>177.0</ele><time>2026-04-11T07:15:42.354Z</time></trkpt><trkpt lat="37.8836061" lon="-1.361043"><ele>177.0</ele><time>2026-04-11T07:15:43.354Z</time></trkpt><trkpt lat="37.883322" lon="-1.3611974"><ele>176.5</ele><time>2026-04-11T07:15:44.353Z</time></trkpt><trkpt lat="37.88304" lon="-1.3613464"><ele>176.0</ele><time>2026-04-11T07:15:45.353Z</time></trkpt><trkpt lat="37.8827594" lon="-1.3615039"><ele>176.5</ele><time>2026-04-11T07:15:46.354Z</time></trkpt><trkpt lat="37.8824768" lon="-1.3616594"><ele>177.0</ele><time>2026-04-11T07:15:47.354Z</time></trkpt><trkpt lat="37.8821973" lon="-1.3618217"><ele>177.0</ele><time>2026-04-11T07:15:48.354Z</time></trkpt><trkpt lat="37.88192" lon="-1.361988"><ele>177.0</ele><time>2026-04-11T07:15:49.354Z</time></trkpt><trkpt lat="37.8816476" lon="-1.3621616"><ele>178.0</ele><time>2026-04-11T07:15:50.354Z</time></trkpt><trkpt lat="37.8813834" lon="-1.362338"><ele>179.0</ele><time>2026-04-11T07:15:51.354Z</time></trkpt><trkpt lat="37.8811217" lon="-1.3625161"><ele>178.0</ele><time>2026-04-11T07:15:52.353Z</time></trkpt><trkpt lat="37.8808763" lon="-1.3626842"><ele>177.0</ele><time>2026-04-11T07:15:53.354Z</time></trkpt><trkpt lat="37.8806343" lon="-1.3628497"><ele>177.0</ele><time>2026-04-11T07:15:54.354Z</time></trkpt><trkpt lat="37.8803905" lon="-1.3630216"><ele>177.0</ele><time>2026-04-11T07:15:55.354Z</time></trkpt><trkpt lat="37.8801432" lon="-1.3631958"><ele>176.0</ele><time>2026-04-11T07:15:56.353Z</time></trkpt><trkpt lat="37.8798945" lon="-1.3633845"><ele>175.0</ele><time>2026-04-11T07:15:57.354Z</time></trkpt><trkpt lat="37.8796459" lon="-1.3635842"><ele>175.0</ele><time>2026-04-11T07:15:58.354Z</time></trkpt><trkpt lat="37.8794014" lon="-1.3637984"><ele>175.0</ele><time>2026-04-11T07:15:59.353Z</time></trkpt><trkpt lat="37.8791655" lon="-1.3640218"><ele>176.0</ele><time>2026-04-11T07:16:00.353Z</time></trkpt><trkpt lat="37.8789385" lon="-1.3642586"><ele>177.0</ele><time>2026-04-11T07:16:01.353Z</time></trkpt><trkpt lat="37.8787198" lon="-1.3645058"><ele>177.0</ele><time>2026-04-11T07:16:02.354Z</time></trkpt><trkpt lat="37.8785028" lon="-1.3647679"><ele>177.0</ele><time>2026-04-11T07:16:03.354Z</time></trkpt><trkpt lat="37.8782933" lon="-1.36504"><ele>177.0</ele><time>2026-04-11T07:16:04.354Z</time></trkpt><trkpt lat="37.878091" lon="-1.3653234"><ele>177.0</ele><time>2026-04-11T07:16:05.354Z</time></trkpt><trkpt lat="37.8778958" lon="-1.3656217"><ele>176.5</ele><time>2026-04-11T07:16:06.353Z</time></trkpt><trkpt lat="37.8777088" lon="-1.3659298"><ele>176.0</ele><time>2026-04-11T07:16:07.354Z</time></trkpt><trkpt lat="37.8775261" lon="-1.3662426"><ele>177.0</ele><time>2026-04-11T07:16:08.354Z</time></trkpt><trkpt lat="37.8773505" lon="-1.3665642"><ele>178.0</ele><time>2026-04-11T07:16:09.354Z</time></trkpt><trkpt lat="37.8771776" lon="-1.3668904"><ele>177.5</ele><time>2026-04-11T07:16:10.353Z</time></trkpt><trkpt lat="37.8770087" lon="-1.3672194"><ele>177.0</ele><time>2026-04-11T07:16:11.354Z</time></trkpt><trkpt lat="37.8768381" lon="-1.3675507"><ele>178.0</ele><time>2026-04-11T07:16:12.354Z</time></trkpt><trkpt lat="37.8766651" lon="-1.3678795"><ele>179.0</ele><time>2026-04-11T07:16:13.354Z</time></trkpt><trkpt lat="37.8764943" lon="-1.368214"><ele>179.5</ele><time>2026-04-11T07:16:14.353Z</time></trkpt><trkpt lat="37.8763219" lon="-1.3685525"><ele>180.0</ele><time>2026-04-11T07:16:15.354Z</time></trkpt><trkpt lat="37.8761509" lon="-1.3688964"><ele>180.0</ele><time>2026-04-11T07:16:16.354Z</time></trkpt><trkpt lat="37.8759779" lon="-1.3692428"><ele>180.0</ele><time>2026-04-11T07:16:17.354Z</time></trkpt><trkpt lat="37.8758066" lon="-1.369586"><ele>179.0</ele><time>2026-04-11T07:16:18.354Z</time></trkpt><trkpt lat="37.8756347" lon="-1.3699337"><ele>178.0</ele><time>2026-04-11T07:16:19.354Z</time></trkpt><trkpt lat="37.8754629" lon="-1.370279"><ele>179.5</ele><time>2026-04-11T07:16:20.354Z</time></trkpt><trkpt lat="37.8752884" lon="-1.3706292"><ele>181.0</ele><time>2026-04-11T07:16:21.354Z</time></trkpt><trkpt lat="37.8751152" lon="-1.3709768"><ele>180.0</ele><time>2026-04-11T07:16:22.354Z</time></trkpt><trkpt lat="37.874939" lon="-1.3713239"><ele>179.0</ele><time>2026-04-11T07:16:23.354Z</time></trkpt><trkpt lat="37.8747631" lon="-1.3716694"><ele>179.0</ele><time>2026-04-11T07:16:24.354Z</time></trkpt><trkpt lat="37.874587" lon="-1.3720129"><ele>179.0</ele><time>2026-04-11T07:16:25.354Z</time></trkpt><trkpt lat="37.8744088" lon="-1.3723588"><ele>179.0</ele><time>2026-04-11T07:16:26.354Z</time></trkpt><trkpt lat="37.8742321" lon="-1.3727059"><ele>179.0</ele><time>2026-04-11T07:16:27.354Z</time></trkpt><trkpt lat="37.8740565" lon="-1.3730505"><ele>178.0</ele><time>2026-04-11T07:16:28.354Z</time></trkpt><trkpt lat="37.8738771" lon="-1.3733977"><ele>177.0</ele><time>2026-04-11T07:16:29.354Z</time></trkpt><trkpt lat="37.8737015" lon="-1.3737447"><ele>177.0</ele><time>2026-04-11T07:16:30.354Z</time></trkpt><trkpt lat="37.8735234" lon="-1.3740878"><ele>177.0</ele><time>2026-04-11T07:16:31.354Z</time></trkpt><trkpt lat="37.8733466" lon="-1.3744304"><ele>175.0</ele><time>2026-04-11T07:16:32.354Z</time></trkpt><trkpt lat="37.8731692" lon="-1.3747738"><ele>173.0</ele><time>2026-04-11T07:16:33.354Z</time></trkpt><trkpt lat="37.8729908" lon="-1.3751183"><ele>173.0</ele><time>2026-04-11T07:16:34.354Z</time></trkpt><trkpt lat="37.8728132" lon="-1.3754655"><ele>173.0</ele><time>2026-04-11T07:16:35.354Z</time></trkpt><trkpt lat="37.8726333" lon="-1.375809"><ele>173.0</ele><time>2026-04-11T07:16:36.354Z</time></trkpt><trkpt lat="37.872456" lon="-1.3761542"><ele>173.0</ele><time>2026-04-11T07:16:37.354Z</time></trkpt><trkpt lat="37.872278" lon="-1.3764981"><ele>173.0</ele><time>2026-04-11T07:16:38.354Z</time></trkpt><trkpt lat="37.8721011" lon="-1.3768408"><ele>173.0</ele><time>2026-04-11T07:16:39.354Z</time></trkpt><trkpt lat="37.8719224" lon="-1.3771866"><ele>171.5</ele><time>2026-04-11T07:16:40.354Z</time></trkpt><trkpt lat="37.8717455" lon="-1.3775303"><ele>170.0</ele><time>2026-04-11T07:16:41.353Z</time></trkpt><trkpt lat="37.8715719" lon="-1.377874"><ele>170.0</ele><time>2026-04-11T07:16:42.353Z</time></trkpt><trkpt lat="37.8713949" lon="-1.3782178"><ele>170.0</ele><time>2026-04-11T07:16:43.354Z</time></trkpt><trkpt lat="37.8712214" lon="-1.378558"><ele>170.0</ele><time>2026-04-11T07:16:44.354Z</time></trkpt><trkpt lat="37.8710427" lon="-1.3789001"><ele>170.0</ele><time>2026-04-11T07:16:45.354Z</time></trkpt><trkpt lat="37.8708667" lon="-1.3792397"><ele>169.5</ele><time>2026-04-11T07:16:46.354Z</time></trkpt><trkpt lat="37.8706901" lon="-1.3795812"><ele>169.0</ele><time>2026-04-11T07:16:47.354Z</time></trkpt><trkpt lat="37.8705153" lon="-1.3799203"><ele>169.0</ele><time>2026-04-11T07:16:48.354Z</time></trkpt><trkpt lat="37.8703407" lon="-1.3802641"><ele>169.0</ele><time>2026-04-11T07:16:49.354Z</time></trkpt><trkpt lat="37.8701634" lon="-1.3806059"><ele>170.0</ele><time>2026-04-11T07:16:50.354Z</time></trkpt><trkpt lat="37.8699878" lon="-1.3809481"><ele>171.0</ele><time>2026-04-11T07:16:51.354Z</time></trkpt><trkpt lat="37.8698136" lon="-1.3812928"><ele>172.5</ele><time>2026-04-11T07:16:52.354Z</time></trkpt><trkpt lat="37.8696378" lon="-1.3816366"><ele>174.0</ele><time>2026-04-11T07:16:53.353Z</time></trkpt><trkpt lat="37.8694613" lon="-1.381982"><ele>174.0</ele><time>2026-04-11T07:16:54.354Z</time></trkpt><trkpt lat="37.8692845" lon="-1.382326"><ele>174.0</ele><time>2026-04-11T07:16:55.353Z</time></trkpt><trkpt lat="37.8691072" lon="-1.3826676"><ele>173.5</ele><time>2026-04-11T07:16:56.353Z</time></trkpt><trkpt lat="37.8689283" lon="-1.3830104"><ele>173.0</ele><time>2026-04-11T07:16:57.353Z</time></trkpt><trkpt lat="37.8687479" lon="-1.3833546"><ele>173.0</ele><time>2026-04-11T07:16:58.354Z</time></trkpt><trkpt lat="37.8685698" lon="-1.3837004"><ele>173.0</ele><time>2026-04-11T07:16:59.354Z</time></trkpt><trkpt lat="37.8683929" lon="-1.3840429"><ele>172.5</ele><time>2026-04-11T07:17:00.353Z</time></trkpt><trkpt lat="37.8682149" lon="-1.3843888"><ele>172.0</ele><time>2026-04-11T07:17:01.354Z</time></trkpt><trkpt lat="37.8680386" lon="-1.3847299"><ele>172.0</ele><time>2026-04-11T07:17:02.354Z</time></trkpt><trkpt lat="37.8678606" lon="-1.3850714"><ele>172.0</ele><time>2026-04-11T07:17:03.354Z</time></trkpt><trkpt lat="37.8676849" lon="-1.3854136"><ele>170.5</ele><time>2026-04-11T07:17:04.354Z</time></trkpt><trkpt lat="37.8675064" lon="-1.3857569"><ele>169.0</ele><time>2026-04-11T07:17:05.354Z</time></trkpt><trkpt lat="37.867329" lon="-1.3860997"><ele>170.0</ele><time>2026-04-11T07:17:06.354Z</time></trkpt><trkpt lat="37.8671526" lon="-1.3864405"><ele>171.0</ele><time>2026-04-11T07:17:07.354Z</time></trkpt><trkpt lat="37.8669717" lon="-1.3867846"><ele>171.0</ele><time>2026-04-11T07:17:08.354Z</time></trkpt><trkpt lat="37.8667904" lon="-1.3871265"><ele>171.0</ele><time>2026-04-11T07:17:09.354Z</time></trkpt><trkpt lat="37.8666093" lon="-1.387466"><ele>171.0</ele><time>2026-04-11T07:17:10.354Z</time></trkpt><trkpt lat="37.8664236" lon="-1.3878018"><ele>171.0</ele><time>2026-04-11T07:17:11.354Z</time></trkpt><trkpt lat="37.8662445" lon="-1.3881377"><ele>170.5</ele><time>2026-04-11T07:17:12.354Z</time></trkpt><trkpt lat="37.8660654" lon="-1.3884796"><ele>170.0</ele><time>2026-04-11T07:17:13.354Z</time></trkpt><trkpt lat="37.8658853" lon="-1.3888232"><ele>171.0</ele><time>2026-04-11T07:17:14.354Z</time></trkpt><trkpt lat="37.8657032" lon="-1.389171"><ele>172.0</ele><time>2026-04-11T07:17:15.354Z</time></trkpt><trkpt lat="37.865521" lon="-1.3895235"><ele>173.5</ele><time>2026-04-11T07:17:16.354Z</time></trkpt><trkpt lat="37.8653377" lon="-1.3898787"><ele>175.0</ele><time>2026-04-11T07:17:17.354Z</time></trkpt><trkpt lat="37.8651532" lon="-1.3902365"><ele>174.5</ele><time>2026-04-11T07:17:18.353Z</time></trkpt><trkpt lat="37.8649678" lon="-1.3905947"><ele>174.0</ele><time>2026-04-11T07:17:19.354Z</time></trkpt><trkpt lat="37.8647823" lon="-1.3909561"><ele>174.0</ele><time>2026-04-11T07:17:20.354Z</time></trkpt><trkpt lat="37.8645964" lon="-1.3913195"><ele>174.0</ele><time>2026-04-11T07:17:21.354Z</time></trkpt><trkpt lat="37.8644127" lon="-1.3916847"><ele>174.5</ele><time>2026-04-11T07:17:22.354Z</time></trkpt><trkpt lat="37.8642275" lon="-1.3920485"><ele>175.0</ele><time>2026-04-11T07:17:23.354Z</time></trkpt><trkpt lat="37.8640388" lon="-1.3924107"><ele>175.0</ele><time>2026-04-11T07:17:24.353Z</time></trkpt><trkpt lat="37.8638494" lon="-1.3927742"><ele>175.0</ele><time>2026-04-11T07:17:25.354Z</time></trkpt><trkpt lat="37.8636583" lon="-1.3931432"><ele>175.5</ele><time>2026-04-11T07:17:26.354Z</time></trkpt><trkpt lat="37.8634718" lon="-1.3935046"><ele>176.0</ele><time>2026-04-11T07:17:27.354Z</time></trkpt><trkpt lat="37.8632857" lon="-1.3938708"><ele>176.0</ele><time>2026-04-11T07:17:28.353Z</time></trkpt><trkpt lat="37.8631007" lon="-1.3942335"><ele>176.0</ele><time>2026-04-11T07:17:29.353Z</time></trkpt><trkpt lat="37.8629147" lon="-1.3945923"><ele>176.5</ele><time>2026-04-11T07:17:30.354Z</time></trkpt><trkpt lat="37.8627258" lon="-1.3949563"><ele>177.0</ele><time>2026-04-11T07:17:31.354Z</time></trkpt><trkpt lat="37.8625334" lon="-1.3953175"><ele>179.5</ele><time>2026-04-11T07:17:32.354Z</time></trkpt><trkpt lat="37.8623315" lon="-1.3956699"><ele>182.0</ele><time>2026-04-11T07:17:33.354Z</time></trkpt><trkpt lat="37.8621214" lon="-1.3960108"><ele>182.5</ele><time>2026-04-11T07:17:34.354Z</time></trkpt><trkpt lat="37.8618964" lon="-1.3963385"><ele>183.0</ele><time>2026-04-11T07:17:35.354Z</time></trkpt><trkpt lat="37.8616631" lon="-1.3966544"><ele>182.0</ele><time>2026-04-11T07:17:36.354Z</time></trkpt><trkpt lat="37.8614207" lon="-1.3969626"><ele>181.0</ele><time>2026-04-11T07:17:37.353Z</time></trkpt><trkpt lat="37.861167" lon="-1.3972552"><ele>179.5</ele><time>2026-04-11T07:17:38.354Z</time></trkpt><trkpt lat="37.8609015" lon="-1.3975392"><ele>178.0</ele><time>2026-04-11T07:17:39.353Z</time></trkpt><trkpt lat="37.8606254" lon="-1.397805"><ele>179.0</ele><time>2026-04-11T07:17:40.354Z</time></trkpt><trkpt lat="37.8603442" lon="-1.3980587"><ele>180.0</ele><time>2026-04-11T07:17:41.353Z</time></trkpt><trkpt lat="37.8600555" lon="-1.3983043"><ele>180.0</ele><time>2026-04-11T07:17:42.354Z</time></trkpt><trkpt lat="37.8597596" lon="-1.3985372"><ele>180.0</ele><time>2026-04-11T07:17:43.354Z</time></trkpt><trkpt lat="37.8594572" lon="-1.3987563"><ele>180.0</ele><time>2026-04-11T07:17:44.354Z</time></trkpt><trkpt lat="37.8591548" lon="-1.3989544"><ele>180.0</ele><time>2026-04-11T07:17:45.353Z</time></trkpt><trkpt lat="37.8588415" lon="-1.3991473"><ele>180.0</ele><time>2026-04-11T07:17:46.354Z</time></trkpt><trkpt lat="37.8585261" lon="-1.3993298"><ele>180.0</ele><time>2026-04-11T07:17:47.353Z</time></trkpt><trkpt lat="37.8582063" lon="-1.3994971"><ele>178.0</ele><time>2026-04-11T07:17:48.353Z</time></trkpt><trkpt lat="37.8578802" lon="-1.3996448"><ele>176.0</ele><time>2026-04-11T07:17:49.353Z</time></trkpt><trkpt lat="37.8575512" lon="-1.3997755"><ele>174.5</ele><time>2026-04-11T07:17:50.354Z</time></trkpt><trkpt lat="37.8572178" lon="-1.3998939"><ele>173.0</ele><time>2026-04-11T07:17:51.354Z</time></trkpt><trkpt lat="37.8568809" lon="-1.3999921"><ele>171.0</ele><time>2026-04-11T07:17:52.354Z</time></trkpt><trkpt lat="37.8565379" lon="-1.400072"><ele>169.0</ele><time>2026-04-11T07:17:53.354Z</time></trkpt><trkpt lat="37.8561949" lon="-1.4001313"><ele>166.5</ele><time>2026-04-11T07:17:54.354Z</time></trkpt><trkpt lat="37.8558496" lon="-1.4001781"><ele>164.0</ele><time>2026-04-11T07:17:55.354Z</time></trkpt><trkpt lat="37.8554999" lon="-1.4001981"><ele>164.0</ele><time>2026-04-11T07:17:56.354Z</time></trkpt><trkpt lat="37.855155" lon="-1.4002082"><ele>164.0</ele><time>2026-04-11T07:17:57.354Z</time></trkpt><trkpt lat="37.8548079" lon="-1.4001976"><ele>164.0</ele><time>2026-04-11T07:17:58.354Z</time></trkpt><trkpt lat="37.8544588" lon="-1.4001663"><ele>164.0</ele><time>2026-04-11T07:17:59.354Z</time></trkpt><trkpt lat="37.8541185" lon="-1.4001166"><ele>162.5</ele><time>2026-04-11T07:18:00.353Z</time></trkpt><trkpt lat="37.853776" lon="-1.4000552"><ele>161.0</ele><time>2026-04-11T07:18:01.354Z</time></trkpt><trkpt lat="37.8534361" lon="-1.3999778"><ele>161.0</ele><time>2026-04-11T07:18:02.353Z</time></trkpt><trkpt lat="37.8530981" lon="-1.399893"><ele>161.0</ele><time>2026-04-11T07:18:03.354Z</time></trkpt><trkpt lat="37.8527599" lon="-1.3997947"><ele>159.5</ele><time>2026-04-11T07:18:04.353Z</time></trkpt><trkpt lat="37.8524263" lon="-1.3996941"><ele>158.0</ele><time>2026-04-11T07:18:05.353Z</time></trkpt><trkpt lat="37.8520901" lon="-1.3995897"><ele>155.5</ele><time>2026-04-11T07:18:06.354Z</time></trkpt><trkpt lat="37.8517564" lon="-1.399491"><ele>153.0</ele><time>2026-04-11T07:18:07.354Z</time></trkpt><trkpt lat="37.8514247" lon="-1.3993909"><ele>153.0</ele><time>2026-04-11T07:18:08.354Z</time></trkpt><trkpt lat="37.8510931" lon="-1.3992921"><ele>153.0</ele><time>2026-04-11T07:18:09.354Z</time></trkpt><trkpt lat="37.8507603" lon="-1.3991902"><ele>153.0</ele><time>2026-04-11T07:18:10.354Z</time></trkpt><trkpt lat="37.850426" lon="-1.399093"><ele>153.0</ele><time>2026-04-11T07:18:11.354Z</time></trkpt><trkpt lat="37.8500919" lon="-1.3989955"><ele>153.0</ele><time>2026-04-11T07:18:12.354Z</time></trkpt><trkpt lat="37.849756" lon="-1.3989036"><ele>153.0</ele><time>2026-04-11T07:18:13.354Z</time></trkpt><trkpt lat="37.8494174" lon="-1.3988173"><ele>153.0</ele><time>2026-04-11T07:18:14.353Z</time></trkpt><trkpt lat="37.8490772" lon="-1.3987347"><ele>153.0</ele><time>2026-04-11T07:18:15.354Z</time></trkpt><trkpt lat="37.8487397" lon="-1.3986541"><ele>152.5</ele><time>2026-04-11T07:18:16.354Z</time></trkpt><trkpt lat="37.8483962" lon="-1.3985859"><ele>152.0</ele><time>2026-04-11T07:18:17.353Z</time></trkpt><trkpt lat="37.8480573" lon="-1.3985212"><ele>152.0</ele><time>2026-04-11T07:18:18.354Z</time></trkpt><trkpt lat="37.8477192" lon="-1.3984625"><ele>152.0</ele><time>2026-04-11T07:18:19.353Z</time></trkpt><trkpt lat="37.8473777" lon="-1.3984021"><ele>151.5</ele><time>2026-04-11T07:18:20.354Z</time></trkpt><trkpt lat="37.8470381" lon="-1.3983479"><ele>151.0</ele><time>2026-04-11T07:18:21.354Z</time></trkpt><trkpt lat="37.8466976" lon="-1.3983012"><ele>152.5</ele><time>2026-04-11T07:18:22.354Z</time></trkpt><trkpt lat="37.846356" lon="-1.398262"><ele>154.0</ele><time>2026-04-11T07:18:23.354Z</time></trkpt><trkpt lat="37.8460146" lon="-1.3982281"><ele>152.5</ele><time>2026-04-11T07:18:24.353Z</time></trkpt><trkpt lat="37.8456698" lon="-1.398199"><ele>151.0</ele><time>2026-04-11T07:18:25.354Z</time></trkpt><trkpt lat="37.8453295" lon="-1.3981764"><ele>150.5</ele><time>2026-04-11T07:18:26.354Z</time></trkpt><trkpt lat="37.8449865" lon="-1.3981602"><ele>150.0</ele><time>2026-04-11T07:18:27.354Z</time></trkpt><trkpt lat="37.8446421" lon="-1.3981486"><ele>150.0</ele><time>2026-04-11T07:18:28.354Z</time></trkpt><trkpt lat="37.8442965" lon="-1.3981408"><ele>150.0</ele><time>2026-04-11T07:18:29.354Z</time></trkpt><trkpt lat="37.8439525" lon="-1.3981422"><ele>151.0</ele><time>2026-04-11T07:18:30.354Z</time></trkpt><trkpt lat="37.8436054" lon="-1.3981482"><ele>152.0</ele><time>2026-04-11T07:18:31.354Z</time></trkpt><trkpt lat="37.8432607" lon="-1.3981595"><ele>152.0</ele><time>2026-04-11T07:18:32.354Z</time></trkpt><trkpt lat="37.8429143" lon="-1.3981751"><ele>152.0</ele><time>2026-04-11T07:18:33.354Z</time></trkpt><trkpt lat="37.8425664" lon="-1.398192"><ele>151.5</ele><time>2026-04-11T07:18:34.354Z</time></trkpt><trkpt lat="37.8422237" lon="-1.3982185"><ele>151.0</ele><time>2026-04-11T07:18:35.354Z</time></trkpt><trkpt lat="37.8418792" lon="-1.398249"><ele>151.5</ele><time>2026-04-11T07:18:36.354Z</time></trkpt><trkpt lat="37.8415316" lon="-1.3982858"><ele>152.0</ele><time>2026-04-11T07:18:37.354Z</time></trkpt><trkpt lat="37.8411927" lon="-1.3983295"><ele>152.0</ele><time>2026-04-11T07:18:38.353Z</time></trkpt><trkpt lat="37.8408514" lon="-1.3983802"><ele>152.0</ele><time>2026-04-11T07:18:39.354Z</time></trkpt><trkpt lat="37.8405084" lon="-1.3984336"><ele>152.0</ele><time>2026-04-11T07:18:40.354Z</time></trkpt><trkpt lat="37.8401674" lon="-1.3984927"><ele>152.0</ele><time>2026-04-11T07:18:41.354Z</time></trkpt><trkpt lat="37.839826" lon="-1.3985558"><ele>153.0</ele><time>2026-04-11T07:18:42.354Z</time></trkpt><trkpt lat="37.8394836" lon="-1.3986208"><ele>154.0</ele><time>2026-04-11T07:18:43.354Z</time></trkpt><trkpt lat="37.8391444" lon="-1.3986949"><ele>154.0</ele><time>2026-04-11T07:18:44.354Z</time></trkpt><trkpt lat="37.8388043" lon="-1.3987746"><ele>154.0</ele><time>2026-04-11T07:18:45.354Z</time></trkpt><trkpt lat="37.8384674" lon="-1.3988629"><ele>154.0</ele><time>2026-04-11T07:18:46.354Z</time></trkpt><trkpt lat="37.8381294" lon="-1.3989545"><ele>154.0</ele><time>2026-04-11T07:18:47.354Z</time></trkpt><trkpt lat="37.8377969" lon="-1.3990547"><ele>155.0</ele><time>2026-04-11T07:18:48.354Z</time></trkpt><trkpt lat="37.8374633" lon="-1.3991568"><ele>156.0</ele><time>2026-04-11T07:18:49.354Z</time></trkpt><trkpt lat="37.8371298" lon="-1.3992694"><ele>155.0</ele><time>2026-04-11T07:18:50.354Z</time></trkpt><trkpt lat="37.8367981" lon="-1.3993844"><ele>154.0</ele><time>2026-04-11T07:18:51.354Z</time></trkpt><trkpt lat="37.8364654" lon="-1.3995058"><ele>154.0</ele><time>2026-04-11T07:18:52.354Z</time></trkpt><trkpt lat="37.8361365" lon="-1.3996304"><ele>154.0</ele><time>2026-04-11T07:18:53.354Z</time></trkpt><trkpt lat="37.8358088" lon="-1.3997644"><ele>154.5</ele><time>2026-04-11T07:18:54.353Z</time></trkpt><trkpt lat="37.8354834" lon="-1.3999013"><ele>155.0</ele><time>2026-04-11T07:18:55.354Z</time></trkpt><trkpt lat="37.8351554" lon="-1.4000412"><ele>154.5</ele><time>2026-04-11T07:18:56.354Z</time></trkpt><trkpt lat="37.8348305" lon="-1.4001823"><ele>154.0</ele><time>2026-04-11T07:18:57.354Z</time></trkpt><trkpt lat="37.8345091" lon="-1.4003307"><ele>154.0</ele><time>2026-04-11T07:18:58.354Z</time></trkpt><trkpt lat="37.8341869" lon="-1.4004885"><ele>154.0</ele><time>2026-04-11T07:18:59.354Z</time></trkpt><trkpt lat="37.8338668" lon="-1.4006516"><ele>153.5</ele><time>2026-04-11T07:19:00.354Z</time></trkpt><trkpt lat="37.8335442" lon="-1.4008209"><ele>153.0</ele><time>2026-04-11T07:19:01.354Z</time></trkpt><trkpt lat="37.8332283" lon="-1.4009944"><ele>153.0</ele><time>2026-04-11T07:19:02.354Z</time></trkpt><trkpt lat="37.8329101" lon="-1.4011722"><ele>153.0</ele><time>2026-04-11T07:19:03.354Z</time></trkpt><trkpt lat="37.8325954" lon="-1.4013491"><ele>155.0</ele><time>2026-04-11T07:19:04.354Z</time></trkpt><trkpt lat="37.8322818" lon="-1.4015345"><ele>157.0</ele><time>2026-04-11T07:19:05.354Z</time></trkpt><trkpt lat="37.8319754" lon="-1.401723"><ele>156.5</ele><time>2026-04-11T07:19:06.354Z</time></trkpt><trkpt lat="37.8316659" lon="-1.4019191"><ele>156.0</ele><time>2026-04-11T07:19:07.354Z</time></trkpt><trkpt lat="37.8313601" lon="-1.4021222"><ele>156.0</ele><time>2026-04-11T07:19:08.354Z</time></trkpt><trkpt lat="37.8310565" lon="-1.4023309"><ele>156.0</ele><time>2026-04-11T07:19:09.353Z</time></trkpt><trkpt lat="37.8307572" lon="-1.402551"><ele>157.0</ele><time>2026-04-11T07:19:10.354Z</time></trkpt><trkpt lat="37.8304611" lon="-1.4027755"><ele>158.0</ele><time>2026-04-11T07:19:11.354Z</time></trkpt><trkpt lat="37.8301663" lon="-1.4030063"><ele>156.5</ele><time>2026-04-11T07:19:12.354Z</time></trkpt><trkpt lat="37.8298732" lon="-1.4032338"><ele>155.0</ele><time>2026-04-11T07:19:13.353Z</time></trkpt><trkpt lat="37.8295809" lon="-1.4034692"><ele>156.0</ele><time>2026-04-11T07:19:14.353Z</time></trkpt><trkpt lat="37.8292937" lon="-1.4037062"><ele>157.0</ele><time>2026-04-11T07:19:15.354Z</time></trkpt><trkpt lat="37.8290086" lon="-1.4039452"><ele>157.0</ele><time>2026-04-11T07:19:16.353Z</time></trkpt><trkpt lat="37.8287238" lon="-1.4041868"><ele>157.0</ele><time>2026-04-11T07:19:17.354Z</time></trkpt><trkpt lat="37.8284411" lon="-1.4044315"><ele>157.5</ele><time>2026-04-11T07:19:18.353Z</time></trkpt><trkpt lat="37.8281561" lon="-1.4046807"><ele>158.0</ele><time>2026-04-11T07:19:19.354Z</time></trkpt><trkpt lat="37.8278741" lon="-1.4049317"><ele>159.5</ele><time>2026-04-11T07:19:20.354Z</time></trkpt><trkpt lat="37.8275997" lon="-1.4051782"><ele>161.0</ele><time>2026-04-11T07:19:21.354Z</time></trkpt><trkpt lat="37.827326" lon="-1.4054367"><ele>160.5</ele><time>2026-04-11T07:19:22.354Z</time></trkpt><trkpt lat="37.8270561" lon="-1.4057045"><ele>160.0</ele><time>2026-04-11T07:19:23.354Z</time></trkpt><trkpt lat="37.8267891" lon="-1.4059771"><ele>159.5</ele><time>2026-04-11T07:19:24.353Z</time></trkpt><trkpt lat="37.8265259" lon="-1.4062565"><ele>159.0</ele><time>2026-04-11T07:19:25.353Z</time></trkpt><trkpt lat="37.8262671" lon="-1.4065442"><ele>158.5</ele><time>2026-04-11T07:19:26.354Z</time></trkpt><trkpt lat="37.8260085" lon="-1.4068347"><ele>158.0</ele><time>2026-04-11T07:19:27.354Z</time></trkpt><trkpt lat="37.8257533" lon="-1.4071276"><ele>158.0</ele><time>2026-04-11T07:19:28.354Z</time></trkpt><trkpt lat="37.8255025" lon="-1.4074246"><ele>158.0</ele><time>2026-04-11T07:19:29.354Z</time></trkpt><trkpt lat="37.8252595" lon="-1.4077265"><ele>159.0</ele><time>2026-04-11T07:19:30.354Z</time></trkpt><trkpt lat="37.8250152" lon="-1.4080339"><ele>160.0</ele><time>2026-04-11T07:19:31.354Z</time></trkpt><trkpt lat="37.8247767" lon="-1.4083481"><ele>160.0</ele><time>2026-04-11T07:19:32.354Z</time></trkpt><trkpt lat="37.8245364" lon="-1.4086634"><ele>160.0</ele><time>2026-04-11T07:19:33.353Z</time></trkpt><trkpt lat="37.8242987" lon="-1.4089795"><ele>161.0</ele><time>2026-04-11T07:19:34.354Z</time></trkpt><trkpt lat="37.8240651" lon="-1.4092991"><ele>162.0</ele><time>2026-04-11T07:19:35.353Z</time></trkpt><trkpt lat="37.8238336" lon="-1.4096214"><ele>161.0</ele><time>2026-04-11T07:19:36.354Z</time></trkpt><trkpt lat="37.823603" lon="-1.4099457"><ele>160.0</ele><time>2026-04-11T07:19:37.354Z</time></trkpt><trkpt lat="37.8233751" lon="-1.4102721"><ele>160.5</ele><time>2026-04-11T07:19:38.354Z</time></trkpt><trkpt lat="37.8231483" lon="-1.4105998"><ele>161.0</ele><time>2026-04-11T07:19:39.354Z</time></trkpt><trkpt lat="37.8229208" lon="-1.4109259"><ele>161.0</ele><time>2026-04-11T07:19:40.353Z</time></trkpt><trkpt lat="37.8226944" lon="-1.4112536"><ele>161.0</ele><time>2026-04-11T07:19:41.354Z</time></trkpt><trkpt lat="37.8224689" lon="-1.4115862"><ele>161.5</ele><time>2026-04-11T07:19:42.354Z</time></trkpt><trkpt lat="37.8222427" lon="-1.4119169"><ele>162.0</ele><time>2026-04-11T07:19:43.354Z</time></trkpt><trkpt lat="37.8220132" lon="-1.4122421"><ele>161.5</ele><time>2026-04-11T07:19:44.354Z</time></trkpt><trkpt lat="37.8217831" lon="-1.4125714"><ele>161.0</ele><time>2026-04-11T07:19:45.354Z</time></trkpt><trkpt lat="37.8215547" lon="-1.4128986"><ele>161.0</ele><time>2026-04-11T07:19:46.354Z</time></trkpt><trkpt lat="37.821323" lon="-1.4132205"><ele>161.0</ele><time>2026-04-11T07:19:47.354Z</time></trkpt><trkpt lat="37.8210943" lon="-1.4135411"><ele>160.5</ele><time>2026-04-11T07:19:48.354Z</time></trkpt><trkpt lat="37.8208633" lon="-1.4138569"><ele>160.0</ele><time>2026-04-11T07:19:49.354Z</time></trkpt><trkpt lat="37.8206302" lon="-1.4141775"><ele>160.0</ele><time>2026-04-11T07:19:50.354Z</time></trkpt><trkpt lat="37.8203973" lon="-1.4144903"><ele>160.0</ele><time>2026-04-11T07:19:51.354Z</time></trkpt><trkpt lat="37.8201618" lon="-1.4148056"><ele>163.0</ele><time>2026-04-11T07:19:52.354Z</time></trkpt><trkpt lat="37.8199209" lon="-1.4151213"><ele>166.0</ele><time>2026-04-11T07:19:53.354Z</time></trkpt><trkpt lat="37.8196796" lon="-1.4154308"><ele>165.0</ele><time>2026-04-11T07:19:54.354Z</time></trkpt><trkpt lat="37.8194352" lon="-1.4157363"><ele>164.0</ele><time>2026-04-11T07:19:55.354Z</time></trkpt><trkpt lat="37.8191883" lon="-1.4160353"><ele>163.0</ele><time>2026-04-11T07:19:56.354Z</time></trkpt><trkpt lat="37.8189346" lon="-1.4163308"><ele>162.0</ele><time>2026-04-11T07:19:57.353Z</time></trkpt><trkpt lat="37.8186803" lon="-1.4166215"><ele>162.5</ele><time>2026-04-11T07:19:58.354Z</time></trkpt><trkpt lat="37.818422" lon="-1.4169115"><ele>163.0</ele><time>2026-04-11T07:19:59.353Z</time></trkpt><trkpt lat="37.8181613" lon="-1.4172013"><ele>163.0</ele><time>2026-04-11T07:20:00.354Z</time></trkpt><trkpt lat="37.8178976" lon="-1.417486"><ele>163.0</ele><time>2026-04-11T07:20:01.353Z</time></trkpt><trkpt lat="37.8176352" lon="-1.4177642"><ele>163.5</ele><time>2026-04-11T07:20:02.354Z</time></trkpt><trkpt lat="37.8173694" lon="-1.4180377"><ele>164.0</ele><time>2026-04-11T07:20:03.354Z</time></trkpt><trkpt lat="37.8170994" lon="-1.4183088"><ele>164.0</ele><time>2026-04-11T07:20:04.354Z</time></trkpt><trkpt lat="37.8168259" lon="-1.4185763"><ele>164.0</ele><time>2026-04-11T07:20:05.353Z</time></trkpt><trkpt lat="37.8165462" lon="-1.4188372"><ele>164.0</ele><time>2026-04-11T07:20:06.354Z</time></trkpt><trkpt lat="37.8162626" lon="-1.4190941"><ele>164.0</ele><time>2026-04-11T07:20:07.354Z</time></trkpt><trkpt lat="37.8159787" lon="-1.4193441"><ele>163.0</ele><time>2026-04-11T07:20:08.354Z</time></trkpt><trkpt lat="37.8156923" lon="-1.4195902"><ele>162.0</ele><time>2026-04-11T07:20:09.354Z</time></trkpt><trkpt lat="37.8154017" lon="-1.4198269"><ele>162.5</ele><time>2026-04-11T07:20:10.354Z</time></trkpt><trkpt lat="37.8151116" lon="-1.4200565"><ele>163.0</ele><time>2026-04-11T07:20:11.353Z</time></trkpt><trkpt lat="37.8148154" lon="-1.4202819"><ele>163.0</ele><time>2026-04-11T07:20:12.354Z</time></trkpt><trkpt lat="37.8145174" lon="-1.4205016"><ele>163.0</ele><time>2026-04-11T07:20:13.354Z</time></trkpt><trkpt lat="37.8142186" lon="-1.4207159"><ele>163.5</ele><time>2026-04-11T07:20:14.354Z</time></trkpt><trkpt lat="37.8139159" lon="-1.4209204"><ele>164.0</ele><time>2026-04-11T07:20:15.354Z</time></trkpt><trkpt lat="37.813611" lon="-1.4211176"><ele>164.5</ele><time>2026-04-11T07:20:16.354Z</time></trkpt><trkpt lat="37.8133046" lon="-1.4213119"><ele>165.0</ele><time>2026-04-11T07:20:17.354Z</time></trkpt><trkpt lat="37.8129948" lon="-1.4215008"><ele>165.0</ele><time>2026-04-11T07:20:18.354Z</time></trkpt><trkpt lat="37.8126811" lon="-1.4216838"><ele>165.0</ele><time>2026-04-11T07:20:19.354Z</time></trkpt><trkpt lat="37.8123649" lon="-1.4218593"><ele>164.5</ele><time>2026-04-11T07:20:20.354Z</time></trkpt><trkpt lat="37.8120458" lon="-1.422026"><ele>164.0</ele><time>2026-04-11T07:20:21.353Z</time></trkpt><trkpt lat="37.8117247" lon="-1.4221826"><ele>164.0</ele><time>2026-04-11T07:20:22.354Z</time></trkpt><trkpt lat="37.8113999" lon="-1.4223307"><ele>164.0</ele><time>2026-04-11T07:20:23.354Z</time></trkpt><trkpt lat="37.8110748" lon="-1.4224755"><ele>164.0</ele><time>2026-04-11T07:20:24.354Z</time></trkpt><trkpt lat="37.810749" lon="-1.4226161"><ele>164.0</ele><time>2026-04-11T07:20:25.353Z</time></trkpt><trkpt lat="37.8104196" lon="-1.4227473"><ele>164.0</ele><time>2026-04-11T07:20:26.354Z</time></trkpt><trkpt lat="37.8100904" lon="-1.4228738"><ele>164.0</ele><time>2026-04-11T07:20:27.354Z</time></trkpt><trkpt lat="37.8097587" lon="-1.4229924"><ele>163.5</ele><time>2026-04-11T07:20:28.354Z</time></trkpt><trkpt lat="37.8094248" lon="-1.4231021"><ele>163.0</ele><time>2026-04-11T07:20:29.354Z</time></trkpt><trkpt lat="37.8090899" lon="-1.4232079"><ele>163.0</ele><time>2026-04-11T07:20:30.354Z</time></trkpt><trkpt lat="37.8087551" lon="-1.4233024"><ele>163.0</ele><time>2026-04-11T07:20:31.354Z</time></trkpt><trkpt lat="37.8084176" lon="-1.42339"><ele>161.5</ele><time>2026-04-11T07:20:32.354Z</time></trkpt><trkpt lat="37.8080788" lon="-1.4234695"><ele>160.0</ele><time>2026-04-11T07:20:33.353Z</time></trkpt><trkpt lat="37.8077394" lon="-1.4235429"><ele>161.5</ele><time>2026-04-11T07:20:34.353Z</time></trkpt><trkpt lat="37.8073968" lon="-1.4236094"><ele>163.0</ele><time>2026-04-11T07:20:35.354Z</time></trkpt><trkpt lat="37.8070533" lon="-1.4236679"><ele>163.5</ele><time>2026-04-11T07:20:36.354Z</time></trkpt><trkpt lat="37.8067098" lon="-1.4237202"><ele>164.0</ele><time>2026-04-11T07:20:37.354Z</time></trkpt><trkpt lat="37.8063664" lon="-1.4237694"><ele>164.0</ele><time>2026-04-11T07:20:38.354Z</time></trkpt><trkpt lat="37.8060214" lon="-1.4238125"><ele>164.0</ele><time>2026-04-11T07:20:39.354Z</time></trkpt><trkpt lat="37.8056775" lon="-1.4238503"><ele>164.0</ele><time>2026-04-11T07:20:40.353Z</time></trkpt><trkpt lat="37.8053345" lon="-1.4238886"><ele>164.0</ele><time>2026-04-11T07:20:41.354Z</time></trkpt><trkpt lat="37.8049939" lon="-1.4239259"><ele>164.0</ele><time>2026-04-11T07:20:42.353Z</time></trkpt><trkpt lat="37.804649" lon="-1.423962"><ele>164.0</ele><time>2026-04-11T07:20:43.354Z</time></trkpt><trkpt lat="37.8043068" lon="-1.4240033"><ele>165.0</ele><time>2026-04-11T07:20:44.354Z</time></trkpt><trkpt lat="37.8039582" lon="-1.4240461"><ele>166.0</ele><time>2026-04-11T07:20:45.354Z</time></trkpt><trkpt lat="37.8036111" lon="-1.4240899"><ele>164.5</ele><time>2026-04-11T07:20:46.353Z</time></trkpt><trkpt lat="37.8032777" lon="-1.4241369"><ele>163.0</ele><time>2026-04-11T07:20:47.353Z</time></trkpt><trkpt lat="37.8029327" lon="-1.424191"><ele>162.5</ele><time>2026-04-11T07:20:48.354Z</time></trkpt><trkpt lat="37.802586" lon="-1.4242497"><ele>162.0</ele><time>2026-04-11T07:20:49.354Z</time></trkpt><trkpt lat="37.8022455" lon="-1.4243144"><ele>162.0</ele><time>2026-04-11T07:20:50.354Z</time></trkpt><trkpt lat="37.8019017" lon="-1.4243899"><ele>162.0</ele><time>2026-04-11T07:20:51.354Z</time></trkpt><trkpt lat="37.8015633" lon="-1.424476"><ele>163.0</ele><time>2026-04-11T07:20:52.354Z</time></trkpt><trkpt lat="37.8012255" lon="-1.4245702"><ele>164.0</ele><time>2026-04-11T07:20:53.354Z</time></trkpt><trkpt lat="37.800895" lon="-1.4246662"><ele>164.0</ele><time>2026-04-11T07:20:54.354Z</time></trkpt><trkpt lat="37.8005608" lon="-1.4247778"><ele>164.0</ele><time>2026-04-11T07:20:55.354Z</time></trkpt><trkpt lat="37.8002296" lon="-1.4248972"><ele>164.0</ele><time>2026-04-11T07:20:56.354Z</time></trkpt><trkpt lat="37.7999" lon="-1.425025"><ele>164.0</ele><time>2026-04-11T07:20:57.354Z</time></trkpt><trkpt lat="37.7995756" lon="-1.4251588"><ele>165.5</ele><time>2026-04-11T07:20:58.354Z</time></trkpt><trkpt lat="37.7992534" lon="-1.4253027"><ele>167.0</ele><time>2026-04-11T07:20:59.353Z</time></trkpt><trkpt lat="37.7989318" lon="-1.4254498"><ele>167.0</ele><time>2026-04-11T07:21:00.353Z</time></trkpt><trkpt lat="37.7986106" lon="-1.4256105"><ele>167.0</ele><time>2026-04-11T07:21:01.354Z</time></trkpt><trkpt lat="37.798292" lon="-1.4257727"><ele>167.0</ele><time>2026-04-11T07:21:02.353Z</time></trkpt><trkpt lat="37.7979752" lon="-1.4259463"><ele>167.0</ele><time>2026-04-11T07:21:03.353Z</time></trkpt><trkpt lat="37.7976575" lon="-1.426125"><ele>167.0</ele><time>2026-04-11T07:21:04.354Z</time></trkpt><trkpt lat="37.7973466" lon="-1.4263107"><ele>167.0</ele><time>2026-04-11T07:21:05.353Z</time></trkpt><trkpt lat="37.7970359" lon="-1.4265047"><ele>165.5</ele><time>2026-04-11T07:21:06.354Z</time></trkpt><trkpt lat="37.7967284" lon="-1.4267024"><ele>164.0</ele><time>2026-04-11T07:21:07.354Z</time></trkpt><trkpt lat="37.7964249" lon="-1.4269086"><ele>164.0</ele><time>2026-04-11T07:21:08.354Z</time></trkpt><trkpt lat="37.7961259" lon="-1.427128"><ele>164.0</ele><time>2026-04-11T07:21:09.354Z</time></trkpt><trkpt lat="37.7958276" lon="-1.427362"><ele>165.0</ele><time>2026-04-11T07:21:10.354Z</time></trkpt><trkpt lat="37.7955354" lon="-1.4275945"><ele>166.0</ele><time>2026-04-11T07:21:11.353Z</time></trkpt><trkpt lat="37.7952454" lon="-1.4278279"><ele>168.0</ele><time>2026-04-11T07:21:12.354Z</time></trkpt><trkpt lat="37.7949607" lon="-1.4280679"><ele>170.0</ele><time>2026-04-11T07:21:13.354Z</time></trkpt><trkpt lat="37.7946814" lon="-1.4283195"><ele>170.0</ele><time>2026-04-11T07:21:14.354Z</time></trkpt><trkpt lat="37.7944048" lon="-1.4285763"><ele>170.0</ele><time>2026-04-11T07:21:15.354Z</time></trkpt><trkpt lat="37.7941328" lon="-1.4288473"><ele>170.5</ele><time>2026-04-11T07:21:16.353Z</time></trkpt><trkpt lat="37.7938637" lon="-1.4291207"><ele>171.0</ele><time>2026-04-11T07:21:17.353Z</time></trkpt><trkpt lat="37.7936002" lon="-1.4294005"><ele>171.0</ele><time>2026-04-11T07:21:18.354Z</time></trkpt><trkpt lat="37.7933402" lon="-1.4296857"><ele>171.0</ele><time>2026-04-11T07:21:19.354Z</time></trkpt><trkpt lat="37.7930848" lon="-1.4299773"><ele>171.0</ele><time>2026-04-11T07:21:20.353Z</time></trkpt><trkpt lat="37.7928392" lon="-1.4302694"><ele>171.0</ele><time>2026-04-11T07:21:21.354Z</time></trkpt><trkpt lat="37.792596" lon="-1.4305735"><ele>172.0</ele><time>2026-04-11T07:21:22.354Z</time></trkpt><trkpt lat="37.7923561" lon="-1.4308801"><ele>173.0</ele><time>2026-04-11T07:21:23.354Z</time></trkpt><trkpt lat="37.792129" lon="-1.4311804"><ele>173.0</ele><time>2026-04-11T07:21:24.354Z</time></trkpt><trkpt lat="37.7919249" lon="-1.4314726"><ele>173.0</ele><time>2026-04-11T07:21:25.354Z</time></trkpt><trkpt lat="37.79173" lon="-1.4317533"><ele>173.0</ele><time>2026-04-11T07:21:26.354Z</time></trkpt><trkpt lat="37.7915382" lon="-1.4320355"><ele>173.0</ele><time>2026-04-11T07:21:27.354Z</time></trkpt><trkpt lat="37.7913525" lon="-1.4323132"><ele>173.5</ele><time>2026-04-11T07:21:28.354Z</time></trkpt><trkpt lat="37.7911659" lon="-1.4325924"><ele>174.0</ele><time>2026-04-11T07:21:29.354Z</time></trkpt><trkpt lat="37.790986" lon="-1.4328718"><ele>173.0</ele><time>2026-04-11T07:21:30.354Z</time></trkpt><trkpt lat="37.7908115" lon="-1.4331562"><ele>172.0</ele><time>2026-04-11T07:21:31.353Z</time></trkpt><trkpt lat="37.7906401" lon="-1.4334437"><ele>172.0</ele><time>2026-04-11T07:21:32.354Z</time></trkpt><trkpt lat="37.7904691" lon="-1.4337306"><ele>172.0</ele><time>2026-04-11T07:21:33.354Z</time></trkpt><trkpt lat="37.7902992" lon="-1.4340169"><ele>173.0</ele><time>2026-04-11T07:21:34.354Z</time></trkpt><trkpt lat="37.7901236" lon="-1.4343128"><ele>174.0</ele><time>2026-04-11T07:21:35.354Z</time></trkpt><trkpt lat="37.7899504" lon="-1.4346055"><ele>175.5</ele><time>2026-04-11T07:21:36.354Z</time></trkpt><trkpt lat="37.7897719" lon="-1.4349075"><ele>177.0</ele><time>2026-04-11T07:21:37.354Z</time></trkpt><trkpt lat="37.7895944" lon="-1.4352034"><ele>176.0</ele><time>2026-04-11T07:21:38.353Z</time></trkpt><trkpt lat="37.7894151" lon="-1.4355069"><ele>175.0</ele><time>2026-04-11T07:21:39.354Z</time></trkpt><trkpt lat="37.7892366" lon="-1.4358071"><ele>175.0</ele><time>2026-04-11T07:21:40.354Z</time></trkpt><trkpt lat="37.7890635" lon="-1.4360984"><ele>175.0</ele><time>2026-04-11T07:21:41.353Z</time></trkpt><trkpt lat="37.7888885" lon="-1.4363873"><ele>175.0</ele><time>2026-04-11T07:21:42.354Z</time></trkpt><trkpt lat="37.7887126" lon="-1.4366759"><ele>175.0</ele><time>2026-04-11T07:21:43.354Z</time></trkpt><trkpt lat="37.7885388" lon="-1.4369595"><ele>175.0</ele><time>2026-04-11T07:21:44.354Z</time></trkpt><trkpt lat="37.7883639" lon="-1.4372449"><ele>175.0</ele><time>2026-04-11T07:21:45.354Z</time></trkpt><trkpt lat="37.788189" lon="-1.4375331"><ele>175.0</ele><time>2026-04-11T07:21:46.354Z</time></trkpt><trkpt lat="37.7880093" lon="-1.4378177"><ele>175.0</ele><time>2026-04-11T07:21:47.354Z</time></trkpt><trkpt lat="37.7878273" lon="-1.4381019"><ele>176.5</ele><time>2026-04-11T07:21:48.354Z</time></trkpt><trkpt lat="37.7876425" lon="-1.4383858"><ele>178.0</ele><time>2026-04-11T07:21:49.354Z</time></trkpt><trkpt lat="37.7874547" lon="-1.4386653"><ele>177.0</ele><time>2026-04-11T07:21:50.353Z</time></trkpt><trkpt lat="37.7872691" lon="-1.4389424"><ele>176.0</ele><time>2026-04-11T07:21:51.354Z</time></trkpt><trkpt lat="37.7870795" lon="-1.4392257"><ele>176.0</ele><time>2026-04-11T07:21:52.354Z</time></trkpt><trkpt lat="37.7868889" lon="-1.4395045"><ele>176.0</ele><time>2026-04-11T07:21:53.354Z</time></trkpt><trkpt lat="37.7866939" lon="-1.4397836"><ele>177.5</ele><time>2026-04-11T07:21:54.354Z</time></trkpt><trkpt lat="37.7864962" lon="-1.4400671"><ele>179.0</ele><time>2026-04-11T07:21:55.354Z</time></trkpt><trkpt lat="37.7862951" lon="-1.4403529"><ele>178.5</ele><time>2026-04-11T07:21:56.354Z</time></trkpt><trkpt lat="37.7860898" lon="-1.4406354"><ele>178.0</ele><time>2026-04-11T07:21:57.354Z</time></trkpt><trkpt lat="37.7858792" lon="-1.4409137"><ele>178.5</ele><time>2026-04-11T07:21:58.354Z</time></trkpt><trkpt lat="37.7856611" lon="-1.4411999"><ele>179.0</ele><time>2026-04-11T07:21:59.354Z</time></trkpt><trkpt lat="37.7854393" lon="-1.441482"><ele>179.0</ele><time>2026-04-11T07:22:00.353Z</time></trkpt><trkpt lat="37.7852151" lon="-1.4417706"><ele>179.0</ele><time>2026-04-11T07:22:01.354Z</time></trkpt><trkpt lat="37.784982" lon="-1.4420568"><ele>180.0</ele><time>2026-04-11T07:22:02.353Z</time></trkpt><trkpt lat="37.7847436" lon="-1.4423493"><ele>181.0</ele><time>2026-04-11T07:22:03.353Z</time></trkpt><trkpt lat="37.7845026" lon="-1.4426371"><ele>180.5</ele><time>2026-04-11T07:22:04.353Z</time></trkpt><trkpt lat="37.7842577" lon="-1.4429311"><ele>180.0</ele><time>2026-04-11T07:22:05.354Z</time></trkpt><trkpt lat="37.7840094" lon="-1.4432221"><ele>180.0</ele><time>2026-04-11T07:22:06.354Z</time></trkpt><trkpt lat="37.783756" lon="-1.4435119"><ele>180.0</ele><time>2026-04-11T07:22:07.354Z</time></trkpt><trkpt lat="37.7834968" lon="-1.4437955"><ele>182.0</ele><time>2026-04-11T07:22:08.354Z</time></trkpt><trkpt lat="37.7832344" lon="-1.4440729"><ele>184.0</ele><time>2026-04-11T07:22:09.354Z</time></trkpt><trkpt lat="37.7829693" lon="-1.4443486"><ele>184.0</ele><time>2026-04-11T07:22:10.354Z</time></trkpt><trkpt lat="37.782704" lon="-1.4446235"><ele>184.0</ele><time>2026-04-11T07:22:11.354Z</time></trkpt><trkpt lat="37.7824349" lon="-1.4448972"><ele>184.0</ele><time>2026-04-11T07:22:12.354Z</time></trkpt><trkpt lat="37.7821656" lon="-1.445164"><ele>184.0</ele><time>2026-04-11T07:22:13.354Z</time></trkpt><trkpt lat="37.7818959" lon="-1.4454309"><ele>183.5</ele><time>2026-04-11T07:22:14.354Z</time></trkpt><trkpt lat="37.7816198" lon="-1.4456951"><ele>183.0</ele><time>2026-04-11T07:22:15.354Z</time></trkpt><trkpt lat="37.7813458" lon="-1.4459506"><ele>183.0</ele><time>2026-04-11T07:22:16.353Z</time></trkpt><trkpt lat="37.7810673" lon="-1.4462068"><ele>183.0</ele><time>2026-04-11T07:22:17.354Z</time></trkpt><trkpt lat="37.780789" lon="-1.4464585"><ele>183.0</ele><time>2026-04-11T07:22:18.354Z</time></trkpt><trkpt lat="37.7805085" lon="-1.4467079"><ele>183.0</ele><time>2026-04-11T07:22:19.354Z</time></trkpt><trkpt lat="37.7802281" lon="-1.4469507"><ele>184.0</ele><time>2026-04-11T07:22:20.354Z</time></trkpt><trkpt lat="37.7799431" lon="-1.4471959"><ele>185.0</ele><time>2026-04-11T07:22:21.353Z</time></trkpt><trkpt lat="37.7796566" lon="-1.4474362"><ele>185.0</ele><time>2026-04-11T07:22:22.354Z</time></trkpt><trkpt lat="37.779365" lon="-1.4476779"><ele>185.0</ele><time>2026-04-11T07:22:23.354Z</time></trkpt><trkpt lat="37.7790758" lon="-1.4479107"><ele>185.5</ele><time>2026-04-11T07:22:24.354Z</time></trkpt><trkpt lat="37.7787837" lon="-1.4481437"><ele>186.0</ele><time>2026-04-11T07:22:25.353Z</time></trkpt><trkpt lat="37.7784919" lon="-1.4483741"><ele>186.0</ele><time>2026-04-11T07:22:26.354Z</time></trkpt><trkpt lat="37.7781971" lon="-1.448599"><ele>186.0</ele><time>2026-04-11T07:22:27.354Z</time></trkpt><trkpt lat="37.7778988" lon="-1.4488223"><ele>186.5</ele><time>2026-04-11T07:22:28.354Z</time></trkpt><trkpt lat="37.7776003" lon="-1.4490483"><ele>187.0</ele><time>2026-04-11T07:22:29.354Z</time></trkpt><trkpt lat="37.7773048" lon="-1.4492713"><ele>187.0</ele><time>2026-04-11T07:22:30.353Z</time></trkpt><trkpt lat="37.7770057" lon="-1.4494876"><ele>187.0</ele><time>2026-04-11T07:22:31.354Z</time></trkpt><trkpt lat="37.776708" lon="-1.449704"><ele>187.0</ele><time>2026-04-11T07:22:32.353Z</time></trkpt><trkpt lat="37.7764067" lon="-1.4499157"><ele>187.0</ele><time>2026-04-11T07:22:33.353Z</time></trkpt><trkpt lat="37.7761045" lon="-1.4501256"><ele>187.0</ele><time>2026-04-11T07:22:34.354Z</time></trkpt><trkpt lat="37.7758031" lon="-1.4503332"><ele>187.0</ele><time>2026-04-11T07:22:35.354Z</time></trkpt><trkpt lat="37.7755021" lon="-1.4505393"><ele>187.0</ele><time>2026-04-11T07:22:36.354Z</time></trkpt><trkpt lat="37.775198" lon="-1.4507437"><ele>187.0</ele><time>2026-04-11T07:22:37.353Z</time></trkpt><trkpt lat="37.7748947" lon="-1.4509496"><ele>187.0</ele><time>2026-04-11T07:22:38.353Z</time></trkpt><trkpt lat="37.7745887" lon="-1.451151"><ele>187.0</ele><time>2026-04-11T07:22:39.354Z</time></trkpt><trkpt lat="37.7742825" lon="-1.451355"><ele>189.0</ele><time>2026-04-11T07:22:40.354Z</time></trkpt><trkpt lat="37.7739759" lon="-1.451554"><ele>191.0</ele><time>2026-04-11T07:22:41.354Z</time></trkpt><trkpt lat="37.7736722" lon="-1.4517515"><ele>191.5</ele><time>2026-04-11T07:22:42.354Z</time></trkpt><trkpt lat="37.7733627" lon="-1.4519445"><ele>192.0</ele><time>2026-04-11T07:22:43.354Z</time></trkpt><trkpt lat="37.7730576" lon="-1.4521445"><ele>192.5</ele><time>2026-04-11T07:22:44.354Z</time></trkpt><trkpt lat="37.7727482" lon="-1.4523387"><ele>193.0</ele><time>2026-04-11T07:22:45.354Z</time></trkpt><trkpt lat="37.7724388" lon="-1.4525312"><ele>194.0</ele><time>2026-04-11T07:22:46.353Z</time></trkpt><trkpt lat="37.7721299" lon="-1.4527267"><ele>195.0</ele><time>2026-04-11T07:22:47.354Z</time></trkpt><trkpt lat="37.7718233" lon="-1.4529227"><ele>194.0</ele><time>2026-04-11T07:22:48.354Z</time></trkpt><trkpt lat="37.7715165" lon="-1.4531151"><ele>193.0</ele><time>2026-04-11T07:22:49.354Z</time></trkpt><trkpt lat="37.7712083" lon="-1.45331"><ele>192.0</ele><time>2026-04-11T07:22:50.354Z</time></trkpt><trkpt lat="37.7709019" lon="-1.4535046"><ele>191.0</ele><time>2026-04-11T07:22:51.354Z</time></trkpt><trkpt lat="37.7705961" lon="-1.453701"><ele>191.0</ele><time>2026-04-11T07:22:52.354Z</time></trkpt><trkpt lat="37.7702892" lon="-1.4539006"><ele>191.0</ele><time>2026-04-11T07:22:53.354Z</time></trkpt><trkpt lat="37.769983" lon="-1.4541052"><ele>191.0</ele><time>2026-04-11T07:22:54.354Z</time></trkpt><trkpt lat="37.7696793" lon="-1.4543133"><ele>191.0</ele><time>2026-04-11T07:22:55.354Z</time></trkpt><trkpt lat="37.7693769" lon="-1.4545179"><ele>192.0</ele><time>2026-04-11T07:22:56.354Z</time></trkpt><trkpt lat="37.769074" lon="-1.4547238"><ele>193.0</ele><time>2026-04-11T07:22:57.354Z</time></trkpt><trkpt lat="37.7687696" lon="-1.4549287"><ele>193.5</ele><time>2026-04-11T07:22:58.354Z</time></trkpt><trkpt lat="37.7684667" lon="-1.4551353"><ele>194.0</ele><time>2026-04-11T07:22:59.353Z</time></trkpt><trkpt lat="37.7681608" lon="-1.4553397"><ele>193.5</ele><time>2026-04-11T07:23:00.354Z</time></trkpt><trkpt lat="37.7678551" lon="-1.4555444"><ele>193.0</ele><time>2026-04-11T07:23:01.353Z</time></trkpt><trkpt lat="37.7675495" lon="-1.4557501"><ele>194.0</ele><time>2026-04-11T07:23:02.354Z</time></trkpt><trkpt lat="37.7672468" lon="-1.455957"><ele>195.0</ele><time>2026-04-11T07:23:03.354Z</time></trkpt><trkpt lat="37.7669464" lon="-1.4561632"><ele>197.0</ele><time>2026-04-11T07:23:04.354Z</time></trkpt><trkpt lat="37.766642" lon="-1.4563709"><ele>199.0</ele><time>2026-04-11T07:23:05.353Z</time></trkpt><trkpt lat="37.7663402" lon="-1.4565847"><ele>199.0</ele><time>2026-04-11T07:23:06.354Z</time></trkpt><trkpt lat="37.7660389" lon="-1.4567976"><ele>199.0</ele><time>2026-04-11T07:23:07.354Z</time></trkpt><trkpt lat="37.7657392" lon="-1.4570145"><ele>198.0</ele><time>2026-04-11T07:23:08.354Z</time></trkpt><trkpt lat="37.7654411" lon="-1.4572339"><ele>197.0</ele><time>2026-04-11T07:23:09.353Z</time></trkpt><trkpt lat="37.7651418" lon="-1.4574482"><ele>197.0</ele><time>2026-04-11T07:23:10.354Z</time></trkpt><trkpt lat="37.764846" lon="-1.457671"><ele>197.0</ele><time>2026-04-11T07:23:11.354Z</time></trkpt><trkpt lat="37.7645499" lon="-1.4578953"><ele>197.0</ele><time>2026-04-11T07:23:12.353Z</time></trkpt><trkpt lat="37.764256" lon="-1.4581234"><ele>197.0</ele><time>2026-04-11T07:23:13.353Z</time></trkpt><trkpt lat="37.7639609" lon="-1.4583469"><ele>197.0</ele><time>2026-04-11T07:23:14.354Z</time></trkpt><trkpt lat="37.763666" lon="-1.4585753"><ele>197.0</ele><time>2026-04-11T07:23:15.354Z</time></trkpt><trkpt lat="37.7633717" lon="-1.4588007"><ele>198.0</ele><time>2026-04-11T07:23:16.353Z</time></trkpt><trkpt lat="37.7630775" lon="-1.4590316"><ele>199.0</ele><time>2026-04-11T07:23:17.354Z</time></trkpt><trkpt lat="37.762788" lon="-1.4592696"><ele>199.5</ele><time>2026-04-11T07:23:18.354Z</time></trkpt><trkpt lat="37.7625011" lon="-1.4595121"><ele>200.0</ele><time>2026-04-11T07:23:19.353Z</time></trkpt><trkpt lat="37.7622183" lon="-1.4597581"><ele>200.0</ele><time>2026-04-11T07:23:20.354Z</time></trkpt><trkpt lat="37.7619384" lon="-1.4600143"><ele>200.0</ele><time>2026-04-11T07:23:21.354Z</time></trkpt><trkpt lat="37.7616609" lon="-1.460269"><ele>199.5</ele><time>2026-04-11T07:23:22.354Z</time></trkpt><trkpt lat="37.761386" lon="-1.4605272"><ele>199.0</ele><time>2026-04-11T07:23:23.353Z</time></trkpt><trkpt lat="37.7611108" lon="-1.4607911"><ele>199.5</ele><time>2026-04-11T07:23:24.354Z</time></trkpt><trkpt lat="37.7608408" lon="-1.4610542"><ele>200.0</ele><time>2026-04-11T07:23:25.354Z</time></trkpt><trkpt lat="37.7605724" lon="-1.4613214"><ele>200.0</ele><time>2026-04-11T07:23:26.354Z</time></trkpt><trkpt lat="37.7603073" lon="-1.4615925"><ele>200.0</ele><time>2026-04-11T07:23:27.354Z</time></trkpt><trkpt lat="37.760042" lon="-1.4618752"><ele>201.5</ele><time>2026-04-11T07:23:28.353Z</time></trkpt><trkpt lat="37.7597785" lon="-1.4621532"><ele>203.0</ele><time>2026-04-11T07:23:29.353Z</time></trkpt><trkpt lat="37.7595182" lon="-1.4624363"><ele>202.0</ele><time>2026-04-11T07:23:30.354Z</time></trkpt><trkpt lat="37.7592598" lon="-1.4627201"><ele>201.0</ele><time>2026-04-11T07:23:31.353Z</time></trkpt><trkpt lat="37.7590062" lon="-1.4630082"><ele>201.0</ele><time>2026-04-11T07:23:32.354Z</time></trkpt><trkpt lat="37.7587521" lon="-1.4633033"><ele>201.0</ele><time>2026-04-11T07:23:33.354Z</time></trkpt><trkpt lat="37.7585062" lon="-1.4636036"><ele>201.5</ele><time>2026-04-11T07:23:34.354Z</time></trkpt><trkpt lat="37.7582592" lon="-1.463906"><ele>202.0</ele><time>2026-04-11T07:23:35.353Z</time></trkpt><trkpt lat="37.7580176" lon="-1.4642098"><ele>202.0</ele><time>2026-04-11T07:23:36.354Z</time></trkpt><trkpt lat="37.7577746" lon="-1.4645203"><ele>202.0</ele><time>2026-04-11T07:23:37.354Z</time></trkpt><trkpt lat="37.7575322" lon="-1.464831"><ele>202.5</ele><time>2026-04-11T07:23:38.354Z</time></trkpt><trkpt lat="37.7572918" lon="-1.4651441"><ele>203.0</ele><time>2026-04-11T07:23:39.353Z</time></trkpt><trkpt lat="37.7570528" lon="-1.4654589"><ele>202.5</ele><time>2026-04-11T07:23:40.354Z</time></trkpt><trkpt lat="37.7568161" lon="-1.46578"><ele>202.0</ele><time>2026-04-11T07:23:41.354Z</time></trkpt><trkpt lat="37.7565804" lon="-1.4660953"><ele>202.0</ele><time>2026-04-11T07:23:42.354Z</time></trkpt><trkpt lat="37.756345" lon="-1.4664094"><ele>202.0</ele><time>2026-04-11T07:23:43.354Z</time></trkpt><trkpt lat="37.7561113" lon="-1.4667251"><ele>202.5</ele><time>2026-04-11T07:23:44.354Z</time></trkpt><trkpt lat="37.7558805" lon="-1.4670496"><ele>203.0</ele><time>2026-04-11T07:23:45.354Z</time></trkpt><trkpt lat="37.7556521" lon="-1.4673728"><ele>203.0</ele><time>2026-04-11T07:23:46.354Z</time></trkpt><trkpt lat="37.7554248" lon="-1.4676967"><ele>203.0</ele><time>2026-04-11T07:23:47.354Z</time></trkpt><trkpt lat="37.7552004" lon="-1.4680288"><ele>204.5</ele><time>2026-04-11T07:23:48.354Z</time></trkpt><trkpt lat="37.7549798" lon="-1.4683614"><ele>206.0</ele><time>2026-04-11T07:23:49.353Z</time></trkpt><trkpt lat="37.7547618" lon="-1.4687"><ele>206.0</ele><time>2026-04-11T07:23:50.354Z</time></trkpt><trkpt lat="37.7545489" lon="-1.4690363"><ele>206.0</ele><time>2026-04-11T07:23:51.354Z</time></trkpt><trkpt lat="37.7543351" lon="-1.4693777"><ele>206.5</ele><time>2026-04-11T07:23:52.354Z</time></trkpt><trkpt lat="37.7541236" lon="-1.4697231"><ele>207.0</ele><time>2026-04-11T07:23:53.354Z</time></trkpt><trkpt lat="37.7539131" lon="-1.470067"><ele>207.0</ele><time>2026-04-11T07:23:54.354Z</time></trkpt><trkpt lat="37.7537042" lon="-1.4704157"><ele>207.0</ele><time>2026-04-11T07:23:55.354Z</time></trkpt><trkpt lat="37.7534996" lon="-1.4707658"><ele>206.5</ele><time>2026-04-11T07:23:56.354Z</time></trkpt><trkpt lat="37.7532996" lon="-1.4711152"><ele>206.0</ele><time>2026-04-11T07:23:57.354Z</time></trkpt><trkpt lat="37.7531013" lon="-1.4714705"><ele>206.0</ele><time>2026-04-11T07:23:58.354Z</time></trkpt><trkpt lat="37.7529077" lon="-1.4718277"><ele>206.0</ele><time>2026-04-11T07:23:59.354Z</time></trkpt><trkpt lat="37.7527187" lon="-1.4721938"><ele>207.0</ele><time>2026-04-11T07:24:00.354Z</time></trkpt><trkpt lat="37.7525306" lon="-1.472559"><ele>208.0</ele><time>2026-04-11T07:24:01.354Z</time></trkpt><trkpt lat="37.7523405" lon="-1.4729234"><ele>208.5</ele><time>2026-04-11T07:24:02.354Z</time></trkpt><trkpt lat="37.752151" lon="-1.4732891"><ele>209.0</ele><time>2026-04-11T07:24:03.354Z</time></trkpt><trkpt lat="37.7519642" lon="-1.4736527"><ele>208.5</ele><time>2026-04-11T07:24:04.354Z</time></trkpt><trkpt lat="37.7517805" lon="-1.4740156"><ele>208.0</ele><time>2026-04-11T07:24:05.354Z</time></trkpt><trkpt lat="37.7516005" lon="-1.4743861"><ele>209.0</ele><time>2026-04-11T07:24:06.353Z</time></trkpt><trkpt lat="37.7514211" lon="-1.474755"><ele>210.0</ele><time>2026-04-11T07:24:07.354Z</time></trkpt><trkpt lat="37.7512426" lon="-1.4751288"><ele>210.5</ele><time>2026-04-11T07:24:08.354Z</time></trkpt><trkpt lat="37.7510703" lon="-1.4755031"><ele>211.0</ele><time>2026-04-11T07:24:09.354Z</time></trkpt><trkpt lat="37.7508988" lon="-1.4758796"><ele>211.0</ele><time>2026-04-11T07:24:10.354Z</time></trkpt><trkpt lat="37.7507326" lon="-1.4762572"><ele>211.0</ele><time>2026-04-11T07:24:11.354Z</time></trkpt><trkpt lat="37.7505657" lon="-1.4766349"><ele>210.0</ele><time>2026-04-11T07:24:12.354Z</time></trkpt><trkpt lat="37.7504001" lon="-1.4770165"><ele>209.0</ele><time>2026-04-11T07:24:13.354Z</time></trkpt><trkpt lat="37.750237" lon="-1.477399"><ele>208.5</ele><time>2026-04-11T07:24:14.354Z</time></trkpt><trkpt lat="37.7500717" lon="-1.4777835"><ele>208.0</ele><time>2026-04-11T07:24:15.354Z</time></trkpt><trkpt lat="37.7499079" lon="-1.478167"><ele>209.0</ele><time>2026-04-11T07:24:16.354Z</time></trkpt><trkpt lat="37.7497477" lon="-1.478547"><ele>210.0</ele><time>2026-04-11T07:24:17.354Z</time></trkpt><trkpt lat="37.7495871" lon="-1.4789358"><ele>210.5</ele><time>2026-04-11T07:24:18.354Z</time></trkpt><trkpt lat="37.7494312" lon="-1.4793213"><ele>211.0</ele><time>2026-04-11T07:24:19.354Z</time></trkpt><trkpt lat="37.7492785" lon="-1.4797096"><ele>211.0</ele><time>2026-04-11T07:24:20.354Z</time></trkpt><trkpt lat="37.7491275" lon="-1.480101"><ele>211.0</ele><time>2026-04-11T07:24:21.354Z</time></trkpt><trkpt lat="37.7489805" lon="-1.4804975"><ele>211.0</ele><time>2026-04-11T07:24:22.354Z</time></trkpt><trkpt lat="37.7488388" lon="-1.4808911"><ele>211.0</ele><time>2026-04-11T07:24:23.354Z</time></trkpt><trkpt lat="37.7486952" lon="-1.481287"><ele>211.0</ele><time>2026-04-11T07:24:24.353Z</time></trkpt><trkpt lat="37.7485541" lon="-1.4816861"><ele>211.0</ele><time>2026-04-11T07:24:25.354Z</time></trkpt><trkpt lat="37.7484171" lon="-1.4820849"><ele>211.0</ele><time>2026-04-11T07:24:26.354Z</time></trkpt><trkpt lat="37.7482846" lon="-1.4824852"><ele>211.0</ele><time>2026-04-11T07:24:27.353Z</time></trkpt><trkpt lat="37.7481521" lon="-1.4828881"><ele>212.5</ele><time>2026-04-11T07:24:28.354Z</time></trkpt><trkpt lat="37.7480231" lon="-1.4832875"><ele>214.0</ele><time>2026-04-11T07:24:29.354Z</time></trkpt><trkpt lat="37.7478985" lon="-1.4836993"><ele>213.5</ele><time>2026-04-11T07:24:30.354Z</time></trkpt><trkpt lat="37.747775" lon="-1.4841026"><ele>213.0</ele><time>2026-04-11T07:24:31.354Z</time></trkpt><trkpt lat="37.747654" lon="-1.4845139"><ele>212.0</ele><time>2026-04-11T07:24:32.354Z</time></trkpt><trkpt lat="37.7475346" lon="-1.4849186"><ele>211.0</ele><time>2026-04-11T07:24:33.354Z</time></trkpt><trkpt lat="37.7474184" lon="-1.4853256"><ele>212.0</ele><time>2026-04-11T07:24:34.354Z</time></trkpt><trkpt lat="37.7473069" lon="-1.4857415"><ele>213.0</ele><time>2026-04-11T07:24:35.353Z</time></trkpt><trkpt lat="37.7471989" lon="-1.4861515"><ele>213.5</ele><time>2026-04-11T07:24:36.353Z</time></trkpt><trkpt lat="37.7470882" lon="-1.486565"><ele>214.0</ele><time>2026-04-11T07:24:37.354Z</time></trkpt><trkpt lat="37.7469792" lon="-1.486982"><ele>212.0</ele><time>2026-04-11T07:24:38.354Z</time></trkpt><trkpt lat="37.7468745" lon="-1.4873974"><ele>210.0</ele><time>2026-04-11T07:24:39.354Z</time></trkpt><trkpt lat="37.7467768" lon="-1.4878103"><ele>211.5</ele><time>2026-04-11T07:24:40.353Z</time></trkpt><trkpt lat="37.7466781" lon="-1.4882305"><ele>213.0</ele><time>2026-04-11T07:24:41.354Z</time></trkpt><trkpt lat="37.7465823" lon="-1.48865"><ele>214.0</ele><time>2026-04-11T07:24:42.353Z</time></trkpt><trkpt lat="37.7464891" lon="-1.4890639"><ele>215.0</ele><time>2026-04-11T07:24:43.354Z</time></trkpt><trkpt lat="37.7463967" lon="-1.4894818"><ele>215.0</ele><time>2026-04-11T07:24:44.354Z</time></trkpt><trkpt lat="37.7463082" lon="-1.4899001"><ele>215.0</ele><time>2026-04-11T07:24:45.354Z</time></trkpt><trkpt lat="37.7462224" lon="-1.490319"><ele>215.5</ele><time>2026-04-11T07:24:46.354Z</time></trkpt><trkpt lat="37.7461388" lon="-1.4907447"><ele>216.0</ele><time>2026-04-11T07:24:47.354Z</time></trkpt><trkpt lat="37.7460649" lon="-1.4911683"><ele>217.0</ele><time>2026-04-11T07:24:48.354Z</time></trkpt><trkpt lat="37.7459961" lon="-1.4915951"><ele>218.0</ele><time>2026-04-11T07:24:49.354Z</time></trkpt><trkpt lat="37.7459307" lon="-1.4920223"><ele>219.0</ele><time>2026-04-11T07:24:50.354Z</time></trkpt><trkpt lat="37.7458635" lon="-1.4924496"><ele>220.0</ele><time>2026-04-11T07:24:51.354Z</time></trkpt><trkpt lat="37.7457938" lon="-1.4928741"><ele>218.5</ele><time>2026-04-11T07:24:52.354Z</time></trkpt><trkpt lat="37.7457265" lon="-1.4933037"><ele>217.0</ele><time>2026-04-11T07:24:53.354Z</time></trkpt><trkpt lat="37.7456597" lon="-1.4937309"><ele>217.5</ele><time>2026-04-11T07:24:54.354Z</time></trkpt><trkpt lat="37.7455953" lon="-1.494159"><ele>218.0</ele><time>2026-04-11T07:24:55.354Z</time></trkpt><trkpt lat="37.7455351" lon="-1.4945885"><ele>219.0</ele><time>2026-04-11T07:24:56.354Z</time></trkpt><trkpt lat="37.7454742" lon="-1.4950194"><ele>220.0</ele><time>2026-04-11T07:24:57.354Z</time></trkpt><trkpt lat="37.7454149" lon="-1.4954471"><ele>220.0</ele><time>2026-04-11T07:24:58.354Z</time></trkpt><trkpt lat="37.7453561" lon="-1.4958785"><ele>220.0</ele><time>2026-04-11T07:24:59.354Z</time></trkpt><trkpt lat="37.7453007" lon="-1.4963075"><ele>220.0</ele><time>2026-04-11T07:25:00.354Z</time></trkpt><trkpt lat="37.7452472" lon="-1.4967375"><ele>220.0</ele><time>2026-04-11T07:25:01.354Z</time></trkpt><trkpt lat="37.7451977" lon="-1.4971672"><ele>220.5</ele><time>2026-04-11T07:25:02.354Z</time></trkpt><trkpt lat="37.7451491" lon="-1.4975985"><ele>221.0</ele><time>2026-04-11T07:25:03.354Z</time></trkpt><trkpt lat="37.7450997" lon="-1.4980275"><ele>221.0</ele><time>2026-04-11T07:25:04.353Z</time></trkpt><trkpt lat="37.7450522" lon="-1.4984585"><ele>221.0</ele><time>2026-04-11T07:25:05.353Z</time></trkpt><trkpt lat="37.7450008" lon="-1.4988871"><ele>221.0</ele><time>2026-04-11T07:25:06.353Z</time></trkpt><trkpt lat="37.744949" lon="-1.4993166"><ele>221.0</ele><time>2026-04-11T07:25:07.354Z</time></trkpt><trkpt lat="37.7448999" lon="-1.4997456"><ele>221.5</ele><time>2026-04-11T07:25:08.354Z</time></trkpt><trkpt lat="37.7448556" lon="-1.5001724"><ele>222.0</ele><time>2026-04-11T07:25:09.354Z</time></trkpt><trkpt lat="37.7448175" lon="-1.5006022"><ele>222.0</ele><time>2026-04-11T07:25:10.354Z</time></trkpt><trkpt lat="37.7447787" lon="-1.5010338"><ele>222.0</ele><time>2026-04-11T07:25:11.354Z</time></trkpt><trkpt lat="37.744741" lon="-1.5014649"><ele>222.5</ele><time>2026-04-11T07:25:12.353Z</time></trkpt><trkpt lat="37.7447053" lon="-1.5018941"><ele>223.0</ele><time>2026-04-11T07:25:13.354Z</time></trkpt><trkpt lat="37.7446696" lon="-1.5023271"><ele>223.5</ele><time>2026-04-11T07:25:14.354Z</time></trkpt><trkpt lat="37.7446381" lon="-1.5027536"><ele>224.0</ele><time>2026-04-11T07:25:15.354Z</time></trkpt><trkpt lat="37.744608" lon="-1.5031843"><ele>224.0</ele><time>2026-04-11T07:25:16.354Z</time></trkpt><trkpt lat="37.7445783" lon="-1.5036171"><ele>224.0</ele><time>2026-04-11T07:25:17.354Z</time></trkpt><trkpt lat="37.7445511" lon="-1.5040446"><ele>225.0</ele><time>2026-04-11T07:25:18.354Z</time></trkpt><trkpt lat="37.7445231" lon="-1.5044728"><ele>226.0</ele><time>2026-04-11T07:25:19.354Z</time></trkpt><trkpt lat="37.744492" lon="-1.5049045"><ele>226.5</ele><time>2026-04-11T07:25:20.353Z</time></trkpt><trkpt lat="37.744468" lon="-1.5053328"><ele>227.0</ele><time>2026-04-11T07:25:21.354Z</time></trkpt><trkpt lat="37.744443" lon="-1.5057588"><ele>227.0</ele><time>2026-04-11T07:25:22.354Z</time></trkpt><trkpt lat="37.7444193" lon="-1.5061926"><ele>227.0</ele><time>2026-04-11T07:25:23.354Z</time></trkpt><trkpt lat="37.744394" lon="-1.5066256"><ele>228.0</ele><time>2026-04-11T07:25:24.354Z</time></trkpt><trkpt lat="37.7443681" lon="-1.5070556"><ele>229.0</ele><time>2026-04-11T07:25:25.354Z</time></trkpt><trkpt lat="37.7443417" lon="-1.5074877"><ele>229.5</ele><time>2026-04-11T07:25:26.353Z</time></trkpt><trkpt lat="37.7443175" lon="-1.5079212"><ele>230.0</ele><time>2026-04-11T07:25:27.354Z</time></trkpt><trkpt lat="37.7442917" lon="-1.5083552"><ele>230.5</ele><time>2026-04-11T07:25:28.353Z</time></trkpt><trkpt lat="37.7442721" lon="-1.5087854"><ele>231.0</ele><time>2026-04-11T07:25:29.354Z</time></trkpt><trkpt lat="37.7442477" lon="-1.5092184"><ele>232.0</ele><time>2026-04-11T07:25:30.354Z</time></trkpt><trkpt lat="37.7442257" lon="-1.5096503"><ele>233.0</ele><time>2026-04-11T07:25:31.354Z</time></trkpt><trkpt lat="37.7442037" lon="-1.510084"><ele>234.5</ele><time>2026-04-11T07:25:32.354Z</time></trkpt><trkpt lat="37.7441801" lon="-1.5105199"><ele>236.0</ele><time>2026-04-11T07:25:33.354Z</time></trkpt><trkpt lat="37.7441573" lon="-1.5109492"><ele>235.5</ele><time>2026-04-11T07:25:34.354Z</time></trkpt><trkpt lat="37.7441342" lon="-1.5113868"><ele>235.0</ele><time>2026-04-11T07:25:35.354Z</time></trkpt><trkpt lat="37.7441093" lon="-1.51182"><ele>234.5</ele><time>2026-04-11T07:25:36.354Z</time></trkpt><trkpt lat="37.7440865" lon="-1.5122564"><ele>234.0</ele><time>2026-04-11T07:25:37.354Z</time></trkpt><trkpt lat="37.7440612" lon="-1.5126934"><ele>234.0</ele><time>2026-04-11T07:25:38.354Z</time></trkpt><trkpt lat="37.7440346" lon="-1.5131284"><ele>234.0</ele><time>2026-04-11T07:25:39.353Z</time></trkpt><trkpt lat="37.7440078" lon="-1.5135667"><ele>235.5</ele><time>2026-04-11T07:25:40.354Z</time></trkpt><trkpt lat="37.7439808" lon="-1.5140007"><ele>237.0</ele><time>2026-04-11T07:25:41.354Z</time></trkpt><trkpt lat="37.7439509" lon="-1.5144353"><ele>236.5</ele><time>2026-04-11T07:25:42.354Z</time></trkpt><trkpt lat="37.7439199" lon="-1.5148725"><ele>236.0</ele><time>2026-04-11T07:25:43.354Z</time></trkpt><trkpt lat="37.7438872" lon="-1.5153008"><ele>237.0</ele><time>2026-04-11T07:25:44.354Z</time></trkpt><trkpt lat="37.743853" lon="-1.5157321"><ele>238.0</ele><time>2026-04-11T07:25:45.354Z</time></trkpt><trkpt lat="37.7438188" lon="-1.5161626"><ele>238.5</ele><time>2026-04-11T07:25:46.354Z</time></trkpt><trkpt lat="37.7437831" lon="-1.5165919"><ele>239.0</ele><time>2026-04-11T07:25:47.354Z</time></trkpt><trkpt lat="37.7437419" lon="-1.5170177"><ele>239.5</ele><time>2026-04-11T07:25:48.354Z</time></trkpt><trkpt lat="37.7436978" lon="-1.517448"><ele>240.0</ele><time>2026-04-11T07:25:49.353Z</time></trkpt><trkpt lat="37.743649" lon="-1.517874"><ele>241.0</ele><time>2026-04-11T07:25:50.354Z</time></trkpt><trkpt lat="37.7435999" lon="-1.5182847"><ele>242.0</ele><time>2026-04-11T07:25:51.354Z</time></trkpt><trkpt lat="37.7435471" lon="-1.5186815"><ele>243.0</ele><time>2026-04-11T07:25:52.354Z</time></trkpt><trkpt lat="37.7434943" lon="-1.5190714"><ele>244.0</ele><time>2026-04-11T07:25:53.354Z</time></trkpt><trkpt lat="37.7434366" lon="-1.5194537"><ele>243.0</ele><time>2026-04-11T07:25:54.354Z</time></trkpt><trkpt lat="37.7433776" lon="-1.5198272"><ele>242.0</ele><time>2026-04-11T07:25:55.353Z</time></trkpt><trkpt lat="37.7433183" lon="-1.5201938"><ele>242.5</ele><time>2026-04-11T07:25:56.354Z</time></trkpt><trkpt lat="37.7432582" lon="-1.5205535"><ele>243.0</ele><time>2026-04-11T07:25:57.354Z</time></trkpt><trkpt lat="37.743195" lon="-1.5209045"><ele>243.0</ele><time>2026-04-11T07:25:58.354Z</time></trkpt><trkpt lat="37.7431504" lon="-1.5211375"><ele>243.0</ele><time>2026-04-11T07:25:59.585Z</time></trkpt><trkpt lat="37.7430744" lon="-1.5215212"><ele>248.0</ele><time>2026-04-11T07:26:00.799Z</time></trkpt><trkpt lat="37.7429316" lon="-1.5221696"><ele>248.0</ele><time>2026-04-11T07:26:02.356Z</time></trkpt><trkpt lat="37.7428595" lon="-1.522468"><ele>248.0</ele><time>2026-04-11T07:26:03.357Z</time></trkpt><trkpt lat="37.7427894" lon="-1.5227647"><ele>248.5</ele><time>2026-04-11T07:26:04.36Z</time></trkpt><trkpt lat="37.7427157" lon="-1.5230556"><ele>249.0</ele><time>2026-04-11T07:26:05.361Z</time></trkpt><trkpt lat="37.7426402" lon="-1.523343"><ele>250.0</ele><time>2026-04-11T07:26:06.351Z</time></trkpt><trkpt lat="37.7425644" lon="-1.5236312"><ele>251.0</ele><time>2026-04-11T07:26:07.351Z</time></trkpt><trkpt lat="37.7424832" lon="-1.523915"><ele>251.0</ele><time>2026-04-11T07:26:08.351Z</time></trkpt><trkpt lat="37.7424012" lon="-1.5241988"><ele>251.0</ele><time>2026-04-11T07:26:09.351Z</time></trkpt><trkpt lat="37.7423178" lon="-1.5244859"><ele>252.5</ele><time>2026-04-11T07:26:10.35Z</time></trkpt><trkpt lat="37.742229" lon="-1.5247759"><ele>254.0</ele><time>2026-04-11T07:26:11.35Z</time></trkpt><trkpt lat="37.7421361" lon="-1.5250706"><ele>254.0</ele><time>2026-04-11T07:26:12.35Z</time></trkpt><trkpt lat="37.7420365" lon="-1.5253623"><ele>254.0</ele><time>2026-04-11T07:26:13.35Z</time></trkpt><trkpt lat="37.7419368" lon="-1.5256574"><ele>255.0</ele><time>2026-04-11T07:26:14.35Z</time></trkpt><trkpt lat="37.7418359" lon="-1.5259465"><ele>256.0</ele><time>2026-04-11T07:26:15.351Z</time></trkpt><trkpt lat="37.7417343" lon="-1.5262248"><ele>256.5</ele><time>2026-04-11T07:26:16.351Z</time></trkpt><trkpt lat="37.7416352" lon="-1.5265013"><ele>257.0</ele><time>2026-04-11T07:26:17.351Z</time></trkpt><trkpt lat="37.7415349" lon="-1.5267728"><ele>257.0</ele><time>2026-04-11T07:26:18.351Z</time></trkpt><trkpt lat="37.7414276" lon="-1.5270501"><ele>257.0</ele><time>2026-04-11T07:26:19.35Z</time></trkpt><trkpt lat="37.7413159" lon="-1.5273311"><ele>257.5</ele><time>2026-04-11T07:26:20.35Z</time></trkpt><trkpt lat="37.7411999" lon="-1.5276102"><ele>258.0</ele><time>2026-04-11T07:26:21.351Z</time></trkpt><trkpt lat="37.7410797" lon="-1.5278915"><ele>258.5</ele><time>2026-04-11T07:26:22.351Z</time></trkpt><trkpt lat="37.7409526" lon="-1.5281839"><ele>259.0</ele><time>2026-04-11T07:26:23.35Z</time></trkpt><trkpt lat="37.7408244" lon="-1.528462"><ele>259.0</ele><time>2026-04-11T07:26:24.351Z</time></trkpt><trkpt lat="37.7406827" lon="-1.5287608"><ele>259.0</ele><time>2026-04-11T07:26:25.351Z</time></trkpt><trkpt lat="37.7405342" lon="-1.529048"><ele>259.0</ele><time>2026-04-11T07:26:26.351Z</time></trkpt><trkpt lat="37.7403838" lon="-1.5293386"><ele>259.0</ele><time>2026-04-11T07:26:27.35Z</time></trkpt><trkpt lat="37.7402262" lon="-1.5296187"><ele>260.5</ele><time>2026-04-11T07:26:28.35Z</time></trkpt><trkpt lat="37.7400662" lon="-1.5298966"><ele>262.0</ele><time>2026-04-11T07:26:29.351Z</time></trkpt><trkpt lat="37.7399004" lon="-1.5301771"><ele>263.5</ele><time>2026-04-11T07:26:30.351Z</time></trkpt><trkpt lat="37.7397316" lon="-1.5304511"><ele>265.0</ele><time>2026-04-11T07:26:31.351Z</time></trkpt><trkpt lat="37.7395569" lon="-1.5307186"><ele>264.5</ele><time>2026-04-11T07:26:32.351Z</time></trkpt><trkpt lat="37.7393757" lon="-1.5309866"><ele>264.0</ele><time>2026-04-11T07:26:33.351Z</time></trkpt><trkpt lat="37.7391882" lon="-1.5312464"><ele>265.0</ele><time>2026-04-11T07:26:34.351Z</time></trkpt><trkpt lat="37.738992" lon="-1.5315036"><ele>266.0</ele><time>2026-04-11T07:26:35.35Z</time></trkpt><trkpt lat="37.7387871" lon="-1.5317539"><ele>266.0</ele><time>2026-04-11T07:26:36.351Z</time></trkpt><trkpt lat="37.7385767" lon="-1.5319989"><ele>266.0</ele><time>2026-04-11T07:26:37.351Z</time></trkpt><trkpt lat="37.7383607" lon="-1.5322371"><ele>264.0</ele><time>2026-04-11T07:26:38.35Z</time></trkpt><trkpt lat="37.738141" lon="-1.5324708"><ele>262.0</ele><time>2026-04-11T07:26:39.35Z</time></trkpt><trkpt lat="37.7379145" lon="-1.5327072"><ele>263.0</ele><time>2026-04-11T07:26:40.351Z</time></trkpt><trkpt lat="37.7376857" lon="-1.532927"><ele>264.0</ele><time>2026-04-11T07:26:41.351Z</time></trkpt><trkpt lat="37.737452" lon="-1.5331424"><ele>264.0</ele><time>2026-04-11T07:26:42.351Z</time></trkpt><trkpt lat="37.7372128" lon="-1.5333474"><ele>264.0</ele><time>2026-04-11T07:26:43.351Z</time></trkpt><trkpt lat="37.7369691" lon="-1.5335475"><ele>261.5</ele><time>2026-04-11T07:26:44.35Z</time></trkpt><trkpt lat="37.7367162" lon="-1.5337432"><ele>259.0</ele><time>2026-04-11T07:26:45.351Z</time></trkpt><trkpt lat="37.7364593" lon="-1.5339319"><ele>259.0</ele><time>2026-04-11T07:26:46.351Z</time></trkpt><trkpt lat="37.7362007" lon="-1.5341153"><ele>259.0</ele><time>2026-04-11T07:26:47.351Z</time></trkpt><trkpt lat="37.7359449" lon="-1.5342904"><ele>259.0</ele><time>2026-04-11T07:26:48.351Z</time></trkpt><trkpt lat="37.7356905" lon="-1.5344679"><ele>259.0</ele><time>2026-04-11T07:26:49.351Z</time></trkpt><trkpt lat="37.7354359" lon="-1.5346531"><ele>259.5</ele><time>2026-04-11T07:26:50.351Z</time></trkpt><trkpt lat="37.7351833" lon="-1.5348395"><ele>260.0</ele><time>2026-04-11T07:26:51.35Z</time></trkpt><trkpt lat="37.7349358" lon="-1.5350362"><ele>260.0</ele><time>2026-04-11T07:26:52.351Z</time></trkpt><trkpt lat="37.73469" lon="-1.5352466"><ele>260.0</ele><time>2026-04-11T07:26:53.351Z</time></trkpt><trkpt lat="37.7344475" lon="-1.5354706"><ele>259.5</ele><time>2026-04-11T07:26:54.351Z</time></trkpt><trkpt lat="37.7342079" lon="-1.5357105"><ele>259.0</ele><time>2026-04-11T07:26:55.35Z</time></trkpt><trkpt lat="37.7339746" lon="-1.5359665"><ele>259.0</ele><time>2026-04-11T07:26:56.351Z</time></trkpt><trkpt lat="37.7337429" lon="-1.5362388"><ele>259.0</ele><time>2026-04-11T07:26:57.351Z</time></trkpt><trkpt lat="37.7335205" lon="-1.5365195"><ele>258.5</ele><time>2026-04-11T07:26:58.35Z</time></trkpt><trkpt lat="37.733304" lon="-1.5368171"><ele>258.0</ele><time>2026-04-11T07:26:59.351Z</time></trkpt><trkpt lat="37.7330931" lon="-1.53713"><ele>257.5</ele><time>2026-04-11T07:27:00.351Z</time></trkpt><trkpt lat="37.7328936" lon="-1.5374579"><ele>257.0</ele><time>2026-04-11T07:27:01.351Z</time></trkpt><trkpt lat="37.7327001" lon="-1.5377996"><ele>254.0</ele><time>2026-04-11T07:27:02.351Z</time></trkpt><trkpt lat="37.7324465" lon="-1.5383225"><ele>255.0</ele><time>2026-04-11T07:27:04.29Z</time></trkpt><trkpt lat="37.7321871" lon="-1.5389054"><ele>255.0</ele><time>2026-04-11T07:27:05.352Z</time></trkpt><trkpt lat="37.732043" lon="-1.5392886"><ele>255.0</ele><time>2026-04-11T07:27:06.354Z</time></trkpt><trkpt lat="37.7319078" lon="-1.5396818"><ele>254.0</ele><time>2026-04-11T07:27:07.358Z</time></trkpt><trkpt lat="37.7317871" lon="-1.5400796"><ele>253.0</ele><time>2026-04-11T07:27:08.364Z</time></trkpt><trkpt lat="37.7316743" lon="-1.5404904"><ele>253.0</ele><time>2026-04-11T07:27:09.366Z</time></trkpt><trkpt lat="37.7315771" lon="-1.5409081"><ele>253.0</ele><time>2026-04-11T07:27:10.365Z</time></trkpt><trkpt lat="37.7314938" lon="-1.5413309"><ele>253.0</ele><time>2026-04-11T07:27:11.366Z</time></trkpt><trkpt lat="37.7314276" lon="-1.5417606"><ele>253.0</ele><time>2026-04-11T07:27:12.365Z</time></trkpt><trkpt lat="37.7313744" lon="-1.5421929"><ele>253.0</ele><time>2026-04-11T07:27:13.365Z</time></trkpt><trkpt lat="37.7313326" lon="-1.5426261"><ele>253.0</ele><time>2026-04-11T07:27:14.366Z</time></trkpt><trkpt lat="37.7313084" lon="-1.5430632"><ele>253.0</ele><time>2026-04-11T07:27:15.365Z</time></trkpt><trkpt lat="37.7312966" lon="-1.5434969"><ele>253.0</ele><time>2026-04-11T07:27:16.366Z</time></trkpt><trkpt lat="37.7312994" lon="-1.5439296"><ele>253.0</ele><time>2026-04-11T07:27:17.366Z</time></trkpt><trkpt lat="37.7313186" lon="-1.5443625"><ele>253.0</ele><time>2026-04-11T07:27:18.366Z</time></trkpt><trkpt lat="37.7313427" lon="-1.5447986"><ele>253.0</ele><time>2026-04-11T07:27:19.366Z</time></trkpt><trkpt lat="37.7313732" lon="-1.5452288"><ele>253.0</ele><time>2026-04-11T07:27:20.366Z</time></trkpt><trkpt lat="37.7314059" lon="-1.5456415"><ele>252.0</ele><time>2026-04-11T07:27:21.366Z</time></trkpt><trkpt lat="37.731436" lon="-1.5460479"><ele>251.0</ele><time>2026-04-11T07:27:22.366Z</time></trkpt><trkpt lat="37.7314608" lon="-1.5464297"><ele>251.0</ele><time>2026-04-11T07:27:23.366Z</time></trkpt><trkpt lat="37.7314833" lon="-1.5467969"><ele>251.0</ele><time>2026-04-11T07:27:24.366Z</time></trkpt><trkpt lat="37.7315005" lon="-1.5471575"><ele>251.0</ele><time>2026-04-11T07:27:25.365Z</time></trkpt><trkpt lat="37.7315098" lon="-1.5475173"><ele>251.0</ele><time>2026-04-11T07:27:26.366Z</time></trkpt><trkpt lat="37.731508" lon="-1.5478759"><ele>250.5</ele><time>2026-04-11T07:27:27.365Z</time></trkpt><trkpt lat="37.7314943" lon="-1.5482381"><ele>250.0</ele><time>2026-04-11T07:27:28.366Z</time></trkpt><trkpt lat="37.7314703" lon="-1.5486078"><ele>250.5</ele><time>2026-04-11T07:27:29.366Z</time></trkpt><trkpt lat="37.7314389" lon="-1.5489838"><ele>251.0</ele><time>2026-04-11T07:27:30.365Z</time></trkpt><trkpt lat="37.7313921" lon="-1.5493628"><ele>252.0</ele><time>2026-04-11T07:27:31.366Z</time></trkpt><trkpt lat="37.7313322" lon="-1.5497417"><ele>253.0</ele><time>2026-04-11T07:27:32.366Z</time></trkpt><trkpt lat="37.7312614" lon="-1.5501225"><ele>251.5</ele><time>2026-04-11T07:27:33.366Z</time></trkpt><trkpt lat="37.731177" lon="-1.5505074"><ele>250.0</ele><time>2026-04-11T07:27:34.365Z</time></trkpt><trkpt lat="37.7310771" lon="-1.5508921"><ele>249.0</ele><time>2026-04-11T07:27:35.366Z</time></trkpt><trkpt lat="37.7309669" lon="-1.5512755"><ele>248.0</ele><time>2026-04-11T07:27:36.366Z</time></trkpt><trkpt lat="37.7308433" lon="-1.5516536"><ele>248.0</ele><time>2026-04-11T07:27:37.366Z</time></trkpt><trkpt lat="37.7307106" lon="-1.5520326"><ele>248.0</ele><time>2026-04-11T07:27:38.366Z</time></trkpt><trkpt lat="37.7305637" lon="-1.5524044"><ele>249.0</ele><time>2026-04-11T07:27:39.366Z</time></trkpt><trkpt lat="37.7304051" lon="-1.5527733"><ele>250.0</ele><time>2026-04-11T07:27:40.365Z</time></trkpt><trkpt lat="37.730238" lon="-1.5531389"><ele>250.5</ele><time>2026-04-11T07:27:41.366Z</time></trkpt><trkpt lat="37.7300644" lon="-1.553509"><ele>251.0</ele><time>2026-04-11T07:27:42.366Z</time></trkpt><trkpt lat="37.729893" lon="-1.5538773"><ele>251.5</ele><time>2026-04-11T07:27:43.366Z</time></trkpt><trkpt lat="37.7297205" lon="-1.5542459"><ele>252.0</ele><time>2026-04-11T07:27:44.366Z</time></trkpt><trkpt lat="37.7295447" lon="-1.5546178"><ele>252.0</ele><time>2026-04-11T07:27:45.366Z</time></trkpt><trkpt lat="37.7293699" lon="-1.5549921"><ele>252.0</ele><time>2026-04-11T07:27:46.366Z</time></trkpt><trkpt lat="37.729194" lon="-1.5553672"><ele>252.5</ele><time>2026-04-11T07:27:47.365Z</time></trkpt><trkpt lat="37.7290183" lon="-1.5557441"><ele>253.0</ele><time>2026-04-11T07:27:48.366Z</time></trkpt><trkpt lat="37.7288451" lon="-1.5561219"><ele>252.5</ele><time>2026-04-11T07:27:49.366Z</time></trkpt><trkpt lat="37.7286676" lon="-1.5564934"><ele>252.0</ele><time>2026-04-11T07:27:50.365Z</time></trkpt><trkpt lat="37.7284927" lon="-1.5568706"><ele>251.0</ele><time>2026-04-11T07:27:51.365Z</time></trkpt><trkpt lat="37.7283194" lon="-1.5572443"><ele>250.0</ele><time>2026-04-11T07:27:52.366Z</time></trkpt><trkpt lat="37.7281485" lon="-1.557617"><ele>250.0</ele><time>2026-04-11T07:27:53.366Z</time></trkpt><trkpt lat="37.7279714" lon="-1.5579911"><ele>250.0</ele><time>2026-04-11T07:27:54.365Z</time></trkpt><trkpt lat="37.7277952" lon="-1.5583667"><ele>250.0</ele><time>2026-04-11T07:27:55.366Z</time></trkpt><trkpt lat="37.7276189" lon="-1.558742"><ele>250.0</ele><time>2026-04-11T07:27:56.366Z</time></trkpt><trkpt lat="37.7274476" lon="-1.559116"><ele>250.0</ele><time>2026-04-11T07:27:57.366Z</time></trkpt><trkpt lat="37.7272735" lon="-1.5594914"><ele>250.0</ele><time>2026-04-11T07:27:58.366Z</time></trkpt><trkpt lat="37.7270998" lon="-1.5598656"><ele>250.0</ele><time>2026-04-11T07:27:59.365Z</time></trkpt><trkpt lat="37.7269227" lon="-1.560241"><ele>250.0</ele><time>2026-04-11T07:28:00.366Z</time></trkpt><trkpt lat="37.7267488" lon="-1.5606155"><ele>250.0</ele><time>2026-04-11T07:28:01.366Z</time></trkpt><trkpt lat="37.7265742" lon="-1.5609919"><ele>250.0</ele><time>2026-04-11T07:28:02.366Z</time></trkpt><trkpt lat="37.7263998" lon="-1.5613662"><ele>249.5</ele><time>2026-04-11T07:28:03.366Z</time></trkpt><trkpt lat="37.7262263" lon="-1.5617431"><ele>249.0</ele><time>2026-04-11T07:28:04.366Z</time></trkpt><trkpt lat="37.7260535" lon="-1.5621176"><ele>249.0</ele><time>2026-04-11T07:28:05.365Z</time></trkpt><trkpt lat="37.7258772" lon="-1.562492"><ele>249.0</ele><time>2026-04-11T07:28:06.365Z</time></trkpt><trkpt lat="37.7256989" lon="-1.5628663"><ele>249.0</ele><time>2026-04-11T07:28:07.366Z</time></trkpt><trkpt lat="37.7255238" lon="-1.5632373"><ele>249.0</ele><time>2026-04-11T07:28:08.366Z</time></trkpt><trkpt lat="37.7253496" lon="-1.5636114"><ele>249.5</ele><time>2026-04-11T07:28:09.365Z</time></trkpt><trkpt lat="37.7251752" lon="-1.5639873"><ele>250.0</ele><time>2026-04-11T07:28:10.365Z</time></trkpt><trkpt lat="37.7250024" lon="-1.5643601"><ele>250.0</ele><time>2026-04-11T07:28:11.366Z</time></trkpt><trkpt lat="37.7248282" lon="-1.5647362"><ele>250.0</ele><time>2026-04-11T07:28:12.366Z</time></trkpt><trkpt lat="37.724655" lon="-1.5651067"><ele>249.5</ele><time>2026-04-11T07:28:13.366Z</time></trkpt><trkpt lat="37.7244788" lon="-1.5654802"><ele>249.0</ele><time>2026-04-11T07:28:14.365Z</time></trkpt><trkpt lat="37.7243007" lon="-1.5658556"><ele>249.0</ele><time>2026-04-11T07:28:15.366Z</time></trkpt><trkpt lat="37.724126" lon="-1.5662292"><ele>249.0</ele><time>2026-04-11T07:28:16.366Z</time></trkpt><trkpt lat="37.7239497" lon="-1.5666028"><ele>249.0</ele><time>2026-04-11T07:28:17.366Z</time></trkpt><trkpt lat="37.7237795" lon="-1.5669672"><ele>249.0</ele><time>2026-04-11T07:28:18.366Z</time></trkpt><trkpt lat="37.7236061" lon="-1.5673424"><ele>249.0</ele><time>2026-04-11T07:28:19.366Z</time></trkpt><trkpt lat="37.7234314" lon="-1.5677147"><ele>249.0</ele><time>2026-04-11T07:28:20.366Z</time></trkpt><trkpt lat="37.7232568" lon="-1.568089"><ele>250.0</ele><time>2026-04-11T07:28:21.366Z</time></trkpt><trkpt lat="37.7230847" lon="-1.5684615"><ele>251.0</ele><time>2026-04-11T07:28:22.366Z</time></trkpt><trkpt lat="37.7229119" lon="-1.5688336"><ele>252.0</ele><time>2026-04-11T07:28:23.366Z</time></trkpt><trkpt lat="37.722738" lon="-1.5692079"><ele>253.0</ele><time>2026-04-11T07:28:24.366Z</time></trkpt><trkpt lat="37.7225602" lon="-1.5695792"><ele>254.0</ele><time>2026-04-11T07:28:25.366Z</time></trkpt><trkpt lat="37.7223851" lon="-1.5699534"><ele>255.0</ele><time>2026-04-11T07:28:26.366Z</time></trkpt><trkpt lat="37.7222099" lon="-1.5703277"><ele>255.5</ele><time>2026-04-11T07:28:27.366Z</time></trkpt><trkpt lat="37.7220369" lon="-1.570705"><ele>256.0</ele><time>2026-04-11T07:28:28.365Z</time></trkpt><trkpt lat="37.7218665" lon="-1.5710765"><ele>257.0</ele><time>2026-04-11T07:28:29.366Z</time></trkpt><trkpt lat="37.7216933" lon="-1.5714504"><ele>258.0</ele><time>2026-04-11T07:28:30.366Z</time></trkpt><trkpt lat="37.7215236" lon="-1.5718235"><ele>259.5</ele><time>2026-04-11T07:28:31.366Z</time></trkpt><trkpt lat="37.7213513" lon="-1.5721913"><ele>261.0</ele><time>2026-04-11T07:28:32.366Z</time></trkpt><trkpt lat="37.7211753" lon="-1.5725622"><ele>261.5</ele><time>2026-04-11T07:28:33.366Z</time></trkpt><trkpt lat="37.7209972" lon="-1.572931"><ele>262.0</ele><time>2026-04-11T07:28:34.366Z</time></trkpt><trkpt lat="37.7208243" lon="-1.5733031"><ele>262.0</ele><time>2026-04-11T07:28:35.366Z</time></trkpt><trkpt lat="37.7206472" lon="-1.5736732"><ele>262.0</ele><time>2026-04-11T07:28:36.366Z</time></trkpt><trkpt lat="37.720475" lon="-1.5740413"><ele>265.0</ele><time>2026-04-11T07:28:37.366Z</time></trkpt><trkpt lat="37.7203035" lon="-1.5744106"><ele>268.0</ele><time>2026-04-11T07:28:38.366Z</time></trkpt><trkpt lat="37.7201339" lon="-1.5747835"><ele>268.5</ele><time>2026-04-11T07:28:39.366Z</time></trkpt><trkpt lat="37.7199596" lon="-1.5751559"><ele>269.0</ele><time>2026-04-11T07:28:40.366Z</time></trkpt><trkpt lat="37.7197864" lon="-1.5755272"><ele>270.5</ele><time>2026-04-11T07:28:41.366Z</time></trkpt><trkpt lat="37.719611" lon="-1.5758978"><ele>272.0</ele><time>2026-04-11T07:28:42.366Z</time></trkpt><trkpt lat="37.7194346" lon="-1.5762691"><ele>273.0</ele><time>2026-04-11T07:28:43.365Z</time></trkpt><trkpt lat="37.7192606" lon="-1.5766436"><ele>274.0</ele><time>2026-04-11T07:28:44.366Z</time></trkpt><trkpt lat="37.7190857" lon="-1.5770131"><ele>274.5</ele><time>2026-04-11T07:28:45.366Z</time></trkpt><trkpt lat="37.7189106" lon="-1.5773944"><ele>275.0</ele><time>2026-04-11T07:28:46.366Z</time></trkpt><trkpt lat="37.7187351" lon="-1.5777756"><ele>274.5</ele><time>2026-04-11T07:28:47.366Z</time></trkpt><trkpt lat="37.7185574" lon="-1.5781581"><ele>274.0</ele><time>2026-04-11T07:28:48.366Z</time></trkpt><trkpt lat="37.7183819" lon="-1.578539"><ele>273.5</ele><time>2026-04-11T07:28:49.366Z</time></trkpt><trkpt lat="37.718207" lon="-1.5789189"><ele>273.0</ele><time>2026-04-11T07:28:50.366Z</time></trkpt><trkpt lat="37.7180329" lon="-1.5793002"><ele>273.0</ele><time>2026-04-11T07:28:51.366Z</time></trkpt><trkpt lat="37.7178594" lon="-1.5796804"><ele>273.0</ele><time>2026-04-11T07:28:52.366Z</time></trkpt><trkpt lat="37.7176874" lon="-1.5800591"><ele>273.5</ele><time>2026-04-11T07:28:53.366Z</time></trkpt><trkpt lat="37.7175205" lon="-1.5804396"><ele>274.0</ele><time>2026-04-11T07:28:54.366Z</time></trkpt><trkpt lat="37.7173639" lon="-1.5808275"><ele>274.0</ele><time>2026-04-11T07:28:55.366Z</time></trkpt><trkpt lat="37.7172141" lon="-1.5812161"><ele>274.0</ele><time>2026-04-11T07:28:56.366Z</time></trkpt><trkpt lat="37.7170701" lon="-1.5816079"><ele>274.0</ele><time>2026-04-11T07:28:57.366Z</time></trkpt><trkpt lat="37.7169286" lon="-1.5820061"><ele>274.0</ele><time>2026-04-11T07:28:58.365Z</time></trkpt><trkpt lat="37.7167879" lon="-1.5823995"><ele>273.0</ele><time>2026-04-11T07:28:59.365Z</time></trkpt><trkpt lat="37.7166533" lon="-1.5827929"><ele>272.0</ele><time>2026-04-11T07:29:00.366Z</time></trkpt><trkpt lat="37.7165248" lon="-1.5831923"><ele>272.0</ele><time>2026-04-11T07:29:01.365Z</time></trkpt><trkpt lat="37.716401" lon="-1.5835926"><ele>272.0</ele><time>2026-04-11T07:29:02.365Z</time></trkpt><trkpt lat="37.7162825" lon="-1.5839996"><ele>273.0</ele><time>2026-04-11T07:29:03.366Z</time></trkpt><trkpt lat="37.7161723" lon="-1.5844063"><ele>274.0</ele><time>2026-04-11T07:29:04.366Z</time></trkpt><trkpt lat="37.716064" lon="-1.5848178"><ele>275.0</ele><time>2026-04-11T07:29:05.366Z</time></trkpt><trkpt lat="37.7159645" lon="-1.5852313"><ele>276.0</ele><time>2026-04-11T07:29:06.366Z</time></trkpt><trkpt lat="37.715868" lon="-1.5856457"><ele>276.5</ele><time>2026-04-11T07:29:07.366Z</time></trkpt><trkpt lat="37.7157771" lon="-1.5860595"><ele>277.0</ele><time>2026-04-11T07:29:08.365Z</time></trkpt><trkpt lat="37.7156928" lon="-1.5864807"><ele>277.5</ele><time>2026-04-11T07:29:09.365Z</time></trkpt><trkpt lat="37.715614" lon="-1.586904"><ele>278.0</ele><time>2026-04-11T07:29:10.365Z</time></trkpt><trkpt lat="37.7155399" lon="-1.5873278"><ele>279.0</ele><time>2026-04-11T07:29:11.365Z</time></trkpt><trkpt lat="37.7154714" lon="-1.5877519"><ele>280.0</ele><time>2026-04-11T07:29:12.366Z</time></trkpt><trkpt lat="37.7154072" lon="-1.5881747"><ele>280.5</ele><time>2026-04-11T07:29:13.366Z</time></trkpt><trkpt lat="37.7153518" lon="-1.5886035"><ele>281.0</ele><time>2026-04-11T07:29:14.366Z</time></trkpt><trkpt lat="37.7153033" lon="-1.5890317"><ele>283.5</ele><time>2026-04-11T07:29:15.366Z</time></trkpt><trkpt lat="37.7152577" lon="-1.5894619"><ele>286.0</ele><time>2026-04-11T07:29:16.366Z</time></trkpt><trkpt lat="37.7152186" lon="-1.5898894"><ele>286.0</ele><time>2026-04-11T07:29:17.366Z</time></trkpt><trkpt lat="37.7151837" lon="-1.5903198"><ele>286.0</ele><time>2026-04-11T07:29:18.366Z</time></trkpt><trkpt lat="37.7151562" lon="-1.5907482"><ele>288.5</ele><time>2026-04-11T07:29:19.366Z</time></trkpt><trkpt lat="37.7151368" lon="-1.5911742"><ele>291.0</ele><time>2026-04-11T07:29:20.366Z</time></trkpt><trkpt lat="37.7151227" lon="-1.5916055"><ele>292.5</ele><time>2026-04-11T07:29:21.365Z</time></trkpt><trkpt lat="37.7151144" lon="-1.592041"><ele>294.0</ele><time>2026-04-11T07:29:22.366Z</time></trkpt><trkpt lat="37.7151096" lon="-1.5924707"><ele>295.5</ele><time>2026-04-11T07:29:23.366Z</time></trkpt><trkpt lat="37.7151041" lon="-1.5929047"><ele>297.0</ele><time>2026-04-11T07:29:24.366Z</time></trkpt><trkpt lat="37.7150985" lon="-1.5933371"><ele>298.5</ele><time>2026-04-11T07:29:25.365Z</time></trkpt><trkpt lat="37.7150926" lon="-1.5937719"><ele>300.0</ele><time>2026-04-11T07:29:26.366Z</time></trkpt><trkpt lat="37.7150862" lon="-1.5942019"><ele>303.5</ele><time>2026-04-11T07:29:27.366Z</time></trkpt><trkpt lat="37.7150805" lon="-1.5946351"><ele>307.0</ele><time>2026-04-11T07:29:28.365Z</time></trkpt><trkpt lat="37.7150691" lon="-1.5950691"><ele>308.5</ele><time>2026-04-11T07:29:29.366Z</time></trkpt><trkpt lat="37.715053" lon="-1.595506"><ele>310.0</ele><time>2026-04-11T07:29:30.365Z</time></trkpt><trkpt lat="37.7150329" lon="-1.5959395"><ele>311.0</ele><time>2026-04-11T07:29:31.366Z</time></trkpt><trkpt lat="37.7150046" lon="-1.5963712"><ele>312.0</ele><time>2026-04-11T07:29:32.365Z</time></trkpt><trkpt lat="37.7149716" lon="-1.5968011"><ele>315.5</ele><time>2026-04-11T07:29:33.366Z</time></trkpt><trkpt lat="37.7149249" lon="-1.5972313"><ele>319.0</ele><time>2026-04-11T07:29:34.366Z</time></trkpt><trkpt lat="37.714869" lon="-1.5976567"><ele>318.0</ele><time>2026-04-11T07:29:35.365Z</time></trkpt><trkpt lat="37.7148032" lon="-1.5980844"><ele>317.0</ele><time>2026-04-11T07:29:36.366Z</time></trkpt><trkpt lat="37.7147324" lon="-1.5985058"><ele>315.5</ele><time>2026-04-11T07:29:37.366Z</time></trkpt><trkpt lat="37.7146508" lon="-1.5989276"><ele>314.0</ele><time>2026-04-11T07:29:38.366Z</time></trkpt><trkpt lat="37.7145611" lon="-1.5993443"><ele>315.0</ele><time>2026-04-11T07:29:39.366Z</time></trkpt><trkpt lat="37.7144627" lon="-1.5997614"><ele>316.0</ele><time>2026-04-11T07:29:40.366Z</time></trkpt><trkpt lat="37.7143537" lon="-1.6001764"><ele>319.5</ele><time>2026-04-11T07:29:41.366Z</time></trkpt><trkpt lat="37.7142386" lon="-1.6005848"><ele>323.0</ele><time>2026-04-11T07:29:42.366Z</time></trkpt><trkpt lat="37.7141141" lon="-1.6009918"><ele>324.0</ele><time>2026-04-11T07:29:43.365Z</time></trkpt><trkpt lat="37.7139833" lon="-1.6013903"><ele>325.0</ele><time>2026-04-11T07:29:44.366Z</time></trkpt><trkpt lat="37.7138427" lon="-1.6017866"><ele>325.5</ele><time>2026-04-11T07:29:45.366Z</time></trkpt><trkpt lat="37.7136955" lon="-1.6021779"><ele>326.0</ele><time>2026-04-11T07:29:46.366Z</time></trkpt><trkpt lat="37.7135404" lon="-1.6025627"><ele>327.5</ele><time>2026-04-11T07:29:47.366Z</time></trkpt><trkpt lat="37.7133835" lon="-1.6029378"><ele>329.0</ele><time>2026-04-11T07:29:48.366Z</time></trkpt><trkpt lat="37.713218" lon="-1.6033002"><ele>329.0</ele><time>2026-04-11T07:29:49.365Z</time></trkpt><trkpt lat="37.7130448" lon="-1.6036605"><ele>329.0</ele><time>2026-04-11T07:29:50.365Z</time></trkpt><trkpt lat="37.7128586" lon="-1.6040212"><ele>327.5</ele><time>2026-04-11T07:29:51.366Z</time></trkpt><trkpt lat="37.7126656" lon="-1.6043774"><ele>326.0</ele><time>2026-04-11T07:29:52.366Z</time></trkpt><trkpt lat="37.7124682" lon="-1.6047296"><ele>326.0</ele><time>2026-04-11T07:29:53.365Z</time></trkpt><trkpt lat="37.7122658" lon="-1.6050777"><ele>326.0</ele><time>2026-04-11T07:29:54.366Z</time></trkpt><trkpt lat="37.7120522" lon="-1.605421"><ele>325.0</ele><time>2026-04-11T07:29:55.365Z</time></trkpt><trkpt lat="37.7118328" lon="-1.6057575"><ele>324.0</ele><time>2026-04-11T07:29:56.366Z</time></trkpt><trkpt lat="37.7116036" lon="-1.6060846"><ele>326.0</ele><time>2026-04-11T07:29:57.366Z</time></trkpt><trkpt lat="37.7113694" lon="-1.6064082"><ele>328.0</ele><time>2026-04-11T07:29:58.366Z</time></trkpt><trkpt lat="37.7111339" lon="-1.6067293"><ele>324.5</ele><time>2026-04-11T07:29:59.366Z</time></trkpt><trkpt lat="37.7109035" lon="-1.6070465"><ele>321.0</ele><time>2026-04-11T07:30:00.366Z</time></trkpt><trkpt lat="37.7106718" lon="-1.6073699"><ele>321.0</ele><time>2026-04-11T07:30:01.366Z</time></trkpt><trkpt lat="37.7104409" lon="-1.6076909"><ele>321.0</ele><time>2026-04-11T07:30:02.366Z</time></trkpt><trkpt lat="37.7102104" lon="-1.6080164"><ele>319.5</ele><time>2026-04-11T07:30:03.365Z</time></trkpt><trkpt lat="37.7099899" lon="-1.6083521"><ele>318.0</ele><time>2026-04-11T07:30:04.365Z</time></trkpt><trkpt lat="37.7097722" lon="-1.6087008"><ele>316.5</ele><time>2026-04-11T07:30:05.366Z</time></trkpt><trkpt lat="37.709568" lon="-1.609041"><ele>315.0</ele><time>2026-04-11T07:30:06.366Z</time></trkpt><trkpt lat="37.7093697" lon="-1.6093918"><ele>316.5</ele><time>2026-04-11T07:30:07.366Z</time></trkpt><trkpt lat="37.7091812" lon="-1.6097486"><ele>318.0</ele><time>2026-04-11T07:30:08.366Z</time></trkpt><trkpt lat="37.7090043" lon="-1.6101166"><ele>317.5</ele><time>2026-04-11T07:30:09.366Z</time></trkpt><trkpt lat="37.7088363" lon="-1.6104995"><ele>317.0</ele><time>2026-04-11T07:30:10.366Z</time></trkpt><trkpt lat="37.7086847" lon="-1.6108895"><ele>316.0</ele><time>2026-04-11T07:30:11.366Z</time></trkpt><trkpt lat="37.7085395" lon="-1.611279"><ele>315.0</ele><time>2026-04-11T07:30:12.366Z</time></trkpt><trkpt lat="37.7084072" lon="-1.611677"><ele>314.0</ele><time>2026-04-11T07:30:13.365Z</time></trkpt><trkpt lat="37.7082835" lon="-1.6120761"><ele>313.0</ele><time>2026-04-11T07:30:14.366Z</time></trkpt><trkpt lat="37.7081666" lon="-1.6124805"><ele>313.5</ele><time>2026-04-11T07:30:15.366Z</time></trkpt><trkpt lat="37.7080578" lon="-1.6128867"><ele>314.0</ele><time>2026-04-11T07:30:16.366Z</time></trkpt><trkpt lat="37.7079535" lon="-1.6132988"><ele>316.5</ele><time>2026-04-11T07:30:17.366Z</time></trkpt><trkpt lat="37.7078563" lon="-1.6137131"><ele>319.0</ele><time>2026-04-11T07:30:18.365Z</time></trkpt><trkpt lat="37.7077664" lon="-1.6141318"><ele>318.0</ele><time>2026-04-11T07:30:19.366Z</time></trkpt><trkpt lat="37.7076843" lon="-1.6145563"><ele>317.0</ele><time>2026-04-11T07:30:20.366Z</time></trkpt><trkpt lat="37.7076108" lon="-1.6149764"><ele>317.0</ele><time>2026-04-11T07:30:21.366Z</time></trkpt><trkpt lat="37.7075372" lon="-1.6153957"><ele>317.0</ele><time>2026-04-11T07:30:22.366Z</time></trkpt><trkpt lat="37.7074669" lon="-1.615818"><ele>320.0</ele><time>2026-04-11T07:30:23.365Z</time></trkpt><trkpt lat="37.707403" lon="-1.6162396"><ele>323.0</ele><time>2026-04-11T07:30:24.366Z</time></trkpt><trkpt lat="37.7073385" lon="-1.6166606"><ele>324.0</ele><time>2026-04-11T07:30:25.366Z</time></trkpt><trkpt lat="37.7072731" lon="-1.617083"><ele>325.0</ele><time>2026-04-11T07:30:26.366Z</time></trkpt><trkpt lat="37.7072073" lon="-1.6175031"><ele>325.0</ele><time>2026-04-11T07:30:27.366Z</time></trkpt><trkpt lat="37.7071403" lon="-1.6179309"><ele>325.0</ele><time>2026-04-11T07:30:28.366Z</time></trkpt><trkpt lat="37.7070671" lon="-1.6183586"><ele>325.5</ele><time>2026-04-11T07:30:29.366Z</time></trkpt><trkpt lat="37.7069889" lon="-1.6187844"><ele>326.0</ele><time>2026-04-11T07:30:30.366Z</time></trkpt><trkpt lat="37.7069043" lon="-1.6192005"><ele>324.0</ele><time>2026-04-11T07:30:31.366Z</time></trkpt><trkpt lat="37.7068119" lon="-1.6196217"><ele>322.0</ele><time>2026-04-11T07:30:32.366Z</time></trkpt><trkpt lat="37.7067126" lon="-1.620041"><ele>326.5</ele><time>2026-04-11T07:30:33.366Z</time></trkpt><trkpt lat="37.7066118" lon="-1.6204538"><ele>331.0</ele><time>2026-04-11T07:30:34.366Z</time></trkpt><trkpt lat="37.7065141" lon="-1.6208757"><ele>332.0</ele><time>2026-04-11T07:30:35.365Z</time></trkpt><trkpt lat="37.7064137" lon="-1.6212943"><ele>333.0</ele><time>2026-04-11T07:30:36.366Z</time></trkpt><trkpt lat="37.7063155" lon="-1.6217098"><ele>332.5</ele><time>2026-04-11T07:30:37.366Z</time></trkpt><trkpt lat="37.7062192" lon="-1.6221275"><ele>332.0</ele><time>2026-04-11T07:30:38.366Z</time></trkpt><trkpt lat="37.7061286" lon="-1.6225521"><ele>332.0</ele><time>2026-04-11T07:30:39.365Z</time></trkpt><trkpt lat="37.7060514" lon="-1.622975"><ele>332.0</ele><time>2026-04-11T07:30:40.366Z</time></trkpt><trkpt lat="37.7059865" lon="-1.6234041"><ele>330.5</ele><time>2026-04-11T07:30:41.366Z</time></trkpt><trkpt lat="37.7059357" lon="-1.6238333"><ele>329.0</ele><time>2026-04-11T07:30:42.366Z</time></trkpt><trkpt lat="37.705896" lon="-1.6242666"><ele>329.0</ele><time>2026-04-11T07:30:43.366Z</time></trkpt><trkpt lat="37.705869" lon="-1.6246991"><ele>329.0</ele><time>2026-04-11T07:30:44.366Z</time></trkpt><trkpt lat="37.7058561" lon="-1.6251317"><ele>331.0</ele><time>2026-04-11T07:30:45.366Z</time></trkpt><trkpt lat="37.7058553" lon="-1.6255607"><ele>333.0</ele><time>2026-04-11T07:30:46.366Z</time></trkpt><trkpt lat="37.7058643" lon="-1.6259964"><ele>333.5</ele><time>2026-04-11T07:30:47.366Z</time></trkpt><trkpt lat="37.7058805" lon="-1.6264321"><ele>334.0</ele><time>2026-04-11T07:30:48.366Z</time></trkpt><trkpt lat="37.7059003" lon="-1.6268662"><ele>333.5</ele><time>2026-04-11T07:30:49.366Z</time></trkpt><trkpt lat="37.7059178" lon="-1.6272999"><ele>333.0</ele><time>2026-04-11T07:30:50.366Z</time></trkpt><trkpt lat="37.7059325" lon="-1.6277317"><ele>331.0</ele><time>2026-04-11T07:30:51.365Z</time></trkpt><trkpt lat="37.7059406" lon="-1.628166"><ele>329.0</ele><time>2026-04-11T07:30:52.365Z</time></trkpt><trkpt lat="37.7059431" lon="-1.6286001"><ele>327.5</ele><time>2026-04-11T07:30:53.366Z</time></trkpt><trkpt lat="37.7059397" lon="-1.6290374"><ele>326.0</ele><time>2026-04-11T07:30:54.366Z</time></trkpt><trkpt lat="37.7059299" lon="-1.6294692"><ele>327.0</ele><time>2026-04-11T07:30:55.366Z</time></trkpt><trkpt lat="37.7059119" lon="-1.6299009"><ele>328.0</ele><time>2026-04-11T07:30:56.366Z</time></trkpt><trkpt lat="37.7058766" lon="-1.6303376"><ele>329.0</ele><time>2026-04-11T07:30:57.366Z</time></trkpt><trkpt lat="37.7058287" lon="-1.6307678"><ele>330.0</ele><time>2026-04-11T07:30:58.366Z</time></trkpt><trkpt lat="37.7057729" lon="-1.6311969"><ele>330.0</ele><time>2026-04-11T07:30:59.366Z</time></trkpt><trkpt lat="37.7057049" lon="-1.6316233"><ele>330.0</ele><time>2026-04-11T07:31:00.366Z</time></trkpt><trkpt lat="37.7056241" lon="-1.6320447"><ele>330.5</ele><time>2026-04-11T07:31:01.366Z</time></trkpt><trkpt lat="37.7055326" lon="-1.6324569"><ele>331.0</ele><time>2026-04-11T07:31:02.366Z</time></trkpt><trkpt lat="37.7054327" lon="-1.632856"><ele>331.0</ele><time>2026-04-11T07:31:03.366Z</time></trkpt><trkpt lat="37.7053228" lon="-1.6332431"><ele>331.0</ele><time>2026-04-11T07:31:04.365Z</time></trkpt><trkpt lat="37.7052053" lon="-1.6336189"><ele>329.5</ele><time>2026-04-11T07:31:05.366Z</time></trkpt><trkpt lat="37.7050825" lon="-1.6339859"><ele>328.0</ele><time>2026-04-11T07:31:06.366Z</time></trkpt><trkpt lat="37.7049578" lon="-1.6343475"><ele>329.0</ele><time>2026-04-11T07:31:07.366Z</time></trkpt><trkpt lat="37.7048277" lon="-1.6347017"><ele>330.0</ele><time>2026-04-11T07:31:08.366Z</time></trkpt><trkpt lat="37.7046932" lon="-1.6350531"><ele>328.5</ele><time>2026-04-11T07:31:09.366Z</time></trkpt><trkpt lat="37.7045624" lon="-1.6353979"><ele>327.0</ele><time>2026-04-11T07:31:10.366Z</time></trkpt><trkpt lat="37.7044365" lon="-1.6357398"><ele>326.5</ele><time>2026-04-11T07:31:11.366Z</time></trkpt><trkpt lat="37.7043119" lon="-1.6360904"><ele>326.0</ele><time>2026-04-11T07:31:12.365Z</time></trkpt><trkpt lat="37.7041965" lon="-1.6364507"><ele>326.0</ele><time>2026-04-11T07:31:13.366Z</time></trkpt><trkpt lat="37.7040905" lon="-1.6368168"><ele>326.0</ele><time>2026-04-11T07:31:14.365Z</time></trkpt><trkpt lat="37.7039905" lon="-1.6371903"><ele>328.0</ele><time>2026-04-11T07:31:15.365Z</time></trkpt><trkpt lat="37.7038982" lon="-1.6375693"><ele>330.0</ele><time>2026-04-11T07:31:16.365Z</time></trkpt><trkpt lat="37.7038093" lon="-1.6379599"><ele>330.0</ele><time>2026-04-11T07:31:17.366Z</time></trkpt><trkpt lat="37.7037223" lon="-1.6383557"><ele>330.0</ele><time>2026-04-11T07:31:18.366Z</time></trkpt><trkpt lat="37.7036413" lon="-1.6387555"><ele>329.5</ele><time>2026-04-11T07:31:19.366Z</time></trkpt><trkpt lat="37.7035566" lon="-1.6391546"><ele>329.0</ele><time>2026-04-11T07:31:20.365Z</time></trkpt><trkpt lat="37.7034627" lon="-1.6395496"><ele>328.5</ele><time>2026-04-11T07:31:21.366Z</time></trkpt><trkpt lat="37.7033559" lon="-1.6399343"><ele>328.0</ele><time>2026-04-11T07:31:22.366Z</time></trkpt><trkpt lat="37.7032371" lon="-1.6403131"><ele>327.5</ele><time>2026-04-11T07:31:23.366Z</time></trkpt><trkpt lat="37.7031044" lon="-1.6406879"><ele>327.0</ele><time>2026-04-11T07:31:24.366Z</time></trkpt><trkpt lat="37.7029618" lon="-1.641056"><ele>326.5</ele><time>2026-04-11T07:31:25.365Z</time></trkpt><trkpt lat="37.7028044" lon="-1.6414168"><ele>326.0</ele><time>2026-04-11T07:31:26.366Z</time></trkpt><trkpt lat="37.7026292" lon="-1.6417736"><ele>328.0</ele><time>2026-04-11T07:31:27.366Z</time></trkpt><trkpt lat="37.7024464" lon="-1.6421263"><ele>330.0</ele><time>2026-04-11T07:31:28.366Z</time></trkpt><trkpt lat="37.7022545" lon="-1.6424756"><ele>331.5</ele><time>2026-04-11T07:31:29.366Z</time></trkpt><trkpt lat="37.7020528" lon="-1.6428207"><ele>333.0</ele><time>2026-04-11T07:31:30.366Z</time></trkpt><trkpt lat="37.7018456" lon="-1.6431588"><ele>334.0</ele><time>2026-04-11T07:31:31.366Z</time></trkpt><trkpt lat="37.7016308" lon="-1.6434902"><ele>335.0</ele><time>2026-04-11T07:31:32.366Z</time></trkpt><trkpt lat="37.7014078" lon="-1.6438119"><ele>335.0</ele><time>2026-04-11T07:31:33.366Z</time></trkpt><trkpt lat="37.7011807" lon="-1.6441286"><ele>335.0</ele><time>2026-04-11T07:31:34.366Z</time></trkpt><trkpt lat="37.700949" lon="-1.6444465"><ele>332.5</ele><time>2026-04-11T07:31:35.365Z</time></trkpt><trkpt lat="37.7007166" lon="-1.6447595"><ele>330.0</ele><time>2026-04-11T07:31:36.366Z</time></trkpt><trkpt lat="37.7004822" lon="-1.6450732"><ele>329.0</ele><time>2026-04-11T07:31:37.366Z</time></trkpt><trkpt lat="37.7002485" lon="-1.6453942"><ele>328.0</ele><time>2026-04-11T07:31:38.366Z</time></trkpt><trkpt lat="37.7000188" lon="-1.6457172"><ele>328.0</ele><time>2026-04-11T07:31:39.366Z</time></trkpt><trkpt lat="37.6997938" lon="-1.64605"><ele>328.0</ele><time>2026-04-11T07:31:40.366Z</time></trkpt><trkpt lat="37.6995796" lon="-1.6463919"><ele>325.0</ele><time>2026-04-11T07:31:41.366Z</time></trkpt><trkpt lat="37.6993749" lon="-1.646741"><ele>322.0</ele><time>2026-04-11T07:31:42.366Z</time></trkpt><trkpt lat="37.6991805" lon="-1.6471015"><ele>322.0</ele><time>2026-04-11T07:31:43.366Z</time></trkpt><trkpt lat="37.6990004" lon="-1.6474702"><ele>322.0</ele><time>2026-04-11T07:31:44.365Z</time></trkpt><trkpt lat="37.6988315" lon="-1.6478407"><ele>322.0</ele><time>2026-04-11T07:31:45.366Z</time></trkpt><trkpt lat="37.698683" lon="-1.6482068"><ele>322.0</ele><time>2026-04-11T07:31:46.366Z</time></trkpt><trkpt lat="37.6985478" lon="-1.6485773"><ele>322.5</ele><time>2026-04-11T07:31:47.365Z</time></trkpt><trkpt lat="37.6984185" lon="-1.6489537"><ele>323.0</ele><time>2026-04-11T07:31:48.366Z</time></trkpt><trkpt lat="37.6983009" lon="-1.6493281"><ele>323.0</ele><time>2026-04-11T07:31:49.365Z</time></trkpt><trkpt lat="37.6981956" lon="-1.649713"><ele>323.0</ele><time>2026-04-11T07:31:50.366Z</time></trkpt><trkpt lat="37.6981031" lon="-1.6501029"><ele>323.0</ele><time>2026-04-11T07:31:51.366Z</time></trkpt><trkpt lat="37.6980199" lon="-1.6505023"><ele>323.0</ele><time>2026-04-11T07:31:52.366Z</time></trkpt><trkpt lat="37.6979454" lon="-1.6509009"><ele>322.5</ele><time>2026-04-11T07:31:53.366Z</time></trkpt><trkpt lat="37.6978801" lon="-1.6513079"><ele>322.0</ele><time>2026-04-11T07:31:54.366Z</time></trkpt><trkpt lat="37.6978207" lon="-1.6517142"><ele>323.0</ele><time>2026-04-11T07:31:55.366Z</time></trkpt><trkpt lat="37.6977647" lon="-1.6521219"><ele>324.0</ele><time>2026-04-11T07:31:56.366Z</time></trkpt><trkpt lat="37.6977071" lon="-1.6525268"><ele>325.0</ele><time>2026-04-11T07:31:57.366Z</time></trkpt><trkpt lat="37.6976451" lon="-1.6529323"><ele>326.0</ele><time>2026-04-11T07:31:58.366Z</time></trkpt><trkpt lat="37.697583" lon="-1.6533428"><ele>327.0</ele><time>2026-04-11T07:31:59.366Z</time></trkpt><trkpt lat="37.6975099" lon="-1.6537515"><ele>328.0</ele><time>2026-04-11T07:32:00.366Z</time></trkpt><trkpt lat="37.6974274" lon="-1.6541611"><ele>329.5</ele><time>2026-04-11T07:32:01.366Z</time></trkpt><trkpt lat="37.697337" lon="-1.6545727"><ele>331.0</ele><time>2026-04-11T07:32:02.366Z</time></trkpt><trkpt lat="37.6972343" lon="-1.6549803"><ele>333.5</ele><time>2026-04-11T07:32:03.365Z</time></trkpt><trkpt lat="37.6971224" lon="-1.6553848"><ele>336.0</ele><time>2026-04-11T07:32:04.366Z</time></trkpt><trkpt lat="37.696999" lon="-1.6557827"><ele>333.0</ele><time>2026-04-11T07:32:05.366Z</time></trkpt><trkpt lat="37.6968678" lon="-1.6561779"><ele>330.0</ele><time>2026-04-11T07:32:06.366Z</time></trkpt><trkpt lat="37.6967317" lon="-1.6565701"><ele>327.0</ele><time>2026-04-11T07:32:07.366Z</time></trkpt><trkpt lat="37.6965848" lon="-1.656959"><ele>324.0</ele><time>2026-04-11T07:32:08.366Z</time></trkpt><trkpt lat="37.6964274" lon="-1.6573428"><ele>324.0</ele><time>2026-04-11T07:32:09.366Z</time></trkpt><trkpt lat="37.6962641" lon="-1.6577226"><ele>324.0</ele><time>2026-04-11T07:32:10.366Z</time></trkpt><trkpt lat="37.6960959" lon="-1.6580981"><ele>325.0</ele><time>2026-04-11T07:32:11.366Z</time></trkpt><trkpt lat="37.6959276" lon="-1.6584723"><ele>326.0</ele><time>2026-04-11T07:32:12.366Z</time></trkpt><trkpt lat="37.6957536" lon="-1.6588403"><ele>326.5</ele><time>2026-04-11T07:32:13.365Z</time></trkpt><trkpt lat="37.6955746" lon="-1.659205"><ele>327.0</ele><time>2026-04-11T07:32:14.366Z</time></trkpt><trkpt lat="37.695397" lon="-1.6595685"><ele>327.0</ele><time>2026-04-11T07:32:15.365Z</time></trkpt><trkpt lat="37.6952158" lon="-1.6599351"><ele>327.0</ele><time>2026-04-11T07:32:16.366Z</time></trkpt><trkpt lat="37.6950361" lon="-1.6603048"><ele>329.0</ele><time>2026-04-11T07:32:17.366Z</time></trkpt><trkpt lat="37.6948583" lon="-1.6606713"><ele>331.0</ele><time>2026-04-11T07:32:18.366Z</time></trkpt><trkpt lat="37.694682" lon="-1.6610429"><ele>333.0</ele><time>2026-04-11T07:32:19.366Z</time></trkpt><trkpt lat="37.6945082" lon="-1.6614151"><ele>335.0</ele><time>2026-04-11T07:32:20.366Z</time></trkpt><trkpt lat="37.6943411" lon="-1.6617897"><ele>336.5</ele><time>2026-04-11T07:32:21.366Z</time></trkpt><trkpt lat="37.6941765" lon="-1.6621671"><ele>338.0</ele><time>2026-04-11T07:32:22.366Z</time></trkpt><trkpt lat="37.6940175" lon="-1.6625497"><ele>337.0</ele><time>2026-04-11T07:32:23.366Z</time></trkpt><trkpt lat="37.6938646" lon="-1.6629329"><ele>336.0</ele><time>2026-04-11T07:32:24.366Z</time></trkpt><trkpt lat="37.6937162" lon="-1.6633193"><ele>334.5</ele><time>2026-04-11T07:32:25.366Z</time></trkpt><trkpt lat="37.6935743" lon="-1.6637122"><ele>333.0</ele><time>2026-04-11T07:32:26.366Z</time></trkpt><trkpt lat="37.6934353" lon="-1.6641053"><ele>331.5</ele><time>2026-04-11T07:32:27.366Z</time></trkpt><trkpt lat="37.6933049" lon="-1.6645027"><ele>330.0</ele><time>2026-04-11T07:32:28.366Z</time></trkpt><trkpt lat="37.6931788" lon="-1.6649036"><ele>328.5</ele><time>2026-04-11T07:32:29.366Z</time></trkpt><trkpt lat="37.6930578" lon="-1.6653047"><ele>327.0</ele><time>2026-04-11T07:32:30.365Z</time></trkpt><trkpt lat="37.692941" lon="-1.6657088"><ele>328.0</ele><time>2026-04-11T07:32:31.366Z</time></trkpt><trkpt lat="37.6928285" lon="-1.666114"><ele>329.0</ele><time>2026-04-11T07:32:32.366Z</time></trkpt><trkpt lat="37.6927217" lon="-1.6665216"><ele>330.0</ele><time>2026-04-11T07:32:33.366Z</time></trkpt><trkpt lat="37.6926195" lon="-1.6669342"><ele>331.0</ele><time>2026-04-11T07:32:34.365Z</time></trkpt><trkpt lat="37.6925237" lon="-1.6673478"><ele>332.5</ele><time>2026-04-11T07:32:35.366Z</time></trkpt><trkpt lat="37.6924339" lon="-1.667764"><ele>334.0</ele><time>2026-04-11T07:32:36.366Z</time></trkpt><trkpt lat="37.6923476" lon="-1.6681784"><ele>337.5</ele><time>2026-04-11T07:32:37.366Z</time></trkpt><trkpt lat="37.692268" lon="-1.6685948"><ele>341.0</ele><time>2026-04-11T07:32:38.366Z</time></trkpt><trkpt lat="37.6921958" lon="-1.6690146"><ele>347.0</ele><time>2026-04-11T07:32:39.365Z</time></trkpt><trkpt lat="37.6921245" lon="-1.669438"><ele>353.0</ele><time>2026-04-11T07:32:40.365Z</time></trkpt><trkpt lat="37.692059" lon="-1.6698616"><ele>350.5</ele><time>2026-04-11T07:32:41.366Z</time></trkpt><trkpt lat="37.6919974" lon="-1.6702875"><ele>348.0</ele><time>2026-04-11T07:32:42.366Z</time></trkpt><trkpt lat="37.6919397" lon="-1.6707048"><ele>345.0</ele><time>2026-04-11T07:32:43.366Z</time></trkpt><trkpt lat="37.6918902" lon="-1.6711353"><ele>342.0</ele><time>2026-04-11T07:32:44.366Z</time></trkpt><trkpt lat="37.6918437" lon="-1.6715599"><ele>342.0</ele><time>2026-04-11T07:32:45.366Z</time></trkpt><trkpt lat="37.6918041" lon="-1.6719895"><ele>342.0</ele><time>2026-04-11T07:32:46.366Z</time></trkpt><trkpt lat="37.6917701" lon="-1.6724197"><ele>342.5</ele><time>2026-04-11T07:32:47.365Z</time></trkpt><trkpt lat="37.6917455" lon="-1.6728487"><ele>343.0</ele><time>2026-04-11T07:32:48.366Z</time></trkpt><trkpt lat="37.6917266" lon="-1.6732698"><ele>346.5</ele><time>2026-04-11T07:32:49.366Z</time></trkpt><trkpt lat="37.6917072" lon="-1.6736943"><ele>350.0</ele><time>2026-04-11T07:32:50.366Z</time></trkpt><trkpt lat="37.6916887" lon="-1.674121"><ele>352.0</ele><time>2026-04-11T07:32:51.366Z</time></trkpt><trkpt lat="37.6916691" lon="-1.674542"><ele>354.0</ele><time>2026-04-11T07:32:52.366Z</time></trkpt><trkpt lat="37.6916521" lon="-1.6749637"><ele>355.5</ele><time>2026-04-11T07:32:53.366Z</time></trkpt><trkpt lat="37.6916332" lon="-1.6753842"><ele>357.0</ele><time>2026-04-11T07:32:54.366Z</time></trkpt><trkpt lat="37.6916172" lon="-1.6758077"><ele>359.0</ele><time>2026-04-11T07:32:55.366Z</time></trkpt><trkpt lat="37.6916027" lon="-1.676227"><ele>361.0</ele><time>2026-04-11T07:32:56.366Z</time></trkpt><trkpt lat="37.6915866" lon="-1.6766448"><ele>365.0</ele><time>2026-04-11T07:32:57.366Z</time></trkpt><trkpt lat="37.6915664" lon="-1.6770647"><ele>369.0</ele><time>2026-04-11T07:32:58.366Z</time></trkpt><trkpt lat="37.6915333" lon="-1.6774817"><ele>372.5</ele><time>2026-04-11T07:32:59.366Z</time></trkpt><trkpt lat="37.691483" lon="-1.6778963"><ele>376.0</ele><time>2026-04-11T07:33:00.366Z</time></trkpt><trkpt lat="37.6914138" lon="-1.6783069"><ele>377.0</ele><time>2026-04-11T07:33:01.366Z</time></trkpt><trkpt lat="37.6913259" lon="-1.6787079"><ele>378.0</ele><time>2026-04-11T07:33:02.365Z</time></trkpt><trkpt lat="37.6912208" lon="-1.6791021"><ele>377.0</ele><time>2026-04-11T07:33:03.366Z</time></trkpt><trkpt lat="37.6910925" lon="-1.679489"><ele>376.0</ele><time>2026-04-11T07:33:04.366Z</time></trkpt><trkpt lat="37.6909543" lon="-1.6798678"><ele>376.0</ele><time>2026-04-11T07:33:05.366Z</time></trkpt><trkpt lat="37.6908099" lon="-1.6802397"><ele>376.0</ele><time>2026-04-11T07:33:06.366Z</time></trkpt><trkpt lat="37.6906666" lon="-1.6806107"><ele>376.5</ele><time>2026-04-11T07:33:07.366Z</time></trkpt><trkpt lat="37.6905348" lon="-1.6809917"><ele>377.0</ele><time>2026-04-11T07:33:08.365Z</time></trkpt><trkpt lat="37.6904174" lon="-1.6813785"><ele>378.5</ele><time>2026-04-11T07:33:09.366Z</time></trkpt><trkpt lat="37.6903207" lon="-1.681771"><ele>380.0</ele><time>2026-04-11T07:33:10.366Z</time></trkpt><trkpt lat="37.6902466" lon="-1.6821691"><ele>384.5</ele><time>2026-04-11T07:33:11.366Z</time></trkpt><trkpt lat="37.6901926" lon="-1.6825729"><ele>389.0</ele><time>2026-04-11T07:33:12.366Z</time></trkpt><trkpt lat="37.6901685" lon="-1.6829806"><ele>389.0</ele><time>2026-04-11T07:33:13.366Z</time></trkpt><trkpt lat="37.6901683" lon="-1.6833897"><ele>389.0</ele><time>2026-04-11T07:33:14.366Z</time></trkpt><trkpt lat="37.69019" lon="-1.6837999"><ele>391.5</ele><time>2026-04-11T07:33:15.365Z</time></trkpt><trkpt lat="37.6902331" lon="-1.6842053"><ele>394.0</ele><time>2026-04-11T07:33:16.366Z</time></trkpt><trkpt lat="37.6903014" lon="-1.6846055"><ele>399.0</ele><time>2026-04-11T07:33:17.366Z</time></trkpt><trkpt lat="37.690392" lon="-1.6849947"><ele>404.0</ele><time>2026-04-11T07:33:18.365Z</time></trkpt><trkpt lat="37.6905064" lon="-1.6853789"><ele>405.5</ele><time>2026-04-11T07:33:19.366Z</time></trkpt><trkpt lat="37.6906394" lon="-1.6857512"><ele>407.0</ele><time>2026-04-11T07:33:20.366Z</time></trkpt><trkpt lat="37.6907974" lon="-1.6861113"><ele>408.0</ele><time>2026-04-11T07:33:21.366Z</time></trkpt><trkpt lat="37.6909775" lon="-1.6864559"><ele>409.0</ele><time>2026-04-11T07:33:22.366Z</time></trkpt><trkpt lat="37.691177" lon="-1.6867849"><ele>412.0</ele><time>2026-04-11T07:33:23.366Z</time></trkpt><trkpt lat="37.6913935" lon="-1.6870942"><ele>415.0</ele><time>2026-04-11T07:33:24.366Z</time></trkpt><trkpt lat="37.6916299" lon="-1.6873857"><ele>415.0</ele><time>2026-04-11T07:33:25.366Z</time></trkpt><trkpt lat="37.6918781" lon="-1.6876643"><ele>415.0</ele><time>2026-04-11T07:33:26.365Z</time></trkpt><trkpt lat="37.692135" lon="-1.6879384"><ele>414.5</ele><time>2026-04-11T07:33:27.366Z</time></trkpt><trkpt lat="37.6923906" lon="-1.6882121"><ele>414.0</ele><time>2026-04-11T07:33:28.366Z</time></trkpt><trkpt lat="37.6926561" lon="-1.6884839"><ele>409.5</ele><time>2026-04-11T07:33:29.365Z</time></trkpt><trkpt lat="37.692916" lon="-1.6887609"><ele>405.0</ele><time>2026-04-11T07:33:30.366Z</time></trkpt><trkpt lat="37.6931733" lon="-1.6890465"><ele>405.0</ele><time>2026-04-11T07:33:31.366Z</time></trkpt><trkpt lat="37.6934226" lon="-1.6893434"><ele>405.0</ele><time>2026-04-11T07:33:32.366Z</time></trkpt><trkpt lat="37.6936549" lon="-1.6896569"><ele>407.5</ele><time>2026-04-11T07:33:33.366Z</time></trkpt><trkpt lat="37.6938746" lon="-1.6899844"><ele>410.0</ele><time>2026-04-11T07:33:34.366Z</time></trkpt><trkpt lat="37.6940815" lon="-1.690327"><ele>410.0</ele><time>2026-04-11T07:33:35.365Z</time></trkpt><trkpt lat="37.6942738" lon="-1.6906847"><ele>410.0</ele><time>2026-04-11T07:33:36.366Z</time></trkpt><trkpt lat="37.6944445" lon="-1.6910579"><ele>410.5</ele><time>2026-04-11T07:33:37.366Z</time></trkpt><trkpt lat="37.6945998" lon="-1.6914459"><ele>411.0</ele><time>2026-04-11T07:33:38.366Z</time></trkpt><trkpt lat="37.6947401" lon="-1.6918407"><ele>412.5</ele><time>2026-04-11T07:33:39.366Z</time></trkpt><trkpt lat="37.6948678" lon="-1.6922417"><ele>414.0</ele><time>2026-04-11T07:33:40.366Z</time></trkpt><trkpt lat="37.6949889" lon="-1.6926497"><ele>413.0</ele><time>2026-04-11T07:33:41.366Z</time></trkpt><trkpt lat="37.6951086" lon="-1.6930584"><ele>412.0</ele><time>2026-04-11T07:33:42.366Z</time></trkpt><trkpt lat="37.6952215" lon="-1.6934662"><ele>400.5</ele><time>2026-04-11T07:33:43.366Z</time></trkpt><trkpt lat="37.6953355" lon="-1.6938761"><ele>389.0</ele><time>2026-04-11T07:33:44.366Z</time></trkpt><trkpt lat="37.695448" lon="-1.694283"><ele>387.5</ele><time>2026-04-11T07:33:45.366Z</time></trkpt><trkpt lat="37.6955629" lon="-1.6946906"><ele>386.0</ele><time>2026-04-11T07:33:46.365Z</time></trkpt><trkpt lat="37.6956802" lon="-1.6950965"><ele>386.5</ele><time>2026-04-11T07:33:47.366Z</time></trkpt><trkpt lat="37.6957969" lon="-1.6955004"><ele>387.0</ele><time>2026-04-11T07:33:48.366Z</time></trkpt><trkpt lat="37.695915" lon="-1.695905"><ele>384.5</ele><time>2026-04-11T07:33:49.366Z</time></trkpt><trkpt lat="37.6960344" lon="-1.6963109"><ele>382.0</ele><time>2026-04-11T07:33:50.366Z</time></trkpt><trkpt lat="37.6961505" lon="-1.6967179"><ele>384.0</ele><time>2026-04-11T07:33:51.366Z</time></trkpt><trkpt lat="37.696261" lon="-1.6971242"><ele>386.0</ele><time>2026-04-11T07:33:52.365Z</time></trkpt><trkpt lat="37.6963573" lon="-1.6975083"><ele>383.5</ele><time>2026-04-11T07:33:53.366Z</time></trkpt><trkpt lat="37.6964343" lon="-1.6978687"><ele>381.0</ele><time>2026-04-11T07:33:54.366Z</time></trkpt><trkpt lat="37.6964976" lon="-1.6982224"><ele>381.0</ele><time>2026-04-11T07:33:55.366Z</time></trkpt><trkpt lat="37.6965437" lon="-1.6985775"><ele>381.0</ele><time>2026-04-11T07:33:56.366Z</time></trkpt><trkpt lat="37.6965797" lon="-1.698931"><ele>375.5</ele><time>2026-04-11T07:33:57.365Z</time></trkpt><trkpt lat="37.6965983" lon="-1.6992858"><ele>370.0</ele><time>2026-04-11T07:33:58.366Z</time></trkpt><trkpt lat="37.6966047" lon="-1.6996475"><ele>365.0</ele><time>2026-04-11T07:33:59.366Z</time></trkpt><trkpt lat="37.6966" lon="-1.6999997"><ele>360.0</ele><time>2026-04-11T07:34:00.366Z</time></trkpt><trkpt lat="37.6965833" lon="-1.7003631"><ele>360.0</ele><time>2026-04-11T07:34:01.366Z</time></trkpt><trkpt lat="37.6965566" lon="-1.700723"><ele>360.0</ele><time>2026-04-11T07:34:02.365Z</time></trkpt><trkpt lat="37.6965166" lon="-1.7010902"><ele>363.0</ele><time>2026-04-11T07:34:03.366Z</time></trkpt><trkpt lat="37.696463" lon="-1.7014495"><ele>366.0</ele><time>2026-04-11T07:34:04.366Z</time></trkpt><trkpt lat="37.6963956" lon="-1.7018059"><ele>366.5</ele><time>2026-04-11T07:34:05.366Z</time></trkpt><trkpt lat="37.6963144" lon="-1.702156"><ele>367.0</ele><time>2026-04-11T07:34:06.366Z</time></trkpt><trkpt lat="37.6962153" lon="-1.7025031"><ele>365.0</ele><time>2026-04-11T07:34:07.366Z</time></trkpt><trkpt lat="37.696099" lon="-1.7028357"><ele>363.0</ele><time>2026-04-11T07:34:08.366Z</time></trkpt><trkpt lat="37.6959715" lon="-1.7031608"><ele>361.5</ele><time>2026-04-11T07:34:09.366Z</time></trkpt><trkpt lat="37.6958326" lon="-1.7034894"><ele>360.0</ele><time>2026-04-11T07:34:10.366Z</time></trkpt><trkpt lat="37.6956781" lon="-1.703818"><ele>358.5</ele><time>2026-04-11T07:34:11.366Z</time></trkpt><trkpt lat="37.69551" lon="-1.7041406"><ele>357.0</ele><time>2026-04-11T07:34:12.365Z</time></trkpt><trkpt lat="37.6953329" lon="-1.7044629"><ele>353.0</ele><time>2026-04-11T07:34:13.366Z</time></trkpt><trkpt lat="37.6951515" lon="-1.7047864"><ele>349.0</ele><time>2026-04-11T07:34:14.366Z</time></trkpt><trkpt lat="37.6949719" lon="-1.7051065"><ele>349.5</ele><time>2026-04-11T07:34:15.366Z</time></trkpt><trkpt lat="37.6947946" lon="-1.7054255"><ele>350.0</ele><time>2026-04-11T07:34:16.365Z</time></trkpt><trkpt lat="37.6946184" lon="-1.7057429"><ele>350.0</ele><time>2026-04-11T07:34:17.366Z</time></trkpt><trkpt lat="37.6944475" lon="-1.7060623"><ele>350.0</ele><time>2026-04-11T07:34:18.366Z</time></trkpt><trkpt lat="37.6942725" lon="-1.7063785"><ele>349.5</ele><time>2026-04-11T07:34:19.366Z</time></trkpt><trkpt lat="37.6941017" lon="-1.7066841"><ele>349.0</ele><time>2026-04-11T07:34:20.366Z</time></trkpt><trkpt lat="37.6939364" lon="-1.7069832"><ele>349.0</ele><time>2026-04-11T07:34:21.366Z</time></trkpt><trkpt lat="37.693775" lon="-1.7072658"><ele>349.0</ele><time>2026-04-11T07:34:22.366Z</time></trkpt><trkpt lat="37.6936094" lon="-1.707542"><ele>346.0</ele><time>2026-04-11T07:34:23.366Z</time></trkpt><trkpt lat="37.6934419" lon="-1.7078041"><ele>343.0</ele><time>2026-04-11T07:34:24.366Z</time></trkpt><trkpt lat="37.6932631" lon="-1.7080584"><ele>343.0</ele><time>2026-04-11T07:34:25.365Z</time></trkpt><trkpt lat="37.6930761" lon="-1.7083003"><ele>343.0</ele><time>2026-04-11T07:34:26.366Z</time></trkpt><trkpt lat="37.6928848" lon="-1.7085267"><ele>343.5</ele><time>2026-04-11T07:34:27.366Z</time></trkpt><trkpt lat="37.6926884" lon="-1.7087375"><ele>344.0</ele><time>2026-04-11T07:34:28.366Z</time></trkpt><trkpt lat="37.6924871" lon="-1.7089421"><ele>344.0</ele><time>2026-04-11T07:34:29.365Z</time></trkpt><trkpt lat="37.6922718" lon="-1.7091365"><ele>344.0</ele><time>2026-04-11T07:34:30.366Z</time></trkpt><trkpt lat="37.6920469" lon="-1.7093236"><ele>343.5</ele><time>2026-04-11T07:34:31.365Z</time></trkpt><trkpt lat="37.6918167" lon="-1.7095064"><ele>343.0</ele><time>2026-04-11T07:34:32.366Z</time></trkpt><trkpt lat="37.6915799" lon="-1.7096748"><ele>343.0</ele><time>2026-04-11T07:34:33.366Z</time></trkpt><trkpt lat="37.6913373" lon="-1.7098254"><ele>343.0</ele><time>2026-04-11T07:34:34.365Z</time></trkpt><trkpt lat="37.6910885" lon="-1.7099654"><ele>343.5</ele><time>2026-04-11T07:34:35.366Z</time></trkpt><trkpt lat="37.6908359" lon="-1.7100959"><ele>344.0</ele><time>2026-04-11T07:34:36.366Z</time></trkpt><trkpt lat="37.69058" lon="-1.7102053"><ele>344.0</ele><time>2026-04-11T07:34:37.366Z</time></trkpt><trkpt lat="37.6903189" lon="-1.7102997"><ele>344.0</ele><time>2026-04-11T07:34:38.366Z</time></trkpt><trkpt lat="37.690057" lon="-1.7103777"><ele>344.0</ele><time>2026-04-11T07:34:39.366Z</time></trkpt><trkpt lat="37.6898034" lon="-1.7104372"><ele>344.0</ele><time>2026-04-11T07:34:40.366Z</time></trkpt><trkpt lat="37.6895626" lon="-1.7104889"><ele>343.5</ele><time>2026-04-11T07:34:41.366Z</time></trkpt><trkpt lat="37.6893314" lon="-1.7105249"><ele>343.0</ele><time>2026-04-11T07:34:42.366Z</time></trkpt><trkpt lat="37.6890994" lon="-1.710552"><ele>343.0</ele><time>2026-04-11T07:34:43.366Z</time></trkpt><trkpt lat="37.6888651" lon="-1.7105676"><ele>343.0</ele><time>2026-04-11T07:34:44.366Z</time></trkpt><trkpt lat="37.6886384" lon="-1.7105818"><ele>343.0</ele><time>2026-04-11T07:34:45.366Z</time></trkpt><trkpt lat="37.6884121" lon="-1.710592"><ele>343.0</ele><time>2026-04-11T07:34:46.366Z</time></trkpt><trkpt lat="37.6881842" lon="-1.7105958"><ele>343.0</ele><time>2026-04-11T07:34:47.366Z</time></trkpt><trkpt lat="37.6879521" lon="-1.7106034"><ele>343.0</ele><time>2026-04-11T07:34:48.366Z</time></trkpt><trkpt lat="37.6877123" lon="-1.7106123"><ele>340.5</ele><time>2026-04-11T07:34:49.366Z</time></trkpt><trkpt lat="37.6874665" lon="-1.7106211"><ele>338.0</ele><time>2026-04-11T07:34:50.365Z</time></trkpt><trkpt lat="37.6872132" lon="-1.7106302"><ele>338.0</ele><time>2026-04-11T07:34:51.366Z</time></trkpt><trkpt lat="37.6869592" lon="-1.710637"><ele>338.0</ele><time>2026-04-11T07:34:52.366Z</time></trkpt><trkpt lat="37.686704" lon="-1.7106478"><ele>337.5</ele><time>2026-04-11T07:34:53.366Z</time></trkpt><trkpt lat="37.6864505" lon="-1.7106664"><ele>337.0</ele><time>2026-04-11T07:34:54.366Z</time></trkpt><trkpt lat="37.6862075" lon="-1.7106879"><ele>338.0</ele><time>2026-04-11T07:34:55.366Z</time></trkpt><trkpt lat="37.6859613" lon="-1.7107076"><ele>339.0</ele><time>2026-04-11T07:34:56.366Z</time></trkpt><trkpt lat="37.6857214" lon="-1.7107187"><ele>339.0</ele><time>2026-04-11T07:34:57.366Z</time></trkpt><trkpt lat="37.6854864" lon="-1.7107326"><ele>339.0</ele><time>2026-04-11T07:34:58.366Z</time></trkpt><trkpt lat="37.6852593" lon="-1.7107427"><ele>338.6666666666667</ele><time>2026-04-11T07:34:59.365Z</time></trkpt><trkpt lat="37.6850343" lon="-1.710751"><ele>338.33333333333337</ele><time>2026-04-11T07:35:00.366Z</time></trkpt><trkpt lat="37.6848127" lon="-1.710764"><ele>338.0</ele><time>2026-04-11T07:35:01.366Z</time></trkpt><trkpt lat="37.6845949" lon="-1.710771"><ele>338.6666666666667</ele><time>2026-04-11T07:35:02.366Z</time></trkpt><trkpt lat="37.6843859" lon="-1.7107785"><ele>339.3333333333333</ele><time>2026-04-11T07:35:03.366Z</time></trkpt><trkpt lat="37.6841833" lon="-1.7107805"><ele>340.0</ele><time>2026-04-11T07:35:04.365Z</time></trkpt><trkpt lat="37.6839815" lon="-1.7107861"><ele>340.0</ele><time>2026-04-11T07:35:05.366Z</time></trkpt><trkpt lat="37.6837907" lon="-1.7107959"><ele>340.0</ele><time>2026-04-11T07:35:06.366Z</time></trkpt><trkpt lat="37.683598" lon="-1.7108012"><ele>340.0</ele><time>2026-04-11T07:35:07.366Z</time></trkpt><trkpt lat="37.6834074" lon="-1.7108104"><ele>339.3333333333333</ele><time>2026-04-11T07:35:08.366Z</time></trkpt><trkpt lat="37.6832228" lon="-1.7108195"><ele>338.6666666666667</ele><time>2026-04-11T07:35:09.366Z</time></trkpt><trkpt lat="37.6830402" lon="-1.7108241"><ele>338.0</ele><time>2026-04-11T07:35:10.366Z</time></trkpt><trkpt lat="37.6828593" lon="-1.7108306"><ele>336.0</ele><time>2026-04-11T07:35:11.365Z</time></trkpt><trkpt lat="37.682685" lon="-1.7108355"><ele>334.0</ele><time>2026-04-11T07:35:12.366Z</time></trkpt><trkpt lat="37.6825109" lon="-1.7108398"><ele>332.0</ele><time>2026-04-11T07:35:13.366Z</time></trkpt><trkpt lat="37.6823388" lon="-1.7108449"><ele>332.0</ele><time>2026-04-11T07:35:14.366Z</time></trkpt><trkpt lat="37.6821657" lon="-1.7108473"><ele>332.0</ele><time>2026-04-11T07:35:15.365Z</time></trkpt><trkpt lat="37.6819923" lon="-1.7108532"><ele>332.0</ele><time>2026-04-11T07:35:16.366Z</time></trkpt><trkpt lat="37.6818196" lon="-1.7108606"><ele>332.6666666666667</ele><time>2026-04-11T07:35:17.365Z</time></trkpt><trkpt lat="37.681651" lon="-1.710866"><ele>333.3333333333333</ele><time>2026-04-11T07:35:18.366Z</time></trkpt><trkpt lat="37.681477" lon="-1.7108725"><ele>334.0</ele><time>2026-04-11T07:35:19.366Z</time></trkpt><trkpt lat="37.6813018" lon="-1.7108769"><ele>334.0</ele><time>2026-04-11T07:35:20.366Z</time></trkpt><trkpt lat="37.6811279" lon="-1.710885"><ele>334.0</ele><time>2026-04-11T07:35:21.366Z</time></trkpt><trkpt lat="37.6809525" lon="-1.7108914"><ele>334.0</ele><time>2026-04-11T07:35:22.366Z</time></trkpt><trkpt lat="37.6807788" lon="-1.7108952"><ele>335.3333333333333</ele><time>2026-04-11T07:35:23.366Z</time></trkpt><trkpt lat="37.6806055" lon="-1.7108974"><ele>336.6666666666667</ele><time>2026-04-11T07:35:24.366Z</time></trkpt><trkpt lat="37.6804326" lon="-1.7109034"><ele>338.0</ele><time>2026-04-11T07:35:25.365Z</time></trkpt><trkpt lat="37.6802558" lon="-1.7109137"><ele>342.0</ele><time>2026-04-11T07:35:26.366Z</time></trkpt><trkpt lat="37.6800762" lon="-1.7109213"><ele>346.0</ele><time>2026-04-11T07:35:27.365Z</time></trkpt><trkpt lat="37.6798952" lon="-1.7109229"><ele>350.0</ele><time>2026-04-11T07:35:28.365Z</time></trkpt><trkpt lat="37.6797145" lon="-1.7109269"><ele>350.0</ele><time>2026-04-11T07:35:29.366Z</time></trkpt><trkpt lat="37.6795278" lon="-1.7109281"><ele>350.0</ele><time>2026-04-11T07:35:30.366Z</time></trkpt><trkpt lat="37.6793416" lon="-1.710924"><ele>350.0</ele><time>2026-04-11T07:35:31.366Z</time></trkpt><trkpt lat="37.6791553" lon="-1.7109181"><ele>365.0</ele><time>2026-04-11T07:35:32.366Z</time></trkpt><trkpt lat="37.6789699" lon="-1.710906"><ele>380.0</ele><time>2026-04-11T07:35:33.366Z</time></trkpt><trkpt lat="37.6707772" lon="-1.7095988"><ele>380.0</ele><time>2026-04-11T07:36:18.356Z</time></trkpt><trkpt lat="37.6705533" lon="-1.7096102"><ele>380.0</ele><time>2026-04-11T07:36:19.365Z</time></trkpt><trkpt lat="37.6703231" lon="-1.7096089"><ele>375.5</ele><time>2026-04-11T07:36:20.365Z</time></trkpt><trkpt lat="37.6700742" lon="-1.7096272"><ele>371.0</ele><time>2026-04-11T07:36:21.364Z</time></trkpt><trkpt lat="37.6698285" lon="-1.7096363"><ele>371.0</ele><time>2026-04-11T07:36:22.366Z</time></trkpt><trkpt lat="37.6695783" lon="-1.7096456"><ele>371.0</ele><time>2026-04-11T07:36:23.359Z</time></trkpt><trkpt lat="37.6693216" lon="-1.7096453"><ele>377.5</ele><time>2026-04-11T07:36:24.359Z</time></trkpt><trkpt lat="37.6690633" lon="-1.7096437"><ele>384.0</ele><time>2026-04-11T07:36:25.359Z</time></trkpt><trkpt lat="37.6688001" lon="-1.7096402"><ele>381.5</ele><time>2026-04-11T07:36:26.36Z</time></trkpt><trkpt lat="37.6685351" lon="-1.7096326"><ele>379.0</ele><time>2026-04-11T07:36:27.36Z</time></trkpt><trkpt lat="37.6682651" lon="-1.7096202"><ele>379.0</ele><time>2026-04-11T07:36:28.36Z</time></trkpt><trkpt lat="37.6679914" lon="-1.7096149"><ele>379.0</ele><time>2026-04-11T07:36:29.359Z</time></trkpt><trkpt lat="37.6677142" lon="-1.7096286"><ele>374.5</ele><time>2026-04-11T07:36:30.36Z</time></trkpt><trkpt lat="37.6674306" lon="-1.70966"><ele>370.0</ele><time>2026-04-11T07:36:31.359Z</time></trkpt><trkpt lat="37.6671425" lon="-1.7097121"><ele>367.5</ele><time>2026-04-11T07:36:32.36Z</time></trkpt><trkpt lat="37.6668519" lon="-1.7097937"><ele>365.0</ele><time>2026-04-11T07:36:33.36Z</time></trkpt><trkpt lat="37.6665684" lon="-1.709901"><ele>365.0</ele><time>2026-04-11T07:36:34.36Z</time></trkpt><trkpt lat="37.6662821" lon="-1.7100327"><ele>365.0</ele><time>2026-04-11T07:36:35.36Z</time></trkpt><trkpt lat="37.6660055" lon="-1.7101826"><ele>365.5</ele><time>2026-04-11T07:36:36.359Z</time></trkpt><trkpt lat="37.6657366" lon="-1.7103678"><ele>366.0</ele><time>2026-04-11T07:36:37.36Z</time></trkpt><trkpt lat="37.6654804" lon="-1.7105663"><ele>366.0</ele><time>2026-04-11T07:36:38.36Z</time></trkpt><trkpt lat="37.6652348" lon="-1.7107807"><ele>366.0</ele><time>2026-04-11T07:36:39.36Z</time></trkpt><trkpt lat="37.6649975" lon="-1.7110104"><ele>368.5</ele><time>2026-04-11T07:36:40.359Z</time></trkpt><trkpt lat="37.6647717" lon="-1.7112477"><ele>371.0</ele><time>2026-04-11T07:36:41.36Z</time></trkpt><trkpt lat="37.6645542" lon="-1.7114968"><ele>370.5</ele><time>2026-04-11T07:36:42.36Z</time></trkpt><trkpt lat="37.6643442" lon="-1.7117525"><ele>370.0</ele><time>2026-04-11T07:36:43.36Z</time></trkpt><trkpt lat="37.66414" lon="-1.7120169"><ele>370.0</ele><time>2026-04-11T07:36:44.36Z</time></trkpt><trkpt lat="37.6639383" lon="-1.7122907"><ele>370.0</ele><time>2026-04-11T07:36:45.36Z</time></trkpt><trkpt lat="37.6637369" lon="-1.712573"><ele>368.5</ele><time>2026-04-11T07:36:46.36Z</time></trkpt><trkpt lat="37.6635351" lon="-1.7128653"><ele>367.0</ele><time>2026-04-11T07:36:47.359Z</time></trkpt><trkpt lat="37.6633326" lon="-1.7131625"><ele>367.0</ele><time>2026-04-11T07:36:48.36Z</time></trkpt><trkpt lat="37.6631261" lon="-1.713459"><ele>367.0</ele><time>2026-04-11T07:36:49.359Z</time></trkpt><trkpt lat="37.6629209" lon="-1.713761"><ele>366.5</ele><time>2026-04-11T07:36:50.36Z</time></trkpt><trkpt lat="37.6627123" lon="-1.7140659"><ele>366.0</ele><time>2026-04-11T07:36:51.36Z</time></trkpt><trkpt lat="37.6625022" lon="-1.7143702"><ele>371.0</ele><time>2026-04-11T07:36:52.359Z</time></trkpt><trkpt lat="37.6622906" lon="-1.7146913"><ele>376.0</ele><time>2026-04-11T07:36:53.36Z</time></trkpt><trkpt lat="37.6620758" lon="-1.7150061"><ele>372.0</ele><time>2026-04-11T07:36:54.36Z</time></trkpt><trkpt lat="37.6618626" lon="-1.715319"><ele>368.0</ele><time>2026-04-11T07:36:55.36Z</time></trkpt><trkpt lat="37.6616485" lon="-1.7156272"><ele>368.0</ele><time>2026-04-11T07:36:56.36Z</time></trkpt><trkpt lat="37.6614314" lon="-1.7159295"><ele>368.0</ele><time>2026-04-11T07:36:57.36Z</time></trkpt><trkpt lat="37.6612087" lon="-1.7162156"><ele>368.0</ele><time>2026-04-11T07:36:58.359Z</time></trkpt><trkpt lat="37.6609755" lon="-1.7164852"><ele>368.0</ele><time>2026-04-11T07:36:59.36Z</time></trkpt><trkpt lat="37.6607272" lon="-1.7167402"><ele>374.0</ele><time>2026-04-11T07:37:00.36Z</time></trkpt><trkpt lat="37.6604656" lon="-1.7169726"><ele>380.0</ele><time>2026-04-11T07:37:01.36Z</time></trkpt><trkpt lat="37.6601913" lon="-1.717173"><ele>380.0</ele><time>2026-04-11T07:37:02.359Z</time></trkpt><trkpt lat="37.6599094" lon="-1.7173464"><ele>380.0</ele><time>2026-04-11T07:37:03.36Z</time></trkpt><trkpt lat="37.6596264" lon="-1.717502"><ele>373.5</ele><time>2026-04-11T07:37:04.36Z</time></trkpt><trkpt lat="37.6593374" lon="-1.717629"><ele>367.0</ele><time>2026-04-11T07:37:05.36Z</time></trkpt><trkpt lat="37.6590401" lon="-1.7177308"><ele>367.0</ele><time>2026-04-11T07:37:06.36Z</time></trkpt><trkpt lat="37.6587361" lon="-1.7178172"><ele>367.0</ele><time>2026-04-11T07:37:07.36Z</time></trkpt><trkpt lat="37.6584333" lon="-1.7178946"><ele>369.5</ele><time>2026-04-11T07:37:08.36Z</time></trkpt><trkpt lat="37.6581281" lon="-1.7179685"><ele>372.0</ele><time>2026-04-11T07:37:09.36Z</time></trkpt><trkpt lat="37.6578204" lon="-1.7180439"><ele>372.0</ele><time>2026-04-11T07:37:10.359Z</time></trkpt><trkpt lat="37.6575115" lon="-1.7181173"><ele>372.0</ele><time>2026-04-11T07:37:11.36Z</time></trkpt><trkpt lat="37.6572031" lon="-1.7181913"><ele>367.5</ele><time>2026-04-11T07:37:12.36Z</time></trkpt><trkpt lat="37.6568945" lon="-1.718265"><ele>363.0</ele><time>2026-04-11T07:37:13.36Z</time></trkpt><trkpt lat="37.6565863" lon="-1.7183394"><ele>363.0</ele><time>2026-04-11T07:37:14.359Z</time></trkpt><trkpt lat="37.6562838" lon="-1.7184091"><ele>363.0</ele><time>2026-04-11T07:37:15.36Z</time></trkpt><trkpt lat="37.6559786" lon="-1.7184818"><ele>361.5</ele><time>2026-04-11T07:37:16.36Z</time></trkpt><trkpt lat="37.655675" lon="-1.7185541"><ele>360.0</ele><time>2026-04-11T07:37:17.36Z</time></trkpt><trkpt lat="37.6553715" lon="-1.7186302"><ele>359.5</ele><time>2026-04-11T07:37:18.36Z</time></trkpt><trkpt lat="37.6550712" lon="-1.7187127"><ele>359.0</ele><time>2026-04-11T07:37:19.36Z</time></trkpt><trkpt lat="37.6547844" lon="-1.718807"><ele>359.0</ele><time>2026-04-11T07:37:20.36Z</time></trkpt><trkpt lat="37.6545105" lon="-1.7189223"><ele>359.0</ele><time>2026-04-11T07:37:21.359Z</time></trkpt><trkpt lat="37.6542451" lon="-1.7190558"><ele>355.5</ele><time>2026-04-11T07:37:22.36Z</time></trkpt><trkpt lat="37.6539861" lon="-1.7192083"><ele>352.0</ele><time>2026-04-11T07:37:23.36Z</time></trkpt><trkpt lat="37.653735" lon="-1.7193827"><ele>352.5</ele><time>2026-04-11T07:37:24.36Z</time></trkpt><trkpt lat="37.6534945" lon="-1.7195683"><ele>353.0</ele><time>2026-04-11T07:37:25.36Z</time></trkpt><trkpt lat="37.6532625" lon="-1.7197762"><ele>353.0</ele><time>2026-04-11T07:37:26.36Z</time></trkpt><trkpt lat="37.6530447" lon="-1.7199962"><ele>353.0</ele><time>2026-04-11T07:37:27.36Z</time></trkpt><trkpt lat="37.6528435" lon="-1.7202296"><ele>350.5</ele><time>2026-04-11T07:37:28.359Z</time></trkpt><trkpt lat="37.6526549" lon="-1.7204791"><ele>348.0</ele><time>2026-04-11T07:37:29.36Z</time></trkpt><trkpt lat="37.6524824" lon="-1.7207407"><ele>348.0</ele><time>2026-04-11T07:37:30.359Z</time></trkpt><trkpt lat="37.6523227" lon="-1.7210055"><ele>348.0</ele><time>2026-04-11T07:37:31.36Z</time></trkpt><trkpt lat="37.652177" lon="-1.721276"><ele>347.5</ele><time>2026-04-11T07:37:32.36Z</time></trkpt><trkpt lat="37.6520466" lon="-1.7215582"><ele>347.0</ele><time>2026-04-11T07:37:33.36Z</time></trkpt><trkpt lat="37.6519332" lon="-1.7218453"><ele>349.5</ele><time>2026-04-11T07:37:34.36Z</time></trkpt><trkpt lat="37.6518328" lon="-1.7221329"><ele>352.0</ele><time>2026-04-11T07:37:35.36Z</time></trkpt><trkpt lat="37.6517459" lon="-1.7224229"><ele>352.0</ele><time>2026-04-11T07:37:36.359Z</time></trkpt><trkpt lat="37.6516688" lon="-1.7227097"><ele>352.0</ele><time>2026-04-11T07:37:37.36Z</time></trkpt><trkpt lat="37.6515976" lon="-1.72299"><ele>354.0</ele><time>2026-04-11T07:37:38.36Z</time></trkpt><trkpt lat="37.6515295" lon="-1.7232656"><ele>356.0</ele><time>2026-04-11T07:37:39.36Z</time></trkpt><trkpt lat="37.6514619" lon="-1.7235332"><ele>356.6666666666667</ele><time>2026-04-11T07:37:40.36Z</time></trkpt><trkpt lat="37.6513921" lon="-1.7237967"><ele>357.3333333333333</ele><time>2026-04-11T07:37:41.359Z</time></trkpt><trkpt lat="37.6513173" lon="-1.7240587"><ele>358.0</ele><time>2026-04-11T07:37:42.36Z</time></trkpt><trkpt lat="37.6512345" lon="-1.7243216"><ele>357.5</ele><time>2026-04-11T07:37:43.36Z</time></trkpt><trkpt lat="37.6511442" lon="-1.7245791"><ele>357.0</ele><time>2026-04-11T07:37:44.36Z</time></trkpt><trkpt lat="37.6510417" lon="-1.7248428"><ele>357.0</ele><time>2026-04-11T07:37:45.36Z</time></trkpt><trkpt lat="37.6509262" lon="-1.7251034"><ele>357.0</ele><time>2026-04-11T07:37:46.36Z</time></trkpt><trkpt lat="37.6507999" lon="-1.7253595"><ele>359.0</ele><time>2026-04-11T07:37:47.36Z</time></trkpt><trkpt lat="37.6506602" lon="-1.7256167"><ele>361.0</ele><time>2026-04-11T07:37:48.36Z</time></trkpt><trkpt lat="37.6505099" lon="-1.7258631"><ele>361.5</ele><time>2026-04-11T07:37:49.36Z</time></trkpt><trkpt lat="37.6503477" lon="-1.7261048"><ele>362.0</ele><time>2026-04-11T07:37:50.36Z</time></trkpt><trkpt lat="37.6501788" lon="-1.7263399"><ele>362.0</ele><time>2026-04-11T07:37:51.359Z</time></trkpt><trkpt lat="37.650002" lon="-1.7265692"><ele>362.0</ele><time>2026-04-11T07:37:52.359Z</time></trkpt><trkpt lat="37.6498139" lon="-1.7267966"><ele>361.5</ele><time>2026-04-11T07:37:53.359Z</time></trkpt><trkpt lat="37.649619" lon="-1.7270172"><ele>361.0</ele><time>2026-04-11T07:37:54.36Z</time></trkpt><trkpt lat="37.6494251" lon="-1.7272413"><ele>357.5</ele><time>2026-04-11T07:37:55.36Z</time></trkpt><trkpt lat="37.6492292" lon="-1.727475"><ele>354.0</ele><time>2026-04-11T07:37:56.359Z</time></trkpt><trkpt lat="37.649037" lon="-1.7277167"><ele>356.0</ele><time>2026-04-11T07:37:57.36Z</time></trkpt><trkpt lat="37.6488495" lon="-1.7279743"><ele>358.0</ele><time>2026-04-11T07:37:58.36Z</time></trkpt><trkpt lat="37.6486691" lon="-1.728249"><ele>359.0</ele><time>2026-04-11T07:37:59.359Z</time></trkpt><trkpt lat="37.6484949" lon="-1.7285371"><ele>360.0</ele><time>2026-04-11T07:38:00.36Z</time></trkpt><trkpt lat="37.6483341" lon="-1.7288259"><ele>361.0</ele><time>2026-04-11T07:38:01.359Z</time></trkpt><trkpt lat="37.6481909" lon="-1.7291214"><ele>362.0</ele><time>2026-04-11T07:38:02.359Z</time></trkpt><trkpt lat="37.6480584" lon="-1.7294194"><ele>366.5</ele><time>2026-04-11T07:38:03.36Z</time></trkpt><trkpt lat="37.6479434" lon="-1.7297262"><ele>371.0</ele><time>2026-04-11T07:38:04.36Z</time></trkpt><trkpt lat="37.6478399" lon="-1.7300445"><ele>367.0</ele><time>2026-04-11T07:38:05.359Z</time></trkpt><trkpt lat="37.6477413" lon="-1.7303697"><ele>363.0</ele><time>2026-04-11T07:38:06.36Z</time></trkpt><trkpt lat="37.6476485" lon="-1.7307054"><ele>363.0</ele><time>2026-04-11T07:38:07.359Z</time></trkpt><trkpt lat="37.6475639" lon="-1.7310399"><ele>363.0</ele><time>2026-04-11T07:38:08.36Z</time></trkpt><trkpt lat="37.6474911" lon="-1.7313864"><ele>367.0</ele><time>2026-04-11T07:38:09.359Z</time></trkpt><trkpt lat="37.6474256" lon="-1.7317424"><ele>371.0</ele><time>2026-04-11T07:38:10.359Z</time></trkpt><trkpt lat="37.6473624" lon="-1.7320996"><ele>375.0</ele><time>2026-04-11T07:38:11.36Z</time></trkpt><trkpt lat="37.6472964" lon="-1.7324577"><ele>379.0</ele><time>2026-04-11T07:38:12.359Z</time></trkpt><trkpt lat="37.647223" lon="-1.7328185"><ele>383.0</ele><time>2026-04-11T07:38:13.359Z</time></trkpt><trkpt lat="37.647139" lon="-1.7331765"><ele>387.0</ele><time>2026-04-11T07:38:14.359Z</time></trkpt><trkpt lat="37.6470454" lon="-1.7335364"><ele>380.0</ele><time>2026-04-11T07:38:15.36Z</time></trkpt><trkpt lat="37.6469442" lon="-1.7338952"><ele>373.0</ele><time>2026-04-11T07:38:16.36Z</time></trkpt><trkpt lat="37.6468301" lon="-1.734249"><ele>380.5</ele><time>2026-04-11T07:38:17.36Z</time></trkpt><trkpt lat="37.6467058" lon="-1.734591"><ele>388.0</ele><time>2026-04-11T07:38:18.36Z</time></trkpt><trkpt lat="37.6465617" lon="-1.7349446"><ele>395.0</ele><time>2026-04-11T07:38:19.36Z</time></trkpt><trkpt lat="37.6464053" lon="-1.7352836"><ele>402.0</ele><time>2026-04-11T07:38:20.36Z</time></trkpt><trkpt lat="37.646237" lon="-1.7356122"><ele>398.0</ele><time>2026-04-11T07:38:21.36Z</time></trkpt><trkpt lat="37.6460516" lon="-1.7359367"><ele>394.0</ele><time>2026-04-11T07:38:22.36Z</time></trkpt><trkpt lat="37.6458624" lon="-1.7362545"><ele>394.0</ele><time>2026-04-11T07:38:23.359Z</time></trkpt><trkpt lat="37.6456618" lon="-1.7365651"><ele>394.0</ele><time>2026-04-11T07:38:24.359Z</time></trkpt><trkpt lat="37.6454499" lon="-1.7368667"><ele>392.0</ele><time>2026-04-11T07:38:25.359Z</time></trkpt><trkpt lat="37.6452229" lon="-1.7371585"><ele>390.0</ele><time>2026-04-11T07:38:26.36Z</time></trkpt><trkpt lat="37.6449814" lon="-1.7374379"><ele>390.0</ele><time>2026-04-11T07:38:27.36Z</time></trkpt><trkpt lat="37.6447288" lon="-1.7377084"><ele>390.0</ele><time>2026-04-11T07:38:28.36Z</time></trkpt><trkpt lat="37.6444667" lon="-1.737967"><ele>388.0</ele><time>2026-04-11T07:38:29.36Z</time></trkpt><trkpt lat="37.6441952" lon="-1.7382137"><ele>386.0</ele><time>2026-04-11T07:38:30.36Z</time></trkpt><trkpt lat="37.6439106" lon="-1.7384485"><ele>387.0</ele><time>2026-04-11T07:38:31.36Z</time></trkpt><trkpt lat="37.6436132" lon="-1.7386662"><ele>388.0</ele><time>2026-04-11T07:38:32.36Z</time></trkpt><trkpt lat="37.6433093" lon="-1.7388646"><ele>388.0</ele><time>2026-04-11T07:38:33.36Z</time></trkpt><trkpt lat="37.6429981" lon="-1.7390478"><ele>388.0</ele><time>2026-04-11T07:38:34.359Z</time></trkpt><trkpt lat="37.6426804" lon="-1.739212"><ele>386.5</ele><time>2026-04-11T07:38:35.36Z</time></trkpt><trkpt lat="37.6423562" lon="-1.7393552"><ele>385.0</ele><time>2026-04-11T07:38:36.36Z</time></trkpt><trkpt lat="37.642031" lon="-1.7394841"><ele>381.5</ele><time>2026-04-11T07:38:37.36Z</time></trkpt><trkpt lat="37.6416975" lon="-1.7395936"><ele>378.0</ele><time>2026-04-11T07:38:38.36Z</time></trkpt><trkpt lat="37.6413634" lon="-1.7396822"><ele>375.0</ele><time>2026-04-11T07:38:39.36Z</time></trkpt><trkpt lat="37.6410234" lon="-1.7397528"><ele>372.0</ele><time>2026-04-11T07:38:40.36Z</time></trkpt><trkpt lat="37.6406807" lon="-1.7397976"><ele>372.0</ele><time>2026-04-11T07:38:41.36Z</time></trkpt><trkpt lat="37.6403368" lon="-1.7398249"><ele>372.0</ele><time>2026-04-11T07:38:42.36Z</time></trkpt><trkpt lat="37.6399918" lon="-1.7398466"><ele>369.0</ele><time>2026-04-11T07:38:43.36Z</time></trkpt><trkpt lat="37.6396512" lon="-1.7398723"><ele>366.0</ele><time>2026-04-11T07:38:44.359Z</time></trkpt><trkpt lat="37.6393062" lon="-1.7399058"><ele>365.5</ele><time>2026-04-11T07:38:45.359Z</time></trkpt><trkpt lat="37.6389658" lon="-1.7399493"><ele>365.0</ele><time>2026-04-11T07:38:46.36Z</time></trkpt><trkpt lat="37.6386313" lon="-1.7399988"><ele>366.0</ele><time>2026-04-11T07:38:47.36Z</time></trkpt><trkpt lat="37.6382919" lon="-1.7400542"><ele>367.0</ele><time>2026-04-11T07:38:48.36Z</time></trkpt><trkpt lat="37.6379572" lon="-1.7401204"><ele>367.0</ele><time>2026-04-11T07:38:49.36Z</time></trkpt><trkpt lat="37.6376207" lon="-1.740192"><ele>367.0</ele><time>2026-04-11T07:38:50.36Z</time></trkpt><trkpt lat="37.6372837" lon="-1.7402742"><ele>364.5</ele><time>2026-04-11T07:38:51.36Z</time></trkpt><trkpt lat="37.6369522" lon="-1.7403691"><ele>362.0</ele><time>2026-04-11T07:38:52.36Z</time></trkpt><trkpt lat="37.6366255" lon="-1.7404714"><ele>362.0</ele><time>2026-04-11T07:38:53.36Z</time></trkpt><trkpt lat="37.6362968" lon="-1.7405839"><ele>362.0</ele><time>2026-04-11T07:38:54.36Z</time></trkpt><trkpt lat="37.6359745" lon="-1.74071"><ele>361.5</ele><time>2026-04-11T07:38:55.36Z</time></trkpt><trkpt lat="37.6356521" lon="-1.7408422"><ele>361.0</ele><time>2026-04-11T07:38:56.36Z</time></trkpt><trkpt lat="37.6353323" lon="-1.7409809"><ele>362.0</ele><time>2026-04-11T07:38:57.36Z</time></trkpt><trkpt lat="37.6350141" lon="-1.7411305"><ele>363.0</ele><time>2026-04-11T07:38:58.36Z</time></trkpt><trkpt lat="37.634696" lon="-1.7412892"><ele>363.5</ele><time>2026-04-11T07:38:59.36Z</time></trkpt><trkpt lat="37.6343847" lon="-1.7414665"><ele>364.0</ele><time>2026-04-11T07:39:00.36Z</time></trkpt><trkpt lat="37.6340751" lon="-1.7416496"><ele>364.0</ele><time>2026-04-11T07:39:01.359Z</time></trkpt><trkpt lat="37.6337667" lon="-1.7418392"><ele>364.0</ele><time>2026-04-11T07:39:02.36Z</time></trkpt><trkpt lat="37.6334614" lon="-1.7420398"><ele>364.0</ele><time>2026-04-11T07:39:03.36Z</time></trkpt><trkpt lat="37.6331602" lon="-1.7422476"><ele>364.0</ele><time>2026-04-11T07:39:04.36Z</time></trkpt><trkpt lat="37.6328622" lon="-1.7424678"><ele>363.0</ele><time>2026-04-11T07:39:05.36Z</time></trkpt><trkpt lat="37.6325661" lon="-1.742694"><ele>362.0</ele><time>2026-04-11T07:39:06.36Z</time></trkpt><trkpt lat="37.6322752" lon="-1.7429333"><ele>362.0</ele><time>2026-04-11T07:39:07.36Z</time></trkpt><trkpt lat="37.6320014" lon="-1.7431655"><ele>362.0</ele><time>2026-04-11T07:39:08.36Z</time></trkpt><trkpt lat="37.6317199" lon="-1.7434268"><ele>361.5</ele><time>2026-04-11T07:39:09.36Z</time></trkpt><trkpt lat="37.631444" lon="-1.7436819"><ele>361.0</ele><time>2026-04-11T07:39:10.36Z</time></trkpt><trkpt lat="37.6311721" lon="-1.7439432"><ele>360.0</ele><time>2026-04-11T07:39:11.36Z</time></trkpt><trkpt lat="37.6309038" lon="-1.7442092"><ele>359.0</ele><time>2026-04-11T07:39:12.36Z</time></trkpt><trkpt lat="37.630635" lon="-1.7444765"><ele>359.0</ele><time>2026-04-11T07:39:13.36Z</time></trkpt><trkpt lat="37.6303661" lon="-1.7447462"><ele>359.0</ele><time>2026-04-11T07:39:14.36Z</time></trkpt><trkpt lat="37.6300977" lon="-1.7450122"><ele>357.5</ele><time>2026-04-11T07:39:15.36Z</time></trkpt><trkpt lat="37.6298292" lon="-1.7452791"><ele>356.0</ele><time>2026-04-11T07:39:16.36Z</time></trkpt><trkpt lat="37.6295571" lon="-1.7455434"><ele>355.0</ele><time>2026-04-11T07:39:17.36Z</time></trkpt><trkpt lat="37.6292847" lon="-1.7458027"><ele>354.0</ele><time>2026-04-11T07:39:18.36Z</time></trkpt><trkpt lat="37.6290091" lon="-1.7460515"><ele>353.5</ele><time>2026-04-11T07:39:19.359Z</time></trkpt><trkpt lat="37.6287292" lon="-1.7462955"><ele>353.0</ele><time>2026-04-11T07:39:20.36Z</time></trkpt><trkpt lat="37.6284426" lon="-1.7465286"><ele>353.0</ele><time>2026-04-11T07:39:21.36Z</time></trkpt><trkpt lat="37.6281526" lon="-1.7467557"><ele>353.0</ele><time>2026-04-11T07:39:22.36Z</time></trkpt><trkpt lat="37.6278619" lon="-1.7469734"><ele>352.5</ele><time>2026-04-11T07:39:23.36Z</time></trkpt><trkpt lat="37.6275617" lon="-1.7471869"><ele>352.0</ele><time>2026-04-11T07:39:24.36Z</time></trkpt><trkpt lat="37.6272605" lon="-1.7473922"><ele>351.5</ele><time>2026-04-11T07:39:25.36Z</time></trkpt><trkpt lat="37.6269549" lon="-1.7475872"><ele>351.0</ele><time>2026-04-11T07:39:26.359Z</time></trkpt><trkpt lat="37.6266503" lon="-1.7477658"><ele>353.0</ele><time>2026-04-11T07:39:27.36Z</time></trkpt><trkpt lat="37.6263361" lon="-1.7479482"><ele>355.0</ele><time>2026-04-11T07:39:28.36Z</time></trkpt><trkpt lat="37.6260234" lon="-1.7481173"><ele>355.0</ele><time>2026-04-11T07:39:29.36Z</time></trkpt><trkpt lat="37.6257048" lon="-1.7482776"><ele>355.0</ele><time>2026-04-11T07:39:30.36Z</time></trkpt><trkpt lat="37.6253853" lon="-1.7484262"><ele>357.0</ele><time>2026-04-11T07:39:31.36Z</time></trkpt><trkpt lat="37.6250669" lon="-1.7485676"><ele>359.0</ele><time>2026-04-11T07:39:32.36Z</time></trkpt><trkpt lat="37.6247439" lon="-1.7486959"><ele>359.5</ele><time>2026-04-11T07:39:33.36Z</time></trkpt><trkpt lat="37.624424" lon="-1.7488126"><ele>360.0</ele><time>2026-04-11T07:39:34.36Z</time></trkpt><trkpt lat="37.6241085" lon="-1.7489197"><ele>360.0</ele><time>2026-04-11T07:39:35.36Z</time></trkpt><trkpt lat="37.6238065" lon="-1.7490132"><ele>360.0</ele><time>2026-04-11T07:39:36.36Z</time></trkpt><trkpt lat="37.6234979" lon="-1.749103"><ele>359.0</ele><time>2026-04-11T07:39:37.36Z</time></trkpt><trkpt lat="37.6231945" lon="-1.7491844"><ele>358.0</ele><time>2026-04-11T07:39:38.36Z</time></trkpt><trkpt lat="37.6228941" lon="-1.7492574"><ele>358.0</ele><time>2026-04-11T07:39:39.36Z</time></trkpt><trkpt lat="37.6226019" lon="-1.7493184"><ele>358.0</ele><time>2026-04-11T07:39:40.36Z</time></trkpt><trkpt lat="37.6223156" lon="-1.7493786"><ele>358.0</ele><time>2026-04-11T07:39:41.36Z</time></trkpt><trkpt lat="37.6220314" lon="-1.7494344"><ele>358.0</ele><time>2026-04-11T07:39:42.36Z</time></trkpt><trkpt lat="37.6217468" lon="-1.749486"><ele>356.5</ele><time>2026-04-11T07:39:43.36Z</time></trkpt><trkpt lat="37.6214535" lon="-1.7495397"><ele>355.0</ele><time>2026-04-11T07:39:44.36Z</time></trkpt><trkpt lat="37.6211563" lon="-1.7495943"><ele>354.5</ele><time>2026-04-11T07:39:45.36Z</time></trkpt><trkpt lat="37.6208511" lon="-1.7496565"><ele>354.0</ele><time>2026-04-11T07:39:46.36Z</time></trkpt><trkpt lat="37.6205433" lon="-1.7497195"><ele>354.5</ele><time>2026-04-11T07:39:47.36Z</time></trkpt><trkpt lat="37.6202287" lon="-1.7497919"><ele>355.0</ele><time>2026-04-11T07:39:48.359Z</time></trkpt><trkpt lat="37.6199167" lon="-1.7498834"><ele>355.0</ele><time>2026-04-11T07:39:49.36Z</time></trkpt><trkpt lat="37.6196009" lon="-1.7499904"><ele>355.0</ele><time>2026-04-11T07:39:50.36Z</time></trkpt><trkpt lat="37.619287" lon="-1.7501189"><ele>355.0</ele><time>2026-04-11T07:39:51.36Z</time></trkpt><trkpt lat="37.618976" lon="-1.7502673"><ele>355.0</ele><time>2026-04-11T07:39:52.36Z</time></trkpt><trkpt lat="37.6186675" lon="-1.7504335"><ele>355.5</ele><time>2026-04-11T07:39:53.36Z</time></trkpt><trkpt lat="37.6183651" lon="-1.7506163"><ele>356.0</ele><time>2026-04-11T07:39:54.36Z</time></trkpt><trkpt lat="37.6180625" lon="-1.7508143"><ele>356.5</ele><time>2026-04-11T07:39:55.36Z</time></trkpt><trkpt lat="37.6177675" lon="-1.7510344"><ele>357.0</ele><time>2026-04-11T07:39:56.359Z</time></trkpt><trkpt lat="37.6174815" lon="-1.7512722"><ele>357.5</ele><time>2026-04-11T07:39:57.359Z</time></trkpt><trkpt lat="37.6172032" lon="-1.7515272"><ele>358.0</ele><time>2026-04-11T07:39:58.359Z</time></trkpt><trkpt lat="37.6169316" lon="-1.7517955"><ele>358.5</ele><time>2026-04-11T07:39:59.36Z</time></trkpt><trkpt lat="37.6166623" lon="-1.7520653"><ele>359.0</ele><time>2026-04-11T07:40:00.359Z</time></trkpt><trkpt lat="37.6163951" lon="-1.7523374"><ele>360.0</ele><time>2026-04-11T07:40:01.36Z</time></trkpt><trkpt lat="37.6161286" lon="-1.7526109"><ele>361.0</ele><time>2026-04-11T07:40:02.359Z</time></trkpt><trkpt lat="37.6158637" lon="-1.752882"><ele>361.5</ele><time>2026-04-11T07:40:03.36Z</time></trkpt><trkpt lat="37.6156005" lon="-1.7531537"><ele>362.0</ele><time>2026-04-11T07:40:04.359Z</time></trkpt><trkpt lat="37.6153418" lon="-1.7534212"><ele>363.0</ele><time>2026-04-11T07:40:05.36Z</time></trkpt><trkpt lat="37.615081" lon="-1.7536877"><ele>364.0</ele><time>2026-04-11T07:40:06.36Z</time></trkpt><trkpt lat="37.6148264" lon="-1.7539514"><ele>364.0</ele><time>2026-04-11T07:40:07.36Z</time></trkpt><trkpt lat="37.6145704" lon="-1.7542074"><ele>364.0</ele><time>2026-04-11T07:40:08.36Z</time></trkpt><trkpt lat="37.6143212" lon="-1.754464"><ele>365.5</ele><time>2026-04-11T07:40:09.36Z</time></trkpt><trkpt lat="37.6140724" lon="-1.7547213"><ele>367.0</ele><time>2026-04-11T07:40:10.359Z</time></trkpt><trkpt lat="37.6138258" lon="-1.7549764"><ele>368.0</ele><time>2026-04-11T07:40:11.359Z</time></trkpt><trkpt lat="37.6135793" lon="-1.7552337"><ele>369.0</ele><time>2026-04-11T07:40:12.36Z</time></trkpt><trkpt lat="37.6133283" lon="-1.7554939"><ele>369.0</ele><time>2026-04-11T07:40:13.36Z</time></trkpt><trkpt lat="37.6130807" lon="-1.7557519"><ele>369.0</ele><time>2026-04-11T07:40:14.36Z</time></trkpt><trkpt lat="37.6128329" lon="-1.7560079"><ele>370.0</ele><time>2026-04-11T07:40:15.36Z</time></trkpt><trkpt lat="37.612586" lon="-1.7562701"><ele>371.0</ele><time>2026-04-11T07:40:16.36Z</time></trkpt><trkpt lat="37.6123424" lon="-1.7565337"><ele>371.0</ele><time>2026-04-11T07:40:17.36Z</time></trkpt><trkpt lat="37.6120996" lon="-1.7567913"><ele>371.0</ele><time>2026-04-11T07:40:18.359Z</time></trkpt><trkpt lat="37.6118534" lon="-1.7570414"><ele>372.0</ele><time>2026-04-11T07:40:19.36Z</time></trkpt><trkpt lat="37.6116071" lon="-1.7572836"><ele>373.0</ele><time>2026-04-11T07:40:20.359Z</time></trkpt><trkpt lat="37.6113699" lon="-1.7575257"><ele>374.5</ele><time>2026-04-11T07:40:21.36Z</time></trkpt><trkpt lat="37.6111361" lon="-1.7577726"><ele>376.0</ele><time>2026-04-11T07:40:22.36Z</time></trkpt><trkpt lat="37.6109072" lon="-1.7580112"><ele>376.0</ele><time>2026-04-11T07:40:23.36Z</time></trkpt><trkpt lat="37.6106802" lon="-1.7582486"><ele>376.0</ele><time>2026-04-11T07:40:24.36Z</time></trkpt><trkpt lat="37.610453" lon="-1.7584848"><ele>376.5</ele><time>2026-04-11T07:40:25.36Z</time></trkpt><trkpt lat="37.6102314" lon="-1.7587161"><ele>377.0</ele><time>2026-04-11T07:40:26.36Z</time></trkpt><trkpt lat="37.6100055" lon="-1.7589486"><ele>377.0</ele><time>2026-04-11T07:40:27.36Z</time></trkpt><trkpt lat="37.6097759" lon="-1.7591844"><ele>377.0</ele><time>2026-04-11T07:40:28.36Z</time></trkpt><trkpt lat="37.6095427" lon="-1.7594205"><ele>379.0</ele><time>2026-04-11T07:40:29.36Z</time></trkpt><trkpt lat="37.6093122" lon="-1.7596588"><ele>381.0</ele><time>2026-04-11T07:40:30.36Z</time></trkpt><trkpt lat="37.6090806" lon="-1.7598974"><ele>381.0</ele><time>2026-04-11T07:40:31.359Z</time></trkpt><trkpt lat="37.6088477" lon="-1.7601401"><ele>381.0</ele><time>2026-04-11T07:40:32.36Z</time></trkpt><trkpt lat="37.608614" lon="-1.7603801"><ele>381.5</ele><time>2026-04-11T07:40:33.36Z</time></trkpt><trkpt lat="37.6083826" lon="-1.7606187"><ele>382.0</ele><time>2026-04-11T07:40:34.36Z</time></trkpt><trkpt lat="37.6081491" lon="-1.7608586"><ele>383.0</ele><time>2026-04-11T07:40:35.36Z</time></trkpt><trkpt lat="37.6079183" lon="-1.7610976"><ele>384.0</ele><time>2026-04-11T07:40:36.359Z</time></trkpt><trkpt lat="37.6076892" lon="-1.7613375"><ele>381.5</ele><time>2026-04-11T07:40:37.36Z</time></trkpt><trkpt lat="37.6074603" lon="-1.7615764"><ele>379.0</ele><time>2026-04-11T07:40:38.359Z</time></trkpt><trkpt lat="37.6072297" lon="-1.7618195"><ele>380.5</ele><time>2026-04-11T07:40:39.359Z</time></trkpt><trkpt lat="37.6069931" lon="-1.7620629"><ele>382.0</ele><time>2026-04-11T07:40:40.359Z</time></trkpt><trkpt lat="37.6067559" lon="-1.7623161"><ele>382.0</ele><time>2026-04-11T07:40:41.36Z</time></trkpt><trkpt lat="37.6065153" lon="-1.7625745"><ele>382.0</ele><time>2026-04-11T07:40:42.36Z</time></trkpt><trkpt lat="37.6062785" lon="-1.7628328"><ele>378.0</ele><time>2026-04-11T07:40:43.359Z</time></trkpt><trkpt lat="37.6060595" lon="-1.7630762"><ele>374.0</ele><time>2026-04-11T07:40:44.36Z</time></trkpt><trkpt lat="37.6058479" lon="-1.7633115"><ele>376.5</ele><time>2026-04-11T07:40:45.36Z</time></trkpt><trkpt lat="37.605639" lon="-1.7635422"><ele>379.0</ele><time>2026-04-11T07:40:46.36Z</time></trkpt><trkpt lat="37.6054268" lon="-1.7637758"><ele>378.0</ele><time>2026-04-11T07:40:47.36Z</time></trkpt><trkpt lat="37.6052105" lon="-1.7640085"><ele>377.0</ele><time>2026-04-11T07:40:48.359Z</time></trkpt><trkpt lat="37.6049923" lon="-1.7642409"><ele>376.5</ele><time>2026-04-11T07:40:49.36Z</time></trkpt><trkpt lat="37.6047728" lon="-1.7644766"><ele>376.0</ele><time>2026-04-11T07:40:50.36Z</time></trkpt><trkpt lat="37.6045534" lon="-1.7647039"><ele>378.0</ele><time>2026-04-11T07:40:51.36Z</time></trkpt><trkpt lat="37.6043372" lon="-1.764936"><ele>380.0</ele><time>2026-04-11T07:40:52.36Z</time></trkpt><trkpt lat="37.6041198" lon="-1.7651761"><ele>379.0</ele><time>2026-04-11T07:40:53.36Z</time></trkpt><trkpt lat="37.6038985" lon="-1.7654167"><ele>378.0</ele><time>2026-04-11T07:40:54.36Z</time></trkpt><trkpt lat="37.6036753" lon="-1.7656568"><ele>379.5</ele><time>2026-04-11T07:40:55.359Z</time></trkpt><trkpt lat="37.6034516" lon="-1.7658947"><ele>381.0</ele><time>2026-04-11T07:40:56.359Z</time></trkpt><trkpt lat="37.6032253" lon="-1.7661302"><ele>381.5</ele><time>2026-04-11T07:40:57.36Z</time></trkpt><trkpt lat="37.6029968" lon="-1.7663674"><ele>382.0</ele><time>2026-04-11T07:40:58.36Z</time></trkpt><trkpt lat="37.6027616" lon="-1.7666053"><ele>382.5</ele><time>2026-04-11T07:40:59.36Z</time></trkpt><trkpt lat="37.6025305" lon="-1.7668454"><ele>383.0</ele><time>2026-04-11T07:41:00.36Z</time></trkpt><trkpt lat="37.6023037" lon="-1.7670806"><ele>383.0</ele><time>2026-04-11T07:41:01.36Z</time></trkpt><trkpt lat="37.6020755" lon="-1.767317"><ele>383.0</ele><time>2026-04-11T07:41:02.36Z</time></trkpt><trkpt lat="37.6018422" lon="-1.7675562"><ele>384.0</ele><time>2026-04-11T07:41:03.36Z</time></trkpt><trkpt lat="37.6016063" lon="-1.767797"><ele>385.0</ele><time>2026-04-11T07:41:04.359Z</time></trkpt><trkpt lat="37.601369" lon="-1.7680371"><ele>384.5</ele><time>2026-04-11T07:41:05.36Z</time></trkpt><trkpt lat="37.6011277" lon="-1.768283"><ele>384.0</ele><time>2026-04-11T07:41:06.36Z</time></trkpt><trkpt lat="37.6008856" lon="-1.7685334"><ele>384.0</ele><time>2026-04-11T07:41:07.359Z</time></trkpt><trkpt lat="37.6006416" lon="-1.7687843"><ele>384.0</ele><time>2026-04-11T07:41:08.36Z</time></trkpt><trkpt lat="37.600392" lon="-1.7690428"><ele>384.5</ele><time>2026-04-11T07:41:09.36Z</time></trkpt><trkpt lat="37.6001405" lon="-1.7693006"><ele>385.0</ele><time>2026-04-11T07:41:10.36Z</time></trkpt><trkpt lat="37.599888" lon="-1.7695613"><ele>385.5</ele><time>2026-04-11T07:41:11.36Z</time></trkpt><trkpt lat="37.5996331" lon="-1.7698263"><ele>386.0</ele><time>2026-04-11T07:41:12.36Z</time></trkpt><trkpt lat="37.5993808" lon="-1.7700983"><ele>386.5</ele><time>2026-04-11T07:41:13.359Z</time></trkpt><trkpt lat="37.599126" lon="-1.7703747"><ele>387.0</ele><time>2026-04-11T07:41:14.359Z</time></trkpt><trkpt lat="37.5988699" lon="-1.7706523"><ele>388.0</ele><time>2026-04-11T07:41:15.36Z</time></trkpt><trkpt lat="37.5986117" lon="-1.7709244"><ele>389.0</ele><time>2026-04-11T07:41:16.36Z</time></trkpt><trkpt lat="37.598355" lon="-1.7711939"><ele>389.5</ele><time>2026-04-11T07:41:17.36Z</time></trkpt><trkpt lat="37.5980994" lon="-1.7714585"><ele>390.0</ele><time>2026-04-11T07:41:18.36Z</time></trkpt><trkpt lat="37.5978404" lon="-1.7717254"><ele>389.5</ele><time>2026-04-11T07:41:19.36Z</time></trkpt><trkpt lat="37.5975871" lon="-1.7719947"><ele>389.0</ele><time>2026-04-11T07:41:20.36Z</time></trkpt><trkpt lat="37.597334" lon="-1.7722609"><ele>389.0</ele><time>2026-04-11T07:41:21.36Z</time></trkpt><trkpt lat="37.5970799" lon="-1.7725229"><ele>389.0</ele><time>2026-04-11T07:41:22.359Z</time></trkpt><trkpt lat="37.5968223" lon="-1.7727837"><ele>389.0</ele><time>2026-04-11T07:41:23.36Z</time></trkpt><trkpt lat="37.5965675" lon="-1.7730501"><ele>389.0</ele><time>2026-04-11T07:41:24.36Z</time></trkpt><trkpt lat="37.5963132" lon="-1.7733153"><ele>389.5</ele><time>2026-04-11T07:41:25.359Z</time></trkpt><trkpt lat="37.5960593" lon="-1.7735779"><ele>390.0</ele><time>2026-04-11T07:41:26.36Z</time></trkpt><trkpt lat="37.5958057" lon="-1.7738423"><ele>390.0</ele><time>2026-04-11T07:41:27.36Z</time></trkpt><trkpt lat="37.5955542" lon="-1.774105"><ele>390.0</ele><time>2026-04-11T07:41:28.36Z</time></trkpt><trkpt lat="37.5953009" lon="-1.7743689"><ele>389.5</ele><time>2026-04-11T07:41:29.36Z</time></trkpt><trkpt lat="37.5950477" lon="-1.7746273"><ele>389.0</ele><time>2026-04-11T07:41:30.36Z</time></trkpt><trkpt lat="37.5947961" lon="-1.7748848"><ele>389.0</ele><time>2026-04-11T07:41:31.36Z</time></trkpt><trkpt lat="37.5945469" lon="-1.7751428"><ele>389.0</ele><time>2026-04-11T07:41:32.36Z</time></trkpt><trkpt lat="37.5942951" lon="-1.7753993"><ele>390.0</ele><time>2026-04-11T07:41:33.359Z</time></trkpt><trkpt lat="37.5940465" lon="-1.7756603"><ele>391.0</ele><time>2026-04-11T07:41:34.36Z</time></trkpt><trkpt lat="37.5937975" lon="-1.7759152"><ele>392.0</ele><time>2026-04-11T07:41:35.36Z</time></trkpt><trkpt lat="37.5935485" lon="-1.7761736"><ele>393.0</ele><time>2026-04-11T07:41:36.359Z</time></trkpt><trkpt lat="37.5933016" lon="-1.7764297"><ele>393.0</ele><time>2026-04-11T07:41:37.36Z</time></trkpt><trkpt lat="37.5930551" lon="-1.7766867"><ele>393.0</ele><time>2026-04-11T07:41:38.36Z</time></trkpt><trkpt lat="37.5928096" lon="-1.7769438"><ele>395.0</ele><time>2026-04-11T07:41:39.36Z</time></trkpt><trkpt lat="37.5925613" lon="-1.7772001"><ele>397.0</ele><time>2026-04-11T07:41:40.36Z</time></trkpt><trkpt lat="37.5923109" lon="-1.7774603"><ele>397.0</ele><time>2026-04-11T07:41:41.36Z</time></trkpt><trkpt lat="37.5920583" lon="-1.7777238"><ele>397.0</ele><time>2026-04-11T07:41:42.36Z</time></trkpt><trkpt lat="37.591804" lon="-1.7779868"><ele>397.0</ele><time>2026-04-11T07:41:43.36Z</time></trkpt><trkpt lat="37.5915464" lon="-1.7782545"><ele>397.0</ele><time>2026-04-11T07:41:44.36Z</time></trkpt><trkpt lat="37.5912881" lon="-1.7785213"><ele>396.5</ele><time>2026-04-11T07:41:45.359Z</time></trkpt><trkpt lat="37.5910267" lon="-1.7787875"><ele>396.0</ele><time>2026-04-11T07:41:46.36Z</time></trkpt><trkpt lat="37.5907632" lon="-1.7790602"><ele>396.0</ele><time>2026-04-11T07:41:47.36Z</time></trkpt><trkpt lat="37.5905013" lon="-1.7793335"><ele>396.0</ele><time>2026-04-11T07:41:48.36Z</time></trkpt><trkpt lat="37.5902398" lon="-1.779604"><ele>396.0</ele><time>2026-04-11T07:41:49.36Z</time></trkpt><trkpt lat="37.5899761" lon="-1.7798747"><ele>396.0</ele><time>2026-04-11T07:41:50.36Z</time></trkpt><trkpt lat="37.5897115" lon="-1.7801439"><ele>397.0</ele><time>2026-04-11T07:41:51.36Z</time></trkpt><trkpt lat="37.5894464" lon="-1.7804147"><ele>398.0</ele><time>2026-04-11T07:41:52.359Z</time></trkpt><trkpt lat="37.5891807" lon="-1.7806873"><ele>398.0</ele><time>2026-04-11T07:41:53.36Z</time></trkpt><trkpt lat="37.5889163" lon="-1.7809607"><ele>398.0</ele><time>2026-04-11T07:41:54.36Z</time></trkpt><trkpt lat="37.5886531" lon="-1.7812339"><ele>397.5</ele><time>2026-04-11T07:41:55.359Z</time></trkpt><trkpt lat="37.5883875" lon="-1.7815075"><ele>397.0</ele><time>2026-04-11T07:41:56.36Z</time></trkpt><trkpt lat="37.5881234" lon="-1.7817835"><ele>398.0</ele><time>2026-04-11T07:41:57.36Z</time></trkpt><trkpt lat="37.5878609" lon="-1.7820573"><ele>399.0</ele><time>2026-04-11T07:41:58.359Z</time></trkpt><trkpt lat="37.5875996" lon="-1.7823266"><ele>399.5</ele><time>2026-04-11T07:41:59.36Z</time></trkpt><trkpt lat="37.587343" lon="-1.7825932"><ele>400.0</ele><time>2026-04-11T07:42:00.36Z</time></trkpt><trkpt lat="37.5870897" lon="-1.7828565"><ele>400.0</ele><time>2026-04-11T07:42:01.36Z</time></trkpt><trkpt lat="37.5868412" lon="-1.7831174"><ele>400.0</ele><time>2026-04-11T07:42:02.359Z</time></trkpt><trkpt lat="37.5865962" lon="-1.7833806"><ele>401.5</ele><time>2026-04-11T07:42:03.36Z</time></trkpt><trkpt lat="37.5863545" lon="-1.7836421"><ele>403.0</ele><time>2026-04-11T07:42:04.36Z</time></trkpt><trkpt lat="37.5861246" lon="-1.7839164"><ele>403.0</ele><time>2026-04-11T07:42:05.36Z</time></trkpt><trkpt lat="37.5859103" lon="-1.7842112"><ele>403.0</ele><time>2026-04-11T07:42:06.36Z</time></trkpt><trkpt lat="37.5857174" lon="-1.7845227"><ele>403.5</ele><time>2026-04-11T07:42:07.36Z</time></trkpt><trkpt lat="37.5855378" lon="-1.7848502"><ele>404.0</ele><time>2026-04-11T07:42:08.36Z</time></trkpt><trkpt lat="37.5853758" lon="-1.7851899"><ele>405.5</ele><time>2026-04-11T07:42:09.36Z</time></trkpt><trkpt lat="37.5852319" lon="-1.7855412"><ele>407.0</ele><time>2026-04-11T07:42:10.36Z</time></trkpt><trkpt lat="37.5850979" lon="-1.7858989"><ele>409.0</ele><time>2026-04-11T07:42:11.359Z</time></trkpt><trkpt lat="37.5849678" lon="-1.7862642"><ele>411.0</ele><time>2026-04-11T07:42:12.36Z</time></trkpt><trkpt lat="37.5848354" lon="-1.7866274"><ele>413.5</ele><time>2026-04-11T07:42:13.36Z</time></trkpt><trkpt lat="37.5846979" lon="-1.786987"><ele>416.0</ele><time>2026-04-11T07:42:14.36Z</time></trkpt><trkpt lat="37.5845436" lon="-1.787333"><ele>416.5</ele><time>2026-04-11T07:42:15.36Z</time></trkpt><trkpt lat="37.584373" lon="-1.7876727"><ele>417.0</ele><time>2026-04-11T07:42:16.36Z</time></trkpt><trkpt lat="37.5841878" lon="-1.788002"><ele>417.0</ele><time>2026-04-11T07:42:17.36Z</time></trkpt><trkpt lat="37.5839926" lon="-1.7883183"><ele>417.0</ele><time>2026-04-11T07:42:18.36Z</time></trkpt><trkpt lat="37.5837839" lon="-1.7886216"><ele>418.5</ele><time>2026-04-11T07:42:19.36Z</time></trkpt><trkpt lat="37.5835578" lon="-1.788907"><ele>420.0</ele><time>2026-04-11T07:42:20.36Z</time></trkpt><trkpt lat="37.5833125" lon="-1.7891785"><ele>421.5</ele><time>2026-04-11T07:42:21.36Z</time></trkpt><trkpt lat="37.5830608" lon="-1.7894383"><ele>423.0</ele><time>2026-04-11T07:42:22.36Z</time></trkpt><trkpt lat="37.5828027" lon="-1.7896929"><ele>423.0</ele><time>2026-04-11T07:42:23.36Z</time></trkpt><trkpt lat="37.5825446" lon="-1.7899471"><ele>423.0</ele><time>2026-04-11T07:42:24.36Z</time></trkpt><trkpt lat="37.5822875" lon="-1.7901972"><ele>423.0</ele><time>2026-04-11T07:42:25.36Z</time></trkpt><trkpt lat="37.5820325" lon="-1.7904543"><ele>423.0</ele><time>2026-04-11T07:42:26.36Z</time></trkpt><trkpt lat="37.5817722" lon="-1.7907157"><ele>423.0</ele><time>2026-04-11T07:42:27.359Z</time></trkpt><trkpt lat="37.5815227" lon="-1.7909692"><ele>423.0</ele><time>2026-04-11T07:42:28.36Z</time></trkpt><trkpt lat="37.5812693" lon="-1.7912233"><ele>423.5</ele><time>2026-04-11T07:42:29.36Z</time></trkpt><trkpt lat="37.581014" lon="-1.7914775"><ele>424.0</ele><time>2026-04-11T07:42:30.359Z</time></trkpt><trkpt lat="37.5807606" lon="-1.79173"><ele>425.5</ele><time>2026-04-11T07:42:31.36Z</time></trkpt><trkpt lat="37.5805056" lon="-1.7919867"><ele>427.0</ele><time>2026-04-11T07:42:32.36Z</time></trkpt><trkpt lat="37.5802504" lon="-1.7922471"><ele>427.0</ele><time>2026-04-11T07:42:33.36Z</time></trkpt><trkpt lat="37.5800023" lon="-1.7925133"><ele>427.0</ele><time>2026-04-11T07:42:34.359Z</time></trkpt><trkpt lat="37.5797617" lon="-1.7927925"><ele>428.0</ele><time>2026-04-11T07:42:35.36Z</time></trkpt><trkpt lat="37.5795297" lon="-1.7930949"><ele>429.0</ele><time>2026-04-11T07:42:36.359Z</time></trkpt><trkpt lat="37.5793128" lon="-1.793402"><ele>431.5</ele><time>2026-04-11T07:42:37.359Z</time></trkpt><trkpt lat="37.5791061" lon="-1.7937229"><ele>434.0</ele><time>2026-04-11T07:42:38.36Z</time></trkpt><trkpt lat="37.5789072" lon="-1.7940505"><ele>434.0</ele><time>2026-04-11T07:42:39.359Z</time></trkpt><trkpt lat="37.5787127" lon="-1.7943762"><ele>434.0</ele><time>2026-04-11T07:42:40.36Z</time></trkpt><trkpt lat="37.5785233" lon="-1.7947091"><ele>434.0</ele><time>2026-04-11T07:42:41.359Z</time></trkpt><trkpt lat="37.5783355" lon="-1.7950436"><ele>434.0</ele><time>2026-04-11T07:42:42.36Z</time></trkpt><trkpt lat="37.5781437" lon="-1.7953779"><ele>436.0</ele><time>2026-04-11T07:42:43.36Z</time></trkpt><trkpt lat="37.5779507" lon="-1.7957144"><ele>438.0</ele><time>2026-04-11T07:42:44.36Z</time></trkpt><trkpt lat="37.57775" lon="-1.7960371"><ele>438.5</ele><time>2026-04-11T07:42:45.359Z</time></trkpt><trkpt lat="37.5775431" lon="-1.7963508"><ele>439.0</ele><time>2026-04-11T07:42:46.36Z</time></trkpt><trkpt lat="37.5773262" lon="-1.7966521"><ele>440.5</ele><time>2026-04-11T07:42:47.36Z</time></trkpt><trkpt lat="37.5771029" lon="-1.7969446"><ele>442.0</ele><time>2026-04-11T07:42:48.359Z</time></trkpt><trkpt lat="37.5768657" lon="-1.7972275"><ele>442.0</ele><time>2026-04-11T07:42:49.36Z</time></trkpt><trkpt lat="37.5766239" lon="-1.7974974"><ele>442.0</ele><time>2026-04-11T07:42:50.36Z</time></trkpt><trkpt lat="37.5763759" lon="-1.7977595"><ele>442.5</ele><time>2026-04-11T07:42:51.36Z</time></trkpt><trkpt lat="37.5761255" lon="-1.7980175"><ele>443.0</ele><time>2026-04-11T07:42:52.36Z</time></trkpt><trkpt lat="37.5758687" lon="-1.7982743"><ele>444.0</ele><time>2026-04-11T07:42:53.36Z</time></trkpt><trkpt lat="37.5756176" lon="-1.7985291"><ele>445.0</ele><time>2026-04-11T07:42:54.36Z</time></trkpt><trkpt lat="37.5753705" lon="-1.7987976"><ele>446.0</ele><time>2026-04-11T07:42:55.36Z</time></trkpt><trkpt lat="37.5751352" lon="-1.7990691"><ele>447.0</ele><time>2026-04-11T07:42:56.36Z</time></trkpt><trkpt lat="37.5749052" lon="-1.7993591"><ele>448.0</ele><time>2026-04-11T07:42:57.36Z</time></trkpt><trkpt lat="37.5746791" lon="-1.7996569"><ele>449.0</ele><time>2026-04-11T07:42:58.36Z</time></trkpt><trkpt lat="37.5744621" lon="-1.7999633"><ele>451.5</ele><time>2026-04-11T07:42:59.36Z</time></trkpt><trkpt lat="37.5742523" lon="-1.8002783"><ele>454.0</ele><time>2026-04-11T07:43:00.36Z</time></trkpt><trkpt lat="37.5740544" lon="-1.8006013"><ele>454.0</ele><time>2026-04-11T07:43:01.359Z</time></trkpt><trkpt lat="37.5738635" lon="-1.8009335"><ele>454.0</ele><time>2026-04-11T07:43:02.36Z</time></trkpt><trkpt lat="37.5736816" lon="-1.8012753"><ele>456.5</ele><time>2026-04-11T07:43:03.36Z</time></trkpt><trkpt lat="37.5735126" lon="-1.8016187"><ele>459.0</ele><time>2026-04-11T07:43:04.36Z</time></trkpt><trkpt lat="37.5733555" lon="-1.8019713"><ele>459.5</ele><time>2026-04-11T07:43:05.36Z</time></trkpt><trkpt lat="37.5732067" lon="-1.8023284"><ele>460.0</ele><time>2026-04-11T07:43:06.36Z</time></trkpt><trkpt lat="37.5730656" lon="-1.8026923"><ele>463.5</ele><time>2026-04-11T07:43:07.36Z</time></trkpt><trkpt lat="37.572922" lon="-1.8030595"><ele>467.0</ele><time>2026-04-11T07:43:08.36Z</time></trkpt><trkpt lat="37.5727784" lon="-1.8034233"><ele>468.0</ele><time>2026-04-11T07:43:09.36Z</time></trkpt><trkpt lat="37.5726301" lon="-1.8037865"><ele>469.0</ele><time>2026-04-11T07:43:10.359Z</time></trkpt><trkpt lat="37.5724762" lon="-1.8041426"><ele>471.0</ele><time>2026-04-11T07:43:11.36Z</time></trkpt><trkpt lat="37.5723079" lon="-1.8044856"><ele>473.0</ele><time>2026-04-11T07:43:12.36Z</time></trkpt><trkpt lat="37.5721238" lon="-1.8048226"><ele>476.5</ele><time>2026-04-11T07:43:13.36Z</time></trkpt><trkpt lat="37.5719276" lon="-1.8051496"><ele>480.0</ele><time>2026-04-11T07:43:14.36Z</time></trkpt><trkpt lat="37.571722" lon="-1.8054672"><ele>483.0</ele><time>2026-04-11T07:43:15.36Z</time></trkpt><trkpt lat="37.57151" lon="-1.8057684"><ele>486.0</ele><time>2026-04-11T07:43:16.359Z</time></trkpt><trkpt lat="37.5712852" lon="-1.8060551"><ele>485.5</ele><time>2026-04-11T07:43:17.36Z</time></trkpt><trkpt lat="37.5710526" lon="-1.8063314"><ele>485.0</ele><time>2026-04-11T07:43:18.36Z</time></trkpt><trkpt lat="37.5708109" lon="-1.8065999"><ele>489.5</ele><time>2026-04-11T07:43:19.36Z</time></trkpt><trkpt lat="37.5705659" lon="-1.806863"><ele>494.0</ele><time>2026-04-11T07:43:20.36Z</time></trkpt><trkpt lat="37.5703216" lon="-1.8071255"><ele>494.0</ele><time>2026-04-11T07:43:21.36Z</time></trkpt><trkpt lat="37.5700821" lon="-1.8073857"><ele>494.0</ele><time>2026-04-11T07:43:22.359Z</time></trkpt><trkpt lat="37.5698473" lon="-1.8076578"><ele>496.0</ele><time>2026-04-11T07:43:23.36Z</time></trkpt><trkpt lat="37.5696244" lon="-1.8079456"><ele>498.0</ele><time>2026-04-11T07:43:24.36Z</time></trkpt><trkpt lat="37.5694151" lon="-1.8082502"><ele>504.0</ele><time>2026-04-11T07:43:25.36Z</time></trkpt><trkpt lat="37.5692144" lon="-1.8085651"><ele>510.0</ele><time>2026-04-11T07:43:26.36Z</time></trkpt><trkpt lat="37.5690236" lon="-1.8088844"><ele>510.0</ele><time>2026-04-11T07:43:27.36Z</time></trkpt><trkpt lat="37.5688459" lon="-1.8092091"><ele>510.0</ele><time>2026-04-11T07:43:28.36Z</time></trkpt><trkpt lat="37.5686793" lon="-1.8095489"><ele>509.5</ele><time>2026-04-11T07:43:29.36Z</time></trkpt><trkpt lat="37.568522" lon="-1.8098953"><ele>509.0</ele><time>2026-04-11T07:43:30.36Z</time></trkpt><trkpt lat="37.5683761" lon="-1.8102553"><ele>513.0</ele><time>2026-04-11T07:43:31.36Z</time></trkpt><trkpt lat="37.5682414" lon="-1.8106166"><ele>517.0</ele><time>2026-04-11T07:43:32.36Z</time></trkpt><trkpt lat="37.5681209" lon="-1.81099"><ele>513.5</ele><time>2026-04-11T07:43:33.36Z</time></trkpt><trkpt lat="37.5680148" lon="-1.8113721"><ele>510.0</ele><time>2026-04-11T07:43:34.36Z</time></trkpt><trkpt lat="37.5679224" lon="-1.8117606"><ele>507.0</ele><time>2026-04-11T07:43:35.36Z</time></trkpt><trkpt lat="37.5678427" lon="-1.8121551"><ele>504.0</ele><time>2026-04-11T07:43:36.359Z</time></trkpt><trkpt lat="37.5677799" lon="-1.8125545"><ele>505.5</ele><time>2026-04-11T07:43:37.36Z</time></trkpt><trkpt lat="37.5677277" lon="-1.8129608"><ele>507.0</ele><time>2026-04-11T07:43:38.36Z</time></trkpt><trkpt lat="37.5676913" lon="-1.813371"><ele>509.0</ele><time>2026-04-11T07:43:39.36Z</time></trkpt><trkpt lat="37.5676707" lon="-1.8137839"><ele>511.0</ele><time>2026-04-11T07:43:40.359Z</time></trkpt><trkpt lat="37.5676622" lon="-1.8141964"><ele>511.5</ele><time>2026-04-11T07:43:41.36Z</time></trkpt><trkpt lat="37.5676603" lon="-1.8146086"><ele>512.0</ele><time>2026-04-11T07:43:42.36Z</time></trkpt><trkpt lat="37.5676575" lon="-1.815023"><ele>511.0</ele><time>2026-04-11T07:43:43.36Z</time></trkpt><trkpt lat="37.5676473" lon="-1.8154449"><ele>510.0</ele><time>2026-04-11T07:43:44.36Z</time></trkpt><trkpt lat="37.5676234" lon="-1.815853"><ele>508.0</ele><time>2026-04-11T07:43:45.36Z</time></trkpt><trkpt lat="37.5675773" lon="-1.8162631"><ele>506.0</ele><time>2026-04-11T07:43:46.36Z</time></trkpt><trkpt lat="37.5675069" lon="-1.8166638"><ele>505.0</ele><time>2026-04-11T07:43:47.36Z</time></trkpt><trkpt lat="37.5674134" lon="-1.8170598"><ele>504.0</ele><time>2026-04-11T07:43:48.36Z</time></trkpt><trkpt lat="37.5672958" lon="-1.8174518"><ele>501.5</ele><time>2026-04-11T07:43:49.359Z</time></trkpt><trkpt lat="37.5671546" lon="-1.8178296"><ele>499.0</ele><time>2026-04-11T07:43:50.36Z</time></trkpt><trkpt lat="37.5669965" lon="-1.8181904"><ele>497.0</ele><time>2026-04-11T07:43:51.36Z</time></trkpt><trkpt lat="37.5668189" lon="-1.8185356"><ele>495.0</ele><time>2026-04-11T07:43:52.36Z</time></trkpt><trkpt lat="37.5666214" lon="-1.8188642"><ele>495.0</ele><time>2026-04-11T07:43:53.36Z</time></trkpt><trkpt lat="37.56641" lon="-1.8191743"><ele>495.0</ele><time>2026-04-11T07:43:54.36Z</time></trkpt><trkpt lat="37.5661784" lon="-1.819457"><ele>490.5</ele><time>2026-04-11T07:43:55.36Z</time></trkpt><trkpt lat="37.5659276" lon="-1.8197151"><ele>486.0</ele><time>2026-04-11T07:43:56.36Z</time></trkpt><trkpt lat="37.5656661" lon="-1.8199598"><ele>485.5</ele><time>2026-04-11T07:43:57.36Z</time></trkpt><trkpt lat="37.5653914" lon="-1.8201822"><ele>485.0</ele><time>2026-04-11T07:43:58.36Z</time></trkpt><trkpt lat="37.5651068" lon="-1.8203756"><ele>485.0</ele><time>2026-04-11T07:43:59.36Z</time></trkpt><trkpt lat="37.5648132" lon="-1.8205493"><ele>485.0</ele><time>2026-04-11T07:44:00.36Z</time></trkpt><trkpt lat="37.5645089" lon="-1.8206926"><ele>488.0</ele><time>2026-04-11T07:44:01.36Z</time></trkpt><trkpt lat="37.5641985" lon="-1.8208059"><ele>491.0</ele><time>2026-04-11T07:44:02.36Z</time></trkpt><trkpt lat="37.5638862" lon="-1.8208903"><ele>492.5</ele><time>2026-04-11T07:44:03.36Z</time></trkpt><trkpt lat="37.5635628" lon="-1.820951"><ele>494.0</ele><time>2026-04-11T07:44:04.36Z</time></trkpt><trkpt lat="37.5632418" lon="-1.8209784"><ele>496.0</ele><time>2026-04-11T07:44:05.36Z</time></trkpt><trkpt lat="37.5629192" lon="-1.8209835"><ele>498.0</ele><time>2026-04-11T07:44:06.36Z</time></trkpt><trkpt lat="37.5625962" lon="-1.8209613"><ele>498.0</ele><time>2026-04-11T07:44:07.36Z</time></trkpt><trkpt lat="37.5622747" lon="-1.8209053"><ele>498.0</ele><time>2026-04-11T07:44:08.36Z</time></trkpt><trkpt lat="37.5619582" lon="-1.8208235"><ele>500.0</ele><time>2026-04-11T07:44:09.359Z</time></trkpt><trkpt lat="37.5616475" lon="-1.8207241"><ele>502.0</ele><time>2026-04-11T07:44:10.36Z</time></trkpt><trkpt lat="37.5613321" lon="-1.8206246"><ele>506.0</ele><time>2026-04-11T07:44:11.36Z</time></trkpt><trkpt lat="37.5610152" lon="-1.8205234"><ele>510.0</ele><time>2026-04-11T07:44:12.36Z</time></trkpt><trkpt lat="37.5606988" lon="-1.8204237"><ele>510.0</ele><time>2026-04-11T07:44:13.36Z</time></trkpt><trkpt lat="37.5603838" lon="-1.8203251"><ele>510.0</ele><time>2026-04-11T07:44:14.359Z</time></trkpt><trkpt lat="37.5600708" lon="-1.8202255"><ele>513.0</ele><time>2026-04-11T07:44:15.36Z</time></trkpt><trkpt lat="37.5597519" lon="-1.8201262"><ele>516.0</ele><time>2026-04-11T07:44:16.36Z</time></trkpt><trkpt lat="37.5594325" lon="-1.820023"><ele>517.5</ele><time>2026-04-11T07:44:17.36Z</time></trkpt><trkpt lat="37.5591133" lon="-1.8199214"><ele>519.0</ele><time>2026-04-11T07:44:18.36Z</time></trkpt><trkpt lat="37.5587929" lon="-1.8198204"><ele>521.0</ele><time>2026-04-11T07:44:19.36Z</time></trkpt><trkpt lat="37.5584712" lon="-1.8197179"><ele>523.0</ele><time>2026-04-11T07:44:20.36Z</time></trkpt><trkpt lat="37.5581502" lon="-1.8196151"><ele>519.5</ele><time>2026-04-11T07:44:21.36Z</time></trkpt><trkpt lat="37.5578281" lon="-1.8195104"><ele>516.0</ele><time>2026-04-11T07:44:22.36Z</time></trkpt><trkpt lat="37.5575049" lon="-1.8194073"><ele>511.5</ele><time>2026-04-11T07:44:23.36Z</time></trkpt><trkpt lat="37.5571838" lon="-1.8193012"><ele>507.0</ele><time>2026-04-11T07:44:24.36Z</time></trkpt><trkpt lat="37.5568568" lon="-1.8192003"><ele>507.0</ele><time>2026-04-11T07:44:25.36Z</time></trkpt><trkpt lat="37.5565263" lon="-1.8191011"><ele>507.0</ele><time>2026-04-11T07:44:26.36Z</time></trkpt><trkpt lat="37.5561942" lon="-1.8190104"><ele>501.5</ele><time>2026-04-11T07:44:27.36Z</time></trkpt><trkpt lat="37.5558559" lon="-1.8189283"><ele>496.0</ele><time>2026-04-11T07:44:28.36Z</time></trkpt><trkpt lat="37.5555124" lon="-1.8188671"><ele>495.5</ele><time>2026-04-11T07:44:29.36Z</time></trkpt><trkpt lat="37.5551681" lon="-1.8188252"><ele>495.0</ele><time>2026-04-11T07:44:30.359Z</time></trkpt><trkpt lat="37.5548208" lon="-1.8187992"><ele>493.0</ele><time>2026-04-11T07:44:31.36Z</time></trkpt><trkpt lat="37.5544761" lon="-1.8187852"><ele>491.0</ele><time>2026-04-11T07:44:32.359Z</time></trkpt><trkpt lat="37.5541288" lon="-1.818789"><ele>491.0</ele><time>2026-04-11T07:44:33.36Z</time></trkpt><trkpt lat="37.5537791" lon="-1.8188098"><ele>491.0</ele><time>2026-04-11T07:44:34.36Z</time></trkpt><trkpt lat="37.5534327" lon="-1.8188542"><ele>487.5</ele><time>2026-04-11T07:44:35.36Z</time></trkpt><trkpt lat="37.5530911" lon="-1.8189113"><ele>484.0</ele><time>2026-04-11T07:44:36.36Z</time></trkpt><trkpt lat="37.5527481" lon="-1.8189829"><ele>482.0</ele><time>2026-04-11T07:44:37.36Z</time></trkpt><trkpt lat="37.552408" lon="-1.8190591"><ele>480.0</ele><time>2026-04-11T07:44:38.36Z</time></trkpt><trkpt lat="37.5520662" lon="-1.8191317"><ele>477.0</ele><time>2026-04-11T07:44:39.36Z</time></trkpt><trkpt lat="37.5517224" lon="-1.8192033"><ele>474.0</ele><time>2026-04-11T07:44:40.359Z</time></trkpt><trkpt lat="37.5513815" lon="-1.8192685"><ele>473.5</ele><time>2026-04-11T07:44:41.36Z</time></trkpt><trkpt lat="37.5510375" lon="-1.8193297"><ele>473.0</ele><time>2026-04-11T07:44:42.36Z</time></trkpt><trkpt lat="37.5506943" lon="-1.8193943"><ele>471.0</ele><time>2026-04-11T07:44:43.36Z</time></trkpt><trkpt lat="37.5503509" lon="-1.8194471"><ele>469.0</ele><time>2026-04-11T07:44:44.36Z</time></trkpt><trkpt lat="37.5500054" lon="-1.81949"><ele>469.0</ele><time>2026-04-11T07:44:45.36Z</time></trkpt><trkpt lat="37.5496608" lon="-1.8195196"><ele>469.0</ele><time>2026-04-11T07:44:46.359Z</time></trkpt><trkpt lat="37.549315" lon="-1.8195367"><ele>469.0</ele><time>2026-04-11T07:44:47.36Z</time></trkpt><trkpt lat="37.5489682" lon="-1.8195465"><ele>469.0</ele><time>2026-04-11T07:44:48.359Z</time></trkpt><trkpt lat="37.5486258" lon="-1.819544"><ele>469.0</ele><time>2026-04-11T07:44:49.36Z</time></trkpt><trkpt lat="37.5482825" lon="-1.8195316"><ele>469.0</ele><time>2026-04-11T07:44:50.36Z</time></trkpt><trkpt lat="37.547939" lon="-1.8195103"><ele>469.5</ele><time>2026-04-11T07:44:51.359Z</time></trkpt><trkpt lat="37.5475938" lon="-1.8194778"><ele>470.0</ele><time>2026-04-11T07:44:52.359Z</time></trkpt><trkpt lat="37.5472493" lon="-1.8194392"><ele>470.0</ele><time>2026-04-11T07:44:53.36Z</time></trkpt><trkpt lat="37.5469059" lon="-1.819392"><ele>470.0</ele><time>2026-04-11T07:44:54.36Z</time></trkpt><trkpt lat="37.5465639" lon="-1.8193316"><ele>469.0</ele><time>2026-04-11T07:44:55.36Z</time></trkpt><trkpt lat="37.5462252" lon="-1.8192567"><ele>468.0</ele><time>2026-04-11T07:44:56.36Z</time></trkpt><trkpt lat="37.5458873" lon="-1.8191692"><ele>468.0</ele><time>2026-04-11T07:44:57.36Z</time></trkpt><trkpt lat="37.5455481" lon="-1.8190731"><ele>468.0</ele><time>2026-04-11T07:44:58.36Z</time></trkpt><trkpt lat="37.5452128" lon="-1.818962"><ele>468.0</ele><time>2026-04-11T07:44:59.36Z</time></trkpt><trkpt lat="37.5448797" lon="-1.8188425"><ele>468.0</ele><time>2026-04-11T07:45:00.36Z</time></trkpt><trkpt lat="37.5445503" lon="-1.8187098"><ele>467.5</ele><time>2026-04-11T07:45:01.36Z</time></trkpt><trkpt lat="37.5442203" lon="-1.8185715"><ele>467.0</ele><time>2026-04-11T07:45:02.36Z</time></trkpt><trkpt lat="37.5438965" lon="-1.8184213"><ele>468.5</ele><time>2026-04-11T07:45:03.36Z</time></trkpt><trkpt lat="37.5435761" lon="-1.8182616"><ele>470.0</ele><time>2026-04-11T07:45:04.36Z</time></trkpt><trkpt lat="37.5432584" lon="-1.8180862"><ele>470.0</ele><time>2026-04-11T07:45:05.36Z</time></trkpt><trkpt lat="37.5429461" lon="-1.8178941"><ele>470.0</ele><time>2026-04-11T07:45:06.36Z</time></trkpt><trkpt lat="37.5426401" lon="-1.8176915"><ele>469.5</ele><time>2026-04-11T07:45:07.36Z</time></trkpt><trkpt lat="37.5423374" lon="-1.8174757"><ele>469.0</ele><time>2026-04-11T07:45:08.36Z</time></trkpt><trkpt lat="37.5420317" lon="-1.8172665"><ele>470.0</ele><time>2026-04-11T07:45:09.36Z</time></trkpt><trkpt lat="37.5417224" lon="-1.8170684"><ele>471.0</ele><time>2026-04-11T07:45:10.359Z</time></trkpt><trkpt lat="37.5414108" lon="-1.8168772"><ele>471.5</ele><time>2026-04-11T07:45:11.36Z</time></trkpt><trkpt lat="37.5410999" lon="-1.8166852"><ele>472.0</ele><time>2026-04-11T07:45:12.36Z</time></trkpt><trkpt lat="37.5407844" lon="-1.8165029"><ele>472.0</ele><time>2026-04-11T07:45:13.36Z</time></trkpt><trkpt lat="37.5404671" lon="-1.8163303"><ele>472.0</ele><time>2026-04-11T07:45:14.36Z</time></trkpt><trkpt lat="37.5401453" lon="-1.8161691"><ele>472.0</ele><time>2026-04-11T07:45:15.359Z</time></trkpt><trkpt lat="37.5398181" lon="-1.8160267"><ele>472.0</ele><time>2026-04-11T07:45:16.36Z</time></trkpt><trkpt lat="37.5394883" lon="-1.815894"><ele>472.0</ele><time>2026-04-11T07:45:17.36Z</time></trkpt><trkpt lat="37.5391578" lon="-1.8157707"><ele>472.0</ele><time>2026-04-11T07:45:18.36Z</time></trkpt><trkpt lat="37.5388223" lon="-1.8156637"><ele>471.0</ele><time>2026-04-11T07:45:19.36Z</time></trkpt><trkpt lat="37.538484" lon="-1.8155642"><ele>470.0</ele><time>2026-04-11T07:45:20.359Z</time></trkpt><trkpt lat="37.5381437" lon="-1.8154762"><ele>469.5</ele><time>2026-04-11T07:45:21.36Z</time></trkpt><trkpt lat="37.5378002" lon="-1.8153987"><ele>469.0</ele><time>2026-04-11T07:45:22.36Z</time></trkpt><trkpt lat="37.5374522" lon="-1.8153483"><ele>469.0</ele><time>2026-04-11T07:45:23.36Z</time></trkpt><trkpt lat="37.5371081" lon="-1.8153212"><ele>469.0</ele><time>2026-04-11T07:45:24.36Z</time></trkpt><trkpt lat="37.5367576" lon="-1.8152989"><ele>469.5</ele><time>2026-04-11T07:45:25.36Z</time></trkpt><trkpt lat="37.5364092" lon="-1.8152836"><ele>470.0</ele><time>2026-04-11T07:45:26.36Z</time></trkpt><trkpt lat="37.5360611" lon="-1.815279"><ele>469.0</ele><time>2026-04-11T07:45:27.36Z</time></trkpt><trkpt lat="37.5357157" lon="-1.8152866"><ele>468.0</ele><time>2026-04-11T07:45:28.36Z</time></trkpt><trkpt lat="37.5353687" lon="-1.8153056"><ele>467.5</ele><time>2026-04-11T07:45:29.36Z</time></trkpt><trkpt lat="37.535024" lon="-1.8153407"><ele>467.0</ele><time>2026-04-11T07:45:30.359Z</time></trkpt><trkpt lat="37.5346755" lon="-1.8153861"><ele>466.5</ele><time>2026-04-11T07:45:31.36Z</time></trkpt><trkpt lat="37.5343323" lon="-1.8154447"><ele>466.0</ele><time>2026-04-11T07:45:32.36Z</time></trkpt><trkpt lat="37.5339889" lon="-1.8155196"><ele>466.5</ele><time>2026-04-11T07:45:33.359Z</time></trkpt><trkpt lat="37.5336474" lon="-1.8156042"><ele>467.0</ele><time>2026-04-11T07:45:34.36Z</time></trkpt><trkpt lat="37.53331" lon="-1.8157007"><ele>467.0</ele><time>2026-04-11T07:45:35.36Z</time></trkpt><trkpt lat="37.5329738" lon="-1.8158061"><ele>467.0</ele><time>2026-04-11T07:45:36.36Z</time></trkpt><trkpt lat="37.5326376" lon="-1.8159271"><ele>467.5</ele><time>2026-04-11T07:45:37.36Z</time></trkpt><trkpt lat="37.5323067" lon="-1.8160673"><ele>468.0</ele><time>2026-04-11T07:45:38.36Z</time></trkpt><trkpt lat="37.5319808" lon="-1.8162143"><ele>467.0</ele><time>2026-04-11T07:45:39.359Z</time></trkpt><trkpt lat="37.5316596" lon="-1.8163714"><ele>466.0</ele><time>2026-04-11T07:45:40.36Z</time></trkpt><trkpt lat="37.5313408" lon="-1.8165426"><ele>465.0</ele><time>2026-04-11T07:45:41.36Z</time></trkpt><trkpt lat="37.5310231" lon="-1.8167153"><ele>464.0</ele><time>2026-04-11T07:45:42.36Z</time></trkpt><trkpt lat="37.5307073" lon="-1.8168941"><ele>465.0</ele><time>2026-04-11T07:45:43.36Z</time></trkpt><trkpt lat="37.5303936" lon="-1.8170741"><ele>466.0</ele><time>2026-04-11T07:45:44.359Z</time></trkpt><trkpt lat="37.5300783" lon="-1.8172565"><ele>466.0</ele><time>2026-04-11T07:45:45.36Z</time></trkpt><trkpt lat="37.5297639" lon="-1.8174363"><ele>466.0</ele><time>2026-04-11T07:45:46.36Z</time></trkpt><trkpt lat="37.5294504" lon="-1.8176145"><ele>466.5</ele><time>2026-04-11T07:45:47.36Z</time></trkpt><trkpt lat="37.5291365" lon="-1.8177917"><ele>467.0</ele><time>2026-04-11T07:45:48.36Z</time></trkpt><trkpt lat="37.5288254" lon="-1.8179688"><ele>466.0</ele><time>2026-04-11T07:45:49.359Z</time></trkpt><trkpt lat="37.5285093" lon="-1.8181498"><ele>465.0</ele><time>2026-04-11T07:45:50.36Z</time></trkpt><trkpt lat="37.5281997" lon="-1.8183253"><ele>466.5</ele><time>2026-04-11T07:45:51.36Z</time></trkpt><trkpt lat="37.5278831" lon="-1.8185076"><ele>468.0</ele><time>2026-04-11T07:45:52.36Z</time></trkpt><trkpt lat="37.5275704" lon="-1.8186884"><ele>468.0</ele><time>2026-04-11T07:45:53.36Z</time></trkpt><trkpt lat="37.5272516" lon="-1.8188753"><ele>468.0</ele><time>2026-04-11T07:45:54.36Z</time></trkpt><trkpt lat="37.5269357" lon="-1.8190578"><ele>467.5</ele><time>2026-04-11T07:45:55.36Z</time></trkpt><trkpt lat="37.5266196" lon="-1.8192382"><ele>467.0</ele><time>2026-04-11T07:45:56.36Z</time></trkpt><trkpt lat="37.5263035" lon="-1.8194204"><ele>467.0</ele><time>2026-04-11T07:45:57.36Z</time></trkpt><trkpt lat="37.5259891" lon="-1.8195975"><ele>467.0</ele><time>2026-04-11T07:45:58.36Z</time></trkpt><trkpt lat="37.5256748" lon="-1.8197756"><ele>466.0</ele><time>2026-04-11T07:45:59.36Z</time></trkpt><trkpt lat="37.5253625" lon="-1.8199548"><ele>465.0</ele><time>2026-04-11T07:46:00.359Z</time></trkpt><trkpt lat="37.5250465" lon="-1.8201367"><ele>466.0</ele><time>2026-04-11T07:46:01.36Z</time></trkpt><trkpt lat="37.5247322" lon="-1.8203173"><ele>467.0</ele><time>2026-04-11T07:46:02.36Z</time></trkpt><trkpt lat="37.5244186" lon="-1.8205005"><ele>467.0</ele><time>2026-04-11T07:46:03.36Z</time></trkpt><trkpt lat="37.5241053" lon="-1.8206826"><ele>467.0</ele><time>2026-04-11T07:46:04.36Z</time></trkpt><trkpt lat="37.5237888" lon="-1.8208598"><ele>467.5</ele><time>2026-04-11T07:46:05.359Z</time></trkpt><trkpt lat="37.5234748" lon="-1.8210394"><ele>468.0</ele><time>2026-04-11T07:46:06.36Z</time></trkpt><trkpt lat="37.5231643" lon="-1.8212288"><ele>468.0</ele><time>2026-04-11T07:46:07.36Z</time></trkpt><trkpt lat="37.5228557" lon="-1.8214299"><ele>468.0</ele><time>2026-04-11T07:46:08.36Z</time></trkpt><trkpt lat="37.5225513" lon="-1.8216433"><ele>468.5</ele><time>2026-04-11T07:46:09.36Z</time></trkpt><trkpt lat="37.5222542" lon="-1.8218721"><ele>469.0</ele><time>2026-04-11T07:46:10.36Z</time></trkpt><trkpt lat="37.521965" lon="-1.8221158"><ele>469.0</ele><time>2026-04-11T07:46:11.359Z</time></trkpt><trkpt lat="37.5216819" lon="-1.8223674"><ele>469.0</ele><time>2026-04-11T07:46:12.36Z</time></trkpt><trkpt lat="37.5214037" lon="-1.8226283"><ele>469.0</ele><time>2026-04-11T07:46:13.359Z</time></trkpt><trkpt lat="37.5211288" lon="-1.8228902"><ele>469.0</ele><time>2026-04-11T07:46:14.36Z</time></trkpt><trkpt lat="37.520856" lon="-1.8231551"><ele>469.0</ele><time>2026-04-11T07:46:15.36Z</time></trkpt><trkpt lat="37.5205811" lon="-1.8234271"><ele>469.0</ele><time>2026-04-11T07:46:16.36Z</time></trkpt><trkpt lat="37.5203071" lon="-1.8236964"><ele>469.5</ele><time>2026-04-11T07:46:17.36Z</time></trkpt><trkpt lat="37.5200345" lon="-1.8239696"><ele>470.0</ele><time>2026-04-11T07:46:18.359Z</time></trkpt><trkpt lat="37.5197607" lon="-1.8242386"><ele>470.5</ele><time>2026-04-11T07:46:19.36Z</time></trkpt><trkpt lat="37.5194877" lon="-1.8245079"><ele>471.0</ele><time>2026-04-11T07:46:20.36Z</time></trkpt><trkpt lat="37.5192141" lon="-1.824775"><ele>471.0</ele><time>2026-04-11T07:46:21.36Z</time></trkpt><trkpt lat="37.5189398" lon="-1.8250443"><ele>471.0</ele><time>2026-04-11T07:46:22.359Z</time></trkpt><trkpt lat="37.5186689" lon="-1.8253166"><ele>471.5</ele><time>2026-04-11T07:46:23.36Z</time></trkpt><trkpt lat="37.5183981" lon="-1.8255857"><ele>472.0</ele><time>2026-04-11T07:46:24.36Z</time></trkpt><trkpt lat="37.518128" lon="-1.8258585"><ele>472.5</ele><time>2026-04-11T07:46:25.36Z</time></trkpt><trkpt lat="37.5178575" lon="-1.8261301"><ele>473.0</ele><time>2026-04-11T07:46:26.36Z</time></trkpt><trkpt lat="37.5175887" lon="-1.8264013"><ele>473.0</ele><time>2026-04-11T07:46:27.359Z</time></trkpt><trkpt lat="37.5173204" lon="-1.8266742"><ele>473.0</ele><time>2026-04-11T07:46:28.36Z</time></trkpt><trkpt lat="37.5170508" lon="-1.8269419"><ele>475.0</ele><time>2026-04-11T07:46:29.359Z</time></trkpt><trkpt lat="37.5167816" lon="-1.8272161"><ele>477.0</ele><time>2026-04-11T07:46:30.36Z</time></trkpt><trkpt lat="37.5165104" lon="-1.8274874"><ele>478.0</ele><time>2026-04-11T07:46:31.359Z</time></trkpt><trkpt lat="37.5162419" lon="-1.8277576"><ele>479.0</ele><time>2026-04-11T07:46:32.36Z</time></trkpt><trkpt lat="37.5159674" lon="-1.8280279"><ele>477.5</ele><time>2026-04-11T07:46:33.36Z</time></trkpt><trkpt lat="37.5156922" lon="-1.8282977"><ele>476.0</ele><time>2026-04-11T07:46:34.36Z</time></trkpt><trkpt lat="37.5154157" lon="-1.8285623"><ele>476.0</ele><time>2026-04-11T07:46:35.36Z</time></trkpt><trkpt lat="37.515138" lon="-1.8288255"><ele>476.0</ele><time>2026-04-11T07:46:36.36Z</time></trkpt><trkpt lat="37.5148606" lon="-1.8290918"><ele>477.0</ele><time>2026-04-11T07:46:37.36Z</time></trkpt><trkpt lat="37.5145815" lon="-1.8293574"><ele>478.0</ele><time>2026-04-11T07:46:38.36Z</time></trkpt><trkpt lat="37.5143049" lon="-1.8296269"><ele>478.0</ele><time>2026-04-11T07:46:39.36Z</time></trkpt><trkpt lat="37.5140323" lon="-1.8298955"><ele>478.0</ele><time>2026-04-11T07:46:40.359Z</time></trkpt><trkpt lat="37.5137589" lon="-1.8301676"><ele>477.0</ele><time>2026-04-11T07:46:41.36Z</time></trkpt><trkpt lat="37.5134879" lon="-1.8304417"><ele>476.0</ele><time>2026-04-11T07:46:42.36Z</time></trkpt><trkpt lat="37.5132163" lon="-1.8307128"><ele>476.5</ele><time>2026-04-11T07:46:43.359Z</time></trkpt><trkpt lat="37.5129437" lon="-1.8309828"><ele>477.0</ele><time>2026-04-11T07:46:44.359Z</time></trkpt><trkpt lat="37.5126729" lon="-1.8312534"><ele>477.0</ele><time>2026-04-11T07:46:45.36Z</time></trkpt><trkpt lat="37.5124012" lon="-1.8315242"><ele>477.0</ele><time>2026-04-11T07:46:46.36Z</time></trkpt><trkpt lat="37.512131" lon="-1.8317969"><ele>476.5</ele><time>2026-04-11T07:46:47.36Z</time></trkpt><trkpt lat="37.5119376" lon="-1.8319843"><ele>476.0</ele><time>2026-04-11T07:46:48.575Z</time></trkpt><trkpt lat="37.5116257" lon="-1.8322982"><ele>478.0</ele><time>2026-04-11T07:46:49.733Z</time></trkpt><trkpt lat="37.5110448" lon="-1.8328829"><ele>478.0</ele><time>2026-04-11T07:46:51.362Z</time></trkpt><trkpt lat="37.5107761" lon="-1.833157"><ele>478.0</ele><time>2026-04-11T07:46:52.358Z</time></trkpt><trkpt lat="37.5105069" lon="-1.8334335"><ele>477.0</ele><time>2026-04-11T07:46:53.353Z</time></trkpt><trkpt lat="37.5102352" lon="-1.8337067"><ele>476.0</ele><time>2026-04-11T07:46:54.358Z</time></trkpt><trkpt lat="37.5099628" lon="-1.8339765"><ele>476.0</ele><time>2026-04-11T07:46:55.358Z</time></trkpt><trkpt lat="37.5096907" lon="-1.8342511"><ele>476.0</ele><time>2026-04-11T07:46:56.358Z</time></trkpt><trkpt lat="37.5094191" lon="-1.8345253"><ele>476.0</ele><time>2026-04-11T07:46:57.358Z</time></trkpt><trkpt lat="37.5091461" lon="-1.8347944"><ele>476.0</ele><time>2026-04-11T07:46:58.357Z</time></trkpt><trkpt lat="37.5088721" lon="-1.8350663"><ele>475.5</ele><time>2026-04-11T07:46:59.358Z</time></trkpt><trkpt lat="37.5085999" lon="-1.8353394"><ele>475.0</ele><time>2026-04-11T07:47:00.358Z</time></trkpt><trkpt lat="37.508329" lon="-1.8356128"><ele>475.0</ele><time>2026-04-11T07:47:01.358Z</time></trkpt><trkpt lat="37.5080575" lon="-1.8358856"><ele>475.0</ele><time>2026-04-11T07:47:02.358Z</time></trkpt><trkpt lat="37.5077849" lon="-1.8361632"><ele>474.5</ele><time>2026-04-11T07:47:03.358Z</time></trkpt><trkpt lat="37.5075132" lon="-1.8364346"><ele>474.0</ele><time>2026-04-11T07:47:04.358Z</time></trkpt><trkpt lat="37.5072418" lon="-1.8367043"><ele>474.0</ele><time>2026-04-11T07:47:05.358Z</time></trkpt><trkpt lat="37.5069712" lon="-1.8369733"><ele>474.0</ele><time>2026-04-11T07:47:06.358Z</time></trkpt><trkpt lat="37.5066991" lon="-1.8372436"><ele>474.0</ele><time>2026-04-11T07:47:07.357Z</time></trkpt><trkpt lat="37.5064266" lon="-1.837513"><ele>474.0</ele><time>2026-04-11T07:47:08.358Z</time></trkpt><trkpt lat="37.5061574" lon="-1.8377843"><ele>472.5</ele><time>2026-04-11T07:47:09.358Z</time></trkpt><trkpt lat="37.5058877" lon="-1.838056"><ele>471.0</ele><time>2026-04-11T07:47:10.358Z</time></trkpt><trkpt lat="37.5056158" lon="-1.8383262"><ele>471.0</ele><time>2026-04-11T07:47:11.357Z</time></trkpt><trkpt lat="37.5053439" lon="-1.8385964"><ele>471.0</ele><time>2026-04-11T07:47:12.358Z</time></trkpt><trkpt lat="37.5050715" lon="-1.8388652"><ele>471.0</ele><time>2026-04-11T07:47:13.357Z</time></trkpt><trkpt lat="37.5048006" lon="-1.8391388"><ele>471.0</ele><time>2026-04-11T07:47:14.358Z</time></trkpt><trkpt lat="37.5045293" lon="-1.8394158"><ele>470.5</ele><time>2026-04-11T07:47:15.358Z</time></trkpt><trkpt lat="37.5042586" lon="-1.8396846"><ele>470.0</ele><time>2026-04-11T07:47:16.358Z</time></trkpt><trkpt lat="37.5039869" lon="-1.8399543"><ele>470.5</ele><time>2026-04-11T07:47:17.358Z</time></trkpt><trkpt lat="37.5037125" lon="-1.8402244"><ele>471.0</ele><time>2026-04-11T07:47:18.358Z</time></trkpt><trkpt lat="37.5034398" lon="-1.8404926"><ele>471.0</ele><time>2026-04-11T07:47:19.358Z</time></trkpt><trkpt lat="37.5031664" lon="-1.8407617"><ele>471.0</ele><time>2026-04-11T07:47:20.358Z</time></trkpt><trkpt lat="37.5028931" lon="-1.8410311"><ele>471.0</ele><time>2026-04-11T07:47:21.358Z</time></trkpt><trkpt lat="37.5026217" lon="-1.8413003"><ele>471.0</ele><time>2026-04-11T07:47:22.358Z</time></trkpt><trkpt lat="37.5023481" lon="-1.8415749"><ele>471.0</ele><time>2026-04-11T07:47:23.358Z</time></trkpt><trkpt lat="37.5020727" lon="-1.8418423"><ele>471.0</ele><time>2026-04-11T07:47:24.358Z</time></trkpt><trkpt lat="37.5018017" lon="-1.8421109"><ele>471.0</ele><time>2026-04-11T07:47:25.358Z</time></trkpt><trkpt lat="37.5015285" lon="-1.8423837"><ele>471.0</ele><time>2026-04-11T07:47:26.358Z</time></trkpt><trkpt lat="37.5012589" lon="-1.8426546"><ele>470.5</ele><time>2026-04-11T07:47:27.358Z</time></trkpt><trkpt lat="37.5009865" lon="-1.8429261"><ele>470.0</ele><time>2026-04-11T07:47:28.358Z</time></trkpt><trkpt lat="37.5007182" lon="-1.8431981"><ele>469.5</ele><time>2026-04-11T07:47:29.357Z</time></trkpt><trkpt lat="37.5004462" lon="-1.8434697"><ele>469.0</ele><time>2026-04-11T07:47:30.358Z</time></trkpt><trkpt lat="37.5001734" lon="-1.8437398"><ele>469.0</ele><time>2026-04-11T07:47:31.358Z</time></trkpt><trkpt lat="37.4999009" lon="-1.8440102"><ele>469.0</ele><time>2026-04-11T07:47:32.358Z</time></trkpt><trkpt lat="37.4996283" lon="-1.844281"><ele>470.0</ele><time>2026-04-11T07:47:33.358Z</time></trkpt><trkpt lat="37.4993561" lon="-1.8445511"><ele>471.0</ele><time>2026-04-11T07:47:34.357Z</time></trkpt><trkpt lat="37.4990864" lon="-1.8448231"><ele>471.0</ele><time>2026-04-11T07:47:35.358Z</time></trkpt><trkpt lat="37.4988141" lon="-1.8450921"><ele>471.0</ele><time>2026-04-11T07:47:36.358Z</time></trkpt><trkpt lat="37.4985428" lon="-1.8453647"><ele>470.0</ele><time>2026-04-11T07:47:37.357Z</time></trkpt><trkpt lat="37.4982712" lon="-1.8456362"><ele>469.0</ele><time>2026-04-11T07:47:38.357Z</time></trkpt><trkpt lat="37.4980006" lon="-1.8459081"><ele>469.5</ele><time>2026-04-11T07:47:39.357Z</time></trkpt><trkpt lat="37.4977295" lon="-1.8461762"><ele>470.0</ele><time>2026-04-11T07:47:40.358Z</time></trkpt><trkpt lat="37.4974589" lon="-1.8464497"><ele>470.0</ele><time>2026-04-11T07:47:41.358Z</time></trkpt><trkpt lat="37.4971869" lon="-1.84672"><ele>470.0</ele><time>2026-04-11T07:47:42.358Z</time></trkpt><trkpt lat="37.4969149" lon="-1.8469936"><ele>469.0</ele><time>2026-04-11T07:47:43.358Z</time></trkpt><trkpt lat="37.4966437" lon="-1.8472609"><ele>468.0</ele><time>2026-04-11T07:47:44.358Z</time></trkpt><trkpt lat="37.4963706" lon="-1.847531"><ele>468.0</ele><time>2026-04-11T07:47:45.358Z</time></trkpt><trkpt lat="37.4960939" lon="-1.8478013"><ele>468.0</ele><time>2026-04-11T07:47:46.358Z</time></trkpt><trkpt lat="37.495816" lon="-1.8480663"><ele>468.0</ele><time>2026-04-11T07:47:47.357Z</time></trkpt><trkpt lat="37.4955369" lon="-1.8483314"><ele>468.0</ele><time>2026-04-11T07:47:48.357Z</time></trkpt><trkpt lat="37.4952578" lon="-1.8485976"><ele>466.5</ele><time>2026-04-11T07:47:49.358Z</time></trkpt><trkpt lat="37.4949816" lon="-1.8488695"><ele>465.0</ele><time>2026-04-11T07:47:50.357Z</time></trkpt><trkpt lat="37.4947063" lon="-1.8491398"><ele>464.0</ele><time>2026-04-11T07:47:51.357Z</time></trkpt><trkpt lat="37.4944344" lon="-1.8494142"><ele>463.0</ele><time>2026-04-11T07:47:52.357Z</time></trkpt><trkpt lat="37.4941628" lon="-1.8496872"><ele>463.0</ele><time>2026-04-11T07:47:53.358Z</time></trkpt><trkpt lat="37.4938911" lon="-1.8499575"><ele>463.0</ele><time>2026-04-11T07:47:54.358Z</time></trkpt><trkpt lat="37.4936196" lon="-1.8502274"><ele>461.5</ele><time>2026-04-11T07:47:55.358Z</time></trkpt><trkpt lat="37.4933462" lon="-1.850493"><ele>460.0</ele><time>2026-04-11T07:47:56.358Z</time></trkpt><trkpt lat="37.4930718" lon="-1.8507633"><ele>459.0</ele><time>2026-04-11T07:47:57.358Z</time></trkpt><trkpt lat="37.4927994" lon="-1.8510343"><ele>458.0</ele><time>2026-04-11T07:47:58.357Z</time></trkpt><trkpt lat="37.4925274" lon="-1.8513034"><ele>458.0</ele><time>2026-04-11T07:47:59.358Z</time></trkpt><trkpt lat="37.492253" lon="-1.8515757"><ele>458.0</ele><time>2026-04-11T07:48:00.357Z</time></trkpt><trkpt lat="37.4919821" lon="-1.8518454"><ele>456.5</ele><time>2026-04-11T07:48:01.358Z</time></trkpt><trkpt lat="37.4917143" lon="-1.8521234"><ele>455.0</ele><time>2026-04-11T07:48:02.358Z</time></trkpt><trkpt lat="37.4914477" lon="-1.8523996"><ele>453.0</ele><time>2026-04-11T07:48:03.358Z</time></trkpt><trkpt lat="37.491183" lon="-1.8526786"><ele>451.0</ele><time>2026-04-11T07:48:04.358Z</time></trkpt><trkpt lat="37.4909185" lon="-1.8529581"><ele>451.0</ele><time>2026-04-11T07:48:05.358Z</time></trkpt><trkpt lat="37.4906547" lon="-1.8532398"><ele>451.0</ele><time>2026-04-11T07:48:06.358Z</time></trkpt><trkpt lat="37.4903953" lon="-1.8535298"><ele>451.0</ele><time>2026-04-11T07:48:07.357Z</time></trkpt><trkpt lat="37.490143" lon="-1.8538235"><ele>451.0</ele><time>2026-04-11T07:48:08.358Z</time></trkpt><trkpt lat="37.4898942" lon="-1.854126"><ele>450.5</ele><time>2026-04-11T07:48:09.358Z</time></trkpt><trkpt lat="37.4896494" lon="-1.8544268"><ele>450.0</ele><time>2026-04-11T07:48:10.358Z</time></trkpt><trkpt lat="37.4894052" lon="-1.8547346"><ele>449.0</ele><time>2026-04-11T07:48:11.358Z</time></trkpt><trkpt lat="37.4891631" lon="-1.8550436"><ele>448.0</ele><time>2026-04-11T07:48:12.358Z</time></trkpt><trkpt lat="37.488924" lon="-1.855359"><ele>447.5</ele><time>2026-04-11T07:48:13.358Z</time></trkpt><trkpt lat="37.4886904" lon="-1.8556747"><ele>447.0</ele><time>2026-04-11T07:48:14.358Z</time></trkpt><trkpt lat="37.4884619" lon="-1.8560006"><ele>447.0</ele><time>2026-04-11T07:48:15.358Z</time></trkpt><trkpt lat="37.4882359" lon="-1.856331"><ele>447.0</ele><time>2026-04-11T07:48:16.358Z</time></trkpt><trkpt lat="37.4880123" lon="-1.856667"><ele>445.5</ele><time>2026-04-11T07:48:17.358Z</time></trkpt><trkpt lat="37.4877934" lon="-1.857008"><ele>444.0</ele><time>2026-04-11T07:48:18.358Z</time></trkpt><trkpt lat="37.4875758" lon="-1.8573531"><ele>443.0</ele><time>2026-04-11T07:48:19.358Z</time></trkpt><trkpt lat="37.4873633" lon="-1.8577005"><ele>442.0</ele><time>2026-04-11T07:48:20.357Z</time></trkpt><trkpt lat="37.4871587" lon="-1.8580531"><ele>441.5</ele><time>2026-04-11T07:48:21.358Z</time></trkpt><trkpt lat="37.4869561" lon="-1.8584076"><ele>441.0</ele><time>2026-04-11T07:48:22.358Z</time></trkpt><trkpt lat="37.4867575" lon="-1.8587665"><ele>441.0</ele><time>2026-04-11T07:48:23.358Z</time></trkpt><trkpt lat="37.4865574" lon="-1.8591234"><ele>441.0</ele><time>2026-04-11T07:48:24.358Z</time></trkpt><trkpt lat="37.4863634" lon="-1.859482"><ele>439.0</ele><time>2026-04-11T07:48:25.358Z</time></trkpt><trkpt lat="37.4861699" lon="-1.859842"><ele>437.0</ele><time>2026-04-11T07:48:26.358Z</time></trkpt><trkpt lat="37.4859726" lon="-1.8601999"><ele>436.5</ele><time>2026-04-11T07:48:27.357Z</time></trkpt><trkpt lat="37.4857756" lon="-1.8605577"><ele>436.0</ele><time>2026-04-11T07:48:28.357Z</time></trkpt><trkpt lat="37.485579" lon="-1.8609164"><ele>435.0</ele><time>2026-04-11T07:48:29.358Z</time></trkpt><trkpt lat="37.4853814" lon="-1.8612743"><ele>434.0</ele><time>2026-04-11T07:48:30.358Z</time></trkpt><trkpt lat="37.4851848" lon="-1.8616323"><ele>434.5</ele><time>2026-04-11T07:48:31.358Z</time></trkpt><trkpt lat="37.4849891" lon="-1.8619938"><ele>435.0</ele><time>2026-04-11T07:48:32.358Z</time></trkpt><trkpt lat="37.4847983" lon="-1.8623576"><ele>435.5</ele><time>2026-04-11T07:48:33.358Z</time></trkpt><trkpt lat="37.484606" lon="-1.8627164"><ele>436.0</ele><time>2026-04-11T07:48:34.358Z</time></trkpt><trkpt lat="37.48441" lon="-1.8630771"><ele>436.0</ele><time>2026-04-11T07:48:35.358Z</time></trkpt><trkpt lat="37.4842138" lon="-1.8634356"><ele>436.0</ele><time>2026-04-11T07:48:36.358Z</time></trkpt><trkpt lat="37.4840211" lon="-1.8637968"><ele>436.0</ele><time>2026-04-11T07:48:37.358Z</time></trkpt><trkpt lat="37.4838258" lon="-1.8641574"><ele>436.0</ele><time>2026-04-11T07:48:38.357Z</time></trkpt><trkpt lat="37.4836332" lon="-1.8645167"><ele>436.0</ele><time>2026-04-11T07:48:39.357Z</time></trkpt><trkpt lat="37.483438" lon="-1.8648764"><ele>436.0</ele><time>2026-04-11T07:48:40.358Z</time></trkpt><trkpt lat="37.4832424" lon="-1.8652381"><ele>436.0</ele><time>2026-04-11T07:48:41.358Z</time></trkpt><trkpt lat="37.4830502" lon="-1.8656009"><ele>436.0</ele><time>2026-04-11T07:48:42.358Z</time></trkpt><trkpt lat="37.4828559" lon="-1.8659635"><ele>435.0</ele><time>2026-04-11T07:48:43.358Z</time></trkpt><trkpt lat="37.4826613" lon="-1.866325"><ele>434.0</ele><time>2026-04-11T07:48:44.358Z</time></trkpt><trkpt lat="37.4824641" lon="-1.8666815"><ele>434.5</ele><time>2026-04-11T07:48:45.358Z</time></trkpt><trkpt lat="37.4822652" lon="-1.8670355"><ele>435.0</ele><time>2026-04-11T07:48:46.358Z</time></trkpt><trkpt lat="37.4820655" lon="-1.8673862"><ele>432.5</ele><time>2026-04-11T07:48:47.358Z</time></trkpt><trkpt lat="37.4818581" lon="-1.8677346"><ele>430.0</ele><time>2026-04-11T07:48:48.358Z</time></trkpt><trkpt lat="37.481646" lon="-1.8680752"><ele>430.0</ele><time>2026-04-11T07:48:49.358Z</time></trkpt><trkpt lat="37.4814293" lon="-1.8684176"><ele>430.0</ele><time>2026-04-11T07:48:50.358Z</time></trkpt><trkpt lat="37.4812095" lon="-1.8687561"><ele>429.5</ele><time>2026-04-11T07:48:51.358Z</time></trkpt><trkpt lat="37.4809853" lon="-1.8690887"><ele>429.0</ele><time>2026-04-11T07:48:52.358Z</time></trkpt><trkpt lat="37.4807542" lon="-1.8694135"><ele>429.5</ele><time>2026-04-11T07:48:53.358Z</time></trkpt><trkpt lat="37.4805165" lon="-1.8697288"><ele>430.0</ele><time>2026-04-11T07:48:54.357Z</time></trkpt><trkpt lat="37.4802771" lon="-1.8700423"><ele>431.5</ele><time>2026-04-11T07:48:55.358Z</time></trkpt><trkpt lat="37.4800374" lon="-1.8703541"><ele>433.0</ele><time>2026-04-11T07:48:56.358Z</time></trkpt><trkpt lat="37.4797913" lon="-1.8706629"><ele>432.5</ele><time>2026-04-11T07:48:57.358Z</time></trkpt><trkpt lat="37.4795453" lon="-1.8709643"><ele>432.0</ele><time>2026-04-11T07:48:58.358Z</time></trkpt><trkpt lat="37.4792982" lon="-1.8712658"><ele>432.0</ele><time>2026-04-11T07:48:59.358Z</time></trkpt><trkpt lat="37.4790455" lon="-1.8715603"><ele>432.0</ele><time>2026-04-11T07:49:00.358Z</time></trkpt><trkpt lat="37.4787886" lon="-1.8718452"><ele>432.5</ele><time>2026-04-11T07:49:01.358Z</time></trkpt><trkpt lat="37.4785239" lon="-1.8721275"><ele>433.0</ele><time>2026-04-11T07:49:02.357Z</time></trkpt><trkpt lat="37.4782573" lon="-1.8724051"><ele>433.5</ele><time>2026-04-11T07:49:03.358Z</time></trkpt><trkpt lat="37.4779875" lon="-1.8726813"><ele>434.0</ele><time>2026-04-11T07:49:04.358Z</time></trkpt><trkpt lat="37.477715" lon="-1.8729513"><ele>434.5</ele><time>2026-04-11T07:49:05.358Z</time></trkpt><trkpt lat="37.4774389" lon="-1.873216"><ele>435.0</ele><time>2026-04-11T07:49:06.358Z</time></trkpt><trkpt lat="37.4771597" lon="-1.8734792"><ele>435.5</ele><time>2026-04-11T07:49:07.357Z</time></trkpt><trkpt lat="37.4768772" lon="-1.8737339"><ele>436.0</ele><time>2026-04-11T07:49:08.357Z</time></trkpt><trkpt lat="37.4765914" lon="-1.8739882"><ele>436.0</ele><time>2026-04-11T07:49:09.358Z</time></trkpt><trkpt lat="37.4763125" lon="-1.8742304"><ele>436.0</ele><time>2026-04-11T07:49:10.358Z</time></trkpt><trkpt lat="37.476043" lon="-1.8744592"><ele>435.0</ele><time>2026-04-11T07:49:11.358Z</time></trkpt><trkpt lat="37.475787" lon="-1.8746742"><ele>434.0</ele><time>2026-04-11T07:49:12.357Z</time></trkpt><trkpt lat="37.4755513" lon="-1.8748753"><ele>434.5</ele><time>2026-04-11T07:49:13.358Z</time></trkpt><trkpt lat="37.4753225" lon="-1.8750662"><ele>435.0</ele><time>2026-04-11T07:49:14.358Z</time></trkpt><trkpt lat="37.4750959" lon="-1.8752568"><ele>435.0</ele><time>2026-04-11T07:49:15.357Z</time></trkpt><trkpt lat="37.4748673" lon="-1.8754504"><ele>435.0</ele><time>2026-04-11T07:49:16.357Z</time></trkpt><trkpt lat="37.4746346" lon="-1.8756503"><ele>434.5</ele><time>2026-04-11T07:49:17.357Z</time></trkpt><trkpt lat="37.4744" lon="-1.8758513"><ele>434.0</ele><time>2026-04-11T07:49:18.358Z</time></trkpt><trkpt lat="37.4741618" lon="-1.8760545"><ele>434.0</ele><time>2026-04-11T07:49:19.358Z</time></trkpt><trkpt lat="37.4739214" lon="-1.8762667"><ele>434.0</ele><time>2026-04-11T07:49:20.358Z</time></trkpt><trkpt lat="37.4736783" lon="-1.8764886"><ele>434.5</ele><time>2026-04-11T07:49:21.357Z</time></trkpt><trkpt lat="37.4734295" lon="-1.8767099"><ele>435.0</ele><time>2026-04-11T07:49:22.357Z</time></trkpt><trkpt lat="37.4731757" lon="-1.8769285"><ele>434.0</ele><time>2026-04-11T07:49:23.357Z</time></trkpt><trkpt lat="37.4729203" lon="-1.8771429"><ele>433.0</ele><time>2026-04-11T07:49:24.358Z</time></trkpt><trkpt lat="37.4726628" lon="-1.8773584"><ele>433.0</ele><time>2026-04-11T07:49:25.357Z</time></trkpt><trkpt lat="37.4724035" lon="-1.8775801"><ele>433.0</ele><time>2026-04-11T07:49:26.358Z</time></trkpt><trkpt lat="37.4721407" lon="-1.877802"><ele>433.0</ele><time>2026-04-11T07:49:27.358Z</time></trkpt><trkpt lat="37.4718767" lon="-1.8780267"><ele>433.0</ele><time>2026-04-11T07:49:28.358Z</time></trkpt><trkpt lat="37.4716099" lon="-1.8782551"><ele>433.5</ele><time>2026-04-11T07:49:29.358Z</time></trkpt><trkpt lat="37.4713374" lon="-1.8784834"><ele>434.0</ele><time>2026-04-11T07:49:30.358Z</time></trkpt><trkpt lat="37.4710634" lon="-1.8787146"><ele>432.5</ele><time>2026-04-11T07:49:31.358Z</time></trkpt><trkpt lat="37.4707881" lon="-1.8789438"><ele>431.0</ele><time>2026-04-11T07:49:32.358Z</time></trkpt><trkpt lat="37.4705098" lon="-1.8791762"><ele>432.5</ele><time>2026-04-11T07:49:33.358Z</time></trkpt><trkpt lat="37.4702307" lon="-1.8794088"><ele>434.0</ele><time>2026-04-11T07:49:34.358Z</time></trkpt><trkpt lat="37.4699503" lon="-1.8796449"><ele>434.0</ele><time>2026-04-11T07:49:35.358Z</time></trkpt><trkpt lat="37.4696669" lon="-1.8798819"><ele>434.0</ele><time>2026-04-11T07:49:36.358Z</time></trkpt><trkpt lat="37.4693823" lon="-1.8801169"><ele>433.5</ele><time>2026-04-11T07:49:37.358Z</time></trkpt><trkpt lat="37.4690999" lon="-1.8803547"><ele>433.0</ele><time>2026-04-11T07:49:38.357Z</time></trkpt><trkpt lat="37.4688159" lon="-1.8805946"><ele>433.0</ele><time>2026-04-11T07:49:39.358Z</time></trkpt><trkpt lat="37.4685325" lon="-1.8808339"><ele>433.0</ele><time>2026-04-11T07:49:40.358Z</time></trkpt><trkpt lat="37.4682486" lon="-1.8810759"><ele>433.0</ele><time>2026-04-11T07:49:41.358Z</time></trkpt><trkpt lat="37.4679655" lon="-1.8813129"><ele>433.0</ele><time>2026-04-11T07:49:42.358Z</time></trkpt><trkpt lat="37.4676829" lon="-1.8815503"><ele>432.5</ele><time>2026-04-11T07:49:43.358Z</time></trkpt><trkpt lat="37.4673977" lon="-1.8817895"><ele>432.0</ele><time>2026-04-11T07:49:44.358Z</time></trkpt><trkpt lat="37.4671121" lon="-1.8820258"><ele>431.5</ele><time>2026-04-11T07:49:45.358Z</time></trkpt><trkpt lat="37.4668279" lon="-1.8822636"><ele>431.0</ele><time>2026-04-11T07:49:46.358Z</time></trkpt><trkpt lat="37.4665461" lon="-1.8824993"><ele>430.0</ele><time>2026-04-11T07:49:47.358Z</time></trkpt><trkpt lat="37.4662597" lon="-1.8827392"><ele>429.0</ele><time>2026-04-11T07:49:48.358Z</time></trkpt><trkpt lat="37.4659764" lon="-1.8829821"><ele>429.0</ele><time>2026-04-11T07:49:49.357Z</time></trkpt><trkpt lat="37.4656917" lon="-1.8832227"><ele>429.0</ele><time>2026-04-11T07:49:50.357Z</time></trkpt><trkpt lat="37.4654073" lon="-1.8834631"><ele>427.5</ele><time>2026-04-11T07:49:51.358Z</time></trkpt><trkpt lat="37.4651234" lon="-1.8837079"><ele>426.0</ele><time>2026-04-11T07:49:52.357Z</time></trkpt><trkpt lat="37.4648383" lon="-1.8839464"><ele>424.0</ele><time>2026-04-11T07:49:53.358Z</time></trkpt><trkpt lat="37.4645546" lon="-1.8841847"><ele>422.0</ele><time>2026-04-11T07:49:54.358Z</time></trkpt><trkpt lat="37.4642714" lon="-1.8844212"><ele>422.0</ele><time>2026-04-11T07:49:55.358Z</time></trkpt><trkpt lat="37.4639877" lon="-1.8846571"><ele>422.0</ele><time>2026-04-11T07:49:56.358Z</time></trkpt><trkpt lat="37.4637017" lon="-1.8848942"><ele>421.0</ele><time>2026-04-11T07:49:57.357Z</time></trkpt><trkpt lat="37.463415" lon="-1.885129"><ele>420.0</ele><time>2026-04-11T07:49:58.357Z</time></trkpt><trkpt lat="37.4631329" lon="-1.8853719"><ele>418.0</ele><time>2026-04-11T07:49:59.357Z</time></trkpt><trkpt lat="37.4628562" lon="-1.8856068"><ele>416.0</ele><time>2026-04-11T07:50:00.358Z</time></trkpt><trkpt lat="37.4625728" lon="-1.8858448"><ele>415.5</ele><time>2026-04-11T07:50:01.358Z</time></trkpt><trkpt lat="37.4622887" lon="-1.8860833"><ele>415.0</ele><time>2026-04-11T07:50:02.357Z</time></trkpt><trkpt lat="37.4620061" lon="-1.8863229"><ele>414.0</ele><time>2026-04-11T07:50:03.357Z</time></trkpt><trkpt lat="37.4617212" lon="-1.8865604"><ele>413.0</ele><time>2026-04-11T07:50:04.358Z</time></trkpt><trkpt lat="37.4614368" lon="-1.8867955"><ele>411.5</ele><time>2026-04-11T07:50:05.358Z</time></trkpt><trkpt lat="37.461154" lon="-1.8870345"><ele>410.0</ele><time>2026-04-11T07:50:06.358Z</time></trkpt><trkpt lat="37.4608712" lon="-1.8872726"><ele>410.0</ele><time>2026-04-11T07:50:07.357Z</time></trkpt><trkpt lat="37.4605844" lon="-1.8875107"><ele>410.0</ele><time>2026-04-11T07:50:08.358Z</time></trkpt><trkpt lat="37.4602988" lon="-1.8877501"><ele>409.0</ele><time>2026-04-11T07:50:09.357Z</time></trkpt><trkpt lat="37.4600134" lon="-1.8879912"><ele>408.0</ele><time>2026-04-11T07:50:10.358Z</time></trkpt><trkpt lat="37.4597312" lon="-1.8882276"><ele>407.5</ele><time>2026-04-11T07:50:11.358Z</time></trkpt><trkpt lat="37.459448" lon="-1.8884643"><ele>407.0</ele><time>2026-04-11T07:50:12.358Z</time></trkpt><trkpt lat="37.4591643" lon="-1.8887018"><ele>407.0</ele><time>2026-04-11T07:50:13.358Z</time></trkpt><trkpt lat="37.4588833" lon="-1.8889395"><ele>407.0</ele><time>2026-04-11T07:50:14.358Z</time></trkpt><trkpt lat="37.4586022" lon="-1.8891755"><ele>406.0</ele><time>2026-04-11T07:50:15.358Z</time></trkpt><trkpt lat="37.4583201" lon="-1.8894138"><ele>405.0</ele><time>2026-04-11T07:50:16.358Z</time></trkpt><trkpt lat="37.4580354" lon="-1.8896506"><ele>405.0</ele><time>2026-04-11T07:50:17.358Z</time></trkpt><trkpt lat="37.4577548" lon="-1.8898892"><ele>405.0</ele><time>2026-04-11T07:50:18.358Z</time></trkpt><trkpt lat="37.4574743" lon="-1.8901246"><ele>405.0</ele><time>2026-04-11T07:50:19.358Z</time></trkpt><trkpt lat="37.457194" lon="-1.8903628"><ele>405.0</ele><time>2026-04-11T07:50:20.357Z</time></trkpt><trkpt lat="37.4569124" lon="-1.8905985"><ele>404.0</ele><time>2026-04-11T07:50:21.358Z</time></trkpt><trkpt lat="37.4566319" lon="-1.8908321"><ele>403.0</ele><time>2026-04-11T07:50:22.358Z</time></trkpt><trkpt lat="37.4563465" lon="-1.8910756"><ele>402.5</ele><time>2026-04-11T07:50:23.358Z</time></trkpt><trkpt lat="37.4560612" lon="-1.8913166"><ele>402.0</ele><time>2026-04-11T07:50:24.357Z</time></trkpt><trkpt lat="37.4557772" lon="-1.8915545"><ele>401.0</ele><time>2026-04-11T07:50:25.358Z</time></trkpt><trkpt lat="37.455491" lon="-1.8917941"><ele>400.0</ele><time>2026-04-11T07:50:26.358Z</time></trkpt><trkpt lat="37.4552035" lon="-1.8920288"><ele>399.5</ele><time>2026-04-11T07:50:27.358Z</time></trkpt><trkpt lat="37.454916" lon="-1.8922677"><ele>399.0</ele><time>2026-04-11T07:50:28.358Z</time></trkpt><trkpt lat="37.4546315" lon="-1.8925068"><ele>397.0</ele><time>2026-04-11T07:50:29.358Z</time></trkpt><trkpt lat="37.4543467" lon="-1.8927471"><ele>395.0</ele><time>2026-04-11T07:50:30.357Z</time></trkpt><trkpt lat="37.4540643" lon="-1.8929881"><ele>394.0</ele><time>2026-04-11T07:50:31.358Z</time></trkpt><trkpt lat="37.4537797" lon="-1.8932311"><ele>393.0</ele><time>2026-04-11T07:50:32.357Z</time></trkpt><trkpt lat="37.4534954" lon="-1.8934659"><ele>393.0</ele><time>2026-04-11T07:50:33.358Z</time></trkpt><trkpt lat="37.4532089" lon="-1.8937057"><ele>393.0</ele><time>2026-04-11T07:50:34.358Z</time></trkpt><trkpt lat="37.4529204" lon="-1.8939432"><ele>391.5</ele><time>2026-04-11T07:50:35.358Z</time></trkpt><trkpt lat="37.4526318" lon="-1.8941713"><ele>390.0</ele><time>2026-04-11T07:50:36.358Z</time></trkpt><trkpt lat="37.4523434" lon="-1.8943966"><ele>388.5</ele><time>2026-04-11T07:50:37.358Z</time></trkpt><trkpt lat="37.4520552" lon="-1.8946285"><ele>387.0</ele><time>2026-04-11T07:50:38.358Z</time></trkpt><trkpt lat="37.4517674" lon="-1.8948615"><ele>386.5</ele><time>2026-04-11T07:50:39.358Z</time></trkpt><trkpt lat="37.4514812" lon="-1.8950968"><ele>386.0</ele><time>2026-04-11T07:50:40.358Z</time></trkpt><trkpt lat="37.4511966" lon="-1.8953363"><ele>384.0</ele><time>2026-04-11T07:50:41.358Z</time></trkpt><trkpt lat="37.4509121" lon="-1.8955765"><ele>382.0</ele><time>2026-04-11T07:50:42.358Z</time></trkpt><trkpt lat="37.4506265" lon="-1.8958136"><ele>381.0</ele><time>2026-04-11T07:50:43.358Z</time></trkpt><trkpt lat="37.4503412" lon="-1.8960506"><ele>380.0</ele><time>2026-04-11T07:50:44.358Z</time></trkpt><trkpt lat="37.4500601" lon="-1.8962866"><ele>380.0</ele><time>2026-04-11T07:50:45.358Z</time></trkpt><trkpt lat="37.4497783" lon="-1.8965219"><ele>380.0</ele><time>2026-04-11T07:50:46.357Z</time></trkpt><trkpt lat="37.4494978" lon="-1.8967669"><ele>379.5</ele><time>2026-04-11T07:50:47.358Z</time></trkpt><trkpt lat="37.449221" lon="-1.897012"><ele>379.0</ele><time>2026-04-11T07:50:48.358Z</time></trkpt><trkpt lat="37.448943" lon="-1.8972602"><ele>378.0</ele><time>2026-04-11T07:50:49.358Z</time></trkpt><trkpt lat="37.4486637" lon="-1.8975024"><ele>377.0</ele><time>2026-04-11T07:50:50.358Z</time></trkpt><trkpt lat="37.448383" lon="-1.8977413"><ele>377.0</ele><time>2026-04-11T07:50:51.358Z</time></trkpt><trkpt lat="37.4481027" lon="-1.8979839"><ele>377.0</ele><time>2026-04-11T07:50:52.357Z</time></trkpt><trkpt lat="37.4478211" lon="-1.8982226"><ele>376.5</ele><time>2026-04-11T07:50:53.358Z</time></trkpt><trkpt lat="37.4475394" lon="-1.898465"><ele>376.0</ele><time>2026-04-11T07:50:54.358Z</time></trkpt><trkpt lat="37.4472569" lon="-1.8987023"><ele>374.5</ele><time>2026-04-11T07:50:55.358Z</time></trkpt><trkpt lat="37.446973" lon="-1.8989425"><ele>373.0</ele><time>2026-04-11T07:50:56.358Z</time></trkpt><trkpt lat="37.4466832" lon="-1.8991769"><ele>372.5</ele><time>2026-04-11T07:50:57.358Z</time></trkpt><trkpt lat="37.4463959" lon="-1.8994054"><ele>372.0</ele><time>2026-04-11T07:50:58.357Z</time></trkpt><trkpt lat="37.4461062" lon="-1.8996336"><ele>372.0</ele><time>2026-04-11T07:50:59.357Z</time></trkpt><trkpt lat="37.4458248" lon="-1.8998602"><ele>372.0</ele><time>2026-04-11T07:51:00.358Z</time></trkpt><trkpt lat="37.4455443" lon="-1.9000945"><ele>371.5</ele><time>2026-04-11T07:51:01.358Z</time></trkpt><trkpt lat="37.4452616" lon="-1.9003283"><ele>371.0</ele><time>2026-04-11T07:51:02.358Z</time></trkpt><trkpt lat="37.4449763" lon="-1.9005648"><ele>371.0</ele><time>2026-04-11T07:51:03.358Z</time></trkpt><trkpt lat="37.4446964" lon="-1.900804"><ele>371.0</ele><time>2026-04-11T07:51:04.358Z</time></trkpt><trkpt lat="37.4444164" lon="-1.9010466"><ele>371.5</ele><time>2026-04-11T07:51:05.358Z</time></trkpt><trkpt lat="37.4441371" lon="-1.9012864"><ele>372.0</ele><time>2026-04-11T07:51:06.357Z</time></trkpt><trkpt lat="37.4438582" lon="-1.9015292"><ele>370.5</ele><time>2026-04-11T07:51:07.357Z</time></trkpt><trkpt lat="37.4435761" lon="-1.9017743"><ele>369.0</ele><time>2026-04-11T07:51:08.358Z</time></trkpt><trkpt lat="37.4432977" lon="-1.90202"><ele>369.0</ele><time>2026-04-11T07:51:09.358Z</time></trkpt><trkpt lat="37.4430155" lon="-1.9022612"><ele>369.0</ele><time>2026-04-11T07:51:10.357Z</time></trkpt><trkpt lat="37.4427328" lon="-1.9025022"><ele>367.5</ele><time>2026-04-11T07:51:11.357Z</time></trkpt><trkpt lat="37.4424495" lon="-1.9027389"><ele>366.0</ele><time>2026-04-11T07:51:12.358Z</time></trkpt><trkpt lat="37.4421652" lon="-1.9029753"><ele>366.0</ele><time>2026-04-11T07:51:13.358Z</time></trkpt><trkpt lat="37.4418852" lon="-1.9032162"><ele>366.0</ele><time>2026-04-11T07:51:14.358Z</time></trkpt><trkpt lat="37.4416019" lon="-1.9034546"><ele>366.0</ele><time>2026-04-11T07:51:15.358Z</time></trkpt><trkpt lat="37.4413207" lon="-1.9036926"><ele>366.0</ele><time>2026-04-11T07:51:16.358Z</time></trkpt><trkpt lat="37.4410374" lon="-1.9039299"><ele>365.0</ele><time>2026-04-11T07:51:17.358Z</time></trkpt><trkpt lat="37.4407538" lon="-1.9041732"><ele>364.0</ele><time>2026-04-11T07:51:18.358Z</time></trkpt><trkpt lat="37.4404696" lon="-1.9044175"><ele>363.0</ele><time>2026-04-11T07:51:19.358Z</time></trkpt><trkpt lat="37.4401882" lon="-1.9046599"><ele>362.0</ele><time>2026-04-11T07:51:20.358Z</time></trkpt><trkpt lat="37.4399136" lon="-1.9048905"><ele>361.0</ele><time>2026-04-11T07:51:21.358Z</time></trkpt><trkpt lat="37.4396321" lon="-1.905134"><ele>360.0</ele><time>2026-04-11T07:51:22.357Z</time></trkpt><trkpt lat="37.4393536" lon="-1.9053881"><ele>360.0</ele><time>2026-04-11T07:51:23.358Z</time></trkpt><trkpt lat="37.4390833" lon="-1.9056488"><ele>360.0</ele><time>2026-04-11T07:51:24.357Z</time></trkpt><trkpt lat="37.4388206" lon="-1.9059232"><ele>359.0</ele><time>2026-04-11T07:51:25.358Z</time></trkpt><trkpt lat="37.4385677" lon="-1.9062033"><ele>358.0</ele><time>2026-04-11T07:51:26.358Z</time></trkpt><trkpt lat="37.438321" lon="-1.9064961"><ele>358.5</ele><time>2026-04-11T07:51:27.358Z</time></trkpt><trkpt lat="37.4380749" lon="-1.906791"><ele>359.0</ele><time>2026-04-11T07:51:28.358Z</time></trkpt><trkpt lat="37.4378329" lon="-1.9070929"><ele>359.0</ele><time>2026-04-11T07:51:29.358Z</time></trkpt><trkpt lat="37.4376006" lon="-1.9074011"><ele>359.0</ele><time>2026-04-11T07:51:30.358Z</time></trkpt><trkpt lat="37.4373744" lon="-1.9077229"><ele>359.0</ele><time>2026-04-11T07:51:31.358Z</time></trkpt><trkpt lat="37.4371508" lon="-1.9080515"><ele>359.0</ele><time>2026-04-11T07:51:32.358Z</time></trkpt><trkpt lat="37.4369342" lon="-1.908383"><ele>359.5</ele><time>2026-04-11T07:51:33.358Z</time></trkpt><trkpt lat="37.4367263" lon="-1.9087176"><ele>360.0</ele><time>2026-04-11T07:51:34.358Z</time></trkpt><trkpt lat="37.4365252" lon="-1.9090619"><ele>360.0</ele><time>2026-04-11T07:51:35.358Z</time></trkpt><trkpt lat="37.4363294" lon="-1.9094132"><ele>360.0</ele><time>2026-04-11T07:51:36.358Z</time></trkpt><trkpt lat="37.4361451" lon="-1.9097705"><ele>358.0</ele><time>2026-04-11T07:51:37.358Z</time></trkpt><trkpt lat="37.4359618" lon="-1.9101295"><ele>356.0</ele><time>2026-04-11T07:51:38.357Z</time></trkpt><trkpt lat="37.4357814" lon="-1.9104905"><ele>356.0</ele><time>2026-04-11T07:51:39.358Z</time></trkpt><trkpt lat="37.4356052" lon="-1.9108505"><ele>356.0</ele><time>2026-04-11T07:51:40.358Z</time></trkpt><trkpt lat="37.4354247" lon="-1.9112163"><ele>356.0</ele><time>2026-04-11T07:51:41.358Z</time></trkpt><trkpt lat="37.4352431" lon="-1.9115761"><ele>356.0</ele><time>2026-04-11T07:51:42.357Z</time></trkpt><trkpt lat="37.4350588" lon="-1.9119351"><ele>356.0</ele><time>2026-04-11T07:51:43.358Z</time></trkpt><trkpt lat="37.4348733" lon="-1.9122896"><ele>356.0</ele><time>2026-04-11T07:51:44.358Z</time></trkpt><trkpt lat="37.4346876" lon="-1.9126437"><ele>354.0</ele><time>2026-04-11T07:51:45.358Z</time></trkpt><trkpt lat="37.4345029" lon="-1.9130003"><ele>352.0</ele><time>2026-04-11T07:51:46.358Z</time></trkpt><trkpt lat="37.4343121" lon="-1.9133587"><ele>354.0</ele><time>2026-04-11T07:51:47.358Z</time></trkpt><trkpt lat="37.4341198" lon="-1.9137133"><ele>356.0</ele><time>2026-04-11T07:51:48.358Z</time></trkpt><trkpt lat="37.4339245" lon="-1.9140641"><ele>354.5</ele><time>2026-04-11T07:51:49.358Z</time></trkpt><trkpt lat="37.4337261" lon="-1.9144118"><ele>353.0</ele><time>2026-04-11T07:51:50.358Z</time></trkpt><trkpt lat="37.4335286" lon="-1.9147593"><ele>353.0</ele><time>2026-04-11T07:51:51.358Z</time></trkpt><trkpt lat="37.4333271" lon="-1.9151053"><ele>353.0</ele><time>2026-04-11T07:51:52.357Z</time></trkpt><trkpt lat="37.4331257" lon="-1.9154472"><ele>352.0</ele><time>2026-04-11T07:51:53.358Z</time></trkpt><trkpt lat="37.4329235" lon="-1.9157934"><ele>351.0</ele><time>2026-04-11T07:51:54.358Z</time></trkpt><trkpt lat="37.4327174" lon="-1.9161355"><ele>351.0</ele><time>2026-04-11T07:51:55.358Z</time></trkpt><trkpt lat="37.4325126" lon="-1.9164748"><ele>351.0</ele><time>2026-04-11T07:51:56.358Z</time></trkpt><trkpt lat="37.4323118" lon="-1.9168062"><ele>351.0</ele><time>2026-04-11T07:51:57.358Z</time></trkpt><trkpt lat="37.432115" lon="-1.9171269"><ele>351.0</ele><time>2026-04-11T07:51:58.358Z</time></trkpt><trkpt lat="37.4319214" lon="-1.9174343"><ele>351.0</ele><time>2026-04-11T07:51:59.358Z</time></trkpt><trkpt lat="37.4317339" lon="-1.9177338"><ele>351.0</ele><time>2026-04-11T07:52:00.357Z</time></trkpt><trkpt lat="37.4315473" lon="-1.9180252"><ele>351.0</ele><time>2026-04-11T07:52:01.357Z</time></trkpt><trkpt lat="37.4313624" lon="-1.9183124"><ele>351.0</ele><time>2026-04-11T07:52:02.358Z</time></trkpt><trkpt lat="37.4311796" lon="-1.918591"><ele>350.0</ele><time>2026-04-11T07:52:03.358Z</time></trkpt><trkpt lat="37.4309992" lon="-1.918864"><ele>349.0</ele><time>2026-04-11T07:52:04.358Z</time></trkpt><trkpt lat="37.4308224" lon="-1.9191311"><ele>349.5</ele><time>2026-04-11T07:52:05.358Z</time></trkpt><trkpt lat="37.430646" lon="-1.9193938"><ele>350.0</ele><time>2026-04-11T07:52:06.358Z</time></trkpt><trkpt lat="37.4304689" lon="-1.9196541"><ele>349.0</ele><time>2026-04-11T07:52:07.357Z</time></trkpt><trkpt lat="37.4302905" lon="-1.9199181"><ele>348.0</ele><time>2026-04-11T07:52:08.358Z</time></trkpt><trkpt lat="37.4301105" lon="-1.9201778"><ele>348.0</ele><time>2026-04-11T07:52:09.358Z</time></trkpt><trkpt lat="37.4299255" lon="-1.9204332"><ele>348.0</ele><time>2026-04-11T07:52:10.358Z</time></trkpt><trkpt lat="37.4297387" lon="-1.9206906"><ele>347.0</ele><time>2026-04-11T07:52:11.357Z</time></trkpt><trkpt lat="37.4294963" lon="-1.9210224"><ele>346.0</ele><time>2026-04-11T07:52:13.18Z</time></trkpt><trkpt lat="37.4291767" lon="-1.921457"><ele>346.0</ele><time>2026-04-11T07:52:14.349Z</time></trkpt><trkpt lat="37.4289871" lon="-1.9217115"><ele>346.0</ele><time>2026-04-11T07:52:15.36Z</time></trkpt><trkpt lat="37.4287974" lon="-1.9219654"><ele>345.5</ele><time>2026-04-11T07:52:16.351Z</time></trkpt><trkpt lat="37.4286042" lon="-1.9222178"><ele>345.0</ele><time>2026-04-11T07:52:17.35Z</time></trkpt><trkpt lat="37.4284082" lon="-1.92247"><ele>345.0</ele><time>2026-04-11T07:52:18.367Z</time></trkpt><trkpt lat="37.4282156" lon="-1.9227259"><ele>345.0</ele><time>2026-04-11T07:52:19.367Z</time></trkpt><trkpt lat="37.4280237" lon="-1.9229795"><ele>344.5</ele><time>2026-04-11T07:52:20.367Z</time></trkpt><trkpt lat="37.4278322" lon="-1.9232338"><ele>344.0</ele><time>2026-04-11T07:52:21.367Z</time></trkpt><trkpt lat="37.4275843" lon="-1.9235696"><ele>344.0</ele><time>2026-04-11T07:52:23.181Z</time></trkpt><trkpt lat="37.4272712" lon="-1.9239966"><ele>343.0</ele><time>2026-04-11T07:52:24.357Z</time></trkpt><trkpt lat="37.4270858" lon="-1.9242584"><ele>342.0</ele><time>2026-04-11T07:52:25.35Z</time></trkpt><trkpt lat="37.4269015" lon="-1.924522"><ele>342.0</ele><time>2026-04-11T07:52:26.359Z</time></trkpt><trkpt lat="37.4267218" lon="-1.9247852"><ele>342.0</ele><time>2026-04-11T07:52:27.357Z</time></trkpt><trkpt lat="37.4265393" lon="-1.9250531"><ele>341.5</ele><time>2026-04-11T07:52:28.361Z</time></trkpt><trkpt lat="37.4263585" lon="-1.9253244"><ele>341.0</ele><time>2026-04-11T07:52:29.361Z</time></trkpt><trkpt lat="37.4261798" lon="-1.9255885"><ele>340.5</ele><time>2026-04-11T07:52:30.361Z</time></trkpt><trkpt lat="37.4260031" lon="-1.9258549"><ele>340.0</ele><time>2026-04-11T07:52:31.361Z</time></trkpt><trkpt lat="37.4258318" lon="-1.9261269"><ele>340.0</ele><time>2026-04-11T07:52:32.361Z</time></trkpt><trkpt lat="37.4256599" lon="-1.9264022"><ele>340.0</ele><time>2026-04-11T07:52:33.361Z</time></trkpt><trkpt lat="37.4254912" lon="-1.9266779"><ele>339.0</ele><time>2026-04-11T07:52:34.361Z</time></trkpt><trkpt lat="37.4253241" lon="-1.9269559"><ele>338.0</ele><time>2026-04-11T07:52:35.361Z</time></trkpt><trkpt lat="37.4251592" lon="-1.9272356"><ele>338.0</ele><time>2026-04-11T07:52:36.361Z</time></trkpt><trkpt lat="37.42499" lon="-1.9275149"><ele>338.0</ele><time>2026-04-11T07:52:37.36Z</time></trkpt><trkpt lat="37.4248267" lon="-1.9277955"><ele>337.5</ele><time>2026-04-11T07:52:38.361Z</time></trkpt><trkpt lat="37.4246648" lon="-1.9280784"><ele>337.0</ele><time>2026-04-11T07:52:39.361Z</time></trkpt><trkpt lat="37.4245044" lon="-1.9283597"><ele>337.0</ele><time>2026-04-11T07:52:40.361Z</time></trkpt><trkpt lat="37.4243463" lon="-1.9286473"><ele>337.0</ele><time>2026-04-11T07:52:41.361Z</time></trkpt><trkpt lat="37.4241875" lon="-1.9289372"><ele>336.5</ele><time>2026-04-11T07:52:42.361Z</time></trkpt><trkpt lat="37.4240325" lon="-1.9292302"><ele>336.0</ele><time>2026-04-11T07:52:43.361Z</time></trkpt><trkpt lat="37.4238807" lon="-1.9295223"><ele>335.0</ele><time>2026-04-11T07:52:44.36Z</time></trkpt><trkpt lat="37.42373" lon="-1.929816"><ele>334.0</ele><time>2026-04-11T07:52:45.361Z</time></trkpt><trkpt lat="37.4235818" lon="-1.9301118"><ele>334.0</ele><time>2026-04-11T07:52:46.361Z</time></trkpt><trkpt lat="37.4234359" lon="-1.930407"><ele>334.0</ele><time>2026-04-11T07:52:47.361Z</time></trkpt><trkpt lat="37.4232936" lon="-1.9307007"><ele>334.0</ele><time>2026-04-11T07:52:48.361Z</time></trkpt><trkpt lat="37.4231501" lon="-1.9309994"><ele>334.0</ele><time>2026-04-11T07:52:49.361Z</time></trkpt><trkpt lat="37.423011" lon="-1.9313004"><ele>333.5</ele><time>2026-04-11T07:52:50.361Z</time></trkpt><trkpt lat="37.4228711" lon="-1.9316057"><ele>333.0</ele><time>2026-04-11T07:52:51.361Z</time></trkpt><trkpt lat="37.4227329" lon="-1.9319132"><ele>333.0</ele><time>2026-04-11T07:52:52.361Z</time></trkpt><trkpt lat="37.4225973" lon="-1.932221"><ele>333.0</ele><time>2026-04-11T07:52:53.361Z</time></trkpt><trkpt lat="37.4224652" lon="-1.9325286"><ele>332.5</ele><time>2026-04-11T07:52:54.361Z</time></trkpt><trkpt lat="37.4223344" lon="-1.9328386"><ele>332.0</ele><time>2026-04-11T07:52:55.361Z</time></trkpt><trkpt lat="37.4222056" lon="-1.9331484"><ele>330.5</ele><time>2026-04-11T07:52:56.361Z</time></trkpt><trkpt lat="37.4220779" lon="-1.9334586"><ele>329.0</ele><time>2026-04-11T07:52:57.36Z</time></trkpt><trkpt lat="37.4219532" lon="-1.9337673"><ele>329.0</ele><time>2026-04-11T07:52:58.36Z</time></trkpt><trkpt lat="37.421832" lon="-1.9340802"><ele>329.0</ele><time>2026-04-11T07:52:59.361Z</time></trkpt><trkpt lat="37.4217109" lon="-1.9343912"><ele>329.0</ele><time>2026-04-11T07:53:00.361Z</time></trkpt><trkpt lat="37.4215922" lon="-1.9347046"><ele>329.0</ele><time>2026-04-11T07:53:01.361Z</time></trkpt><trkpt lat="37.4214742" lon="-1.9350165"><ele>329.0</ele><time>2026-04-11T07:53:02.361Z</time></trkpt><trkpt lat="37.4213498" lon="-1.9353332"><ele>329.0</ele><time>2026-04-11T07:53:03.361Z</time></trkpt><trkpt lat="37.4212271" lon="-1.9356575"><ele>327.0</ele><time>2026-04-11T07:53:04.361Z</time></trkpt><trkpt lat="37.4211044" lon="-1.9359831"><ele>325.0</ele><time>2026-04-11T07:53:05.36Z</time></trkpt><trkpt lat="37.4209779" lon="-1.9363032"><ele>325.0</ele><time>2026-04-11T07:53:06.361Z</time></trkpt><trkpt lat="37.4208492" lon="-1.9366242"><ele>325.0</ele><time>2026-04-11T07:53:07.361Z</time></trkpt><trkpt lat="37.4207179" lon="-1.9369458"><ele>324.5</ele><time>2026-04-11T07:53:08.361Z</time></trkpt><trkpt lat="37.4205818" lon="-1.9372739"><ele>324.0</ele><time>2026-04-11T07:53:09.361Z</time></trkpt><trkpt lat="37.420439" lon="-1.9376044"><ele>323.5</ele><time>2026-04-11T07:53:10.36Z</time></trkpt><trkpt lat="37.4202914" lon="-1.937934"><ele>323.0</ele><time>2026-04-11T07:53:11.361Z</time></trkpt><trkpt lat="37.4201446" lon="-1.9382659"><ele>322.5</ele><time>2026-04-11T07:53:12.361Z</time></trkpt><trkpt lat="37.4199927" lon="-1.938607"><ele>322.0</ele><time>2026-04-11T07:53:13.361Z</time></trkpt><trkpt lat="37.4198337" lon="-1.9389445"><ele>322.5</ele><time>2026-04-11T07:53:14.361Z</time></trkpt><trkpt lat="37.4196738" lon="-1.9392784"><ele>323.0</ele><time>2026-04-11T07:53:15.361Z</time></trkpt><trkpt lat="37.4195101" lon="-1.9396125"><ele>323.0</ele><time>2026-04-11T07:53:16.361Z</time></trkpt><trkpt lat="37.4193412" lon="-1.9399506"><ele>323.0</ele><time>2026-04-11T07:53:17.361Z</time></trkpt><trkpt lat="37.4191696" lon="-1.9402837"><ele>325.0</ele><time>2026-04-11T07:53:18.361Z</time></trkpt><trkpt lat="37.4189965" lon="-1.9406206"><ele>327.0</ele><time>2026-04-11T07:53:19.361Z</time></trkpt><trkpt lat="37.4188242" lon="-1.9409549"><ele>327.5</ele><time>2026-04-11T07:53:20.361Z</time></trkpt><trkpt lat="37.4186491" lon="-1.9412836"><ele>328.0</ele><time>2026-04-11T07:53:21.361Z</time></trkpt><trkpt lat="37.4184696" lon="-1.9416155"><ele>332.0</ele><time>2026-04-11T07:53:22.361Z</time></trkpt><trkpt lat="37.418285" lon="-1.9419443"><ele>336.0</ele><time>2026-04-11T07:53:23.361Z</time></trkpt><trkpt lat="37.4180966" lon="-1.9422723"><ele>333.0</ele><time>2026-04-11T07:53:24.36Z</time></trkpt><trkpt lat="37.4179088" lon="-1.9425998"><ele>330.0</ele><time>2026-04-11T07:53:25.36Z</time></trkpt><trkpt lat="37.4177177" lon="-1.9429236"><ele>330.0</ele><time>2026-04-11T07:53:26.361Z</time></trkpt><trkpt lat="37.4175222" lon="-1.9432455"><ele>330.0</ele><time>2026-04-11T07:53:27.361Z</time></trkpt><trkpt lat="37.4173284" lon="-1.9435675"><ele>326.0</ele><time>2026-04-11T07:53:28.361Z</time></trkpt><trkpt lat="37.4171297" lon="-1.9438838"><ele>322.0</ele><time>2026-04-11T07:53:29.361Z</time></trkpt><trkpt lat="37.4169305" lon="-1.9441983"><ele>318.0</ele><time>2026-04-11T07:53:30.361Z</time></trkpt><trkpt lat="37.4167308" lon="-1.9445044"><ele>314.0</ele><time>2026-04-11T07:53:31.361Z</time></trkpt><trkpt lat="37.416525" lon="-1.9448179"><ele>314.0</ele><time>2026-04-11T07:53:32.361Z</time></trkpt><trkpt lat="37.416315" lon="-1.9451274"><ele>314.0</ele><time>2026-04-11T07:53:33.361Z</time></trkpt><trkpt lat="37.4161058" lon="-1.9454402"><ele>314.0</ele><time>2026-04-11T07:53:34.361Z</time></trkpt><trkpt lat="37.4158937" lon="-1.9457483"><ele>314.0</ele><time>2026-04-11T07:53:35.361Z</time></trkpt><trkpt lat="37.415681" lon="-1.9460525"><ele>311.5</ele><time>2026-04-11T07:53:36.361Z</time></trkpt><trkpt lat="37.415468" lon="-1.9463565"><ele>309.0</ele><time>2026-04-11T07:53:37.361Z</time></trkpt><trkpt lat="37.4152502" lon="-1.9466572"><ele>307.0</ele><time>2026-04-11T07:53:38.361Z</time></trkpt><trkpt lat="37.4150307" lon="-1.9469537"><ele>305.0</ele><time>2026-04-11T07:53:39.361Z</time></trkpt><trkpt lat="37.414809" lon="-1.947246"><ele>305.0</ele><time>2026-04-11T07:53:40.361Z</time></trkpt><trkpt lat="37.4145873" lon="-1.9475424"><ele>305.0</ele><time>2026-04-11T07:53:41.361Z</time></trkpt><trkpt lat="37.4143611" lon="-1.9478311"><ele>305.0</ele><time>2026-04-11T07:53:42.361Z</time></trkpt><trkpt lat="37.4141312" lon="-1.9481155"><ele>305.0</ele><time>2026-04-11T07:53:43.361Z</time></trkpt><trkpt lat="37.4139044" lon="-1.9483999"><ele>305.0</ele><time>2026-04-11T07:53:44.361Z</time></trkpt><trkpt lat="37.4136779" lon="-1.9486858"><ele>305.0</ele><time>2026-04-11T07:53:45.361Z</time></trkpt><trkpt lat="37.4134588" lon="-1.9489747"><ele>305.5</ele><time>2026-04-11T07:53:46.361Z</time></trkpt><trkpt lat="37.4132421" lon="-1.9492676"><ele>306.0</ele><time>2026-04-11T07:53:47.361Z</time></trkpt><trkpt lat="37.4130295" lon="-1.9495594"><ele>308.5</ele><time>2026-04-11T07:53:48.361Z</time></trkpt><trkpt lat="37.4128197" lon="-1.949861"><ele>311.0</ele><time>2026-04-11T07:53:49.361Z</time></trkpt><trkpt lat="37.4126112" lon="-1.9501663"><ele>312.0</ele><time>2026-04-11T07:53:50.361Z</time></trkpt><trkpt lat="37.4124081" lon="-1.9504744"><ele>313.0</ele><time>2026-04-11T07:53:51.361Z</time></trkpt><trkpt lat="37.4122055" lon="-1.9507892"><ele>311.5</ele><time>2026-04-11T07:53:52.361Z</time></trkpt><trkpt lat="37.412007" lon="-1.9511006"><ele>310.0</ele><time>2026-04-11T07:53:53.361Z</time></trkpt><trkpt lat="37.4118149" lon="-1.9514165"><ele>310.5</ele><time>2026-04-11T07:53:54.361Z</time></trkpt><trkpt lat="37.4116251" lon="-1.9517383"><ele>311.0</ele><time>2026-04-11T07:53:55.361Z</time></trkpt><trkpt lat="37.4114421" lon="-1.9520654"><ele>310.5</ele><time>2026-04-11T07:53:56.361Z</time></trkpt><trkpt lat="37.4112623" lon="-1.9523999"><ele>310.0</ele><time>2026-04-11T07:53:57.361Z</time></trkpt><trkpt lat="37.4110849" lon="-1.9527303"><ele>311.0</ele><time>2026-04-11T07:53:58.36Z</time></trkpt><trkpt lat="37.4109102" lon="-1.9530669"><ele>312.0</ele><time>2026-04-11T07:53:59.361Z</time></trkpt><trkpt lat="37.4107402" lon="-1.9533949"><ele>312.0</ele><time>2026-04-11T07:54:00.361Z</time></trkpt><trkpt lat="37.4105686" lon="-1.9537363"><ele>312.0</ele><time>2026-04-11T07:54:01.361Z</time></trkpt><trkpt lat="37.4104027" lon="-1.9540742"><ele>313.5</ele><time>2026-04-11T07:54:02.361Z</time></trkpt><trkpt lat="37.4102318" lon="-1.9544188"><ele>315.0</ele><time>2026-04-11T07:54:03.361Z</time></trkpt><trkpt lat="37.4100603" lon="-1.9547531"><ele>315.5</ele><time>2026-04-11T07:54:04.361Z</time></trkpt><trkpt lat="37.4098853" lon="-1.9550949"><ele>316.0</ele><time>2026-04-11T07:54:05.36Z</time></trkpt><trkpt lat="37.4097038" lon="-1.9554271"><ele>316.5</ele><time>2026-04-11T07:54:06.36Z</time></trkpt><trkpt lat="37.4095192" lon="-1.9557558"><ele>317.0</ele><time>2026-04-11T07:54:07.36Z</time></trkpt><trkpt lat="37.4093297" lon="-1.956079"><ele>317.0</ele><time>2026-04-11T07:54:08.361Z</time></trkpt><trkpt lat="37.4091428" lon="-1.9563947"><ele>317.0</ele><time>2026-04-11T07:54:09.361Z</time></trkpt><trkpt lat="37.4089419" lon="-1.9567126"><ele>317.5</ele><time>2026-04-11T07:54:10.361Z</time></trkpt><trkpt lat="37.408738" lon="-1.9570256"><ele>318.0</ele><time>2026-04-11T07:54:11.361Z</time></trkpt><trkpt lat="37.4085306" lon="-1.9573343"><ele>319.5</ele><time>2026-04-11T07:54:12.361Z</time></trkpt><trkpt lat="37.4083178" lon="-1.9576391"><ele>321.0</ele><time>2026-04-11T07:54:13.361Z</time></trkpt><trkpt lat="37.4081002" lon="-1.9579402"><ele>321.0</ele><time>2026-04-11T07:54:14.361Z</time></trkpt><trkpt lat="37.4078755" lon="-1.9582302"><ele>321.0</ele><time>2026-04-11T07:54:15.36Z</time></trkpt><trkpt lat="37.4076442" lon="-1.9585172"><ele>321.0</ele><time>2026-04-11T07:54:16.361Z</time></trkpt><trkpt lat="37.4074114" lon="-1.9587962"><ele>321.0</ele><time>2026-04-11T07:54:17.361Z</time></trkpt><trkpt lat="37.407174" lon="-1.9590718"><ele>319.0</ele><time>2026-04-11T07:54:18.361Z</time></trkpt><trkpt lat="37.4069355" lon="-1.9593448"><ele>317.0</ele><time>2026-04-11T07:54:19.36Z</time></trkpt><trkpt lat="37.4066893" lon="-1.9596085"><ele>317.0</ele><time>2026-04-11T07:54:20.361Z</time></trkpt><trkpt lat="37.4064408" lon="-1.959865"><ele>317.0</ele><time>2026-04-11T07:54:21.361Z</time></trkpt><trkpt lat="37.4061869" lon="-1.9601135"><ele>315.0</ele><time>2026-04-11T07:54:22.361Z</time></trkpt><trkpt lat="37.4059306" lon="-1.9603593"><ele>313.0</ele><time>2026-04-11T07:54:23.361Z</time></trkpt><trkpt lat="37.4056708" lon="-1.9605989"><ele>312.5</ele><time>2026-04-11T07:54:24.361Z</time></trkpt><trkpt lat="37.4054069" lon="-1.960834"><ele>312.0</ele><time>2026-04-11T07:54:25.361Z</time></trkpt><trkpt lat="37.4051379" lon="-1.9610625"><ele>310.5</ele><time>2026-04-11T07:54:26.361Z</time></trkpt><trkpt lat="37.404865" lon="-1.9612793"><ele>309.0</ele><time>2026-04-11T07:54:27.36Z</time></trkpt><trkpt lat="37.4045921" lon="-1.9614871"><ele>307.5</ele><time>2026-04-11T07:54:28.361Z</time></trkpt><trkpt lat="37.4043132" lon="-1.9616915"><ele>306.0</ele><time>2026-04-11T07:54:29.361Z</time></trkpt><trkpt lat="37.4040321" lon="-1.9618903"><ele>309.0</ele><time>2026-04-11T07:54:30.361Z</time></trkpt><trkpt lat="37.4037453" lon="-1.9620785"><ele>312.0</ele><time>2026-04-11T07:54:31.361Z</time></trkpt><trkpt lat="37.4034597" lon="-1.9622635"><ele>312.0</ele><time>2026-04-11T07:54:32.361Z</time></trkpt><trkpt lat="37.4031701" lon="-1.962437"><ele>312.0</ele><time>2026-04-11T07:54:33.361Z</time></trkpt><trkpt lat="37.402877" lon="-1.9626046"><ele>312.0</ele><time>2026-04-11T07:54:34.361Z</time></trkpt><trkpt lat="37.4025821" lon="-1.962768"><ele>312.0</ele><time>2026-04-11T07:54:35.361Z</time></trkpt><trkpt lat="37.4022862" lon="-1.9629215"><ele>310.5</ele><time>2026-04-11T07:54:36.361Z</time></trkpt><trkpt lat="37.4019867" lon="-1.9630676"><ele>309.0</ele><time>2026-04-11T07:54:37.361Z</time></trkpt><trkpt lat="37.4016862" lon="-1.9632083"><ele>309.0</ele><time>2026-04-11T07:54:38.361Z</time></trkpt><trkpt lat="37.4013832" lon="-1.9633356"><ele>309.0</ele><time>2026-04-11T07:54:39.361Z</time></trkpt><trkpt lat="37.4010778" lon="-1.9634571"><ele>308.5</ele><time>2026-04-11T07:54:40.361Z</time></trkpt><trkpt lat="37.4007695" lon="-1.9635691"><ele>308.0</ele><time>2026-04-11T07:54:41.361Z</time></trkpt><trkpt lat="37.4004589" lon="-1.9636755"><ele>308.0</ele><time>2026-04-11T07:54:42.361Z</time></trkpt><trkpt lat="37.4001492" lon="-1.9637778"><ele>308.0</ele><time>2026-04-11T07:54:43.36Z</time></trkpt><trkpt lat="37.3998367" lon="-1.9638714"><ele>306.5</ele><time>2026-04-11T07:54:44.361Z</time></trkpt><trkpt lat="37.3995224" lon="-1.9639562"><ele>305.0</ele><time>2026-04-11T07:54:45.361Z</time></trkpt><trkpt lat="37.3992069" lon="-1.9640342"><ele>305.0</ele><time>2026-04-11T07:54:46.36Z</time></trkpt><trkpt lat="37.3988876" lon="-1.9641013"><ele>305.0</ele><time>2026-04-11T07:54:47.36Z</time></trkpt><trkpt lat="37.3985683" lon="-1.964153"><ele>303.5</ele><time>2026-04-11T07:54:48.361Z</time></trkpt><trkpt lat="37.3982479" lon="-1.9641956"><ele>302.0</ele><time>2026-04-11T07:54:49.361Z</time></trkpt><trkpt lat="37.3979302" lon="-1.9642328"><ele>302.0</ele><time>2026-04-11T07:54:50.361Z</time></trkpt><trkpt lat="37.3976093" lon="-1.9642687"><ele>302.0</ele><time>2026-04-11T07:54:51.361Z</time></trkpt><trkpt lat="37.3972889" lon="-1.9642968"><ele>302.0</ele><time>2026-04-11T07:54:52.361Z</time></trkpt><trkpt lat="37.3969675" lon="-1.9643168"><ele>302.0</ele><time>2026-04-11T07:54:53.361Z</time></trkpt><trkpt lat="37.3966449" lon="-1.9643317"><ele>299.0</ele><time>2026-04-11T07:54:54.361Z</time></trkpt><trkpt lat="37.3963186" lon="-1.9643388"><ele>296.0</ele><time>2026-04-11T07:54:55.361Z</time></trkpt><trkpt lat="37.3959938" lon="-1.9643372"><ele>296.0</ele><time>2026-04-11T07:54:56.361Z</time></trkpt><trkpt lat="37.3956695" lon="-1.9643293"><ele>296.0</ele><time>2026-04-11T07:54:57.361Z</time></trkpt><trkpt lat="37.395348" lon="-1.9643131"><ele>292.5</ele><time>2026-04-11T07:54:58.361Z</time></trkpt><trkpt lat="37.3950264" lon="-1.9642884"><ele>289.0</ele><time>2026-04-11T07:54:59.361Z</time></trkpt><trkpt lat="37.3947027" lon="-1.9642583"><ele>289.5</ele><time>2026-04-11T07:55:00.361Z</time></trkpt><trkpt lat="37.3943813" lon="-1.9642169"><ele>290.0</ele><time>2026-04-11T07:55:01.361Z</time></trkpt><trkpt lat="37.3940578" lon="-1.964161"><ele>285.5</ele><time>2026-04-11T07:55:02.361Z</time></trkpt><trkpt lat="37.3937305" lon="-1.9641004"><ele>281.0</ele><time>2026-04-11T07:55:03.361Z</time></trkpt><trkpt lat="37.3933996" lon="-1.9640315"><ele>281.0</ele><time>2026-04-11T07:55:04.361Z</time></trkpt><trkpt lat="37.3930671" lon="-1.9639558"><ele>281.0</ele><time>2026-04-11T07:55:05.361Z</time></trkpt><trkpt lat="37.3927354" lon="-1.96387"><ele>280.0</ele><time>2026-04-11T07:55:06.361Z</time></trkpt><trkpt lat="37.3924015" lon="-1.9637732"><ele>279.0</ele><time>2026-04-11T07:55:07.361Z</time></trkpt><trkpt lat="37.3920672" lon="-1.9636684"><ele>277.0</ele><time>2026-04-11T07:55:08.361Z</time></trkpt><trkpt lat="37.3917353" lon="-1.963552"><ele>275.0</ele><time>2026-04-11T07:55:09.361Z</time></trkpt><trkpt lat="37.3914018" lon="-1.9634294"><ele>270.5</ele><time>2026-04-11T07:55:10.361Z</time></trkpt><trkpt lat="37.3910749" lon="-1.9632975"><ele>266.0</ele><time>2026-04-11T07:55:11.361Z</time></trkpt><trkpt lat="37.3907484" lon="-1.9631551"><ele>266.0</ele><time>2026-04-11T07:55:12.361Z</time></trkpt><trkpt lat="37.3904285" lon="-1.9630098"><ele>266.0</ele><time>2026-04-11T07:55:13.361Z</time></trkpt><trkpt lat="37.3901043" lon="-1.9628569"><ele>266.0</ele><time>2026-04-11T07:55:14.361Z</time></trkpt><trkpt lat="37.3897892" lon="-1.9626952"><ele>266.0</ele><time>2026-04-11T07:55:15.36Z</time></trkpt><trkpt lat="37.3894732" lon="-1.9625265"><ele>262.0</ele><time>2026-04-11T07:55:16.361Z</time></trkpt><trkpt lat="37.3891584" lon="-1.9623488"><ele>258.0</ele><time>2026-04-11T07:55:17.361Z</time></trkpt><trkpt lat="37.3888473" lon="-1.962173"><ele>254.5</ele><time>2026-04-11T07:55:18.361Z</time></trkpt><trkpt lat="37.3885391" lon="-1.9619896"><ele>251.0</ele><time>2026-04-11T07:55:19.36Z</time></trkpt><trkpt lat="37.3882359" lon="-1.9617884"><ele>255.0</ele><time>2026-04-11T07:55:20.361Z</time></trkpt><trkpt lat="37.3879404" lon="-1.9615754"><ele>259.0</ele><time>2026-04-11T07:55:21.361Z</time></trkpt><trkpt lat="37.3876505" lon="-1.9613551"><ele>259.0</ele><time>2026-04-11T07:55:22.36Z</time></trkpt><trkpt lat="37.3873613" lon="-1.9611256"><ele>259.0</ele><time>2026-04-11T07:55:23.361Z</time></trkpt><trkpt lat="37.3870753" lon="-1.9608857"><ele>265.0</ele><time>2026-04-11T07:55:24.361Z</time></trkpt><trkpt lat="37.3867934" lon="-1.9606374"><ele>271.0</ele><time>2026-04-11T07:55:25.361Z</time></trkpt><trkpt lat="37.3865171" lon="-1.9603873"><ele>274.0</ele><time>2026-04-11T07:55:26.361Z</time></trkpt><trkpt lat="37.3862443" lon="-1.9601313"><ele>277.0</ele><time>2026-04-11T07:55:27.361Z</time></trkpt><trkpt lat="37.385978" lon="-1.9598693"><ele>277.0</ele><time>2026-04-11T07:55:28.361Z</time></trkpt><trkpt lat="37.3857125" lon="-1.9596018"><ele>277.0</ele><time>2026-04-11T07:55:29.36Z</time></trkpt><trkpt lat="37.3854465" lon="-1.9593334"><ele>277.0</ele><time>2026-04-11T07:55:30.361Z</time></trkpt><trkpt lat="37.3851823" lon="-1.9590641"><ele>277.0</ele><time>2026-04-11T07:55:31.36Z</time></trkpt><trkpt lat="37.3849161" lon="-1.9587946"><ele>279.5</ele><time>2026-04-11T07:55:32.361Z</time></trkpt><trkpt lat="37.3846509" lon="-1.9585245"><ele>282.0</ele><time>2026-04-11T07:55:33.361Z</time></trkpt><trkpt lat="37.3843825" lon="-1.9582574"><ele>282.0</ele><time>2026-04-11T07:55:34.361Z</time></trkpt><trkpt lat="37.3841117" lon="-1.9579957"><ele>282.0</ele><time>2026-04-11T07:55:35.361Z</time></trkpt><trkpt lat="37.3838322" lon="-1.9577485"><ele>286.5</ele><time>2026-04-11T07:55:36.361Z</time></trkpt><trkpt lat="37.383543" lon="-1.9575185"><ele>291.0</ele><time>2026-04-11T07:55:37.361Z</time></trkpt><trkpt lat="37.3832436" lon="-1.957304"><ele>295.5</ele><time>2026-04-11T07:55:38.361Z</time></trkpt><trkpt lat="37.3829402" lon="-1.9571059"><ele>300.0</ele><time>2026-04-11T07:55:39.361Z</time></trkpt><trkpt lat="37.3826296" lon="-1.9569207"><ele>300.0</ele><time>2026-04-11T07:55:40.361Z</time></trkpt><trkpt lat="37.3823109" lon="-1.9567518"><ele>300.0</ele><time>2026-04-11T07:55:41.361Z</time></trkpt><trkpt lat="37.3819891" lon="-1.9566037"><ele>296.5</ele><time>2026-04-11T07:55:42.361Z</time></trkpt><trkpt lat="37.3816616" lon="-1.9564722"><ele>293.0</ele><time>2026-04-11T07:55:43.361Z</time></trkpt><trkpt lat="37.381329" lon="-1.9563543"><ele>293.0</ele><time>2026-04-11T07:55:44.361Z</time></trkpt><trkpt lat="37.3809918" lon="-1.9562589"><ele>293.0</ele><time>2026-04-11T07:55:45.361Z</time></trkpt><trkpt lat="37.3806546" lon="-1.9561847"><ele>296.5</ele><time>2026-04-11T07:55:46.361Z</time></trkpt><trkpt lat="37.3803128" lon="-1.9561234"><ele>300.0</ele><time>2026-04-11T07:55:47.361Z</time></trkpt><trkpt lat="37.3799703" lon="-1.9560841"><ele>306.5</ele><time>2026-04-11T07:55:48.361Z</time></trkpt><trkpt lat="37.3796248" lon="-1.9560618"><ele>313.0</ele><time>2026-04-11T07:55:49.361Z</time></trkpt><trkpt lat="37.3792787" lon="-1.9560577"><ele>313.0</ele><time>2026-04-11T07:55:50.361Z</time></trkpt><trkpt lat="37.3789367" lon="-1.9560751"><ele>313.0</ele><time>2026-04-11T07:55:51.361Z</time></trkpt><trkpt lat="37.3785941" lon="-1.9561131"><ele>317.0</ele><time>2026-04-11T07:55:52.361Z</time></trkpt><trkpt lat="37.378252" lon="-1.9561622"><ele>321.0</ele><time>2026-04-11T07:55:53.361Z</time></trkpt><trkpt lat="37.3779134" lon="-1.9562295"><ele>321.0</ele><time>2026-04-11T07:55:54.361Z</time></trkpt><trkpt lat="37.377572" lon="-1.9563168"><ele>321.0</ele><time>2026-04-11T07:55:55.361Z</time></trkpt><trkpt lat="37.3772321" lon="-1.956422"><ele>319.0</ele><time>2026-04-11T07:55:56.361Z</time></trkpt><trkpt lat="37.3768981" lon="-1.9565476"><ele>317.0</ele><time>2026-04-11T07:55:57.361Z</time></trkpt><trkpt lat="37.3765667" lon="-1.9566927"><ele>319.0</ele><time>2026-04-11T07:55:58.36Z</time></trkpt><trkpt lat="37.3762428" lon="-1.9568536"><ele>321.0</ele><time>2026-04-11T07:55:59.361Z</time></trkpt><trkpt lat="37.375923" lon="-1.957027"><ele>321.0</ele><time>2026-04-11T07:56:00.361Z</time></trkpt><trkpt lat="37.3756081" lon="-1.9572207"><ele>321.0</ele><time>2026-04-11T07:56:01.361Z</time></trkpt><trkpt lat="37.375299" lon="-1.9574221"><ele>314.0</ele><time>2026-04-11T07:56:02.361Z</time></trkpt><trkpt lat="37.3749966" lon="-1.9576438"><ele>307.0</ele><time>2026-04-11T07:56:03.361Z</time></trkpt><trkpt lat="37.3747037" lon="-1.9578824"><ele>305.0</ele><time>2026-04-11T07:56:04.361Z</time></trkpt><trkpt lat="37.3744226" lon="-1.9581423"><ele>303.0</ele><time>2026-04-11T07:56:05.361Z</time></trkpt><trkpt lat="37.3741503" lon="-1.9584103"><ele>300.5</ele><time>2026-04-11T07:56:06.361Z</time></trkpt><trkpt lat="37.3738875" lon="-1.9586998"><ele>298.0</ele><time>2026-04-11T07:56:07.361Z</time></trkpt><trkpt lat="37.3736285" lon="-1.958999"><ele>296.0</ele><time>2026-04-11T07:56:08.361Z</time></trkpt><trkpt lat="37.3733764" lon="-1.9592977"><ele>294.0</ele><time>2026-04-11T07:56:09.361Z</time></trkpt><trkpt lat="37.3731211" lon="-1.9595971"><ele>293.0</ele><time>2026-04-11T07:56:10.361Z</time></trkpt><trkpt lat="37.3728649" lon="-1.9598962"><ele>292.0</ele><time>2026-04-11T07:56:11.361Z</time></trkpt><trkpt lat="37.3726111" lon="-1.9601962"><ele>291.5</ele><time>2026-04-11T07:56:12.36Z</time></trkpt><trkpt lat="37.3723546" lon="-1.9604971"><ele>291.0</ele><time>2026-04-11T07:56:13.361Z</time></trkpt><trkpt lat="37.3721037" lon="-1.9607878"><ele>291.5</ele><time>2026-04-11T07:56:14.361Z</time></trkpt><trkpt lat="37.3718528" lon="-1.9610947"><ele>292.0</ele><time>2026-04-11T07:56:15.361Z</time></trkpt><trkpt lat="37.3716069" lon="-1.9613949"><ele>291.0</ele><time>2026-04-11T07:56:16.361Z</time></trkpt><trkpt lat="37.3713567" lon="-1.9616991"><ele>290.0</ele><time>2026-04-11T07:56:17.36Z</time></trkpt><trkpt lat="37.3711038" lon="-1.9620021"><ele>290.0</ele><time>2026-04-11T07:56:18.361Z</time></trkpt><trkpt lat="37.3708521" lon="-1.9623028"><ele>290.0</ele><time>2026-04-11T07:56:19.361Z</time></trkpt><trkpt lat="37.3705988" lon="-1.9625998"><ele>289.0</ele><time>2026-04-11T07:56:20.361Z</time></trkpt><trkpt lat="37.3703462" lon="-1.9628947"><ele>288.0</ele><time>2026-04-11T07:56:21.361Z</time></trkpt><trkpt lat="37.370091" lon="-1.9631862"><ele>289.0</ele><time>2026-04-11T07:56:22.361Z</time></trkpt><trkpt lat="37.3698378" lon="-1.9634793"><ele>290.0</ele><time>2026-04-11T07:56:23.361Z</time></trkpt><trkpt lat="37.36958" lon="-1.9637734"><ele>290.0</ele><time>2026-04-11T07:56:24.361Z</time></trkpt><trkpt lat="37.3693246" lon="-1.9640704"><ele>290.0</ele><time>2026-04-11T07:56:25.361Z</time></trkpt><trkpt lat="37.3690675" lon="-1.9643604"><ele>286.5</ele><time>2026-04-11T07:56:26.361Z</time></trkpt><trkpt lat="37.3688101" lon="-1.9646519"><ele>283.0</ele><time>2026-04-11T07:56:27.361Z</time></trkpt><trkpt lat="37.3685499" lon="-1.9649364"><ele>282.5</ele><time>2026-04-11T07:56:28.36Z</time></trkpt><trkpt lat="37.3682818" lon="-1.9652154"><ele>282.0</ele><time>2026-04-11T07:56:29.36Z</time></trkpt><trkpt lat="37.3680118" lon="-1.965485"><ele>282.0</ele><time>2026-04-11T07:56:30.361Z</time></trkpt><trkpt lat="37.3677364" lon="-1.965746"><ele>282.0</ele><time>2026-04-11T07:56:31.361Z</time></trkpt><trkpt lat="37.3674537" lon="-1.9659996"><ele>280.5</ele><time>2026-04-11T07:56:32.361Z</time></trkpt><trkpt lat="37.367166" lon="-1.9662421"><ele>279.0</ele><time>2026-04-11T07:56:33.361Z</time></trkpt><trkpt lat="37.3668753" lon="-1.9664799"><ele>279.5</ele><time>2026-04-11T07:56:34.36Z</time></trkpt><trkpt lat="37.3665815" lon="-1.9667087"><ele>280.0</ele><time>2026-04-11T07:56:35.361Z</time></trkpt><trkpt lat="37.3662849" lon="-1.9669308"><ele>280.0</ele><time>2026-04-11T07:56:36.361Z</time></trkpt><trkpt lat="37.3659826" lon="-1.9671449"><ele>280.0</ele><time>2026-04-11T07:56:37.36Z</time></trkpt><trkpt lat="37.3656759" lon="-1.9673496"><ele>274.0</ele><time>2026-04-11T07:56:38.361Z</time></trkpt><trkpt lat="37.3653659" lon="-1.9675442"><ele>268.0</ele><time>2026-04-11T07:56:39.36Z</time></trkpt><trkpt lat="37.3650533" lon="-1.9677298"><ele>268.0</ele><time>2026-04-11T07:56:40.361Z</time></trkpt><trkpt lat="37.364737" lon="-1.9679025"><ele>268.0</ele><time>2026-04-11T07:56:41.361Z</time></trkpt><trkpt lat="37.3644155" lon="-1.9680687"><ele>265.5</ele><time>2026-04-11T07:56:42.361Z</time></trkpt><trkpt lat="37.3640912" lon="-1.9682243"><ele>263.0</ele><time>2026-04-11T07:56:43.361Z</time></trkpt><trkpt lat="37.3637629" lon="-1.9683679"><ele>261.0</ele><time>2026-04-11T07:56:44.361Z</time></trkpt><trkpt lat="37.3634322" lon="-1.9685018"><ele>259.0</ele><time>2026-04-11T07:56:45.36Z</time></trkpt><trkpt lat="37.3631016" lon="-1.9686289"><ele>259.5</ele><time>2026-04-11T07:56:46.361Z</time></trkpt><trkpt lat="37.3627662" lon="-1.9687437"><ele>260.0</ele><time>2026-04-11T07:56:47.361Z</time></trkpt><trkpt lat="37.3624295" lon="-1.9688524"><ele>259.0</ele><time>2026-04-11T07:56:48.361Z</time></trkpt><trkpt lat="37.3620924" lon="-1.9689496"><ele>258.0</ele><time>2026-04-11T07:56:49.361Z</time></trkpt><trkpt lat="37.3617514" lon="-1.9690385"><ele>258.0</ele><time>2026-04-11T07:56:50.361Z</time></trkpt><trkpt lat="37.3614104" lon="-1.96912"><ele>258.0</ele><time>2026-04-11T07:56:51.361Z</time></trkpt><trkpt lat="37.3610691" lon="-1.9691948"><ele>251.5</ele><time>2026-04-11T07:56:52.36Z</time></trkpt><trkpt lat="37.360727" lon="-1.9692698"><ele>245.0</ele><time>2026-04-11T07:56:53.361Z</time></trkpt><trkpt lat="37.3603857" lon="-1.9693412"><ele>242.0</ele><time>2026-04-11T07:56:54.361Z</time></trkpt><trkpt lat="37.3600439" lon="-1.9694092"><ele>239.0</ele><time>2026-04-11T07:56:55.361Z</time></trkpt><trkpt lat="37.3597026" lon="-1.9694862"><ele>236.0</ele><time>2026-04-11T07:56:56.361Z</time></trkpt><trkpt lat="37.3593637" lon="-1.9695763"><ele>233.0</ele><time>2026-04-11T07:56:57.36Z</time></trkpt><trkpt lat="37.3590276" lon="-1.9696862"><ele>233.0</ele><time>2026-04-11T07:56:58.361Z</time></trkpt><trkpt lat="37.3586939" lon="-1.9698106"><ele>233.0</ele><time>2026-04-11T07:56:59.36Z</time></trkpt><trkpt lat="37.3583659" lon="-1.9699544"><ele>232.5</ele><time>2026-04-11T07:57:00.361Z</time></trkpt><trkpt lat="37.3580462" lon="-1.9701135"><ele>232.0</ele><time>2026-04-11T07:57:01.361Z</time></trkpt><trkpt lat="37.3577273" lon="-1.9702917"><ele>231.0</ele><time>2026-04-11T07:57:02.361Z</time></trkpt><trkpt lat="37.3574148" lon="-1.9704843"><ele>230.0</ele><time>2026-04-11T07:57:03.361Z</time></trkpt><trkpt lat="37.3571043" lon="-1.9706834"><ele>225.0</ele><time>2026-04-11T07:57:04.361Z</time></trkpt><trkpt lat="37.3567961" lon="-1.9708843"><ele>220.0</ele><time>2026-04-11T07:57:05.361Z</time></trkpt><trkpt lat="37.3564875" lon="-1.9710806"><ele>221.0</ele><time>2026-04-11T07:57:06.361Z</time></trkpt><trkpt lat="37.3561763" lon="-1.9712749"><ele>222.0</ele><time>2026-04-11T07:57:07.361Z</time></trkpt><trkpt lat="37.3558587" lon="-1.9714561"><ele>221.0</ele><time>2026-04-11T07:57:08.361Z</time></trkpt><trkpt lat="37.3555349" lon="-1.9716126"><ele>220.0</ele><time>2026-04-11T07:57:09.361Z</time></trkpt><trkpt lat="37.3552053" lon="-1.9717537"><ele>218.5</ele><time>2026-04-11T07:57:10.361Z</time></trkpt><trkpt lat="37.3548711" lon="-1.9718685"><ele>217.0</ele><time>2026-04-11T07:57:11.361Z</time></trkpt><trkpt lat="37.3545326" lon="-1.9719583"><ele>217.0</ele><time>2026-04-11T07:57:12.361Z</time></trkpt><trkpt lat="37.3541922" lon="-1.9720252"><ele>217.0</ele><time>2026-04-11T07:57:13.361Z</time></trkpt><trkpt lat="37.3538566" lon="-1.9720718"><ele>213.0</ele><time>2026-04-11T07:57:14.361Z</time></trkpt><trkpt lat="37.3535036" lon="-1.9720968"><ele>209.0</ele><time>2026-04-11T07:57:15.361Z</time></trkpt><trkpt lat="37.3531577" lon="-1.9720986"><ele>206.0</ele><time>2026-04-11T07:57:16.36Z</time></trkpt><trkpt lat="37.3528101" lon="-1.9720786"><ele>203.0</ele><time>2026-04-11T07:57:17.361Z</time></trkpt><trkpt lat="37.3524645" lon="-1.9720339"><ele>203.0</ele><time>2026-04-11T07:57:18.361Z</time></trkpt><trkpt lat="37.352122" lon="-1.9719648"><ele>203.0</ele><time>2026-04-11T07:57:19.361Z</time></trkpt><trkpt lat="37.3517819" lon="-1.9718781"><ele>203.0</ele><time>2026-04-11T07:57:20.361Z</time></trkpt><trkpt lat="37.3514448" lon="-1.9717669"><ele>203.0</ele><time>2026-04-11T07:57:21.361Z</time></trkpt><trkpt lat="37.3511152" lon="-1.971636"><ele>201.0</ele><time>2026-04-11T07:57:22.361Z</time></trkpt><trkpt lat="37.350789" lon="-1.9714802"><ele>199.0</ele><time>2026-04-11T07:57:23.361Z</time></trkpt><trkpt lat="37.3504686" lon="-1.9713185"><ele>199.0</ele><time>2026-04-11T07:57:24.361Z</time></trkpt><trkpt lat="37.3501472" lon="-1.9711539"><ele>199.0</ele><time>2026-04-11T07:57:25.36Z</time></trkpt><trkpt lat="37.349826" lon="-1.9709925"><ele>196.0</ele><time>2026-04-11T07:57:26.361Z</time></trkpt><trkpt lat="37.3495058" lon="-1.9708281"><ele>193.0</ele><time>2026-04-11T07:57:27.361Z</time></trkpt><trkpt lat="37.3491862" lon="-1.9706625"><ele>192.0</ele><time>2026-04-11T07:57:28.361Z</time></trkpt><trkpt lat="37.3488643" lon="-1.9704958"><ele>191.0</ele><time>2026-04-11T07:57:29.36Z</time></trkpt><trkpt lat="37.3485458" lon="-1.9703299"><ele>191.0</ele><time>2026-04-11T07:57:30.361Z</time></trkpt><trkpt lat="37.3482252" lon="-1.9701583"><ele>191.0</ele><time>2026-04-11T07:57:31.361Z</time></trkpt><trkpt lat="37.3479124" lon="-1.9699874"><ele>190.0</ele><time>2026-04-11T07:57:32.36Z</time></trkpt><trkpt lat="37.3476005" lon="-1.9698094"><ele>189.0</ele><time>2026-04-11T07:57:33.361Z</time></trkpt><trkpt lat="37.3472896" lon="-1.9696239"><ele>187.5</ele><time>2026-04-11T07:57:34.361Z</time></trkpt><trkpt lat="37.3469831" lon="-1.9694258"><ele>186.0</ele><time>2026-04-11T07:57:35.361Z</time></trkpt><trkpt lat="37.3466849" lon="-1.9692083"><ele>186.0</ele><time>2026-04-11T07:57:36.361Z</time></trkpt><trkpt lat="37.3463932" lon="-1.9689786"><ele>186.0</ele><time>2026-04-11T07:57:37.361Z</time></trkpt><trkpt lat="37.3461067" lon="-1.9687405"><ele>185.0</ele><time>2026-04-11T07:57:38.361Z</time></trkpt><trkpt lat="37.345822" lon="-1.9684998"><ele>184.0</ele><time>2026-04-11T07:57:39.361Z</time></trkpt><trkpt lat="37.3455419" lon="-1.9682557"><ele>180.5</ele><time>2026-04-11T07:57:40.361Z</time></trkpt><trkpt lat="37.3452612" lon="-1.9680099"><ele>177.0</ele><time>2026-04-11T07:57:41.361Z</time></trkpt><trkpt lat="37.3449817" lon="-1.9677622"><ele>183.5</ele><time>2026-04-11T07:57:42.36Z</time></trkpt><trkpt lat="37.3446991" lon="-1.9675206"><ele>190.0</ele><time>2026-04-11T07:57:43.361Z</time></trkpt><trkpt lat="37.3444111" lon="-1.9672803"><ele>190.0</ele><time>2026-04-11T07:57:44.361Z</time></trkpt><trkpt lat="37.3441176" lon="-1.9670543"><ele>190.0</ele><time>2026-04-11T07:57:45.361Z</time></trkpt><trkpt lat="37.3438162" lon="-1.9668392"><ele>191.0</ele><time>2026-04-11T07:57:46.36Z</time></trkpt><trkpt lat="37.343511" lon="-1.9666408"><ele>192.0</ele><time>2026-04-11T07:57:47.361Z</time></trkpt><trkpt lat="37.3431993" lon="-1.9664569"><ele>193.5</ele><time>2026-04-11T07:57:48.361Z</time></trkpt><trkpt lat="37.3428829" lon="-1.9662902"><ele>195.0</ele><time>2026-04-11T07:57:49.361Z</time></trkpt><trkpt lat="37.3425605" lon="-1.9661395"><ele>195.0</ele><time>2026-04-11T07:57:50.361Z</time></trkpt><trkpt lat="37.3422334" lon="-1.9660081"><ele>195.0</ele><time>2026-04-11T07:57:51.36Z</time></trkpt><trkpt lat="37.3419042" lon="-1.9658933"><ele>198.5</ele><time>2026-04-11T07:57:52.361Z</time></trkpt><trkpt lat="37.3415676" lon="-1.9658034"><ele>202.0</ele><time>2026-04-11T07:57:53.361Z</time></trkpt><trkpt lat="37.3412285" lon="-1.9657364"><ele>205.5</ele><time>2026-04-11T07:57:54.36Z</time></trkpt><trkpt lat="37.3408866" lon="-1.9656871"><ele>209.0</ele><time>2026-04-11T07:57:55.361Z</time></trkpt><trkpt lat="37.3405413" lon="-1.9656537"><ele>212.0</ele><time>2026-04-11T07:57:56.361Z</time></trkpt><trkpt lat="37.3401974" lon="-1.9656327"><ele>215.0</ele><time>2026-04-11T07:57:57.361Z</time></trkpt><trkpt lat="37.3398532" lon="-1.9656292"><ele>219.0</ele><time>2026-04-11T07:57:58.361Z</time></trkpt><trkpt lat="37.3395081" lon="-1.9656417"><ele>223.0</ele><time>2026-04-11T07:57:59.361Z</time></trkpt><trkpt lat="37.3391641" lon="-1.9656742"><ele>223.0</ele><time>2026-04-11T07:58:00.361Z</time></trkpt><trkpt lat="37.3388262" lon="-1.9657192"><ele>223.0</ele><time>2026-04-11T07:58:01.36Z</time></trkpt><trkpt lat="37.3384878" lon="-1.9657881"><ele>220.5</ele><time>2026-04-11T07:58:02.361Z</time></trkpt><trkpt lat="37.338152" lon="-1.9658788"><ele>218.0</ele><time>2026-04-11T07:58:03.36Z</time></trkpt><trkpt lat="37.3378156" lon="-1.965981"><ele>218.5</ele><time>2026-04-11T07:58:04.361Z</time></trkpt><trkpt lat="37.3374831" lon="-1.9661036"><ele>219.0</ele><time>2026-04-11T07:58:05.361Z</time></trkpt><trkpt lat="37.3371547" lon="-1.9662448"><ele>219.0</ele><time>2026-04-11T07:58:06.361Z</time></trkpt><trkpt lat="37.3368288" lon="-1.9663948"><ele>219.0</ele><time>2026-04-11T07:58:07.361Z</time></trkpt><trkpt lat="37.3365024" lon="-1.9665494"><ele>221.5</ele><time>2026-04-11T07:58:08.361Z</time></trkpt><trkpt lat="37.3361767" lon="-1.9667056"><ele>224.0</ele><time>2026-04-11T07:58:09.361Z</time></trkpt><trkpt lat="37.3358503" lon="-1.9668616"><ele>222.0</ele><time>2026-04-11T07:58:10.361Z</time></trkpt><trkpt lat="37.3355214" lon="-1.9670154"><ele>220.0</ele><time>2026-04-11T07:58:11.361Z</time></trkpt><trkpt lat="37.3351927" lon="-1.9671633"><ele>220.0</ele><time>2026-04-11T07:58:12.361Z</time></trkpt><trkpt lat="37.3348615" lon="-1.9673048"><ele>220.0</ele><time>2026-04-11T07:58:13.361Z</time></trkpt><trkpt lat="37.3345293" lon="-1.9674296"><ele>220.0</ele><time>2026-04-11T07:58:14.361Z</time></trkpt><trkpt lat="37.3341913" lon="-1.9675348"><ele>220.0</ele><time>2026-04-11T07:58:15.361Z</time></trkpt><trkpt lat="37.3338507" lon="-1.9676247"><ele>220.0</ele><time>2026-04-11T07:58:16.361Z</time></trkpt><trkpt lat="37.3335089" lon="-1.9676972"><ele>220.0</ele><time>2026-04-11T07:58:17.361Z</time></trkpt><trkpt lat="37.3331663" lon="-1.967753"><ele>219.5</ele><time>2026-04-11T07:58:18.361Z</time></trkpt><trkpt lat="37.3328238" lon="-1.9677984"><ele>219.0</ele><time>2026-04-11T07:58:19.361Z</time></trkpt><trkpt lat="37.3324781" lon="-1.9678376"><ele>219.0</ele><time>2026-04-11T07:58:20.361Z</time></trkpt><trkpt lat="37.3321317" lon="-1.9678722"><ele>219.0</ele><time>2026-04-11T07:58:21.36Z</time></trkpt><trkpt lat="37.3317867" lon="-1.9679059"><ele>219.0</ele><time>2026-04-11T07:58:22.361Z</time></trkpt><trkpt lat="37.3314426" lon="-1.9679362"><ele>219.0</ele><time>2026-04-11T07:58:23.36Z</time></trkpt><trkpt lat="37.331097" lon="-1.9679679"><ele>220.0</ele><time>2026-04-11T07:58:24.361Z</time></trkpt><trkpt lat="37.3307508" lon="-1.9680014"><ele>221.0</ele><time>2026-04-11T07:58:25.361Z</time></trkpt><trkpt lat="37.3304058" lon="-1.9680329"><ele>221.0</ele><time>2026-04-11T07:58:26.36Z</time></trkpt><trkpt lat="37.3300614" lon="-1.9680622"><ele>221.0</ele><time>2026-04-11T07:58:27.361Z</time></trkpt><trkpt lat="37.329718" lon="-1.9680942"><ele>222.0</ele><time>2026-04-11T07:58:28.361Z</time></trkpt><trkpt lat="37.3293736" lon="-1.968128"><ele>223.0</ele><time>2026-04-11T07:58:29.361Z</time></trkpt><trkpt lat="37.3290305" lon="-1.968162"><ele>223.5</ele><time>2026-04-11T07:58:30.361Z</time></trkpt><trkpt lat="37.3286886" lon="-1.9681912"><ele>224.0</ele><time>2026-04-11T07:58:31.361Z</time></trkpt><trkpt lat="37.3283447" lon="-1.9682262"><ele>221.5</ele><time>2026-04-11T07:58:32.361Z</time></trkpt><trkpt lat="37.3280012" lon="-1.968252"><ele>219.0</ele><time>2026-04-11T07:58:33.36Z</time></trkpt><trkpt lat="37.3276573" lon="-1.9682847"><ele>219.0</ele><time>2026-04-11T07:58:34.361Z</time></trkpt><trkpt lat="37.3273127" lon="-1.9683115"><ele>219.0</ele><time>2026-04-11T07:58:35.361Z</time></trkpt><trkpt lat="37.3269683" lon="-1.9683413"><ele>219.5</ele><time>2026-04-11T07:58:36.361Z</time></trkpt><trkpt lat="37.3266212" lon="-1.9683743"><ele>220.0</ele><time>2026-04-11T07:58:37.36Z</time></trkpt><trkpt lat="37.3262752" lon="-1.9684074"><ele>218.5</ele><time>2026-04-11T07:58:38.361Z</time></trkpt><trkpt lat="37.3259298" lon="-1.9684404"><ele>217.0</ele><time>2026-04-11T07:58:39.361Z</time></trkpt><trkpt lat="37.3255909" lon="-1.9684704"><ele>217.0</ele><time>2026-04-11T07:58:40.361Z</time></trkpt><trkpt lat="37.3252437" lon="-1.9685043"><ele>217.0</ele><time>2026-04-11T07:58:41.361Z</time></trkpt><trkpt lat="37.324899" lon="-1.9685345"><ele>218.0</ele><time>2026-04-11T07:58:42.36Z</time></trkpt><trkpt lat="37.3245534" lon="-1.9685645"><ele>219.0</ele><time>2026-04-11T07:58:43.361Z</time></trkpt><trkpt lat="37.3242109" lon="-1.9685947"><ele>220.0</ele><time>2026-04-11T07:58:44.361Z</time></trkpt><trkpt lat="37.3238639" lon="-1.9686312"><ele>221.0</ele><time>2026-04-11T07:58:45.361Z</time></trkpt><trkpt lat="37.3235161" lon="-1.9686684"><ele>221.0</ele><time>2026-04-11T07:58:46.361Z</time></trkpt><trkpt lat="37.3231699" lon="-1.9687002"><ele>221.0</ele><time>2026-04-11T07:58:47.361Z</time></trkpt><trkpt lat="37.3228243" lon="-1.9687315"><ele>222.5</ele><time>2026-04-11T07:58:48.361Z</time></trkpt><trkpt lat="37.322477" lon="-1.9687593"><ele>224.0</ele><time>2026-04-11T07:58:49.361Z</time></trkpt><trkpt lat="37.3221327" lon="-1.9687756"><ele>225.5</ele><time>2026-04-11T07:58:50.361Z</time></trkpt><trkpt lat="37.3217835" lon="-1.968777"><ele>227.0</ele><time>2026-04-11T07:58:51.361Z</time></trkpt><trkpt lat="37.3214371" lon="-1.9687649"><ele>228.0</ele><time>2026-04-11T07:58:52.361Z</time></trkpt><trkpt lat="37.3210898" lon="-1.9687274"><ele>229.0</ele><time>2026-04-11T07:58:53.361Z</time></trkpt><trkpt lat="37.3207444" lon="-1.9686722"><ele>231.0</ele><time>2026-04-11T07:58:54.361Z</time></trkpt><trkpt lat="37.3204021" lon="-1.9686002"><ele>233.0</ele><time>2026-04-11T07:58:55.36Z</time></trkpt><trkpt lat="37.3200627" lon="-1.9685097"><ele>229.5</ele><time>2026-04-11T07:58:56.361Z</time></trkpt><trkpt lat="37.3197259" lon="-1.9683952"><ele>226.0</ele><time>2026-04-11T07:58:57.36Z</time></trkpt><trkpt lat="37.3193949" lon="-1.9682674"><ele>226.0</ele><time>2026-04-11T07:58:58.361Z</time></trkpt><trkpt lat="37.3190695" lon="-1.9681145"><ele>226.0</ele><time>2026-04-11T07:58:59.361Z</time></trkpt><trkpt lat="37.3187476" lon="-1.9679431"><ele>225.5</ele><time>2026-04-11T07:59:00.36Z</time></trkpt><trkpt lat="37.3184332" lon="-1.9677513"><ele>225.0</ele><time>2026-04-11T07:59:01.361Z</time></trkpt><trkpt lat="37.3181335" lon="-1.967539"><ele>223.5</ele><time>2026-04-11T07:59:02.361Z</time></trkpt><trkpt lat="37.3178329" lon="-1.9673156"><ele>222.0</ele><time>2026-04-11T07:59:03.361Z</time></trkpt><trkpt lat="37.3175448" lon="-1.9670762"><ele>222.0</ele><time>2026-04-11T07:59:04.36Z</time></trkpt><trkpt lat="37.3172656" lon="-1.9668235"><ele>222.0</ele><time>2026-04-11T07:59:05.361Z</time></trkpt><trkpt lat="37.316991" lon="-1.9665565"><ele>221.0</ele><time>2026-04-11T07:59:06.36Z</time></trkpt><trkpt lat="37.3167248" lon="-1.9662749"><ele>220.0</ele><time>2026-04-11T07:59:07.361Z</time></trkpt><trkpt lat="37.3164737" lon="-1.9659751"><ele>219.5</ele><time>2026-04-11T07:59:08.361Z</time></trkpt><trkpt lat="37.3162319" lon="-1.9656589"><ele>219.0</ele><time>2026-04-11T07:59:09.361Z</time></trkpt><trkpt lat="37.3160019" lon="-1.9653273"><ele>218.5</ele><time>2026-04-11T07:59:10.361Z</time></trkpt><trkpt lat="37.315779" lon="-1.9649944"><ele>218.0</ele><time>2026-04-11T07:59:11.36Z</time></trkpt><trkpt lat="37.3155557" lon="-1.9646546"><ele>218.0</ele><time>2026-04-11T07:59:12.361Z</time></trkpt><trkpt lat="37.3153356" lon="-1.9643154"><ele>218.0</ele><time>2026-04-11T07:59:13.36Z</time></trkpt><trkpt lat="37.3151108" lon="-1.963981"><ele>218.0</ele><time>2026-04-11T07:59:14.361Z</time></trkpt><trkpt lat="37.3148859" lon="-1.9636451"><ele>218.0</ele><time>2026-04-11T07:59:15.361Z</time></trkpt><trkpt lat="37.3146661" lon="-1.963312"><ele>216.5</ele><time>2026-04-11T07:59:16.36Z</time></trkpt><trkpt lat="37.3144472" lon="-1.9629757"><ele>215.0</ele><time>2026-04-11T07:59:17.361Z</time></trkpt><trkpt lat="37.3142263" lon="-1.9626414"><ele>214.5</ele><time>2026-04-11T07:59:18.361Z</time></trkpt><trkpt lat="37.314005" lon="-1.9623095"><ele>214.0</ele><time>2026-04-11T07:59:19.36Z</time></trkpt><trkpt lat="37.3137808" lon="-1.9619809"><ele>213.5</ele><time>2026-04-11T07:59:20.361Z</time></trkpt><trkpt lat="37.3135551" lon="-1.9616497"><ele>213.0</ele><time>2026-04-11T07:59:21.361Z</time></trkpt><trkpt lat="37.3133318" lon="-1.9613168"><ele>213.0</ele><time>2026-04-11T07:59:22.361Z</time></trkpt><trkpt lat="37.3131086" lon="-1.9609834"><ele>213.0</ele><time>2026-04-11T07:59:23.36Z</time></trkpt><trkpt lat="37.3128816" lon="-1.9606484"><ele>213.0</ele><time>2026-04-11T07:59:24.361Z</time></trkpt><trkpt lat="37.3126513" lon="-1.9603214"><ele>213.0</ele><time>2026-04-11T07:59:25.36Z</time></trkpt><trkpt lat="37.3124205" lon="-1.9599992"><ele>215.5</ele><time>2026-04-11T07:59:26.361Z</time></trkpt><trkpt lat="37.3121867" lon="-1.9596789"><ele>218.0</ele><time>2026-04-11T07:59:27.361Z</time></trkpt><trkpt lat="37.3119449" lon="-1.9593675"><ele>216.0</ele><time>2026-04-11T07:59:28.361Z</time></trkpt><trkpt lat="37.3117005" lon="-1.9590616"><ele>214.0</ele><time>2026-04-11T07:59:29.361Z</time></trkpt><trkpt lat="37.311453" lon="-1.9587626"><ele>215.0</ele><time>2026-04-11T07:59:30.36Z</time></trkpt><trkpt lat="37.3112018" lon="-1.9584655"><ele>216.0</ele><time>2026-04-11T07:59:31.36Z</time></trkpt><trkpt lat="37.3109459" lon="-1.9581746"><ele>214.5</ele><time>2026-04-11T07:59:32.361Z</time></trkpt><trkpt lat="37.3106841" lon="-1.9578822"><ele>213.0</ele><time>2026-04-11T07:59:33.361Z</time></trkpt><trkpt lat="37.3104249" lon="-1.9575976"><ele>212.0</ele><time>2026-04-11T07:59:34.361Z</time></trkpt><trkpt lat="37.3101608" lon="-1.9573162"><ele>211.0</ele><time>2026-04-11T07:59:35.361Z</time></trkpt><trkpt lat="37.3098932" lon="-1.9570373"><ele>211.5</ele><time>2026-04-11T07:59:36.361Z</time></trkpt><trkpt lat="37.3096266" lon="-1.9567545"><ele>212.0</ele><time>2026-04-11T07:59:37.361Z</time></trkpt><trkpt lat="37.30936" lon="-1.9564726"><ele>211.5</ele><time>2026-04-11T07:59:38.361Z</time></trkpt><trkpt lat="37.3090957" lon="-1.9561948"><ele>211.0</ele><time>2026-04-11T07:59:39.361Z</time></trkpt><trkpt lat="37.3088278" lon="-1.955917"><ele>210.0</ele><time>2026-04-11T07:59:40.361Z</time></trkpt><trkpt lat="37.3085591" lon="-1.9556386"><ele>209.0</ele><time>2026-04-11T07:59:41.361Z</time></trkpt><trkpt lat="37.3082912" lon="-1.9553589"><ele>209.5</ele><time>2026-04-11T07:59:42.361Z</time></trkpt><trkpt lat="37.3080247" lon="-1.9550791"><ele>210.0</ele><time>2026-04-11T07:59:43.361Z</time></trkpt><trkpt lat="37.3077572" lon="-1.9548037"><ele>208.5</ele><time>2026-04-11T07:59:44.36Z</time></trkpt><trkpt lat="37.3074865" lon="-1.9545347"><ele>207.0</ele><time>2026-04-11T07:59:45.361Z</time></trkpt><trkpt lat="37.3072169" lon="-1.95427"><ele>206.0</ele><time>2026-04-11T07:59:46.361Z</time></trkpt><trkpt lat="37.3069453" lon="-1.9539979"><ele>205.0</ele><time>2026-04-11T07:59:47.36Z</time></trkpt><trkpt lat="37.3066789" lon="-1.9537221"><ele>205.0</ele><time>2026-04-11T07:59:48.36Z</time></trkpt><trkpt lat="37.3064123" lon="-1.9534431"><ele>205.0</ele><time>2026-04-11T07:59:49.36Z</time></trkpt><trkpt lat="37.3061472" lon="-1.9531642"><ele>203.0</ele><time>2026-04-11T07:59:50.361Z</time></trkpt><trkpt lat="37.3058805" lon="-1.9528866"><ele>201.0</ele><time>2026-04-11T07:59:51.361Z</time></trkpt><trkpt lat="37.3056164" lon="-1.95261"><ele>200.0</ele><time>2026-04-11T07:59:52.361Z</time></trkpt><trkpt lat="37.3053497" lon="-1.9523301"><ele>199.0</ele><time>2026-04-11T07:59:53.361Z</time></trkpt><trkpt lat="37.3050859" lon="-1.9520503"><ele>199.0</ele><time>2026-04-11T07:59:54.361Z</time></trkpt><trkpt lat="37.3048228" lon="-1.951768"><ele>199.0</ele><time>2026-04-11T07:59:55.361Z</time></trkpt><trkpt lat="37.3045556" lon="-1.9514883"><ele>199.0</ele><time>2026-04-11T07:59:56.361Z</time></trkpt><trkpt lat="37.3042898" lon="-1.9512088"><ele>199.0</ele><time>2026-04-11T07:59:57.361Z</time></trkpt><trkpt lat="37.3040241" lon="-1.9509255"><ele>198.0</ele><time>2026-04-11T07:59:58.361Z</time></trkpt><trkpt lat="37.3037595" lon="-1.9506469"><ele>197.0</ele><time>2026-04-11T07:59:59.361Z</time></trkpt><trkpt lat="37.3034948" lon="-1.9503638"><ele>197.0</ele><time>2026-04-11T08:00:00.36Z</time></trkpt><trkpt lat="37.303234" lon="-1.950079"><ele>197.0</ele><time>2026-04-11T08:00:01.36Z</time></trkpt><trkpt lat="37.3029743" lon="-1.9497928"><ele>196.5</ele><time>2026-04-11T08:00:02.361Z</time></trkpt><trkpt lat="37.3027163" lon="-1.9495031"><ele>196.0</ele><time>2026-04-11T08:00:03.36Z</time></trkpt><trkpt lat="37.3024576" lon="-1.9492137"><ele>194.0</ele><time>2026-04-11T08:00:04.361Z</time></trkpt><trkpt lat="37.302194" lon="-1.9489309"><ele>192.0</ele><time>2026-04-11T08:00:05.361Z</time></trkpt><trkpt lat="37.3019289" lon="-1.94865"><ele>191.5</ele><time>2026-04-11T08:00:06.361Z</time></trkpt><trkpt lat="37.3016652" lon="-1.9483674"><ele>191.0</ele><time>2026-04-11T08:00:07.361Z</time></trkpt><trkpt lat="37.3013982" lon="-1.9480878"><ele>190.5</ele><time>2026-04-11T08:00:08.361Z</time></trkpt><trkpt lat="37.3011305" lon="-1.9478123"><ele>190.0</ele><time>2026-04-11T08:00:09.361Z</time></trkpt><trkpt lat="37.3008642" lon="-1.9475345"><ele>190.0</ele><time>2026-04-11T08:00:10.361Z</time></trkpt><trkpt lat="37.3005993" lon="-1.9472566"><ele>190.0</ele><time>2026-04-11T08:00:11.361Z</time></trkpt><trkpt lat="37.3003341" lon="-1.9469766"><ele>189.5</ele><time>2026-04-11T08:00:12.361Z</time></trkpt><trkpt lat="37.3000699" lon="-1.946699"><ele>189.0</ele><time>2026-04-11T08:00:13.36Z</time></trkpt><trkpt lat="37.299805" lon="-1.9464194"><ele>190.0</ele><time>2026-04-11T08:00:14.36Z</time></trkpt><trkpt lat="37.2995411" lon="-1.9461398"><ele>191.0</ele><time>2026-04-11T08:00:15.361Z</time></trkpt><trkpt lat="37.2992787" lon="-1.94586"><ele>189.0</ele><time>2026-04-11T08:00:16.361Z</time></trkpt><trkpt lat="37.2990124" lon="-1.9455785"><ele>187.0</ele><time>2026-04-11T08:00:17.361Z</time></trkpt><trkpt lat="37.2987488" lon="-1.9453035"><ele>186.5</ele><time>2026-04-11T08:00:18.36Z</time></trkpt><trkpt lat="37.2984858" lon="-1.945029"><ele>186.0</ele><time>2026-04-11T08:00:19.361Z</time></trkpt><trkpt lat="37.2982219" lon="-1.9447495"><ele>185.5</ele><time>2026-04-11T08:00:20.361Z</time></trkpt><trkpt lat="37.2979556" lon="-1.9444675"><ele>185.0</ele><time>2026-04-11T08:00:21.36Z</time></trkpt><trkpt lat="37.2976905" lon="-1.9441926"><ele>184.5</ele><time>2026-04-11T08:00:22.361Z</time></trkpt><trkpt lat="37.2974208" lon="-1.9439211"><ele>184.0</ele><time>2026-04-11T08:00:23.361Z</time></trkpt><trkpt lat="37.2971483" lon="-1.9436505"><ele>183.0</ele><time>2026-04-11T08:00:24.361Z</time></trkpt><trkpt lat="37.2968769" lon="-1.943379"><ele>182.0</ele><time>2026-04-11T08:00:25.361Z</time></trkpt><trkpt lat="37.2966036" lon="-1.9431075"><ele>182.0</ele><time>2026-04-11T08:00:26.361Z</time></trkpt><trkpt lat="37.2963324" lon="-1.9428386"><ele>182.0</ele><time>2026-04-11T08:00:27.361Z</time></trkpt><trkpt lat="37.2960609" lon="-1.9425726"><ele>181.5</ele><time>2026-04-11T08:00:28.361Z</time></trkpt><trkpt lat="37.2957865" lon="-1.9423069"><ele>181.0</ele><time>2026-04-11T08:00:29.361Z</time></trkpt><trkpt lat="37.2955117" lon="-1.9420439"><ele>181.0</ele><time>2026-04-11T08:00:30.361Z</time></trkpt><trkpt lat="37.2952378" lon="-1.941783"><ele>181.0</ele><time>2026-04-11T08:00:31.361Z</time></trkpt><trkpt lat="37.2949615" lon="-1.9415155"><ele>182.0</ele><time>2026-04-11T08:00:32.361Z</time></trkpt><trkpt lat="37.2946875" lon="-1.9412503"><ele>183.0</ele><time>2026-04-11T08:00:33.361Z</time></trkpt><trkpt lat="37.2944117" lon="-1.9409871"><ele>181.5</ele><time>2026-04-11T08:00:34.36Z</time></trkpt><trkpt lat="37.2941359" lon="-1.9407272"><ele>180.0</ele><time>2026-04-11T08:00:35.36Z</time></trkpt><trkpt lat="37.2938553" lon="-1.9404714"><ele>179.0</ele><time>2026-04-11T08:00:36.361Z</time></trkpt><trkpt lat="37.2935669" lon="-1.9402199"><ele>178.0</ele><time>2026-04-11T08:00:37.361Z</time></trkpt><trkpt lat="37.2932807" lon="-1.9399681"><ele>183.5</ele><time>2026-04-11T08:00:38.361Z</time></trkpt><trkpt lat="37.2929971" lon="-1.9397213"><ele>189.0</ele><time>2026-04-11T08:00:39.361Z</time></trkpt><trkpt lat="37.2927131" lon="-1.9394751"><ele>189.0</ele><time>2026-04-11T08:00:40.36Z</time></trkpt><trkpt lat="37.2924275" lon="-1.9392273"><ele>189.0</ele><time>2026-04-11T08:00:41.361Z</time></trkpt><trkpt lat="37.2921421" lon="-1.9389828"><ele>188.5</ele><time>2026-04-11T08:00:42.361Z</time></trkpt><trkpt lat="37.2918535" lon="-1.9387379"><ele>188.0</ele><time>2026-04-11T08:00:43.361Z</time></trkpt><trkpt lat="37.2915634" lon="-1.9384967"><ele>186.0</ele><time>2026-04-11T08:00:44.361Z</time></trkpt><trkpt lat="37.2912764" lon="-1.9382581"><ele>184.0</ele><time>2026-04-11T08:00:45.361Z</time></trkpt><trkpt lat="37.2909877" lon="-1.9380154"><ele>184.0</ele><time>2026-04-11T08:00:46.361Z</time></trkpt><trkpt lat="37.2907011" lon="-1.9377747"><ele>184.0</ele><time>2026-04-11T08:00:47.36Z</time></trkpt><trkpt lat="37.2904177" lon="-1.9375307"><ele>180.5</ele><time>2026-04-11T08:00:48.361Z</time></trkpt><trkpt lat="37.2901377" lon="-1.9372913"><ele>177.0</ele><time>2026-04-11T08:00:49.361Z</time></trkpt><trkpt lat="37.289853" lon="-1.9370404"><ele>175.0</ele><time>2026-04-11T08:00:50.361Z</time></trkpt><trkpt lat="37.2895686" lon="-1.9367988"><ele>173.0</ele><time>2026-04-11T08:00:51.361Z</time></trkpt><trkpt lat="37.2892837" lon="-1.9365486"><ele>172.0</ele><time>2026-04-11T08:00:52.36Z</time></trkpt><trkpt lat="37.288998" lon="-1.9362986"><ele>171.0</ele><time>2026-04-11T08:00:53.361Z</time></trkpt><trkpt lat="37.288714" lon="-1.9360515"><ele>170.5</ele><time>2026-04-11T08:00:54.361Z</time></trkpt><trkpt lat="37.2884288" lon="-1.9358021"><ele>170.0</ele><time>2026-04-11T08:00:55.361Z</time></trkpt><trkpt lat="37.288142" lon="-1.9355553"><ele>171.0</ele><time>2026-04-11T08:00:56.36Z</time></trkpt><trkpt lat="37.287857" lon="-1.9353073"><ele>172.0</ele><time>2026-04-11T08:00:57.361Z</time></trkpt><trkpt lat="37.2875717" lon="-1.9350588"><ele>172.0</ele><time>2026-04-11T08:00:58.361Z</time></trkpt><trkpt lat="37.2872875" lon="-1.9348109"><ele>172.0</ele><time>2026-04-11T08:00:59.361Z</time></trkpt><trkpt lat="37.2870069" lon="-1.9345606"><ele>172.0</ele><time>2026-04-11T08:01:00.361Z</time></trkpt><trkpt lat="37.286725" lon="-1.9343114"><ele>172.0</ele><time>2026-04-11T08:01:01.361Z</time></trkpt><trkpt lat="37.2864405" lon="-1.9340599"><ele>171.5</ele><time>2026-04-11T08:01:02.361Z</time></trkpt><trkpt lat="37.2861576" lon="-1.9338046"><ele>171.0</ele><time>2026-04-11T08:01:03.361Z</time></trkpt><trkpt lat="37.2858824" lon="-1.9335495"><ele>169.5</ele><time>2026-04-11T08:01:04.36Z</time></trkpt><trkpt lat="37.2856086" lon="-1.9332798"><ele>168.0</ele><time>2026-04-11T08:01:05.361Z</time></trkpt><trkpt lat="37.2853453" lon="-1.9329969"><ele>168.0</ele><time>2026-04-11T08:01:06.361Z</time></trkpt><trkpt lat="37.2850922" lon="-1.9326975"><ele>168.0</ele><time>2026-04-11T08:01:07.361Z</time></trkpt><trkpt lat="37.2848481" lon="-1.9323888"><ele>167.0</ele><time>2026-04-11T08:01:08.361Z</time></trkpt><trkpt lat="37.2846122" lon="-1.9320677"><ele>166.0</ele><time>2026-04-11T08:01:09.361Z</time></trkpt><trkpt lat="37.2843896" lon="-1.9317343"><ele>165.5</ele><time>2026-04-11T08:01:10.361Z</time></trkpt><trkpt lat="37.2841806" lon="-1.9313897"><ele>165.0</ele><time>2026-04-11T08:01:11.361Z</time></trkpt><trkpt lat="37.2839799" lon="-1.9310336"><ele>163.5</ele><time>2026-04-11T08:01:12.361Z</time></trkpt><trkpt lat="37.2837872" lon="-1.9306714"><ele>162.0</ele><time>2026-04-11T08:01:13.36Z</time></trkpt><trkpt lat="37.2836046" lon="-1.9303002"><ele>162.0</ele><time>2026-04-11T08:01:14.361Z</time></trkpt><trkpt lat="37.283435" lon="-1.9299216"><ele>162.0</ele><time>2026-04-11T08:01:15.361Z</time></trkpt><trkpt lat="37.2832779" lon="-1.9295331"><ele>161.5</ele><time>2026-04-11T08:01:16.361Z</time></trkpt><trkpt lat="37.2831333" lon="-1.9291401"><ele>161.0</ele><time>2026-04-11T08:01:17.36Z</time></trkpt><trkpt lat="37.2830041" lon="-1.9287336"><ele>159.0</ele><time>2026-04-11T08:01:18.361Z</time></trkpt><trkpt lat="37.2828841" lon="-1.9283276"><ele>157.0</ele><time>2026-04-11T08:01:19.36Z</time></trkpt><trkpt lat="37.2827767" lon="-1.9279129"><ele>157.5</ele><time>2026-04-11T08:01:20.36Z</time></trkpt><trkpt lat="37.2826781" lon="-1.9274947"><ele>158.0</ele><time>2026-04-11T08:01:21.361Z</time></trkpt><trkpt lat="37.2825871" lon="-1.9270796"><ele>159.0</ele><time>2026-04-11T08:01:22.361Z</time></trkpt><trkpt lat="37.2824943" lon="-1.9266608"><ele>160.0</ele><time>2026-04-11T08:01:23.361Z</time></trkpt><trkpt lat="37.2823984" lon="-1.9262446"><ele>160.0</ele><time>2026-04-11T08:01:24.361Z</time></trkpt><trkpt lat="37.2823064" lon="-1.9258287"><ele>160.0</ele><time>2026-04-11T08:01:25.36Z</time></trkpt><trkpt lat="37.2822156" lon="-1.9254155"><ele>156.5</ele><time>2026-04-11T08:01:26.361Z</time></trkpt><trkpt lat="37.2821197" lon="-1.9249967"><ele>153.0</ele><time>2026-04-11T08:01:27.36Z</time></trkpt><trkpt lat="37.2820264" lon="-1.9245817"><ele>154.5</ele><time>2026-04-11T08:01:28.361Z</time></trkpt><trkpt lat="37.2819337" lon="-1.9241648"><ele>156.0</ele><time>2026-04-11T08:01:29.361Z</time></trkpt><trkpt lat="37.2818413" lon="-1.9237497"><ele>156.5</ele><time>2026-04-11T08:01:30.36Z</time></trkpt><trkpt lat="37.2817464" lon="-1.9233304"><ele>157.0</ele><time>2026-04-11T08:01:31.36Z</time></trkpt><trkpt lat="37.2816568" lon="-1.9229101"><ele>159.0</ele><time>2026-04-11T08:01:32.361Z</time></trkpt><trkpt lat="37.2815728" lon="-1.9224889"><ele>161.0</ele><time>2026-04-11T08:01:33.361Z</time></trkpt><trkpt lat="37.2814863" lon="-1.9220684"><ele>157.0</ele><time>2026-04-11T08:01:34.361Z</time></trkpt><trkpt lat="37.2813975" lon="-1.9216488"><ele>153.0</ele><time>2026-04-11T08:01:35.361Z</time></trkpt><trkpt lat="37.2813012" lon="-1.9212307"><ele>153.0</ele><time>2026-04-11T08:01:36.361Z</time></trkpt><trkpt lat="37.2812041" lon="-1.9208132"><ele>153.0</ele><time>2026-04-11T08:01:37.361Z</time></trkpt><trkpt lat="37.2811085" lon="-1.9203977"><ele>153.5</ele><time>2026-04-11T08:01:38.361Z</time></trkpt><trkpt lat="37.2810134" lon="-1.9199799"><ele>154.0</ele><time>2026-04-11T08:01:39.36Z</time></trkpt><trkpt lat="37.2809178" lon="-1.9195609"><ele>154.0</ele><time>2026-04-11T08:01:40.361Z</time></trkpt><trkpt lat="37.2808234" lon="-1.9191435"><ele>154.0</ele><time>2026-04-11T08:01:41.361Z</time></trkpt><trkpt lat="37.2807322" lon="-1.9187264"><ele>153.5</ele><time>2026-04-11T08:01:42.361Z</time></trkpt><trkpt lat="37.2806319" lon="-1.9183089"><ele>153.0</ele><time>2026-04-11T08:01:43.36Z</time></trkpt><trkpt lat="37.2805346" lon="-1.9178929"><ele>153.5</ele><time>2026-04-11T08:01:44.361Z</time></trkpt><trkpt lat="37.2804357" lon="-1.9174758"><ele>154.0</ele><time>2026-04-11T08:01:45.361Z</time></trkpt><trkpt lat="37.2803327" lon="-1.9170607"><ele>154.0</ele><time>2026-04-11T08:01:46.361Z</time></trkpt><trkpt lat="37.2802247" lon="-1.9166446"><ele>154.0</ele><time>2026-04-11T08:01:47.361Z</time></trkpt><trkpt lat="37.2801134" lon="-1.9162341"><ele>155.0</ele><time>2026-04-11T08:01:48.361Z</time></trkpt><trkpt lat="37.279995" lon="-1.9158262"><ele>156.0</ele><time>2026-04-11T08:01:49.361Z</time></trkpt><trkpt lat="37.2798683" lon="-1.915422"><ele>155.0</ele><time>2026-04-11T08:01:50.361Z</time></trkpt><trkpt lat="37.2797436" lon="-1.9150149"><ele>154.0</ele><time>2026-04-11T08:01:51.361Z</time></trkpt><trkpt lat="37.2796153" lon="-1.9146111"><ele>153.0</ele><time>2026-04-11T08:01:52.361Z</time></trkpt><trkpt lat="37.2794841" lon="-1.9142102"><ele>152.0</ele><time>2026-04-11T08:01:53.361Z</time></trkpt><trkpt lat="37.2793436" lon="-1.9138112"><ele>152.0</ele><time>2026-04-11T08:01:54.36Z</time></trkpt><trkpt lat="37.2791951" lon="-1.9134183"><ele>152.0</ele><time>2026-04-11T08:01:55.361Z</time></trkpt><trkpt lat="37.279041" lon="-1.9130287"><ele>151.5</ele><time>2026-04-11T08:01:56.361Z</time></trkpt><trkpt lat="37.2788777" lon="-1.912644"><ele>151.0</ele><time>2026-04-11T08:01:57.361Z</time></trkpt><trkpt lat="37.2787099" lon="-1.9122644"><ele>148.5</ele><time>2026-04-11T08:01:58.36Z</time></trkpt><trkpt lat="37.278539" lon="-1.9118833"><ele>146.0</ele><time>2026-04-11T08:01:59.361Z</time></trkpt><trkpt lat="37.2783644" lon="-1.9115113"><ele>145.0</ele><time>2026-04-11T08:02:00.361Z</time></trkpt><trkpt lat="37.2781778" lon="-1.9111461"><ele>144.0</ele><time>2026-04-11T08:02:01.361Z</time></trkpt><trkpt lat="37.2779833" lon="-1.9107904"><ele>144.0</ele><time>2026-04-11T08:02:02.36Z</time></trkpt><trkpt lat="37.2777783" lon="-1.9104433"><ele>144.0</ele><time>2026-04-11T08:02:03.361Z</time></trkpt><trkpt lat="37.2775672" lon="-1.9101012"><ele>143.5</ele><time>2026-04-11T08:02:04.361Z</time></trkpt><trkpt lat="37.2773475" lon="-1.9097677"><ele>143.0</ele><time>2026-04-11T08:02:05.361Z</time></trkpt><trkpt lat="37.2771246" lon="-1.9094421"><ele>144.5</ele><time>2026-04-11T08:02:06.361Z</time></trkpt><trkpt lat="37.2768931" lon="-1.9091271"><ele>146.0</ele><time>2026-04-11T08:02:07.36Z</time></trkpt><trkpt lat="37.2766557" lon="-1.9088176"><ele>149.5</ele><time>2026-04-11T08:02:08.361Z</time></trkpt><trkpt lat="37.2764187" lon="-1.908518"><ele>153.0</ele><time>2026-04-11T08:02:09.361Z</time></trkpt><trkpt lat="37.2761687" lon="-1.9082258"><ele>153.0</ele><time>2026-04-11T08:02:10.36Z</time></trkpt><trkpt lat="37.2759128" lon="-1.9079426"><ele>153.0</ele><time>2026-04-11T08:02:11.361Z</time></trkpt><trkpt lat="37.2756517" lon="-1.9076661"><ele>156.0</ele><time>2026-04-11T08:02:12.361Z</time></trkpt><trkpt lat="37.2753826" lon="-1.9074001"><ele>159.0</ele><time>2026-04-11T08:02:13.361Z</time></trkpt><trkpt lat="37.2751073" lon="-1.9071405"><ele>159.0</ele><time>2026-04-11T08:02:14.361Z</time></trkpt><trkpt lat="37.2748251" lon="-1.9068879"><ele>159.0</ele><time>2026-04-11T08:02:15.361Z</time></trkpt><trkpt lat="37.2745371" lon="-1.9066487"><ele>161.5</ele><time>2026-04-11T08:02:16.361Z</time></trkpt><trkpt lat="37.274246" lon="-1.9064157"><ele>164.0</ele><time>2026-04-11T08:02:17.361Z</time></trkpt><trkpt lat="37.2739473" lon="-1.9061892"><ele>165.0</ele><time>2026-04-11T08:02:18.361Z</time></trkpt><trkpt lat="37.2736446" lon="-1.9059728"><ele>166.0</ele><time>2026-04-11T08:02:19.361Z</time></trkpt><trkpt lat="37.2733402" lon="-1.9057676"><ele>166.5</ele><time>2026-04-11T08:02:20.361Z</time></trkpt><trkpt lat="37.2730328" lon="-1.9055692"><ele>167.0</ele><time>2026-04-11T08:02:21.361Z</time></trkpt><trkpt lat="37.2727189" lon="-1.9053811"><ele>167.0</ele><time>2026-04-11T08:02:22.361Z</time></trkpt><trkpt lat="37.2724012" lon="-1.9052062"><ele>167.0</ele><time>2026-04-11T08:02:23.361Z</time></trkpt><trkpt lat="37.2720768" lon="-1.905042"><ele>164.5</ele><time>2026-04-11T08:02:24.361Z</time></trkpt><trkpt lat="37.2717503" lon="-1.9048866"><ele>162.0</ele><time>2026-04-11T08:02:25.361Z</time></trkpt><trkpt lat="37.2714217" lon="-1.9047384"><ele>158.5</ele><time>2026-04-11T08:02:26.361Z</time></trkpt><trkpt lat="37.2710909" lon="-1.9046012"><ele>155.0</ele><time>2026-04-11T08:02:27.361Z</time></trkpt><trkpt lat="37.27076" lon="-1.9044789"><ele>153.5</ele><time>2026-04-11T08:02:28.361Z</time></trkpt><trkpt lat="37.2704232" lon="-1.9043647"><ele>152.0</ele><time>2026-04-11T08:02:29.361Z</time></trkpt><trkpt lat="37.2700844" lon="-1.9042648"><ele>152.0</ele><time>2026-04-11T08:02:30.361Z</time></trkpt><trkpt lat="37.2697403" lon="-1.904173"><ele>152.0</ele><time>2026-04-11T08:02:31.361Z</time></trkpt><trkpt lat="37.2693974" lon="-1.9040911"><ele>152.0</ele><time>2026-04-11T08:02:32.361Z</time></trkpt><trkpt lat="37.2690509" lon="-1.9040207"><ele>152.0</ele><time>2026-04-11T08:02:33.361Z</time></trkpt><trkpt lat="37.2687085" lon="-1.9039603"><ele>150.5</ele><time>2026-04-11T08:02:34.361Z</time></trkpt><trkpt lat="37.2683633" lon="-1.9039078"><ele>149.0</ele><time>2026-04-11T08:02:35.361Z</time></trkpt><trkpt lat="37.2680191" lon="-1.9038636"><ele>147.5</ele><time>2026-04-11T08:02:36.361Z</time></trkpt><trkpt lat="37.2676742" lon="-1.9038305"><ele>146.0</ele><time>2026-04-11T08:02:37.361Z</time></trkpt><trkpt lat="37.2673291" lon="-1.9038039"><ele>144.0</ele><time>2026-04-11T08:02:38.361Z</time></trkpt><trkpt lat="37.2669842" lon="-1.9037772"><ele>142.0</ele><time>2026-04-11T08:02:39.361Z</time></trkpt><trkpt lat="37.2666384" lon="-1.9037464"><ele>141.0</ele><time>2026-04-11T08:02:40.361Z</time></trkpt><trkpt lat="37.2662918" lon="-1.9037106"><ele>140.0</ele><time>2026-04-11T08:02:41.361Z</time></trkpt><trkpt lat="37.2659466" lon="-1.9036701"><ele>138.5</ele><time>2026-04-11T08:02:42.361Z</time></trkpt><trkpt lat="37.2656033" lon="-1.9036279"><ele>137.0</ele><time>2026-04-11T08:02:43.361Z</time></trkpt><trkpt lat="37.2652597" lon="-1.9035821"><ele>137.0</ele><time>2026-04-11T08:02:44.361Z</time></trkpt><trkpt lat="37.2649158" lon="-1.903532"><ele>137.0</ele><time>2026-04-11T08:02:45.361Z</time></trkpt><trkpt lat="37.2645715" lon="-1.903479"><ele>136.0</ele><time>2026-04-11T08:02:46.361Z</time></trkpt><trkpt lat="37.264227" lon="-1.9034276"><ele>135.0</ele><time>2026-04-11T08:02:47.36Z</time></trkpt><trkpt lat="37.2638875" lon="-1.9033713"><ele>134.5</ele><time>2026-04-11T08:02:48.361Z</time></trkpt><trkpt lat="37.2635444" lon="-1.9033131"><ele>134.0</ele><time>2026-04-11T08:02:49.361Z</time></trkpt><trkpt lat="37.2632024" lon="-1.903248"><ele>133.0</ele><time>2026-04-11T08:02:50.361Z</time></trkpt><trkpt lat="37.2628617" lon="-1.9031849"><ele>132.0</ele><time>2026-04-11T08:02:51.361Z</time></trkpt><trkpt lat="37.2625186" lon="-1.903112"><ele>132.5</ele><time>2026-04-11T08:02:52.361Z</time></trkpt><trkpt lat="37.2621712" lon="-1.9030442"><ele>133.0</ele><time>2026-04-11T08:02:53.361Z</time></trkpt><trkpt lat="37.2618296" lon="-1.9029758"><ele>133.0</ele><time>2026-04-11T08:02:54.361Z</time></trkpt><trkpt lat="37.2614876" lon="-1.9029043"><ele>133.0</ele><time>2026-04-11T08:02:55.361Z</time></trkpt><trkpt lat="37.2611504" lon="-1.9028488"><ele>131.5</ele><time>2026-04-11T08:02:56.361Z</time></trkpt><trkpt lat="37.2608075" lon="-1.9027598"><ele>130.0</ele><time>2026-04-11T08:02:57.361Z</time></trkpt><trkpt lat="37.2604685" lon="-1.9026735"><ele>128.5</ele><time>2026-04-11T08:02:58.36Z</time></trkpt><trkpt lat="37.2601266" lon="-1.9025888"><ele>127.0</ele><time>2026-04-11T08:02:59.361Z</time></trkpt><trkpt lat="37.2597884" lon="-1.902499"><ele>126.5</ele><time>2026-04-11T08:03:00.361Z</time></trkpt><trkpt lat="37.2594504" lon="-1.9024012"><ele>126.0</ele><time>2026-04-11T08:03:01.361Z</time></trkpt><trkpt lat="37.259112" lon="-1.9022956"><ele>125.0</ele><time>2026-04-11T08:03:02.361Z</time></trkpt><trkpt lat="37.2587749" lon="-1.9021886"><ele>124.0</ele><time>2026-04-11T08:03:03.361Z</time></trkpt><trkpt lat="37.2584395" lon="-1.9020773"><ele>122.0</ele><time>2026-04-11T08:03:04.361Z</time></trkpt><trkpt lat="37.2581026" lon="-1.9019892"><ele>120.0</ele><time>2026-04-11T08:03:05.36Z</time></trkpt><trkpt lat="37.2577664" lon="-1.9018678"><ele>120.5</ele><time>2026-04-11T08:03:06.361Z</time></trkpt><trkpt lat="37.257435" lon="-1.9017445"><ele>121.0</ele><time>2026-04-11T08:03:07.361Z</time></trkpt><trkpt lat="37.257102" lon="-1.9016309"><ele>121.0</ele><time>2026-04-11T08:03:08.361Z</time></trkpt><trkpt lat="37.2567659" lon="-1.9015156"><ele>121.0</ele><time>2026-04-11T08:03:09.361Z</time></trkpt><trkpt lat="37.25643" lon="-1.9013976"><ele>121.0</ele><time>2026-04-11T08:03:10.36Z</time></trkpt><trkpt lat="37.2561" lon="-1.9012764"><ele>121.0</ele><time>2026-04-11T08:03:11.36Z</time></trkpt><trkpt lat="37.2557769" lon="-1.9011557"><ele>120.5</ele><time>2026-04-11T08:03:12.361Z</time></trkpt><trkpt lat="37.255461" lon="-1.9010377"><ele>120.0</ele><time>2026-04-11T08:03:13.361Z</time></trkpt><trkpt lat="37.2551579" lon="-1.9009036"><ele>120.0</ele><time>2026-04-11T08:03:14.361Z</time></trkpt><trkpt lat="37.2548281" lon="-1.9007772"><ele>120.0</ele><time>2026-04-11T08:03:15.361Z</time></trkpt><trkpt lat="37.2545027" lon="-1.9006473"><ele>120.0</ele><time>2026-04-11T08:03:16.361Z</time></trkpt><trkpt lat="37.2541816" lon="-1.9005105"><ele>120.0</ele><time>2026-04-11T08:03:17.361Z</time></trkpt><trkpt lat="37.2538554" lon="-1.9003798"><ele>124.5</ele><time>2026-04-11T08:03:18.36Z</time></trkpt><trkpt lat="37.2535304" lon="-1.9002447"><ele>129.0</ele><time>2026-04-11T08:03:19.361Z</time></trkpt><trkpt lat="37.2532058" lon="-1.9001059"><ele>129.0</ele><time>2026-04-11T08:03:20.361Z</time></trkpt><trkpt lat="37.2528771" lon="-1.8999689"><ele>129.0</ele><time>2026-04-11T08:03:21.361Z</time></trkpt><trkpt lat="37.25255" lon="-1.8998292"><ele>130.5</ele><time>2026-04-11T08:03:22.361Z</time></trkpt><trkpt lat="37.2522232" lon="-1.8996919"><ele>132.0</ele><time>2026-04-11T08:03:23.361Z</time></trkpt><trkpt lat="37.2518938" lon="-1.8995577"><ele>132.0</ele><time>2026-04-11T08:03:24.36Z</time></trkpt><trkpt lat="37.251566" lon="-1.8994236"><ele>132.0</ele><time>2026-04-11T08:03:25.36Z</time></trkpt><trkpt lat="37.2512474" lon="-1.8992794"><ele>130.0</ele><time>2026-04-11T08:03:26.361Z</time></trkpt><trkpt lat="37.2509118" lon="-1.8991486"><ele>128.0</ele><time>2026-04-11T08:03:27.361Z</time></trkpt><trkpt lat="37.250578" lon="-1.8990158"><ele>128.0</ele><time>2026-04-11T08:03:28.361Z</time></trkpt><trkpt lat="37.2502494" lon="-1.898879"><ele>128.0</ele><time>2026-04-11T08:03:29.36Z</time></trkpt><trkpt lat="37.2499215" lon="-1.8987417"><ele>127.0</ele><time>2026-04-11T08:03:30.361Z</time></trkpt><trkpt lat="37.2495922" lon="-1.898606"><ele>126.0</ele><time>2026-04-11T08:03:31.361Z</time></trkpt><trkpt lat="37.2492661" lon="-1.8984719"><ele>125.5</ele><time>2026-04-11T08:03:32.361Z</time></trkpt><trkpt lat="37.248934" lon="-1.8983387"><ele>125.0</ele><time>2026-04-11T08:03:33.36Z</time></trkpt><trkpt lat="37.2486036" lon="-1.8982114"><ele>125.0</ele><time>2026-04-11T08:03:34.361Z</time></trkpt><trkpt lat="37.2482712" lon="-1.8980836"><ele>125.0</ele><time>2026-04-11T08:03:35.361Z</time></trkpt><trkpt lat="37.2479388" lon="-1.8979635"><ele>127.0</ele><time>2026-04-11T08:03:36.361Z</time></trkpt><trkpt lat="37.247604" lon="-1.8978399"><ele>129.0</ele><time>2026-04-11T08:03:37.361Z</time></trkpt><trkpt lat="37.2472749" lon="-1.897706"><ele>125.0</ele><time>2026-04-11T08:03:38.361Z</time></trkpt><trkpt lat="37.2469452" lon="-1.8975693"><ele>121.0</ele><time>2026-04-11T08:03:39.361Z</time></trkpt><trkpt lat="37.2466127" lon="-1.8974362"><ele>118.0</ele><time>2026-04-11T08:03:40.361Z</time></trkpt><trkpt lat="37.2462874" lon="-1.8972935"><ele>115.0</ele><time>2026-04-11T08:03:41.361Z</time></trkpt><trkpt lat="37.2459553" lon="-1.897156"><ele>112.0</ele><time>2026-04-11T08:03:42.361Z</time></trkpt><trkpt lat="37.2456229" lon="-1.8970181"><ele>109.0</ele><time>2026-04-11T08:03:43.36Z</time></trkpt><trkpt lat="37.2452925" lon="-1.8968806"><ele>109.0</ele><time>2026-04-11T08:03:44.361Z</time></trkpt><trkpt lat="37.2449602" lon="-1.8967456"><ele>109.0</ele><time>2026-04-11T08:03:45.361Z</time></trkpt><trkpt lat="37.2446301" lon="-1.8966076"><ele>106.0</ele><time>2026-04-11T08:03:46.361Z</time></trkpt><trkpt lat="37.2442997" lon="-1.8964719"><ele>103.0</ele><time>2026-04-11T08:03:47.361Z</time></trkpt><trkpt lat="37.2439668" lon="-1.8963377"><ele>100.0</ele><time>2026-04-11T08:03:48.361Z</time></trkpt><trkpt lat="37.2436386" lon="-1.8962033"><ele>97.0</ele><time>2026-04-11T08:03:49.36Z</time></trkpt><trkpt lat="37.243308" lon="-1.896064"><ele>96.5</ele><time>2026-04-11T08:03:50.36Z</time></trkpt><trkpt lat="37.2429766" lon="-1.8959255"><ele>96.0</ele><time>2026-04-11T08:03:51.361Z</time></trkpt><trkpt lat="37.2426501" lon="-1.8957867"><ele>96.5</ele><time>2026-04-11T08:03:52.361Z</time></trkpt><trkpt lat="37.2423187" lon="-1.8956487"><ele>97.0</ele><time>2026-04-11T08:03:53.361Z</time></trkpt><trkpt lat="37.2419847" lon="-1.8955131"><ele>97.0</ele><time>2026-04-11T08:03:54.361Z</time></trkpt><trkpt lat="37.2416546" lon="-1.8953804"><ele>97.0</ele><time>2026-04-11T08:03:55.361Z</time></trkpt><trkpt lat="37.2413238" lon="-1.8952502"><ele>98.0</ele><time>2026-04-11T08:03:56.361Z</time></trkpt><trkpt lat="37.2409921" lon="-1.8951126"><ele>99.0</ele><time>2026-04-11T08:03:57.361Z</time></trkpt><trkpt lat="37.2406607" lon="-1.8949799"><ele>94.0</ele><time>2026-04-11T08:03:58.361Z</time></trkpt><trkpt lat="37.2403314" lon="-1.8948472"><ele>89.0</ele><time>2026-04-11T08:03:59.36Z</time></trkpt><trkpt lat="37.2400024" lon="-1.8947148"><ele>87.5</ele><time>2026-04-11T08:04:00.361Z</time></trkpt><trkpt lat="37.2396685" lon="-1.8945953"><ele>86.0</ele><time>2026-04-11T08:04:01.361Z</time></trkpt><trkpt lat="37.2393369" lon="-1.8944859"><ele>86.0</ele><time>2026-04-11T08:04:02.361Z</time></trkpt><trkpt lat="37.2390014" lon="-1.894387"><ele>86.0</ele><time>2026-04-11T08:04:03.361Z</time></trkpt><trkpt lat="37.2386637" lon="-1.8942976"><ele>86.0</ele><time>2026-04-11T08:04:04.36Z</time></trkpt><trkpt lat="37.2383238" lon="-1.8942192"><ele>86.0</ele><time>2026-04-11T08:04:05.361Z</time></trkpt><trkpt lat="37.2379791" lon="-1.8941519"><ele>85.0</ele><time>2026-04-11T08:04:06.361Z</time></trkpt><trkpt lat="37.2376348" lon="-1.8940972"><ele>84.0</ele><time>2026-04-11T08:04:07.361Z</time></trkpt><trkpt lat="37.2372853" lon="-1.8940529"><ele>82.0</ele><time>2026-04-11T08:04:08.36Z</time></trkpt><trkpt lat="37.2369559" lon="-1.8940229"><ele>80.0</ele><time>2026-04-11T08:04:09.36Z</time></trkpt><trkpt lat="37.2366081" lon="-1.8940106"><ele>78.5</ele><time>2026-04-11T08:04:10.361Z</time></trkpt><trkpt lat="37.2362628" lon="-1.8939986"><ele>77.0</ele><time>2026-04-11T08:04:11.361Z</time></trkpt><trkpt lat="37.2359142" lon="-1.8940073"><ele>76.0</ele><time>2026-04-11T08:04:12.36Z</time></trkpt><trkpt lat="37.2355699" lon="-1.8940269"><ele>75.0</ele><time>2026-04-11T08:04:13.361Z</time></trkpt><trkpt lat="37.2352238" lon="-1.8940564"><ele>75.0</ele><time>2026-04-11T08:04:14.361Z</time></trkpt><trkpt lat="37.2348794" lon="-1.8940991"><ele>75.0</ele><time>2026-04-11T08:04:15.361Z</time></trkpt><trkpt lat="37.2345358" lon="-1.8941544"><ele>72.5</ele><time>2026-04-11T08:04:16.361Z</time></trkpt><trkpt lat="37.234192" lon="-1.8942231"><ele>70.0</ele><time>2026-04-11T08:04:17.361Z</time></trkpt><trkpt lat="37.2338514" lon="-1.8943032"><ele>68.5</ele><time>2026-04-11T08:04:18.361Z</time></trkpt><trkpt lat="37.233514" lon="-1.8943919"><ele>67.0</ele><time>2026-04-11T08:04:19.361Z</time></trkpt><trkpt lat="37.2331794" lon="-1.8944927"><ele>66.5</ele><time>2026-04-11T08:04:20.361Z</time></trkpt><trkpt lat="37.232843" lon="-1.8946075"><ele>66.0</ele><time>2026-04-11T08:04:21.361Z</time></trkpt><trkpt lat="37.2325111" lon="-1.8947247"><ele>63.5</ele><time>2026-04-11T08:04:22.361Z</time></trkpt><trkpt lat="37.2321795" lon="-1.8948447"><ele>61.0</ele><time>2026-04-11T08:04:23.36Z</time></trkpt><trkpt lat="37.231846" lon="-1.8949631"><ele>61.0</ele><time>2026-04-11T08:04:24.36Z</time></trkpt><trkpt lat="37.2315154" lon="-1.8950847"><ele>61.0</ele><time>2026-04-11T08:04:25.36Z</time></trkpt><trkpt lat="37.2311836" lon="-1.8952029"><ele>61.5</ele><time>2026-04-11T08:04:26.361Z</time></trkpt><trkpt lat="37.2308534" lon="-1.8953167"><ele>62.0</ele><time>2026-04-11T08:04:27.361Z</time></trkpt><trkpt lat="37.2305226" lon="-1.8954348"><ele>62.0</ele><time>2026-04-11T08:04:28.361Z</time></trkpt><trkpt lat="37.2301912" lon="-1.8955547"><ele>62.0</ele><time>2026-04-11T08:04:29.361Z</time></trkpt><trkpt lat="37.229862" lon="-1.8956773"><ele>65.0</ele><time>2026-04-11T08:04:30.361Z</time></trkpt><trkpt lat="37.2295313" lon="-1.8957945"><ele>68.0</ele><time>2026-04-11T08:04:31.361Z</time></trkpt><trkpt lat="37.2291992" lon="-1.8959075"><ele>70.5</ele><time>2026-04-11T08:04:32.361Z</time></trkpt><trkpt lat="37.228861" lon="-1.8960113"><ele>73.0</ele><time>2026-04-11T08:04:33.361Z</time></trkpt><trkpt lat="37.2285257" lon="-1.896099"><ele>73.0</ele><time>2026-04-11T08:04:34.361Z</time></trkpt><trkpt lat="37.2281869" lon="-1.8961799"><ele>73.0</ele><time>2026-04-11T08:04:35.361Z</time></trkpt><trkpt lat="37.2278461" lon="-1.8962559"><ele>72.0</ele><time>2026-04-11T08:04:36.361Z</time></trkpt><trkpt lat="37.2275016" lon="-1.8963274"><ele>71.0</ele><time>2026-04-11T08:04:37.361Z</time></trkpt><trkpt lat="37.2271596" lon="-1.8963932"><ele>71.0</ele><time>2026-04-11T08:04:38.361Z</time></trkpt><trkpt lat="37.2268133" lon="-1.8964498"><ele>71.0</ele><time>2026-04-11T08:04:39.361Z</time></trkpt><trkpt lat="37.2264675" lon="-1.8964971"><ele>71.0</ele><time>2026-04-11T08:04:40.36Z</time></trkpt><trkpt lat="37.226119" lon="-1.8965369"><ele>71.0</ele><time>2026-04-11T08:04:41.361Z</time></trkpt><trkpt lat="37.2257733" lon="-1.8965699"><ele>71.5</ele><time>2026-04-11T08:04:42.361Z</time></trkpt><trkpt lat="37.2254283" lon="-1.8965927"><ele>72.0</ele><time>2026-04-11T08:04:43.361Z</time></trkpt><trkpt lat="37.2250809" lon="-1.8966094"><ele>70.0</ele><time>2026-04-11T08:04:44.361Z</time></trkpt><trkpt lat="37.2247332" lon="-1.8966173"><ele>68.0</ele><time>2026-04-11T08:04:45.36Z</time></trkpt><trkpt lat="37.2243849" lon="-1.8966166"><ele>68.0</ele><time>2026-04-11T08:04:46.36Z</time></trkpt><trkpt lat="37.2240365" lon="-1.8966063"><ele>68.0</ele><time>2026-04-11T08:04:47.36Z</time></trkpt><trkpt lat="37.2236875" lon="-1.8965904"><ele>67.0</ele><time>2026-04-11T08:04:48.361Z</time></trkpt><trkpt lat="37.2233447" lon="-1.8965621"><ele>66.0</ele><time>2026-04-11T08:04:49.36Z</time></trkpt><trkpt lat="37.2229973" lon="-1.8965301"><ele>66.0</ele><time>2026-04-11T08:04:50.36Z</time></trkpt><trkpt lat="37.222652" lon="-1.8964877"><ele>66.0</ele><time>2026-04-11T08:04:51.361Z</time></trkpt><trkpt lat="37.2223065" lon="-1.8964386"><ele>67.0</ele><time>2026-04-11T08:04:52.361Z</time></trkpt><trkpt lat="37.2219634" lon="-1.8963826"><ele>68.0</ele><time>2026-04-11T08:04:53.361Z</time></trkpt><trkpt lat="37.2216184" lon="-1.8963286"><ele>67.5</ele><time>2026-04-11T08:04:54.361Z</time></trkpt><trkpt lat="37.2212759" lon="-1.8962786"><ele>67.0</ele><time>2026-04-11T08:04:55.361Z</time></trkpt><trkpt lat="37.2209327" lon="-1.8962323"><ele>65.5</ele><time>2026-04-11T08:04:56.361Z</time></trkpt><trkpt lat="37.2205896" lon="-1.8961882"><ele>64.0</ele><time>2026-04-11T08:04:57.361Z</time></trkpt><trkpt lat="37.2202458" lon="-1.8961478"><ele>64.0</ele><time>2026-04-11T08:04:58.36Z</time></trkpt><trkpt lat="37.2199015" lon="-1.8961074"><ele>64.0</ele><time>2026-04-11T08:04:59.361Z</time></trkpt><trkpt lat="37.2195561" lon="-1.8960671"><ele>63.5</ele><time>2026-04-11T08:05:00.361Z</time></trkpt><trkpt lat="37.2192096" lon="-1.8960297"><ele>63.0</ele><time>2026-04-11T08:05:01.36Z</time></trkpt><trkpt lat="37.2188664" lon="-1.8960001"><ele>71.0</ele><time>2026-04-11T08:05:02.361Z</time></trkpt><trkpt lat="37.2185219" lon="-1.8959747"><ele>79.0</ele><time>2026-04-11T08:05:03.361Z</time></trkpt><trkpt lat="37.2181718" lon="-1.8959556"><ele>81.5</ele><time>2026-04-11T08:05:04.36Z</time></trkpt><trkpt lat="37.2178289" lon="-1.895945"><ele>84.0</ele><time>2026-04-11T08:05:05.361Z</time></trkpt><trkpt lat="37.2174807" lon="-1.8959413"><ele>83.5</ele><time>2026-04-11T08:05:06.361Z</time></trkpt><trkpt lat="37.2171389" lon="-1.8959456"><ele>83.0</ele><time>2026-04-11T08:05:07.36Z</time></trkpt><trkpt lat="37.2168049" lon="-1.8959565"><ele>82.5</ele><time>2026-04-11T08:05:08.361Z</time></trkpt><trkpt lat="37.2164855" lon="-1.8959778"><ele>82.0</ele><time>2026-04-11T08:05:09.361Z</time></trkpt><trkpt lat="37.2161797" lon="-1.8960076"><ele>82.0</ele><time>2026-04-11T08:05:10.361Z</time></trkpt><trkpt lat="37.2158772" lon="-1.8960388"><ele>82.0</ele><time>2026-04-11T08:05:11.361Z</time></trkpt><trkpt lat="37.2155714" lon="-1.8960775"><ele>81.5</ele><time>2026-04-11T08:05:12.36Z</time></trkpt><trkpt lat="37.2152606" lon="-1.896128"><ele>81.0</ele><time>2026-04-11T08:05:13.361Z</time></trkpt><trkpt lat="37.2149453" lon="-1.8961822"><ele>83.0</ele><time>2026-04-11T08:05:14.361Z</time></trkpt><trkpt lat="37.2146355" lon="-1.89625"><ele>85.0</ele><time>2026-04-11T08:05:15.361Z</time></trkpt><trkpt lat="37.2143247" lon="-1.8963291"><ele>85.0</ele><time>2026-04-11T08:05:16.361Z</time></trkpt><trkpt lat="37.2140143" lon="-1.8964206"><ele>85.0</ele><time>2026-04-11T08:05:17.361Z</time></trkpt><trkpt lat="37.2137029" lon="-1.8965179"><ele>85.5</ele><time>2026-04-11T08:05:18.361Z</time></trkpt><trkpt lat="37.2133898" lon="-1.8966166"><ele>86.0</ele><time>2026-04-11T08:05:19.361Z</time></trkpt><trkpt lat="37.2130742" lon="-1.8967202"><ele>89.0</ele><time>2026-04-11T08:05:20.361Z</time></trkpt><trkpt lat="37.2127613" lon="-1.8968267"><ele>92.0</ele><time>2026-04-11T08:05:21.361Z</time></trkpt><trkpt lat="37.2124469" lon="-1.896939"><ele>93.0</ele><time>2026-04-11T08:05:22.361Z</time></trkpt><trkpt lat="37.2121322" lon="-1.897064"><ele>94.0</ele><time>2026-04-11T08:05:23.361Z</time></trkpt><trkpt lat="37.2118182" lon="-1.897197"><ele>94.0</ele><time>2026-04-11T08:05:24.361Z</time></trkpt><trkpt lat="37.2115044" lon="-1.8973389"><ele>94.0</ele><time>2026-04-11T08:05:25.361Z</time></trkpt><trkpt lat="37.2111902" lon="-1.8974823"><ele>95.5</ele><time>2026-04-11T08:05:26.36Z</time></trkpt><trkpt lat="37.2108761" lon="-1.8976322"><ele>97.0</ele><time>2026-04-11T08:05:27.361Z</time></trkpt><trkpt lat="37.2105636" lon="-1.8977895"><ele>97.0</ele><time>2026-04-11T08:05:28.361Z</time></trkpt><trkpt lat="37.2102543" lon="-1.8979585"><ele>97.0</ele><time>2026-04-11T08:05:29.361Z</time></trkpt><trkpt lat="37.2099474" lon="-1.8981359"><ele>98.0</ele><time>2026-04-11T08:05:30.361Z</time></trkpt><trkpt lat="37.2096426" lon="-1.8983213"><ele>99.0</ele><time>2026-04-11T08:05:31.361Z</time></trkpt><trkpt lat="37.2093407" lon="-1.8985149"><ele>100.0</ele><time>2026-04-11T08:05:32.36Z</time></trkpt><trkpt lat="37.2090383" lon="-1.8987141"><ele>101.0</ele><time>2026-04-11T08:05:33.361Z</time></trkpt><trkpt lat="37.2087397" lon="-1.8989254"><ele>101.0</ele><time>2026-04-11T08:05:34.361Z</time></trkpt><trkpt lat="37.2084478" lon="-1.8991448"><ele>101.0</ele><time>2026-04-11T08:05:35.361Z</time></trkpt><trkpt lat="37.208157" lon="-1.899371"><ele>103.0</ele><time>2026-04-11T08:05:36.361Z</time></trkpt><trkpt lat="37.2078695" lon="-1.8995983"><ele>105.0</ele><time>2026-04-11T08:05:37.361Z</time></trkpt><trkpt lat="37.2075825" lon="-1.8998295"><ele>103.5</ele><time>2026-04-11T08:05:38.361Z</time></trkpt><trkpt lat="37.2072987" lon="-1.9000674"><ele>102.0</ele><time>2026-04-11T08:05:39.361Z</time></trkpt><trkpt lat="37.2070239" lon="-1.9003141"><ele>102.0</ele><time>2026-04-11T08:05:40.361Z</time></trkpt><trkpt lat="37.2067525" lon="-1.9005694"><ele>102.0</ele><time>2026-04-11T08:05:41.36Z</time></trkpt><trkpt lat="37.2064833" lon="-1.9008303"><ele>101.0</ele><time>2026-04-11T08:05:42.361Z</time></trkpt><trkpt lat="37.2062178" lon="-1.9010971"><ele>100.0</ele><time>2026-04-11T08:05:43.361Z</time></trkpt><trkpt lat="37.2059556" lon="-1.9013688"><ele>100.0</ele><time>2026-04-11T08:05:44.36Z</time></trkpt><trkpt lat="37.2056958" lon="-1.901651"><ele>100.0</ele><time>2026-04-11T08:05:45.361Z</time></trkpt><trkpt lat="37.2054409" lon="-1.9019361"><ele>101.5</ele><time>2026-04-11T08:05:46.361Z</time></trkpt><trkpt lat="37.2051903" lon="-1.9022259"><ele>103.0</ele><time>2026-04-11T08:05:47.36Z</time></trkpt><trkpt lat="37.2049433" lon="-1.9025214"><ele>100.5</ele><time>2026-04-11T08:05:48.361Z</time></trkpt><trkpt lat="37.2047035" lon="-1.9028279"><ele>98.0</ele><time>2026-04-11T08:05:49.361Z</time></trkpt><trkpt lat="37.2044668" lon="-1.9031385"><ele>98.0</ele><time>2026-04-11T08:05:50.361Z</time></trkpt><trkpt lat="37.2042306" lon="-1.9034508"><ele>98.0</ele><time>2026-04-11T08:05:51.361Z</time></trkpt><trkpt lat="37.2039938" lon="-1.9037585"><ele>96.5</ele><time>2026-04-11T08:05:52.361Z</time></trkpt><trkpt lat="37.2037538" lon="-1.9040644"><ele>95.0</ele><time>2026-04-11T08:05:53.361Z</time></trkpt><trkpt lat="37.2035146" lon="-1.9043671"><ele>95.0</ele><time>2026-04-11T08:05:54.361Z</time></trkpt><trkpt lat="37.2032756" lon="-1.90467"><ele>95.0</ele><time>2026-04-11T08:05:55.361Z</time></trkpt><trkpt lat="37.2030337" lon="-1.9049731"><ele>93.0</ele><time>2026-04-11T08:05:56.36Z</time></trkpt><trkpt lat="37.2027905" lon="-1.9052695"><ele>91.0</ele><time>2026-04-11T08:05:57.361Z</time></trkpt><trkpt lat="37.2025476" lon="-1.9055621"><ele>89.0</ele><time>2026-04-11T08:05:58.36Z</time></trkpt><trkpt lat="37.2023013" lon="-1.9058534"><ele>87.0</ele><time>2026-04-11T08:05:59.361Z</time></trkpt><trkpt lat="37.2020513" lon="-1.9061396"><ele>87.0</ele><time>2026-04-11T08:06:00.361Z</time></trkpt><trkpt lat="37.2018013" lon="-1.9064226"><ele>87.0</ele><time>2026-04-11T08:06:01.361Z</time></trkpt><trkpt lat="37.2015455" lon="-1.9067068"><ele>87.0</ele><time>2026-04-11T08:06:02.36Z</time></trkpt><trkpt lat="37.2012921" lon="-1.9069919"><ele>87.0</ele><time>2026-04-11T08:06:03.361Z</time></trkpt><trkpt lat="37.2010338" lon="-1.907275"><ele>87.0</ele><time>2026-04-11T08:06:04.361Z</time></trkpt><trkpt lat="37.2007786" lon="-1.9075613"><ele>87.0</ele><time>2026-04-11T08:06:05.361Z</time></trkpt><trkpt lat="37.200527" lon="-1.9078473"><ele>82.0</ele><time>2026-04-11T08:06:06.36Z</time></trkpt><trkpt lat="37.2002714" lon="-1.9081336"><ele>77.0</ele><time>2026-04-11T08:06:07.361Z</time></trkpt><trkpt lat="37.2000175" lon="-1.9084167"><ele>77.5</ele><time>2026-04-11T08:06:08.36Z</time></trkpt><trkpt lat="37.1997631" lon="-1.9086952"><ele>78.0</ele><time>2026-04-11T08:06:09.361Z</time></trkpt><trkpt lat="37.1995052" lon="-1.9089811"><ele>78.0</ele><time>2026-04-11T08:06:10.361Z</time></trkpt><trkpt lat="37.1992512" lon="-1.909264"><ele>78.0</ele><time>2026-04-11T08:06:11.361Z</time></trkpt><trkpt lat="37.1989954" lon="-1.9095447"><ele>79.5</ele><time>2026-04-11T08:06:12.361Z</time></trkpt><trkpt lat="37.1987439" lon="-1.9098268"><ele>81.0</ele><time>2026-04-11T08:06:13.361Z</time></trkpt><trkpt lat="37.1984927" lon="-1.9101075"><ele>81.5</ele><time>2026-04-11T08:06:14.361Z</time></trkpt><trkpt lat="37.1982409" lon="-1.9103913"><ele>82.0</ele><time>2026-04-11T08:06:15.361Z</time></trkpt><trkpt lat="37.1979905" lon="-1.910672"><ele>84.0</ele><time>2026-04-11T08:06:16.361Z</time></trkpt><trkpt lat="37.1977376" lon="-1.9109533"><ele>86.0</ele><time>2026-04-11T08:06:17.361Z</time></trkpt><trkpt lat="37.1974841" lon="-1.9112343"><ele>88.0</ele><time>2026-04-11T08:06:18.361Z</time></trkpt><trkpt lat="37.1972299" lon="-1.91151"><ele>90.0</ele><time>2026-04-11T08:06:19.361Z</time></trkpt><trkpt lat="37.1969742" lon="-1.911781"><ele>90.5</ele><time>2026-04-11T08:06:20.361Z</time></trkpt><trkpt lat="37.1967115" lon="-1.9120504"><ele>91.0</ele><time>2026-04-11T08:06:21.361Z</time></trkpt><trkpt lat="37.1964499" lon="-1.9123184"><ele>93.5</ele><time>2026-04-11T08:06:22.361Z</time></trkpt><trkpt lat="37.1961857" lon="-1.9125838"><ele>96.0</ele><time>2026-04-11T08:06:23.361Z</time></trkpt><trkpt lat="37.1959214" lon="-1.9128481"><ele>96.0</ele><time>2026-04-11T08:06:24.361Z</time></trkpt><trkpt lat="37.1956545" lon="-1.9131091"><ele>96.0</ele><time>2026-04-11T08:06:25.36Z</time></trkpt><trkpt lat="37.1953861" lon="-1.913366"><ele>98.5</ele><time>2026-04-11T08:06:26.361Z</time></trkpt><trkpt lat="37.1951178" lon="-1.9136229"><ele>101.0</ele><time>2026-04-11T08:06:27.36Z</time></trkpt><trkpt lat="37.194846" lon="-1.9138732"><ele>100.0</ele><time>2026-04-11T08:06:28.36Z</time></trkpt><trkpt lat="37.1945737" lon="-1.9141289"><ele>99.0</ele><time>2026-04-11T08:06:29.361Z</time></trkpt><trkpt lat="37.1942976" lon="-1.9143769"><ele>101.0</ele><time>2026-04-11T08:06:30.361Z</time></trkpt><trkpt lat="37.1940204" lon="-1.9146192"><ele>103.0</ele><time>2026-04-11T08:06:31.361Z</time></trkpt><trkpt lat="37.193466" lon="-1.9151005"><ele>104.5</ele><time>2026-04-11T08:06:33.351Z</time></trkpt><trkpt lat="37.1931846" lon="-1.9153441"><ele>106.0</ele><time>2026-04-11T08:06:34.353Z</time></trkpt><trkpt lat="37.1929021" lon="-1.915582"><ele>106.0</ele><time>2026-04-11T08:06:35.355Z</time></trkpt><trkpt lat="37.1926172" lon="-1.9158165"><ele>106.0</ele><time>2026-04-11T08:06:36.355Z</time></trkpt><trkpt lat="37.1923317" lon="-1.9160491"><ele>108.0</ele><time>2026-04-11T08:06:37.35Z</time></trkpt><trkpt lat="37.1920422" lon="-1.9162761"><ele>110.0</ele><time>2026-04-11T08:06:38.35Z</time></trkpt><trkpt lat="37.1917505" lon="-1.9165014"><ele>110.5</ele><time>2026-04-11T08:06:39.351Z</time></trkpt><trkpt lat="37.1914586" lon="-1.9167235"><ele>111.0</ele><time>2026-04-11T08:06:40.351Z</time></trkpt><trkpt lat="37.1911694" lon="-1.9169461"><ele>111.5</ele><time>2026-04-11T08:06:41.351Z</time></trkpt><trkpt lat="37.190876" lon="-1.9171688"><ele>112.0</ele><time>2026-04-11T08:06:42.351Z</time></trkpt><trkpt lat="37.1905811" lon="-1.9173921"><ele>111.0</ele><time>2026-04-11T08:06:43.351Z</time></trkpt><trkpt lat="37.1902889" lon="-1.9176147"><ele>110.0</ele><time>2026-04-11T08:06:44.351Z</time></trkpt><trkpt lat="37.1899966" lon="-1.9178381"><ele>109.0</ele><time>2026-04-11T08:06:45.351Z</time></trkpt><trkpt lat="37.1897047" lon="-1.9180643"><ele>108.0</ele><time>2026-04-11T08:06:46.351Z</time></trkpt><trkpt lat="37.1894086" lon="-1.9182857"><ele>108.5</ele><time>2026-04-11T08:06:47.351Z</time></trkpt><trkpt lat="37.1891165" lon="-1.9185072"><ele>109.0</ele><time>2026-04-11T08:06:48.351Z</time></trkpt><trkpt lat="37.1888231" lon="-1.9187287"><ele>108.0</ele><time>2026-04-11T08:06:49.351Z</time></trkpt><trkpt lat="37.1885304" lon="-1.9189497"><ele>107.0</ele><time>2026-04-11T08:06:50.351Z</time></trkpt><trkpt lat="37.188237" lon="-1.919172"><ele>106.0</ele><time>2026-04-11T08:06:51.351Z</time></trkpt><trkpt lat="37.1879465" lon="-1.9193935"><ele>105.0</ele><time>2026-04-11T08:06:52.351Z</time></trkpt><trkpt lat="37.1876522" lon="-1.9196165"><ele>105.0</ele><time>2026-04-11T08:06:53.351Z</time></trkpt><trkpt lat="37.1873623" lon="-1.9198375"><ele>105.0</ele><time>2026-04-11T08:06:54.351Z</time></trkpt><trkpt lat="37.1870718" lon="-1.9200623"><ele>104.0</ele><time>2026-04-11T08:06:55.35Z</time></trkpt><trkpt lat="37.1867808" lon="-1.9202853"><ele>103.0</ele><time>2026-04-11T08:06:56.351Z</time></trkpt><trkpt lat="37.1864908" lon="-1.9205054"><ele>102.0</ele><time>2026-04-11T08:06:57.351Z</time></trkpt><trkpt lat="37.1861994" lon="-1.9207229"><ele>101.0</ele><time>2026-04-11T08:06:58.351Z</time></trkpt><trkpt lat="37.1859075" lon="-1.9209432"><ele>104.0</ele><time>2026-04-11T08:06:59.351Z</time></trkpt><trkpt lat="37.1856172" lon="-1.9211644"><ele>107.0</ele><time>2026-04-11T08:07:00.351Z</time></trkpt><trkpt lat="37.1853304" lon="-1.9213895"><ele>107.0</ele><time>2026-04-11T08:07:01.351Z</time></trkpt><trkpt lat="37.1850429" lon="-1.9216197"><ele>107.0</ele><time>2026-04-11T08:07:02.351Z</time></trkpt><trkpt lat="37.1847588" lon="-1.921856"><ele>107.5</ele><time>2026-04-11T08:07:03.351Z</time></trkpt><trkpt lat="37.1844798" lon="-1.9220961"><ele>108.0</ele><time>2026-04-11T08:07:04.351Z</time></trkpt><trkpt lat="37.1842039" lon="-1.9223452"><ele>106.5</ele><time>2026-04-11T08:07:05.35Z</time></trkpt><trkpt lat="37.1839304" lon="-1.9225961"><ele>105.0</ele><time>2026-04-11T08:07:06.35Z</time></trkpt><trkpt lat="37.1836603" lon="-1.9228536"><ele>105.0</ele><time>2026-04-11T08:07:07.351Z</time></trkpt><trkpt lat="37.1833928" lon="-1.9231157"><ele>105.0</ele><time>2026-04-11T08:07:08.351Z</time></trkpt><trkpt lat="37.183131" lon="-1.923385"><ele>103.0</ele><time>2026-04-11T08:07:09.351Z</time></trkpt><trkpt lat="37.1828772" lon="-1.9236617"><ele>101.0</ele><time>2026-04-11T08:07:10.351Z</time></trkpt><trkpt lat="37.1826235" lon="-1.9239464"><ele>100.5</ele><time>2026-04-11T08:07:11.351Z</time></trkpt><trkpt lat="37.1823757" lon="-1.9242378"><ele>100.0</ele><time>2026-04-11T08:07:12.351Z</time></trkpt><trkpt lat="37.1821312" lon="-1.9245339"><ele>99.5</ele><time>2026-04-11T08:07:13.351Z</time></trkpt><trkpt lat="37.1818923" lon="-1.9248374"><ele>99.0</ele><time>2026-04-11T08:07:14.351Z</time></trkpt><trkpt lat="37.1816614" lon="-1.925145"><ele>99.5</ele><time>2026-04-11T08:07:15.351Z</time></trkpt><trkpt lat="37.181432" lon="-1.9254585"><ele>100.0</ele><time>2026-04-11T08:07:16.351Z</time></trkpt><trkpt lat="37.1812043" lon="-1.9257799"><ele>100.0</ele><time>2026-04-11T08:07:17.351Z</time></trkpt><trkpt lat="37.1809848" lon="-1.9261038"><ele>100.0</ele><time>2026-04-11T08:07:18.351Z</time></trkpt><trkpt lat="37.1807717" lon="-1.9264354"><ele>98.5</ele><time>2026-04-11T08:07:19.351Z</time></trkpt><trkpt lat="37.1805626" lon="-1.9267699"><ele>97.0</ele><time>2026-04-11T08:07:20.351Z</time></trkpt><trkpt lat="37.1803587" lon="-1.9271081"><ele>97.0</ele><time>2026-04-11T08:07:21.35Z</time></trkpt><trkpt lat="37.1801587" lon="-1.927449"><ele>97.0</ele><time>2026-04-11T08:07:22.351Z</time></trkpt><trkpt lat="37.1799663" lon="-1.9277989"><ele>96.5</ele><time>2026-04-11T08:07:23.35Z</time></trkpt><trkpt lat="37.179778" lon="-1.9281541"><ele>96.0</ele><time>2026-04-11T08:07:24.35Z</time></trkpt><trkpt lat="37.1795968" lon="-1.9285139"><ele>96.0</ele><time>2026-04-11T08:07:25.35Z</time></trkpt><trkpt lat="37.1794202" lon="-1.9288769"><ele>96.0</ele><time>2026-04-11T08:07:26.351Z</time></trkpt><trkpt lat="37.1792464" lon="-1.9292431"><ele>96.5</ele><time>2026-04-11T08:07:27.35Z</time></trkpt><trkpt lat="37.1790807" lon="-1.9296101"><ele>97.0</ele><time>2026-04-11T08:07:28.351Z</time></trkpt><trkpt lat="37.1789209" lon="-1.9299843"><ele>94.5</ele><time>2026-04-11T08:07:29.351Z</time></trkpt><trkpt lat="37.1787637" lon="-1.9303634"><ele>92.0</ele><time>2026-04-11T08:07:30.351Z</time></trkpt><trkpt lat="37.178612" lon="-1.9307458"><ele>91.0</ele><time>2026-04-11T08:07:31.351Z</time></trkpt><trkpt lat="37.1784613" lon="-1.9311258"><ele>90.0</ele><time>2026-04-11T08:07:32.35Z</time></trkpt><trkpt lat="37.1783151" lon="-1.9315142"><ele>92.0</ele><time>2026-04-11T08:07:33.351Z</time></trkpt><trkpt lat="37.1781676" lon="-1.931898"><ele>94.0</ele><time>2026-04-11T08:07:34.351Z</time></trkpt><trkpt lat="37.1780219" lon="-1.9322808"><ele>95.0</ele><time>2026-04-11T08:07:35.351Z</time></trkpt><trkpt lat="37.1778772" lon="-1.9326673"><ele>96.0</ele><time>2026-04-11T08:07:36.351Z</time></trkpt><trkpt lat="37.1777318" lon="-1.9330524"><ele>97.0</ele><time>2026-04-11T08:07:37.35Z</time></trkpt><trkpt lat="37.1775858" lon="-1.9334357"><ele>98.0</ele><time>2026-04-11T08:07:38.351Z</time></trkpt><trkpt lat="37.1774422" lon="-1.9338197"><ele>99.5</ele><time>2026-04-11T08:07:39.35Z</time></trkpt><trkpt lat="37.1772946" lon="-1.9342028"><ele>101.0</ele><time>2026-04-11T08:07:40.351Z</time></trkpt><trkpt lat="37.1771478" lon="-1.9345893"><ele>101.0</ele><time>2026-04-11T08:07:41.351Z</time></trkpt><trkpt lat="37.1770051" lon="-1.9349685"><ele>101.0</ele><time>2026-04-11T08:07:42.351Z</time></trkpt><trkpt lat="37.1768641" lon="-1.9353541"><ele>101.5</ele><time>2026-04-11T08:07:43.351Z</time></trkpt><trkpt lat="37.1767189" lon="-1.935735"><ele>102.0</ele><time>2026-04-11T08:07:44.351Z</time></trkpt><trkpt lat="37.1765756" lon="-1.9361157"><ele>104.0</ele><time>2026-04-11T08:07:45.351Z</time></trkpt><trkpt lat="37.1764328" lon="-1.9364943"><ele>106.0</ele><time>2026-04-11T08:07:46.35Z</time></trkpt><trkpt lat="37.1762823" lon="-1.9368819"><ele>106.0</ele><time>2026-04-11T08:07:47.351Z</time></trkpt><trkpt lat="37.1761391" lon="-1.9372668"><ele>106.0</ele><time>2026-04-11T08:07:48.35Z</time></trkpt><trkpt lat="37.1759955" lon="-1.9376503"><ele>105.5</ele><time>2026-04-11T08:07:49.351Z</time></trkpt><trkpt lat="37.1758501" lon="-1.9380362"><ele>105.0</ele><time>2026-04-11T08:07:50.351Z</time></trkpt><trkpt lat="37.175703" lon="-1.9384172"><ele>111.5</ele><time>2026-04-11T08:07:51.351Z</time></trkpt><trkpt lat="37.1755575" lon="-1.9387986"><ele>118.0</ele><time>2026-04-11T08:07:52.35Z</time></trkpt><trkpt lat="37.175411" lon="-1.9391808"><ele>117.0</ele><time>2026-04-11T08:07:53.351Z</time></trkpt><trkpt lat="37.1752654" lon="-1.9395643"><ele>116.0</ele><time>2026-04-11T08:07:54.351Z</time></trkpt><trkpt lat="37.1751168" lon="-1.9399456"><ele>115.5</ele><time>2026-04-11T08:07:55.351Z</time></trkpt><trkpt lat="37.174965" lon="-1.9403261"><ele>115.0</ele><time>2026-04-11T08:07:56.351Z</time></trkpt><trkpt lat="37.1748" lon="-1.9407034"><ele>117.5</ele><time>2026-04-11T08:07:57.351Z</time></trkpt><trkpt lat="37.1746269" lon="-1.9410672"><ele>120.0</ele><time>2026-04-11T08:07:58.35Z</time></trkpt><trkpt lat="37.1744438" lon="-1.941418"><ele>120.0</ele><time>2026-04-11T08:07:59.351Z</time></trkpt><trkpt lat="37.1742417" lon="-1.9417528"><ele>120.0</ele><time>2026-04-11T08:08:00.35Z</time></trkpt><trkpt lat="37.1740278" lon="-1.942078"><ele>119.5</ele><time>2026-04-11T08:08:01.351Z</time></trkpt><trkpt lat="37.1738024" lon="-1.942391"><ele>119.0</ele><time>2026-04-11T08:08:02.351Z</time></trkpt><trkpt lat="37.1735643" lon="-1.9426944"><ele>118.5</ele><time>2026-04-11T08:08:03.351Z</time></trkpt><trkpt lat="37.1733149" lon="-1.9429809"><ele>118.0</ele><time>2026-04-11T08:08:04.351Z</time></trkpt><trkpt lat="37.1730567" lon="-1.9432601"><ele>121.0</ele><time>2026-04-11T08:08:05.35Z</time></trkpt><trkpt lat="37.1727891" lon="-1.9435243"><ele>124.0</ele><time>2026-04-11T08:08:06.35Z</time></trkpt><trkpt lat="37.1725142" lon="-1.9437679"><ele>122.0</ele><time>2026-04-11T08:08:07.35Z</time></trkpt><trkpt lat="37.1722307" lon="-1.9439937"><ele>120.0</ele><time>2026-04-11T08:08:08.351Z</time></trkpt><trkpt lat="37.1719385" lon="-1.9442104"><ele>121.0</ele><time>2026-04-11T08:08:09.351Z</time></trkpt><trkpt lat="37.1716376" lon="-1.9444095"><ele>122.0</ele><time>2026-04-11T08:08:10.351Z</time></trkpt><trkpt lat="37.1713316" lon="-1.9445914"><ele>123.5</ele><time>2026-04-11T08:08:11.351Z</time></trkpt><trkpt lat="37.1710203" lon="-1.9447573"><ele>125.0</ele><time>2026-04-11T08:08:12.35Z</time></trkpt><trkpt lat="37.170704" lon="-1.9449049"><ele>128.5</ele><time>2026-04-11T08:08:13.351Z</time></trkpt><trkpt lat="37.1703807" lon="-1.9450389"><ele>132.0</ele><time>2026-04-11T08:08:14.351Z</time></trkpt><trkpt lat="37.1700521" lon="-1.9451518"><ele>143.0</ele><time>2026-04-11T08:08:15.351Z</time></trkpt><trkpt lat="37.1697212" lon="-1.9452535"><ele>154.0</ele><time>2026-04-11T08:08:16.351Z</time></trkpt><trkpt lat="37.1693897" lon="-1.9453412"><ele>154.0</ele><time>2026-04-11T08:08:17.351Z</time></trkpt><trkpt lat="37.1690523" lon="-1.94541"><ele>154.0</ele><time>2026-04-11T08:08:18.351Z</time></trkpt><trkpt lat="37.1687149" lon="-1.9454536"><ele>157.0</ele><time>2026-04-11T08:08:19.35Z</time></trkpt><trkpt lat="37.1683748" lon="-1.9454774"><ele>160.0</ele><time>2026-04-11T08:08:20.35Z</time></trkpt><trkpt lat="37.1680347" lon="-1.9454827"><ele>160.5</ele><time>2026-04-11T08:08:21.351Z</time></trkpt><trkpt lat="37.1677007" lon="-1.945468"><ele>161.0</ele><time>2026-04-11T08:08:22.351Z</time></trkpt><trkpt lat="37.1673596" lon="-1.9454451"><ele>166.5</ele><time>2026-04-11T08:08:23.35Z</time></trkpt><trkpt lat="37.1670206" lon="-1.9454191"><ele>172.0</ele><time>2026-04-11T08:08:24.351Z</time></trkpt><trkpt lat="37.166682" lon="-1.9453969"><ele>170.5</ele><time>2026-04-11T08:08:25.351Z</time></trkpt><trkpt lat="37.1663425" lon="-1.945387"><ele>169.0</ele><time>2026-04-11T08:08:26.351Z</time></trkpt><trkpt lat="37.166" lon="-1.9453985"><ele>160.5</ele><time>2026-04-11T08:08:27.351Z</time></trkpt><trkpt lat="37.1656607" lon="-1.9454301"><ele>152.0</ele><time>2026-04-11T08:08:28.351Z</time></trkpt><trkpt lat="37.1653203" lon="-1.9454734"><ele>152.0</ele><time>2026-04-11T08:08:29.351Z</time></trkpt><trkpt lat="37.1649816" lon="-1.9455269"><ele>152.0</ele><time>2026-04-11T08:08:30.351Z</time></trkpt><trkpt lat="37.1646441" lon="-1.9456062"><ele>151.0</ele><time>2026-04-11T08:08:31.351Z</time></trkpt><trkpt lat="37.1643117" lon="-1.9456982"><ele>150.0</ele><time>2026-04-11T08:08:32.35Z</time></trkpt><trkpt lat="37.1639861" lon="-1.9458157"><ele>151.0</ele><time>2026-04-11T08:08:33.351Z</time></trkpt><trkpt lat="37.1636632" lon="-1.945958"><ele>152.0</ele><time>2026-04-11T08:08:34.351Z</time></trkpt><trkpt lat="37.1633465" lon="-1.9461156"><ele>152.0</ele><time>2026-04-11T08:08:35.351Z</time></trkpt><trkpt lat="37.1630368" lon="-1.9462899"><ele>152.0</ele><time>2026-04-11T08:08:36.351Z</time></trkpt><trkpt lat="37.1627327" lon="-1.9464862"><ele>152.0</ele><time>2026-04-11T08:08:37.35Z</time></trkpt><trkpt lat="37.1624366" lon="-1.9467012"><ele>152.0</ele><time>2026-04-11T08:08:38.351Z</time></trkpt><trkpt lat="37.1621496" lon="-1.9469361"><ele>154.0</ele><time>2026-04-11T08:08:39.351Z</time></trkpt><trkpt lat="37.1618697" lon="-1.9471801"><ele>156.0</ele><time>2026-04-11T08:08:40.351Z</time></trkpt><trkpt lat="37.1615984" lon="-1.9474356"><ele>156.0</ele><time>2026-04-11T08:08:41.351Z</time></trkpt><trkpt lat="37.1613338" lon="-1.9477063"><ele>156.0</ele><time>2026-04-11T08:08:42.351Z</time></trkpt><trkpt lat="37.1610786" lon="-1.947988"><ele>156.0</ele><time>2026-04-11T08:08:43.35Z</time></trkpt><trkpt lat="37.1608223" lon="-1.9482728"><ele>156.0</ele><time>2026-04-11T08:08:44.35Z</time></trkpt><trkpt lat="37.1605673" lon="-1.9485538"><ele>153.5</ele><time>2026-04-11T08:08:45.351Z</time></trkpt><trkpt lat="37.160308" lon="-1.9488339"><ele>151.0</ele><time>2026-04-11T08:08:46.351Z</time></trkpt><trkpt lat="37.1600474" lon="-1.9491102"><ele>149.0</ele><time>2026-04-11T08:08:47.351Z</time></trkpt><trkpt lat="37.1597849" lon="-1.9493777"><ele>147.0</ele><time>2026-04-11T08:08:48.351Z</time></trkpt><trkpt lat="37.1595163" lon="-1.9496402"><ele>147.0</ele><time>2026-04-11T08:08:49.351Z</time></trkpt><trkpt lat="37.1592443" lon="-1.9498959"><ele>147.0</ele><time>2026-04-11T08:08:50.351Z</time></trkpt><trkpt lat="37.1589665" lon="-1.95014"><ele>147.0</ele><time>2026-04-11T08:08:51.35Z</time></trkpt><trkpt lat="37.1586887" lon="-1.9503739"><ele>147.0</ele><time>2026-04-11T08:08:52.351Z</time></trkpt><trkpt lat="37.1583934" lon="-1.9506029"><ele>147.5</ele><time>2026-04-11T08:08:53.351Z</time></trkpt><trkpt lat="37.1581103" lon="-1.9508219"><ele>148.0</ele><time>2026-04-11T08:08:54.351Z</time></trkpt><trkpt lat="37.1578219" lon="-1.9510322"><ele>148.0</ele><time>2026-04-11T08:08:55.351Z</time></trkpt><trkpt lat="37.1575321" lon="-1.9512541"><ele>148.0</ele><time>2026-04-11T08:08:56.35Z</time></trkpt><trkpt lat="37.1572349" lon="-1.9514766"><ele>147.5</ele><time>2026-04-11T08:08:57.351Z</time></trkpt><trkpt lat="37.1569421" lon="-1.9516975"><ele>147.0</ele><time>2026-04-11T08:08:58.351Z</time></trkpt><trkpt lat="37.1566508" lon="-1.9519149"><ele>144.5</ele><time>2026-04-11T08:08:59.35Z</time></trkpt><trkpt lat="37.1563569" lon="-1.9521334"><ele>142.0</ele><time>2026-04-11T08:09:00.35Z</time></trkpt><trkpt lat="37.156065" lon="-1.9523434"><ele>142.0</ele><time>2026-04-11T08:09:01.351Z</time></trkpt><trkpt lat="37.1557695" lon="-1.9525642"><ele>142.0</ele><time>2026-04-11T08:09:02.351Z</time></trkpt><trkpt lat="37.1554727" lon="-1.9527779"><ele>142.0</ele><time>2026-04-11T08:09:03.35Z</time></trkpt><trkpt lat="37.1551788" lon="-1.9529963"><ele>142.0</ele><time>2026-04-11T08:09:04.35Z</time></trkpt><trkpt lat="37.1548838" lon="-1.9532107"><ele>139.5</ele><time>2026-04-11T08:09:05.351Z</time></trkpt><trkpt lat="37.1545901" lon="-1.9534247"><ele>137.0</ele><time>2026-04-11T08:09:06.351Z</time></trkpt><trkpt lat="37.1542964" lon="-1.9536407"><ele>134.0</ele><time>2026-04-11T08:09:07.351Z</time></trkpt><trkpt lat="37.1540024" lon="-1.9538598"><ele>131.0</ele><time>2026-04-11T08:09:08.351Z</time></trkpt><trkpt lat="37.15371" lon="-1.9540749"><ele>132.5</ele><time>2026-04-11T08:09:09.351Z</time></trkpt><trkpt lat="37.1534164" lon="-1.9542919"><ele>134.0</ele><time>2026-04-11T08:09:10.351Z</time></trkpt><trkpt lat="37.153124" lon="-1.9545039"><ele>134.0</ele><time>2026-04-11T08:09:11.351Z</time></trkpt><trkpt lat="37.1528318" lon="-1.9547218"><ele>134.0</ele><time>2026-04-11T08:09:12.351Z</time></trkpt><trkpt lat="37.1525401" lon="-1.9549392"><ele>135.0</ele><time>2026-04-11T08:09:13.351Z</time></trkpt><trkpt lat="37.1522521" lon="-1.9551591"><ele>136.0</ele><time>2026-04-11T08:09:14.351Z</time></trkpt><trkpt lat="37.1519704" lon="-1.955392"><ele>136.0</ele><time>2026-04-11T08:09:15.351Z</time></trkpt><trkpt lat="37.1516955" lon="-1.9556387"><ele>136.0</ele><time>2026-04-11T08:09:16.351Z</time></trkpt><trkpt lat="37.151431" lon="-1.9559036"><ele>137.5</ele><time>2026-04-11T08:09:17.351Z</time></trkpt><trkpt lat="37.1511724" lon="-1.9561767"><ele>139.0</ele><time>2026-04-11T08:09:18.351Z</time></trkpt><trkpt lat="37.1509162" lon="-1.9564527"><ele>138.5</ele><time>2026-04-11T08:09:19.351Z</time></trkpt><trkpt lat="37.1506616" lon="-1.9567254"><ele>138.0</ele><time>2026-04-11T08:09:20.351Z</time></trkpt><trkpt lat="37.1504056" lon="-1.956998"><ele>138.0</ele><time>2026-04-11T08:09:21.35Z</time></trkpt><trkpt lat="37.150147" lon="-1.9572701"><ele>138.0</ele><time>2026-04-11T08:09:22.351Z</time></trkpt><trkpt lat="37.1498858" lon="-1.9575389"><ele>139.0</ele><time>2026-04-11T08:09:23.351Z</time></trkpt><trkpt lat="37.1496246" lon="-1.9578069"><ele>140.0</ele><time>2026-04-11T08:09:24.35Z</time></trkpt><trkpt lat="37.1493586" lon="-1.9580794"><ele>140.0</ele><time>2026-04-11T08:09:25.351Z</time></trkpt><trkpt lat="37.1490947" lon="-1.9583493"><ele>140.0</ele><time>2026-04-11T08:09:26.351Z</time></trkpt><trkpt lat="37.1488345" lon="-1.9586254"><ele>141.5</ele><time>2026-04-11T08:09:27.351Z</time></trkpt><trkpt lat="37.1485767" lon="-1.9589003"><ele>143.0</ele><time>2026-04-11T08:09:28.351Z</time></trkpt><trkpt lat="37.1483143" lon="-1.9591694"><ele>145.0</ele><time>2026-04-11T08:09:29.351Z</time></trkpt><trkpt lat="37.1480533" lon="-1.9594391"><ele>147.0</ele><time>2026-04-11T08:09:30.351Z</time></trkpt><trkpt lat="37.1477933" lon="-1.9597101"><ele>147.0</ele><time>2026-04-11T08:09:31.35Z</time></trkpt><trkpt lat="37.1475315" lon="-1.9599843"><ele>147.0</ele><time>2026-04-11T08:09:32.351Z</time></trkpt><trkpt lat="37.1472769" lon="-1.9602608"><ele>144.5</ele><time>2026-04-11T08:09:33.35Z</time></trkpt><trkpt lat="37.1470287" lon="-1.9605515"><ele>142.0</ele><time>2026-04-11T08:09:34.351Z</time></trkpt><trkpt lat="37.1467959" lon="-1.9608581"><ele>141.5</ele><time>2026-04-11T08:09:35.351Z</time></trkpt><trkpt lat="37.1465741" lon="-1.9611806"><ele>141.0</ele><time>2026-04-11T08:09:36.351Z</time></trkpt><trkpt lat="37.1463651" lon="-1.9615147"><ele>143.0</ele><time>2026-04-11T08:09:37.351Z</time></trkpt><trkpt lat="37.1461711" lon="-1.9618646"><ele>145.0</ele><time>2026-04-11T08:09:38.351Z</time></trkpt><trkpt lat="37.146001" lon="-1.9622304"><ele>137.0</ele><time>2026-04-11T08:09:39.351Z</time></trkpt><trkpt lat="37.1458501" lon="-1.962609"><ele>129.0</ele><time>2026-04-11T08:09:40.351Z</time></trkpt><trkpt lat="37.1457165" lon="-1.9630022"><ele>125.5</ele><time>2026-04-11T08:09:41.351Z</time></trkpt><trkpt lat="37.1456223" lon="-1.9634033"><ele>122.0</ele><time>2026-04-11T08:09:42.351Z</time></trkpt><trkpt lat="37.1455347" lon="-1.963807"><ele>122.0</ele><time>2026-04-11T08:09:43.351Z</time></trkpt><trkpt lat="37.1454809" lon="-1.9641917"><ele>122.0</ele><time>2026-04-11T08:09:44.351Z</time></trkpt><trkpt lat="37.145442" lon="-1.9645472"><ele>135.5</ele><time>2026-04-11T08:09:45.35Z</time></trkpt><trkpt lat="37.145412" lon="-1.9648909"><ele>149.0</ele><time>2026-04-11T08:09:46.351Z</time></trkpt><trkpt lat="37.1454234" lon="-1.9652325"><ele>155.0</ele><time>2026-04-11T08:09:47.351Z</time></trkpt><trkpt lat="37.1454149" lon="-1.9655644"><ele>161.0</ele><time>2026-04-11T08:09:48.351Z</time></trkpt><trkpt lat="37.1454372" lon="-1.9659013"><ele>162.0</ele><time>2026-04-11T08:09:49.351Z</time></trkpt><trkpt lat="37.145463" lon="-1.9662429"><ele>163.0</ele><time>2026-04-11T08:09:50.351Z</time></trkpt><trkpt lat="37.1455076" lon="-1.9665826"><ele>165.5</ele><time>2026-04-11T08:09:51.351Z</time></trkpt><trkpt lat="37.1455651" lon="-1.9669213"><ele>168.0</ele><time>2026-04-11T08:09:52.35Z</time></trkpt><trkpt lat="37.1456191" lon="-1.9672703"><ele>167.0</ele><time>2026-04-11T08:09:53.351Z</time></trkpt><trkpt lat="37.1456707" lon="-1.9676216"><ele>166.0</ele><time>2026-04-11T08:09:54.351Z</time></trkpt><trkpt lat="37.1457188" lon="-1.9679727"><ele>166.0</ele><time>2026-04-11T08:09:55.351Z</time></trkpt><trkpt lat="37.1457688" lon="-1.9683307"><ele>166.0</ele><time>2026-04-11T08:09:56.351Z</time></trkpt><trkpt lat="37.1458211" lon="-1.9686882"><ele>164.5</ele><time>2026-04-11T08:09:57.351Z</time></trkpt><trkpt lat="37.1458741" lon="-1.9690487"><ele>163.0</ele><time>2026-04-11T08:09:58.351Z</time></trkpt><trkpt lat="37.1459298" lon="-1.969413"><ele>163.0</ele><time>2026-04-11T08:09:59.351Z</time></trkpt><trkpt lat="37.1459777" lon="-1.969779"><ele>163.0</ele><time>2026-04-11T08:10:00.351Z</time></trkpt><trkpt lat="37.1460292" lon="-1.9701444"><ele>163.0</ele><time>2026-04-11T08:10:01.351Z</time></trkpt><trkpt lat="37.146085" lon="-1.970518"><ele>163.0</ele><time>2026-04-11T08:10:02.351Z</time></trkpt><trkpt lat="37.1461455" lon="-1.9708886"><ele>165.0</ele><time>2026-04-11T08:10:03.351Z</time></trkpt><trkpt lat="37.1461997" lon="-1.9712595"><ele>167.0</ele><time>2026-04-11T08:10:04.351Z</time></trkpt><trkpt lat="37.1462552" lon="-1.971638"><ele>167.5</ele><time>2026-04-11T08:10:05.351Z</time></trkpt><trkpt lat="37.1463069" lon="-1.9720153"><ele>168.0</ele><time>2026-04-11T08:10:06.351Z</time></trkpt><trkpt lat="37.1463604" lon="-1.9723959"><ele>169.5</ele><time>2026-04-11T08:10:07.351Z</time></trkpt><trkpt lat="37.146414" lon="-1.9727811"><ele>171.0</ele><time>2026-04-11T08:10:08.351Z</time></trkpt><trkpt lat="37.1464678" lon="-1.9731666"><ele>172.0</ele><time>2026-04-11T08:10:09.351Z</time></trkpt><trkpt lat="37.1465225" lon="-1.9735552"><ele>173.0</ele><time>2026-04-11T08:10:10.351Z</time></trkpt><trkpt lat="37.1465744" lon="-1.9739393"><ele>177.0</ele><time>2026-04-11T08:10:11.351Z</time></trkpt><trkpt lat="37.1466303" lon="-1.9743321"><ele>181.0</ele><time>2026-04-11T08:10:12.351Z</time></trkpt><trkpt lat="37.1466893" lon="-1.974728"><ele>181.0</ele><time>2026-04-11T08:10:13.351Z</time></trkpt><trkpt lat="37.1467467" lon="-1.9751234"><ele>181.0</ele><time>2026-04-11T08:10:14.351Z</time></trkpt><trkpt lat="37.1468072" lon="-1.9755292"><ele>181.0</ele><time>2026-04-11T08:10:15.35Z</time></trkpt><trkpt lat="37.1468588" lon="-1.9759288"><ele>181.0</ele><time>2026-04-11T08:10:16.351Z</time></trkpt><trkpt lat="37.1469157" lon="-1.9763269"><ele>182.0</ele><time>2026-04-11T08:10:17.351Z</time></trkpt><trkpt lat="37.1469768" lon="-1.9767297"><ele>183.0</ele><time>2026-04-11T08:10:18.351Z</time></trkpt><trkpt lat="37.1470361" lon="-1.9771319"><ele>183.0</ele><time>2026-04-11T08:10:19.351Z</time></trkpt><trkpt lat="37.1470908" lon="-1.9775408"><ele>183.0</ele><time>2026-04-11T08:10:20.351Z</time></trkpt><trkpt lat="37.1471466" lon="-1.9779434"><ele>183.0</ele><time>2026-04-11T08:10:21.351Z</time></trkpt><trkpt lat="37.1472054" lon="-1.9783403"><ele>183.0</ele><time>2026-04-11T08:10:22.351Z</time></trkpt><trkpt lat="37.1472606" lon="-1.9787298"><ele>183.5</ele><time>2026-04-11T08:10:23.351Z</time></trkpt><trkpt lat="37.1473156" lon="-1.9791212"><ele>184.0</ele><time>2026-04-11T08:10:24.351Z</time></trkpt><trkpt lat="37.1473694" lon="-1.9795095"><ele>186.0</ele><time>2026-04-11T08:10:25.35Z</time></trkpt><trkpt lat="37.1474231" lon="-1.9798999"><ele>188.0</ele><time>2026-04-11T08:10:26.35Z</time></trkpt><trkpt lat="37.1474786" lon="-1.9802925"><ele>189.0</ele><time>2026-04-11T08:10:27.351Z</time></trkpt><trkpt lat="37.1475338" lon="-1.9806808"><ele>190.0</ele><time>2026-04-11T08:10:28.351Z</time></trkpt><trkpt lat="37.1475902" lon="-1.981072"><ele>191.0</ele><time>2026-04-11T08:10:29.351Z</time></trkpt><trkpt lat="37.1476418" lon="-1.9814653"><ele>192.0</ele><time>2026-04-11T08:10:30.351Z</time></trkpt><trkpt lat="37.1476847" lon="-1.9818617"><ele>194.0</ele><time>2026-04-11T08:10:31.351Z</time></trkpt><trkpt lat="37.1477126" lon="-1.9822593"><ele>196.0</ele><time>2026-04-11T08:10:32.351Z</time></trkpt><trkpt lat="37.1477212" lon="-1.9826306"><ele>196.5</ele><time>2026-04-11T08:10:33.351Z</time></trkpt><trkpt lat="37.147722" lon="-1.9830073"><ele>197.0</ele><time>2026-04-11T08:10:34.351Z</time></trkpt><trkpt lat="37.1477094" lon="-1.9833741"><ele>197.0</ele><time>2026-04-11T08:10:35.351Z</time></trkpt><trkpt lat="37.1476807" lon="-1.9837448"><ele>197.0</ele><time>2026-04-11T08:10:36.351Z</time></trkpt><trkpt lat="37.1476324" lon="-1.9841105"><ele>196.0</ele><time>2026-04-11T08:10:37.351Z</time></trkpt><trkpt lat="37.1475679" lon="-1.9844734"><ele>195.0</ele><time>2026-04-11T08:10:38.351Z</time></trkpt><trkpt lat="37.1475013" lon="-1.9848337"><ele>195.0</ele><time>2026-04-11T08:10:39.351Z</time></trkpt><trkpt lat="37.1474143" lon="-1.9851883"><ele>195.0</ele><time>2026-04-11T08:10:40.351Z</time></trkpt><trkpt lat="37.147309" lon="-1.9855424"><ele>194.0</ele><time>2026-04-11T08:10:41.35Z</time></trkpt><trkpt lat="37.1471881" lon="-1.9858916"><ele>193.0</ele><time>2026-04-11T08:10:42.351Z</time></trkpt><trkpt lat="37.1470533" lon="-1.9862364"><ele>193.0</ele><time>2026-04-11T08:10:43.351Z</time></trkpt><trkpt lat="37.1469047" lon="-1.9865719"><ele>193.0</ele><time>2026-04-11T08:10:44.351Z</time></trkpt><trkpt lat="37.1467415" lon="-1.9869032"><ele>196.0</ele><time>2026-04-11T08:10:45.351Z</time></trkpt><trkpt lat="37.1465631" lon="-1.9872193"><ele>199.0</ele><time>2026-04-11T08:10:46.35Z</time></trkpt><trkpt lat="37.1463688" lon="-1.9875273"><ele>199.0</ele><time>2026-04-11T08:10:47.351Z</time></trkpt><trkpt lat="37.146163" lon="-1.9878236"><ele>199.0</ele><time>2026-04-11T08:10:48.351Z</time></trkpt><trkpt lat="37.1459438" lon="-1.9881106"><ele>197.0</ele><time>2026-04-11T08:10:49.35Z</time></trkpt><trkpt lat="37.1457158" lon="-1.9883842"><ele>195.0</ele><time>2026-04-11T08:10:50.351Z</time></trkpt><trkpt lat="37.1454815" lon="-1.9886467"><ele>195.0</ele><time>2026-04-11T08:10:51.351Z</time></trkpt><trkpt lat="37.1452488" lon="-1.9889087"><ele>195.0</ele><time>2026-04-11T08:10:52.351Z</time></trkpt><trkpt lat="37.1450181" lon="-1.9891765"><ele>191.5</ele><time>2026-04-11T08:10:53.351Z</time></trkpt><trkpt lat="37.1447943" lon="-1.9894514"><ele>188.0</ele><time>2026-04-11T08:10:54.35Z</time></trkpt><trkpt lat="37.1445797" lon="-1.9897401"><ele>188.0</ele><time>2026-04-11T08:10:55.351Z</time></trkpt><trkpt lat="37.1443774" lon="-1.9900431"><ele>188.0</ele><time>2026-04-11T08:10:56.351Z</time></trkpt><trkpt lat="37.1441898" lon="-1.9903597"><ele>189.0</ele><time>2026-04-11T08:10:57.351Z</time></trkpt><trkpt lat="37.1440129" lon="-1.9906876"><ele>190.0</ele><time>2026-04-11T08:10:58.351Z</time></trkpt><trkpt lat="37.1438518" lon="-1.9910294"><ele>190.0</ele><time>2026-04-11T08:10:59.351Z</time></trkpt><trkpt lat="37.1437095" lon="-1.9913818"><ele>190.0</ele><time>2026-04-11T08:11:00.351Z</time></trkpt><trkpt lat="37.1435805" lon="-1.9917497"><ele>193.5</ele><time>2026-04-11T08:11:01.351Z</time></trkpt><trkpt lat="37.1434734" lon="-1.992117"><ele>197.0</ele><time>2026-04-11T08:11:02.35Z</time></trkpt><trkpt lat="37.1433723" lon="-1.9924894"><ele>195.5</ele><time>2026-04-11T08:11:03.351Z</time></trkpt><trkpt lat="37.1432771" lon="-1.9928588"><ele>194.0</ele><time>2026-04-11T08:11:04.35Z</time></trkpt><trkpt lat="37.1431824" lon="-1.9932291"><ele>197.0</ele><time>2026-04-11T08:11:05.351Z</time></trkpt><trkpt lat="37.1430904" lon="-1.9935918"><ele>200.0</ele><time>2026-04-11T08:11:06.351Z</time></trkpt><trkpt lat="37.1429967" lon="-1.9939527"><ele>204.5</ele><time>2026-04-11T08:11:07.351Z</time></trkpt><trkpt lat="37.1428994" lon="-1.9943092"><ele>209.0</ele><time>2026-04-11T08:11:08.35Z</time></trkpt><trkpt lat="37.1427948" lon="-1.9946567"><ele>209.0</ele><time>2026-04-11T08:11:09.351Z</time></trkpt><trkpt lat="37.142682" lon="-1.9950006"><ele>209.0</ele><time>2026-04-11T08:11:10.351Z</time></trkpt><trkpt lat="37.1425558" lon="-1.9953376"><ele>209.5</ele><time>2026-04-11T08:11:11.351Z</time></trkpt><trkpt lat="37.1424106" lon="-1.9956659"><ele>210.0</ele><time>2026-04-11T08:11:12.35Z</time></trkpt><trkpt lat="37.1422505" lon="-1.9959782"><ele>210.0</ele><time>2026-04-11T08:11:13.351Z</time></trkpt><trkpt lat="37.1420782" lon="-1.9962873"><ele>210.0</ele><time>2026-04-11T08:11:14.351Z</time></trkpt><trkpt lat="37.1418921" lon="-1.9965836"><ele>210.0</ele><time>2026-04-11T08:11:15.351Z</time></trkpt><trkpt lat="37.1416927" lon="-1.9968662"><ele>210.0</ele><time>2026-04-11T08:11:16.351Z</time></trkpt><trkpt lat="37.1414755" lon="-1.997138"><ele>210.0</ele><time>2026-04-11T08:11:17.351Z</time></trkpt><trkpt lat="37.1412485" lon="-1.9973983"><ele>210.0</ele><time>2026-04-11T08:11:18.35Z</time></trkpt><trkpt lat="37.1410028" lon="-1.9976456"><ele>207.5</ele><time>2026-04-11T08:11:19.351Z</time></trkpt><trkpt lat="37.1407489" lon="-1.9978755"><ele>205.0</ele><time>2026-04-11T08:11:20.351Z</time></trkpt><trkpt lat="37.1404841" lon="-1.9981009"><ele>205.0</ele><time>2026-04-11T08:11:21.351Z</time></trkpt><trkpt lat="37.140217" lon="-1.9983213"><ele>205.0</ele><time>2026-04-11T08:11:22.351Z</time></trkpt><trkpt lat="37.1399577" lon="-1.9985477"><ele>206.5</ele><time>2026-04-11T08:11:23.351Z</time></trkpt><trkpt lat="37.139706" lon="-1.998782"><ele>208.0</ele><time>2026-04-11T08:11:24.351Z</time></trkpt><trkpt lat="37.1394736" lon="-1.9990165"><ele>212.5</ele><time>2026-04-11T08:11:25.351Z</time></trkpt><trkpt lat="37.1392663" lon="-1.9992433"><ele>217.0</ele><time>2026-04-11T08:11:26.351Z</time></trkpt><trkpt lat="37.1390688" lon="-1.9994755"><ele>208.0</ele><time>2026-04-11T08:11:27.351Z</time></trkpt><trkpt lat="37.138888" lon="-1.9997106"><ele>199.0</ele><time>2026-04-11T08:11:28.351Z</time></trkpt><trkpt lat="37.13872" lon="-1.9999438"><ele>199.0</ele><time>2026-04-11T08:11:29.351Z</time></trkpt><trkpt lat="37.1385637" lon="-2.0001769"><ele>199.0</ele><time>2026-04-11T08:11:30.351Z</time></trkpt><trkpt lat="37.1384183" lon="-2.00041"><ele>199.0</ele><time>2026-04-11T08:11:31.351Z</time></trkpt><trkpt lat="37.1382828" lon="-2.0006397"><ele>199.0</ele><time>2026-04-11T08:11:32.351Z</time></trkpt><trkpt lat="37.138157" lon="-2.0008713"><ele>196.66666666666666</ele><time>2026-04-11T08:11:33.351Z</time></trkpt><trkpt lat="37.1380392" lon="-2.0011061"><ele>194.33333333333331</ele><time>2026-04-11T08:11:34.351Z</time></trkpt><trkpt lat="37.1379251" lon="-2.0013428"><ele>192.0</ele><time>2026-04-11T08:11:35.351Z</time></trkpt><trkpt lat="37.1378156" lon="-2.0015865"><ele>192.5</ele><time>2026-04-11T08:11:36.351Z</time></trkpt><trkpt lat="37.1377093" lon="-2.0018338"><ele>193.0</ele><time>2026-04-11T08:11:37.351Z</time></trkpt><trkpt lat="37.1376083" lon="-2.0020913"><ele>193.0</ele><time>2026-04-11T08:11:38.35Z</time></trkpt><trkpt lat="37.1375126" lon="-2.0023482"><ele>193.0</ele><time>2026-04-11T08:11:39.351Z</time></trkpt><trkpt lat="37.1374178" lon="-2.0026269"><ele>182.5</ele><time>2026-04-11T08:11:40.351Z</time></trkpt><trkpt lat="37.1373276" lon="-2.0029108"><ele>172.0</ele><time>2026-04-11T08:11:41.351Z</time></trkpt><trkpt lat="37.1372384" lon="-2.0031989"><ele>174.0</ele><time>2026-04-11T08:11:42.351Z</time></trkpt><trkpt lat="37.1371504" lon="-2.0034869"><ele>176.0</ele><time>2026-04-11T08:11:43.35Z</time></trkpt><trkpt lat="37.1370623" lon="-2.0037779"><ele>176.0</ele><time>2026-04-11T08:11:44.35Z</time></trkpt><trkpt lat="37.1369629" lon="-2.0040688"><ele>176.0</ele><time>2026-04-11T08:11:45.35Z</time></trkpt><trkpt lat="37.1368461" lon="-2.0043556"><ele>179.5</ele><time>2026-04-11T08:11:46.351Z</time></trkpt><trkpt lat="37.1367209" lon="-2.0046295"><ele>183.0</ele><time>2026-04-11T08:11:47.351Z</time></trkpt><trkpt lat="37.1365842" lon="-2.0048972"><ele>179.0</ele><time>2026-04-11T08:11:48.351Z</time></trkpt><trkpt lat="37.1364432" lon="-2.0051401"><ele>175.0</ele><time>2026-04-11T08:11:49.351Z</time></trkpt><trkpt lat="37.1363108" lon="-2.0053628"><ele>175.0</ele><time>2026-04-11T08:11:50.351Z</time></trkpt><trkpt lat="37.136187" lon="-2.0055829"><ele>175.0</ele><time>2026-04-11T08:11:51.351Z</time></trkpt><trkpt lat="37.1360899" lon="-2.0057877"><ele>175.0</ele><time>2026-04-11T08:11:52.351Z</time></trkpt><trkpt lat="37.1360149" lon="-2.0059813"><ele>177.0</ele><time>2026-04-11T08:11:53.351Z</time></trkpt><trkpt lat="37.1359533" lon="-2.0061618"><ele>179.0</ele><time>2026-04-11T08:11:54.35Z</time></trkpt><trkpt lat="37.1359007" lon="-2.0063359"><ele>181.0</ele><time>2026-04-11T08:11:55.351Z</time></trkpt><trkpt lat="37.1358601" lon="-2.006507"><ele>183.0</ele><time>2026-04-11T08:11:56.351Z</time></trkpt><trkpt lat="37.1358307" lon="-2.0066758"><ele>184.5</ele><time>2026-04-11T08:11:57.351Z</time></trkpt><trkpt lat="37.1358117" lon="-2.006843"><ele>186.0</ele><time>2026-04-11T08:11:58.35Z</time></trkpt><trkpt lat="37.1357923" lon="-2.0070131"><ele>187.5</ele><time>2026-04-11T08:11:59.351Z</time></trkpt><trkpt lat="37.1357743" lon="-2.0071903"><ele>189.0</ele><time>2026-04-11T08:12:00.35Z</time></trkpt><trkpt lat="37.1357515" lon="-2.0073698"><ele>189.75</ele><time>2026-04-11T08:12:01.351Z</time></trkpt><trkpt lat="37.1357303" lon="-2.0075452"><ele>190.5</ele><time>2026-04-11T08:12:02.351Z</time></trkpt><trkpt lat="37.1357024" lon="-2.0077216"><ele>191.25</ele><time>2026-04-11T08:12:03.351Z</time></trkpt><trkpt lat="37.1356628" lon="-2.0078931"><ele>192.0</ele><time>2026-04-11T08:12:04.351Z</time></trkpt><trkpt lat="37.1356207" lon="-2.0080648"><ele>190.25</ele><time>2026-04-11T08:12:05.351Z</time></trkpt><trkpt lat="37.135581" lon="-2.0082204"><ele>188.5</ele><time>2026-04-11T08:12:06.351Z</time></trkpt><trkpt lat="37.1355482" lon="-2.0083619"><ele>186.75</ele><time>2026-04-11T08:12:07.351Z</time></trkpt><trkpt lat="37.1355285" lon="-2.0085021"><ele>185.0</ele><time>2026-04-11T08:12:08.351Z</time></trkpt><trkpt lat="37.1355316" lon="-2.0086436"><ele>185.0</ele><time>2026-04-11T08:12:09.351Z</time></trkpt><trkpt lat="37.1355441" lon="-2.0087856"><ele>185.0</ele><time>2026-04-11T08:12:10.351Z</time></trkpt><trkpt lat="37.1355273" lon="-2.0089232"><ele>185.0</ele><time>2026-04-11T08:12:11.351Z</time></trkpt><trkpt lat="37.13548" lon="-2.0090522"><ele>185.0</ele><time>2026-04-11T08:12:12.351Z</time></trkpt><trkpt lat="37.1354388" lon="-2.0091814"><ele>185.0</ele><time>2026-04-11T08:12:13.351Z</time></trkpt><trkpt lat="37.1354186" lon="-2.009321"><ele>185.0</ele><time>2026-04-11T08:12:14.351Z</time></trkpt><trkpt lat="37.135401" lon="-2.0094631"><ele>185.0</ele><time>2026-04-11T08:12:15.35Z</time></trkpt><trkpt lat="37.1354267" lon="-2.0096005"><ele>185.0</ele><time>2026-04-11T08:12:16.351Z</time></trkpt><trkpt lat="37.1354525" lon="-2.0097439"><ele>185.0</ele><time>2026-04-11T08:12:17.351Z</time></trkpt><trkpt lat="37.1354754" lon="-2.0098895"><ele>185.33333333333331</ele><time>2026-04-11T08:12:18.351Z</time></trkpt><trkpt lat="37.1355087" lon="-2.0100229"><ele>185.66666666666666</ele><time>2026-04-11T08:12:19.351Z</time></trkpt><trkpt lat="37.1355436" lon="-2.0101926"><ele>186.0</ele><time>2026-04-11T08:12:20.35Z</time></trkpt><trkpt lat="37.1355957" lon="-2.0105047"><ele>186.0</ele><time>2026-04-11T08:12:22.351Z</time></trkpt><trkpt lat="37.1356051" lon="-2.0106066"><ele>186.0</ele><time>2026-04-11T08:12:23.56Z</time></trkpt><trkpt lat="37.1356572" lon="-2.0108641"><ele>186.0</ele><time>2026-04-11T08:12:25.18Z</time></trkpt><trkpt lat="37.1357151" lon="-2.011147"><ele>193.0</ele><time>2026-04-11T08:12:26.394Z</time></trkpt><trkpt lat="37.1358516" lon="-2.0117866"><ele>193.0</ele><time>2026-04-11T08:12:30.365Z</time></trkpt><trkpt lat="37.1359263" lon="-2.0121041"><ele>193.0</ele><time>2026-04-11T08:12:32.366Z</time></trkpt><trkpt lat="37.1359844" lon="-2.0124219"><ele>194.0</ele><time>2026-04-11T08:12:34.366Z</time></trkpt><trkpt lat="37.1361278" lon="-2.0128605"><ele>195.0</ele><time>2026-04-11T08:12:37.366Z</time></trkpt><trkpt lat="37.1361874" lon="-2.013001"><ele>195.0</ele><time>2026-04-11T08:12:38.366Z</time></trkpt><trkpt lat="37.1362586" lon="-2.0131326"><ele>195.0</ele><time>2026-04-11T08:12:39.365Z</time></trkpt><trkpt lat="37.1363336" lon="-2.0132627"><ele>195.0</ele><time>2026-04-11T08:12:40.366Z</time></trkpt><trkpt lat="37.1364177" lon="-2.0133763"><ele>195.0</ele><time>2026-04-11T08:12:41.366Z</time></trkpt><trkpt lat="37.1365101" lon="-2.0134719"><ele>198.0</ele><time>2026-04-11T08:12:42.365Z</time></trkpt><trkpt lat="37.1366058" lon="-2.0135646"><ele>201.0</ele><time>2026-04-11T08:12:43.366Z</time></trkpt><trkpt lat="37.1367034" lon="-2.0136433"><ele>204.0</ele><time>2026-04-11T08:12:44.366Z</time></trkpt><trkpt lat="37.1368046" lon="-2.0137262"><ele>207.0</ele><time>2026-04-11T08:12:45.365Z</time></trkpt><trkpt lat="37.1369067" lon="-2.0138061"><ele>207.0</ele><time>2026-04-11T08:12:46.365Z</time></trkpt><trkpt lat="37.1370074" lon="-2.0138864"><ele>207.0</ele><time>2026-04-11T08:12:47.366Z</time></trkpt><trkpt lat="37.1371153" lon="-2.013964"><ele>207.0</ele><time>2026-04-11T08:12:48.366Z</time></trkpt><trkpt lat="37.1372191" lon="-2.0140447"><ele>207.0</ele><time>2026-04-11T08:12:49.366Z</time></trkpt><trkpt lat="37.1373155" lon="-2.0141218"><ele>208.0</ele><time>2026-04-11T08:12:50.365Z</time></trkpt><trkpt lat="37.1374019" lon="-2.0142153"><ele>209.0</ele><time>2026-04-11T08:12:51.366Z</time></trkpt><trkpt lat="37.137479" lon="-2.0143124"><ele>210.0</ele><time>2026-04-11T08:12:52.366Z</time></trkpt><trkpt lat="37.1375365" lon="-2.0144364"><ele>211.0</ele><time>2026-04-11T08:12:53.366Z</time></trkpt><trkpt lat="37.1375562" lon="-2.0145741"><ele>212.0</ele><time>2026-04-11T08:12:54.366Z</time></trkpt><trkpt lat="37.1375496" lon="-2.014703"><ele>212.0</ele><time>2026-04-11T08:12:55.366Z</time></trkpt><trkpt lat="37.1375317" lon="-2.0148359"><ele>212.0</ele><time>2026-04-11T08:12:56.366Z</time></trkpt><trkpt lat="37.1374607" lon="-2.0149838"><ele>212.0</ele><time>2026-04-11T08:12:57.366Z</time></trkpt><trkpt lat="37.1373984" lon="-2.0151226"><ele>212.0</ele><time>2026-04-11T08:12:58.365Z</time></trkpt><trkpt lat="37.1373616" lon="-2.0152617"><ele>211.5</ele><time>2026-04-11T08:12:59.366Z</time></trkpt><trkpt lat="37.137335" lon="-2.0154066"><ele>211.0</ele><time>2026-04-11T08:13:00.366Z</time></trkpt><trkpt lat="37.1373517" lon="-2.0155631"><ele>210.5</ele><time>2026-04-11T08:13:01.366Z</time></trkpt><trkpt lat="37.1373903" lon="-2.0157186"><ele>210.0</ele><time>2026-04-11T08:13:02.366Z</time></trkpt><trkpt lat="37.1374402" lon="-2.0158677"><ele>210.0</ele><time>2026-04-11T08:13:03.365Z</time></trkpt><trkpt lat="37.1375009" lon="-2.0160316"><ele>210.0</ele><time>2026-04-11T08:13:04.366Z</time></trkpt><trkpt lat="37.1375615" lon="-2.0161914"><ele>210.0</ele><time>2026-04-11T08:13:05.366Z</time></trkpt><trkpt lat="37.1376304" lon="-2.0163418"><ele>210.0</ele><time>2026-04-11T08:13:06.366Z</time></trkpt><trkpt lat="37.1377071" lon="-2.0165091"><ele>209.0</ele><time>2026-04-11T08:13:07.365Z</time></trkpt><trkpt lat="37.1377989" lon="-2.0166686"><ele>208.0</ele><time>2026-04-11T08:13:08.366Z</time></trkpt><trkpt lat="37.1378928" lon="-2.016821"><ele>207.0</ele><time>2026-04-11T08:13:09.366Z</time></trkpt><trkpt lat="37.1380017" lon="-2.0169709"><ele>207.0</ele><time>2026-04-11T08:13:10.366Z</time></trkpt><trkpt lat="37.1381098" lon="-2.0171166"><ele>207.0</ele><time>2026-04-11T08:13:11.366Z</time></trkpt><trkpt lat="37.1382111" lon="-2.0172736"><ele>207.0</ele><time>2026-04-11T08:13:12.366Z</time></trkpt><trkpt lat="37.1383288" lon="-2.0174124"><ele>208.66666666666669</ele><time>2026-04-11T08:13:13.366Z</time></trkpt><trkpt lat="37.1384457" lon="-2.0175489"><ele>210.33333333333334</ele><time>2026-04-11T08:13:14.366Z</time></trkpt><trkpt lat="37.1385689" lon="-2.0176657"><ele>212.0</ele><time>2026-04-11T08:13:15.366Z</time></trkpt><trkpt lat="37.138701" lon="-2.0177721"><ele>212.0</ele><time>2026-04-11T08:13:16.366Z</time></trkpt><trkpt lat="37.1388297" lon="-2.0178871"><ele>212.0</ele><time>2026-04-11T08:13:17.366Z</time></trkpt><trkpt lat="37.1389474" lon="-2.0180227"><ele>212.0</ele><time>2026-04-11T08:13:18.366Z</time></trkpt><trkpt lat="37.1390364" lon="-2.0181837"><ele>214.33333333333334</ele><time>2026-04-11T08:13:19.366Z</time></trkpt><trkpt lat="37.139101" lon="-2.0183639"><ele>216.66666666666669</ele><time>2026-04-11T08:13:20.366Z</time></trkpt><trkpt lat="37.1391428" lon="-2.0185595"><ele>219.0</ele><time>2026-04-11T08:13:21.365Z</time></trkpt><trkpt lat="37.1391701" lon="-2.0187655"><ele>219.0</ele><time>2026-04-11T08:13:22.366Z</time></trkpt><trkpt lat="37.1391912" lon="-2.0189746"><ele>219.0</ele><time>2026-04-11T08:13:23.366Z</time></trkpt><trkpt lat="37.1392102" lon="-2.0191895"><ele>219.0</ele><time>2026-04-11T08:13:24.366Z</time></trkpt><trkpt lat="37.1392337" lon="-2.019405"><ele>219.66666666666669</ele><time>2026-04-11T08:13:25.366Z</time></trkpt><trkpt lat="37.1392695" lon="-2.0196187"><ele>220.33333333333334</ele><time>2026-04-11T08:13:26.366Z</time></trkpt><trkpt lat="37.1393134" lon="-2.0198237"><ele>221.0</ele><time>2026-04-11T08:13:27.366Z</time></trkpt><trkpt lat="37.139365" lon="-2.0200277"><ele>221.0</ele><time>2026-04-11T08:13:28.365Z</time></trkpt><trkpt lat="37.1394204" lon="-2.0202353"><ele>221.0</ele><time>2026-04-11T08:13:29.366Z</time></trkpt><trkpt lat="37.1394799" lon="-2.0204468"><ele>221.0</ele><time>2026-04-11T08:13:30.365Z</time></trkpt><trkpt lat="37.1395292" lon="-2.0206615"><ele>221.0</ele><time>2026-04-11T08:13:31.366Z</time></trkpt><trkpt lat="37.1395804" lon="-2.0208722"><ele>221.0</ele><time>2026-04-11T08:13:32.366Z</time></trkpt><trkpt lat="37.1396287" lon="-2.0210908"><ele>221.0</ele><time>2026-04-11T08:13:33.366Z</time></trkpt><trkpt lat="37.1396582" lon="-2.021314"><ele>221.0</ele><time>2026-04-11T08:13:34.366Z</time></trkpt><trkpt lat="37.1396769" lon="-2.0215423"><ele>221.0</ele><time>2026-04-11T08:13:35.366Z</time></trkpt><trkpt lat="37.1396762" lon="-2.0217678"><ele>221.0</ele><time>2026-04-11T08:13:36.365Z</time></trkpt><trkpt lat="37.1396619" lon="-2.0219951"><ele>221.66666666666669</ele><time>2026-04-11T08:13:37.366Z</time></trkpt><trkpt lat="37.1396377" lon="-2.0222236"><ele>222.33333333333331</ele><time>2026-04-11T08:13:38.366Z</time></trkpt><trkpt lat="37.1396014" lon="-2.0224499"><ele>223.0</ele><time>2026-04-11T08:13:39.366Z</time></trkpt><trkpt lat="37.1395612" lon="-2.0226806"><ele>225.33333333333331</ele><time>2026-04-11T08:13:40.366Z</time></trkpt><trkpt lat="37.1395223" lon="-2.0229093"><ele>227.66666666666669</ele><time>2026-04-11T08:13:41.366Z</time></trkpt><trkpt lat="37.1394778" lon="-2.0231417"><ele>230.0</ele><time>2026-04-11T08:13:42.366Z</time></trkpt><trkpt lat="37.1394387" lon="-2.0233715"><ele>231.66666666666669</ele><time>2026-04-11T08:13:43.366Z</time></trkpt><trkpt lat="37.1394095" lon="-2.0236123"><ele>233.33333333333331</ele><time>2026-04-11T08:13:44.366Z</time></trkpt><trkpt lat="37.1393981" lon="-2.0238415"><ele>235.0</ele><time>2026-04-11T08:13:45.366Z</time></trkpt><trkpt lat="37.1393983" lon="-2.0240738"><ele>235.66666666666666</ele><time>2026-04-11T08:13:46.366Z</time></trkpt><trkpt lat="37.139412" lon="-2.0243053"><ele>236.33333333333331</ele><time>2026-04-11T08:13:47.366Z</time></trkpt><trkpt lat="37.139443" lon="-2.0245398"><ele>237.0</ele><time>2026-04-11T08:13:48.365Z</time></trkpt><trkpt lat="37.1394876" lon="-2.0247636"><ele>237.0</ele><time>2026-04-11T08:13:49.365Z</time></trkpt><trkpt lat="37.1395489" lon="-2.0249763"><ele>237.0</ele><time>2026-04-11T08:13:50.366Z</time></trkpt><trkpt lat="37.139621" lon="-2.0251886"><ele>237.0</ele><time>2026-04-11T08:13:51.366Z</time></trkpt><trkpt lat="37.1397047" lon="-2.0253934"><ele>237.66666666666669</ele><time>2026-04-11T08:13:52.366Z</time></trkpt><trkpt lat="37.1397915" lon="-2.0256019"><ele>238.33333333333334</ele><time>2026-04-11T08:13:53.366Z</time></trkpt><trkpt lat="37.1398826" lon="-2.0258028"><ele>239.0</ele><time>2026-04-11T08:13:54.366Z</time></trkpt><trkpt lat="37.1399731" lon="-2.0260058"><ele>240.0</ele><time>2026-04-11T08:13:55.366Z</time></trkpt><trkpt lat="37.1400604" lon="-2.0262132"><ele>241.0</ele><time>2026-04-11T08:13:56.366Z</time></trkpt><trkpt lat="37.1401446" lon="-2.0264273"><ele>242.0</ele><time>2026-04-11T08:13:57.366Z</time></trkpt><trkpt lat="37.1402134" lon="-2.0266433"><ele>244.0</ele><time>2026-04-11T08:13:58.366Z</time></trkpt><trkpt lat="37.1402621" lon="-2.0268728"><ele>246.0</ele><time>2026-04-11T08:13:59.365Z</time></trkpt><trkpt lat="37.1403018" lon="-2.0271038"><ele>248.0</ele><time>2026-04-11T08:14:00.366Z</time></trkpt><trkpt lat="37.1403382" lon="-2.0273324"><ele>250.0</ele><time>2026-04-11T08:14:01.366Z</time></trkpt><trkpt lat="37.1403324" lon="-2.0278203"><ele>252.0</ele><time>2026-04-11T08:14:03.366Z</time></trkpt><trkpt lat="37.1403086" lon="-2.0280634"><ele>252.0</ele><time>2026-04-11T08:14:04.366Z</time></trkpt><trkpt lat="37.1402648" lon="-2.0282974"><ele>252.0</ele><time>2026-04-11T08:14:05.366Z</time></trkpt><trkpt lat="37.1402124" lon="-2.0285369"><ele>252.0</ele><time>2026-04-11T08:14:06.366Z</time></trkpt><trkpt lat="37.1401516" lon="-2.0287764"><ele>254.0</ele><time>2026-04-11T08:14:07.366Z</time></trkpt><trkpt lat="37.1400909" lon="-2.0290151"><ele>256.0</ele><time>2026-04-11T08:14:08.365Z</time></trkpt><trkpt lat="37.1400232" lon="-2.0292525"><ele>258.0</ele><time>2026-04-11T08:14:09.366Z</time></trkpt><trkpt lat="37.1399579" lon="-2.0294926"><ele>258.6666666666667</ele><time>2026-04-11T08:14:10.366Z</time></trkpt><trkpt lat="37.1398999" lon="-2.0297369"><ele>259.33333333333337</ele><time>2026-04-11T08:14:11.366Z</time></trkpt><trkpt lat="37.1398515" lon="-2.0299867"><ele>260.0</ele><time>2026-04-11T08:14:12.365Z</time></trkpt><trkpt lat="37.1398234" lon="-2.0302426"><ele>260.6666666666667</ele><time>2026-04-11T08:14:13.366Z</time></trkpt><trkpt lat="37.1398145" lon="-2.0305055"><ele>261.3333333333333</ele><time>2026-04-11T08:14:14.366Z</time></trkpt><trkpt lat="37.1398144" lon="-2.0307686"><ele>262.0</ele><time>2026-04-11T08:14:15.365Z</time></trkpt><trkpt lat="37.1398175" lon="-2.0310314"><ele>263.0</ele><time>2026-04-11T08:14:16.366Z</time></trkpt><trkpt lat="37.1398246" lon="-2.0312944"><ele>264.0</ele><time>2026-04-11T08:14:17.366Z</time></trkpt><trkpt lat="37.1398325" lon="-2.0315595"><ele>265.0</ele><time>2026-04-11T08:14:18.366Z</time></trkpt><trkpt lat="37.1398393" lon="-2.0318256"><ele>267.0</ele><time>2026-04-11T08:14:19.366Z</time></trkpt><trkpt lat="37.1398495" lon="-2.0320896"><ele>269.0</ele><time>2026-04-11T08:14:20.366Z</time></trkpt><trkpt lat="37.1398608" lon="-2.032356"><ele>271.0</ele><time>2026-04-11T08:14:21.365Z</time></trkpt><trkpt lat="37.139869" lon="-2.0326173"><ele>271.66666666666663</ele><time>2026-04-11T08:14:22.365Z</time></trkpt><trkpt lat="37.1398781" lon="-2.0328801"><ele>272.3333333333333</ele><time>2026-04-11T08:14:23.366Z</time></trkpt><trkpt lat="37.1398922" lon="-2.0331308"><ele>273.0</ele><time>2026-04-11T08:14:24.366Z</time></trkpt><trkpt lat="37.1399132" lon="-2.0333735"><ele>274.3333333333333</ele><time>2026-04-11T08:14:25.366Z</time></trkpt><trkpt lat="37.13995" lon="-2.0336118"><ele>275.66666666666663</ele><time>2026-04-11T08:14:26.366Z</time></trkpt><trkpt lat="37.1400129" lon="-2.033834"><ele>277.0</ele><time>2026-04-11T08:14:27.365Z</time></trkpt><trkpt lat="37.1401014" lon="-2.034034"><ele>279.3333333333333</ele><time>2026-04-11T08:14:28.365Z</time></trkpt><trkpt lat="37.1402068" lon="-2.0342177"><ele>281.6666666666667</ele><time>2026-04-11T08:14:29.365Z</time></trkpt><trkpt lat="37.1403174" lon="-2.0343926"><ele>284.0</ele><time>2026-04-11T08:14:30.366Z</time></trkpt><trkpt lat="37.1404227" lon="-2.0345711"><ele>284.0</ele><time>2026-04-11T08:14:31.366Z</time></trkpt><trkpt lat="37.1405683" lon="-2.0347467"><ele>284.0</ele><time>2026-04-11T08:14:32.366Z</time></trkpt><trkpt lat="37.1406805" lon="-2.0349421"><ele>284.0</ele><time>2026-04-11T08:14:33.366Z</time></trkpt><trkpt lat="37.1408155" lon="-2.0350972"><ele>285.0</ele><time>2026-04-11T08:14:34.366Z</time></trkpt><trkpt lat="37.1409162" lon="-2.0352903"><ele>286.0</ele><time>2026-04-11T08:14:35.366Z</time></trkpt><trkpt lat="37.1410085" lon="-2.0354618"><ele>287.0</ele><time>2026-04-11T08:14:36.366Z</time></trkpt><trkpt lat="37.1410517" lon="-2.0357432"><ele>287.33333333333337</ele><time>2026-04-11T08:14:37.365Z</time></trkpt><trkpt lat="37.1411576" lon="-2.0359377"><ele>287.6666666666667</ele><time>2026-04-11T08:14:38.366Z</time></trkpt><trkpt lat="37.1412492" lon="-2.0362106"><ele>288.0</ele><time>2026-04-11T08:14:39.366Z</time></trkpt><trkpt lat="37.1413643" lon="-2.0364344"><ele>288.0</ele><time>2026-04-11T08:14:40.366Z</time></trkpt><trkpt lat="37.1414833" lon="-2.0366491"><ele>288.0</ele><time>2026-04-11T08:14:41.366Z</time></trkpt><trkpt lat="37.1416017" lon="-2.0368594"><ele>288.0</ele><time>2026-04-11T08:14:42.365Z</time></trkpt><trkpt lat="37.1417197" lon="-2.037059"><ele>290.6666666666667</ele><time>2026-04-11T08:14:43.366Z</time></trkpt><trkpt lat="37.1418273" lon="-2.0372336"><ele>293.33333333333337</ele><time>2026-04-11T08:14:44.366Z</time></trkpt><trkpt lat="37.1419309" lon="-2.0373839"><ele>296.0</ele><time>2026-04-11T08:14:45.365Z</time></trkpt><trkpt lat="37.1420547" lon="-2.037492"><ele>296.0</ele><time>2026-04-11T08:14:46.366Z</time></trkpt><trkpt lat="37.1421952" lon="-2.0375563"><ele>296.0</ele><time>2026-04-11T08:14:47.365Z</time></trkpt><trkpt lat="37.1423503" lon="-2.0375657"><ele>296.0</ele><time>2026-04-11T08:14:48.366Z</time></trkpt><trkpt lat="37.1425054" lon="-2.0375371"><ele>298.6666666666667</ele><time>2026-04-11T08:14:49.365Z</time></trkpt><trkpt lat="37.1426627" lon="-2.0374882"><ele>301.3333333333333</ele><time>2026-04-11T08:14:50.366Z</time></trkpt><trkpt lat="37.1428272" lon="-2.0374245"><ele>304.0</ele><time>2026-04-11T08:14:51.366Z</time></trkpt><trkpt lat="37.1429902" lon="-2.0373601"><ele>307.66666666666663</ele><time>2026-04-11T08:14:52.366Z</time></trkpt><trkpt lat="37.143159" lon="-2.0372988"><ele>311.3333333333333</ele><time>2026-04-11T08:14:53.365Z</time></trkpt><trkpt lat="37.1433244" lon="-2.0372384"><ele>315.0</ele><time>2026-04-11T08:14:54.365Z</time></trkpt><trkpt lat="37.1434878" lon="-2.0371765"><ele>315.3333333333333</ele><time>2026-04-11T08:14:55.366Z</time></trkpt><trkpt lat="37.1436536" lon="-2.0371111"><ele>315.66666666666663</ele><time>2026-04-11T08:14:56.365Z</time></trkpt><trkpt lat="37.1438231" lon="-2.0370474"><ele>316.0</ele><time>2026-04-11T08:14:57.366Z</time></trkpt><trkpt lat="37.1439956" lon="-2.0369829"><ele>314.3333333333333</ele><time>2026-04-11T08:14:58.365Z</time></trkpt><trkpt lat="37.1441033" lon="-2.0369162"><ele>312.6666666666667</ele><time>2026-04-11T08:14:59.366Z</time></trkpt><trkpt lat="37.1443294" lon="-2.0368608"><ele>311.0</ele><time>2026-04-11T08:15:00.366Z</time></trkpt><trkpt lat="37.1444928" lon="-2.0367981"><ele>311.0</ele><time>2026-04-11T08:15:01.365Z</time></trkpt><trkpt lat="37.1446661" lon="-2.0367223"><ele>311.0</ele><time>2026-04-11T08:15:02.366Z</time></trkpt><trkpt lat="37.1448452" lon="-2.0366474"><ele>311.0</ele><time>2026-04-11T08:15:03.366Z</time></trkpt><trkpt lat="37.1450205" lon="-2.0365812"><ele>313.33333333333337</ele><time>2026-04-11T08:15:04.366Z</time></trkpt><trkpt lat="37.1451991" lon="-2.0365221"><ele>315.6666666666667</ele><time>2026-04-11T08:15:05.366Z</time></trkpt><trkpt lat="37.1453815" lon="-2.036479"><ele>318.0</ele><time>2026-04-11T08:15:06.366Z</time></trkpt><trkpt lat="37.1455599" lon="-2.036503"><ele>316.3333333333333</ele><time>2026-04-11T08:15:07.366Z</time></trkpt><trkpt lat="37.1457424" lon="-2.0365658"><ele>314.66666666666663</ele><time>2026-04-11T08:15:08.366Z</time></trkpt><trkpt lat="37.1459205" lon="-2.0366313"><ele>313.0</ele><time>2026-04-11T08:15:09.365Z</time></trkpt><trkpt lat="37.1460903" lon="-2.0366954"><ele>313.0</ele><time>2026-04-11T08:15:10.365Z</time></trkpt><trkpt lat="37.1462565" lon="-2.0367669"><ele>313.0</ele><time>2026-04-11T08:15:11.366Z</time></trkpt><trkpt lat="37.1464113" lon="-2.0368586"><ele>313.0</ele><time>2026-04-11T08:15:12.366Z</time></trkpt><trkpt lat="37.1465465" lon="-2.0369869"><ele>315.0</ele><time>2026-04-11T08:15:13.366Z</time></trkpt><trkpt lat="37.1466621" lon="-2.03714"><ele>317.0</ele><time>2026-04-11T08:15:14.366Z</time></trkpt><trkpt lat="37.1467566" lon="-2.0373275"><ele>319.0</ele><time>2026-04-11T08:15:15.366Z</time></trkpt><trkpt lat="37.1468209" lon="-2.0375397"><ele>319.0</ele><time>2026-04-11T08:15:16.366Z</time></trkpt><trkpt lat="37.1468533" lon="-2.0377599"><ele>319.0</ele><time>2026-04-11T08:15:17.365Z</time></trkpt><trkpt lat="37.1468483" lon="-2.0379847"><ele>319.0</ele><time>2026-04-11T08:15:18.366Z</time></trkpt><trkpt lat="37.1468333" lon="-2.0382061"><ele>320.0</ele><time>2026-04-11T08:15:19.365Z</time></trkpt><trkpt lat="37.1468095" lon="-2.0384261"><ele>321.0</ele><time>2026-04-11T08:15:20.366Z</time></trkpt><trkpt lat="37.1467798" lon="-2.0386507"><ele>322.0</ele><time>2026-04-11T08:15:21.365Z</time></trkpt><trkpt lat="37.1467586" lon="-2.0388909"><ele>322.0</ele><time>2026-04-11T08:15:22.366Z</time></trkpt><trkpt lat="37.1467317" lon="-2.0391213"><ele>322.0</ele><time>2026-04-11T08:15:23.366Z</time></trkpt><trkpt lat="37.1467071" lon="-2.0393509"><ele>322.0</ele><time>2026-04-11T08:15:24.365Z</time></trkpt><trkpt lat="37.1466761" lon="-2.0395825"><ele>323.0</ele><time>2026-04-11T08:15:25.366Z</time></trkpt><trkpt lat="37.1466342" lon="-2.0398142"><ele>324.0</ele><time>2026-04-11T08:15:26.366Z</time></trkpt><trkpt lat="37.1465693" lon="-2.0400317"><ele>325.0</ele><time>2026-04-11T08:15:27.366Z</time></trkpt><trkpt lat="37.1464775" lon="-2.040245"><ele>325.0</ele><time>2026-04-11T08:15:28.365Z</time></trkpt><trkpt lat="37.1463831" lon="-2.0404541"><ele>325.0</ele><time>2026-04-11T08:15:29.366Z</time></trkpt><trkpt lat="37.1462709" lon="-2.040661"><ele>325.0</ele><time>2026-04-11T08:15:30.366Z</time></trkpt><trkpt lat="37.1461677" lon="-2.0408645"><ele>327.66666666666663</ele><time>2026-04-11T08:15:31.365Z</time></trkpt><trkpt lat="37.1460657" lon="-2.0410707"><ele>330.3333333333333</ele><time>2026-04-11T08:15:32.366Z</time></trkpt><trkpt lat="37.1459647" lon="-2.0412767"><ele>333.0</ele><time>2026-04-11T08:15:33.366Z</time></trkpt><trkpt lat="37.14587" lon="-2.0414809"><ele>334.3333333333333</ele><time>2026-04-11T08:15:34.366Z</time></trkpt><trkpt lat="37.1457875" lon="-2.0416958"><ele>335.66666666666663</ele><time>2026-04-11T08:15:35.366Z</time></trkpt><trkpt lat="37.1457201" lon="-2.0419124"><ele>337.0</ele><time>2026-04-11T08:15:36.366Z</time></trkpt><trkpt lat="37.1456689" lon="-2.0421305"><ele>335.3333333333333</ele><time>2026-04-11T08:15:37.365Z</time></trkpt><trkpt lat="37.145632" lon="-2.0423544"><ele>333.6666666666667</ele><time>2026-04-11T08:15:38.366Z</time></trkpt><trkpt lat="37.1455959" lon="-2.0425741"><ele>332.0</ele><time>2026-04-11T08:15:39.366Z</time></trkpt><trkpt lat="37.1455542" lon="-2.0427911"><ele>332.0</ele><time>2026-04-11T08:15:40.365Z</time></trkpt><trkpt lat="37.1455057" lon="-2.0430077"><ele>332.0</ele><time>2026-04-11T08:15:41.365Z</time></trkpt><trkpt lat="37.1454278" lon="-2.0432067"><ele>332.0</ele><time>2026-04-11T08:15:42.365Z</time></trkpt><trkpt lat="37.1453433" lon="-2.0433987"><ele>336.33333333333337</ele><time>2026-04-11T08:15:43.366Z</time></trkpt><trkpt lat="37.1452373" lon="-2.0435629"><ele>340.6666666666667</ele><time>2026-04-11T08:15:44.366Z</time></trkpt><trkpt lat="37.1450791" lon="-2.0436762"><ele>345.0</ele><time>2026-04-11T08:15:45.366Z</time></trkpt><trkpt lat="37.1448765" lon="-2.0435878"><ele>346.5</ele><time>2026-04-11T08:15:46.365Z</time></trkpt><trkpt lat="37.1447067" lon="-2.0435891"><ele>348.0</ele><time>2026-04-11T08:15:47.366Z</time></trkpt><trkpt lat="37.144564" lon="-2.0436005"><ele>349.5</ele><time>2026-04-11T08:15:48.366Z</time></trkpt><trkpt lat="37.1444388" lon="-2.0436328"><ele>351.0</ele><time>2026-04-11T08:15:49.366Z</time></trkpt><trkpt lat="37.1443155" lon="-2.0436708"><ele>351.0</ele><time>2026-04-11T08:15:50.366Z</time></trkpt><trkpt lat="37.144194" lon="-2.0437161"><ele>351.0</ele><time>2026-04-11T08:15:51.366Z</time></trkpt><trkpt lat="37.1440826" lon="-2.0437957"><ele>351.0</ele><time>2026-04-11T08:15:52.366Z</time></trkpt><trkpt lat="37.1439748" lon="-2.0438922"><ele>351.0</ele><time>2026-04-11T08:15:53.366Z</time></trkpt><trkpt lat="37.1438639" lon="-2.0439957"><ele>353.75</ele><time>2026-04-11T08:15:54.366Z</time></trkpt><trkpt lat="37.1437506" lon="-2.0441"><ele>356.5</ele><time>2026-04-11T08:15:55.366Z</time></trkpt><trkpt lat="37.143631" lon="-2.0442068"><ele>359.25</ele><time>2026-04-11T08:15:56.366Z</time></trkpt><trkpt lat="37.1435071" lon="-2.0443157"><ele>362.0</ele><time>2026-04-11T08:15:57.366Z</time></trkpt><trkpt lat="37.143385" lon="-2.0444273"><ele>362.0</ele><time>2026-04-11T08:15:58.365Z</time></trkpt><trkpt lat="37.1432621" lon="-2.0445432"><ele>362.0</ele><time>2026-04-11T08:15:59.366Z</time></trkpt><trkpt lat="37.143141" lon="-2.0446541"><ele>362.0</ele><time>2026-04-11T08:16:00.366Z</time></trkpt><trkpt lat="37.1430151" lon="-2.0447858"><ele>361.33333333333337</ele><time>2026-04-11T08:16:01.365Z</time></trkpt><trkpt lat="37.1428845" lon="-2.0449081"><ele>360.6666666666667</ele><time>2026-04-11T08:16:02.366Z</time></trkpt><trkpt lat="37.1427541" lon="-2.0450375"><ele>360.0</ele><time>2026-04-11T08:16:03.366Z</time></trkpt><trkpt lat="37.1426198" lon="-2.045164"><ele>360.0</ele><time>2026-04-11T08:16:04.366Z</time></trkpt><trkpt lat="37.1424895" lon="-2.0453056"><ele>360.0</ele><time>2026-04-11T08:16:05.366Z</time></trkpt><trkpt lat="37.1423612" lon="-2.0454569"><ele>360.0</ele><time>2026-04-11T08:16:06.366Z</time></trkpt><trkpt lat="37.1422339" lon="-2.0456071"><ele>359.6666666666667</ele><time>2026-04-11T08:16:07.366Z</time></trkpt><trkpt lat="37.1421008" lon="-2.0457639"><ele>359.33333333333337</ele><time>2026-04-11T08:16:08.365Z</time></trkpt><trkpt lat="37.1419679" lon="-2.0459218"><ele>359.0</ele><time>2026-04-11T08:16:09.366Z</time></trkpt><trkpt lat="37.1418362" lon="-2.0460737"><ele>359.0</ele><time>2026-04-11T08:16:10.366Z</time></trkpt><trkpt lat="37.1417055" lon="-2.0462259"><ele>359.0</ele><time>2026-04-11T08:16:11.366Z</time></trkpt><trkpt lat="37.1415777" lon="-2.0463712"><ele>359.0</ele><time>2026-04-11T08:16:12.366Z</time></trkpt><trkpt lat="37.1414562" lon="-2.0465198"><ele>358.33333333333337</ele><time>2026-04-11T08:16:13.366Z</time></trkpt><trkpt lat="37.1413396" lon="-2.046675"><ele>357.6666666666667</ele><time>2026-04-11T08:16:14.366Z</time></trkpt><trkpt lat="37.1412327" lon="-2.0468387"><ele>357.0</ele><time>2026-04-11T08:16:15.366Z</time></trkpt><trkpt lat="37.1411391" lon="-2.0470176"><ele>357.0</ele><time>2026-04-11T08:16:16.365Z</time></trkpt><trkpt lat="37.1410613" lon="-2.0472059"><ele>357.0</ele><time>2026-04-11T08:16:17.366Z</time></trkpt><trkpt lat="37.141002" lon="-2.0474036"><ele>357.0</ele><time>2026-04-11T08:16:18.366Z</time></trkpt><trkpt lat="37.1409597" lon="-2.047603"><ele>357.3333333333333</ele><time>2026-04-11T08:16:19.366Z</time></trkpt><trkpt lat="37.1409336" lon="-2.0478057"><ele>357.66666666666663</ele><time>2026-04-11T08:16:20.366Z</time></trkpt><trkpt lat="37.1409399" lon="-2.0480233"><ele>358.0</ele><time>2026-04-11T08:16:21.365Z</time></trkpt><trkpt lat="37.1409419" lon="-2.0482297"><ele>357.66666666666663</ele><time>2026-04-11T08:16:22.365Z</time></trkpt><trkpt lat="37.1409029" lon="-2.048391"><ele>357.3333333333333</ele><time>2026-04-11T08:16:23.365Z</time></trkpt><trkpt lat="37.140968" lon="-2.0486425"><ele>357.0</ele><time>2026-04-11T08:16:24.366Z</time></trkpt><trkpt lat="37.1409853" lon="-2.0488511"><ele>357.0</ele><time>2026-04-11T08:16:25.366Z</time></trkpt><trkpt lat="37.1410053" lon="-2.0490619"><ele>357.0</ele><time>2026-04-11T08:16:26.366Z</time></trkpt><trkpt lat="37.1410227" lon="-2.0492769"><ele>357.0</ele><time>2026-04-11T08:16:27.365Z</time></trkpt><trkpt lat="37.1410449" lon="-2.049485"><ele>355.6666666666667</ele><time>2026-04-11T08:16:28.366Z</time></trkpt><trkpt lat="37.141067" lon="-2.0496986"><ele>354.33333333333337</ele><time>2026-04-11T08:16:29.365Z</time></trkpt><trkpt lat="37.1410848" lon="-2.0499148"><ele>353.0</ele><time>2026-04-11T08:16:30.365Z</time></trkpt><trkpt lat="37.1411064" lon="-2.0501356"><ele>352.6666666666667</ele><time>2026-04-11T08:16:31.366Z</time></trkpt><trkpt lat="37.1411265" lon="-2.0503555"><ele>352.3333333333333</ele><time>2026-04-11T08:16:32.366Z</time></trkpt><trkpt lat="37.1411479" lon="-2.050573"><ele>352.0</ele><time>2026-04-11T08:16:33.366Z</time></trkpt><trkpt lat="37.1411641" lon="-2.0507785"><ele>353.66666666666663</ele><time>2026-04-11T08:16:34.366Z</time></trkpt><trkpt lat="37.1411719" lon="-2.0509806"><ele>355.3333333333333</ele><time>2026-04-11T08:16:35.366Z</time></trkpt><trkpt lat="37.1411866" lon="-2.0511972"><ele>357.0</ele><time>2026-04-11T08:16:36.366Z</time></trkpt><trkpt lat="37.1411941" lon="-2.0514204"><ele>359.0</ele><time>2026-04-11T08:16:37.366Z</time></trkpt><trkpt lat="37.1411828" lon="-2.0516447"><ele>361.0</ele><time>2026-04-11T08:16:38.366Z</time></trkpt><trkpt lat="37.141156" lon="-2.0518662"><ele>363.0</ele><time>2026-04-11T08:16:39.366Z</time></trkpt><trkpt lat="37.1411117" lon="-2.0520831"><ele>363.0</ele><time>2026-04-11T08:16:40.366Z</time></trkpt><trkpt lat="37.1410551" lon="-2.0522907"><ele>363.0</ele><time>2026-04-11T08:16:41.366Z</time></trkpt><trkpt lat="37.1409869" lon="-2.0524875"><ele>363.0</ele><time>2026-04-11T08:16:42.366Z</time></trkpt><trkpt lat="37.1409052" lon="-2.0526753"><ele>362.6666666666667</ele><time>2026-04-11T08:16:43.366Z</time></trkpt><trkpt lat="37.1408196" lon="-2.0528494"><ele>362.33333333333337</ele><time>2026-04-11T08:16:44.366Z</time></trkpt><trkpt lat="37.1407297" lon="-2.0530245"><ele>362.0</ele><time>2026-04-11T08:16:45.366Z</time></trkpt><trkpt lat="37.1406431" lon="-2.053201"><ele>363.33333333333337</ele><time>2026-04-11T08:16:46.366Z</time></trkpt><trkpt lat="37.1405607" lon="-2.0533785"><ele>364.6666666666667</ele><time>2026-04-11T08:16:47.366Z</time></trkpt><trkpt lat="37.1404743" lon="-2.0535592"><ele>366.0</ele><time>2026-04-11T08:16:48.366Z</time></trkpt><trkpt lat="37.1403951" lon="-2.0537464"><ele>366.0</ele><time>2026-04-11T08:16:49.366Z</time></trkpt><trkpt lat="37.1403207" lon="-2.0539386"><ele>366.0</ele><time>2026-04-11T08:16:50.365Z</time></trkpt><trkpt lat="37.1402457" lon="-2.0541457"><ele>366.0</ele><time>2026-04-11T08:16:51.366Z</time></trkpt><trkpt lat="37.1401738" lon="-2.0543629"><ele>366.0</ele><time>2026-04-11T08:16:52.366Z</time></trkpt><trkpt lat="37.1401047" lon="-2.054577"><ele>366.0</ele><time>2026-04-11T08:16:53.366Z</time></trkpt><trkpt lat="37.1400397" lon="-2.0547962"><ele>366.0</ele><time>2026-04-11T08:16:54.365Z</time></trkpt><trkpt lat="37.1399776" lon="-2.0550129"><ele>366.0</ele><time>2026-04-11T08:16:55.365Z</time></trkpt><trkpt lat="37.1399192" lon="-2.0552238"><ele>366.0</ele><time>2026-04-11T08:16:56.366Z</time></trkpt><trkpt lat="37.1398451" lon="-2.055442"><ele>366.0</ele><time>2026-04-11T08:16:57.365Z</time></trkpt><trkpt lat="37.1397757" lon="-2.0556525"><ele>370.0</ele><time>2026-04-11T08:16:58.366Z</time></trkpt><trkpt lat="37.1396973" lon="-2.0558593"><ele>374.0</ele><time>2026-04-11T08:16:59.366Z</time></trkpt><trkpt lat="37.1396161" lon="-2.0560593"><ele>378.0</ele><time>2026-04-11T08:17:00.366Z</time></trkpt><trkpt lat="37.1395303" lon="-2.0562578"><ele>378.0</ele><time>2026-04-11T08:17:01.366Z</time></trkpt><trkpt lat="37.1394433" lon="-2.0564506"><ele>378.0</ele><time>2026-04-11T08:17:02.366Z</time></trkpt><trkpt lat="37.1393458" lon="-2.0566362"><ele>378.0</ele><time>2026-04-11T08:17:03.366Z</time></trkpt><trkpt lat="37.1392413" lon="-2.0568127"><ele>377.0</ele><time>2026-04-11T08:17:04.366Z</time></trkpt><trkpt lat="37.1391368" lon="-2.0569837"><ele>376.0</ele><time>2026-04-11T08:17:05.366Z</time></trkpt><trkpt lat="37.1390273" lon="-2.0571475"><ele>375.0</ele><time>2026-04-11T08:17:06.366Z</time></trkpt><trkpt lat="37.1389178" lon="-2.0573154"><ele>376.3333333333333</ele><time>2026-04-11T08:17:07.365Z</time></trkpt><trkpt lat="37.1388047" lon="-2.0574835"><ele>377.66666666666663</ele><time>2026-04-11T08:17:08.366Z</time></trkpt><trkpt lat="37.1386946" lon="-2.0576547"><ele>379.0</ele><time>2026-04-11T08:17:09.366Z</time></trkpt><trkpt lat="37.1385821" lon="-2.0578254"><ele>379.0</ele><time>2026-04-11T08:17:10.365Z</time></trkpt><trkpt lat="37.1384698" lon="-2.0579976"><ele>379.0</ele><time>2026-04-11T08:17:11.365Z</time></trkpt><trkpt lat="37.1383668" lon="-2.0581813"><ele>379.0</ele><time>2026-04-11T08:17:12.366Z</time></trkpt><trkpt lat="37.1382745" lon="-2.0583727"><ele>380.0</ele><time>2026-04-11T08:17:13.366Z</time></trkpt><trkpt lat="37.1381929" lon="-2.0585762"><ele>381.0</ele><time>2026-04-11T08:17:14.366Z</time></trkpt><trkpt lat="37.1381238" lon="-2.058789"><ele>382.0</ele><time>2026-04-11T08:17:15.366Z</time></trkpt><trkpt lat="37.1380596" lon="-2.059005"><ele>382.66666666666663</ele><time>2026-04-11T08:17:16.365Z</time></trkpt><trkpt lat="37.1379989" lon="-2.0592243"><ele>383.3333333333333</ele><time>2026-04-11T08:17:17.366Z</time></trkpt><trkpt lat="37.1379351" lon="-2.0594423"><ele>384.0</ele><time>2026-04-11T08:17:18.366Z</time></trkpt><trkpt lat="37.1378714" lon="-2.0596556"><ele>384.0</ele><time>2026-04-11T08:17:19.366Z</time></trkpt><trkpt lat="37.1378082" lon="-2.0598694"><ele>384.0</ele><time>2026-04-11T08:17:20.365Z</time></trkpt><trkpt lat="37.137742" lon="-2.0600809"><ele>384.0</ele><time>2026-04-11T08:17:21.366Z</time></trkpt><trkpt lat="37.1376804" lon="-2.0602975"><ele>384.66666666666663</ele><time>2026-04-11T08:17:22.366Z</time></trkpt><trkpt lat="37.1376071" lon="-2.0605044"><ele>385.3333333333333</ele><time>2026-04-11T08:17:23.366Z</time></trkpt><trkpt lat="37.1375222" lon="-2.0607044"><ele>386.0</ele><time>2026-04-11T08:17:24.366Z</time></trkpt><trkpt lat="37.1373959" lon="-2.0609038"><ele>386.0</ele><time>2026-04-11T08:17:25.365Z</time></trkpt><trkpt lat="37.1373258" lon="-2.0610957"><ele>386.0</ele><time>2026-04-11T08:17:26.366Z</time></trkpt><trkpt lat="37.1372234" lon="-2.0612901"><ele>386.0</ele><time>2026-04-11T08:17:27.366Z</time></trkpt><trkpt lat="37.1371106" lon="-2.061475"><ele>386.66666666666663</ele><time>2026-04-11T08:17:28.366Z</time></trkpt><trkpt lat="37.1369911" lon="-2.0616515"><ele>387.33333333333337</ele><time>2026-04-11T08:17:29.366Z</time></trkpt><trkpt lat="37.1368681" lon="-2.0618155"><ele>388.0</ele><time>2026-04-11T08:17:30.365Z</time></trkpt><trkpt lat="37.1367629" lon="-2.0619939"><ele>388.0</ele><time>2026-04-11T08:17:31.366Z</time></trkpt><trkpt lat="37.1366399" lon="-2.0621362"><ele>388.0</ele><time>2026-04-11T08:17:32.366Z</time></trkpt><trkpt lat="37.1365179" lon="-2.0622796"><ele>388.0</ele><time>2026-04-11T08:17:33.366Z</time></trkpt><trkpt lat="37.1364004" lon="-2.0624184"><ele>389.6666666666667</ele><time>2026-04-11T08:17:34.366Z</time></trkpt><trkpt lat="37.1362853" lon="-2.0625517"><ele>391.33333333333337</ele><time>2026-04-11T08:17:35.365Z</time></trkpt><trkpt lat="37.1361777" lon="-2.0626915"><ele>393.0</ele><time>2026-04-11T08:17:36.366Z</time></trkpt><trkpt lat="37.1360704" lon="-2.0628132"><ele>393.0</ele><time>2026-04-11T08:17:37.365Z</time></trkpt><trkpt lat="37.1359668" lon="-2.0629231"><ele>393.0</ele><time>2026-04-11T08:17:38.365Z</time></trkpt><trkpt lat="37.1358722" lon="-2.0630284"><ele>393.0</ele><time>2026-04-11T08:17:39.366Z</time></trkpt><trkpt lat="37.1357861" lon="-2.0631423"><ele>393.0</ele><time>2026-04-11T08:17:40.365Z</time></trkpt><trkpt lat="37.1356918" lon="-2.0632443"><ele>392.75</ele><time>2026-04-11T08:17:41.366Z</time></trkpt><trkpt lat="37.1355939" lon="-2.0633554"><ele>392.5</ele><time>2026-04-11T08:17:42.366Z</time></trkpt><trkpt lat="37.1354952" lon="-2.063475"><ele>392.25</ele><time>2026-04-11T08:17:43.365Z</time></trkpt><trkpt lat="37.1353922" lon="-2.0636044"><ele>392.0</ele><time>2026-04-11T08:17:44.366Z</time></trkpt><trkpt lat="37.1352807" lon="-2.0637388"><ele>392.0</ele><time>2026-04-11T08:17:45.366Z</time></trkpt><trkpt lat="37.1351609" lon="-2.0638729"><ele>392.0</ele><time>2026-04-11T08:17:46.366Z</time></trkpt><trkpt lat="37.1350405" lon="-2.0640174"><ele>392.0</ele><time>2026-04-11T08:17:47.366Z</time></trkpt><trkpt lat="37.1349182" lon="-2.0641599"><ele>393.0</ele><time>2026-04-11T08:17:48.366Z</time></trkpt><trkpt lat="37.1347914" lon="-2.064304"><ele>394.0</ele><time>2026-04-11T08:17:49.366Z</time></trkpt><trkpt lat="37.1346607" lon="-2.0644554"><ele>395.0</ele><time>2026-04-11T08:17:50.365Z</time></trkpt><trkpt lat="37.1345277" lon="-2.0646164"><ele>395.0</ele><time>2026-04-11T08:17:51.365Z</time></trkpt><trkpt lat="37.1343887" lon="-2.0647766"><ele>395.0</ele><time>2026-04-11T08:17:52.366Z</time></trkpt><trkpt lat="37.1342451" lon="-2.0649426"><ele>395.0</ele><time>2026-04-11T08:17:53.366Z</time></trkpt><trkpt lat="37.1341" lon="-2.0651145"><ele>395.3333333333333</ele><time>2026-04-11T08:17:54.365Z</time></trkpt><trkpt lat="37.1339501" lon="-2.0652935"><ele>395.66666666666663</ele><time>2026-04-11T08:17:55.366Z</time></trkpt><trkpt lat="37.1337892" lon="-2.065464"><ele>396.0</ele><time>2026-04-11T08:17:56.366Z</time></trkpt><trkpt lat="37.1336244" lon="-2.0656346"><ele>395.66666666666663</ele><time>2026-04-11T08:17:57.366Z</time></trkpt><trkpt lat="37.1334571" lon="-2.0658164"><ele>395.3333333333333</ele><time>2026-04-11T08:17:58.366Z</time></trkpt><trkpt lat="37.1332851" lon="-2.0659953"><ele>395.0</ele><time>2026-04-11T08:17:59.366Z</time></trkpt><trkpt lat="37.1331052" lon="-2.0661681"><ele>395.0</ele><time>2026-04-11T08:18:00.366Z</time></trkpt><trkpt lat="37.1329175" lon="-2.0663371"><ele>395.0</ele><time>2026-04-11T08:18:01.365Z</time></trkpt><trkpt lat="37.1327289" lon="-2.0665101"><ele>395.0</ele><time>2026-04-11T08:18:02.366Z</time></trkpt><trkpt lat="37.1325351" lon="-2.0666815"><ele>395.0</ele><time>2026-04-11T08:18:03.366Z</time></trkpt><trkpt lat="37.1323382" lon="-2.0668551"><ele>395.0</ele><time>2026-04-11T08:18:04.366Z</time></trkpt><trkpt lat="37.1321492" lon="-2.0670393"><ele>395.0</ele><time>2026-04-11T08:18:05.366Z</time></trkpt><trkpt lat="37.1319564" lon="-2.0672224"><ele>395.0</ele><time>2026-04-11T08:18:06.366Z</time></trkpt><trkpt lat="37.131758" lon="-2.0673918"><ele>395.0</ele><time>2026-04-11T08:18:07.366Z</time></trkpt><trkpt lat="37.1315644" lon="-2.0675616"><ele>397.5</ele><time>2026-04-11T08:18:08.365Z</time></trkpt><trkpt lat="37.131375" lon="-2.0677315"><ele>400.0</ele><time>2026-04-11T08:18:09.366Z</time></trkpt><trkpt lat="37.1311891" lon="-2.0678999"><ele>400.0</ele><time>2026-04-11T08:18:10.366Z</time></trkpt><trkpt lat="37.1310086" lon="-2.0680622"><ele>400.0</ele><time>2026-04-11T08:18:11.365Z</time></trkpt><trkpt lat="37.1308357" lon="-2.0682344"><ele>400.0</ele><time>2026-04-11T08:18:12.366Z</time></trkpt><trkpt lat="37.1306785" lon="-2.0684203"><ele>401.6666666666667</ele><time>2026-04-11T08:18:13.365Z</time></trkpt><trkpt lat="37.1305372" lon="-2.0686176"><ele>403.33333333333337</ele><time>2026-04-11T08:18:14.366Z</time></trkpt><trkpt lat="37.130399" lon="-2.0688179"><ele>405.0</ele><time>2026-04-11T08:18:15.366Z</time></trkpt><trkpt lat="37.1302564" lon="-2.0690115"><ele>405.33333333333337</ele><time>2026-04-11T08:18:16.366Z</time></trkpt><trkpt lat="37.1300982" lon="-2.0691611"><ele>405.6666666666667</ele><time>2026-04-11T08:18:17.366Z</time></trkpt><trkpt lat="37.1299378" lon="-2.0693461"><ele>406.0</ele><time>2026-04-11T08:18:18.366Z</time></trkpt><trkpt lat="37.1297678" lon="-2.069506"><ele>408.0</ele><time>2026-04-11T08:18:19.366Z</time></trkpt><trkpt lat="37.1296139" lon="-2.0696631"><ele>410.0</ele><time>2026-04-11T08:18:20.365Z</time></trkpt><trkpt lat="37.129445" lon="-2.0698047"><ele>412.0</ele><time>2026-04-11T08:18:21.365Z</time></trkpt><trkpt lat="37.1292787" lon="-2.0699366"><ele>412.0</ele><time>2026-04-11T08:18:22.366Z</time></trkpt><trkpt lat="37.1291153" lon="-2.0700738"><ele>412.0</ele><time>2026-04-11T08:18:23.366Z</time></trkpt><trkpt lat="37.1289546" lon="-2.0702172"><ele>412.0</ele><time>2026-04-11T08:18:24.366Z</time></trkpt><trkpt lat="37.1288021" lon="-2.0703672"><ele>413.33333333333337</ele><time>2026-04-11T08:18:25.366Z</time></trkpt><trkpt lat="37.1286644" lon="-2.0705275"><ele>414.66666666666663</ele><time>2026-04-11T08:18:26.366Z</time></trkpt><trkpt lat="37.1285353" lon="-2.0707058"><ele>416.0</ele><time>2026-04-11T08:18:27.365Z</time></trkpt><trkpt lat="37.1284191" lon="-2.0708888"><ele>416.3333333333333</ele><time>2026-04-11T08:18:28.366Z</time></trkpt><trkpt lat="37.1283054" lon="-2.0710504"><ele>416.66666666666663</ele><time>2026-04-11T08:18:29.365Z</time></trkpt><trkpt lat="37.1282073" lon="-2.0712417"><ele>417.0</ele><time>2026-04-11T08:18:30.362Z</time></trkpt><trkpt lat="37.1281121" lon="-2.0714292"><ele>418.66666666666663</ele><time>2026-04-11T08:18:31.365Z</time></trkpt><trkpt lat="37.1280213" lon="-2.0716102"><ele>420.3333333333333</ele><time>2026-04-11T08:18:32.366Z</time></trkpt><trkpt lat="37.1279322" lon="-2.0717921"><ele>422.0</ele><time>2026-04-11T08:18:33.366Z</time></trkpt><trkpt lat="37.1278403" lon="-2.0719762"><ele>422.0</ele><time>2026-04-11T08:18:34.366Z</time></trkpt><trkpt lat="37.1277475" lon="-2.0721625"><ele>422.0</ele><time>2026-04-11T08:18:35.365Z</time></trkpt><trkpt lat="37.1276508" lon="-2.0723435"><ele>422.0</ele><time>2026-04-11T08:18:36.366Z</time></trkpt><trkpt lat="37.1275459" lon="-2.0725243"><ele>422.3333333333333</ele><time>2026-04-11T08:18:37.365Z</time></trkpt><trkpt lat="37.1274341" lon="-2.0727"><ele>422.66666666666663</ele><time>2026-04-11T08:18:38.366Z</time></trkpt><trkpt lat="37.1273185" lon="-2.0728672"><ele>423.0</ele><time>2026-04-11T08:18:39.366Z</time></trkpt><trkpt lat="37.1271967" lon="-2.0730202"><ele>422.33333333333337</ele><time>2026-04-11T08:18:40.366Z</time></trkpt><trkpt lat="37.1270739" lon="-2.0731691"><ele>421.6666666666667</ele><time>2026-04-11T08:18:41.365Z</time></trkpt><trkpt lat="37.1269491" lon="-2.0733157"><ele>421.0</ele><time>2026-04-11T08:18:42.366Z</time></trkpt><trkpt lat="37.1268203" lon="-2.0734644"><ele>421.0</ele><time>2026-04-11T08:18:43.366Z</time></trkpt><trkpt lat="37.1266931" lon="-2.0736142"><ele>421.0</ele><time>2026-04-11T08:18:44.366Z</time></trkpt><trkpt lat="37.1265649" lon="-2.0737622"><ele>421.0</ele><time>2026-04-11T08:18:45.366Z</time></trkpt><trkpt lat="37.1264343" lon="-2.0739073"><ele>419.0</ele><time>2026-04-11T08:18:46.366Z</time></trkpt><trkpt lat="37.1262976" lon="-2.0740405"><ele>417.0</ele><time>2026-04-11T08:18:47.366Z</time></trkpt><trkpt lat="37.1261465" lon="-2.074145"><ele>415.0</ele><time>2026-04-11T08:18:48.366Z</time></trkpt><trkpt lat="37.125985" lon="-2.0742288"><ele>414.33333333333337</ele><time>2026-04-11T08:18:49.365Z</time></trkpt><trkpt lat="37.125819" lon="-2.0742824"><ele>413.66666666666663</ele><time>2026-04-11T08:18:50.366Z</time></trkpt><trkpt lat="37.1256371" lon="-2.0742946"><ele>413.0</ele><time>2026-04-11T08:18:51.366Z</time></trkpt><trkpt lat="37.125471" lon="-2.0742886"><ele>412.3333333333333</ele><time>2026-04-11T08:18:52.366Z</time></trkpt><trkpt lat="37.1253119" lon="-2.0742682"><ele>411.66666666666663</ele><time>2026-04-11T08:18:53.366Z</time></trkpt><trkpt lat="37.125152" lon="-2.0742451"><ele>411.0</ele><time>2026-04-11T08:18:54.366Z</time></trkpt><trkpt lat="37.1249895" lon="-2.0742261"><ele>410.0</ele><time>2026-04-11T08:18:55.366Z</time></trkpt><trkpt lat="37.1248266" lon="-2.0742064"><ele>409.0</ele><time>2026-04-11T08:18:56.365Z</time></trkpt><trkpt lat="37.1246633" lon="-2.0741864"><ele>408.0</ele><time>2026-04-11T08:18:57.366Z</time></trkpt><trkpt lat="37.1244993" lon="-2.074165"><ele>408.0</ele><time>2026-04-11T08:18:58.366Z</time></trkpt><trkpt lat="37.1243364" lon="-2.0741444"><ele>408.0</ele><time>2026-04-11T08:18:59.366Z</time></trkpt><trkpt lat="37.1241699" lon="-2.0741216"><ele>408.0</ele><time>2026-04-11T08:19:00.365Z</time></trkpt><trkpt lat="37.1240027" lon="-2.0741029"><ele>407.66666666666663</ele><time>2026-04-11T08:19:01.366Z</time></trkpt><trkpt lat="37.1238438" lon="-2.0740853"><ele>407.3333333333333</ele><time>2026-04-11T08:19:02.366Z</time></trkpt><trkpt lat="37.123688" lon="-2.0740695"><ele>407.0</ele><time>2026-04-11T08:19:03.366Z</time></trkpt><trkpt lat="37.1235296" lon="-2.0740618"><ele>407.0</ele><time>2026-04-11T08:19:04.366Z</time></trkpt><trkpt lat="37.1233658" lon="-2.074067"><ele>407.0</ele><time>2026-04-11T08:19:05.366Z</time></trkpt><trkpt lat="37.1232091" lon="-2.074109"><ele>407.0</ele><time>2026-04-11T08:19:06.366Z</time></trkpt><trkpt lat="37.1230418" lon="-2.0741404"><ele>405.0</ele><time>2026-04-11T08:19:07.366Z</time></trkpt><trkpt lat="37.1228714" lon="-2.0741985"><ele>403.0</ele><time>2026-04-11T08:19:08.366Z</time></trkpt><trkpt lat="37.1227083" lon="-2.074256"><ele>401.0</ele><time>2026-04-11T08:19:09.366Z</time></trkpt><trkpt lat="37.1225497" lon="-2.0743142"><ele>399.0</ele><time>2026-04-11T08:19:10.366Z</time></trkpt><trkpt lat="37.1223894" lon="-2.0743702"><ele>397.0</ele><time>2026-04-11T08:19:11.366Z</time></trkpt><trkpt lat="37.1222289" lon="-2.0744262"><ele>395.0</ele><time>2026-04-11T08:19:12.366Z</time></trkpt><trkpt lat="37.1220721" lon="-2.0744772"><ele>395.0</ele><time>2026-04-11T08:19:13.366Z</time></trkpt><trkpt lat="37.1219092" lon="-2.0745184"><ele>395.0</ele><time>2026-04-11T08:19:14.366Z</time></trkpt><trkpt lat="37.1217396" lon="-2.0745378"><ele>395.0</ele><time>2026-04-11T08:19:15.366Z</time></trkpt><trkpt lat="37.1215578" lon="-2.0745427"><ele>395.66666666666663</ele><time>2026-04-11T08:19:16.366Z</time></trkpt><trkpt lat="37.1213674" lon="-2.0745216"><ele>396.33333333333337</ele><time>2026-04-11T08:19:17.366Z</time></trkpt><trkpt lat="37.1211723" lon="-2.0744626"><ele>397.0</ele><time>2026-04-11T08:19:18.366Z</time></trkpt><trkpt lat="37.1209982" lon="-2.0744087"><ele>397.0</ele><time>2026-04-11T08:19:19.366Z</time></trkpt><trkpt lat="37.1208402" lon="-2.0743575"><ele>397.0</ele><time>2026-04-11T08:19:20.365Z</time></trkpt><trkpt lat="37.1206875" lon="-2.0743022"><ele>397.0</ele><time>2026-04-11T08:19:21.366Z</time></trkpt><trkpt lat="37.1205382" lon="-2.0742506"><ele>395.6666666666667</ele><time>2026-04-11T08:19:22.366Z</time></trkpt><trkpt lat="37.1203892" lon="-2.0741934"><ele>394.33333333333337</ele><time>2026-04-11T08:19:23.366Z</time></trkpt><trkpt lat="37.1202388" lon="-2.0741372"><ele>393.0</ele><time>2026-04-11T08:19:24.366Z</time></trkpt><trkpt lat="37.1200819" lon="-2.0740826"><ele>393.0</ele><time>2026-04-11T08:19:25.366Z</time></trkpt><trkpt lat="37.1199232" lon="-2.0740237"><ele>393.0</ele><time>2026-04-11T08:19:26.366Z</time></trkpt><trkpt lat="37.1197603" lon="-2.0739657"><ele>393.0</ele><time>2026-04-11T08:19:27.366Z</time></trkpt><trkpt lat="37.1195958" lon="-2.0739043"><ele>392.0</ele><time>2026-04-11T08:19:28.365Z</time></trkpt><trkpt lat="37.1194277" lon="-2.073839"><ele>391.0</ele><time>2026-04-11T08:19:29.366Z</time></trkpt><trkpt lat="37.119255" lon="-2.0737675"><ele>390.0</ele><time>2026-04-11T08:19:30.366Z</time></trkpt><trkpt lat="37.1190808" lon="-2.0736997"><ele>390.0</ele><time>2026-04-11T08:19:31.365Z</time></trkpt><trkpt lat="37.1188986" lon="-2.0736372"><ele>390.0</ele><time>2026-04-11T08:19:32.366Z</time></trkpt><trkpt lat="37.1187114" lon="-2.0735732"><ele>390.0</ele><time>2026-04-11T08:19:33.366Z</time></trkpt><trkpt lat="37.1185236" lon="-2.0734984"><ele>390.0</ele><time>2026-04-11T08:19:34.366Z</time></trkpt><trkpt lat="37.1183357" lon="-2.0734256"><ele>390.0</ele><time>2026-04-11T08:19:35.365Z</time></trkpt><trkpt lat="37.1181535" lon="-2.0733553"><ele>390.0</ele><time>2026-04-11T08:19:36.366Z</time></trkpt><trkpt lat="37.1179751" lon="-2.0732861"><ele>388.66666666666663</ele><time>2026-04-11T08:19:37.366Z</time></trkpt><trkpt lat="37.1178099" lon="-2.0732228"><ele>387.3333333333333</ele><time>2026-04-11T08:19:38.365Z</time></trkpt><trkpt lat="37.1176404" lon="-2.0731778"><ele>386.0</ele><time>2026-04-11T08:19:39.366Z</time></trkpt><trkpt lat="37.1174718" lon="-2.0731737"><ele>385.25</ele><time>2026-04-11T08:19:40.366Z</time></trkpt><trkpt lat="37.1173166" lon="-2.073224"><ele>384.5</ele><time>2026-04-11T08:19:41.366Z</time></trkpt><trkpt lat="37.1171893" lon="-2.0732933"><ele>383.75</ele><time>2026-04-11T08:19:42.366Z</time></trkpt><trkpt lat="37.1170818" lon="-2.0733797"><ele>383.0</ele><time>2026-04-11T08:19:43.366Z</time></trkpt><trkpt lat="37.1169875" lon="-2.0734904"><ele>384.5</ele><time>2026-04-11T08:19:44.366Z</time></trkpt><trkpt lat="37.1169074" lon="-2.0736317"><ele>386.0</ele><time>2026-04-11T08:19:45.366Z</time></trkpt><trkpt lat="37.116845" lon="-2.0737964"><ele>387.5</ele><time>2026-04-11T08:19:46.366Z</time></trkpt><trkpt lat="37.116797" lon="-2.0739742"><ele>389.0</ele><time>2026-04-11T08:19:47.366Z</time></trkpt><trkpt lat="37.1167582" lon="-2.0741715"><ele>389.0</ele><time>2026-04-11T08:19:48.366Z</time></trkpt><trkpt lat="37.1167236" lon="-2.0743822"><ele>389.0</ele><time>2026-04-11T08:19:49.365Z</time></trkpt><trkpt lat="37.1166871" lon="-2.0746067"><ele>389.0</ele><time>2026-04-11T08:19:50.366Z</time></trkpt><trkpt lat="37.1166477" lon="-2.074842"><ele>388.66666666666663</ele><time>2026-04-11T08:19:51.366Z</time></trkpt><trkpt lat="37.1166094" lon="-2.0750897"><ele>388.33333333333337</ele><time>2026-04-11T08:19:52.366Z</time></trkpt><trkpt lat="37.1165727" lon="-2.0753379"><ele>388.0</ele><time>2026-04-11T08:19:53.366Z</time></trkpt><trkpt lat="37.1165349" lon="-2.0755747"><ele>384.6666666666667</ele><time>2026-04-11T08:19:54.366Z</time></trkpt><trkpt lat="37.1164982" lon="-2.0757899"><ele>381.33333333333337</ele><time>2026-04-11T08:19:55.366Z</time></trkpt><trkpt lat="37.1164561" lon="-2.0759994"><ele>378.0</ele><time>2026-04-11T08:19:56.366Z</time></trkpt><trkpt lat="37.1164056" lon="-2.0762071"><ele>378.0</ele><time>2026-04-11T08:19:57.365Z</time></trkpt><trkpt lat="37.1163405" lon="-2.0764229"><ele>378.0</ele><time>2026-04-11T08:19:58.365Z</time></trkpt><trkpt lat="37.1162387" lon="-2.0766409"><ele>378.0</ele><time>2026-04-11T08:19:59.366Z</time></trkpt><trkpt lat="37.116142" lon="-2.0768674"><ele>376.0</ele><time>2026-04-11T08:20:00.366Z</time></trkpt><trkpt lat="37.1160382" lon="-2.0771227"><ele>374.0</ele><time>2026-04-11T08:20:01.366Z</time></trkpt><trkpt lat="37.115932" lon="-2.0773866"><ele>373.0</ele><time>2026-04-11T08:20:02.366Z</time></trkpt><trkpt lat="37.1158237" lon="-2.0776556"><ele>372.0</ele><time>2026-04-11T08:20:03.365Z</time></trkpt><trkpt lat="37.1157096" lon="-2.0779315"><ele>371.5</ele><time>2026-04-11T08:20:04.366Z</time></trkpt><trkpt lat="37.1155852" lon="-2.0782123"><ele>371.0</ele><time>2026-04-11T08:20:05.366Z</time></trkpt><trkpt lat="37.1154557" lon="-2.0784952"><ele>367.5</ele><time>2026-04-11T08:20:06.365Z</time></trkpt><trkpt lat="37.1153229" lon="-2.0787755"><ele>364.0</ele><time>2026-04-11T08:20:07.366Z</time></trkpt><trkpt lat="37.1151882" lon="-2.0790597"><ele>363.5</ele><time>2026-04-11T08:20:08.366Z</time></trkpt><trkpt lat="37.1150603" lon="-2.0793246"><ele>363.0</ele><time>2026-04-11T08:20:09.366Z</time></trkpt><trkpt lat="37.1149365" lon="-2.07957"><ele>360.5</ele><time>2026-04-11T08:20:10.366Z</time></trkpt><trkpt lat="37.1148007" lon="-2.079802"><ele>358.0</ele><time>2026-04-11T08:20:11.366Z</time></trkpt><trkpt lat="37.1146358" lon="-2.0800079"><ele>358.0</ele><time>2026-04-11T08:20:12.366Z</time></trkpt><trkpt lat="37.1144496" lon="-2.0801963"><ele>358.0</ele><time>2026-04-11T08:20:13.366Z</time></trkpt><trkpt lat="37.1142442" lon="-2.0803563"><ele>355.5</ele><time>2026-04-11T08:20:14.366Z</time></trkpt><trkpt lat="37.1140287" lon="-2.0804943"><ele>353.0</ele><time>2026-04-11T08:20:15.366Z</time></trkpt><trkpt lat="37.1138051" lon="-2.0806152"><ele>353.0</ele><time>2026-04-11T08:20:16.366Z</time></trkpt><trkpt lat="37.1135829" lon="-2.0807214"><ele>353.0</ele><time>2026-04-11T08:20:17.366Z</time></trkpt><trkpt lat="37.1133586" lon="-2.080829"><ele>355.5</ele><time>2026-04-11T08:20:18.366Z</time></trkpt><trkpt lat="37.113096" lon="-2.080948"><ele>358.0</ele><time>2026-04-11T08:20:20.043Z</time></trkpt><trkpt lat="37.1127394" lon="-2.0811717"><ele>358.0</ele><time>2026-04-11T08:20:21.346Z</time></trkpt><trkpt lat="37.112572" lon="-2.0813422"><ele>358.0</ele><time>2026-04-11T08:20:22.348Z</time></trkpt><trkpt lat="37.1124209" lon="-2.0815409"><ele>358.0</ele><time>2026-04-11T08:20:23.35Z</time></trkpt><trkpt lat="37.1122862" lon="-2.0817662"><ele>362.5</ele><time>2026-04-11T08:20:24.391Z</time></trkpt><trkpt lat="37.1121562" lon="-2.0820113"><ele>367.0</ele><time>2026-04-11T08:20:25.354Z</time></trkpt><trkpt lat="37.1120238" lon="-2.0822562"><ele>365.66666666666663</ele><time>2026-04-11T08:20:26.354Z</time></trkpt><trkpt lat="37.1119008" lon="-2.0824908"><ele>364.3333333333333</ele><time>2026-04-11T08:20:27.354Z</time></trkpt><trkpt lat="37.111789" lon="-2.0827206"><ele>363.0</ele><time>2026-04-11T08:20:28.354Z</time></trkpt><trkpt lat="37.1116962" lon="-2.0829279"><ele>363.0</ele><time>2026-04-11T08:20:29.353Z</time></trkpt><trkpt lat="37.1116258" lon="-2.083117"><ele>363.0</ele><time>2026-04-11T08:20:30.354Z</time></trkpt><trkpt lat="37.1115801" lon="-2.0832995"><ele>363.0</ele><time>2026-04-11T08:20:31.353Z</time></trkpt><trkpt lat="37.1115723" lon="-2.0834891"><ele>361.25</ele><time>2026-04-11T08:20:32.354Z</time></trkpt><trkpt lat="37.1116037" lon="-2.0836636"><ele>359.5</ele><time>2026-04-11T08:20:33.354Z</time></trkpt><trkpt lat="37.1116704" lon="-2.0838274"><ele>357.75</ele><time>2026-04-11T08:20:34.354Z</time></trkpt><trkpt lat="37.1117636" lon="-2.083972"><ele>356.0</ele><time>2026-04-11T08:20:35.354Z</time></trkpt><trkpt lat="37.111872" lon="-2.0840796"><ele>351.6666666666667</ele><time>2026-04-11T08:20:36.354Z</time></trkpt><trkpt lat="37.1120495" lon="-2.0840985"><ele>347.3333333333333</ele><time>2026-04-11T08:20:37.353Z</time></trkpt><trkpt lat="37.1122046" lon="-2.0841093"><ele>343.0</ele><time>2026-04-11T08:20:38.353Z</time></trkpt><trkpt lat="37.1123718" lon="-2.0841014"><ele>348.0</ele><time>2026-04-11T08:20:39.353Z</time></trkpt><trkpt lat="37.1125672" lon="-2.0840602"><ele>353.0</ele><time>2026-04-11T08:20:40.354Z</time></trkpt><trkpt lat="37.1127588" lon="-2.0840447"><ele>358.0</ele><time>2026-04-11T08:20:41.354Z</time></trkpt><trkpt lat="37.1129534" lon="-2.0840689"><ele>353.66666666666663</ele><time>2026-04-11T08:20:42.354Z</time></trkpt><trkpt lat="37.1131495" lon="-2.0841167"><ele>349.3333333333333</ele><time>2026-04-11T08:20:43.354Z</time></trkpt><trkpt lat="37.11334" lon="-2.0841802"><ele>345.0</ele><time>2026-04-11T08:20:44.354Z</time></trkpt><trkpt lat="37.1135271" lon="-2.084239"><ele>345.0</ele><time>2026-04-11T08:20:45.354Z</time></trkpt><trkpt lat="37.1136879" lon="-2.0842994"><ele>345.0</ele><time>2026-04-11T08:20:46.353Z</time></trkpt><trkpt lat="37.1138288" lon="-2.0843745"><ele>345.0</ele><time>2026-04-11T08:20:47.354Z</time></trkpt><trkpt lat="37.1139469" lon="-2.0844831"><ele>345.0</ele><time>2026-04-11T08:20:48.354Z</time></trkpt><trkpt lat="37.1140497" lon="-2.0846279"><ele>345.0</ele><time>2026-04-11T08:20:49.354Z</time></trkpt><trkpt lat="37.1141176" lon="-2.0847977"><ele>345.0</ele><time>2026-04-11T08:20:50.354Z</time></trkpt><trkpt lat="37.1141455" lon="-2.0849831"><ele>342.6666666666667</ele><time>2026-04-11T08:20:51.354Z</time></trkpt><trkpt lat="37.1141358" lon="-2.0851706"><ele>340.33333333333337</ele><time>2026-04-11T08:20:52.354Z</time></trkpt><trkpt lat="37.1140845" lon="-2.0853614"><ele>338.0</ele><time>2026-04-11T08:20:53.354Z</time></trkpt><trkpt lat="37.1139927" lon="-2.0855297"><ele>336.6666666666667</ele><time>2026-04-11T08:20:54.354Z</time></trkpt><trkpt lat="37.1138575" lon="-2.0856612"><ele>335.3333333333333</ele><time>2026-04-11T08:20:55.354Z</time></trkpt><trkpt lat="37.1137047" lon="-2.0857674"><ele>334.0</ele><time>2026-04-11T08:20:56.354Z</time></trkpt><trkpt lat="37.1135387" lon="-2.0858607"><ele>334.0</ele><time>2026-04-11T08:20:57.354Z</time></trkpt><trkpt lat="37.1133618" lon="-2.0859585"><ele>334.0</ele><time>2026-04-11T08:20:58.354Z</time></trkpt><trkpt lat="37.1131793" lon="-2.0860723"><ele>334.0</ele><time>2026-04-11T08:20:59.353Z</time></trkpt><trkpt lat="37.1130022" lon="-2.0862248"><ele>331.3333333333333</ele><time>2026-04-11T08:21:00.354Z</time></trkpt><trkpt lat="37.112835" lon="-2.0864023"><ele>328.6666666666667</ele><time>2026-04-11T08:21:01.354Z</time></trkpt><trkpt lat="37.1126798" lon="-2.0865983"><ele>326.0</ele><time>2026-04-11T08:21:02.354Z</time></trkpt><trkpt lat="37.1125277" lon="-2.0868139"><ele>323.0</ele><time>2026-04-11T08:21:03.353Z</time></trkpt><trkpt lat="37.1123727" lon="-2.0870304"><ele>320.0</ele><time>2026-04-11T08:21:04.354Z</time></trkpt><trkpt lat="37.1122149" lon="-2.0872479"><ele>321.5</ele><time>2026-04-11T08:21:05.353Z</time></trkpt><trkpt lat="37.1120533" lon="-2.0874626"><ele>323.0</ele><time>2026-04-11T08:21:06.354Z</time></trkpt><trkpt lat="37.111884" lon="-2.0876715"><ele>323.0</ele><time>2026-04-11T08:21:07.354Z</time></trkpt><trkpt lat="37.1117021" lon="-2.0878695"><ele>323.0</ele><time>2026-04-11T08:21:08.353Z</time></trkpt><trkpt lat="37.1115052" lon="-2.0880418"><ele>321.5</ele><time>2026-04-11T08:21:09.354Z</time></trkpt><trkpt lat="37.1112941" lon="-2.0881924"><ele>320.0</ele><time>2026-04-11T08:21:10.353Z</time></trkpt><trkpt lat="37.1110779" lon="-2.0883278"><ele>323.0</ele><time>2026-04-11T08:21:11.354Z</time></trkpt><trkpt lat="37.1108552" lon="-2.0884388"><ele>326.0</ele><time>2026-04-11T08:21:12.354Z</time></trkpt><trkpt lat="37.110635" lon="-2.0885419"><ele>327.5</ele><time>2026-04-11T08:21:13.354Z</time></trkpt><trkpt lat="37.1104175" lon="-2.0886434"><ele>329.0</ele><time>2026-04-11T08:21:14.354Z</time></trkpt><trkpt lat="37.1102018" lon="-2.0887408"><ele>329.0</ele><time>2026-04-11T08:21:15.353Z</time></trkpt><trkpt lat="37.1099935" lon="-2.088839"><ele>329.0</ele><time>2026-04-11T08:21:16.353Z</time></trkpt><trkpt lat="37.1097917" lon="-2.0889436"><ele>329.0</ele><time>2026-04-11T08:21:17.354Z</time></trkpt><trkpt lat="37.109594" lon="-2.0890635"><ele>331.33333333333337</ele><time>2026-04-11T08:21:18.354Z</time></trkpt><trkpt lat="37.1094069" lon="-2.0891978"><ele>333.6666666666667</ele><time>2026-04-11T08:21:19.354Z</time></trkpt><trkpt lat="37.1092278" lon="-2.0893604"><ele>336.0</ele><time>2026-04-11T08:21:20.354Z</time></trkpt><trkpt lat="37.1090618" lon="-2.089542"><ele>336.0</ele><time>2026-04-11T08:21:21.354Z</time></trkpt><trkpt lat="37.1089046" lon="-2.0897413"><ele>336.0</ele><time>2026-04-11T08:21:22.354Z</time></trkpt><trkpt lat="37.1087631" lon="-2.0899555"><ele>336.0</ele><time>2026-04-11T08:21:23.354Z</time></trkpt><trkpt lat="37.1086287" lon="-2.0901855"><ele>337.0</ele><time>2026-04-11T08:21:24.354Z</time></trkpt><trkpt lat="37.1085018" lon="-2.0904173"><ele>338.0</ele><time>2026-04-11T08:21:25.354Z</time></trkpt><trkpt lat="37.1083629" lon="-2.0906537"><ele>335.5</ele><time>2026-04-11T08:21:26.354Z</time></trkpt><trkpt lat="37.1082134" lon="-2.0908759"><ele>333.0</ele><time>2026-04-11T08:21:27.354Z</time></trkpt><trkpt lat="37.1080463" lon="-2.0910764"><ele>333.0</ele><time>2026-04-11T08:21:28.354Z</time></trkpt><trkpt lat="37.1078596" lon="-2.0912596"><ele>333.0</ele><time>2026-04-11T08:21:29.353Z</time></trkpt><trkpt lat="37.1076583" lon="-2.0914189"><ele>333.0</ele><time>2026-04-11T08:21:30.354Z</time></trkpt><trkpt lat="37.1074489" lon="-2.0915588"><ele>333.0</ele><time>2026-04-11T08:21:31.354Z</time></trkpt><trkpt lat="37.1072732" lon="-2.0916772"><ele>333.0</ele><time>2026-04-11T08:21:32.687Z</time></trkpt><trkpt lat="37.1070277" lon="-2.0918341"><ele>335.0</ele><time>2026-04-11T08:21:33.836Z</time></trkpt><trkpt lat="37.1065934" lon="-2.092112"><ele>334.0</ele><time>2026-04-11T08:21:35.365Z</time></trkpt><trkpt lat="37.106383" lon="-2.0922651"><ele>333.0</ele><time>2026-04-11T08:21:36.355Z</time></trkpt><trkpt lat="37.1061768" lon="-2.0924303"><ele>333.0</ele><time>2026-04-11T08:21:37.375Z</time></trkpt><trkpt lat="37.1059705" lon="-2.0926132"><ele>333.0</ele><time>2026-04-11T08:21:38.348Z</time></trkpt><trkpt lat="37.1057737" lon="-2.0928158"><ele>328.5</ele><time>2026-04-11T08:21:39.358Z</time></trkpt><trkpt lat="37.1055819" lon="-2.0930285"><ele>324.0</ele><time>2026-04-11T08:21:40.357Z</time></trkpt><trkpt lat="37.1053953" lon="-2.093254"><ele>326.5</ele><time>2026-04-11T08:21:41.358Z</time></trkpt><trkpt lat="37.105209" lon="-2.093482"><ele>329.0</ele><time>2026-04-11T08:21:42.358Z</time></trkpt><trkpt lat="37.1050251" lon="-2.0937161"><ele>327.0</ele><time>2026-04-11T08:21:43.357Z</time></trkpt><trkpt lat="37.1048421" lon="-2.093948"><ele>325.0</ele><time>2026-04-11T08:21:44.358Z</time></trkpt><trkpt lat="37.1046599" lon="-2.0941761"><ele>325.0</ele><time>2026-04-11T08:21:45.358Z</time></trkpt><trkpt lat="37.1044811" lon="-2.0944049"><ele>325.0</ele><time>2026-04-11T08:21:46.358Z</time></trkpt><trkpt lat="37.1043052" lon="-2.0946289"><ele>325.0</ele><time>2026-04-11T08:21:47.358Z</time></trkpt><trkpt lat="37.1041366" lon="-2.0948501"><ele>325.0</ele><time>2026-04-11T08:21:48.358Z</time></trkpt><trkpt lat="37.1039786" lon="-2.0950844"><ele>324.5</ele><time>2026-04-11T08:21:49.358Z</time></trkpt><trkpt lat="37.1038344" lon="-2.0953314"><ele>324.0</ele><time>2026-04-11T08:21:50.358Z</time></trkpt><trkpt lat="37.1037" lon="-2.0955934"><ele>323.0</ele><time>2026-04-11T08:21:51.357Z</time></trkpt><trkpt lat="37.1035689" lon="-2.0958753"><ele>322.0</ele><time>2026-04-11T08:21:52.358Z</time></trkpt><trkpt lat="37.1034418" lon="-2.0961625"><ele>322.0</ele><time>2026-04-11T08:21:53.358Z</time></trkpt><trkpt lat="37.1033188" lon="-2.0964533"><ele>322.0</ele><time>2026-04-11T08:21:54.358Z</time></trkpt><trkpt lat="37.103191" lon="-2.0967425"><ele>321.5</ele><time>2026-04-11T08:21:55.358Z</time></trkpt><trkpt lat="37.1030559" lon="-2.0970273"><ele>321.0</ele><time>2026-04-11T08:21:56.357Z</time></trkpt><trkpt lat="37.1029139" lon="-2.0973145"><ele>320.0</ele><time>2026-04-11T08:21:57.358Z</time></trkpt><trkpt lat="37.1027616" lon="-2.0975974"><ele>319.0</ele><time>2026-04-11T08:21:58.358Z</time></trkpt><trkpt lat="37.1025937" lon="-2.0978784"><ele>319.0</ele><time>2026-04-11T08:21:59.358Z</time></trkpt><trkpt lat="37.1024158" lon="-2.0981552"><ele>319.0</ele><time>2026-04-11T08:22:00.357Z</time></trkpt><trkpt lat="37.1022314" lon="-2.0984313"><ele>320.0</ele><time>2026-04-11T08:22:01.357Z</time></trkpt><trkpt lat="37.1020422" lon="-2.0987114"><ele>321.0</ele><time>2026-04-11T08:22:02.358Z</time></trkpt><trkpt lat="37.1018549" lon="-2.098997"><ele>323.5</ele><time>2026-04-11T08:22:03.358Z</time></trkpt><trkpt lat="37.1016611" lon="-2.0992861"><ele>326.0</ele><time>2026-04-11T08:22:04.358Z</time></trkpt><trkpt lat="37.1014731" lon="-2.0995705"><ele>326.5</ele><time>2026-04-11T08:22:05.358Z</time></trkpt><trkpt lat="37.1012812" lon="-2.0998535"><ele>327.0</ele><time>2026-04-11T08:22:06.358Z</time></trkpt><trkpt lat="37.1010879" lon="-2.1001359"><ele>327.5</ele><time>2026-04-11T08:22:07.358Z</time></trkpt><trkpt lat="37.1008899" lon="-2.1004285"><ele>328.0</ele><time>2026-04-11T08:22:08.358Z</time></trkpt><trkpt lat="37.1006959" lon="-2.1007217"><ele>327.5</ele><time>2026-04-11T08:22:09.357Z</time></trkpt><trkpt lat="37.1004998" lon="-2.1010222"><ele>327.0</ele><time>2026-04-11T08:22:10.358Z</time></trkpt><trkpt lat="37.1003029" lon="-2.1013228"><ele>328.0</ele><time>2026-04-11T08:22:11.358Z</time></trkpt><trkpt lat="37.1001079" lon="-2.1016223"><ele>329.0</ele><time>2026-04-11T08:22:12.358Z</time></trkpt><trkpt lat="37.0999088" lon="-2.1019182"><ele>329.0</ele><time>2026-04-11T08:22:13.358Z</time></trkpt><trkpt lat="37.099713" lon="-2.1022086"><ele>329.0</ele><time>2026-04-11T08:22:14.358Z</time></trkpt><trkpt lat="37.0995161" lon="-2.1024992"><ele>330.5</ele><time>2026-04-11T08:22:15.358Z</time></trkpt><trkpt lat="37.0993212" lon="-2.1027909"><ele>332.0</ele><time>2026-04-11T08:22:16.358Z</time></trkpt><trkpt lat="37.0991232" lon="-2.1030806"><ele>331.5</ele><time>2026-04-11T08:22:17.358Z</time></trkpt><trkpt lat="37.0989282" lon="-2.1033638"><ele>331.0</ele><time>2026-04-11T08:22:18.358Z</time></trkpt><trkpt lat="37.098732" lon="-2.1036586"><ele>331.0</ele><time>2026-04-11T08:22:19.357Z</time></trkpt><trkpt lat="37.0985411" lon="-2.1039587"><ele>331.0</ele><time>2026-04-11T08:22:20.358Z</time></trkpt><trkpt lat="37.0983607" lon="-2.104259"><ele>330.0</ele><time>2026-04-11T08:22:21.358Z</time></trkpt><trkpt lat="37.0981898" lon="-2.1045596"><ele>329.0</ele><time>2026-04-11T08:22:22.358Z</time></trkpt><trkpt lat="37.0980263" lon="-2.1048479"><ele>331.0</ele><time>2026-04-11T08:22:23.357Z</time></trkpt><trkpt lat="37.0978678" lon="-2.1051302"><ele>333.0</ele><time>2026-04-11T08:22:24.358Z</time></trkpt><trkpt lat="37.0977169" lon="-2.1053948"><ele>333.0</ele><time>2026-04-11T08:22:25.358Z</time></trkpt><trkpt lat="37.0975749" lon="-2.1056455"><ele>333.0</ele><time>2026-04-11T08:22:26.358Z</time></trkpt><trkpt lat="37.0974361" lon="-2.1058861"><ele>334.0</ele><time>2026-04-11T08:22:27.358Z</time></trkpt><trkpt lat="37.097303" lon="-2.1061189"><ele>335.0</ele><time>2026-04-11T08:22:28.358Z</time></trkpt><trkpt lat="37.0971753" lon="-2.106355"><ele>340.5</ele><time>2026-04-11T08:22:29.358Z</time></trkpt><trkpt lat="37.0970595" lon="-2.1066023"><ele>346.0</ele><time>2026-04-11T08:22:30.357Z</time></trkpt><trkpt lat="37.0969661" lon="-2.1068667"><ele>346.0</ele><time>2026-04-11T08:22:31.358Z</time></trkpt><trkpt lat="37.096906" lon="-2.1071406"><ele>346.0</ele><time>2026-04-11T08:22:32.358Z</time></trkpt><trkpt lat="37.0968591" lon="-2.1074253"><ele>353.0</ele><time>2026-04-11T08:22:33.358Z</time></trkpt><trkpt lat="37.09681" lon="-2.1077153"><ele>360.0</ele><time>2026-04-11T08:22:34.357Z</time></trkpt><trkpt lat="37.0967614" lon="-2.1080003"><ele>364.0</ele><time>2026-04-11T08:22:35.357Z</time></trkpt><trkpt lat="37.0967117" lon="-2.1082783"><ele>368.0</ele><time>2026-04-11T08:22:36.358Z</time></trkpt><trkpt lat="37.0966473" lon="-2.1085483"><ele>364.6666666666667</ele><time>2026-04-11T08:22:37.357Z</time></trkpt><trkpt lat="37.0965731" lon="-2.1088"><ele>361.3333333333333</ele><time>2026-04-11T08:22:38.358Z</time></trkpt><trkpt lat="37.0964827" lon="-2.1090428"><ele>358.0</ele><time>2026-04-11T08:22:39.358Z</time></trkpt><trkpt lat="37.0963706" lon="-2.1092921"><ele>357.0</ele><time>2026-04-11T08:22:40.358Z</time></trkpt><trkpt lat="37.0962534" lon="-2.1095477"><ele>356.0</ele><time>2026-04-11T08:22:41.358Z</time></trkpt><trkpt lat="37.0961361" lon="-2.1098008"><ele>354.5</ele><time>2026-04-11T08:22:42.358Z</time></trkpt><trkpt lat="37.096013" lon="-2.1100632"><ele>353.0</ele><time>2026-04-11T08:22:43.358Z</time></trkpt><trkpt lat="37.0958933" lon="-2.110326"><ele>353.0</ele><time>2026-04-11T08:22:44.357Z</time></trkpt><trkpt lat="37.0957749" lon="-2.1105833"><ele>353.0</ele><time>2026-04-11T08:22:45.358Z</time></trkpt><trkpt lat="37.0956533" lon="-2.1108392"><ele>353.0</ele><time>2026-04-11T08:22:46.357Z</time></trkpt><trkpt lat="37.0955326" lon="-2.1110985"><ele>353.0</ele><time>2026-04-11T08:22:47.358Z</time></trkpt><trkpt lat="37.0954089" lon="-2.1113585"><ele>354.5</ele><time>2026-04-11T08:22:48.358Z</time></trkpt><trkpt lat="37.0952855" lon="-2.1116148"><ele>356.0</ele><time>2026-04-11T08:22:49.358Z</time></trkpt><trkpt lat="37.0951639" lon="-2.1118723"><ele>356.0</ele><time>2026-04-11T08:22:50.358Z</time></trkpt><trkpt lat="37.0950462" lon="-2.1121263"><ele>356.0</ele><time>2026-04-11T08:22:51.358Z</time></trkpt><trkpt lat="37.0949437" lon="-2.1123809"><ele>355.5</ele><time>2026-04-11T08:22:52.358Z</time></trkpt><trkpt lat="37.0948539" lon="-2.1126387"><ele>355.0</ele><time>2026-04-11T08:22:53.358Z</time></trkpt><trkpt lat="37.0947859" lon="-2.1129094"><ele>355.0</ele><time>2026-04-11T08:22:54.358Z</time></trkpt><trkpt lat="37.0947446" lon="-2.1131851"><ele>355.0</ele><time>2026-04-11T08:22:55.358Z</time></trkpt><trkpt lat="37.094732" lon="-2.1134702"><ele>355.5</ele><time>2026-04-11T08:22:56.357Z</time></trkpt><trkpt lat="37.0947439" lon="-2.1137473"><ele>356.0</ele><time>2026-04-11T08:22:57.358Z</time></trkpt><trkpt lat="37.0947673" lon="-2.1140398"><ele>355.5</ele><time>2026-04-11T08:22:58.357Z</time></trkpt><trkpt lat="37.094806" lon="-2.1143311"><ele>355.0</ele><time>2026-04-11T08:22:59.358Z</time></trkpt><trkpt lat="37.0948524" lon="-2.1146227"><ele>359.0</ele><time>2026-04-11T08:23:00.358Z</time></trkpt><trkpt lat="37.094898" lon="-2.1149171"><ele>363.0</ele><time>2026-04-11T08:23:01.358Z</time></trkpt><trkpt lat="37.0949408" lon="-2.1152152"><ele>365.0</ele><time>2026-04-11T08:23:02.358Z</time></trkpt><trkpt lat="37.0949844" lon="-2.1155183"><ele>367.0</ele><time>2026-04-11T08:23:03.358Z</time></trkpt><trkpt lat="37.0950279" lon="-2.1158199"><ele>368.0</ele><time>2026-04-11T08:23:04.357Z</time></trkpt><trkpt lat="37.0950724" lon="-2.1161214"><ele>369.0</ele><time>2026-04-11T08:23:05.357Z</time></trkpt><trkpt lat="37.0951151" lon="-2.1164249"><ele>369.5</ele><time>2026-04-11T08:23:06.358Z</time></trkpt><trkpt lat="37.0951519" lon="-2.1167246"><ele>370.0</ele><time>2026-04-11T08:23:07.358Z</time></trkpt><trkpt lat="37.0951808" lon="-2.1170271"><ele>370.0</ele><time>2026-04-11T08:23:08.357Z</time></trkpt><trkpt lat="37.0951999" lon="-2.1173304"><ele>370.0</ele><time>2026-04-11T08:23:09.358Z</time></trkpt><trkpt lat="37.0952169" lon="-2.1176334"><ele>371.5</ele><time>2026-04-11T08:23:10.357Z</time></trkpt><trkpt lat="37.0952273" lon="-2.1179367"><ele>373.0</ele><time>2026-04-11T08:23:11.357Z</time></trkpt><trkpt lat="37.0952295" lon="-2.1182381"><ele>375.5</ele><time>2026-04-11T08:23:12.358Z</time></trkpt><trkpt lat="37.0952302" lon="-2.1185369"><ele>378.0</ele><time>2026-04-11T08:23:13.358Z</time></trkpt><trkpt lat="37.0952295" lon="-2.1188335"><ele>378.0</ele><time>2026-04-11T08:23:14.358Z</time></trkpt><trkpt lat="37.0952312" lon="-2.1191195"><ele>378.0</ele><time>2026-04-11T08:23:15.358Z</time></trkpt><trkpt lat="37.0952436" lon="-2.1193921"><ele>378.0</ele><time>2026-04-11T08:23:16.357Z</time></trkpt><trkpt lat="37.0952669" lon="-2.1196599"><ele>375.0</ele><time>2026-04-11T08:23:17.358Z</time></trkpt><trkpt lat="37.0953017" lon="-2.1199283"><ele>372.0</ele><time>2026-04-11T08:23:18.358Z</time></trkpt><trkpt lat="37.0953406" lon="-2.1201839"><ele>369.0</ele><time>2026-04-11T08:23:19.358Z</time></trkpt><trkpt lat="37.0953896" lon="-2.1204404"><ele>369.0</ele><time>2026-04-11T08:23:20.358Z</time></trkpt><trkpt lat="37.0954432" lon="-2.1206888"><ele>369.0</ele><time>2026-04-11T08:23:21.358Z</time></trkpt><trkpt lat="37.0955" lon="-2.1209327"><ele>369.0</ele><time>2026-04-11T08:23:22.358Z</time></trkpt><trkpt lat="37.0955597" lon="-2.1211848"><ele>367.3333333333333</ele><time>2026-04-11T08:23:23.357Z</time></trkpt><trkpt lat="37.0956154" lon="-2.1214103"><ele>365.66666666666663</ele><time>2026-04-11T08:23:24.357Z</time></trkpt><trkpt lat="37.0956689" lon="-2.1216377"><ele>364.0</ele><time>2026-04-11T08:23:25.358Z</time></trkpt><trkpt lat="37.0957191" lon="-2.1218496"><ele>364.0</ele><time>2026-04-11T08:23:26.358Z</time></trkpt><trkpt lat="37.0957699" lon="-2.1220571"><ele>364.0</ele><time>2026-04-11T08:23:27.358Z</time></trkpt><trkpt lat="37.0958181" lon="-2.1222579"><ele>364.0</ele><time>2026-04-11T08:23:28.358Z</time></trkpt><trkpt lat="37.095867" lon="-2.1224567"><ele>364.0</ele><time>2026-04-11T08:23:29.358Z</time></trkpt><trkpt lat="37.0959145" lon="-2.1226475"><ele>364.0</ele><time>2026-04-11T08:23:30.358Z</time></trkpt><trkpt lat="37.0959599" lon="-2.1228395"><ele>364.0</ele><time>2026-04-11T08:23:31.358Z</time></trkpt><trkpt lat="37.0960019" lon="-2.1230308"><ele>364.0</ele><time>2026-04-11T08:23:32.358Z</time></trkpt><trkpt lat="37.0960479" lon="-2.1232206"><ele>364.0</ele><time>2026-04-11T08:23:33.358Z</time></trkpt><trkpt lat="37.0960953" lon="-2.1234097"><ele>364.0</ele><time>2026-04-11T08:23:34.358Z</time></trkpt><trkpt lat="37.096135" lon="-2.1235991"><ele>363.3333333333333</ele><time>2026-04-11T08:23:35.358Z</time></trkpt><trkpt lat="37.096174" lon="-2.1237853"><ele>362.6666666666667</ele><time>2026-04-11T08:23:36.358Z</time></trkpt><trkpt lat="37.0962028" lon="-2.123968"><ele>362.0</ele><time>2026-04-11T08:23:37.358Z</time></trkpt><trkpt lat="37.0962165" lon="-2.1241524"><ele>367.0</ele><time>2026-04-11T08:23:38.358Z</time></trkpt><trkpt lat="37.0962243" lon="-2.1243313"><ele>372.0</ele><time>2026-04-11T08:23:39.358Z</time></trkpt><trkpt lat="37.0962036" lon="-2.1245177"><ele>377.0</ele><time>2026-04-11T08:23:40.358Z</time></trkpt><trkpt lat="37.0961632" lon="-2.1246954"><ele>382.0</ele><time>2026-04-11T08:23:41.358Z</time></trkpt><trkpt lat="37.0961144" lon="-2.1248691"><ele>382.0</ele><time>2026-04-11T08:23:42.358Z</time></trkpt><trkpt lat="37.0960498" lon="-2.1250353"><ele>382.0</ele><time>2026-04-11T08:23:43.358Z</time></trkpt><trkpt lat="37.0959722" lon="-2.1251955"><ele>382.0</ele><time>2026-04-11T08:23:44.358Z</time></trkpt><trkpt lat="37.0958911" lon="-2.1253589"><ele>382.0</ele><time>2026-04-11T08:23:45.358Z</time></trkpt><trkpt lat="37.095809" lon="-2.1255314"><ele>382.0</ele><time>2026-04-11T08:23:46.358Z</time></trkpt><trkpt lat="37.09573" lon="-2.1257139"><ele>382.0</ele><time>2026-04-11T08:23:47.358Z</time></trkpt><trkpt lat="37.0956626" lon="-2.1259013"><ele>389.0</ele><time>2026-04-11T08:23:48.357Z</time></trkpt><trkpt lat="37.0956044" lon="-2.1260959"><ele>396.0</ele><time>2026-04-11T08:23:49.358Z</time></trkpt><trkpt lat="37.0955585" lon="-2.1262969"><ele>403.0</ele><time>2026-04-11T08:23:50.358Z</time></trkpt><trkpt lat="37.0955222" lon="-2.1264978"><ele>402.0</ele><time>2026-04-11T08:23:51.357Z</time></trkpt><trkpt lat="37.0955088" lon="-2.1266963"><ele>401.0</ele><time>2026-04-11T08:23:52.358Z</time></trkpt><trkpt lat="37.0955241" lon="-2.1268824"><ele>400.0</ele><time>2026-04-11T08:23:53.358Z</time></trkpt><trkpt lat="37.0955754" lon="-2.1270619"><ele>400.0</ele><time>2026-04-11T08:23:54.357Z</time></trkpt><trkpt lat="37.0956544" lon="-2.1272236"><ele>400.0</ele><time>2026-04-11T08:23:55.358Z</time></trkpt><trkpt lat="37.0957673" lon="-2.1273681"><ele>400.0</ele><time>2026-04-11T08:23:56.358Z</time></trkpt><trkpt lat="37.0959041" lon="-2.1274852"><ele>395.0</ele><time>2026-04-11T08:23:57.358Z</time></trkpt><trkpt lat="37.0960598" lon="-2.1275722"><ele>390.0</ele><time>2026-04-11T08:23:58.357Z</time></trkpt><trkpt lat="37.0962242" lon="-2.1276409"><ele>385.0</ele><time>2026-04-11T08:23:59.358Z</time></trkpt><trkpt lat="37.0963926" lon="-2.1276954"><ele>385.0</ele><time>2026-04-11T08:24:00.358Z</time></trkpt><trkpt lat="37.0965653" lon="-2.1277303"><ele>385.0</ele><time>2026-04-11T08:24:01.358Z</time></trkpt><trkpt lat="37.0967386" lon="-2.1277248"><ele>385.0</ele><time>2026-04-11T08:24:02.358Z</time></trkpt><trkpt lat="37.0969126" lon="-2.1276851"><ele>384.0</ele><time>2026-04-11T08:24:03.358Z</time></trkpt><trkpt lat="37.0970888" lon="-2.1276309"><ele>383.0</ele><time>2026-04-11T08:24:04.358Z</time></trkpt><trkpt lat="37.0972599" lon="-2.1275739"><ele>382.0</ele><time>2026-04-11T08:24:05.357Z</time></trkpt><trkpt lat="37.0974224" lon="-2.1275214"><ele>381.66666666666663</ele><time>2026-04-11T08:24:06.358Z</time></trkpt><trkpt lat="37.0975775" lon="-2.1274692"><ele>381.3333333333333</ele><time>2026-04-11T08:24:07.357Z</time></trkpt><trkpt lat="37.0977233" lon="-2.1274202"><ele>381.0</ele><time>2026-04-11T08:24:08.358Z</time></trkpt><trkpt lat="37.0978603" lon="-2.127375"><ele>381.0</ele><time>2026-04-11T08:24:09.358Z</time></trkpt><trkpt lat="37.0979806" lon="-2.127334"><ele>381.0</ele><time>2026-04-11T08:24:10.358Z</time></trkpt><trkpt lat="37.0980764" lon="-2.1273043"><ele>381.0</ele><time>2026-04-11T08:24:11.358Z</time></trkpt><trkpt lat="37.0981398" lon="-2.127284"><ele>381.0</ele><time>2026-04-11T08:24:12.358Z</time></trkpt><trkpt lat="37.0982432" lon="-2.1272553"><ele>381.0</ele><time>2026-04-11T08:24:14.358Z</time></trkpt><trkpt lat="37.098328" lon="-2.1272274"><ele>382.20000000000005</ele><time>2026-04-11T08:24:16.358Z</time></trkpt><trkpt lat="37.0984501" lon="-2.1271884"><ele>383.40000000000003</ele><time>2026-04-11T08:24:18.358Z</time></trkpt><trkpt lat="37.0985249" lon="-2.127159"><ele>384.6</ele><time>2026-04-11T08:24:19.358Z</time></trkpt><trkpt lat="37.0986143" lon="-2.1271311"><ele>385.8</ele><time>2026-04-11T08:24:20.358Z</time></trkpt><trkpt lat="37.0987069" lon="-2.1271066"><ele>387.0</ele><time>2026-04-11T08:24:21.358Z</time></trkpt><trkpt lat="37.0988058" lon="-2.1270882"><ele>387.0</ele><time>2026-04-11T08:24:22.358Z</time></trkpt><trkpt lat="37.0989101" lon="-2.1270812"><ele>387.0</ele><time>2026-04-11T08:24:23.358Z</time></trkpt><trkpt lat="37.0990201" lon="-2.1270834"><ele>387.0</ele><time>2026-04-11T08:24:24.358Z</time></trkpt><trkpt lat="37.0991381" lon="-2.1271064"><ele>387.0</ele><time>2026-04-11T08:24:25.357Z</time></trkpt><trkpt lat="37.0992518" lon="-2.1271518"><ele>388.75</ele><time>2026-04-11T08:24:26.357Z</time></trkpt><trkpt lat="37.0993556" lon="-2.1272089"><ele>390.5</ele><time>2026-04-11T08:24:27.358Z</time></trkpt><trkpt lat="37.0994615" lon="-2.127298"><ele>392.25</ele><time>2026-04-11T08:24:28.358Z</time></trkpt><trkpt lat="37.0995339" lon="-2.1274178"><ele>394.0</ele><time>2026-04-11T08:24:29.358Z</time></trkpt><trkpt lat="37.099597" lon="-2.1275555"><ele>396.0</ele><time>2026-04-11T08:24:30.358Z</time></trkpt><trkpt lat="37.0996513" lon="-2.1277078"><ele>398.0</ele><time>2026-04-11T08:24:31.358Z</time></trkpt><trkpt lat="37.0996892" lon="-2.127869"><ele>400.0</ele><time>2026-04-11T08:24:32.358Z</time></trkpt><trkpt lat="37.0997154" lon="-2.1280339"><ele>402.0</ele><time>2026-04-11T08:24:33.358Z</time></trkpt><trkpt lat="37.0997316" lon="-2.1281909"><ele>403.0</ele><time>2026-04-11T08:24:34.358Z</time></trkpt><trkpt lat="37.0997497" lon="-2.1283259"><ele>404.0</ele><time>2026-04-11T08:24:35.358Z</time></trkpt><trkpt lat="37.0997626" lon="-2.1284357"><ele>405.0</ele><time>2026-04-11T08:24:36.358Z</time></trkpt><trkpt lat="37.0997788" lon="-2.1285735"><ele>406.0</ele><time>2026-04-11T08:24:38.358Z</time></trkpt><trkpt lat="37.099789" lon="-2.1286517"><ele>407.0</ele><time>2026-04-11T08:24:39.358Z</time></trkpt><trkpt lat="37.0998038" lon="-2.1287491"><ele>407.0</ele><time>2026-04-11T08:24:40.358Z</time></trkpt><trkpt lat="37.0998142" lon="-2.1288625"><ele>407.0</ele><time>2026-04-11T08:24:41.357Z</time></trkpt><trkpt lat="37.0998307" lon="-2.1289892"><ele>407.0</ele><time>2026-04-11T08:24:42.358Z</time></trkpt><trkpt lat="37.0998462" lon="-2.1291174"><ele>407.0</ele><time>2026-04-11T08:24:43.358Z</time></trkpt><trkpt lat="37.0998662" lon="-2.1292556"><ele>407.0</ele><time>2026-04-11T08:24:44.358Z</time></trkpt><trkpt lat="37.0998868" lon="-2.1294039"><ele>408.0</ele><time>2026-04-11T08:24:45.358Z</time></trkpt><trkpt lat="37.0999061" lon="-2.1295585"><ele>409.0</ele><time>2026-04-11T08:24:46.358Z</time></trkpt><trkpt lat="37.0999263" lon="-2.1297065"><ele>410.0</ele><time>2026-04-11T08:24:47.358Z</time></trkpt><trkpt lat="37.0999431" lon="-2.1298454"><ele>411.0</ele><time>2026-04-11T08:24:48.358Z</time></trkpt><trkpt lat="37.0999615" lon="-2.1299808"><ele>411.0</ele><time>2026-04-11T08:24:49.357Z</time></trkpt><trkpt lat="37.0999772" lon="-2.1300975"><ele>411.0</ele><time>2026-04-11T08:24:50.358Z</time></trkpt><trkpt lat="37.0999931" lon="-2.1302042"><ele>411.0</ele><time>2026-04-11T08:24:51.358Z</time></trkpt><trkpt lat="37.1000097" lon="-2.1303019"><ele>411.0</ele><time>2026-04-11T08:24:52.358Z</time></trkpt><trkpt lat="37.1000201" lon="-2.1303895"><ele>411.0</ele><time>2026-04-11T08:24:53.358Z</time></trkpt><trkpt lat="37.100031" lon="-2.1304743"><ele>411.0</ele><time>2026-04-11T08:24:54.358Z</time></trkpt><trkpt lat="37.1000405" lon="-2.1305737"><ele>411.0</ele><time>2026-04-11T08:24:55.358Z</time></trkpt><trkpt lat="37.1000507" lon="-2.1306846"><ele>411.0</ele><time>2026-04-11T08:24:56.358Z</time></trkpt><trkpt lat="37.1000631" lon="-2.1308006"><ele>411.0</ele><time>2026-04-11T08:24:57.358Z</time></trkpt><trkpt lat="37.1000769" lon="-2.130942"><ele>411.0</ele><time>2026-04-11T08:24:58.358Z</time></trkpt><trkpt lat="37.1000856" lon="-2.1310741"><ele>411.0</ele><time>2026-04-11T08:24:59.358Z</time></trkpt><trkpt lat="37.1000933" lon="-2.1312336"><ele>411.5</ele><time>2026-04-11T08:25:00.358Z</time></trkpt><trkpt lat="37.1000957" lon="-2.1313903"><ele>412.0</ele><time>2026-04-11T08:25:01.358Z</time></trkpt><trkpt lat="37.1000985" lon="-2.1315512"><ele>412.5</ele><time>2026-04-11T08:25:02.358Z</time></trkpt><trkpt lat="37.100094" lon="-2.1317205"><ele>413.0</ele><time>2026-04-11T08:25:03.357Z</time></trkpt><trkpt lat="37.1000883" lon="-2.1318874"><ele>413.0</ele><time>2026-04-11T08:25:04.357Z</time></trkpt><trkpt lat="37.1000704" lon="-2.1320541"><ele>413.0</ele><time>2026-04-11T08:25:05.358Z</time></trkpt><trkpt lat="37.1000495" lon="-2.1322139"><ele>413.0</ele><time>2026-04-11T08:25:06.358Z</time></trkpt><trkpt lat="37.1000264" lon="-2.1323596"><ele>413.0</ele><time>2026-04-11T08:25:07.357Z</time></trkpt><trkpt lat="37.1000035" lon="-2.1324764"><ele>412.99999999999994</ele><time>2026-04-11T08:25:08.358Z</time></trkpt><trkpt lat="37.0999815" lon="-2.1325743"><ele>413.0</ele><time>2026-04-11T08:25:09.357Z</time></trkpt><trkpt lat="37.0999628" lon="-2.1326524"><ele>413.0</ele><time>2026-04-11T08:25:10.358Z</time></trkpt><trkpt lat="37.0999437" lon="-2.132733"><ele>413.0</ele><time>2026-04-11T08:25:11.358Z</time></trkpt><trkpt lat="37.0999194" lon="-2.1328275"><ele>412.99999999999994</ele><time>2026-04-11T08:25:12.358Z</time></trkpt><trkpt lat="37.0998824" lon="-2.1329404"><ele>413.0</ele><time>2026-04-11T08:25:13.358Z</time></trkpt><trkpt lat="37.0998443" lon="-2.1330692"><ele>413.5</ele><time>2026-04-11T08:25:14.358Z</time></trkpt><trkpt lat="37.0998021" lon="-2.1332167"><ele>414.0</ele><time>2026-04-11T08:25:15.358Z</time></trkpt><trkpt lat="37.0997558" lon="-2.1333771"><ele>414.5</ele><time>2026-04-11T08:25:16.358Z</time></trkpt><trkpt lat="37.0996963" lon="-2.1335543"><ele>415.0</ele><time>2026-04-11T08:25:17.358Z</time></trkpt><trkpt lat="37.0996392" lon="-2.1337409"><ele>415.0</ele><time>2026-04-11T08:25:18.358Z</time></trkpt><trkpt lat="37.0995774" lon="-2.133934"><ele>415.0</ele><time>2026-04-11T08:25:19.358Z</time></trkpt><trkpt lat="37.099509" lon="-2.1341425"><ele>415.0</ele><time>2026-04-11T08:25:20.357Z</time></trkpt><trkpt lat="37.099444" lon="-2.1343556"><ele>413.33333333333337</ele><time>2026-04-11T08:25:21.358Z</time></trkpt><trkpt lat="37.099375" lon="-2.1345791"><ele>411.66666666666663</ele><time>2026-04-11T08:25:22.357Z</time></trkpt><trkpt lat="37.0993037" lon="-2.1348073"><ele>410.0</ele><time>2026-04-11T08:25:23.358Z</time></trkpt><trkpt lat="37.0992417" lon="-2.1350278"><ele>408.66666666666663</ele><time>2026-04-11T08:25:24.358Z</time></trkpt><trkpt lat="37.0991733" lon="-2.1352515"><ele>407.33333333333337</ele><time>2026-04-11T08:25:25.358Z</time></trkpt><trkpt lat="37.0991077" lon="-2.135475"><ele>406.0</ele><time>2026-04-11T08:25:26.358Z</time></trkpt><trkpt lat="37.0990441" lon="-2.1356966"><ele>409.33333333333337</ele><time>2026-04-11T08:25:27.358Z</time></trkpt><trkpt lat="37.0989792" lon="-2.1359191"><ele>412.66666666666663</ele><time>2026-04-11T08:25:28.358Z</time></trkpt><trkpt lat="37.0989162" lon="-2.1361439"><ele>416.0</ele><time>2026-04-11T08:25:29.358Z</time></trkpt><trkpt lat="37.0988518" lon="-2.136368"><ele>414.66666666666663</ele><time>2026-04-11T08:25:30.358Z</time></trkpt><trkpt lat="37.0987963" lon="-2.1365901"><ele>413.33333333333337</ele><time>2026-04-11T08:25:31.358Z</time></trkpt><trkpt lat="37.0987433" lon="-2.1368156"><ele>412.0</ele><time>2026-04-11T08:25:32.358Z</time></trkpt><trkpt lat="37.0986946" lon="-2.1370423"><ele>412.0</ele><time>2026-04-11T08:25:33.358Z</time></trkpt><trkpt lat="37.0986482" lon="-2.1372665"><ele>412.0</ele><time>2026-04-11T08:25:34.358Z</time></trkpt><trkpt lat="37.0986095" lon="-2.1374912"><ele>412.0</ele><time>2026-04-11T08:25:35.358Z</time></trkpt><trkpt lat="37.098575" lon="-2.13771"><ele>410.6666666666667</ele><time>2026-04-11T08:25:36.358Z</time></trkpt><trkpt lat="37.0985465" lon="-2.1379253"><ele>409.33333333333337</ele><time>2026-04-11T08:25:37.358Z</time></trkpt><trkpt lat="37.0985197" lon="-2.1381432"><ele>408.0</ele><time>2026-04-11T08:25:38.357Z</time></trkpt><trkpt lat="37.0984975" lon="-2.1383647"><ele>408.0</ele><time>2026-04-11T08:25:39.358Z</time></trkpt><trkpt lat="37.098484" lon="-2.1385903"><ele>408.0</ele><time>2026-04-11T08:25:40.358Z</time></trkpt><trkpt lat="37.0984729" lon="-2.1388191"><ele>408.0</ele><time>2026-04-11T08:25:41.357Z</time></trkpt><trkpt lat="37.0984656" lon="-2.1390484"><ele>407.0</ele><time>2026-04-11T08:25:42.358Z</time></trkpt><trkpt lat="37.0984658" lon="-2.1392708"><ele>406.0</ele><time>2026-04-11T08:25:43.358Z</time></trkpt><trkpt lat="37.0984692" lon="-2.1394945"><ele>405.0</ele><time>2026-04-11T08:25:44.358Z</time></trkpt><trkpt lat="37.0984716" lon="-2.1397129"><ele>404.0</ele><time>2026-04-11T08:25:45.357Z</time></trkpt><trkpt lat="37.0984737" lon="-2.1399264"><ele>403.0</ele><time>2026-04-11T08:25:46.358Z</time></trkpt><trkpt lat="37.0984758" lon="-2.140135"><ele>402.0</ele><time>2026-04-11T08:25:47.358Z</time></trkpt><trkpt lat="37.0984786" lon="-2.1403388"><ele>402.0</ele><time>2026-04-11T08:25:48.358Z</time></trkpt><trkpt lat="37.0984792" lon="-2.1405295"><ele>402.0</ele><time>2026-04-11T08:25:49.358Z</time></trkpt><trkpt lat="37.098486" lon="-2.1407031"><ele>402.0</ele><time>2026-04-11T08:25:50.358Z</time></trkpt><trkpt lat="37.098486" lon="-2.1408832"><ele>402.0</ele><time>2026-04-11T08:25:51.358Z</time></trkpt><trkpt lat="37.098491" lon="-2.1410267"><ele>402.40000000000003</ele><time>2026-04-11T08:25:52.358Z</time></trkpt><trkpt lat="37.0984954" lon="-2.1411661"><ele>402.8</ele><time>2026-04-11T08:25:53.358Z</time></trkpt><trkpt lat="37.0985001" lon="-2.1412924"><ele>403.2</ele><time>2026-04-11T08:25:54.357Z</time></trkpt><trkpt lat="37.0985072" lon="-2.1414119"><ele>403.6</ele><time>2026-04-11T08:25:55.357Z</time></trkpt><trkpt lat="37.0985192" lon="-2.1415317"><ele>404.0</ele><time>2026-04-11T08:25:56.358Z</time></trkpt><trkpt lat="37.0985362" lon="-2.1416472"><ele>405.0</ele><time>2026-04-11T08:25:57.358Z</time></trkpt><trkpt lat="37.0985671" lon="-2.1417607"><ele>406.0</ele><time>2026-04-11T08:25:58.358Z</time></trkpt><trkpt lat="37.0986066" lon="-2.1418774"><ele>407.0</ele><time>2026-04-11T08:25:59.358Z</time></trkpt><trkpt lat="37.0986301" lon="-2.1420046"><ele>408.0</ele><time>2026-04-11T08:26:00.357Z</time></trkpt><trkpt lat="37.0986089" lon="-2.1421628"><ele>409.0</ele><time>2026-04-11T08:26:01.358Z</time></trkpt><trkpt lat="37.098575" lon="-2.1423148"><ele>409.25</ele><time>2026-04-11T08:26:02.357Z</time></trkpt><trkpt lat="37.0985475" lon="-2.1424844"><ele>409.5</ele><time>2026-04-11T08:26:03.358Z</time></trkpt><trkpt lat="37.0985362" lon="-2.1426616"><ele>409.75</ele><time>2026-04-11T08:26:04.358Z</time></trkpt><trkpt lat="37.0985345" lon="-2.1428421"><ele>410.0</ele><time>2026-04-11T08:26:05.358Z</time></trkpt><trkpt lat="37.098536" lon="-2.1430325"><ele>411.3333333333333</ele><time>2026-04-11T08:26:06.358Z</time></trkpt><trkpt lat="37.0985377" lon="-2.1432345"><ele>412.66666666666663</ele><time>2026-04-11T08:26:07.357Z</time></trkpt><trkpt lat="37.0985403" lon="-2.1434448"><ele>414.0</ele><time>2026-04-11T08:26:08.358Z</time></trkpt><trkpt lat="37.098544" lon="-2.1436625"><ele>414.0</ele><time>2026-04-11T08:26:09.358Z</time></trkpt><trkpt lat="37.0985497" lon="-2.1438848"><ele>414.0</ele><time>2026-04-11T08:26:10.357Z</time></trkpt><trkpt lat="37.0985511" lon="-2.1441064"><ele>414.0</ele><time>2026-04-11T08:26:11.358Z</time></trkpt><trkpt lat="37.0985535" lon="-2.1443361"><ele>415.0</ele><time>2026-04-11T08:26:12.358Z</time></trkpt><trkpt lat="37.0985603" lon="-2.1445665"><ele>416.0</ele><time>2026-04-11T08:26:13.358Z</time></trkpt><trkpt lat="37.098564" lon="-2.1447952"><ele>417.0</ele><time>2026-04-11T08:26:14.358Z</time></trkpt><trkpt lat="37.0985726" lon="-2.145045"><ele>417.66666666666663</ele><time>2026-04-11T08:26:15.358Z</time></trkpt><trkpt lat="37.0985793" lon="-2.1452722"><ele>418.3333333333333</ele><time>2026-04-11T08:26:16.358Z</time></trkpt><trkpt lat="37.098584" lon="-2.145512"><ele>419.0</ele><time>2026-04-11T08:26:17.358Z</time></trkpt><trkpt lat="37.098586" lon="-2.1457654"><ele>419.3333333333333</ele><time>2026-04-11T08:26:18.357Z</time></trkpt><trkpt lat="37.0985937" lon="-2.1460236"><ele>419.66666666666663</ele><time>2026-04-11T08:26:19.358Z</time></trkpt><trkpt lat="37.0986016" lon="-2.1462801"><ele>420.0</ele><time>2026-04-11T08:26:20.357Z</time></trkpt><trkpt lat="37.0986061" lon="-2.1465416"><ele>420.66666666666663</ele><time>2026-04-11T08:26:21.357Z</time></trkpt><trkpt lat="37.0986086" lon="-2.1468067"><ele>421.3333333333333</ele><time>2026-04-11T08:26:22.358Z</time></trkpt><trkpt lat="37.0986052" lon="-2.1470667"><ele>422.0</ele><time>2026-04-11T08:26:23.357Z</time></trkpt><trkpt lat="37.0985898" lon="-2.1473312"><ele>421.66666666666663</ele><time>2026-04-11T08:26:24.357Z</time></trkpt><trkpt lat="37.0985654" lon="-2.1475964"><ele>421.33333333333337</ele><time>2026-04-11T08:26:25.358Z</time></trkpt><trkpt lat="37.0985282" lon="-2.1478595"><ele>421.0</ele><time>2026-04-11T08:26:26.358Z</time></trkpt><trkpt lat="37.0984882" lon="-2.1481298"><ele>422.6666666666667</ele><time>2026-04-11T08:26:27.358Z</time></trkpt><trkpt lat="37.0984453" lon="-2.1483914"><ele>424.33333333333337</ele><time>2026-04-11T08:26:28.358Z</time></trkpt><trkpt lat="37.098402" lon="-2.1486485"><ele>426.0</ele><time>2026-04-11T08:26:29.358Z</time></trkpt><trkpt lat="37.0983589" lon="-2.1489027"><ele>427.66666666666663</ele><time>2026-04-11T08:26:30.358Z</time></trkpt><trkpt lat="37.0983185" lon="-2.1491529"><ele>429.3333333333333</ele><time>2026-04-11T08:26:31.358Z</time></trkpt><trkpt lat="37.0982784" lon="-2.1494"><ele>431.0</ele><time>2026-04-11T08:26:32.358Z</time></trkpt><trkpt lat="37.0982436" lon="-2.1496424"><ele>427.66666666666663</ele><time>2026-04-11T08:26:33.358Z</time></trkpt><trkpt lat="37.0982096" lon="-2.1498895"><ele>424.33333333333337</ele><time>2026-04-11T08:26:34.358Z</time></trkpt><trkpt lat="37.0981686" lon="-2.1501383"><ele>421.0</ele><time>2026-04-11T08:26:35.358Z</time></trkpt><trkpt lat="37.0981282" lon="-2.1503912"><ele>421.0</ele><time>2026-04-11T08:26:36.358Z</time></trkpt><trkpt lat="37.0980922" lon="-2.1506417"><ele>421.0</ele><time>2026-04-11T08:26:37.358Z</time></trkpt><trkpt lat="37.098057" lon="-2.150897"><ele>421.0</ele><time>2026-04-11T08:26:38.358Z</time></trkpt><trkpt lat="37.0980187" lon="-2.1511566"><ele>422.33333333333337</ele><time>2026-04-11T08:26:39.358Z</time></trkpt><trkpt lat="37.0979819" lon="-2.1514152"><ele>423.66666666666663</ele><time>2026-04-11T08:26:40.358Z</time></trkpt><trkpt lat="37.0979429" lon="-2.1516795"><ele>425.0</ele><time>2026-04-11T08:26:41.357Z</time></trkpt><trkpt lat="37.0979002" lon="-2.1519391"><ele>426.3333333333333</ele><time>2026-04-11T08:26:42.358Z</time></trkpt><trkpt lat="37.0978602" lon="-2.1522019"><ele>427.66666666666663</ele><time>2026-04-11T08:26:43.358Z</time></trkpt><trkpt lat="37.0978193" lon="-2.1524728"><ele>429.0</ele><time>2026-04-11T08:26:44.358Z</time></trkpt><trkpt lat="37.0977804" lon="-2.1527448"><ele>429.66666666666663</ele><time>2026-04-11T08:26:45.358Z</time></trkpt><trkpt lat="37.097741" lon="-2.1530126"><ele>430.3333333333333</ele><time>2026-04-11T08:26:46.358Z</time></trkpt><trkpt lat="37.0977004" lon="-2.153279"><ele>431.0</ele><time>2026-04-11T08:26:47.358Z</time></trkpt><trkpt lat="37.0976392" lon="-2.1535488"><ele>432.5</ele><time>2026-04-11T08:26:48.358Z</time></trkpt><trkpt lat="37.097564" lon="-2.1538143"><ele>434.0</ele><time>2026-04-11T08:26:49.357Z</time></trkpt><trkpt lat="37.0974711" lon="-2.1540795"><ele>434.0</ele><time>2026-04-11T08:26:50.358Z</time></trkpt><trkpt lat="37.0973699" lon="-2.1543428"><ele>434.0</ele><time>2026-04-11T08:26:51.358Z</time></trkpt><trkpt lat="37.0972665" lon="-2.1546094"><ele>435.5</ele><time>2026-04-11T08:26:52.358Z</time></trkpt><trkpt lat="37.0971629" lon="-2.1548767"><ele>437.0</ele><time>2026-04-11T08:26:53.358Z</time></trkpt><trkpt lat="37.0970704" lon="-2.1551448"><ele>437.0</ele><time>2026-04-11T08:26:54.358Z</time></trkpt><trkpt lat="37.0969946" lon="-2.1554197"><ele>437.0</ele><time>2026-04-11T08:26:55.358Z</time></trkpt><trkpt lat="37.0969385" lon="-2.1557014"><ele>437.0</ele><time>2026-04-11T08:26:56.358Z</time></trkpt><trkpt lat="37.096905" lon="-2.1559839"><ele>437.0</ele><time>2026-04-11T08:26:57.357Z</time></trkpt><trkpt lat="37.0968993" lon="-2.156267"><ele>441.0</ele><time>2026-04-11T08:26:58.358Z</time></trkpt><trkpt lat="37.0969103" lon="-2.156553"><ele>445.0</ele><time>2026-04-11T08:26:59.358Z</time></trkpt><trkpt lat="37.0969422" lon="-2.1568398"><ele>445.0</ele><time>2026-04-11T08:27:00.358Z</time></trkpt><trkpt lat="37.0969866" lon="-2.1571231"><ele>445.0</ele><time>2026-04-11T08:27:01.358Z</time></trkpt><trkpt lat="37.0970321" lon="-2.1574031"><ele>449.5</ele><time>2026-04-11T08:27:02.358Z</time></trkpt><trkpt lat="37.0970736" lon="-2.1576859"><ele>454.0</ele><time>2026-04-11T08:27:03.358Z</time></trkpt><trkpt lat="37.0971064" lon="-2.1579661"><ele>459.0</ele><time>2026-04-11T08:27:04.358Z</time></trkpt><trkpt lat="37.0971302" lon="-2.1582503"><ele>464.0</ele><time>2026-04-11T08:27:05.358Z</time></trkpt><trkpt lat="37.0971406" lon="-2.1585292"><ele>464.0</ele><time>2026-04-11T08:27:06.358Z</time></trkpt><trkpt lat="37.0971414" lon="-2.1588176"><ele>464.0</ele><time>2026-04-11T08:27:07.358Z</time></trkpt><trkpt lat="37.0971248" lon="-2.1591009"><ele>469.5</ele><time>2026-04-11T08:27:08.357Z</time></trkpt><trkpt lat="37.097093" lon="-2.159383"><ele>475.0</ele><time>2026-04-11T08:27:09.358Z</time></trkpt><trkpt lat="37.0970414" lon="-2.1596566"><ele>475.33333333333337</ele><time>2026-04-11T08:27:10.358Z</time></trkpt><trkpt lat="37.0969733" lon="-2.159919"><ele>475.66666666666663</ele><time>2026-04-11T08:27:11.358Z</time></trkpt><trkpt lat="37.0968869" lon="-2.1601795"><ele>476.0</ele><time>2026-04-11T08:27:12.358Z</time></trkpt><trkpt lat="37.0967947" lon="-2.1604279"><ele>476.0</ele><time>2026-04-11T08:27:13.357Z</time></trkpt><trkpt lat="37.0966923" lon="-2.1606719"><ele>476.0</ele><time>2026-04-11T08:27:14.358Z</time></trkpt><trkpt lat="37.0965811" lon="-2.1609073"><ele>476.0</ele><time>2026-04-11T08:27:15.358Z</time></trkpt><trkpt lat="37.0964617" lon="-2.1611338"><ele>471.3333333333333</ele><time>2026-04-11T08:27:16.358Z</time></trkpt><trkpt lat="37.0963367" lon="-2.1613371"><ele>466.66666666666663</ele><time>2026-04-11T08:27:17.358Z</time></trkpt><trkpt lat="37.0961987" lon="-2.161537"><ele>462.0</ele><time>2026-04-11T08:27:18.358Z</time></trkpt><trkpt lat="37.0960522" lon="-2.1617232"><ele>460.0</ele><time>2026-04-11T08:27:19.358Z</time></trkpt><trkpt lat="37.0958956" lon="-2.1618872"><ele>458.0</ele><time>2026-04-11T08:27:20.358Z</time></trkpt><trkpt lat="37.0957403" lon="-2.1620497"><ele>456.0</ele><time>2026-04-11T08:27:21.358Z</time></trkpt><trkpt lat="37.0955827" lon="-2.1622022"><ele>456.0</ele><time>2026-04-11T08:27:22.358Z</time></trkpt><trkpt lat="37.0954255" lon="-2.1623535"><ele>456.0</ele><time>2026-04-11T08:27:23.358Z</time></trkpt><trkpt lat="37.0952727" lon="-2.1625078"><ele>456.0</ele><time>2026-04-11T08:27:24.358Z</time></trkpt><trkpt lat="37.09512" lon="-2.1626601"><ele>456.0</ele><time>2026-04-11T08:27:25.357Z</time></trkpt><trkpt lat="37.0949706" lon="-2.1628178"><ele>456.0</ele><time>2026-04-11T08:27:26.358Z</time></trkpt><trkpt lat="37.0948284" lon="-2.1629871"><ele>456.0</ele><time>2026-04-11T08:27:27.357Z</time></trkpt><trkpt lat="37.0946913" lon="-2.1631711"><ele>457.0</ele><time>2026-04-11T08:27:28.358Z</time></trkpt><trkpt lat="37.0945663" lon="-2.1633742"><ele>458.0</ele><time>2026-04-11T08:27:29.358Z</time></trkpt><trkpt lat="37.0944547" lon="-2.1635933"><ele>459.0</ele><time>2026-04-11T08:27:30.358Z</time></trkpt><trkpt lat="37.0943589" lon="-2.1638288"><ele>459.0</ele><time>2026-04-11T08:27:31.358Z</time></trkpt><trkpt lat="37.0942818" lon="-2.1640831"><ele>459.0</ele><time>2026-04-11T08:27:32.357Z</time></trkpt><trkpt lat="37.0942206" lon="-2.16435"><ele>459.0</ele><time>2026-04-11T08:27:33.358Z</time></trkpt><trkpt lat="37.0941776" lon="-2.1646192"><ele>461.0</ele><time>2026-04-11T08:27:34.358Z</time></trkpt><trkpt lat="37.0941362" lon="-2.1648982"><ele>463.0</ele><time>2026-04-11T08:27:35.358Z</time></trkpt><trkpt lat="37.0940935" lon="-2.1651791"><ele>463.0</ele><time>2026-04-11T08:27:36.358Z</time></trkpt><trkpt lat="37.0940547" lon="-2.1654518"><ele>463.0</ele><time>2026-04-11T08:27:37.358Z</time></trkpt><trkpt lat="37.0940119" lon="-2.165723"><ele>463.0</ele><time>2026-04-11T08:27:38.358Z</time></trkpt><trkpt lat="37.0939728" lon="-2.1659884"><ele>463.0</ele><time>2026-04-11T08:27:39.358Z</time></trkpt><trkpt lat="37.0939359" lon="-2.1662476"><ele>463.0</ele><time>2026-04-11T08:27:40.358Z</time></trkpt><trkpt lat="37.0938978" lon="-2.1665076"><ele>463.0</ele><time>2026-04-11T08:27:41.357Z</time></trkpt><trkpt lat="37.093866" lon="-2.1667602"><ele>463.6666666666667</ele><time>2026-04-11T08:27:42.358Z</time></trkpt><trkpt lat="37.0938295" lon="-2.167012"><ele>464.33333333333337</ele><time>2026-04-11T08:27:43.358Z</time></trkpt><trkpt lat="37.0937867" lon="-2.167268"><ele>465.0</ele><time>2026-04-11T08:27:44.357Z</time></trkpt><trkpt lat="37.093734" lon="-2.1675159"><ele>466.0</ele><time>2026-04-11T08:27:45.357Z</time></trkpt><trkpt lat="37.0936683" lon="-2.1677599"><ele>467.0</ele><time>2026-04-11T08:27:46.358Z</time></trkpt><trkpt lat="37.0935837" lon="-2.1680105"><ele>468.0</ele><time>2026-04-11T08:27:47.358Z</time></trkpt><trkpt lat="37.0934932" lon="-2.1682442"><ele>467.33333333333337</ele><time>2026-04-11T08:27:48.358Z</time></trkpt><trkpt lat="37.0933922" lon="-2.168478"><ele>466.6666666666667</ele><time>2026-04-11T08:27:49.358Z</time></trkpt><trkpt lat="37.093291" lon="-2.1687017"><ele>466.0</ele><time>2026-04-11T08:27:50.358Z</time></trkpt><trkpt lat="37.0931861" lon="-2.1689303"><ele>467.33333333333337</ele><time>2026-04-11T08:27:51.358Z</time></trkpt><trkpt lat="37.0930773" lon="-2.1691542"><ele>468.66666666666663</ele><time>2026-04-11T08:27:52.357Z</time></trkpt><trkpt lat="37.0929738" lon="-2.1693772"><ele>470.0</ele><time>2026-04-11T08:27:53.358Z</time></trkpt><trkpt lat="37.0928694" lon="-2.1696"><ele>470.0</ele><time>2026-04-11T08:27:54.358Z</time></trkpt><trkpt lat="37.0927661" lon="-2.1698222"><ele>470.0</ele><time>2026-04-11T08:27:55.358Z</time></trkpt><trkpt lat="37.0926643" lon="-2.1700435"><ele>470.0</ele><time>2026-04-11T08:27:56.358Z</time></trkpt><trkpt lat="37.0925629" lon="-2.1702633"><ele>470.66666666666663</ele><time>2026-04-11T08:27:57.358Z</time></trkpt><trkpt lat="37.0924615" lon="-2.170481"><ele>471.33333333333337</ele><time>2026-04-11T08:27:58.358Z</time></trkpt><trkpt lat="37.0923593" lon="-2.170689"><ele>472.0</ele><time>2026-04-11T08:27:59.358Z</time></trkpt><trkpt lat="37.0922604" lon="-2.1709046"><ele>473.6666666666667</ele><time>2026-04-11T08:28:00.358Z</time></trkpt><trkpt lat="37.0921675" lon="-2.1711207"><ele>475.33333333333337</ele><time>2026-04-11T08:28:01.358Z</time></trkpt><trkpt lat="37.0920767" lon="-2.171337"><ele>477.0</ele><time>2026-04-11T08:28:02.358Z</time></trkpt><trkpt lat="37.0919934" lon="-2.1715675"><ele>477.66666666666663</ele><time>2026-04-11T08:28:03.358Z</time></trkpt><trkpt lat="37.0919155" lon="-2.1718055"><ele>478.3333333333333</ele><time>2026-04-11T08:28:04.358Z</time></trkpt><trkpt lat="37.0918394" lon="-2.1720446"><ele>479.0</ele><time>2026-04-11T08:28:05.357Z</time></trkpt><trkpt lat="37.0917618" lon="-2.1722915"><ele>479.0</ele><time>2026-04-11T08:28:06.358Z</time></trkpt><trkpt lat="37.0916838" lon="-2.172538"><ele>479.0</ele><time>2026-04-11T08:28:07.358Z</time></trkpt><trkpt lat="37.091605" lon="-2.172788"><ele>479.0</ele><time>2026-04-11T08:28:08.358Z</time></trkpt><trkpt lat="37.0915284" lon="-2.1730366"><ele>481.0</ele><time>2026-04-11T08:28:09.357Z</time></trkpt><trkpt lat="37.0914507" lon="-2.1732856"><ele>483.0</ele><time>2026-04-11T08:28:10.358Z</time></trkpt><trkpt lat="37.0913727" lon="-2.1735427"><ele>485.0</ele><time>2026-04-11T08:28:11.358Z</time></trkpt><trkpt lat="37.0912925" lon="-2.173792"><ele>484.66666666666663</ele><time>2026-04-11T08:28:12.357Z</time></trkpt><trkpt lat="37.0912126" lon="-2.1740458"><ele>484.33333333333337</ele><time>2026-04-11T08:28:13.358Z</time></trkpt><trkpt lat="37.0911259" lon="-2.174302"><ele>484.0</ele><time>2026-04-11T08:28:14.358Z</time></trkpt><trkpt lat="37.0910244" lon="-2.1745496"><ele>484.0</ele><time>2026-04-11T08:28:15.358Z</time></trkpt><trkpt lat="37.0909051" lon="-2.1747919"><ele>484.0</ele><time>2026-04-11T08:28:16.358Z</time></trkpt><trkpt lat="37.0907748" lon="-2.1750128"><ele>484.0</ele><time>2026-04-11T08:28:17.358Z</time></trkpt><trkpt lat="37.0906257" lon="-2.1752333"><ele>484.6666666666667</ele><time>2026-04-11T08:28:18.357Z</time></trkpt><trkpt lat="37.0904745" lon="-2.175437"><ele>485.33333333333337</ele><time>2026-04-11T08:28:19.358Z</time></trkpt><trkpt lat="37.0903228" lon="-2.1756371"><ele>486.0</ele><time>2026-04-11T08:28:20.358Z</time></trkpt><trkpt lat="37.0901719" lon="-2.1758418"><ele>486.0</ele><time>2026-04-11T08:28:21.357Z</time></trkpt><trkpt lat="37.0900242" lon="-2.1760528"><ele>486.0</ele><time>2026-04-11T08:28:22.358Z</time></trkpt><trkpt lat="37.0898772" lon="-2.176262"><ele>486.0</ele><time>2026-04-11T08:28:23.358Z</time></trkpt><trkpt lat="37.0897321" lon="-2.1764709"><ele>485.5</ele><time>2026-04-11T08:28:24.358Z</time></trkpt><trkpt lat="37.0895857" lon="-2.1766877"><ele>485.0</ele><time>2026-04-11T08:28:25.357Z</time></trkpt><trkpt lat="37.0894439" lon="-2.1769045"><ele>485.0</ele><time>2026-04-11T08:28:26.358Z</time></trkpt><trkpt lat="37.0893062" lon="-2.1771265"><ele>485.0</ele><time>2026-04-11T08:28:27.358Z</time></trkpt><trkpt lat="37.0891769" lon="-2.1773618"><ele>484.5</ele><time>2026-04-11T08:28:28.358Z</time></trkpt><trkpt lat="37.0890519" lon="-2.1776025"><ele>484.0</ele><time>2026-04-11T08:28:29.357Z</time></trkpt><trkpt lat="37.0889324" lon="-2.1778438"><ele>484.0</ele><time>2026-04-11T08:28:30.357Z</time></trkpt><trkpt lat="37.0888132" lon="-2.1780887"><ele>484.0</ele><time>2026-04-11T08:28:31.358Z</time></trkpt><trkpt lat="37.088696" lon="-2.1783371"><ele>485.0</ele><time>2026-04-11T08:28:32.358Z</time></trkpt><trkpt lat="37.0885799" lon="-2.1785876"><ele>486.0</ele><time>2026-04-11T08:28:33.358Z</time></trkpt><trkpt lat="37.0884632" lon="-2.178839"><ele>485.5</ele><time>2026-04-11T08:28:34.358Z</time></trkpt><trkpt lat="37.0883462" lon="-2.1790838"><ele>485.0</ele><time>2026-04-11T08:28:35.358Z</time></trkpt><trkpt lat="37.0882278" lon="-2.1793401"><ele>485.0</ele><time>2026-04-11T08:28:36.358Z</time></trkpt><trkpt lat="37.0881102" lon="-2.1795886"><ele>485.0</ele><time>2026-04-11T08:28:37.358Z</time></trkpt><trkpt lat="37.0879871" lon="-2.1798512"><ele>486.5</ele><time>2026-04-11T08:28:38.357Z</time></trkpt><trkpt lat="37.0878655" lon="-2.1801127"><ele>488.0</ele><time>2026-04-11T08:28:39.358Z</time></trkpt><trkpt lat="37.0877443" lon="-2.1803712"><ele>488.0</ele><time>2026-04-11T08:28:40.358Z</time></trkpt><trkpt lat="37.0876218" lon="-2.1806284"><ele>488.0</ele><time>2026-04-11T08:28:41.358Z</time></trkpt><trkpt lat="37.0875037" lon="-2.1808768"><ele>487.5</ele><time>2026-04-11T08:28:42.358Z</time></trkpt><trkpt lat="37.0873876" lon="-2.1811239"><ele>487.0</ele><time>2026-04-11T08:28:43.358Z</time></trkpt><trkpt lat="37.0872643" lon="-2.1813773"><ele>488.5</ele><time>2026-04-11T08:28:44.358Z</time></trkpt><trkpt lat="37.0871461" lon="-2.1816304"><ele>490.0</ele><time>2026-04-11T08:28:45.358Z</time></trkpt><trkpt lat="37.0870292" lon="-2.1818776"><ele>490.0</ele><time>2026-04-11T08:28:46.358Z</time></trkpt><trkpt lat="37.0869134" lon="-2.1821237"><ele>490.0</ele><time>2026-04-11T08:28:47.357Z</time></trkpt><trkpt lat="37.0867983" lon="-2.1823625"><ele>490.33333333333337</ele><time>2026-04-11T08:28:48.357Z</time></trkpt><trkpt lat="37.0866852" lon="-2.182603"><ele>490.66666666666663</ele><time>2026-04-11T08:28:49.357Z</time></trkpt><trkpt lat="37.0865696" lon="-2.1828458"><ele>491.0</ele><time>2026-04-11T08:28:50.358Z</time></trkpt><trkpt lat="37.0864528" lon="-2.1830866"><ele>492.0</ele><time>2026-04-11T08:28:51.358Z</time></trkpt><trkpt lat="37.08634" lon="-2.1833302"><ele>493.0</ele><time>2026-04-11T08:28:52.358Z</time></trkpt><trkpt lat="37.0862242" lon="-2.1835728"><ele>493.0</ele><time>2026-04-11T08:28:53.358Z</time></trkpt><trkpt lat="37.0861091" lon="-2.1838097"><ele>493.0</ele><time>2026-04-11T08:28:54.358Z</time></trkpt><trkpt lat="37.085995" lon="-2.1840487"><ele>493.0</ele><time>2026-04-11T08:28:55.358Z</time></trkpt><trkpt lat="37.0858819" lon="-2.18428"><ele>493.6666666666667</ele><time>2026-04-11T08:28:56.358Z</time></trkpt><trkpt lat="37.0857705" lon="-2.1845142"><ele>494.33333333333337</ele><time>2026-04-11T08:28:57.358Z</time></trkpt><trkpt lat="37.085659" lon="-2.1847452"><ele>495.0</ele><time>2026-04-11T08:28:58.358Z</time></trkpt><trkpt lat="37.0855496" lon="-2.1849743"><ele>496.0</ele><time>2026-04-11T08:28:59.358Z</time></trkpt><trkpt lat="37.0854411" lon="-2.1852044"><ele>497.0</ele><time>2026-04-11T08:29:00.358Z</time></trkpt><trkpt lat="37.0853366" lon="-2.1854313"><ele>498.0</ele><time>2026-04-11T08:29:01.358Z</time></trkpt><trkpt lat="37.0852286" lon="-2.1856549"><ele>498.0</ele><time>2026-04-11T08:29:02.358Z</time></trkpt><trkpt lat="37.0851225" lon="-2.1858812"><ele>498.0</ele><time>2026-04-11T08:29:03.358Z</time></trkpt><trkpt lat="37.0850176" lon="-2.1861"><ele>498.0</ele><time>2026-04-11T08:29:04.358Z</time></trkpt><trkpt lat="37.0849142" lon="-2.1863182"><ele>498.33333333333337</ele><time>2026-04-11T08:29:05.358Z</time></trkpt><trkpt lat="37.08481" lon="-2.1865409"><ele>498.6666666666667</ele><time>2026-04-11T08:29:06.358Z</time></trkpt><trkpt lat="37.0847029" lon="-2.1867619"><ele>499.0</ele><time>2026-04-11T08:29:07.358Z</time></trkpt><trkpt lat="37.0845963" lon="-2.1869931"><ele>499.0</ele><time>2026-04-11T08:29:08.358Z</time></trkpt><trkpt lat="37.0844891" lon="-2.1872241"><ele>499.0</ele><time>2026-04-11T08:29:09.358Z</time></trkpt><trkpt lat="37.0843798" lon="-2.1874585"><ele>499.0</ele><time>2026-04-11T08:29:10.358Z</time></trkpt><trkpt lat="37.0842713" lon="-2.1876957"><ele>501.0</ele><time>2026-04-11T08:29:11.358Z</time></trkpt><trkpt lat="37.084156" lon="-2.1879404"><ele>503.0</ele><time>2026-04-11T08:29:12.358Z</time></trkpt><trkpt lat="37.0840418" lon="-2.1881857"><ele>503.0</ele><time>2026-04-11T08:29:13.358Z</time></trkpt><trkpt lat="37.0839235" lon="-2.1884285"><ele>503.0</ele><time>2026-04-11T08:29:14.357Z</time></trkpt><trkpt lat="37.0838066" lon="-2.1886737"><ele>503.0</ele><time>2026-04-11T08:29:15.358Z</time></trkpt><trkpt lat="37.0836925" lon="-2.1889165"><ele>503.0</ele><time>2026-04-11T08:29:16.358Z</time></trkpt><trkpt lat="37.0835769" lon="-2.1891556"><ele>503.0</ele><time>2026-04-11T08:29:17.357Z</time></trkpt><trkpt lat="37.0834631" lon="-2.1893988"><ele>504.3333333333333</ele><time>2026-04-11T08:29:18.358Z</time></trkpt><trkpt lat="37.0833507" lon="-2.1896399"><ele>505.66666666666663</ele><time>2026-04-11T08:29:19.358Z</time></trkpt><trkpt lat="37.0832358" lon="-2.1898766"><ele>507.0</ele><time>2026-04-11T08:29:20.358Z</time></trkpt><trkpt lat="37.0831204" lon="-2.1901183"><ele>508.5</ele><time>2026-04-11T08:29:21.358Z</time></trkpt><trkpt lat="37.0830048" lon="-2.1903568"><ele>510.0</ele><time>2026-04-11T08:29:22.358Z</time></trkpt><trkpt lat="37.0828904" lon="-2.1906036"><ele>510.66666666666663</ele><time>2026-04-11T08:29:23.358Z</time></trkpt><trkpt lat="37.0827794" lon="-2.1908437"><ele>511.3333333333333</ele><time>2026-04-11T08:29:24.358Z</time></trkpt><trkpt lat="37.0826649" lon="-2.1910842"><ele>512.0</ele><time>2026-04-11T08:29:25.357Z</time></trkpt><trkpt lat="37.0825516" lon="-2.1913234"><ele>513.0</ele><time>2026-04-11T08:29:26.358Z</time></trkpt><trkpt lat="37.0824381" lon="-2.1915582"><ele>514.0</ele><time>2026-04-11T08:29:27.358Z</time></trkpt><trkpt lat="37.0823255" lon="-2.1917898"><ele>515.0</ele><time>2026-04-11T08:29:28.358Z</time></trkpt><trkpt lat="37.0822103" lon="-2.1920225"><ele>515.0</ele><time>2026-04-11T08:29:29.358Z</time></trkpt><trkpt lat="37.0820985" lon="-2.1922612"><ele>515.0</ele><time>2026-04-11T08:29:30.358Z</time></trkpt><trkpt lat="37.0819842" lon="-2.1924982"><ele>515.0</ele><time>2026-04-11T08:29:31.358Z</time></trkpt><trkpt lat="37.0818731" lon="-2.1927287"><ele>515.3333333333333</ele><time>2026-04-11T08:29:32.358Z</time></trkpt><trkpt lat="37.0817625" lon="-2.1929653"><ele>515.6666666666666</ele><time>2026-04-11T08:29:33.358Z</time></trkpt><trkpt lat="37.0816514" lon="-2.1932041"><ele>516.0</ele><time>2026-04-11T08:29:34.358Z</time></trkpt><trkpt lat="37.0815436" lon="-2.1934403"><ele>516.0</ele><time>2026-04-11T08:29:35.358Z</time></trkpt><trkpt lat="37.0814383" lon="-2.1936811"><ele>516.0</ele><time>2026-04-11T08:29:36.358Z</time></trkpt><trkpt lat="37.0813399" lon="-2.1939254"><ele>516.0</ele><time>2026-04-11T08:29:37.358Z</time></trkpt><trkpt lat="37.0812488" lon="-2.1941709"><ele>517.0</ele><time>2026-04-11T08:29:38.358Z</time></trkpt><trkpt lat="37.0811625" lon="-2.1944117"><ele>518.0</ele><time>2026-04-11T08:29:39.357Z</time></trkpt><trkpt lat="37.0810823" lon="-2.1946486"><ele>519.0</ele><time>2026-04-11T08:29:40.358Z</time></trkpt><trkpt lat="37.0810057" lon="-2.1948814"><ele>520.0</ele><time>2026-04-11T08:29:41.357Z</time></trkpt><trkpt lat="37.0809319" lon="-2.195113"><ele>521.0</ele><time>2026-04-11T08:29:42.358Z</time></trkpt><trkpt lat="37.0808655" lon="-2.1953451"><ele>522.0</ele><time>2026-04-11T08:29:43.358Z</time></trkpt><trkpt lat="37.080805" lon="-2.1955837"><ele>522.0</ele><time>2026-04-11T08:29:44.358Z</time></trkpt><trkpt lat="37.0807481" lon="-2.1958302"><ele>522.0</ele><time>2026-04-11T08:29:45.358Z</time></trkpt><trkpt lat="37.0806952" lon="-2.1960826"><ele>522.0</ele><time>2026-04-11T08:29:46.358Z</time></trkpt><trkpt lat="37.0806477" lon="-2.1963365"><ele>522.6666666666666</ele><time>2026-04-11T08:29:47.357Z</time></trkpt><trkpt lat="37.0805989" lon="-2.1965885"><ele>523.3333333333333</ele><time>2026-04-11T08:29:48.357Z</time></trkpt><trkpt lat="37.0805538" lon="-2.196833"><ele>524.0</ele><time>2026-04-11T08:29:49.358Z</time></trkpt><trkpt lat="37.0805106" lon="-2.19708"><ele>524.0</ele><time>2026-04-11T08:29:50.358Z</time></trkpt><trkpt lat="37.0804679" lon="-2.1973233"><ele>524.0</ele><time>2026-04-11T08:29:51.358Z</time></trkpt><trkpt lat="37.080427" lon="-2.1975675"><ele>524.0</ele><time>2026-04-11T08:29:52.358Z</time></trkpt><trkpt lat="37.0803864" lon="-2.197803"><ele>524.0</ele><time>2026-04-11T08:29:53.358Z</time></trkpt><trkpt lat="37.0803452" lon="-2.1980407"><ele>524.0</ele><time>2026-04-11T08:29:54.358Z</time></trkpt><trkpt lat="37.080304" lon="-2.1982756"><ele>524.0</ele><time>2026-04-11T08:29:55.358Z</time></trkpt><trkpt lat="37.0802662" lon="-2.1985095"><ele>524.3333333333333</ele><time>2026-04-11T08:29:56.358Z</time></trkpt><trkpt lat="37.0802342" lon="-2.1987436"><ele>524.6666666666666</ele><time>2026-04-11T08:29:57.358Z</time></trkpt><trkpt lat="37.0802049" lon="-2.1989851"><ele>525.0</ele><time>2026-04-11T08:29:58.358Z</time></trkpt><trkpt lat="37.0801899" lon="-2.199216"><ele>525.0</ele><time>2026-04-11T08:29:59.358Z</time></trkpt><trkpt lat="37.0801825" lon="-2.1994507"><ele>525.0</ele><time>2026-04-11T08:30:00.358Z</time></trkpt><trkpt lat="37.0801851" lon="-2.1996868"><ele>525.0</ele><time>2026-04-11T08:30:01.358Z</time></trkpt><trkpt lat="37.0801989" lon="-2.1999204"><ele>523.6666666666666</ele><time>2026-04-11T08:30:02.357Z</time></trkpt><trkpt lat="37.0802245" lon="-2.2001507"><ele>522.3333333333333</ele><time>2026-04-11T08:30:03.358Z</time></trkpt><trkpt lat="37.080258" lon="-2.2003747"><ele>521.0</ele><time>2026-04-11T08:30:04.358Z</time></trkpt><trkpt lat="37.0803016" lon="-2.2005953"><ele>519.6666666666666</ele><time>2026-04-11T08:30:05.358Z</time></trkpt><trkpt lat="37.0803499" lon="-2.2008142"><ele>518.3333333333334</ele><time>2026-04-11T08:30:06.357Z</time></trkpt><trkpt lat="37.0804075" lon="-2.2010296"><ele>517.0</ele><time>2026-04-11T08:30:07.358Z</time></trkpt><trkpt lat="37.0804677" lon="-2.2012434"><ele>517.0</ele><time>2026-04-11T08:30:08.358Z</time></trkpt><trkpt lat="37.0805306" lon="-2.2014593"><ele>517.0</ele><time>2026-04-11T08:30:09.358Z</time></trkpt><trkpt lat="37.080592" lon="-2.2016645"><ele>517.0</ele><time>2026-04-11T08:30:10.358Z</time></trkpt><trkpt lat="37.0806563" lon="-2.2018708"><ele>518.0</ele><time>2026-04-11T08:30:11.358Z</time></trkpt><trkpt lat="37.0807246" lon="-2.2020791"><ele>519.0</ele><time>2026-04-11T08:30:12.358Z</time></trkpt><trkpt lat="37.0807904" lon="-2.2023014"><ele>520.0</ele><time>2026-04-11T08:30:13.357Z</time></trkpt><trkpt lat="37.0808591" lon="-2.2025207"><ele>520.3333333333334</ele><time>2026-04-11T08:30:14.358Z</time></trkpt><trkpt lat="37.0809315" lon="-2.2027434"><ele>520.6666666666666</ele><time>2026-04-11T08:30:15.357Z</time></trkpt><trkpt lat="37.0810016" lon="-2.2029746"><ele>521.0</ele><time>2026-04-11T08:30:16.358Z</time></trkpt><trkpt lat="37.081076" lon="-2.2032097"><ele>522.0</ele><time>2026-04-11T08:30:17.358Z</time></trkpt><trkpt lat="37.0811476" lon="-2.2034508"><ele>523.0</ele><time>2026-04-11T08:30:18.358Z</time></trkpt><trkpt lat="37.0812227" lon="-2.2036916"><ele>524.0</ele><time>2026-04-11T08:30:19.357Z</time></trkpt><trkpt lat="37.0812967" lon="-2.2039367"><ele>524.3333333333333</ele><time>2026-04-11T08:30:20.358Z</time></trkpt><trkpt lat="37.0813716" lon="-2.2041762"><ele>524.6666666666666</ele><time>2026-04-11T08:30:21.358Z</time></trkpt><trkpt lat="37.0814473" lon="-2.2044214"><ele>525.0</ele><time>2026-04-11T08:30:22.357Z</time></trkpt><trkpt lat="37.0815243" lon="-2.2046682"><ele>526.0</ele><time>2026-04-11T08:30:23.358Z</time></trkpt><trkpt lat="37.0816011" lon="-2.2049116"><ele>527.0</ele><time>2026-04-11T08:30:24.358Z</time></trkpt><trkpt lat="37.081678" lon="-2.2051582"><ele>528.0</ele><time>2026-04-11T08:30:25.358Z</time></trkpt><trkpt lat="37.0817588" lon="-2.205414"><ele>528.3333333333334</ele><time>2026-04-11T08:30:26.358Z</time></trkpt><trkpt lat="37.0818403" lon="-2.20567"><ele>528.6666666666667</ele><time>2026-04-11T08:30:27.358Z</time></trkpt><trkpt lat="37.0819226" lon="-2.2059267"><ele>529.0</ele><time>2026-04-11T08:30:28.357Z</time></trkpt><trkpt lat="37.0820051" lon="-2.2061855"><ele>529.0</ele><time>2026-04-11T08:30:29.357Z</time></trkpt><trkpt lat="37.0820875" lon="-2.2064426"><ele>529.0</ele><time>2026-04-11T08:30:30.358Z</time></trkpt><trkpt lat="37.0821662" lon="-2.2066986"><ele>529.0</ele><time>2026-04-11T08:30:31.358Z</time></trkpt><trkpt lat="37.0822452" lon="-2.2069547"><ele>530.3333333333334</ele><time>2026-04-11T08:30:32.357Z</time></trkpt><trkpt lat="37.0823259" lon="-2.2072094"><ele>531.6666666666666</ele><time>2026-04-11T08:30:33.358Z</time></trkpt><trkpt lat="37.0824081" lon="-2.2074681"><ele>533.0</ele><time>2026-04-11T08:30:34.358Z</time></trkpt><trkpt lat="37.0824884" lon="-2.207726"><ele>533.6666666666666</ele><time>2026-04-11T08:30:35.357Z</time></trkpt><trkpt lat="37.082568" lon="-2.2079814"><ele>534.3333333333334</ele><time>2026-04-11T08:30:36.358Z</time></trkpt><trkpt lat="37.0826483" lon="-2.2082417"><ele>535.0</ele><time>2026-04-11T08:30:37.358Z</time></trkpt><trkpt lat="37.0827282" lon="-2.2085019"><ele>536.0</ele><time>2026-04-11T08:30:38.358Z</time></trkpt><trkpt lat="37.0828115" lon="-2.2087644"><ele>537.0</ele><time>2026-04-11T08:30:39.358Z</time></trkpt><trkpt lat="37.0828936" lon="-2.2090297"><ele>537.5</ele><time>2026-04-11T08:30:40.358Z</time></trkpt><trkpt lat="37.082974" lon="-2.2093002"><ele>538.0</ele><time>2026-04-11T08:30:41.358Z</time></trkpt><trkpt lat="37.0830561" lon="-2.2095698"><ele>538.5</ele><time>2026-04-11T08:30:42.357Z</time></trkpt><trkpt lat="37.0831378" lon="-2.2098472"><ele>539.0</ele><time>2026-04-11T08:30:43.358Z</time></trkpt><trkpt lat="37.0832198" lon="-2.2101305"><ele>539.0</ele><time>2026-04-11T08:30:44.358Z</time></trkpt><trkpt lat="37.0832986" lon="-2.2104142"><ele>539.0</ele><time>2026-04-11T08:30:45.358Z</time></trkpt><trkpt lat="37.0833698" lon="-2.2107073"><ele>539.0</ele><time>2026-04-11T08:30:46.358Z</time></trkpt><trkpt lat="37.0834286" lon="-2.2110064"><ele>539.0</ele><time>2026-04-11T08:30:47.358Z</time></trkpt><trkpt lat="37.0834857" lon="-2.2113074"><ele>538.5</ele><time>2026-04-11T08:30:48.358Z</time></trkpt><trkpt lat="37.0835352" lon="-2.2116103"><ele>538.0</ele><time>2026-04-11T08:30:49.358Z</time></trkpt><trkpt lat="37.0835808" lon="-2.2119153"><ele>538.0</ele><time>2026-04-11T08:30:50.358Z</time></trkpt><trkpt lat="37.0836263" lon="-2.2122236"><ele>538.0</ele><time>2026-04-11T08:30:51.358Z</time></trkpt><trkpt lat="37.0836585" lon="-2.2125278"><ele>539.0</ele><time>2026-04-11T08:30:52.358Z</time></trkpt><trkpt lat="37.0836795" lon="-2.2128365"><ele>540.0</ele><time>2026-04-11T08:30:53.358Z</time></trkpt><trkpt lat="37.083699" lon="-2.2131407"><ele>539.5</ele><time>2026-04-11T08:30:54.358Z</time></trkpt><trkpt lat="37.0837106" lon="-2.2134501"><ele>539.0</ele><time>2026-04-11T08:30:55.358Z</time></trkpt><trkpt lat="37.0837227" lon="-2.2137574"><ele>539.0</ele><time>2026-04-11T08:30:56.358Z</time></trkpt><trkpt lat="37.0837289" lon="-2.2140676"><ele>539.0</ele><time>2026-04-11T08:30:57.358Z</time></trkpt><trkpt lat="37.0837364" lon="-2.2143767"><ele>539.0</ele><time>2026-04-11T08:30:58.358Z</time></trkpt><trkpt lat="37.0837458" lon="-2.2146864"><ele>539.0</ele><time>2026-04-11T08:30:59.358Z</time></trkpt><trkpt lat="37.0837552" lon="-2.2149972"><ele>539.0</ele><time>2026-04-11T08:31:00.358Z</time></trkpt><trkpt lat="37.0837641" lon="-2.2153133"><ele>539.0</ele><time>2026-04-11T08:31:01.358Z</time></trkpt><trkpt lat="37.0837724" lon="-2.2156295"><ele>537.5</ele><time>2026-04-11T08:31:02.358Z</time></trkpt><trkpt lat="37.0837781" lon="-2.215939"><ele>536.0</ele><time>2026-04-11T08:31:03.358Z</time></trkpt><trkpt lat="37.0837857" lon="-2.2162571"><ele>536.5</ele><time>2026-04-11T08:31:04.358Z</time></trkpt><trkpt lat="37.0837939" lon="-2.2165684"><ele>537.0</ele><time>2026-04-11T08:31:05.358Z</time></trkpt><trkpt lat="37.0838033" lon="-2.2168757"><ele>537.0</ele><time>2026-04-11T08:31:06.358Z</time></trkpt><trkpt lat="37.0838094" lon="-2.2171858"><ele>537.0</ele><time>2026-04-11T08:31:07.358Z</time></trkpt><trkpt lat="37.0838171" lon="-2.217495"><ele>536.0</ele><time>2026-04-11T08:31:08.358Z</time></trkpt><trkpt lat="37.0838245" lon="-2.2178043"><ele>535.0</ele><time>2026-04-11T08:31:09.358Z</time></trkpt><trkpt lat="37.0838277" lon="-2.2181109"><ele>535.0</ele><time>2026-04-11T08:31:10.358Z</time></trkpt><trkpt lat="37.0838359" lon="-2.2184138"><ele>535.0</ele><time>2026-04-11T08:31:11.358Z</time></trkpt><trkpt lat="37.0838436" lon="-2.2187135"><ele>536.0</ele><time>2026-04-11T08:31:12.358Z</time></trkpt><trkpt lat="37.0838536" lon="-2.2190177"><ele>537.0</ele><time>2026-04-11T08:31:13.358Z</time></trkpt><trkpt lat="37.0838614" lon="-2.219322"><ele>537.0</ele><time>2026-04-11T08:31:14.358Z</time></trkpt><trkpt lat="37.0838685" lon="-2.2196267"><ele>537.0</ele><time>2026-04-11T08:31:15.358Z</time></trkpt><trkpt lat="37.0838754" lon="-2.219928"><ele>538.0</ele><time>2026-04-11T08:31:16.358Z</time></trkpt><trkpt lat="37.0838756" lon="-2.2202019"><ele>539.0</ele><time>2026-04-11T08:31:17.358Z</time></trkpt><trkpt lat="37.0838824" lon="-2.220495"><ele>538.0</ele><time>2026-04-11T08:31:18.357Z</time></trkpt><trkpt lat="37.0838884" lon="-2.2207833"><ele>537.0</ele><time>2026-04-11T08:31:19.358Z</time></trkpt><trkpt lat="37.0838948" lon="-2.2210665"><ele>537.0</ele><time>2026-04-11T08:31:20.357Z</time></trkpt><trkpt lat="37.0839003" lon="-2.2213505"><ele>537.0</ele><time>2026-04-11T08:31:21.358Z</time></trkpt><trkpt lat="37.0839059" lon="-2.221626"><ele>537.0</ele><time>2026-04-11T08:31:22.358Z</time></trkpt><trkpt lat="37.0839108" lon="-2.2219101"><ele>537.0</ele><time>2026-04-11T08:31:23.357Z</time></trkpt><trkpt lat="37.0839158" lon="-2.2221908"><ele>537.0</ele><time>2026-04-11T08:31:24.358Z</time></trkpt><trkpt lat="37.0839209" lon="-2.2224678"><ele>537.0</ele><time>2026-04-11T08:31:25.358Z</time></trkpt><trkpt lat="37.0839265" lon="-2.2227431"><ele>537.0</ele><time>2026-04-11T08:31:26.358Z</time></trkpt><trkpt lat="37.0839315" lon="-2.2230257"><ele>537.0</ele><time>2026-04-11T08:31:27.358Z</time></trkpt><trkpt lat="37.0839367" lon="-2.2233124"><ele>535.5</ele><time>2026-04-11T08:31:28.358Z</time></trkpt><trkpt lat="37.0839419" lon="-2.2235966"><ele>534.0</ele><time>2026-04-11T08:31:29.358Z</time></trkpt><trkpt lat="37.0839487" lon="-2.2238909"><ele>533.0</ele><time>2026-04-11T08:31:30.358Z</time></trkpt><trkpt lat="37.0839568" lon="-2.2241829"><ele>532.0</ele><time>2026-04-11T08:31:31.358Z</time></trkpt><trkpt lat="37.0839661" lon="-2.2244777"><ele>532.0</ele><time>2026-04-11T08:31:32.358Z</time></trkpt><trkpt lat="37.0839747" lon="-2.2247681"><ele>532.0</ele><time>2026-04-11T08:31:33.358Z</time></trkpt><trkpt lat="37.0839827" lon="-2.2250598"><ele>532.5</ele><time>2026-04-11T08:31:34.358Z</time></trkpt><trkpt lat="37.0839905" lon="-2.2253526"><ele>533.0</ele><time>2026-04-11T08:31:35.357Z</time></trkpt><trkpt lat="37.0840006" lon="-2.2256489"><ele>533.5</ele><time>2026-04-11T08:31:36.358Z</time></trkpt><trkpt lat="37.0840112" lon="-2.2259455"><ele>534.0</ele><time>2026-04-11T08:31:37.358Z</time></trkpt><trkpt lat="37.0840211" lon="-2.2262364"><ele>534.0</ele><time>2026-04-11T08:31:38.358Z</time></trkpt><trkpt lat="37.0840304" lon="-2.2265334"><ele>534.0</ele><time>2026-04-11T08:31:39.358Z</time></trkpt><trkpt lat="37.0840393" lon="-2.2268236"><ele>534.0</ele><time>2026-04-11T08:31:40.358Z</time></trkpt><trkpt lat="37.0840435" lon="-2.2271152"><ele>534.0</ele><time>2026-04-11T08:31:41.358Z</time></trkpt><trkpt lat="37.0840482" lon="-2.2274048"><ele>534.0</ele><time>2026-04-11T08:31:42.358Z</time></trkpt><trkpt lat="37.0840527" lon="-2.2276901"><ele>534.0</ele><time>2026-04-11T08:31:43.357Z</time></trkpt><trkpt lat="37.0840571" lon="-2.2279772"><ele>535.0</ele><time>2026-04-11T08:31:44.358Z</time></trkpt><trkpt lat="37.0840632" lon="-2.2282659"><ele>536.0</ele><time>2026-04-11T08:31:45.358Z</time></trkpt><trkpt lat="37.0840679" lon="-2.2285525"><ele>536.0</ele><time>2026-04-11T08:31:46.358Z</time></trkpt><trkpt lat="37.0840747" lon="-2.2288404"><ele>536.0</ele><time>2026-04-11T08:31:47.358Z</time></trkpt><trkpt lat="37.0840806" lon="-2.2291241"><ele>535.5</ele><time>2026-04-11T08:31:48.358Z</time></trkpt><trkpt lat="37.0840888" lon="-2.2294094"><ele>535.0</ele><time>2026-04-11T08:31:49.358Z</time></trkpt><trkpt lat="37.0840989" lon="-2.2296902"><ele>534.0</ele><time>2026-04-11T08:31:50.358Z</time></trkpt><trkpt lat="37.084107" lon="-2.2299762"><ele>533.0</ele><time>2026-04-11T08:31:51.358Z</time></trkpt><trkpt lat="37.0841165" lon="-2.2302585"><ele>533.0</ele><time>2026-04-11T08:31:52.358Z</time></trkpt><trkpt lat="37.0841293" lon="-2.2305331"><ele>533.0</ele><time>2026-04-11T08:31:53.358Z</time></trkpt><trkpt lat="37.0841352" lon="-2.2308102"><ele>533.0</ele><time>2026-04-11T08:31:54.358Z</time></trkpt><trkpt lat="37.0841459" lon="-2.2310793"><ele>532.6666666666666</ele><time>2026-04-11T08:31:55.358Z</time></trkpt><trkpt lat="37.0841528" lon="-2.2313486"><ele>532.3333333333334</ele><time>2026-04-11T08:31:56.358Z</time></trkpt><trkpt lat="37.0841662" lon="-2.2316129"><ele>532.0</ele><time>2026-04-11T08:31:57.357Z</time></trkpt><trkpt lat="37.0841728" lon="-2.2318817"><ele>532.0</ele><time>2026-04-11T08:31:58.358Z</time></trkpt><trkpt lat="37.084181" lon="-2.2321484"><ele>532.0</ele><time>2026-04-11T08:31:59.358Z</time></trkpt><trkpt lat="37.0841855" lon="-2.2324127"><ele>532.0</ele><time>2026-04-11T08:32:00.358Z</time></trkpt><trkpt lat="37.0841963" lon="-2.2326811"><ele>532.0</ele><time>2026-04-11T08:32:01.358Z</time></trkpt><trkpt lat="37.0842003" lon="-2.2329468"><ele>532.0</ele><time>2026-04-11T08:32:02.357Z</time></trkpt><trkpt lat="37.0842054" lon="-2.2332116"><ele>532.0</ele><time>2026-04-11T08:32:03.358Z</time></trkpt><trkpt lat="37.0842176" lon="-2.2334719"><ele>532.0</ele><time>2026-04-11T08:32:04.358Z</time></trkpt><trkpt lat="37.0842201" lon="-2.2337402"><ele>532.0</ele><time>2026-04-11T08:32:05.357Z</time></trkpt><trkpt lat="37.0842272" lon="-2.2340122"><ele>532.0</ele><time>2026-04-11T08:32:06.357Z</time></trkpt><trkpt lat="37.084236" lon="-2.2342798"><ele>532.3333333333334</ele><time>2026-04-11T08:32:07.358Z</time></trkpt><trkpt lat="37.0842435" lon="-2.2345506"><ele>532.6666666666666</ele><time>2026-04-11T08:32:08.357Z</time></trkpt><trkpt lat="37.0842482" lon="-2.2348214"><ele>533.0</ele><time>2026-04-11T08:32:09.358Z</time></trkpt><trkpt lat="37.0842568" lon="-2.2351019"><ele>533.6666666666666</ele><time>2026-04-11T08:32:10.358Z</time></trkpt><trkpt lat="37.0842568" lon="-2.2353769"><ele>534.3333333333334</ele><time>2026-04-11T08:32:11.357Z</time></trkpt><trkpt lat="37.0842672" lon="-2.235654"><ele>535.0</ele><time>2026-04-11T08:32:12.358Z</time></trkpt><trkpt lat="37.0842773" lon="-2.2359273"><ele>535.3333333333334</ele><time>2026-04-11T08:32:13.358Z</time></trkpt><trkpt lat="37.0842855" lon="-2.2361932"><ele>535.6666666666666</ele><time>2026-04-11T08:32:14.358Z</time></trkpt><trkpt lat="37.0842877" lon="-2.2364713"><ele>536.0</ele><time>2026-04-11T08:32:15.357Z</time></trkpt><trkpt lat="37.0842959" lon="-2.2367412"><ele>536.0</ele><time>2026-04-11T08:32:16.358Z</time></trkpt><trkpt lat="37.0843044" lon="-2.2370159"><ele>536.0</ele><time>2026-04-11T08:32:17.358Z</time></trkpt><trkpt lat="37.0843119" lon="-2.2372935"><ele>536.0</ele><time>2026-04-11T08:32:18.358Z</time></trkpt><trkpt lat="37.0843167" lon="-2.2375703"><ele>536.5</ele><time>2026-04-11T08:32:19.357Z</time></trkpt><trkpt lat="37.0843219" lon="-2.237851"><ele>537.0</ele><time>2026-04-11T08:32:20.358Z</time></trkpt><trkpt lat="37.0843273" lon="-2.238141"><ele>536.0</ele><time>2026-04-11T08:32:21.357Z</time></trkpt><trkpt lat="37.0843347" lon="-2.2384086"><ele>535.0</ele><time>2026-04-11T08:32:22.358Z</time></trkpt><trkpt lat="37.0843406" lon="-2.2386779"><ele>534.0</ele><time>2026-04-11T08:32:23.358Z</time></trkpt><trkpt lat="37.0843461" lon="-2.2389434"><ele>533.6666666666666</ele><time>2026-04-11T08:32:24.357Z</time></trkpt><trkpt lat="37.0843531" lon="-2.2392042"><ele>533.3333333333333</ele><time>2026-04-11T08:32:25.357Z</time></trkpt><trkpt lat="37.0843581" lon="-2.2394645"><ele>533.0</ele><time>2026-04-11T08:32:26.358Z</time></trkpt><trkpt lat="37.0843589" lon="-2.2397226"><ele>533.3333333333333</ele><time>2026-04-11T08:32:27.358Z</time></trkpt><trkpt lat="37.0843634" lon="-2.2399823"><ele>533.6666666666666</ele><time>2026-04-11T08:32:28.357Z</time></trkpt><trkpt lat="37.0843696" lon="-2.2402442"><ele>534.0</ele><time>2026-04-11T08:32:29.358Z</time></trkpt><trkpt lat="37.0843861" lon="-2.240501"><ele>535.0</ele><time>2026-04-11T08:32:30.358Z</time></trkpt><trkpt lat="37.0843992" lon="-2.2407644"><ele>536.0</ele><time>2026-04-11T08:32:31.358Z</time></trkpt><trkpt lat="37.0844145" lon="-2.2410293"><ele>537.0</ele><time>2026-04-11T08:32:32.358Z</time></trkpt><trkpt lat="37.0844253" lon="-2.2412875"><ele>537.0</ele><time>2026-04-11T08:32:33.357Z</time></trkpt><trkpt lat="37.0844352" lon="-2.2415452"><ele>537.0</ele><time>2026-04-11T08:32:34.358Z</time></trkpt><trkpt lat="37.084444" lon="-2.2417992"><ele>537.0</ele><time>2026-04-11T08:32:35.358Z</time></trkpt><trkpt lat="37.0844493" lon="-2.2420489"><ele>537.0</ele><time>2026-04-11T08:32:36.358Z</time></trkpt><trkpt lat="37.0844569" lon="-2.2422887"><ele>537.0</ele><time>2026-04-11T08:32:37.358Z</time></trkpt><trkpt lat="37.0844606" lon="-2.2425286"><ele>537.0</ele><time>2026-04-11T08:32:38.358Z</time></trkpt><trkpt lat="37.0844667" lon="-2.2427648"><ele>537.3333333333334</ele><time>2026-04-11T08:32:39.358Z</time></trkpt><trkpt lat="37.0844715" lon="-2.2429975"><ele>537.6666666666667</ele><time>2026-04-11T08:32:40.358Z</time></trkpt><trkpt lat="37.0844739" lon="-2.243225"><ele>538.0</ele><time>2026-04-11T08:32:41.358Z</time></trkpt><trkpt lat="37.0844803" lon="-2.2434489"><ele>538.0</ele><time>2026-04-11T08:32:42.357Z</time></trkpt><trkpt lat="37.0844825" lon="-2.2436681"><ele>538.0</ele><time>2026-04-11T08:32:43.357Z</time></trkpt><trkpt lat="37.0844894" lon="-2.2438806"><ele>538.0</ele><time>2026-04-11T08:32:44.358Z</time></trkpt><trkpt lat="37.0844928" lon="-2.244095"><ele>538.0</ele><time>2026-04-11T08:32:45.357Z</time></trkpt><trkpt lat="37.0844992" lon="-2.244305"><ele>538.0</ele><time>2026-04-11T08:32:46.358Z</time></trkpt><trkpt lat="37.0845044" lon="-2.2445164"><ele>538.0</ele><time>2026-04-11T08:32:47.358Z</time></trkpt><trkpt lat="37.0845087" lon="-2.2447286"><ele>537.0</ele><time>2026-04-11T08:32:48.358Z</time></trkpt><trkpt lat="37.0845057" lon="-2.2449449"><ele>536.0</ele><time>2026-04-11T08:32:49.357Z</time></trkpt><trkpt lat="37.084506" lon="-2.2451672"><ele>535.0</ele><time>2026-04-11T08:32:50.358Z</time></trkpt><trkpt lat="37.0845021" lon="-2.2453848"><ele>535.0</ele><time>2026-04-11T08:32:51.358Z</time></trkpt><trkpt lat="37.0845011" lon="-2.2456169"><ele>535.0</ele><time>2026-04-11T08:32:52.358Z</time></trkpt><trkpt lat="37.0845042" lon="-2.2458396"><ele>535.0</ele><time>2026-04-11T08:32:53.358Z</time></trkpt><trkpt lat="37.0845078" lon="-2.246068"><ele>536.6666666666667</ele><time>2026-04-11T08:32:54.358Z</time></trkpt><trkpt lat="37.0845131" lon="-2.246292"><ele>538.3333333333334</ele><time>2026-04-11T08:32:55.358Z</time></trkpt><trkpt lat="37.0845193" lon="-2.2465288"><ele>540.0</ele><time>2026-04-11T08:32:56.358Z</time></trkpt><trkpt lat="37.0845236" lon="-2.2467717"><ele>540.6666666666666</ele><time>2026-04-11T08:32:57.358Z</time></trkpt><trkpt lat="37.0845308" lon="-2.2470193"><ele>541.3333333333333</ele><time>2026-04-11T08:32:58.358Z</time></trkpt><trkpt lat="37.0845406" lon="-2.2472765"><ele>542.0</ele><time>2026-04-11T08:32:59.358Z</time></trkpt><trkpt lat="37.0845483" lon="-2.2475429"><ele>542.6666666666666</ele><time>2026-04-11T08:33:00.358Z</time></trkpt><trkpt lat="37.08456" lon="-2.247805"><ele>543.3333333333334</ele><time>2026-04-11T08:33:01.357Z</time></trkpt><trkpt lat="37.0845676" lon="-2.248068"><ele>544.0</ele><time>2026-04-11T08:33:02.358Z</time></trkpt><trkpt lat="37.08457" lon="-2.2483245"><ele>544.0</ele><time>2026-04-11T08:33:03.358Z</time></trkpt><trkpt lat="37.0845801" lon="-2.2485911"><ele>544.0</ele><time>2026-04-11T08:33:04.358Z</time></trkpt><trkpt lat="37.0845837" lon="-2.2488428"><ele>544.0</ele><time>2026-04-11T08:33:05.358Z</time></trkpt><trkpt lat="37.0845898" lon="-2.2490952"><ele>544.0</ele><time>2026-04-11T08:33:06.358Z</time></trkpt><trkpt lat="37.0845959" lon="-2.2493533"><ele>544.0</ele><time>2026-04-11T08:33:07.358Z</time></trkpt><trkpt lat="37.0846074" lon="-2.2495822"><ele>544.0</ele><time>2026-04-11T08:33:08.358Z</time></trkpt><trkpt lat="37.0846163" lon="-2.2498275"><ele>544.0</ele><time>2026-04-11T08:33:09.358Z</time></trkpt><trkpt lat="37.0846159" lon="-2.2500634"><ele>544.0</ele><time>2026-04-11T08:33:10.358Z</time></trkpt><trkpt lat="37.0846234" lon="-2.2502814"><ele>544.0</ele><time>2026-04-11T08:33:11.357Z</time></trkpt><trkpt lat="37.084627" lon="-2.2505062"><ele>544.6666666666667</ele><time>2026-04-11T08:33:12.358Z</time></trkpt><trkpt lat="37.0846271" lon="-2.2507323"><ele>545.3333333333334</ele><time>2026-04-11T08:33:13.357Z</time></trkpt><trkpt lat="37.0846292" lon="-2.2509509"><ele>546.0</ele><time>2026-04-11T08:33:14.358Z</time></trkpt><trkpt lat="37.0846294" lon="-2.2511542"><ele>546.0</ele><time>2026-04-11T08:33:15.358Z</time></trkpt><trkpt lat="37.0846357" lon="-2.2513663"><ele>546.0</ele><time>2026-04-11T08:33:16.358Z</time></trkpt><trkpt lat="37.0846399" lon="-2.2515769"><ele>546.0</ele><time>2026-04-11T08:33:17.358Z</time></trkpt><trkpt lat="37.0846424" lon="-2.2517895"><ele>545.6666666666666</ele><time>2026-04-11T08:33:18.358Z</time></trkpt><trkpt lat="37.0846469" lon="-2.2520045"><ele>545.3333333333333</ele><time>2026-04-11T08:33:19.358Z</time></trkpt><trkpt lat="37.0846514" lon="-2.2522203"><ele>545.0</ele><time>2026-04-11T08:33:20.358Z</time></trkpt><trkpt lat="37.0846573" lon="-2.252432"><ele>545.0</ele><time>2026-04-11T08:33:21.358Z</time></trkpt><trkpt lat="37.0846612" lon="-2.2526561"><ele>545.0</ele><time>2026-04-11T08:33:22.357Z</time></trkpt><trkpt lat="37.0846648" lon="-2.252883"><ele>545.0</ele><time>2026-04-11T08:33:23.358Z</time></trkpt><trkpt lat="37.0846685" lon="-2.2531066"><ele>545.0</ele><time>2026-04-11T08:33:24.358Z</time></trkpt><trkpt lat="37.0846702" lon="-2.2533391"><ele>545.0</ele><time>2026-04-11T08:33:25.358Z</time></trkpt><trkpt lat="37.0846745" lon="-2.253573"><ele>545.0</ele><time>2026-04-11T08:33:26.358Z</time></trkpt><trkpt lat="37.084679" lon="-2.2538059"><ele>545.6666666666666</ele><time>2026-04-11T08:33:27.358Z</time></trkpt><trkpt lat="37.0846886" lon="-2.2540301"><ele>546.3333333333334</ele><time>2026-04-11T08:33:28.358Z</time></trkpt><trkpt lat="37.084695" lon="-2.2542617"><ele>547.0</ele><time>2026-04-11T08:33:29.357Z</time></trkpt><trkpt lat="37.0847011" lon="-2.2544996"><ele>547.0</ele><time>2026-04-11T08:33:30.358Z</time></trkpt><trkpt lat="37.0847113" lon="-2.2547457"><ele>547.0</ele><time>2026-04-11T08:33:31.358Z</time></trkpt><trkpt lat="37.0847161" lon="-2.2549888"><ele>547.0</ele><time>2026-04-11T08:33:32.358Z</time></trkpt><trkpt lat="37.0847237" lon="-2.2552266"><ele>546.6666666666667</ele><time>2026-04-11T08:33:33.358Z</time></trkpt><trkpt lat="37.0847297" lon="-2.255471"><ele>546.3333333333334</ele><time>2026-04-11T08:33:34.358Z</time></trkpt><trkpt lat="37.0847366" lon="-2.2557156"><ele>546.0</ele><time>2026-04-11T08:33:35.357Z</time></trkpt><trkpt lat="37.0847403" lon="-2.2559587"><ele>546.6666666666666</ele><time>2026-04-11T08:33:36.357Z</time></trkpt><trkpt lat="37.0847513" lon="-2.2561976"><ele>547.3333333333333</ele><time>2026-04-11T08:33:37.357Z</time></trkpt><trkpt lat="37.0847551" lon="-2.2564441"><ele>548.0</ele><time>2026-04-11T08:33:38.358Z</time></trkpt><trkpt lat="37.0847592" lon="-2.2566957"><ele>548.0</ele><time>2026-04-11T08:33:39.358Z</time></trkpt><trkpt lat="37.0847638" lon="-2.2569387"><ele>548.0</ele><time>2026-04-11T08:33:40.357Z</time></trkpt><trkpt lat="37.0847666" lon="-2.2571821"><ele>548.0</ele><time>2026-04-11T08:33:41.357Z</time></trkpt><trkpt lat="37.0847707" lon="-2.2574296"><ele>548.0</ele><time>2026-04-11T08:33:42.358Z</time></trkpt><trkpt lat="37.084778" lon="-2.2576621"><ele>548.0</ele><time>2026-04-11T08:33:43.357Z</time></trkpt><trkpt lat="37.0847866" lon="-2.2579005"><ele>548.0</ele><time>2026-04-11T08:33:44.358Z</time></trkpt><trkpt lat="37.084793" lon="-2.2581257"><ele>547.6666666666666</ele><time>2026-04-11T08:33:45.358Z</time></trkpt><trkpt lat="37.0847995" lon="-2.2583867"><ele>547.3333333333334</ele><time>2026-04-11T08:33:46.358Z</time></trkpt><trkpt lat="37.0848091" lon="-2.2586361"><ele>547.0</ele><time>2026-04-11T08:33:47.358Z</time></trkpt><trkpt lat="37.0848129" lon="-2.2588826"><ele>547.0</ele><time>2026-04-11T08:33:48.357Z</time></trkpt><trkpt lat="37.0848164" lon="-2.2591336"><ele>547.0</ele><time>2026-04-11T08:33:49.357Z</time></trkpt><trkpt lat="37.084823" lon="-2.2593788"><ele>547.0</ele><time>2026-04-11T08:33:50.358Z</time></trkpt><trkpt lat="37.0848259" lon="-2.2596253"><ele>547.3333333333334</ele><time>2026-04-11T08:33:51.358Z</time></trkpt><trkpt lat="37.0848296" lon="-2.2598709"><ele>547.6666666666666</ele><time>2026-04-11T08:33:52.358Z</time></trkpt><trkpt lat="37.0848316" lon="-2.2601077"><ele>548.0</ele><time>2026-04-11T08:33:53.358Z</time></trkpt><trkpt lat="37.0848361" lon="-2.2603484"><ele>548.0</ele><time>2026-04-11T08:33:54.358Z</time></trkpt><trkpt lat="37.0848391" lon="-2.2605852"><ele>548.0</ele><time>2026-04-11T08:33:55.358Z</time></trkpt><trkpt lat="37.0848465" lon="-2.2608039"><ele>548.0</ele><time>2026-04-11T08:33:56.358Z</time></trkpt><trkpt lat="37.0848505" lon="-2.2610162"><ele>548.3333333333333</ele><time>2026-04-11T08:33:57.358Z</time></trkpt><trkpt lat="37.0848561" lon="-2.2612293"><ele>548.6666666666666</ele><time>2026-04-11T08:33:58.358Z</time></trkpt><trkpt lat="37.0848575" lon="-2.2614369"><ele>549.0</ele><time>2026-04-11T08:33:59.358Z</time></trkpt><trkpt lat="37.0848622" lon="-2.2616382"><ele>550.0</ele><time>2026-04-11T08:34:00.358Z</time></trkpt><trkpt lat="37.0848639" lon="-2.2618363"><ele>551.0</ele><time>2026-04-11T08:34:01.358Z</time></trkpt><trkpt lat="37.0848682" lon="-2.2620346"><ele>552.0</ele><time>2026-04-11T08:34:02.357Z</time></trkpt><trkpt lat="37.0848696" lon="-2.2622348"><ele>552.0</ele><time>2026-04-11T08:34:03.357Z</time></trkpt><trkpt lat="37.0848757" lon="-2.2624457"><ele>552.0</ele><time>2026-04-11T08:34:04.358Z</time></trkpt><trkpt lat="37.0848817" lon="-2.26266"><ele>552.0</ele><time>2026-04-11T08:34:05.358Z</time></trkpt><trkpt lat="37.0848966" lon="-2.2628616"><ele>552.0</ele><time>2026-04-11T08:34:06.358Z</time></trkpt><trkpt lat="37.0849039" lon="-2.2630987"><ele>552.0</ele><time>2026-04-11T08:34:07.358Z</time></trkpt><trkpt lat="37.0849191" lon="-2.2633303"><ele>552.0</ele><time>2026-04-11T08:34:08.358Z</time></trkpt><trkpt lat="37.0849315" lon="-2.2635712"><ele>552.0</ele><time>2026-04-11T08:34:09.358Z</time></trkpt><trkpt lat="37.0849483" lon="-2.2638167"><ele>552.0</ele><time>2026-04-11T08:34:10.358Z</time></trkpt><trkpt lat="37.0849599" lon="-2.2640585"><ele>552.0</ele><time>2026-04-11T08:34:11.358Z</time></trkpt><trkpt lat="37.0849688" lon="-2.2642979"><ele>552.0</ele><time>2026-04-11T08:34:12.358Z</time></trkpt><trkpt lat="37.0849752" lon="-2.2645062"><ele>552.0</ele><time>2026-04-11T08:34:13.358Z</time></trkpt><trkpt lat="37.0849781" lon="-2.2646956"><ele>552.0</ele><time>2026-04-11T08:34:14.358Z</time></trkpt><trkpt lat="37.0849846" lon="-2.26488"><ele>553.0</ele><time>2026-04-11T08:34:15.358Z</time></trkpt><trkpt lat="37.0849957" lon="-2.2650686"><ele>554.0</ele><time>2026-04-11T08:34:16.358Z</time></trkpt><trkpt lat="37.0850083" lon="-2.2652691"><ele>555.0</ele><time>2026-04-11T08:34:17.358Z</time></trkpt><trkpt lat="37.0850204" lon="-2.265467"><ele>555.3333333333334</ele><time>2026-04-11T08:34:18.358Z</time></trkpt><trkpt lat="37.0850283" lon="-2.2656645"><ele>555.6666666666667</ele><time>2026-04-11T08:34:19.358Z</time></trkpt><trkpt lat="37.0850321" lon="-2.2658557"><ele>556.0</ele><time>2026-04-11T08:34:20.358Z</time></trkpt><trkpt lat="37.0850344" lon="-2.2660308"><ele>556.0</ele><time>2026-04-11T08:34:21.358Z</time></trkpt><trkpt lat="37.0850345" lon="-2.2661727"><ele>556.0</ele><time>2026-04-11T08:34:22.358Z</time></trkpt><trkpt lat="37.0850369" lon="-2.2662987"><ele>556.0</ele><time>2026-04-11T08:34:23.358Z</time></trkpt><trkpt lat="37.0850367" lon="-2.2664121"><ele>556.0</ele><time>2026-04-11T08:34:24.358Z</time></trkpt><trkpt lat="37.0850393" lon="-2.2665196"><ele>556.0</ele><time>2026-04-11T08:34:25.358Z</time></trkpt><trkpt lat="37.0850447" lon="-2.266625"><ele>555.4</ele><time>2026-04-11T08:34:26.358Z</time></trkpt><trkpt lat="37.0850509" lon="-2.2667199"><ele>554.8</ele><time>2026-04-11T08:34:27.358Z</time></trkpt><trkpt lat="37.0851004" lon="-2.2668353"><ele>554.1999999999999</ele><time>2026-04-11T08:34:29.358Z</time></trkpt><trkpt lat="37.0851867" lon="-2.266879"><ele>553.6</ele><time>2026-04-11T08:34:31.358Z</time></trkpt><trkpt lat="37.0853007" lon="-2.2669456"><ele>553.0</ele><time>2026-04-11T08:34:33.357Z</time></trkpt><trkpt lat="37.0853505" lon="-2.2670135"><ele>553.0</ele><time>2026-04-11T08:34:34.358Z</time></trkpt><trkpt lat="37.0853902" lon="-2.2670865"><ele>553.0</ele><time>2026-04-11T08:34:35.358Z</time></trkpt><trkpt lat="37.0854103" lon="-2.2671852"><ele>553.0</ele><time>2026-04-11T08:34:36.358Z</time></trkpt><trkpt lat="37.0853974" lon="-2.2672829"><ele>553.0</ele><time>2026-04-11T08:34:37.358Z</time></trkpt><trkpt lat="37.0853705" lon="-2.2673861"><ele>553.0</ele><time>2026-04-11T08:34:38.358Z</time></trkpt><trkpt lat="37.0853373" lon="-2.2674906"><ele>553.0</ele><time>2026-04-11T08:34:39.357Z</time></trkpt><trkpt lat="37.0852968" lon="-2.267615"><ele>553.0</ele><time>2026-04-11T08:34:40.357Z</time></trkpt><trkpt lat="37.0852591" lon="-2.2677497"><ele>553.0</ele><time>2026-04-11T08:34:41.358Z</time></trkpt><trkpt lat="37.085227" lon="-2.2679012"><ele>553.0</ele><time>2026-04-11T08:34:42.358Z</time></trkpt><trkpt lat="37.085209" lon="-2.2680601"><ele>553.0</ele><time>2026-04-11T08:34:43.358Z</time></trkpt><trkpt lat="37.0852025" lon="-2.2682325"><ele>553.0</ele><time>2026-04-11T08:34:44.358Z</time></trkpt><trkpt lat="37.0852141" lon="-2.2684159"><ele>553.0</ele><time>2026-04-11T08:34:45.357Z</time></trkpt><trkpt lat="37.0852359" lon="-2.2685965"><ele>553.0</ele><time>2026-04-11T08:34:46.358Z</time></trkpt><trkpt lat="37.0852643" lon="-2.2687687"><ele>553.0</ele><time>2026-04-11T08:34:47.358Z</time></trkpt><trkpt lat="37.0853143" lon="-2.2689184"><ele>552.75</ele><time>2026-04-11T08:34:48.358Z</time></trkpt><trkpt lat="37.0853943" lon="-2.2690447"><ele>552.5</ele><time>2026-04-11T08:34:49.358Z</time></trkpt><trkpt lat="37.0855002" lon="-2.2691366"><ele>552.25</ele><time>2026-04-11T08:34:50.357Z</time></trkpt><trkpt lat="37.0856224" lon="-2.2692103"><ele>552.0</ele><time>2026-04-11T08:34:51.358Z</time></trkpt><trkpt lat="37.0857516" lon="-2.2692888"><ele>554.0</ele><time>2026-04-11T08:34:52.358Z</time></trkpt><trkpt lat="37.0858823" lon="-2.2693647"><ele>556.0</ele><time>2026-04-11T08:34:53.358Z</time></trkpt><trkpt lat="37.0860082" lon="-2.2694389"><ele>558.0</ele><time>2026-04-11T08:34:54.358Z</time></trkpt><trkpt lat="37.0861285" lon="-2.2695022"><ele>560.0</ele><time>2026-04-11T08:34:55.358Z</time></trkpt><trkpt lat="37.0862306" lon="-2.2695578"><ele>560.0</ele><time>2026-04-11T08:34:56.357Z</time></trkpt><trkpt lat="37.0863034" lon="-2.2695953"><ele>560.0</ele><time>2026-04-11T08:34:57.358Z</time></trkpt><trkpt lat="37.0864025" lon="-2.2696485"><ele>560.0</ele><time>2026-04-11T08:34:59.358Z</time></trkpt><trkpt lat="37.0864813" lon="-2.2696915"><ele>560.0</ele><time>2026-04-11T08:35:01.358Z</time></trkpt><trkpt lat="37.0865685" lon="-2.2696734"><ele>560.0</ele><time>2026-04-11T08:35:03.358Z</time></trkpt><trkpt lat="37.0866878" lon="-2.2696298"><ele>560.6666666666666</ele><time>2026-04-11T08:35:05.358Z</time></trkpt><trkpt lat="37.0867799" lon="-2.2695894"><ele>561.3333333333333</ele><time>2026-04-11T08:35:07.357Z</time></trkpt><trkpt lat="37.0868454" lon="-2.2695607"><ele>562.0</ele><time>2026-04-11T08:35:09.358Z</time></trkpt><trkpt lat="37.0868956" lon="-2.2695085"><ele>562.6666666666666</ele><time>2026-04-11T08:35:12.358Z</time></trkpt><trkpt lat="37.0869431" lon="-2.2694216"><ele>563.3333333333334</ele><time>2026-04-11T08:35:14.357Z</time></trkpt><trkpt lat="37.0870194" lon="-2.2693141"><ele>564.0</ele><time>2026-04-11T08:35:16.358Z</time></trkpt><trkpt lat="37.0870824" lon="-2.269233"><ele>564.0</ele><time>2026-04-11T08:35:18.358Z</time></trkpt><trkpt lat="37.087132" lon="-2.2691743"><ele>564.0</ele><time>2026-04-11T08:35:19.357Z</time></trkpt><trkpt lat="37.0871781" lon="-2.2691037"><ele>564.0</ele><time>2026-04-11T08:35:20.358Z</time></trkpt><trkpt lat="37.0872259" lon="-2.2690406"><ele>564.0</ele><time>2026-04-11T08:35:21.358Z</time></trkpt><trkpt lat="37.0872991" lon="-2.2689278"><ele>564.0</ele><time>2026-04-11T08:35:23.357Z</time></trkpt><trkpt lat="37.0873681" lon="-2.2688183"><ele>564.0</ele><time>2026-04-11T08:35:25.358Z</time></trkpt><trkpt lat="37.0874359" lon="-2.2687151"><ele>564.0</ele><time>2026-04-11T08:35:27.358Z</time></trkpt><trkpt lat="37.0874952" lon="-2.2686693"><ele>564.0</ele><time>2026-04-11T08:35:29.358Z</time></trkpt><trkpt lat="37.0875595" lon="-2.2686804"><ele>564.0</ele><time>2026-04-11T08:35:31.358Z</time></trkpt><trkpt lat="37.0876312" lon="-2.2687472"><ele>564.0</ele><time>2026-04-11T08:35:33.358Z</time></trkpt><trkpt lat="37.0877094" lon="-2.2688296"><ele>564.0</ele><time>2026-04-11T08:35:35.358Z</time></trkpt><trkpt lat="37.0877966" lon="-2.2689242"><ele>564.0</ele><time>2026-04-11T08:35:37.358Z</time></trkpt><trkpt lat="37.0878946" lon="-2.2690286"><ele>564.0</ele><time>2026-04-11T08:35:39.358Z</time></trkpt><trkpt lat="37.0879434" lon="-2.2690836"><ele>564.0</ele><time>2026-04-11T08:35:40.357Z</time></trkpt><trkpt lat="37.0880297" lon="-2.2691789"><ele>564.0</ele><time>2026-04-11T08:35:42.358Z</time></trkpt><trkpt lat="37.0880876" lon="-2.2692462"><ele>564.0</ele><time>2026-04-11T08:35:44.358Z</time></trkpt><trkpt lat="37.0881423" lon="-2.2693031"><ele>564.0</ele><time>2026-04-11T08:35:47.357Z</time></trkpt><trkpt lat="37.0881932" lon="-2.2693534"><ele>564.0</ele><time>2026-04-11T08:36:17.358Z</time></trkpt><trkpt lat="37.0882573" lon="-2.2694308"><ele>564.0</ele><time>2026-04-11T08:36:21.358Z</time></trkpt><trkpt lat="37.0883203" lon="-2.2695029"><ele>564.0</ele><time>2026-04-11T08:36:24.358Z</time></trkpt><trkpt lat="37.0883065" lon="-2.2695909"><ele>564.0</ele><time>2026-04-11T08:36:35.358Z</time></trkpt><trkpt lat="37.0883769" lon="-2.2695714"><ele>564.0</ele><time>2026-04-11T08:37:00.358Z</time></trkpt><trkpt lat="37.0883915" lon="-2.26966"><ele>564.0</ele><time>2026-04-11T08:37:04.358Z</time></trkpt><trkpt lat="37.0883756" lon="-2.2695779"><ele>564.0</ele><time>2026-04-11T08:37:24.358Z</time></trkpt><trkpt lat="37.088436" lon="-2.2695293"><ele>564.0</ele><time>2026-04-11T08:37:32.358Z</time></trkpt><trkpt lat="37.0884822" lon="-2.2694585"><ele>564.0</ele><time>2026-04-11T08:37:39.356Z</time></trkpt><trkpt lat="37.0885374" lon="-2.2694143"><ele>564.0</ele><time>2026-04-11T08:37:51.355Z</time></trkpt><trkpt lat="37.0884764" lon="-2.2694529"><ele>564.0</ele><time>2026-04-11T08:39:30.365Z</time></trkpt><trkpt lat="37.0884323" lon="-2.2695233"><ele>564.0</ele><time>2026-04-11T08:39:42.362Z</time></trkpt><trkpt lat="37.0883861" lon="-2.26958"><ele>564.0</ele><time>2026-04-11T08:39:49.355Z</time></trkpt><trkpt lat="37.088344" lon="-2.2695137"><ele>564.0</ele><time>2026-04-11T08:40:04.452Z</time></trkpt><trkpt lat="37.0882896" lon="-2.2694557"><ele>564.0</ele><time>2026-04-11T08:40:13.342Z</time></trkpt><trkpt lat="37.0882551" lon="-2.2693876"><ele>564.0</ele><time>2026-04-11T08:40:17.352Z</time></trkpt><trkpt lat="37.0882299" lon="-2.2693083"><ele>564.0</ele><time>2026-04-11T08:40:23.719Z</time></trkpt><trkpt lat="37.0882383" lon="-2.2692274"><ele>564.0</ele><time>2026-04-11T08:40:29.282Z</time></trkpt><trkpt lat="37.0882842" lon="-2.2691537"><ele>564.0</ele><time>2026-04-11T08:40:34.324Z</time></trkpt><trkpt lat="37.0883441" lon="-2.269116"><ele>564.0</ele><time>2026-04-11T08:40:41.376Z</time></trkpt><trkpt lat="37.0883627" lon="-2.2691923"><ele>564.0</ele><time>2026-04-11T08:40:51.346Z</time></trkpt><trkpt lat="37.0884363" lon="-2.2692131"><ele>564.0</ele><time>2026-04-11T08:55:20.353Z</time></trkpt><trkpt lat="37.0883978" lon="-2.269139"><ele>564.0</ele><time>2026-04-11T08:58:55.352Z</time></trkpt><trkpt lat="37.0883431" lon="-2.2690858"><ele>564.0</ele><time>2026-04-11T09:00:00.366Z</time></trkpt><trkpt lat="37.0883181" lon="-2.2691613"><ele>564.0</ele><time>2026-04-11T09:00:07.353Z</time></trkpt><trkpt lat="37.088266" lon="-2.269209"><ele>564.0</ele><time>2026-04-11T09:01:02.353Z</time></trkpt><trkpt lat="37.0882911" lon="-2.269285"><ele>564.0</ele><time>2026-04-11T09:06:29.353Z</time></trkpt><trkpt lat="37.0882251" lon="-2.2692505"><ele>564.0</ele><time>2026-04-11T09:10:23.352Z</time></trkpt><trkpt lat="37.0882253" lon="-2.2694777"><ele>567.0</ele><time>2026-04-11T09:12:04.299Z</time></trkpt><trkpt lat="37.0879005" lon="-2.2719927"><ele>567.0</ele><time>2026-04-11T09:12:05.322Z</time></trkpt><trkpt lat="37.0879718" lon="-2.2719683"><ele>567.0</ele><time>2026-04-11T09:12:21.359Z</time></trkpt><trkpt lat="37.0879157" lon="-2.271913"><ele>567.0</ele><time>2026-04-11T09:12:35.37Z</time></trkpt><trkpt lat="37.0881683" lon="-2.2698384"><ele>564.0</ele><time>2026-04-11T09:12:36.352Z</time></trkpt><trkpt lat="37.0882401" lon="-2.2692595"><ele>564.0</ele><time>2026-04-11T09:12:37.352Z</time></trkpt><trkpt lat="37.0882634" lon="-2.2693481"><ele>564.0</ele><time>2026-04-11T09:12:44.351Z</time></trkpt><trkpt lat="37.0882802" lon="-2.269434"><ele>564.0</ele><time>2026-04-11T09:12:50.352Z</time></trkpt><trkpt lat="37.0883219" lon="-2.269495"><ele>564.0</ele><time>2026-04-11T09:12:55.352Z</time></trkpt><trkpt lat="37.0883718" lon="-2.2695451"><ele>564.0</ele><time>2026-04-11T09:13:00.351Z</time></trkpt><trkpt lat="37.088431" lon="-2.2695767"><ele>564.0</ele><time>2026-04-11T09:13:06.361Z</time></trkpt><trkpt lat="37.0884935" lon="-2.2696057"><ele>564.0</ele><time>2026-04-11T09:13:12.352Z</time></trkpt><trkpt lat="37.0885515" lon="-2.2696491"><ele>564.0</ele><time>2026-04-11T09:13:18.352Z</time></trkpt><trkpt lat="37.0885991" lon="-2.2697179"><ele>564.0</ele><time>2026-04-11T09:13:25.352Z</time></trkpt><trkpt lat="37.088644" lon="-2.2697883"><ele>564.0</ele><time>2026-04-11T09:13:32.351Z</time></trkpt><trkpt lat="37.0886926" lon="-2.2698385"><ele>564.0</ele><time>2026-04-11T09:13:38.352Z</time></trkpt><trkpt lat="37.08871" lon="-2.2699144"><ele>564.0</ele><time>2026-04-11T09:13:44.352Z</time></trkpt><trkpt lat="37.0886851" lon="-2.2699956"><ele>564.0</ele><time>2026-04-11T09:13:50.362Z</time></trkpt><trkpt lat="37.0886519" lon="-2.2700718"><ele>564.0</ele><time>2026-04-11T09:13:57.352Z</time></trkpt><trkpt lat="37.0886089" lon="-2.2701435"><ele>564.0</ele><time>2026-04-11T09:14:04.352Z</time></trkpt><trkpt lat="37.0885828" lon="-2.2702194"><ele>564.0</ele><time>2026-04-11T09:14:10.352Z</time></trkpt><trkpt lat="37.0886454" lon="-2.2702653"><ele>564.0</ele><time>2026-04-11T09:14:18.351Z</time></trkpt><trkpt lat="37.0887116" lon="-2.270284"><ele>564.0</ele><time>2026-04-11T09:15:47.352Z</time></trkpt><trkpt lat="37.0886808" lon="-2.2701921"><ele>564.0</ele><time>2026-04-11T09:16:18.352Z</time></trkpt><trkpt lat="37.0886234" lon="-2.270159"><ele>564.0</ele><time>2026-04-11T09:16:21.352Z</time></trkpt><trkpt lat="37.0885729" lon="-2.2701013"><ele>564.0</ele><time>2026-04-11T09:16:26.352Z</time></trkpt><trkpt lat="37.0885623" lon="-2.2700191"><ele>564.0</ele><time>2026-04-11T09:16:32.367Z</time></trkpt><trkpt lat="37.0885953" lon="-2.2699412"><ele>564.0</ele><time>2026-04-11T09:16:42.351Z</time></trkpt><trkpt lat="37.0886094" lon="-2.2698573"><ele>564.0</ele><time>2026-04-11T09:16:52.352Z</time></trkpt><trkpt lat="37.0886256" lon="-2.2697766"><ele>564.0</ele><time>2026-04-11T09:17:03.351Z</time></trkpt><trkpt lat="37.0886145" lon="-2.2696911"><ele>564.0</ele><time>2026-04-11T09:17:12.352Z</time></trkpt><trkpt lat="37.0885648" lon="-2.2696347"><ele>564.0</ele><time>2026-04-11T09:17:15.352Z</time></trkpt><trkpt lat="37.0885029" lon="-2.2696087"><ele>564.0</ele><time>2026-04-11T09:17:22.366Z</time></trkpt><trkpt lat="37.08843" lon="-2.2696216"><ele>564.0</ele><time>2026-04-11T09:17:28.351Z</time></trkpt><trkpt lat="37.0883975" lon="-2.2695518"><ele>564.0</ele><time>2026-04-11T09:19:02.352Z</time></trkpt><trkpt lat="37.0883542" lon="-2.2694918"><ele>564.0</ele><time>2026-04-11T09:19:08.352Z</time></trkpt><trkpt lat="37.0883155" lon="-2.2694241"><ele>564.0</ele><time>2026-04-11T09:19:15.375Z</time></trkpt><trkpt lat="37.0882625" lon="-2.2693688"><ele>564.0</ele><time>2026-04-11T09:19:21.351Z</time></trkpt><trkpt lat="37.0882227" lon="-2.2693012"><ele>564.0</ele><time>2026-04-11T09:19:27.352Z</time></trkpt><trkpt lat="37.0882037" lon="-2.2692245"><ele>564.0</ele><time>2026-04-11T09:19:34.265Z</time></trkpt><trkpt lat="37.088179" lon="-2.2691479"><ele>564.0</ele><time>2026-04-11T09:20:28.362Z</time></trkpt><trkpt lat="37.088218" lon="-2.269219"><ele>564.0</ele><time>2026-04-11T09:22:43.376Z</time></trkpt><trkpt lat="37.0882604" lon="-2.269285"><ele>564.0</ele><time>2026-04-11T09:25:07.351Z</time></trkpt><trkpt lat="37.0882143" lon="-2.2692223"><ele>564.0</ele><time>2026-04-11T09:28:03.352Z</time></trkpt><trkpt lat="37.0881649" lon="-2.2691705"><ele>564.0</ele><time>2026-04-11T09:28:50.364Z</time></trkpt><trkpt lat="37.0881774" lon="-2.269086"><ele>564.0</ele><time>2026-04-11T09:28:56.277Z</time></trkpt><trkpt lat="37.0881229" lon="-2.2691454"><ele>564.0</ele><time>2026-04-11T09:29:09.351Z</time></trkpt><trkpt lat="37.0881872" lon="-2.2691597"><ele>564.0</ele><time>2026-04-11T09:29:17.305Z</time></trkpt><trkpt lat="37.0882575" lon="-2.2691706"><ele>564.0</ele><time>2026-04-11T09:31:24.255Z</time></trkpt><trkpt lat="37.0883321" lon="-2.2691971"><ele>564.0</ele><time>2026-04-11T09:31:28.362Z</time></trkpt><trkpt lat="37.0882468" lon="-2.2692439"><ele>564.0</ele><time>2026-04-11T09:34:06.364Z</time></trkpt><trkpt lat="37.08833" lon="-2.2692997"><ele>564.0</ele><time>2026-04-11T09:40:03.283Z</time></trkpt><trkpt lat="37.088286" lon="-2.2695642"><ele>564.5</ele><time>2026-04-11T09:43:42.315Z</time></trkpt><trkpt lat="37.0882422" lon="-2.2698619"><ele>565.0</ele><time>2026-04-11T09:43:43.317Z</time></trkpt><trkpt lat="37.0881959" lon="-2.2701621"><ele>565.0</ele><time>2026-04-11T09:43:44.319Z</time></trkpt><trkpt lat="37.0881563" lon="-2.2704143"><ele>565.0</ele><time>2026-04-11T09:43:45.322Z</time></trkpt><trkpt lat="37.0881189" lon="-2.2706347"><ele>565.0</ele><time>2026-04-11T09:43:46.324Z</time></trkpt><trkpt lat="37.0880867" lon="-2.2708174"><ele>567.0</ele><time>2026-04-11T09:43:47.396Z</time></trkpt><trkpt lat="37.087892" lon="-2.2719883"><ele>564.0</ele><time>2026-04-11T09:43:48.328Z</time></trkpt><trkpt lat="37.0882651" lon="-2.2696138"><ele>564.0</ele><time>2026-04-11T09:43:53.364Z</time></trkpt><trkpt lat="37.0882958" lon="-2.2694127"><ele>564.0</ele><time>2026-04-11T09:43:54.364Z</time></trkpt><trkpt lat="37.088313" lon="-2.2692997"><ele>564.0</ele><time>2026-04-11T09:43:55.364Z</time></trkpt><trkpt lat="37.0882631" lon="-2.2692488"><ele>564.0</ele><time>2026-04-11T09:48:09.38Z</time></trkpt></trkseg><trkseg><trkpt lat="37.0840289" lon="-2.3120935"><ele>486.33333333333337</ele><time>2026-04-11T14:00:48.448Z</time></trkpt><trkpt lat="37.0839672" lon="-2.3123427"><ele>486.6666666666667</ele><time>2026-04-11T14:00:49.387Z</time></trkpt><trkpt lat="37.0838997" lon="-2.3125877"><ele>487.0</ele><time>2026-04-11T14:00:50.421Z</time></trkpt><trkpt lat="37.0838439" lon="-2.3128384"><ele>486.6666666666667</ele><time>2026-04-11T14:00:51.382Z</time></trkpt><trkpt lat="37.0837864" lon="-2.3130856"><ele>486.33333333333337</ele><time>2026-04-11T14:00:52.383Z</time></trkpt><trkpt lat="37.0837268" lon="-2.313339"><ele>486.0</ele><time>2026-04-11T14:00:53.383Z</time></trkpt><trkpt lat="37.083664" lon="-2.3135921"><ele>486.0</ele><time>2026-04-11T14:00:54.383Z</time></trkpt><trkpt lat="37.0836031" lon="-2.3138538"><ele>486.0</ele><time>2026-04-11T14:00:55.383Z</time></trkpt><trkpt lat="37.0835376" lon="-2.3141146"><ele>486.0</ele><time>2026-04-11T14:00:56.382Z</time></trkpt><trkpt lat="37.0834764" lon="-2.3143734"><ele>486.0</ele><time>2026-04-11T14:00:57.383Z</time></trkpt><trkpt lat="37.083415" lon="-2.3146352"><ele>486.0</ele><time>2026-04-11T14:00:58.383Z</time></trkpt><trkpt lat="37.0833502" lon="-2.3148993"><ele>486.0</ele><time>2026-04-11T14:00:59.383Z</time></trkpt><trkpt lat="37.0832857" lon="-2.3151656"><ele>486.0</ele><time>2026-04-11T14:01:00.383Z</time></trkpt><trkpt lat="37.0832217" lon="-2.315433"><ele>486.0</ele><time>2026-04-11T14:01:01.382Z</time></trkpt><trkpt lat="37.0831557" lon="-2.3157003"><ele>486.0</ele><time>2026-04-11T14:01:02.382Z</time></trkpt><trkpt lat="37.0830911" lon="-2.3159676"><ele>485.66666666666663</ele><time>2026-04-11T14:01:03.383Z</time></trkpt><trkpt lat="37.083024" lon="-2.3162364"><ele>485.3333333333333</ele><time>2026-04-11T14:01:04.382Z</time></trkpt><trkpt lat="37.0829588" lon="-2.316504"><ele>485.0</ele><time>2026-04-11T14:01:05.383Z</time></trkpt><trkpt lat="37.082893" lon="-2.3167718"><ele>485.0</ele><time>2026-04-11T14:01:06.382Z</time></trkpt><trkpt lat="37.0828257" lon="-2.3170466"><ele>485.0</ele><time>2026-04-11T14:01:07.383Z</time></trkpt><trkpt lat="37.0827622" lon="-2.3173256"><ele>485.0</ele><time>2026-04-11T14:01:08.383Z</time></trkpt><trkpt lat="37.082695" lon="-2.3176048"><ele>485.0</ele><time>2026-04-11T14:01:09.382Z</time></trkpt><trkpt lat="37.0826287" lon="-2.3178848"><ele>484.5</ele><time>2026-04-11T14:01:10.383Z</time></trkpt><trkpt lat="37.0825593" lon="-2.3181717"><ele>484.0</ele><time>2026-04-11T14:01:11.383Z</time></trkpt><trkpt lat="37.0824891" lon="-2.3184594"><ele>484.0</ele><time>2026-04-11T14:01:12.383Z</time></trkpt><trkpt lat="37.0824211" lon="-2.3187455"><ele>484.0</ele><time>2026-04-11T14:01:13.383Z</time></trkpt><trkpt lat="37.0823482" lon="-2.3190362"><ele>484.0</ele><time>2026-04-11T14:01:14.383Z</time></trkpt><trkpt lat="37.0822785" lon="-2.3193294"><ele>484.0</ele><time>2026-04-11T14:01:15.383Z</time></trkpt><trkpt lat="37.082211" lon="-2.3196208"><ele>483.5</ele><time>2026-04-11T14:01:16.383Z</time></trkpt><trkpt lat="37.0821448" lon="-2.3199133"><ele>483.0</ele><time>2026-04-11T14:01:17.382Z</time></trkpt><trkpt lat="37.0820742" lon="-2.3202068"><ele>483.0</ele><time>2026-04-11T14:01:18.383Z</time></trkpt><trkpt lat="37.0820011" lon="-2.3204971"><ele>483.0</ele><time>2026-04-11T14:01:19.383Z</time></trkpt><trkpt lat="37.0819289" lon="-2.3207897"><ele>482.0</ele><time>2026-04-11T14:01:20.383Z</time></trkpt><trkpt lat="37.0818543" lon="-2.3210829"><ele>481.0</ele><time>2026-04-11T14:01:21.383Z</time></trkpt><trkpt lat="37.0817824" lon="-2.321379"><ele>481.0</ele><time>2026-04-11T14:01:22.382Z</time></trkpt><trkpt lat="37.0817092" lon="-2.3216777"><ele>481.0</ele><time>2026-04-11T14:01:23.383Z</time></trkpt><trkpt lat="37.0816364" lon="-2.3219762"><ele>482.0</ele><time>2026-04-11T14:01:24.383Z</time></trkpt><trkpt lat="37.0815626" lon="-2.3222708"><ele>483.0</ele><time>2026-04-11T14:01:25.383Z</time></trkpt><trkpt lat="37.0814921" lon="-2.3225685"><ele>483.0</ele><time>2026-04-11T14:01:26.383Z</time></trkpt><trkpt lat="37.0814182" lon="-2.322868"><ele>483.0</ele><time>2026-04-11T14:01:27.383Z</time></trkpt><trkpt lat="37.0813458" lon="-2.3231678"><ele>481.0</ele><time>2026-04-11T14:01:28.383Z</time></trkpt><trkpt lat="37.0812735" lon="-2.3234635"><ele>479.0</ele><time>2026-04-11T14:01:29.383Z</time></trkpt><trkpt lat="37.0812008" lon="-2.3237613"><ele>479.0</ele><time>2026-04-11T14:01:30.383Z</time></trkpt><trkpt lat="37.0811286" lon="-2.3240625"><ele>479.0</ele><time>2026-04-11T14:01:31.383Z</time></trkpt><trkpt lat="37.0810552" lon="-2.3243653"><ele>479.0</ele><time>2026-04-11T14:01:32.383Z</time></trkpt><trkpt lat="37.0809803" lon="-2.324667"><ele>479.0</ele><time>2026-04-11T14:01:33.382Z</time></trkpt><trkpt lat="37.0809068" lon="-2.3249649"><ele>478.5</ele><time>2026-04-11T14:01:34.383Z</time></trkpt><trkpt lat="37.0808311" lon="-2.3252667"><ele>478.0</ele><time>2026-04-11T14:01:35.383Z</time></trkpt><trkpt lat="37.0807577" lon="-2.3255708"><ele>478.0</ele><time>2026-04-11T14:01:36.383Z</time></trkpt><trkpt lat="37.0806849" lon="-2.325877"><ele>478.0</ele><time>2026-04-11T14:01:37.382Z</time></trkpt><trkpt lat="37.0806124" lon="-2.3261941"><ele>476.5</ele><time>2026-04-11T14:01:38.382Z</time></trkpt><trkpt lat="37.0805403" lon="-2.3265002"><ele>475.0</ele><time>2026-04-11T14:01:39.383Z</time></trkpt><trkpt lat="37.0804636" lon="-2.3268135"><ele>475.0</ele><time>2026-04-11T14:01:40.383Z</time></trkpt><trkpt lat="37.0803877" lon="-2.327124"><ele>475.0</ele><time>2026-04-11T14:01:41.383Z</time></trkpt><trkpt lat="37.0803132" lon="-2.3274398"><ele>474.5</ele><time>2026-04-11T14:01:42.382Z</time></trkpt><trkpt lat="37.0802374" lon="-2.3277545"><ele>474.0</ele><time>2026-04-11T14:01:43.383Z</time></trkpt><trkpt lat="37.0801604" lon="-2.3280702"><ele>474.0</ele><time>2026-04-11T14:01:44.383Z</time></trkpt><trkpt lat="37.08008" lon="-2.3283842"><ele>474.0</ele><time>2026-04-11T14:01:45.383Z</time></trkpt><trkpt lat="37.0800048" lon="-2.3286964"><ele>474.5</ele><time>2026-04-11T14:01:46.383Z</time></trkpt><trkpt lat="37.0799017" lon="-2.3291502"><ele>475.0</ele><time>2026-04-11T14:01:48.307Z</time></trkpt><trkpt lat="37.0797776" lon="-2.3296545"><ele>473.0</ele><time>2026-04-11T14:01:49.386Z</time></trkpt><trkpt lat="37.0797058" lon="-2.3299731"><ele>471.0</ele><time>2026-04-11T14:01:50.389Z</time></trkpt><trkpt lat="37.0796274" lon="-2.3302945"><ele>472.0</ele><time>2026-04-11T14:01:51.382Z</time></trkpt><trkpt lat="37.0795482" lon="-2.3306177"><ele>473.0</ele><time>2026-04-11T14:01:52.389Z</time></trkpt><trkpt lat="37.0794697" lon="-2.3309379"><ele>473.0</ele><time>2026-04-11T14:01:53.384Z</time></trkpt><trkpt lat="37.0793918" lon="-2.3312584"><ele>473.0</ele><time>2026-04-11T14:01:54.384Z</time></trkpt><trkpt lat="37.0793175" lon="-2.3315794"><ele>473.5</ele><time>2026-04-11T14:01:55.384Z</time></trkpt><trkpt lat="37.0792422" lon="-2.331899"><ele>474.0</ele><time>2026-04-11T14:01:56.384Z</time></trkpt><trkpt lat="37.0791609" lon="-2.3322183"><ele>472.5</ele><time>2026-04-11T14:01:57.384Z</time></trkpt><trkpt lat="37.079085" lon="-2.3325372"><ele>471.0</ele><time>2026-04-11T14:01:58.384Z</time></trkpt><trkpt lat="37.0790092" lon="-2.332859"><ele>471.5</ele><time>2026-04-11T14:01:59.384Z</time></trkpt><trkpt lat="37.0789346" lon="-2.3331767"><ele>472.0</ele><time>2026-04-11T14:02:00.384Z</time></trkpt><trkpt lat="37.078859" lon="-2.3334935"><ele>472.0</ele><time>2026-04-11T14:02:01.384Z</time></trkpt><trkpt lat="37.0787831" lon="-2.3338114"><ele>472.0</ele><time>2026-04-11T14:02:02.384Z</time></trkpt><trkpt lat="37.078707" lon="-2.3341272"><ele>471.5</ele><time>2026-04-11T14:02:03.383Z</time></trkpt><trkpt lat="37.0786331" lon="-2.3344463"><ele>471.0</ele><time>2026-04-11T14:02:04.384Z</time></trkpt><trkpt lat="37.0785571" lon="-2.33476"><ele>471.0</ele><time>2026-04-11T14:02:05.384Z</time></trkpt><trkpt lat="37.078484" lon="-2.335066"><ele>471.0</ele><time>2026-04-11T14:02:06.384Z</time></trkpt><trkpt lat="37.0784067" lon="-2.3353901"><ele>471.5</ele><time>2026-04-11T14:02:07.384Z</time></trkpt><trkpt lat="37.0783312" lon="-2.3357113"><ele>472.0</ele><time>2026-04-11T14:02:08.384Z</time></trkpt><trkpt lat="37.0782521" lon="-2.3360327"><ele>471.5</ele><time>2026-04-11T14:02:09.383Z</time></trkpt><trkpt lat="37.078173" lon="-2.3363553"><ele>471.0</ele><time>2026-04-11T14:02:10.384Z</time></trkpt><trkpt lat="37.0780951" lon="-2.3366866"><ele>471.0</ele><time>2026-04-11T14:02:11.384Z</time></trkpt><trkpt lat="37.0780118" lon="-2.3370223"><ele>471.0</ele><time>2026-04-11T14:02:12.383Z</time></trkpt><trkpt lat="37.077934" lon="-2.337358"><ele>471.5</ele><time>2026-04-11T14:02:13.384Z</time></trkpt><trkpt lat="37.0778526" lon="-2.3376973"><ele>472.0</ele><time>2026-04-11T14:02:14.384Z</time></trkpt><trkpt lat="37.0777709" lon="-2.338026"><ele>472.5</ele><time>2026-04-11T14:02:15.384Z</time></trkpt><trkpt lat="37.0776901" lon="-2.3383587"><ele>473.0</ele><time>2026-04-11T14:02:16.384Z</time></trkpt><trkpt lat="37.0776072" lon="-2.338696"><ele>474.0</ele><time>2026-04-11T14:02:17.384Z</time></trkpt><trkpt lat="37.0775263" lon="-2.3390298"><ele>475.0</ele><time>2026-04-11T14:02:18.383Z</time></trkpt><trkpt lat="37.0774476" lon="-2.3393651"><ele>473.0</ele><time>2026-04-11T14:02:19.384Z</time></trkpt><trkpt lat="37.0773663" lon="-2.3396998"><ele>471.0</ele><time>2026-04-11T14:02:20.384Z</time></trkpt><trkpt lat="37.0772857" lon="-2.3400317"><ele>471.0</ele><time>2026-04-11T14:02:21.384Z</time></trkpt><trkpt lat="37.0772038" lon="-2.340361"><ele>471.0</ele><time>2026-04-11T14:02:22.384Z</time></trkpt><trkpt lat="37.077124" lon="-2.3406912"><ele>471.0</ele><time>2026-04-11T14:02:23.384Z</time></trkpt><trkpt lat="37.0770432" lon="-2.3410194"><ele>471.0</ele><time>2026-04-11T14:02:24.383Z</time></trkpt><trkpt lat="37.0769612" lon="-2.34135"><ele>469.5</ele><time>2026-04-11T14:02:25.384Z</time></trkpt><trkpt lat="37.0768822" lon="-2.3416776"><ele>468.0</ele><time>2026-04-11T14:02:26.384Z</time></trkpt><trkpt lat="37.0768016" lon="-2.3420075"><ele>467.5</ele><time>2026-04-11T14:02:27.384Z</time></trkpt><trkpt lat="37.0767214" lon="-2.3423352"><ele>467.0</ele><time>2026-04-11T14:02:28.383Z</time></trkpt><trkpt lat="37.0766398" lon="-2.3426651"><ele>467.0</ele><time>2026-04-11T14:02:29.384Z</time></trkpt><trkpt lat="37.07656" lon="-2.3429917"><ele>467.0</ele><time>2026-04-11T14:02:30.384Z</time></trkpt><trkpt lat="37.0764843" lon="-2.3433257"><ele>467.0</ele><time>2026-04-11T14:02:31.384Z</time></trkpt><trkpt lat="37.0764093" lon="-2.3436592"><ele>467.0</ele><time>2026-04-11T14:02:32.384Z</time></trkpt><trkpt lat="37.0763311" lon="-2.3439943"><ele>466.5</ele><time>2026-04-11T14:02:33.383Z</time></trkpt><trkpt lat="37.0762513" lon="-2.3443266"><ele>466.0</ele><time>2026-04-11T14:02:34.384Z</time></trkpt><trkpt lat="37.0761704" lon="-2.3446618"><ele>466.5</ele><time>2026-04-11T14:02:35.384Z</time></trkpt><trkpt lat="37.0760919" lon="-2.3449975"><ele>467.0</ele><time>2026-04-11T14:02:36.384Z</time></trkpt><trkpt lat="37.0760087" lon="-2.3453332"><ele>467.5</ele><time>2026-04-11T14:02:37.384Z</time></trkpt><trkpt lat="37.0759278" lon="-2.3456714"><ele>468.0</ele><time>2026-04-11T14:02:38.384Z</time></trkpt><trkpt lat="37.0758437" lon="-2.3460125"><ele>465.0</ele><time>2026-04-11T14:02:39.384Z</time></trkpt><trkpt lat="37.0757599" lon="-2.3463498"><ele>462.0</ele><time>2026-04-11T14:02:40.384Z</time></trkpt><trkpt lat="37.0756779" lon="-2.3466921"><ele>461.5</ele><time>2026-04-11T14:02:41.384Z</time></trkpt><trkpt lat="37.0755908" lon="-2.3470358"><ele>461.0</ele><time>2026-04-11T14:02:42.384Z</time></trkpt><trkpt lat="37.0755085" lon="-2.347375"><ele>462.5</ele><time>2026-04-11T14:02:43.384Z</time></trkpt><trkpt lat="37.0754277" lon="-2.3477125"><ele>464.0</ele><time>2026-04-11T14:02:44.383Z</time></trkpt><trkpt lat="37.0753479" lon="-2.3480485"><ele>466.0</ele><time>2026-04-11T14:02:45.384Z</time></trkpt><trkpt lat="37.0752699" lon="-2.3483869"><ele>468.0</ele><time>2026-04-11T14:02:46.384Z</time></trkpt><trkpt lat="37.0751921" lon="-2.3487259"><ele>468.5</ele><time>2026-04-11T14:02:47.384Z</time></trkpt><trkpt lat="37.0751121" lon="-2.3490668"><ele>469.0</ele><time>2026-04-11T14:02:48.384Z</time></trkpt><trkpt lat="37.0750285" lon="-2.3494035"><ele>470.0</ele><time>2026-04-11T14:02:49.384Z</time></trkpt><trkpt lat="37.0749439" lon="-2.3497412"><ele>471.0</ele><time>2026-04-11T14:02:50.383Z</time></trkpt><trkpt lat="37.0748594" lon="-2.3500817"><ele>468.5</ele><time>2026-04-11T14:02:51.384Z</time></trkpt><trkpt lat="37.074775" lon="-2.3504243"><ele>466.0</ele><time>2026-04-11T14:02:52.384Z</time></trkpt><trkpt lat="37.0746883" lon="-2.3507691"><ele>466.0</ele><time>2026-04-11T14:02:53.384Z</time></trkpt><trkpt lat="37.0746053" lon="-2.351113"><ele>466.0</ele><time>2026-04-11T14:02:54.384Z</time></trkpt><trkpt lat="37.0745208" lon="-2.3514542"><ele>466.0</ele><time>2026-04-11T14:02:55.384Z</time></trkpt><trkpt lat="37.0744345" lon="-2.3517921"><ele>466.0</ele><time>2026-04-11T14:02:56.383Z</time></trkpt><trkpt lat="37.0743491" lon="-2.3521279"><ele>466.5</ele><time>2026-04-11T14:02:57.384Z</time></trkpt><trkpt lat="37.0742703" lon="-2.352467"><ele>467.0</ele><time>2026-04-11T14:02:58.384Z</time></trkpt><trkpt lat="37.0741915" lon="-2.3528037"><ele>467.5</ele><time>2026-04-11T14:02:59.384Z</time></trkpt><trkpt lat="37.0741142" lon="-2.353138"><ele>468.0</ele><time>2026-04-11T14:03:00.384Z</time></trkpt><trkpt lat="37.0740336" lon="-2.3534725"><ele>467.0</ele><time>2026-04-11T14:03:01.384Z</time></trkpt><trkpt lat="37.0739518" lon="-2.3538096"><ele>466.0</ele><time>2026-04-11T14:03:02.384Z</time></trkpt><trkpt lat="37.0738729" lon="-2.3541457"><ele>466.0</ele><time>2026-04-11T14:03:03.384Z</time></trkpt><trkpt lat="37.0737946" lon="-2.3544848"><ele>466.0</ele><time>2026-04-11T14:03:04.383Z</time></trkpt><trkpt lat="37.073715" lon="-2.3548232"><ele>466.5</ele><time>2026-04-11T14:03:05.384Z</time></trkpt><trkpt lat="37.0736341" lon="-2.3551632"><ele>467.0</ele><time>2026-04-11T14:03:06.383Z</time></trkpt><trkpt lat="37.0735518" lon="-2.3554976"><ele>468.0</ele><time>2026-04-11T14:03:07.383Z</time></trkpt><trkpt lat="37.0734687" lon="-2.3558357"><ele>469.0</ele><time>2026-04-11T14:03:08.383Z</time></trkpt><trkpt lat="37.0733867" lon="-2.3561744"><ele>469.0</ele><time>2026-04-11T14:03:09.384Z</time></trkpt><trkpt lat="37.0733076" lon="-2.3565104"><ele>469.0</ele><time>2026-04-11T14:03:10.383Z</time></trkpt><trkpt lat="37.0732254" lon="-2.3568478"><ele>469.5</ele><time>2026-04-11T14:03:11.384Z</time></trkpt><trkpt lat="37.0731475" lon="-2.3571771"><ele>470.0</ele><time>2026-04-11T14:03:12.384Z</time></trkpt><trkpt lat="37.0730709" lon="-2.3574988"><ele>470.0</ele><time>2026-04-11T14:03:13.384Z</time></trkpt><trkpt lat="37.0729941" lon="-2.3578018"><ele>470.0</ele><time>2026-04-11T14:03:14.383Z</time></trkpt><trkpt lat="37.0729234" lon="-2.3580981"><ele>470.0</ele><time>2026-04-11T14:03:15.384Z</time></trkpt><trkpt lat="37.0728556" lon="-2.3583814"><ele>470.0</ele><time>2026-04-11T14:03:16.384Z</time></trkpt><trkpt lat="37.0727929" lon="-2.3586487"><ele>470.0</ele><time>2026-04-11T14:03:17.384Z</time></trkpt><trkpt lat="37.0727331" lon="-2.3589171"><ele>470.0</ele><time>2026-04-11T14:03:18.384Z</time></trkpt><trkpt lat="37.0726681" lon="-2.35919"><ele>470.0</ele><time>2026-04-11T14:03:19.384Z</time></trkpt><trkpt lat="37.0726017" lon="-2.3594604"><ele>470.0</ele><time>2026-04-11T14:03:20.384Z</time></trkpt><trkpt lat="37.0725398" lon="-2.3597053"><ele>470.0</ele><time>2026-04-11T14:03:21.384Z</time></trkpt><trkpt lat="37.0724848" lon="-2.3599278"><ele>469.0</ele><time>2026-04-11T14:03:22.384Z</time></trkpt><trkpt lat="37.0724315" lon="-2.3601491"><ele>468.0</ele><time>2026-04-11T14:03:23.384Z</time></trkpt><trkpt lat="37.0723761" lon="-2.3603799"><ele>467.0</ele><time>2026-04-11T14:03:24.384Z</time></trkpt><trkpt lat="37.072316" lon="-2.3606195"><ele>467.0</ele><time>2026-04-11T14:03:25.384Z</time></trkpt><trkpt lat="37.0722552" lon="-2.360871"><ele>467.0</ele><time>2026-04-11T14:03:26.384Z</time></trkpt><trkpt lat="37.0721919" lon="-2.3611257"><ele>467.0</ele><time>2026-04-11T14:03:27.384Z</time></trkpt><trkpt lat="37.0721296" lon="-2.361388"><ele>467.5</ele><time>2026-04-11T14:03:28.383Z</time></trkpt><trkpt lat="37.0720631" lon="-2.3616579"><ele>468.0</ele><time>2026-04-11T14:03:29.384Z</time></trkpt><trkpt lat="37.0719974" lon="-2.361934"><ele>467.0</ele><time>2026-04-11T14:03:30.384Z</time></trkpt><trkpt lat="37.0719324" lon="-2.3622128"><ele>466.0</ele><time>2026-04-11T14:03:31.384Z</time></trkpt><trkpt lat="37.0718636" lon="-2.362497"><ele>466.0</ele><time>2026-04-11T14:03:32.384Z</time></trkpt><trkpt lat="37.0717942" lon="-2.3627855"><ele>466.0</ele><time>2026-04-11T14:03:33.384Z</time></trkpt><trkpt lat="37.0717249" lon="-2.3630826"><ele>465.5</ele><time>2026-04-11T14:03:34.384Z</time></trkpt><trkpt lat="37.071656" lon="-2.3633752"><ele>465.0</ele><time>2026-04-11T14:03:35.384Z</time></trkpt><trkpt lat="37.0715876" lon="-2.3636633"><ele>462.5</ele><time>2026-04-11T14:03:36.383Z</time></trkpt><trkpt lat="37.0715169" lon="-2.3639496"><ele>460.0</ele><time>2026-04-11T14:03:37.384Z</time></trkpt><trkpt lat="37.0714452" lon="-2.3642373"><ele>460.0</ele><time>2026-04-11T14:03:38.384Z</time></trkpt><trkpt lat="37.0713753" lon="-2.3645259"><ele>460.0</ele><time>2026-04-11T14:03:39.383Z</time></trkpt><trkpt lat="37.0713041" lon="-2.3648144"><ele>460.0</ele><time>2026-04-11T14:03:40.384Z</time></trkpt><trkpt lat="37.0712362" lon="-2.3651022"><ele>460.0</ele><time>2026-04-11T14:03:41.384Z</time></trkpt><trkpt lat="37.0711654" lon="-2.3653903"><ele>459.5</ele><time>2026-04-11T14:03:42.384Z</time></trkpt><trkpt lat="37.0710951" lon="-2.3656761"><ele>459.0</ele><time>2026-04-11T14:03:43.384Z</time></trkpt><trkpt lat="37.0710263" lon="-2.3659691"><ele>459.0</ele><time>2026-04-11T14:03:44.383Z</time></trkpt><trkpt lat="37.0709584" lon="-2.3662663"><ele>459.0</ele><time>2026-04-11T14:03:45.384Z</time></trkpt><trkpt lat="37.0708854" lon="-2.366569"><ele>458.5</ele><time>2026-04-11T14:03:46.384Z</time></trkpt><trkpt lat="37.0708092" lon="-2.3668669"><ele>458.0</ele><time>2026-04-11T14:03:47.384Z</time></trkpt><trkpt lat="37.0707358" lon="-2.3671685"><ele>456.0</ele><time>2026-04-11T14:03:48.384Z</time></trkpt><trkpt lat="37.0706621" lon="-2.3674719"><ele>454.0</ele><time>2026-04-11T14:03:49.384Z</time></trkpt><trkpt lat="37.0705895" lon="-2.3677746"><ele>453.5</ele><time>2026-04-11T14:03:50.384Z</time></trkpt><trkpt lat="37.0705158" lon="-2.3680747"><ele>453.0</ele><time>2026-04-11T14:03:51.383Z</time></trkpt><trkpt lat="37.0704393" lon="-2.3683738"><ele>453.0</ele><time>2026-04-11T14:03:52.384Z</time></trkpt><trkpt lat="37.0703676" lon="-2.3686762"><ele>453.0</ele><time>2026-04-11T14:03:53.383Z</time></trkpt><trkpt lat="37.0702946" lon="-2.3689757"><ele>452.0</ele><time>2026-04-11T14:03:54.384Z</time></trkpt><trkpt lat="37.0702213" lon="-2.3692737"><ele>451.0</ele><time>2026-04-11T14:03:55.384Z</time></trkpt><trkpt lat="37.0701512" lon="-2.3695657"><ele>450.0</ele><time>2026-04-11T14:03:56.384Z</time></trkpt><trkpt lat="37.0700793" lon="-2.3698569"><ele>449.0</ele><time>2026-04-11T14:03:57.384Z</time></trkpt><trkpt lat="37.0700089" lon="-2.3701439"><ele>450.5</ele><time>2026-04-11T14:03:58.384Z</time></trkpt><trkpt lat="37.0699404" lon="-2.3704255"><ele>452.0</ele><time>2026-04-11T14:03:59.384Z</time></trkpt><trkpt lat="37.0698747" lon="-2.3706982"><ele>452.0</ele><time>2026-04-11T14:04:00.383Z</time></trkpt><trkpt lat="37.0698112" lon="-2.3709662"><ele>452.0</ele><time>2026-04-11T14:04:01.384Z</time></trkpt><trkpt lat="37.0697489" lon="-2.3712331"><ele>452.0</ele><time>2026-04-11T14:04:02.384Z</time></trkpt><trkpt lat="37.0696882" lon="-2.371485"><ele>450.0</ele><time>2026-04-11T14:04:03.384Z</time></trkpt><trkpt lat="37.0696287" lon="-2.371726"><ele>448.0</ele><time>2026-04-11T14:04:04.384Z</time></trkpt><trkpt lat="37.0695739" lon="-2.3719619"><ele>446.0</ele><time>2026-04-11T14:04:05.384Z</time></trkpt><trkpt lat="37.0695202" lon="-2.3721892"><ele>446.0</ele><time>2026-04-11T14:04:06.384Z</time></trkpt><trkpt lat="37.0694645" lon="-2.3724071"><ele>446.0</ele><time>2026-04-11T14:04:07.384Z</time></trkpt><trkpt lat="37.0694147" lon="-2.372611"><ele>446.0</ele><time>2026-04-11T14:04:08.384Z</time></trkpt><trkpt lat="37.0693667" lon="-2.3728074"><ele>446.0</ele><time>2026-04-11T14:04:09.384Z</time></trkpt><trkpt lat="37.0693249" lon="-2.3729872"><ele>446.0</ele><time>2026-04-11T14:04:10.384Z</time></trkpt><trkpt lat="37.0692847" lon="-2.3731509"><ele>446.0</ele><time>2026-04-11T14:04:11.384Z</time></trkpt><trkpt lat="37.0692439" lon="-2.3733025"><ele>446.0</ele><time>2026-04-11T14:04:12.383Z</time></trkpt><trkpt lat="37.0692023" lon="-2.3734482"><ele>446.75</ele><time>2026-04-11T14:04:13.384Z</time></trkpt><trkpt lat="37.0691653" lon="-2.3736045"><ele>447.5</ele><time>2026-04-11T14:04:14.384Z</time></trkpt><trkpt lat="37.0691221" lon="-2.3737672"><ele>448.25</ele><time>2026-04-11T14:04:15.384Z</time></trkpt><trkpt lat="37.0690781" lon="-2.3739349"><ele>449.0</ele><time>2026-04-11T14:04:16.384Z</time></trkpt><trkpt lat="37.0690276" lon="-2.3741057"><ele>449.0</ele><time>2026-04-11T14:04:17.384Z</time></trkpt><trkpt lat="37.0689714" lon="-2.3742887"><ele>449.0</ele><time>2026-04-11T14:04:18.384Z</time></trkpt><trkpt lat="37.0689084" lon="-2.374477"><ele>449.0</ele><time>2026-04-11T14:04:19.384Z</time></trkpt><trkpt lat="37.0688408" lon="-2.3746642"><ele>448.0</ele><time>2026-04-11T14:04:20.383Z</time></trkpt><trkpt lat="37.0687709" lon="-2.3748529"><ele>447.0</ele><time>2026-04-11T14:04:21.384Z</time></trkpt><trkpt lat="37.0687005" lon="-2.3750405"><ele>446.0</ele><time>2026-04-11T14:04:22.384Z</time></trkpt><trkpt lat="37.0686267" lon="-2.3752178"><ele>446.0</ele><time>2026-04-11T14:04:23.384Z</time></trkpt><trkpt lat="37.0685577" lon="-2.3753894"><ele>446.0</ele><time>2026-04-11T14:04:24.384Z</time></trkpt><trkpt lat="37.0684884" lon="-2.3755617"><ele>446.0</ele><time>2026-04-11T14:04:25.384Z</time></trkpt><trkpt lat="37.0684164" lon="-2.3757434"><ele>445.3333333333333</ele><time>2026-04-11T14:04:26.384Z</time></trkpt><trkpt lat="37.0683349" lon="-2.3759365"><ele>444.66666666666663</ele><time>2026-04-11T14:04:27.384Z</time></trkpt><trkpt lat="37.0682339" lon="-2.3761402"><ele>444.0</ele><time>2026-04-11T14:04:28.384Z</time></trkpt><trkpt lat="37.0681313" lon="-2.3763548"><ele>443.0</ele><time>2026-04-11T14:04:29.383Z</time></trkpt><trkpt lat="37.0680305" lon="-2.3765801"><ele>442.0</ele><time>2026-04-11T14:04:30.383Z</time></trkpt><trkpt lat="37.0679252" lon="-2.3768212"><ele>441.0</ele><time>2026-04-11T14:04:31.384Z</time></trkpt><trkpt lat="37.0678194" lon="-2.3770744"><ele>439.0</ele><time>2026-04-11T14:04:32.384Z</time></trkpt><trkpt lat="37.0677111" lon="-2.3773372"><ele>437.0</ele><time>2026-04-11T14:04:33.383Z</time></trkpt><trkpt lat="37.0675991" lon="-2.3776128"><ele>437.0</ele><time>2026-04-11T14:04:34.384Z</time></trkpt><trkpt lat="37.0674899" lon="-2.3778998"><ele>437.0</ele><time>2026-04-11T14:04:35.383Z</time></trkpt><trkpt lat="37.0673832" lon="-2.3781917"><ele>436.0</ele><time>2026-04-11T14:04:36.383Z</time></trkpt><trkpt lat="37.0672752" lon="-2.3784872"><ele>435.0</ele><time>2026-04-11T14:04:37.384Z</time></trkpt><trkpt lat="37.0671612" lon="-2.3787823"><ele>435.0</ele><time>2026-04-11T14:04:38.384Z</time></trkpt><trkpt lat="37.0670421" lon="-2.3790767"><ele>435.0</ele><time>2026-04-11T14:04:39.384Z</time></trkpt><trkpt lat="37.0669201" lon="-2.3793773"><ele>435.0</ele><time>2026-04-11T14:04:40.384Z</time></trkpt><trkpt lat="37.066798" lon="-2.3796714"><ele>435.0</ele><time>2026-04-11T14:04:41.384Z</time></trkpt><trkpt lat="37.0666781" lon="-2.379964"><ele>435.5</ele><time>2026-04-11T14:04:42.384Z</time></trkpt><trkpt lat="37.0665539" lon="-2.3802625"><ele>436.0</ele><time>2026-04-11T14:04:43.384Z</time></trkpt><trkpt lat="37.0664307" lon="-2.3805467"><ele>440.0</ele><time>2026-04-11T14:04:44.384Z</time></trkpt><trkpt lat="37.0663008" lon="-2.3808219"><ele>444.0</ele><time>2026-04-11T14:04:45.383Z</time></trkpt><trkpt lat="37.0661568" lon="-2.3810956"><ele>445.5</ele><time>2026-04-11T14:04:46.384Z</time></trkpt><trkpt lat="37.066005" lon="-2.3813578"><ele>447.0</ele><time>2026-04-11T14:04:47.384Z</time></trkpt><trkpt lat="37.0658406" lon="-2.3816027"><ele>445.5</ele><time>2026-04-11T14:04:48.384Z</time></trkpt><trkpt lat="37.0656749" lon="-2.3818293"><ele>444.0</ele><time>2026-04-11T14:04:49.384Z</time></trkpt><trkpt lat="37.0655156" lon="-2.3820307"><ele>444.33333333333337</ele><time>2026-04-11T14:04:50.384Z</time></trkpt><trkpt lat="37.065366" lon="-2.3822118"><ele>444.6666666666667</ele><time>2026-04-11T14:04:51.384Z</time></trkpt><trkpt lat="37.0652172" lon="-2.3823873"><ele>445.0</ele><time>2026-04-11T14:04:52.384Z</time></trkpt><trkpt lat="37.0650806" lon="-2.3825493"><ele>445.0</ele><time>2026-04-11T14:04:53.383Z</time></trkpt><trkpt lat="37.0649516" lon="-2.3826996"><ele>445.0</ele><time>2026-04-11T14:04:54.384Z</time></trkpt><trkpt lat="37.06483" lon="-2.3828416"><ele>445.0</ele><time>2026-04-11T14:04:55.384Z</time></trkpt><trkpt lat="37.0647117" lon="-2.3829835"><ele>445.0</ele><time>2026-04-11T14:04:56.384Z</time></trkpt><trkpt lat="37.0645896" lon="-2.3831278"><ele>445.0</ele><time>2026-04-11T14:04:57.384Z</time></trkpt><trkpt lat="37.0644655" lon="-2.3832735"><ele>445.0</ele><time>2026-04-11T14:04:58.384Z</time></trkpt><trkpt lat="37.064341" lon="-2.3834222"><ele>445.0</ele><time>2026-04-11T14:04:59.384Z</time></trkpt><trkpt lat="37.0642142" lon="-2.3835734"><ele>445.0</ele><time>2026-04-11T14:05:00.384Z</time></trkpt><trkpt lat="37.0640865" lon="-2.3837269"><ele>445.0</ele><time>2026-04-11T14:05:01.384Z</time></trkpt><trkpt lat="37.0639592" lon="-2.383879"><ele>444.0</ele><time>2026-04-11T14:05:02.383Z</time></trkpt><trkpt lat="37.0638335" lon="-2.3840286"><ele>443.0</ele><time>2026-04-11T14:05:03.384Z</time></trkpt><trkpt lat="37.063708" lon="-2.3841756"><ele>442.0</ele><time>2026-04-11T14:05:04.384Z</time></trkpt><trkpt lat="37.063581" lon="-2.384326"><ele>442.0</ele><time>2026-04-11T14:05:05.383Z</time></trkpt><trkpt lat="37.0634528" lon="-2.3844756"><ele>442.0</ele><time>2026-04-11T14:05:06.384Z</time></trkpt><trkpt lat="37.063326" lon="-2.3846264"><ele>442.0</ele><time>2026-04-11T14:05:07.384Z</time></trkpt><trkpt lat="37.0631996" lon="-2.3847777"><ele>441.33333333333337</ele><time>2026-04-11T14:05:08.384Z</time></trkpt><trkpt lat="37.0630746" lon="-2.3849287"><ele>440.66666666666663</ele><time>2026-04-11T14:05:09.384Z</time></trkpt><trkpt lat="37.062961" lon="-2.3850652"><ele>440.0</ele><time>2026-04-11T14:05:10.384Z</time></trkpt><trkpt lat="37.0628461" lon="-2.3851944"><ele>440.0</ele><time>2026-04-11T14:05:11.383Z</time></trkpt><trkpt lat="37.0627336" lon="-2.385332"><ele>440.0</ele><time>2026-04-11T14:05:12.384Z</time></trkpt><trkpt lat="37.0626184" lon="-2.3854715"><ele>440.0</ele><time>2026-04-11T14:05:13.384Z</time></trkpt><trkpt lat="37.0625002" lon="-2.3856132"><ele>439.3333333333333</ele><time>2026-04-11T14:05:14.384Z</time></trkpt><trkpt lat="37.0623839" lon="-2.3857605"><ele>438.66666666666663</ele><time>2026-04-11T14:05:15.384Z</time></trkpt><trkpt lat="37.0622638" lon="-2.3859108"><ele>438.0</ele><time>2026-04-11T14:05:16.384Z</time></trkpt><trkpt lat="37.0621414" lon="-2.3860617"><ele>438.0</ele><time>2026-04-11T14:05:17.384Z</time></trkpt><trkpt lat="37.0620245" lon="-2.3862177"><ele>438.0</ele><time>2026-04-11T14:05:18.384Z</time></trkpt><trkpt lat="37.0619133" lon="-2.3863629"><ele>438.0</ele><time>2026-04-11T14:05:19.384Z</time></trkpt><trkpt lat="37.0618131" lon="-2.3864953"><ele>438.0</ele><time>2026-04-11T14:05:20.383Z</time></trkpt><trkpt lat="37.0617388" lon="-2.3866138"><ele>438.0</ele><time>2026-04-11T14:05:21.384Z</time></trkpt><trkpt lat="37.0616961" lon="-2.3867117"><ele>438.0</ele><time>2026-04-11T14:05:22.384Z</time></trkpt><trkpt lat="37.0616827" lon="-2.386801"><ele>438.0</ele><time>2026-04-11T14:05:23.384Z</time></trkpt><trkpt lat="37.0616981" lon="-2.3868786"><ele>438.0</ele><time>2026-04-11T14:05:24.384Z</time></trkpt><trkpt lat="37.0617489" lon="-2.3869257"><ele>438.0</ele><time>2026-04-11T14:05:25.383Z</time></trkpt><trkpt lat="37.0618202" lon="-2.3869311"><ele>438.0</ele><time>2026-04-11T14:05:26.383Z</time></trkpt><trkpt lat="37.0618979" lon="-2.3869248"><ele>437.99999999999994</ele><time>2026-04-11T14:05:27.384Z</time></trkpt><trkpt lat="37.0619868" lon="-2.3869178"><ele>437.99999999999994</ele><time>2026-04-11T14:05:28.383Z</time></trkpt><trkpt lat="37.0620825" lon="-2.3869111"><ele>438.0</ele><time>2026-04-11T14:05:29.384Z</time></trkpt><trkpt lat="37.0621862" lon="-2.3869033"><ele>438.0</ele><time>2026-04-11T14:05:30.383Z</time></trkpt><trkpt lat="37.0622979" lon="-2.3868921"><ele>438.0</ele><time>2026-04-11T14:05:31.384Z</time></trkpt><trkpt lat="37.0624202" lon="-2.3868786"><ele>438.0</ele><time>2026-04-11T14:05:32.383Z</time></trkpt><trkpt lat="37.0625504" lon="-2.3868644"><ele>438.0</ele><time>2026-04-11T14:05:33.384Z</time></trkpt><trkpt lat="37.0626939" lon="-2.3868537"><ele>438.0</ele><time>2026-04-11T14:05:34.384Z</time></trkpt><trkpt lat="37.0628448" lon="-2.3868426"><ele>438.33333333333337</ele><time>2026-04-11T14:05:35.384Z</time></trkpt><trkpt lat="37.0630061" lon="-2.3868288"><ele>438.6666666666667</ele><time>2026-04-11T14:05:36.384Z</time></trkpt><trkpt lat="37.0631728" lon="-2.3868115"><ele>439.0</ele><time>2026-04-11T14:05:37.384Z</time></trkpt><trkpt lat="37.0633415" lon="-2.3868012"><ele>440.33333333333337</ele><time>2026-04-11T14:05:38.384Z</time></trkpt><trkpt lat="37.063519" lon="-2.3867899"><ele>441.66666666666663</ele><time>2026-04-11T14:05:39.384Z</time></trkpt><trkpt lat="37.0636945" lon="-2.3867747"><ele>443.0</ele><time>2026-04-11T14:05:40.384Z</time></trkpt><trkpt lat="37.0638715" lon="-2.3867642"><ele>443.0</ele><time>2026-04-11T14:05:41.384Z</time></trkpt><trkpt lat="37.0640423" lon="-2.3867503"><ele>443.0</ele><time>2026-04-11T14:05:42.384Z</time></trkpt><trkpt lat="37.0642076" lon="-2.3867369"><ele>443.0</ele><time>2026-04-11T14:05:43.384Z</time></trkpt><trkpt lat="37.0643794" lon="-2.3867273"><ele>443.66666666666663</ele><time>2026-04-11T14:05:44.384Z</time></trkpt><trkpt lat="37.0645564" lon="-2.3867099"><ele>444.33333333333337</ele><time>2026-04-11T14:05:45.384Z</time></trkpt><trkpt lat="37.0647409" lon="-2.3866982"><ele>445.0</ele><time>2026-04-11T14:05:46.384Z</time></trkpt><trkpt lat="37.0649373" lon="-2.3866839"><ele>445.6666666666667</ele><time>2026-04-11T14:05:47.383Z</time></trkpt><trkpt lat="37.065137" lon="-2.3866678"><ele>446.33333333333337</ele><time>2026-04-11T14:05:48.384Z</time></trkpt><trkpt lat="37.0653392" lon="-2.3866507"><ele>447.0</ele><time>2026-04-11T14:05:49.384Z</time></trkpt><trkpt lat="37.0655486" lon="-2.3866282"><ele>447.0</ele><time>2026-04-11T14:05:50.384Z</time></trkpt><trkpt lat="37.0657596" lon="-2.3866099"><ele>447.0</ele><time>2026-04-11T14:05:51.384Z</time></trkpt><trkpt lat="37.0659699" lon="-2.3865877"><ele>447.0</ele><time>2026-04-11T14:05:52.384Z</time></trkpt><trkpt lat="37.0661867" lon="-2.3865644"><ele>447.0</ele><time>2026-04-11T14:05:53.384Z</time></trkpt><trkpt lat="37.0664072" lon="-2.3865377"><ele>447.0</ele><time>2026-04-11T14:05:54.384Z</time></trkpt><trkpt lat="37.0666303" lon="-2.3865094"><ele>447.0</ele><time>2026-04-11T14:05:55.383Z</time></trkpt><trkpt lat="37.0668574" lon="-2.386478"><ele>447.0</ele><time>2026-04-11T14:05:56.384Z</time></trkpt><trkpt lat="37.0670796" lon="-2.3864508"><ele>447.0</ele><time>2026-04-11T14:05:57.384Z</time></trkpt><trkpt lat="37.0673033" lon="-2.3864152"><ele>447.0</ele><time>2026-04-11T14:05:58.384Z</time></trkpt><trkpt lat="37.0675278" lon="-2.3863846"><ele>448.0</ele><time>2026-04-11T14:05:59.384Z</time></trkpt><trkpt lat="37.0677495" lon="-2.3863448"><ele>449.0</ele><time>2026-04-11T14:06:00.384Z</time></trkpt><trkpt lat="37.0679777" lon="-2.3862971"><ele>452.5</ele><time>2026-04-11T14:06:01.384Z</time></trkpt><trkpt lat="37.0682092" lon="-2.3862423"><ele>456.0</ele><time>2026-04-11T14:06:02.384Z</time></trkpt><trkpt lat="37.068435" lon="-2.3861737"><ele>457.0</ele><time>2026-04-11T14:06:03.383Z</time></trkpt><trkpt lat="37.0686635" lon="-2.3860963"><ele>458.0</ele><time>2026-04-11T14:06:04.384Z</time></trkpt><trkpt lat="37.068888" lon="-2.3860125"><ele>459.0</ele><time>2026-04-11T14:06:05.384Z</time></trkpt><trkpt lat="37.0691131" lon="-2.3859185"><ele>460.0</ele><time>2026-04-11T14:06:06.384Z</time></trkpt><trkpt lat="37.0693361" lon="-2.3858146"><ele>460.0</ele><time>2026-04-11T14:06:07.384Z</time></trkpt><trkpt lat="37.0695555" lon="-2.3856979"><ele>460.0</ele><time>2026-04-11T14:06:08.384Z</time></trkpt><trkpt lat="37.0697703" lon="-2.3855637"><ele>459.5</ele><time>2026-04-11T14:06:09.384Z</time></trkpt><trkpt lat="37.0699838" lon="-2.3854128"><ele>459.0</ele><time>2026-04-11T14:06:10.383Z</time></trkpt><trkpt lat="37.0701986" lon="-2.3852575"><ele>459.0</ele><time>2026-04-11T14:06:11.384Z</time></trkpt><trkpt lat="37.0704181" lon="-2.3850976"><ele>459.0</ele><time>2026-04-11T14:06:12.383Z</time></trkpt><trkpt lat="37.0706389" lon="-2.384943"><ele>459.5</ele><time>2026-04-11T14:06:13.384Z</time></trkpt><trkpt lat="37.0708621" lon="-2.3847834"><ele>460.0</ele><time>2026-04-11T14:06:14.383Z</time></trkpt><trkpt lat="37.0710903" lon="-2.3846282"><ele>460.0</ele><time>2026-04-11T14:06:15.384Z</time></trkpt><trkpt lat="37.0713199" lon="-2.3844697"><ele>460.0</ele><time>2026-04-11T14:06:16.383Z</time></trkpt><trkpt lat="37.0715504" lon="-2.3843149"><ele>461.0</ele><time>2026-04-11T14:06:17.384Z</time></trkpt><trkpt lat="37.0717871" lon="-2.3841526"><ele>462.0</ele><time>2026-04-11T14:06:18.384Z</time></trkpt><trkpt lat="37.0720203" lon="-2.3840006"><ele>462.0</ele><time>2026-04-11T14:06:19.384Z</time></trkpt><trkpt lat="37.0722571" lon="-2.3838522"><ele>462.0</ele><time>2026-04-11T14:06:20.384Z</time></trkpt><trkpt lat="37.0724937" lon="-2.3837051"><ele>462.5</ele><time>2026-04-11T14:06:21.384Z</time></trkpt><trkpt lat="37.0727311" lon="-2.3835595"><ele>463.0</ele><time>2026-04-11T14:06:22.383Z</time></trkpt><trkpt lat="37.0729679" lon="-2.3834103"><ele>463.0</ele><time>2026-04-11T14:06:23.384Z</time></trkpt><trkpt lat="37.0732004" lon="-2.3832513"><ele>463.0</ele><time>2026-04-11T14:06:24.384Z</time></trkpt><trkpt lat="37.0734351" lon="-2.3830914"><ele>466.0</ele><time>2026-04-11T14:06:25.384Z</time></trkpt><trkpt lat="37.0736686" lon="-2.3829316"><ele>469.0</ele><time>2026-04-11T14:06:26.384Z</time></trkpt><trkpt lat="37.0739015" lon="-2.3827727"><ele>467.0</ele><time>2026-04-11T14:06:27.384Z</time></trkpt><trkpt lat="37.0741328" lon="-2.3826131"><ele>465.0</ele><time>2026-04-11T14:06:28.384Z</time></trkpt><trkpt lat="37.0743621" lon="-2.3824534"><ele>465.0</ele><time>2026-04-11T14:06:29.384Z</time></trkpt><trkpt lat="37.0745928" lon="-2.382294"><ele>465.0</ele><time>2026-04-11T14:06:30.384Z</time></trkpt><trkpt lat="37.0748245" lon="-2.3821383"><ele>466.0</ele><time>2026-04-11T14:06:31.384Z</time></trkpt><trkpt lat="37.0750587" lon="-2.3819773"><ele>467.0</ele><time>2026-04-11T14:06:32.383Z</time></trkpt><trkpt lat="37.0752899" lon="-2.3818184"><ele>467.0</ele><time>2026-04-11T14:06:33.384Z</time></trkpt><trkpt lat="37.075527" lon="-2.3816615"><ele>467.0</ele><time>2026-04-11T14:06:34.383Z</time></trkpt><trkpt lat="37.075765" lon="-2.381502"><ele>466.5</ele><time>2026-04-11T14:06:35.384Z</time></trkpt><trkpt lat="37.0760015" lon="-2.3813385"><ele>466.0</ele><time>2026-04-11T14:06:36.384Z</time></trkpt><trkpt lat="37.0762349" lon="-2.3811663"><ele>466.0</ele><time>2026-04-11T14:06:37.383Z</time></trkpt><trkpt lat="37.0764705" lon="-2.3809883"><ele>466.0</ele><time>2026-04-11T14:06:38.384Z</time></trkpt><trkpt lat="37.076705" lon="-2.3808043"><ele>467.5</ele><time>2026-04-11T14:06:39.384Z</time></trkpt><trkpt lat="37.0769356" lon="-2.3806229"><ele>469.0</ele><time>2026-04-11T14:06:40.384Z</time></trkpt><trkpt lat="37.0771692" lon="-2.3804366"><ele>469.0</ele><time>2026-04-11T14:06:41.384Z</time></trkpt><trkpt lat="37.0774022" lon="-2.3802528"><ele>469.0</ele><time>2026-04-11T14:06:42.384Z</time></trkpt><trkpt lat="37.0776339" lon="-2.3800671"><ele>470.5</ele><time>2026-04-11T14:06:43.383Z</time></trkpt><trkpt lat="37.0778726" lon="-2.3798767"><ele>472.0</ele><time>2026-04-11T14:06:44.384Z</time></trkpt><trkpt lat="37.0781078" lon="-2.3796842"><ele>472.0</ele><time>2026-04-11T14:06:45.384Z</time></trkpt><trkpt lat="37.0783432" lon="-2.3794963"><ele>472.0</ele><time>2026-04-11T14:06:46.384Z</time></trkpt><trkpt lat="37.0785786" lon="-2.37931"><ele>472.0</ele><time>2026-04-11T14:06:47.384Z</time></trkpt><trkpt lat="37.0788146" lon="-2.3791265"><ele>472.0</ele><time>2026-04-11T14:06:48.383Z</time></trkpt><trkpt lat="37.0790498" lon="-2.3789408"><ele>472.5</ele><time>2026-04-11T14:06:49.384Z</time></trkpt><trkpt lat="37.0792868" lon="-2.3787483"><ele>473.0</ele><time>2026-04-11T14:06:50.383Z</time></trkpt><trkpt lat="37.0795247" lon="-2.3785578"><ele>473.0</ele><time>2026-04-11T14:06:51.383Z</time></trkpt><trkpt lat="37.0797575" lon="-2.3783741"><ele>473.0</ele><time>2026-04-11T14:06:52.384Z</time></trkpt><trkpt lat="37.0799962" lon="-2.3781834"><ele>473.5</ele><time>2026-04-11T14:06:53.384Z</time></trkpt><trkpt lat="37.0802343" lon="-2.3779985"><ele>474.0</ele><time>2026-04-11T14:06:54.383Z</time></trkpt><trkpt lat="37.0804677" lon="-2.3778116"><ele>474.0</ele><time>2026-04-11T14:06:55.384Z</time></trkpt><trkpt lat="37.0806983" lon="-2.3776284"><ele>474.0</ele><time>2026-04-11T14:06:56.383Z</time></trkpt><trkpt lat="37.08093" lon="-2.3774446"><ele>474.0</ele><time>2026-04-11T14:06:57.384Z</time></trkpt><trkpt lat="37.0811658" lon="-2.3772544"><ele>474.0</ele><time>2026-04-11T14:06:58.383Z</time></trkpt><trkpt lat="37.081393" lon="-2.3770659"><ele>475.0</ele><time>2026-04-11T14:06:59.383Z</time></trkpt><trkpt lat="37.0816201" lon="-2.3768652"><ele>476.0</ele><time>2026-04-11T14:07:00.384Z</time></trkpt><trkpt lat="37.0818479" lon="-2.3766573"><ele>476.0</ele><time>2026-04-11T14:07:01.384Z</time></trkpt><trkpt lat="37.0820752" lon="-2.376442"><ele>476.0</ele><time>2026-04-11T14:07:02.384Z</time></trkpt><trkpt lat="37.0823059" lon="-2.376218"><ele>475.0</ele><time>2026-04-11T14:07:03.384Z</time></trkpt><trkpt lat="37.0825355" lon="-2.3759892"><ele>474.0</ele><time>2026-04-11T14:07:04.384Z</time></trkpt><trkpt lat="37.0827596" lon="-2.3757595"><ele>474.0</ele><time>2026-04-11T14:07:05.383Z</time></trkpt><trkpt lat="37.0829838" lon="-2.3755234"><ele>474.0</ele><time>2026-04-11T14:07:06.384Z</time></trkpt><trkpt lat="37.0832083" lon="-2.3752899"><ele>474.0</ele><time>2026-04-11T14:07:07.383Z</time></trkpt><trkpt lat="37.083432" lon="-2.3750608"><ele>474.0</ele><time>2026-04-11T14:07:08.384Z</time></trkpt><trkpt lat="37.0836572" lon="-2.3748369"><ele>473.5</ele><time>2026-04-11T14:07:09.384Z</time></trkpt><trkpt lat="37.0838769" lon="-2.3746137"><ele>473.0</ele><time>2026-04-11T14:07:10.384Z</time></trkpt><trkpt lat="37.0840943" lon="-2.3743923"><ele>474.0</ele><time>2026-04-11T14:07:11.384Z</time></trkpt><trkpt lat="37.0843108" lon="-2.3741752"><ele>475.0</ele><time>2026-04-11T14:07:12.384Z</time></trkpt><trkpt lat="37.0845285" lon="-2.3739557"><ele>474.5</ele><time>2026-04-11T14:07:13.384Z</time></trkpt><trkpt lat="37.0847434" lon="-2.3737365"><ele>474.0</ele><time>2026-04-11T14:07:14.384Z</time></trkpt><trkpt lat="37.0849559" lon="-2.3735161"><ele>474.0</ele><time>2026-04-11T14:07:15.384Z</time></trkpt><trkpt lat="37.0851723" lon="-2.3733018"><ele>474.0</ele><time>2026-04-11T14:07:16.384Z</time></trkpt><trkpt lat="37.0853863" lon="-2.3730854"><ele>475.0</ele><time>2026-04-11T14:07:17.384Z</time></trkpt><trkpt lat="37.0855983" lon="-2.3728709"><ele>476.0</ele><time>2026-04-11T14:07:18.383Z</time></trkpt><trkpt lat="37.0858099" lon="-2.3726581"><ele>476.0</ele><time>2026-04-11T14:07:19.383Z</time></trkpt><trkpt lat="37.0860269" lon="-2.3724508"><ele>476.0</ele><time>2026-04-11T14:07:20.384Z</time></trkpt><trkpt lat="37.0862529" lon="-2.3722545"><ele>477.0</ele><time>2026-04-11T14:07:21.384Z</time></trkpt><trkpt lat="37.086487" lon="-2.3720769"><ele>478.0</ele><time>2026-04-11T14:07:22.384Z</time></trkpt><trkpt lat="37.0867271" lon="-2.3719066"><ele>478.0</ele><time>2026-04-11T14:07:23.384Z</time></trkpt><trkpt lat="37.0869683" lon="-2.3717438"><ele>478.0</ele><time>2026-04-11T14:07:24.384Z</time></trkpt><trkpt lat="37.087213" lon="-2.3715834"><ele>478.0</ele><time>2026-04-11T14:07:25.384Z</time></trkpt><trkpt lat="37.0874576" lon="-2.3714256"><ele>478.0</ele><time>2026-04-11T14:07:26.384Z</time></trkpt><trkpt lat="37.0877028" lon="-2.3712684"><ele>478.0</ele><time>2026-04-11T14:07:27.383Z</time></trkpt><trkpt lat="37.0879473" lon="-2.3711091"><ele>478.0</ele><time>2026-04-11T14:07:28.383Z</time></trkpt><trkpt lat="37.0881907" lon="-2.3709512"><ele>478.5</ele><time>2026-04-11T14:07:29.384Z</time></trkpt><trkpt lat="37.088434" lon="-2.3707997"><ele>479.0</ele><time>2026-04-11T14:07:30.384Z</time></trkpt><trkpt lat="37.0886804" lon="-2.3706569"><ele>479.0</ele><time>2026-04-11T14:07:31.383Z</time></trkpt><trkpt lat="37.0889317" lon="-2.3705301"><ele>479.0</ele><time>2026-04-11T14:07:32.384Z</time></trkpt><trkpt lat="37.0891872" lon="-2.3704194"><ele>479.5</ele><time>2026-04-11T14:07:33.383Z</time></trkpt><trkpt lat="37.0894455" lon="-2.3703187"><ele>480.0</ele><time>2026-04-11T14:07:34.384Z</time></trkpt><trkpt lat="37.0897048" lon="-2.3702181"><ele>480.5</ele><time>2026-04-11T14:07:35.384Z</time></trkpt><trkpt lat="37.0899648" lon="-2.3701229"><ele>481.0</ele><time>2026-04-11T14:07:36.383Z</time></trkpt><trkpt lat="37.0902225" lon="-2.3700311"><ele>481.0</ele><time>2026-04-11T14:07:37.384Z</time></trkpt><trkpt lat="37.0904791" lon="-2.3699435"><ele>481.0</ele><time>2026-04-11T14:07:38.384Z</time></trkpt><trkpt lat="37.090734" lon="-2.3698525"><ele>482.0</ele><time>2026-04-11T14:07:39.383Z</time></trkpt><trkpt lat="37.0909913" lon="-2.3697593"><ele>483.0</ele><time>2026-04-11T14:07:40.384Z</time></trkpt><trkpt lat="37.0912477" lon="-2.3696627"><ele>483.0</ele><time>2026-04-11T14:07:41.383Z</time></trkpt><trkpt lat="37.0915009" lon="-2.3695606"><ele>483.0</ele><time>2026-04-11T14:07:42.384Z</time></trkpt><trkpt lat="37.0917513" lon="-2.3694502"><ele>484.0</ele><time>2026-04-11T14:07:43.383Z</time></trkpt><trkpt lat="37.0919939" lon="-2.3693242"><ele>485.0</ele><time>2026-04-11T14:07:44.383Z</time></trkpt><trkpt lat="37.0922285" lon="-2.3691817"><ele>485.0</ele><time>2026-04-11T14:07:45.384Z</time></trkpt><trkpt lat="37.092461" lon="-2.3690282"><ele>485.0</ele><time>2026-04-11T14:07:46.383Z</time></trkpt><trkpt lat="37.0926913" lon="-2.3688634"><ele>485.5</ele><time>2026-04-11T14:07:47.384Z</time></trkpt><trkpt lat="37.0929142" lon="-2.3686889"><ele>486.0</ele><time>2026-04-11T14:07:48.384Z</time></trkpt><trkpt lat="37.0931313" lon="-2.3685105"><ele>487.5</ele><time>2026-04-11T14:07:49.384Z</time></trkpt><trkpt lat="37.0933467" lon="-2.3683165"><ele>489.0</ele><time>2026-04-11T14:07:50.384Z</time></trkpt><trkpt lat="37.0935619" lon="-2.3681154"><ele>489.5</ele><time>2026-04-11T14:07:51.384Z</time></trkpt><trkpt lat="37.0937764" lon="-2.3679205"><ele>490.0</ele><time>2026-04-11T14:07:52.384Z</time></trkpt><trkpt lat="37.0939907" lon="-2.3677281"><ele>491.0</ele><time>2026-04-11T14:07:53.384Z</time></trkpt><trkpt lat="37.0942034" lon="-2.3675313"><ele>492.0</ele><time>2026-04-11T14:07:54.384Z</time></trkpt><trkpt lat="37.094414" lon="-2.3673384"><ele>492.0</ele><time>2026-04-11T14:07:55.383Z</time></trkpt><trkpt lat="37.0946212" lon="-2.3671459"><ele>492.0</ele><time>2026-04-11T14:07:56.384Z</time></trkpt><trkpt lat="37.0948298" lon="-2.3669508"><ele>493.5</ele><time>2026-04-11T14:07:57.384Z</time></trkpt><trkpt lat="37.0950343" lon="-2.366753"><ele>495.0</ele><time>2026-04-11T14:07:58.384Z</time></trkpt><trkpt lat="37.0952369" lon="-2.3665623"><ele>495.0</ele><time>2026-04-11T14:07:59.384Z</time></trkpt><trkpt lat="37.0954412" lon="-2.3663782"><ele>495.0</ele><time>2026-04-11T14:08:00.384Z</time></trkpt><trkpt lat="37.0956443" lon="-2.3662035"><ele>496.5</ele><time>2026-04-11T14:08:01.384Z</time></trkpt><trkpt lat="37.095856" lon="-2.3660322"><ele>498.0</ele><time>2026-04-11T14:08:02.384Z</time></trkpt><trkpt lat="37.0960671" lon="-2.3658666"><ele>498.0</ele><time>2026-04-11T14:08:03.384Z</time></trkpt><trkpt lat="37.0962789" lon="-2.3657138"><ele>498.0</ele><time>2026-04-11T14:08:04.384Z</time></trkpt><trkpt lat="37.0964945" lon="-2.3655652"><ele>499.5</ele><time>2026-04-11T14:08:05.383Z</time></trkpt><trkpt lat="37.0967137" lon="-2.3654191"><ele>501.0</ele><time>2026-04-11T14:08:06.384Z</time></trkpt><trkpt lat="37.0969342" lon="-2.3652689"><ele>501.0</ele><time>2026-04-11T14:08:07.384Z</time></trkpt><trkpt lat="37.0971528" lon="-2.3651174"><ele>501.0</ele><time>2026-04-11T14:08:08.384Z</time></trkpt><trkpt lat="37.097371" lon="-2.3649594"><ele>500.5</ele><time>2026-04-11T14:08:09.384Z</time></trkpt><trkpt lat="37.0975857" lon="-2.3647907"><ele>500.0</ele><time>2026-04-11T14:08:10.384Z</time></trkpt><trkpt lat="37.0977945" lon="-2.3646155"><ele>500.0</ele><time>2026-04-11T14:08:11.384Z</time></trkpt><trkpt lat="37.0980042" lon="-2.3644278"><ele>500.0</ele><time>2026-04-11T14:08:12.384Z</time></trkpt><trkpt lat="37.0982174" lon="-2.3642347"><ele>501.0</ele><time>2026-04-11T14:08:13.383Z</time></trkpt><trkpt lat="37.0984209" lon="-2.364038"><ele>502.0</ele><time>2026-04-11T14:08:14.384Z</time></trkpt><trkpt lat="37.0986264" lon="-2.3638377"><ele>502.0</ele><time>2026-04-11T14:08:15.384Z</time></trkpt><trkpt lat="37.0988327" lon="-2.363644"><ele>502.0</ele><time>2026-04-11T14:08:16.384Z</time></trkpt><trkpt lat="37.0990431" lon="-2.3634522"><ele>503.0</ele><time>2026-04-11T14:08:17.384Z</time></trkpt><trkpt lat="37.0992497" lon="-2.3632554"><ele>504.0</ele><time>2026-04-11T14:08:18.384Z</time></trkpt><trkpt lat="37.0994585" lon="-2.3630597"><ele>504.0</ele><time>2026-04-11T14:08:19.384Z</time></trkpt><trkpt lat="37.0996727" lon="-2.3628726"><ele>504.0</ele><time>2026-04-11T14:08:20.384Z</time></trkpt><trkpt lat="37.0998984" lon="-2.3627018"><ele>505.0</ele><time>2026-04-11T14:08:21.384Z</time></trkpt><trkpt lat="37.1001292" lon="-2.3625446"><ele>506.0</ele><time>2026-04-11T14:08:22.383Z</time></trkpt><trkpt lat="37.1003604" lon="-2.3623988"><ele>506.0</ele><time>2026-04-11T14:08:23.384Z</time></trkpt><trkpt lat="37.1005942" lon="-2.362258"><ele>506.0</ele><time>2026-04-11T14:08:24.383Z</time></trkpt><trkpt lat="37.1008279" lon="-2.362119"><ele>508.0</ele><time>2026-04-11T14:08:25.383Z</time></trkpt><trkpt lat="37.1010602" lon="-2.3619819"><ele>510.0</ele><time>2026-04-11T14:08:26.384Z</time></trkpt><trkpt lat="37.1012914" lon="-2.3618465"><ele>510.0</ele><time>2026-04-11T14:08:27.384Z</time></trkpt><trkpt lat="37.1015243" lon="-2.3617099"><ele>510.0</ele><time>2026-04-11T14:08:28.384Z</time></trkpt><trkpt lat="37.1017534" lon="-2.3615577"><ele>510.0</ele><time>2026-04-11T14:08:29.384Z</time></trkpt><trkpt lat="37.1019792" lon="-2.3613949"><ele>510.0</ele><time>2026-04-11T14:08:30.384Z</time></trkpt><trkpt lat="37.1022022" lon="-2.3612223"><ele>512.0</ele><time>2026-04-11T14:08:31.384Z</time></trkpt><trkpt lat="37.1024202" lon="-2.3610393"><ele>514.0</ele><time>2026-04-11T14:08:32.384Z</time></trkpt><trkpt lat="37.1026374" lon="-2.3608429"><ele>514.0</ele><time>2026-04-11T14:08:33.384Z</time></trkpt><trkpt lat="37.1028546" lon="-2.3606461"><ele>514.0</ele><time>2026-04-11T14:08:34.384Z</time></trkpt><trkpt lat="37.1030694" lon="-2.3604484"><ele>515.5</ele><time>2026-04-11T14:08:35.384Z</time></trkpt><trkpt lat="37.1032864" lon="-2.3602511"><ele>517.0</ele><time>2026-04-11T14:08:36.383Z</time></trkpt><trkpt lat="37.1035027" lon="-2.3600567"><ele>517.0</ele><time>2026-04-11T14:08:37.384Z</time></trkpt><trkpt lat="37.1037213" lon="-2.359858"><ele>517.0</ele><time>2026-04-11T14:08:38.383Z</time></trkpt><trkpt lat="37.1039361" lon="-2.3596578"><ele>518.5</ele><time>2026-04-11T14:08:39.383Z</time></trkpt><trkpt lat="37.1041535" lon="-2.3594595"><ele>520.0</ele><time>2026-04-11T14:08:40.383Z</time></trkpt><trkpt lat="37.1043671" lon="-2.3592574"><ele>520.0</ele><time>2026-04-11T14:08:41.384Z</time></trkpt><trkpt lat="37.1045783" lon="-2.3590571"><ele>520.0</ele><time>2026-04-11T14:08:42.383Z</time></trkpt><trkpt lat="37.1047919" lon="-2.3588552"><ele>521.0</ele><time>2026-04-11T14:08:43.383Z</time></trkpt><trkpt lat="37.1049983" lon="-2.3586451"><ele>522.0</ele><time>2026-04-11T14:08:44.383Z</time></trkpt><trkpt lat="37.1052011" lon="-2.3584282"><ele>522.0</ele><time>2026-04-11T14:08:45.384Z</time></trkpt><trkpt lat="37.1053965" lon="-2.3582034"><ele>522.0</ele><time>2026-04-11T14:08:46.384Z</time></trkpt><trkpt lat="37.1055875" lon="-2.3579772"><ele>523.5</ele><time>2026-04-11T14:08:47.384Z</time></trkpt><trkpt lat="37.1057741" lon="-2.3577515"><ele>525.0</ele><time>2026-04-11T14:08:48.384Z</time></trkpt><trkpt lat="37.1059615" lon="-2.3575248"><ele>525.0</ele><time>2026-04-11T14:08:49.383Z</time></trkpt><trkpt lat="37.1061492" lon="-2.3573051"><ele>525.0</ele><time>2026-04-11T14:08:50.384Z</time></trkpt><trkpt lat="37.1063491" lon="-2.3570971"><ele>525.5</ele><time>2026-04-11T14:08:51.383Z</time></trkpt><trkpt lat="37.1065535" lon="-2.3569022"><ele>526.0</ele><time>2026-04-11T14:08:52.384Z</time></trkpt><trkpt lat="37.1067682" lon="-2.3567218"><ele>527.5</ele><time>2026-04-11T14:08:53.384Z</time></trkpt><trkpt lat="37.1069876" lon="-2.3565532"><ele>529.0</ele><time>2026-04-11T14:08:54.384Z</time></trkpt><trkpt lat="37.1072131" lon="-2.3563883"><ele>531.0</ele><time>2026-04-11T14:08:55.383Z</time></trkpt><trkpt lat="37.1074404" lon="-2.3562353"><ele>533.0</ele><time>2026-04-11T14:08:56.384Z</time></trkpt><trkpt lat="37.1076737" lon="-2.356102"><ele>533.0</ele><time>2026-04-11T14:08:57.384Z</time></trkpt><trkpt lat="37.1079077" lon="-2.355969"><ele>533.0</ele><time>2026-04-11T14:08:58.384Z</time></trkpt><trkpt lat="37.1081438" lon="-2.3558337"><ele>534.5</ele><time>2026-04-11T14:08:59.384Z</time></trkpt><trkpt lat="37.1083846" lon="-2.3556974"><ele>536.0</ele><time>2026-04-11T14:09:00.384Z</time></trkpt><trkpt lat="37.1086225" lon="-2.3555665"><ele>536.5</ele><time>2026-04-11T14:09:01.384Z</time></trkpt><trkpt lat="37.10886" lon="-2.3554358"><ele>537.0</ele><time>2026-04-11T14:09:02.383Z</time></trkpt><trkpt lat="37.1090948" lon="-2.3553047"><ele>538.0</ele><time>2026-04-11T14:09:03.383Z</time></trkpt><trkpt lat="37.1093275" lon="-2.3551735"><ele>539.0</ele><time>2026-04-11T14:09:04.384Z</time></trkpt><trkpt lat="37.1095634" lon="-2.3550444"><ele>539.0</ele><time>2026-04-11T14:09:05.383Z</time></trkpt><trkpt lat="37.1098016" lon="-2.3549126"><ele>539.0</ele><time>2026-04-11T14:09:06.384Z</time></trkpt><trkpt lat="37.110038" lon="-2.3547796"><ele>542.0</ele><time>2026-04-11T14:09:07.383Z</time></trkpt><trkpt lat="37.1102766" lon="-2.3546476"><ele>545.0</ele><time>2026-04-11T14:09:08.384Z</time></trkpt><trkpt lat="37.1105182" lon="-2.3545152"><ele>547.0</ele><time>2026-04-11T14:09:09.384Z</time></trkpt><trkpt lat="37.1107578" lon="-2.3543843"><ele>549.0</ele><time>2026-04-11T14:09:10.384Z</time></trkpt><trkpt lat="37.1110008" lon="-2.3542487"><ele>549.0</ele><time>2026-04-11T14:09:11.384Z</time></trkpt><trkpt lat="37.1112412" lon="-2.3541129"><ele>549.0</ele><time>2026-04-11T14:09:12.384Z</time></trkpt><trkpt lat="37.1114865" lon="-2.3539755"><ele>550.5</ele><time>2026-04-11T14:09:13.384Z</time></trkpt><trkpt lat="37.1117315" lon="-2.3538379"><ele>552.0</ele><time>2026-04-11T14:09:14.384Z</time></trkpt><trkpt lat="37.1119769" lon="-2.3537009"><ele>552.0</ele><time>2026-04-11T14:09:15.383Z</time></trkpt><trkpt lat="37.1122255" lon="-2.3535631"><ele>552.0</ele><time>2026-04-11T14:09:16.384Z</time></trkpt><trkpt lat="37.1124746" lon="-2.3534249"><ele>553.0</ele><time>2026-04-11T14:09:17.384Z</time></trkpt><trkpt lat="37.112725" lon="-2.3532876"><ele>554.0</ele><time>2026-04-11T14:09:18.384Z</time></trkpt><trkpt lat="37.1129748" lon="-2.353148"><ele>553.5</ele><time>2026-04-11T14:09:19.383Z</time></trkpt><trkpt lat="37.1132224" lon="-2.3530152"><ele>553.0</ele><time>2026-04-11T14:09:20.384Z</time></trkpt><trkpt lat="37.1134722" lon="-2.3528731"><ele>554.5</ele><time>2026-04-11T14:09:21.383Z</time></trkpt><trkpt lat="37.1137181" lon="-2.3527388"><ele>556.0</ele><time>2026-04-11T14:09:22.384Z</time></trkpt><trkpt lat="37.1139642" lon="-2.3525974"><ele>558.5</ele><time>2026-04-11T14:09:23.384Z</time></trkpt><trkpt lat="37.1142044" lon="-2.3524622"><ele>561.0</ele><time>2026-04-11T14:09:24.384Z</time></trkpt><trkpt lat="37.1144417" lon="-2.3523244"><ele>560.5</ele><time>2026-04-11T14:09:25.384Z</time></trkpt><trkpt lat="37.1146763" lon="-2.3521844"><ele>560.0</ele><time>2026-04-11T14:09:26.384Z</time></trkpt><trkpt lat="37.1149098" lon="-2.3520385"><ele>561.0</ele><time>2026-04-11T14:09:27.384Z</time></trkpt><trkpt lat="37.1151453" lon="-2.3518811"><ele>562.0</ele><time>2026-04-11T14:09:28.383Z</time></trkpt><trkpt lat="37.1153811" lon="-2.3517128"><ele>562.0</ele><time>2026-04-11T14:09:29.384Z</time></trkpt><trkpt lat="37.1156178" lon="-2.3515429"><ele>562.0</ele><time>2026-04-11T14:09:30.384Z</time></trkpt><trkpt lat="37.1158579" lon="-2.3513735"><ele>563.5</ele><time>2026-04-11T14:09:31.384Z</time></trkpt><trkpt lat="37.1160957" lon="-2.3512037"><ele>565.0</ele><time>2026-04-11T14:09:32.384Z</time></trkpt><trkpt lat="37.1163355" lon="-2.3510321"><ele>564.0</ele><time>2026-04-11T14:09:33.384Z</time></trkpt><trkpt lat="37.1165757" lon="-2.3508626"><ele>563.0</ele><time>2026-04-11T14:09:34.383Z</time></trkpt><trkpt lat="37.1168144" lon="-2.350695"><ele>561.5</ele><time>2026-04-11T14:09:35.384Z</time></trkpt><trkpt lat="37.1170506" lon="-2.3505251"><ele>560.0</ele><time>2026-04-11T14:09:36.384Z</time></trkpt><trkpt lat="37.1172847" lon="-2.3503545"><ele>561.0</ele><time>2026-04-11T14:09:37.384Z</time></trkpt><trkpt lat="37.1175189" lon="-2.3501839"><ele>562.0</ele><time>2026-04-11T14:09:38.383Z</time></trkpt><trkpt lat="37.1177495" lon="-2.3500158"><ele>562.0</ele><time>2026-04-11T14:09:39.384Z</time></trkpt><trkpt lat="37.1179807" lon="-2.3498481"><ele>562.0</ele><time>2026-04-11T14:09:40.384Z</time></trkpt><trkpt lat="37.1182118" lon="-2.3496858"><ele>561.0</ele><time>2026-04-11T14:09:41.384Z</time></trkpt><trkpt lat="37.1184433" lon="-2.34952"><ele>560.0</ele><time>2026-04-11T14:09:42.384Z</time></trkpt><trkpt lat="37.1186814" lon="-2.3493532"><ele>560.0</ele><time>2026-04-11T14:09:43.384Z</time></trkpt><trkpt lat="37.1189147" lon="-2.3491851"><ele>560.0</ele><time>2026-04-11T14:09:44.384Z</time></trkpt><trkpt lat="37.1191522" lon="-2.349019"><ele>560.0</ele><time>2026-04-11T14:09:45.384Z</time></trkpt><trkpt lat="37.1193845" lon="-2.3488496"><ele>560.0</ele><time>2026-04-11T14:09:46.384Z</time></trkpt><trkpt lat="37.1196214" lon="-2.3486803"><ele>560.0</ele><time>2026-04-11T14:09:47.383Z</time></trkpt><trkpt lat="37.1198552" lon="-2.3485084"><ele>560.0</ele><time>2026-04-11T14:09:48.384Z</time></trkpt><trkpt lat="37.1200898" lon="-2.3483374"><ele>560.0</ele><time>2026-04-11T14:09:49.384Z</time></trkpt><trkpt lat="37.1203256" lon="-2.3481676"><ele>560.0</ele><time>2026-04-11T14:09:50.384Z</time></trkpt><trkpt lat="37.1205647" lon="-2.3480003"><ele>561.5</ele><time>2026-04-11T14:09:51.384Z</time></trkpt><trkpt lat="37.1208101" lon="-2.3478324"><ele>563.0</ele><time>2026-04-11T14:09:52.383Z</time></trkpt><trkpt lat="37.1210499" lon="-2.3476737"><ele>563.0</ele><time>2026-04-11T14:09:53.384Z</time></trkpt><trkpt lat="37.1212937" lon="-2.3475177"><ele>563.0</ele><time>2026-04-11T14:09:54.384Z</time></trkpt><trkpt lat="37.1215387" lon="-2.3473725"><ele>563.5</ele><time>2026-04-11T14:09:55.384Z</time></trkpt><trkpt lat="37.1217787" lon="-2.3472394"><ele>564.0</ele><time>2026-04-11T14:09:56.384Z</time></trkpt><trkpt lat="37.1220227" lon="-2.3471026"><ele>564.0</ele><time>2026-04-11T14:09:57.384Z</time></trkpt><trkpt lat="37.1222667" lon="-2.3469677"><ele>564.0</ele><time>2026-04-11T14:09:58.384Z</time></trkpt><trkpt lat="37.1225037" lon="-2.3468387"><ele>564.5</ele><time>2026-04-11T14:09:59.384Z</time></trkpt><trkpt lat="37.1227445" lon="-2.3467083"><ele>565.0</ele><time>2026-04-11T14:10:00.384Z</time></trkpt><trkpt lat="37.1229795" lon="-2.3465772"><ele>565.0</ele><time>2026-04-11T14:10:01.384Z</time></trkpt><trkpt lat="37.1232182" lon="-2.3464465"><ele>565.0</ele><time>2026-04-11T14:10:02.383Z</time></trkpt><trkpt lat="37.123454" lon="-2.3463133"><ele>566.0</ele><time>2026-04-11T14:10:03.384Z</time></trkpt><trkpt lat="37.1236857" lon="-2.346181"><ele>567.0</ele><time>2026-04-11T14:10:04.384Z</time></trkpt><trkpt lat="37.1239191" lon="-2.3460497"><ele>568.5</ele><time>2026-04-11T14:10:05.384Z</time></trkpt><trkpt lat="37.1241525" lon="-2.3459212"><ele>570.0</ele><time>2026-04-11T14:10:06.384Z</time></trkpt><trkpt lat="37.124387" lon="-2.3457921"><ele>570.0</ele><time>2026-04-11T14:10:07.384Z</time></trkpt><trkpt lat="37.1246231" lon="-2.3456625"><ele>570.0</ele><time>2026-04-11T14:10:08.384Z</time></trkpt><trkpt lat="37.1248599" lon="-2.3455375"><ele>570.5</ele><time>2026-04-11T14:10:09.384Z</time></trkpt><trkpt lat="37.1250986" lon="-2.3454128"><ele>571.0</ele><time>2026-04-11T14:10:10.384Z</time></trkpt><trkpt lat="37.1253433" lon="-2.3452947"><ele>571.0</ele><time>2026-04-11T14:10:11.384Z</time></trkpt><trkpt lat="37.1255915" lon="-2.3451947"><ele>571.0</ele><time>2026-04-11T14:10:12.384Z</time></trkpt><trkpt lat="37.1258462" lon="-2.3451095"><ele>572.0</ele><time>2026-04-11T14:10:13.384Z</time></trkpt><trkpt lat="37.126107" lon="-2.3450381"><ele>573.0</ele><time>2026-04-11T14:10:14.384Z</time></trkpt><trkpt lat="37.1263694" lon="-2.3449794"><ele>575.0</ele><time>2026-04-11T14:10:15.384Z</time></trkpt><trkpt lat="37.1266383" lon="-2.34493"><ele>577.0</ele><time>2026-04-11T14:10:16.384Z</time></trkpt><trkpt lat="37.1269082" lon="-2.3448879"><ele>577.0</ele><time>2026-04-11T14:10:17.384Z</time></trkpt><trkpt lat="37.1271821" lon="-2.3448449"><ele>577.0</ele><time>2026-04-11T14:10:18.384Z</time></trkpt><trkpt lat="37.1274576" lon="-2.3447992"><ele>578.5</ele><time>2026-04-11T14:10:19.384Z</time></trkpt><trkpt lat="37.127733" lon="-2.3447456"><ele>580.0</ele><time>2026-04-11T14:10:20.384Z</time></trkpt><trkpt lat="37.1280065" lon="-2.344677"><ele>581.5</ele><time>2026-04-11T14:10:21.384Z</time></trkpt><trkpt lat="37.1282785" lon="-2.3445849"><ele>583.0</ele><time>2026-04-11T14:10:22.384Z</time></trkpt><trkpt lat="37.1285466" lon="-2.3444761"><ele>583.0</ele><time>2026-04-11T14:10:23.384Z</time></trkpt><trkpt lat="37.1288054" lon="-2.3443461"><ele>583.0</ele><time>2026-04-11T14:10:24.384Z</time></trkpt><trkpt lat="37.1290567" lon="-2.344195"><ele>580.0</ele><time>2026-04-11T14:10:25.384Z</time></trkpt><trkpt lat="37.1292966" lon="-2.3440307"><ele>577.0</ele><time>2026-04-11T14:10:26.384Z</time></trkpt><trkpt lat="37.1295284" lon="-2.3438508"><ele>576.5</ele><time>2026-04-11T14:10:27.384Z</time></trkpt><trkpt lat="37.1297545" lon="-2.3436544"><ele>576.0</ele><time>2026-04-11T14:10:28.384Z</time></trkpt><trkpt lat="37.1299679" lon="-2.3434478"><ele>576.0</ele><time>2026-04-11T14:10:29.384Z</time></trkpt><trkpt lat="37.1301839" lon="-2.3432344"><ele>576.0</ele><time>2026-04-11T14:10:30.384Z</time></trkpt><trkpt lat="37.1303986" lon="-2.3430271"><ele>576.0</ele><time>2026-04-11T14:10:31.384Z</time></trkpt><trkpt lat="37.1306133" lon="-2.3428253"><ele>576.0</ele><time>2026-04-11T14:10:32.384Z</time></trkpt><trkpt lat="37.1308197" lon="-2.3426181"><ele>578.5</ele><time>2026-04-11T14:10:33.383Z</time></trkpt><trkpt lat="37.1310263" lon="-2.3424173"><ele>581.0</ele><time>2026-04-11T14:10:34.384Z</time></trkpt><trkpt lat="37.1312374" lon="-2.3422186"><ele>582.0</ele><time>2026-04-11T14:10:35.384Z</time></trkpt><trkpt lat="37.1314518" lon="-2.3420225"><ele>583.0</ele><time>2026-04-11T14:10:36.384Z</time></trkpt><trkpt lat="37.1316723" lon="-2.3418346"><ele>583.0</ele><time>2026-04-11T14:10:37.384Z</time></trkpt><trkpt lat="37.1318982" lon="-2.3416652"><ele>583.0</ele><time>2026-04-11T14:10:38.384Z</time></trkpt><trkpt lat="37.1321339" lon="-2.3415124"><ele>583.0</ele><time>2026-04-11T14:10:39.383Z</time></trkpt><trkpt lat="37.1323729" lon="-2.3413774"><ele>583.0</ele><time>2026-04-11T14:10:40.384Z</time></trkpt><trkpt lat="37.1326204" lon="-2.3412544"><ele>584.5</ele><time>2026-04-11T14:10:41.384Z</time></trkpt><trkpt lat="37.1328681" lon="-2.3411381"><ele>586.0</ele><time>2026-04-11T14:10:42.384Z</time></trkpt><trkpt lat="37.1331159" lon="-2.3410167"><ele>587.5</ele><time>2026-04-11T14:10:43.383Z</time></trkpt><trkpt lat="37.1333657" lon="-2.3408936"><ele>589.0</ele><time>2026-04-11T14:10:44.383Z</time></trkpt><trkpt lat="37.1336144" lon="-2.3407744"><ele>589.0</ele><time>2026-04-11T14:10:45.384Z</time></trkpt><trkpt lat="37.1338651" lon="-2.3406543"><ele>589.0</ele><time>2026-04-11T14:10:46.384Z</time></trkpt><trkpt lat="37.1341152" lon="-2.340531"><ele>595.0</ele><time>2026-04-11T14:10:47.384Z</time></trkpt><trkpt lat="37.134369" lon="-2.3404085"><ele>601.0</ele><time>2026-04-11T14:10:48.384Z</time></trkpt><trkpt lat="37.1346201" lon="-2.3402834"><ele>601.0</ele><time>2026-04-11T14:10:49.384Z</time></trkpt><trkpt lat="37.1348715" lon="-2.3401627"><ele>601.0</ele><time>2026-04-11T14:10:50.384Z</time></trkpt><trkpt lat="37.1351271" lon="-2.3400398"><ele>603.0</ele><time>2026-04-11T14:10:51.384Z</time></trkpt><trkpt lat="37.1353842" lon="-2.3399161"><ele>605.0</ele><time>2026-04-11T14:10:52.383Z</time></trkpt><trkpt lat="37.1356427" lon="-2.3397908"><ele>608.5</ele><time>2026-04-11T14:10:53.383Z</time></trkpt><trkpt lat="37.1359007" lon="-2.3396663"><ele>612.0</ele><time>2026-04-11T14:10:54.384Z</time></trkpt><trkpt lat="37.1361625" lon="-2.3395425"><ele>612.0</ele><time>2026-04-11T14:10:55.384Z</time></trkpt><trkpt lat="37.1364189" lon="-2.3394226"><ele>612.0</ele><time>2026-04-11T14:10:56.384Z</time></trkpt><trkpt lat="37.1366759" lon="-2.3393089"><ele>607.0</ele><time>2026-04-11T14:10:57.383Z</time></trkpt><trkpt lat="37.1369336" lon="-2.3392041"><ele>602.0</ele><time>2026-04-11T14:10:58.384Z</time></trkpt><trkpt lat="37.1371907" lon="-2.3391143"><ele>600.5</ele><time>2026-04-11T14:10:59.383Z</time></trkpt><trkpt lat="37.1374477" lon="-2.3390347"><ele>599.0</ele><time>2026-04-11T14:11:00.384Z</time></trkpt><trkpt lat="37.1376987" lon="-2.3389535"><ele>604.5</ele><time>2026-04-11T14:11:01.384Z</time></trkpt><trkpt lat="37.1379536" lon="-2.3388744"><ele>610.0</ele><time>2026-04-11T14:11:02.383Z</time></trkpt><trkpt lat="37.138199" lon="-2.338797"><ele>612.0</ele><time>2026-04-11T14:11:03.384Z</time></trkpt><trkpt lat="37.1384443" lon="-2.3387091"><ele>614.0</ele><time>2026-04-11T14:11:04.384Z</time></trkpt><trkpt lat="37.1386788" lon="-2.3385955"><ele>614.0</ele><time>2026-04-11T14:11:05.384Z</time></trkpt><trkpt lat="37.1388964" lon="-2.3384494"><ele>614.0</ele><time>2026-04-11T14:11:06.384Z</time></trkpt><trkpt lat="37.1391073" lon="-2.3382821"><ele>615.5</ele><time>2026-04-11T14:11:07.384Z</time></trkpt><trkpt lat="37.1393033" lon="-2.3380832"><ele>617.0</ele><time>2026-04-11T14:11:08.384Z</time></trkpt><trkpt lat="37.1394984" lon="-2.3378775"><ele>620.5</ele><time>2026-04-11T14:11:09.384Z</time></trkpt><trkpt lat="37.1396968" lon="-2.3376808"><ele>624.0</ele><time>2026-04-11T14:11:10.384Z</time></trkpt><trkpt lat="37.1399118" lon="-2.33751"><ele>616.0</ele><time>2026-04-11T14:11:11.384Z</time></trkpt><trkpt lat="37.1401417" lon="-2.3373725"><ele>608.0</ele><time>2026-04-11T14:11:12.384Z</time></trkpt><trkpt lat="37.1403819" lon="-2.3372725"><ele>609.5</ele><time>2026-04-11T14:11:13.383Z</time></trkpt><trkpt lat="37.1406265" lon="-2.3372004"><ele>611.0</ele><time>2026-04-11T14:11:14.384Z</time></trkpt><trkpt lat="37.1408716" lon="-2.3371641"><ele>611.0</ele><time>2026-04-11T14:11:15.384Z</time></trkpt><trkpt lat="37.1411183" lon="-2.3371621"><ele>611.0</ele><time>2026-04-11T14:11:16.384Z</time></trkpt><trkpt lat="37.1413577" lon="-2.3371835"><ele>610.5</ele><time>2026-04-11T14:11:17.384Z</time></trkpt><trkpt lat="37.1415861" lon="-2.3372153"><ele>610.0</ele><time>2026-04-11T14:11:18.384Z</time></trkpt><trkpt lat="37.1418136" lon="-2.3372349"><ele>610.0</ele><time>2026-04-11T14:11:19.383Z</time></trkpt><trkpt lat="37.1420362" lon="-2.3372368"><ele>610.0</ele><time>2026-04-11T14:11:20.384Z</time></trkpt><trkpt lat="37.1422578" lon="-2.3372169"><ele>610.0</ele><time>2026-04-11T14:11:21.384Z</time></trkpt><trkpt lat="37.1424847" lon="-2.3371623"><ele>609.0</ele><time>2026-04-11T14:11:22.383Z</time></trkpt><trkpt lat="37.1427023" lon="-2.3370902"><ele>608.0</ele><time>2026-04-11T14:11:23.384Z</time></trkpt><trkpt lat="37.14292" lon="-2.3369595"><ele>608.0</ele><time>2026-04-11T14:11:24.383Z</time></trkpt><trkpt lat="37.1431323" lon="-2.3368162"><ele>608.0</ele><time>2026-04-11T14:11:25.384Z</time></trkpt><trkpt lat="37.1433448" lon="-2.336657"><ele>609.0</ele><time>2026-04-11T14:11:26.384Z</time></trkpt><trkpt lat="37.1435557" lon="-2.3364943"><ele>610.0</ele><time>2026-04-11T14:11:27.384Z</time></trkpt><trkpt lat="37.143771" lon="-2.3363306"><ele>613.5</ele><time>2026-04-11T14:11:28.384Z</time></trkpt><trkpt lat="37.1439849" lon="-2.3361712"><ele>617.0</ele><time>2026-04-11T14:11:29.384Z</time></trkpt><trkpt lat="37.1441965" lon="-2.3360092"><ele>617.0</ele><time>2026-04-11T14:11:30.384Z</time></trkpt><trkpt lat="37.1444052" lon="-2.3358397"><ele>617.0</ele><time>2026-04-11T14:11:31.384Z</time></trkpt><trkpt lat="37.144608" lon="-2.3356505"><ele>616.0</ele><time>2026-04-11T14:11:32.384Z</time></trkpt><trkpt lat="37.1447969" lon="-2.3354373"><ele>615.0</ele><time>2026-04-11T14:11:33.384Z</time></trkpt><trkpt lat="37.1449756" lon="-2.3352078"><ele>615.0</ele><time>2026-04-11T14:11:34.384Z</time></trkpt><trkpt lat="37.1451498" lon="-2.3349693"><ele>615.0</ele><time>2026-04-11T14:11:35.383Z</time></trkpt><trkpt lat="37.1453234" lon="-2.3347331"><ele>617.0</ele><time>2026-04-11T14:11:36.384Z</time></trkpt><trkpt lat="37.1454991" lon="-2.3344972"><ele>619.0</ele><time>2026-04-11T14:11:37.384Z</time></trkpt><trkpt lat="37.14567" lon="-2.3342618"><ele>620.0</ele><time>2026-04-11T14:11:38.384Z</time></trkpt><trkpt lat="37.145839" lon="-2.3340283"><ele>621.0</ele><time>2026-04-11T14:11:39.384Z</time></trkpt><trkpt lat="37.1460101" lon="-2.3337939"><ele>621.0</ele><time>2026-04-11T14:11:40.383Z</time></trkpt><trkpt lat="37.1461798" lon="-2.3335566"><ele>621.0</ele><time>2026-04-11T14:11:41.384Z</time></trkpt><trkpt lat="37.1463406" lon="-2.3333175"><ele>621.0</ele><time>2026-04-11T14:11:42.384Z</time></trkpt><trkpt lat="37.1464837" lon="-2.3330664"><ele>621.0</ele><time>2026-04-11T14:11:43.384Z</time></trkpt><trkpt lat="37.1465966" lon="-2.3327988"><ele>618.0</ele><time>2026-04-11T14:11:44.383Z</time></trkpt><trkpt lat="37.1466879" lon="-2.3325144"><ele>615.0</ele><time>2026-04-11T14:11:45.384Z</time></trkpt><trkpt lat="37.1467674" lon="-2.3322254"><ele>617.0</ele><time>2026-04-11T14:11:46.384Z</time></trkpt><trkpt lat="37.1468413" lon="-2.3319355"><ele>619.0</ele><time>2026-04-11T14:11:47.384Z</time></trkpt><trkpt lat="37.1469131" lon="-2.3316445"><ele>619.0</ele><time>2026-04-11T14:11:48.384Z</time></trkpt><trkpt lat="37.1469864" lon="-2.3313537"><ele>619.0</ele><time>2026-04-11T14:11:49.384Z</time></trkpt><trkpt lat="37.1470653" lon="-2.3310661"><ele>619.0</ele><time>2026-04-11T14:11:50.384Z</time></trkpt><trkpt lat="37.147139" lon="-2.3307795"><ele>619.0</ele><time>2026-04-11T14:11:51.384Z</time></trkpt><trkpt lat="37.1472113" lon="-2.3304895"><ele>619.5</ele><time>2026-04-11T14:11:52.384Z</time></trkpt><trkpt lat="37.1472811" lon="-2.3301995"><ele>620.0</ele><time>2026-04-11T14:11:53.384Z</time></trkpt><trkpt lat="37.1473428" lon="-2.3299028"><ele>625.5</ele><time>2026-04-11T14:11:54.384Z</time></trkpt><trkpt lat="37.147407" lon="-2.3296048"><ele>631.0</ele><time>2026-04-11T14:11:55.384Z</time></trkpt><trkpt lat="37.1474799" lon="-2.3293085"><ele>631.0</ele><time>2026-04-11T14:11:56.384Z</time></trkpt><trkpt lat="37.1475548" lon="-2.329012"><ele>631.0</ele><time>2026-04-11T14:11:57.384Z</time></trkpt><trkpt lat="37.1476293" lon="-2.3287131"><ele>631.5</ele><time>2026-04-11T14:11:58.384Z</time></trkpt><trkpt lat="37.1477014" lon="-2.3284137"><ele>632.0</ele><time>2026-04-11T14:11:59.384Z</time></trkpt><trkpt lat="37.147771" lon="-2.328118"><ele>631.0</ele><time>2026-04-11T14:12:00.384Z</time></trkpt><trkpt lat="37.1478412" lon="-2.3278126"><ele>630.0</ele><time>2026-04-11T14:12:01.384Z</time></trkpt><trkpt lat="37.1479161" lon="-2.3275065"><ele>630.0</ele><time>2026-04-11T14:12:02.384Z</time></trkpt><trkpt lat="37.1480004" lon="-2.3272071"><ele>630.0</ele><time>2026-04-11T14:12:03.384Z</time></trkpt><trkpt lat="37.1480975" lon="-2.3269144"><ele>631.0</ele><time>2026-04-11T14:12:04.383Z</time></trkpt><trkpt lat="37.1482165" lon="-2.3266329"><ele>632.0</ele><time>2026-04-11T14:12:05.384Z</time></trkpt><trkpt lat="37.1483509" lon="-2.3263656"><ele>632.0</ele><time>2026-04-11T14:12:06.384Z</time></trkpt><trkpt lat="37.1485023" lon="-2.3261128"><ele>632.0</ele><time>2026-04-11T14:12:07.384Z</time></trkpt><trkpt lat="37.1486702" lon="-2.3258732"><ele>632.0</ele><time>2026-04-11T14:12:08.384Z</time></trkpt><trkpt lat="37.148854" lon="-2.3256511"><ele>632.0</ele><time>2026-04-11T14:12:09.384Z</time></trkpt><trkpt lat="37.1490535" lon="-2.325453"><ele>635.0</ele><time>2026-04-11T14:12:10.384Z</time></trkpt><trkpt lat="37.1492593" lon="-2.3252702"><ele>638.0</ele><time>2026-04-11T14:12:11.384Z</time></trkpt><trkpt lat="37.1494718" lon="-2.3250946"><ele>638.0</ele><time>2026-04-11T14:12:12.384Z</time></trkpt><trkpt lat="37.1496815" lon="-2.3249262"><ele>638.0</ele><time>2026-04-11T14:12:13.384Z</time></trkpt><trkpt lat="37.149889" lon="-2.324767"><ele>649.5</ele><time>2026-04-11T14:12:14.384Z</time></trkpt><trkpt lat="37.1500931" lon="-2.3245993"><ele>661.0</ele><time>2026-04-11T14:12:15.384Z</time></trkpt><trkpt lat="37.150293" lon="-2.3244242"><ele>661.0</ele><time>2026-04-11T14:12:16.383Z</time></trkpt><trkpt lat="37.150479" lon="-2.3242344"><ele>661.0</ele><time>2026-04-11T14:12:17.384Z</time></trkpt><trkpt lat="37.1506539" lon="-2.3240321"><ele>659.5</ele><time>2026-04-11T14:12:18.384Z</time></trkpt><trkpt lat="37.1508204" lon="-2.3238165"><ele>658.0</ele><time>2026-04-11T14:12:19.384Z</time></trkpt><trkpt lat="37.1509808" lon="-2.3235954"><ele>658.0</ele><time>2026-04-11T14:12:20.384Z</time></trkpt><trkpt lat="37.1511385" lon="-2.3233618"><ele>658.0</ele><time>2026-04-11T14:12:21.384Z</time></trkpt><trkpt lat="37.151295" lon="-2.3231299"><ele>657.0</ele><time>2026-04-11T14:12:22.384Z</time></trkpt><trkpt lat="37.1514498" lon="-2.3229005"><ele>656.0</ele><time>2026-04-11T14:12:23.384Z</time></trkpt><trkpt lat="37.1515998" lon="-2.3226679"><ele>656.0</ele><time>2026-04-11T14:12:24.383Z</time></trkpt><trkpt lat="37.1517554" lon="-2.3224355"><ele>656.0</ele><time>2026-04-11T14:12:25.384Z</time></trkpt><trkpt lat="37.1519143" lon="-2.3221968"><ele>663.0</ele><time>2026-04-11T14:12:26.384Z</time></trkpt><trkpt lat="37.1520694" lon="-2.3219624"><ele>670.0</ele><time>2026-04-11T14:12:27.384Z</time></trkpt><trkpt lat="37.1522255" lon="-2.3217298"><ele>669.0</ele><time>2026-04-11T14:12:28.384Z</time></trkpt><trkpt lat="37.1523802" lon="-2.3215003"><ele>668.0</ele><time>2026-04-11T14:12:29.384Z</time></trkpt><trkpt lat="37.1525383" lon="-2.3212711"><ele>674.0</ele><time>2026-04-11T14:12:30.384Z</time></trkpt><trkpt lat="37.1526983" lon="-2.3210401"><ele>680.0</ele><time>2026-04-11T14:12:31.384Z</time></trkpt><trkpt lat="37.1528597" lon="-2.3208142"><ele>680.0</ele><time>2026-04-11T14:12:32.384Z</time></trkpt><trkpt lat="37.153028" lon="-2.3205938"><ele>680.0</ele><time>2026-04-11T14:12:33.383Z</time></trkpt><trkpt lat="37.1532033" lon="-2.3203809"><ele>677.5</ele><time>2026-04-11T14:12:34.384Z</time></trkpt><trkpt lat="37.1533872" lon="-2.3201746"><ele>675.0</ele><time>2026-04-11T14:12:35.384Z</time></trkpt><trkpt lat="37.1535718" lon="-2.3199789"><ele>675.0</ele><time>2026-04-11T14:12:36.384Z</time></trkpt><trkpt lat="37.1537653" lon="-2.3197969"><ele>675.0</ele><time>2026-04-11T14:12:37.384Z</time></trkpt><trkpt lat="37.1539684" lon="-2.3196199"><ele>680.5</ele><time>2026-04-11T14:12:38.384Z</time></trkpt><trkpt lat="37.1541805" lon="-2.3194383"><ele>686.0</ele><time>2026-04-11T14:12:39.384Z</time></trkpt><trkpt lat="37.1543827" lon="-2.3192763"><ele>686.0</ele><time>2026-04-11T14:12:40.384Z</time></trkpt><trkpt lat="37.1545938" lon="-2.3191159"><ele>686.0</ele><time>2026-04-11T14:12:41.384Z</time></trkpt><trkpt lat="37.1548022" lon="-2.318955"><ele>692.0</ele><time>2026-04-11T14:12:42.384Z</time></trkpt><trkpt lat="37.1550027" lon="-2.3187765"><ele>698.0</ele><time>2026-04-11T14:12:43.383Z</time></trkpt><trkpt lat="37.1551914" lon="-2.3185769"><ele>698.0</ele><time>2026-04-11T14:12:44.384Z</time></trkpt><trkpt lat="37.155363" lon="-2.3183633"><ele>698.0</ele><time>2026-04-11T14:12:45.384Z</time></trkpt><trkpt lat="37.1555204" lon="-2.3181303"><ele>701.5</ele><time>2026-04-11T14:12:46.384Z</time></trkpt><trkpt lat="37.1556655" lon="-2.3178841"><ele>705.0</ele><time>2026-04-11T14:12:47.384Z</time></trkpt><trkpt lat="37.1558086" lon="-2.3176365"><ele>702.0</ele><time>2026-04-11T14:12:48.383Z</time></trkpt><trkpt lat="37.1559547" lon="-2.3173893"><ele>699.0</ele><time>2026-04-11T14:12:49.384Z</time></trkpt><trkpt lat="37.1561092" lon="-2.3171532"><ele>699.0</ele><time>2026-04-11T14:12:50.384Z</time></trkpt><trkpt lat="37.1562689" lon="-2.31692"><ele>699.0</ele><time>2026-04-11T14:12:51.384Z</time></trkpt><trkpt lat="37.156434" lon="-2.3166885"><ele>700.0</ele><time>2026-04-11T14:12:52.384Z</time></trkpt><trkpt lat="37.1566043" lon="-2.3164592"><ele>701.0</ele><time>2026-04-11T14:12:53.384Z</time></trkpt><trkpt lat="37.1567791" lon="-2.31624"><ele>704.5</ele><time>2026-04-11T14:12:54.384Z</time></trkpt><trkpt lat="37.156958" lon="-2.3160312"><ele>708.0</ele><time>2026-04-11T14:12:55.384Z</time></trkpt><trkpt lat="37.1571427" lon="-2.3158251"><ele>708.0</ele><time>2026-04-11T14:12:56.384Z</time></trkpt><trkpt lat="37.1573317" lon="-2.3156262"><ele>708.0</ele><time>2026-04-11T14:12:57.384Z</time></trkpt><trkpt lat="37.1575256" lon="-2.3154357"><ele>710.5</ele><time>2026-04-11T14:12:58.383Z</time></trkpt><trkpt lat="37.1577194" lon="-2.3152472"><ele>713.0</ele><time>2026-04-11T14:12:59.384Z</time></trkpt><trkpt lat="37.1579189" lon="-2.3150559"><ele>713.0</ele><time>2026-04-11T14:13:00.384Z</time></trkpt><trkpt lat="37.1581174" lon="-2.3148669"><ele>713.0</ele><time>2026-04-11T14:13:01.384Z</time></trkpt><trkpt lat="37.1583132" lon="-2.3146761"><ele>716.0</ele><time>2026-04-11T14:13:02.384Z</time></trkpt><trkpt lat="37.1585106" lon="-2.3144896"><ele>719.0</ele><time>2026-04-11T14:13:03.384Z</time></trkpt><trkpt lat="37.1587071" lon="-2.3143003"><ele>719.0</ele><time>2026-04-11T14:13:04.384Z</time></trkpt><trkpt lat="37.1589023" lon="-2.3141119"><ele>719.0</ele><time>2026-04-11T14:13:05.384Z</time></trkpt><trkpt lat="37.1591024" lon="-2.3139203"><ele>719.0</ele><time>2026-04-11T14:13:06.384Z</time></trkpt><trkpt lat="37.1592988" lon="-2.3137344"><ele>719.0</ele><time>2026-04-11T14:13:07.384Z</time></trkpt><trkpt lat="37.1594901" lon="-2.3135418"><ele>719.0</ele><time>2026-04-11T14:13:08.384Z</time></trkpt><trkpt lat="37.159671" lon="-2.3133262"><ele>719.0</ele><time>2026-04-11T14:13:09.384Z</time></trkpt><trkpt lat="37.1598309" lon="-2.3130908"><ele>725.5</ele><time>2026-04-11T14:13:10.384Z</time></trkpt><trkpt lat="37.1599731" lon="-2.3128402"><ele>732.0</ele><time>2026-04-11T14:13:11.383Z</time></trkpt><trkpt lat="37.1600899" lon="-2.3125656"><ele>732.0</ele><time>2026-04-11T14:13:12.383Z</time></trkpt><trkpt lat="37.1601829" lon="-2.3122807"><ele>732.0</ele><time>2026-04-11T14:13:13.384Z</time></trkpt><trkpt lat="37.1602552" lon="-2.3119857"><ele>734.0</ele><time>2026-04-11T14:13:14.384Z</time></trkpt><trkpt lat="37.1603137" lon="-2.3116801"><ele>736.0</ele><time>2026-04-11T14:13:15.384Z</time></trkpt><trkpt lat="37.1603697" lon="-2.3113757"><ele>739.0</ele><time>2026-04-11T14:13:16.383Z</time></trkpt><trkpt lat="37.1604266" lon="-2.3110714"><ele>742.0</ele><time>2026-04-11T14:13:17.384Z</time></trkpt><trkpt lat="37.1604848" lon="-2.3107672"><ele>744.0</ele><time>2026-04-11T14:13:18.383Z</time></trkpt><trkpt lat="37.1605386" lon="-2.3104615"><ele>746.0</ele><time>2026-04-11T14:13:19.384Z</time></trkpt><trkpt lat="37.1605949" lon="-2.3101588"><ele>746.0</ele><time>2026-04-11T14:13:20.384Z</time></trkpt><trkpt lat="37.1606528" lon="-2.3098506"><ele>746.0</ele><time>2026-04-11T14:13:21.384Z</time></trkpt><trkpt lat="37.1607136" lon="-2.3095419"><ele>743.0</ele><time>2026-04-11T14:13:22.384Z</time></trkpt><trkpt lat="37.1607728" lon="-2.3092396"><ele>740.0</ele><time>2026-04-11T14:13:23.384Z</time></trkpt><trkpt lat="37.160836" lon="-2.3089363"><ele>744.0</ele><time>2026-04-11T14:13:24.384Z</time></trkpt><trkpt lat="37.1609058" lon="-2.3086329"><ele>748.0</ele><time>2026-04-11T14:13:25.384Z</time></trkpt><trkpt lat="37.1609887" lon="-2.3083361"><ele>751.0</ele><time>2026-04-11T14:13:26.384Z</time></trkpt><trkpt lat="37.1610752" lon="-2.3080352"><ele>754.0</ele><time>2026-04-11T14:13:27.384Z</time></trkpt><trkpt lat="37.1611706" lon="-2.3077351"><ele>754.0</ele><time>2026-04-11T14:13:28.384Z</time></trkpt><trkpt lat="37.1612755" lon="-2.3074384"><ele>754.0</ele><time>2026-04-11T14:13:29.384Z</time></trkpt><trkpt lat="37.1613824" lon="-2.3071465"><ele>752.5</ele><time>2026-04-11T14:13:30.384Z</time></trkpt><trkpt lat="37.1614934" lon="-2.3068538"><ele>751.0</ele><time>2026-04-11T14:13:31.384Z</time></trkpt><trkpt lat="37.1616047" lon="-2.3065594"><ele>755.0</ele><time>2026-04-11T14:13:32.384Z</time></trkpt><trkpt lat="37.1617168" lon="-2.3062612"><ele>759.0</ele><time>2026-04-11T14:13:33.384Z</time></trkpt><trkpt lat="37.1618298" lon="-2.3059619"><ele>759.0</ele><time>2026-04-11T14:13:34.383Z</time></trkpt><trkpt lat="37.1619378" lon="-2.3056575"><ele>759.0</ele><time>2026-04-11T14:13:35.384Z</time></trkpt><trkpt lat="37.1620392" lon="-2.3053439"><ele>760.0</ele><time>2026-04-11T14:13:36.384Z</time></trkpt><trkpt lat="37.1621263" lon="-2.3050291"><ele>761.0</ele><time>2026-04-11T14:13:37.384Z</time></trkpt><trkpt lat="37.1622036" lon="-2.3047049"><ele>764.5</ele><time>2026-04-11T14:13:38.384Z</time></trkpt><trkpt lat="37.1622736" lon="-2.304375"><ele>768.0</ele><time>2026-04-11T14:13:39.384Z</time></trkpt><trkpt lat="37.1623386" lon="-2.3040443"><ele>766.0</ele><time>2026-04-11T14:13:40.383Z</time></trkpt><trkpt lat="37.1624008" lon="-2.3037097"><ele>764.0</ele><time>2026-04-11T14:13:41.383Z</time></trkpt><trkpt lat="37.1624639" lon="-2.3033734"><ele>767.5</ele><time>2026-04-11T14:13:42.384Z</time></trkpt><trkpt lat="37.162525" lon="-2.3030366"><ele>771.0</ele><time>2026-04-11T14:13:43.384Z</time></trkpt><trkpt lat="37.1625864" lon="-2.3027036"><ele>771.0</ele><time>2026-04-11T14:13:44.384Z</time></trkpt><trkpt lat="37.1626471" lon="-2.3023691"><ele>771.0</ele><time>2026-04-11T14:13:45.384Z</time></trkpt><trkpt lat="37.1627113" lon="-2.3020352"><ele>777.0</ele><time>2026-04-11T14:13:46.384Z</time></trkpt><trkpt lat="37.1627692" lon="-2.3017031"><ele>783.0</ele><time>2026-04-11T14:13:47.384Z</time></trkpt><trkpt lat="37.162829" lon="-2.3013675"><ele>786.5</ele><time>2026-04-11T14:13:48.384Z</time></trkpt><trkpt lat="37.1628784" lon="-2.3010332"><ele>790.0</ele><time>2026-04-11T14:13:49.384Z</time></trkpt><trkpt lat="37.1629323" lon="-2.3006996"><ele>792.5</ele><time>2026-04-11T14:13:50.384Z</time></trkpt><trkpt lat="37.1629889" lon="-2.3003679"><ele>795.0</ele><time>2026-04-11T14:13:51.384Z</time></trkpt><trkpt lat="37.1630488" lon="-2.3000363"><ele>789.0</ele><time>2026-04-11T14:13:52.384Z</time></trkpt><trkpt lat="37.1631149" lon="-2.2997053"><ele>783.0</ele><time>2026-04-11T14:13:53.383Z</time></trkpt><trkpt lat="37.1631796" lon="-2.2993804"><ele>779.0</ele><time>2026-04-11T14:13:54.384Z</time></trkpt><trkpt lat="37.1632533" lon="-2.2990612"><ele>775.0</ele><time>2026-04-11T14:13:55.384Z</time></trkpt><trkpt lat="37.1633316" lon="-2.2987424"><ele>775.0</ele><time>2026-04-11T14:13:56.384Z</time></trkpt><trkpt lat="37.1634258" lon="-2.2984322"><ele>775.0</ele><time>2026-04-11T14:13:57.384Z</time></trkpt><trkpt lat="37.1635353" lon="-2.2981315"><ele>778.5</ele><time>2026-04-11T14:13:58.384Z</time></trkpt><trkpt lat="37.1636569" lon="-2.2978378"><ele>782.0</ele><time>2026-04-11T14:13:59.384Z</time></trkpt><trkpt lat="37.1637952" lon="-2.2975635"><ele>782.0</ele><time>2026-04-11T14:14:00.384Z</time></trkpt><trkpt lat="37.1639424" lon="-2.2972981"><ele>782.0</ele><time>2026-04-11T14:14:01.384Z</time></trkpt><trkpt lat="37.1640964" lon="-2.2970426"><ele>789.0</ele><time>2026-04-11T14:14:02.384Z</time></trkpt><trkpt lat="37.1642596" lon="-2.2968"><ele>796.0</ele><time>2026-04-11T14:14:03.384Z</time></trkpt><trkpt lat="37.1644326" lon="-2.2965746"><ele>807.5</ele><time>2026-04-11T14:14:04.384Z</time></trkpt><trkpt lat="37.1646178" lon="-2.2963622"><ele>819.0</ele><time>2026-04-11T14:14:05.384Z</time></trkpt><trkpt lat="37.16481" lon="-2.2961658"><ele>815.5</ele><time>2026-04-11T14:14:06.384Z</time></trkpt><trkpt lat="37.1650105" lon="-2.2959778"><ele>812.0</ele><time>2026-04-11T14:14:07.384Z</time></trkpt><trkpt lat="37.1652178" lon="-2.2958066"><ele>812.0</ele><time>2026-04-11T14:14:08.384Z</time></trkpt><trkpt lat="37.1654317" lon="-2.2956479"><ele>812.0</ele><time>2026-04-11T14:14:09.384Z</time></trkpt><trkpt lat="37.1656491" lon="-2.2955062"><ele>817.5</ele><time>2026-04-11T14:14:10.383Z</time></trkpt><trkpt lat="37.165868" lon="-2.2953786"><ele>823.0</ele><time>2026-04-11T14:14:11.383Z</time></trkpt><trkpt lat="37.1660928" lon="-2.2952678"><ele>823.0</ele><time>2026-04-11T14:14:12.384Z</time></trkpt><trkpt lat="37.1663197" lon="-2.2951745"><ele>823.0</ele><time>2026-04-11T14:14:13.384Z</time></trkpt><trkpt lat="37.1665517" lon="-2.2950962"><ele>823.0</ele><time>2026-04-11T14:14:14.384Z</time></trkpt><trkpt lat="37.1667819" lon="-2.2950357"><ele>823.0</ele><time>2026-04-11T14:14:15.384Z</time></trkpt><trkpt lat="37.1670123" lon="-2.294984"><ele>823.0</ele><time>2026-04-11T14:14:16.384Z</time></trkpt><trkpt lat="37.1672459" lon="-2.2949332"><ele>823.0</ele><time>2026-04-11T14:14:17.383Z</time></trkpt><trkpt lat="37.1674795" lon="-2.2948854"><ele>828.0</ele><time>2026-04-11T14:14:18.384Z</time></trkpt><trkpt lat="37.1677099" lon="-2.2948315"><ele>833.0</ele><time>2026-04-11T14:14:19.384Z</time></trkpt><trkpt lat="37.1679405" lon="-2.2947771"><ele>843.0</ele><time>2026-04-11T14:14:20.383Z</time></trkpt><trkpt lat="37.1681706" lon="-2.2947244"><ele>853.0</ele><time>2026-04-11T14:14:21.384Z</time></trkpt><trkpt lat="37.1683982" lon="-2.2946636"><ele>853.0</ele><time>2026-04-11T14:14:22.384Z</time></trkpt><trkpt lat="37.1686223" lon="-2.2945963"><ele>853.0</ele><time>2026-04-11T14:14:23.384Z</time></trkpt><trkpt lat="37.168841" lon="-2.294515"><ele>848.0</ele><time>2026-04-11T14:14:24.384Z</time></trkpt><trkpt lat="37.1690582" lon="-2.2944212"><ele>843.0</ele><time>2026-04-11T14:14:25.384Z</time></trkpt><trkpt lat="37.1692702" lon="-2.294322"><ele>843.0</ele><time>2026-04-11T14:14:26.384Z</time></trkpt><trkpt lat="37.1694761" lon="-2.2942089"><ele>843.0</ele><time>2026-04-11T14:14:27.384Z</time></trkpt><trkpt lat="37.1696814" lon="-2.2940841"><ele>845.5</ele><time>2026-04-11T14:14:28.384Z</time></trkpt><trkpt lat="37.1698838" lon="-2.2939623"><ele>848.0</ele><time>2026-04-11T14:14:29.384Z</time></trkpt><trkpt lat="37.1700888" lon="-2.2938395"><ele>848.0</ele><time>2026-04-11T14:14:30.384Z</time></trkpt><trkpt lat="37.1702958" lon="-2.2937163"><ele>848.0</ele><time>2026-04-11T14:14:31.383Z</time></trkpt><trkpt lat="37.1705018" lon="-2.2935897"><ele>848.5</ele><time>2026-04-11T14:14:32.384Z</time></trkpt><trkpt lat="37.1707119" lon="-2.2934647"><ele>849.0</ele><time>2026-04-11T14:14:33.384Z</time></trkpt><trkpt lat="37.1709229" lon="-2.2933427"><ele>849.0</ele><time>2026-04-11T14:14:34.384Z</time></trkpt><trkpt lat="37.1711355" lon="-2.293219"><ele>849.0</ele><time>2026-04-11T14:14:35.384Z</time></trkpt><trkpt lat="37.1713517" lon="-2.2930947"><ele>850.0</ele><time>2026-04-11T14:14:36.384Z</time></trkpt><trkpt lat="37.1715688" lon="-2.2929704"><ele>851.0</ele><time>2026-04-11T14:14:37.384Z</time></trkpt><trkpt lat="37.171789" lon="-2.2928439"><ele>851.0</ele><time>2026-04-11T14:14:38.384Z</time></trkpt><trkpt lat="37.1720078" lon="-2.2927097"><ele>851.0</ele><time>2026-04-11T14:14:39.384Z</time></trkpt><trkpt lat="37.1722287" lon="-2.292562"><ele>852.0</ele><time>2026-04-11T14:14:40.384Z</time></trkpt><trkpt lat="37.1724457" lon="-2.292403"><ele>853.0</ele><time>2026-04-11T14:14:41.384Z</time></trkpt><trkpt lat="37.1726536" lon="-2.292223"><ele>853.0</ele><time>2026-04-11T14:14:42.384Z</time></trkpt><trkpt lat="37.1728535" lon="-2.2920219"><ele>853.0</ele><time>2026-04-11T14:14:43.383Z</time></trkpt><trkpt lat="37.1730433" lon="-2.2918056"><ele>855.0</ele><time>2026-04-11T14:14:44.384Z</time></trkpt><trkpt lat="37.1732196" lon="-2.2915672"><ele>857.0</ele><time>2026-04-11T14:14:45.384Z</time></trkpt><trkpt lat="37.1733843" lon="-2.2913133"><ele>857.0</ele><time>2026-04-11T14:14:46.384Z</time></trkpt><trkpt lat="37.1735353" lon="-2.2910463"><ele>857.0</ele><time>2026-04-11T14:14:47.384Z</time></trkpt><trkpt lat="37.1736734" lon="-2.2907593"><ele>855.5</ele><time>2026-04-11T14:14:48.384Z</time></trkpt><trkpt lat="37.1737939" lon="-2.2904584"><ele>854.0</ele><time>2026-04-11T14:14:49.384Z</time></trkpt><trkpt lat="37.1738922" lon="-2.2901438"><ele>854.0</ele><time>2026-04-11T14:14:50.383Z</time></trkpt><trkpt lat="37.1739679" lon="-2.2898185"><ele>854.0</ele><time>2026-04-11T14:14:51.384Z</time></trkpt><trkpt lat="37.1740274" lon="-2.2894914"><ele>857.0</ele><time>2026-04-11T14:14:52.383Z</time></trkpt><trkpt lat="37.1740716" lon="-2.2891533"><ele>860.0</ele><time>2026-04-11T14:14:53.384Z</time></trkpt><trkpt lat="37.1741079" lon="-2.2888242"><ele>863.5</ele><time>2026-04-11T14:14:54.383Z</time></trkpt><trkpt lat="37.1741393" lon="-2.2884945"><ele>867.0</ele><time>2026-04-11T14:14:55.384Z</time></trkpt><trkpt lat="37.1741735" lon="-2.2881638"><ele>869.0</ele><time>2026-04-11T14:14:56.384Z</time></trkpt><trkpt lat="37.1742058" lon="-2.2878352"><ele>871.0</ele><time>2026-04-11T14:14:57.384Z</time></trkpt><trkpt lat="37.1742354" lon="-2.2875128"><ele>872.5</ele><time>2026-04-11T14:14:58.384Z</time></trkpt><trkpt lat="37.1742671" lon="-2.2871934"><ele>874.0</ele><time>2026-04-11T14:14:59.383Z</time></trkpt><trkpt lat="37.1742984" lon="-2.2868769"><ele>874.0</ele><time>2026-04-11T14:15:00.384Z</time></trkpt><trkpt lat="37.1743396" lon="-2.2865587"><ele>874.0</ele><time>2026-04-11T14:15:01.384Z</time></trkpt><trkpt lat="37.174387" lon="-2.2862495"><ele>871.5</ele><time>2026-04-11T14:15:02.384Z</time></trkpt><trkpt lat="37.174444" lon="-2.2859453"><ele>869.0</ele><time>2026-04-11T14:15:03.383Z</time></trkpt><trkpt lat="37.1745162" lon="-2.2856425"><ele>865.5</ele><time>2026-04-11T14:15:04.384Z</time></trkpt><trkpt lat="37.1746011" lon="-2.285347"><ele>862.0</ele><time>2026-04-11T14:15:05.384Z</time></trkpt><trkpt lat="37.1747003" lon="-2.2850598"><ele>862.0</ele><time>2026-04-11T14:15:06.384Z</time></trkpt><trkpt lat="37.1748103" lon="-2.2847818"><ele>862.0</ele><time>2026-04-11T14:15:07.384Z</time></trkpt><trkpt lat="37.1749346" lon="-2.2845137"><ele>874.0</ele><time>2026-04-11T14:15:08.384Z</time></trkpt><trkpt lat="37.1750676" lon="-2.2842572"><ele>886.0</ele><time>2026-04-11T14:15:09.384Z</time></trkpt><trkpt lat="37.1752095" lon="-2.2840111"><ele>879.5</ele><time>2026-04-11T14:15:10.384Z</time></trkpt><trkpt lat="37.175359" lon="-2.2837742"><ele>873.0</ele><time>2026-04-11T14:15:11.384Z</time></trkpt><trkpt lat="37.1755138" lon="-2.2835495"><ele>873.0</ele><time>2026-04-11T14:15:12.384Z</time></trkpt><trkpt lat="37.1756746" lon="-2.2833366"><ele>873.0</ele><time>2026-04-11T14:15:13.383Z</time></trkpt><trkpt lat="37.1758428" lon="-2.2831253"><ele>883.5</ele><time>2026-04-11T14:15:14.384Z</time></trkpt><trkpt lat="37.1760079" lon="-2.2829183"><ele>894.0</ele><time>2026-04-11T14:15:15.384Z</time></trkpt><trkpt lat="37.1761743" lon="-2.2827067"><ele>894.0</ele><time>2026-04-11T14:15:16.384Z</time></trkpt><trkpt lat="37.1763372" lon="-2.2825014"><ele>894.0</ele><time>2026-04-11T14:15:17.384Z</time></trkpt><trkpt lat="37.1765022" lon="-2.2822946"><ele>904.0</ele><time>2026-04-11T14:15:18.384Z</time></trkpt><trkpt lat="37.1766666" lon="-2.2820954"><ele>914.0</ele><time>2026-04-11T14:15:19.383Z</time></trkpt><trkpt lat="37.176833" lon="-2.2818877"><ele>914.0</ele><time>2026-04-11T14:15:20.383Z</time></trkpt><trkpt lat="37.1769924" lon="-2.2816816"><ele>914.0</ele><time>2026-04-11T14:15:21.384Z</time></trkpt><trkpt lat="37.1771464" lon="-2.2814684"><ele>915.3333333333334</ele><time>2026-04-11T14:15:22.384Z</time></trkpt><trkpt lat="37.177279" lon="-2.2812507"><ele>916.6666666666667</ele><time>2026-04-11T14:15:23.384Z</time></trkpt><trkpt lat="37.1773823" lon="-2.2809935"><ele>918.0</ele><time>2026-04-11T14:15:24.383Z</time></trkpt><trkpt lat="37.1774537" lon="-2.2807274"><ele>923.0</ele><time>2026-04-11T14:15:25.384Z</time></trkpt><trkpt lat="37.1775108" lon="-2.2804581"><ele>928.0</ele><time>2026-04-11T14:15:26.384Z</time></trkpt><trkpt lat="37.1775657" lon="-2.2801899"><ele>933.0</ele><time>2026-04-11T14:15:27.384Z</time></trkpt><trkpt lat="37.1776216" lon="-2.2799248"><ele>930.0</ele><time>2026-04-11T14:15:28.384Z</time></trkpt><trkpt lat="37.1776735" lon="-2.2796521"><ele>927.0</ele><time>2026-04-11T14:15:29.384Z</time></trkpt><trkpt lat="37.1777314" lon="-2.2793846"><ele>924.0</ele><time>2026-04-11T14:15:30.384Z</time></trkpt><trkpt lat="37.1778214" lon="-2.2791246"><ele>920.3333333333333</ele><time>2026-04-11T14:15:31.384Z</time></trkpt><trkpt lat="37.1779392" lon="-2.2788961"><ele>916.6666666666666</ele><time>2026-04-11T14:15:32.384Z</time></trkpt><trkpt lat="37.178078" lon="-2.2786894"><ele>913.0</ele><time>2026-04-11T14:15:33.384Z</time></trkpt><trkpt lat="37.1782524" lon="-2.2785341"><ele>921.6666666666666</ele><time>2026-04-11T14:15:34.384Z</time></trkpt><trkpt lat="37.1784517" lon="-2.2784211"><ele>930.3333333333333</ele><time>2026-04-11T14:15:35.384Z</time></trkpt><trkpt lat="37.1786597" lon="-2.2783629"><ele>939.0</ele><time>2026-04-11T14:15:36.384Z</time></trkpt><trkpt lat="37.1788734" lon="-2.2783455"><ele>940.0</ele><time>2026-04-11T14:15:37.384Z</time></trkpt><trkpt lat="37.1790843" lon="-2.2783783"><ele>941.0</ele><time>2026-04-11T14:15:38.384Z</time></trkpt><trkpt lat="37.1792866" lon="-2.2784624"><ele>942.0</ele><time>2026-04-11T14:15:39.384Z</time></trkpt><trkpt lat="37.1794697" lon="-2.2785946"><ele>942.0</ele><time>2026-04-11T14:15:40.383Z</time></trkpt><trkpt lat="37.1796297" lon="-2.2787697"><ele>942.0</ele><time>2026-04-11T14:15:41.384Z</time></trkpt><trkpt lat="37.1797729" lon="-2.2789617"><ele>942.0</ele><time>2026-04-11T14:15:42.384Z</time></trkpt><trkpt lat="37.1799098" lon="-2.2791634"><ele>942.3333333333333</ele><time>2026-04-11T14:15:43.383Z</time></trkpt><trkpt lat="37.1800435" lon="-2.2793699"><ele>942.6666666666666</ele><time>2026-04-11T14:15:44.384Z</time></trkpt><trkpt lat="37.1801726" lon="-2.2795796"><ele>943.0</ele><time>2026-04-11T14:15:45.383Z</time></trkpt><trkpt lat="37.1803015" lon="-2.2797859"><ele>944.0</ele><time>2026-04-11T14:15:46.384Z</time></trkpt><trkpt lat="37.180433" lon="-2.2799896"><ele>945.0</ele><time>2026-04-11T14:15:47.384Z</time></trkpt><trkpt lat="37.1805656" lon="-2.2801944"><ele>946.0</ele><time>2026-04-11T14:15:48.384Z</time></trkpt><trkpt lat="37.1807049" lon="-2.2803907"><ele>946.0</ele><time>2026-04-11T14:15:49.384Z</time></trkpt><trkpt lat="37.1808569" lon="-2.2805693"><ele>946.0</ele><time>2026-04-11T14:15:50.384Z</time></trkpt><trkpt lat="37.1810127" lon="-2.2807332"><ele>946.0</ele><time>2026-04-11T14:15:51.384Z</time></trkpt><trkpt lat="37.1811915" lon="-2.2808647"><ele>950.6666666666666</ele><time>2026-04-11T14:15:52.384Z</time></trkpt><trkpt lat="37.1813753" lon="-2.2809763"><ele>955.3333333333333</ele><time>2026-04-11T14:15:53.383Z</time></trkpt><trkpt lat="37.1815623" lon="-2.2810636"><ele>960.0</ele><time>2026-04-11T14:15:54.384Z</time></trkpt><trkpt lat="37.1817602" lon="-2.2811354"><ele>960.0</ele><time>2026-04-11T14:15:55.384Z</time></trkpt><trkpt lat="37.1819615" lon="-2.28118"><ele>960.0</ele><time>2026-04-11T14:15:56.384Z</time></trkpt><trkpt lat="37.1821664" lon="-2.2812094"><ele>960.0</ele><time>2026-04-11T14:15:57.384Z</time></trkpt><trkpt lat="37.1823711" lon="-2.2812177"><ele>962.6666666666667</ele><time>2026-04-11T14:15:58.384Z</time></trkpt><trkpt lat="37.1825717" lon="-2.2812191"><ele>965.3333333333334</ele><time>2026-04-11T14:15:59.383Z</time></trkpt><trkpt lat="37.1827747" lon="-2.2812227"><ele>968.0</ele><time>2026-04-11T14:16:00.384Z</time></trkpt><trkpt lat="37.1829768" lon="-2.2812241"><ele>968.0</ele><time>2026-04-11T14:16:01.384Z</time></trkpt><trkpt lat="37.1831772" lon="-2.2812263"><ele>968.0</ele><time>2026-04-11T14:16:02.384Z</time></trkpt><trkpt lat="37.1833834" lon="-2.2812273"><ele>968.0</ele><time>2026-04-11T14:16:03.384Z</time></trkpt><trkpt lat="37.1835908" lon="-2.2812224"><ele>972.3333333333334</ele><time>2026-04-11T14:16:04.384Z</time></trkpt><trkpt lat="37.183797" lon="-2.2812139"><ele>976.6666666666667</ele><time>2026-04-11T14:16:05.383Z</time></trkpt><trkpt lat="37.1840041" lon="-2.2811939"><ele>981.0</ele><time>2026-04-11T14:16:06.384Z</time></trkpt><trkpt lat="37.1842178" lon="-2.2811603"><ele>981.0</ele><time>2026-04-11T14:16:07.384Z</time></trkpt><trkpt lat="37.1844416" lon="-2.2811097"><ele>981.0</ele><time>2026-04-11T14:16:08.384Z</time></trkpt><trkpt lat="37.1846375" lon="-2.2810562"><ele>981.0</ele><time>2026-04-11T14:16:09.384Z</time></trkpt><trkpt lat="37.1848406" lon="-2.2809997"><ele>981.0</ele><time>2026-04-11T14:16:10.384Z</time></trkpt><trkpt lat="37.1850465" lon="-2.2809418"><ele>981.0</ele><time>2026-04-11T14:16:11.384Z</time></trkpt><trkpt lat="37.1852566" lon="-2.2808801"><ele>981.0</ele><time>2026-04-11T14:16:12.383Z</time></trkpt><trkpt lat="37.185464" lon="-2.2808243"><ele>984.0</ele><time>2026-04-11T14:16:13.383Z</time></trkpt><trkpt lat="37.1856803" lon="-2.280778"><ele>987.0</ele><time>2026-04-11T14:16:14.383Z</time></trkpt><trkpt lat="37.1858942" lon="-2.2807471"><ele>990.0</ele><time>2026-04-11T14:16:15.384Z</time></trkpt><trkpt lat="37.1861105" lon="-2.280727"><ele>990.0</ele><time>2026-04-11T14:16:16.384Z</time></trkpt><trkpt lat="37.1863316" lon="-2.2807231"><ele>990.0</ele><time>2026-04-11T14:16:17.383Z</time></trkpt><trkpt lat="37.1865527" lon="-2.28074"><ele>990.0</ele><time>2026-04-11T14:16:18.384Z</time></trkpt><trkpt lat="37.186768" lon="-2.2807757"><ele>992.0</ele><time>2026-04-11T14:16:19.384Z</time></trkpt><trkpt lat="37.1869815" lon="-2.2808291"><ele>994.0</ele><time>2026-04-11T14:16:20.384Z</time></trkpt><trkpt lat="37.1871912" lon="-2.2808928"><ele>996.0</ele><time>2026-04-11T14:16:21.383Z</time></trkpt><trkpt lat="37.187398" lon="-2.2809756"><ele>996.3333333333333</ele><time>2026-04-11T14:16:22.383Z</time></trkpt><trkpt lat="37.1876022" lon="-2.2810714"><ele>996.6666666666666</ele><time>2026-04-11T14:16:23.384Z</time></trkpt><trkpt lat="37.1878002" lon="-2.2811847"><ele>997.0</ele><time>2026-04-11T14:16:24.384Z</time></trkpt><trkpt lat="37.1879888" lon="-2.2813097"><ele>1000.6666666666666</ele><time>2026-04-11T14:16:25.384Z</time></trkpt><trkpt lat="37.1881759" lon="-2.2814453"><ele>1004.3333333333333</ele><time>2026-04-11T14:16:26.383Z</time></trkpt><trkpt lat="37.1883589" lon="-2.2815872"><ele>1008.0</ele><time>2026-04-11T14:16:27.384Z</time></trkpt><trkpt lat="37.1885368" lon="-2.2817296"><ele>1009.0</ele><time>2026-04-11T14:16:28.384Z</time></trkpt><trkpt lat="37.1887197" lon="-2.2818764"><ele>1010.0</ele><time>2026-04-11T14:16:29.384Z</time></trkpt><trkpt lat="37.1889031" lon="-2.2820223"><ele>1011.0</ele><time>2026-04-11T14:16:30.383Z</time></trkpt><trkpt lat="37.1890864" lon="-2.2821706"><ele>1016.0</ele><time>2026-04-11T14:16:31.384Z</time></trkpt><trkpt lat="37.189266" lon="-2.2823206"><ele>1021.0</ele><time>2026-04-11T14:16:32.383Z</time></trkpt><trkpt lat="37.1897902" lon="-2.282788"><ele>1022.0</ele><time>2026-04-11T14:16:35.384Z</time></trkpt><trkpt lat="37.1899816" lon="-2.2829844"><ele>1023.0</ele><time>2026-04-11T14:16:36.624Z</time></trkpt><trkpt lat="37.1902674" lon="-2.2833238"><ele>1022.6666666666667</ele><time>2026-04-11T14:16:38.383Z</time></trkpt><trkpt lat="37.1904255" lon="-2.2835077"><ele>1022.3333333333334</ele><time>2026-04-11T14:16:39.384Z</time></trkpt><trkpt lat="37.1905829" lon="-2.2836904"><ele>1022.0</ele><time>2026-04-11T14:16:40.383Z</time></trkpt><trkpt lat="37.1907399" lon="-2.2838725"><ele>1027.6666666666667</ele><time>2026-04-11T14:16:41.384Z</time></trkpt><trkpt lat="37.1908971" lon="-2.2840523"><ele>1033.3333333333333</ele><time>2026-04-11T14:16:42.384Z</time></trkpt><trkpt lat="37.1910517" lon="-2.284232"><ele>1039.0</ele><time>2026-04-11T14:16:43.384Z</time></trkpt><trkpt lat="37.1912064" lon="-2.2844089"><ele>1039.0</ele><time>2026-04-11T14:16:44.384Z</time></trkpt><trkpt lat="37.1913626" lon="-2.2845851"><ele>1039.0</ele><time>2026-04-11T14:16:45.384Z</time></trkpt><trkpt lat="37.1915167" lon="-2.284762"><ele>1039.0</ele><time>2026-04-11T14:16:46.384Z</time></trkpt><trkpt lat="37.1916619" lon="-2.284948"><ele>1041.3333333333333</ele><time>2026-04-11T14:16:47.384Z</time></trkpt><trkpt lat="37.191796" lon="-2.2851488"><ele>1043.6666666666667</ele><time>2026-04-11T14:16:48.384Z</time></trkpt><trkpt lat="37.1919105" lon="-2.2853641"><ele>1046.0</ele><time>2026-04-11T14:16:49.384Z</time></trkpt><trkpt lat="37.1920092" lon="-2.285594"><ele>1050.3333333333335</ele><time>2026-04-11T14:16:50.384Z</time></trkpt><trkpt lat="37.1920803" lon="-2.2858343"><ele>1054.6666666666667</ele><time>2026-04-11T14:16:51.383Z</time></trkpt><trkpt lat="37.19212" lon="-2.2860859"><ele>1059.0</ele><time>2026-04-11T14:16:52.384Z</time></trkpt><trkpt lat="37.192141" lon="-2.2863415"><ele>1057.6666666666667</ele><time>2026-04-11T14:16:53.384Z</time></trkpt><trkpt lat="37.1921414" lon="-2.286601"><ele>1056.3333333333335</ele><time>2026-04-11T14:16:54.384Z</time></trkpt><trkpt lat="37.1921325" lon="-2.2868604"><ele>1055.0</ele><time>2026-04-11T14:16:55.383Z</time></trkpt><trkpt lat="37.1921232" lon="-2.2871181"><ele>1054.3333333333335</ele><time>2026-04-11T14:16:56.383Z</time></trkpt><trkpt lat="37.1921114" lon="-2.2873756"><ele>1053.6666666666667</ele><time>2026-04-11T14:16:57.383Z</time></trkpt><trkpt lat="37.192098" lon="-2.2876305"><ele>1053.0</ele><time>2026-04-11T14:16:58.384Z</time></trkpt><trkpt lat="37.1920863" lon="-2.2878835"><ele>1056.3333333333333</ele><time>2026-04-11T14:16:59.384Z</time></trkpt><trkpt lat="37.1920776" lon="-2.2881375"><ele>1059.6666666666665</ele><time>2026-04-11T14:17:00.383Z</time></trkpt><trkpt lat="37.1920731" lon="-2.2883891"><ele>1063.0</ele><time>2026-04-11T14:17:01.384Z</time></trkpt><trkpt lat="37.1920697" lon="-2.288641"><ele>1063.0</ele><time>2026-04-11T14:17:02.384Z</time></trkpt><trkpt lat="37.1920795" lon="-2.2888888"><ele>1063.0</ele><time>2026-04-11T14:17:03.384Z</time></trkpt><trkpt lat="37.1921085" lon="-2.2891408"><ele>1063.0</ele><time>2026-04-11T14:17:04.384Z</time></trkpt><trkpt lat="37.1921595" lon="-2.2893709"><ele>1064.6666666666665</ele><time>2026-04-11T14:17:05.384Z</time></trkpt><trkpt lat="37.1922266" lon="-2.2896056"><ele>1066.3333333333333</ele><time>2026-04-11T14:17:06.384Z</time></trkpt><trkpt lat="37.1923022" lon="-2.2898365"><ele>1068.0</ele><time>2026-04-11T14:17:07.384Z</time></trkpt><trkpt lat="37.1923823" lon="-2.2900608"><ele>1074.0</ele><time>2026-04-11T14:17:08.384Z</time></trkpt><trkpt lat="37.1924806" lon="-2.2902752"><ele>1080.0</ele><time>2026-04-11T14:17:09.384Z</time></trkpt><trkpt lat="37.1925978" lon="-2.2904808"><ele>1086.0</ele><time>2026-04-11T14:17:10.383Z</time></trkpt><trkpt lat="37.1927389" lon="-2.2906573"><ele>1086.0</ele><time>2026-04-11T14:17:11.384Z</time></trkpt><trkpt lat="37.1929032" lon="-2.2907899"><ele>1086.0</ele><time>2026-04-11T14:17:12.383Z</time></trkpt><trkpt lat="37.1930833" lon="-2.290884"><ele>1086.0</ele><time>2026-04-11T14:17:13.384Z</time></trkpt><trkpt lat="37.1932705" lon="-2.2909372"><ele>1089.0</ele><time>2026-04-11T14:17:14.384Z</time></trkpt><trkpt lat="37.1934628" lon="-2.2909682"><ele>1092.0</ele><time>2026-04-11T14:17:15.384Z</time></trkpt><trkpt lat="37.1936558" lon="-2.2909879"><ele>1095.0</ele><time>2026-04-11T14:17:16.384Z</time></trkpt><trkpt lat="37.1938467" lon="-2.2910079"><ele>1095.3333333333333</ele><time>2026-04-11T14:17:17.384Z</time></trkpt><trkpt lat="37.1940399" lon="-2.2910299"><ele>1095.6666666666665</ele><time>2026-04-11T14:17:18.384Z</time></trkpt><trkpt lat="37.1942316" lon="-2.2910532"><ele>1096.0</ele><time>2026-04-11T14:17:19.384Z</time></trkpt><trkpt lat="37.1944248" lon="-2.2910752"><ele>1096.0</ele><time>2026-04-11T14:17:20.383Z</time></trkpt><trkpt lat="37.1946148" lon="-2.2911108"><ele>1096.0</ele><time>2026-04-11T14:17:21.384Z</time></trkpt><trkpt lat="37.1947986" lon="-2.2911668"><ele>1096.0</ele><time>2026-04-11T14:17:22.384Z</time></trkpt><trkpt lat="37.1949797" lon="-2.2912344"><ele>1096.3333333333333</ele><time>2026-04-11T14:17:23.384Z</time></trkpt><trkpt lat="37.1951575" lon="-2.2913164"><ele>1096.6666666666667</ele><time>2026-04-11T14:17:24.383Z</time></trkpt><trkpt lat="37.1953414" lon="-2.2913972"><ele>1097.0</ele><time>2026-04-11T14:17:25.384Z</time></trkpt><trkpt lat="37.1955221" lon="-2.2914744"><ele>1104.0</ele><time>2026-04-11T14:17:26.384Z</time></trkpt><trkpt lat="37.1957048" lon="-2.2915463"><ele>1111.0</ele><time>2026-04-11T14:17:27.384Z</time></trkpt><trkpt lat="37.1958897" lon="-2.2916015"><ele>1118.0</ele><time>2026-04-11T14:17:28.384Z</time></trkpt><trkpt lat="37.1960781" lon="-2.2916339"><ele>1118.0</ele><time>2026-04-11T14:17:29.384Z</time></trkpt><trkpt lat="37.1962696" lon="-2.2916366"><ele>1118.0</ele><time>2026-04-11T14:17:30.384Z</time></trkpt><trkpt lat="37.1964496" lon="-2.2915843"><ele>1118.0</ele><time>2026-04-11T14:17:31.383Z</time></trkpt><trkpt lat="37.1966309" lon="-2.2915082"><ele>1112.6666666666667</ele><time>2026-04-11T14:17:32.383Z</time></trkpt><trkpt lat="37.1967983" lon="-2.2914023"><ele>1107.3333333333333</ele><time>2026-04-11T14:17:33.384Z</time></trkpt><trkpt lat="37.196957" lon="-2.2912803"><ele>1102.0</ele><time>2026-04-11T14:17:34.384Z</time></trkpt><trkpt lat="37.1971141" lon="-2.2911522"><ele>1102.0</ele><time>2026-04-11T14:17:35.384Z</time></trkpt><trkpt lat="37.1972698" lon="-2.2910225"><ele>1102.0</ele><time>2026-04-11T14:17:36.384Z</time></trkpt><trkpt lat="37.1974309" lon="-2.2908952"><ele>1102.0</ele><time>2026-04-11T14:17:37.384Z</time></trkpt><trkpt lat="37.197592" lon="-2.2907685"><ele>1105.3333333333333</ele><time>2026-04-11T14:17:38.384Z</time></trkpt><trkpt lat="37.1977542" lon="-2.2906504"><ele>1108.6666666666667</ele><time>2026-04-11T14:17:39.383Z</time></trkpt><trkpt lat="37.1979159" lon="-2.2905449"><ele>1112.0</ele><time>2026-04-11T14:17:40.384Z</time></trkpt><trkpt lat="37.1980873" lon="-2.2904666"><ele>1115.3333333333335</ele><time>2026-04-11T14:17:41.384Z</time></trkpt><trkpt lat="37.1982646" lon="-2.2904112"><ele>1118.6666666666667</ele><time>2026-04-11T14:17:42.383Z</time></trkpt><trkpt lat="37.1984467" lon="-2.2903892"><ele>1122.0</ele><time>2026-04-11T14:17:43.384Z</time></trkpt><trkpt lat="37.1986296" lon="-2.290407"><ele>1122.0</ele><time>2026-04-11T14:17:44.384Z</time></trkpt><trkpt lat="37.1988111" lon="-2.2904426"><ele>1122.0</ele><time>2026-04-11T14:17:45.383Z</time></trkpt><trkpt lat="37.1989834" lon="-2.2904944"><ele>1122.0</ele><time>2026-04-11T14:17:46.384Z</time></trkpt><trkpt lat="37.1991594" lon="-2.2905538"><ele>1132.0</ele><time>2026-04-11T14:17:47.384Z</time></trkpt><trkpt lat="37.1993348" lon="-2.2906145"><ele>1142.0</ele><time>2026-04-11T14:17:48.384Z</time></trkpt><trkpt lat="37.1995113" lon="-2.290677"><ele>1152.0</ele><time>2026-04-11T14:17:49.383Z</time></trkpt><trkpt lat="37.1996891" lon="-2.2907381"><ele>1150.6666666666667</ele><time>2026-04-11T14:17:50.383Z</time></trkpt><trkpt lat="37.1998657" lon="-2.2908022"><ele>1149.3333333333335</ele><time>2026-04-11T14:17:51.384Z</time></trkpt><trkpt lat="37.2000436" lon="-2.2908667"><ele>1148.0</ele><time>2026-04-11T14:17:52.384Z</time></trkpt><trkpt lat="37.2002258" lon="-2.2909221"><ele>1148.0</ele><time>2026-04-11T14:17:53.384Z</time></trkpt><trkpt lat="37.2004112" lon="-2.2909724"><ele>1148.0</ele><time>2026-04-11T14:17:54.384Z</time></trkpt><trkpt lat="37.2005991" lon="-2.2910139"><ele>1148.0</ele><time>2026-04-11T14:17:55.384Z</time></trkpt><trkpt lat="37.200786" lon="-2.2910418"><ele>1149.6666666666667</ele><time>2026-04-11T14:17:56.384Z</time></trkpt><trkpt lat="37.2009796" lon="-2.2910496"><ele>1151.3333333333333</ele><time>2026-04-11T14:17:57.384Z</time></trkpt><trkpt lat="37.2011666" lon="-2.2910369"><ele>1153.0</ele><time>2026-04-11T14:17:58.384Z</time></trkpt><trkpt lat="37.2013626" lon="-2.2910104"><ele>1154.6666666666665</ele><time>2026-04-11T14:17:59.384Z</time></trkpt><trkpt lat="37.2015575" lon="-2.2909598"><ele>1156.3333333333333</ele><time>2026-04-11T14:18:00.383Z</time></trkpt><trkpt lat="37.2017499" lon="-2.2909015"><ele>1158.0</ele><time>2026-04-11T14:18:01.384Z</time></trkpt><trkpt lat="37.2019442" lon="-2.290843"><ele>1158.0</ele><time>2026-04-11T14:18:02.384Z</time></trkpt><trkpt lat="37.2021364" lon="-2.2907925"><ele>1158.0</ele><time>2026-04-11T14:18:03.383Z</time></trkpt><trkpt lat="37.2023333" lon="-2.2907703"><ele>1158.0</ele><time>2026-04-11T14:18:04.384Z</time></trkpt><trkpt lat="37.2025293" lon="-2.2907801"><ele>1160.0</ele><time>2026-04-11T14:18:05.384Z</time></trkpt><trkpt lat="37.2027227" lon="-2.2908277"><ele>1162.0</ele><time>2026-04-11T14:18:06.384Z</time></trkpt><trkpt lat="37.2029127" lon="-2.2909182"><ele>1164.0</ele><time>2026-04-11T14:18:07.384Z</time></trkpt><trkpt lat="37.2030832" lon="-2.2910471"><ele>1161.3333333333333</ele><time>2026-04-11T14:18:08.383Z</time></trkpt><trkpt lat="37.20323" lon="-2.2912157"><ele>1158.6666666666665</ele><time>2026-04-11T14:18:09.384Z</time></trkpt><trkpt lat="37.2033686" lon="-2.2914024"><ele>1156.0</ele><time>2026-04-11T14:18:10.384Z</time></trkpt><trkpt lat="37.203504" lon="-2.2915893"><ele>1162.6666666666665</ele><time>2026-04-11T14:18:11.383Z</time></trkpt><trkpt lat="37.203635" lon="-2.2917794"><ele>1169.3333333333333</ele><time>2026-04-11T14:18:12.383Z</time></trkpt><trkpt lat="37.2037704" lon="-2.2919679"><ele>1176.0</ele><time>2026-04-11T14:18:13.384Z</time></trkpt><trkpt lat="37.2039012" lon="-2.2921558"><ele>1177.0</ele><time>2026-04-11T14:18:14.383Z</time></trkpt><trkpt lat="37.2040353" lon="-2.2923432"><ele>1178.0</ele><time>2026-04-11T14:18:15.384Z</time></trkpt><trkpt lat="37.2041699" lon="-2.2925335"><ele>1179.0</ele><time>2026-04-11T14:18:16.383Z</time></trkpt><trkpt lat="37.2042968" lon="-2.2927253"><ele>1179.0</ele><time>2026-04-11T14:18:17.383Z</time></trkpt><trkpt lat="37.2044304" lon="-2.2929107"><ele>1179.0</ele><time>2026-04-11T14:18:18.384Z</time></trkpt><trkpt lat="37.2045831" lon="-2.293065"><ele>1179.0</ele><time>2026-04-11T14:18:19.384Z</time></trkpt><trkpt lat="37.2047583" lon="-2.2931804"><ele>1184.0</ele><time>2026-04-11T14:18:20.384Z</time></trkpt><trkpt lat="37.2049437" lon="-2.2932491"><ele>1189.0</ele><time>2026-04-11T14:18:21.384Z</time></trkpt><trkpt lat="37.2051367" lon="-2.2932623"><ele>1194.0</ele><time>2026-04-11T14:18:22.384Z</time></trkpt><trkpt lat="37.2053247" lon="-2.2932175"><ele>1194.0</ele><time>2026-04-11T14:18:23.384Z</time></trkpt><trkpt lat="37.205503" lon="-2.2931205"><ele>1194.0</ele><time>2026-04-11T14:18:24.383Z</time></trkpt><trkpt lat="37.2056672" lon="-2.2929923"><ele>1194.0</ele><time>2026-04-11T14:18:25.384Z</time></trkpt><trkpt lat="37.2057877" lon="-2.2928078"><ele>1193.0</ele><time>2026-04-11T14:18:26.384Z</time></trkpt><trkpt lat="37.2058739" lon="-2.292595"><ele>1192.0</ele><time>2026-04-11T14:18:27.384Z</time></trkpt><trkpt lat="37.2059274" lon="-2.2923631"><ele>1191.0</ele><time>2026-04-11T14:18:28.384Z</time></trkpt><trkpt lat="37.2059558" lon="-2.2921218"><ele>1191.0</ele><time>2026-04-11T14:18:29.384Z</time></trkpt><trkpt lat="37.2059806" lon="-2.2918821"><ele>1191.0</ele><time>2026-04-11T14:18:30.384Z</time></trkpt><trkpt lat="37.2060103" lon="-2.2916425"><ele>1191.0</ele><time>2026-04-11T14:18:31.383Z</time></trkpt><trkpt lat="37.2060424" lon="-2.2913985"><ele>1189.0</ele><time>2026-04-11T14:18:32.384Z</time></trkpt><trkpt lat="37.2060763" lon="-2.2911597"><ele>1187.0</ele><time>2026-04-11T14:18:33.383Z</time></trkpt><trkpt lat="37.2061294" lon="-2.2909197"><ele>1185.0</ele><time>2026-04-11T14:18:34.384Z</time></trkpt><trkpt lat="37.2062023" lon="-2.2906878"><ele>1180.6666666666667</ele><time>2026-04-11T14:18:35.383Z</time></trkpt><trkpt lat="37.2062995" lon="-2.2904696"><ele>1176.3333333333335</ele><time>2026-04-11T14:18:36.384Z</time></trkpt><trkpt lat="37.2064149" lon="-2.2902681"><ele>1172.0</ele><time>2026-04-11T14:18:37.384Z</time></trkpt><trkpt lat="37.2065533" lon="-2.2900848"><ele>1175.6666666666667</ele><time>2026-04-11T14:18:38.384Z</time></trkpt><trkpt lat="37.2067089" lon="-2.289913"><ele>1179.3333333333333</ele><time>2026-04-11T14:18:39.383Z</time></trkpt><trkpt lat="37.2068679" lon="-2.2897518"><ele>1183.0</ele><time>2026-04-11T14:18:40.384Z</time></trkpt><trkpt lat="37.207031" lon="-2.2895925"><ele>1183.0</ele><time>2026-04-11T14:18:41.383Z</time></trkpt><trkpt lat="37.2071943" lon="-2.2894341"><ele>1183.0</ele><time>2026-04-11T14:18:42.384Z</time></trkpt><trkpt lat="37.20736" lon="-2.2892716"><ele>1183.0</ele><time>2026-04-11T14:18:43.384Z</time></trkpt><trkpt lat="37.2075259" lon="-2.2891075"><ele>1186.3333333333333</ele><time>2026-04-11T14:18:44.384Z</time></trkpt><trkpt lat="37.2076933" lon="-2.2889442"><ele>1189.6666666666667</ele><time>2026-04-11T14:18:45.384Z</time></trkpt><trkpt lat="37.2078585" lon="-2.2887838"><ele>1193.0</ele><time>2026-04-11T14:18:46.384Z</time></trkpt><trkpt lat="37.2080245" lon="-2.2886203"><ele>1194.6666666666667</ele><time>2026-04-11T14:18:47.384Z</time></trkpt><trkpt lat="37.208188" lon="-2.2884532"><ele>1196.3333333333333</ele><time>2026-04-11T14:18:48.384Z</time></trkpt><trkpt lat="37.2083422" lon="-2.2882744"><ele>1198.0</ele><time>2026-04-11T14:18:49.383Z</time></trkpt><trkpt lat="37.208476" lon="-2.2880678"><ele>1198.0</ele><time>2026-04-11T14:18:50.384Z</time></trkpt><trkpt lat="37.2085908" lon="-2.2878451"><ele>1198.0</ele><time>2026-04-11T14:18:51.384Z</time></trkpt><trkpt lat="37.2087022" lon="-2.2876217"><ele>1198.0</ele><time>2026-04-11T14:18:52.384Z</time></trkpt><trkpt lat="37.2088219" lon="-2.2874043"><ele>1193.3333333333333</ele><time>2026-04-11T14:18:53.384Z</time></trkpt><trkpt lat="37.208961" lon="-2.2872086"><ele>1188.6666666666667</ele><time>2026-04-11T14:18:54.384Z</time></trkpt><trkpt lat="37.2091155" lon="-2.2870418"><ele>1184.0</ele><time>2026-04-11T14:18:55.384Z</time></trkpt><trkpt lat="37.2092805" lon="-2.2868885"><ele>1196.0</ele><time>2026-04-11T14:18:56.384Z</time></trkpt><trkpt lat="37.2094487" lon="-2.2867357"><ele>1208.0</ele><time>2026-04-11T14:18:57.384Z</time></trkpt><trkpt lat="37.2096162" lon="-2.286574"><ele>1220.0</ele><time>2026-04-11T14:18:58.384Z</time></trkpt><trkpt lat="37.2097632" lon="-2.2863986"><ele>1228.6666666666667</ele><time>2026-04-11T14:18:59.383Z</time></trkpt><trkpt lat="37.2098848" lon="-2.2862102"><ele>1237.3333333333333</ele><time>2026-04-11T14:19:00.384Z</time></trkpt><trkpt lat="37.2099739" lon="-2.2859734"><ele>1246.0</ele><time>2026-04-11T14:19:01.384Z</time></trkpt><trkpt lat="37.2100527" lon="-2.2857294"><ele>1246.0</ele><time>2026-04-11T14:19:02.384Z</time></trkpt><trkpt lat="37.2101246" lon="-2.2854929"><ele>1246.0</ele><time>2026-04-11T14:19:03.384Z</time></trkpt><trkpt lat="37.2102128" lon="-2.2852633"><ele>1246.0</ele><time>2026-04-11T14:19:04.384Z</time></trkpt><trkpt lat="37.2103214" lon="-2.2850501"><ele>1246.0</ele><time>2026-04-11T14:19:05.384Z</time></trkpt><trkpt lat="37.2104661" lon="-2.2848611"><ele>1246.0</ele><time>2026-04-11T14:19:06.384Z</time></trkpt><trkpt lat="37.2106351" lon="-2.2847014"><ele>1246.0</ele><time>2026-04-11T14:19:07.383Z</time></trkpt><trkpt lat="37.2108192" lon="-2.2845769"><ele>1243.0</ele><time>2026-04-11T14:19:08.384Z</time></trkpt><trkpt lat="37.2110563" lon="-2.28451"><ele>1240.0</ele><time>2026-04-11T14:19:09.384Z</time></trkpt><trkpt lat="37.2112903" lon="-2.284493"><ele>1233.5</ele><time>2026-04-11T14:19:10.384Z</time></trkpt><trkpt lat="37.2115335" lon="-2.2845187"><ele>1227.0</ele><time>2026-04-11T14:19:11.384Z</time></trkpt><trkpt lat="37.2117621" lon="-2.2846005"><ele>1227.0</ele><time>2026-04-11T14:19:12.384Z</time></trkpt><trkpt lat="37.2119558" lon="-2.284732"><ele>1227.0</ele><time>2026-04-11T14:19:13.384Z</time></trkpt><trkpt lat="37.2121211" lon="-2.2849002"><ele>1227.0</ele><time>2026-04-11T14:19:14.384Z</time></trkpt><trkpt lat="37.2122641" lon="-2.2850978"><ele>1227.0</ele><time>2026-04-11T14:19:15.384Z</time></trkpt><trkpt lat="37.212384" lon="-2.2853231"><ele>1227.0</ele><time>2026-04-11T14:19:16.384Z</time></trkpt><trkpt lat="37.2124621" lon="-2.2855722"><ele>1227.0</ele><time>2026-04-11T14:19:17.384Z</time></trkpt><trkpt lat="37.2125064" lon="-2.2858364"><ele>1227.0</ele><time>2026-04-11T14:19:18.384Z</time></trkpt><trkpt lat="37.2125357" lon="-2.2860978"><ele>1227.0</ele><time>2026-04-11T14:19:19.383Z</time></trkpt><trkpt lat="37.2125641" lon="-2.286346"><ele>1227.0</ele><time>2026-04-11T14:19:20.384Z</time></trkpt><trkpt lat="37.2125951" lon="-2.2865828"><ele>1227.6666666666667</ele><time>2026-04-11T14:19:21.384Z</time></trkpt><trkpt lat="37.2126222" lon="-2.2867991"><ele>1228.3333333333335</ele><time>2026-04-11T14:19:22.384Z</time></trkpt><trkpt lat="37.2126503" lon="-2.2870109"><ele>1229.0</ele><time>2026-04-11T14:19:23.384Z</time></trkpt><trkpt lat="37.212674" lon="-2.2872233"><ele>1230.0</ele><time>2026-04-11T14:19:24.384Z</time></trkpt><trkpt lat="37.2126972" lon="-2.2874335"><ele>1231.0</ele><time>2026-04-11T14:19:25.384Z</time></trkpt><trkpt lat="37.2127149" lon="-2.2876422"><ele>1232.0</ele><time>2026-04-11T14:19:26.383Z</time></trkpt><trkpt lat="37.2127182" lon="-2.287851"><ele>1232.0</ele><time>2026-04-11T14:19:27.384Z</time></trkpt><trkpt lat="37.2127004" lon="-2.2880602"><ele>1232.0</ele><time>2026-04-11T14:19:28.383Z</time></trkpt><trkpt lat="37.2126597" lon="-2.2882564"><ele>1232.0</ele><time>2026-04-11T14:19:29.384Z</time></trkpt><trkpt lat="37.2125929" lon="-2.2884467"><ele>1231.0</ele><time>2026-04-11T14:19:30.384Z</time></trkpt><trkpt lat="37.2125091" lon="-2.2886222"><ele>1230.0</ele><time>2026-04-11T14:19:31.384Z</time></trkpt><trkpt lat="37.2124182" lon="-2.2887962"><ele>1229.0</ele><time>2026-04-11T14:19:32.384Z</time></trkpt><trkpt lat="37.2123208" lon="-2.2889702"><ele>1232.3333333333335</ele><time>2026-04-11T14:19:33.383Z</time></trkpt><trkpt lat="37.2122266" lon="-2.2891496"><ele>1235.6666666666667</ele><time>2026-04-11T14:19:34.384Z</time></trkpt><trkpt lat="37.2121404" lon="-2.2893386"><ele>1239.0</ele><time>2026-04-11T14:19:35.384Z</time></trkpt><trkpt lat="37.2120738" lon="-2.2895421"><ele>1235.6666666666667</ele><time>2026-04-11T14:19:36.384Z</time></trkpt><trkpt lat="37.2120291" lon="-2.2897642"><ele>1232.3333333333335</ele><time>2026-04-11T14:19:37.384Z</time></trkpt><trkpt lat="37.2120136" lon="-2.2900047"><ele>1229.0</ele><time>2026-04-11T14:19:38.384Z</time></trkpt><trkpt lat="37.2120268" lon="-2.2902546"><ele>1229.0</ele><time>2026-04-11T14:19:39.384Z</time></trkpt><trkpt lat="37.2120706" lon="-2.2904888"><ele>1229.0</ele><time>2026-04-11T14:19:40.384Z</time></trkpt><trkpt lat="37.2121362" lon="-2.2907094"><ele>1229.0</ele><time>2026-04-11T14:19:41.384Z</time></trkpt><trkpt lat="37.212225" lon="-2.2909105"><ele>1219.0</ele><time>2026-04-11T14:19:42.384Z</time></trkpt><trkpt lat="37.2123372" lon="-2.2910993"><ele>1209.0</ele><time>2026-04-11T14:19:43.384Z</time></trkpt><trkpt lat="37.2124587" lon="-2.2912629"><ele>1199.0</ele><time>2026-04-11T14:19:44.383Z</time></trkpt><trkpt lat="37.212576" lon="-2.2914161"><ele>1204.0</ele><time>2026-04-11T14:19:45.384Z</time></trkpt><trkpt lat="37.2126882" lon="-2.291578"><ele>1209.0</ele><time>2026-04-11T14:19:46.384Z</time></trkpt><trkpt lat="37.2127944" lon="-2.2917513"><ele>1214.0</ele><time>2026-04-11T14:19:47.383Z</time></trkpt><trkpt lat="37.2128827" lon="-2.2919468"><ele>1214.0</ele><time>2026-04-11T14:19:48.384Z</time></trkpt><trkpt lat="37.2129413" lon="-2.2921669"><ele>1214.0</ele><time>2026-04-11T14:19:49.384Z</time></trkpt><trkpt lat="37.2129742" lon="-2.292404"><ele>1214.0</ele><time>2026-04-11T14:19:50.384Z</time></trkpt><trkpt lat="37.2129761" lon="-2.2926455"><ele>1215.6666666666667</ele><time>2026-04-11T14:19:51.384Z</time></trkpt><trkpt lat="37.2129727" lon="-2.2928778"><ele>1217.3333333333333</ele><time>2026-04-11T14:19:52.384Z</time></trkpt><trkpt lat="37.2129686" lon="-2.2930922"><ele>1219.0</ele><time>2026-04-11T14:19:53.384Z</time></trkpt><trkpt lat="37.2129818" lon="-2.2933037"><ele>1215.6666666666665</ele><time>2026-04-11T14:19:54.383Z</time></trkpt><trkpt lat="37.2130326" lon="-2.2935077"><ele>1212.3333333333333</ele><time>2026-04-11T14:19:55.384Z</time></trkpt><trkpt lat="37.213125" lon="-2.293693"><ele>1209.0</ele><time>2026-04-11T14:19:56.384Z</time></trkpt><trkpt lat="37.2132555" lon="-2.2938437"><ele>1204.0</ele><time>2026-04-11T14:19:57.384Z</time></trkpt><trkpt lat="37.2134051" lon="-2.2939762"><ele>1199.0</ele><time>2026-04-11T14:19:58.384Z</time></trkpt><trkpt lat="37.2135539" lon="-2.2941025"><ele>1194.0</ele><time>2026-04-11T14:19:59.384Z</time></trkpt><trkpt lat="37.2136888" lon="-2.2942311"><ele>1194.0</ele><time>2026-04-11T14:20:00.384Z</time></trkpt><trkpt lat="37.21382" lon="-2.2943702"><ele>1194.0</ele><time>2026-04-11T14:20:01.384Z</time></trkpt><trkpt lat="37.21394" lon="-2.2945208"><ele>1194.0</ele><time>2026-04-11T14:20:02.384Z</time></trkpt><trkpt lat="37.2140565" lon="-2.2946812"><ele>1191.6666666666667</ele><time>2026-04-11T14:20:03.384Z</time></trkpt><trkpt lat="37.2141655" lon="-2.2948375"><ele>1189.3333333333335</ele><time>2026-04-11T14:20:04.384Z</time></trkpt><trkpt lat="37.2142827" lon="-2.2949787"><ele>1187.0</ele><time>2026-04-11T14:20:05.384Z</time></trkpt><trkpt lat="37.2144086" lon="-2.2950885"><ele>1187.0</ele><time>2026-04-11T14:20:06.384Z</time></trkpt><trkpt lat="37.2145536" lon="-2.2951688"><ele>1187.0</ele><time>2026-04-11T14:20:07.383Z</time></trkpt><trkpt lat="37.2147061" lon="-2.2952019"><ele>1187.0</ele><time>2026-04-11T14:20:08.384Z</time></trkpt><trkpt lat="37.2148652" lon="-2.2951872"><ele>1184.75</ele><time>2026-04-11T14:20:09.384Z</time></trkpt><trkpt lat="37.2150159" lon="-2.2951264"><ele>1182.5</ele><time>2026-04-11T14:20:10.384Z</time></trkpt><trkpt lat="37.2151398" lon="-2.295026"><ele>1180.25</ele><time>2026-04-11T14:20:11.384Z</time></trkpt><trkpt lat="37.2152424" lon="-2.2949006"><ele>1178.0</ele><time>2026-04-11T14:20:12.383Z</time></trkpt><trkpt lat="37.2153341" lon="-2.2947556"><ele>1171.3333333333335</ele><time>2026-04-11T14:20:13.383Z</time></trkpt><trkpt lat="37.21542" lon="-2.2946047"><ele>1164.6666666666667</ele><time>2026-04-11T14:20:14.383Z</time></trkpt><trkpt lat="37.2155002" lon="-2.2944433"><ele>1158.0</ele><time>2026-04-11T14:20:15.384Z</time></trkpt><trkpt lat="37.2155809" lon="-2.2942737"><ele>1155.3333333333333</ele><time>2026-04-11T14:20:16.384Z</time></trkpt><trkpt lat="37.2156609" lon="-2.2941029"><ele>1152.6666666666665</ele><time>2026-04-11T14:20:17.384Z</time></trkpt><trkpt lat="37.2157452" lon="-2.2939312"><ele>1150.0</ele><time>2026-04-11T14:20:18.384Z</time></trkpt><trkpt lat="37.2158369" lon="-2.2937697"><ele>1150.0</ele><time>2026-04-11T14:20:19.384Z</time></trkpt><trkpt lat="37.2159408" lon="-2.2936326"><ele>1150.0</ele><time>2026-04-11T14:20:20.384Z</time></trkpt><trkpt lat="37.2160728" lon="-2.2935321"><ele>1150.0</ele><time>2026-04-11T14:20:21.384Z</time></trkpt><trkpt lat="37.2162241" lon="-2.2934712"><ele>1150.0</ele><time>2026-04-11T14:20:22.384Z</time></trkpt><trkpt lat="37.2163845" lon="-2.293451"><ele>1150.0</ele><time>2026-04-11T14:20:23.384Z</time></trkpt><trkpt lat="37.2165468" lon="-2.2934747"><ele>1150.0</ele><time>2026-04-11T14:20:24.384Z</time></trkpt><trkpt lat="37.2167007" lon="-2.2935411"><ele>1152.3333333333333</ele><time>2026-04-11T14:20:25.383Z</time></trkpt><trkpt lat="37.2168384" lon="-2.2936484"><ele>1154.6666666666667</ele><time>2026-04-11T14:20:26.383Z</time></trkpt><trkpt lat="37.2169362" lon="-2.2937862"><ele>1157.0</ele><time>2026-04-11T14:20:27.384Z</time></trkpt><trkpt lat="37.2170178" lon="-2.2939324"><ele>1161.6666666666667</ele><time>2026-04-11T14:20:28.384Z</time></trkpt><trkpt lat="37.2170594" lon="-2.294116"><ele>1166.3333333333333</ele><time>2026-04-11T14:20:29.384Z</time></trkpt><trkpt lat="37.2170749" lon="-2.2943027"><ele>1171.0</ele><time>2026-04-11T14:20:30.384Z</time></trkpt><trkpt lat="37.2170609" lon="-2.2944894"><ele>1171.0</ele><time>2026-04-11T14:20:31.384Z</time></trkpt><trkpt lat="37.2170232" lon="-2.2946721"><ele>1171.0</ele><time>2026-04-11T14:20:32.384Z</time></trkpt><trkpt lat="37.2169769" lon="-2.294856"><ele>1171.0</ele><time>2026-04-11T14:20:33.384Z</time></trkpt><trkpt lat="37.2169249" lon="-2.295039"><ele>1169.6666666666665</ele><time>2026-04-11T14:20:34.384Z</time></trkpt><trkpt lat="37.2168689" lon="-2.2952293"><ele>1168.3333333333333</ele><time>2026-04-11T14:20:35.383Z</time></trkpt><trkpt lat="37.2168107" lon="-2.2954223"><ele>1167.0</ele><time>2026-04-11T14:20:36.384Z</time></trkpt><trkpt lat="37.2167526" lon="-2.2956208"><ele>1164.6666666666667</ele><time>2026-04-11T14:20:37.384Z</time></trkpt><trkpt lat="37.2166952" lon="-2.2958222"><ele>1162.3333333333335</ele><time>2026-04-11T14:20:38.383Z</time></trkpt><trkpt lat="37.2166388" lon="-2.2960205"><ele>1160.0</ele><time>2026-04-11T14:20:39.384Z</time></trkpt><trkpt lat="37.2165843" lon="-2.2962216"><ele>1160.0</ele><time>2026-04-11T14:20:40.384Z</time></trkpt><trkpt lat="37.216534" lon="-2.2964152"><ele>1160.0</ele><time>2026-04-11T14:20:41.384Z</time></trkpt><trkpt lat="37.2164997" lon="-2.2965939"><ele>1160.0</ele><time>2026-04-11T14:20:42.384Z</time></trkpt><trkpt lat="37.2164909" lon="-2.2967874"><ele>1156.0</ele><time>2026-04-11T14:20:43.384Z</time></trkpt><trkpt lat="37.2165048" lon="-2.2969822"><ele>1152.0</ele><time>2026-04-11T14:20:44.384Z</time></trkpt><trkpt lat="37.2165458" lon="-2.2971681"><ele>1148.0</ele><time>2026-04-11T14:20:45.384Z</time></trkpt><trkpt lat="37.2166189" lon="-2.2973372"><ele>1147.6666666666667</ele><time>2026-04-11T14:20:46.383Z</time></trkpt><trkpt lat="37.2167194" lon="-2.2974877"><ele>1147.3333333333333</ele><time>2026-04-11T14:20:47.384Z</time></trkpt><trkpt lat="37.2168403" lon="-2.2976148"><ele>1147.0</ele><time>2026-04-11T14:20:48.384Z</time></trkpt><trkpt lat="37.2169788" lon="-2.2977083"><ele>1147.0</ele><time>2026-04-11T14:20:49.384Z</time></trkpt><trkpt lat="37.2171326" lon="-2.2977632"><ele>1147.0</ele><time>2026-04-11T14:20:50.383Z</time></trkpt><trkpt lat="37.2172794" lon="-2.2977761"><ele>1147.0</ele><time>2026-04-11T14:20:51.384Z</time></trkpt><trkpt lat="37.2174233" lon="-2.2977577"><ele>1145.0</ele><time>2026-04-11T14:20:52.384Z</time></trkpt><trkpt lat="37.2175634" lon="-2.2977106"><ele>1143.0</ele><time>2026-04-11T14:20:53.384Z</time></trkpt><trkpt lat="37.217702" lon="-2.2976329"><ele>1141.0</ele><time>2026-04-11T14:20:54.384Z</time></trkpt><trkpt lat="37.2178347" lon="-2.2975082"><ele>1141.0</ele><time>2026-04-11T14:20:55.384Z</time></trkpt><trkpt lat="37.2179634" lon="-2.2973594"><ele>1141.0</ele><time>2026-04-11T14:20:56.384Z</time></trkpt><trkpt lat="37.2180972" lon="-2.2971899"><ele>1141.0</ele><time>2026-04-11T14:20:57.384Z</time></trkpt><trkpt lat="37.2182345" lon="-2.2970052"><ele>1140.3333333333333</ele><time>2026-04-11T14:20:58.384Z</time></trkpt><trkpt lat="37.2183791" lon="-2.2968072"><ele>1139.6666666666667</ele><time>2026-04-11T14:20:59.384Z</time></trkpt><trkpt lat="37.218525" lon="-2.2965972"><ele>1139.0</ele><time>2026-04-11T14:21:00.384Z</time></trkpt><trkpt lat="37.2186723" lon="-2.2963798"><ele>1128.0</ele><time>2026-04-11T14:21:01.383Z</time></trkpt><trkpt lat="37.218825" lon="-2.2961528"><ele>1117.0</ele><time>2026-04-11T14:21:02.384Z</time></trkpt><trkpt lat="37.218982" lon="-2.2959143"><ele>1117.0</ele><time>2026-04-11T14:21:03.384Z</time></trkpt><trkpt lat="37.219146" lon="-2.2956682"><ele>1117.0</ele><time>2026-04-11T14:21:04.384Z</time></trkpt><trkpt lat="37.2193116" lon="-2.2954211"><ele>1117.0</ele><time>2026-04-11T14:21:05.384Z</time></trkpt><trkpt lat="37.2194791" lon="-2.295171"><ele>1117.0</ele><time>2026-04-11T14:21:06.383Z</time></trkpt><trkpt lat="37.2196469" lon="-2.2949224"><ele>1118.5</ele><time>2026-04-11T14:21:07.384Z</time></trkpt><trkpt lat="37.2198167" lon="-2.2946734"><ele>1120.0</ele><time>2026-04-11T14:21:08.383Z</time></trkpt><trkpt lat="37.2199863" lon="-2.2944317"><ele>1120.0</ele><time>2026-04-11T14:21:09.384Z</time></trkpt><trkpt lat="37.2201531" lon="-2.2941928"><ele>1120.0</ele><time>2026-04-11T14:21:10.384Z</time></trkpt><trkpt lat="37.2203196" lon="-2.2939526"><ele>1115.0</ele><time>2026-04-11T14:21:11.383Z</time></trkpt><trkpt lat="37.2204789" lon="-2.2937164"><ele>1110.0</ele><time>2026-04-11T14:21:12.384Z</time></trkpt><trkpt lat="37.2206146" lon="-2.2934894"><ele>1110.3333333333333</ele><time>2026-04-11T14:21:13.384Z</time></trkpt><trkpt lat="37.2207215" lon="-2.293271"><ele>1110.6666666666665</ele><time>2026-04-11T14:21:14.383Z</time></trkpt><trkpt lat="37.2208113" lon="-2.2930642"><ele>1111.0</ele><time>2026-04-11T14:21:15.383Z</time></trkpt><trkpt lat="37.220906" lon="-2.2928783"><ele>1111.0</ele><time>2026-04-11T14:21:16.384Z</time></trkpt><trkpt lat="37.2210027" lon="-2.2927227"><ele>1111.0</ele><time>2026-04-11T14:21:17.384Z</time></trkpt><trkpt lat="37.2211188" lon="-2.2926035"><ele>1111.0</ele><time>2026-04-11T14:21:18.384Z</time></trkpt><trkpt lat="37.2212568" lon="-2.2925135"><ele>1111.0</ele><time>2026-04-11T14:21:19.384Z</time></trkpt><trkpt lat="37.2214106" lon="-2.29247"><ele>1111.0</ele><time>2026-04-11T14:21:20.384Z</time></trkpt><trkpt lat="37.2215678" lon="-2.2924781"><ele>1111.0</ele><time>2026-04-11T14:21:21.384Z</time></trkpt><trkpt lat="37.2217266" lon="-2.2925273"><ele>1113.3333333333333</ele><time>2026-04-11T14:21:22.384Z</time></trkpt><trkpt lat="37.2218775" lon="-2.2926177"><ele>1115.6666666666667</ele><time>2026-04-11T14:21:23.384Z</time></trkpt><trkpt lat="37.2220095" lon="-2.2927521"><ele>1118.0</ele><time>2026-04-11T14:21:24.384Z</time></trkpt><trkpt lat="37.2221115" lon="-2.2929222"><ele>1120.0</ele><time>2026-04-11T14:21:25.384Z</time></trkpt><trkpt lat="37.2221807" lon="-2.2931221"><ele>1122.0</ele><time>2026-04-11T14:21:26.384Z</time></trkpt><trkpt lat="37.2222107" lon="-2.2933369"><ele>1124.0</ele><time>2026-04-11T14:21:27.383Z</time></trkpt><trkpt lat="37.2221962" lon="-2.2935633"><ele>1124.0</ele><time>2026-04-11T14:21:28.384Z</time></trkpt><trkpt lat="37.2221537" lon="-2.2937919"><ele>1124.0</ele><time>2026-04-11T14:21:29.384Z</time></trkpt><trkpt lat="37.2221076" lon="-2.2940191"><ele>1124.0</ele><time>2026-04-11T14:21:30.384Z</time></trkpt><trkpt lat="37.2220685" lon="-2.2942632"><ele>1124.0</ele><time>2026-04-11T14:21:31.384Z</time></trkpt><trkpt lat="37.2220555" lon="-2.2945203"><ele>1124.0</ele><time>2026-04-11T14:21:32.384Z</time></trkpt><trkpt lat="37.222065" lon="-2.2947816"><ele>1124.0</ele><time>2026-04-11T14:21:33.383Z</time></trkpt><trkpt lat="37.2220906" lon="-2.2950518"><ele>1124.0</ele><time>2026-04-11T14:21:34.384Z</time></trkpt><trkpt lat="37.2221307" lon="-2.29532"><ele>1124.0</ele><time>2026-04-11T14:21:35.384Z</time></trkpt><trkpt lat="37.222174" lon="-2.2955902"><ele>1124.0</ele><time>2026-04-11T14:21:36.384Z</time></trkpt><trkpt lat="37.2222306" lon="-2.2958543"><ele>1124.3333333333335</ele><time>2026-04-11T14:21:37.384Z</time></trkpt><trkpt lat="37.2222982" lon="-2.2961139"><ele>1124.6666666666667</ele><time>2026-04-11T14:21:38.383Z</time></trkpt><trkpt lat="37.2223821" lon="-2.2963618"><ele>1125.0</ele><time>2026-04-11T14:21:39.384Z</time></trkpt><trkpt lat="37.2224845" lon="-2.2966043"><ele>1120.0</ele><time>2026-04-11T14:21:40.383Z</time></trkpt><trkpt lat="37.2226168" lon="-2.2967967"><ele>1115.0</ele><time>2026-04-11T14:21:41.384Z</time></trkpt><trkpt lat="37.2227499" lon="-2.2969879"><ele>1110.0</ele><time>2026-04-11T14:21:42.384Z</time></trkpt><trkpt lat="37.2228735" lon="-2.2971693"><ele>1114.6666666666667</ele><time>2026-04-11T14:21:43.383Z</time></trkpt><trkpt lat="37.2229672" lon="-2.2973457"><ele>1119.3333333333335</ele><time>2026-04-11T14:21:44.384Z</time></trkpt><trkpt lat="37.2230237" lon="-2.2975424"><ele>1124.0</ele><time>2026-04-11T14:21:45.384Z</time></trkpt><trkpt lat="37.2230389" lon="-2.2977544"><ele>1124.0</ele><time>2026-04-11T14:21:46.383Z</time></trkpt><trkpt lat="37.2230249" lon="-2.2979727"><ele>1124.0</ele><time>2026-04-11T14:21:47.384Z</time></trkpt><trkpt lat="37.223006" lon="-2.2981984"><ele>1124.0</ele><time>2026-04-11T14:21:48.384Z</time></trkpt><trkpt lat="37.2229974" lon="-2.2984173"><ele>1125.6666666666667</ele><time>2026-04-11T14:21:49.384Z</time></trkpt><trkpt lat="37.2230066" lon="-2.298621"><ele>1127.3333333333333</ele><time>2026-04-11T14:21:50.384Z</time></trkpt><trkpt lat="37.2230503" lon="-2.2988018"><ele>1129.0</ele><time>2026-04-11T14:21:51.384Z</time></trkpt><trkpt lat="37.223127" lon="-2.2989632"><ele>1120.0</ele><time>2026-04-11T14:21:52.384Z</time></trkpt><trkpt lat="37.2232369" lon="-2.2991028"><ele>1111.0</ele><time>2026-04-11T14:21:53.384Z</time></trkpt><trkpt lat="37.2233724" lon="-2.2992051"><ele>1102.0</ele><time>2026-04-11T14:21:54.384Z</time></trkpt><trkpt lat="37.2235349" lon="-2.2992591"><ele>1102.0</ele><time>2026-04-11T14:21:55.384Z</time></trkpt><trkpt lat="37.223712" lon="-2.2992721"><ele>1102.0</ele><time>2026-04-11T14:21:56.383Z</time></trkpt><trkpt lat="37.2238912" lon="-2.2992161"><ele>1102.0</ele><time>2026-04-11T14:21:57.384Z</time></trkpt><trkpt lat="37.2240567" lon="-2.2991039"><ele>1103.3333333333333</ele><time>2026-04-11T14:21:58.384Z</time></trkpt><trkpt lat="37.2242149" lon="-2.2989568"><ele>1104.6666666666667</ele><time>2026-04-11T14:21:59.384Z</time></trkpt><trkpt lat="37.224376" lon="-2.298796"><ele>1106.0</ele><time>2026-04-11T14:22:00.383Z</time></trkpt><trkpt lat="37.224542" lon="-2.2986249"><ele>1103.0</ele><time>2026-04-11T14:22:01.383Z</time></trkpt><trkpt lat="37.2247099" lon="-2.2984472"><ele>1100.0</ele><time>2026-04-11T14:22:02.384Z</time></trkpt><trkpt lat="37.2248826" lon="-2.2982703"><ele>1097.0</ele><time>2026-04-11T14:22:03.384Z</time></trkpt><trkpt lat="37.2250435" lon="-2.2981024"><ele>1092.0</ele><time>2026-04-11T14:22:04.384Z</time></trkpt><trkpt lat="37.2251816" lon="-2.2979319"><ele>1087.0</ele><time>2026-04-11T14:22:05.384Z</time></trkpt><trkpt lat="37.2252825" lon="-2.2977514"><ele>1082.0</ele><time>2026-04-11T14:22:06.384Z</time></trkpt><trkpt lat="37.2253528" lon="-2.2975466"><ele>1082.0</ele><time>2026-04-11T14:22:07.384Z</time></trkpt><trkpt lat="37.2253845" lon="-2.2973241"><ele>1082.0</ele><time>2026-04-11T14:22:08.384Z</time></trkpt><trkpt lat="37.2253738" lon="-2.2970869"><ele>1082.0</ele><time>2026-04-11T14:22:09.384Z</time></trkpt><trkpt lat="37.2253518" lon="-2.2968515"><ele>1078.6666666666667</ele><time>2026-04-11T14:22:10.384Z</time></trkpt><trkpt lat="37.2253288" lon="-2.2966262"><ele>1075.3333333333333</ele><time>2026-04-11T14:22:11.384Z</time></trkpt><trkpt lat="37.2253192" lon="-2.2964197"><ele>1072.0</ele><time>2026-04-11T14:22:12.384Z</time></trkpt><trkpt lat="37.2253348" lon="-2.2962079"><ele>1071.0</ele><time>2026-04-11T14:22:13.384Z</time></trkpt><trkpt lat="37.225382" lon="-2.2960086"><ele>1070.0</ele><time>2026-04-11T14:22:14.384Z</time></trkpt><trkpt lat="37.2254574" lon="-2.2958316"><ele>1069.0</ele><time>2026-04-11T14:22:15.384Z</time></trkpt><trkpt lat="37.225564" lon="-2.2956992"><ele>1068.6666666666665</ele><time>2026-04-11T14:22:16.384Z</time></trkpt><trkpt lat="37.2257052" lon="-2.2956073"><ele>1068.3333333333333</ele><time>2026-04-11T14:22:17.384Z</time></trkpt><trkpt lat="37.2258601" lon="-2.2955264"><ele>1068.0</ele><time>2026-04-11T14:22:18.384Z</time></trkpt><trkpt lat="37.2260176" lon="-2.2954375"><ele>1068.0</ele><time>2026-04-11T14:22:19.384Z</time></trkpt><trkpt lat="37.2261719" lon="-2.2953377"><ele>1068.0</ele><time>2026-04-11T14:22:20.384Z</time></trkpt><trkpt lat="37.2263202" lon="-2.2952148"><ele>1068.0</ele><time>2026-04-11T14:22:21.384Z</time></trkpt><trkpt lat="37.2264415" lon="-2.2950437"><ele>1070.3333333333333</ele><time>2026-04-11T14:22:22.383Z</time></trkpt><trkpt lat="37.2265378" lon="-2.2948532"><ele>1072.6666666666665</ele><time>2026-04-11T14:22:23.384Z</time></trkpt><trkpt lat="37.2266225" lon="-2.2946439"><ele>1075.0</ele><time>2026-04-11T14:22:24.384Z</time></trkpt><trkpt lat="37.2266954" lon="-2.2944335"><ele>1075.0</ele><time>2026-04-11T14:22:25.384Z</time></trkpt><trkpt lat="37.2267824" lon="-2.2942352"><ele>1075.0</ele><time>2026-04-11T14:22:26.384Z</time></trkpt><trkpt lat="37.2268873" lon="-2.2940541"><ele>1075.0</ele><time>2026-04-11T14:22:27.384Z</time></trkpt><trkpt lat="37.227015" lon="-2.293892"><ele>1073.0</ele><time>2026-04-11T14:22:28.384Z</time></trkpt><trkpt lat="37.227166" lon="-2.2937655"><ele>1071.0</ele><time>2026-04-11T14:22:29.383Z</time></trkpt><trkpt lat="37.2273336" lon="-2.2936881"><ele>1069.0</ele><time>2026-04-11T14:22:30.384Z</time></trkpt><trkpt lat="37.2275114" lon="-2.2936529"><ele>1069.0</ele><time>2026-04-11T14:22:31.384Z</time></trkpt><trkpt lat="37.227695" lon="-2.2936509"><ele>1069.0</ele><time>2026-04-11T14:22:32.384Z</time></trkpt><trkpt lat="37.2278756" lon="-2.2936926"><ele>1069.0</ele><time>2026-04-11T14:22:33.384Z</time></trkpt><trkpt lat="37.2280426" lon="-2.2937707"><ele>1068.0</ele><time>2026-04-11T14:22:34.384Z</time></trkpt><trkpt lat="37.2281903" lon="-2.2939205"><ele>1067.0</ele><time>2026-04-11T14:22:35.384Z</time></trkpt><trkpt lat="37.228328" lon="-2.2941044"><ele>1066.0</ele><time>2026-04-11T14:22:36.383Z</time></trkpt><trkpt lat="37.2284513" lon="-2.2943181"><ele>1068.0</ele><time>2026-04-11T14:22:37.384Z</time></trkpt><trkpt lat="37.2285651" lon="-2.2945468"><ele>1070.0</ele><time>2026-04-11T14:22:38.384Z</time></trkpt><trkpt lat="37.2286847" lon="-2.2947871"><ele>1072.0</ele><time>2026-04-11T14:22:39.384Z</time></trkpt><trkpt lat="37.2288053" lon="-2.2950344"><ele>1078.0</ele><time>2026-04-11T14:22:40.384Z</time></trkpt><trkpt lat="37.2289272" lon="-2.295285"><ele>1084.0</ele><time>2026-04-11T14:22:41.384Z</time></trkpt><trkpt lat="37.2290504" lon="-2.2955411"><ele>1074.0</ele><time>2026-04-11T14:22:42.383Z</time></trkpt><trkpt lat="37.2291782" lon="-2.2957969"><ele>1064.0</ele><time>2026-04-11T14:22:43.384Z</time></trkpt><trkpt lat="37.2293019" lon="-2.2960525"><ele>1064.0</ele><time>2026-04-11T14:22:44.384Z</time></trkpt><trkpt lat="37.2294228" lon="-2.2963061"><ele>1064.0</ele><time>2026-04-11T14:22:45.383Z</time></trkpt><trkpt lat="37.2295379" lon="-2.2965344"><ele>1065.6666666666667</ele><time>2026-04-11T14:22:46.384Z</time></trkpt><trkpt lat="37.2296537" lon="-2.2967355"><ele>1067.3333333333333</ele><time>2026-04-11T14:22:47.384Z</time></trkpt><trkpt lat="37.2297742" lon="-2.2968972"><ele>1069.0</ele><time>2026-04-11T14:22:48.384Z</time></trkpt><trkpt lat="37.2299051" lon="-2.2969925"><ele>1063.0</ele><time>2026-04-11T14:22:49.384Z</time></trkpt><trkpt lat="37.2300539" lon="-2.2970448"><ele>1057.0</ele><time>2026-04-11T14:22:50.384Z</time></trkpt><trkpt lat="37.2302132" lon="-2.297038"><ele>1051.0</ele><time>2026-04-11T14:22:51.384Z</time></trkpt><trkpt lat="37.2303835" lon="-2.2969871"><ele>1051.0</ele><time>2026-04-11T14:22:52.384Z</time></trkpt><trkpt lat="37.2305524" lon="-2.2969042"><ele>1051.0</ele><time>2026-04-11T14:22:53.384Z</time></trkpt><trkpt lat="37.2307071" lon="-2.296782"><ele>1051.0</ele><time>2026-04-11T14:22:54.383Z</time></trkpt><trkpt lat="37.2308619" lon="-2.2966471"><ele>1050.3333333333333</ele><time>2026-04-11T14:22:55.384Z</time></trkpt><trkpt lat="37.2310199" lon="-2.2965366"><ele>1049.6666666666667</ele><time>2026-04-11T14:22:56.384Z</time></trkpt><trkpt lat="37.2311912" lon="-2.2964695"><ele>1049.0</ele><time>2026-04-11T14:22:57.383Z</time></trkpt><trkpt lat="37.2313685" lon="-2.2964346"><ele>1048.3333333333335</ele><time>2026-04-11T14:22:58.384Z</time></trkpt><trkpt lat="37.2315419" lon="-2.2964421"><ele>1047.6666666666667</ele><time>2026-04-11T14:22:59.384Z</time></trkpt><trkpt lat="37.2317187" lon="-2.2965143"><ele>1047.0</ele><time>2026-04-11T14:23:00.383Z</time></trkpt><trkpt lat="37.2318924" lon="-2.296601"><ele>1047.0</ele><time>2026-04-11T14:23:01.384Z</time></trkpt><trkpt lat="37.2320689" lon="-2.296692"><ele>1047.0</ele><time>2026-04-11T14:23:02.383Z</time></trkpt><trkpt lat="37.2322468" lon="-2.2967804"><ele>1047.0</ele><time>2026-04-11T14:23:03.384Z</time></trkpt><trkpt lat="37.232438" lon="-2.2968395"><ele>1045.3333333333333</ele><time>2026-04-11T14:23:04.383Z</time></trkpt><trkpt lat="37.2326278" lon="-2.2968461"><ele>1043.6666666666665</ele><time>2026-04-11T14:23:05.384Z</time></trkpt><trkpt lat="37.2328123" lon="-2.2967954"><ele>1042.0</ele><time>2026-04-11T14:23:06.383Z</time></trkpt><trkpt lat="37.2329785" lon="-2.2966912"><ele>1042.0</ele><time>2026-04-11T14:23:07.384Z</time></trkpt><trkpt lat="37.2331231" lon="-2.2965413"><ele>1042.0</ele><time>2026-04-11T14:23:08.384Z</time></trkpt><trkpt lat="37.2332422" lon="-2.2963542"><ele>1042.0</ele><time>2026-04-11T14:23:09.384Z</time></trkpt><trkpt lat="37.2333227" lon="-2.2961407"><ele>1049.0</ele><time>2026-04-11T14:23:10.383Z</time></trkpt><trkpt lat="37.2333565" lon="-2.295908"><ele>1056.0</ele><time>2026-04-11T14:23:11.384Z</time></trkpt><trkpt lat="37.2333499" lon="-2.2956721"><ele>1063.0</ele><time>2026-04-11T14:23:12.384Z</time></trkpt><trkpt lat="37.2333333" lon="-2.2954454"><ele>1064.6666666666665</ele><time>2026-04-11T14:23:13.383Z</time></trkpt><trkpt lat="37.2333179" lon="-2.2952228"><ele>1066.3333333333333</ele><time>2026-04-11T14:23:14.384Z</time></trkpt><trkpt lat="37.2333197" lon="-2.2950002"><ele>1068.0</ele><time>2026-04-11T14:23:15.384Z</time></trkpt><trkpt lat="37.2333542" lon="-2.2947805"><ele>1066.3333333333333</ele><time>2026-04-11T14:23:16.383Z</time></trkpt><trkpt lat="37.2334219" lon="-2.2945746"><ele>1064.6666666666665</ele><time>2026-04-11T14:23:17.384Z</time></trkpt><trkpt lat="37.2335125" lon="-2.2943855"><ele>1063.0</ele><time>2026-04-11T14:23:18.383Z</time></trkpt><trkpt lat="37.2336284" lon="-2.2942268"><ele>1063.0</ele><time>2026-04-11T14:23:19.384Z</time></trkpt><trkpt lat="37.2337709" lon="-2.2940934"><ele>1063.0</ele><time>2026-04-11T14:23:20.383Z</time></trkpt><trkpt lat="37.2339254" lon="-2.2939747"><ele>1063.0</ele><time>2026-04-11T14:23:21.384Z</time></trkpt><trkpt lat="37.2340821" lon="-2.2938659"><ele>1061.3333333333333</ele><time>2026-04-11T14:23:22.384Z</time></trkpt><trkpt lat="37.2342438" lon="-2.2937573"><ele>1059.6666666666667</ele><time>2026-04-11T14:23:23.384Z</time></trkpt><trkpt lat="37.2344092" lon="-2.293647"><ele>1058.0</ele><time>2026-04-11T14:23:24.384Z</time></trkpt><trkpt lat="37.2345764" lon="-2.2935336"><ele>1058.0</ele><time>2026-04-11T14:23:25.384Z</time></trkpt><trkpt lat="37.2347486" lon="-2.2934202"><ele>1058.0</ele><time>2026-04-11T14:23:26.384Z</time></trkpt><trkpt lat="37.2349215" lon="-2.2933028"><ele>1058.0</ele><time>2026-04-11T14:23:27.384Z</time></trkpt><trkpt lat="37.2350972" lon="-2.2931811"><ele>1057.0</ele><time>2026-04-11T14:23:28.384Z</time></trkpt><trkpt lat="37.2352738" lon="-2.2930631"><ele>1056.0</ele><time>2026-04-11T14:23:29.384Z</time></trkpt><trkpt lat="37.2354499" lon="-2.2929458"><ele>1055.0</ele><time>2026-04-11T14:23:30.384Z</time></trkpt><trkpt lat="37.2356276" lon="-2.29283"><ele>1059.6666666666667</ele><time>2026-04-11T14:23:31.384Z</time></trkpt><trkpt lat="37.2358" lon="-2.2927181"><ele>1064.3333333333333</ele><time>2026-04-11T14:23:32.384Z</time></trkpt><trkpt lat="37.2359655" lon="-2.2926085"><ele>1069.0</ele><time>2026-04-11T14:23:33.383Z</time></trkpt><trkpt lat="37.2361207" lon="-2.2925074"><ele>1069.0</ele><time>2026-04-11T14:23:34.384Z</time></trkpt><trkpt lat="37.236269" lon="-2.2924257"><ele>1069.0</ele><time>2026-04-11T14:23:35.384Z</time></trkpt><trkpt lat="37.2364219" lon="-2.2923645"><ele>1069.0</ele><time>2026-04-11T14:23:36.384Z</time></trkpt><trkpt lat="37.2365767" lon="-2.2923421"><ele>1072.6666666666665</ele><time>2026-04-11T14:23:37.384Z</time></trkpt><trkpt lat="37.2367379" lon="-2.292361"><ele>1076.3333333333333</ele><time>2026-04-11T14:23:38.383Z</time></trkpt><trkpt lat="37.2368946" lon="-2.2924168"><ele>1080.0</ele><time>2026-04-11T14:23:39.384Z</time></trkpt><trkpt lat="37.2370543" lon="-2.2924893"><ele>1080.0</ele><time>2026-04-11T14:23:40.384Z</time></trkpt><trkpt lat="37.2372175" lon="-2.2925657"><ele>1080.0</ele><time>2026-04-11T14:23:41.384Z</time></trkpt><trkpt lat="37.2373837" lon="-2.2926379"><ele>1080.0</ele><time>2026-04-11T14:23:42.384Z</time></trkpt><trkpt lat="37.2375521" lon="-2.2927"><ele>1078.0</ele><time>2026-04-11T14:23:43.384Z</time></trkpt><trkpt lat="37.2377233" lon="-2.2927281"><ele>1076.0</ele><time>2026-04-11T14:23:44.384Z</time></trkpt><trkpt lat="37.2378946" lon="-2.2926911"><ele>1074.0</ele><time>2026-04-11T14:23:45.384Z</time></trkpt><trkpt lat="37.2380622" lon="-2.2926015"><ele>1075.6666666666667</ele><time>2026-04-11T14:23:46.384Z</time></trkpt><trkpt lat="37.2382171" lon="-2.2924791"><ele>1077.3333333333335</ele><time>2026-04-11T14:23:47.384Z</time></trkpt><trkpt lat="37.2383696" lon="-2.2923377"><ele>1079.0</ele><time>2026-04-11T14:23:48.383Z</time></trkpt><trkpt lat="37.2385234" lon="-2.2921895"><ele>1076.6666666666667</ele><time>2026-04-11T14:23:49.384Z</time></trkpt><trkpt lat="37.2386701" lon="-2.2920497"><ele>1074.3333333333333</ele><time>2026-04-11T14:23:50.383Z</time></trkpt><trkpt lat="37.2388173" lon="-2.2919396"><ele>1072.0</ele><time>2026-04-11T14:23:51.384Z</time></trkpt><trkpt lat="37.2389721" lon="-2.2918719"><ele>1072.0</ele><time>2026-04-11T14:23:52.384Z</time></trkpt><trkpt lat="37.2391378" lon="-2.2918428"><ele>1072.0</ele><time>2026-04-11T14:23:53.384Z</time></trkpt><trkpt lat="37.2393057" lon="-2.2918526"><ele>1072.0</ele><time>2026-04-11T14:23:54.384Z</time></trkpt><trkpt lat="37.2394741" lon="-2.2918916"><ele>1072.0</ele><time>2026-04-11T14:23:55.384Z</time></trkpt><trkpt lat="37.239643" lon="-2.291945"><ele>1072.0</ele><time>2026-04-11T14:23:56.383Z</time></trkpt><trkpt lat="37.2398132" lon="-2.2920135"><ele>1072.0</ele><time>2026-04-11T14:23:57.384Z</time></trkpt><trkpt lat="37.239989" lon="-2.2920993"><ele>1072.0</ele><time>2026-04-11T14:23:58.384Z</time></trkpt><trkpt lat="37.2401539" lon="-2.2922038"><ele>1072.0</ele><time>2026-04-11T14:23:59.384Z</time></trkpt><trkpt lat="37.2403138" lon="-2.2923267"><ele>1072.0</ele><time>2026-04-11T14:24:00.384Z</time></trkpt><trkpt lat="37.2404719" lon="-2.2924599"><ele>1075.3333333333333</ele><time>2026-04-11T14:24:01.383Z</time></trkpt><trkpt lat="37.2406212" lon="-2.2926066"><ele>1078.6666666666667</ele><time>2026-04-11T14:24:02.384Z</time></trkpt><trkpt lat="37.2407682" lon="-2.2927519"><ele>1082.0</ele><time>2026-04-11T14:24:03.384Z</time></trkpt><trkpt lat="37.2409106" lon="-2.2928859"><ele>1082.0</ele><time>2026-04-11T14:24:04.383Z</time></trkpt><trkpt lat="37.2410559" lon="-2.2930064"><ele>1082.0</ele><time>2026-04-11T14:24:05.383Z</time></trkpt><trkpt lat="37.2412136" lon="-2.2930982"><ele>1082.0</ele><time>2026-04-11T14:24:06.383Z</time></trkpt><trkpt lat="37.2413845" lon="-2.293145"><ele>1080.0</ele><time>2026-04-11T14:24:07.384Z</time></trkpt><trkpt lat="37.2415618" lon="-2.2931496"><ele>1078.0</ele><time>2026-04-11T14:24:08.384Z</time></trkpt><trkpt lat="37.2417464" lon="-2.2931177"><ele>1076.0</ele><time>2026-04-11T14:24:09.384Z</time></trkpt><trkpt lat="37.2419303" lon="-2.2930742"><ele>1076.0</ele><time>2026-04-11T14:24:10.384Z</time></trkpt><trkpt lat="37.2421143" lon="-2.2930217"><ele>1076.0</ele><time>2026-04-11T14:24:11.384Z</time></trkpt><trkpt lat="37.2423024" lon="-2.2929674"><ele>1076.0</ele><time>2026-04-11T14:24:12.384Z</time></trkpt><trkpt lat="37.2424911" lon="-2.2929133"><ele>1076.3333333333335</ele><time>2026-04-11T14:24:13.384Z</time></trkpt><trkpt lat="37.242678" lon="-2.2928602"><ele>1076.6666666666667</ele><time>2026-04-11T14:24:14.383Z</time></trkpt><trkpt lat="37.2428566" lon="-2.2928133"><ele>1077.0</ele><time>2026-04-11T14:24:15.384Z</time></trkpt><trkpt lat="37.2430304" lon="-2.2927755"><ele>1080.0</ele><time>2026-04-11T14:24:16.384Z</time></trkpt><trkpt lat="37.2432078" lon="-2.2927557"><ele>1083.0</ele><time>2026-04-11T14:24:17.384Z</time></trkpt><trkpt lat="37.243382" lon="-2.2927706"><ele>1086.0</ele><time>2026-04-11T14:24:18.384Z</time></trkpt><trkpt lat="37.2435495" lon="-2.2928353"><ele>1086.0</ele><time>2026-04-11T14:24:19.384Z</time></trkpt><trkpt lat="37.2437089" lon="-2.2929443"><ele>1086.0</ele><time>2026-04-11T14:24:20.384Z</time></trkpt><trkpt lat="37.2438456" lon="-2.2930887"><ele>1086.0</ele><time>2026-04-11T14:24:21.384Z</time></trkpt><trkpt lat="37.2439602" lon="-2.2932647"><ele>1087.0</ele><time>2026-04-11T14:24:22.384Z</time></trkpt><trkpt lat="37.2440523" lon="-2.2934591"><ele>1088.0</ele><time>2026-04-11T14:24:23.384Z</time></trkpt><trkpt lat="37.2441102" lon="-2.293669"><ele>1089.0</ele><time>2026-04-11T14:24:24.384Z</time></trkpt><trkpt lat="37.2441333" lon="-2.2938837"><ele>1089.3333333333333</ele><time>2026-04-11T14:24:25.384Z</time></trkpt><trkpt lat="37.2441225" lon="-2.2941015"><ele>1089.6666666666665</ele><time>2026-04-11T14:24:26.384Z</time></trkpt><trkpt lat="37.2440833" lon="-2.2943142"><ele>1090.0</ele><time>2026-04-11T14:24:27.384Z</time></trkpt><trkpt lat="37.2440056" lon="-2.2945213"><ele>1096.0</ele><time>2026-04-11T14:24:28.383Z</time></trkpt><trkpt lat="37.2439306" lon="-2.2947196"><ele>1102.0</ele><time>2026-04-11T14:24:29.384Z</time></trkpt><trkpt lat="37.2438627" lon="-2.2949258"><ele>1108.0</ele><time>2026-04-11T14:24:30.384Z</time></trkpt><trkpt lat="37.2437991" lon="-2.2951252"><ele>1108.0</ele><time>2026-04-11T14:24:31.384Z</time></trkpt><trkpt lat="37.2437652" lon="-2.2953243"><ele>1108.0</ele><time>2026-04-11T14:24:32.383Z</time></trkpt><trkpt lat="37.2437575" lon="-2.2955369"><ele>1108.0</ele><time>2026-04-11T14:24:33.384Z</time></trkpt><trkpt lat="37.2437783" lon="-2.2957261"><ele>1110.0</ele><time>2026-04-11T14:24:34.383Z</time></trkpt><trkpt lat="37.2438588" lon="-2.2958865"><ele>1112.0</ele><time>2026-04-11T14:24:35.384Z</time></trkpt><trkpt lat="37.2439672" lon="-2.2960306"><ele>1114.0</ele><time>2026-04-11T14:24:36.384Z</time></trkpt><trkpt lat="37.2441003" lon="-2.2961616"><ele>1112.6666666666665</ele><time>2026-04-11T14:24:37.383Z</time></trkpt><trkpt lat="37.244242" lon="-2.2962672"><ele>1111.3333333333333</ele><time>2026-04-11T14:24:38.384Z</time></trkpt><trkpt lat="37.2443986" lon="-2.2963578"><ele>1110.0</ele><time>2026-04-11T14:24:39.384Z</time></trkpt><trkpt lat="37.2445664" lon="-2.2964255"><ele>1110.0</ele><time>2026-04-11T14:24:40.384Z</time></trkpt><trkpt lat="37.244744" lon="-2.2964741"><ele>1110.0</ele><time>2026-04-11T14:24:41.384Z</time></trkpt><trkpt lat="37.2449229" lon="-2.2964933"><ele>1110.0</ele><time>2026-04-11T14:24:42.384Z</time></trkpt><trkpt lat="37.2450935" lon="-2.2964656"><ele>1104.3333333333333</ele><time>2026-04-11T14:24:43.384Z</time></trkpt><trkpt lat="37.2452468" lon="-2.2963855"><ele>1098.6666666666665</ele><time>2026-04-11T14:24:44.384Z</time></trkpt><trkpt lat="37.2453752" lon="-2.2962501"><ele>1093.0</ele><time>2026-04-11T14:24:45.384Z</time></trkpt><trkpt lat="37.2454713" lon="-2.2960738"><ele>1093.0</ele><time>2026-04-11T14:24:46.384Z</time></trkpt><trkpt lat="37.2455537" lon="-2.2958848"><ele>1093.0</ele><time>2026-04-11T14:24:47.384Z</time></trkpt><trkpt lat="37.2456325" lon="-2.2956926"><ele>1093.0</ele><time>2026-04-11T14:24:48.384Z</time></trkpt><trkpt lat="37.2457207" lon="-2.2955089"><ele>1089.6666666666665</ele><time>2026-04-11T14:24:49.384Z</time></trkpt><trkpt lat="37.2458297" lon="-2.2953414"><ele>1086.3333333333333</ele><time>2026-04-11T14:24:50.384Z</time></trkpt><trkpt lat="37.2459582" lon="-2.2951897"><ele>1083.0</ele><time>2026-04-11T14:24:51.384Z</time></trkpt><trkpt lat="37.2461076" lon="-2.2950807"><ele>1083.0</ele><time>2026-04-11T14:24:52.384Z</time></trkpt><trkpt lat="37.2462686" lon="-2.2950173"><ele>1083.0</ele><time>2026-04-11T14:24:53.384Z</time></trkpt><trkpt lat="37.2464412" lon="-2.2950084"><ele>1083.0</ele><time>2026-04-11T14:24:54.384Z</time></trkpt><trkpt lat="37.2466051" lon="-2.2950487"><ele>1086.3333333333333</ele><time>2026-04-11T14:24:55.384Z</time></trkpt><trkpt lat="37.2467639" lon="-2.295129"><ele>1089.6666666666665</ele><time>2026-04-11T14:24:56.384Z</time></trkpt><trkpt lat="37.2468979" lon="-2.2952557"><ele>1093.0</ele><time>2026-04-11T14:24:57.384Z</time></trkpt><trkpt lat="37.2470018" lon="-2.2954246"><ele>1098.0</ele><time>2026-04-11T14:24:58.384Z</time></trkpt><trkpt lat="37.2470791" lon="-2.2956155"><ele>1103.0</ele><time>2026-04-11T14:24:59.384Z</time></trkpt><trkpt lat="37.2471407" lon="-2.2958176"><ele>1108.0</ele><time>2026-04-11T14:25:00.384Z</time></trkpt><trkpt lat="37.2471955" lon="-2.2960172"><ele>1108.0</ele><time>2026-04-11T14:25:01.384Z</time></trkpt><trkpt lat="37.247249" lon="-2.2962119"><ele>1108.0</ele><time>2026-04-11T14:25:02.384Z</time></trkpt><trkpt lat="37.2473076" lon="-2.2963951"><ele>1108.0</ele><time>2026-04-11T14:25:03.384Z</time></trkpt><trkpt lat="37.2473877" lon="-2.2965693"><ele>1107.6666666666665</ele><time>2026-04-11T14:25:04.384Z</time></trkpt><trkpt lat="37.247496" lon="-2.2967258"><ele>1107.3333333333333</ele><time>2026-04-11T14:25:05.384Z</time></trkpt><trkpt lat="37.2476318" lon="-2.2968367"><ele>1107.0</ele><time>2026-04-11T14:25:06.383Z</time></trkpt><trkpt lat="37.2477849" lon="-2.2969026"><ele>1107.0</ele><time>2026-04-11T14:25:07.383Z</time></trkpt><trkpt lat="37.2479463" lon="-2.2969197"><ele>1107.0</ele><time>2026-04-11T14:25:08.384Z</time></trkpt><trkpt lat="37.2481" lon="-2.2968815"><ele>1107.0</ele><time>2026-04-11T14:25:09.384Z</time></trkpt><trkpt lat="37.2482438" lon="-2.2968201"><ele>1106.0</ele><time>2026-04-11T14:25:10.384Z</time></trkpt><trkpt lat="37.2483729" lon="-2.2967167"><ele>1105.0</ele><time>2026-04-11T14:25:11.383Z</time></trkpt><trkpt lat="37.248493" lon="-2.2965925"><ele>1104.0</ele><time>2026-04-11T14:25:12.383Z</time></trkpt><trkpt lat="37.2486443" lon="-2.2964296"><ele>1104.3333333333333</ele><time>2026-04-11T14:25:13.384Z</time></trkpt><trkpt lat="37.2487693" lon="-2.2962549"><ele>1104.6666666666665</ele><time>2026-04-11T14:25:14.384Z</time></trkpt><trkpt lat="37.2488996" lon="-2.2961327"><ele>1105.0</ele><time>2026-04-11T14:25:15.383Z</time></trkpt><trkpt lat="37.2490519" lon="-2.2960458"><ele>1105.0</ele><time>2026-04-11T14:25:16.383Z</time></trkpt><trkpt lat="37.2492128" lon="-2.2960241"><ele>1105.0</ele><time>2026-04-11T14:25:17.384Z</time></trkpt><trkpt lat="37.2493755" lon="-2.2960477"><ele>1105.0</ele><time>2026-04-11T14:25:18.383Z</time></trkpt><trkpt lat="37.2495347" lon="-2.2961198"><ele>1105.0</ele><time>2026-04-11T14:25:19.384Z</time></trkpt><trkpt lat="37.249694" lon="-2.2962044"><ele>1105.0</ele><time>2026-04-11T14:25:20.384Z</time></trkpt><trkpt lat="37.2498597" lon="-2.2962866"><ele>1105.0</ele><time>2026-04-11T14:25:21.384Z</time></trkpt><trkpt lat="37.2500297" lon="-2.2963614"><ele>1102.3333333333333</ele><time>2026-04-11T14:25:22.384Z</time></trkpt><trkpt lat="37.2502046" lon="-2.2964059"><ele>1099.6666666666667</ele><time>2026-04-11T14:25:23.384Z</time></trkpt><trkpt lat="37.2503771" lon="-2.2964118"><ele>1097.0</ele><time>2026-04-11T14:25:24.383Z</time></trkpt><trkpt lat="37.2505486" lon="-2.2963595"><ele>1101.6666666666667</ele><time>2026-04-11T14:25:25.384Z</time></trkpt><trkpt lat="37.250701" lon="-2.2962514"><ele>1106.3333333333333</ele><time>2026-04-11T14:25:26.384Z</time></trkpt><trkpt lat="37.2508428" lon="-2.2961156"><ele>1111.0</ele><time>2026-04-11T14:25:27.383Z</time></trkpt><trkpt lat="37.2509922" lon="-2.2959783"><ele>1111.0</ele><time>2026-04-11T14:25:28.384Z</time></trkpt><trkpt lat="37.2511385" lon="-2.2958331"><ele>1111.0</ele><time>2026-04-11T14:25:29.384Z</time></trkpt><trkpt lat="37.2512835" lon="-2.2956841"><ele>1111.0</ele><time>2026-04-11T14:25:30.384Z</time></trkpt><trkpt lat="37.251431" lon="-2.295532"><ele>1110.6666666666665</ele><time>2026-04-11T14:25:31.383Z</time></trkpt><trkpt lat="37.251571" lon="-2.295381"><ele>1110.3333333333333</ele><time>2026-04-11T14:25:32.384Z</time></trkpt><trkpt lat="37.2517116" lon="-2.2952276"><ele>1110.0</ele><time>2026-04-11T14:25:33.384Z</time></trkpt><trkpt lat="37.251855" lon="-2.295077"><ele>1110.0</ele><time>2026-04-11T14:25:34.384Z</time></trkpt><trkpt lat="37.2519974" lon="-2.2949311"><ele>1110.0</ele><time>2026-04-11T14:25:35.384Z</time></trkpt><trkpt lat="37.2521344" lon="-2.2947845"><ele>1110.0</ele><time>2026-04-11T14:25:36.384Z</time></trkpt><trkpt lat="37.2522756" lon="-2.2946388"><ele>1110.3333333333333</ele><time>2026-04-11T14:25:37.383Z</time></trkpt><trkpt lat="37.2524152" lon="-2.2945055"><ele>1110.6666666666665</ele><time>2026-04-11T14:25:38.384Z</time></trkpt><trkpt lat="37.2525641" lon="-2.2943905"><ele>1111.0</ele><time>2026-04-11T14:25:39.383Z</time></trkpt><trkpt lat="37.2527139" lon="-2.294307"><ele>1111.0</ele><time>2026-04-11T14:25:40.384Z</time></trkpt><trkpt lat="37.2528833" lon="-2.2942784"><ele>1111.0</ele><time>2026-04-11T14:25:41.384Z</time></trkpt><trkpt lat="37.253055" lon="-2.2942881"><ele>1111.0</ele><time>2026-04-11T14:25:42.383Z</time></trkpt><trkpt lat="37.2532231" lon="-2.2943349"><ele>1115.6666666666665</ele><time>2026-04-11T14:25:43.384Z</time></trkpt><trkpt lat="37.2533962" lon="-2.2943965"><ele>1120.3333333333333</ele><time>2026-04-11T14:25:44.384Z</time></trkpt><trkpt lat="37.25357" lon="-2.2944671"><ele>1125.0</ele><time>2026-04-11T14:25:45.384Z</time></trkpt><trkpt lat="37.2537477" lon="-2.2945443"><ele>1125.0</ele><time>2026-04-11T14:25:46.383Z</time></trkpt><trkpt lat="37.2539273" lon="-2.2946219"><ele>1125.0</ele><time>2026-04-11T14:25:47.384Z</time></trkpt><trkpt lat="37.2540993" lon="-2.2946988"><ele>1125.0</ele><time>2026-04-11T14:25:48.384Z</time></trkpt><trkpt lat="37.2542883" lon="-2.29478"><ele>1125.3333333333333</ele><time>2026-04-11T14:25:49.384Z</time></trkpt><trkpt lat="37.2544809" lon="-2.2948511"><ele>1125.6666666666665</ele><time>2026-04-11T14:25:50.384Z</time></trkpt><trkpt lat="37.2546738" lon="-2.2949157"><ele>1126.0</ele><time>2026-04-11T14:25:51.384Z</time></trkpt><trkpt lat="37.2548723" lon="-2.2949623"><ele>1126.0</ele><time>2026-04-11T14:25:52.384Z</time></trkpt><trkpt lat="37.2550746" lon="-2.2949844"><ele>1126.0</ele><time>2026-04-11T14:25:53.384Z</time></trkpt><trkpt lat="37.255277" lon="-2.2949979"><ele>1126.0</ele><time>2026-04-11T14:25:54.384Z</time></trkpt><trkpt lat="37.2554863" lon="-2.2950064"><ele>1127.6666666666665</ele><time>2026-04-11T14:25:55.384Z</time></trkpt><trkpt lat="37.255687" lon="-2.2950105"><ele>1129.3333333333333</ele><time>2026-04-11T14:25:56.384Z</time></trkpt><trkpt lat="37.2558894" lon="-2.2950144"><ele>1131.0</ele><time>2026-04-11T14:25:57.384Z</time></trkpt><trkpt lat="37.2560875" lon="-2.2950174"><ele>1131.0</ele><time>2026-04-11T14:25:58.383Z</time></trkpt><trkpt lat="37.2562811" lon="-2.2950234"><ele>1131.0</ele><time>2026-04-11T14:25:59.384Z</time></trkpt><trkpt lat="37.2564696" lon="-2.2950279"><ele>1131.0</ele><time>2026-04-11T14:26:00.384Z</time></trkpt><trkpt lat="37.2566554" lon="-2.2950355"><ele>1131.0</ele><time>2026-04-11T14:26:01.383Z</time></trkpt><trkpt lat="37.256836" lon="-2.2950712"><ele>1131.0</ele><time>2026-04-11T14:26:02.384Z</time></trkpt><trkpt lat="37.2570043" lon="-2.295152"><ele>1131.0</ele><time>2026-04-11T14:26:03.384Z</time></trkpt><trkpt lat="37.2571496" lon="-2.2952855"><ele>1133.5</ele><time>2026-04-11T14:26:04.384Z</time></trkpt><trkpt lat="37.2573463" lon="-2.2956443"><ele>1136.0</ele><time>2026-04-11T14:26:06.415Z</time></trkpt><trkpt lat="37.257402" lon="-2.2958562"><ele>1136.0</ele><time>2026-04-11T14:26:07.417Z</time></trkpt><trkpt lat="37.2573831" lon="-2.296076"><ele>1136.0</ele><time>2026-04-11T14:26:08.391Z</time></trkpt><trkpt lat="37.2573576" lon="-2.2962892"><ele>1136.0</ele><time>2026-04-11T14:26:09.387Z</time></trkpt><trkpt lat="37.257328" lon="-2.2965102"><ele>1136.3333333333335</ele><time>2026-04-11T14:26:10.39Z</time></trkpt><trkpt lat="37.2572933" lon="-2.2967031"><ele>1136.6666666666667</ele><time>2026-04-11T14:26:11.384Z</time></trkpt><trkpt lat="37.2572707" lon="-2.2969085"><ele>1137.0</ele><time>2026-04-11T14:26:12.384Z</time></trkpt><trkpt lat="37.2572752" lon="-2.2971073"><ele>1134.3333333333333</ele><time>2026-04-11T14:26:13.384Z</time></trkpt><trkpt lat="37.2572931" lon="-2.2973003"><ele>1131.6666666666665</ele><time>2026-04-11T14:26:14.384Z</time></trkpt><trkpt lat="37.2573624" lon="-2.2974795"><ele>1129.0</ele><time>2026-04-11T14:26:15.384Z</time></trkpt><trkpt lat="37.257461" lon="-2.2976362"><ele>1129.0</ele><time>2026-04-11T14:26:16.384Z</time></trkpt><trkpt lat="37.2575944" lon="-2.2977498"><ele>1129.0</ele><time>2026-04-11T14:26:17.383Z</time></trkpt><trkpt lat="37.2577541" lon="-2.2978297"><ele>1129.0</ele><time>2026-04-11T14:26:18.384Z</time></trkpt><trkpt lat="37.2579211" lon="-2.2978845"><ele>1129.0</ele><time>2026-04-11T14:26:19.384Z</time></trkpt><trkpt lat="37.2581088" lon="-2.2979026"><ele>1129.0</ele><time>2026-04-11T14:26:20.384Z</time></trkpt><trkpt lat="37.2583002" lon="-2.2979233"><ele>1129.0</ele><time>2026-04-11T14:26:21.384Z</time></trkpt><trkpt lat="37.2584972" lon="-2.2979474"><ele>1131.6666666666665</ele><time>2026-04-11T14:26:22.384Z</time></trkpt><trkpt lat="37.2587013" lon="-2.2979719"><ele>1134.3333333333333</ele><time>2026-04-11T14:26:23.384Z</time></trkpt><trkpt lat="37.258903" lon="-2.298002"><ele>1137.0</ele><time>2026-04-11T14:26:24.384Z</time></trkpt><trkpt lat="37.2591059" lon="-2.2980419"><ele>1132.6666666666667</ele><time>2026-04-11T14:26:25.384Z</time></trkpt><trkpt lat="37.2593046" lon="-2.2980902"><ele>1128.3333333333335</ele><time>2026-04-11T14:26:26.384Z</time></trkpt><trkpt lat="37.2595065" lon="-2.2981553"><ele>1124.0</ele><time>2026-04-11T14:26:27.383Z</time></trkpt><trkpt lat="37.2596924" lon="-2.2982359"><ele>1128.3333333333335</ele><time>2026-04-11T14:26:28.384Z</time></trkpt><trkpt lat="37.259881" lon="-2.2983346"><ele>1132.6666666666667</ele><time>2026-04-11T14:26:29.384Z</time></trkpt><trkpt lat="37.2600621" lon="-2.2984443"><ele>1137.0</ele><time>2026-04-11T14:26:30.384Z</time></trkpt><trkpt lat="37.2602325" lon="-2.2985767"><ele>1137.0</ele><time>2026-04-11T14:26:31.383Z</time></trkpt><trkpt lat="37.2603845" lon="-2.2987326"><ele>1137.0</ele><time>2026-04-11T14:26:32.383Z</time></trkpt><trkpt lat="37.2605265" lon="-2.2989083"><ele>1137.0</ele><time>2026-04-11T14:26:33.384Z</time></trkpt><trkpt lat="37.2606709" lon="-2.2990823"><ele>1140.6666666666667</ele><time>2026-04-11T14:26:34.384Z</time></trkpt><trkpt lat="37.2608188" lon="-2.2992504"><ele>1144.3333333333335</ele><time>2026-04-11T14:26:35.384Z</time></trkpt><trkpt lat="37.260977" lon="-2.2994049"><ele>1148.0</ele><time>2026-04-11T14:26:36.384Z</time></trkpt><trkpt lat="37.2611503" lon="-2.2995463"><ele>1148.0</ele><time>2026-04-11T14:26:37.384Z</time></trkpt><trkpt lat="37.2613239" lon="-2.2996734"><ele>1148.0</ele><time>2026-04-11T14:26:38.384Z</time></trkpt><trkpt lat="37.2615052" lon="-2.299798"><ele>1148.0</ele><time>2026-04-11T14:26:39.384Z</time></trkpt><trkpt lat="37.2616859" lon="-2.299923"><ele>1146.6666666666667</ele><time>2026-04-11T14:26:40.383Z</time></trkpt><trkpt lat="37.2618643" lon="-2.3000625"><ele>1145.3333333333333</ele><time>2026-04-11T14:26:41.384Z</time></trkpt><trkpt lat="37.2620175" lon="-2.3002223"><ele>1144.0</ele><time>2026-04-11T14:26:42.384Z</time></trkpt><trkpt lat="37.2621384" lon="-2.3004239"><ele>1148.0</ele><time>2026-04-11T14:26:43.384Z</time></trkpt><trkpt lat="37.2622292" lon="-2.3006494"><ele>1152.0</ele><time>2026-04-11T14:26:44.384Z</time></trkpt><trkpt lat="37.2622863" lon="-2.3008891"><ele>1156.0</ele><time>2026-04-11T14:26:45.384Z</time></trkpt><trkpt lat="37.262329" lon="-2.3011362"><ele>1156.0</ele><time>2026-04-11T14:26:46.383Z</time></trkpt><trkpt lat="37.2623873" lon="-2.3013776"><ele>1156.0</ele><time>2026-04-11T14:26:47.384Z</time></trkpt><trkpt lat="37.2624709" lon="-2.3016028"><ele>1156.0</ele><time>2026-04-11T14:26:48.384Z</time></trkpt><trkpt lat="37.2625843" lon="-2.3018004"><ele>1154.3333333333333</ele><time>2026-04-11T14:26:49.383Z</time></trkpt><trkpt lat="37.2627263" lon="-2.3019663"><ele>1152.6666666666667</ele><time>2026-04-11T14:26:50.384Z</time></trkpt><trkpt lat="37.2628841" lon="-2.3020971"><ele>1151.0</ele><time>2026-04-11T14:26:51.384Z</time></trkpt><trkpt lat="37.2630427" lon="-2.3022284"><ele>1153.0</ele><time>2026-04-11T14:26:52.384Z</time></trkpt><trkpt lat="37.263191" lon="-2.302374"><ele>1155.0</ele><time>2026-04-11T14:26:53.384Z</time></trkpt><trkpt lat="37.2633265" lon="-2.302531"><ele>1157.0</ele><time>2026-04-11T14:26:54.384Z</time></trkpt><trkpt lat="37.2634306" lon="-2.3027283"><ele>1157.0</ele><time>2026-04-11T14:26:55.384Z</time></trkpt><trkpt lat="37.2635199" lon="-2.302944"><ele>1157.0</ele><time>2026-04-11T14:26:56.384Z</time></trkpt><trkpt lat="37.2636035" lon="-2.3031586"><ele>1157.0</ele><time>2026-04-11T14:26:57.384Z</time></trkpt><trkpt lat="37.2637022" lon="-2.3033682"><ele>1154.0</ele><time>2026-04-11T14:26:58.384Z</time></trkpt><trkpt lat="37.263823" lon="-2.3035588"><ele>1151.0</ele><time>2026-04-11T14:26:59.384Z</time></trkpt><trkpt lat="37.2639716" lon="-2.30372"><ele>1148.0</ele><time>2026-04-11T14:27:00.383Z</time></trkpt><trkpt lat="37.2641398" lon="-2.3038419"><ele>1152.6666666666667</ele><time>2026-04-11T14:27:01.384Z</time></trkpt><trkpt lat="37.2643262" lon="-2.303917"><ele>1157.3333333333333</ele><time>2026-04-11T14:27:02.383Z</time></trkpt><trkpt lat="37.2645184" lon="-2.3039454"><ele>1162.0</ele><time>2026-04-11T14:27:03.384Z</time></trkpt><trkpt lat="37.2647113" lon="-2.3039244"><ele>1168.6666666666665</ele><time>2026-04-11T14:27:04.384Z</time></trkpt><trkpt lat="37.2649126" lon="-2.3038834"><ele>1175.3333333333333</ele><time>2026-04-11T14:27:05.384Z</time></trkpt><trkpt lat="37.2651142" lon="-2.3038436"><ele>1182.0</ele><time>2026-04-11T14:27:06.384Z</time></trkpt><trkpt lat="37.2653266" lon="-2.303813"><ele>1182.0</ele><time>2026-04-11T14:27:07.383Z</time></trkpt><trkpt lat="37.2655463" lon="-2.303802"><ele>1182.0</ele><time>2026-04-11T14:27:08.383Z</time></trkpt><trkpt lat="37.2657704" lon="-2.3038162"><ele>1182.0</ele><time>2026-04-11T14:27:09.383Z</time></trkpt><trkpt lat="37.2659944" lon="-2.3038491"><ele>1183.5</ele><time>2026-04-11T14:27:10.384Z</time></trkpt><trkpt lat="37.266224" lon="-2.3038867"><ele>1185.0</ele><time>2026-04-11T14:27:11.384Z</time></trkpt><trkpt lat="37.2664434" lon="-2.3039256"><ele>1172.3333333333333</ele><time>2026-04-11T14:27:12.384Z</time></trkpt><trkpt lat="37.2666484" lon="-2.3039494"><ele>1159.6666666666665</ele><time>2026-04-11T14:27:13.384Z</time></trkpt><trkpt lat="37.2668371" lon="-2.3039494"><ele>1147.0</ele><time>2026-04-11T14:27:14.384Z</time></trkpt><trkpt lat="37.2670236" lon="-2.3039241"><ele>1147.6666666666665</ele><time>2026-04-11T14:27:15.384Z</time></trkpt><trkpt lat="37.2671882" lon="-2.3038446"><ele>1148.3333333333333</ele><time>2026-04-11T14:27:16.384Z</time></trkpt><trkpt lat="37.2673473" lon="-2.3037206"><ele>1149.0</ele><time>2026-04-11T14:27:17.384Z</time></trkpt><trkpt lat="37.2674881" lon="-2.3035537"><ele>1149.0</ele><time>2026-04-11T14:27:18.384Z</time></trkpt><trkpt lat="37.2676196" lon="-2.303348"><ele>1149.0</ele><time>2026-04-11T14:27:19.384Z</time></trkpt><trkpt lat="37.2677277" lon="-2.3031212"><ele>1149.0</ele><time>2026-04-11T14:27:20.384Z</time></trkpt><trkpt lat="37.2678211" lon="-2.3028754"><ele>1154.6666666666667</ele><time>2026-04-11T14:27:21.384Z</time></trkpt><trkpt lat="37.2679096" lon="-2.3026274"><ele>1160.3333333333335</ele><time>2026-04-11T14:27:22.384Z</time></trkpt><trkpt lat="37.2679927" lon="-2.3023798"><ele>1166.0</ele><time>2026-04-11T14:27:23.384Z</time></trkpt><trkpt lat="37.2680746" lon="-2.3021412"><ele>1159.6666666666667</ele><time>2026-04-11T14:27:24.384Z</time></trkpt><trkpt lat="37.2681591" lon="-2.3019268"><ele>1153.3333333333333</ele><time>2026-04-11T14:27:25.384Z</time></trkpt><trkpt lat="37.2682576" lon="-2.3017296"><ele>1147.0</ele><time>2026-04-11T14:27:26.384Z</time></trkpt><trkpt lat="37.268386" lon="-2.3015576"><ele>1147.0</ele><time>2026-04-11T14:27:27.383Z</time></trkpt><trkpt lat="37.2685394" lon="-2.3014191"><ele>1147.0</ele><time>2026-04-11T14:27:28.383Z</time></trkpt><trkpt lat="37.2687154" lon="-2.3013163"><ele>1147.0</ele><time>2026-04-11T14:27:29.384Z</time></trkpt><trkpt lat="37.2689049" lon="-2.3012607"><ele>1154.0</ele><time>2026-04-11T14:27:30.384Z</time></trkpt><trkpt lat="37.2691032" lon="-2.3012496"><ele>1161.0</ele><time>2026-04-11T14:27:31.384Z</time></trkpt><trkpt lat="37.2693044" lon="-2.3012814"><ele>1168.0</ele><time>2026-04-11T14:27:32.384Z</time></trkpt><trkpt lat="37.2695075" lon="-2.3013255"><ele>1168.0</ele><time>2026-04-11T14:27:33.383Z</time></trkpt><trkpt lat="37.2697084" lon="-2.3013748"><ele>1168.0</ele><time>2026-04-11T14:27:34.384Z</time></trkpt><trkpt lat="37.2699157" lon="-2.3014284"><ele>1168.0</ele><time>2026-04-11T14:27:35.384Z</time></trkpt><trkpt lat="37.2701268" lon="-2.3014792"><ele>1157.6666666666665</ele><time>2026-04-11T14:27:36.384Z</time></trkpt><trkpt lat="37.27034" lon="-2.3015297"><ele>1147.3333333333333</ele><time>2026-04-11T14:27:37.384Z</time></trkpt><trkpt lat="37.2705586" lon="-2.3015773"><ele>1137.0</ele><time>2026-04-11T14:27:38.383Z</time></trkpt><trkpt lat="37.2707771" lon="-2.3016312"><ele>1136.5</ele><time>2026-04-11T14:27:39.384Z</time></trkpt><trkpt lat="37.2709993" lon="-2.3016923"><ele>1136.0</ele><time>2026-04-11T14:27:40.384Z</time></trkpt><trkpt lat="37.2712163" lon="-2.3017697"><ele>1136.0</ele><time>2026-04-11T14:27:41.384Z</time></trkpt><trkpt lat="37.2714305" lon="-2.3018689"><ele>1136.0</ele><time>2026-04-11T14:27:42.384Z</time></trkpt><trkpt lat="37.2716452" lon="-2.3019882"><ele>1139.0</ele><time>2026-04-11T14:27:43.384Z</time></trkpt><trkpt lat="37.2718573" lon="-2.3021178"><ele>1142.0</ele><time>2026-04-11T14:27:44.384Z</time></trkpt><trkpt lat="37.2720624" lon="-2.3022617"><ele>1137.5</ele><time>2026-04-11T14:27:45.384Z</time></trkpt><trkpt lat="37.2722683" lon="-2.3024077"><ele>1133.0</ele><time>2026-04-11T14:27:46.384Z</time></trkpt><trkpt lat="37.2724722" lon="-2.3025607"><ele>1133.0</ele><time>2026-04-11T14:27:47.384Z</time></trkpt><trkpt lat="37.2726744" lon="-2.302711"><ele>1133.0</ele><time>2026-04-11T14:27:48.383Z</time></trkpt><trkpt lat="37.2728707" lon="-2.302856"><ele>1133.0</ele><time>2026-04-11T14:27:49.384Z</time></trkpt><trkpt lat="37.2730622" lon="-2.3029812"><ele>1133.0</ele><time>2026-04-11T14:27:50.384Z</time></trkpt><trkpt lat="37.2732461" lon="-2.3030786"><ele>1133.0</ele><time>2026-04-11T14:27:51.384Z</time></trkpt><trkpt lat="37.2734387" lon="-2.3031406"><ele>1132.0</ele><time>2026-04-11T14:27:52.384Z</time></trkpt><trkpt lat="37.2736299" lon="-2.3031541"><ele>1131.0</ele><time>2026-04-11T14:27:53.384Z</time></trkpt><trkpt lat="37.2738198" lon="-2.3031209"><ele>1130.0</ele><time>2026-04-11T14:27:54.384Z</time></trkpt><trkpt lat="37.2739991" lon="-2.3030396"><ele>1130.0</ele><time>2026-04-11T14:27:55.383Z</time></trkpt><trkpt lat="37.2741615" lon="-2.3029148"><ele>1130.0</ele><time>2026-04-11T14:27:56.384Z</time></trkpt><trkpt lat="37.2743033" lon="-2.3027503"><ele>1130.0</ele><time>2026-04-11T14:27:57.384Z</time></trkpt><trkpt lat="37.2744215" lon="-2.3025532"><ele>1130.0</ele><time>2026-04-11T14:27:58.383Z</time></trkpt><trkpt lat="37.274532" lon="-2.3023323"><ele>1130.0</ele><time>2026-04-11T14:27:59.384Z</time></trkpt><trkpt lat="37.2746374" lon="-2.3021033"><ele>1130.0</ele><time>2026-04-11T14:28:00.384Z</time></trkpt><trkpt lat="37.2747434" lon="-2.3018664"><ele>1124.6666666666667</ele><time>2026-04-11T14:28:01.384Z</time></trkpt><trkpt lat="37.2748472" lon="-2.3016361"><ele>1119.3333333333333</ele><time>2026-04-11T14:28:02.384Z</time></trkpt><trkpt lat="37.2749349" lon="-2.3014186"><ele>1114.0</ele><time>2026-04-11T14:28:03.384Z</time></trkpt><trkpt lat="37.2749993" lon="-2.3012026"><ele>1114.0</ele><time>2026-04-11T14:28:04.383Z</time></trkpt><trkpt lat="37.2750287" lon="-2.3009836"><ele>1114.0</ele><time>2026-04-11T14:28:05.384Z</time></trkpt><trkpt lat="37.2750231" lon="-2.3007519"><ele>1114.0</ele><time>2026-04-11T14:28:06.384Z</time></trkpt><trkpt lat="37.2749817" lon="-2.3005208"><ele>1116.3333333333333</ele><time>2026-04-11T14:28:07.384Z</time></trkpt><trkpt lat="37.2749046" lon="-2.3003003"><ele>1118.6666666666667</ele><time>2026-04-11T14:28:08.384Z</time></trkpt><trkpt lat="37.2748113" lon="-2.3000958"><ele>1121.0</ele><time>2026-04-11T14:28:09.384Z</time></trkpt><trkpt lat="37.2746847" lon="-2.2998953"><ele>1118.0</ele><time>2026-04-11T14:28:10.384Z</time></trkpt><trkpt lat="37.2745658" lon="-2.2996937"><ele>1115.0</ele><time>2026-04-11T14:28:11.384Z</time></trkpt><trkpt lat="37.2744612" lon="-2.2994759"><ele>1112.0</ele><time>2026-04-11T14:28:12.384Z</time></trkpt><trkpt lat="37.2743773" lon="-2.2992258"><ele>1112.0</ele><time>2026-04-11T14:28:13.384Z</time></trkpt><trkpt lat="37.2743331" lon="-2.2989541"><ele>1112.0</ele><time>2026-04-11T14:28:14.384Z</time></trkpt><trkpt lat="37.274313" lon="-2.2986707"><ele>1112.0</ele><time>2026-04-11T14:28:15.384Z</time></trkpt><trkpt lat="37.2742934" lon="-2.2983883"><ele>1109.6666666666667</ele><time>2026-04-11T14:28:16.384Z</time></trkpt><trkpt lat="37.2742746" lon="-2.2981023"><ele>1107.3333333333333</ele><time>2026-04-11T14:28:17.384Z</time></trkpt><trkpt lat="37.2742596" lon="-2.2978397"><ele>1105.0</ele><time>2026-04-11T14:28:18.383Z</time></trkpt><trkpt lat="37.2742547" lon="-2.2976011"><ele>1103.6666666666665</ele><time>2026-04-11T14:28:19.384Z</time></trkpt><trkpt lat="37.2742738" lon="-2.2973853"><ele>1102.3333333333333</ele><time>2026-04-11T14:28:20.384Z</time></trkpt><trkpt lat="37.2743142" lon="-2.297185"><ele>1101.0</ele><time>2026-04-11T14:28:21.384Z</time></trkpt><trkpt lat="37.2743838" lon="-2.296987"><ele>1101.0</ele><time>2026-04-11T14:28:22.384Z</time></trkpt><trkpt lat="37.274475" lon="-2.296795"><ele>1101.0</ele><time>2026-04-11T14:28:23.384Z</time></trkpt><trkpt lat="37.2745782" lon="-2.2966047"><ele>1101.0</ele><time>2026-04-11T14:28:24.384Z</time></trkpt><trkpt lat="37.2746817" lon="-2.2964117"><ele>1093.0</ele><time>2026-04-11T14:28:25.384Z</time></trkpt><trkpt lat="37.2747866" lon="-2.2962116"><ele>1085.0</ele><time>2026-04-11T14:28:26.384Z</time></trkpt><trkpt lat="37.2748913" lon="-2.2960158"><ele>1077.0</ele><time>2026-04-11T14:28:27.384Z</time></trkpt><trkpt lat="37.2749913" lon="-2.2958295"><ele>1077.0</ele><time>2026-04-11T14:28:28.384Z</time></trkpt><trkpt lat="37.2750859" lon="-2.2956643"><ele>1077.0</ele><time>2026-04-11T14:28:29.384Z</time></trkpt><trkpt lat="37.2751948" lon="-2.2955091"><ele>1077.0</ele><time>2026-04-11T14:28:30.384Z</time></trkpt><trkpt lat="37.2753218" lon="-2.295378"><ele>1077.0</ele><time>2026-04-11T14:28:31.384Z</time></trkpt><trkpt lat="37.2754719" lon="-2.2952778"><ele>1077.0</ele><time>2026-04-11T14:28:32.383Z</time></trkpt><trkpt lat="37.2756344" lon="-2.2952057"><ele>1077.0</ele><time>2026-04-11T14:28:33.384Z</time></trkpt><trkpt lat="37.2758039" lon="-2.2951764"><ele>1076.0</ele><time>2026-04-11T14:28:34.383Z</time></trkpt><trkpt lat="37.2759782" lon="-2.295176"><ele>1075.0</ele><time>2026-04-11T14:28:35.384Z</time></trkpt><trkpt lat="37.2761481" lon="-2.2951891"><ele>1074.0</ele><time>2026-04-11T14:28:36.384Z</time></trkpt><trkpt lat="37.2763148" lon="-2.2952103"><ele>1074.3333333333333</ele><time>2026-04-11T14:28:37.384Z</time></trkpt><trkpt lat="37.2764788" lon="-2.2952071"><ele>1074.6666666666665</ele><time>2026-04-11T14:28:38.384Z</time></trkpt><trkpt lat="37.2766488" lon="-2.2951793"><ele>1075.0</ele><time>2026-04-11T14:28:39.384Z</time></trkpt><trkpt lat="37.2768085" lon="-2.295115"><ele>1075.0</ele><time>2026-04-11T14:28:40.384Z</time></trkpt><trkpt lat="37.2769566" lon="-2.2950163"><ele>1075.0</ele><time>2026-04-11T14:28:41.384Z</time></trkpt><trkpt lat="37.2770994" lon="-2.2948887"><ele>1075.0</ele><time>2026-04-11T14:28:42.384Z</time></trkpt><trkpt lat="37.2772389" lon="-2.294751"><ele>1071.3333333333333</ele><time>2026-04-11T14:28:43.384Z</time></trkpt><trkpt lat="37.2773826" lon="-2.294621"><ele>1067.6666666666667</ele><time>2026-04-11T14:28:44.384Z</time></trkpt><trkpt lat="37.2775376" lon="-2.2945042"><ele>1064.0</ele><time>2026-04-11T14:28:45.383Z</time></trkpt><trkpt lat="37.2776986" lon="-2.2944098"><ele>1064.0</ele><time>2026-04-11T14:28:46.384Z</time></trkpt><trkpt lat="37.2778731" lon="-2.2943385"><ele>1064.0</ele><time>2026-04-11T14:28:47.384Z</time></trkpt><trkpt lat="37.2780723" lon="-2.2943022"><ele>1064.0</ele><time>2026-04-11T14:28:48.383Z</time></trkpt><trkpt lat="37.2782613" lon="-2.2942972"><ele>1058.0</ele><time>2026-04-11T14:28:49.384Z</time></trkpt><trkpt lat="37.2784607" lon="-2.2943148"><ele>1052.0</ele><time>2026-04-11T14:28:50.384Z</time></trkpt><trkpt lat="37.27865" lon="-2.2943499"><ele>1046.0</ele><time>2026-04-11T14:28:51.384Z</time></trkpt><trkpt lat="37.2788483" lon="-2.2943992"><ele>1043.3333333333335</ele><time>2026-04-11T14:28:52.383Z</time></trkpt><trkpt lat="37.2790474" lon="-2.2944532"><ele>1040.6666666666667</ele><time>2026-04-11T14:28:53.384Z</time></trkpt><trkpt lat="37.2792477" lon="-2.2945138"><ele>1038.0</ele><time>2026-04-11T14:28:54.384Z</time></trkpt><trkpt lat="37.2794482" lon="-2.2945798"><ele>1038.0</ele><time>2026-04-11T14:28:55.384Z</time></trkpt><trkpt lat="37.2796527" lon="-2.2946334"><ele>1038.0</ele><time>2026-04-11T14:28:56.384Z</time></trkpt><trkpt lat="37.2798509" lon="-2.294669"><ele>1038.0</ele><time>2026-04-11T14:28:57.383Z</time></trkpt><trkpt lat="37.2800435" lon="-2.2946928"><ele>1036.6666666666667</ele><time>2026-04-11T14:28:58.384Z</time></trkpt><trkpt lat="37.2802321" lon="-2.2946895"><ele>1035.3333333333335</ele><time>2026-04-11T14:28:59.384Z</time></trkpt><trkpt lat="37.280429" lon="-2.2946647"><ele>1034.0</ele><time>2026-04-11T14:29:00.384Z</time></trkpt><trkpt lat="37.2806087" lon="-2.2945859"><ele>1031.6666666666667</ele><time>2026-04-11T14:29:01.384Z</time></trkpt><trkpt lat="37.2807841" lon="-2.2944822"><ele>1029.3333333333333</ele><time>2026-04-11T14:29:02.384Z</time></trkpt><trkpt lat="37.2809516" lon="-2.2943469"><ele>1027.0</ele><time>2026-04-11T14:29:03.384Z</time></trkpt><trkpt lat="37.2811043" lon="-2.294187"><ele>1027.0</ele><time>2026-04-11T14:29:04.384Z</time></trkpt><trkpt lat="37.281239" lon="-2.2939969"><ele>1027.0</ele><time>2026-04-11T14:29:05.383Z</time></trkpt><trkpt lat="37.2813598" lon="-2.293793"><ele>1027.0</ele><time>2026-04-11T14:29:06.384Z</time></trkpt><trkpt lat="37.2814411" lon="-2.2935625"><ele>1027.0</ele><time>2026-04-11T14:29:07.384Z</time></trkpt><trkpt lat="37.2814967" lon="-2.2933228"><ele>1027.0</ele><time>2026-04-11T14:29:08.383Z</time></trkpt><trkpt lat="37.2815281" lon="-2.2930729"><ele>1027.0</ele><time>2026-04-11T14:29:09.384Z</time></trkpt><trkpt lat="37.2815333" lon="-2.2928231"><ele>1027.0</ele><time>2026-04-11T14:29:10.384Z</time></trkpt><trkpt lat="37.2815132" lon="-2.2925749"><ele>1027.0</ele><time>2026-04-11T14:29:11.384Z</time></trkpt><trkpt lat="37.2814796" lon="-2.2923339"><ele>1027.0</ele><time>2026-04-11T14:29:12.384Z</time></trkpt><trkpt lat="37.2814444" lon="-2.2920833"><ele>1016.3333333333333</ele><time>2026-04-11T14:29:13.384Z</time></trkpt><trkpt lat="37.281417" lon="-2.2918357"><ele>1005.6666666666667</ele><time>2026-04-11T14:29:14.384Z</time></trkpt><trkpt lat="37.281395" lon="-2.2916603"><ele>995.0</ele><time>2026-04-11T14:29:15.384Z</time></trkpt><trkpt lat="37.2814118" lon="-2.2915098"><ele>1002.6666666666667</ele><time>2026-04-11T14:29:16.383Z</time></trkpt><trkpt lat="37.2814417" lon="-2.2913367"><ele>1010.3333333333333</ele><time>2026-04-11T14:29:17.384Z</time></trkpt><trkpt lat="37.2814946" lon="-2.2911589"><ele>1018.0</ele><time>2026-04-11T14:29:18.384Z</time></trkpt><trkpt lat="37.281574" lon="-2.2909744"><ele>1018.0</ele><time>2026-04-11T14:29:19.384Z</time></trkpt><trkpt lat="37.281685" lon="-2.2908119"><ele>1018.0</ele><time>2026-04-11T14:29:20.383Z</time></trkpt><trkpt lat="37.2818296" lon="-2.2906838"><ele>1018.0</ele><time>2026-04-11T14:29:21.384Z</time></trkpt><trkpt lat="37.2819893" lon="-2.2905668"><ele>1013.6666666666666</ele><time>2026-04-11T14:29:22.384Z</time></trkpt><trkpt lat="37.2821681" lon="-2.2904927"><ele>1009.3333333333333</ele><time>2026-04-11T14:29:23.384Z</time></trkpt><trkpt lat="37.2823557" lon="-2.2904762"><ele>1005.0</ele><time>2026-04-11T14:29:24.383Z</time></trkpt><trkpt lat="37.2825499" lon="-2.2905034"><ele>1001.3333333333333</ele><time>2026-04-11T14:29:25.383Z</time></trkpt><trkpt lat="37.2827341" lon="-2.2905733"><ele>997.6666666666666</ele><time>2026-04-11T14:29:26.384Z</time></trkpt><trkpt lat="37.2829069" lon="-2.2906787"><ele>994.0</ele><time>2026-04-11T14:29:27.383Z</time></trkpt><trkpt lat="37.2830828" lon="-2.290798"><ele>993.6666666666666</ele><time>2026-04-11T14:29:28.383Z</time></trkpt><trkpt lat="37.2832562" lon="-2.290916"><ele>993.3333333333333</ele><time>2026-04-11T14:29:29.384Z</time></trkpt><trkpt lat="37.2834244" lon="-2.291028"><ele>993.0</ele><time>2026-04-11T14:29:30.384Z</time></trkpt><trkpt lat="37.2835829" lon="-2.2911269"><ele>993.0</ele><time>2026-04-11T14:29:31.383Z</time></trkpt><trkpt lat="37.2837346" lon="-2.2912104"><ele>993.0</ele><time>2026-04-11T14:29:32.384Z</time></trkpt><trkpt lat="37.2838886" lon="-2.2912673"><ele>993.0</ele><time>2026-04-11T14:29:33.384Z</time></trkpt><trkpt lat="37.2840482" lon="-2.2912886"><ele>988.3333333333333</ele><time>2026-04-11T14:29:34.383Z</time></trkpt><trkpt lat="37.2842158" lon="-2.2912717"><ele>983.6666666666666</ele><time>2026-04-11T14:29:35.384Z</time></trkpt><trkpt lat="37.2843867" lon="-2.2912098"><ele>979.0</ele><time>2026-04-11T14:29:36.384Z</time></trkpt><trkpt lat="37.2845477" lon="-2.2911178"><ele>979.0</ele><time>2026-04-11T14:29:37.383Z</time></trkpt><trkpt lat="37.2846998" lon="-2.2909885"><ele>979.0</ele><time>2026-04-11T14:29:38.384Z</time></trkpt><trkpt lat="37.2848213" lon="-2.2908235"><ele>979.0</ele><time>2026-04-11T14:29:39.384Z</time></trkpt><trkpt lat="37.2849141" lon="-2.290627"><ele>981.3333333333333</ele><time>2026-04-11T14:29:40.384Z</time></trkpt><trkpt lat="37.2849745" lon="-2.2904079"><ele>983.6666666666667</ele><time>2026-04-11T14:29:41.384Z</time></trkpt><trkpt lat="37.2850056" lon="-2.2901754"><ele>986.0</ele><time>2026-04-11T14:29:42.384Z</time></trkpt><trkpt lat="37.2850123" lon="-2.2899266"><ele>986.0</ele><time>2026-04-11T14:29:43.384Z</time></trkpt><trkpt lat="37.284987" lon="-2.2896719"><ele>986.0</ele><time>2026-04-11T14:29:44.384Z</time></trkpt><trkpt lat="37.2849449" lon="-2.2894109"><ele>986.0</ele><time>2026-04-11T14:29:45.384Z</time></trkpt><trkpt lat="37.2848875" lon="-2.2891517"><ele>986.6666666666667</ele><time>2026-04-11T14:29:46.384Z</time></trkpt><trkpt lat="37.284818" lon="-2.2888947"><ele>987.3333333333333</ele><time>2026-04-11T14:29:47.383Z</time></trkpt><trkpt lat="37.2847424" lon="-2.2886358"><ele>988.0</ele><time>2026-04-11T14:29:48.384Z</time></trkpt><trkpt lat="37.2846619" lon="-2.2883792"><ele>979.0</ele><time>2026-04-11T14:29:49.384Z</time></trkpt><trkpt lat="37.2845724" lon="-2.2881239"><ele>970.0</ele><time>2026-04-11T14:29:50.384Z</time></trkpt><trkpt lat="37.2844808" lon="-2.2878803"><ele>961.0</ele><time>2026-04-11T14:29:51.384Z</time></trkpt><trkpt lat="37.2843932" lon="-2.2876537"><ele>961.0</ele><time>2026-04-11T14:29:52.383Z</time></trkpt><trkpt lat="37.284303" lon="-2.2874203"><ele>961.0</ele><time>2026-04-11T14:29:53.384Z</time></trkpt><trkpt lat="37.2842551" lon="-2.2872594"><ele>961.0</ele><time>2026-04-11T14:29:54.384Z</time></trkpt><trkpt lat="37.2842355" lon="-2.2870723"><ele>962.0</ele><time>2026-04-11T14:29:55.383Z</time></trkpt><trkpt lat="37.2842413" lon="-2.2868801"><ele>963.0</ele><time>2026-04-11T14:29:56.384Z</time></trkpt><trkpt lat="37.2842786" lon="-2.2866792"><ele>964.0</ele><time>2026-04-11T14:29:57.384Z</time></trkpt><trkpt lat="37.284336" lon="-2.2864913"><ele>959.0</ele><time>2026-04-11T14:29:58.383Z</time></trkpt><trkpt lat="37.2844525" lon="-2.2863039"><ele>954.0</ele><time>2026-04-11T14:29:59.384Z</time></trkpt><trkpt lat="37.2845744" lon="-2.2861476"><ele>949.0</ele><time>2026-04-11T14:30:00.384Z</time></trkpt><trkpt lat="37.2847216" lon="-2.2860278"><ele>950.6666666666666</ele><time>2026-04-11T14:30:01.384Z</time></trkpt><trkpt lat="37.2849079" lon="-2.2859755"><ele>952.3333333333333</ele><time>2026-04-11T14:30:02.384Z</time></trkpt><trkpt lat="37.2850789" lon="-2.2859363"><ele>954.0</ele><time>2026-04-11T14:30:03.384Z</time></trkpt><trkpt lat="37.2852669" lon="-2.2859508"><ele>954.0</ele><time>2026-04-11T14:30:04.384Z</time></trkpt><trkpt lat="37.2854521" lon="-2.2860167"><ele>954.0</ele><time>2026-04-11T14:30:05.384Z</time></trkpt><trkpt lat="37.2856246" lon="-2.2860564"><ele>954.0</ele><time>2026-04-11T14:30:06.384Z</time></trkpt><trkpt lat="37.2857911" lon="-2.2860428"><ele>951.0</ele><time>2026-04-11T14:30:07.384Z</time></trkpt><trkpt lat="37.2859514" lon="-2.2859703"><ele>948.0</ele><time>2026-04-11T14:30:08.384Z</time></trkpt><trkpt lat="37.286095" lon="-2.2858475"><ele>945.0</ele><time>2026-04-11T14:30:09.384Z</time></trkpt><trkpt lat="37.286212" lon="-2.2856816"><ele>939.6666666666667</ele><time>2026-04-11T14:30:10.383Z</time></trkpt><trkpt lat="37.2862934" lon="-2.2854892"><ele>934.3333333333334</ele><time>2026-04-11T14:30:11.384Z</time></trkpt><trkpt lat="37.2863492" lon="-2.2852784"><ele>929.0</ele><time>2026-04-11T14:30:12.384Z</time></trkpt><trkpt lat="37.2863398" lon="-2.2850572"><ele>929.0</ele><time>2026-04-11T14:30:13.383Z</time></trkpt><trkpt lat="37.286288" lon="-2.2848436"><ele>929.0</ele><time>2026-04-11T14:30:14.383Z</time></trkpt><trkpt lat="37.2862014" lon="-2.2846509"><ele>929.0</ele><time>2026-04-11T14:30:15.383Z</time></trkpt><trkpt lat="37.2860845" lon="-2.2844763"><ele>931.6666666666667</ele><time>2026-04-11T14:30:16.384Z</time></trkpt><trkpt lat="37.28596" lon="-2.2843164"><ele>934.3333333333333</ele><time>2026-04-11T14:30:17.384Z</time></trkpt><trkpt lat="37.2858502" lon="-2.2841642"><ele>937.0</ele><time>2026-04-11T14:30:18.384Z</time></trkpt><trkpt lat="37.285772" lon="-2.2840065"><ele>938.0</ele><time>2026-04-11T14:30:19.384Z</time></trkpt><trkpt lat="37.285719" lon="-2.2838238"><ele>939.0</ele><time>2026-04-11T14:30:20.384Z</time></trkpt><trkpt lat="37.2856978" lon="-2.2836306"><ele>940.0</ele><time>2026-04-11T14:30:21.384Z</time></trkpt><trkpt lat="37.2857137" lon="-2.2834263"><ele>940.0</ele><time>2026-04-11T14:30:22.384Z</time></trkpt><trkpt lat="37.2857609" lon="-2.2832175"><ele>940.0</ele><time>2026-04-11T14:30:23.384Z</time></trkpt><trkpt lat="37.2858265" lon="-2.283008"><ele>940.0</ele><time>2026-04-11T14:30:24.384Z</time></trkpt><trkpt lat="37.2858937" lon="-2.2827856"><ele>935.6666666666666</ele><time>2026-04-11T14:30:25.384Z</time></trkpt><trkpt lat="37.2859661" lon="-2.282563"><ele>931.3333333333333</ele><time>2026-04-11T14:30:26.383Z</time></trkpt><trkpt lat="37.2860379" lon="-2.282333"><ele>927.0</ele><time>2026-04-11T14:30:27.384Z</time></trkpt><trkpt lat="37.2861071" lon="-2.2821105"><ele>921.0</ele><time>2026-04-11T14:30:28.384Z</time></trkpt><trkpt lat="37.2861743" lon="-2.2819283"><ele>915.0</ele><time>2026-04-11T14:30:29.384Z</time></trkpt><trkpt lat="37.2862527" lon="-2.2817314"><ele>909.0</ele><time>2026-04-11T14:30:30.384Z</time></trkpt><trkpt lat="37.2863251" lon="-2.2816067"><ele>909.0</ele><time>2026-04-11T14:30:31.384Z</time></trkpt><trkpt lat="37.2864205" lon="-2.2814862"><ele>909.0</ele><time>2026-04-11T14:30:32.384Z</time></trkpt><trkpt lat="37.2865593" lon="-2.2813878"><ele>909.0</ele><time>2026-04-11T14:30:33.383Z</time></trkpt><trkpt lat="37.2867009" lon="-2.2813033"><ele>905.3333333333333</ele><time>2026-04-11T14:30:34.384Z</time></trkpt><trkpt lat="37.2868517" lon="-2.2812132"><ele>901.6666666666666</ele><time>2026-04-11T14:30:35.383Z</time></trkpt><trkpt lat="37.2870027" lon="-2.2811059"><ele>898.0</ele><time>2026-04-11T14:30:36.384Z</time></trkpt><trkpt lat="37.2871419" lon="-2.2809924"><ele>905.0</ele><time>2026-04-11T14:30:37.384Z</time></trkpt><trkpt lat="37.2872681" lon="-2.2808601"><ele>912.0</ele><time>2026-04-11T14:30:38.384Z</time></trkpt><trkpt lat="37.2874158" lon="-2.2807279"><ele>919.0</ele><time>2026-04-11T14:30:39.384Z</time></trkpt><trkpt lat="37.2875716" lon="-2.2806097"><ele>910.0</ele><time>2026-04-11T14:30:40.383Z</time></trkpt><trkpt lat="37.2877385" lon="-2.2805021"><ele>901.0</ele><time>2026-04-11T14:30:41.384Z</time></trkpt><trkpt lat="37.2879044" lon="-2.2804171"><ele>892.0</ele><time>2026-04-11T14:30:42.384Z</time></trkpt><trkpt lat="37.2880604" lon="-2.2803463"><ele>893.25</ele><time>2026-04-11T14:30:43.384Z</time></trkpt><trkpt lat="37.2882046" lon="-2.2803047"><ele>894.5</ele><time>2026-04-11T14:30:44.383Z</time></trkpt><trkpt lat="37.2883438" lon="-2.2803036"><ele>895.75</ele><time>2026-04-11T14:30:45.384Z</time></trkpt><trkpt lat="37.2884819" lon="-2.2803416"><ele>897.0</ele><time>2026-04-11T14:30:46.384Z</time></trkpt><trkpt lat="37.2886144" lon="-2.280416"><ele>897.0</ele><time>2026-04-11T14:30:47.384Z</time></trkpt><trkpt lat="37.2887582" lon="-2.2804973"><ele>897.0</ele><time>2026-04-11T14:30:48.384Z</time></trkpt><trkpt lat="37.2889139" lon="-2.2805647"><ele>897.0</ele><time>2026-04-11T14:30:49.384Z</time></trkpt><trkpt lat="37.2890786" lon="-2.2805962"><ele>895.6666666666667</ele><time>2026-04-11T14:30:50.384Z</time></trkpt><trkpt lat="37.2892464" lon="-2.2806012"><ele>894.3333333333334</ele><time>2026-04-11T14:30:51.383Z</time></trkpt><trkpt lat="37.2894041" lon="-2.2805673"><ele>893.0</ele><time>2026-04-11T14:30:52.384Z</time></trkpt><trkpt lat="37.2895538" lon="-2.2804916"><ele>893.0</ele><time>2026-04-11T14:30:53.384Z</time></trkpt><trkpt lat="37.2896777" lon="-2.2803656"><ele>893.0</ele><time>2026-04-11T14:30:54.384Z</time></trkpt><trkpt lat="37.2897884" lon="-2.2802043"><ele>893.0</ele><time>2026-04-11T14:30:55.384Z</time></trkpt><trkpt lat="37.289884" lon="-2.2800289"><ele>893.3333333333334</ele><time>2026-04-11T14:30:56.384Z</time></trkpt><trkpt lat="37.2899808" lon="-2.2798636"><ele>893.6666666666667</ele><time>2026-04-11T14:30:57.384Z</time></trkpt><trkpt lat="37.2900912" lon="-2.2797235"><ele>894.0</ele><time>2026-04-11T14:30:58.384Z</time></trkpt><trkpt lat="37.290232" lon="-2.2796205"><ele>894.6666666666667</ele><time>2026-04-11T14:30:59.384Z</time></trkpt><trkpt lat="37.290394" lon="-2.2795614"><ele>895.3333333333334</ele><time>2026-04-11T14:31:00.384Z</time></trkpt><trkpt lat="37.2905681" lon="-2.2795354"><ele>896.0</ele><time>2026-04-11T14:31:01.384Z</time></trkpt><trkpt lat="37.2907461" lon="-2.2795485"><ele>890.6666666666667</ele><time>2026-04-11T14:31:02.384Z</time></trkpt><trkpt lat="37.2909302" lon="-2.2795853"><ele>885.3333333333333</ele><time>2026-04-11T14:31:03.384Z</time></trkpt><trkpt lat="37.2911144" lon="-2.2796277"><ele>880.0</ele><time>2026-04-11T14:31:04.384Z</time></trkpt><trkpt lat="37.2912965" lon="-2.2796749"><ele>878.6666666666666</ele><time>2026-04-11T14:31:05.384Z</time></trkpt><trkpt lat="37.2914676" lon="-2.2797148"><ele>877.3333333333333</ele><time>2026-04-11T14:31:06.384Z</time></trkpt><trkpt lat="37.2916333" lon="-2.2797506"><ele>876.0</ele><time>2026-04-11T14:31:07.384Z</time></trkpt><trkpt lat="37.2917916" lon="-2.2797796"><ele>876.0</ele><time>2026-04-11T14:31:08.384Z</time></trkpt><trkpt lat="37.2919518" lon="-2.2798049"><ele>876.0</ele><time>2026-04-11T14:31:09.384Z</time></trkpt><trkpt lat="37.292115" lon="-2.2798165"><ele>876.0</ele><time>2026-04-11T14:31:10.384Z</time></trkpt><trkpt lat="37.2922886" lon="-2.2797932"><ele>874.0</ele><time>2026-04-11T14:31:11.384Z</time></trkpt><trkpt lat="37.2924663" lon="-2.2797309"><ele>872.0</ele><time>2026-04-11T14:31:12.384Z</time></trkpt><trkpt lat="37.2926473" lon="-2.2796509"><ele>870.0</ele><time>2026-04-11T14:31:13.384Z</time></trkpt><trkpt lat="37.2928298" lon="-2.2795519"><ele>870.0</ele><time>2026-04-11T14:31:14.383Z</time></trkpt><trkpt lat="37.2930105" lon="-2.2794405"><ele>870.0</ele><time>2026-04-11T14:31:15.384Z</time></trkpt><trkpt lat="37.2931937" lon="-2.2793211"><ele>870.0</ele><time>2026-04-11T14:31:16.384Z</time></trkpt><trkpt lat="37.2933739" lon="-2.2792006"><ele>868.3333333333333</ele><time>2026-04-11T14:31:17.384Z</time></trkpt><trkpt lat="37.2935504" lon="-2.2790852"><ele>866.6666666666666</ele><time>2026-04-11T14:31:18.384Z</time></trkpt><trkpt lat="37.2937244" lon="-2.2789858"><ele>865.0</ele><time>2026-04-11T14:31:19.384Z</time></trkpt><trkpt lat="37.2938993" lon="-2.278897"><ele>860.6666666666666</ele><time>2026-04-11T14:31:20.384Z</time></trkpt><trkpt lat="37.2940849" lon="-2.278839"><ele>856.3333333333333</ele><time>2026-04-11T14:31:21.383Z</time></trkpt><trkpt lat="37.2942769" lon="-2.2788043"><ele>852.0</ele><time>2026-04-11T14:31:22.383Z</time></trkpt><trkpt lat="37.2944736" lon="-2.2787768"><ele>852.0</ele><time>2026-04-11T14:31:23.384Z</time></trkpt><trkpt lat="37.2946606" lon="-2.2787425"><ele>852.0</ele><time>2026-04-11T14:31:24.384Z</time></trkpt><trkpt lat="37.294868" lon="-2.2786889"><ele>852.0</ele><time>2026-04-11T14:31:25.384Z</time></trkpt><trkpt lat="37.295068" lon="-2.278618"><ele>849.3333333333333</ele><time>2026-04-11T14:31:26.384Z</time></trkpt><trkpt lat="37.2952573" lon="-2.2785222"><ele>846.6666666666666</ele><time>2026-04-11T14:31:27.384Z</time></trkpt><trkpt lat="37.295443" lon="-2.2783981"><ele>844.0</ele><time>2026-04-11T14:31:28.384Z</time></trkpt><trkpt lat="37.295618" lon="-2.2782633"><ele>842.0</ele><time>2026-04-11T14:31:29.384Z</time></trkpt><trkpt lat="37.2957871" lon="-2.278102"><ele>840.0</ele><time>2026-04-11T14:31:30.384Z</time></trkpt><trkpt lat="37.2959534" lon="-2.2779245"><ele>838.0</ele><time>2026-04-11T14:31:31.384Z</time></trkpt><trkpt lat="37.2961127" lon="-2.2777581"><ele>838.0</ele><time>2026-04-11T14:31:32.384Z</time></trkpt><trkpt lat="37.2962767" lon="-2.2775973"><ele>838.0</ele><time>2026-04-11T14:31:33.384Z</time></trkpt><trkpt lat="37.2964406" lon="-2.2774446"><ele>838.0</ele><time>2026-04-11T14:31:34.384Z</time></trkpt><trkpt lat="37.2966071" lon="-2.2773045"><ele>842.0</ele><time>2026-04-11T14:31:35.384Z</time></trkpt><trkpt lat="37.2967801" lon="-2.2771746"><ele>846.0</ele><time>2026-04-11T14:31:36.383Z</time></trkpt><trkpt lat="37.2969564" lon="-2.2770581"><ele>850.0</ele><time>2026-04-11T14:31:37.384Z</time></trkpt><trkpt lat="37.2971377" lon="-2.2769592"><ele>844.3333333333333</ele><time>2026-04-11T14:31:38.384Z</time></trkpt><trkpt lat="37.2973217" lon="-2.2768775"><ele>838.6666666666667</ele><time>2026-04-11T14:31:39.384Z</time></trkpt><trkpt lat="37.2975084" lon="-2.2768124"><ele>833.0</ele><time>2026-04-11T14:31:40.383Z</time></trkpt><trkpt lat="37.2976923" lon="-2.2767658"><ele>833.0</ele><time>2026-04-11T14:31:41.384Z</time></trkpt><trkpt lat="37.2978796" lon="-2.2767345"><ele>833.0</ele><time>2026-04-11T14:31:42.384Z</time></trkpt><trkpt lat="37.2980653" lon="-2.2767167"><ele>833.0</ele><time>2026-04-11T14:31:43.384Z</time></trkpt><trkpt lat="37.2982561" lon="-2.276712"><ele>833.3333333333334</ele><time>2026-04-11T14:31:44.383Z</time></trkpt><trkpt lat="37.2984534" lon="-2.2767136"><ele>833.6666666666667</ele><time>2026-04-11T14:31:45.384Z</time></trkpt><trkpt lat="37.29865" lon="-2.2767342"><ele>834.0</ele><time>2026-04-11T14:31:46.383Z</time></trkpt><trkpt lat="37.298843" lon="-2.2767704"><ele>834.3333333333333</ele><time>2026-04-11T14:31:47.384Z</time></trkpt><trkpt lat="37.2990412" lon="-2.2768256"><ele>834.6666666666666</ele><time>2026-04-11T14:31:48.384Z</time></trkpt><trkpt lat="37.2992402" lon="-2.2768892"><ele>835.0</ele><time>2026-04-11T14:31:49.384Z</time></trkpt><trkpt lat="37.2994369" lon="-2.2769825"><ele>835.0</ele><time>2026-04-11T14:31:50.384Z</time></trkpt><trkpt lat="37.2996307" lon="-2.2770868"><ele>835.0</ele><time>2026-04-11T14:31:51.384Z</time></trkpt><trkpt lat="37.2998174" lon="-2.2772162"><ele>835.0</ele><time>2026-04-11T14:31:52.384Z</time></trkpt><trkpt lat="37.3000015" lon="-2.2773558"><ele>833.0</ele><time>2026-04-11T14:31:53.384Z</time></trkpt><trkpt lat="37.3001848" lon="-2.2775074"><ele>831.0</ele><time>2026-04-11T14:31:54.384Z</time></trkpt><trkpt lat="37.3003753" lon="-2.2776764"><ele>831.0</ele><time>2026-04-11T14:31:55.384Z</time></trkpt><trkpt lat="37.3005557" lon="-2.2778504"><ele>831.0</ele><time>2026-04-11T14:31:56.384Z</time></trkpt><trkpt lat="37.3007347" lon="-2.2780274"><ele>833.0</ele><time>2026-04-11T14:31:57.384Z</time></trkpt><trkpt lat="37.3009122" lon="-2.2782054"><ele>835.0</ele><time>2026-04-11T14:31:58.384Z</time></trkpt><trkpt lat="37.3010893" lon="-2.2783913"><ele>835.0</ele><time>2026-04-11T14:31:59.383Z</time></trkpt><trkpt lat="37.3012541" lon="-2.2785887"><ele>835.0</ele><time>2026-04-11T14:32:00.384Z</time></trkpt><trkpt lat="37.3013986" lon="-2.2788093"><ele>832.0</ele><time>2026-04-11T14:32:01.384Z</time></trkpt><trkpt lat="37.3015226" lon="-2.2790481"><ele>829.0</ele><time>2026-04-11T14:32:02.384Z</time></trkpt><trkpt lat="37.3016214" lon="-2.2793036"><ele>829.0</ele><time>2026-04-11T14:32:03.384Z</time></trkpt><trkpt lat="37.3016981" lon="-2.2795761"><ele>829.0</ele><time>2026-04-11T14:32:04.384Z</time></trkpt><trkpt lat="37.3017659" lon="-2.2798512"><ele>831.0</ele><time>2026-04-11T14:32:05.384Z</time></trkpt><trkpt lat="37.3018269" lon="-2.2801278"><ele>833.0</ele><time>2026-04-11T14:32:06.383Z</time></trkpt><trkpt lat="37.3018894" lon="-2.2804028"><ele>834.3333333333334</ele><time>2026-04-11T14:32:07.384Z</time></trkpt><trkpt lat="37.3019485" lon="-2.2806767"><ele>835.6666666666667</ele><time>2026-04-11T14:32:08.384Z</time></trkpt><trkpt lat="37.3020069" lon="-2.2809411"><ele>837.0</ele><time>2026-04-11T14:32:09.384Z</time></trkpt><trkpt lat="37.3020708" lon="-2.2811972"><ele>835.3333333333333</ele><time>2026-04-11T14:32:10.384Z</time></trkpt><trkpt lat="37.3021424" lon="-2.2814414"><ele>833.6666666666666</ele><time>2026-04-11T14:32:11.384Z</time></trkpt><trkpt lat="37.302236" lon="-2.2816685"><ele>832.0</ele><time>2026-04-11T14:32:12.384Z</time></trkpt><trkpt lat="37.3023503" lon="-2.2818757"><ele>835.3333333333333</ele><time>2026-04-11T14:32:13.384Z</time></trkpt><trkpt lat="37.3024976" lon="-2.2820554"><ele>838.6666666666667</ele><time>2026-04-11T14:32:14.384Z</time></trkpt><trkpt lat="37.3026649" lon="-2.282201"><ele>842.0</ele><time>2026-04-11T14:32:15.384Z</time></trkpt><trkpt lat="37.3028516" lon="-2.2822977"><ele>842.0</ele><time>2026-04-11T14:32:16.384Z</time></trkpt><trkpt lat="37.3030559" lon="-2.2823538"><ele>842.0</ele><time>2026-04-11T14:32:17.384Z</time></trkpt><trkpt lat="37.3032633" lon="-2.2823664"><ele>842.0</ele><time>2026-04-11T14:32:18.384Z</time></trkpt><trkpt lat="37.3034693" lon="-2.2823732"><ele>841.3333333333334</ele><time>2026-04-11T14:32:19.384Z</time></trkpt><trkpt lat="37.3036739" lon="-2.2823754"><ele>840.6666666666667</ele><time>2026-04-11T14:32:20.384Z</time></trkpt><trkpt lat="37.3038875" lon="-2.2823781"><ele>840.0</ele><time>2026-04-11T14:32:21.384Z</time></trkpt><trkpt lat="37.3040892" lon="-2.2823829"><ele>842.6666666666667</ele><time>2026-04-11T14:32:22.384Z</time></trkpt><trkpt lat="37.3042948" lon="-2.2823872"><ele>845.3333333333334</ele><time>2026-04-11T14:32:23.384Z</time></trkpt><trkpt lat="37.3045006" lon="-2.2823978"><ele>848.0</ele><time>2026-04-11T14:32:24.384Z</time></trkpt><trkpt lat="37.3047031" lon="-2.2824253"><ele>850.3333333333334</ele><time>2026-04-11T14:32:25.384Z</time></trkpt><trkpt lat="37.3049016" lon="-2.2824794"><ele>852.6666666666667</ele><time>2026-04-11T14:32:26.383Z</time></trkpt><trkpt lat="37.305104" lon="-2.2825491"><ele>855.0</ele><time>2026-04-11T14:32:27.383Z</time></trkpt><trkpt lat="37.3052977" lon="-2.2826374"><ele>855.0</ele><time>2026-04-11T14:32:28.384Z</time></trkpt><trkpt lat="37.30549" lon="-2.2827383"><ele>855.0</ele><time>2026-04-11T14:32:29.384Z</time></trkpt><trkpt lat="37.3056834" lon="-2.2828404"><ele>855.0</ele><time>2026-04-11T14:32:30.384Z</time></trkpt><trkpt lat="37.3058779" lon="-2.2829379"><ele>856.0</ele><time>2026-04-11T14:32:31.384Z</time></trkpt><trkpt lat="37.3060737" lon="-2.2830402"><ele>857.0</ele><time>2026-04-11T14:32:32.384Z</time></trkpt><trkpt lat="37.3062651" lon="-2.2831406"><ele>858.0</ele><time>2026-04-11T14:32:33.384Z</time></trkpt><trkpt lat="37.3064604" lon="-2.283241"><ele>860.0</ele><time>2026-04-11T14:32:34.384Z</time></trkpt><trkpt lat="37.3066543" lon="-2.2833289"><ele>862.0</ele><time>2026-04-11T14:32:35.384Z</time></trkpt><trkpt lat="37.3068515" lon="-2.2833954"><ele>864.0</ele><time>2026-04-11T14:32:36.384Z</time></trkpt><trkpt lat="37.3070524" lon="-2.2834403"><ele>864.0</ele><time>2026-04-11T14:32:37.383Z</time></trkpt><trkpt lat="37.307259" lon="-2.283463"><ele>864.0</ele><time>2026-04-11T14:32:38.384Z</time></trkpt><trkpt lat="37.3074626" lon="-2.2834662"><ele>864.0</ele><time>2026-04-11T14:32:39.384Z</time></trkpt><trkpt lat="37.307666" lon="-2.2834628"><ele>864.0</ele><time>2026-04-11T14:32:40.384Z</time></trkpt><trkpt lat="37.3078715" lon="-2.2834616"><ele>864.0</ele><time>2026-04-11T14:32:41.383Z</time></trkpt><trkpt lat="37.3080731" lon="-2.2834555"><ele>864.0</ele><time>2026-04-11T14:32:42.384Z</time></trkpt><trkpt lat="37.3082771" lon="-2.2834528"><ele>866.6666666666667</ele><time>2026-04-11T14:32:43.383Z</time></trkpt><trkpt lat="37.308478" lon="-2.2834476"><ele>869.3333333333334</ele><time>2026-04-11T14:32:44.383Z</time></trkpt><trkpt lat="37.3086791" lon="-2.2834355"><ele>872.0</ele><time>2026-04-11T14:32:45.384Z</time></trkpt><trkpt lat="37.3088761" lon="-2.2834049"><ele>876.3333333333334</ele><time>2026-04-11T14:32:46.384Z</time></trkpt><trkpt lat="37.3090724" lon="-2.2833488"><ele>880.6666666666667</ele><time>2026-04-11T14:32:47.384Z</time></trkpt><trkpt lat="37.309262" lon="-2.2832628"><ele>885.0</ele><time>2026-04-11T14:32:48.384Z</time></trkpt><trkpt lat="37.309447" lon="-2.2831494"><ele>884.3333333333333</ele><time>2026-04-11T14:32:49.383Z</time></trkpt><trkpt lat="37.3096159" lon="-2.2830066"><ele>883.6666666666666</ele><time>2026-04-11T14:32:50.383Z</time></trkpt><trkpt lat="37.3097714" lon="-2.2828418"><ele>883.0</ele><time>2026-04-11T14:32:51.384Z</time></trkpt><trkpt lat="37.309917" lon="-2.2826674"><ele>883.0</ele><time>2026-04-11T14:32:52.384Z</time></trkpt><trkpt lat="37.3100548" lon="-2.2824911"><ele>883.0</ele><time>2026-04-11T14:32:53.384Z</time></trkpt><trkpt lat="37.3101966" lon="-2.2823241"><ele>883.0</ele><time>2026-04-11T14:32:54.383Z</time></trkpt><trkpt lat="37.3103445" lon="-2.2821735"><ele>879.6666666666666</ele><time>2026-04-11T14:32:55.383Z</time></trkpt><trkpt lat="37.3105089" lon="-2.2820566"><ele>876.3333333333333</ele><time>2026-04-11T14:32:56.384Z</time></trkpt><trkpt lat="37.3106879" lon="-2.2819884"><ele>873.0</ele><time>2026-04-11T14:32:57.384Z</time></trkpt><trkpt lat="37.3108864" lon="-2.2819638"><ele>873.0</ele><time>2026-04-11T14:32:58.384Z</time></trkpt><trkpt lat="37.3110905" lon="-2.28197"><ele>873.0</ele><time>2026-04-11T14:32:59.384Z</time></trkpt><trkpt lat="37.3113021" lon="-2.2819929"><ele>873.0</ele><time>2026-04-11T14:33:00.384Z</time></trkpt><trkpt lat="37.3115176" lon="-2.2820262"><ele>872.3333333333333</ele><time>2026-04-11T14:33:01.384Z</time></trkpt><trkpt lat="37.3117332" lon="-2.2820601"><ele>871.6666666666666</ele><time>2026-04-11T14:33:02.384Z</time></trkpt><trkpt lat="37.3119573" lon="-2.282097"><ele>871.0</ele><time>2026-04-11T14:33:03.384Z</time></trkpt><trkpt lat="37.3121852" lon="-2.2821299"><ele>869.0</ele><time>2026-04-11T14:33:04.384Z</time></trkpt><trkpt lat="37.312414" lon="-2.282164"><ele>867.0</ele><time>2026-04-11T14:33:05.384Z</time></trkpt><trkpt lat="37.3126366" lon="-2.2821962"><ele>867.0</ele><time>2026-04-11T14:33:06.384Z</time></trkpt><trkpt lat="37.3128542" lon="-2.2822264"><ele>867.0</ele><time>2026-04-11T14:33:07.384Z</time></trkpt><trkpt lat="37.3130651" lon="-2.2822398"><ele>867.0</ele><time>2026-04-11T14:33:08.384Z</time></trkpt><trkpt lat="37.313279" lon="-2.2822226"><ele>865.3333333333333</ele><time>2026-04-11T14:33:09.384Z</time></trkpt><trkpt lat="37.3134954" lon="-2.2821808"><ele>863.6666666666666</ele><time>2026-04-11T14:33:10.384Z</time></trkpt><trkpt lat="37.3137128" lon="-2.2821144"><ele>862.0</ele><time>2026-04-11T14:33:11.383Z</time></trkpt><trkpt lat="37.3139293" lon="-2.2820203"><ele>859.5</ele><time>2026-04-11T14:33:12.384Z</time></trkpt><trkpt lat="37.3141367" lon="-2.2819007"><ele>857.0</ele><time>2026-04-11T14:33:13.384Z</time></trkpt><trkpt lat="37.3143429" lon="-2.2817688"><ele>857.0</ele><time>2026-04-11T14:33:14.384Z</time></trkpt><trkpt lat="37.3145477" lon="-2.2816311"><ele>857.0</ele><time>2026-04-11T14:33:15.384Z</time></trkpt><trkpt lat="37.3147531" lon="-2.2814935"><ele>850.6666666666667</ele><time>2026-04-11T14:33:16.384Z</time></trkpt><trkpt lat="37.3149574" lon="-2.2813587"><ele>844.3333333333333</ele><time>2026-04-11T14:33:17.384Z</time></trkpt><trkpt lat="37.3151459" lon="-2.2812268"><ele>838.0</ele><time>2026-04-11T14:33:18.384Z</time></trkpt><trkpt lat="37.3153232" lon="-2.2811054"><ele>838.0</ele><time>2026-04-11T14:33:19.384Z</time></trkpt><trkpt lat="37.3154885" lon="-2.2809965"><ele>838.0</ele><time>2026-04-11T14:33:20.384Z</time></trkpt><trkpt lat="37.3156458" lon="-2.2809099"><ele>838.0</ele><time>2026-04-11T14:33:21.384Z</time></trkpt><trkpt lat="37.3158027" lon="-2.2808607"><ele>839.6666666666666</ele><time>2026-04-11T14:33:22.384Z</time></trkpt><trkpt lat="37.315971" lon="-2.280848"><ele>841.3333333333333</ele><time>2026-04-11T14:33:23.384Z</time></trkpt><trkpt lat="37.3161361" lon="-2.2808782"><ele>843.0</ele><time>2026-04-11T14:33:24.384Z</time></trkpt><trkpt lat="37.3163013" lon="-2.2809543"><ele>840.3333333333333</ele><time>2026-04-11T14:33:25.383Z</time></trkpt><trkpt lat="37.3164514" lon="-2.2810708"><ele>837.6666666666666</ele><time>2026-04-11T14:33:26.384Z</time></trkpt><trkpt lat="37.3165841" lon="-2.2812234"><ele>835.0</ele><time>2026-04-11T14:33:27.384Z</time></trkpt><trkpt lat="37.3166835" lon="-2.281414"><ele>839.0</ele><time>2026-04-11T14:33:28.383Z</time></trkpt><trkpt lat="37.3167471" lon="-2.2816333"><ele>843.0</ele><time>2026-04-11T14:33:29.384Z</time></trkpt><trkpt lat="37.316793" lon="-2.281862"><ele>847.0</ele><time>2026-04-11T14:33:30.384Z</time></trkpt><trkpt lat="37.3167887" lon="-2.2821046"><ele>842.3333333333333</ele><time>2026-04-11T14:33:31.384Z</time></trkpt><trkpt lat="37.3167382" lon="-2.2823598"><ele>837.6666666666667</ele><time>2026-04-11T14:33:32.384Z</time></trkpt><trkpt lat="37.3166866" lon="-2.2826183"><ele>833.0</ele><time>2026-04-11T14:33:33.384Z</time></trkpt><trkpt lat="37.3166408" lon="-2.2828772"><ele>829.3333333333334</ele><time>2026-04-11T14:33:34.384Z</time></trkpt><trkpt lat="37.316592" lon="-2.2831361"><ele>825.6666666666667</ele><time>2026-04-11T14:33:35.384Z</time></trkpt><trkpt lat="37.3165502" lon="-2.2833834"><ele>822.0</ele><time>2026-04-11T14:33:36.384Z</time></trkpt><trkpt lat="37.3165153" lon="-2.2836259"><ele>822.0</ele><time>2026-04-11T14:33:37.384Z</time></trkpt><trkpt lat="37.316501" lon="-2.28383"><ele>822.0</ele><time>2026-04-11T14:33:38.383Z</time></trkpt><trkpt lat="37.3165216" lon="-2.2840386"><ele>822.0</ele><time>2026-04-11T14:33:39.383Z</time></trkpt><trkpt lat="37.3165705" lon="-2.2842422"><ele>820.0</ele><time>2026-04-11T14:33:40.384Z</time></trkpt><trkpt lat="37.3166588" lon="-2.2844269"><ele>818.0</ele><time>2026-04-11T14:33:41.384Z</time></trkpt><trkpt lat="37.3167777" lon="-2.2845912"><ele>816.0</ele><time>2026-04-11T14:33:42.384Z</time></trkpt><trkpt lat="37.3169252" lon="-2.2847205"><ele>819.3333333333333</ele><time>2026-04-11T14:33:43.384Z</time></trkpt><trkpt lat="37.3170992" lon="-2.2848088"><ele>822.6666666666666</ele><time>2026-04-11T14:33:44.383Z</time></trkpt><trkpt lat="37.3172921" lon="-2.2848577"><ele>826.0</ele><time>2026-04-11T14:33:45.384Z</time></trkpt><trkpt lat="37.3174875" lon="-2.2848943"><ele>826.0</ele><time>2026-04-11T14:33:46.384Z</time></trkpt><trkpt lat="37.3176888" lon="-2.2849311"><ele>826.0</ele><time>2026-04-11T14:33:47.383Z</time></trkpt><trkpt lat="37.3178902" lon="-2.2849615"><ele>826.0</ele><time>2026-04-11T14:33:48.383Z</time></trkpt><trkpt lat="37.3180924" lon="-2.284988"><ele>823.6666666666666</ele><time>2026-04-11T14:33:49.384Z</time></trkpt><trkpt lat="37.3182944" lon="-2.2849912"><ele>821.3333333333333</ele><time>2026-04-11T14:33:50.384Z</time></trkpt><trkpt lat="37.3184952" lon="-2.2849639"><ele>819.0</ele><time>2026-04-11T14:33:51.384Z</time></trkpt><trkpt lat="37.3186979" lon="-2.2849031"><ele>819.0</ele><time>2026-04-11T14:33:52.383Z</time></trkpt><trkpt lat="37.3188941" lon="-2.2848111"><ele>819.0</ele><time>2026-04-11T14:33:53.384Z</time></trkpt><trkpt lat="37.3190792" lon="-2.2847072"><ele>819.0</ele><time>2026-04-11T14:33:54.383Z</time></trkpt><trkpt lat="37.3192524" lon="-2.2845522"><ele>813.6666666666667</ele><time>2026-04-11T14:33:55.384Z</time></trkpt><trkpt lat="37.319418" lon="-2.2843939"><ele>808.3333333333334</ele><time>2026-04-11T14:33:56.383Z</time></trkpt><trkpt lat="37.3195812" lon="-2.2842197"><ele>803.0</ele><time>2026-04-11T14:33:57.384Z</time></trkpt><trkpt lat="37.3197465" lon="-2.2840432"><ele>799.0</ele><time>2026-04-11T14:33:58.384Z</time></trkpt><trkpt lat="37.3199136" lon="-2.283867"><ele>795.0</ele><time>2026-04-11T14:33:59.384Z</time></trkpt><trkpt lat="37.3200795" lon="-2.2836892"><ele>791.0</ele><time>2026-04-11T14:34:00.384Z</time></trkpt><trkpt lat="37.3202538" lon="-2.2835048"><ele>791.0</ele><time>2026-04-11T14:34:01.383Z</time></trkpt><trkpt lat="37.3204253" lon="-2.2833265"><ele>791.0</ele><time>2026-04-11T14:34:02.384Z</time></trkpt><trkpt lat="37.3205943" lon="-2.2831486"><ele>791.0</ele><time>2026-04-11T14:34:03.384Z</time></trkpt><trkpt lat="37.3207638" lon="-2.2829719"><ele>790.0</ele><time>2026-04-11T14:34:04.384Z</time></trkpt><trkpt lat="37.3209271" lon="-2.2827873"><ele>789.0</ele><time>2026-04-11T14:34:05.384Z</time></trkpt><trkpt lat="37.3210944" lon="-2.2825857"><ele>789.0</ele><time>2026-04-11T14:34:06.384Z</time></trkpt><trkpt lat="37.3212509" lon="-2.2823693"><ele>789.0</ele><time>2026-04-11T14:34:07.383Z</time></trkpt><trkpt lat="37.3213953" lon="-2.282135"><ele>788.5</ele><time>2026-04-11T14:34:08.384Z</time></trkpt><trkpt lat="37.3215279" lon="-2.2818853"><ele>788.0</ele><time>2026-04-11T14:34:09.384Z</time></trkpt><trkpt lat="37.3216478" lon="-2.2816167"><ele>781.5</ele><time>2026-04-11T14:34:10.384Z</time></trkpt><trkpt lat="37.3217512" lon="-2.281336"><ele>775.0</ele><time>2026-04-11T14:34:11.384Z</time></trkpt><trkpt lat="37.321841" lon="-2.2810416"><ele>775.0</ele><time>2026-04-11T14:34:12.384Z</time></trkpt><trkpt lat="37.3219347" lon="-2.2807472"><ele>775.0</ele><time>2026-04-11T14:34:13.384Z</time></trkpt><trkpt lat="37.3220254" lon="-2.2804505"><ele>765.5</ele><time>2026-04-11T14:34:14.384Z</time></trkpt><trkpt lat="37.322116" lon="-2.2801547"><ele>756.0</ele><time>2026-04-11T14:34:15.384Z</time></trkpt><trkpt lat="37.322209" lon="-2.2798572"><ele>766.5</ele><time>2026-04-11T14:34:16.384Z</time></trkpt><trkpt lat="37.3222997" lon="-2.2795633"><ele>777.0</ele><time>2026-04-11T14:34:17.384Z</time></trkpt><trkpt lat="37.3223894" lon="-2.2792645"><ele>777.0</ele><time>2026-04-11T14:34:18.383Z</time></trkpt><trkpt lat="37.3224815" lon="-2.2789651"><ele>777.0</ele><time>2026-04-11T14:34:19.384Z</time></trkpt><trkpt lat="37.3225734" lon="-2.2786633"><ele>766.5</ele><time>2026-04-11T14:34:20.384Z</time></trkpt><trkpt lat="37.3226675" lon="-2.2783621"><ele>756.0</ele><time>2026-04-11T14:34:21.384Z</time></trkpt><trkpt lat="37.3227616" lon="-2.2780617"><ele>744.0</ele><time>2026-04-11T14:34:22.384Z</time></trkpt><trkpt lat="37.3228544" lon="-2.2777618"><ele>732.0</ele><time>2026-04-11T14:34:23.383Z</time></trkpt><trkpt lat="37.3229447" lon="-2.2774664"><ele>725.0</ele><time>2026-04-11T14:34:24.384Z</time></trkpt><trkpt lat="37.3230338" lon="-2.2771763"><ele>718.0</ele><time>2026-04-11T14:34:25.384Z</time></trkpt><trkpt lat="37.3231247" lon="-2.2768821"><ele>730.0</ele><time>2026-04-11T14:34:26.384Z</time></trkpt><trkpt lat="37.3232155" lon="-2.2765945"><ele>742.0</ele><time>2026-04-11T14:34:27.384Z</time></trkpt><trkpt lat="37.3233052" lon="-2.2763036"><ele>742.0</ele><time>2026-04-11T14:34:28.383Z</time></trkpt><trkpt lat="37.3233944" lon="-2.2760111"><ele>742.0</ele><time>2026-04-11T14:34:29.384Z</time></trkpt><trkpt lat="37.3234851" lon="-2.2757209"><ele>733.5</ele><time>2026-04-11T14:34:30.384Z</time></trkpt><trkpt lat="37.3235685" lon="-2.2754426"><ele>725.0</ele><time>2026-04-11T14:34:31.384Z</time></trkpt><trkpt lat="37.3236495" lon="-2.2751833"><ele>725.0</ele><time>2026-04-11T14:34:32.384Z</time></trkpt><trkpt lat="37.3237322" lon="-2.2749263"><ele>725.0</ele><time>2026-04-11T14:34:33.384Z</time></trkpt><trkpt lat="37.3238186" lon="-2.2746701"><ele>725.0</ele><time>2026-04-11T14:34:34.384Z</time></trkpt><trkpt lat="37.3239261" lon="-2.2744184"><ele>723.5</ele><time>2026-04-11T14:34:35.383Z</time></trkpt><trkpt lat="37.3240477" lon="-2.2741714"><ele>722.0</ele><time>2026-04-11T14:34:36.384Z</time></trkpt><trkpt lat="37.3241837" lon="-2.2739262"><ele>722.0</ele><time>2026-04-11T14:34:37.384Z</time></trkpt><trkpt lat="37.3243386" lon="-2.2736951"><ele>722.0</ele><time>2026-04-11T14:34:38.383Z</time></trkpt><trkpt lat="37.3245096" lon="-2.2734797"><ele>722.0</ele><time>2026-04-11T14:34:39.384Z</time></trkpt><trkpt lat="37.3246901" lon="-2.2732814"><ele>722.0</ele><time>2026-04-11T14:34:40.384Z</time></trkpt><trkpt lat="37.3248754" lon="-2.2731062"><ele>720.3333333333333</ele><time>2026-04-11T14:34:41.384Z</time></trkpt><trkpt lat="37.3250639" lon="-2.2729543"><ele>718.6666666666666</ele><time>2026-04-11T14:34:42.384Z</time></trkpt><trkpt lat="37.3252615" lon="-2.2728184"><ele>717.0</ele><time>2026-04-11T14:34:43.384Z</time></trkpt><trkpt lat="37.3254685" lon="-2.2727012"><ele>716.6666666666666</ele><time>2026-04-11T14:34:44.384Z</time></trkpt><trkpt lat="37.3256745" lon="-2.2726017"><ele>716.3333333333333</ele><time>2026-04-11T14:34:45.384Z</time></trkpt><trkpt lat="37.3258856" lon="-2.2725228"><ele>716.0</ele><time>2026-04-11T14:34:46.384Z</time></trkpt><trkpt lat="37.326104" lon="-2.2724613"><ele>716.0</ele><time>2026-04-11T14:34:47.384Z</time></trkpt><trkpt lat="37.3263259" lon="-2.2724192"><ele>716.0</ele><time>2026-04-11T14:34:48.384Z</time></trkpt><trkpt lat="37.3265506" lon="-2.2723998"><ele>715.0</ele><time>2026-04-11T14:34:49.383Z</time></trkpt><trkpt lat="37.3267739" lon="-2.2724011"><ele>714.0</ele><time>2026-04-11T14:34:50.384Z</time></trkpt><trkpt lat="37.3269969" lon="-2.2724182"><ele>713.0</ele><time>2026-04-11T14:34:51.384Z</time></trkpt><trkpt lat="37.327216" lon="-2.2724544"><ele>709.6666666666666</ele><time>2026-04-11T14:34:52.384Z</time></trkpt><trkpt lat="37.3274357" lon="-2.2725117"><ele>706.3333333333334</ele><time>2026-04-11T14:34:53.384Z</time></trkpt><trkpt lat="37.3276512" lon="-2.2725876"><ele>703.0</ele><time>2026-04-11T14:34:54.384Z</time></trkpt><trkpt lat="37.3278641" lon="-2.2726813"><ele>694.5</ele><time>2026-04-11T14:34:55.384Z</time></trkpt><trkpt lat="37.3280758" lon="-2.2727949"><ele>686.0</ele><time>2026-04-11T14:34:56.384Z</time></trkpt><trkpt lat="37.3282785" lon="-2.2729306"><ele>686.0</ele><time>2026-04-11T14:34:57.384Z</time></trkpt><trkpt lat="37.328472" lon="-2.2730816"><ele>686.0</ele><time>2026-04-11T14:34:58.384Z</time></trkpt><trkpt lat="37.3286611" lon="-2.2732478"><ele>691.5</ele><time>2026-04-11T14:34:59.384Z</time></trkpt><trkpt lat="37.3288461" lon="-2.2734263"><ele>697.0</ele><time>2026-04-11T14:35:00.384Z</time></trkpt><trkpt lat="37.3290217" lon="-2.2736201"><ele>697.5</ele><time>2026-04-11T14:35:01.384Z</time></trkpt><trkpt lat="37.3291901" lon="-2.2738241"><ele>698.0</ele><time>2026-04-11T14:35:02.384Z</time></trkpt><trkpt lat="37.3293496" lon="-2.2740361"><ele>695.0</ele><time>2026-04-11T14:35:03.384Z</time></trkpt><trkpt lat="37.3294988" lon="-2.2742642"><ele>692.0</ele><time>2026-04-11T14:35:04.384Z</time></trkpt><trkpt lat="37.3296453" lon="-2.2745023"><ele>685.5</ele><time>2026-04-11T14:35:05.384Z</time></trkpt><trkpt lat="37.329778" lon="-2.274754"><ele>679.0</ele><time>2026-04-11T14:35:06.384Z</time></trkpt><trkpt lat="37.3299023" lon="-2.2750108"><ele>679.0</ele><time>2026-04-11T14:35:07.384Z</time></trkpt><trkpt lat="37.3300141" lon="-2.2752765"><ele>679.0</ele><time>2026-04-11T14:35:08.384Z</time></trkpt><trkpt lat="37.3301121" lon="-2.2755509"><ele>677.0</ele><time>2026-04-11T14:35:09.384Z</time></trkpt><trkpt lat="37.3302001" lon="-2.2758359"><ele>675.0</ele><time>2026-04-11T14:35:10.383Z</time></trkpt><trkpt lat="37.3302756" lon="-2.2761271"><ele>675.0</ele><time>2026-04-11T14:35:11.383Z</time></trkpt><trkpt lat="37.3303402" lon="-2.2764227"><ele>675.0</ele><time>2026-04-11T14:35:12.384Z</time></trkpt><trkpt lat="37.3303921" lon="-2.2767234"><ele>674.0</ele><time>2026-04-11T14:35:13.384Z</time></trkpt><trkpt lat="37.3304324" lon="-2.2770258"><ele>673.0</ele><time>2026-04-11T14:35:14.384Z</time></trkpt><trkpt lat="37.3304682" lon="-2.2773306"><ele>676.5</ele><time>2026-04-11T14:35:15.383Z</time></trkpt><trkpt lat="37.3304987" lon="-2.277642"><ele>680.0</ele><time>2026-04-11T14:35:16.384Z</time></trkpt><trkpt lat="37.3305308" lon="-2.2779549"><ele>669.0</ele><time>2026-04-11T14:35:17.384Z</time></trkpt><trkpt lat="37.3305615" lon="-2.2782657"><ele>658.0</ele><time>2026-04-11T14:35:18.384Z</time></trkpt><trkpt lat="37.3305914" lon="-2.2785692"><ele>658.0</ele><time>2026-04-11T14:35:19.384Z</time></trkpt><trkpt lat="37.3306188" lon="-2.2788715"><ele>658.0</ele><time>2026-04-11T14:35:20.384Z</time></trkpt><trkpt lat="37.3306466" lon="-2.2791625"><ele>654.0</ele><time>2026-04-11T14:35:21.383Z</time></trkpt><trkpt lat="37.3306768" lon="-2.279455"><ele>650.0</ele><time>2026-04-11T14:35:22.384Z</time></trkpt><trkpt lat="37.3307057" lon="-2.2797502"><ele>646.5</ele><time>2026-04-11T14:35:23.384Z</time></trkpt><trkpt lat="37.3307319" lon="-2.2800463"><ele>643.0</ele><time>2026-04-11T14:35:24.384Z</time></trkpt><trkpt lat="37.3307451" lon="-2.2803518"><ele>644.0</ele><time>2026-04-11T14:35:25.384Z</time></trkpt><trkpt lat="37.3307446" lon="-2.2806635"><ele>645.0</ele><time>2026-04-11T14:35:26.384Z</time></trkpt><trkpt lat="37.3307413" lon="-2.2809761"><ele>645.0</ele><time>2026-04-11T14:35:27.384Z</time></trkpt><trkpt lat="37.330715" lon="-2.2812973"><ele>645.0</ele><time>2026-04-11T14:35:28.384Z</time></trkpt><trkpt lat="37.3306894" lon="-2.2816219"><ele>643.5</ele><time>2026-04-11T14:35:29.384Z</time></trkpt><trkpt lat="37.3306632" lon="-2.2819473"><ele>642.0</ele><time>2026-04-11T14:35:30.384Z</time></trkpt><trkpt lat="37.3306392" lon="-2.28227"><ele>637.0</ele><time>2026-04-11T14:35:31.384Z</time></trkpt><trkpt lat="37.3306261" lon="-2.2825979"><ele>632.0</ele><time>2026-04-11T14:35:32.384Z</time></trkpt><trkpt lat="37.3306178" lon="-2.2829321"><ele>630.5</ele><time>2026-04-11T14:35:33.383Z</time></trkpt><trkpt lat="37.3306192" lon="-2.2832647"><ele>629.0</ele><time>2026-04-11T14:35:34.384Z</time></trkpt><trkpt lat="37.3306327" lon="-2.2835949"><ele>629.0</ele><time>2026-04-11T14:35:35.384Z</time></trkpt><trkpt lat="37.3306639" lon="-2.2838986"><ele>629.0</ele><time>2026-04-11T14:35:36.384Z</time></trkpt><trkpt lat="37.330701" lon="-2.2842004"><ele>623.5</ele><time>2026-04-11T14:35:37.383Z</time></trkpt><trkpt lat="37.3307544" lon="-2.2845033"><ele>618.0</ele><time>2026-04-11T14:35:38.383Z</time></trkpt><trkpt lat="37.3308186" lon="-2.284806"><ele>618.0</ele><time>2026-04-11T14:35:39.384Z</time></trkpt><trkpt lat="37.3308933" lon="-2.2851067"><ele>618.0</ele><time>2026-04-11T14:35:40.384Z</time></trkpt><trkpt lat="37.3309785" lon="-2.2854044"><ele>620.5</ele><time>2026-04-11T14:35:41.384Z</time></trkpt><trkpt lat="37.3310776" lon="-2.2856987"><ele>623.0</ele><time>2026-04-11T14:35:42.384Z</time></trkpt><trkpt lat="37.3311838" lon="-2.2859734"><ele>623.0</ele><time>2026-04-11T14:35:43.383Z</time></trkpt><trkpt lat="37.3312887" lon="-2.2862292"><ele>623.0</ele><time>2026-04-11T14:35:44.384Z</time></trkpt><trkpt lat="37.3314018" lon="-2.2864723"><ele>615.0</ele><time>2026-04-11T14:35:45.383Z</time></trkpt><trkpt lat="37.3315273" lon="-2.2867134"><ele>607.0</ele><time>2026-04-11T14:35:46.383Z</time></trkpt><trkpt lat="37.3316602" lon="-2.2869582"><ele>607.0</ele><time>2026-04-11T14:35:47.384Z</time></trkpt><trkpt lat="37.3318023" lon="-2.2871855"><ele>607.0</ele><time>2026-04-11T14:35:48.383Z</time></trkpt><trkpt lat="37.3319483" lon="-2.2873941"><ele>604.6666666666667</ele><time>2026-04-11T14:35:49.384Z</time></trkpt><trkpt lat="37.332098" lon="-2.2875838"><ele>602.3333333333334</ele><time>2026-04-11T14:35:50.384Z</time></trkpt><trkpt lat="37.3322502" lon="-2.2877543"><ele>600.0</ele><time>2026-04-11T14:35:51.384Z</time></trkpt><trkpt lat="37.3324186" lon="-2.2879036"><ele>597.0</ele><time>2026-04-11T14:35:52.384Z</time></trkpt><trkpt lat="37.3325906" lon="-2.2880466"><ele>594.0</ele><time>2026-04-11T14:35:53.383Z</time></trkpt><trkpt lat="37.3327704" lon="-2.2881682"><ele>591.0</ele><time>2026-04-11T14:35:54.384Z</time></trkpt><trkpt lat="37.332963" lon="-2.2882767"><ele>590.3333333333334</ele><time>2026-04-11T14:35:55.384Z</time></trkpt><trkpt lat="37.3331587" lon="-2.2883576"><ele>589.6666666666667</ele><time>2026-04-11T14:35:56.384Z</time></trkpt><trkpt lat="37.333369" lon="-2.2884241"><ele>589.0</ele><time>2026-04-11T14:35:57.384Z</time></trkpt><trkpt lat="37.3335827" lon="-2.2884753"><ele>589.0</ele><time>2026-04-11T14:35:58.384Z</time></trkpt><trkpt lat="37.3338044" lon="-2.2885125"><ele>589.0</ele><time>2026-04-11T14:35:59.384Z</time></trkpt><trkpt lat="37.3340194" lon="-2.2885442"><ele>589.0</ele><time>2026-04-11T14:36:00.384Z</time></trkpt><trkpt lat="37.3342399" lon="-2.2885614"><ele>586.6666666666667</ele><time>2026-04-11T14:36:01.383Z</time></trkpt><trkpt lat="37.334461" lon="-2.2885773"><ele>584.3333333333334</ele><time>2026-04-11T14:36:02.384Z</time></trkpt><trkpt lat="37.3346871" lon="-2.2885899"><ele>582.0</ele><time>2026-04-11T14:36:03.384Z</time></trkpt><trkpt lat="37.3349154" lon="-2.2886115"><ele>575.5</ele><time>2026-04-11T14:36:04.384Z</time></trkpt><trkpt lat="37.3351464" lon="-2.2886406"><ele>569.0</ele><time>2026-04-11T14:36:05.384Z</time></trkpt><trkpt lat="37.3353764" lon="-2.2886855"><ele>564.0</ele><time>2026-04-11T14:36:06.384Z</time></trkpt><trkpt lat="37.3356066" lon="-2.2887403"><ele>559.0</ele><time>2026-04-11T14:36:07.384Z</time></trkpt><trkpt lat="37.335831" lon="-2.2888099"><ele>559.0</ele><time>2026-04-11T14:36:08.384Z</time></trkpt><trkpt lat="37.3360576" lon="-2.2888922"><ele>559.0</ele><time>2026-04-11T14:36:09.384Z</time></trkpt><trkpt lat="37.3362763" lon="-2.288991"><ele>559.0</ele><time>2026-04-11T14:36:10.384Z</time></trkpt><trkpt lat="37.3364954" lon="-2.2891052"><ele>559.0</ele><time>2026-04-11T14:36:11.383Z</time></trkpt><trkpt lat="37.3367106" lon="-2.2892342"><ele>559.0</ele><time>2026-04-11T14:36:12.384Z</time></trkpt><trkpt lat="37.3369175" lon="-2.2893849"><ele>559.0</ele><time>2026-04-11T14:36:13.384Z</time></trkpt><trkpt lat="37.3371146" lon="-2.2895593"><ele>559.5</ele><time>2026-04-11T14:36:14.384Z</time></trkpt><trkpt lat="37.3372965" lon="-2.2897541"><ele>560.0</ele><time>2026-04-11T14:36:15.383Z</time></trkpt><trkpt lat="37.3374616" lon="-2.2899713"><ele>560.0</ele><time>2026-04-11T14:36:16.383Z</time></trkpt><trkpt lat="37.3376035" lon="-2.2902121"><ele>560.0</ele><time>2026-04-11T14:36:17.384Z</time></trkpt><trkpt lat="37.3377265" lon="-2.2904743"><ele>562.5</ele><time>2026-04-11T14:36:18.383Z</time></trkpt><trkpt lat="37.3378312" lon="-2.2907446"><ele>565.0</ele><time>2026-04-11T14:36:19.383Z</time></trkpt><trkpt lat="37.3379212" lon="-2.2910207"><ele>565.0</ele><time>2026-04-11T14:36:20.384Z</time></trkpt><trkpt lat="37.3380119" lon="-2.2912993"><ele>565.0</ele><time>2026-04-11T14:36:21.384Z</time></trkpt><trkpt lat="37.3381003" lon="-2.2915779"><ele>561.5</ele><time>2026-04-11T14:36:22.384Z</time></trkpt><trkpt lat="37.3381902" lon="-2.291852"><ele>558.0</ele><time>2026-04-11T14:36:23.384Z</time></trkpt><trkpt lat="37.3382776" lon="-2.2921294"><ele>552.5</ele><time>2026-04-11T14:36:24.384Z</time></trkpt><trkpt lat="37.3383656" lon="-2.2924"><ele>547.0</ele><time>2026-04-11T14:36:25.384Z</time></trkpt><trkpt lat="37.3384567" lon="-2.2926515"><ele>547.0</ele><time>2026-04-11T14:36:26.384Z</time></trkpt><trkpt lat="37.3385601" lon="-2.2928929"><ele>547.0</ele><time>2026-04-11T14:36:27.384Z</time></trkpt><trkpt lat="37.3386751" lon="-2.2931237"><ele>547.0</ele><time>2026-04-11T14:36:28.384Z</time></trkpt><trkpt lat="37.3388105" lon="-2.2933404"><ele>542.3333333333334</ele><time>2026-04-11T14:36:29.384Z</time></trkpt><trkpt lat="37.3389658" lon="-2.2935407"><ele>537.6666666666666</ele><time>2026-04-11T14:36:30.384Z</time></trkpt><trkpt lat="37.3391378" lon="-2.293715"><ele>533.0</ele><time>2026-04-11T14:36:31.383Z</time></trkpt><trkpt lat="37.3393202" lon="-2.2938661"><ele>533.0</ele><time>2026-04-11T14:36:32.384Z</time></trkpt><trkpt lat="37.339513" lon="-2.2940046"><ele>533.0</ele><time>2026-04-11T14:36:33.383Z</time></trkpt><trkpt lat="37.3397202" lon="-2.2941185"><ele>533.0</ele><time>2026-04-11T14:36:34.384Z</time></trkpt><trkpt lat="37.3399317" lon="-2.2942086"><ele>533.0</ele><time>2026-04-11T14:36:35.384Z</time></trkpt><trkpt lat="37.3401517" lon="-2.2942586"><ele>533.0</ele><time>2026-04-11T14:36:36.384Z</time></trkpt><trkpt lat="37.3403519" lon="-2.2942866"><ele>533.0</ele><time>2026-04-11T14:36:37.384Z</time></trkpt><trkpt lat="37.3405467" lon="-2.2942872"><ele>530.3333333333333</ele><time>2026-04-11T14:36:38.383Z</time></trkpt><trkpt lat="37.3407512" lon="-2.2942713"><ele>527.6666666666666</ele><time>2026-04-11T14:36:39.384Z</time></trkpt><trkpt lat="37.3409582" lon="-2.2942499"><ele>525.0</ele><time>2026-04-11T14:36:40.384Z</time></trkpt><trkpt lat="37.3411638" lon="-2.2942213"><ele>525.0</ele><time>2026-04-11T14:36:41.384Z</time></trkpt><trkpt lat="37.3413728" lon="-2.2941916"><ele>525.0</ele><time>2026-04-11T14:36:42.384Z</time></trkpt><trkpt lat="37.3415773" lon="-2.2941612"><ele>525.0</ele><time>2026-04-11T14:36:43.384Z</time></trkpt><trkpt lat="37.3417654" lon="-2.2941316"><ele>522.0</ele><time>2026-04-11T14:36:44.384Z</time></trkpt><trkpt lat="37.3419433" lon="-2.2940976"><ele>519.0</ele><time>2026-04-11T14:36:45.383Z</time></trkpt><trkpt lat="37.3421211" lon="-2.2940536"><ele>516.0</ele><time>2026-04-11T14:36:46.384Z</time></trkpt><trkpt lat="37.3422922" lon="-2.2939926"><ele>513.6666666666666</ele><time>2026-04-11T14:36:47.383Z</time></trkpt><trkpt lat="37.3424693" lon="-2.293909"><ele>511.3333333333333</ele><time>2026-04-11T14:36:48.384Z</time></trkpt><trkpt lat="37.3426384" lon="-2.2938077"><ele>509.0</ele><time>2026-04-11T14:36:49.384Z</time></trkpt><trkpt lat="37.3428088" lon="-2.2936967"><ele>509.0</ele><time>2026-04-11T14:36:50.384Z</time></trkpt><trkpt lat="37.3429802" lon="-2.2935888"><ele>509.0</ele><time>2026-04-11T14:36:51.384Z</time></trkpt><trkpt lat="37.343152" lon="-2.2934825"><ele>509.0</ele><time>2026-04-11T14:36:52.384Z</time></trkpt><trkpt lat="37.3433236" lon="-2.2933822"><ele>507.66666666666663</ele><time>2026-04-11T14:36:53.383Z</time></trkpt><trkpt lat="37.3435023" lon="-2.2932854"><ele>506.33333333333337</ele><time>2026-04-11T14:36:54.384Z</time></trkpt><trkpt lat="37.3436869" lon="-2.2931969"><ele>505.0</ele><time>2026-04-11T14:36:55.384Z</time></trkpt><trkpt lat="37.3438755" lon="-2.293124"><ele>503.33333333333337</ele><time>2026-04-11T14:36:56.384Z</time></trkpt><trkpt lat="37.3440651" lon="-2.2930663"><ele>501.66666666666663</ele><time>2026-04-11T14:36:57.384Z</time></trkpt><trkpt lat="37.3442582" lon="-2.2930174"><ele>500.0</ele><time>2026-04-11T14:36:58.384Z</time></trkpt><trkpt lat="37.3444502" lon="-2.2929678"><ele>500.0</ele><time>2026-04-11T14:36:59.384Z</time></trkpt><trkpt lat="37.3446401" lon="-2.2929172"><ele>500.0</ele><time>2026-04-11T14:37:00.384Z</time></trkpt><trkpt lat="37.3448301" lon="-2.2928667"><ele>500.0</ele><time>2026-04-11T14:37:01.384Z</time></trkpt><trkpt lat="37.3450142" lon="-2.2928158"><ele>498.3333333333333</ele><time>2026-04-11T14:37:02.384Z</time></trkpt><trkpt lat="37.3451884" lon="-2.2927698"><ele>496.66666666666663</ele><time>2026-04-11T14:37:03.383Z</time></trkpt><trkpt lat="37.3453452" lon="-2.2927245"><ele>495.0</ele><time>2026-04-11T14:37:04.383Z</time></trkpt><trkpt lat="37.3455012" lon="-2.2926774"><ele>494.66666666666663</ele><time>2026-04-11T14:37:05.384Z</time></trkpt><trkpt lat="37.3456573" lon="-2.2926199"><ele>494.3333333333333</ele><time>2026-04-11T14:37:06.384Z</time></trkpt><trkpt lat="37.3458146" lon="-2.2925562"><ele>494.0</ele><time>2026-04-11T14:37:07.384Z</time></trkpt><trkpt lat="37.3459698" lon="-2.2924852"><ele>494.0</ele><time>2026-04-11T14:37:08.384Z</time></trkpt><trkpt lat="37.3461292" lon="-2.2924083"><ele>494.0</ele><time>2026-04-11T14:37:09.383Z</time></trkpt><trkpt lat="37.3462891" lon="-2.2923206"><ele>494.0</ele><time>2026-04-11T14:37:10.384Z</time></trkpt><trkpt lat="37.3464366" lon="-2.292229"><ele>488.66666666666663</ele><time>2026-04-11T14:37:11.384Z</time></trkpt><trkpt lat="37.346593" lon="-2.2921235"><ele>483.33333333333337</ele><time>2026-04-11T14:37:12.384Z</time></trkpt><trkpt lat="37.3467488" lon="-2.2920174"><ele>478.0</ele><time>2026-04-11T14:37:13.383Z</time></trkpt><trkpt lat="37.3469062" lon="-2.2919036"><ele>478.0</ele><time>2026-04-11T14:37:14.384Z</time></trkpt><trkpt lat="37.347066" lon="-2.2917876"><ele>478.0</ele><time>2026-04-11T14:37:15.384Z</time></trkpt><trkpt lat="37.3472256" lon="-2.2916743"><ele>478.0</ele><time>2026-04-11T14:37:16.384Z</time></trkpt><trkpt lat="37.3473816" lon="-2.2915687"><ele>477.33333333333337</ele><time>2026-04-11T14:37:17.384Z</time></trkpt><trkpt lat="37.3475447" lon="-2.2914754"><ele>476.66666666666663</ele><time>2026-04-11T14:37:18.384Z</time></trkpt><trkpt lat="37.3477129" lon="-2.2913915"><ele>476.0</ele><time>2026-04-11T14:37:19.384Z</time></trkpt><trkpt lat="37.3478915" lon="-2.2913276"><ele>474.0</ele><time>2026-04-11T14:37:20.383Z</time></trkpt><trkpt lat="37.3480678" lon="-2.2912902"><ele>472.0</ele><time>2026-04-11T14:37:21.384Z</time></trkpt><trkpt lat="37.3482532" lon="-2.2912773"><ele>470.0</ele><time>2026-04-11T14:37:22.384Z</time></trkpt><trkpt lat="37.3484389" lon="-2.2912977"><ele>470.0</ele><time>2026-04-11T14:37:23.384Z</time></trkpt><trkpt lat="37.3486254" lon="-2.2913376"><ele>470.0</ele><time>2026-04-11T14:37:24.384Z</time></trkpt><trkpt lat="37.3488018" lon="-2.291402"><ele>470.0</ele><time>2026-04-11T14:37:25.384Z</time></trkpt><trkpt lat="37.3489692" lon="-2.291489"><ele>468.66666666666663</ele><time>2026-04-11T14:37:26.384Z</time></trkpt><trkpt lat="37.3491223" lon="-2.2915896"><ele>467.33333333333337</ele><time>2026-04-11T14:37:27.383Z</time></trkpt><trkpt lat="37.3492633" lon="-2.291708"><ele>466.0</ele><time>2026-04-11T14:37:28.383Z</time></trkpt><trkpt lat="37.3493963" lon="-2.2918404"><ele>466.0</ele><time>2026-04-11T14:37:29.384Z</time></trkpt><trkpt lat="37.349523" lon="-2.2919724"><ele>466.0</ele><time>2026-04-11T14:37:30.384Z</time></trkpt><trkpt lat="37.3496343" lon="-2.2920876"><ele>466.0</ele><time>2026-04-11T14:37:31.384Z</time></trkpt><trkpt lat="37.3497405" lon="-2.292193"><ele>466.0</ele><time>2026-04-11T14:37:32.384Z</time></trkpt><trkpt lat="37.3498414" lon="-2.2923013"><ele>462.5</ele><time>2026-04-11T14:37:33.384Z</time></trkpt><trkpt lat="37.3499424" lon="-2.2924055"><ele>459.0</ele><time>2026-04-11T14:37:34.384Z</time></trkpt><trkpt lat="37.3500412" lon="-2.2925163"><ele>455.5</ele><time>2026-04-11T14:37:35.384Z</time></trkpt><trkpt lat="37.3501472" lon="-2.2926235"><ele>452.0</ele><time>2026-04-11T14:37:36.384Z</time></trkpt><trkpt lat="37.3502548" lon="-2.2927327"><ele>452.0</ele><time>2026-04-11T14:37:37.384Z</time></trkpt><trkpt lat="37.3503641" lon="-2.2928466"><ele>452.0</ele><time>2026-04-11T14:37:38.384Z</time></trkpt><trkpt lat="37.3504788" lon="-2.2929638"><ele>452.0</ele><time>2026-04-11T14:37:39.384Z</time></trkpt><trkpt lat="37.3505962" lon="-2.2930816"><ele>452.0</ele><time>2026-04-11T14:37:40.384Z</time></trkpt><trkpt lat="37.3507161" lon="-2.2931931"><ele>453.3333333333333</ele><time>2026-04-11T14:37:41.384Z</time></trkpt><trkpt lat="37.3508491" lon="-2.2932846"><ele>454.66666666666663</ele><time>2026-04-11T14:37:42.384Z</time></trkpt><trkpt lat="37.3509888" lon="-2.2933517"><ele>456.0</ele><time>2026-04-11T14:37:43.384Z</time></trkpt><trkpt lat="37.3511401" lon="-2.2933927"><ele>456.0</ele><time>2026-04-11T14:37:44.384Z</time></trkpt><trkpt lat="37.3512922" lon="-2.2934096"><ele>456.0</ele><time>2026-04-11T14:37:45.384Z</time></trkpt><trkpt lat="37.3514398" lon="-2.2933989"><ele>456.0</ele><time>2026-04-11T14:37:46.384Z</time></trkpt><trkpt lat="37.3515969" lon="-2.2933595"><ele>457.33333333333337</ele><time>2026-04-11T14:37:47.384Z</time></trkpt><trkpt lat="37.3517469" lon="-2.2933032"><ele>458.6666666666667</ele><time>2026-04-11T14:37:48.384Z</time></trkpt><trkpt lat="37.351881" lon="-2.293207"><ele>460.0</ele><time>2026-04-11T14:37:49.384Z</time></trkpt><trkpt lat="37.3520152" lon="-2.2930924"><ele>459.6666666666667</ele><time>2026-04-11T14:37:50.384Z</time></trkpt><trkpt lat="37.3521418" lon="-2.2929655"><ele>459.33333333333337</ele><time>2026-04-11T14:37:51.384Z</time></trkpt><trkpt lat="37.3522651" lon="-2.2928281"><ele>459.0</ele><time>2026-04-11T14:37:52.384Z</time></trkpt><trkpt lat="37.3523888" lon="-2.2926922"><ele>459.0</ele><time>2026-04-11T14:37:53.384Z</time></trkpt><trkpt lat="37.3525162" lon="-2.2925496"><ele>459.0</ele><time>2026-04-11T14:37:54.384Z</time></trkpt><trkpt lat="37.3526474" lon="-2.2924065"><ele>459.0</ele><time>2026-04-11T14:37:55.384Z</time></trkpt><trkpt lat="37.352782" lon="-2.2922619"><ele>458.0</ele><time>2026-04-11T14:37:56.383Z</time></trkpt><trkpt lat="37.3529168" lon="-2.2921122"><ele>457.0</ele><time>2026-04-11T14:37:57.384Z</time></trkpt><trkpt lat="37.3530565" lon="-2.2919582"><ele>456.0</ele><time>2026-04-11T14:37:58.384Z</time></trkpt><trkpt lat="37.3531987" lon="-2.291803"><ele>456.0</ele><time>2026-04-11T14:37:59.384Z</time></trkpt><trkpt lat="37.3533445" lon="-2.2916507"><ele>456.0</ele><time>2026-04-11T14:38:00.384Z</time></trkpt><trkpt lat="37.3534906" lon="-2.2914928"><ele>456.0</ele><time>2026-04-11T14:38:01.384Z</time></trkpt><trkpt lat="37.3536366" lon="-2.2913399"><ele>455.66666666666663</ele><time>2026-04-11T14:38:02.383Z</time></trkpt><trkpt lat="37.3537864" lon="-2.2911828"><ele>455.3333333333333</ele><time>2026-04-11T14:38:03.384Z</time></trkpt><trkpt lat="37.3539292" lon="-2.2910314"><ele>455.0</ele><time>2026-04-11T14:38:04.384Z</time></trkpt><trkpt lat="37.3540775" lon="-2.2908799"><ele>455.0</ele><time>2026-04-11T14:38:05.383Z</time></trkpt><trkpt lat="37.3542052" lon="-2.2907447"><ele>455.0</ele><time>2026-04-11T14:38:06.384Z</time></trkpt><trkpt lat="37.3543374" lon="-2.2906052"><ele>455.0</ele><time>2026-04-11T14:38:07.384Z</time></trkpt><trkpt lat="37.3544504" lon="-2.2904917"><ele>454.25</ele><time>2026-04-11T14:38:08.384Z</time></trkpt><trkpt lat="37.3545655" lon="-2.2903871"><ele>453.5</ele><time>2026-04-11T14:38:09.384Z</time></trkpt><trkpt lat="37.3546882" lon="-2.290287"><ele>452.75</ele><time>2026-04-11T14:38:10.384Z</time></trkpt><trkpt lat="37.354811" lon="-2.2902118"><ele>452.0</ele><time>2026-04-11T14:38:11.384Z</time></trkpt><trkpt lat="37.3549369" lon="-2.2901564"><ele>452.0</ele><time>2026-04-11T14:38:12.384Z</time></trkpt><trkpt lat="37.3550597" lon="-2.2901181"><ele>452.00000000000006</ele><time>2026-04-11T14:38:13.384Z</time></trkpt><trkpt lat="37.3551822" lon="-2.2900965"><ele>452.00000000000006</ele><time>2026-04-11T14:38:14.384Z</time></trkpt><trkpt lat="37.3552756" lon="-2.2901002"><ele>452.0</ele><time>2026-04-11T14:38:15.384Z</time></trkpt><trkpt lat="37.3553616" lon="-2.2900986"><ele>452.0</ele><time>2026-04-11T14:38:16.384Z</time></trkpt><trkpt lat="37.3554474" lon="-2.2900936"><ele>451.99999999999994</ele><time>2026-04-11T14:38:17.383Z</time></trkpt><trkpt lat="37.3555161" lon="-2.2900807"><ele>452.0</ele><time>2026-04-11T14:38:18.384Z</time></trkpt><trkpt lat="37.3555815" lon="-2.2900505"><ele>452.0</ele><time>2026-04-11T14:38:19.384Z</time></trkpt><trkpt lat="37.3556413" lon="-2.2900031"><ele>452.0</ele><time>2026-04-11T14:38:20.384Z</time></trkpt><trkpt lat="37.355707" lon="-2.2899497"><ele>451.99999999999994</ele><time>2026-04-11T14:38:21.384Z</time></trkpt><trkpt lat="37.3557687" lon="-2.2899115"><ele>452.0</ele><time>2026-04-11T14:38:22.384Z</time></trkpt><trkpt lat="37.3558576" lon="-2.2898581"><ele>452.40000000000003</ele><time>2026-04-11T14:38:23.384Z</time></trkpt><trkpt lat="37.355937" lon="-2.2898066"><ele>452.80000000000007</ele><time>2026-04-11T14:38:24.384Z</time></trkpt><trkpt lat="37.3560099" lon="-2.289736"><ele>453.2</ele><time>2026-04-11T14:38:25.384Z</time></trkpt><trkpt lat="37.3560818" lon="-2.2896603"><ele>453.6</ele><time>2026-04-11T14:38:26.384Z</time></trkpt><trkpt lat="37.3561522" lon="-2.289572"><ele>454.0</ele><time>2026-04-11T14:38:27.384Z</time></trkpt><trkpt lat="37.356225" lon="-2.2894768"><ele>454.0</ele><time>2026-04-11T14:38:28.384Z</time></trkpt><trkpt lat="37.3562875" lon="-2.2893896"><ele>454.0</ele><time>2026-04-11T14:38:29.383Z</time></trkpt><trkpt lat="37.3563457" lon="-2.2892939"><ele>454.0</ele><time>2026-04-11T14:38:30.383Z</time></trkpt><trkpt lat="37.3563926" lon="-2.2892082"><ele>454.0</ele><time>2026-04-11T14:38:31.384Z</time></trkpt><trkpt lat="37.3564459" lon="-2.2891118"><ele>454.0</ele><time>2026-04-11T14:38:32.384Z</time></trkpt><trkpt lat="37.3564805" lon="-2.2890147"><ele>454.33333333333337</ele><time>2026-04-11T14:38:33.384Z</time></trkpt><trkpt lat="37.3565142" lon="-2.2889137"><ele>454.6666666666667</ele><time>2026-04-11T14:38:34.384Z</time></trkpt><trkpt lat="37.35655" lon="-2.2888146"><ele>455.0</ele><time>2026-04-11T14:38:35.384Z</time></trkpt><trkpt lat="37.3565875" lon="-2.2887225"><ele>455.33333333333337</ele><time>2026-04-11T14:38:36.383Z</time></trkpt><trkpt lat="37.3566221" lon="-2.2886318"><ele>455.6666666666667</ele><time>2026-04-11T14:38:37.384Z</time></trkpt><trkpt lat="37.3566522" lon="-2.2885439"><ele>456.0</ele><time>2026-04-11T14:38:38.384Z</time></trkpt><trkpt lat="37.3566857" lon="-2.2884501"><ele>456.0</ele><time>2026-04-11T14:38:39.384Z</time></trkpt><trkpt lat="37.356722" lon="-2.2883518"><ele>456.0</ele><time>2026-04-11T14:38:40.384Z</time></trkpt><trkpt lat="37.35676" lon="-2.2882442"><ele>456.0</ele><time>2026-04-11T14:38:41.384Z</time></trkpt><trkpt lat="37.3568002" lon="-2.2881338"><ele>456.0</ele><time>2026-04-11T14:38:42.384Z</time></trkpt><trkpt lat="37.3568429" lon="-2.2880188"><ele>456.0</ele><time>2026-04-11T14:38:43.384Z</time></trkpt><trkpt lat="37.3568897" lon="-2.2879047"><ele>455.20000000000005</ele><time>2026-04-11T14:38:44.384Z</time></trkpt><trkpt lat="37.3569391" lon="-2.287791"><ele>454.40000000000003</ele><time>2026-04-11T14:38:45.384Z</time></trkpt><trkpt lat="37.3569916" lon="-2.2876793"><ele>453.6</ele><time>2026-04-11T14:38:46.384Z</time></trkpt><trkpt lat="37.3570447" lon="-2.2875668"><ele>452.8</ele><time>2026-04-11T14:38:47.384Z</time></trkpt><trkpt lat="37.3571007" lon="-2.2874571"><ele>452.0</ele><time>2026-04-11T14:38:48.384Z</time></trkpt><trkpt lat="37.3571547" lon="-2.2873527"><ele>453.0</ele><time>2026-04-11T14:38:49.384Z</time></trkpt><trkpt lat="37.3572095" lon="-2.2872483"><ele>454.00000000000006</ele><time>2026-04-11T14:38:50.384Z</time></trkpt><trkpt lat="37.3572619" lon="-2.2871452"><ele>455.00000000000006</ele><time>2026-04-11T14:38:51.384Z</time></trkpt><trkpt lat="37.3573151" lon="-2.2870483"><ele>456.0</ele><time>2026-04-11T14:38:52.384Z</time></trkpt><trkpt lat="37.3573699" lon="-2.2869551"><ele>457.0</ele><time>2026-04-11T14:38:53.384Z</time></trkpt><trkpt lat="37.3574251" lon="-2.2868628"><ele>457.0</ele><time>2026-04-11T14:38:54.384Z</time></trkpt><trkpt lat="37.3574814" lon="-2.2867732"><ele>457.00000000000006</ele><time>2026-04-11T14:38:55.384Z</time></trkpt><trkpt lat="37.357532" lon="-2.2866795"><ele>457.00000000000006</ele><time>2026-04-11T14:38:56.384Z</time></trkpt><trkpt lat="37.3575786" lon="-2.28658"><ele>457.0</ele><time>2026-04-11T14:38:57.384Z</time></trkpt><trkpt lat="37.3576155" lon="-2.2864746"><ele>457.0</ele><time>2026-04-11T14:38:58.384Z</time></trkpt><trkpt lat="37.3576456" lon="-2.2863596"><ele>456.20000000000005</ele><time>2026-04-11T14:38:59.384Z</time></trkpt><trkpt lat="37.3576592" lon="-2.2862461"><ele>455.40000000000003</ele><time>2026-04-11T14:39:00.383Z</time></trkpt><trkpt lat="37.3576685" lon="-2.2861241"><ele>454.59999999999997</ele><time>2026-04-11T14:39:01.383Z</time></trkpt><trkpt lat="37.3576594" lon="-2.2859999"><ele>453.79999999999995</ele><time>2026-04-11T14:39:02.384Z</time></trkpt><trkpt lat="37.3576467" lon="-2.2858834"><ele>453.0</ele><time>2026-04-11T14:39:03.384Z</time></trkpt><trkpt lat="37.3576157" lon="-2.2857607"><ele>453.0</ele><time>2026-04-11T14:39:04.384Z</time></trkpt><trkpt lat="37.3575871" lon="-2.2856484"><ele>452.99999999999994</ele><time>2026-04-11T14:39:05.384Z</time></trkpt><trkpt lat="37.3575574" lon="-2.2855302"><ele>452.99999999999994</ele><time>2026-04-11T14:39:06.384Z</time></trkpt><trkpt lat="37.3575271" lon="-2.2854095"><ele>453.0</ele><time>2026-04-11T14:39:07.384Z</time></trkpt><trkpt lat="37.3574993" lon="-2.2852856"><ele>453.0</ele><time>2026-04-11T14:39:08.384Z</time></trkpt><trkpt lat="37.3574751" lon="-2.2851661"><ele>452.5</ele><time>2026-04-11T14:39:09.384Z</time></trkpt><trkpt lat="37.3574624" lon="-2.2850528"><ele>452.0</ele><time>2026-04-11T14:39:10.384Z</time></trkpt><trkpt lat="37.3574579" lon="-2.284958"><ele>451.5</ele><time>2026-04-11T14:39:11.384Z</time></trkpt><trkpt lat="37.3574652" lon="-2.2848787"><ele>451.0</ele><time>2026-04-11T14:39:12.384Z</time></trkpt><trkpt lat="37.3574817" lon="-2.2848021"><ele>450.5</ele><time>2026-04-11T14:39:13.384Z</time></trkpt><trkpt lat="37.3574959" lon="-2.2846468"><ele>450.0</ele><time>2026-04-11T14:39:15.383Z</time></trkpt><trkpt lat="37.3574615" lon="-2.2844886"><ele>449.8333333333333</ele><time>2026-04-11T14:39:17.384Z</time></trkpt><trkpt lat="37.3574415" lon="-2.2844006"><ele>449.66666666666663</ele><time>2026-04-11T14:39:18.384Z</time></trkpt><trkpt lat="37.357455" lon="-2.2843045"><ele>449.5</ele><time>2026-04-11T14:39:19.384Z</time></trkpt><trkpt lat="37.3575008" lon="-2.2842183"><ele>449.3333333333333</ele><time>2026-04-11T14:39:20.384Z</time></trkpt><trkpt lat="37.3575676" lon="-2.2841706"><ele>449.16666666666663</ele><time>2026-04-11T14:39:21.383Z</time></trkpt><trkpt lat="37.3576596" lon="-2.2841697"><ele>449.0</ele><time>2026-04-11T14:39:22.384Z</time></trkpt><trkpt lat="37.357749" lon="-2.284179"><ele>449.0</ele><time>2026-04-11T14:39:23.384Z</time></trkpt><trkpt lat="37.3578358" lon="-2.2841701"><ele>449.0</ele><time>2026-04-11T14:39:24.384Z</time></trkpt><trkpt lat="37.3579297" lon="-2.2841395"><ele>449.0</ele><time>2026-04-11T14:39:25.383Z</time></trkpt><trkpt lat="37.3580268" lon="-2.2841029"><ele>449.0</ele><time>2026-04-11T14:39:26.384Z</time></trkpt><trkpt lat="37.3581285" lon="-2.2840688"><ele>449.0</ele><time>2026-04-11T14:39:27.384Z</time></trkpt><trkpt lat="37.3582297" lon="-2.2840396"><ele>450.25</ele><time>2026-04-11T14:39:28.384Z</time></trkpt><trkpt lat="37.3583402" lon="-2.2840062"><ele>451.5</ele><time>2026-04-11T14:39:29.383Z</time></trkpt><trkpt lat="37.3584542" lon="-2.2839731"><ele>452.75</ele><time>2026-04-11T14:39:30.384Z</time></trkpt><trkpt lat="37.3585705" lon="-2.2839384"><ele>454.0</ele><time>2026-04-11T14:39:31.384Z</time></trkpt><trkpt lat="37.3586982" lon="-2.2839019"><ele>454.0</ele><time>2026-04-11T14:39:32.384Z</time></trkpt><trkpt lat="37.3588083" lon="-2.2838538"><ele>454.0</ele><time>2026-04-11T14:39:33.384Z</time></trkpt><trkpt lat="37.3589053" lon="-2.2837966"><ele>454.0</ele><time>2026-04-11T14:39:34.384Z</time></trkpt><trkpt lat="37.3589787" lon="-2.2836944"><ele>454.0</ele><time>2026-04-11T14:39:35.384Z</time></trkpt><trkpt lat="37.3590335" lon="-2.283575"><ele>454.0</ele><time>2026-04-11T14:39:36.384Z</time></trkpt><trkpt lat="37.3590641" lon="-2.283451"><ele>456.0</ele><time>2026-04-11T14:39:37.384Z</time></trkpt><trkpt lat="37.3590755" lon="-2.2833235"><ele>458.0</ele><time>2026-04-11T14:39:38.383Z</time></trkpt><trkpt lat="37.3590679" lon="-2.2832048"><ele>460.0</ele><time>2026-04-11T14:39:39.384Z</time></trkpt><trkpt lat="37.3590489" lon="-2.283111"><ele>462.0</ele><time>2026-04-11T14:39:40.383Z</time></trkpt><trkpt lat="37.3589597" lon="-2.2830239"><ele>464.0</ele><time>2026-04-11T14:39:42.384Z</time></trkpt><trkpt lat="37.3588711" lon="-2.2830776"><ele>462.0</ele><time>2026-04-11T14:39:44.384Z</time></trkpt><trkpt lat="37.3588095" lon="-2.2831865"><ele>460.0</ele><time>2026-04-11T14:39:46.383Z</time></trkpt><trkpt lat="37.3587856" lon="-2.2832765"><ele>458.0</ele><time>2026-04-11T14:39:47.383Z</time></trkpt><trkpt lat="37.3587631" lon="-2.2833918"><ele>456.0</ele><time>2026-04-11T14:39:48.384Z</time></trkpt><trkpt lat="37.3587392" lon="-2.2835135"><ele>454.0</ele><time>2026-04-11T14:39:49.384Z</time></trkpt><trkpt lat="37.3587163" lon="-2.2836522"><ele>454.0</ele><time>2026-04-11T14:39:50.383Z</time></trkpt><trkpt lat="37.3586869" lon="-2.2838068"><ele>454.0</ele><time>2026-04-11T14:39:51.384Z</time></trkpt><trkpt lat="37.358659" lon="-2.2839758"><ele>454.0</ele><time>2026-04-11T14:39:52.384Z</time></trkpt><trkpt lat="37.3586307" lon="-2.2841558"><ele>454.0</ele><time>2026-04-11T14:39:53.384Z</time></trkpt><trkpt lat="37.3585964" lon="-2.2843477"><ele>454.6666666666667</ele><time>2026-04-11T14:39:54.384Z</time></trkpt><trkpt lat="37.3585642" lon="-2.2845473"><ele>455.33333333333337</ele><time>2026-04-11T14:39:55.384Z</time></trkpt><trkpt lat="37.3585272" lon="-2.2847576"><ele>456.0</ele><time>2026-04-11T14:39:56.384Z</time></trkpt><trkpt lat="37.3584922" lon="-2.2849764"><ele>459.0</ele><time>2026-04-11T14:39:57.384Z</time></trkpt><trkpt lat="37.3584557" lon="-2.2852055"><ele>462.0</ele><time>2026-04-11T14:39:58.383Z</time></trkpt><trkpt lat="37.3584167" lon="-2.2854409"><ele>465.0</ele><time>2026-04-11T14:39:59.384Z</time></trkpt><trkpt lat="37.3583766" lon="-2.285683"><ele>465.0</ele><time>2026-04-11T14:40:00.384Z</time></trkpt><trkpt lat="37.358333" lon="-2.2859282"><ele>465.0</ele><time>2026-04-11T14:40:01.384Z</time></trkpt><trkpt lat="37.3582879" lon="-2.2861825"><ele>465.0</ele><time>2026-04-11T14:40:02.384Z</time></trkpt><trkpt lat="37.3582425" lon="-2.2864425"><ele>463.33333333333337</ele><time>2026-04-11T14:40:03.384Z</time></trkpt><trkpt lat="37.3581954" lon="-2.2867117"><ele>461.6666666666667</ele><time>2026-04-11T14:40:04.384Z</time></trkpt><trkpt lat="37.3581493" lon="-2.2869838"><ele>460.0</ele><time>2026-04-11T14:40:05.384Z</time></trkpt><trkpt lat="37.3581021" lon="-2.2872601"><ele>460.0</ele><time>2026-04-11T14:40:06.384Z</time></trkpt><trkpt lat="37.3580504" lon="-2.2875442"><ele>460.0</ele><time>2026-04-11T14:40:07.384Z</time></trkpt><trkpt lat="37.3580006" lon="-2.2878287"><ele>461.0</ele><time>2026-04-11T14:40:08.384Z</time></trkpt><trkpt lat="37.3579499" lon="-2.2881139"><ele>462.0</ele><time>2026-04-11T14:40:09.384Z</time></trkpt><trkpt lat="37.3579004" lon="-2.2884028"><ele>462.0</ele><time>2026-04-11T14:40:10.383Z</time></trkpt><trkpt lat="37.3578543" lon="-2.2886964"><ele>462.0</ele><time>2026-04-11T14:40:11.384Z</time></trkpt><trkpt lat="37.3578106" lon="-2.2889874"><ele>462.5</ele><time>2026-04-11T14:40:12.384Z</time></trkpt><trkpt lat="37.3577839" lon="-2.2892825"><ele>463.0</ele><time>2026-04-11T14:40:13.384Z</time></trkpt><trkpt lat="37.3577746" lon="-2.289584"><ele>462.5</ele><time>2026-04-11T14:40:14.384Z</time></trkpt><trkpt lat="37.3577914" lon="-2.2898961"><ele>462.0</ele><time>2026-04-11T14:40:15.384Z</time></trkpt><trkpt lat="37.3578291" lon="-2.2902053"><ele>462.0</ele><time>2026-04-11T14:40:16.384Z</time></trkpt><trkpt lat="37.3578754" lon="-2.2905155"><ele>462.0</ele><time>2026-04-11T14:40:17.384Z</time></trkpt><trkpt lat="37.3579275" lon="-2.2908285"><ele>461.5</ele><time>2026-04-11T14:40:18.384Z</time></trkpt><trkpt lat="37.3579765" lon="-2.2911474"><ele>461.0</ele><time>2026-04-11T14:40:19.384Z</time></trkpt><trkpt lat="37.3580274" lon="-2.2914679"><ele>462.5</ele><time>2026-04-11T14:40:20.384Z</time></trkpt><trkpt lat="37.3580812" lon="-2.2917871"><ele>464.0</ele><time>2026-04-11T14:40:21.384Z</time></trkpt><trkpt lat="37.3581316" lon="-2.2921027"><ele>463.0</ele><time>2026-04-11T14:40:22.384Z</time></trkpt><trkpt lat="37.3581829" lon="-2.2924189"><ele>462.0</ele><time>2026-04-11T14:40:23.383Z</time></trkpt><trkpt lat="37.3582343" lon="-2.2927296"><ele>462.0</ele><time>2026-04-11T14:40:24.383Z</time></trkpt><trkpt lat="37.3582919" lon="-2.2930434"><ele>462.0</ele><time>2026-04-11T14:40:25.384Z</time></trkpt><trkpt lat="37.3583557" lon="-2.2933509"><ele>462.5</ele><time>2026-04-11T14:40:26.384Z</time></trkpt><trkpt lat="37.3584292" lon="-2.2936637"><ele>463.0</ele><time>2026-04-11T14:40:27.384Z</time></trkpt><trkpt lat="37.3585136" lon="-2.2939708"><ele>465.5</ele><time>2026-04-11T14:40:28.384Z</time></trkpt><trkpt lat="37.3586117" lon="-2.2942721"><ele>468.0</ele><time>2026-04-11T14:40:29.384Z</time></trkpt><trkpt lat="37.3587244" lon="-2.2945642"><ele>468.0</ele><time>2026-04-11T14:40:30.384Z</time></trkpt><trkpt lat="37.3588472" lon="-2.2948537"><ele>468.0</ele><time>2026-04-11T14:40:31.384Z</time></trkpt><trkpt lat="37.3589811" lon="-2.2951319"><ele>467.5</ele><time>2026-04-11T14:40:32.384Z</time></trkpt><trkpt lat="37.359122" lon="-2.2954081"><ele>467.0</ele><time>2026-04-11T14:40:33.384Z</time></trkpt><trkpt lat="37.3592726" lon="-2.2956866"><ele>467.0</ele><time>2026-04-11T14:40:34.384Z</time></trkpt><trkpt lat="37.3594234" lon="-2.295953"><ele>467.0</ele><time>2026-04-11T14:40:35.384Z</time></trkpt><trkpt lat="37.3595779" lon="-2.2962141"><ele>468.5</ele><time>2026-04-11T14:40:36.384Z</time></trkpt><trkpt lat="37.3597336" lon="-2.2964784"><ele>470.0</ele><time>2026-04-11T14:40:37.384Z</time></trkpt><trkpt lat="37.3598892" lon="-2.2967376"><ele>470.0</ele><time>2026-04-11T14:40:38.383Z</time></trkpt><trkpt lat="37.3600432" lon="-2.2969989"><ele>470.0</ele><time>2026-04-11T14:40:39.384Z</time></trkpt><trkpt lat="37.3601979" lon="-2.2972612"><ele>472.5</ele><time>2026-04-11T14:40:40.384Z</time></trkpt><trkpt lat="37.3603518" lon="-2.297522"><ele>475.0</ele><time>2026-04-11T14:40:41.383Z</time></trkpt><trkpt lat="37.3605075" lon="-2.2977803"><ele>476.0</ele><time>2026-04-11T14:40:42.384Z</time></trkpt><trkpt lat="37.3606574" lon="-2.2980393"><ele>477.0</ele><time>2026-04-11T14:40:43.384Z</time></trkpt><trkpt lat="37.3608078" lon="-2.2982945"><ele>477.0</ele><time>2026-04-11T14:40:44.384Z</time></trkpt><trkpt lat="37.360969" lon="-2.2985557"><ele>477.0</ele><time>2026-04-11T14:40:45.384Z</time></trkpt><trkpt lat="37.3611192" lon="-2.2988086"><ele>479.0</ele><time>2026-04-11T14:40:46.384Z</time></trkpt><trkpt lat="37.3612718" lon="-2.2990658"><ele>481.0</ele><time>2026-04-11T14:40:47.383Z</time></trkpt><trkpt lat="37.3614221" lon="-2.2993163"><ele>481.0</ele><time>2026-04-11T14:40:48.384Z</time></trkpt><trkpt lat="37.3615736" lon="-2.2995662"><ele>481.0</ele><time>2026-04-11T14:40:49.384Z</time></trkpt><trkpt lat="37.3617214" lon="-2.2998194"><ele>484.0</ele><time>2026-04-11T14:40:50.384Z</time></trkpt><trkpt lat="37.3618673" lon="-2.3000683"><ele>487.0</ele><time>2026-04-11T14:40:51.384Z</time></trkpt><trkpt lat="37.36201" lon="-2.3003167"><ele>487.0</ele><time>2026-04-11T14:40:52.384Z</time></trkpt><trkpt lat="37.3621524" lon="-2.3005687"><ele>487.0</ele><time>2026-04-11T14:40:53.384Z</time></trkpt><trkpt lat="37.3622816" lon="-2.3008187"><ele>488.5</ele><time>2026-04-11T14:40:54.384Z</time></trkpt><trkpt lat="37.3624188" lon="-2.3010851"><ele>490.0</ele><time>2026-04-11T14:40:55.384Z</time></trkpt><trkpt lat="37.3625497" lon="-2.3013443"><ele>491.5</ele><time>2026-04-11T14:40:56.383Z</time></trkpt><trkpt lat="37.3626739" lon="-2.301603"><ele>493.0</ele><time>2026-04-11T14:40:57.384Z</time></trkpt><trkpt lat="37.3627967" lon="-2.3018646"><ele>493.0</ele><time>2026-04-11T14:40:58.384Z</time></trkpt><trkpt lat="37.3629149" lon="-2.3021261"><ele>493.0</ele><time>2026-04-11T14:40:59.383Z</time></trkpt><trkpt lat="37.3630344" lon="-2.3023893"><ele>494.0</ele><time>2026-04-11T14:41:00.383Z</time></trkpt><trkpt lat="37.3631469" lon="-2.3026603"><ele>495.0</ele><time>2026-04-11T14:41:01.384Z</time></trkpt><trkpt lat="37.3632495" lon="-2.3029379"><ele>496.0</ele><time>2026-04-11T14:41:02.384Z</time></trkpt><trkpt lat="37.3633451" lon="-2.3032247"><ele>497.0</ele><time>2026-04-11T14:41:03.384Z</time></trkpt><trkpt lat="37.3634258" lon="-2.3035143"><ele>497.0</ele><time>2026-04-11T14:41:04.384Z</time></trkpt><trkpt lat="37.3634898" lon="-2.3038143"><ele>497.0</ele><time>2026-04-11T14:41:05.384Z</time></trkpt><trkpt lat="37.3635454" lon="-2.3041136"><ele>498.0</ele><time>2026-04-11T14:41:06.384Z</time></trkpt><trkpt lat="37.3635864" lon="-2.3044227"><ele>499.0</ele><time>2026-04-11T14:41:07.384Z</time></trkpt><trkpt lat="37.3636125" lon="-2.3047303"><ele>499.0</ele><time>2026-04-11T14:41:08.384Z</time></trkpt><trkpt lat="37.3636309" lon="-2.3050363"><ele>499.0</ele><time>2026-04-11T14:41:09.384Z</time></trkpt><trkpt lat="37.3636403" lon="-2.3053472"><ele>499.5</ele><time>2026-04-11T14:41:10.384Z</time></trkpt><trkpt lat="37.3636463" lon="-2.3056623"><ele>500.0</ele><time>2026-04-11T14:41:11.384Z</time></trkpt><trkpt lat="37.3636495" lon="-2.305981"><ele>500.0</ele><time>2026-04-11T14:41:12.384Z</time></trkpt><trkpt lat="37.3636514" lon="-2.3062991"><ele>500.0</ele><time>2026-04-11T14:41:13.384Z</time></trkpt><trkpt lat="37.3636507" lon="-2.3066186"><ele>499.5</ele><time>2026-04-11T14:41:14.384Z</time></trkpt><trkpt lat="37.3636515" lon="-2.3069415"><ele>499.0</ele><time>2026-04-11T14:41:15.383Z</time></trkpt><trkpt lat="37.3636541" lon="-2.3072639"><ele>499.0</ele><time>2026-04-11T14:41:16.383Z</time></trkpt><trkpt lat="37.3636549" lon="-2.3075881"><ele>499.0</ele><time>2026-04-11T14:41:17.384Z</time></trkpt><trkpt lat="37.3636534" lon="-2.3079074"><ele>499.0</ele><time>2026-04-11T14:41:18.383Z</time></trkpt><trkpt lat="37.3636539" lon="-2.308233"><ele>499.0</ele><time>2026-04-11T14:41:19.384Z</time></trkpt><trkpt lat="37.3636523" lon="-2.3085611"><ele>499.0</ele><time>2026-04-11T14:41:20.384Z</time></trkpt><trkpt lat="37.3636541" lon="-2.3088879"><ele>499.0</ele><time>2026-04-11T14:41:21.384Z</time></trkpt><trkpt lat="37.3636505" lon="-2.3092085"><ele>499.5</ele><time>2026-04-11T14:41:22.384Z</time></trkpt><trkpt lat="37.3636528" lon="-2.3095342"><ele>500.0</ele><time>2026-04-11T14:41:23.384Z</time></trkpt><trkpt lat="37.3636514" lon="-2.3098562"><ele>500.5</ele><time>2026-04-11T14:41:24.384Z</time></trkpt><trkpt lat="37.363653" lon="-2.3101767"><ele>501.0</ele><time>2026-04-11T14:41:25.384Z</time></trkpt><trkpt lat="37.3636558" lon="-2.3104975"><ele>500.5</ele><time>2026-04-11T14:41:26.384Z</time></trkpt><trkpt lat="37.363661" lon="-2.3108154"><ele>500.0</ele><time>2026-04-11T14:41:27.383Z</time></trkpt><trkpt lat="37.3636646" lon="-2.3111212"><ele>499.0</ele><time>2026-04-11T14:41:28.384Z</time></trkpt><trkpt lat="37.3636678" lon="-2.3114279"><ele>498.0</ele><time>2026-04-11T14:41:29.384Z</time></trkpt><trkpt lat="37.3636704" lon="-2.3117324"><ele>498.0</ele><time>2026-04-11T14:41:30.384Z</time></trkpt><trkpt lat="37.3636719" lon="-2.3120382"><ele>498.0</ele><time>2026-04-11T14:41:31.384Z</time></trkpt><trkpt lat="37.3636699" lon="-2.3123414"><ele>496.5</ele><time>2026-04-11T14:41:32.383Z</time></trkpt><trkpt lat="37.3636724" lon="-2.312648"><ele>495.0</ele><time>2026-04-11T14:41:33.384Z</time></trkpt><trkpt lat="37.3636746" lon="-2.3129581"><ele>494.5</ele><time>2026-04-11T14:41:34.384Z</time></trkpt><trkpt lat="37.3636778" lon="-2.3132647"><ele>494.0</ele><time>2026-04-11T14:41:35.384Z</time></trkpt><trkpt lat="37.3636751" lon="-2.3135695"><ele>494.0</ele><time>2026-04-11T14:41:36.384Z</time></trkpt><trkpt lat="37.3636676" lon="-2.3138754"><ele>494.0</ele><time>2026-04-11T14:41:37.384Z</time></trkpt><trkpt lat="37.3636338" lon="-2.3141804"><ele>497.5</ele><time>2026-04-11T14:41:38.383Z</time></trkpt><trkpt lat="37.3635772" lon="-2.3144866"><ele>501.0</ele><time>2026-04-11T14:41:39.384Z</time></trkpt><trkpt lat="37.3634909" lon="-2.3147839"><ele>502.0</ele><time>2026-04-11T14:41:40.384Z</time></trkpt><trkpt lat="37.3633776" lon="-2.3150704"><ele>503.0</ele><time>2026-04-11T14:41:41.383Z</time></trkpt><trkpt lat="37.3632453" lon="-2.3153427"><ele>501.5</ele><time>2026-04-11T14:41:42.384Z</time></trkpt><trkpt lat="37.3631009" lon="-2.3156091"><ele>500.0</ele><time>2026-04-11T14:41:43.383Z</time></trkpt><trkpt lat="37.362953" lon="-2.315868"><ele>498.5</ele><time>2026-04-11T14:41:44.384Z</time></trkpt><trkpt lat="37.3628051" lon="-2.3161248"><ele>497.0</ele><time>2026-04-11T14:41:45.384Z</time></trkpt><trkpt lat="37.362656" lon="-2.3163789"><ele>494.5</ele><time>2026-04-11T14:41:46.384Z</time></trkpt><trkpt lat="37.3625078" lon="-2.3166319"><ele>492.0</ele><time>2026-04-11T14:41:47.384Z</time></trkpt><trkpt lat="37.3623619" lon="-2.3168752"><ele>492.0</ele><time>2026-04-11T14:41:48.384Z</time></trkpt><trkpt lat="37.362221" lon="-2.3171266"><ele>492.0</ele><time>2026-04-11T14:41:49.384Z</time></trkpt><trkpt lat="37.3620881" lon="-2.3173834"><ele>493.0</ele><time>2026-04-11T14:41:50.384Z</time></trkpt><trkpt lat="37.3619812" lon="-2.3176389"><ele>494.0</ele><time>2026-04-11T14:41:51.384Z</time></trkpt><trkpt lat="37.3618989" lon="-2.3179114"><ele>495.0</ele><time>2026-04-11T14:41:52.384Z</time></trkpt><trkpt lat="37.3618304" lon="-2.3181882"><ele>496.0</ele><time>2026-04-11T14:41:53.384Z</time></trkpt><trkpt lat="37.3617646" lon="-2.3184665"><ele>496.0</ele><time>2026-04-11T14:41:54.383Z</time></trkpt><trkpt lat="37.3616949" lon="-2.3187219"><ele>496.0</ele><time>2026-04-11T14:41:55.384Z</time></trkpt><trkpt lat="37.3616023" lon="-2.3189665"><ele>496.0</ele><time>2026-04-11T14:41:56.384Z</time></trkpt><trkpt lat="37.3614836" lon="-2.3191963"><ele>498.33333333333337</ele><time>2026-04-11T14:41:57.383Z</time></trkpt><trkpt lat="37.3613399" lon="-2.3194034"><ele>500.66666666666663</ele><time>2026-04-11T14:41:58.384Z</time></trkpt><trkpt lat="37.3611798" lon="-2.3195852"><ele>503.0</ele><time>2026-04-11T14:41:59.384Z</time></trkpt><trkpt lat="37.3610058" lon="-2.3197413"><ele>504.3333333333333</ele><time>2026-04-11T14:42:00.384Z</time></trkpt><trkpt lat="37.3608204" lon="-2.3198707"><ele>505.66666666666663</ele><time>2026-04-11T14:42:01.384Z</time></trkpt><trkpt lat="37.3606287" lon="-2.3199812"><ele>507.0</ele><time>2026-04-11T14:42:02.384Z</time></trkpt><trkpt lat="37.360428" lon="-2.3200899"><ele>507.0</ele><time>2026-04-11T14:42:03.384Z</time></trkpt><trkpt lat="37.3602297" lon="-2.3201967"><ele>507.0</ele><time>2026-04-11T14:42:04.384Z</time></trkpt><trkpt lat="37.3600356" lon="-2.3203193"><ele>507.0</ele><time>2026-04-11T14:42:05.384Z</time></trkpt><trkpt lat="37.3598472" lon="-2.3204647"><ele>507.66666666666663</ele><time>2026-04-11T14:42:06.384Z</time></trkpt><trkpt lat="37.3596755" lon="-2.3206325"><ele>508.3333333333333</ele><time>2026-04-11T14:42:07.384Z</time></trkpt><trkpt lat="37.3595125" lon="-2.3208193"><ele>509.0</ele><time>2026-04-11T14:42:08.383Z</time></trkpt><trkpt lat="37.3593661" lon="-2.3210239"><ele>509.0</ele><time>2026-04-11T14:42:09.383Z</time></trkpt><trkpt lat="37.3592372" lon="-2.3212509"><ele>509.0</ele><time>2026-04-11T14:42:10.384Z</time></trkpt><trkpt lat="37.3591306" lon="-2.3214949"><ele>509.0</ele><time>2026-04-11T14:42:11.384Z</time></trkpt><trkpt lat="37.3590478" lon="-2.3217526"><ele>508.0</ele><time>2026-04-11T14:42:12.384Z</time></trkpt><trkpt lat="37.3589871" lon="-2.322025"><ele>507.0</ele><time>2026-04-11T14:42:13.384Z</time></trkpt><trkpt lat="37.3589541" lon="-2.3223025"><ele>506.0</ele><time>2026-04-11T14:42:14.384Z</time></trkpt><trkpt lat="37.3589391" lon="-2.3225821"><ele>505.5</ele><time>2026-04-11T14:42:15.384Z</time></trkpt><trkpt lat="37.3589485" lon="-2.3228728"><ele>505.0</ele><time>2026-04-11T14:42:16.384Z</time></trkpt><trkpt lat="37.3589813" lon="-2.3231567"><ele>505.0</ele><time>2026-04-11T14:42:17.384Z</time></trkpt><trkpt lat="37.359038" lon="-2.323437"><ele>505.0</ele><time>2026-04-11T14:42:18.384Z</time></trkpt><trkpt lat="37.3591096" lon="-2.3237137"><ele>505.5</ele><time>2026-04-11T14:42:19.384Z</time></trkpt><trkpt lat="37.3591869" lon="-2.3239886"><ele>506.0</ele><time>2026-04-11T14:42:20.383Z</time></trkpt><trkpt lat="37.3592575" lon="-2.3242616"><ele>506.0</ele><time>2026-04-11T14:42:21.384Z</time></trkpt><trkpt lat="37.3593218" lon="-2.3245345"><ele>506.0</ele><time>2026-04-11T14:42:22.384Z</time></trkpt><trkpt lat="37.3593751" lon="-2.3248196"><ele>505.5</ele><time>2026-04-11T14:42:23.383Z</time></trkpt><trkpt lat="37.3594156" lon="-2.3251097"><ele>505.0</ele><time>2026-04-11T14:42:24.384Z</time></trkpt><trkpt lat="37.3594379" lon="-2.3254057"><ele>504.0</ele><time>2026-04-11T14:42:25.384Z</time></trkpt><trkpt lat="37.3594415" lon="-2.3257027"><ele>503.0</ele><time>2026-04-11T14:42:26.384Z</time></trkpt><trkpt lat="37.3594273" lon="-2.3259944"><ele>503.0</ele><time>2026-04-11T14:42:27.384Z</time></trkpt><trkpt lat="37.3593949" lon="-2.3262824"><ele>503.0</ele><time>2026-04-11T14:42:28.384Z</time></trkpt><trkpt lat="37.3593491" lon="-2.3265698"><ele>503.0</ele><time>2026-04-11T14:42:29.384Z</time></trkpt><trkpt lat="37.3592969" lon="-2.3268532"><ele>503.0</ele><time>2026-04-11T14:42:30.384Z</time></trkpt><trkpt lat="37.3592377" lon="-2.3271362"><ele>503.66666666666663</ele><time>2026-04-11T14:42:31.384Z</time></trkpt><trkpt lat="37.3591778" lon="-2.3274127"><ele>504.33333333333337</ele><time>2026-04-11T14:42:32.383Z</time></trkpt><trkpt lat="37.3591201" lon="-2.3276736"><ele>505.0</ele><time>2026-04-11T14:42:33.383Z</time></trkpt><trkpt lat="37.3590606" lon="-2.3279414"><ele>505.6666666666667</ele><time>2026-04-11T14:42:34.384Z</time></trkpt><trkpt lat="37.3589995" lon="-2.3282055"><ele>506.33333333333337</ele><time>2026-04-11T14:42:35.383Z</time></trkpt><trkpt lat="37.3589385" lon="-2.3284622"><ele>507.0</ele><time>2026-04-11T14:42:36.384Z</time></trkpt><trkpt lat="37.3588811" lon="-2.3287094"><ele>505.66666666666663</ele><time>2026-04-11T14:42:37.384Z</time></trkpt><trkpt lat="37.3588225" lon="-2.3289592"><ele>504.3333333333333</ele><time>2026-04-11T14:42:38.384Z</time></trkpt><trkpt lat="37.3587629" lon="-2.3292016"><ele>503.0</ele><time>2026-04-11T14:42:39.383Z</time></trkpt><trkpt lat="37.3587066" lon="-2.3294407"><ele>503.0</ele><time>2026-04-11T14:42:40.383Z</time></trkpt><trkpt lat="37.3586543" lon="-2.3296779"><ele>503.0</ele><time>2026-04-11T14:42:41.384Z</time></trkpt><trkpt lat="37.3586005" lon="-2.3299198"><ele>503.0</ele><time>2026-04-11T14:42:42.384Z</time></trkpt><trkpt lat="37.3585463" lon="-2.330169"><ele>503.0</ele><time>2026-04-11T14:42:43.383Z</time></trkpt><trkpt lat="37.3584971" lon="-2.3304249"><ele>503.0</ele><time>2026-04-11T14:42:44.384Z</time></trkpt><trkpt lat="37.3584551" lon="-2.3306861"><ele>503.0</ele><time>2026-04-11T14:42:45.384Z</time></trkpt><trkpt lat="37.3584198" lon="-2.3309581"><ele>504.5</ele><time>2026-04-11T14:42:46.384Z</time></trkpt><trkpt lat="37.3583913" lon="-2.3312364"><ele>506.0</ele><time>2026-04-11T14:42:47.384Z</time></trkpt><trkpt lat="37.3583702" lon="-2.3315222"><ele>507.0</ele><time>2026-04-11T14:42:48.384Z</time></trkpt><trkpt lat="37.3583513" lon="-2.3318156"><ele>508.0</ele><time>2026-04-11T14:42:49.383Z</time></trkpt><trkpt lat="37.3583401" lon="-2.3321036"><ele>507.0</ele><time>2026-04-11T14:42:50.384Z</time></trkpt><trkpt lat="37.3583317" lon="-2.3324083"><ele>506.0</ele><time>2026-04-11T14:42:51.383Z</time></trkpt><trkpt lat="37.3583224" lon="-2.3327062"><ele>506.0</ele><time>2026-04-11T14:42:52.384Z</time></trkpt><trkpt lat="37.3583147" lon="-2.3330046"><ele>506.0</ele><time>2026-04-11T14:42:53.384Z</time></trkpt><trkpt lat="37.3583057" lon="-2.3333058"><ele>507.0</ele><time>2026-04-11T14:42:54.384Z</time></trkpt><trkpt lat="37.3582963" lon="-2.3336057"><ele>508.0</ele><time>2026-04-11T14:42:55.384Z</time></trkpt><trkpt lat="37.3582917" lon="-2.3339045"><ele>510.0</ele><time>2026-04-11T14:42:56.383Z</time></trkpt><trkpt lat="37.3582866" lon="-2.3342049"><ele>512.0</ele><time>2026-04-11T14:42:57.384Z</time></trkpt><trkpt lat="37.3582818" lon="-2.3345023"><ele>513.5</ele><time>2026-04-11T14:42:58.384Z</time></trkpt><trkpt lat="37.3582764" lon="-2.3348023"><ele>515.0</ele><time>2026-04-11T14:42:59.384Z</time></trkpt><trkpt lat="37.3582733" lon="-2.3351005"><ele>515.0</ele><time>2026-04-11T14:43:00.384Z</time></trkpt><trkpt lat="37.3582665" lon="-2.3354025"><ele>515.0</ele><time>2026-04-11T14:43:01.384Z</time></trkpt><trkpt lat="37.3582596" lon="-2.3356994"><ele>515.5</ele><time>2026-04-11T14:43:02.384Z</time></trkpt><trkpt lat="37.3582535" lon="-2.3359983"><ele>516.0</ele><time>2026-04-11T14:43:03.383Z</time></trkpt><trkpt lat="37.3582467" lon="-2.3362982"><ele>515.5</ele><time>2026-04-11T14:43:04.384Z</time></trkpt><trkpt lat="37.3582412" lon="-2.3365973"><ele>515.0</ele><time>2026-04-11T14:43:05.384Z</time></trkpt><trkpt lat="37.3582364" lon="-2.3368928"><ele>515.0</ele><time>2026-04-11T14:43:06.384Z</time></trkpt><trkpt lat="37.3582366" lon="-2.3371877"><ele>515.0</ele><time>2026-04-11T14:43:07.383Z</time></trkpt><trkpt lat="37.3582538" lon="-2.3374768"><ele>515.5</ele><time>2026-04-11T14:43:08.384Z</time></trkpt><trkpt lat="37.3582893" lon="-2.3377639"><ele>516.0</ele><time>2026-04-11T14:43:09.384Z</time></trkpt><trkpt lat="37.3583498" lon="-2.3380445"><ele>516.0</ele><time>2026-04-11T14:43:10.384Z</time></trkpt><trkpt lat="37.3584275" lon="-2.3383201"><ele>516.0</ele><time>2026-04-11T14:43:11.384Z</time></trkpt><trkpt lat="37.3585055" lon="-2.3385936"><ele>516.0</ele><time>2026-04-11T14:43:12.384Z</time></trkpt><trkpt lat="37.3585857" lon="-2.3388625"><ele>516.0</ele><time>2026-04-11T14:43:13.384Z</time></trkpt><trkpt lat="37.3586655" lon="-2.3391318"><ele>516.0</ele><time>2026-04-11T14:43:14.384Z</time></trkpt><trkpt lat="37.358739" lon="-2.3393948"><ele>516.0</ele><time>2026-04-11T14:43:15.384Z</time></trkpt><trkpt lat="37.3588131" lon="-2.3396608"><ele>516.0</ele><time>2026-04-11T14:43:16.384Z</time></trkpt><trkpt lat="37.3588867" lon="-2.3399259"><ele>517.0</ele><time>2026-04-11T14:43:17.384Z</time></trkpt><trkpt lat="37.3589627" lon="-2.3401898"><ele>518.0</ele><time>2026-04-11T14:43:18.384Z</time></trkpt><trkpt lat="37.3590402" lon="-2.3404517"><ele>519.0</ele><time>2026-04-11T14:43:19.384Z</time></trkpt><trkpt lat="37.3591194" lon="-2.3407137"><ele>519.0</ele><time>2026-04-11T14:43:20.384Z</time></trkpt><trkpt lat="37.3591997" lon="-2.340977"><ele>519.0</ele><time>2026-04-11T14:43:21.384Z</time></trkpt><trkpt lat="37.3592811" lon="-2.3412417"><ele>517.5</ele><time>2026-04-11T14:43:22.384Z</time></trkpt><trkpt lat="37.3593608" lon="-2.3415121"><ele>516.0</ele><time>2026-04-11T14:43:23.384Z</time></trkpt><trkpt lat="37.3594396" lon="-2.3417802"><ele>516.0</ele><time>2026-04-11T14:43:24.383Z</time></trkpt><trkpt lat="37.3595199" lon="-2.3420573"><ele>516.0</ele><time>2026-04-11T14:43:25.384Z</time></trkpt><trkpt lat="37.3596025" lon="-2.3423376"><ele>515.6666666666666</ele><time>2026-04-11T14:43:26.384Z</time></trkpt><trkpt lat="37.3596608" lon="-2.3425422"><ele>515.3333333333333</ele><time>2026-04-11T14:43:27.613Z</time></trkpt><trkpt lat="37.3597605" lon="-2.342846"><ele>515.0</ele><time>2026-04-11T14:43:28.805Z</time></trkpt><trkpt lat="37.3599077" lon="-2.3434244"><ele>517.0</ele><time>2026-04-11T14:43:30.386Z</time></trkpt><trkpt lat="37.3599538" lon="-2.3437147"><ele>519.0</ele><time>2026-04-11T14:43:31.384Z</time></trkpt><trkpt lat="37.3599721" lon="-2.3440091"><ele>519.0</ele><time>2026-04-11T14:43:32.38Z</time></trkpt><trkpt lat="37.3599414" lon="-2.344302"><ele>519.0</ele><time>2026-04-11T14:43:33.385Z</time></trkpt><trkpt lat="37.3598916" lon="-2.3445829"><ele>519.0</ele><time>2026-04-11T14:43:34.384Z</time></trkpt><trkpt lat="37.3598025" lon="-2.3448612"><ele>519.0</ele><time>2026-04-11T14:43:35.384Z</time></trkpt><trkpt lat="37.3596865" lon="-2.3451195"><ele>518.0</ele><time>2026-04-11T14:43:36.384Z</time></trkpt><trkpt lat="37.3595455" lon="-2.3453577"><ele>517.0</ele><time>2026-04-11T14:43:37.384Z</time></trkpt><trkpt lat="37.3593846" lon="-2.3455656"><ele>517.0</ele><time>2026-04-11T14:43:38.384Z</time></trkpt><trkpt lat="37.3592178" lon="-2.3457775"><ele>517.0</ele><time>2026-04-11T14:43:39.384Z</time></trkpt><trkpt lat="37.359048" lon="-2.3459817"><ele>517.0</ele><time>2026-04-11T14:43:40.384Z</time></trkpt><trkpt lat="37.358876" lon="-2.3461987"><ele>517.0</ele><time>2026-04-11T14:43:41.384Z</time></trkpt><trkpt lat="37.3587099" lon="-2.3464203"><ele>515.5</ele><time>2026-04-11T14:43:42.383Z</time></trkpt><trkpt lat="37.3585529" lon="-2.346653"><ele>514.0</ele><time>2026-04-11T14:43:43.384Z</time></trkpt><trkpt lat="37.358405" lon="-2.3468931"><ele>514.0</ele><time>2026-04-11T14:43:44.384Z</time></trkpt><trkpt lat="37.3582611" lon="-2.3471347"><ele>514.0</ele><time>2026-04-11T14:43:45.384Z</time></trkpt><trkpt lat="37.3581214" lon="-2.3473794"><ele>512.5</ele><time>2026-04-11T14:43:46.384Z</time></trkpt><trkpt lat="37.3579811" lon="-2.347618"><ele>511.0</ele><time>2026-04-11T14:43:47.383Z</time></trkpt><trkpt lat="37.3578282" lon="-2.347845"><ele>513.0</ele><time>2026-04-11T14:43:48.384Z</time></trkpt><trkpt lat="37.3576646" lon="-2.3480456"><ele>515.0</ele><time>2026-04-11T14:43:49.384Z</time></trkpt><trkpt lat="37.3574729" lon="-2.3482073"><ele>515.0</ele><time>2026-04-11T14:43:50.384Z</time></trkpt><trkpt lat="37.3572703" lon="-2.3483412"><ele>515.0</ele><time>2026-04-11T14:43:51.383Z</time></trkpt><trkpt lat="37.3570686" lon="-2.3484599"><ele>513.3333333333333</ele><time>2026-04-11T14:43:52.384Z</time></trkpt><trkpt lat="37.3568692" lon="-2.3485581"><ele>511.66666666666663</ele><time>2026-04-11T14:43:53.384Z</time></trkpt><trkpt lat="37.3566749" lon="-2.3486517"><ele>510.0</ele><time>2026-04-11T14:43:54.384Z</time></trkpt><trkpt lat="37.3564824" lon="-2.3487591"><ele>510.0</ele><time>2026-04-11T14:43:55.384Z</time></trkpt><trkpt lat="37.3562925" lon="-2.3488649"><ele>510.0</ele><time>2026-04-11T14:43:56.384Z</time></trkpt><trkpt lat="37.3561002" lon="-2.3489761"><ele>510.0</ele><time>2026-04-11T14:43:57.384Z</time></trkpt><trkpt lat="37.355909" lon="-2.3490868"><ele>512.0</ele><time>2026-04-11T14:43:58.384Z</time></trkpt><trkpt lat="37.3557214" lon="-2.3492028"><ele>514.0</ele><time>2026-04-11T14:43:59.383Z</time></trkpt><trkpt lat="37.3555415" lon="-2.3493298"><ele>516.0</ele><time>2026-04-11T14:44:00.383Z</time></trkpt><trkpt lat="37.3553669" lon="-2.3494659"><ele>516.0</ele><time>2026-04-11T14:44:01.383Z</time></trkpt><trkpt lat="37.3551988" lon="-2.3496029"><ele>516.0</ele><time>2026-04-11T14:44:02.384Z</time></trkpt><trkpt lat="37.3550373" lon="-2.3497412"><ele>516.0</ele><time>2026-04-11T14:44:03.384Z</time></trkpt><trkpt lat="37.3548671" lon="-2.3498817"><ele>516.3333333333334</ele><time>2026-04-11T14:44:04.384Z</time></trkpt><trkpt lat="37.3547069" lon="-2.3500187"><ele>516.6666666666667</ele><time>2026-04-11T14:44:05.384Z</time></trkpt><trkpt lat="37.3545496" lon="-2.3501495"><ele>517.0</ele><time>2026-04-11T14:44:06.383Z</time></trkpt><trkpt lat="37.3543791" lon="-2.3502731"><ele>517.0</ele><time>2026-04-11T14:44:07.384Z</time></trkpt><trkpt lat="37.3542013" lon="-2.3503777"><ele>517.0</ele><time>2026-04-11T14:44:08.383Z</time></trkpt><trkpt lat="37.3540193" lon="-2.3504715"><ele>517.0</ele><time>2026-04-11T14:44:09.384Z</time></trkpt><trkpt lat="37.3538386" lon="-2.3505586"><ele>518.6666666666667</ele><time>2026-04-11T14:44:10.384Z</time></trkpt><trkpt lat="37.3536552" lon="-2.3506479"><ele>520.3333333333334</ele><time>2026-04-11T14:44:11.384Z</time></trkpt><trkpt lat="37.3534656" lon="-2.3507451"><ele>522.0</ele><time>2026-04-11T14:44:12.383Z</time></trkpt><trkpt lat="37.353281" lon="-2.3508554"><ele>522.0</ele><time>2026-04-11T14:44:13.384Z</time></trkpt><trkpt lat="37.3530948" lon="-2.3509845"><ele>522.0</ele><time>2026-04-11T14:44:14.384Z</time></trkpt><trkpt lat="37.3529174" lon="-2.3511155"><ele>522.0</ele><time>2026-04-11T14:44:15.384Z</time></trkpt><trkpt lat="37.3527323" lon="-2.3512528"><ele>522.6666666666666</ele><time>2026-04-11T14:44:16.384Z</time></trkpt><trkpt lat="37.3525452" lon="-2.3513938"><ele>523.3333333333333</ele><time>2026-04-11T14:44:17.384Z</time></trkpt><trkpt lat="37.3523585" lon="-2.3515339"><ele>524.0</ele><time>2026-04-11T14:44:18.384Z</time></trkpt><trkpt lat="37.3521737" lon="-2.351674"><ele>524.0</ele><time>2026-04-11T14:44:19.383Z</time></trkpt><trkpt lat="37.3519876" lon="-2.3518112"><ele>524.0</ele><time>2026-04-11T14:44:20.384Z</time></trkpt><trkpt lat="37.3518054" lon="-2.3519501"><ele>524.0</ele><time>2026-04-11T14:44:21.384Z</time></trkpt><trkpt lat="37.3516289" lon="-2.3520967"><ele>525.0</ele><time>2026-04-11T14:44:22.384Z</time></trkpt><trkpt lat="37.351462" lon="-2.3522502"><ele>526.0</ele><time>2026-04-11T14:44:23.384Z</time></trkpt><trkpt lat="37.351306" lon="-2.3524209"><ele>527.0</ele><time>2026-04-11T14:44:24.384Z</time></trkpt><trkpt lat="37.3511551" lon="-2.3525985"><ele>527.0</ele><time>2026-04-11T14:44:25.383Z</time></trkpt><trkpt lat="37.3510152" lon="-2.3527853"><ele>527.0</ele><time>2026-04-11T14:44:26.384Z</time></trkpt><trkpt lat="37.3508807" lon="-2.3529869"><ele>527.0</ele><time>2026-04-11T14:44:27.384Z</time></trkpt><trkpt lat="37.3507575" lon="-2.3531922"><ele>526.3333333333333</ele><time>2026-04-11T14:44:28.383Z</time></trkpt><trkpt lat="37.3506447" lon="-2.3534096"><ele>525.6666666666666</ele><time>2026-04-11T14:44:29.384Z</time></trkpt><trkpt lat="37.3505399" lon="-2.3536298"><ele>525.0</ele><time>2026-04-11T14:44:30.384Z</time></trkpt><trkpt lat="37.3504474" lon="-2.353855"><ele>526.0</ele><time>2026-04-11T14:44:31.384Z</time></trkpt><trkpt lat="37.3503643" lon="-2.3540874"><ele>527.0</ele><time>2026-04-11T14:44:32.384Z</time></trkpt><trkpt lat="37.3502926" lon="-2.3543246"><ele>528.0</ele><time>2026-04-11T14:44:33.384Z</time></trkpt><trkpt lat="37.350239" lon="-2.3545613"><ele>530.0</ele><time>2026-04-11T14:44:34.384Z</time></trkpt><trkpt lat="37.3502088" lon="-2.3548163"><ele>532.0</ele><time>2026-04-11T14:44:35.384Z</time></trkpt><trkpt lat="37.3501912" lon="-2.3550738"><ele>534.0</ele><time>2026-04-11T14:44:36.383Z</time></trkpt><trkpt lat="37.3501849" lon="-2.3553393"><ele>534.3333333333334</ele><time>2026-04-11T14:44:37.384Z</time></trkpt><trkpt lat="37.3501905" lon="-2.35561"><ele>534.6666666666667</ele><time>2026-04-11T14:44:38.384Z</time></trkpt><trkpt lat="37.3502094" lon="-2.3558838"><ele>535.0</ele><time>2026-04-11T14:44:39.384Z</time></trkpt><trkpt lat="37.3502446" lon="-2.3561603"><ele>533.0</ele><time>2026-04-11T14:44:40.383Z</time></trkpt><trkpt lat="37.3502984" lon="-2.356441"><ele>531.0</ele><time>2026-04-11T14:44:41.384Z</time></trkpt><trkpt lat="37.3503683" lon="-2.3567173"><ele>531.0</ele><time>2026-04-11T14:44:42.384Z</time></trkpt><trkpt lat="37.3504534" lon="-2.3569934"><ele>531.0</ele><time>2026-04-11T14:44:43.383Z</time></trkpt><trkpt lat="37.3505511" lon="-2.3572683"><ele>536.0</ele><time>2026-04-11T14:44:44.383Z</time></trkpt><trkpt lat="37.3506572" lon="-2.3575489"><ele>541.0</ele><time>2026-04-11T14:44:45.384Z</time></trkpt><trkpt lat="37.3507752" lon="-2.3578179"><ele>538.5</ele><time>2026-04-11T14:44:46.383Z</time></trkpt><trkpt lat="37.3509015" lon="-2.3580835"><ele>536.0</ele><time>2026-04-11T14:44:47.384Z</time></trkpt><trkpt lat="37.3510392" lon="-2.3583501"><ele>536.0</ele><time>2026-04-11T14:44:48.384Z</time></trkpt><trkpt lat="37.3511812" lon="-2.3586072"><ele>536.0</ele><time>2026-04-11T14:44:49.383Z</time></trkpt><trkpt lat="37.3513294" lon="-2.3588629"><ele>540.0</ele><time>2026-04-11T14:44:50.383Z</time></trkpt><trkpt lat="37.3514786" lon="-2.3591129"><ele>544.0</ele><time>2026-04-11T14:44:51.383Z</time></trkpt><trkpt lat="37.3516288" lon="-2.3593646"><ele>544.0</ele><time>2026-04-11T14:44:52.383Z</time></trkpt><trkpt lat="37.3517783" lon="-2.3596131"><ele>544.0</ele><time>2026-04-11T14:44:53.384Z</time></trkpt><trkpt lat="37.3519227" lon="-2.3598649"><ele>540.0</ele><time>2026-04-11T14:44:54.384Z</time></trkpt><trkpt lat="37.3520594" lon="-2.360121"><ele>536.0</ele><time>2026-04-11T14:44:55.384Z</time></trkpt><trkpt lat="37.3521822" lon="-2.360384"><ele>541.5</ele><time>2026-04-11T14:44:56.383Z</time></trkpt><trkpt lat="37.3522878" lon="-2.3606582"><ele>547.0</ele><time>2026-04-11T14:44:57.384Z</time></trkpt><trkpt lat="37.3523736" lon="-2.360942"><ele>547.0</ele><time>2026-04-11T14:44:58.384Z</time></trkpt><trkpt lat="37.3524421" lon="-2.3612295"><ele>547.0</ele><time>2026-04-11T14:44:59.384Z</time></trkpt><trkpt lat="37.3524953" lon="-2.3615236"><ele>545.0</ele><time>2026-04-11T14:45:00.384Z</time></trkpt><trkpt lat="37.3525323" lon="-2.3618216"><ele>543.0</ele><time>2026-04-11T14:45:01.384Z</time></trkpt><trkpt lat="37.3525612" lon="-2.3621287"><ele>542.5</ele><time>2026-04-11T14:45:02.384Z</time></trkpt><trkpt lat="37.3525853" lon="-2.362439"><ele>542.0</ele><time>2026-04-11T14:45:03.384Z</time></trkpt><trkpt lat="37.3526065" lon="-2.362751"><ele>541.5</ele><time>2026-04-11T14:45:04.384Z</time></trkpt><trkpt lat="37.3526274" lon="-2.3630639"><ele>541.0</ele><time>2026-04-11T14:45:05.384Z</time></trkpt><trkpt lat="37.3526448" lon="-2.3633796"><ele>541.0</ele><time>2026-04-11T14:45:06.384Z</time></trkpt><trkpt lat="37.3526651" lon="-2.3636922"><ele>541.0</ele><time>2026-04-11T14:45:07.383Z</time></trkpt><trkpt lat="37.3526825" lon="-2.3640079"><ele>540.5</ele><time>2026-04-11T14:45:08.384Z</time></trkpt><trkpt lat="37.3527033" lon="-2.3643156"><ele>540.0</ele><time>2026-04-11T14:45:09.383Z</time></trkpt><trkpt lat="37.3527218" lon="-2.364623"><ele>540.5</ele><time>2026-04-11T14:45:10.384Z</time></trkpt><trkpt lat="37.3527417" lon="-2.3649283"><ele>541.0</ele><time>2026-04-11T14:45:11.384Z</time></trkpt><trkpt lat="37.3527615" lon="-2.365232"><ele>542.0</ele><time>2026-04-11T14:45:12.383Z</time></trkpt><trkpt lat="37.3527784" lon="-2.3655402"><ele>543.0</ele><time>2026-04-11T14:45:13.384Z</time></trkpt><trkpt lat="37.3527969" lon="-2.3658454"><ele>543.0</ele><time>2026-04-11T14:45:14.383Z</time></trkpt><trkpt lat="37.352813" lon="-2.3661507"><ele>543.0</ele><time>2026-04-11T14:45:15.384Z</time></trkpt><trkpt lat="37.3528335" lon="-2.3664569"><ele>543.0</ele><time>2026-04-11T14:45:16.384Z</time></trkpt><trkpt lat="37.3528534" lon="-2.366762"><ele>543.0</ele><time>2026-04-11T14:45:17.384Z</time></trkpt><trkpt lat="37.35287" lon="-2.3670656"><ele>542.5</ele><time>2026-04-11T14:45:18.383Z</time></trkpt><trkpt lat="37.3528924" lon="-2.3673739"><ele>542.0</ele><time>2026-04-11T14:45:19.384Z</time></trkpt><trkpt lat="37.3529099" lon="-2.3676854"><ele>542.0</ele><time>2026-04-11T14:45:20.383Z</time></trkpt><trkpt lat="37.3529291" lon="-2.3679947"><ele>542.0</ele><time>2026-04-11T14:45:21.384Z</time></trkpt><trkpt lat="37.3529483" lon="-2.3683062"><ele>542.0</ele><time>2026-04-11T14:45:22.384Z</time></trkpt><trkpt lat="37.3529687" lon="-2.3686197"><ele>542.0</ele><time>2026-04-11T14:45:23.384Z</time></trkpt><trkpt lat="37.3529882" lon="-2.3689274"><ele>541.0</ele><time>2026-04-11T14:45:24.384Z</time></trkpt><trkpt lat="37.3530095" lon="-2.3692387"><ele>540.0</ele><time>2026-04-11T14:45:25.384Z</time></trkpt><trkpt lat="37.3530281" lon="-2.3695485"><ele>540.0</ele><time>2026-04-11T14:45:26.384Z</time></trkpt><trkpt lat="37.3530481" lon="-2.3698529"><ele>540.0</ele><time>2026-04-11T14:45:27.384Z</time></trkpt><trkpt lat="37.3530678" lon="-2.3701492"><ele>540.0</ele><time>2026-04-11T14:45:28.384Z</time></trkpt><trkpt lat="37.3530844" lon="-2.3704354"><ele>540.0</ele><time>2026-04-11T14:45:29.383Z</time></trkpt><trkpt lat="37.3530999" lon="-2.370695"><ele>540.0</ele><time>2026-04-11T14:45:30.384Z</time></trkpt><trkpt lat="37.3530907" lon="-2.3709454"><ele>540.6666666666666</ele><time>2026-04-11T14:45:31.384Z</time></trkpt><trkpt lat="37.3530538" lon="-2.3711884"><ele>541.3333333333333</ele><time>2026-04-11T14:45:32.384Z</time></trkpt><trkpt lat="37.3529929" lon="-2.3714305"><ele>542.0</ele><time>2026-04-11T14:45:33.384Z</time></trkpt><trkpt lat="37.3529072" lon="-2.3716556"><ele>547.6666666666666</ele><time>2026-04-11T14:45:34.384Z</time></trkpt><trkpt lat="37.3527986" lon="-2.3718641"><ele>553.3333333333334</ele><time>2026-04-11T14:45:35.384Z</time></trkpt><trkpt lat="37.3526739" lon="-2.3720604"><ele>559.0</ele><time>2026-04-11T14:45:36.384Z</time></trkpt><trkpt lat="37.3525372" lon="-2.3722348"><ele>560.0</ele><time>2026-04-11T14:45:37.384Z</time></trkpt><trkpt lat="37.3523867" lon="-2.3723961"><ele>561.0</ele><time>2026-04-11T14:45:38.384Z</time></trkpt><trkpt lat="37.3522316" lon="-2.3725511"><ele>562.0</ele><time>2026-04-11T14:45:39.384Z</time></trkpt><trkpt lat="37.352086" lon="-2.3727118"><ele>564.3333333333334</ele><time>2026-04-11T14:45:40.384Z</time></trkpt><trkpt lat="37.3519539" lon="-2.3728904"><ele>566.6666666666666</ele><time>2026-04-11T14:45:41.384Z</time></trkpt><trkpt lat="37.3518395" lon="-2.3730809"><ele>569.0</ele><time>2026-04-11T14:45:42.383Z</time></trkpt><trkpt lat="37.3517469" lon="-2.3732828"><ele>569.0</ele><time>2026-04-11T14:45:43.383Z</time></trkpt><trkpt lat="37.3516769" lon="-2.3735034"><ele>569.0</ele><time>2026-04-11T14:45:44.384Z</time></trkpt><trkpt lat="37.351628" lon="-2.3737396"><ele>569.0</ele><time>2026-04-11T14:45:45.384Z</time></trkpt><trkpt lat="37.3515993" lon="-2.3739826"><ele>564.6666666666666</ele><time>2026-04-11T14:45:46.384Z</time></trkpt><trkpt lat="37.3515882" lon="-2.3742343"><ele>560.3333333333334</ele><time>2026-04-11T14:45:47.384Z</time></trkpt><trkpt lat="37.3515808" lon="-2.3744872"><ele>556.0</ele><time>2026-04-11T14:45:48.384Z</time></trkpt><trkpt lat="37.3515751" lon="-2.374746"><ele>556.0</ele><time>2026-04-11T14:45:49.384Z</time></trkpt><trkpt lat="37.3515709" lon="-2.3750117"><ele>556.0</ele><time>2026-04-11T14:45:50.384Z</time></trkpt><trkpt lat="37.3515732" lon="-2.375288"><ele>556.0</ele><time>2026-04-11T14:45:51.384Z</time></trkpt><trkpt lat="37.3515845" lon="-2.3755691"><ele>556.0</ele><time>2026-04-11T14:45:52.384Z</time></trkpt><trkpt lat="37.3516036" lon="-2.3758572"><ele>556.0</ele><time>2026-04-11T14:45:53.384Z</time></trkpt><trkpt lat="37.3516362" lon="-2.3761408"><ele>559.0</ele><time>2026-04-11T14:45:54.383Z</time></trkpt><trkpt lat="37.3516821" lon="-2.376433"><ele>562.0</ele><time>2026-04-11T14:45:55.384Z</time></trkpt><trkpt lat="37.3517381" lon="-2.3767203"><ele>562.0</ele><time>2026-04-11T14:45:56.384Z</time></trkpt><trkpt lat="37.3517996" lon="-2.377008"><ele>562.0</ele><time>2026-04-11T14:45:57.383Z</time></trkpt><trkpt lat="37.3518621" lon="-2.3772989"><ele>566.5</ele><time>2026-04-11T14:45:58.384Z</time></trkpt><trkpt lat="37.351924" lon="-2.3775895"><ele>571.0</ele><time>2026-04-11T14:45:59.383Z</time></trkpt><trkpt lat="37.3519867" lon="-2.3778829"><ele>579.0</ele><time>2026-04-11T14:46:00.384Z</time></trkpt><trkpt lat="37.3520542" lon="-2.3781729"><ele>587.0</ele><time>2026-04-11T14:46:01.384Z</time></trkpt><trkpt lat="37.3521237" lon="-2.3784636"><ele>587.0</ele><time>2026-04-11T14:46:02.384Z</time></trkpt><trkpt lat="37.3522031" lon="-2.378749"><ele>587.0</ele><time>2026-04-11T14:46:03.384Z</time></trkpt><trkpt lat="37.3522879" lon="-2.3790222"><ele>576.5</ele><time>2026-04-11T14:46:04.384Z</time></trkpt><trkpt lat="37.3523764" lon="-2.3792923"><ele>566.0</ele><time>2026-04-11T14:46:05.383Z</time></trkpt><trkpt lat="37.3524587" lon="-2.379564"><ele>568.0</ele><time>2026-04-11T14:46:06.384Z</time></trkpt><trkpt lat="37.3525288" lon="-2.3798446"><ele>570.0</ele><time>2026-04-11T14:46:07.384Z</time></trkpt><trkpt lat="37.3525783" lon="-2.3801318"><ele>570.0</ele><time>2026-04-11T14:46:08.384Z</time></trkpt><trkpt lat="37.3526001" lon="-2.3804307"><ele>570.0</ele><time>2026-04-11T14:46:09.384Z</time></trkpt><trkpt lat="37.3525898" lon="-2.3807286"><ele>573.5</ele><time>2026-04-11T14:46:10.384Z</time></trkpt><trkpt lat="37.3525386" lon="-2.3810224"><ele>577.0</ele><time>2026-04-11T14:46:11.384Z</time></trkpt><trkpt lat="37.3524496" lon="-2.3813003"><ele>576.5</ele><time>2026-04-11T14:46:12.383Z</time></trkpt><trkpt lat="37.3523333" lon="-2.3815534"><ele>576.0</ele><time>2026-04-11T14:46:13.384Z</time></trkpt><trkpt lat="37.3521894" lon="-2.3817821"><ele>584.5</ele><time>2026-04-11T14:46:14.383Z</time></trkpt><trkpt lat="37.352023" lon="-2.381978"><ele>593.0</ele><time>2026-04-11T14:46:15.384Z</time></trkpt><trkpt lat="37.3518434" lon="-2.3821472"><ele>589.5</ele><time>2026-04-11T14:46:16.383Z</time></trkpt><trkpt lat="37.3516316" lon="-2.382269"><ele>586.0</ele><time>2026-04-11T14:46:17.384Z</time></trkpt><trkpt lat="37.3514144" lon="-2.3823655"><ele>587.0</ele><time>2026-04-11T14:46:18.384Z</time></trkpt><trkpt lat="37.3511946" lon="-2.3824239"><ele>588.0</ele><time>2026-04-11T14:46:19.383Z</time></trkpt><trkpt lat="37.3509743" lon="-2.3824572"><ele>589.0</ele><time>2026-04-11T14:46:20.384Z</time></trkpt><trkpt lat="37.3507516" lon="-2.3824943"><ele>592.5</ele><time>2026-04-11T14:46:21.384Z</time></trkpt><trkpt lat="37.3505302" lon="-2.3825451"><ele>596.0</ele><time>2026-04-11T14:46:22.384Z</time></trkpt><trkpt lat="37.3503148" lon="-2.3826264"><ele>596.0</ele><time>2026-04-11T14:46:23.383Z</time></trkpt><trkpt lat="37.3501091" lon="-2.3827388"><ele>596.0</ele><time>2026-04-11T14:46:24.384Z</time></trkpt><trkpt lat="37.3499174" lon="-2.3828858"><ele>596.0</ele><time>2026-04-11T14:46:25.384Z</time></trkpt><trkpt lat="37.3497333" lon="-2.3830486"><ele>597.6666666666666</ele><time>2026-04-11T14:46:26.384Z</time></trkpt><trkpt lat="37.3495514" lon="-2.383216"><ele>599.3333333333334</ele><time>2026-04-11T14:46:27.384Z</time></trkpt><trkpt lat="37.3493724" lon="-2.3833855"><ele>601.0</ele><time>2026-04-11T14:46:28.384Z</time></trkpt><trkpt lat="37.3491932" lon="-2.383566"><ele>601.0</ele><time>2026-04-11T14:46:29.384Z</time></trkpt><trkpt lat="37.3490167" lon="-2.3837455"><ele>601.0</ele><time>2026-04-11T14:46:30.383Z</time></trkpt><trkpt lat="37.3488529" lon="-2.3839385"><ele>604.0</ele><time>2026-04-11T14:46:31.384Z</time></trkpt><trkpt lat="37.3487047" lon="-2.3841594"><ele>607.0</ele><time>2026-04-11T14:46:32.384Z</time></trkpt><trkpt lat="37.3485793" lon="-2.3843977"><ele>607.0</ele><time>2026-04-11T14:46:33.384Z</time></trkpt><trkpt lat="37.348485" lon="-2.3846547"><ele>607.0</ele><time>2026-04-11T14:46:34.384Z</time></trkpt><trkpt lat="37.3484233" lon="-2.3849265"><ele>607.3333333333334</ele><time>2026-04-11T14:46:35.384Z</time></trkpt><trkpt lat="37.3483988" lon="-2.3852074"><ele>607.6666666666666</ele><time>2026-04-11T14:46:36.383Z</time></trkpt><trkpt lat="37.3484052" lon="-2.3854869"><ele>608.0</ele><time>2026-04-11T14:46:37.384Z</time></trkpt><trkpt lat="37.3484236" lon="-2.3857706"><ele>610.6666666666666</ele><time>2026-04-11T14:46:38.384Z</time></trkpt><trkpt lat="37.3484578" lon="-2.3860463"><ele>613.3333333333334</ele><time>2026-04-11T14:46:39.384Z</time></trkpt><trkpt lat="37.3484866" lon="-2.3863295"><ele>616.0</ele><time>2026-04-11T14:46:40.384Z</time></trkpt><trkpt lat="37.3485005" lon="-2.386611"><ele>620.5</ele><time>2026-04-11T14:46:41.384Z</time></trkpt><trkpt lat="37.3484954" lon="-2.3868962"><ele>625.0</ele><time>2026-04-11T14:46:42.384Z</time></trkpt><trkpt lat="37.3484719" lon="-2.3871791"><ele>628.5</ele><time>2026-04-11T14:46:43.384Z</time></trkpt><trkpt lat="37.3484265" lon="-2.3874635"><ele>632.0</ele><time>2026-04-11T14:46:44.384Z</time></trkpt><trkpt lat="37.3483635" lon="-2.3877428"><ele>628.5</ele><time>2026-04-11T14:46:45.384Z</time></trkpt><trkpt lat="37.3482675" lon="-2.3880204"><ele>625.0</ele><time>2026-04-11T14:46:46.384Z</time></trkpt><trkpt lat="37.3481615" lon="-2.388288"><ele>641.0</ele><time>2026-04-11T14:46:47.383Z</time></trkpt><trkpt lat="37.3480415" lon="-2.3885404"><ele>657.0</ele><time>2026-04-11T14:46:48.383Z</time></trkpt><trkpt lat="37.3479168" lon="-2.3887978"><ele>649.0</ele><time>2026-04-11T14:46:49.384Z</time></trkpt><trkpt lat="37.3478046" lon="-2.3890566"><ele>641.0</ele><time>2026-04-11T14:46:50.384Z</time></trkpt><trkpt lat="37.3477039" lon="-2.3893282"><ele>641.0</ele><time>2026-04-11T14:46:51.384Z</time></trkpt><trkpt lat="37.3476251" lon="-2.3896115"><ele>641.0</ele><time>2026-04-11T14:46:52.384Z</time></trkpt><trkpt lat="37.3475646" lon="-2.3898974"><ele>635.5</ele><time>2026-04-11T14:46:53.383Z</time></trkpt><trkpt lat="37.3475285" lon="-2.3901863"><ele>630.0</ele><time>2026-04-11T14:46:54.384Z</time></trkpt><trkpt lat="37.3475249" lon="-2.3904761"><ele>627.0</ele><time>2026-04-11T14:46:55.384Z</time></trkpt><trkpt lat="37.3475516" lon="-2.3907693"><ele>624.0</ele><time>2026-04-11T14:46:56.383Z</time></trkpt><trkpt lat="37.3475919" lon="-2.3910582"><ele>626.0</ele><time>2026-04-11T14:46:57.384Z</time></trkpt><trkpt lat="37.3476568" lon="-2.3913565"><ele>628.0</ele><time>2026-04-11T14:46:58.384Z</time></trkpt><trkpt lat="37.3477327" lon="-2.3916505"><ele>628.0</ele><time>2026-04-11T14:46:59.384Z</time></trkpt><trkpt lat="37.347814" lon="-2.3919425"><ele>628.0</ele><time>2026-04-11T14:47:00.384Z</time></trkpt><trkpt lat="37.347902" lon="-2.3922308"><ele>633.0</ele><time>2026-04-11T14:47:01.384Z</time></trkpt><trkpt lat="37.3480032" lon="-2.3925164"><ele>638.0</ele><time>2026-04-11T14:47:02.384Z</time></trkpt><trkpt lat="37.3481243" lon="-2.3927927"><ele>622.5</ele><time>2026-04-11T14:47:03.384Z</time></trkpt><trkpt lat="37.3482581" lon="-2.3930639"><ele>607.0</ele><time>2026-04-11T14:47:04.384Z</time></trkpt><trkpt lat="37.3483964" lon="-2.3933326"><ele>607.0</ele><time>2026-04-11T14:47:05.384Z</time></trkpt><trkpt lat="37.3485371" lon="-2.3936004"><ele>607.0</ele><time>2026-04-11T14:47:06.384Z</time></trkpt><trkpt lat="37.3486739" lon="-2.3938706"><ele>607.0</ele><time>2026-04-11T14:47:07.383Z</time></trkpt><trkpt lat="37.3488121" lon="-2.3941453"><ele>607.0</ele><time>2026-04-11T14:47:08.384Z</time></trkpt><trkpt lat="37.3489525" lon="-2.394414"><ele>596.0</ele><time>2026-04-11T14:47:09.384Z</time></trkpt><trkpt lat="37.3490906" lon="-2.3946827"><ele>585.0</ele><time>2026-04-11T14:47:10.384Z</time></trkpt><trkpt lat="37.3492297" lon="-2.3949457"><ele>585.0</ele><time>2026-04-11T14:47:11.384Z</time></trkpt><trkpt lat="37.3493655" lon="-2.395207"><ele>585.0</ele><time>2026-04-11T14:47:12.384Z</time></trkpt><trkpt lat="37.3495003" lon="-2.3954644"><ele>584.5</ele><time>2026-04-11T14:47:13.383Z</time></trkpt><trkpt lat="37.3496318" lon="-2.3957129"><ele>584.0</ele><time>2026-04-11T14:47:14.384Z</time></trkpt><trkpt lat="37.3497531" lon="-2.395946"><ele>584.0</ele><time>2026-04-11T14:47:15.384Z</time></trkpt><trkpt lat="37.3498672" lon="-2.3961642"><ele>584.0</ele><time>2026-04-11T14:47:16.384Z</time></trkpt><trkpt lat="37.3499745" lon="-2.3963801"><ele>584.0</ele><time>2026-04-11T14:47:17.384Z</time></trkpt><trkpt lat="37.350067" lon="-2.3966079"><ele>587.6666666666666</ele><time>2026-04-11T14:47:18.384Z</time></trkpt><trkpt lat="37.3501358" lon="-2.396849"><ele>591.3333333333334</ele><time>2026-04-11T14:47:19.384Z</time></trkpt><trkpt lat="37.3501829" lon="-2.3971013"><ele>595.0</ele><time>2026-04-11T14:47:20.384Z</time></trkpt><trkpt lat="37.3502068" lon="-2.39736"><ele>595.3333333333334</ele><time>2026-04-11T14:47:21.384Z</time></trkpt><trkpt lat="37.350208" lon="-2.3976194"><ele>595.6666666666666</ele><time>2026-04-11T14:47:22.384Z</time></trkpt><trkpt lat="37.3501733" lon="-2.3978859"><ele>596.0</ele><time>2026-04-11T14:47:23.384Z</time></trkpt><trkpt lat="37.3501096" lon="-2.3981492"><ele>595.6666666666666</ele><time>2026-04-11T14:47:24.384Z</time></trkpt><trkpt lat="37.3500174" lon="-2.3983997"><ele>595.3333333333334</ele><time>2026-04-11T14:47:25.383Z</time></trkpt><trkpt lat="37.3498964" lon="-2.3986405"><ele>595.0</ele><time>2026-04-11T14:47:26.383Z</time></trkpt><trkpt lat="37.3497609" lon="-2.3988674"><ele>598.5</ele><time>2026-04-11T14:47:27.384Z</time></trkpt><trkpt lat="37.3496033" lon="-2.3990724"><ele>602.0</ele><time>2026-04-11T14:47:28.383Z</time></trkpt><trkpt lat="37.349451" lon="-2.3992843"><ele>602.0</ele><time>2026-04-11T14:47:29.384Z</time></trkpt><trkpt lat="37.3493078" lon="-2.3995108"><ele>602.0</ele><time>2026-04-11T14:47:30.384Z</time></trkpt><trkpt lat="37.3491726" lon="-2.399735"><ele>603.0</ele><time>2026-04-11T14:47:31.383Z</time></trkpt><trkpt lat="37.3490466" lon="-2.3999836"><ele>604.0</ele><time>2026-04-11T14:47:32.384Z</time></trkpt><trkpt lat="37.3489599" lon="-2.4002368"><ele>605.5</ele><time>2026-04-11T14:47:33.383Z</time></trkpt><trkpt lat="37.3488915" lon="-2.4005111"><ele>607.0</ele><time>2026-04-11T14:47:34.384Z</time></trkpt><trkpt lat="37.348847" lon="-2.4007958"><ele>611.0</ele><time>2026-04-11T14:47:35.384Z</time></trkpt><trkpt lat="37.3488233" lon="-2.4010845"><ele>615.0</ele><time>2026-04-11T14:47:36.383Z</time></trkpt><trkpt lat="37.3488158" lon="-2.4013825"><ele>616.5</ele><time>2026-04-11T14:47:37.384Z</time></trkpt><trkpt lat="37.3488298" lon="-2.4016807"><ele>618.0</ele><time>2026-04-11T14:47:38.384Z</time></trkpt><trkpt lat="37.3488562" lon="-2.4019814"><ele>613.5</ele><time>2026-04-11T14:47:39.384Z</time></trkpt><trkpt lat="37.3488894" lon="-2.4022823"><ele>609.0</ele><time>2026-04-11T14:47:40.383Z</time></trkpt><trkpt lat="37.3489277" lon="-2.4025854"><ele>609.0</ele><time>2026-04-11T14:47:41.384Z</time></trkpt><trkpt lat="37.3489621" lon="-2.4028902"><ele>609.0</ele><time>2026-04-11T14:47:42.383Z</time></trkpt><trkpt lat="37.3490047" lon="-2.4031899"><ele>607.0</ele><time>2026-04-11T14:47:43.384Z</time></trkpt><trkpt lat="37.3490607" lon="-2.4034866"><ele>605.0</ele><time>2026-04-11T14:47:44.384Z</time></trkpt><trkpt lat="37.3491329" lon="-2.4037691"><ele>608.5</ele><time>2026-04-11T14:47:45.383Z</time></trkpt><trkpt lat="37.3492137" lon="-2.4040485"><ele>612.0</ele><time>2026-04-11T14:47:46.384Z</time></trkpt><trkpt lat="37.3492953" lon="-2.4043254"><ele>612.0</ele><time>2026-04-11T14:47:47.384Z</time></trkpt><trkpt lat="37.3493738" lon="-2.4045921"><ele>612.0</ele><time>2026-04-11T14:47:48.384Z</time></trkpt><trkpt lat="37.3494432" lon="-2.4048689"><ele>616.5</ele><time>2026-04-11T14:47:49.384Z</time></trkpt><trkpt lat="37.3494892" lon="-2.4051597"><ele>621.0</ele><time>2026-04-11T14:47:50.384Z</time></trkpt><trkpt lat="37.3495149" lon="-2.4054508"><ele>620.0</ele><time>2026-04-11T14:47:51.384Z</time></trkpt><trkpt lat="37.3495291" lon="-2.4057384"><ele>619.0</ele><time>2026-04-11T14:47:52.384Z</time></trkpt><trkpt lat="37.349542" lon="-2.4060277"><ele>619.0</ele><time>2026-04-11T14:47:53.384Z</time></trkpt><trkpt lat="37.3495563" lon="-2.4063169"><ele>619.0</ele><time>2026-04-11T14:47:54.384Z</time></trkpt><trkpt lat="37.3495734" lon="-2.4066166"><ele>615.0</ele><time>2026-04-11T14:47:55.384Z</time></trkpt><trkpt lat="37.3495871" lon="-2.4068968"><ele>611.0</ele><time>2026-04-11T14:47:56.383Z</time></trkpt><trkpt lat="37.349604" lon="-2.4071948"><ele>611.0</ele><time>2026-04-11T14:47:57.384Z</time></trkpt><trkpt lat="37.3496231" lon="-2.407488"><ele>611.0</ele><time>2026-04-11T14:47:58.383Z</time></trkpt><trkpt lat="37.3496472" lon="-2.4077805"><ele>611.0</ele><time>2026-04-11T14:47:59.384Z</time></trkpt><trkpt lat="37.3496767" lon="-2.4080745"><ele>611.0</ele><time>2026-04-11T14:48:00.384Z</time></trkpt><trkpt lat="37.3497134" lon="-2.4083686"><ele>611.0</ele><time>2026-04-11T14:48:01.383Z</time></trkpt><trkpt lat="37.3497583" lon="-2.4086709"><ele>611.0</ele><time>2026-04-11T14:48:02.384Z</time></trkpt><trkpt lat="37.3498123" lon="-2.4089631"><ele>611.0</ele><time>2026-04-11T14:48:03.384Z</time></trkpt><trkpt lat="37.3498794" lon="-2.4092551"><ele>611.0</ele><time>2026-04-11T14:48:04.384Z</time></trkpt><trkpt lat="37.3499531" lon="-2.4095408"><ele>612.5</ele><time>2026-04-11T14:48:05.384Z</time></trkpt><trkpt lat="37.3500288" lon="-2.4098253"><ele>614.0</ele><time>2026-04-11T14:48:06.384Z</time></trkpt><trkpt lat="37.3501078" lon="-2.4101041"><ele>614.0</ele><time>2026-04-11T14:48:07.384Z</time></trkpt><trkpt lat="37.3501864" lon="-2.4103772"><ele>614.0</ele><time>2026-04-11T14:48:08.384Z</time></trkpt><trkpt lat="37.350266" lon="-2.4106442"><ele>616.6666666666666</ele><time>2026-04-11T14:48:09.384Z</time></trkpt><trkpt lat="37.3503469" lon="-2.4109057"><ele>619.3333333333334</ele><time>2026-04-11T14:48:10.384Z</time></trkpt><trkpt lat="37.3504289" lon="-2.4111533"><ele>622.0</ele><time>2026-04-11T14:48:11.384Z</time></trkpt><trkpt lat="37.3505238" lon="-2.4113922"><ele>619.0</ele><time>2026-04-11T14:48:12.384Z</time></trkpt><trkpt lat="37.3506405" lon="-2.4116129"><ele>616.0</ele><time>2026-04-11T14:48:13.384Z</time></trkpt><trkpt lat="37.3507756" lon="-2.4118071"><ele>613.0</ele><time>2026-04-11T14:48:14.384Z</time></trkpt><trkpt lat="37.3509226" lon="-2.4119903"><ele>617.6666666666667</ele><time>2026-04-11T14:48:15.384Z</time></trkpt><trkpt lat="37.3510666" lon="-2.4121653"><ele>622.3333333333334</ele><time>2026-04-11T14:48:16.383Z</time></trkpt><trkpt lat="37.3512082" lon="-2.4123498"><ele>627.0</ele><time>2026-04-11T14:48:17.383Z</time></trkpt><trkpt lat="37.3513451" lon="-2.4125295"><ele>624.0</ele><time>2026-04-11T14:48:18.384Z</time></trkpt><trkpt lat="37.3514845" lon="-2.4127159"><ele>621.0</ele><time>2026-04-11T14:48:19.384Z</time></trkpt><trkpt lat="37.3516127" lon="-2.4129123"><ele>618.0</ele><time>2026-04-11T14:48:20.384Z</time></trkpt><trkpt lat="37.3517284" lon="-2.413123"><ele>618.0</ele><time>2026-04-11T14:48:21.383Z</time></trkpt><trkpt lat="37.3518261" lon="-2.4133465"><ele>618.0</ele><time>2026-04-11T14:48:22.384Z</time></trkpt><trkpt lat="37.3519075" lon="-2.4135767"><ele>618.0</ele><time>2026-04-11T14:48:23.384Z</time></trkpt><trkpt lat="37.3519733" lon="-2.4138174"><ele>619.3333333333334</ele><time>2026-04-11T14:48:24.384Z</time></trkpt><trkpt lat="37.3520203" lon="-2.4140685"><ele>620.6666666666667</ele><time>2026-04-11T14:48:25.384Z</time></trkpt><trkpt lat="37.3520546" lon="-2.4143243"><ele>622.0</ele><time>2026-04-11T14:48:26.383Z</time></trkpt><trkpt lat="37.3520738" lon="-2.4145938"><ele>622.3333333333334</ele><time>2026-04-11T14:48:27.384Z</time></trkpt><trkpt lat="37.3520741" lon="-2.4148651"><ele>622.6666666666666</ele><time>2026-04-11T14:48:28.383Z</time></trkpt><trkpt lat="37.3520556" lon="-2.4151354"><ele>623.0</ele><time>2026-04-11T14:48:29.384Z</time></trkpt><trkpt lat="37.3520198" lon="-2.4154049"><ele>624.0</ele><time>2026-04-11T14:48:30.384Z</time></trkpt><trkpt lat="37.3519473" lon="-2.4156809"><ele>625.0</ele><time>2026-04-11T14:48:31.384Z</time></trkpt><trkpt lat="37.3518559" lon="-2.4159516"><ele>625.0</ele><time>2026-04-11T14:48:32.384Z</time></trkpt><trkpt lat="37.3517454" lon="-2.4162127"><ele>625.0</ele><time>2026-04-11T14:48:33.384Z</time></trkpt><trkpt lat="37.3516168" lon="-2.4164563"><ele>625.5</ele><time>2026-04-11T14:48:34.384Z</time></trkpt><trkpt lat="37.35147" lon="-2.416679"><ele>626.0</ele><time>2026-04-11T14:48:35.384Z</time></trkpt><trkpt lat="37.3513083" lon="-2.416887"><ele>626.0</ele><time>2026-04-11T14:48:36.384Z</time></trkpt><trkpt lat="37.3511278" lon="-2.417069"><ele>626.0</ele><time>2026-04-11T14:48:37.384Z</time></trkpt><trkpt lat="37.3509359" lon="-2.4172286"><ele>626.0</ele><time>2026-04-11T14:48:38.384Z</time></trkpt><trkpt lat="37.3507352" lon="-2.4173725"><ele>626.0</ele><time>2026-04-11T14:48:39.383Z</time></trkpt><trkpt lat="37.3505339" lon="-2.4175177"><ele>626.0</ele><time>2026-04-11T14:48:40.384Z</time></trkpt><trkpt lat="37.3503314" lon="-2.4176642"><ele>626.0</ele><time>2026-04-11T14:48:41.384Z</time></trkpt><trkpt lat="37.3501336" lon="-2.417813"><ele>626.0</ele><time>2026-04-11T14:48:42.384Z</time></trkpt><trkpt lat="37.3499381" lon="-2.4179643"><ele>626.0</ele><time>2026-04-11T14:48:43.383Z</time></trkpt><trkpt lat="37.3497493" lon="-2.4181265"><ele>627.0</ele><time>2026-04-11T14:48:44.384Z</time></trkpt><trkpt lat="37.3495707" lon="-2.4183077"><ele>628.0</ele><time>2026-04-11T14:48:45.384Z</time></trkpt><trkpt lat="37.3494088" lon="-2.4185095"><ele>628.0</ele><time>2026-04-11T14:48:46.383Z</time></trkpt><trkpt lat="37.3492646" lon="-2.4187279"><ele>628.0</ele><time>2026-04-11T14:48:47.384Z</time></trkpt><trkpt lat="37.3491392" lon="-2.4189595"><ele>628.0</ele><time>2026-04-11T14:48:48.384Z</time></trkpt><trkpt lat="37.3490361" lon="-2.4192099"><ele>628.3333333333334</ele><time>2026-04-11T14:48:49.383Z</time></trkpt><trkpt lat="37.3489448" lon="-2.4194686"><ele>628.6666666666666</ele><time>2026-04-11T14:48:50.383Z</time></trkpt><trkpt lat="37.3488796" lon="-2.4197327"><ele>629.0</ele><time>2026-04-11T14:48:51.383Z</time></trkpt><trkpt lat="37.3488405" lon="-2.419992"><ele>629.0</ele><time>2026-04-11T14:48:52.384Z</time></trkpt><trkpt lat="37.3488185" lon="-2.4202628"><ele>629.0</ele><time>2026-04-11T14:48:53.384Z</time></trkpt><trkpt lat="37.3488101" lon="-2.4205253"><ele>629.0</ele><time>2026-04-11T14:48:54.384Z</time></trkpt><trkpt lat="37.3488057" lon="-2.4207873"><ele>628.6666666666666</ele><time>2026-04-11T14:48:55.383Z</time></trkpt><trkpt lat="37.3487998" lon="-2.42105"><ele>628.3333333333334</ele><time>2026-04-11T14:48:56.384Z</time></trkpt><trkpt lat="37.348794" lon="-2.4213086"><ele>628.0</ele><time>2026-04-11T14:48:57.384Z</time></trkpt><trkpt lat="37.3487891" lon="-2.4215718"><ele>628.0</ele><time>2026-04-11T14:48:58.384Z</time></trkpt><trkpt lat="37.3487802" lon="-2.421833"><ele>628.0</ele><time>2026-04-11T14:48:59.383Z</time></trkpt><trkpt lat="37.3487745" lon="-2.4220914"><ele>628.0</ele><time>2026-04-11T14:49:00.384Z</time></trkpt><trkpt lat="37.3487743" lon="-2.4223481"><ele>629.3333333333334</ele><time>2026-04-11T14:49:01.384Z</time></trkpt><trkpt lat="37.3487751" lon="-2.422599"><ele>630.6666666666666</ele><time>2026-04-11T14:49:02.384Z</time></trkpt><trkpt lat="37.3487818" lon="-2.4228574"><ele>632.0</ele><time>2026-04-11T14:49:03.384Z</time></trkpt><trkpt lat="37.3488013" lon="-2.4231161"><ele>632.3333333333333</ele><time>2026-04-11T14:49:04.383Z</time></trkpt><trkpt lat="37.3488391" lon="-2.4233742"><ele>632.6666666666666</ele><time>2026-04-11T14:49:05.384Z</time></trkpt><trkpt lat="37.3488966" lon="-2.4236252"><ele>633.0</ele><time>2026-04-11T14:49:06.384Z</time></trkpt><trkpt lat="37.3489733" lon="-2.4238764"><ele>634.0</ele><time>2026-04-11T14:49:07.384Z</time></trkpt><trkpt lat="37.3490636" lon="-2.4241198"><ele>635.0</ele><time>2026-04-11T14:49:08.384Z</time></trkpt><trkpt lat="37.3491525" lon="-2.4243585"><ele>636.0</ele><time>2026-04-11T14:49:09.384Z</time></trkpt><trkpt lat="37.3492463" lon="-2.4246001"><ele>638.0</ele><time>2026-04-11T14:49:10.384Z</time></trkpt><trkpt lat="37.3493322" lon="-2.424845"><ele>640.0</ele><time>2026-04-11T14:49:11.383Z</time></trkpt><trkpt lat="37.3494042" lon="-2.4250957"><ele>642.0</ele><time>2026-04-11T14:49:12.384Z</time></trkpt><trkpt lat="37.3494588" lon="-2.4253583"><ele>643.6666666666666</ele><time>2026-04-11T14:49:13.384Z</time></trkpt><trkpt lat="37.3495022" lon="-2.4256282"><ele>645.3333333333333</ele><time>2026-04-11T14:49:14.384Z</time></trkpt><trkpt lat="37.3495214" lon="-2.4258993"><ele>647.0</ele><time>2026-04-11T14:49:15.384Z</time></trkpt><trkpt lat="37.3495343" lon="-2.4261751"><ele>648.6666666666666</ele><time>2026-04-11T14:49:16.384Z</time></trkpt><trkpt lat="37.3495441" lon="-2.4264545"><ele>650.3333333333334</ele><time>2026-04-11T14:49:17.383Z</time></trkpt><trkpt lat="37.3495568" lon="-2.4267306"><ele>652.0</ele><time>2026-04-11T14:49:18.384Z</time></trkpt><trkpt lat="37.3495668" lon="-2.4270032"><ele>654.0</ele><time>2026-04-11T14:49:19.384Z</time></trkpt><trkpt lat="37.3495787" lon="-2.427281"><ele>656.0</ele><time>2026-04-11T14:49:20.384Z</time></trkpt><trkpt lat="37.3495901" lon="-2.4275517"><ele>658.0</ele><time>2026-04-11T14:49:21.384Z</time></trkpt><trkpt lat="37.3496058" lon="-2.4278275"><ele>658.6666666666667</ele><time>2026-04-11T14:49:22.384Z</time></trkpt><trkpt lat="37.3496175" lon="-2.4281065"><ele>659.3333333333334</ele><time>2026-04-11T14:49:23.384Z</time></trkpt><trkpt lat="37.3496267" lon="-2.4283851"><ele>660.0</ele><time>2026-04-11T14:49:24.384Z</time></trkpt><trkpt lat="37.3496382" lon="-2.4286613"><ele>661.0</ele><time>2026-04-11T14:49:25.384Z</time></trkpt><trkpt lat="37.3496479" lon="-2.4289371"><ele>662.0</ele><time>2026-04-11T14:49:26.384Z</time></trkpt><trkpt lat="37.3496589" lon="-2.4292131"><ele>663.0</ele><time>2026-04-11T14:49:27.384Z</time></trkpt><trkpt lat="37.3496691" lon="-2.4294904"><ele>662.6666666666666</ele><time>2026-04-11T14:49:28.383Z</time></trkpt><trkpt lat="37.3496821" lon="-2.4297569"><ele>662.3333333333333</ele><time>2026-04-11T14:49:29.384Z</time></trkpt><trkpt lat="37.3496992" lon="-2.430018"><ele>662.0</ele><time>2026-04-11T14:49:30.384Z</time></trkpt><trkpt lat="37.3497229" lon="-2.4302714"><ele>662.3333333333333</ele><time>2026-04-11T14:49:31.384Z</time></trkpt><trkpt lat="37.3497408" lon="-2.4305237"><ele>662.6666666666666</ele><time>2026-04-11T14:49:32.384Z</time></trkpt><trkpt lat="37.3497582" lon="-2.4307761"><ele>663.0</ele><time>2026-04-11T14:49:33.384Z</time></trkpt><trkpt lat="37.3497707" lon="-2.4310318"><ele>663.0</ele><time>2026-04-11T14:49:34.384Z</time></trkpt><trkpt lat="37.3497773" lon="-2.4312913"><ele>663.0</ele><time>2026-04-11T14:49:35.384Z</time></trkpt><trkpt lat="37.3497793" lon="-2.4315537"><ele>663.0</ele><time>2026-04-11T14:49:36.384Z</time></trkpt><trkpt lat="37.3497695" lon="-2.431822"><ele>663.0</ele><time>2026-04-11T14:49:37.384Z</time></trkpt><trkpt lat="37.349747" lon="-2.4320911"><ele>663.0</ele><time>2026-04-11T14:49:38.384Z</time></trkpt><trkpt lat="37.3497141" lon="-2.4323638"><ele>663.0</ele><time>2026-04-11T14:49:39.384Z</time></trkpt><trkpt lat="37.3496612" lon="-2.4326371"><ele>665.0</ele><time>2026-04-11T14:49:40.384Z</time></trkpt><trkpt lat="37.349592" lon="-2.4329093"><ele>667.0</ele><time>2026-04-11T14:49:41.384Z</time></trkpt><trkpt lat="37.3495172" lon="-2.4331826"><ele>667.0</ele><time>2026-04-11T14:49:42.384Z</time></trkpt><trkpt lat="37.3494464" lon="-2.433463"><ele>667.0</ele><time>2026-04-11T14:49:43.384Z</time></trkpt><trkpt lat="37.3493806" lon="-2.4337437"><ele>666.0</ele><time>2026-04-11T14:49:44.384Z</time></trkpt><trkpt lat="37.3493176" lon="-2.4340254"><ele>665.0</ele><time>2026-04-11T14:49:45.384Z</time></trkpt><trkpt lat="37.3492576" lon="-2.4343134"><ele>665.0</ele><time>2026-04-11T14:49:46.384Z</time></trkpt><trkpt lat="37.3492022" lon="-2.4346032"><ele>665.0</ele><time>2026-04-11T14:49:47.384Z</time></trkpt><trkpt lat="37.3491621" lon="-2.4348993"><ele>663.5</ele><time>2026-04-11T14:49:48.383Z</time></trkpt><trkpt lat="37.3491372" lon="-2.4351955"><ele>662.0</ele><time>2026-04-11T14:49:49.384Z</time></trkpt><trkpt lat="37.3491208" lon="-2.4354928"><ele>660.0</ele><time>2026-04-11T14:49:50.384Z</time></trkpt><trkpt lat="37.3491114" lon="-2.4357906"><ele>658.0</ele><time>2026-04-11T14:49:51.384Z</time></trkpt><trkpt lat="37.3491012" lon="-2.4360945"><ele>658.5</ele><time>2026-04-11T14:49:52.384Z</time></trkpt><trkpt lat="37.3490935" lon="-2.4363936"><ele>659.0</ele><time>2026-04-11T14:49:53.384Z</time></trkpt><trkpt lat="37.3490841" lon="-2.4366933"><ele>659.0</ele><time>2026-04-11T14:49:54.384Z</time></trkpt><trkpt lat="37.3490725" lon="-2.4369957"><ele>659.0</ele><time>2026-04-11T14:49:55.384Z</time></trkpt><trkpt lat="37.3490596" lon="-2.4372884"><ele>658.5</ele><time>2026-04-11T14:49:56.384Z</time></trkpt><trkpt lat="37.349048" lon="-2.4375919"><ele>658.0</ele><time>2026-04-11T14:49:57.384Z</time></trkpt><trkpt lat="37.3490346" lon="-2.4378879"><ele>659.0</ele><time>2026-04-11T14:49:58.384Z</time></trkpt><trkpt lat="37.3490158" lon="-2.4381839"><ele>660.0</ele><time>2026-04-11T14:49:59.384Z</time></trkpt><trkpt lat="37.3489918" lon="-2.4384776"><ele>660.0</ele><time>2026-04-11T14:50:00.384Z</time></trkpt><trkpt lat="37.3489667" lon="-2.4387713"><ele>660.0</ele><time>2026-04-11T14:50:01.384Z</time></trkpt><trkpt lat="37.3489386" lon="-2.4390642"><ele>660.5</ele><time>2026-04-11T14:50:02.384Z</time></trkpt><trkpt lat="37.3489097" lon="-2.4393502"><ele>661.0</ele><time>2026-04-11T14:50:03.384Z</time></trkpt><trkpt lat="37.3488785" lon="-2.4396387"><ele>664.0</ele><time>2026-04-11T14:50:04.384Z</time></trkpt><trkpt lat="37.3488431" lon="-2.4399305"><ele>667.0</ele><time>2026-04-11T14:50:05.384Z</time></trkpt><trkpt lat="37.3488072" lon="-2.4402151"><ele>665.0</ele><time>2026-04-11T14:50:06.384Z</time></trkpt><trkpt lat="37.3487754" lon="-2.4405084"><ele>663.0</ele><time>2026-04-11T14:50:07.384Z</time></trkpt><trkpt lat="37.3487525" lon="-2.440808"><ele>663.0</ele><time>2026-04-11T14:50:08.384Z</time></trkpt><trkpt lat="37.3487478" lon="-2.4411114"><ele>663.0</ele><time>2026-04-11T14:50:09.383Z</time></trkpt><trkpt lat="37.3487639" lon="-2.4414177"><ele>662.0</ele><time>2026-04-11T14:50:10.384Z</time></trkpt><trkpt lat="37.3487985" lon="-2.4417253"><ele>661.0</ele><time>2026-04-11T14:50:11.384Z</time></trkpt><trkpt lat="37.3488549" lon="-2.4420266"><ele>659.5</ele><time>2026-04-11T14:50:12.384Z</time></trkpt><trkpt lat="37.3489309" lon="-2.4423241"><ele>658.0</ele><time>2026-04-11T14:50:13.383Z</time></trkpt><trkpt lat="37.3490265" lon="-2.4426161"><ele>658.0</ele><time>2026-04-11T14:50:14.384Z</time></trkpt><trkpt lat="37.3491302" lon="-2.4429065"><ele>658.0</ele><time>2026-04-11T14:50:15.384Z</time></trkpt><trkpt lat="37.3492388" lon="-2.4431947"><ele>659.0</ele><time>2026-04-11T14:50:16.384Z</time></trkpt><trkpt lat="37.3493458" lon="-2.443485"><ele>660.0</ele><time>2026-04-11T14:50:17.383Z</time></trkpt><trkpt lat="37.3494541" lon="-2.4437709"><ele>662.0</ele><time>2026-04-11T14:50:18.384Z</time></trkpt><trkpt lat="37.3495663" lon="-2.4440589"><ele>664.0</ele><time>2026-04-11T14:50:19.384Z</time></trkpt><trkpt lat="37.3496795" lon="-2.4443422"><ele>663.5</ele><time>2026-04-11T14:50:20.384Z</time></trkpt><trkpt lat="37.3497916" lon="-2.4446265"><ele>663.0</ele><time>2026-04-11T14:50:21.384Z</time></trkpt><trkpt lat="37.3499025" lon="-2.4449076"><ele>663.0</ele><time>2026-04-11T14:50:22.384Z</time></trkpt><trkpt lat="37.3500132" lon="-2.4451913"><ele>663.0</ele><time>2026-04-11T14:50:23.384Z</time></trkpt><trkpt lat="37.3501235" lon="-2.4454711"><ele>665.0</ele><time>2026-04-11T14:50:24.384Z</time></trkpt><trkpt lat="37.3502321" lon="-2.4457488"><ele>667.0</ele><time>2026-04-11T14:50:25.384Z</time></trkpt><trkpt lat="37.3503391" lon="-2.4460206"><ele>667.0</ele><time>2026-04-11T14:50:26.383Z</time></trkpt><trkpt lat="37.3504433" lon="-2.4462907"><ele>667.0</ele><time>2026-04-11T14:50:27.384Z</time></trkpt><trkpt lat="37.3505479" lon="-2.4465575"><ele>664.0</ele><time>2026-04-11T14:50:28.384Z</time></trkpt><trkpt lat="37.3506525" lon="-2.4468241"><ele>661.0</ele><time>2026-04-11T14:50:29.384Z</time></trkpt><trkpt lat="37.3507548" lon="-2.44709"><ele>662.0</ele><time>2026-04-11T14:50:30.384Z</time></trkpt><trkpt lat="37.3508595" lon="-2.4473557"><ele>663.0</ele><time>2026-04-11T14:50:31.384Z</time></trkpt><trkpt lat="37.3509592" lon="-2.4476297"><ele>663.0</ele><time>2026-04-11T14:50:32.384Z</time></trkpt><trkpt lat="37.3510551" lon="-2.4479068"><ele>663.0</ele><time>2026-04-11T14:50:33.384Z</time></trkpt><trkpt lat="37.3511436" lon="-2.4481881"><ele>666.0</ele><time>2026-04-11T14:50:34.384Z</time></trkpt><trkpt lat="37.351216" lon="-2.4485286"><ele>669.0</ele><time>2026-04-11T14:50:36.038Z</time></trkpt><trkpt lat="37.3513345" lon="-2.4490659"><ele>665.0</ele><time>2026-04-11T14:50:37.379Z</time></trkpt><trkpt lat="37.3513928" lon="-2.4493578"><ele>661.0</ele><time>2026-04-11T14:50:38.378Z</time></trkpt><trkpt lat="37.3514122" lon="-2.4496639"><ele>661.0</ele><time>2026-04-11T14:50:39.378Z</time></trkpt><trkpt lat="37.3514394" lon="-2.4499643"><ele>661.0</ele><time>2026-04-11T14:50:40.38Z</time></trkpt><trkpt lat="37.3514439" lon="-2.4502709"><ele>660.5</ele><time>2026-04-11T14:50:41.382Z</time></trkpt><trkpt lat="37.3514366" lon="-2.4505803"><ele>660.0</ele><time>2026-04-11T14:50:42.383Z</time></trkpt><trkpt lat="37.3514232" lon="-2.4508879"><ele>660.0</ele><time>2026-04-11T14:50:43.382Z</time></trkpt><trkpt lat="37.3514013" lon="-2.4511946"><ele>660.0</ele><time>2026-04-11T14:50:44.383Z</time></trkpt><trkpt lat="37.351378" lon="-2.4514977"><ele>664.0</ele><time>2026-04-11T14:50:45.383Z</time></trkpt><trkpt lat="37.3513552" lon="-2.4518013"><ele>668.0</ele><time>2026-04-11T14:50:46.382Z</time></trkpt><trkpt lat="37.3513309" lon="-2.4521071"><ele>668.5</ele><time>2026-04-11T14:50:47.383Z</time></trkpt><trkpt lat="37.3513095" lon="-2.4524167"><ele>669.0</ele><time>2026-04-11T14:50:48.383Z</time></trkpt><trkpt lat="37.3512952" lon="-2.4527227"><ele>670.5</ele><time>2026-04-11T14:50:49.382Z</time></trkpt><trkpt lat="37.3512947" lon="-2.4530305"><ele>672.0</ele><time>2026-04-11T14:50:50.382Z</time></trkpt><trkpt lat="37.3513149" lon="-2.4533328"><ele>672.0</ele><time>2026-04-11T14:50:51.382Z</time></trkpt><trkpt lat="37.351354" lon="-2.4536349"><ele>672.0</ele><time>2026-04-11T14:50:52.383Z</time></trkpt><trkpt lat="37.3514143" lon="-2.4539271"><ele>667.5</ele><time>2026-04-11T14:50:53.383Z</time></trkpt><trkpt lat="37.351488" lon="-2.4542159"><ele>663.0</ele><time>2026-04-11T14:50:54.383Z</time></trkpt><trkpt lat="37.3515679" lon="-2.4545049"><ele>666.5</ele><time>2026-04-11T14:50:55.383Z</time></trkpt><trkpt lat="37.3516458" lon="-2.4547929"><ele>670.0</ele><time>2026-04-11T14:50:56.382Z</time></trkpt><trkpt lat="37.3517217" lon="-2.455085"><ele>670.0</ele><time>2026-04-11T14:50:57.383Z</time></trkpt><trkpt lat="37.351793" lon="-2.455376"><ele>670.0</ele><time>2026-04-11T14:50:58.383Z</time></trkpt><trkpt lat="37.3518452" lon="-2.455673"><ele>672.0</ele><time>2026-04-11T14:50:59.382Z</time></trkpt><trkpt lat="37.3518771" lon="-2.4559747"><ele>674.0</ele><time>2026-04-11T14:51:00.382Z</time></trkpt><trkpt lat="37.3518866" lon="-2.4562817"><ele>674.0</ele><time>2026-04-11T14:51:01.383Z</time></trkpt><trkpt lat="37.3518759" lon="-2.45659"><ele>674.0</ele><time>2026-04-11T14:51:02.383Z</time></trkpt><trkpt lat="37.3518379" lon="-2.456896"><ele>675.0</ele><time>2026-04-11T14:51:03.383Z</time></trkpt><trkpt lat="37.3517744" lon="-2.4571927"><ele>676.0</ele><time>2026-04-11T14:51:04.383Z</time></trkpt><trkpt lat="37.3516895" lon="-2.4574814"><ele>676.0</ele><time>2026-04-11T14:51:05.383Z</time></trkpt><trkpt lat="37.3515836" lon="-2.4577519"><ele>676.0</ele><time>2026-04-11T14:51:06.382Z</time></trkpt><trkpt lat="37.3514572" lon="-2.4580192"><ele>679.5</ele><time>2026-04-11T14:51:07.383Z</time></trkpt><trkpt lat="37.3513164" lon="-2.4582686"><ele>683.0</ele><time>2026-04-11T14:51:08.383Z</time></trkpt><trkpt lat="37.3511626" lon="-2.4585063"><ele>683.0</ele><time>2026-04-11T14:51:09.383Z</time></trkpt><trkpt lat="37.351" lon="-2.4587434"><ele>683.0</ele><time>2026-04-11T14:51:10.382Z</time></trkpt><trkpt lat="37.3508337" lon="-2.458975"><ele>681.0</ele><time>2026-04-11T14:51:11.383Z</time></trkpt><trkpt lat="37.3506644" lon="-2.4592028"><ele>679.0</ele><time>2026-04-11T14:51:12.383Z</time></trkpt><trkpt lat="37.3504966" lon="-2.4594352"><ele>681.5</ele><time>2026-04-11T14:51:13.383Z</time></trkpt><trkpt lat="37.3503324" lon="-2.4596671"><ele>684.0</ele><time>2026-04-11T14:51:14.382Z</time></trkpt><trkpt lat="37.3501637" lon="-2.4598947"><ele>684.0</ele><time>2026-04-11T14:51:15.382Z</time></trkpt><trkpt lat="37.3499982" lon="-2.4601261"><ele>684.0</ele><time>2026-04-11T14:51:16.383Z</time></trkpt><trkpt lat="37.3498322" lon="-2.4603547"><ele>687.5</ele><time>2026-04-11T14:51:17.383Z</time></trkpt><trkpt lat="37.3496645" lon="-2.460587"><ele>691.0</ele><time>2026-04-11T14:51:18.383Z</time></trkpt><trkpt lat="37.349491" lon="-2.4608172"><ele>691.0</ele><time>2026-04-11T14:51:19.383Z</time></trkpt><trkpt lat="37.3493247" lon="-2.4610524"><ele>691.0</ele><time>2026-04-11T14:51:20.383Z</time></trkpt><trkpt lat="37.3491555" lon="-2.4612885"><ele>690.0</ele><time>2026-04-11T14:51:21.383Z</time></trkpt><trkpt lat="37.3489907" lon="-2.4615231"><ele>689.0</ele><time>2026-04-11T14:51:22.382Z</time></trkpt><trkpt lat="37.3488245" lon="-2.4617691"><ele>689.0</ele><time>2026-04-11T14:51:23.383Z</time></trkpt><trkpt lat="37.3486658" lon="-2.4620227"><ele>689.0</ele><time>2026-04-11T14:51:24.383Z</time></trkpt><trkpt lat="37.3485136" lon="-2.4622774"><ele>687.5</ele><time>2026-04-11T14:51:25.382Z</time></trkpt><trkpt lat="37.3483707" lon="-2.4625383"><ele>686.0</ele><time>2026-04-11T14:51:26.383Z</time></trkpt><trkpt lat="37.3482416" lon="-2.462803"><ele>685.5</ele><time>2026-04-11T14:51:27.383Z</time></trkpt><trkpt lat="37.3481193" lon="-2.4630805"><ele>685.0</ele><time>2026-04-11T14:51:28.383Z</time></trkpt><trkpt lat="37.3480125" lon="-2.4633643"><ele>687.5</ele><time>2026-04-11T14:51:29.383Z</time></trkpt><trkpt lat="37.3479169" lon="-2.4636556"><ele>690.0</ele><time>2026-04-11T14:51:30.382Z</time></trkpt><trkpt lat="37.3478293" lon="-2.463954"><ele>690.0</ele><time>2026-04-11T14:51:31.383Z</time></trkpt><trkpt lat="37.3477504" lon="-2.4642634"><ele>690.0</ele><time>2026-04-11T14:51:32.383Z</time></trkpt><trkpt lat="37.3476813" lon="-2.4645746"><ele>689.5</ele><time>2026-04-11T14:51:33.383Z</time></trkpt><trkpt lat="37.3476209" lon="-2.4648827"><ele>689.0</ele><time>2026-04-11T14:51:34.383Z</time></trkpt><trkpt lat="37.3475601" lon="-2.4651912"><ele>688.0</ele><time>2026-04-11T14:51:35.383Z</time></trkpt><trkpt lat="37.3475013" lon="-2.4655006"><ele>687.0</ele><time>2026-04-11T14:51:36.383Z</time></trkpt><trkpt lat="37.3474448" lon="-2.4658085"><ele>687.0</ele><time>2026-04-11T14:51:37.383Z</time></trkpt><trkpt lat="37.3473883" lon="-2.4661153"><ele>687.0</ele><time>2026-04-11T14:51:38.382Z</time></trkpt><trkpt lat="37.3473334" lon="-2.466422"><ele>687.5</ele><time>2026-04-11T14:51:39.382Z</time></trkpt><trkpt lat="37.3472779" lon="-2.4667256"><ele>688.0</ele><time>2026-04-11T14:51:40.383Z</time></trkpt><trkpt lat="37.3472251" lon="-2.4670279"><ele>690.0</ele><time>2026-04-11T14:51:41.383Z</time></trkpt><trkpt lat="37.3471709" lon="-2.4673298"><ele>692.0</ele><time>2026-04-11T14:51:42.383Z</time></trkpt><trkpt lat="37.3471153" lon="-2.467632"><ele>692.0</ele><time>2026-04-11T14:51:43.383Z</time></trkpt><trkpt lat="37.3470613" lon="-2.4679341"><ele>692.0</ele><time>2026-04-11T14:51:44.383Z</time></trkpt><trkpt lat="37.3470099" lon="-2.46824"><ele>693.0</ele><time>2026-04-11T14:51:45.383Z</time></trkpt><trkpt lat="37.3469579" lon="-2.4685471"><ele>694.0</ele><time>2026-04-11T14:51:46.383Z</time></trkpt><trkpt lat="37.3469033" lon="-2.468857"><ele>694.5</ele><time>2026-04-11T14:51:47.383Z</time></trkpt><trkpt lat="37.3468446" lon="-2.4691663"><ele>695.0</ele><time>2026-04-11T14:51:48.383Z</time></trkpt><trkpt lat="37.3467857" lon="-2.4694795"><ele>695.5</ele><time>2026-04-11T14:51:49.383Z</time></trkpt><trkpt lat="37.3467276" lon="-2.4697864"><ele>696.0</ele><time>2026-04-11T14:51:50.383Z</time></trkpt><trkpt lat="37.346671" lon="-2.4700921"><ele>696.0</ele><time>2026-04-11T14:51:51.383Z</time></trkpt><trkpt lat="37.3466065" lon="-2.4703955"><ele>696.0</ele><time>2026-04-11T14:51:52.383Z</time></trkpt><trkpt lat="37.3465413" lon="-2.4706967"><ele>696.5</ele><time>2026-04-11T14:51:53.382Z</time></trkpt><trkpt lat="37.346464" lon="-2.470993"><ele>697.0</ele><time>2026-04-11T14:51:54.383Z</time></trkpt><trkpt lat="37.3463837" lon="-2.4712801"><ele>706.0</ele><time>2026-04-11T14:51:55.383Z</time></trkpt><trkpt lat="37.3462954" lon="-2.4715568"><ele>715.0</ele><time>2026-04-11T14:51:56.383Z</time></trkpt><trkpt lat="37.3462015" lon="-2.4718299"><ele>715.0</ele><time>2026-04-11T14:51:57.383Z</time></trkpt><trkpt lat="37.3461061" lon="-2.4720872"><ele>715.0</ele><time>2026-04-11T14:51:58.383Z</time></trkpt><trkpt lat="37.3460019" lon="-2.4723392"><ele>715.3333333333334</ele><time>2026-04-11T14:51:59.383Z</time></trkpt><trkpt lat="37.3458983" lon="-2.4725768"><ele>715.6666666666666</ele><time>2026-04-11T14:52:00.382Z</time></trkpt><trkpt lat="37.3457919" lon="-2.4728027"><ele>716.0</ele><time>2026-04-11T14:52:01.383Z</time></trkpt><trkpt lat="37.3456846" lon="-2.4730163"><ele>715.3333333333333</ele><time>2026-04-11T14:52:02.382Z</time></trkpt><trkpt lat="37.3455775" lon="-2.4732184"><ele>714.6666666666666</ele><time>2026-04-11T14:52:03.383Z</time></trkpt><trkpt lat="37.3454695" lon="-2.4734148"><ele>714.0</ele><time>2026-04-11T14:52:04.383Z</time></trkpt><trkpt lat="37.345359" lon="-2.4735991"><ele>714.25</ele><time>2026-04-11T14:52:05.383Z</time></trkpt><trkpt lat="37.3452617" lon="-2.4737654"><ele>714.5</ele><time>2026-04-11T14:52:06.382Z</time></trkpt><trkpt lat="37.3451744" lon="-2.4738956"><ele>714.75</ele><time>2026-04-11T14:52:07.382Z</time></trkpt><trkpt lat="37.3450833" lon="-2.4740232"><ele>715.0</ele><time>2026-04-11T14:52:08.383Z</time></trkpt><trkpt lat="37.3449982" lon="-2.4741403"><ele>715.0</ele><time>2026-04-11T14:52:09.382Z</time></trkpt><trkpt lat="37.3449117" lon="-2.4742555"><ele>715.0</ele><time>2026-04-11T14:52:10.383Z</time></trkpt><trkpt lat="37.3448256" lon="-2.474366"><ele>715.0</ele><time>2026-04-11T14:52:11.383Z</time></trkpt><trkpt lat="37.3447433" lon="-2.4744692"><ele>715.0</ele><time>2026-04-11T14:52:12.383Z</time></trkpt><trkpt lat="37.3446682" lon="-2.4745611"><ele>715.6</ele><time>2026-04-11T14:52:13.382Z</time></trkpt><trkpt lat="37.3445994" lon="-2.4746436"><ele>716.2</ele><time>2026-04-11T14:52:14.383Z</time></trkpt><trkpt lat="37.3445331" lon="-2.4747247"><ele>716.8</ele><time>2026-04-11T14:52:15.383Z</time></trkpt><trkpt lat="37.3444654" lon="-2.4748018"><ele>717.4</ele><time>2026-04-11T14:52:16.383Z</time></trkpt><trkpt lat="37.3443978" lon="-2.4748902"><ele>718.0</ele><time>2026-04-11T14:52:17.382Z</time></trkpt><trkpt lat="37.3443294" lon="-2.4749849"><ele>718.0</ele><time>2026-04-11T14:52:18.383Z</time></trkpt><trkpt lat="37.3442546" lon="-2.4750847"><ele>718.0</ele><time>2026-04-11T14:52:19.382Z</time></trkpt><trkpt lat="37.344174" lon="-2.4751934"><ele>718.0</ele><time>2026-04-11T14:52:20.383Z</time></trkpt><trkpt lat="37.3440863" lon="-2.4753078"><ele>718.0</ele><time>2026-04-11T14:52:21.382Z</time></trkpt><trkpt lat="37.3439951" lon="-2.4754218"><ele>718.0</ele><time>2026-04-11T14:52:22.383Z</time></trkpt><trkpt lat="37.3439051" lon="-2.4755357"><ele>718.0</ele><time>2026-04-11T14:52:23.382Z</time></trkpt><trkpt lat="37.3438091" lon="-2.4756481"><ele>718.0</ele><time>2026-04-11T14:52:24.383Z</time></trkpt><trkpt lat="37.3437126" lon="-2.4757695"><ele>718.0</ele><time>2026-04-11T14:52:25.382Z</time></trkpt><trkpt lat="37.3436106" lon="-2.4758939"><ele>718.0</ele><time>2026-04-11T14:52:26.383Z</time></trkpt><trkpt lat="37.3435037" lon="-2.4760214"><ele>718.0</ele><time>2026-04-11T14:52:27.382Z</time></trkpt><trkpt lat="37.3433923" lon="-2.4761589"><ele>718.0</ele><time>2026-04-11T14:52:28.383Z</time></trkpt><trkpt lat="37.3432773" lon="-2.4762939"><ele>718.0</ele><time>2026-04-11T14:52:29.383Z</time></trkpt><trkpt lat="37.3431593" lon="-2.4764342"><ele>718.0</ele><time>2026-04-11T14:52:30.382Z</time></trkpt><trkpt lat="37.3430368" lon="-2.4765837"><ele>718.0</ele><time>2026-04-11T14:52:31.383Z</time></trkpt><trkpt lat="37.3429076" lon="-2.476736"><ele>718.0</ele><time>2026-04-11T14:52:32.383Z</time></trkpt><trkpt lat="37.3427736" lon="-2.4768952"><ele>718.0</ele><time>2026-04-11T14:52:33.383Z</time></trkpt><trkpt lat="37.3426281" lon="-2.4770522"><ele>718.0</ele><time>2026-04-11T14:52:34.383Z</time></trkpt><trkpt lat="37.3424877" lon="-2.477207"><ele>717.6666666666667</ele><time>2026-04-11T14:52:35.383Z</time></trkpt><trkpt lat="37.3423437" lon="-2.4773638"><ele>717.3333333333334</ele><time>2026-04-11T14:52:36.383Z</time></trkpt><trkpt lat="37.3422025" lon="-2.4775215"><ele>717.0</ele><time>2026-04-11T14:52:37.383Z</time></trkpt><trkpt lat="37.3420631" lon="-2.4776806"><ele>717.0</ele><time>2026-04-11T14:52:38.383Z</time></trkpt><trkpt lat="37.3419294" lon="-2.477844"><ele>717.0</ele><time>2026-04-11T14:52:39.383Z</time></trkpt><trkpt lat="37.3417962" lon="-2.4780064"><ele>717.0</ele><time>2026-04-11T14:52:40.383Z</time></trkpt><trkpt lat="37.341665" lon="-2.4781645"><ele>718.3333333333334</ele><time>2026-04-11T14:52:41.383Z</time></trkpt><trkpt lat="37.341538" lon="-2.4783186"><ele>719.6666666666667</ele><time>2026-04-11T14:52:42.383Z</time></trkpt><trkpt lat="37.3414099" lon="-2.4784653"><ele>721.0</ele><time>2026-04-11T14:52:43.383Z</time></trkpt><trkpt lat="37.3412879" lon="-2.4786021"><ele>721.0</ele><time>2026-04-11T14:52:44.383Z</time></trkpt><trkpt lat="37.3411833" lon="-2.4787182"><ele>721.0</ele><time>2026-04-11T14:52:45.383Z</time></trkpt><trkpt lat="37.3410936" lon="-2.478818"><ele>721.0</ele><time>2026-04-11T14:52:46.383Z</time></trkpt><trkpt lat="37.3410071" lon="-2.4789143"><ele>721.0</ele><time>2026-04-11T14:52:47.382Z</time></trkpt><trkpt lat="37.3409252" lon="-2.479004"><ele>719.5</ele><time>2026-04-11T14:52:48.383Z</time></trkpt><trkpt lat="37.3408446" lon="-2.4790962"><ele>718.0</ele><time>2026-04-11T14:52:49.383Z</time></trkpt><trkpt lat="37.3407601" lon="-2.4791974"><ele>716.5</ele><time>2026-04-11T14:52:50.383Z</time></trkpt><trkpt lat="37.3406722" lon="-2.4792881"><ele>715.0</ele><time>2026-04-11T14:52:51.383Z</time></trkpt><trkpt lat="37.3405842" lon="-2.4793909"><ele>717.0</ele><time>2026-04-11T14:52:52.383Z</time></trkpt><trkpt lat="37.3404899" lon="-2.479498"><ele>719.0</ele><time>2026-04-11T14:52:53.383Z</time></trkpt><trkpt lat="37.3403943" lon="-2.4796132"><ele>721.0</ele><time>2026-04-11T14:52:54.383Z</time></trkpt><trkpt lat="37.3403025" lon="-2.4797342"><ele>723.0</ele><time>2026-04-11T14:52:55.382Z</time></trkpt><trkpt lat="37.3402028" lon="-2.4798692"><ele>723.0</ele><time>2026-04-11T14:52:56.383Z</time></trkpt><trkpt lat="37.3401078" lon="-2.4800105"><ele>723.0</ele><time>2026-04-11T14:52:57.382Z</time></trkpt><trkpt lat="37.340013" lon="-2.4801654"><ele>723.0</ele><time>2026-04-11T14:52:58.383Z</time></trkpt><trkpt lat="37.339927" lon="-2.480333"><ele>721.0</ele><time>2026-04-11T14:52:59.383Z</time></trkpt><trkpt lat="37.339849" lon="-2.4805052"><ele>719.0</ele><time>2026-04-11T14:53:00.383Z</time></trkpt><trkpt lat="37.3397783" lon="-2.4806874"><ele>717.0</ele><time>2026-04-11T14:53:01.383Z</time></trkpt><trkpt lat="37.3397149" lon="-2.4808787"><ele>723.0</ele><time>2026-04-11T14:53:02.383Z</time></trkpt><trkpt lat="37.3396623" lon="-2.4810819"><ele>729.0</ele><time>2026-04-11T14:53:03.383Z</time></trkpt><trkpt lat="37.3396228" lon="-2.4812881"><ele>735.0</ele><time>2026-04-11T14:53:04.383Z</time></trkpt><trkpt lat="37.3395932" lon="-2.4815033"><ele>735.0</ele><time>2026-04-11T14:53:05.383Z</time></trkpt><trkpt lat="37.3395711" lon="-2.4817263"><ele>735.0</ele><time>2026-04-11T14:53:06.382Z</time></trkpt><trkpt lat="37.3395542" lon="-2.4819471"><ele>735.0</ele><time>2026-04-11T14:53:07.383Z</time></trkpt><trkpt lat="37.339541" lon="-2.4821625"><ele>735.3333333333334</ele><time>2026-04-11T14:53:08.383Z</time></trkpt><trkpt lat="37.3395315" lon="-2.4823698"><ele>735.6666666666667</ele><time>2026-04-11T14:53:09.383Z</time></trkpt><trkpt lat="37.3395242" lon="-2.4825746"><ele>736.0</ele><time>2026-04-11T14:53:10.383Z</time></trkpt><trkpt lat="37.3395145" lon="-2.4827812"><ele>735.3333333333334</ele><time>2026-04-11T14:53:11.383Z</time></trkpt><trkpt lat="37.3395046" lon="-2.4829893"><ele>734.6666666666666</ele><time>2026-04-11T14:53:12.383Z</time></trkpt><trkpt lat="37.3394931" lon="-2.4832024"><ele>734.0</ele><time>2026-04-11T14:53:13.383Z</time></trkpt><trkpt lat="37.3394738" lon="-2.4834235"><ele>734.0</ele><time>2026-04-11T14:53:14.383Z</time></trkpt><trkpt lat="37.3394414" lon="-2.4836432"><ele>734.0</ele><time>2026-04-11T14:53:15.383Z</time></trkpt><trkpt lat="37.3393997" lon="-2.4838642"><ele>734.0</ele><time>2026-04-11T14:53:16.383Z</time></trkpt><trkpt lat="37.3393383" lon="-2.4840869"><ele>732.0</ele><time>2026-04-11T14:53:17.383Z</time></trkpt><trkpt lat="37.3392721" lon="-2.4843001"><ele>730.0</ele><time>2026-04-11T14:53:18.383Z</time></trkpt><trkpt lat="37.3392012" lon="-2.4845146"><ele>728.0</ele><time>2026-04-11T14:53:19.383Z</time></trkpt><trkpt lat="37.3391267" lon="-2.4847264"><ele>725.3333333333333</ele><time>2026-04-11T14:53:20.382Z</time></trkpt><trkpt lat="37.3390557" lon="-2.4849361"><ele>722.6666666666666</ele><time>2026-04-11T14:53:21.382Z</time></trkpt><trkpt lat="37.338992" lon="-2.4851486"><ele>720.0</ele><time>2026-04-11T14:53:22.383Z</time></trkpt><trkpt lat="37.3389326" lon="-2.4853605"><ele>727.6666666666666</ele><time>2026-04-11T14:53:23.383Z</time></trkpt><trkpt lat="37.3388823" lon="-2.4855705"><ele>735.3333333333333</ele><time>2026-04-11T14:53:24.383Z</time></trkpt><trkpt lat="37.338845" lon="-2.4857768"><ele>743.0</ele><time>2026-04-11T14:53:25.383Z</time></trkpt><trkpt lat="37.3388213" lon="-2.4859866"><ele>743.0</ele><time>2026-04-11T14:53:26.383Z</time></trkpt><trkpt lat="37.3388104" lon="-2.4861959"><ele>743.0</ele><time>2026-04-11T14:53:27.382Z</time></trkpt><trkpt lat="37.3388126" lon="-2.4864035"><ele>743.0</ele><time>2026-04-11T14:53:28.382Z</time></trkpt><trkpt lat="37.3388228" lon="-2.4866045"><ele>743.0</ele><time>2026-04-11T14:53:29.383Z</time></trkpt><trkpt lat="37.3388363" lon="-2.4868068"><ele>743.0</ele><time>2026-04-11T14:53:30.383Z</time></trkpt><trkpt lat="37.338853" lon="-2.4870172"><ele>743.0</ele><time>2026-04-11T14:53:31.382Z</time></trkpt><trkpt lat="37.3388708" lon="-2.4872285"><ele>735.0</ele><time>2026-04-11T14:53:32.382Z</time></trkpt><trkpt lat="37.3388885" lon="-2.4874386"><ele>727.0</ele><time>2026-04-11T14:53:33.383Z</time></trkpt><trkpt lat="37.3389044" lon="-2.4876497"><ele>719.0</ele><time>2026-04-11T14:53:34.383Z</time></trkpt><trkpt lat="37.3389226" lon="-2.4878578"><ele>720.0</ele><time>2026-04-11T14:53:35.383Z</time></trkpt><trkpt lat="37.3389396" lon="-2.4880725"><ele>721.0</ele><time>2026-04-11T14:53:36.383Z</time></trkpt><trkpt lat="37.3389531" lon="-2.4882671"><ele>722.0</ele><time>2026-04-11T14:53:37.383Z</time></trkpt><trkpt lat="37.3389706" lon="-2.4884462"><ele>722.0</ele><time>2026-04-11T14:53:38.383Z</time></trkpt><trkpt lat="37.3389835" lon="-2.4886105"><ele>722.0</ele><time>2026-04-11T14:53:39.383Z</time></trkpt><trkpt lat="37.3389957" lon="-2.4887721"><ele>722.0</ele><time>2026-04-11T14:53:40.383Z</time></trkpt><trkpt lat="37.3390069" lon="-2.4889305"><ele>722.0</ele><time>2026-04-11T14:53:41.383Z</time></trkpt><trkpt lat="37.3390181" lon="-2.4890885"><ele>722.25</ele><time>2026-04-11T14:53:42.383Z</time></trkpt><trkpt lat="37.3390314" lon="-2.4892557"><ele>722.5</ele><time>2026-04-11T14:53:43.383Z</time></trkpt><trkpt lat="37.3390433" lon="-2.489426"><ele>722.75</ele><time>2026-04-11T14:53:44.382Z</time></trkpt><trkpt lat="37.3390578" lon="-2.4896003"><ele>723.0</ele><time>2026-04-11T14:53:45.383Z</time></trkpt><trkpt lat="37.3390732" lon="-2.4897759"><ele>723.25</ele><time>2026-04-11T14:53:46.383Z</time></trkpt><trkpt lat="37.339098" lon="-2.489952"><ele>723.5</ele><time>2026-04-11T14:53:47.382Z</time></trkpt><trkpt lat="37.3391278" lon="-2.4901303"><ele>723.75</ele><time>2026-04-11T14:53:48.383Z</time></trkpt><trkpt lat="37.3391694" lon="-2.4903105"><ele>724.0</ele><time>2026-04-11T14:53:49.382Z</time></trkpt><trkpt lat="37.3392198" lon="-2.4904879"><ele>726.25</ele><time>2026-04-11T14:53:50.383Z</time></trkpt><trkpt lat="37.3392807" lon="-2.4906537"><ele>728.5</ele><time>2026-04-11T14:53:51.383Z</time></trkpt><trkpt lat="37.3393507" lon="-2.4908067"><ele>730.75</ele><time>2026-04-11T14:53:52.383Z</time></trkpt><trkpt lat="37.3394217" lon="-2.4909476"><ele>733.0</ele><time>2026-04-11T14:53:53.382Z</time></trkpt><trkpt lat="37.3394933" lon="-2.4910776"><ele>733.0</ele><time>2026-04-11T14:53:54.383Z</time></trkpt><trkpt lat="37.3395618" lon="-2.4911878"><ele>733.0</ele><time>2026-04-11T14:53:55.382Z</time></trkpt><trkpt lat="37.3396286" lon="-2.4912775"><ele>733.0</ele><time>2026-04-11T14:53:56.382Z</time></trkpt><trkpt lat="37.3396834" lon="-2.4913477"><ele>733.0</ele><time>2026-04-11T14:53:57.382Z</time></trkpt><trkpt lat="37.3397366" lon="-2.4914068"><ele>733.0</ele><time>2026-04-11T14:53:58.382Z</time></trkpt><trkpt lat="37.3397912" lon="-2.491462"><ele>733.0</ele><time>2026-04-11T14:53:59.383Z</time></trkpt><trkpt lat="37.3398444" lon="-2.4915137"><ele>731.3333333333334</ele><time>2026-04-11T14:54:00.383Z</time></trkpt><trkpt lat="37.3399026" lon="-2.4915708"><ele>729.6666666666667</ele><time>2026-04-11T14:54:07.383Z</time></trkpt><trkpt lat="37.3399565" lon="-2.4916469"><ele>728.0</ele><time>2026-04-11T14:54:09.383Z</time></trkpt><trkpt lat="37.3399765" lon="-2.4917784"><ele>726.3333333333334</ele><time>2026-04-11T14:54:11.383Z</time></trkpt><trkpt lat="37.3399483" lon="-2.4918594"><ele>724.6666666666666</ele><time>2026-04-11T14:54:12.383Z</time></trkpt><trkpt lat="37.3399275" lon="-2.4919455"><ele>723.0</ele><time>2026-04-11T14:54:13.383Z</time></trkpt><trkpt lat="37.3399138" lon="-2.4920369"><ele>723.8333333333334</ele><time>2026-04-11T14:54:14.383Z</time></trkpt><trkpt lat="37.3399207" lon="-2.4921297"><ele>724.6666666666666</ele><time>2026-04-11T14:54:15.383Z</time></trkpt><trkpt lat="37.3399388" lon="-2.4922316"><ele>725.5</ele><time>2026-04-11T14:54:16.383Z</time></trkpt><trkpt lat="37.3399761" lon="-2.4923307"><ele>726.3333333333333</ele><time>2026-04-11T14:54:17.382Z</time></trkpt><trkpt lat="37.3400392" lon="-2.4924236"><ele>727.1666666666666</ele><time>2026-04-11T14:54:18.382Z</time></trkpt><trkpt lat="37.3401126" lon="-2.4925178"><ele>728.0</ele><time>2026-04-11T14:54:19.383Z</time></trkpt><trkpt lat="37.3401953" lon="-2.4926134"><ele>728.0</ele><time>2026-04-11T14:54:20.383Z</time></trkpt><trkpt lat="37.3402919" lon="-2.4926964"><ele>728.0</ele><time>2026-04-11T14:54:21.383Z</time></trkpt><trkpt lat="37.3403902" lon="-2.4927788"><ele>728.0</ele><time>2026-04-11T14:54:22.383Z</time></trkpt><trkpt lat="37.340487" lon="-2.4928739"><ele>728.0</ele><time>2026-04-11T14:54:23.383Z</time></trkpt><trkpt lat="37.3405721" lon="-2.4929892"><ele>727.25</ele><time>2026-04-11T14:54:24.382Z</time></trkpt><trkpt lat="37.3406363" lon="-2.4931267"><ele>726.5</ele><time>2026-04-11T14:54:25.383Z</time></trkpt><trkpt lat="37.3406831" lon="-2.4932743"><ele>725.75</ele><time>2026-04-11T14:54:26.383Z</time></trkpt><trkpt lat="37.3407082" lon="-2.4934382"><ele>725.0</ele><time>2026-04-11T14:54:27.383Z</time></trkpt><trkpt lat="37.3407104" lon="-2.493612"><ele>726.0</ele><time>2026-04-11T14:54:28.383Z</time></trkpt><trkpt lat="37.3406963" lon="-2.4937841"><ele>727.0</ele><time>2026-04-11T14:54:29.383Z</time></trkpt><trkpt lat="37.3406499" lon="-2.4939398"><ele>728.0</ele><time>2026-04-11T14:54:30.383Z</time></trkpt><trkpt lat="37.340604" lon="-2.4940914"><ele>729.0</ele><time>2026-04-11T14:54:31.383Z</time></trkpt><trkpt lat="37.3405598" lon="-2.4942356"><ele>733.0</ele><time>2026-04-11T14:54:32.383Z</time></trkpt><trkpt lat="37.3405195" lon="-2.4943757"><ele>737.0</ele><time>2026-04-11T14:54:33.383Z</time></trkpt><trkpt lat="37.3404889" lon="-2.4945177"><ele>741.0</ele><time>2026-04-11T14:54:34.383Z</time></trkpt><trkpt lat="37.3404719" lon="-2.4946557"><ele>745.0</ele><time>2026-04-11T14:54:35.382Z</time></trkpt><trkpt lat="37.3404781" lon="-2.4947867"><ele>745.0</ele><time>2026-04-11T14:54:36.382Z</time></trkpt><trkpt lat="37.340499" lon="-2.4949243"><ele>745.0</ele><time>2026-04-11T14:54:37.383Z</time></trkpt><trkpt lat="37.3405374" lon="-2.495049"><ele>745.0</ele><time>2026-04-11T14:54:38.383Z</time></trkpt><trkpt lat="37.3405904" lon="-2.4951686"><ele>745.0</ele><time>2026-04-11T14:54:39.383Z</time></trkpt><trkpt lat="37.3406544" lon="-2.4952707"><ele>745.0</ele><time>2026-04-11T14:54:40.383Z</time></trkpt><trkpt lat="37.3407312" lon="-2.4953638"><ele>744.25</ele><time>2026-04-11T14:54:41.382Z</time></trkpt><trkpt lat="37.3408215" lon="-2.4954526"><ele>743.5</ele><time>2026-04-11T14:54:42.383Z</time></trkpt><trkpt lat="37.3409171" lon="-2.4955346"><ele>742.75</ele><time>2026-04-11T14:54:43.383Z</time></trkpt><trkpt lat="37.341023" lon="-2.4956195"><ele>742.0</ele><time>2026-04-11T14:54:44.383Z</time></trkpt><trkpt lat="37.3411309" lon="-2.495711"><ele>742.0</ele><time>2026-04-11T14:54:45.383Z</time></trkpt><trkpt lat="37.34123" lon="-2.49581"><ele>742.0</ele><time>2026-04-11T14:54:46.383Z</time></trkpt><trkpt lat="37.3413205" lon="-2.495928"><ele>742.0</ele><time>2026-04-11T14:54:47.383Z</time></trkpt><trkpt lat="37.3413931" lon="-2.4960604"><ele>742.0</ele><time>2026-04-11T14:54:48.383Z</time></trkpt><trkpt lat="37.3414445" lon="-2.4962082"><ele>741.0</ele><time>2026-04-11T14:54:49.383Z</time></trkpt><trkpt lat="37.3414824" lon="-2.4963682"><ele>740.0</ele><time>2026-04-11T14:54:50.383Z</time></trkpt><trkpt lat="37.3414948" lon="-2.4965305"><ele>739.0</ele><time>2026-04-11T14:54:51.383Z</time></trkpt><trkpt lat="37.3414854" lon="-2.4966905"><ele>738.0</ele><time>2026-04-11T14:54:52.383Z</time></trkpt><trkpt lat="37.3414565" lon="-2.4968519"><ele>738.0</ele><time>2026-04-11T14:54:53.383Z</time></trkpt><trkpt lat="37.3414126" lon="-2.4970093"><ele>738.0</ele><time>2026-04-11T14:54:54.383Z</time></trkpt><trkpt lat="37.3413708" lon="-2.4971669"><ele>738.0</ele><time>2026-04-11T14:54:55.382Z</time></trkpt><trkpt lat="37.3413284" lon="-2.4973224"><ele>738.0</ele><time>2026-04-11T14:54:56.383Z</time></trkpt><trkpt lat="37.3412851" lon="-2.4974836"><ele>740.5</ele><time>2026-04-11T14:54:57.383Z</time></trkpt><trkpt lat="37.3412426" lon="-2.4976445"><ele>743.0</ele><time>2026-04-11T14:54:58.382Z</time></trkpt><trkpt lat="37.3411995" lon="-2.4978078"><ele>745.5</ele><time>2026-04-11T14:54:59.383Z</time></trkpt><trkpt lat="37.3411549" lon="-2.4979641"><ele>748.0</ele><time>2026-04-11T14:55:00.383Z</time></trkpt><trkpt lat="37.3411148" lon="-2.4981139"><ele>748.8</ele><time>2026-04-11T14:55:01.383Z</time></trkpt><trkpt lat="37.3410807" lon="-2.4982524"><ele>749.5999999999999</ele><time>2026-04-11T14:55:02.383Z</time></trkpt><trkpt lat="37.3410473" lon="-2.498386"><ele>750.4000000000001</ele><time>2026-04-11T14:55:03.383Z</time></trkpt><trkpt lat="37.3410167" lon="-2.4985137"><ele>751.2</ele><time>2026-04-11T14:55:04.383Z</time></trkpt><trkpt lat="37.3409924" lon="-2.498635"><ele>752.0</ele><time>2026-04-11T14:55:05.383Z</time></trkpt><trkpt lat="37.340972" lon="-2.498757"><ele>752.4000000000001</ele><time>2026-04-11T14:55:06.383Z</time></trkpt><trkpt lat="37.3409595" lon="-2.4988788"><ele>752.8000000000001</ele><time>2026-04-11T14:55:07.382Z</time></trkpt><trkpt lat="37.3409547" lon="-2.4990063"><ele>753.2</ele><time>2026-04-11T14:55:08.383Z</time></trkpt><trkpt lat="37.3409639" lon="-2.4991397"><ele>753.6</ele><time>2026-04-11T14:55:09.383Z</time></trkpt><trkpt lat="37.3409812" lon="-2.4992851"><ele>754.0</ele><time>2026-04-11T14:55:10.383Z</time></trkpt><trkpt lat="37.3410003" lon="-2.4994301"><ele>754.0</ele><time>2026-04-11T14:55:11.383Z</time></trkpt><trkpt lat="37.3410199" lon="-2.4995825"><ele>754.0</ele><time>2026-04-11T14:55:12.382Z</time></trkpt><trkpt lat="37.3410421" lon="-2.499735"><ele>754.0</ele><time>2026-04-11T14:55:13.382Z</time></trkpt><trkpt lat="37.3410655" lon="-2.4998924"><ele>754.0</ele><time>2026-04-11T14:55:14.382Z</time></trkpt><trkpt lat="37.3410888" lon="-2.5000498"><ele>755.0</ele><time>2026-04-11T14:55:15.383Z</time></trkpt><trkpt lat="37.3411061" lon="-2.5002008"><ele>756.0</ele><time>2026-04-11T14:55:16.383Z</time></trkpt><trkpt lat="37.3411135" lon="-2.5003541"><ele>757.0</ele><time>2026-04-11T14:55:17.383Z</time></trkpt><trkpt lat="37.3411133" lon="-2.5004802"><ele>758.0</ele><time>2026-04-11T14:55:18.383Z</time></trkpt><trkpt lat="37.3411052" lon="-2.5006105"><ele>759.0</ele><time>2026-04-11T14:55:19.383Z</time></trkpt><trkpt lat="37.3410967" lon="-2.5007425"><ele>759.8000000000001</ele><time>2026-04-11T14:55:20.382Z</time></trkpt><trkpt lat="37.3410931" lon="-2.5008732"><ele>760.6</ele><time>2026-04-11T14:55:21.383Z</time></trkpt><trkpt lat="37.3410875" lon="-2.5010102"><ele>761.4</ele><time>2026-04-11T14:55:22.383Z</time></trkpt><trkpt lat="37.3410915" lon="-2.5011412"><ele>762.2</ele><time>2026-04-11T14:55:23.383Z</time></trkpt><trkpt lat="37.3411081" lon="-2.5012835"><ele>763.0</ele><time>2026-04-11T14:55:24.383Z</time></trkpt><trkpt lat="37.341136" lon="-2.5014316"><ele>762.5</ele><time>2026-04-11T14:55:25.383Z</time></trkpt><trkpt lat="37.3411778" lon="-2.5015797"><ele>762.0</ele><time>2026-04-11T14:55:26.383Z</time></trkpt><trkpt lat="37.3412326" lon="-2.5017185"><ele>761.5</ele><time>2026-04-11T14:55:27.383Z</time></trkpt><trkpt lat="37.3413023" lon="-2.5018504"><ele>761.0</ele><time>2026-04-11T14:55:28.383Z</time></trkpt><trkpt lat="37.3413881" lon="-2.5019733"><ele>764.5</ele><time>2026-04-11T14:55:29.382Z</time></trkpt><trkpt lat="37.3414822" lon="-2.5020883"><ele>768.0</ele><time>2026-04-11T14:55:30.383Z</time></trkpt><trkpt lat="37.3415773" lon="-2.5021987"><ele>771.5</ele><time>2026-04-11T14:55:31.383Z</time></trkpt><trkpt lat="37.3416669" lon="-2.5022995"><ele>775.0</ele><time>2026-04-11T14:55:32.383Z</time></trkpt><trkpt lat="37.3417495" lon="-2.5023913"><ele>775.0</ele><time>2026-04-11T14:55:33.382Z</time></trkpt><trkpt lat="37.3418319" lon="-2.5024747"><ele>775.0</ele><time>2026-04-11T14:55:34.382Z</time></trkpt><trkpt lat="37.3419133" lon="-2.5025484"><ele>775.0</ele><time>2026-04-11T14:55:35.382Z</time></trkpt><trkpt lat="37.3419882" lon="-2.5026112"><ele>775.0</ele><time>2026-04-11T14:55:36.383Z</time></trkpt><trkpt lat="37.3420564" lon="-2.5026713"><ele>775.0</ele><time>2026-04-11T14:55:37.383Z</time></trkpt><trkpt lat="37.3421194" lon="-2.502727"><ele>774.9999999999999</ele><time>2026-04-11T14:55:38.383Z</time></trkpt><trkpt lat="37.3421842" lon="-2.5027782"><ele>775.0</ele><time>2026-04-11T14:55:39.382Z</time></trkpt><trkpt lat="37.3422476" lon="-2.5028355"><ele>775.0</ele><time>2026-04-11T14:55:40.383Z</time></trkpt><trkpt lat="37.3423134" lon="-2.5028986"><ele>775.0</ele><time>2026-04-11T14:55:41.383Z</time></trkpt><trkpt lat="37.3423782" lon="-2.5029564"><ele>774.9999999999999</ele><time>2026-04-11T14:55:42.383Z</time></trkpt><trkpt lat="37.3424397" lon="-2.5030137"><ele>775.0</ele><time>2026-04-11T14:55:43.383Z</time></trkpt><trkpt lat="37.3424992" lon="-2.5030728"><ele>775.4999999999999</ele><time>2026-04-11T14:55:44.383Z</time></trkpt><trkpt lat="37.3425592" lon="-2.5031326"><ele>776.0</ele><time>2026-04-11T14:55:45.383Z</time></trkpt><trkpt lat="37.3426145" lon="-2.5032007"><ele>776.5</ele><time>2026-04-11T14:55:46.383Z</time></trkpt><trkpt lat="37.3426733" lon="-2.5032719"><ele>777.0</ele><time>2026-04-11T14:55:47.383Z</time></trkpt><trkpt lat="37.3427299" lon="-2.503341"><ele>777.4999999999999</ele><time>2026-04-11T14:55:48.383Z</time></trkpt><trkpt lat="37.3427809" lon="-2.5034122"><ele>778.0</ele><time>2026-04-11T14:55:49.383Z</time></trkpt><trkpt lat="37.3428269" lon="-2.503484"><ele>777.9999999999999</ele><time>2026-04-11T14:55:50.382Z</time></trkpt><trkpt lat="37.3428745" lon="-2.5035529"><ele>778.0</ele><time>2026-04-11T14:55:51.383Z</time></trkpt><trkpt lat="37.3429226" lon="-2.5036133"><ele>778.0</ele><time>2026-04-11T14:55:52.383Z</time></trkpt><trkpt lat="37.3429914" lon="-2.5036719"><ele>778.0</ele><time>2026-04-11T14:55:53.383Z</time></trkpt><trkpt lat="37.3430568" lon="-2.5037333"><ele>777.9999999999999</ele><time>2026-04-11T14:55:54.382Z</time></trkpt><trkpt lat="37.3431136" lon="-2.503804"><ele>778.0</ele><time>2026-04-11T14:55:55.383Z</time></trkpt><trkpt lat="37.3431713" lon="-2.5038769"><ele>777.2</ele><time>2026-04-11T14:55:56.383Z</time></trkpt><trkpt lat="37.3432324" lon="-2.5039432"><ele>776.4</ele><time>2026-04-11T14:55:57.383Z</time></trkpt><trkpt lat="37.3433039" lon="-2.5040186"><ele>775.6</ele><time>2026-04-11T14:55:58.383Z</time></trkpt><trkpt lat="37.3433819" lon="-2.5040934"><ele>774.8000000000001</ele><time>2026-04-11T14:55:59.383Z</time></trkpt><trkpt lat="37.3434568" lon="-2.5041713"><ele>774.0</ele><time>2026-04-11T14:56:00.383Z</time></trkpt><trkpt lat="37.3435304" lon="-2.5042489"><ele>774.0</ele><time>2026-04-11T14:56:01.383Z</time></trkpt><trkpt lat="37.3436134" lon="-2.5043346"><ele>774.0</ele><time>2026-04-11T14:56:02.383Z</time></trkpt><trkpt lat="37.3436896" lon="-2.5044252"><ele>774.0</ele><time>2026-04-11T14:56:03.383Z</time></trkpt><trkpt lat="37.343755" lon="-2.5045147"><ele>774.0</ele><time>2026-04-11T14:56:04.383Z</time></trkpt><trkpt lat="37.3438096" lon="-2.5046058"><ele>774.0</ele><time>2026-04-11T14:56:05.382Z</time></trkpt><trkpt lat="37.3438465" lon="-2.5046996"><ele>774.8000000000001</ele><time>2026-04-11T14:56:06.383Z</time></trkpt><trkpt lat="37.3438668" lon="-2.5047827"><ele>775.6</ele><time>2026-04-11T14:56:07.383Z</time></trkpt><trkpt lat="37.3438844" lon="-2.5049386"><ele>776.4</ele><time>2026-04-11T14:56:09.382Z</time></trkpt><trkpt lat="37.3438677" lon="-2.5050811"><ele>777.2</ele><time>2026-04-11T14:56:11.383Z</time></trkpt><trkpt lat="37.3438837" lon="-2.5051698"><ele>778.0</ele><time>2026-04-11T14:56:12.383Z</time></trkpt><trkpt lat="37.3439018" lon="-2.5052691"><ele>777.2</ele><time>2026-04-11T14:56:13.383Z</time></trkpt><trkpt lat="37.3439253" lon="-2.505375"><ele>776.4</ele><time>2026-04-11T14:56:14.383Z</time></trkpt><trkpt lat="37.3439569" lon="-2.5054873"><ele>775.6</ele><time>2026-04-11T14:56:15.383Z</time></trkpt><trkpt lat="37.3440028" lon="-2.5055934"><ele>774.8000000000001</ele><time>2026-04-11T14:56:16.383Z</time></trkpt><trkpt lat="37.3440589" lon="-2.5056902"><ele>774.0</ele><time>2026-04-11T14:56:17.382Z</time></trkpt><trkpt lat="37.344116" lon="-2.5057778"><ele>774.0</ele><time>2026-04-11T14:56:18.383Z</time></trkpt><trkpt lat="37.3441674" lon="-2.505849"><ele>774.0</ele><time>2026-04-11T14:56:19.383Z</time></trkpt><trkpt lat="37.3442543" lon="-2.5059242"><ele>774.0</ele><time>2026-04-11T14:56:21.383Z</time></trkpt><trkpt lat="37.3443241" lon="-2.5059565"><ele>774.0</ele><time>2026-04-11T14:56:23.383Z</time></trkpt><trkpt lat="37.3443772" lon="-2.5060168"><ele>774.0</ele><time>2026-04-11T14:56:25.382Z</time></trkpt><trkpt lat="37.3444029" lon="-2.5060939"><ele>774.0</ele><time>2026-04-11T14:56:28.383Z</time></trkpt><trkpt lat="37.3444478" lon="-2.5061542"><ele>774.0</ele><time>2026-04-11T14:59:02.41Z</time></trkpt><trkpt lat="37.3444666" lon="-2.5062369"><ele>774.0</ele><time>2026-04-11T14:59:04.416Z</time></trkpt><trkpt lat="37.3445398" lon="-2.5063217"><ele>774.0</ele><time>2026-04-11T14:59:06.419Z</time></trkpt><trkpt lat="37.3445948" lon="-2.5063744"><ele>774.0</ele><time>2026-04-11T14:59:07.414Z</time></trkpt><trkpt lat="37.3446559" lon="-2.5064318"><ele>774.0</ele><time>2026-04-11T14:59:08.421Z</time></trkpt><trkpt lat="37.3447226" lon="-2.5064899"><ele>774.0</ele><time>2026-04-11T14:59:09.411Z</time></trkpt><trkpt lat="37.3447901" lon="-2.5065519"><ele>774.2</ele><time>2026-04-11T14:59:10.413Z</time></trkpt><trkpt lat="37.3448633" lon="-2.5066199"><ele>774.4000000000001</ele><time>2026-04-11T14:59:11.411Z</time></trkpt><trkpt lat="37.3449401" lon="-2.5066887"><ele>774.6</ele><time>2026-04-11T14:59:12.413Z</time></trkpt><trkpt lat="37.3450169" lon="-2.5067572"><ele>774.8</ele><time>2026-04-11T14:59:13.416Z</time></trkpt><trkpt lat="37.3450939" lon="-2.506831"><ele>775.0</ele><time>2026-04-11T14:59:14.411Z</time></trkpt><trkpt lat="37.3451667" lon="-2.5069053"><ele>774.9999999999999</ele><time>2026-04-11T14:59:15.412Z</time></trkpt><trkpt lat="37.3452305" lon="-2.5069783"><ele>775.0</ele><time>2026-04-11T14:59:16.418Z</time></trkpt><trkpt lat="37.345282" lon="-2.5070624"><ele>775.0</ele><time>2026-04-11T14:59:17.417Z</time></trkpt><trkpt lat="37.3453146" lon="-2.5071566"><ele>775.0</ele><time>2026-04-11T14:59:18.416Z</time></trkpt><trkpt lat="37.345328" lon="-2.5072603"><ele>774.9999999999999</ele><time>2026-04-11T14:59:19.413Z</time></trkpt><trkpt lat="37.3453216" lon="-2.5073746"><ele>775.0</ele><time>2026-04-11T14:59:20.415Z</time></trkpt><trkpt lat="37.345297" lon="-2.5074908"><ele>777.0</ele><time>2026-04-11T14:59:21.427Z</time></trkpt><trkpt lat="37.3452596" lon="-2.507602"><ele>779.0</ele><time>2026-04-11T14:59:22.411Z</time></trkpt><trkpt lat="37.3452237" lon="-2.5077171"><ele>781.0</ele><time>2026-04-11T14:59:23.428Z</time></trkpt><trkpt lat="37.3451866" lon="-2.5078289"><ele>783.0</ele><time>2026-04-11T14:59:24.413Z</time></trkpt><trkpt lat="37.3451507" lon="-2.5079343"><ele>785.0</ele><time>2026-04-11T14:59:25.413Z</time></trkpt><trkpt lat="37.3451183" lon="-2.5080381"><ele>785.3333333333334</ele><time>2026-04-11T14:59:26.418Z</time></trkpt><trkpt lat="37.3450943" lon="-2.5081338"><ele>785.6666666666667</ele><time>2026-04-11T14:59:27.414Z</time></trkpt><trkpt lat="37.3450727" lon="-2.5082286"><ele>786.0</ele><time>2026-04-11T14:59:28.421Z</time></trkpt><trkpt lat="37.3450493" lon="-2.508322"><ele>786.3333333333333</ele><time>2026-04-11T14:59:29.423Z</time></trkpt><trkpt lat="37.345036" lon="-2.5084167"><ele>786.6666666666666</ele><time>2026-04-11T14:59:30.417Z</time></trkpt><trkpt lat="37.3450298" lon="-2.5085172"><ele>787.0</ele><time>2026-04-11T14:59:31.428Z</time></trkpt><trkpt lat="37.3450504" lon="-2.5086038"><ele>786.9999999999999</ele><time>2026-04-11T14:59:32.422Z</time></trkpt><trkpt lat="37.3451026" lon="-2.5086749"><ele>787.0</ele><time>2026-04-11T14:59:33.422Z</time></trkpt><trkpt lat="37.3451583" lon="-2.5087311"><ele>787.0</ele><time>2026-04-11T14:59:34.418Z</time></trkpt><trkpt lat="37.3452185" lon="-2.5088284"><ele>787.0</ele><time>2026-04-11T14:59:36.417Z</time></trkpt><trkpt lat="37.3452029" lon="-2.5089149"><ele>786.9999999999999</ele><time>2026-04-11T14:59:38.408Z</time></trkpt><trkpt lat="37.3451238" lon="-2.5089719"><ele>787.0</ele><time>2026-04-11T14:59:40.416Z</time></trkpt><trkpt lat="37.3450426" lon="-2.5089887"><ele>787.9999999999999</ele><time>2026-04-11T14:59:41.413Z</time></trkpt><trkpt lat="37.344971" lon="-2.5090017"><ele>789.0</ele><time>2026-04-11T14:59:42.427Z</time></trkpt><trkpt lat="37.3448916" lon="-2.5090104"><ele>790.0</ele><time>2026-04-11T14:59:43.42Z</time></trkpt><trkpt lat="37.344818" lon="-2.5090003"><ele>791.0</ele><time>2026-04-11T14:59:44.421Z</time></trkpt><trkpt lat="37.3447487" lon="-2.5089996"><ele>791.9999999999999</ele><time>2026-04-11T14:59:45.413Z</time></trkpt><trkpt lat="37.3446744" lon="-2.5089959"><ele>793.0</ele><time>2026-04-11T14:59:46.412Z</time></trkpt><trkpt lat="37.3445613" lon="-2.5089911"><ele>796.75</ele><time>2026-04-11T14:59:48.427Z</time></trkpt><trkpt lat="37.344444" lon="-2.5089697"><ele>800.5</ele><time>2026-04-11T14:59:50.409Z</time></trkpt><trkpt lat="37.3443245" lon="-2.5089563"><ele>804.25</ele><time>2026-04-11T14:59:52.422Z</time></trkpt><trkpt lat="37.3442064" lon="-2.5089486"><ele>808.0</ele><time>2026-04-11T14:59:54.422Z</time></trkpt><trkpt lat="37.3441036" lon="-2.508928"><ele>807.9999999999999</ele><time>2026-04-11T14:59:56.425Z</time></trkpt><trkpt lat="37.3440579" lon="-2.5088699"><ele>808.0</ele><time>2026-04-11T14:59:57.428Z</time></trkpt><trkpt lat="37.344002" lon="-2.5087317"><ele>808.0</ele><time>2026-04-11T14:59:59.418Z</time></trkpt><trkpt lat="37.3439961" lon="-2.5086466"><ele>808.0</ele><time>2026-04-11T15:00:00.414Z</time></trkpt><trkpt lat="37.3439964" lon="-2.5085596"><ele>807.9999999999999</ele><time>2026-04-11T15:00:01.41Z</time></trkpt><trkpt lat="37.3440036" lon="-2.508478"><ele>808.0</ele><time>2026-04-11T15:00:02.41Z</time></trkpt><trkpt lat="37.3440093" lon="-2.5083905"><ele>807.2</ele><time>2026-04-11T15:00:03.411Z</time></trkpt><trkpt lat="37.3440139" lon="-2.5082402"><ele>806.4</ele><time>2026-04-11T15:00:05.415Z</time></trkpt><trkpt lat="37.3439797" lon="-2.5081109"><ele>805.6</ele><time>2026-04-11T15:00:07.417Z</time></trkpt><trkpt lat="37.3439269" lon="-2.5080594"><ele>804.8000000000001</ele><time>2026-04-11T15:00:08.416Z</time></trkpt><trkpt lat="37.3438222" lon="-2.507991"><ele>804.0</ele><time>2026-04-11T15:00:10.411Z</time></trkpt><trkpt lat="37.3437526" lon="-2.5080139"><ele>803.6666666666666</ele><time>2026-04-11T15:00:12.42Z</time></trkpt><trkpt lat="37.3437198" lon="-2.5080918"><ele>803.3333333333333</ele><time>2026-04-11T15:00:14.423Z</time></trkpt><trkpt lat="37.3436935" lon="-2.5081737"><ele>803.0</ele><time>2026-04-11T15:00:18.409Z</time></trkpt><trkpt lat="37.3436629" lon="-2.5082615"><ele>802.6666666666666</ele><time>2026-04-11T15:00:20.421Z</time></trkpt><trkpt lat="37.3436183" lon="-2.5083656"><ele>802.3333333333333</ele><time>2026-04-11T15:00:22.426Z</time></trkpt><trkpt lat="37.3435858" lon="-2.5084828"><ele>802.0</ele><time>2026-04-11T15:00:24.409Z</time></trkpt><trkpt lat="37.3435589" lon="-2.5085804"><ele>801.9999999999999</ele><time>2026-04-11T15:00:27.412Z</time></trkpt><trkpt lat="37.3435141" lon="-2.508661"><ele>802.0</ele><time>2026-04-11T15:00:32.416Z</time></trkpt><trkpt lat="37.3434399" lon="-2.5086263"><ele>802.0</ele><time>2026-04-11T15:00:35.418Z</time></trkpt><trkpt lat="37.3434537" lon="-2.5085258"><ele>802.0</ele><time>2026-04-11T15:00:38.417Z</time></trkpt><trkpt lat="37.3434904" lon="-2.508448"><ele>801.9999999999999</ele><time>2026-04-11T15:00:43.412Z</time></trkpt><trkpt lat="37.3435465" lon="-2.5083746"><ele>802.0</ele><time>2026-04-11T15:00:46.414Z</time></trkpt><trkpt lat="37.3436098" lon="-2.5082661"><ele>802.0</ele><time>2026-04-11T15:00:48.415Z</time></trkpt><trkpt lat="37.3436565" lon="-2.5081453"><ele>802.0</ele><time>2026-04-11T15:00:50.417Z</time></trkpt><trkpt lat="37.3437089" lon="-2.5080378"><ele>802.0</ele><time>2026-04-11T15:00:52.421Z</time></trkpt><trkpt lat="37.3437817" lon="-2.5079737"><ele>802.0</ele><time>2026-04-11T15:00:54.419Z</time></trkpt><trkpt lat="37.3438926" lon="-2.5079814"><ele>802.0</ele><time>2026-04-11T15:00:56.414Z</time></trkpt><trkpt lat="37.3439948" lon="-2.508059"><ele>802.3333333333333</ele><time>2026-04-11T15:00:58.417Z</time></trkpt><trkpt lat="37.3440557" lon="-2.5082001"><ele>802.6666666666666</ele><time>2026-04-11T15:01:00.418Z</time></trkpt><trkpt lat="37.344056" lon="-2.5082825"><ele>803.0</ele><time>2026-04-11T15:01:01.417Z</time></trkpt><trkpt lat="37.3440484" lon="-2.5083626"><ele>803.3333333333333</ele><time>2026-04-11T15:01:02.413Z</time></trkpt><trkpt lat="37.3440294" lon="-2.5084465"><ele>803.6666666666666</ele><time>2026-04-11T15:01:03.42Z</time></trkpt><trkpt lat="37.3440163" lon="-2.5085812"><ele>804.0</ele><time>2026-04-11T15:01:05.414Z</time></trkpt><trkpt lat="37.3440092" lon="-2.5087115"><ele>804.6666666666666</ele><time>2026-04-11T15:01:07.412Z</time></trkpt><trkpt lat="37.3440718" lon="-2.5088315"><ele>805.3333333333333</ele><time>2026-04-11T15:01:09.416Z</time></trkpt><trkpt lat="37.3441774" lon="-2.5089033"><ele>806.0</ele><time>2026-04-11T15:01:11.413Z</time></trkpt><trkpt lat="37.3442416" lon="-2.508919"><ele>806.6666666666666</ele><time>2026-04-11T15:01:12.415Z</time></trkpt><trkpt lat="37.344313" lon="-2.5089328"><ele>807.3333333333333</ele><time>2026-04-11T15:01:13.428Z</time></trkpt><trkpt lat="37.3443877" lon="-2.5089393"><ele>808.0</ele><time>2026-04-11T15:01:14.419Z</time></trkpt><trkpt lat="37.3444604" lon="-2.5089572"><ele>807.9999999999999</ele><time>2026-04-11T15:01:15.419Z</time></trkpt><trkpt lat="37.3445244" lon="-2.5089626"><ele>808.0</ele><time>2026-04-11T15:01:16.419Z</time></trkpt><trkpt lat="37.3446524" lon="-2.5089713"><ele>808.0</ele><time>2026-04-11T15:01:18.41Z</time></trkpt><trkpt lat="37.3447185" lon="-2.5089734"><ele>808.0</ele><time>2026-04-11T15:01:19.417Z</time></trkpt><trkpt lat="37.3447883" lon="-2.5089756"><ele>807.9999999999999</ele><time>2026-04-11T15:01:20.413Z</time></trkpt><trkpt lat="37.3448566" lon="-2.5089787"><ele>808.0</ele><time>2026-04-11T15:01:21.411Z</time></trkpt><trkpt lat="37.3449223" lon="-2.5089854"><ele>805.0</ele><time>2026-04-11T15:01:22.412Z</time></trkpt><trkpt lat="37.3450259" lon="-2.5089779"><ele>802.0</ele><time>2026-04-11T15:01:24.421Z</time></trkpt><trkpt lat="37.3451053" lon="-2.5089214"><ele>799.0</ele><time>2026-04-11T15:01:26.428Z</time></trkpt><trkpt lat="37.3451611" lon="-2.5088344"><ele>796.0</ele><time>2026-04-11T15:01:31.421Z</time></trkpt><trkpt lat="37.345238" lon="-2.5088209"><ele>793.0</ele><time>2026-04-11T15:01:33.415Z</time></trkpt><trkpt lat="37.3453202" lon="-2.5088718"><ele>793.0</ele><time>2026-04-11T15:01:35.423Z</time></trkpt><trkpt lat="37.3453912" lon="-2.5089323"><ele>793.0</ele><time>2026-04-11T15:01:37.412Z</time></trkpt><trkpt lat="37.3454652" lon="-2.5089989"><ele>793.0</ele><time>2026-04-11T15:01:39.424Z</time></trkpt><trkpt lat="37.3455515" lon="-2.5090714"><ele>793.0</ele><time>2026-04-11T15:01:41.427Z</time></trkpt><trkpt lat="37.3456537" lon="-2.5091553"><ele>793.0</ele><time>2026-04-11T15:01:43.427Z</time></trkpt><trkpt lat="37.3457042" lon="-2.509207"><ele>791.3333333333333</ele><time>2026-04-11T15:01:44.411Z</time></trkpt><trkpt lat="37.345821" lon="-2.509308"><ele>789.6666666666666</ele><time>2026-04-11T15:01:47.428Z</time></trkpt><trkpt lat="37.3458893" lon="-2.5093478"><ele>788.0</ele><time>2026-04-11T15:01:52.416Z</time></trkpt><trkpt lat="37.3459763" lon="-2.5093714"><ele>786.3333333333333</ele><time>2026-04-11T15:01:57.424Z</time></trkpt><trkpt lat="37.3460442" lon="-2.5094117"><ele>784.6666666666666</ele><time>2026-04-11T15:02:50.418Z</time></trkpt><trkpt lat="37.3460303" lon="-2.5094914"><ele>783.0</ele><time>2026-04-11T15:03:00.413Z</time></trkpt><trkpt lat="37.3459657" lon="-2.5094757"><ele>783.0</ele><time>2026-04-11T15:03:03.412Z</time></trkpt><trkpt lat="37.3459139" lon="-2.5094296"><ele>783.0</ele><time>2026-04-11T15:03:05.414Z</time></trkpt><trkpt lat="37.3458525" lon="-2.5093841"><ele>783.0</ele><time>2026-04-11T15:03:07.414Z</time></trkpt><trkpt lat="37.3457731" lon="-2.5093297"><ele>783.0</ele><time>2026-04-11T15:03:09.417Z</time></trkpt><trkpt lat="37.3456758" lon="-2.5092519"><ele>783.0</ele><time>2026-04-11T15:03:11.413Z</time></trkpt><trkpt lat="37.3455876" lon="-2.5091651"><ele>785.0</ele><time>2026-04-11T15:03:13.415Z</time></trkpt><trkpt lat="37.3454812" lon="-2.5090791"><ele>787.0</ele><time>2026-04-11T15:03:15.411Z</time></trkpt><trkpt lat="37.3454267" lon="-2.5090377"><ele>789.0</ele><time>2026-04-11T15:03:16.411Z</time></trkpt><trkpt lat="37.3453234" lon="-2.5089743"><ele>791.0</ele><time>2026-04-11T15:03:18.41Z</time></trkpt><trkpt lat="37.3452374" lon="-2.5089173"><ele>793.0</ele><time>2026-04-11T15:03:20.414Z</time></trkpt><trkpt lat="37.3451633" lon="-2.5088623"><ele>793.0000000000001</ele><time>2026-04-11T15:03:22.413Z</time></trkpt><trkpt lat="37.3450981" lon="-2.5088091"><ele>793.0</ele><time>2026-04-11T15:03:24.413Z</time></trkpt><trkpt lat="37.3450513" lon="-2.5087484"><ele>793.0</ele><time>2026-04-11T15:03:26.421Z</time></trkpt><trkpt lat="37.3450227" lon="-2.5086737"><ele>793.0</ele><time>2026-04-11T15:06:26.38Z</time></trkpt><trkpt lat="37.3449961" lon="-2.5086"><ele>793.0</ele><time>2026-04-11T15:06:30.379Z</time></trkpt><trkpt lat="37.344979" lon="-2.5085232"><ele>793.0000000000001</ele><time>2026-04-11T15:06:36.38Z</time></trkpt><trkpt lat="37.3450222" lon="-2.5086021"><ele>793.0</ele><time>2026-04-11T15:06:48.38Z</time></trkpt><trkpt lat="37.34507" lon="-2.5086638"><ele>793.0</ele><time>2026-04-11T15:06:51.38Z</time></trkpt><trkpt lat="37.3451243" lon="-2.5087259"><ele>793.0</ele><time>2026-04-11T15:06:53.379Z</time></trkpt><trkpt lat="37.3451717" lon="-2.5088387"><ele>793.0</ele><time>2026-04-11T15:06:55.379Z</time></trkpt><trkpt lat="37.3451192" lon="-2.5089441"><ele>793.0</ele><time>2026-04-11T15:06:57.38Z</time></trkpt><trkpt lat="37.3450095" lon="-2.5089903"><ele>793.0</ele><time>2026-04-11T15:06:59.38Z</time></trkpt><trkpt lat="37.3449456" lon="-2.5090001"><ele>792.9999999999999</ele><time>2026-04-11T15:07:00.38Z</time></trkpt><trkpt lat="37.3448688" lon="-2.5089939"><ele>793.0</ele><time>2026-04-11T15:07:01.379Z</time></trkpt><trkpt lat="37.3447906" lon="-2.5089938"><ele>793.0</ele><time>2026-04-11T15:07:02.379Z</time></trkpt><trkpt lat="37.3447124" lon="-2.5089864"><ele>793.0</ele><time>2026-04-11T15:07:03.38Z</time></trkpt><trkpt lat="37.3446313" lon="-2.5089812"><ele>792.9999999999999</ele><time>2026-04-11T15:07:04.38Z</time></trkpt><trkpt lat="37.3445529" lon="-2.5089828"><ele>793.0</ele><time>2026-04-11T15:07:05.379Z</time></trkpt><trkpt lat="37.3444697" lon="-2.5089786"><ele>795.4999999999999</ele><time>2026-04-11T15:07:06.38Z</time></trkpt><trkpt lat="37.3443904" lon="-2.5089737"><ele>798.0</ele><time>2026-04-11T15:07:07.38Z</time></trkpt><trkpt lat="37.344312" lon="-2.5089672"><ele>800.5</ele><time>2026-04-11T15:07:08.38Z</time></trkpt><trkpt lat="37.3442384" lon="-2.508963"><ele>803.0</ele><time>2026-04-11T15:07:09.38Z</time></trkpt><trkpt lat="37.344165" lon="-2.5089508"><ele>805.4999999999999</ele><time>2026-04-11T15:07:10.38Z</time></trkpt><trkpt lat="37.3440881" lon="-2.5089241"><ele>808.0</ele><time>2026-04-11T15:07:11.38Z</time></trkpt><trkpt lat="37.3440181" lon="-2.5088769"><ele>807.9999999999999</ele><time>2026-04-11T15:07:12.38Z</time></trkpt><trkpt lat="37.343996" lon="-2.5087735"><ele>808.0</ele><time>2026-04-11T15:07:13.38Z</time></trkpt><trkpt lat="37.3439687" lon="-2.5086861"><ele>808.0</ele><time>2026-04-11T15:07:14.38Z</time></trkpt><trkpt lat="37.343985" lon="-2.5085711"><ele>808.0</ele><time>2026-04-11T15:07:15.38Z</time></trkpt><trkpt lat="37.3439876" lon="-2.5084787"><ele>807.9999999999999</ele><time>2026-04-11T15:07:16.379Z</time></trkpt><trkpt lat="37.3439847" lon="-2.5083663"><ele>808.0</ele><time>2026-04-11T15:07:17.38Z</time></trkpt><trkpt lat="37.3439827" lon="-2.5082653"><ele>807.2</ele><time>2026-04-11T15:07:18.38Z</time></trkpt><trkpt lat="37.343968" lon="-2.5081787"><ele>806.4</ele><time>2026-04-11T15:07:19.379Z</time></trkpt><trkpt lat="37.3439392" lon="-2.5081053"><ele>805.6</ele><time>2026-04-11T15:07:20.38Z</time></trkpt><trkpt lat="37.3438449" lon="-2.5080099"><ele>804.8000000000001</ele><time>2026-04-11T15:07:22.38Z</time></trkpt><trkpt lat="37.343753" lon="-2.5080053"><ele>804.0</ele><time>2026-04-11T15:07:24.38Z</time></trkpt><trkpt lat="37.3436803" lon="-2.5081097"><ele>803.6666666666666</ele><time>2026-04-11T15:07:26.38Z</time></trkpt><trkpt lat="37.3436327" lon="-2.5082375"><ele>803.3333333333333</ele><time>2026-04-11T15:07:28.38Z</time></trkpt><trkpt lat="37.3436068" lon="-2.5083199"><ele>803.0</ele><time>2026-04-11T15:07:30.38Z</time></trkpt><trkpt lat="37.3435815" lon="-2.5084235"><ele>802.6666666666666</ele><time>2026-04-11T15:07:33.379Z</time></trkpt><trkpt lat="37.3435553" lon="-2.5085228"><ele>802.3333333333333</ele><time>2026-04-11T15:07:36.38Z</time></trkpt><trkpt lat="37.3435257" lon="-2.5085996"><ele>802.0</ele><time>2026-04-11T15:09:07.4Z</time></trkpt><trkpt lat="37.3434746" lon="-2.5086581"><ele>802.0</ele><time>2026-04-11T15:09:12.379Z</time></trkpt><trkpt lat="37.3434495" lon="-2.5087419"><ele>802.0</ele><time>2026-04-11T15:09:18.38Z</time></trkpt><trkpt lat="37.343435" lon="-2.5088247"><ele>802.0</ele><time>2026-04-11T15:09:24.399Z</time></trkpt><trkpt lat="37.3434238" lon="-2.5089179"><ele>802.0</ele><time>2026-04-11T15:09:31.38Z</time></trkpt><trkpt lat="37.3434048" lon="-2.5090062"><ele>802.0</ele><time>2026-04-11T15:09:38.313Z</time></trkpt><trkpt lat="37.3433887" lon="-2.509102"><ele>802.0</ele><time>2026-04-11T15:09:45.392Z</time></trkpt><trkpt lat="37.3433804" lon="-2.5091874"><ele>802.0</ele><time>2026-04-11T15:09:53.379Z</time></trkpt><trkpt lat="37.343355" lon="-2.5092842"><ele>803.8571428571429</ele><time>2026-04-11T15:09:59.379Z</time></trkpt><trkpt lat="37.3433382" lon="-2.5093674"><ele>805.7142857142858</ele><time>2026-04-11T15:10:04.38Z</time></trkpt><trkpt lat="37.3433293" lon="-2.5094556"><ele>807.5714285714286</ele><time>2026-04-11T15:10:09.379Z</time></trkpt><trkpt lat="37.3433232" lon="-2.5095387"><ele>809.4285714285714</ele><time>2026-04-11T15:10:19.38Z</time></trkpt><trkpt lat="37.3433679" lon="-2.5096007"><ele>811.2857142857142</ele><time>2026-04-11T15:10:30.402Z</time></trkpt><trkpt lat="37.3434285" lon="-2.5096427"><ele>813.1428571428571</ele><time>2026-04-11T15:10:38.399Z</time></trkpt><trkpt lat="37.3434684" lon="-2.5097282"><ele>815.0</ele><time>2026-04-11T15:10:44.38Z</time></trkpt><trkpt lat="37.3434868" lon="-2.5098212"><ele>817.5714285714286</ele><time>2026-04-11T15:10:47.379Z</time></trkpt><trkpt lat="37.3435578" lon="-2.5098409"><ele>820.1428571428571</ele><time>2026-04-11T15:10:54.38Z</time></trkpt><trkpt lat="37.3435862" lon="-2.5099236"><ele>822.7142857142858</ele><time>2026-04-11T15:11:00.371Z</time></trkpt><trkpt lat="37.3436335" lon="-2.5098573"><ele>825.2857142857142</ele><time>2026-04-11T15:11:08.393Z</time></trkpt><trkpt lat="37.3436738" lon="-2.5097761"><ele>827.8571428571429</ele><time>2026-04-11T15:11:50.033Z</time></trkpt><trkpt lat="37.3437363" lon="-2.5097298"><ele>830.4285714285714</ele><time>2026-04-11T15:12:09.384Z</time></trkpt><trkpt lat="37.3437134" lon="-2.5096386"><ele>833.0</ele><time>2026-04-11T15:13:15.1Z</time></trkpt><trkpt lat="37.3438009" lon="-2.5096302"><ele>833.0000000000001</ele><time>2026-04-11T16:13:13.387Z</time></trkpt><trkpt lat="37.3438831" lon="-2.5095779"><ele>833.0</ele><time>2026-04-11T16:14:07.412Z</time></trkpt><trkpt lat="37.3438126" lon="-2.5095676"><ele>833.0</ele><time>2026-04-11T16:15:28.387Z</time></trkpt><trkpt lat="37.3438848" lon="-2.5095925"><ele>833.0</ele><time>2026-04-11T16:16:53.398Z</time></trkpt><trkpt lat="37.3439481" lon="-2.5095485"><ele>833.0000000000001</ele><time>2026-04-11T16:17:34.481Z</time></trkpt><trkpt lat="37.3438344" lon="-2.5095859"><ele>833.0</ele><time>2026-04-11T16:19:16.653Z</time></trkpt><trkpt lat="37.3437674" lon="-2.5096057"><ele>833.0</ele><time>2026-04-11T16:19:39.509Z</time></trkpt><trkpt lat="37.3436799" lon="-2.5096081"><ele>833.0</ele><time>2026-04-11T16:19:55.388Z</time></trkpt><trkpt lat="37.3436126" lon="-2.5096274"><ele>833.0</ele><time>2026-04-11T16:19:58.389Z</time></trkpt><trkpt lat="37.3435363" lon="-2.509605"><ele>833.0</ele><time>2026-04-11T16:20:03.389Z</time></trkpt><trkpt lat="37.3434687" lon="-2.5095967"><ele>833.0</ele><time>2026-04-11T16:20:11.335Z</time></trkpt><trkpt lat="37.3434034" lon="-2.5095872"><ele>833.0</ele><time>2026-04-11T16:20:18.388Z</time></trkpt><trkpt lat="37.3433391" lon="-2.5095805"><ele>833.0</ele><time>2026-04-11T16:20:27.405Z</time></trkpt><trkpt lat="37.3433221" lon="-2.5094951"><ele>830.4285714285714</ele><time>2026-04-11T16:20:34.389Z</time></trkpt><trkpt lat="37.3433326" lon="-2.509408"><ele>827.8571428571429</ele><time>2026-04-11T16:20:39.331Z</time></trkpt><trkpt lat="37.3433522" lon="-2.5093283"><ele>825.2857142857142</ele><time>2026-04-11T16:20:46.398Z</time></trkpt><trkpt lat="37.3433696" lon="-2.5092453"><ele>822.7142857142858</ele><time>2026-04-11T16:20:53.389Z</time></trkpt><trkpt lat="37.3433855" lon="-2.509164"><ele>820.1428571428571</ele><time>2026-04-11T16:21:00.43Z</time></trkpt><trkpt lat="37.3434063" lon="-2.5090763"><ele>817.5714285714286</ele><time>2026-04-11T16:21:07.399Z</time></trkpt><trkpt lat="37.343424" lon="-2.5089869"><ele>815.0</ele><time>2026-04-11T16:21:15.335Z</time></trkpt><trkpt lat="37.3434432" lon="-2.5089039"><ele>815.0</ele><time>2026-04-11T16:21:22.388Z</time></trkpt><trkpt lat="37.3434595" lon="-2.508819"><ele>815.0</ele><time>2026-04-11T16:21:29.389Z</time></trkpt><trkpt lat="37.343471" lon="-2.5087292"><ele>815.0</ele><time>2026-04-11T16:21:36.389Z</time></trkpt><trkpt lat="37.3434768" lon="-2.5086435"><ele>815.0</ele><time>2026-04-11T16:21:46.39Z</time></trkpt><trkpt lat="37.3434868" lon="-2.5085639"><ele>815.0</ele><time>2026-04-11T16:21:54.388Z</time></trkpt><trkpt lat="37.3435262" lon="-2.5084771"><ele>815.0</ele><time>2026-04-11T16:21:57.389Z</time></trkpt><trkpt lat="37.3435317" lon="-2.5083826"><ele>815.0</ele><time>2026-04-11T16:26:01.433Z</time></trkpt><trkpt lat="37.3435732" lon="-2.5083221"><ele>812.8</ele><time>2026-04-11T16:26:03.435Z</time></trkpt><trkpt lat="37.3436154" lon="-2.5082363"><ele>810.6</ele><time>2026-04-11T16:26:05.415Z</time></trkpt><trkpt lat="37.3436615" lon="-2.5081263"><ele>808.4000000000001</ele><time>2026-04-11T16:26:07.424Z</time></trkpt><trkpt lat="37.3437236" lon="-2.5080148"><ele>806.2</ele><time>2026-04-11T16:26:09.428Z</time></trkpt><trkpt lat="37.3438042" lon="-2.5079591"><ele>804.0</ele><time>2026-04-11T16:26:11.445Z</time></trkpt><trkpt lat="37.3438989" lon="-2.5079958"><ele>804.0</ele><time>2026-04-11T16:26:13.428Z</time></trkpt><trkpt lat="37.3439975" lon="-2.5080805"><ele>804.0</ele><time>2026-04-11T16:26:15.435Z</time></trkpt><trkpt lat="37.3440406" lon="-2.5082247"><ele>804.0</ele><time>2026-04-11T16:26:17.44Z</time></trkpt><trkpt lat="37.3440309" lon="-2.5083868"><ele>804.0</ele><time>2026-04-11T16:26:19.443Z</time></trkpt><trkpt lat="37.3440302" lon="-2.5084723"><ele>804.0</ele><time>2026-04-11T16:26:20.425Z</time></trkpt><trkpt lat="37.3440279" lon="-2.5085561"><ele>804.0</ele><time>2026-04-11T16:26:21.425Z</time></trkpt><trkpt lat="37.3440278" lon="-2.50864"><ele>804.0</ele><time>2026-04-11T16:26:22.427Z</time></trkpt><trkpt lat="37.3440356" lon="-2.5087238"><ele>804.0</ele><time>2026-04-11T16:26:23.426Z</time></trkpt><trkpt lat="37.3440824" lon="-2.5088492"><ele>804.0</ele><time>2026-04-11T16:26:25.436Z</time></trkpt><trkpt lat="37.3441753" lon="-2.5089244"><ele>804.0</ele><time>2026-04-11T16:26:27.515Z</time></trkpt><trkpt lat="37.3442958" lon="-2.5089457"><ele>804.6666666666666</ele><time>2026-04-11T16:26:29.435Z</time></trkpt><trkpt lat="37.3444221" lon="-2.5089594"><ele>805.3333333333333</ele><time>2026-04-11T16:26:31.421Z</time></trkpt><trkpt lat="37.3444912" lon="-2.5089682"><ele>806.0</ele><time>2026-04-11T16:26:32.44Z</time></trkpt><trkpt lat="37.3445717" lon="-2.5089647"><ele>806.6666666666666</ele><time>2026-04-11T16:26:33.421Z</time></trkpt><trkpt lat="37.3446523" lon="-2.5089674"><ele>807.3333333333333</ele><time>2026-04-11T16:26:34.421Z</time></trkpt><trkpt lat="37.3447358" lon="-2.5089673"><ele>808.0</ele><time>2026-04-11T16:26:35.423Z</time></trkpt><trkpt lat="37.3448254" lon="-2.5089658"><ele>805.0</ele><time>2026-04-11T16:26:36.428Z</time></trkpt><trkpt lat="37.3449034" lon="-2.5089676"><ele>802.0</ele><time>2026-04-11T16:26:37.431Z</time></trkpt><trkpt lat="37.3450201" lon="-2.5089709"><ele>799.0</ele><time>2026-04-11T16:26:39.42Z</time></trkpt><trkpt lat="37.3451134" lon="-2.5089224"><ele>796.0</ele><time>2026-04-11T16:26:41.438Z</time></trkpt><trkpt lat="37.3451773" lon="-2.5088545"><ele>793.0</ele><time>2026-04-11T16:26:59.447Z</time></trkpt><trkpt lat="37.3452475" lon="-2.5088519"><ele>793.0</ele><time>2026-04-11T16:27:01.419Z</time></trkpt><trkpt lat="37.3453355" lon="-2.508899"><ele>793.0</ele><time>2026-04-11T16:27:03.422Z</time></trkpt><trkpt lat="37.3453962" lon="-2.50894"><ele>793.0</ele><time>2026-04-11T16:27:04.425Z</time></trkpt><trkpt lat="37.3455204" lon="-2.5090508"><ele>793.0</ele><time>2026-04-11T16:27:06.424Z</time></trkpt><trkpt lat="37.3455946" lon="-2.5091164"><ele>793.0</ele><time>2026-04-11T16:27:07.435Z</time></trkpt><trkpt lat="37.3456623" lon="-2.5091835"><ele>791.0</ele><time>2026-04-11T16:27:08.426Z</time></trkpt><trkpt lat="37.3457297" lon="-2.5092528"><ele>789.0</ele><time>2026-04-11T16:27:09.435Z</time></trkpt><trkpt lat="37.3458281" lon="-2.5093415"><ele>787.0</ele><time>2026-04-11T16:27:11.433Z</time></trkpt><trkpt lat="37.3458906" lon="-2.5093947"><ele>785.0</ele><time>2026-04-11T16:27:12.418Z</time></trkpt><trkpt lat="37.3459622" lon="-2.5094633"><ele>783.0</ele><time>2026-04-11T16:27:13.43Z</time></trkpt><trkpt lat="37.3460508" lon="-2.5095276"><ele>782.75</ele><time>2026-04-11T16:27:14.436Z</time></trkpt><trkpt lat="37.3461443" lon="-2.5095999"><ele>782.5</ele><time>2026-04-11T16:27:15.42Z</time></trkpt><trkpt lat="37.3462716" lon="-2.5096981"><ele>782.25</ele><time>2026-04-11T16:27:17.326Z</time></trkpt><trkpt lat="37.3464219" lon="-2.5097935"><ele>782.0</ele><time>2026-04-11T16:27:18.401Z</time></trkpt><trkpt lat="37.3465307" lon="-2.5098318"><ele>781.2</ele><time>2026-04-11T16:27:19.404Z</time></trkpt><trkpt lat="37.3466438" lon="-2.5098549"><ele>780.4000000000001</ele><time>2026-04-11T16:27:20.393Z</time></trkpt><trkpt lat="37.3467605" lon="-2.509881"><ele>779.5999999999999</ele><time>2026-04-11T16:27:21.393Z</time></trkpt><trkpt lat="37.3468651" lon="-2.5099019"><ele>778.8</ele><time>2026-04-11T16:27:22.4Z</time></trkpt><trkpt lat="37.3469565" lon="-2.5099224"><ele>778.0</ele><time>2026-04-11T16:27:23.399Z</time></trkpt><trkpt lat="37.347039" lon="-2.509941"><ele>777.9999999999999</ele><time>2026-04-11T16:27:24.4Z</time></trkpt><trkpt lat="37.3471058" lon="-2.5099549"><ele>778.0</ele><time>2026-04-11T16:27:25.4Z</time></trkpt><trkpt lat="37.3471774" lon="-2.5099695"><ele>778.0</ele><time>2026-04-11T16:27:26.4Z</time></trkpt><trkpt lat="37.3472649" lon="-2.509987"><ele>778.0</ele><time>2026-04-11T16:27:27.4Z</time></trkpt><trkpt lat="37.3473637" lon="-2.5100082"><ele>777.9999999999999</ele><time>2026-04-11T16:27:28.4Z</time></trkpt><trkpt lat="37.3474753" lon="-2.5100361"><ele>778.0</ele><time>2026-04-11T16:27:29.4Z</time></trkpt><trkpt lat="37.3475982" lon="-2.510069"><ele>777.5</ele><time>2026-04-11T16:27:30.4Z</time></trkpt><trkpt lat="37.3477241" lon="-2.5100995"><ele>777.0</ele><time>2026-04-11T16:27:31.399Z</time></trkpt><trkpt lat="37.3478432" lon="-2.510124"><ele>776.5</ele><time>2026-04-11T16:27:32.399Z</time></trkpt><trkpt lat="37.3479716" lon="-2.5101491"><ele>776.0</ele><time>2026-04-11T16:27:33.399Z</time></trkpt><trkpt lat="37.3480995" lon="-2.5101752"><ele>776.0</ele><time>2026-04-11T16:27:34.4Z</time></trkpt><trkpt lat="37.3482047" lon="-2.5101991"><ele>776.0</ele><time>2026-04-11T16:27:35.4Z</time></trkpt><trkpt lat="37.3482865" lon="-2.5102151"><ele>776.0</ele><time>2026-04-11T16:27:36.4Z</time></trkpt><trkpt lat="37.348365" lon="-2.5102284"><ele>776.0</ele><time>2026-04-11T16:27:37.399Z</time></trkpt><trkpt lat="37.3484518" lon="-2.5102442"><ele>776.0</ele><time>2026-04-11T16:27:38.4Z</time></trkpt><trkpt lat="37.3485517" lon="-2.5102634"><ele>776.0</ele><time>2026-04-11T16:27:39.4Z</time></trkpt><trkpt lat="37.3486536" lon="-2.5102805"><ele>776.0</ele><time>2026-04-11T16:27:40.4Z</time></trkpt><trkpt lat="37.3487553" lon="-2.5102969"><ele>776.0</ele><time>2026-04-11T16:27:41.399Z</time></trkpt><trkpt lat="37.3488618" lon="-2.5103154"><ele>776.0</ele><time>2026-04-11T16:27:42.399Z</time></trkpt><trkpt lat="37.3489651" lon="-2.510336"><ele>776.0</ele><time>2026-04-11T16:27:43.4Z</time></trkpt><trkpt lat="37.3490592" lon="-2.5103483"><ele>776.0</ele><time>2026-04-11T16:27:44.4Z</time></trkpt><trkpt lat="37.3491549" lon="-2.5103656"><ele>776.0</ele><time>2026-04-11T16:27:45.4Z</time></trkpt><trkpt lat="37.3492541" lon="-2.510381"><ele>776.0</ele><time>2026-04-11T16:27:46.399Z</time></trkpt><trkpt lat="37.3493632" lon="-2.5103962"><ele>776.0</ele><time>2026-04-11T16:27:47.4Z</time></trkpt><trkpt lat="37.3494702" lon="-2.5104124"><ele>776.0</ele><time>2026-04-11T16:27:48.4Z</time></trkpt><trkpt lat="37.3495783" lon="-2.510427"><ele>772.5</ele><time>2026-04-11T16:27:49.4Z</time></trkpt><trkpt lat="37.3497138" lon="-2.5104448"><ele>769.0</ele><time>2026-04-11T16:27:50.4Z</time></trkpt><trkpt lat="37.3498413" lon="-2.5104588"><ele>765.5</ele><time>2026-04-11T16:27:51.399Z</time></trkpt><trkpt lat="37.3499579" lon="-2.510469"><ele>762.0</ele><time>2026-04-11T16:27:52.399Z</time></trkpt><trkpt lat="37.3500701" lon="-2.5104776"><ele>762.0</ele><time>2026-04-11T16:27:53.399Z</time></trkpt><trkpt lat="37.3501736" lon="-2.5104861"><ele>762.0</ele><time>2026-04-11T16:27:54.4Z</time></trkpt><trkpt lat="37.3502633" lon="-2.5105032"><ele>762.0</ele><time>2026-04-11T16:27:55.4Z</time></trkpt><trkpt lat="37.3503391" lon="-2.5105225"><ele>762.0</ele><time>2026-04-11T16:27:56.399Z</time></trkpt><trkpt lat="37.3504103" lon="-2.5105284"><ele>762.0</ele><time>2026-04-11T16:27:57.4Z</time></trkpt><trkpt lat="37.3504766" lon="-2.510535"><ele>762.0</ele><time>2026-04-11T16:27:58.4Z</time></trkpt><trkpt lat="37.3505996" lon="-2.5105405"><ele>761.0</ele><time>2026-04-11T16:28:00.4Z</time></trkpt><trkpt lat="37.3506823" lon="-2.5106449"><ele>760.0</ele><time>2026-04-11T16:28:02.4Z</time></trkpt><trkpt lat="37.3506516" lon="-2.5107975"><ele>759.0</ele><time>2026-04-11T16:28:04.4Z</time></trkpt><trkpt lat="37.3506286" lon="-2.5108936"><ele>758.0</ele><time>2026-04-11T16:28:05.4Z</time></trkpt><trkpt lat="37.3506276" lon="-2.5110007"><ele>757.0</ele><time>2026-04-11T16:28:06.4Z</time></trkpt><trkpt lat="37.350631" lon="-2.5111135"><ele>757.0</ele><time>2026-04-11T16:28:07.4Z</time></trkpt><trkpt lat="37.3506183" lon="-2.5112277"><ele>757.0</ele><time>2026-04-11T16:28:08.4Z</time></trkpt><trkpt lat="37.350604" lon="-2.511352"><ele>757.0</ele><time>2026-04-11T16:28:09.399Z</time></trkpt><trkpt lat="37.3505948" lon="-2.5114868"><ele>757.0</ele><time>2026-04-11T16:28:10.4Z</time></trkpt><trkpt lat="37.3505828" lon="-2.5116234"><ele>757.0</ele><time>2026-04-11T16:28:11.4Z</time></trkpt><trkpt lat="37.3505665" lon="-2.5117644"><ele>756.25</ele><time>2026-04-11T16:28:12.4Z</time></trkpt><trkpt lat="37.3505514" lon="-2.5119113"><ele>755.5</ele><time>2026-04-11T16:28:13.4Z</time></trkpt><trkpt lat="37.350536" lon="-2.5120697"><ele>754.75</ele><time>2026-04-11T16:28:14.4Z</time></trkpt><trkpt lat="37.3505197" lon="-2.5122332"><ele>754.0</ele><time>2026-04-11T16:28:15.4Z</time></trkpt><trkpt lat="37.3505045" lon="-2.5124055"><ele>757.5</ele><time>2026-04-11T16:28:16.399Z</time></trkpt><trkpt lat="37.3504774" lon="-2.5125678"><ele>761.0</ele><time>2026-04-11T16:28:17.4Z</time></trkpt><trkpt lat="37.350443" lon="-2.5127284"><ele>764.5</ele><time>2026-04-11T16:28:18.399Z</time></trkpt><trkpt lat="37.3504016" lon="-2.5128913"><ele>768.0</ele><time>2026-04-11T16:28:19.4Z</time></trkpt><trkpt lat="37.3503549" lon="-2.5130492"><ele>768.0</ele><time>2026-04-11T16:28:20.4Z</time></trkpt><trkpt lat="37.3502969" lon="-2.5132047"><ele>768.0</ele><time>2026-04-11T16:28:21.4Z</time></trkpt><trkpt lat="37.3502419" lon="-2.5133601"><ele>768.0</ele><time>2026-04-11T16:28:22.4Z</time></trkpt><trkpt lat="37.3501801" lon="-2.5135133"><ele>768.0</ele><time>2026-04-11T16:28:23.4Z</time></trkpt><trkpt lat="37.3501237" lon="-2.513669"><ele>765.75</ele><time>2026-04-11T16:28:24.399Z</time></trkpt><trkpt lat="37.3500644" lon="-2.5138249"><ele>763.5</ele><time>2026-04-11T16:28:25.4Z</time></trkpt><trkpt lat="37.350009" lon="-2.5139714"><ele>761.25</ele><time>2026-04-11T16:28:26.4Z</time></trkpt><trkpt lat="37.3499522" lon="-2.514104"><ele>759.0</ele><time>2026-04-11T16:28:27.4Z</time></trkpt><trkpt lat="37.3498973" lon="-2.5142322"><ele>759.0</ele><time>2026-04-11T16:28:28.4Z</time></trkpt><trkpt lat="37.3498471" lon="-2.514353"><ele>759.0</ele><time>2026-04-11T16:28:29.4Z</time></trkpt><trkpt lat="37.3498023" lon="-2.514466"><ele>759.0</ele><time>2026-04-11T16:28:30.4Z</time></trkpt><trkpt lat="37.3497593" lon="-2.5145638"><ele>759.0</ele><time>2026-04-11T16:28:31.4Z</time></trkpt><trkpt lat="37.3497143" lon="-2.5146656"><ele>759.0</ele><time>2026-04-11T16:28:32.399Z</time></trkpt><trkpt lat="37.3496881" lon="-2.5147414"><ele>761.0</ele><time>2026-04-11T16:28:34.4Z</time></trkpt><trkpt lat="37.3496333" lon="-2.5148999"><ele>763.0</ele><time>2026-04-11T16:28:36.4Z</time></trkpt><trkpt lat="37.3496071" lon="-2.5149938"><ele>765.0</ele><time>2026-04-11T16:28:37.4Z</time></trkpt><trkpt lat="37.3495822" lon="-2.5150991"><ele>767.0</ele><time>2026-04-11T16:28:38.4Z</time></trkpt><trkpt lat="37.3495537" lon="-2.5152181"><ele>769.0</ele><time>2026-04-11T16:28:39.4Z</time></trkpt><trkpt lat="37.3495252" lon="-2.5153435"><ele>769.9999999999999</ele><time>2026-04-11T16:28:40.4Z</time></trkpt><trkpt lat="37.3495039" lon="-2.515457"><ele>771.0</ele><time>2026-04-11T16:28:41.399Z</time></trkpt><trkpt lat="37.3494869" lon="-2.5155487"><ele>772.0</ele><time>2026-04-11T16:28:42.4Z</time></trkpt><trkpt lat="37.3494698" lon="-2.5157013"><ele>773.0</ele><time>2026-04-11T16:28:44.4Z</time></trkpt><trkpt lat="37.3494619" lon="-2.5157857"><ele>773.9999999999999</ele><time>2026-04-11T16:28:45.4Z</time></trkpt><trkpt lat="37.3494533" lon="-2.5158775"><ele>775.0</ele><time>2026-04-11T16:28:46.4Z</time></trkpt><trkpt lat="37.3494343" lon="-2.5159892"><ele>775.0</ele><time>2026-04-11T16:28:47.4Z</time></trkpt><trkpt lat="37.3494096" lon="-2.5161102"><ele>775.0</ele><time>2026-04-11T16:28:48.4Z</time></trkpt><trkpt lat="37.3493785" lon="-2.5162405"><ele>775.0</ele><time>2026-04-11T16:28:49.399Z</time></trkpt><trkpt lat="37.3493406" lon="-2.5163822"><ele>775.0</ele><time>2026-04-11T16:28:50.4Z</time></trkpt><trkpt lat="37.3492986" lon="-2.5165345"><ele>773.6</ele><time>2026-04-11T16:28:51.4Z</time></trkpt><trkpt lat="37.349265" lon="-2.5166835"><ele>772.2</ele><time>2026-04-11T16:28:52.4Z</time></trkpt><trkpt lat="37.3492363" lon="-2.5168173"><ele>770.8</ele><time>2026-04-11T16:28:53.399Z</time></trkpt><trkpt lat="37.3492234" lon="-2.5169356"><ele>769.4</ele><time>2026-04-11T16:28:54.4Z</time></trkpt><trkpt lat="37.3492219" lon="-2.5170541"><ele>768.0</ele><time>2026-04-11T16:28:55.4Z</time></trkpt><trkpt lat="37.3492352" lon="-2.5171694"><ele>767.2</ele><time>2026-04-11T16:28:56.4Z</time></trkpt><trkpt lat="37.3492587" lon="-2.51729"><ele>766.4</ele><time>2026-04-11T16:28:57.4Z</time></trkpt><trkpt lat="37.3493055" lon="-2.5174197"><ele>765.6</ele><time>2026-04-11T16:28:58.4Z</time></trkpt><trkpt lat="37.3493606" lon="-2.5175454"><ele>764.8000000000001</ele><time>2026-04-11T16:28:59.399Z</time></trkpt><trkpt lat="37.3494272" lon="-2.5176688"><ele>764.0</ele><time>2026-04-11T16:29:00.4Z</time></trkpt><trkpt lat="37.3495216" lon="-2.5177737"><ele>764.0</ele><time>2026-04-11T16:29:01.4Z</time></trkpt><trkpt lat="37.3496358" lon="-2.5178604"><ele>764.0</ele><time>2026-04-11T16:29:02.4Z</time></trkpt><trkpt lat="37.3497604" lon="-2.5179382"><ele>764.0</ele><time>2026-04-11T16:29:03.4Z</time></trkpt><trkpt lat="37.349887" lon="-2.5180139"><ele>764.0</ele><time>2026-04-11T16:29:04.4Z</time></trkpt><trkpt lat="37.3500192" lon="-2.51809"><ele>762.25</ele><time>2026-04-11T16:29:05.4Z</time></trkpt><trkpt lat="37.3501527" lon="-2.5181667"><ele>760.5</ele><time>2026-04-11T16:29:06.4Z</time></trkpt><trkpt lat="37.3502842" lon="-2.5182418"><ele>758.75</ele><time>2026-04-11T16:29:07.4Z</time></trkpt><trkpt lat="37.3504141" lon="-2.5183146"><ele>757.0</ele><time>2026-04-11T16:29:08.4Z</time></trkpt><trkpt lat="37.3505292" lon="-2.5183819"><ele>757.0</ele><time>2026-04-11T16:29:09.4Z</time></trkpt><trkpt lat="37.3506413" lon="-2.5184477"><ele>757.0</ele><time>2026-04-11T16:29:10.4Z</time></trkpt><trkpt lat="37.3507517" lon="-2.5185098"><ele>757.0</ele><time>2026-04-11T16:29:11.4Z</time></trkpt><trkpt lat="37.3508624" lon="-2.5185707"><ele>757.0</ele><time>2026-04-11T16:29:12.4Z</time></trkpt><trkpt lat="37.3509707" lon="-2.5186351"><ele>757.0</ele><time>2026-04-11T16:29:13.4Z</time></trkpt><trkpt lat="37.3510781" lon="-2.5187078"><ele>757.0</ele><time>2026-04-11T16:29:14.4Z</time></trkpt><trkpt lat="37.3511593" lon="-2.5188027"><ele>757.0</ele><time>2026-04-11T16:29:15.4Z</time></trkpt><trkpt lat="37.3512174" lon="-2.5189348"><ele>757.0</ele><time>2026-04-11T16:29:16.4Z</time></trkpt><trkpt lat="37.3512645" lon="-2.5190866"><ele>757.5</ele><time>2026-04-11T16:29:17.4Z</time></trkpt><trkpt lat="37.3512887" lon="-2.5192552"><ele>758.0</ele><time>2026-04-11T16:29:18.4Z</time></trkpt><trkpt lat="37.3513076" lon="-2.5194354"><ele>758.5</ele><time>2026-04-11T16:29:19.4Z</time></trkpt><trkpt lat="37.3513203" lon="-2.5196244"><ele>759.0</ele><time>2026-04-11T16:29:20.4Z</time></trkpt><trkpt lat="37.3513321" lon="-2.5198171"><ele>760.0</ele><time>2026-04-11T16:29:21.4Z</time></trkpt><trkpt lat="37.3513432" lon="-2.5200107"><ele>761.0</ele><time>2026-04-11T16:29:22.4Z</time></trkpt><trkpt lat="37.3513514" lon="-2.5202023"><ele>762.0</ele><time>2026-04-11T16:29:23.4Z</time></trkpt><trkpt lat="37.3513542" lon="-2.5203904"><ele>762.25</ele><time>2026-04-11T16:29:24.399Z</time></trkpt><trkpt lat="37.3513573" lon="-2.5205722"><ele>762.5</ele><time>2026-04-11T16:29:25.4Z</time></trkpt><trkpt lat="37.3513744" lon="-2.5207472"><ele>762.75</ele><time>2026-04-11T16:29:26.4Z</time></trkpt><trkpt lat="37.3514013" lon="-2.5209057"><ele>763.0</ele><time>2026-04-11T16:29:27.4Z</time></trkpt><trkpt lat="37.3514348" lon="-2.5210288"><ele>764.5</ele><time>2026-04-11T16:29:28.4Z</time></trkpt><trkpt lat="37.35146" lon="-2.5211015"><ele>766.0</ele><time>2026-04-11T16:29:29.4Z</time></trkpt><trkpt lat="37.3515298" lon="-2.5212141"><ele>767.5</ele><time>2026-04-11T16:29:31.4Z</time></trkpt><trkpt lat="37.3515818" lon="-2.5212646"><ele>769.0</ele><time>2026-04-11T16:29:32.399Z</time></trkpt><trkpt lat="37.3516436" lon="-2.5213157"><ele>770.4999999999999</ele><time>2026-04-11T16:29:33.4Z</time></trkpt><trkpt lat="37.3517145" lon="-2.5213737"><ele>772.0</ele><time>2026-04-11T16:29:34.4Z</time></trkpt><trkpt lat="37.351792" lon="-2.521441"><ele>772.0</ele><time>2026-04-11T16:29:35.399Z</time></trkpt><trkpt lat="37.3518684" lon="-2.5215187"><ele>772.0</ele><time>2026-04-11T16:29:36.4Z</time></trkpt><trkpt lat="37.3519423" lon="-2.521612"><ele>772.0</ele><time>2026-04-11T16:29:37.4Z</time></trkpt><trkpt lat="37.3520018" lon="-2.5217272"><ele>772.0</ele><time>2026-04-11T16:29:38.4Z</time></trkpt><trkpt lat="37.3520521" lon="-2.5218569"><ele>772.0</ele><time>2026-04-11T16:29:39.4Z</time></trkpt><trkpt lat="37.3521026" lon="-2.5219888"><ele>772.6</ele><time>2026-04-11T16:29:40.4Z</time></trkpt><trkpt lat="37.3521501" lon="-2.5221127"><ele>773.2</ele><time>2026-04-11T16:29:41.4Z</time></trkpt><trkpt lat="37.3522084" lon="-2.5222297"><ele>773.8</ele><time>2026-04-11T16:29:42.4Z</time></trkpt><trkpt lat="37.3522702" lon="-2.5223236"><ele>774.4</ele><time>2026-04-11T16:29:43.4Z</time></trkpt><trkpt lat="37.3523487" lon="-2.5223983"><ele>775.0</ele><time>2026-04-11T16:29:44.4Z</time></trkpt><trkpt lat="37.3524412" lon="-2.5224513"><ele>776.0</ele><time>2026-04-11T16:29:45.399Z</time></trkpt><trkpt lat="37.3525447" lon="-2.5224928"><ele>777.0</ele><time>2026-04-11T16:29:46.4Z</time></trkpt><trkpt lat="37.352652" lon="-2.5225422"><ele>778.0</ele><time>2026-04-11T16:29:47.4Z</time></trkpt><trkpt lat="37.3527656" lon="-2.5225901"><ele>779.0</ele><time>2026-04-11T16:29:48.399Z</time></trkpt><trkpt lat="37.352883" lon="-2.5226374"><ele>779.0</ele><time>2026-04-11T16:29:49.4Z</time></trkpt><trkpt lat="37.3530075" lon="-2.5226853"><ele>779.0</ele><time>2026-04-11T16:29:50.4Z</time></trkpt><trkpt lat="37.3531294" lon="-2.5227375"><ele>779.0</ele><time>2026-04-11T16:29:51.4Z</time></trkpt><trkpt lat="37.3532538" lon="-2.5227863"><ele>779.0</ele><time>2026-04-11T16:29:52.4Z</time></trkpt><trkpt lat="37.3533772" lon="-2.5228452"><ele>780.0</ele><time>2026-04-11T16:29:53.4Z</time></trkpt><trkpt lat="37.3534993" lon="-2.5229239"><ele>781.0</ele><time>2026-04-11T16:29:54.4Z</time></trkpt><trkpt lat="37.3536078" lon="-2.5230357"><ele>782.0</ele><time>2026-04-11T16:29:55.4Z</time></trkpt><trkpt lat="37.3536981" lon="-2.5231744"><ele>783.0</ele><time>2026-04-11T16:29:56.4Z</time></trkpt><trkpt lat="37.353762" lon="-2.5233187"><ele>783.0</ele><time>2026-04-11T16:29:57.4Z</time></trkpt><trkpt lat="37.3537898" lon="-2.523464"><ele>783.0</ele><time>2026-04-11T16:29:58.4Z</time></trkpt><trkpt lat="37.3537739" lon="-2.5236078"><ele>783.0</ele><time>2026-04-11T16:29:59.4Z</time></trkpt><trkpt lat="37.3537167" lon="-2.5237306"><ele>783.0</ele><time>2026-04-11T16:30:00.4Z</time></trkpt><trkpt lat="37.3536318" lon="-2.523839"><ele>783.75</ele><time>2026-04-11T16:30:01.4Z</time></trkpt><trkpt lat="37.3535547" lon="-2.5239638"><ele>784.5</ele><time>2026-04-11T16:30:02.4Z</time></trkpt><trkpt lat="37.3535121" lon="-2.5241175"><ele>785.25</ele><time>2026-04-11T16:30:03.4Z</time></trkpt><trkpt lat="37.3534981" lon="-2.524286"><ele>786.0</ele><time>2026-04-11T16:30:04.399Z</time></trkpt><trkpt lat="37.3535072" lon="-2.5244624"><ele>786.0</ele><time>2026-04-11T16:30:05.399Z</time></trkpt><trkpt lat="37.3535383" lon="-2.5246284"><ele>786.0</ele><time>2026-04-11T16:30:06.4Z</time></trkpt><trkpt lat="37.3535989" lon="-2.524772"><ele>786.0</ele><time>2026-04-11T16:30:07.4Z</time></trkpt><trkpt lat="37.3536962" lon="-2.5248793"><ele>786.0</ele><time>2026-04-11T16:30:08.4Z</time></trkpt><trkpt lat="37.3538184" lon="-2.5249107"><ele>788.75</ele><time>2026-04-11T16:30:09.4Z</time></trkpt><trkpt lat="37.3539531" lon="-2.5249107"><ele>791.5</ele><time>2026-04-11T16:30:10.4Z</time></trkpt><trkpt lat="37.3540936" lon="-2.5249066"><ele>794.25</ele><time>2026-04-11T16:30:11.4Z</time></trkpt><trkpt lat="37.3542351" lon="-2.5249357"><ele>797.0</ele><time>2026-04-11T16:30:12.399Z</time></trkpt><trkpt lat="37.3543645" lon="-2.524993"><ele>797.0</ele><time>2026-04-11T16:30:13.4Z</time></trkpt><trkpt lat="37.3544819" lon="-2.5250977"><ele>797.0</ele><time>2026-04-11T16:30:14.4Z</time></trkpt><trkpt lat="37.3545764" lon="-2.5252349"><ele>797.0</ele><time>2026-04-11T16:30:15.4Z</time></trkpt><trkpt lat="37.3546464" lon="-2.5253973"><ele>797.0</ele><time>2026-04-11T16:30:16.4Z</time></trkpt><trkpt lat="37.3546902" lon="-2.5255824"><ele>802.0</ele><time>2026-04-11T16:30:17.399Z</time></trkpt><trkpt lat="37.354735" lon="-2.5257769"><ele>807.0</ele><time>2026-04-11T16:30:18.4Z</time></trkpt><trkpt lat="37.3547829" lon="-2.5259748"><ele>812.0</ele><time>2026-04-11T16:30:19.4Z</time></trkpt><trkpt lat="37.3548297" lon="-2.5261758"><ele>812.3333333333334</ele><time>2026-04-11T16:30:20.4Z</time></trkpt><trkpt lat="37.3548779" lon="-2.5263789"><ele>812.6666666666667</ele><time>2026-04-11T16:30:21.4Z</time></trkpt><trkpt lat="37.3549371" lon="-2.5265818"><ele>813.0</ele><time>2026-04-11T16:30:22.4Z</time></trkpt><trkpt lat="37.3550038" lon="-2.5267819"><ele>813.0</ele><time>2026-04-11T16:30:23.4Z</time></trkpt><trkpt lat="37.3550795" lon="-2.5269761"><ele>813.0</ele><time>2026-04-11T16:30:24.4Z</time></trkpt><trkpt lat="37.3551704" lon="-2.52716"><ele>813.0</ele><time>2026-04-11T16:30:25.4Z</time></trkpt><trkpt lat="37.3552846" lon="-2.5273224"><ele>810.6666666666667</ele><time>2026-04-11T16:30:26.4Z</time></trkpt><trkpt lat="37.3554176" lon="-2.5274669"><ele>808.3333333333334</ele><time>2026-04-11T16:30:27.4Z</time></trkpt><trkpt lat="37.3555656" lon="-2.5275875"><ele>806.0</ele><time>2026-04-11T16:30:28.4Z</time></trkpt><trkpt lat="37.3557243" lon="-2.5276942"><ele>807.3333333333334</ele><time>2026-04-11T16:30:29.4Z</time></trkpt><trkpt lat="37.355887" lon="-2.5277929"><ele>808.6666666666667</ele><time>2026-04-11T16:30:30.4Z</time></trkpt><trkpt lat="37.356052" lon="-2.5278909"><ele>810.0</ele><time>2026-04-11T16:30:31.4Z</time></trkpt><trkpt lat="37.3562215" lon="-2.5279918"><ele>814.0</ele><time>2026-04-11T16:30:32.4Z</time></trkpt><trkpt lat="37.3563935" lon="-2.5280928"><ele>818.0</ele><time>2026-04-11T16:30:33.4Z</time></trkpt><trkpt lat="37.3565601" lon="-2.5281936"><ele>822.0</ele><time>2026-04-11T16:30:34.399Z</time></trkpt><trkpt lat="37.3567311" lon="-2.5282946"><ele>822.0</ele><time>2026-04-11T16:30:35.4Z</time></trkpt><trkpt lat="37.3569037" lon="-2.5283873"><ele>822.0</ele><time>2026-04-11T16:30:36.4Z</time></trkpt><trkpt lat="37.3570772" lon="-2.5284673"><ele>822.0</ele><time>2026-04-11T16:30:37.4Z</time></trkpt><trkpt lat="37.3572532" lon="-2.5285123"><ele>825.6666666666667</ele><time>2026-04-11T16:30:38.4Z</time></trkpt><trkpt lat="37.3574234" lon="-2.5285163"><ele>829.3333333333334</ele><time>2026-04-11T16:30:39.399Z</time></trkpt><trkpt lat="37.3575824" lon="-2.5285043"><ele>833.0</ele><time>2026-04-11T16:30:40.4Z</time></trkpt><trkpt lat="37.3577362" lon="-2.5284911"><ele>833.0</ele><time>2026-04-11T16:30:41.4Z</time></trkpt><trkpt lat="37.3578839" lon="-2.5284914"><ele>833.0</ele><time>2026-04-11T16:30:42.4Z</time></trkpt><trkpt lat="37.3580104" lon="-2.5285153"><ele>833.0</ele><time>2026-04-11T16:30:43.399Z</time></trkpt><trkpt lat="37.3581179" lon="-2.5285897"><ele>833.0</ele><time>2026-04-11T16:30:44.4Z</time></trkpt><trkpt lat="37.358191" lon="-2.5287091"><ele>833.25</ele><time>2026-04-11T16:30:45.4Z</time></trkpt><trkpt lat="37.3582451" lon="-2.5288562"><ele>833.5</ele><time>2026-04-11T16:30:46.4Z</time></trkpt><trkpt lat="37.3582888" lon="-2.5290187"><ele>833.75</ele><time>2026-04-11T16:30:47.4Z</time></trkpt><trkpt lat="37.3582986" lon="-2.5291968"><ele>834.0</ele><time>2026-04-11T16:30:48.4Z</time></trkpt><trkpt lat="37.358288" lon="-2.5293804"><ele>835.3333333333333</ele><time>2026-04-11T16:30:49.4Z</time></trkpt><trkpt lat="37.3582804" lon="-2.5295725"><ele>836.6666666666666</ele><time>2026-04-11T16:30:50.4Z</time></trkpt><trkpt lat="37.3582756" lon="-2.5297716"><ele>838.0</ele><time>2026-04-11T16:30:51.4Z</time></trkpt><trkpt lat="37.3582841" lon="-2.5299708"><ele>838.0</ele><time>2026-04-11T16:30:52.399Z</time></trkpt><trkpt lat="37.3583181" lon="-2.5301616"><ele>838.0</ele><time>2026-04-11T16:30:53.399Z</time></trkpt><trkpt lat="37.3583778" lon="-2.5303379"><ele>838.0</ele><time>2026-04-11T16:30:54.4Z</time></trkpt><trkpt lat="37.3584694" lon="-2.5304917"><ele>841.0</ele><time>2026-04-11T16:30:55.4Z</time></trkpt><trkpt lat="37.3585902" lon="-2.5306156"><ele>844.0</ele><time>2026-04-11T16:30:56.399Z</time></trkpt><trkpt lat="37.3587292" lon="-2.5307083"><ele>847.0</ele><time>2026-04-11T16:30:57.4Z</time></trkpt><trkpt lat="37.3588749" lon="-2.5307895"><ele>847.0</ele><time>2026-04-11T16:30:58.4Z</time></trkpt><trkpt lat="37.3590224" lon="-2.5308721"><ele>847.0</ele><time>2026-04-11T16:30:59.4Z</time></trkpt><trkpt lat="37.359174" lon="-2.5309537"><ele>847.0</ele><time>2026-04-11T16:31:00.4Z</time></trkpt><trkpt lat="37.3593269" lon="-2.5310487"><ele>847.0</ele><time>2026-04-11T16:31:01.399Z</time></trkpt><trkpt lat="37.359482" lon="-2.5311377"><ele>847.0</ele><time>2026-04-11T16:31:02.399Z</time></trkpt><trkpt lat="37.3596375" lon="-2.5312279"><ele>847.0</ele><time>2026-04-11T16:31:03.4Z</time></trkpt><trkpt lat="37.3598009" lon="-2.5313181"><ele>849.6666666666666</ele><time>2026-04-11T16:31:04.4Z</time></trkpt><trkpt lat="37.3599589" lon="-2.531416"><ele>852.3333333333333</ele><time>2026-04-11T16:31:05.4Z</time></trkpt><trkpt lat="37.3601197" lon="-2.5315222"><ele>855.0</ele><time>2026-04-11T16:31:06.4Z</time></trkpt><trkpt lat="37.3602812" lon="-2.5316275"><ele>855.0</ele><time>2026-04-11T16:31:07.4Z</time></trkpt><trkpt lat="37.3604438" lon="-2.531736"><ele>855.0</ele><time>2026-04-11T16:31:08.4Z</time></trkpt><trkpt lat="37.3606086" lon="-2.5318447"><ele>855.0</ele><time>2026-04-11T16:31:09.4Z</time></trkpt><trkpt lat="37.3607706" lon="-2.5319501"><ele>855.6666666666667</ele><time>2026-04-11T16:31:10.4Z</time></trkpt><trkpt lat="37.3609348" lon="-2.5320562"><ele>856.3333333333334</ele><time>2026-04-11T16:31:11.4Z</time></trkpt><trkpt lat="37.3610996" lon="-2.532164"><ele>857.0</ele><time>2026-04-11T16:31:12.399Z</time></trkpt><trkpt lat="37.3612679" lon="-2.5322743"><ele>859.6666666666667</ele><time>2026-04-11T16:31:13.399Z</time></trkpt><trkpt lat="37.361437" lon="-2.5323851"><ele>862.3333333333333</ele><time>2026-04-11T16:31:14.399Z</time></trkpt><trkpt lat="37.3616086" lon="-2.5324968"><ele>865.0</ele><time>2026-04-11T16:31:15.4Z</time></trkpt><trkpt lat="37.3617811" lon="-2.5326096"><ele>865.0</ele><time>2026-04-11T16:31:16.399Z</time></trkpt><trkpt lat="37.3619518" lon="-2.5327269"><ele>865.0</ele><time>2026-04-11T16:31:17.399Z</time></trkpt><trkpt lat="37.362123" lon="-2.532854"><ele>865.0</ele><time>2026-04-11T16:31:18.4Z</time></trkpt><trkpt lat="37.3622879" lon="-2.5329886"><ele>866.0</ele><time>2026-04-11T16:31:19.4Z</time></trkpt><trkpt lat="37.3624486" lon="-2.5331273"><ele>867.0</ele><time>2026-04-11T16:31:20.4Z</time></trkpt><trkpt lat="37.3626071" lon="-2.5332705"><ele>868.0</ele><time>2026-04-11T16:31:21.4Z</time></trkpt><trkpt lat="37.3627674" lon="-2.5334167"><ele>868.0</ele><time>2026-04-11T16:31:22.4Z</time></trkpt><trkpt lat="37.3629189" lon="-2.5335711"><ele>868.0</ele><time>2026-04-11T16:31:23.4Z</time></trkpt><trkpt lat="37.3630723" lon="-2.5337368"><ele>868.0</ele><time>2026-04-11T16:31:24.399Z</time></trkpt><trkpt lat="37.3632056" lon="-2.5339289"><ele>869.3333333333333</ele><time>2026-04-11T16:31:25.399Z</time></trkpt><trkpt lat="37.3633268" lon="-2.5341406"><ele>870.6666666666667</ele><time>2026-04-11T16:31:26.4Z</time></trkpt><trkpt lat="37.3634299" lon="-2.5343715"><ele>872.0</ele><time>2026-04-11T16:31:27.4Z</time></trkpt><trkpt lat="37.3635355" lon="-2.5346022"><ele>872.6666666666667</ele><time>2026-04-11T16:31:28.4Z</time></trkpt><trkpt lat="37.3636405" lon="-2.5348396"><ele>873.3333333333333</ele><time>2026-04-11T16:31:29.4Z</time></trkpt><trkpt lat="37.3637445" lon="-2.5350782"><ele>874.0</ele><time>2026-04-11T16:31:30.4Z</time></trkpt><trkpt lat="37.3638503" lon="-2.535317"><ele>874.6666666666666</ele><time>2026-04-11T16:31:31.4Z</time></trkpt><trkpt lat="37.3639557" lon="-2.5355598"><ele>875.3333333333333</ele><time>2026-04-11T16:31:32.4Z</time></trkpt><trkpt lat="37.3640599" lon="-2.5358034"><ele>876.0</ele><time>2026-04-11T16:31:33.4Z</time></trkpt><trkpt lat="37.3641637" lon="-2.5360447"><ele>875.6666666666667</ele><time>2026-04-11T16:31:34.4Z</time></trkpt><trkpt lat="37.3642683" lon="-2.5362811"><ele>875.3333333333334</ele><time>2026-04-11T16:31:35.399Z</time></trkpt><trkpt lat="37.3643733" lon="-2.5365139"><ele>875.0</ele><time>2026-04-11T16:31:36.4Z</time></trkpt><trkpt lat="37.3644776" lon="-2.5367422"><ele>875.0</ele><time>2026-04-11T16:31:37.4Z</time></trkpt><trkpt lat="37.3645804" lon="-2.5369727"><ele>875.0</ele><time>2026-04-11T16:31:38.4Z</time></trkpt><trkpt lat="37.3646832" lon="-2.5372029"><ele>875.0</ele><time>2026-04-11T16:31:39.399Z</time></trkpt><trkpt lat="37.3647871" lon="-2.5374488"><ele>874.6666666666667</ele><time>2026-04-11T16:31:40.4Z</time></trkpt><trkpt lat="37.364886" lon="-2.5377003"><ele>874.3333333333333</ele><time>2026-04-11T16:31:41.399Z</time></trkpt><trkpt lat="37.3649793" lon="-2.5379591"><ele>874.0</ele><time>2026-04-11T16:31:42.4Z</time></trkpt><trkpt lat="37.3650722" lon="-2.5382211"><ele>874.0</ele><time>2026-04-11T16:31:43.399Z</time></trkpt><trkpt lat="37.3651654" lon="-2.5384866"><ele>874.0</ele><time>2026-04-11T16:31:44.4Z</time></trkpt><trkpt lat="37.3652571" lon="-2.5387539"><ele>873.5</ele><time>2026-04-11T16:31:45.4Z</time></trkpt><trkpt lat="37.3653542" lon="-2.5390197"><ele>873.0</ele><time>2026-04-11T16:31:46.4Z</time></trkpt><trkpt lat="37.3654505" lon="-2.5392871"><ele>876.5</ele><time>2026-04-11T16:31:47.4Z</time></trkpt><trkpt lat="37.3655475" lon="-2.5395545"><ele>880.0</ele><time>2026-04-11T16:31:48.4Z</time></trkpt><trkpt lat="37.3656439" lon="-2.5398193"><ele>880.0</ele><time>2026-04-11T16:31:49.4Z</time></trkpt><trkpt lat="37.3657394" lon="-2.5400852"><ele>880.0</ele><time>2026-04-11T16:31:50.4Z</time></trkpt><trkpt lat="37.3658415" lon="-2.5403651"><ele>880.3333333333333</ele><time>2026-04-11T16:31:51.4Z</time></trkpt><trkpt lat="37.3659261" lon="-2.540613"><ele>880.6666666666667</ele><time>2026-04-11T16:31:52.4Z</time></trkpt><trkpt lat="37.3659986" lon="-2.5408837"><ele>881.0</ele><time>2026-04-11T16:31:53.4Z</time></trkpt><trkpt lat="37.366048" lon="-2.541158"><ele>884.5</ele><time>2026-04-11T16:31:54.4Z</time></trkpt><trkpt lat="37.3660813" lon="-2.5414371"><ele>888.0</ele><time>2026-04-11T16:31:55.399Z</time></trkpt><trkpt lat="37.3660876" lon="-2.541723"><ele>888.0</ele><time>2026-04-11T16:31:56.4Z</time></trkpt><trkpt lat="37.3660706" lon="-2.5420046"><ele>888.0</ele><time>2026-04-11T16:31:57.399Z</time></trkpt><trkpt lat="37.3660327" lon="-2.5422774"><ele>888.0</ele><time>2026-04-11T16:31:58.4Z</time></trkpt><trkpt lat="37.3659951" lon="-2.5425406"><ele>890.0</ele><time>2026-04-11T16:31:59.4Z</time></trkpt><trkpt lat="37.3659542" lon="-2.5428053"><ele>892.0</ele><time>2026-04-11T16:32:00.4Z</time></trkpt><trkpt lat="37.3659191" lon="-2.5430574"><ele>894.0</ele><time>2026-04-11T16:32:01.4Z</time></trkpt><trkpt lat="37.3658904" lon="-2.5432868"><ele>894.75</ele><time>2026-04-11T16:32:02.4Z</time></trkpt><trkpt lat="37.3658708" lon="-2.543485"><ele>895.5</ele><time>2026-04-11T16:32:03.399Z</time></trkpt><trkpt lat="37.3658786" lon="-2.5436562"><ele>896.25</ele><time>2026-04-11T16:32:04.4Z</time></trkpt><trkpt lat="37.3659167" lon="-2.543804"><ele>897.0</ele><time>2026-04-11T16:32:05.4Z</time></trkpt><trkpt lat="37.3659808" lon="-2.5439174"><ele>897.6666666666666</ele><time>2026-04-11T16:32:06.4Z</time></trkpt><trkpt lat="37.3660572" lon="-2.5439906"><ele>898.3333333333333</ele><time>2026-04-11T16:32:07.4Z</time></trkpt><trkpt lat="37.3661435" lon="-2.5440264"><ele>899.0</ele><time>2026-04-11T16:32:08.4Z</time></trkpt><trkpt lat="37.3662255" lon="-2.5440325"><ele>899.6666666666666</ele><time>2026-04-11T16:32:09.4Z</time></trkpt><trkpt lat="37.3663027" lon="-2.5440183"><ele>900.3333333333333</ele><time>2026-04-11T16:32:11.4Z</time></trkpt><trkpt lat="37.3663994" lon="-2.5440566"><ele>901.0</ele><time>2026-04-11T16:32:29.4Z</time></trkpt><trkpt lat="37.3664633" lon="-2.5443004"><ele>901.0</ele><time>2026-04-11T16:32:32.4Z</time></trkpt><trkpt lat="37.3664831" lon="-2.5444222"><ele>900.9999999999999</ele><time>2026-04-11T16:32:33.4Z</time></trkpt><trkpt lat="37.3664991" lon="-2.5445504"><ele>900.9999999999999</ele><time>2026-04-11T16:32:34.399Z</time></trkpt><trkpt lat="37.3665198" lon="-2.5446849"><ele>901.0</ele><time>2026-04-11T16:32:35.399Z</time></trkpt><trkpt lat="37.366544" lon="-2.5448276"><ele>901.0</ele><time>2026-04-11T16:32:36.4Z</time></trkpt><trkpt lat="37.3665707" lon="-2.5449783"><ele>901.75</ele><time>2026-04-11T16:32:37.4Z</time></trkpt><trkpt lat="37.3665981" lon="-2.5451355"><ele>902.5</ele><time>2026-04-11T16:32:38.399Z</time></trkpt><trkpt lat="37.366626" lon="-2.545297"><ele>903.25</ele><time>2026-04-11T16:32:39.4Z</time></trkpt><trkpt lat="37.3666558" lon="-2.5454617"><ele>904.0</ele><time>2026-04-11T16:32:40.4Z</time></trkpt><trkpt lat="37.3666871" lon="-2.5456298"><ele>905.5</ele><time>2026-04-11T16:32:41.4Z</time></trkpt><trkpt lat="37.3667245" lon="-2.5458051"><ele>907.0</ele><time>2026-04-11T16:32:42.399Z</time></trkpt><trkpt lat="37.366766" lon="-2.5459786"><ele>908.5</ele><time>2026-04-11T16:32:43.4Z</time></trkpt><trkpt lat="37.3668134" lon="-2.5461594"><ele>910.0</ele><time>2026-04-11T16:32:44.399Z</time></trkpt><trkpt lat="37.3668672" lon="-2.5463422"><ele>911.0</ele><time>2026-04-11T16:32:45.4Z</time></trkpt><trkpt lat="37.366927" lon="-2.5465175"><ele>912.0</ele><time>2026-04-11T16:32:46.4Z</time></trkpt><trkpt lat="37.3669912" lon="-2.5467028"><ele>913.0</ele><time>2026-04-11T16:32:47.4Z</time></trkpt><trkpt lat="37.3670598" lon="-2.5468937"><ele>913.3333333333333</ele><time>2026-04-11T16:32:48.4Z</time></trkpt><trkpt lat="37.3671358" lon="-2.5470839"><ele>913.6666666666667</ele><time>2026-04-11T16:32:49.4Z</time></trkpt><trkpt lat="37.3672187" lon="-2.5472758"><ele>914.0</ele><time>2026-04-11T16:32:50.4Z</time></trkpt><trkpt lat="37.3673057" lon="-2.5474674"><ele>914.0</ele><time>2026-04-11T16:32:51.4Z</time></trkpt><trkpt lat="37.3673954" lon="-2.5476528"><ele>914.0</ele><time>2026-04-11T16:32:52.4Z</time></trkpt><trkpt lat="37.367501" lon="-2.5478564"><ele>914.0</ele><time>2026-04-11T16:32:53.4Z</time></trkpt><trkpt lat="37.367607" lon="-2.5480595"><ele>914.3333333333334</ele><time>2026-04-11T16:32:54.4Z</time></trkpt><trkpt lat="37.3677172" lon="-2.5482637"><ele>914.6666666666667</ele><time>2026-04-11T16:32:55.4Z</time></trkpt><trkpt lat="37.3678252" lon="-2.5484741"><ele>915.0</ele><time>2026-04-11T16:32:56.4Z</time></trkpt><trkpt lat="37.3679362" lon="-2.5486825"><ele>916.0</ele><time>2026-04-11T16:32:57.4Z</time></trkpt><trkpt lat="37.3680501" lon="-2.5488969"><ele>917.0</ele><time>2026-04-11T16:32:58.399Z</time></trkpt><trkpt lat="37.3681633" lon="-2.5491132"><ele>918.0</ele><time>2026-04-11T16:32:59.4Z</time></trkpt><trkpt lat="37.3682769" lon="-2.5493257"><ele>917.6666666666667</ele><time>2026-04-11T16:33:00.4Z</time></trkpt><trkpt lat="37.3683897" lon="-2.5495484"><ele>917.3333333333334</ele><time>2026-04-11T16:33:01.4Z</time></trkpt><trkpt lat="37.3685037" lon="-2.5497727"><ele>917.0</ele><time>2026-04-11T16:33:02.4Z</time></trkpt><trkpt lat="37.3686264" lon="-2.5499973"><ele>917.0</ele><time>2026-04-11T16:33:03.399Z</time></trkpt><trkpt lat="37.3687454" lon="-2.550226"><ele>917.0</ele><time>2026-04-11T16:33:04.4Z</time></trkpt><trkpt lat="37.3688612" lon="-2.5504569"><ele>917.0</ele><time>2026-04-11T16:33:05.4Z</time></trkpt><trkpt lat="37.3689826" lon="-2.5506859"><ele>920.0</ele><time>2026-04-11T16:33:06.399Z</time></trkpt><trkpt lat="37.369107" lon="-2.5509203"><ele>923.0</ele><time>2026-04-11T16:33:07.4Z</time></trkpt><trkpt lat="37.3692311" lon="-2.5511579"><ele>922.5</ele><time>2026-04-11T16:33:08.399Z</time></trkpt><trkpt lat="37.369357" lon="-2.5514008"><ele>922.0</ele><time>2026-04-11T16:33:09.399Z</time></trkpt><trkpt lat="37.3694841" lon="-2.5516456"><ele>922.0</ele><time>2026-04-11T16:33:10.4Z</time></trkpt><trkpt lat="37.3696109" lon="-2.5518893"><ele>922.0</ele><time>2026-04-11T16:33:11.4Z</time></trkpt><trkpt lat="37.369743" lon="-2.5521293"><ele>924.5</ele><time>2026-04-11T16:33:12.4Z</time></trkpt><trkpt lat="37.3698756" lon="-2.5523785"><ele>927.0</ele><time>2026-04-11T16:33:13.4Z</time></trkpt><trkpt lat="37.3700049" lon="-2.5526301"><ele>928.0</ele><time>2026-04-11T16:33:14.399Z</time></trkpt><trkpt lat="37.3701346" lon="-2.5528848"><ele>929.0</ele><time>2026-04-11T16:33:15.4Z</time></trkpt><trkpt lat="37.3702657" lon="-2.5531393"><ele>929.0</ele><time>2026-04-11T16:33:16.4Z</time></trkpt><trkpt lat="37.370397" lon="-2.5533984"><ele>929.0</ele><time>2026-04-11T16:33:17.4Z</time></trkpt><trkpt lat="37.3705333" lon="-2.5536581"><ele>931.5</ele><time>2026-04-11T16:33:18.4Z</time></trkpt><trkpt lat="37.3706666" lon="-2.5539218"><ele>934.0</ele><time>2026-04-11T16:33:19.4Z</time></trkpt><trkpt lat="37.370805" lon="-2.5541898"><ele>934.0</ele><time>2026-04-11T16:33:20.4Z</time></trkpt><trkpt lat="37.3709466" lon="-2.554456"><ele>934.0</ele><time>2026-04-11T16:33:21.4Z</time></trkpt><trkpt lat="37.3710908" lon="-2.5547256"><ele>934.5</ele><time>2026-04-11T16:33:22.4Z</time></trkpt><trkpt lat="37.3712331" lon="-2.5550007"><ele>935.0</ele><time>2026-04-11T16:33:23.4Z</time></trkpt><trkpt lat="37.3713763" lon="-2.5552716"><ele>934.0</ele><time>2026-04-11T16:33:24.4Z</time></trkpt><trkpt lat="37.3715193" lon="-2.55555"><ele>933.0</ele><time>2026-04-11T16:33:25.4Z</time></trkpt><trkpt lat="37.3716623" lon="-2.5558273"><ele>933.0</ele><time>2026-04-11T16:33:26.4Z</time></trkpt><trkpt lat="37.3718048" lon="-2.5561051"><ele>933.0</ele><time>2026-04-11T16:33:27.4Z</time></trkpt><trkpt lat="37.3719473" lon="-2.5563797"><ele>934.0</ele><time>2026-04-11T16:33:28.399Z</time></trkpt><trkpt lat="37.372091" lon="-2.5566566"><ele>935.0</ele><time>2026-04-11T16:33:29.4Z</time></trkpt><trkpt lat="37.3722396" lon="-2.5569284"><ele>934.5</ele><time>2026-04-11T16:33:30.4Z</time></trkpt><trkpt lat="37.372388" lon="-2.5571946"><ele>934.0</ele><time>2026-04-11T16:33:31.4Z</time></trkpt><trkpt lat="37.3725357" lon="-2.5574613"><ele>934.0</ele><time>2026-04-11T16:33:32.4Z</time></trkpt><trkpt lat="37.3726855" lon="-2.557734"><ele>934.0</ele><time>2026-04-11T16:33:33.4Z</time></trkpt><trkpt lat="37.3728326" lon="-2.5580122"><ele>935.5</ele><time>2026-04-11T16:33:34.4Z</time></trkpt><trkpt lat="37.3729794" lon="-2.5582975"><ele>937.0</ele><time>2026-04-11T16:33:35.4Z</time></trkpt><trkpt lat="37.3731304" lon="-2.5585816"><ele>938.5</ele><time>2026-04-11T16:33:36.399Z</time></trkpt><trkpt lat="37.3732811" lon="-2.5588702"><ele>940.0</ele><time>2026-04-11T16:33:37.399Z</time></trkpt><trkpt lat="37.3734317" lon="-2.5591582"><ele>940.0</ele><time>2026-04-11T16:33:38.4Z</time></trkpt><trkpt lat="37.3735837" lon="-2.5594497"><ele>940.0</ele><time>2026-04-11T16:33:39.399Z</time></trkpt><trkpt lat="37.3737345" lon="-2.5597406"><ele>941.0</ele><time>2026-04-11T16:33:40.399Z</time></trkpt><trkpt lat="37.3738866" lon="-2.5600299"><ele>942.0</ele><time>2026-04-11T16:33:41.4Z</time></trkpt><trkpt lat="37.3740397" lon="-2.5603283"><ele>939.5</ele><time>2026-04-11T16:33:42.4Z</time></trkpt><trkpt lat="37.3741922" lon="-2.5606094"><ele>937.0</ele><time>2026-04-11T16:33:43.4Z</time></trkpt><trkpt lat="37.3743461" lon="-2.560915"><ele>936.0</ele><time>2026-04-11T16:33:44.4Z</time></trkpt><trkpt lat="37.3744915" lon="-2.5612014"><ele>935.0</ele><time>2026-04-11T16:33:45.4Z</time></trkpt><trkpt lat="37.374641" lon="-2.5614958"><ele>935.5</ele><time>2026-04-11T16:33:46.4Z</time></trkpt><trkpt lat="37.374788" lon="-2.5617881"><ele>936.0</ele><time>2026-04-11T16:33:47.4Z</time></trkpt><trkpt lat="37.374925" lon="-2.5620789"><ele>936.0</ele><time>2026-04-11T16:33:48.4Z</time></trkpt><trkpt lat="37.375059" lon="-2.5623715"><ele>936.0</ele><time>2026-04-11T16:33:49.4Z</time></trkpt><trkpt lat="37.3751812" lon="-2.5626699"><ele>937.5</ele><time>2026-04-11T16:33:50.4Z</time></trkpt><trkpt lat="37.3752988" lon="-2.562969"><ele>939.0</ele><time>2026-04-11T16:33:51.4Z</time></trkpt><trkpt lat="37.3754161" lon="-2.5632696"><ele>941.5</ele><time>2026-04-11T16:33:52.4Z</time></trkpt><trkpt lat="37.3755277" lon="-2.563573"><ele>944.0</ele><time>2026-04-11T16:33:53.4Z</time></trkpt><trkpt lat="37.3756374" lon="-2.5638725"><ele>945.5</ele><time>2026-04-11T16:33:54.399Z</time></trkpt><trkpt lat="37.3757465" lon="-2.5641754"><ele>947.0</ele><time>2026-04-11T16:33:55.4Z</time></trkpt><trkpt lat="37.3758538" lon="-2.5644764"><ele>948.5</ele><time>2026-04-11T16:33:56.4Z</time></trkpt><trkpt lat="37.3759606" lon="-2.5647782"><ele>950.0</ele><time>2026-04-11T16:33:57.4Z</time></trkpt><trkpt lat="37.3760675" lon="-2.5650817"><ele>949.0</ele><time>2026-04-11T16:33:58.4Z</time></trkpt><trkpt lat="37.3761716" lon="-2.5653855"><ele>948.0</ele><time>2026-04-11T16:33:59.4Z</time></trkpt><trkpt lat="37.376281" lon="-2.5656882"><ele>953.0</ele><time>2026-04-11T16:34:00.4Z</time></trkpt><trkpt lat="37.3763898" lon="-2.5659893"><ele>958.0</ele><time>2026-04-11T16:34:01.4Z</time></trkpt><trkpt lat="37.3765002" lon="-2.5662926"><ele>958.0</ele><time>2026-04-11T16:34:02.4Z</time></trkpt><trkpt lat="37.3766095" lon="-2.5665954"><ele>958.0</ele><time>2026-04-11T16:34:03.4Z</time></trkpt><trkpt lat="37.3767191" lon="-2.5668989"><ele>959.5</ele><time>2026-04-11T16:34:04.4Z</time></trkpt><trkpt lat="37.3768218" lon="-2.5672064"><ele>961.0</ele><time>2026-04-11T16:34:05.4Z</time></trkpt><trkpt lat="37.3769296" lon="-2.5675098"><ele>961.0</ele><time>2026-04-11T16:34:06.4Z</time></trkpt><trkpt lat="37.3770372" lon="-2.5678136"><ele>961.0</ele><time>2026-04-11T16:34:07.4Z</time></trkpt><trkpt lat="37.3771462" lon="-2.5681222"><ele>962.5</ele><time>2026-04-11T16:34:08.4Z</time></trkpt><trkpt lat="37.3772583" lon="-2.5684278"><ele>964.0</ele><time>2026-04-11T16:34:09.399Z</time></trkpt><trkpt lat="37.3773705" lon="-2.5687347"><ele>961.0</ele><time>2026-04-11T16:34:10.4Z</time></trkpt><trkpt lat="37.3774878" lon="-2.5690454"><ele>958.0</ele><time>2026-04-11T16:34:11.4Z</time></trkpt><trkpt lat="37.3776051" lon="-2.5693571"><ele>954.0</ele><time>2026-04-11T16:34:12.399Z</time></trkpt><trkpt lat="37.3777239" lon="-2.569668"><ele>950.0</ele><time>2026-04-11T16:34:13.4Z</time></trkpt><trkpt lat="37.3778455" lon="-2.5699804"><ele>950.0</ele><time>2026-04-11T16:34:14.4Z</time></trkpt><trkpt lat="37.3779653" lon="-2.5702947"><ele>950.0</ele><time>2026-04-11T16:34:15.4Z</time></trkpt><trkpt lat="37.3780874" lon="-2.5706129"><ele>952.0</ele><time>2026-04-11T16:34:16.4Z</time></trkpt><trkpt lat="37.3782114" lon="-2.5709317"><ele>954.0</ele><time>2026-04-11T16:34:17.4Z</time></trkpt><trkpt lat="37.3783362" lon="-2.5712515"><ele>954.5</ele><time>2026-04-11T16:34:18.4Z</time></trkpt><trkpt lat="37.3784654" lon="-2.5715738"><ele>955.0</ele><time>2026-04-11T16:34:19.4Z</time></trkpt><trkpt lat="37.3785919" lon="-2.5718992"><ele>955.5</ele><time>2026-04-11T16:34:20.4Z</time></trkpt><trkpt lat="37.3787208" lon="-2.572232"><ele>956.0</ele><time>2026-04-11T16:34:21.4Z</time></trkpt><trkpt lat="37.3788533" lon="-2.5725726"><ele>953.5</ele><time>2026-04-11T16:34:22.4Z</time></trkpt><trkpt lat="37.378985" lon="-2.5729119"><ele>951.0</ele><time>2026-04-11T16:34:23.399Z</time></trkpt><trkpt lat="37.3791175" lon="-2.5732486"><ele>951.0</ele><time>2026-04-11T16:34:24.4Z</time></trkpt><trkpt lat="37.3792493" lon="-2.5735838"><ele>951.0</ele><time>2026-04-11T16:34:25.4Z</time></trkpt><trkpt lat="37.3793802" lon="-2.5739164"><ele>949.0</ele><time>2026-04-11T16:34:26.4Z</time></trkpt><trkpt lat="37.3795112" lon="-2.5742511"><ele>947.0</ele><time>2026-04-11T16:34:27.399Z</time></trkpt><trkpt lat="37.3796407" lon="-2.5745852"><ele>949.5</ele><time>2026-04-11T16:34:28.4Z</time></trkpt><trkpt lat="37.3797715" lon="-2.5749109"><ele>952.0</ele><time>2026-04-11T16:34:29.4Z</time></trkpt><trkpt lat="37.3798993" lon="-2.5752369"><ele>951.0</ele><time>2026-04-11T16:34:30.4Z</time></trkpt><trkpt lat="37.3800268" lon="-2.5755551"><ele>950.0</ele><time>2026-04-11T16:34:31.399Z</time></trkpt><trkpt lat="37.3801505" lon="-2.5758696"><ele>950.0</ele><time>2026-04-11T16:34:32.4Z</time></trkpt><trkpt lat="37.3802706" lon="-2.5761807"><ele>950.0</ele><time>2026-04-11T16:34:33.4Z</time></trkpt><trkpt lat="37.3803897" lon="-2.5764841"><ele>948.5</ele><time>2026-04-11T16:34:34.4Z</time></trkpt><trkpt lat="37.3805038" lon="-2.5767781"><ele>947.0</ele><time>2026-04-11T16:34:35.4Z</time></trkpt><trkpt lat="37.3806178" lon="-2.5770654"><ele>951.5</ele><time>2026-04-11T16:34:36.399Z</time></trkpt><trkpt lat="37.3807305" lon="-2.5773447"><ele>956.0</ele><time>2026-04-11T16:34:37.4Z</time></trkpt><trkpt lat="37.3808522" lon="-2.5776176"><ele>953.5</ele><time>2026-04-11T16:34:38.4Z</time></trkpt><trkpt lat="37.380994" lon="-2.5778808"><ele>951.0</ele><time>2026-04-11T16:34:39.399Z</time></trkpt><trkpt lat="37.381155" lon="-2.5781383"><ele>951.0</ele><time>2026-04-11T16:34:40.4Z</time></trkpt><trkpt lat="37.3813323" lon="-2.5783768"><ele>951.0</ele><time>2026-04-11T16:34:41.4Z</time></trkpt><trkpt lat="37.3815221" lon="-2.578604"><ele>953.5</ele><time>2026-04-11T16:34:42.4Z</time></trkpt><trkpt lat="37.3817177" lon="-2.5788341"><ele>956.0</ele><time>2026-04-11T16:34:43.4Z</time></trkpt><trkpt lat="37.3819158" lon="-2.5790707"><ele>956.0</ele><time>2026-04-11T16:34:44.4Z</time></trkpt><trkpt lat="37.3821081" lon="-2.5793177"><ele>956.0</ele><time>2026-04-11T16:34:45.4Z</time></trkpt><trkpt lat="37.3822957" lon="-2.579578"><ele>957.5</ele><time>2026-04-11T16:34:46.4Z</time></trkpt><trkpt lat="37.3824784" lon="-2.5798504"><ele>959.0</ele><time>2026-04-11T16:34:47.4Z</time></trkpt><trkpt lat="37.3826547" lon="-2.5801327"><ele>958.0</ele><time>2026-04-11T16:34:48.4Z</time></trkpt><trkpt lat="37.3828262" lon="-2.5804151"><ele>957.0</ele><time>2026-04-11T16:34:49.4Z</time></trkpt><trkpt lat="37.383009" lon="-2.5807058"><ele>959.0</ele><time>2026-04-11T16:34:50.4Z</time></trkpt><trkpt lat="37.383187" lon="-2.5809933"><ele>961.0</ele><time>2026-04-11T16:34:51.4Z</time></trkpt><trkpt lat="37.3833684" lon="-2.581289"><ele>961.5</ele><time>2026-04-11T16:34:52.4Z</time></trkpt><trkpt lat="37.3835502" lon="-2.581574"><ele>962.0</ele><time>2026-04-11T16:34:53.4Z</time></trkpt><trkpt lat="37.3837275" lon="-2.5818675"><ele>965.0</ele><time>2026-04-11T16:34:54.4Z</time></trkpt><trkpt lat="37.3839078" lon="-2.5821572"><ele>968.0</ele><time>2026-04-11T16:34:55.399Z</time></trkpt><trkpt lat="37.3840827" lon="-2.58244"><ele>968.0</ele><time>2026-04-11T16:34:56.4Z</time></trkpt><trkpt lat="37.3842549" lon="-2.5827174"><ele>968.0</ele><time>2026-04-11T16:34:57.4Z</time></trkpt><trkpt lat="37.3844246" lon="-2.5829928"><ele>970.0</ele><time>2026-04-11T16:34:58.4Z</time></trkpt><trkpt lat="37.3845882" lon="-2.5832566"><ele>972.0</ele><time>2026-04-11T16:34:59.4Z</time></trkpt><trkpt lat="37.3847495" lon="-2.5835174"><ele>968.0</ele><time>2026-04-11T16:35:00.4Z</time></trkpt><trkpt lat="37.384907" lon="-2.5837728"><ele>964.0</ele><time>2026-04-11T16:35:01.4Z</time></trkpt><trkpt lat="37.3850567" lon="-2.5840273"><ele>964.0</ele><time>2026-04-11T16:35:02.4Z</time></trkpt><trkpt lat="37.3852092" lon="-2.5842724"><ele>964.0</ele><time>2026-04-11T16:35:03.4Z</time></trkpt><trkpt lat="37.3853684" lon="-2.5845089"><ele>962.5</ele><time>2026-04-11T16:35:04.4Z</time></trkpt><trkpt lat="37.385536" lon="-2.5847367"><ele>961.0</ele><time>2026-04-11T16:35:05.399Z</time></trkpt><trkpt lat="37.3857236" lon="-2.5849436"><ele>961.0</ele><time>2026-04-11T16:35:06.4Z</time></trkpt><trkpt lat="37.3859381" lon="-2.5851249"><ele>961.0</ele><time>2026-04-11T16:35:07.399Z</time></trkpt><trkpt lat="37.3861644" lon="-2.5852804"><ele>960.0</ele><time>2026-04-11T16:35:08.4Z</time></trkpt><trkpt lat="37.3864023" lon="-2.5854188"><ele>959.0</ele><time>2026-04-11T16:35:09.4Z</time></trkpt><trkpt lat="37.3866485" lon="-2.5855429"><ele>959.0</ele><time>2026-04-11T16:35:10.4Z</time></trkpt><trkpt lat="37.3868986" lon="-2.5856575"><ele>959.0</ele><time>2026-04-11T16:35:11.4Z</time></trkpt><trkpt lat="37.387145" lon="-2.5857708"><ele>958.0</ele><time>2026-04-11T16:35:12.399Z</time></trkpt><trkpt lat="37.387387" lon="-2.5858915"><ele>957.0</ele><time>2026-04-11T16:35:13.4Z</time></trkpt><trkpt lat="37.3876177" lon="-2.5860211"><ele>957.0</ele><time>2026-04-11T16:35:14.4Z</time></trkpt><trkpt lat="37.3878342" lon="-2.5861648"><ele>957.0</ele><time>2026-04-11T16:35:15.399Z</time></trkpt><trkpt lat="37.3880435" lon="-2.5863215"><ele>956.0</ele><time>2026-04-11T16:35:16.4Z</time></trkpt><trkpt lat="37.3882417" lon="-2.5865002"><ele>955.0</ele><time>2026-04-11T16:35:17.4Z</time></trkpt><trkpt lat="37.3884271" lon="-2.5867061"><ele>955.0</ele><time>2026-04-11T16:35:18.4Z</time></trkpt><trkpt lat="37.3886282" lon="-2.58698"><ele>955.0</ele><time>2026-04-11T16:35:20.101Z</time></trkpt><trkpt lat="37.3888848" lon="-2.5874512"><ele>953.0</ele><time>2026-04-11T16:35:21.387Z</time></trkpt><trkpt lat="37.3890198" lon="-2.587727"><ele>951.0</ele><time>2026-04-11T16:35:22.39Z</time></trkpt><trkpt lat="37.3891521" lon="-2.5880051"><ele>948.5</ele><time>2026-04-11T16:35:23.39Z</time></trkpt><trkpt lat="37.3892783" lon="-2.5882863"><ele>946.0</ele><time>2026-04-11T16:35:24.397Z</time></trkpt><trkpt lat="37.3894165" lon="-2.5885637"><ele>943.0</ele><time>2026-04-11T16:35:25.388Z</time></trkpt><trkpt lat="37.3895627" lon="-2.5888289"><ele>940.0</ele><time>2026-04-11T16:35:26.387Z</time></trkpt><trkpt lat="37.3897199" lon="-2.5890855"><ele>940.0</ele><time>2026-04-11T16:35:27.387Z</time></trkpt><trkpt lat="37.3898911" lon="-2.5893233"><ele>940.0</ele><time>2026-04-11T16:35:28.388Z</time></trkpt><trkpt lat="37.3900745" lon="-2.5895517"><ele>940.0</ele><time>2026-04-11T16:35:29.388Z</time></trkpt><trkpt lat="37.3902666" lon="-2.5897696"><ele>940.0</ele><time>2026-04-11T16:35:30.388Z</time></trkpt><trkpt lat="37.3904673" lon="-2.5899765"><ele>940.5</ele><time>2026-04-11T16:35:31.387Z</time></trkpt><trkpt lat="37.3906694" lon="-2.5901768"><ele>941.0</ele><time>2026-04-11T16:35:32.388Z</time></trkpt><trkpt lat="37.3908822" lon="-2.5903636"><ele>945.0</ele><time>2026-04-11T16:35:33.388Z</time></trkpt><trkpt lat="37.3910967" lon="-2.5905431"><ele>949.0</ele><time>2026-04-11T16:35:34.387Z</time></trkpt><trkpt lat="37.391312" lon="-2.5907149"><ele>949.5</ele><time>2026-04-11T16:35:35.388Z</time></trkpt><trkpt lat="37.391522" lon="-2.5908822"><ele>950.0</ele><time>2026-04-11T16:35:36.388Z</time></trkpt><trkpt lat="37.3917279" lon="-2.5910435"><ele>951.6666666666667</ele><time>2026-04-11T16:35:37.388Z</time></trkpt><trkpt lat="37.3919155" lon="-2.5911937"><ele>953.3333333333333</ele><time>2026-04-11T16:35:38.388Z</time></trkpt><trkpt lat="37.3920937" lon="-2.5913371"><ele>955.0</ele><time>2026-04-11T16:35:39.387Z</time></trkpt><trkpt lat="37.392267" lon="-2.5914735"><ele>955.3333333333333</ele><time>2026-04-11T16:35:40.388Z</time></trkpt><trkpt lat="37.3924247" lon="-2.5915982"><ele>955.6666666666667</ele><time>2026-04-11T16:35:41.388Z</time></trkpt><trkpt lat="37.3925658" lon="-2.5917103"><ele>956.0</ele><time>2026-04-11T16:35:42.388Z</time></trkpt><trkpt lat="37.3926993" lon="-2.5918181"><ele>956.0</ele><time>2026-04-11T16:35:43.388Z</time></trkpt><trkpt lat="37.3928374" lon="-2.5919181"><ele>956.0</ele><time>2026-04-11T16:35:44.387Z</time></trkpt><trkpt lat="37.3929523" lon="-2.5920104"><ele>956.0</ele><time>2026-04-11T16:35:45.388Z</time></trkpt><trkpt lat="37.3930725" lon="-2.5921033"><ele>956.0</ele><time>2026-04-11T16:35:46.388Z</time></trkpt><trkpt lat="37.3931809" lon="-2.5921863"><ele>957.1999999999999</ele><time>2026-04-11T16:35:47.388Z</time></trkpt><trkpt lat="37.3932785" lon="-2.5922688"><ele>958.3999999999999</ele><time>2026-04-11T16:35:48.388Z</time></trkpt><trkpt lat="37.393359" lon="-2.5923331"><ele>959.6</ele><time>2026-04-11T16:35:49.388Z</time></trkpt><trkpt lat="37.3934162" lon="-2.592378"><ele>960.8</ele><time>2026-04-11T16:35:50.388Z</time></trkpt><trkpt lat="37.3935292" lon="-2.5924623"><ele>962.0</ele><time>2026-04-11T16:35:52.388Z</time></trkpt><trkpt lat="37.3935917" lon="-2.5925178"><ele>962.0</ele><time>2026-04-11T16:35:53.388Z</time></trkpt><trkpt lat="37.3936624" lon="-2.5925732"><ele>962.0</ele><time>2026-04-11T16:35:54.387Z</time></trkpt><trkpt lat="37.3937385" lon="-2.5926353"><ele>962.0</ele><time>2026-04-11T16:35:55.388Z</time></trkpt><trkpt lat="37.3938199" lon="-2.592705"><ele>962.0</ele><time>2026-04-11T16:35:56.388Z</time></trkpt><trkpt lat="37.3939078" lon="-2.5927713"><ele>962.0</ele><time>2026-04-11T16:35:57.387Z</time></trkpt><trkpt lat="37.3939866" lon="-2.5928466"><ele>962.5000000000001</ele><time>2026-04-11T16:35:58.388Z</time></trkpt><trkpt lat="37.3940627" lon="-2.5929111"><ele>963.0</ele><time>2026-04-11T16:35:59.388Z</time></trkpt><trkpt lat="37.3941436" lon="-2.5929704"><ele>963.5</ele><time>2026-04-11T16:36:00.388Z</time></trkpt><trkpt lat="37.3942189" lon="-2.5930239"><ele>964.0</ele><time>2026-04-11T16:36:01.387Z</time></trkpt><trkpt lat="37.3942822" lon="-2.5930713"><ele>964.5000000000001</ele><time>2026-04-11T16:36:02.387Z</time></trkpt><trkpt lat="37.3943454" lon="-2.5931186"><ele>965.0</ele><time>2026-04-11T16:36:03.388Z</time></trkpt><trkpt lat="37.3944083" lon="-2.5931673"><ele>965.0</ele><time>2026-04-11T16:36:04.388Z</time></trkpt><trkpt lat="37.3944687" lon="-2.5932113"><ele>965.0</ele><time>2026-04-11T16:36:05.388Z</time></trkpt><trkpt lat="37.3945271" lon="-2.5932562"><ele>965.0</ele><time>2026-04-11T16:36:06.388Z</time></trkpt><trkpt lat="37.3945832" lon="-2.5933062"><ele>965.0</ele><time>2026-04-11T16:36:07.388Z</time></trkpt><trkpt lat="37.3946435" lon="-2.5933548"><ele>965.0</ele><time>2026-04-11T16:36:08.387Z</time></trkpt><trkpt lat="37.3947083" lon="-2.593407"><ele>965.0</ele><time>2026-04-11T16:36:09.388Z</time></trkpt><trkpt lat="37.3947779" lon="-2.5934627"><ele>965.0</ele><time>2026-04-11T16:36:10.388Z</time></trkpt><trkpt lat="37.3948475" lon="-2.5935211"><ele>965.4</ele><time>2026-04-11T16:36:11.388Z</time></trkpt><trkpt lat="37.3949211" lon="-2.5935802"><ele>965.8</ele><time>2026-04-11T16:36:12.387Z</time></trkpt><trkpt lat="37.3949961" lon="-2.593644"><ele>966.2</ele><time>2026-04-11T16:36:13.387Z</time></trkpt><trkpt lat="37.3950758" lon="-2.5937069"><ele>966.6</ele><time>2026-04-11T16:36:14.388Z</time></trkpt><trkpt lat="37.395162" lon="-2.5937769"><ele>967.0</ele><time>2026-04-11T16:36:15.387Z</time></trkpt><trkpt lat="37.3952514" lon="-2.5938444"><ele>967.0</ele><time>2026-04-11T16:36:16.387Z</time></trkpt><trkpt lat="37.3953386" lon="-2.5939146"><ele>967.0</ele><time>2026-04-11T16:36:17.388Z</time></trkpt><trkpt lat="37.3954256" lon="-2.5939848"><ele>967.0</ele><time>2026-04-11T16:36:18.388Z</time></trkpt><trkpt lat="37.3955132" lon="-2.5940586"><ele>967.0</ele><time>2026-04-11T16:36:19.388Z</time></trkpt><trkpt lat="37.3956051" lon="-2.594135"><ele>967.0</ele><time>2026-04-11T16:36:20.388Z</time></trkpt><trkpt lat="37.395705" lon="-2.594217"><ele>966.25</ele><time>2026-04-11T16:36:21.388Z</time></trkpt><trkpt lat="37.3958071" lon="-2.5943003"><ele>965.5</ele><time>2026-04-11T16:36:22.388Z</time></trkpt><trkpt lat="37.3959082" lon="-2.5943865"><ele>964.75</ele><time>2026-04-11T16:36:23.388Z</time></trkpt><trkpt lat="37.3960095" lon="-2.5944676"><ele>964.0</ele><time>2026-04-11T16:36:24.388Z</time></trkpt><trkpt lat="37.3961056" lon="-2.5945466"><ele>964.0</ele><time>2026-04-11T16:36:25.388Z</time></trkpt><trkpt lat="37.3962012" lon="-2.5946265"><ele>964.0000000000001</ele><time>2026-04-11T16:36:26.388Z</time></trkpt><trkpt lat="37.3962962" lon="-2.5947018"><ele>964.0000000000001</ele><time>2026-04-11T16:36:27.388Z</time></trkpt><trkpt lat="37.3963877" lon="-2.594774"><ele>964.0</ele><time>2026-04-11T16:36:28.388Z</time></trkpt><trkpt lat="37.3964754" lon="-2.5948452"><ele>964.0</ele><time>2026-04-11T16:36:29.387Z</time></trkpt><trkpt lat="37.3965642" lon="-2.5949128"><ele>965.4999999999999</ele><time>2026-04-11T16:36:30.388Z</time></trkpt><trkpt lat="37.3966442" lon="-2.5949768"><ele>967.0</ele><time>2026-04-11T16:36:31.388Z</time></trkpt><trkpt lat="37.3967143" lon="-2.5950295"><ele>968.5</ele><time>2026-04-11T16:36:32.388Z</time></trkpt><trkpt lat="37.3967722" lon="-2.5950758"><ele>970.0</ele><time>2026-04-11T16:36:33.388Z</time></trkpt><trkpt lat="37.3968478" lon="-2.595132"><ele>971.4999999999999</ele><time>2026-04-11T16:36:35.388Z</time></trkpt><trkpt lat="37.3969113" lon="-2.5951815"><ele>973.0</ele><time>2026-04-11T16:36:37.388Z</time></trkpt><trkpt lat="37.3969758" lon="-2.5952369"><ele>972.9999999999999</ele><time>2026-04-11T16:36:39.388Z</time></trkpt><trkpt lat="37.3970679" lon="-2.5953123"><ele>973.0</ele><time>2026-04-11T16:36:41.388Z</time></trkpt><trkpt lat="37.3971252" lon="-2.5953614"><ele>973.0</ele><time>2026-04-11T16:36:42.388Z</time></trkpt><trkpt lat="37.3971961" lon="-2.5954107"><ele>973.0</ele><time>2026-04-11T16:36:43.388Z</time></trkpt><trkpt lat="37.397257" lon="-2.595462"><ele>972.9999999999999</ele><time>2026-04-11T16:36:44.388Z</time></trkpt><trkpt lat="37.3973257" lon="-2.5955168"><ele>973.0</ele><time>2026-04-11T16:36:45.387Z</time></trkpt><trkpt lat="37.3974023" lon="-2.5955701"><ele>972.5999999999999</ele><time>2026-04-11T16:36:46.388Z</time></trkpt><trkpt lat="37.397476" lon="-2.5956291"><ele>972.1999999999999</ele><time>2026-04-11T16:36:47.388Z</time></trkpt><trkpt lat="37.3975554" lon="-2.5956877"><ele>971.8</ele><time>2026-04-11T16:36:48.388Z</time></trkpt><trkpt lat="37.3976339" lon="-2.595751"><ele>971.4</ele><time>2026-04-11T16:36:49.388Z</time></trkpt><trkpt lat="37.3977132" lon="-2.5958165"><ele>971.0</ele><time>2026-04-11T16:36:50.388Z</time></trkpt><trkpt lat="37.3977939" lon="-2.5958849"><ele>971.0</ele><time>2026-04-11T16:36:51.388Z</time></trkpt><trkpt lat="37.3978794" lon="-2.5959588"><ele>970.9999999999999</ele><time>2026-04-11T16:36:52.388Z</time></trkpt><trkpt lat="37.397969" lon="-2.596027"><ele>970.9999999999999</ele><time>2026-04-11T16:36:53.387Z</time></trkpt><trkpt lat="37.3980591" lon="-2.5960989"><ele>971.0</ele><time>2026-04-11T16:36:54.388Z</time></trkpt><trkpt lat="37.3981505" lon="-2.5961748"><ele>971.0</ele><time>2026-04-11T16:36:55.388Z</time></trkpt><trkpt lat="37.3982423" lon="-2.596252"><ele>971.25</ele><time>2026-04-11T16:36:56.387Z</time></trkpt><trkpt lat="37.3983347" lon="-2.5963316"><ele>971.5</ele><time>2026-04-11T16:36:57.388Z</time></trkpt><trkpt lat="37.3984325" lon="-2.5964088"><ele>971.75</ele><time>2026-04-11T16:36:58.388Z</time></trkpt><trkpt lat="37.3985343" lon="-2.5964845"><ele>972.0</ele><time>2026-04-11T16:36:59.388Z</time></trkpt><trkpt lat="37.3986373" lon="-2.5965658"><ele>972.0</ele><time>2026-04-11T16:37:00.388Z</time></trkpt><trkpt lat="37.3987438" lon="-2.5966475"><ele>972.0</ele><time>2026-04-11T16:37:01.388Z</time></trkpt><trkpt lat="37.398853" lon="-2.5967355"><ele>972.0</ele><time>2026-04-11T16:37:02.388Z</time></trkpt><trkpt lat="37.3989674" lon="-2.596826"><ele>972.0</ele><time>2026-04-11T16:37:03.388Z</time></trkpt><trkpt lat="37.3990846" lon="-2.5969201"><ele>971.75</ele><time>2026-04-11T16:37:04.388Z</time></trkpt><trkpt lat="37.3992009" lon="-2.5970226"><ele>971.5</ele><time>2026-04-11T16:37:05.388Z</time></trkpt><trkpt lat="37.3993143" lon="-2.5971329"><ele>971.25</ele><time>2026-04-11T16:37:06.388Z</time></trkpt><trkpt lat="37.3994258" lon="-2.5972511"><ele>971.0</ele><time>2026-04-11T16:37:07.388Z</time></trkpt><trkpt lat="37.399529" lon="-2.5973812"><ele>971.0</ele><time>2026-04-11T16:37:08.388Z</time></trkpt><trkpt lat="37.3996248" lon="-2.5975215"><ele>971.0</ele><time>2026-04-11T16:37:09.388Z</time></trkpt><trkpt lat="37.3997137" lon="-2.5976702"><ele>971.0</ele><time>2026-04-11T16:37:10.388Z</time></trkpt><trkpt lat="37.3997931" lon="-2.5978203"><ele>971.0</ele><time>2026-04-11T16:37:11.388Z</time></trkpt><trkpt lat="37.3998653" lon="-2.5979809"><ele>971.5</ele><time>2026-04-11T16:37:12.388Z</time></trkpt><trkpt lat="37.3999282" lon="-2.5981499"><ele>972.0</ele><time>2026-04-11T16:37:13.388Z</time></trkpt><trkpt lat="37.3999789" lon="-2.5983231"><ele>972.5</ele><time>2026-04-11T16:37:14.388Z</time></trkpt><trkpt lat="37.4000224" lon="-2.5985008"><ele>973.0</ele><time>2026-04-11T16:37:15.387Z</time></trkpt><trkpt lat="37.4000563" lon="-2.5986851"><ele>974.0</ele><time>2026-04-11T16:37:16.388Z</time></trkpt><trkpt lat="37.4000848" lon="-2.5988641"><ele>975.0</ele><time>2026-04-11T16:37:17.388Z</time></trkpt><trkpt lat="37.4000975" lon="-2.5990507"><ele>976.0</ele><time>2026-04-11T16:37:18.388Z</time></trkpt><trkpt lat="37.4001021" lon="-2.5992404"><ele>977.0</ele><time>2026-04-11T16:37:19.388Z</time></trkpt><trkpt lat="37.4001004" lon="-2.5994297"><ele>977.6666666666667</ele><time>2026-04-11T16:37:20.387Z</time></trkpt><trkpt lat="37.4000976" lon="-2.5996192"><ele>978.3333333333333</ele><time>2026-04-11T16:37:21.388Z</time></trkpt><trkpt lat="37.4000962" lon="-2.5998129"><ele>979.0</ele><time>2026-04-11T16:37:22.388Z</time></trkpt><trkpt lat="37.4000936" lon="-2.6000062"><ele>979.0</ele><time>2026-04-11T16:37:23.388Z</time></trkpt><trkpt lat="37.40009" lon="-2.600202"><ele>979.0</ele><time>2026-04-11T16:37:24.388Z</time></trkpt><trkpt lat="37.4000866" lon="-2.6003941"><ele>979.0</ele><time>2026-04-11T16:37:25.388Z</time></trkpt><trkpt lat="37.4000822" lon="-2.6005908"><ele>980.3333333333333</ele><time>2026-04-11T16:37:26.388Z</time></trkpt><trkpt lat="37.4000793" lon="-2.6007895"><ele>981.6666666666667</ele><time>2026-04-11T16:37:27.388Z</time></trkpt><trkpt lat="37.4000778" lon="-2.6009893"><ele>983.0</ele><time>2026-04-11T16:37:28.388Z</time></trkpt><trkpt lat="37.400076" lon="-2.6011912"><ele>983.0</ele><time>2026-04-11T16:37:29.388Z</time></trkpt><trkpt lat="37.4000853" lon="-2.6013932"><ele>983.0</ele><time>2026-04-11T16:37:30.388Z</time></trkpt><trkpt lat="37.4000957" lon="-2.6015943"><ele>983.0</ele><time>2026-04-11T16:37:31.387Z</time></trkpt><trkpt lat="37.4001152" lon="-2.6017892"><ele>983.0</ele><time>2026-04-11T16:37:32.387Z</time></trkpt><trkpt lat="37.4001375" lon="-2.6019791"><ele>983.0</ele><time>2026-04-11T16:37:33.388Z</time></trkpt><trkpt lat="37.400173" lon="-2.6021612"><ele>983.0</ele><time>2026-04-11T16:37:34.388Z</time></trkpt><trkpt lat="37.4002155" lon="-2.6023405"><ele>983.5</ele><time>2026-04-11T16:37:35.388Z</time></trkpt><trkpt lat="37.4002591" lon="-2.602518"><ele>984.0</ele><time>2026-04-11T16:37:36.388Z</time></trkpt><trkpt lat="37.4003053" lon="-2.602699"><ele>984.5</ele><time>2026-04-11T16:37:37.387Z</time></trkpt><trkpt lat="37.4003509" lon="-2.6028797"><ele>985.0</ele><time>2026-04-11T16:37:38.388Z</time></trkpt><trkpt lat="37.4004007" lon="-2.6030611"><ele>985.3333333333333</ele><time>2026-04-11T16:37:39.388Z</time></trkpt><trkpt lat="37.4004492" lon="-2.6032449"><ele>985.6666666666667</ele><time>2026-04-11T16:37:40.388Z</time></trkpt><trkpt lat="37.4004978" lon="-2.6034313"><ele>986.0</ele><time>2026-04-11T16:37:41.388Z</time></trkpt><trkpt lat="37.4005435" lon="-2.6036133"><ele>986.6666666666667</ele><time>2026-04-11T16:37:42.388Z</time></trkpt><trkpt lat="37.400592" lon="-2.6038017"><ele>987.3333333333333</ele><time>2026-04-11T16:37:43.388Z</time></trkpt><trkpt lat="37.4006383" lon="-2.6039875"><ele>988.0</ele><time>2026-04-11T16:37:44.388Z</time></trkpt><trkpt lat="37.4006859" lon="-2.6041765"><ele>988.0</ele><time>2026-04-11T16:37:45.388Z</time></trkpt><trkpt lat="37.4007387" lon="-2.6043721"><ele>988.0</ele><time>2026-04-11T16:37:46.388Z</time></trkpt><trkpt lat="37.4007925" lon="-2.6045691"><ele>988.0</ele><time>2026-04-11T16:37:47.388Z</time></trkpt><trkpt lat="37.400845" lon="-2.6047669"><ele>987.0</ele><time>2026-04-11T16:37:48.387Z</time></trkpt><trkpt lat="37.4009006" lon="-2.6049696"><ele>986.0</ele><time>2026-04-11T16:37:49.388Z</time></trkpt><trkpt lat="37.4009603" lon="-2.6051747"><ele>985.0</ele><time>2026-04-11T16:37:50.388Z</time></trkpt><trkpt lat="37.401023" lon="-2.605385"><ele>983.6666666666666</ele><time>2026-04-11T16:37:51.387Z</time></trkpt><trkpt lat="37.4010846" lon="-2.6055964"><ele>982.3333333333333</ele><time>2026-04-11T16:37:52.388Z</time></trkpt><trkpt lat="37.4011423" lon="-2.6058107"><ele>981.0</ele><time>2026-04-11T16:37:53.388Z</time></trkpt><trkpt lat="37.4012011" lon="-2.6060223"><ele>981.3333333333333</ele><time>2026-04-11T16:37:54.388Z</time></trkpt><trkpt lat="37.4012598" lon="-2.6062322"><ele>981.6666666666666</ele><time>2026-04-11T16:37:55.388Z</time></trkpt><trkpt lat="37.4013158" lon="-2.6064467"><ele>982.0</ele><time>2026-04-11T16:37:56.388Z</time></trkpt><trkpt lat="37.4013726" lon="-2.6066572"><ele>982.0</ele><time>2026-04-11T16:37:57.388Z</time></trkpt><trkpt lat="37.4014259" lon="-2.6068684"><ele>982.0</ele><time>2026-04-11T16:37:58.388Z</time></trkpt><trkpt lat="37.4014807" lon="-2.6070771"><ele>982.0</ele><time>2026-04-11T16:37:59.387Z</time></trkpt><trkpt lat="37.4015339" lon="-2.6072909"><ele>982.0</ele><time>2026-04-11T16:38:00.388Z</time></trkpt><trkpt lat="37.401588" lon="-2.6075016"><ele>982.0</ele><time>2026-04-11T16:38:01.388Z</time></trkpt><trkpt lat="37.4016409" lon="-2.6077104"><ele>982.0</ele><time>2026-04-11T16:38:02.388Z</time></trkpt><trkpt lat="37.4016952" lon="-2.6079192"><ele>982.0</ele><time>2026-04-11T16:38:03.388Z</time></trkpt><trkpt lat="37.4017486" lon="-2.608126"><ele>982.0</ele><time>2026-04-11T16:38:04.388Z</time></trkpt><trkpt lat="37.4018007" lon="-2.6083346"><ele>982.0</ele><time>2026-04-11T16:38:05.388Z</time></trkpt><trkpt lat="37.4018561" lon="-2.608548"><ele>982.0</ele><time>2026-04-11T16:38:06.388Z</time></trkpt><trkpt lat="37.4019133" lon="-2.60876"><ele>982.0</ele><time>2026-04-11T16:38:07.388Z</time></trkpt><trkpt lat="37.4019721" lon="-2.6089769"><ele>982.0</ele><time>2026-04-11T16:38:08.388Z</time></trkpt><trkpt lat="37.4020275" lon="-2.6091942"><ele>982.0</ele><time>2026-04-11T16:38:09.388Z</time></trkpt><trkpt lat="37.4020851" lon="-2.6094107"><ele>982.0</ele><time>2026-04-11T16:38:10.388Z</time></trkpt><trkpt lat="37.4021411" lon="-2.6096267"><ele>982.0</ele><time>2026-04-11T16:38:11.388Z</time></trkpt><trkpt lat="37.4021974" lon="-2.6098477"><ele>982.0</ele><time>2026-04-11T16:38:12.387Z</time></trkpt><trkpt lat="37.4022528" lon="-2.6100692"><ele>982.0</ele><time>2026-04-11T16:38:13.388Z</time></trkpt><trkpt lat="37.40231" lon="-2.6102922"><ele>982.0</ele><time>2026-04-11T16:38:14.388Z</time></trkpt><trkpt lat="37.4023693" lon="-2.6105139"><ele>981.3333333333333</ele><time>2026-04-11T16:38:15.388Z</time></trkpt><trkpt lat="37.4024275" lon="-2.6107366"><ele>980.6666666666667</ele><time>2026-04-11T16:38:16.388Z</time></trkpt><trkpt lat="37.4024856" lon="-2.6109611"><ele>980.0</ele><time>2026-04-11T16:38:17.387Z</time></trkpt><trkpt lat="37.4025416" lon="-2.6111829"><ele>979.6666666666667</ele><time>2026-04-11T16:38:18.388Z</time></trkpt><trkpt lat="37.4025955" lon="-2.6114083"><ele>979.3333333333333</ele><time>2026-04-11T16:38:19.388Z</time></trkpt><trkpt lat="37.4026506" lon="-2.6116389"><ele>979.0</ele><time>2026-04-11T16:38:20.388Z</time></trkpt><trkpt lat="37.4027089" lon="-2.6118685"><ele>978.3333333333333</ele><time>2026-04-11T16:38:21.388Z</time></trkpt><trkpt lat="37.4027676" lon="-2.6120976"><ele>977.6666666666667</ele><time>2026-04-11T16:38:22.388Z</time></trkpt><trkpt lat="37.4028229" lon="-2.6123308"><ele>977.0</ele><time>2026-04-11T16:38:23.388Z</time></trkpt><trkpt lat="37.4028764" lon="-2.6125652"><ele>977.0</ele><time>2026-04-11T16:38:24.387Z</time></trkpt><trkpt lat="37.4029296" lon="-2.6128095"><ele>977.0</ele><time>2026-04-11T16:38:25.387Z</time></trkpt><trkpt lat="37.4029841" lon="-2.6130676"><ele>977.0</ele><time>2026-04-11T16:38:26.388Z</time></trkpt><trkpt lat="37.4030491" lon="-2.6133264"><ele>976.3333333333334</ele><time>2026-04-11T16:38:27.388Z</time></trkpt><trkpt lat="37.4031208" lon="-2.6135912"><ele>975.6666666666667</ele><time>2026-04-11T16:38:28.388Z</time></trkpt><trkpt lat="37.403186" lon="-2.6138485"><ele>975.0</ele><time>2026-04-11T16:38:29.388Z</time></trkpt><trkpt lat="37.4032471" lon="-2.6140971"><ele>975.0</ele><time>2026-04-11T16:38:30.388Z</time></trkpt><trkpt lat="37.4033077" lon="-2.6143398"><ele>975.0</ele><time>2026-04-11T16:38:31.388Z</time></trkpt><trkpt lat="37.4033718" lon="-2.6145749"><ele>975.0</ele><time>2026-04-11T16:38:32.388Z</time></trkpt><trkpt lat="37.4034362" lon="-2.6148099"><ele>975.0</ele><time>2026-04-11T16:38:33.388Z</time></trkpt><trkpt lat="37.4034973" lon="-2.6150448"><ele>975.0</ele><time>2026-04-11T16:38:34.387Z</time></trkpt><trkpt lat="37.4035564" lon="-2.6152796"><ele>975.0</ele><time>2026-04-11T16:38:35.388Z</time></trkpt><trkpt lat="37.4036144" lon="-2.6155133"><ele>974.0</ele><time>2026-04-11T16:38:36.388Z</time></trkpt><trkpt lat="37.4036752" lon="-2.6157449"><ele>973.0</ele><time>2026-04-11T16:38:37.388Z</time></trkpt><trkpt lat="37.4037398" lon="-2.6159872"><ele>972.0</ele><time>2026-04-11T16:38:38.388Z</time></trkpt><trkpt lat="37.4037987" lon="-2.6162215"><ele>972.3333333333333</ele><time>2026-04-11T16:38:39.388Z</time></trkpt><trkpt lat="37.4038522" lon="-2.6164333"><ele>972.6666666666666</ele><time>2026-04-11T16:38:40.387Z</time></trkpt><trkpt lat="37.4039056" lon="-2.6166471"><ele>973.0</ele><time>2026-04-11T16:38:41.388Z</time></trkpt><trkpt lat="37.4039596" lon="-2.616856"><ele>972.6666666666666</ele><time>2026-04-11T16:38:42.387Z</time></trkpt><trkpt lat="37.4040147" lon="-2.6170641"><ele>972.3333333333333</ele><time>2026-04-11T16:38:43.387Z</time></trkpt><trkpt lat="37.4040719" lon="-2.6172716"><ele>972.0</ele><time>2026-04-11T16:38:44.387Z</time></trkpt><trkpt lat="37.4041285" lon="-2.6174777"><ele>972.0</ele><time>2026-04-11T16:38:45.388Z</time></trkpt><trkpt lat="37.4041827" lon="-2.6176859"><ele>972.0</ele><time>2026-04-11T16:38:46.388Z</time></trkpt><trkpt lat="37.4042374" lon="-2.6178937"><ele>972.0</ele><time>2026-04-11T16:38:47.388Z</time></trkpt><trkpt lat="37.4042917" lon="-2.6180991"><ele>971.3333333333333</ele><time>2026-04-11T16:38:48.388Z</time></trkpt><trkpt lat="37.4043455" lon="-2.6183031"><ele>970.6666666666666</ele><time>2026-04-11T16:38:49.388Z</time></trkpt><trkpt lat="37.4043975" lon="-2.6185087"><ele>970.0</ele><time>2026-04-11T16:38:50.388Z</time></trkpt><trkpt lat="37.4044496" lon="-2.6187146"><ele>969.6666666666666</ele><time>2026-04-11T16:38:51.387Z</time></trkpt><trkpt lat="37.4045034" lon="-2.6189273"><ele>969.3333333333333</ele><time>2026-04-11T16:38:52.388Z</time></trkpt><trkpt lat="37.4045605" lon="-2.6191522"><ele>969.0</ele><time>2026-04-11T16:38:53.388Z</time></trkpt><trkpt lat="37.404619" lon="-2.6193837"><ele>970.0</ele><time>2026-04-11T16:38:54.388Z</time></trkpt><trkpt lat="37.4046779" lon="-2.6196101"><ele>971.0</ele><time>2026-04-11T16:38:55.388Z</time></trkpt><trkpt lat="37.4047372" lon="-2.6198377"><ele>972.0</ele><time>2026-04-11T16:38:56.387Z</time></trkpt><trkpt lat="37.4047951" lon="-2.6200565"><ele>972.0</ele><time>2026-04-11T16:38:57.388Z</time></trkpt><trkpt lat="37.4048517" lon="-2.6202743"><ele>972.0</ele><time>2026-04-11T16:38:58.388Z</time></trkpt><trkpt lat="37.4049079" lon="-2.6204891"><ele>972.0</ele><time>2026-04-11T16:38:59.388Z</time></trkpt><trkpt lat="37.4049641" lon="-2.6207037"><ele>972.3333333333333</ele><time>2026-04-11T16:39:00.388Z</time></trkpt><trkpt lat="37.4050185" lon="-2.6209198"><ele>972.6666666666666</ele><time>2026-04-11T16:39:01.388Z</time></trkpt><trkpt lat="37.4050761" lon="-2.6211369"><ele>973.0</ele><time>2026-04-11T16:39:02.387Z</time></trkpt><trkpt lat="37.4051326" lon="-2.6213547"><ele>973.0</ele><time>2026-04-11T16:39:03.388Z</time></trkpt><trkpt lat="37.4051868" lon="-2.6215711"><ele>973.0</ele><time>2026-04-11T16:39:04.388Z</time></trkpt><trkpt lat="37.4052428" lon="-2.6217841"><ele>973.0</ele><time>2026-04-11T16:39:05.387Z</time></trkpt><trkpt lat="37.4052979" lon="-2.6219957"><ele>973.0</ele><time>2026-04-11T16:39:06.387Z</time></trkpt><trkpt lat="37.4053538" lon="-2.6222082"><ele>973.0</ele><time>2026-04-11T16:39:07.388Z</time></trkpt><trkpt lat="37.4054094" lon="-2.6224224"><ele>973.0</ele><time>2026-04-11T16:39:08.387Z</time></trkpt><trkpt lat="37.4054679" lon="-2.6226388"><ele>972.6666666666666</ele><time>2026-04-11T16:39:09.388Z</time></trkpt><trkpt lat="37.405526" lon="-2.6228528"><ele>972.3333333333333</ele><time>2026-04-11T16:39:10.388Z</time></trkpt><trkpt lat="37.4055844" lon="-2.623078"><ele>972.0</ele><time>2026-04-11T16:39:11.388Z</time></trkpt><trkpt lat="37.4056419" lon="-2.6233079"><ele>972.0</ele><time>2026-04-11T16:39:12.387Z</time></trkpt><trkpt lat="37.4057049" lon="-2.6235462"><ele>972.0</ele><time>2026-04-11T16:39:13.388Z</time></trkpt><trkpt lat="37.4057659" lon="-2.623787"><ele>972.0</ele><time>2026-04-11T16:39:14.388Z</time></trkpt><trkpt lat="37.4058303" lon="-2.6240325"><ele>972.0</ele><time>2026-04-11T16:39:15.387Z</time></trkpt><trkpt lat="37.4058938" lon="-2.6242855"><ele>972.0</ele><time>2026-04-11T16:39:16.388Z</time></trkpt><trkpt lat="37.40596" lon="-2.6245385"><ele>972.0</ele><time>2026-04-11T16:39:17.388Z</time></trkpt><trkpt lat="37.4060255" lon="-2.6247917"><ele>972.6666666666667</ele><time>2026-04-11T16:39:18.388Z</time></trkpt><trkpt lat="37.4060936" lon="-2.6250384"><ele>973.3333333333334</ele><time>2026-04-11T16:39:19.388Z</time></trkpt><trkpt lat="37.4061593" lon="-2.6252921"><ele>974.0</ele><time>2026-04-11T16:39:20.388Z</time></trkpt><trkpt lat="37.4062273" lon="-2.6255509"><ele>974.0</ele><time>2026-04-11T16:39:21.388Z</time></trkpt><trkpt lat="37.406293" lon="-2.6258102"><ele>974.0</ele><time>2026-04-11T16:39:22.387Z</time></trkpt><trkpt lat="37.4063587" lon="-2.6260702"><ele>974.0</ele><time>2026-04-11T16:39:23.387Z</time></trkpt><trkpt lat="37.4064264" lon="-2.6263257"><ele>974.0</ele><time>2026-04-11T16:39:24.388Z</time></trkpt><trkpt lat="37.406491" lon="-2.6265852"><ele>974.0</ele><time>2026-04-11T16:39:25.388Z</time></trkpt><trkpt lat="37.406558" lon="-2.6268413"><ele>974.0</ele><time>2026-04-11T16:39:26.388Z</time></trkpt><trkpt lat="37.4066238" lon="-2.627098"><ele>975.0</ele><time>2026-04-11T16:39:27.388Z</time></trkpt><trkpt lat="37.4066878" lon="-2.6273525"><ele>976.0</ele><time>2026-04-11T16:39:28.388Z</time></trkpt><trkpt lat="37.4067503" lon="-2.6275964"><ele>977.0</ele><time>2026-04-11T16:39:29.388Z</time></trkpt><trkpt lat="37.4068144" lon="-2.6278361"><ele>978.0</ele><time>2026-04-11T16:39:30.387Z</time></trkpt><trkpt lat="37.4068803" lon="-2.6280761"><ele>979.0</ele><time>2026-04-11T16:39:31.388Z</time></trkpt><trkpt lat="37.4069385" lon="-2.6283077"><ele>980.0</ele><time>2026-04-11T16:39:32.388Z</time></trkpt><trkpt lat="37.4069986" lon="-2.6285427"><ele>980.6666666666667</ele><time>2026-04-11T16:39:33.388Z</time></trkpt><trkpt lat="37.4070607" lon="-2.6287781"><ele>981.3333333333333</ele><time>2026-04-11T16:39:34.388Z</time></trkpt><trkpt lat="37.4071187" lon="-2.6290113"><ele>982.0</ele><time>2026-04-11T16:39:35.388Z</time></trkpt><trkpt lat="37.4071797" lon="-2.6292484"><ele>983.0</ele><time>2026-04-11T16:39:36.387Z</time></trkpt><trkpt lat="37.4072413" lon="-2.6294822"><ele>984.0</ele><time>2026-04-11T16:39:37.387Z</time></trkpt><trkpt lat="37.4073043" lon="-2.62972"><ele>985.0</ele><time>2026-04-11T16:39:38.388Z</time></trkpt><trkpt lat="37.4073675" lon="-2.6299612"><ele>985.0</ele><time>2026-04-11T16:39:39.388Z</time></trkpt><trkpt lat="37.4074309" lon="-2.6301986"><ele>985.0</ele><time>2026-04-11T16:39:40.387Z</time></trkpt><trkpt lat="37.4074919" lon="-2.630436"><ele>985.0</ele><time>2026-04-11T16:39:41.387Z</time></trkpt><trkpt lat="37.4075535" lon="-2.6306701"><ele>986.3333333333333</ele><time>2026-04-11T16:39:42.388Z</time></trkpt><trkpt lat="37.4076157" lon="-2.6309057"><ele>987.6666666666667</ele><time>2026-04-11T16:39:43.388Z</time></trkpt><trkpt lat="37.407678" lon="-2.6311442"><ele>989.0</ele><time>2026-04-11T16:39:44.388Z</time></trkpt><trkpt lat="37.4077379" lon="-2.6313834"><ele>989.6666666666667</ele><time>2026-04-11T16:39:45.388Z</time></trkpt><trkpt lat="37.4078001" lon="-2.6316198"><ele>990.3333333333333</ele><time>2026-04-11T16:39:46.388Z</time></trkpt><trkpt lat="37.4078609" lon="-2.6318523"><ele>991.0</ele><time>2026-04-11T16:39:47.388Z</time></trkpt><trkpt lat="37.4079203" lon="-2.6320791"><ele>992.0</ele><time>2026-04-11T16:39:48.388Z</time></trkpt><trkpt lat="37.4079805" lon="-2.6323107"><ele>993.0</ele><time>2026-04-11T16:39:49.387Z</time></trkpt><trkpt lat="37.4080394" lon="-2.6325408"><ele>994.0</ele><time>2026-04-11T16:39:50.388Z</time></trkpt><trkpt lat="37.4081018" lon="-2.6327739"><ele>995.0</ele><time>2026-04-11T16:39:51.388Z</time></trkpt><trkpt lat="37.4081622" lon="-2.633009"><ele>996.0</ele><time>2026-04-11T16:39:52.388Z</time></trkpt><trkpt lat="37.4082235" lon="-2.6332394"><ele>997.0</ele><time>2026-04-11T16:39:53.388Z</time></trkpt><trkpt lat="37.408287" lon="-2.6334747"><ele>996.3333333333333</ele><time>2026-04-11T16:39:54.388Z</time></trkpt><trkpt lat="37.4083521" lon="-2.633709"><ele>995.6666666666667</ele><time>2026-04-11T16:39:55.388Z</time></trkpt><trkpt lat="37.4084151" lon="-2.6339475"><ele>995.0</ele><time>2026-04-11T16:39:56.387Z</time></trkpt><trkpt lat="37.4084787" lon="-2.6341929"><ele>995.0</ele><time>2026-04-11T16:39:57.388Z</time></trkpt><trkpt lat="37.4085421" lon="-2.63444"><ele>995.0</ele><time>2026-04-11T16:39:58.388Z</time></trkpt><trkpt lat="37.4086053" lon="-2.6346982"><ele>995.0</ele><time>2026-04-11T16:39:59.388Z</time></trkpt><trkpt lat="37.4086695" lon="-2.6349619"><ele>994.5</ele><time>2026-04-11T16:40:00.387Z</time></trkpt><trkpt lat="37.4087399" lon="-2.6352337"><ele>994.0</ele><time>2026-04-11T16:40:01.388Z</time></trkpt><trkpt lat="37.4088119" lon="-2.6355039"><ele>992.5</ele><time>2026-04-11T16:40:02.388Z</time></trkpt><trkpt lat="37.4088824" lon="-2.6357732"><ele>991.0</ele><time>2026-04-11T16:40:03.388Z</time></trkpt><trkpt lat="37.4089508" lon="-2.636051"><ele>989.5</ele><time>2026-04-11T16:40:04.387Z</time></trkpt><trkpt lat="37.4090161" lon="-2.6363311"><ele>988.0</ele><time>2026-04-11T16:40:05.388Z</time></trkpt><trkpt lat="37.4090769" lon="-2.6366265"><ele>988.0</ele><time>2026-04-11T16:40:06.388Z</time></trkpt><trkpt lat="37.4091437" lon="-2.6369271"><ele>988.0</ele><time>2026-04-11T16:40:07.388Z</time></trkpt><trkpt lat="37.4092205" lon="-2.6372303"><ele>987.0</ele><time>2026-04-11T16:40:08.388Z</time></trkpt><trkpt lat="37.4093001" lon="-2.63754"><ele>986.0</ele><time>2026-04-11T16:40:09.388Z</time></trkpt><trkpt lat="37.4093822" lon="-2.6378531"><ele>986.0</ele><time>2026-04-11T16:40:10.387Z</time></trkpt><trkpt lat="37.4094659" lon="-2.6381769"><ele>986.0</ele><time>2026-04-11T16:40:11.388Z</time></trkpt><trkpt lat="37.4095518" lon="-2.6385033"><ele>986.0</ele><time>2026-04-11T16:40:12.388Z</time></trkpt><trkpt lat="37.4096429" lon="-2.6388315"><ele>986.0</ele><time>2026-04-11T16:40:13.388Z</time></trkpt><trkpt lat="37.4097358" lon="-2.6391641"><ele>984.0</ele><time>2026-04-11T16:40:14.388Z</time></trkpt><trkpt lat="37.4098343" lon="-2.6394984"><ele>982.0</ele><time>2026-04-11T16:40:15.388Z</time></trkpt><trkpt lat="37.4099298" lon="-2.639831"><ele>982.0</ele><time>2026-04-11T16:40:16.388Z</time></trkpt><trkpt lat="37.4100223" lon="-2.640163"><ele>982.0</ele><time>2026-04-11T16:40:17.388Z</time></trkpt><trkpt lat="37.4101117" lon="-2.6404942"><ele>984.0</ele><time>2026-04-11T16:40:18.388Z</time></trkpt><trkpt lat="37.4101994" lon="-2.6408281"><ele>986.0</ele><time>2026-04-11T16:40:19.388Z</time></trkpt><trkpt lat="37.4102851" lon="-2.6411563"><ele>987.0</ele><time>2026-04-11T16:40:20.388Z</time></trkpt><trkpt lat="37.4103752" lon="-2.6414832"><ele>988.0</ele><time>2026-04-11T16:40:21.388Z</time></trkpt><trkpt lat="37.4104636" lon="-2.6418104"><ele>988.0</ele><time>2026-04-11T16:40:22.387Z</time></trkpt><trkpt lat="37.4105502" lon="-2.642137"><ele>988.0</ele><time>2026-04-11T16:40:23.387Z</time></trkpt><trkpt lat="37.4106348" lon="-2.6424631"><ele>988.0</ele><time>2026-04-11T16:40:24.387Z</time></trkpt><trkpt lat="37.4107188" lon="-2.6427884"><ele>988.0</ele><time>2026-04-11T16:40:25.388Z</time></trkpt><trkpt lat="37.4108032" lon="-2.6431147"><ele>988.5</ele><time>2026-04-11T16:40:26.388Z</time></trkpt><trkpt lat="37.4108878" lon="-2.6434422"><ele>989.0</ele><time>2026-04-11T16:40:27.388Z</time></trkpt><trkpt lat="37.4109761" lon="-2.6437733"><ele>990.0</ele><time>2026-04-11T16:40:28.388Z</time></trkpt><trkpt lat="37.4110609" lon="-2.6441065"><ele>991.0</ele><time>2026-04-11T16:40:29.388Z</time></trkpt><trkpt lat="37.4111477" lon="-2.6444427"><ele>990.0</ele><time>2026-04-11T16:40:30.388Z</time></trkpt><trkpt lat="37.4112339" lon="-2.6447797"><ele>989.0</ele><time>2026-04-11T16:40:31.388Z</time></trkpt><trkpt lat="37.4113234" lon="-2.6451222"><ele>987.5</ele><time>2026-04-11T16:40:32.387Z</time></trkpt><trkpt lat="37.4114109" lon="-2.6454686"><ele>986.0</ele><time>2026-04-11T16:40:33.387Z</time></trkpt><trkpt lat="37.4115016" lon="-2.6458192"><ele>984.5</ele><time>2026-04-11T16:40:34.388Z</time></trkpt><trkpt lat="37.4115931" lon="-2.6461681"><ele>983.0</ele><time>2026-04-11T16:40:35.388Z</time></trkpt><trkpt lat="37.4116853" lon="-2.6465258"><ele>983.0</ele><time>2026-04-11T16:40:36.388Z</time></trkpt><trkpt lat="37.4117776" lon="-2.6468809"><ele>983.0</ele><time>2026-04-11T16:40:37.388Z</time></trkpt><trkpt lat="37.4118686" lon="-2.6472394"><ele>982.5</ele><time>2026-04-11T16:40:38.387Z</time></trkpt><trkpt lat="37.4119615" lon="-2.6475969"><ele>982.0</ele><time>2026-04-11T16:40:39.387Z</time></trkpt><trkpt lat="37.4120547" lon="-2.6479508"><ele>980.0</ele><time>2026-04-11T16:40:40.388Z</time></trkpt><trkpt lat="37.4121428" lon="-2.6482987"><ele>978.0</ele><time>2026-04-11T16:40:41.388Z</time></trkpt><trkpt lat="37.4122297" lon="-2.6486258"><ele>978.0</ele><time>2026-04-11T16:40:42.388Z</time></trkpt><trkpt lat="37.4123135" lon="-2.6489454"><ele>978.0</ele><time>2026-04-11T16:40:43.387Z</time></trkpt><trkpt lat="37.4123987" lon="-2.6492727"><ele>978.0</ele><time>2026-04-11T16:40:44.387Z</time></trkpt><trkpt lat="37.4124825" lon="-2.6495995"><ele>978.0</ele><time>2026-04-11T16:40:45.388Z</time></trkpt><trkpt lat="37.4125675" lon="-2.6499288"><ele>978.0</ele><time>2026-04-11T16:40:46.387Z</time></trkpt><trkpt lat="37.4126513" lon="-2.6502599"><ele>978.0</ele><time>2026-04-11T16:40:47.388Z</time></trkpt><trkpt lat="37.4127339" lon="-2.6505996"><ele>978.5</ele><time>2026-04-11T16:40:48.388Z</time></trkpt><trkpt lat="37.4128222" lon="-2.6509389"><ele>979.0</ele><time>2026-04-11T16:40:49.388Z</time></trkpt><trkpt lat="37.4129113" lon="-2.6512846"><ele>978.0</ele><time>2026-04-11T16:40:50.388Z</time></trkpt><trkpt lat="37.4130005" lon="-2.6516289"><ele>977.0</ele><time>2026-04-11T16:40:51.388Z</time></trkpt><trkpt lat="37.4130898" lon="-2.6519755"><ele>977.0</ele><time>2026-04-11T16:40:52.388Z</time></trkpt><trkpt lat="37.4131808" lon="-2.6523209"><ele>977.0</ele><time>2026-04-11T16:40:53.387Z</time></trkpt><trkpt lat="37.4132711" lon="-2.6526694"><ele>978.0</ele><time>2026-04-11T16:40:54.388Z</time></trkpt><trkpt lat="37.4133625" lon="-2.653019"><ele>979.0</ele><time>2026-04-11T16:40:55.388Z</time></trkpt><trkpt lat="37.4134561" lon="-2.6533702"><ele>979.0</ele><time>2026-04-11T16:40:56.388Z</time></trkpt><trkpt lat="37.4135478" lon="-2.6537212"><ele>979.0</ele><time>2026-04-11T16:40:57.388Z</time></trkpt><trkpt lat="37.4136361" lon="-2.6540697"><ele>979.0</ele><time>2026-04-11T16:40:58.388Z</time></trkpt><trkpt lat="37.4137243" lon="-2.6544164"><ele>979.0</ele><time>2026-04-11T16:40:59.388Z</time></trkpt><trkpt lat="37.4138118" lon="-2.6547625"><ele>978.5</ele><time>2026-04-11T16:41:00.388Z</time></trkpt><trkpt lat="37.4139015" lon="-2.655107"><ele>978.0</ele><time>2026-04-11T16:41:01.388Z</time></trkpt><trkpt lat="37.4139881" lon="-2.6554517"><ele>978.0</ele><time>2026-04-11T16:41:02.388Z</time></trkpt><trkpt lat="37.4140774" lon="-2.6557966"><ele>978.0</ele><time>2026-04-11T16:41:03.388Z</time></trkpt><trkpt lat="37.4141685" lon="-2.6561446"><ele>979.0</ele><time>2026-04-11T16:41:04.388Z</time></trkpt><trkpt lat="37.4142564" lon="-2.6564903"><ele>980.0</ele><time>2026-04-11T16:41:05.388Z</time></trkpt><trkpt lat="37.4143429" lon="-2.656836"><ele>981.5</ele><time>2026-04-11T16:41:06.388Z</time></trkpt><trkpt lat="37.4144328" lon="-2.6571778"><ele>983.0</ele><time>2026-04-11T16:41:07.388Z</time></trkpt><trkpt lat="37.4145226" lon="-2.6575168"><ele>982.5</ele><time>2026-04-11T16:41:08.388Z</time></trkpt><trkpt lat="37.4146105" lon="-2.6578558"><ele>982.0</ele><time>2026-04-11T16:41:09.388Z</time></trkpt><trkpt lat="37.4146965" lon="-2.6581987"><ele>981.5</ele><time>2026-04-11T16:41:10.388Z</time></trkpt><trkpt lat="37.4147858" lon="-2.6585377"><ele>981.0</ele><time>2026-04-11T16:41:11.388Z</time></trkpt><trkpt lat="37.4148749" lon="-2.6588838"><ele>981.0</ele><time>2026-04-11T16:41:12.388Z</time></trkpt><trkpt lat="37.4149672" lon="-2.6592326"><ele>981.0</ele><time>2026-04-11T16:41:13.388Z</time></trkpt><trkpt lat="37.4150657" lon="-2.6595759"><ele>981.5</ele><time>2026-04-11T16:41:14.388Z</time></trkpt><trkpt lat="37.4151678" lon="-2.6599263"><ele>982.0</ele><time>2026-04-11T16:41:15.388Z</time></trkpt><trkpt lat="37.415273" lon="-2.6602714"><ele>981.5</ele><time>2026-04-11T16:41:16.388Z</time></trkpt><trkpt lat="37.4153837" lon="-2.6606129"><ele>981.0</ele><time>2026-04-11T16:41:17.388Z</time></trkpt><trkpt lat="37.4154989" lon="-2.6609523"><ele>979.0</ele><time>2026-04-11T16:41:18.388Z</time></trkpt><trkpt lat="37.415617" lon="-2.6612863"><ele>977.0</ele><time>2026-04-11T16:41:19.388Z</time></trkpt><trkpt lat="37.4157365" lon="-2.661623"><ele>976.5</ele><time>2026-04-11T16:41:20.388Z</time></trkpt><trkpt lat="37.415863" lon="-2.6619564"><ele>976.0</ele><time>2026-04-11T16:41:21.388Z</time></trkpt><trkpt lat="37.4159932" lon="-2.6622916"><ele>976.0</ele><time>2026-04-11T16:41:22.388Z</time></trkpt><trkpt lat="37.4161255" lon="-2.6626298"><ele>976.0</ele><time>2026-04-11T16:41:23.387Z</time></trkpt><trkpt lat="37.4162645" lon="-2.6629687"><ele>973.5</ele><time>2026-04-11T16:41:24.388Z</time></trkpt><trkpt lat="37.416407" lon="-2.6633082"><ele>971.0</ele><time>2026-04-11T16:41:25.388Z</time></trkpt><trkpt lat="37.4165547" lon="-2.663644"><ele>969.0</ele><time>2026-04-11T16:41:26.388Z</time></trkpt><trkpt lat="37.4167065" lon="-2.663981"><ele>967.0</ele><time>2026-04-11T16:41:27.388Z</time></trkpt><trkpt lat="37.416863" lon="-2.6643177"><ele>967.0</ele><time>2026-04-11T16:41:28.388Z</time></trkpt><trkpt lat="37.4170241" lon="-2.6646536"><ele>967.0</ele><time>2026-04-11T16:41:29.387Z</time></trkpt><trkpt lat="37.4171886" lon="-2.6649899"><ele>959.5</ele><time>2026-04-11T16:41:30.388Z</time></trkpt><trkpt lat="37.4173554" lon="-2.6653292"><ele>952.0</ele><time>2026-04-11T16:41:31.388Z</time></trkpt><trkpt lat="37.4175241" lon="-2.6656691"><ele>952.0</ele><time>2026-04-11T16:41:32.388Z</time></trkpt><trkpt lat="37.4176921" lon="-2.6660053"><ele>952.0</ele><time>2026-04-11T16:41:33.388Z</time></trkpt><trkpt lat="37.4178521" lon="-2.6663227"><ele>947.5</ele><time>2026-04-11T16:41:34.388Z</time></trkpt><trkpt lat="37.4180065" lon="-2.6666277"><ele>943.0</ele><time>2026-04-11T16:41:35.388Z</time></trkpt><trkpt lat="37.4181552" lon="-2.6669189"><ele>941.5</ele><time>2026-04-11T16:41:36.388Z</time></trkpt><trkpt lat="37.4182963" lon="-2.6672049"><ele>940.0</ele><time>2026-04-11T16:41:37.388Z</time></trkpt><trkpt lat="37.4184376" lon="-2.6674864"><ele>940.0</ele><time>2026-04-11T16:41:38.388Z</time></trkpt><trkpt lat="37.4185769" lon="-2.6677682"><ele>940.0</ele><time>2026-04-11T16:41:39.388Z</time></trkpt><trkpt lat="37.4187171" lon="-2.6680539"><ele>938.5</ele><time>2026-04-11T16:41:40.388Z</time></trkpt><trkpt lat="37.4188568" lon="-2.6683351"><ele>937.0</ele><time>2026-04-11T16:41:41.388Z</time></trkpt><trkpt lat="37.4189954" lon="-2.6686114"><ele>937.0</ele><time>2026-04-11T16:41:42.388Z</time></trkpt><trkpt lat="37.4191369" lon="-2.6688842"><ele>937.0</ele><time>2026-04-11T16:41:43.387Z</time></trkpt><trkpt lat="37.419279" lon="-2.6691473"><ele>937.0</ele><time>2026-04-11T16:41:44.388Z</time></trkpt><trkpt lat="37.4194163" lon="-2.6694083"><ele>937.0</ele><time>2026-04-11T16:41:45.388Z</time></trkpt><trkpt lat="37.4195493" lon="-2.6696668"><ele>936.0</ele><time>2026-04-11T16:41:46.387Z</time></trkpt><trkpt lat="37.4196775" lon="-2.6699235"><ele>935.0</ele><time>2026-04-11T16:41:47.388Z</time></trkpt><trkpt lat="37.4197989" lon="-2.6701666"><ele>936.3333333333334</ele><time>2026-04-11T16:41:48.387Z</time></trkpt><trkpt lat="37.4199124" lon="-2.6703952"><ele>937.6666666666667</ele><time>2026-04-11T16:41:49.387Z</time></trkpt><trkpt lat="37.4200204" lon="-2.6706095"><ele>939.0</ele><time>2026-04-11T16:41:50.388Z</time></trkpt><trkpt lat="37.4201215" lon="-2.670814"><ele>939.0</ele><time>2026-04-11T16:41:51.388Z</time></trkpt><trkpt lat="37.4202198" lon="-2.6710185"><ele>939.0</ele><time>2026-04-11T16:41:52.387Z</time></trkpt><trkpt lat="37.4203168" lon="-2.6712165"><ele>939.0</ele><time>2026-04-11T16:41:53.387Z</time></trkpt><trkpt lat="37.4204147" lon="-2.6714146"><ele>938.6666666666667</ele><time>2026-04-11T16:41:54.387Z</time></trkpt><trkpt lat="37.4205188" lon="-2.671616"><ele>938.3333333333334</ele><time>2026-04-11T16:41:55.388Z</time></trkpt><trkpt lat="37.4206181" lon="-2.6718249"><ele>938.0</ele><time>2026-04-11T16:41:56.388Z</time></trkpt><trkpt lat="37.4207186" lon="-2.6720332"><ele>938.6666666666667</ele><time>2026-04-11T16:41:57.388Z</time></trkpt><trkpt lat="37.420818" lon="-2.6722462"><ele>939.3333333333333</ele><time>2026-04-11T16:41:58.388Z</time></trkpt><trkpt lat="37.4209146" lon="-2.6724649"><ele>940.0</ele><time>2026-04-11T16:41:59.387Z</time></trkpt><trkpt lat="37.4210099" lon="-2.6726905"><ele>940.6666666666666</ele><time>2026-04-11T16:42:00.388Z</time></trkpt><trkpt lat="37.4211014" lon="-2.672924"><ele>941.3333333333333</ele><time>2026-04-11T16:42:01.388Z</time></trkpt><trkpt lat="37.4211879" lon="-2.6731658"><ele>942.0</ele><time>2026-04-11T16:42:02.388Z</time></trkpt><trkpt lat="37.4212733" lon="-2.6734137"><ele>942.6666666666667</ele><time>2026-04-11T16:42:03.388Z</time></trkpt><trkpt lat="37.4213502" lon="-2.6736597"><ele>943.3333333333334</ele><time>2026-04-11T16:42:04.388Z</time></trkpt><trkpt lat="37.4214308" lon="-2.6739042"><ele>944.0</ele><time>2026-04-11T16:42:05.388Z</time></trkpt><trkpt lat="37.4215159" lon="-2.6741447"><ele>944.0</ele><time>2026-04-11T16:42:06.388Z</time></trkpt><trkpt lat="37.4216013" lon="-2.6743803"><ele>944.0</ele><time>2026-04-11T16:42:07.388Z</time></trkpt><trkpt lat="37.4216845" lon="-2.6746187"><ele>944.0</ele><time>2026-04-11T16:42:08.388Z</time></trkpt><trkpt lat="37.4217669" lon="-2.6748518"><ele>944.6666666666667</ele><time>2026-04-11T16:42:09.388Z</time></trkpt><trkpt lat="37.4218482" lon="-2.6750861"><ele>945.3333333333333</ele><time>2026-04-11T16:42:10.388Z</time></trkpt><trkpt lat="37.4219278" lon="-2.6753183"><ele>946.0</ele><time>2026-04-11T16:42:11.388Z</time></trkpt><trkpt lat="37.4220043" lon="-2.6755535"><ele>946.0</ele><time>2026-04-11T16:42:12.387Z</time></trkpt><trkpt lat="37.4220813" lon="-2.6757872"><ele>946.0</ele><time>2026-04-11T16:42:13.388Z</time></trkpt><trkpt lat="37.4221583" lon="-2.6760216"><ele>946.0</ele><time>2026-04-11T16:42:14.388Z</time></trkpt><trkpt lat="37.4222375" lon="-2.6762565"><ele>946.0</ele><time>2026-04-11T16:42:15.388Z</time></trkpt><trkpt lat="37.4223158" lon="-2.6764929"><ele>946.0</ele><time>2026-04-11T16:42:16.388Z</time></trkpt><trkpt lat="37.4223958" lon="-2.6767273"><ele>946.0</ele><time>2026-04-11T16:42:17.387Z</time></trkpt><trkpt lat="37.4224723" lon="-2.6769637"><ele>946.6666666666666</ele><time>2026-04-11T16:42:18.388Z</time></trkpt><trkpt lat="37.4225472" lon="-2.6771978"><ele>947.3333333333333</ele><time>2026-04-11T16:42:19.387Z</time></trkpt><trkpt lat="37.4226225" lon="-2.6774327"><ele>948.0</ele><time>2026-04-11T16:42:20.387Z</time></trkpt><trkpt lat="37.4226995" lon="-2.6776684"><ele>949.0</ele><time>2026-04-11T16:42:21.388Z</time></trkpt><trkpt lat="37.4227751" lon="-2.6779004"><ele>950.0</ele><time>2026-04-11T16:42:22.387Z</time></trkpt><trkpt lat="37.4228495" lon="-2.678132"><ele>951.0</ele><time>2026-04-11T16:42:23.387Z</time></trkpt><trkpt lat="37.4229236" lon="-2.6783673"><ele>950.6666666666667</ele><time>2026-04-11T16:42:24.388Z</time></trkpt><trkpt lat="37.4229993" lon="-2.6785999"><ele>950.3333333333334</ele><time>2026-04-11T16:42:25.388Z</time></trkpt><trkpt lat="37.4230746" lon="-2.6788337"><ele>950.0</ele><time>2026-04-11T16:42:26.388Z</time></trkpt><trkpt lat="37.4231495" lon="-2.6790737"><ele>950.0</ele><time>2026-04-11T16:42:27.388Z</time></trkpt><trkpt lat="37.4232225" lon="-2.6793164"><ele>950.0</ele><time>2026-04-11T16:42:28.388Z</time></trkpt><trkpt lat="37.4232963" lon="-2.6795586"><ele>950.0</ele><time>2026-04-11T16:42:29.388Z</time></trkpt><trkpt lat="37.4233679" lon="-2.6798033"><ele>950.6666666666667</ele><time>2026-04-11T16:42:30.387Z</time></trkpt><trkpt lat="37.4234457" lon="-2.6800457"><ele>951.3333333333333</ele><time>2026-04-11T16:42:31.388Z</time></trkpt><trkpt lat="37.4235219" lon="-2.6802928"><ele>952.0</ele><time>2026-04-11T16:42:32.387Z</time></trkpt><trkpt lat="37.4235994" lon="-2.6805403"><ele>952.0</ele><time>2026-04-11T16:42:33.388Z</time></trkpt><trkpt lat="37.4236743" lon="-2.6807893"><ele>952.0</ele><time>2026-04-11T16:42:34.388Z</time></trkpt><trkpt lat="37.4237518" lon="-2.6810414"><ele>952.0</ele><time>2026-04-11T16:42:35.387Z</time></trkpt><trkpt lat="37.4238288" lon="-2.6812858"><ele>951.6666666666666</ele><time>2026-04-11T16:42:36.388Z</time></trkpt><trkpt lat="37.4239038" lon="-2.6815265"><ele>951.3333333333333</ele><time>2026-04-11T16:42:37.388Z</time></trkpt><trkpt lat="37.4239771" lon="-2.6817687"><ele>951.0</ele><time>2026-04-11T16:42:38.388Z</time></trkpt><trkpt lat="37.4240542" lon="-2.682016"><ele>951.0</ele><time>2026-04-11T16:42:39.388Z</time></trkpt><trkpt lat="37.4241297" lon="-2.6822624"><ele>951.0</ele><time>2026-04-11T16:42:40.387Z</time></trkpt><trkpt lat="37.4242049" lon="-2.6825068"><ele>951.0</ele><time>2026-04-11T16:42:41.387Z</time></trkpt><trkpt lat="37.4242789" lon="-2.6827487"><ele>951.0</ele><time>2026-04-11T16:42:42.388Z</time></trkpt><trkpt lat="37.4243522" lon="-2.6829883"><ele>951.0</ele><time>2026-04-11T16:42:43.388Z</time></trkpt><trkpt lat="37.4244234" lon="-2.6832278"><ele>951.0</ele><time>2026-04-11T16:42:44.388Z</time></trkpt><trkpt lat="37.4244986" lon="-2.6834794"><ele>951.3333333333333</ele><time>2026-04-11T16:42:45.388Z</time></trkpt><trkpt lat="37.4245732" lon="-2.6837253"><ele>951.6666666666666</ele><time>2026-04-11T16:42:46.388Z</time></trkpt><trkpt lat="37.4246599" lon="-2.6840022"><ele>952.0</ele><time>2026-04-11T16:42:47.388Z</time></trkpt><trkpt lat="37.4247355" lon="-2.6842872"><ele>951.0</ele><time>2026-04-11T16:42:48.388Z</time></trkpt><trkpt lat="37.4248129" lon="-2.6845717"><ele>950.0</ele><time>2026-04-11T16:42:49.388Z</time></trkpt><trkpt lat="37.4248985" lon="-2.6848643"><ele>950.0</ele><time>2026-04-11T16:42:50.387Z</time></trkpt><trkpt lat="37.4249874" lon="-2.6851622"><ele>950.0</ele><time>2026-04-11T16:42:51.388Z</time></trkpt><trkpt lat="37.4250868" lon="-2.685461"><ele>948.5</ele><time>2026-04-11T16:42:52.387Z</time></trkpt><trkpt lat="37.4251861" lon="-2.685767"><ele>947.0</ele><time>2026-04-11T16:42:53.388Z</time></trkpt><trkpt lat="37.4252895" lon="-2.6860778"><ele>945.5</ele><time>2026-04-11T16:42:54.388Z</time></trkpt><trkpt lat="37.4253913" lon="-2.6863976"><ele>944.0</ele><time>2026-04-11T16:42:55.388Z</time></trkpt><trkpt lat="37.4254924" lon="-2.6867178"><ele>943.5</ele><time>2026-04-11T16:42:56.388Z</time></trkpt><trkpt lat="37.4255922" lon="-2.6870413"><ele>943.0</ele><time>2026-04-11T16:42:57.387Z</time></trkpt><trkpt lat="37.4256932" lon="-2.6873667"><ele>943.0</ele><time>2026-04-11T16:42:58.388Z</time></trkpt><trkpt lat="37.4257946" lon="-2.6876915"><ele>943.0</ele><time>2026-04-11T16:42:59.388Z</time></trkpt><trkpt lat="37.4258918" lon="-2.6880167"><ele>943.5</ele><time>2026-04-11T16:43:00.388Z</time></trkpt><trkpt lat="37.4259924" lon="-2.6883415"><ele>944.0</ele><time>2026-04-11T16:43:01.388Z</time></trkpt><trkpt lat="37.4260948" lon="-2.688668"><ele>944.0</ele><time>2026-04-11T16:43:02.388Z</time></trkpt><trkpt lat="37.4261975" lon="-2.6889957"><ele>944.0</ele><time>2026-04-11T16:43:03.388Z</time></trkpt><trkpt lat="37.426309" lon="-2.6893322"><ele>942.0</ele><time>2026-04-11T16:43:04.388Z</time></trkpt><trkpt lat="37.4264321" lon="-2.6896661"><ele>940.0</ele><time>2026-04-11T16:43:05.388Z</time></trkpt><trkpt lat="37.4265668" lon="-2.690001"><ele>939.5</ele><time>2026-04-11T16:43:06.388Z</time></trkpt><trkpt lat="37.4267114" lon="-2.6903298"><ele>939.0</ele><time>2026-04-11T16:43:07.388Z</time></trkpt><trkpt lat="37.4268638" lon="-2.6906568"><ele>939.0</ele><time>2026-04-11T16:43:08.388Z</time></trkpt><trkpt lat="37.4270239" lon="-2.6909774"><ele>939.0</ele><time>2026-04-11T16:43:09.388Z</time></trkpt><trkpt lat="37.4271943" lon="-2.6912844"><ele>937.5</ele><time>2026-04-11T16:43:10.387Z</time></trkpt><trkpt lat="37.4273708" lon="-2.6915807"><ele>936.0</ele><time>2026-04-11T16:43:11.388Z</time></trkpt><trkpt lat="37.4275535" lon="-2.6918725"><ele>935.5</ele><time>2026-04-11T16:43:12.387Z</time></trkpt><trkpt lat="37.4277426" lon="-2.6921538"><ele>935.0</ele><time>2026-04-11T16:43:13.387Z</time></trkpt><trkpt lat="37.42794" lon="-2.6924276"><ele>934.5</ele><time>2026-04-11T16:43:14.388Z</time></trkpt><trkpt lat="37.4281367" lon="-2.6927049"><ele>934.0</ele><time>2026-04-11T16:43:15.387Z</time></trkpt><trkpt lat="37.4283374" lon="-2.6929786"><ele>934.0</ele><time>2026-04-11T16:43:16.387Z</time></trkpt><trkpt lat="37.4285422" lon="-2.6932517"><ele>934.0</ele><time>2026-04-11T16:43:17.388Z</time></trkpt><trkpt lat="37.4287477" lon="-2.6935243"><ele>933.0</ele><time>2026-04-11T16:43:18.388Z</time></trkpt><trkpt lat="37.4289498" lon="-2.6937945"><ele>932.0</ele><time>2026-04-11T16:43:19.388Z</time></trkpt><trkpt lat="37.4291411" lon="-2.694059"><ele>932.0</ele><time>2026-04-11T16:43:20.388Z</time></trkpt><trkpt lat="37.4293298" lon="-2.6943127"><ele>932.0</ele><time>2026-04-11T16:43:21.387Z</time></trkpt><trkpt lat="37.4295151" lon="-2.6945684"><ele>931.0</ele><time>2026-04-11T16:43:22.388Z</time></trkpt><trkpt lat="37.4297058" lon="-2.6948214"><ele>930.0</ele><time>2026-04-11T16:43:23.388Z</time></trkpt><trkpt lat="37.4298937" lon="-2.6950803"><ele>929.5</ele><time>2026-04-11T16:43:24.388Z</time></trkpt><trkpt lat="37.4300884" lon="-2.6953392"><ele>929.0</ele><time>2026-04-11T16:43:25.387Z</time></trkpt><trkpt lat="37.4302799" lon="-2.6955965"><ele>929.0</ele><time>2026-04-11T16:43:26.388Z</time></trkpt><trkpt lat="37.4304699" lon="-2.6958583"><ele>929.0</ele><time>2026-04-11T16:43:27.388Z</time></trkpt><trkpt lat="37.430664" lon="-2.6961197"><ele>927.0</ele><time>2026-04-11T16:43:28.387Z</time></trkpt><trkpt lat="37.4308608" lon="-2.6963813"><ele>925.0</ele><time>2026-04-11T16:43:29.388Z</time></trkpt><trkpt lat="37.4310584" lon="-2.6966446"><ele>925.0</ele><time>2026-04-11T16:43:30.388Z</time></trkpt><trkpt lat="37.431256" lon="-2.696907"><ele>925.0</ele><time>2026-04-11T16:43:31.388Z</time></trkpt><trkpt lat="37.431453" lon="-2.6971769"><ele>923.5</ele><time>2026-04-11T16:43:32.388Z</time></trkpt><trkpt lat="37.4316429" lon="-2.6974485"><ele>922.0</ele><time>2026-04-11T16:43:33.387Z</time></trkpt><trkpt lat="37.4318359" lon="-2.697712"><ele>921.5</ele><time>2026-04-11T16:43:34.388Z</time></trkpt><trkpt lat="37.4320225" lon="-2.6979705"><ele>921.0</ele><time>2026-04-11T16:43:35.387Z</time></trkpt><trkpt lat="37.4322057" lon="-2.6982269"><ele>919.5</ele><time>2026-04-11T16:43:36.388Z</time></trkpt><trkpt lat="37.4323902" lon="-2.6984765"><ele>918.0</ele><time>2026-04-11T16:43:37.388Z</time></trkpt><trkpt lat="37.4325756" lon="-2.6987312"><ele>917.0</ele><time>2026-04-11T16:43:38.388Z</time></trkpt><trkpt lat="37.4327553" lon="-2.6989921"><ele>916.0</ele><time>2026-04-11T16:43:39.388Z</time></trkpt><trkpt lat="37.4329227" lon="-2.6992682"><ele>914.5</ele><time>2026-04-11T16:43:40.388Z</time></trkpt><trkpt lat="37.433081" lon="-2.6995579"><ele>913.0</ele><time>2026-04-11T16:43:41.387Z</time></trkpt><trkpt lat="37.4332257" lon="-2.699855"><ele>913.0</ele><time>2026-04-11T16:43:42.388Z</time></trkpt><trkpt lat="37.4333587" lon="-2.7001608"><ele>913.0</ele><time>2026-04-11T16:43:43.387Z</time></trkpt><trkpt lat="37.4334715" lon="-2.7004752"><ele>911.0</ele><time>2026-04-11T16:43:44.388Z</time></trkpt><trkpt lat="37.4335701" lon="-2.7007981"><ele>909.0</ele><time>2026-04-11T16:43:45.388Z</time></trkpt><trkpt lat="37.4336525" lon="-2.7011309"><ele>908.0</ele><time>2026-04-11T16:43:46.387Z</time></trkpt><trkpt lat="37.4337165" lon="-2.7014622"><ele>907.0</ele><time>2026-04-11T16:43:47.388Z</time></trkpt><trkpt lat="37.4337611" lon="-2.7017931"><ele>904.0</ele><time>2026-04-11T16:43:48.388Z</time></trkpt><trkpt lat="37.4337898" lon="-2.7021072"><ele>901.0</ele><time>2026-04-11T16:43:49.388Z</time></trkpt><trkpt lat="37.4338074" lon="-2.7023973"><ele>900.6666666666666</ele><time>2026-04-11T16:43:50.387Z</time></trkpt><trkpt lat="37.4338179" lon="-2.7026689"><ele>900.3333333333333</ele><time>2026-04-11T16:43:51.388Z</time></trkpt><trkpt lat="37.4338276" lon="-2.7029199"><ele>900.0</ele><time>2026-04-11T16:43:52.388Z</time></trkpt><trkpt lat="37.4338378" lon="-2.7031737"><ele>899.3333333333333</ele><time>2026-04-11T16:43:53.388Z</time></trkpt><trkpt lat="37.4338508" lon="-2.7034355"><ele>898.6666666666666</ele><time>2026-04-11T16:43:54.388Z</time></trkpt><trkpt lat="37.4338696" lon="-2.7036977"><ele>898.0</ele><time>2026-04-11T16:43:55.387Z</time></trkpt><trkpt lat="37.4338953" lon="-2.7039587"><ele>897.6666666666666</ele><time>2026-04-11T16:43:56.388Z</time></trkpt><trkpt lat="37.4339301" lon="-2.7042105"><ele>897.3333333333333</ele><time>2026-04-11T16:43:57.388Z</time></trkpt><trkpt lat="37.4339731" lon="-2.7044447"><ele>897.0</ele><time>2026-04-11T16:43:58.388Z</time></trkpt><trkpt lat="37.4340159" lon="-2.7046661"><ele>897.0</ele><time>2026-04-11T16:43:59.388Z</time></trkpt><trkpt lat="37.4340646" lon="-2.7048576"><ele>897.0</ele><time>2026-04-11T16:44:00.387Z</time></trkpt><trkpt lat="37.4341157" lon="-2.7050376"><ele>897.0</ele><time>2026-04-11T16:44:01.388Z</time></trkpt><trkpt lat="37.4341746" lon="-2.7052186"><ele>896.0</ele><time>2026-04-11T16:44:02.388Z</time></trkpt><trkpt lat="37.4342405" lon="-2.7054035"><ele>895.0</ele><time>2026-04-11T16:44:03.388Z</time></trkpt><trkpt lat="37.4343125" lon="-2.7055868"><ele>894.0</ele><time>2026-04-11T16:44:04.388Z</time></trkpt><trkpt lat="37.4343878" lon="-2.7057648"><ele>894.0</ele><time>2026-04-11T16:44:05.387Z</time></trkpt><trkpt lat="37.4344656" lon="-2.7059347"><ele>894.0</ele><time>2026-04-11T16:44:06.388Z</time></trkpt><trkpt lat="37.4345484" lon="-2.7061064"><ele>894.0</ele><time>2026-04-11T16:44:07.388Z</time></trkpt><trkpt lat="37.434639" lon="-2.7062789"><ele>892.3333333333333</ele><time>2026-04-11T16:44:08.388Z</time></trkpt><trkpt lat="37.4347334" lon="-2.7064548"><ele>890.6666666666666</ele><time>2026-04-11T16:44:09.387Z</time></trkpt><trkpt lat="37.4348315" lon="-2.7066344"><ele>889.0</ele><time>2026-04-11T16:44:10.387Z</time></trkpt><trkpt lat="37.4349271" lon="-2.7068134"><ele>887.6666666666666</ele><time>2026-04-11T16:44:11.387Z</time></trkpt><trkpt lat="37.435021" lon="-2.7070107"><ele>886.3333333333333</ele><time>2026-04-11T16:44:12.388Z</time></trkpt><trkpt lat="37.4351287" lon="-2.7072157"><ele>885.0</ele><time>2026-04-11T16:44:13.387Z</time></trkpt><trkpt lat="37.4352418" lon="-2.7074243"><ele>885.0</ele><time>2026-04-11T16:44:14.387Z</time></trkpt><trkpt lat="37.4353641" lon="-2.707636"><ele>885.0</ele><time>2026-04-11T16:44:15.388Z</time></trkpt><trkpt lat="37.4354868" lon="-2.7078538"><ele>885.0</ele><time>2026-04-11T16:44:16.388Z</time></trkpt><trkpt lat="37.435636" lon="-2.7080753"><ele>884.0</ele><time>2026-04-11T16:44:17.388Z</time></trkpt><trkpt lat="37.4357877" lon="-2.7082997"><ele>883.0</ele><time>2026-04-11T16:44:18.387Z</time></trkpt><trkpt lat="37.4359357" lon="-2.7085393"><ele>878.5</ele><time>2026-04-11T16:44:19.388Z</time></trkpt><trkpt lat="37.4360856" lon="-2.708786"><ele>874.0</ele><time>2026-04-11T16:44:20.388Z</time></trkpt><trkpt lat="37.4362421" lon="-2.7090403"><ele>874.0</ele><time>2026-04-11T16:44:21.388Z</time></trkpt><trkpt lat="37.4364027" lon="-2.709299"><ele>874.0</ele><time>2026-04-11T16:44:22.388Z</time></trkpt><trkpt lat="37.4365695" lon="-2.7095641"><ele>874.0</ele><time>2026-04-11T16:44:23.388Z</time></trkpt><trkpt lat="37.4367414" lon="-2.7098341"><ele>874.0</ele><time>2026-04-11T16:44:24.388Z</time></trkpt><trkpt lat="37.4369141" lon="-2.7101049"><ele>872.5</ele><time>2026-04-11T16:44:25.388Z</time></trkpt><trkpt lat="37.4370876" lon="-2.7103796"><ele>871.0</ele><time>2026-04-11T16:44:26.388Z</time></trkpt><trkpt lat="37.4372627" lon="-2.7106591"><ele>871.0</ele><time>2026-04-11T16:44:27.388Z</time></trkpt><trkpt lat="37.4374341" lon="-2.7109341"><ele>871.0</ele><time>2026-04-11T16:44:28.387Z</time></trkpt><trkpt lat="37.4376083" lon="-2.7112078"><ele>869.0</ele><time>2026-04-11T16:44:29.388Z</time></trkpt><trkpt lat="37.4377846" lon="-2.7114833"><ele>867.0</ele><time>2026-04-11T16:44:30.387Z</time></trkpt><trkpt lat="37.4379637" lon="-2.7117557"><ele>865.5</ele><time>2026-04-11T16:44:31.388Z</time></trkpt><trkpt lat="37.4381388" lon="-2.7120273"><ele>864.0</ele><time>2026-04-11T16:44:32.388Z</time></trkpt><trkpt lat="37.4383131" lon="-2.7123041"><ele>864.0</ele><time>2026-04-11T16:44:33.387Z</time></trkpt><trkpt lat="37.4384883" lon="-2.7125863"><ele>864.0</ele><time>2026-04-11T16:44:34.387Z</time></trkpt><trkpt lat="37.4386589" lon="-2.7128826"><ele>863.0</ele><time>2026-04-11T16:44:35.388Z</time></trkpt><trkpt lat="37.4388422" lon="-2.7131403"><ele>862.0</ele><time>2026-04-11T16:44:36.388Z</time></trkpt><trkpt lat="37.4390226" lon="-2.7134022"><ele>862.5</ele><time>2026-04-11T16:44:37.387Z</time></trkpt><trkpt lat="37.4392029" lon="-2.7136639"><ele>863.0</ele><time>2026-04-11T16:44:38.387Z</time></trkpt><trkpt lat="37.4393846" lon="-2.7139276"><ele>863.0</ele><time>2026-04-11T16:44:39.388Z</time></trkpt><trkpt lat="37.4395675" lon="-2.7141915"><ele>863.0</ele><time>2026-04-11T16:44:40.388Z</time></trkpt><trkpt lat="37.4397477" lon="-2.7144577"><ele>861.0</ele><time>2026-04-11T16:44:41.387Z</time></trkpt><trkpt lat="37.4399308" lon="-2.7147224"><ele>859.0</ele><time>2026-04-11T16:44:42.387Z</time></trkpt><trkpt lat="37.4401162" lon="-2.7149836"><ele>859.5</ele><time>2026-04-11T16:44:43.388Z</time></trkpt><trkpt lat="37.4403008" lon="-2.7152469"><ele>860.0</ele><time>2026-04-11T16:44:44.387Z</time></trkpt><trkpt lat="37.4404858" lon="-2.7155123"><ele>860.0</ele><time>2026-04-11T16:44:45.388Z</time></trkpt><trkpt lat="37.4406735" lon="-2.7157695"><ele>860.0</ele><time>2026-04-11T16:44:46.387Z</time></trkpt><trkpt lat="37.4408613" lon="-2.7160301"><ele>858.0</ele><time>2026-04-11T16:44:47.388Z</time></trkpt><trkpt lat="37.441048" lon="-2.7162869"><ele>856.0</ele><time>2026-04-11T16:44:48.388Z</time></trkpt><trkpt lat="37.4412354" lon="-2.7165455"><ele>855.5</ele><time>2026-04-11T16:44:49.388Z</time></trkpt><trkpt lat="37.4414212" lon="-2.7168031"><ele>855.0</ele><time>2026-04-11T16:44:50.388Z</time></trkpt><trkpt lat="37.441611" lon="-2.717061"><ele>855.0</ele><time>2026-04-11T16:44:51.388Z</time></trkpt><trkpt lat="37.4418011" lon="-2.7173156"><ele>855.0</ele><time>2026-04-11T16:44:52.388Z</time></trkpt><trkpt lat="37.4419937" lon="-2.7175646"><ele>855.0</ele><time>2026-04-11T16:44:53.388Z</time></trkpt><trkpt lat="37.4421812" lon="-2.7178169"><ele>855.0</ele><time>2026-04-11T16:44:54.388Z</time></trkpt><trkpt lat="37.4423679" lon="-2.7180666"><ele>855.0</ele><time>2026-04-11T16:44:55.387Z</time></trkpt><trkpt lat="37.4425506" lon="-2.7183145"><ele>855.0</ele><time>2026-04-11T16:44:56.387Z</time></trkpt><trkpt lat="37.4427302" lon="-2.718564"><ele>855.0</ele><time>2026-04-11T16:44:57.387Z</time></trkpt><trkpt lat="37.4429024" lon="-2.7188075"><ele>855.0</ele><time>2026-04-11T16:44:58.387Z</time></trkpt><trkpt lat="37.4430707" lon="-2.7190456"><ele>855.0</ele><time>2026-04-11T16:44:59.388Z</time></trkpt><trkpt lat="37.4432303" lon="-2.7192707"><ele>855.0</ele><time>2026-04-11T16:45:00.388Z</time></trkpt><trkpt lat="37.4433851" lon="-2.7194905"><ele>854.0</ele><time>2026-04-11T16:45:01.387Z</time></trkpt><trkpt lat="37.4435379" lon="-2.7197123"><ele>853.0</ele><time>2026-04-11T16:45:02.388Z</time></trkpt><trkpt lat="37.4436816" lon="-2.7199411"><ele>852.3333333333333</ele><time>2026-04-11T16:45:03.388Z</time></trkpt><trkpt lat="37.4438122" lon="-2.7201682"><ele>851.6666666666667</ele><time>2026-04-11T16:45:04.388Z</time></trkpt><trkpt lat="37.4439333" lon="-2.7203847"><ele>851.0</ele><time>2026-04-11T16:45:05.387Z</time></trkpt><trkpt lat="37.4440435" lon="-2.7205909"><ele>851.0</ele><time>2026-04-11T16:45:06.388Z</time></trkpt><trkpt lat="37.4441444" lon="-2.7207863"><ele>851.0</ele><time>2026-04-11T16:45:07.388Z</time></trkpt><trkpt lat="37.4442409" lon="-2.7209832"><ele>851.0</ele><time>2026-04-11T16:45:08.387Z</time></trkpt><trkpt lat="37.4443338" lon="-2.7211751"><ele>851.0</ele><time>2026-04-11T16:45:09.387Z</time></trkpt><trkpt lat="37.4444254" lon="-2.7213644"><ele>851.0</ele><time>2026-04-11T16:45:10.388Z</time></trkpt><trkpt lat="37.4445149" lon="-2.7215535"><ele>851.0</ele><time>2026-04-11T16:45:11.388Z</time></trkpt><trkpt lat="37.4446023" lon="-2.7217467"><ele>852.0</ele><time>2026-04-11T16:45:12.387Z</time></trkpt><trkpt lat="37.444687" lon="-2.721939"><ele>853.0</ele><time>2026-04-11T16:45:13.388Z</time></trkpt><trkpt lat="37.4447722" lon="-2.7221344"><ele>854.0</ele><time>2026-04-11T16:45:14.387Z</time></trkpt><trkpt lat="37.4448557" lon="-2.722334"><ele>854.0</ele><time>2026-04-11T16:45:15.388Z</time></trkpt><trkpt lat="37.4449316" lon="-2.7225385"><ele>854.0</ele><time>2026-04-11T16:45:16.388Z</time></trkpt><trkpt lat="37.445003" lon="-2.7227489"><ele>854.0</ele><time>2026-04-11T16:45:17.388Z</time></trkpt><trkpt lat="37.4450805" lon="-2.7229505"><ele>856.0</ele><time>2026-04-11T16:45:18.388Z</time></trkpt><trkpt lat="37.4451586" lon="-2.7231469"><ele>858.0</ele><time>2026-04-11T16:45:19.388Z</time></trkpt><trkpt lat="37.4452389" lon="-2.723341"><ele>860.0</ele><time>2026-04-11T16:45:20.388Z</time></trkpt><trkpt lat="37.4453262" lon="-2.7235348"><ele>858.6666666666667</ele><time>2026-04-11T16:45:21.387Z</time></trkpt><trkpt lat="37.4454133" lon="-2.7237318"><ele>857.3333333333333</ele><time>2026-04-11T16:45:22.387Z</time></trkpt><trkpt lat="37.4455037" lon="-2.7239301"><ele>856.0</ele><time>2026-04-11T16:45:23.388Z</time></trkpt><trkpt lat="37.4455934" lon="-2.7241258"><ele>856.0</ele><time>2026-04-11T16:45:24.388Z</time></trkpt><trkpt lat="37.445677" lon="-2.7243066"><ele>856.0</ele><time>2026-04-11T16:45:25.388Z</time></trkpt><trkpt lat="37.4457611" lon="-2.7244825"><ele>856.0</ele><time>2026-04-11T16:45:26.388Z</time></trkpt><trkpt lat="37.4458498" lon="-2.7246588"><ele>855.6666666666666</ele><time>2026-04-11T16:45:27.388Z</time></trkpt><trkpt lat="37.4459346" lon="-2.7248373"><ele>855.3333333333333</ele><time>2026-04-11T16:45:28.388Z</time></trkpt><trkpt lat="37.4460271" lon="-2.7250337"><ele>855.0</ele><time>2026-04-11T16:45:29.388Z</time></trkpt><trkpt lat="37.4461197" lon="-2.7252316"><ele>853.0</ele><time>2026-04-11T16:45:30.388Z</time></trkpt><trkpt lat="37.4462184" lon="-2.7254382"><ele>851.0</ele><time>2026-04-11T16:45:31.388Z</time></trkpt><trkpt lat="37.4463238" lon="-2.7256527"><ele>849.0</ele><time>2026-04-11T16:45:32.388Z</time></trkpt><trkpt lat="37.4464277" lon="-2.7258786"><ele>848.6666666666667</ele><time>2026-04-11T16:45:33.388Z</time></trkpt><trkpt lat="37.4465278" lon="-2.7261187"><ele>848.3333333333334</ele><time>2026-04-11T16:45:34.388Z</time></trkpt><trkpt lat="37.4466426" lon="-2.7263612"><ele>848.0</ele><time>2026-04-11T16:45:35.388Z</time></trkpt><trkpt lat="37.4467685" lon="-2.7266007"><ele>848.0</ele><time>2026-04-11T16:45:36.388Z</time></trkpt><trkpt lat="37.4469013" lon="-2.7268412"><ele>848.0</ele><time>2026-04-11T16:45:37.388Z</time></trkpt><trkpt lat="37.4470381" lon="-2.7270859"><ele>848.0</ele><time>2026-04-11T16:45:38.388Z</time></trkpt><trkpt lat="37.4471688" lon="-2.7273414"><ele>848.0</ele><time>2026-04-11T16:45:39.388Z</time></trkpt><trkpt lat="37.4472964" lon="-2.7276045"><ele>848.0</ele><time>2026-04-11T16:45:40.388Z</time></trkpt><trkpt lat="37.4474267" lon="-2.7278652"><ele>848.0</ele><time>2026-04-11T16:45:41.388Z</time></trkpt><trkpt lat="37.4475587" lon="-2.7281294"><ele>848.0</ele><time>2026-04-11T16:45:42.388Z</time></trkpt><trkpt lat="37.4476977" lon="-2.7283937"><ele>848.0</ele><time>2026-04-11T16:45:43.388Z</time></trkpt><trkpt lat="37.4478464" lon="-2.7286523"><ele>850.0</ele><time>2026-04-11T16:45:44.388Z</time></trkpt><trkpt lat="37.4480022" lon="-2.728913"><ele>852.0</ele><time>2026-04-11T16:45:45.388Z</time></trkpt><trkpt lat="37.4481582" lon="-2.7291696"><ele>855.5</ele><time>2026-04-11T16:45:46.388Z</time></trkpt><trkpt lat="37.4483154" lon="-2.7294253"><ele>859.0</ele><time>2026-04-11T16:45:47.388Z</time></trkpt><trkpt lat="37.4484794" lon="-2.7296804"><ele>859.0</ele><time>2026-04-11T16:45:48.388Z</time></trkpt><trkpt lat="37.4486472" lon="-2.7299275"><ele>859.0</ele><time>2026-04-11T16:45:49.388Z</time></trkpt><trkpt lat="37.4488119" lon="-2.7301748"><ele>861.5</ele><time>2026-04-11T16:45:50.388Z</time></trkpt><trkpt lat="37.4489785" lon="-2.7304233"><ele>864.0</ele><time>2026-04-11T16:45:51.388Z</time></trkpt><trkpt lat="37.449147" lon="-2.7306666"><ele>864.0</ele><time>2026-04-11T16:45:52.388Z</time></trkpt><trkpt lat="37.4493185" lon="-2.7309093"><ele>864.0</ele><time>2026-04-11T16:45:53.388Z</time></trkpt><trkpt lat="37.4494936" lon="-2.731145"><ele>865.0</ele><time>2026-04-11T16:45:54.388Z</time></trkpt><trkpt lat="37.4496729" lon="-2.7313755"><ele>866.0</ele><time>2026-04-11T16:45:55.388Z</time></trkpt><trkpt lat="37.4498528" lon="-2.7316013"><ele>866.0</ele><time>2026-04-11T16:45:56.388Z</time></trkpt><trkpt lat="37.4500307" lon="-2.7318171"><ele>866.0</ele><time>2026-04-11T16:45:57.387Z</time></trkpt><trkpt lat="37.4502128" lon="-2.7320372"><ele>865.5</ele><time>2026-04-11T16:45:58.388Z</time></trkpt><trkpt lat="37.450393" lon="-2.7322541"><ele>865.0</ele><time>2026-04-11T16:45:59.388Z</time></trkpt><trkpt lat="37.450572" lon="-2.7324805"><ele>865.0</ele><time>2026-04-11T16:46:00.388Z</time></trkpt><trkpt lat="37.4507459" lon="-2.7327113"><ele>865.0</ele><time>2026-04-11T16:46:01.387Z</time></trkpt><trkpt lat="37.4509219" lon="-2.7329412"><ele>866.5</ele><time>2026-04-11T16:46:02.388Z</time></trkpt><trkpt lat="37.451098" lon="-2.7331761"><ele>868.0</ele><time>2026-04-11T16:46:03.388Z</time></trkpt><trkpt lat="37.4512851" lon="-2.7334034"><ele>867.0</ele><time>2026-04-11T16:46:04.387Z</time></trkpt><trkpt lat="37.4514578" lon="-2.7336398"><ele>866.0</ele><time>2026-04-11T16:46:05.387Z</time></trkpt><trkpt lat="37.4516314" lon="-2.7338768"><ele>866.0</ele><time>2026-04-11T16:46:06.388Z</time></trkpt><trkpt lat="37.451808" lon="-2.7341118"><ele>866.0</ele><time>2026-04-11T16:46:07.388Z</time></trkpt><trkpt lat="37.451979" lon="-2.7343426"><ele>866.0</ele><time>2026-04-11T16:46:08.388Z</time></trkpt><trkpt lat="37.4521505" lon="-2.7345783"><ele>866.0</ele><time>2026-04-11T16:46:09.388Z</time></trkpt><trkpt lat="37.4523157" lon="-2.7348088"><ele>866.0</ele><time>2026-04-11T16:46:10.388Z</time></trkpt><trkpt lat="37.4524777" lon="-2.735039"><ele>866.0</ele><time>2026-04-11T16:46:11.388Z</time></trkpt><trkpt lat="37.4526318" lon="-2.73527"><ele>867.5</ele><time>2026-04-11T16:46:12.387Z</time></trkpt><trkpt lat="37.4527847" lon="-2.7354924"><ele>869.0</ele><time>2026-04-11T16:46:13.388Z</time></trkpt><trkpt lat="37.4529325" lon="-2.73571"><ele>868.3333333333334</ele><time>2026-04-11T16:46:14.388Z</time></trkpt><trkpt lat="37.4530752" lon="-2.7359133"><ele>867.6666666666667</ele><time>2026-04-11T16:46:15.388Z</time></trkpt><trkpt lat="37.4532093" lon="-2.7361004"><ele>867.0</ele><time>2026-04-11T16:46:16.388Z</time></trkpt><trkpt lat="37.4533325" lon="-2.7362665"><ele>867.0</ele><time>2026-04-11T16:46:17.388Z</time></trkpt><trkpt lat="37.4534408" lon="-2.7364141"><ele>867.0</ele><time>2026-04-11T16:46:18.388Z</time></trkpt><trkpt lat="37.4535305" lon="-2.7365415"><ele>867.0</ele><time>2026-04-11T16:46:19.388Z</time></trkpt><trkpt lat="37.4536065" lon="-2.7366451"><ele>867.0</ele><time>2026-04-11T16:46:20.388Z</time></trkpt><trkpt lat="37.4536778" lon="-2.73672"><ele>867.0</ele><time>2026-04-11T16:46:21.387Z</time></trkpt><trkpt lat="37.4537572" lon="-2.7367643"><ele>867.0</ele><time>2026-04-11T16:46:22.387Z</time></trkpt><trkpt lat="37.4538496" lon="-2.7367727"><ele>867.0</ele><time>2026-04-11T16:46:23.388Z</time></trkpt><trkpt lat="37.4539532" lon="-2.7367876"><ele>867.0</ele><time>2026-04-11T16:46:24.388Z</time></trkpt><trkpt lat="37.4540526" lon="-2.7368355"><ele>867.0</ele><time>2026-04-11T16:46:25.387Z</time></trkpt><trkpt lat="37.4541495" lon="-2.7368999"><ele>867.0</ele><time>2026-04-11T16:46:26.388Z</time></trkpt><trkpt lat="37.4542602" lon="-2.7369373"><ele>867.0</ele><time>2026-04-11T16:46:27.388Z</time></trkpt><trkpt lat="37.4543788" lon="-2.7369192"><ele>867.0</ele><time>2026-04-11T16:46:28.387Z</time></trkpt><trkpt lat="37.454508" lon="-2.7368733"><ele>867.0</ele><time>2026-04-11T16:46:29.388Z</time></trkpt><trkpt lat="37.4546487" lon="-2.7368246"><ele>866.3333333333333</ele><time>2026-04-11T16:46:30.388Z</time></trkpt><trkpt lat="37.4548012" lon="-2.736775"><ele>865.6666666666666</ele><time>2026-04-11T16:46:31.388Z</time></trkpt><trkpt lat="37.4549554" lon="-2.736725"><ele>865.0</ele><time>2026-04-11T16:46:32.388Z</time></trkpt><trkpt lat="37.455126" lon="-2.7366803"><ele>865.0</ele><time>2026-04-11T16:46:33.388Z</time></trkpt><trkpt lat="37.4552941" lon="-2.7366449"><ele>865.0</ele><time>2026-04-11T16:46:34.387Z</time></trkpt><trkpt lat="37.4554682" lon="-2.7366288"><ele>865.0</ele><time>2026-04-11T16:46:35.388Z</time></trkpt><trkpt lat="37.4556528" lon="-2.7366395"><ele>863.3333333333333</ele><time>2026-04-11T16:46:36.387Z</time></trkpt><trkpt lat="37.4558441" lon="-2.7366879"><ele>861.6666666666667</ele><time>2026-04-11T16:46:37.388Z</time></trkpt><trkpt lat="37.456042" lon="-2.73676"><ele>860.0</ele><time>2026-04-11T16:46:38.388Z</time></trkpt><trkpt lat="37.4562377" lon="-2.7368565"><ele>860.3333333333334</ele><time>2026-04-11T16:46:39.388Z</time></trkpt><trkpt lat="37.4564337" lon="-2.736971"><ele>860.6666666666667</ele><time>2026-04-11T16:46:40.388Z</time></trkpt><trkpt lat="37.4566287" lon="-2.7370883"><ele>861.0</ele><time>2026-04-11T16:46:41.388Z</time></trkpt><trkpt lat="37.4568364" lon="-2.7371954"><ele>861.0</ele><time>2026-04-11T16:46:42.388Z</time></trkpt><trkpt lat="37.4570554" lon="-2.7372882"><ele>861.0</ele><time>2026-04-11T16:46:43.388Z</time></trkpt><trkpt lat="37.4572849" lon="-2.7373487"><ele>860.0</ele><time>2026-04-11T16:46:44.387Z</time></trkpt><trkpt lat="37.4575279" lon="-2.7373822"><ele>859.0</ele><time>2026-04-11T16:46:45.388Z</time></trkpt><trkpt lat="37.4577723" lon="-2.7373785"><ele>856.5</ele><time>2026-04-11T16:46:46.387Z</time></trkpt><trkpt lat="37.4580301" lon="-2.7373641"><ele>854.0</ele><time>2026-04-11T16:46:47.388Z</time></trkpt><trkpt lat="37.458291" lon="-2.7373502"><ele>854.0</ele><time>2026-04-11T16:46:48.387Z</time></trkpt><trkpt lat="37.458559" lon="-2.7373409"><ele>854.0</ele><time>2026-04-11T16:46:49.388Z</time></trkpt><trkpt lat="37.4588372" lon="-2.7373273"><ele>852.5</ele><time>2026-04-11T16:46:50.388Z</time></trkpt><trkpt lat="37.4591115" lon="-2.7373174"><ele>851.0</ele><time>2026-04-11T16:46:51.388Z</time></trkpt><trkpt lat="37.4593867" lon="-2.7373035"><ele>850.5</ele><time>2026-04-11T16:46:52.388Z</time></trkpt><trkpt lat="37.4596643" lon="-2.737287"><ele>850.0</ele><time>2026-04-11T16:46:53.388Z</time></trkpt><trkpt lat="37.459942" lon="-2.7372734"><ele>850.0</ele><time>2026-04-11T16:46:54.388Z</time></trkpt><trkpt lat="37.4602204" lon="-2.7372591"><ele>850.0</ele><time>2026-04-11T16:46:55.388Z</time></trkpt><trkpt lat="37.460499" lon="-2.7372487"><ele>848.5</ele><time>2026-04-11T16:46:56.388Z</time></trkpt><trkpt lat="37.4607786" lon="-2.7372315"><ele>847.0</ele><time>2026-04-11T16:46:57.388Z</time></trkpt><trkpt lat="37.4610559" lon="-2.7372162"><ele>846.5</ele><time>2026-04-11T16:46:58.388Z</time></trkpt><trkpt lat="37.4613321" lon="-2.7372027"><ele>846.0</ele><time>2026-04-11T16:46:59.388Z</time></trkpt><trkpt lat="37.4616068" lon="-2.7371894"><ele>846.0</ele><time>2026-04-11T16:47:00.388Z</time></trkpt><trkpt lat="37.4618823" lon="-2.7371751"><ele>846.0</ele><time>2026-04-11T16:47:01.388Z</time></trkpt><trkpt lat="37.4621569" lon="-2.7371616"><ele>845.5</ele><time>2026-04-11T16:47:02.388Z</time></trkpt><trkpt lat="37.4624314" lon="-2.7371494"><ele>845.0</ele><time>2026-04-11T16:47:03.387Z</time></trkpt><trkpt lat="37.4627056" lon="-2.7371404"><ele>845.5</ele><time>2026-04-11T16:47:04.388Z</time></trkpt><trkpt lat="37.4629792" lon="-2.7371259"><ele>846.0</ele><time>2026-04-11T16:47:05.388Z</time></trkpt><trkpt lat="37.4632525" lon="-2.7371126"><ele>846.0</ele><time>2026-04-11T16:47:06.388Z</time></trkpt><trkpt lat="37.4635274" lon="-2.7370982"><ele>846.0</ele><time>2026-04-11T16:47:07.388Z</time></trkpt><trkpt lat="37.4638034" lon="-2.7370846"><ele>845.0</ele><time>2026-04-11T16:47:08.388Z</time></trkpt><trkpt lat="37.4640773" lon="-2.7370708"><ele>844.0</ele><time>2026-04-11T16:47:09.387Z</time></trkpt><trkpt lat="37.4643556" lon="-2.737057"><ele>841.0</ele><time>2026-04-11T16:47:10.388Z</time></trkpt><trkpt lat="37.4646308" lon="-2.7370465"><ele>838.0</ele><time>2026-04-11T16:47:11.388Z</time></trkpt><trkpt lat="37.4649066" lon="-2.7370352"><ele>838.0</ele><time>2026-04-11T16:47:12.388Z</time></trkpt><trkpt lat="37.4651844" lon="-2.7370282"><ele>838.0</ele><time>2026-04-11T16:47:13.388Z</time></trkpt><trkpt lat="37.4654576" lon="-2.7370174"><ele>837.5</ele><time>2026-04-11T16:47:14.388Z</time></trkpt><trkpt lat="37.4657329" lon="-2.7370116"><ele>837.0</ele><time>2026-04-11T16:47:15.388Z</time></trkpt><trkpt lat="37.466009" lon="-2.7370094"><ele>835.5</ele><time>2026-04-11T16:47:16.388Z</time></trkpt><trkpt lat="37.4662876" lon="-2.7370098"><ele>834.0</ele><time>2026-04-11T16:47:17.387Z</time></trkpt><trkpt lat="37.4665654" lon="-2.7370106"><ele>834.0</ele><time>2026-04-11T16:47:18.388Z</time></trkpt><trkpt lat="37.4668451" lon="-2.7370184"><ele>834.0</ele><time>2026-04-11T16:47:19.388Z</time></trkpt><trkpt lat="37.467128" lon="-2.737024"><ele>833.0</ele><time>2026-04-11T16:47:20.388Z</time></trkpt><trkpt lat="37.4674143" lon="-2.7370315"><ele>832.0</ele><time>2026-04-11T16:47:21.388Z</time></trkpt><trkpt lat="37.4677005" lon="-2.7370428"><ele>832.5</ele><time>2026-04-11T16:47:22.388Z</time></trkpt><trkpt lat="37.4679938" lon="-2.7370536"><ele>833.0</ele><time>2026-04-11T16:47:23.387Z</time></trkpt><trkpt lat="37.4682845" lon="-2.7370797"><ele>833.0</ele><time>2026-04-11T16:47:24.387Z</time></trkpt><trkpt lat="37.4685756" lon="-2.7370987"><ele>833.0</ele><time>2026-04-11T16:47:25.388Z</time></trkpt><trkpt lat="37.4688651" lon="-2.7371222"><ele>832.5</ele><time>2026-04-11T16:47:26.388Z</time></trkpt><trkpt lat="37.4691539" lon="-2.7371461"><ele>832.0</ele><time>2026-04-11T16:47:27.388Z</time></trkpt><trkpt lat="37.4694442" lon="-2.7371712"><ele>831.5</ele><time>2026-04-11T16:47:28.388Z</time></trkpt><trkpt lat="37.4697372" lon="-2.7371996"><ele>831.0</ele><time>2026-04-11T16:47:29.388Z</time></trkpt><trkpt lat="37.4700287" lon="-2.7372316"><ele>831.0</ele><time>2026-04-11T16:47:30.388Z</time></trkpt><trkpt lat="37.4703225" lon="-2.7372594"><ele>831.0</ele><time>2026-04-11T16:47:31.388Z</time></trkpt><trkpt lat="37.4706163" lon="-2.7372956"><ele>831.0</ele><time>2026-04-11T16:47:32.388Z</time></trkpt><trkpt lat="37.4709096" lon="-2.7373307"><ele>831.0</ele><time>2026-04-11T16:47:33.387Z</time></trkpt><trkpt lat="37.4712036" lon="-2.7373687"><ele>830.5</ele><time>2026-04-11T16:47:34.388Z</time></trkpt><trkpt lat="37.4715012" lon="-2.7374113"><ele>830.0</ele><time>2026-04-11T16:47:35.388Z</time></trkpt><trkpt lat="37.4717948" lon="-2.7374558"><ele>830.0</ele><time>2026-04-11T16:47:36.387Z</time></trkpt><trkpt lat="37.4720948" lon="-2.7375004"><ele>830.0</ele><time>2026-04-11T16:47:37.388Z</time></trkpt><trkpt lat="37.4723931" lon="-2.737554"><ele>828.5</ele><time>2026-04-11T16:47:38.388Z</time></trkpt><trkpt lat="37.4726912" lon="-2.7376081"><ele>827.0</ele><time>2026-04-11T16:47:39.387Z</time></trkpt><trkpt lat="37.4729892" lon="-2.7376643"><ele>827.0</ele><time>2026-04-11T16:47:40.388Z</time></trkpt><trkpt lat="37.4732868" lon="-2.7377207"><ele>827.0</ele><time>2026-04-11T16:47:41.387Z</time></trkpt><trkpt lat="37.4735838" lon="-2.7377815"><ele>826.0</ele><time>2026-04-11T16:47:42.388Z</time></trkpt><trkpt lat="37.4738792" lon="-2.7378474"><ele>825.0</ele><time>2026-04-11T16:47:43.388Z</time></trkpt><trkpt lat="37.4741704" lon="-2.7379175"><ele>825.0</ele><time>2026-04-11T16:47:44.388Z</time></trkpt><trkpt lat="37.4744662" lon="-2.7379853"><ele>825.0</ele><time>2026-04-11T16:47:45.388Z</time></trkpt><trkpt lat="37.4747587" lon="-2.7380646"><ele>825.0</ele><time>2026-04-11T16:47:46.388Z</time></trkpt><trkpt lat="37.4750489" lon="-2.7381393"><ele>825.0</ele><time>2026-04-11T16:47:47.388Z</time></trkpt><trkpt lat="37.4753377" lon="-2.7382133"><ele>824.5</ele><time>2026-04-11T16:47:48.388Z</time></trkpt><trkpt lat="37.475629" lon="-2.7382849"><ele>824.0</ele><time>2026-04-11T16:47:49.388Z</time></trkpt><trkpt lat="37.4759159" lon="-2.7383652"><ele>824.0</ele><time>2026-04-11T16:47:50.388Z</time></trkpt><trkpt lat="37.476204" lon="-2.7384441"><ele>824.0</ele><time>2026-04-11T16:47:51.388Z</time></trkpt><trkpt lat="37.4764917" lon="-2.7385254"><ele>823.5</ele><time>2026-04-11T16:47:52.388Z</time></trkpt><trkpt lat="37.4767786" lon="-2.7386012"><ele>823.0</ele><time>2026-04-11T16:47:53.388Z</time></trkpt><trkpt lat="37.4770601" lon="-2.7386765"><ele>822.0</ele><time>2026-04-11T16:47:54.387Z</time></trkpt><trkpt lat="37.477343" lon="-2.7387489"><ele>821.0</ele><time>2026-04-11T16:47:55.388Z</time></trkpt><trkpt lat="37.4776229" lon="-2.7388164"><ele>821.0</ele><time>2026-04-11T16:47:56.387Z</time></trkpt><trkpt lat="37.4779019" lon="-2.7388801"><ele>821.0</ele><time>2026-04-11T16:47:57.388Z</time></trkpt><trkpt lat="37.4781815" lon="-2.7389401"><ele>820.5</ele><time>2026-04-11T16:47:58.387Z</time></trkpt><trkpt lat="37.4784585" lon="-2.7390019"><ele>820.0</ele><time>2026-04-11T16:47:59.387Z</time></trkpt><trkpt lat="37.4787339" lon="-2.7390651"><ele>819.0</ele><time>2026-04-11T16:48:00.387Z</time></trkpt><trkpt lat="37.4790098" lon="-2.739121"><ele>818.0</ele><time>2026-04-11T16:48:01.388Z</time></trkpt><trkpt lat="37.4792853" lon="-2.7391768"><ele>818.0</ele><time>2026-04-11T16:48:02.387Z</time></trkpt><trkpt lat="37.4795605" lon="-2.7392323"><ele>818.0</ele><time>2026-04-11T16:48:03.388Z</time></trkpt><trkpt lat="37.4798388" lon="-2.7392856"><ele>817.0</ele><time>2026-04-11T16:48:04.387Z</time></trkpt><trkpt lat="37.4801182" lon="-2.7393352"><ele>816.0</ele><time>2026-04-11T16:48:05.387Z</time></trkpt><trkpt lat="37.4804025" lon="-2.739382"><ele>816.0</ele><time>2026-04-11T16:48:06.388Z</time></trkpt><trkpt lat="37.4806831" lon="-2.7394292"><ele>816.0</ele><time>2026-04-11T16:48:07.387Z</time></trkpt><trkpt lat="37.4809657" lon="-2.7394696"><ele>816.0</ele><time>2026-04-11T16:48:08.388Z</time></trkpt><trkpt lat="37.4812529" lon="-2.7395099"><ele>816.0</ele><time>2026-04-11T16:48:09.387Z</time></trkpt><trkpt lat="37.4815382" lon="-2.7395504"><ele>815.0</ele><time>2026-04-11T16:48:10.388Z</time></trkpt><trkpt lat="37.4818248" lon="-2.7395875"><ele>814.0</ele><time>2026-04-11T16:48:11.388Z</time></trkpt><trkpt lat="37.4821104" lon="-2.7396272"><ele>813.5</ele><time>2026-04-11T16:48:12.388Z</time></trkpt><trkpt lat="37.482393" lon="-2.7396623"><ele>813.0</ele><time>2026-04-11T16:48:13.388Z</time></trkpt><trkpt lat="37.4826753" lon="-2.7396962"><ele>812.5</ele><time>2026-04-11T16:48:14.388Z</time></trkpt><trkpt lat="37.482957" lon="-2.7397256"><ele>812.0</ele><time>2026-04-11T16:48:15.388Z</time></trkpt><trkpt lat="37.4832391" lon="-2.7397544"><ele>812.0</ele><time>2026-04-11T16:48:16.388Z</time></trkpt><trkpt lat="37.4835166" lon="-2.7397768"><ele>812.0</ele><time>2026-04-11T16:48:17.388Z</time></trkpt><trkpt lat="37.4837937" lon="-2.7397911"><ele>811.5</ele><time>2026-04-11T16:48:18.387Z</time></trkpt><trkpt lat="37.4840699" lon="-2.7398117"><ele>811.0</ele><time>2026-04-11T16:48:19.388Z</time></trkpt><trkpt lat="37.4843513" lon="-2.7398289"><ele>810.5</ele><time>2026-04-11T16:48:20.388Z</time></trkpt><trkpt lat="37.4846302" lon="-2.7398454"><ele>810.0</ele><time>2026-04-11T16:48:21.388Z</time></trkpt><trkpt lat="37.4849084" lon="-2.7398574"><ele>810.0</ele><time>2026-04-11T16:48:22.387Z</time></trkpt><trkpt lat="37.4851899" lon="-2.7398681"><ele>810.0</ele><time>2026-04-11T16:48:23.388Z</time></trkpt><trkpt lat="37.4854705" lon="-2.739873"><ele>808.5</ele><time>2026-04-11T16:48:24.388Z</time></trkpt><trkpt lat="37.485749" lon="-2.7398876"><ele>807.0</ele><time>2026-04-11T16:48:25.388Z</time></trkpt><trkpt lat="37.4860227" lon="-2.7398935"><ele>806.5</ele><time>2026-04-11T16:48:26.388Z</time></trkpt><trkpt lat="37.486303" lon="-2.7398975"><ele>806.0</ele><time>2026-04-11T16:48:27.388Z</time></trkpt><trkpt lat="37.4865854" lon="-2.7399041"><ele>806.0</ele><time>2026-04-11T16:48:28.388Z</time></trkpt><trkpt lat="37.4868674" lon="-2.739904"><ele>806.0</ele><time>2026-04-11T16:48:29.388Z</time></trkpt><trkpt lat="37.4871461" lon="-2.7399002"><ele>805.5</ele><time>2026-04-11T16:48:30.388Z</time></trkpt><trkpt lat="37.4874242" lon="-2.7398949"><ele>805.0</ele><time>2026-04-11T16:48:31.388Z</time></trkpt><trkpt lat="37.4877067" lon="-2.7398927"><ele>804.5</ele><time>2026-04-11T16:48:32.388Z</time></trkpt><trkpt lat="37.4879757" lon="-2.739889"><ele>804.0</ele><time>2026-04-11T16:48:33.387Z</time></trkpt><trkpt lat="37.4882484" lon="-2.7398855"><ele>804.0</ele><time>2026-04-11T16:48:34.388Z</time></trkpt><trkpt lat="37.4885148" lon="-2.7398824"><ele>804.0</ele><time>2026-04-11T16:48:35.388Z</time></trkpt><trkpt lat="37.4887789" lon="-2.7398805"><ele>802.5</ele><time>2026-04-11T16:48:36.387Z</time></trkpt><trkpt lat="37.4890469" lon="-2.7398743"><ele>801.0</ele><time>2026-04-11T16:48:37.388Z</time></trkpt><trkpt lat="37.4893113" lon="-2.739866"><ele>801.0</ele><time>2026-04-11T16:48:38.388Z</time></trkpt><trkpt lat="37.4895785" lon="-2.7398584"><ele>801.0</ele><time>2026-04-11T16:48:39.388Z</time></trkpt><trkpt lat="37.4898451" lon="-2.73985"><ele>800.0</ele><time>2026-04-11T16:48:40.388Z</time></trkpt><trkpt lat="37.4901148" lon="-2.7398525"><ele>799.0</ele><time>2026-04-11T16:48:41.388Z</time></trkpt><trkpt lat="37.4903785" lon="-2.7398494"><ele>799.0</ele><time>2026-04-11T16:48:42.388Z</time></trkpt><trkpt lat="37.4906388" lon="-2.7398343"><ele>799.0</ele><time>2026-04-11T16:48:43.388Z</time></trkpt><trkpt lat="37.4909117" lon="-2.739843"><ele>799.0</ele><time>2026-04-11T16:48:44.388Z</time></trkpt><trkpt lat="37.491178" lon="-2.7398344"><ele>799.0</ele><time>2026-04-11T16:48:45.388Z</time></trkpt><trkpt lat="37.4914523" lon="-2.7398282"><ele>799.0</ele><time>2026-04-11T16:48:46.388Z</time></trkpt><trkpt lat="37.491727" lon="-2.7398193"><ele>799.0</ele><time>2026-04-11T16:48:47.388Z</time></trkpt><trkpt lat="37.4920073" lon="-2.7398139"><ele>798.5</ele><time>2026-04-11T16:48:48.388Z</time></trkpt><trkpt lat="37.4922883" lon="-2.7398095"><ele>798.0</ele><time>2026-04-11T16:48:49.388Z</time></trkpt><trkpt lat="37.4925735" lon="-2.7397995"><ele>798.0</ele><time>2026-04-11T16:48:50.388Z</time></trkpt><trkpt lat="37.4928585" lon="-2.7397926"><ele>798.0</ele><time>2026-04-11T16:48:51.388Z</time></trkpt><trkpt lat="37.4931445" lon="-2.739785"><ele>798.0</ele><time>2026-04-11T16:48:52.388Z</time></trkpt><trkpt lat="37.4934298" lon="-2.7397822"><ele>798.0</ele><time>2026-04-11T16:48:53.387Z</time></trkpt><trkpt lat="37.4937168" lon="-2.739788"><ele>798.0</ele><time>2026-04-11T16:48:54.388Z</time></trkpt><trkpt lat="37.4940081" lon="-2.7397795"><ele>798.0</ele><time>2026-04-11T16:48:55.388Z</time></trkpt><trkpt lat="37.4942978" lon="-2.7397755"><ele>798.0</ele><time>2026-04-11T16:48:56.388Z</time></trkpt><trkpt lat="37.4945858" lon="-2.739772"><ele>798.0</ele><time>2026-04-11T16:48:57.388Z</time></trkpt><trkpt lat="37.4948715" lon="-2.7397652"><ele>797.0</ele><time>2026-04-11T16:48:58.388Z</time></trkpt><trkpt lat="37.4951593" lon="-2.7397615"><ele>796.0</ele><time>2026-04-11T16:48:59.387Z</time></trkpt><trkpt lat="37.4954417" lon="-2.7397581"><ele>794.5</ele><time>2026-04-11T16:49:00.388Z</time></trkpt><trkpt lat="37.495722" lon="-2.7397521"><ele>793.0</ele><time>2026-04-11T16:49:01.388Z</time></trkpt><trkpt lat="37.4960031" lon="-2.7397464"><ele>793.0</ele><time>2026-04-11T16:49:02.388Z</time></trkpt><trkpt lat="37.4962807" lon="-2.7397422"><ele>793.0</ele><time>2026-04-11T16:49:03.388Z</time></trkpt><trkpt lat="37.4965542" lon="-2.7397361"><ele>793.0</ele><time>2026-04-11T16:49:04.388Z</time></trkpt><trkpt lat="37.4968296" lon="-2.7397292"><ele>793.0</ele><time>2026-04-11T16:49:05.388Z</time></trkpt><trkpt lat="37.4971054" lon="-2.7397239"><ele>793.0</ele><time>2026-04-11T16:49:06.387Z</time></trkpt><trkpt lat="37.4973788" lon="-2.7397175"><ele>793.0</ele><time>2026-04-11T16:49:07.388Z</time></trkpt><trkpt lat="37.4976533" lon="-2.7397108"><ele>791.5</ele><time>2026-04-11T16:49:08.388Z</time></trkpt><trkpt lat="37.4979271" lon="-2.7397095"><ele>790.0</ele><time>2026-04-11T16:49:09.388Z</time></trkpt><trkpt lat="37.4982024" lon="-2.7397063"><ele>790.0</ele><time>2026-04-11T16:49:10.388Z</time></trkpt><trkpt lat="37.4984732" lon="-2.7396994"><ele>790.0</ele><time>2026-04-11T16:49:11.388Z</time></trkpt><trkpt lat="37.498748" lon="-2.7396882"><ele>790.5</ele><time>2026-04-11T16:49:12.387Z</time></trkpt><trkpt lat="37.4990201" lon="-2.7396688"><ele>791.0</ele><time>2026-04-11T16:49:13.387Z</time></trkpt><trkpt lat="37.4992943" lon="-2.73964"><ele>791.0</ele><time>2026-04-11T16:49:14.388Z</time></trkpt><trkpt lat="37.4995656" lon="-2.7395982"><ele>791.0</ele><time>2026-04-11T16:49:15.388Z</time></trkpt><trkpt lat="37.4998382" lon="-2.7395433"><ele>792.5</ele><time>2026-04-11T16:49:16.388Z</time></trkpt><trkpt lat="37.5001103" lon="-2.7394728"><ele>794.0</ele><time>2026-04-11T16:49:17.387Z</time></trkpt><trkpt lat="37.5003779" lon="-2.739385"><ele>792.5</ele><time>2026-04-11T16:49:18.388Z</time></trkpt><trkpt lat="37.5006413" lon="-2.739286"><ele>791.0</ele><time>2026-04-11T16:49:19.387Z</time></trkpt><trkpt lat="37.5008978" lon="-2.7391848"><ele>791.0</ele><time>2026-04-11T16:49:20.388Z</time></trkpt><trkpt lat="37.5011461" lon="-2.7390726"><ele>791.0</ele><time>2026-04-11T16:49:21.387Z</time></trkpt><trkpt lat="37.5013896" lon="-2.7389615"><ele>791.0</ele><time>2026-04-11T16:49:22.388Z</time></trkpt><trkpt lat="37.5016244" lon="-2.7388516"><ele>791.0</ele><time>2026-04-11T16:49:23.388Z</time></trkpt><trkpt lat="37.5018529" lon="-2.7387475"><ele>791.0</ele><time>2026-04-11T16:49:24.388Z</time></trkpt><trkpt lat="37.5020726" lon="-2.7386482"><ele>791.0</ele><time>2026-04-11T16:49:25.388Z</time></trkpt><trkpt lat="37.5022697" lon="-2.738559"><ele>791.0</ele><time>2026-04-11T16:49:26.387Z</time></trkpt><trkpt lat="37.5024551" lon="-2.7384744"><ele>790.0</ele><time>2026-04-11T16:49:27.388Z</time></trkpt><trkpt lat="37.5026239" lon="-2.7384024"><ele>789.0</ele><time>2026-04-11T16:49:28.387Z</time></trkpt><trkpt lat="37.5027752" lon="-2.7383356"><ele>788.0</ele><time>2026-04-11T16:49:29.388Z</time></trkpt><trkpt lat="37.5029042" lon="-2.7382795"><ele>788.0</ele><time>2026-04-11T16:49:30.388Z</time></trkpt><trkpt lat="37.50301" lon="-2.7382314"><ele>788.0</ele><time>2026-04-11T16:49:31.388Z</time></trkpt><trkpt lat="37.5030928" lon="-2.7381826"><ele>788.0</ele><time>2026-04-11T16:49:32.388Z</time></trkpt><trkpt lat="37.5031617" lon="-2.738108"><ele>788.0</ele><time>2026-04-11T16:49:33.388Z</time></trkpt><trkpt lat="37.5032252" lon="-2.7380191"><ele>788.0</ele><time>2026-04-11T16:49:34.388Z</time></trkpt><trkpt lat="37.5032912" lon="-2.7379276"><ele>788.0</ele><time>2026-04-11T16:49:35.388Z</time></trkpt><trkpt lat="37.5033715" lon="-2.7378575"><ele>788.0</ele><time>2026-04-11T16:49:36.387Z</time></trkpt><trkpt lat="37.503458" lon="-2.7378171"><ele>788.0</ele><time>2026-04-11T16:49:37.388Z</time></trkpt><trkpt lat="37.503549" lon="-2.7378106"><ele>788.0</ele><time>2026-04-11T16:49:38.388Z</time></trkpt><trkpt lat="37.5036303" lon="-2.7378431"><ele>788.0</ele><time>2026-04-11T16:49:39.388Z</time></trkpt><trkpt lat="37.5037039" lon="-2.7378989"><ele>788.0</ele><time>2026-04-11T16:49:40.388Z</time></trkpt><trkpt lat="37.5037779" lon="-2.737955"><ele>788.0</ele><time>2026-04-11T16:49:41.388Z</time></trkpt><trkpt lat="37.5038632" lon="-2.7379939"><ele>788.0</ele><time>2026-04-11T16:49:42.388Z</time></trkpt><trkpt lat="37.5039663" lon="-2.7380043"><ele>788.0</ele><time>2026-04-11T16:49:43.388Z</time></trkpt><trkpt lat="37.5040789" lon="-2.7380026"><ele>788.0</ele><time>2026-04-11T16:49:44.388Z</time></trkpt><trkpt lat="37.5041978" lon="-2.7380014"><ele>788.0</ele><time>2026-04-11T16:49:45.388Z</time></trkpt><trkpt lat="37.5043303" lon="-2.7380014"><ele>788.0</ele><time>2026-04-11T16:49:46.388Z</time></trkpt><trkpt lat="37.5044676" lon="-2.7380086"><ele>788.0</ele><time>2026-04-11T16:49:47.388Z</time></trkpt><trkpt lat="37.5046069" lon="-2.7380187"><ele>788.0</ele><time>2026-04-11T16:49:48.388Z</time></trkpt><trkpt lat="37.5047535" lon="-2.7380435"><ele>788.6666666666667</ele><time>2026-04-11T16:49:49.388Z</time></trkpt><trkpt lat="37.5049049" lon="-2.7380644"><ele>789.3333333333333</ele><time>2026-04-11T16:49:50.388Z</time></trkpt><trkpt lat="37.505062" lon="-2.7380967"><ele>790.0</ele><time>2026-04-11T16:49:51.388Z</time></trkpt><trkpt lat="37.5052244" lon="-2.7381305"><ele>790.0</ele><time>2026-04-11T16:49:52.388Z</time></trkpt><trkpt lat="37.5053906" lon="-2.738168"><ele>790.0</ele><time>2026-04-11T16:49:53.388Z</time></trkpt><trkpt lat="37.5055605" lon="-2.7382099"><ele>790.0</ele><time>2026-04-11T16:49:54.387Z</time></trkpt><trkpt lat="37.5057315" lon="-2.7382515"><ele>789.0</ele><time>2026-04-11T16:49:55.388Z</time></trkpt><trkpt lat="37.5058989" lon="-2.7382932"><ele>788.0</ele><time>2026-04-11T16:49:56.387Z</time></trkpt><trkpt lat="37.5060684" lon="-2.7383352"><ele>787.0</ele><time>2026-04-11T16:49:57.388Z</time></trkpt><trkpt lat="37.5062023" lon="-2.7383659"><ele>786.8</ele><time>2026-04-11T16:49:58.388Z</time></trkpt><trkpt lat="37.5063181" lon="-2.7383749"><ele>786.6</ele><time>2026-04-11T16:49:59.388Z</time></trkpt><trkpt lat="37.5064215" lon="-2.7383625"><ele>786.4</ele><time>2026-04-11T16:50:00.388Z</time></trkpt><trkpt lat="37.5065054" lon="-2.7383286"><ele>786.1999999999999</ele><time>2026-04-11T16:50:01.388Z</time></trkpt><trkpt lat="37.5065748" lon="-2.73828"><ele>786.0</ele><time>2026-04-11T16:50:02.388Z</time></trkpt><trkpt lat="37.5066229" lon="-2.7382069"><ele>786.0</ele><time>2026-04-11T16:50:03.388Z</time></trkpt><trkpt lat="37.5066465" lon="-2.738079"><ele>786.0</ele><time>2026-04-11T16:50:05.388Z</time></trkpt><trkpt lat="37.5066273" lon="-2.7379545"><ele>786.0</ele><time>2026-04-11T16:50:07.388Z</time></trkpt><trkpt lat="37.5066312" lon="-2.7378101"><ele>786.0</ele><time>2026-04-11T16:50:09.388Z</time></trkpt><trkpt lat="37.5066964" lon="-2.7376819"><ele>786.0</ele><time>2026-04-11T16:50:11.388Z</time></trkpt><trkpt lat="37.5067538" lon="-2.7376488"><ele>786.0000000000001</ele><time>2026-04-11T16:50:12.388Z</time></trkpt><trkpt lat="37.5068196" lon="-2.737651"><ele>786.0</ele><time>2026-04-11T16:50:13.388Z</time></trkpt><trkpt lat="37.5068806" lon="-2.7376817"><ele>786.0</ele><time>2026-04-11T16:50:14.387Z</time></trkpt><trkpt lat="37.506929" lon="-2.7377389"><ele>786.0</ele><time>2026-04-11T16:50:15.388Z</time></trkpt><trkpt lat="37.5069554" lon="-2.7378147"><ele>786.0</ele><time>2026-04-11T16:50:16.388Z</time></trkpt><trkpt lat="37.5069536" lon="-2.7378973"><ele>786.0000000000001</ele><time>2026-04-11T16:50:17.388Z</time></trkpt><trkpt lat="37.5069286" lon="-2.7379712"><ele>786.0</ele><time>2026-04-11T16:50:18.387Z</time></trkpt><trkpt lat="37.5068259" lon="-2.7380529"><ele>786.0</ele><time>2026-04-11T16:50:20.388Z</time></trkpt><trkpt lat="37.5067033" lon="-2.738012"><ele>786.0</ele><time>2026-04-11T16:50:22.388Z</time></trkpt><trkpt lat="37.506661" lon="-2.7379458"><ele>786.0</ele><time>2026-04-11T16:50:23.388Z</time></trkpt><trkpt lat="37.5066463" lon="-2.7378612"><ele>786.0</ele><time>2026-04-11T16:50:24.387Z</time></trkpt><trkpt lat="37.5066533" lon="-2.7377681"><ele>786.0</ele><time>2026-04-11T16:50:25.387Z</time></trkpt><trkpt lat="37.50667" lon="-2.7376697"><ele>786.0</ele><time>2026-04-11T16:50:26.388Z</time></trkpt><trkpt lat="37.5066776" lon="-2.7375606"><ele>786.4</ele><time>2026-04-11T16:50:27.388Z</time></trkpt><trkpt lat="37.5066697" lon="-2.7374412"><ele>786.8</ele><time>2026-04-11T16:50:28.387Z</time></trkpt><trkpt lat="37.5066417" lon="-2.7373258"><ele>787.1999999999999</ele><time>2026-04-11T16:50:29.388Z</time></trkpt><trkpt lat="37.5066008" lon="-2.7372273"><ele>787.5999999999999</ele><time>2026-04-11T16:50:30.388Z</time></trkpt><trkpt lat="37.506529" lon="-2.7371632"><ele>788.0</ele><time>2026-04-11T16:50:31.388Z</time></trkpt><trkpt lat="37.5064413" lon="-2.7371162"><ele>788.0</ele><time>2026-04-11T16:50:32.388Z</time></trkpt><trkpt lat="37.5063501" lon="-2.7370828"><ele>788.0</ele><time>2026-04-11T16:50:33.388Z</time></trkpt><trkpt lat="37.5062455" lon="-2.7370741"><ele>788.0</ele><time>2026-04-11T16:50:34.388Z</time></trkpt><trkpt lat="37.5061355" lon="-2.737101"><ele>788.0</ele><time>2026-04-11T16:50:35.388Z</time></trkpt><trkpt lat="37.5060269" lon="-2.7371656"><ele>788.0</ele><time>2026-04-11T16:50:36.388Z</time></trkpt><trkpt lat="37.5059309" lon="-2.7372573"><ele>787.75</ele><time>2026-04-11T16:50:37.388Z</time></trkpt><trkpt lat="37.5058507" lon="-2.7373818"><ele>787.5</ele><time>2026-04-11T16:50:38.388Z</time></trkpt><trkpt lat="37.5057876" lon="-2.7375418"><ele>787.25</ele><time>2026-04-11T16:50:39.388Z</time></trkpt><trkpt lat="37.5057397" lon="-2.7377179"><ele>787.0</ele><time>2026-04-11T16:50:40.388Z</time></trkpt><trkpt lat="37.5056946" lon="-2.737909"><ele>787.0</ele><time>2026-04-11T16:50:41.388Z</time></trkpt><trkpt lat="37.505657" lon="-2.738113"><ele>787.0</ele><time>2026-04-11T16:50:42.388Z</time></trkpt><trkpt lat="37.5056214" lon="-2.738322"><ele>787.0</ele><time>2026-04-11T16:50:43.388Z</time></trkpt><trkpt lat="37.5055855" lon="-2.7385432"><ele>787.3333333333333</ele><time>2026-04-11T16:50:44.388Z</time></trkpt><trkpt lat="37.5055533" lon="-2.7387766"><ele>787.6666666666667</ele><time>2026-04-11T16:50:45.388Z</time></trkpt><trkpt lat="37.50552" lon="-2.739015"><ele>788.0</ele><time>2026-04-11T16:50:46.388Z</time></trkpt><trkpt lat="37.5054883" lon="-2.7392668"><ele>787.0</ele><time>2026-04-11T16:50:47.388Z</time></trkpt><trkpt lat="37.5054607" lon="-2.7395281"><ele>786.0</ele><time>2026-04-11T16:50:48.387Z</time></trkpt><trkpt lat="37.5054336" lon="-2.7397983"><ele>785.0</ele><time>2026-04-11T16:50:49.388Z</time></trkpt><trkpt lat="37.5054175" lon="-2.7400786"><ele>786.0</ele><time>2026-04-11T16:50:50.388Z</time></trkpt><trkpt lat="37.505409" lon="-2.7403672"><ele>787.0</ele><time>2026-04-11T16:50:51.387Z</time></trkpt><trkpt lat="37.5054027" lon="-2.7406657"><ele>787.0</ele><time>2026-04-11T16:50:52.388Z</time></trkpt><trkpt lat="37.5054071" lon="-2.7409673"><ele>787.0</ele><time>2026-04-11T16:50:53.387Z</time></trkpt><trkpt lat="37.5054162" lon="-2.7412758"><ele>786.5</ele><time>2026-04-11T16:50:54.388Z</time></trkpt><trkpt lat="37.5054271" lon="-2.7415885"><ele>786.0</ele><time>2026-04-11T16:50:55.387Z</time></trkpt><trkpt lat="37.505443" lon="-2.7419037"><ele>787.5</ele><time>2026-04-11T16:50:56.388Z</time></trkpt><trkpt lat="37.5054648" lon="-2.7422277"><ele>789.0</ele><time>2026-04-11T16:50:57.388Z</time></trkpt><trkpt lat="37.5054906" lon="-2.7425564"><ele>789.0</ele><time>2026-04-11T16:50:58.387Z</time></trkpt><trkpt lat="37.5055214" lon="-2.7428881"><ele>789.0</ele><time>2026-04-11T16:50:59.387Z</time></trkpt><trkpt lat="37.5055539" lon="-2.7432241"><ele>788.0</ele><time>2026-04-11T16:51:00.388Z</time></trkpt><trkpt lat="37.5055864" lon="-2.743565"><ele>787.0</ele><time>2026-04-11T16:51:01.388Z</time></trkpt><trkpt lat="37.5056203" lon="-2.7439085"><ele>787.0</ele><time>2026-04-11T16:51:02.388Z</time></trkpt><trkpt lat="37.5056532" lon="-2.7442574"><ele>787.0</ele><time>2026-04-11T16:51:03.388Z</time></trkpt><trkpt lat="37.5056865" lon="-2.7446119"><ele>787.0</ele><time>2026-04-11T16:51:04.388Z</time></trkpt><trkpt lat="37.505719" lon="-2.7449697"><ele>787.0</ele><time>2026-04-11T16:51:05.388Z</time></trkpt><trkpt lat="37.5057518" lon="-2.7453324"><ele>787.0</ele><time>2026-04-11T16:51:06.388Z</time></trkpt><trkpt lat="37.5057831" lon="-2.7456984"><ele>787.0</ele><time>2026-04-11T16:51:07.388Z</time></trkpt><trkpt lat="37.505813" lon="-2.7460706"><ele>786.0</ele><time>2026-04-11T16:51:08.388Z</time></trkpt><trkpt lat="37.5058411" lon="-2.7464491"><ele>785.0</ele><time>2026-04-11T16:51:09.387Z</time></trkpt><trkpt lat="37.5058662" lon="-2.7468294"><ele>785.0</ele><time>2026-04-11T16:51:10.388Z</time></trkpt><trkpt lat="37.5058855" lon="-2.7472157"><ele>785.0</ele><time>2026-04-11T16:51:11.387Z</time></trkpt><trkpt lat="37.5059029" lon="-2.7476068"><ele>785.0</ele><time>2026-04-11T16:51:12.388Z</time></trkpt><trkpt lat="37.5059156" lon="-2.7480047"><ele>785.0</ele><time>2026-04-11T16:51:13.388Z</time></trkpt><trkpt lat="37.5059235" lon="-2.7484031"><ele>786.0</ele><time>2026-04-11T16:51:14.388Z</time></trkpt><trkpt lat="37.5059234" lon="-2.7488033"><ele>787.0</ele><time>2026-04-11T16:51:15.388Z</time></trkpt><trkpt lat="37.5059189" lon="-2.7492043"><ele>785.5</ele><time>2026-04-11T16:51:16.388Z</time></trkpt><trkpt lat="37.5059099" lon="-2.7496075"><ele>784.0</ele><time>2026-04-11T16:51:17.388Z</time></trkpt><trkpt lat="37.5058932" lon="-2.7500084"><ele>783.5</ele><time>2026-04-11T16:51:18.388Z</time></trkpt><trkpt lat="37.5058729" lon="-2.750411"><ele>783.0</ele><time>2026-04-11T16:51:19.388Z</time></trkpt><trkpt lat="37.5058461" lon="-2.7508122"><ele>784.0</ele><time>2026-04-11T16:51:20.388Z</time></trkpt><trkpt lat="37.5058157" lon="-2.7512141"><ele>785.0</ele><time>2026-04-11T16:51:21.387Z</time></trkpt><trkpt lat="37.5057803" lon="-2.7516169"><ele>783.5</ele><time>2026-04-11T16:51:22.387Z</time></trkpt><trkpt lat="37.5057441" lon="-2.7520136"><ele>782.0</ele><time>2026-04-11T16:51:23.387Z</time></trkpt><trkpt lat="37.5057019" lon="-2.7524098"><ele>783.0</ele><time>2026-04-11T16:51:24.387Z</time></trkpt><trkpt lat="37.5056537" lon="-2.7528072"><ele>784.0</ele><time>2026-04-11T16:51:25.387Z</time></trkpt><trkpt lat="37.5056067" lon="-2.7532031"><ele>785.0</ele><time>2026-04-11T16:51:26.388Z</time></trkpt><trkpt lat="37.5055565" lon="-2.7535987"><ele>786.0</ele><time>2026-04-11T16:51:27.388Z</time></trkpt><trkpt lat="37.5055007" lon="-2.7539944"><ele>786.0</ele><time>2026-04-11T16:51:28.388Z</time></trkpt><trkpt lat="37.5054445" lon="-2.7543929"><ele>786.0</ele><time>2026-04-11T16:51:29.388Z</time></trkpt><trkpt lat="37.5053878" lon="-2.7547889"><ele>786.0</ele><time>2026-04-11T16:51:30.388Z</time></trkpt><trkpt lat="37.5053267" lon="-2.7551831"><ele>786.0</ele><time>2026-04-11T16:51:31.388Z</time></trkpt><trkpt lat="37.5052601" lon="-2.7555749"><ele>786.0</ele><time>2026-04-11T16:51:32.388Z</time></trkpt><trkpt lat="37.5051953" lon="-2.7559683"><ele>786.0</ele><time>2026-04-11T16:51:33.388Z</time></trkpt><trkpt lat="37.5051287" lon="-2.7563566"><ele>786.0</ele><time>2026-04-11T16:51:34.387Z</time></trkpt><trkpt lat="37.5050672" lon="-2.7567441"><ele>786.0</ele><time>2026-04-11T16:51:35.388Z</time></trkpt><trkpt lat="37.5050037" lon="-2.7571292"><ele>786.0</ele><time>2026-04-11T16:51:36.387Z</time></trkpt><trkpt lat="37.5049369" lon="-2.7575182"><ele>786.0</ele><time>2026-04-11T16:51:37.388Z</time></trkpt><trkpt lat="37.5048716" lon="-2.7579067"><ele>786.0</ele><time>2026-04-11T16:51:38.388Z</time></trkpt><trkpt lat="37.5048093" lon="-2.7582874"><ele>786.0</ele><time>2026-04-11T16:51:39.387Z</time></trkpt><trkpt lat="37.5047503" lon="-2.7586727"><ele>786.0</ele><time>2026-04-11T16:51:40.388Z</time></trkpt><trkpt lat="37.5046917" lon="-2.7590537"><ele>786.0</ele><time>2026-04-11T16:51:41.388Z</time></trkpt><trkpt lat="37.504638" lon="-2.7594346"><ele>786.0</ele><time>2026-04-11T16:51:42.387Z</time></trkpt><trkpt lat="37.5045851" lon="-2.7598197"><ele>786.0</ele><time>2026-04-11T16:51:43.387Z</time></trkpt><trkpt lat="37.504535" lon="-2.7602029"><ele>786.0</ele><time>2026-04-11T16:51:44.388Z</time></trkpt><trkpt lat="37.504489" lon="-2.7605894"><ele>786.0</ele><time>2026-04-11T16:51:45.387Z</time></trkpt><trkpt lat="37.5044516" lon="-2.7609772"><ele>786.0</ele><time>2026-04-11T16:51:46.388Z</time></trkpt><trkpt lat="37.504424" lon="-2.7613655"><ele>786.0</ele><time>2026-04-11T16:51:47.388Z</time></trkpt><trkpt lat="37.5044069" lon="-2.7617547"><ele>786.0</ele><time>2026-04-11T16:51:48.388Z</time></trkpt><trkpt lat="37.5044026" lon="-2.762139"><ele>786.0</ele><time>2026-04-11T16:51:49.388Z</time></trkpt><trkpt lat="37.5044154" lon="-2.7625256"><ele>787.0</ele><time>2026-04-11T16:51:50.388Z</time></trkpt><trkpt lat="37.5044442" lon="-2.7629057"><ele>788.0</ele><time>2026-04-11T16:51:51.388Z</time></trkpt><trkpt lat="37.5044777" lon="-2.7632923"><ele>788.5</ele><time>2026-04-11T16:51:52.388Z</time></trkpt><trkpt lat="37.5045214" lon="-2.7636742"><ele>789.0</ele><time>2026-04-11T16:51:53.388Z</time></trkpt><trkpt lat="37.5045729" lon="-2.7640549"><ele>789.5</ele><time>2026-04-11T16:51:54.387Z</time></trkpt><trkpt lat="37.5046292" lon="-2.7644344"><ele>790.0</ele><time>2026-04-11T16:51:55.387Z</time></trkpt><trkpt lat="37.504698" lon="-2.764807"><ele>790.0</ele><time>2026-04-11T16:51:56.387Z</time></trkpt><trkpt lat="37.5047798" lon="-2.7651807"><ele>790.0</ele><time>2026-04-11T16:51:57.387Z</time></trkpt><trkpt lat="37.5048685" lon="-2.7655488"><ele>792.0</ele><time>2026-04-11T16:51:58.388Z</time></trkpt><trkpt lat="37.5049695" lon="-2.7659107"><ele>794.0</ele><time>2026-04-11T16:51:59.388Z</time></trkpt><trkpt lat="37.5050827" lon="-2.7662682"><ele>795.5</ele><time>2026-04-11T16:52:00.388Z</time></trkpt><trkpt lat="37.5052069" lon="-2.7666196"><ele>797.0</ele><time>2026-04-11T16:52:01.388Z</time></trkpt><trkpt lat="37.5053409" lon="-2.7669641"><ele>797.5</ele><time>2026-04-11T16:52:02.388Z</time></trkpt><trkpt lat="37.5054903" lon="-2.7673035"><ele>798.0</ele><time>2026-04-11T16:52:03.387Z</time></trkpt><trkpt lat="37.5056467" lon="-2.7676411"><ele>799.0</ele><time>2026-04-11T16:52:04.388Z</time></trkpt><trkpt lat="37.505812" lon="-2.7679712"><ele>800.0</ele><time>2026-04-11T16:52:05.388Z</time></trkpt><trkpt lat="37.5059834" lon="-2.7682936"><ele>801.0</ele><time>2026-04-11T16:52:06.388Z</time></trkpt><trkpt lat="37.5061623" lon="-2.7686106"><ele>802.0</ele><time>2026-04-11T16:52:07.388Z</time></trkpt><trkpt lat="37.5063447" lon="-2.7689283"><ele>803.5</ele><time>2026-04-11T16:52:08.387Z</time></trkpt><trkpt lat="37.5065313" lon="-2.7692427"><ele>805.0</ele><time>2026-04-11T16:52:09.388Z</time></trkpt><trkpt lat="37.5067207" lon="-2.7695561"><ele>806.0</ele><time>2026-04-11T16:52:10.388Z</time></trkpt><trkpt lat="37.50691" lon="-2.769866"><ele>807.0</ele><time>2026-04-11T16:52:11.388Z</time></trkpt><trkpt lat="37.5071024" lon="-2.7701765"><ele>810.0</ele><time>2026-04-11T16:52:12.388Z</time></trkpt><trkpt lat="37.507294" lon="-2.7704909"><ele>813.0</ele><time>2026-04-11T16:52:13.388Z</time></trkpt><trkpt lat="37.5074847" lon="-2.7708069"><ele>813.5</ele><time>2026-04-11T16:52:14.388Z</time></trkpt><trkpt lat="37.5076766" lon="-2.7711266"><ele>814.0</ele><time>2026-04-11T16:52:15.387Z</time></trkpt><trkpt lat="37.5078659" lon="-2.7714477"><ele>817.5</ele><time>2026-04-11T16:52:16.388Z</time></trkpt><trkpt lat="37.5080554" lon="-2.7717729"><ele>821.0</ele><time>2026-04-11T16:52:17.387Z</time></trkpt><trkpt lat="37.5082418" lon="-2.7720994"><ele>821.0</ele><time>2026-04-11T16:52:18.388Z</time></trkpt><trkpt lat="37.5084267" lon="-2.772429"><ele>821.0</ele><time>2026-04-11T16:52:19.388Z</time></trkpt><trkpt lat="37.508609" lon="-2.7727634"><ele>824.0</ele><time>2026-04-11T16:52:20.388Z</time></trkpt><trkpt lat="37.5087869" lon="-2.773102"><ele>827.0</ele><time>2026-04-11T16:52:21.388Z</time></trkpt><trkpt lat="37.5089656" lon="-2.7734414"><ele>827.0</ele><time>2026-04-11T16:52:22.388Z</time></trkpt><trkpt lat="37.5091398" lon="-2.7737848"><ele>827.0</ele><time>2026-04-11T16:52:23.388Z</time></trkpt><trkpt lat="37.5093092" lon="-2.7741298"><ele>828.5</ele><time>2026-04-11T16:52:24.388Z</time></trkpt><trkpt lat="37.5094729" lon="-2.7744776"><ele>830.0</ele><time>2026-04-11T16:52:25.388Z</time></trkpt><trkpt lat="37.5096335" lon="-2.7748267"><ele>830.5</ele><time>2026-04-11T16:52:26.388Z</time></trkpt><trkpt lat="37.5097873" lon="-2.7751783"><ele>831.0</ele><time>2026-04-11T16:52:27.388Z</time></trkpt><trkpt lat="37.5099366" lon="-2.775526"><ele>830.0</ele><time>2026-04-11T16:52:28.387Z</time></trkpt><trkpt lat="37.5100791" lon="-2.7758737"><ele>829.0</ele><time>2026-04-11T16:52:29.388Z</time></trkpt><trkpt lat="37.5102164" lon="-2.7762231"><ele>829.0</ele><time>2026-04-11T16:52:30.388Z</time></trkpt><trkpt lat="37.5103531" lon="-2.776568"><ele>829.0</ele><time>2026-04-11T16:52:31.388Z</time></trkpt><trkpt lat="37.5104863" lon="-2.7769135"><ele>827.5</ele><time>2026-04-11T16:52:32.388Z</time></trkpt><trkpt lat="37.5106167" lon="-2.7772602"><ele>826.0</ele><time>2026-04-11T16:52:33.388Z</time></trkpt><trkpt lat="37.5107435" lon="-2.7776037"><ele>827.3333333333333</ele><time>2026-04-11T16:52:34.388Z</time></trkpt><trkpt lat="37.5108666" lon="-2.7779472"><ele>828.6666666666667</ele><time>2026-04-11T16:52:35.388Z</time></trkpt><trkpt lat="37.510928" lon="-2.7781189"><ele>830.0</ele><time>2026-04-11T16:52:36.407Z</time></trkpt><trkpt lat="37.5110503" lon="-2.7784577"><ele>830.5</ele><time>2026-04-11T16:52:37.384Z</time></trkpt><trkpt lat="37.5112299" lon="-2.7789766"><ele>831.0</ele><time>2026-04-11T16:52:38.386Z</time></trkpt><trkpt lat="37.5113493" lon="-2.7793202"><ele>832.5</ele><time>2026-04-11T16:52:39.39Z</time></trkpt><trkpt lat="37.5114677" lon="-2.7796615"><ele>834.0</ele><time>2026-04-11T16:52:40.393Z</time></trkpt><trkpt lat="37.5115897" lon="-2.7800034"><ele>835.0</ele><time>2026-04-11T16:52:41.39Z</time></trkpt><trkpt lat="37.5117095" lon="-2.7803479"><ele>836.0</ele><time>2026-04-11T16:52:42.396Z</time></trkpt><trkpt lat="37.5118307" lon="-2.7806894"><ele>836.5</ele><time>2026-04-11T16:52:43.396Z</time></trkpt><trkpt lat="37.5119509" lon="-2.7810304"><ele>837.0</ele><time>2026-04-11T16:52:44.396Z</time></trkpt><trkpt lat="37.5120715" lon="-2.7813748"><ele>838.5</ele><time>2026-04-11T16:52:45.395Z</time></trkpt><trkpt lat="37.5121926" lon="-2.7817145"><ele>840.0</ele><time>2026-04-11T16:52:46.396Z</time></trkpt><trkpt lat="37.512317" lon="-2.7820525"><ele>840.0</ele><time>2026-04-11T16:52:47.395Z</time></trkpt><trkpt lat="37.5124426" lon="-2.7823936"><ele>840.0</ele><time>2026-04-11T16:52:48.396Z</time></trkpt><trkpt lat="37.5125703" lon="-2.7827325"><ele>841.5</ele><time>2026-04-11T16:52:49.396Z</time></trkpt><trkpt lat="37.5126979" lon="-2.7830733"><ele>843.0</ele><time>2026-04-11T16:52:50.396Z</time></trkpt><trkpt lat="37.5128248" lon="-2.78342"><ele>842.5</ele><time>2026-04-11T16:52:51.395Z</time></trkpt><trkpt lat="37.5129539" lon="-2.7837653"><ele>842.0</ele><time>2026-04-11T16:52:52.396Z</time></trkpt><trkpt lat="37.5130831" lon="-2.7841112"><ele>842.5</ele><time>2026-04-11T16:52:53.396Z</time></trkpt><trkpt lat="37.5132141" lon="-2.7844568"><ele>843.0</ele><time>2026-04-11T16:52:54.396Z</time></trkpt><trkpt lat="37.5133456" lon="-2.7847973"><ele>843.0</ele><time>2026-04-11T16:52:55.395Z</time></trkpt><trkpt lat="37.5134787" lon="-2.7851419"><ele>843.0</ele><time>2026-04-11T16:52:56.396Z</time></trkpt><trkpt lat="37.5136107" lon="-2.7854848"><ele>843.0</ele><time>2026-04-11T16:52:57.396Z</time></trkpt><trkpt lat="37.5137416" lon="-2.7858277"><ele>843.0</ele><time>2026-04-11T16:52:58.396Z</time></trkpt><trkpt lat="37.5138732" lon="-2.7861692"><ele>843.0</ele><time>2026-04-11T16:52:59.396Z</time></trkpt><trkpt lat="37.5140005" lon="-2.7865154"><ele>843.0</ele><time>2026-04-11T16:53:00.396Z</time></trkpt><trkpt lat="37.5141262" lon="-2.7868594"><ele>844.0</ele><time>2026-04-11T16:53:01.396Z</time></trkpt><trkpt lat="37.5142514" lon="-2.787207"><ele>845.0</ele><time>2026-04-11T16:53:02.396Z</time></trkpt><trkpt lat="37.5143702" lon="-2.7875536"><ele>846.0</ele><time>2026-04-11T16:53:03.395Z</time></trkpt><trkpt lat="37.51449" lon="-2.7879092"><ele>847.0</ele><time>2026-04-11T16:53:04.396Z</time></trkpt><trkpt lat="37.5146147" lon="-2.7882637"><ele>850.0</ele><time>2026-04-11T16:53:05.396Z</time></trkpt><trkpt lat="37.514733" lon="-2.7886182"><ele>853.0</ele><time>2026-04-11T16:53:06.396Z</time></trkpt><trkpt lat="37.5148471" lon="-2.7889711"><ele>853.0</ele><time>2026-04-11T16:53:07.396Z</time></trkpt><trkpt lat="37.5149569" lon="-2.7893294"><ele>853.0</ele><time>2026-04-11T16:53:08.396Z</time></trkpt><trkpt lat="37.5150579" lon="-2.7896936"><ele>854.0</ele><time>2026-04-11T16:53:09.396Z</time></trkpt><trkpt lat="37.5151504" lon="-2.7900584"><ele>855.0</ele><time>2026-04-11T16:53:10.396Z</time></trkpt><trkpt lat="37.5152366" lon="-2.7904255"><ele>855.5</ele><time>2026-04-11T16:53:11.396Z</time></trkpt><trkpt lat="37.515317" lon="-2.7907973"><ele>856.0</ele><time>2026-04-11T16:53:12.396Z</time></trkpt><trkpt lat="37.5153867" lon="-2.791166"><ele>856.0</ele><time>2026-04-11T16:53:13.396Z</time></trkpt><trkpt lat="37.515448" lon="-2.7915363"><ele>856.0</ele><time>2026-04-11T16:53:14.396Z</time></trkpt><trkpt lat="37.5155049" lon="-2.7919006"><ele>857.0</ele><time>2026-04-11T16:53:15.396Z</time></trkpt><trkpt lat="37.5155555" lon="-2.7922674"><ele>858.0</ele><time>2026-04-11T16:53:16.396Z</time></trkpt><trkpt lat="37.5155939" lon="-2.7926298"><ele>860.0</ele><time>2026-04-11T16:53:17.396Z</time></trkpt><trkpt lat="37.5156246" lon="-2.7929891"><ele>862.0</ele><time>2026-04-11T16:53:18.396Z</time></trkpt><trkpt lat="37.5156447" lon="-2.7933471"><ele>862.5</ele><time>2026-04-11T16:53:19.396Z</time></trkpt><trkpt lat="37.5156563" lon="-2.7937019"><ele>863.0</ele><time>2026-04-11T16:53:20.396Z</time></trkpt><trkpt lat="37.5156593" lon="-2.7940561"><ele>866.5</ele><time>2026-04-11T16:53:21.396Z</time></trkpt><trkpt lat="37.515653" lon="-2.7944072"><ele>870.0</ele><time>2026-04-11T16:53:22.396Z</time></trkpt><trkpt lat="37.5156404" lon="-2.7947533"><ele>870.0</ele><time>2026-04-11T16:53:23.395Z</time></trkpt><trkpt lat="37.5156199" lon="-2.7950951"><ele>870.0</ele><time>2026-04-11T16:53:24.396Z</time></trkpt><trkpt lat="37.5155946" lon="-2.7954381"><ele>870.5</ele><time>2026-04-11T16:53:25.396Z</time></trkpt><trkpt lat="37.5155602" lon="-2.7957709"><ele>871.0</ele><time>2026-04-11T16:53:26.395Z</time></trkpt><trkpt lat="37.5155189" lon="-2.7961026"><ele>872.0</ele><time>2026-04-11T16:53:27.396Z</time></trkpt><trkpt lat="37.5154696" lon="-2.7964359"><ele>873.0</ele><time>2026-04-11T16:53:28.396Z</time></trkpt><trkpt lat="37.5154133" lon="-2.796767"><ele>879.0</ele><time>2026-04-11T16:53:29.395Z</time></trkpt><trkpt lat="37.5153494" lon="-2.7970937"><ele>885.0</ele><time>2026-04-11T16:53:30.396Z</time></trkpt><trkpt lat="37.5152788" lon="-2.79742"><ele>887.5</ele><time>2026-04-11T16:53:31.396Z</time></trkpt><trkpt lat="37.5152035" lon="-2.7977445"><ele>890.0</ele><time>2026-04-11T16:53:32.396Z</time></trkpt><trkpt lat="37.5151215" lon="-2.798062"><ele>890.0</ele><time>2026-04-11T16:53:33.396Z</time></trkpt><trkpt lat="37.5150325" lon="-2.7983726"><ele>890.0</ele><time>2026-04-11T16:53:34.396Z</time></trkpt><trkpt lat="37.5149393" lon="-2.7986842"><ele>898.0</ele><time>2026-04-11T16:53:35.396Z</time></trkpt><trkpt lat="37.5148408" lon="-2.7989894"><ele>906.0</ele><time>2026-04-11T16:53:36.396Z</time></trkpt><trkpt lat="37.5147332" lon="-2.7992902"><ele>904.0</ele><time>2026-04-11T16:53:37.396Z</time></trkpt><trkpt lat="37.5146241" lon="-2.7995945"><ele>902.0</ele><time>2026-04-11T16:53:38.396Z</time></trkpt><trkpt lat="37.514494" lon="-2.7998857"><ele>909.5</ele><time>2026-04-11T16:53:39.395Z</time></trkpt><trkpt lat="37.5143621" lon="-2.8001756"><ele>917.0</ele><time>2026-04-11T16:53:40.396Z</time></trkpt><trkpt lat="37.5142269" lon="-2.8004616"><ele>917.0</ele><time>2026-04-11T16:53:41.396Z</time></trkpt><trkpt lat="37.5140917" lon="-2.8007327"><ele>917.0</ele><time>2026-04-11T16:53:42.396Z</time></trkpt><trkpt lat="37.5139527" lon="-2.8009946"><ele>915.0</ele><time>2026-04-11T16:53:43.396Z</time></trkpt><trkpt lat="37.5138097" lon="-2.8012495"><ele>913.0</ele><time>2026-04-11T16:53:44.396Z</time></trkpt><trkpt lat="37.5136624" lon="-2.8015"><ele>913.0</ele><time>2026-04-11T16:53:45.396Z</time></trkpt><trkpt lat="37.5135107" lon="-2.8017468"><ele>913.0</ele><time>2026-04-11T16:53:46.396Z</time></trkpt><trkpt lat="37.5133588" lon="-2.801995"><ele>920.5</ele><time>2026-04-11T16:53:47.396Z</time></trkpt><trkpt lat="37.5131897" lon="-2.8022283"><ele>928.0</ele><time>2026-04-11T16:53:48.396Z</time></trkpt><trkpt lat="37.5130214" lon="-2.8024581"><ele>926.0</ele><time>2026-04-11T16:53:49.396Z</time></trkpt><trkpt lat="37.5128459" lon="-2.8026829"><ele>924.0</ele><time>2026-04-11T16:53:50.396Z</time></trkpt><trkpt lat="37.5126676" lon="-2.8029049"><ele>924.0</ele><time>2026-04-11T16:53:51.396Z</time></trkpt><trkpt lat="37.5124854" lon="-2.8031237"><ele>924.0</ele><time>2026-04-11T16:53:52.396Z</time></trkpt><trkpt lat="37.5123012" lon="-2.8033388"><ele>924.5</ele><time>2026-04-11T16:53:53.396Z</time></trkpt><trkpt lat="37.5121115" lon="-2.8035381"><ele>925.0</ele><time>2026-04-11T16:53:54.396Z</time></trkpt><trkpt lat="37.5119255" lon="-2.8037341"><ele>925.0</ele><time>2026-04-11T16:53:55.396Z</time></trkpt><trkpt lat="37.511751" lon="-2.803908"><ele>925.0</ele><time>2026-04-11T16:53:56.396Z</time></trkpt><trkpt lat="37.5115902" lon="-2.8040657"><ele>925.0</ele><time>2026-04-11T16:53:57.396Z</time></trkpt><trkpt lat="37.5114317" lon="-2.8042155"><ele>925.6666666666666</ele><time>2026-04-11T16:53:58.396Z</time></trkpt><trkpt lat="37.5112773" lon="-2.8043645"><ele>926.3333333333333</ele><time>2026-04-11T16:53:59.396Z</time></trkpt><trkpt lat="37.5111311" lon="-2.8045006"><ele>927.0</ele><time>2026-04-11T16:54:00.396Z</time></trkpt><trkpt lat="37.51099" lon="-2.8046326"><ele>928.6666666666667</ele><time>2026-04-11T16:54:01.396Z</time></trkpt><trkpt lat="37.510853" lon="-2.8047557"><ele>930.3333333333334</ele><time>2026-04-11T16:54:02.396Z</time></trkpt><trkpt lat="37.5107181" lon="-2.8048735"><ele>932.0</ele><time>2026-04-11T16:54:03.396Z</time></trkpt><trkpt lat="37.5105864" lon="-2.8049961"><ele>932.0</ele><time>2026-04-11T16:54:04.395Z</time></trkpt><trkpt lat="37.5104677" lon="-2.8051508"><ele>932.0</ele><time>2026-04-11T16:54:05.396Z</time></trkpt><trkpt lat="37.5103576" lon="-2.8053083"><ele>932.0</ele><time>2026-04-11T16:54:06.395Z</time></trkpt><trkpt lat="37.5102583" lon="-2.8054765"><ele>935.3333333333334</ele><time>2026-04-11T16:54:07.396Z</time></trkpt><trkpt lat="37.5101704" lon="-2.8056538"><ele>938.6666666666667</ele><time>2026-04-11T16:54:08.396Z</time></trkpt><trkpt lat="37.510094" lon="-2.8058333"><ele>942.0</ele><time>2026-04-11T16:54:09.396Z</time></trkpt><trkpt lat="37.5100347" lon="-2.8060192"><ele>942.75</ele><time>2026-04-11T16:54:10.396Z</time></trkpt><trkpt lat="37.5099933" lon="-2.806201"><ele>943.5</ele><time>2026-04-11T16:54:11.396Z</time></trkpt><trkpt lat="37.5099633" lon="-2.8063746"><ele>944.25</ele><time>2026-04-11T16:54:12.396Z</time></trkpt><trkpt lat="37.5099387" lon="-2.8065386"><ele>945.0</ele><time>2026-04-11T16:54:13.396Z</time></trkpt><trkpt lat="37.509919" lon="-2.8067214"><ele>944.2</ele><time>2026-04-11T16:54:14.395Z</time></trkpt><trkpt lat="37.5098946" lon="-2.8068423"><ele>943.4</ele><time>2026-04-11T16:54:15.396Z</time></trkpt><trkpt lat="37.5098623" lon="-2.8069684"><ele>942.5999999999999</ele><time>2026-04-11T16:54:16.396Z</time></trkpt><trkpt lat="37.5098186" lon="-2.8070825"><ele>941.8</ele><time>2026-04-11T16:54:17.396Z</time></trkpt><trkpt lat="37.5097633" lon="-2.8071824"><ele>941.0</ele><time>2026-04-11T16:54:18.395Z</time></trkpt><trkpt lat="37.5097048" lon="-2.8072672"><ele>941.0000000000001</ele><time>2026-04-11T16:54:19.395Z</time></trkpt><trkpt lat="37.5096436" lon="-2.8073479"><ele>941.0</ele><time>2026-04-11T16:54:20.396Z</time></trkpt><trkpt lat="37.5095915" lon="-2.8074218"><ele>941.0</ele><time>2026-04-11T16:54:21.396Z</time></trkpt><trkpt lat="37.5095454" lon="-2.8074996"><ele>941.0</ele><time>2026-04-11T16:54:22.395Z</time></trkpt><trkpt lat="37.5094967" lon="-2.8075908"><ele>941.0000000000001</ele><time>2026-04-11T16:54:23.396Z</time></trkpt><trkpt lat="37.5094437" lon="-2.807697"><ele>941.0</ele><time>2026-04-11T16:54:24.396Z</time></trkpt><trkpt lat="37.5093976" lon="-2.807812"><ele>943.0</ele><time>2026-04-11T16:54:25.396Z</time></trkpt><trkpt lat="37.509359" lon="-2.8079394"><ele>945.0</ele><time>2026-04-11T16:54:26.396Z</time></trkpt><trkpt lat="37.5093409" lon="-2.8080903"><ele>947.0</ele><time>2026-04-11T16:54:27.396Z</time></trkpt><trkpt lat="37.5093501" lon="-2.8082558"><ele>949.0</ele><time>2026-04-11T16:54:28.396Z</time></trkpt><trkpt lat="37.5093816" lon="-2.808428"><ele>950.0</ele><time>2026-04-11T16:54:29.396Z</time></trkpt><trkpt lat="37.5094136" lon="-2.8086156"><ele>951.0</ele><time>2026-04-11T16:54:30.396Z</time></trkpt><trkpt lat="37.5094449" lon="-2.8088161"><ele>952.0</ele><time>2026-04-11T16:54:31.396Z</time></trkpt><trkpt lat="37.5094795" lon="-2.809019"><ele>952.0</ele><time>2026-04-11T16:54:32.396Z</time></trkpt><trkpt lat="37.5095115" lon="-2.8092282"><ele>952.0</ele><time>2026-04-11T16:54:33.396Z</time></trkpt><trkpt lat="37.5095466" lon="-2.809443"><ele>952.0</ele><time>2026-04-11T16:54:34.396Z</time></trkpt><trkpt lat="37.5095884" lon="-2.8096594"><ele>951.6666666666666</ele><time>2026-04-11T16:54:35.396Z</time></trkpt><trkpt lat="37.5096402" lon="-2.8098746"><ele>951.3333333333333</ele><time>2026-04-11T16:54:36.395Z</time></trkpt><trkpt lat="37.509709" lon="-2.8100886"><ele>951.0</ele><time>2026-04-11T16:54:37.396Z</time></trkpt><trkpt lat="37.5097939" lon="-2.8102986"><ele>951.0</ele><time>2026-04-11T16:54:38.396Z</time></trkpt><trkpt lat="37.509897" lon="-2.8105014"><ele>951.0</ele><time>2026-04-11T16:54:39.396Z</time></trkpt><trkpt lat="37.5100136" lon="-2.8106991"><ele>951.0</ele><time>2026-04-11T16:54:40.395Z</time></trkpt><trkpt lat="37.5101496" lon="-2.8108824"><ele>951.3333333333333</ele><time>2026-04-11T16:54:41.396Z</time></trkpt><trkpt lat="37.5102982" lon="-2.8110526"><ele>951.6666666666666</ele><time>2026-04-11T16:54:42.396Z</time></trkpt><trkpt lat="37.5104626" lon="-2.8112011"><ele>952.0</ele><time>2026-04-11T16:54:43.396Z</time></trkpt><trkpt lat="37.5106369" lon="-2.8113259"><ele>950.6666666666666</ele><time>2026-04-11T16:54:44.396Z</time></trkpt><trkpt lat="37.5108282" lon="-2.8114238"><ele>949.3333333333333</ele><time>2026-04-11T16:54:45.396Z</time></trkpt><trkpt lat="37.5110274" lon="-2.8114971"><ele>948.0</ele><time>2026-04-11T16:54:46.396Z</time></trkpt><trkpt lat="37.5112353" lon="-2.8115512"><ele>946.6666666666667</ele><time>2026-04-11T16:54:47.396Z</time></trkpt><trkpt lat="37.5114501" lon="-2.8115903"><ele>945.3333333333334</ele><time>2026-04-11T16:54:48.395Z</time></trkpt><trkpt lat="37.5116525" lon="-2.8116367"><ele>944.0</ele><time>2026-04-11T16:54:49.396Z</time></trkpt><trkpt lat="37.5118839" lon="-2.8116675"><ele>943.5</ele><time>2026-04-11T16:54:50.396Z</time></trkpt><trkpt lat="37.5121089" lon="-2.8116962"><ele>943.0</ele><time>2026-04-11T16:54:51.396Z</time></trkpt><trkpt lat="37.5123336" lon="-2.8117299"><ele>943.0</ele><time>2026-04-11T16:54:52.395Z</time></trkpt><trkpt lat="37.5125578" lon="-2.8117624"><ele>943.0</ele><time>2026-04-11T16:54:53.396Z</time></trkpt><trkpt lat="37.5127704" lon="-2.8117938"><ele>943.0</ele><time>2026-04-11T16:54:54.396Z</time></trkpt><trkpt lat="37.5129825" lon="-2.8118201"><ele>943.0</ele><time>2026-04-11T16:54:55.396Z</time></trkpt><trkpt lat="37.5131874" lon="-2.8118482"><ele>943.0</ele><time>2026-04-11T16:54:56.396Z</time></trkpt><trkpt lat="37.5133939" lon="-2.8118865"><ele>943.0</ele><time>2026-04-11T16:54:57.396Z</time></trkpt><trkpt lat="37.5135965" lon="-2.8119466"><ele>941.3333333333333</ele><time>2026-04-11T16:54:58.396Z</time></trkpt><trkpt lat="37.5137895" lon="-2.8120246"><ele>939.6666666666667</ele><time>2026-04-11T16:54:59.396Z</time></trkpt><trkpt lat="37.5139777" lon="-2.8121378"><ele>938.0</ele><time>2026-04-11T16:55:00.396Z</time></trkpt><trkpt lat="37.5141595" lon="-2.8122772"><ele>938.0</ele><time>2026-04-11T16:55:01.396Z</time></trkpt><trkpt lat="37.5143359" lon="-2.8124237"><ele>938.0</ele><time>2026-04-11T16:55:02.396Z</time></trkpt><trkpt lat="37.5144996" lon="-2.8125939"><ele>938.0</ele><time>2026-04-11T16:55:03.396Z</time></trkpt><trkpt lat="37.5146559" lon="-2.8127719"><ele>936.6666666666667</ele><time>2026-04-11T16:55:04.396Z</time></trkpt><trkpt lat="37.5148055" lon="-2.8129564"><ele>935.3333333333333</ele><time>2026-04-11T16:55:05.396Z</time></trkpt><trkpt lat="37.5149483" lon="-2.8131428"><ele>934.0</ele><time>2026-04-11T16:55:06.396Z</time></trkpt><trkpt lat="37.5150928" lon="-2.8133255"><ele>933.0</ele><time>2026-04-11T16:55:07.395Z</time></trkpt><trkpt lat="37.5152366" lon="-2.8135117"><ele>932.0</ele><time>2026-04-11T16:55:08.396Z</time></trkpt><trkpt lat="37.5153781" lon="-2.813696"><ele>931.0</ele><time>2026-04-11T16:55:09.396Z</time></trkpt><trkpt lat="37.5155175" lon="-2.8138779"><ele>931.0</ele><time>2026-04-11T16:55:10.396Z</time></trkpt><trkpt lat="37.5156636" lon="-2.8140534"><ele>931.0</ele><time>2026-04-11T16:55:11.396Z</time></trkpt><trkpt lat="37.5158205" lon="-2.8142123"><ele>931.0</ele><time>2026-04-11T16:55:12.396Z</time></trkpt><trkpt lat="37.5159948" lon="-2.8143503"><ele>931.3333333333333</ele><time>2026-04-11T16:55:13.396Z</time></trkpt><trkpt lat="37.5161828" lon="-2.8144611"><ele>931.6666666666667</ele><time>2026-04-11T16:55:14.396Z</time></trkpt><trkpt lat="37.516382" lon="-2.8145356"><ele>932.0</ele><time>2026-04-11T16:55:15.396Z</time></trkpt><trkpt lat="37.5165893" lon="-2.8145773"><ele>930.6666666666667</ele><time>2026-04-11T16:55:16.396Z</time></trkpt><trkpt lat="37.5168039" lon="-2.8145807"><ele>929.3333333333333</ele><time>2026-04-11T16:55:17.396Z</time></trkpt><trkpt lat="37.5170192" lon="-2.8145492"><ele>928.0</ele><time>2026-04-11T16:55:18.396Z</time></trkpt><trkpt lat="37.5172362" lon="-2.814495"><ele>928.0</ele><time>2026-04-11T16:55:19.396Z</time></trkpt><trkpt lat="37.5174493" lon="-2.814411"><ele>928.0</ele><time>2026-04-11T16:55:20.396Z</time></trkpt><trkpt lat="37.5176524" lon="-2.8143164"><ele>928.0</ele><time>2026-04-11T16:55:21.395Z</time></trkpt><trkpt lat="37.5178515" lon="-2.8142252"><ele>929.3333333333333</ele><time>2026-04-11T16:55:22.396Z</time></trkpt><trkpt lat="37.5180415" lon="-2.8141365"><ele>930.6666666666667</ele><time>2026-04-11T16:55:23.396Z</time></trkpt><trkpt lat="37.5182189" lon="-2.814051"><ele>932.0</ele><time>2026-04-11T16:55:24.395Z</time></trkpt><trkpt lat="37.5183951" lon="-2.813968"><ele>932.0</ele><time>2026-04-11T16:55:25.396Z</time></trkpt><trkpt lat="37.5185757" lon="-2.8138839"><ele>932.0</ele><time>2026-04-11T16:55:26.395Z</time></trkpt><trkpt lat="37.5187644" lon="-2.8138081"><ele>932.0</ele><time>2026-04-11T16:55:27.396Z</time></trkpt><trkpt lat="37.5189591" lon="-2.8137477"><ele>932.6666666666667</ele><time>2026-04-11T16:55:28.395Z</time></trkpt><trkpt lat="37.5191626" lon="-2.8137091"><ele>933.3333333333333</ele><time>2026-04-11T16:55:29.396Z</time></trkpt><trkpt lat="37.5193668" lon="-2.8136971"><ele>934.0</ele><time>2026-04-11T16:55:30.396Z</time></trkpt><trkpt lat="37.5195781" lon="-2.8137102"><ele>934.0</ele><time>2026-04-11T16:55:31.396Z</time></trkpt><trkpt lat="37.5197849" lon="-2.8137473"><ele>934.0</ele><time>2026-04-11T16:55:32.396Z</time></trkpt><trkpt lat="37.5199912" lon="-2.8138031"><ele>934.0</ele><time>2026-04-11T16:55:33.396Z</time></trkpt><trkpt lat="37.5201935" lon="-2.8138669"><ele>934.0</ele><time>2026-04-11T16:55:34.396Z</time></trkpt><trkpt lat="37.5203974" lon="-2.8139283"><ele>934.0</ele><time>2026-04-11T16:55:35.395Z</time></trkpt><trkpt lat="37.5206025" lon="-2.8139926"><ele>934.0</ele><time>2026-04-11T16:55:36.396Z</time></trkpt><trkpt lat="37.5208066" lon="-2.8140578"><ele>933.0</ele><time>2026-04-11T16:55:37.395Z</time></trkpt><trkpt lat="37.5210113" lon="-2.8141309"><ele>932.0</ele><time>2026-04-11T16:55:38.396Z</time></trkpt><trkpt lat="37.5212181" lon="-2.8142035"><ele>931.0</ele><time>2026-04-11T16:55:39.396Z</time></trkpt><trkpt lat="37.5214148" lon="-2.8143117"><ele>933.3333333333333</ele><time>2026-04-11T16:55:40.396Z</time></trkpt><trkpt lat="37.5216004" lon="-2.8144396"><ele>935.6666666666667</ele><time>2026-04-11T16:55:41.396Z</time></trkpt><trkpt lat="37.5217725" lon="-2.8145917"><ele>938.0</ele><time>2026-04-11T16:55:42.396Z</time></trkpt><trkpt lat="37.5219295" lon="-2.814764"><ele>936.6666666666667</ele><time>2026-04-11T16:55:43.396Z</time></trkpt><trkpt lat="37.5220747" lon="-2.8149501"><ele>935.3333333333333</ele><time>2026-04-11T16:55:44.396Z</time></trkpt><trkpt lat="37.5222074" lon="-2.8151487"><ele>934.0</ele><time>2026-04-11T16:55:45.396Z</time></trkpt><trkpt lat="37.5223377" lon="-2.8153457"><ele>934.0</ele><time>2026-04-11T16:55:46.396Z</time></trkpt><trkpt lat="37.5224671" lon="-2.8155499"><ele>934.0</ele><time>2026-04-11T16:55:47.396Z</time></trkpt><trkpt lat="37.5226042" lon="-2.8157523"><ele>934.0</ele><time>2026-04-11T16:55:48.395Z</time></trkpt><trkpt lat="37.5227542" lon="-2.8159465"><ele>935.0</ele><time>2026-04-11T16:55:49.395Z</time></trkpt><trkpt lat="37.5229148" lon="-2.8161241"><ele>936.0</ele><time>2026-04-11T16:55:50.396Z</time></trkpt><trkpt lat="37.5230872" lon="-2.8162853"><ele>937.0</ele><time>2026-04-11T16:55:51.396Z</time></trkpt><trkpt lat="37.5232723" lon="-2.8164196"><ele>937.0</ele><time>2026-04-11T16:55:52.396Z</time></trkpt><trkpt lat="37.5234693" lon="-2.8165239"><ele>937.0</ele><time>2026-04-11T16:55:53.395Z</time></trkpt><trkpt lat="37.5236682" lon="-2.8166011"><ele>937.0</ele><time>2026-04-11T16:55:54.396Z</time></trkpt><trkpt lat="37.5238705" lon="-2.8166521"><ele>933.0</ele><time>2026-04-11T16:55:55.395Z</time></trkpt><trkpt lat="37.5240757" lon="-2.8166723"><ele>929.0</ele><time>2026-04-11T16:55:56.396Z</time></trkpt><trkpt lat="37.524279" lon="-2.816669"><ele>925.0</ele><time>2026-04-11T16:55:57.396Z</time></trkpt><trkpt lat="37.5244797" lon="-2.8166389"><ele>926.0</ele><time>2026-04-11T16:55:58.396Z</time></trkpt><trkpt lat="37.5246731" lon="-2.8165831"><ele>927.0</ele><time>2026-04-11T16:55:59.396Z</time></trkpt><trkpt lat="37.5248606" lon="-2.8165091"><ele>928.0</ele><time>2026-04-11T16:56:00.395Z</time></trkpt><trkpt lat="37.5250397" lon="-2.8164089"><ele>928.0</ele><time>2026-04-11T16:56:01.395Z</time></trkpt><trkpt lat="37.5252074" lon="-2.8162842"><ele>928.0</ele><time>2026-04-11T16:56:02.396Z</time></trkpt><trkpt lat="37.5253682" lon="-2.8161404"><ele>928.0</ele><time>2026-04-11T16:56:03.396Z</time></trkpt><trkpt lat="37.5255174" lon="-2.8159732"><ele>927.3333333333333</ele><time>2026-04-11T16:56:04.396Z</time></trkpt><trkpt lat="37.5256517" lon="-2.8157875"><ele>926.6666666666667</ele><time>2026-04-11T16:56:05.395Z</time></trkpt><trkpt lat="37.5257793" lon="-2.8155935"><ele>926.0</ele><time>2026-04-11T16:56:06.395Z</time></trkpt><trkpt lat="37.5259081" lon="-2.815393"><ele>926.0</ele><time>2026-04-11T16:56:07.396Z</time></trkpt><trkpt lat="37.5260346" lon="-2.8151891"><ele>926.0</ele><time>2026-04-11T16:56:08.395Z</time></trkpt><trkpt lat="37.5261592" lon="-2.8149809"><ele>926.0</ele><time>2026-04-11T16:56:09.395Z</time></trkpt><trkpt lat="37.5262816" lon="-2.8147767"><ele>927.0</ele><time>2026-04-11T16:56:10.396Z</time></trkpt><trkpt lat="37.5264053" lon="-2.8145734"><ele>928.0</ele><time>2026-04-11T16:56:11.396Z</time></trkpt><trkpt lat="37.526533" lon="-2.814373"><ele>929.0</ele><time>2026-04-11T16:56:12.396Z</time></trkpt><trkpt lat="37.5266709" lon="-2.8141819"><ele>929.0</ele><time>2026-04-11T16:56:13.395Z</time></trkpt><trkpt lat="37.5268217" lon="-2.8140033"><ele>929.0</ele><time>2026-04-11T16:56:14.396Z</time></trkpt><trkpt lat="37.5269897" lon="-2.8138451"><ele>929.0</ele><time>2026-04-11T16:56:15.396Z</time></trkpt><trkpt lat="37.527164" lon="-2.8137047"><ele>928.6666666666667</ele><time>2026-04-11T16:56:16.396Z</time></trkpt><trkpt lat="37.5273494" lon="-2.8135909"><ele>928.3333333333333</ele><time>2026-04-11T16:56:17.396Z</time></trkpt><trkpt lat="37.5275401" lon="-2.8134996"><ele>928.0</ele><time>2026-04-11T16:56:18.396Z</time></trkpt><trkpt lat="37.5277394" lon="-2.8134327"><ele>925.6666666666666</ele><time>2026-04-11T16:56:19.396Z</time></trkpt><trkpt lat="37.5279423" lon="-2.8133846"><ele>923.3333333333333</ele><time>2026-04-11T16:56:20.396Z</time></trkpt><trkpt lat="37.5281493" lon="-2.8133628"><ele>921.0</ele><time>2026-04-11T16:56:21.396Z</time></trkpt><trkpt lat="37.5283575" lon="-2.8133649"><ele>921.0</ele><time>2026-04-11T16:56:22.396Z</time></trkpt><trkpt lat="37.5285684" lon="-2.8133866"><ele>921.0</ele><time>2026-04-11T16:56:23.396Z</time></trkpt><trkpt lat="37.5287721" lon="-2.8134308"><ele>921.0</ele><time>2026-04-11T16:56:24.396Z</time></trkpt><trkpt lat="37.5289701" lon="-2.8135014"><ele>923.3333333333333</ele><time>2026-04-11T16:56:25.395Z</time></trkpt><trkpt lat="37.5291632" lon="-2.8135951"><ele>925.6666666666666</ele><time>2026-04-11T16:56:26.396Z</time></trkpt><trkpt lat="37.529349" lon="-2.8137101"><ele>928.0</ele><time>2026-04-11T16:56:27.396Z</time></trkpt><trkpt lat="37.529524" lon="-2.8138541"><ele>925.6666666666666</ele><time>2026-04-11T16:56:28.396Z</time></trkpt><trkpt lat="37.5296874" lon="-2.814014"><ele>923.3333333333333</ele><time>2026-04-11T16:56:29.395Z</time></trkpt><trkpt lat="37.5298403" lon="-2.8141957"><ele>921.0</ele><time>2026-04-11T16:56:30.396Z</time></trkpt><trkpt lat="37.5299791" lon="-2.8143879"><ele>919.6666666666667</ele><time>2026-04-11T16:56:31.396Z</time></trkpt><trkpt lat="37.5301076" lon="-2.8146028"><ele>918.3333333333334</ele><time>2026-04-11T16:56:32.396Z</time></trkpt><trkpt lat="37.5302154" lon="-2.8148288"><ele>917.0</ele><time>2026-04-11T16:56:33.395Z</time></trkpt><trkpt lat="37.5303036" lon="-2.8150567"><ele>915.6666666666667</ele><time>2026-04-11T16:56:34.396Z</time></trkpt><trkpt lat="37.5303738" lon="-2.8152954"><ele>914.3333333333333</ele><time>2026-04-11T16:56:35.396Z</time></trkpt><trkpt lat="37.5304277" lon="-2.8155415"><ele>913.0</ele><time>2026-04-11T16:56:36.395Z</time></trkpt><trkpt lat="37.530461" lon="-2.8158006"><ele>909.6666666666666</ele><time>2026-04-11T16:56:37.395Z</time></trkpt><trkpt lat="37.5304775" lon="-2.816068"><ele>906.3333333333333</ele><time>2026-04-11T16:56:38.396Z</time></trkpt><trkpt lat="37.5304775" lon="-2.8163373"><ele>903.0</ele><time>2026-04-11T16:56:39.395Z</time></trkpt><trkpt lat="37.5304576" lon="-2.8166034"><ele>901.0</ele><time>2026-04-11T16:56:40.396Z</time></trkpt><trkpt lat="37.5304194" lon="-2.8168677"><ele>899.0</ele><time>2026-04-11T16:56:41.396Z</time></trkpt><trkpt lat="37.5303595" lon="-2.8171178"><ele>897.0</ele><time>2026-04-11T16:56:42.396Z</time></trkpt><trkpt lat="37.5302828" lon="-2.8173644"><ele>895.6666666666667</ele><time>2026-04-11T16:56:43.396Z</time></trkpt><trkpt lat="37.5302009" lon="-2.8176028"><ele>894.3333333333334</ele><time>2026-04-11T16:56:44.396Z</time></trkpt><trkpt lat="37.5301205" lon="-2.8178333"><ele>893.0</ele><time>2026-04-11T16:56:45.396Z</time></trkpt><trkpt lat="37.5300354" lon="-2.8180567"><ele>891.0</ele><time>2026-04-11T16:56:46.395Z</time></trkpt><trkpt lat="37.5299529" lon="-2.8182863"><ele>889.0</ele><time>2026-04-11T16:56:47.396Z</time></trkpt><trkpt lat="37.5298811" lon="-2.8185252"><ele>887.0</ele><time>2026-04-11T16:56:48.396Z</time></trkpt><trkpt lat="37.5298176" lon="-2.8187716"><ele>885.3333333333334</ele><time>2026-04-11T16:56:49.396Z</time></trkpt><trkpt lat="37.5297628" lon="-2.819026"><ele>883.6666666666667</ele><time>2026-04-11T16:56:50.395Z</time></trkpt><trkpt lat="37.5297163" lon="-2.8192846"><ele>882.0</ele><time>2026-04-11T16:56:51.396Z</time></trkpt><trkpt lat="37.5296832" lon="-2.8195472"><ele>882.0</ele><time>2026-04-11T16:56:52.396Z</time></trkpt><trkpt lat="37.5296611" lon="-2.8198144"><ele>882.0</ele><time>2026-04-11T16:56:53.396Z</time></trkpt><trkpt lat="37.5296498" lon="-2.8200831"><ele>882.0</ele><time>2026-04-11T16:56:54.396Z</time></trkpt><trkpt lat="37.5296496" lon="-2.8203537"><ele>882.0</ele><time>2026-04-11T16:56:55.396Z</time></trkpt><trkpt lat="37.5296562" lon="-2.8206171"><ele>882.0</ele><time>2026-04-11T16:56:56.395Z</time></trkpt><trkpt lat="37.5296614" lon="-2.8208661"><ele>882.0</ele><time>2026-04-11T16:56:57.396Z</time></trkpt><trkpt lat="37.5296642" lon="-2.8211136"><ele>880.3333333333333</ele><time>2026-04-11T16:56:58.396Z</time></trkpt><trkpt lat="37.5296538" lon="-2.8213604"><ele>878.6666666666666</ele><time>2026-04-11T16:56:59.395Z</time></trkpt><trkpt lat="37.5296302" lon="-2.8216042"><ele>877.0</ele><time>2026-04-11T16:57:00.396Z</time></trkpt><trkpt lat="37.5295958" lon="-2.8218408"><ele>874.3333333333333</ele><time>2026-04-11T16:57:01.396Z</time></trkpt><trkpt lat="37.5295601" lon="-2.82208"><ele>871.6666666666667</ele><time>2026-04-11T16:57:02.395Z</time></trkpt><trkpt lat="37.5295256" lon="-2.8223182"><ele>869.0</ele><time>2026-04-11T16:57:03.396Z</time></trkpt><trkpt lat="37.5294978" lon="-2.8225646"><ele>866.0</ele><time>2026-04-11T16:57:04.396Z</time></trkpt><trkpt lat="37.5294876" lon="-2.8228207"><ele>863.0</ele><time>2026-04-11T16:57:05.395Z</time></trkpt><trkpt lat="37.5294918" lon="-2.8230756"><ele>860.0</ele><time>2026-04-11T16:57:06.396Z</time></trkpt><trkpt lat="37.5295164" lon="-2.8233226"><ele>859.0</ele><time>2026-04-11T16:57:07.396Z</time></trkpt><trkpt lat="37.5295553" lon="-2.8235641"><ele>858.0</ele><time>2026-04-11T16:57:08.396Z</time></trkpt><trkpt lat="37.5296174" lon="-2.8237977"><ele>857.0</ele><time>2026-04-11T16:57:09.396Z</time></trkpt><trkpt lat="37.5296931" lon="-2.8240295"><ele>856.3333333333334</ele><time>2026-04-11T16:57:10.395Z</time></trkpt><trkpt lat="37.5297604" lon="-2.8242613"><ele>855.6666666666667</ele><time>2026-04-11T16:57:11.396Z</time></trkpt><trkpt lat="37.5298877" lon="-2.8244573"><ele>855.0</ele><time>2026-04-11T16:57:12.396Z</time></trkpt><trkpt lat="37.5300066" lon="-2.8246445"><ele>855.0</ele><time>2026-04-11T16:57:13.396Z</time></trkpt><trkpt lat="37.5301396" lon="-2.8248212"><ele>855.0</ele><time>2026-04-11T16:57:14.396Z</time></trkpt><trkpt lat="37.5302712" lon="-2.8249838"><ele>855.0</ele><time>2026-04-11T16:57:15.396Z</time></trkpt><trkpt lat="37.5304065" lon="-2.8251255"><ele>854.0</ele><time>2026-04-11T16:57:16.396Z</time></trkpt><trkpt lat="37.5305468" lon="-2.8252511"><ele>853.0</ele><time>2026-04-11T16:57:17.396Z</time></trkpt><trkpt lat="37.5306603" lon="-2.8254058"><ele>852.0</ele><time>2026-04-11T16:57:18.396Z</time></trkpt><trkpt lat="37.5307635" lon="-2.8255912"><ele>852.0</ele><time>2026-04-11T16:57:19.396Z</time></trkpt><trkpt lat="37.5308492" lon="-2.8257871"><ele>852.0</ele><time>2026-04-11T16:57:20.396Z</time></trkpt><trkpt lat="37.5309186" lon="-2.8259929"><ele>852.0</ele><time>2026-04-11T16:57:21.396Z</time></trkpt><trkpt lat="37.5309751" lon="-2.8262082"><ele>851.0</ele><time>2026-04-11T16:57:22.395Z</time></trkpt><trkpt lat="37.5310308" lon="-2.8264247"><ele>850.0</ele><time>2026-04-11T16:57:23.396Z</time></trkpt><trkpt lat="37.5310942" lon="-2.826637"><ele>849.0</ele><time>2026-04-11T16:57:24.395Z</time></trkpt><trkpt lat="37.5311724" lon="-2.8268403"><ele>846.6666666666667</ele><time>2026-04-11T16:57:25.396Z</time></trkpt><trkpt lat="37.531266" lon="-2.8270315"><ele>844.3333333333334</ele><time>2026-04-11T16:57:26.396Z</time></trkpt><trkpt lat="37.5313705" lon="-2.827219"><ele>842.0</ele><time>2026-04-11T16:57:27.396Z</time></trkpt><trkpt lat="37.5314763" lon="-2.8274046"><ele>842.0</ele><time>2026-04-11T16:57:28.396Z</time></trkpt><trkpt lat="37.5315794" lon="-2.82759"><ele>842.0</ele><time>2026-04-11T16:57:29.396Z</time></trkpt><trkpt lat="37.5316741" lon="-2.8277858"><ele>842.0</ele><time>2026-04-11T16:57:30.396Z</time></trkpt><trkpt lat="37.5317588" lon="-2.827989"><ele>841.6666666666667</ele><time>2026-04-11T16:57:31.396Z</time></trkpt><trkpt lat="37.5318225" lon="-2.8282035"><ele>841.3333333333333</ele><time>2026-04-11T16:57:32.395Z</time></trkpt><trkpt lat="37.5318723" lon="-2.828424"><ele>841.0</ele><time>2026-04-11T16:57:33.396Z</time></trkpt><trkpt lat="37.5319151" lon="-2.8286521"><ele>839.6666666666666</ele><time>2026-04-11T16:57:34.396Z</time></trkpt><trkpt lat="37.5319568" lon="-2.8288901"><ele>838.3333333333333</ele><time>2026-04-11T16:57:35.396Z</time></trkpt><trkpt lat="37.532009" lon="-2.8291331"><ele>837.0</ele><time>2026-04-11T16:57:36.396Z</time></trkpt><trkpt lat="37.5320781" lon="-2.8293861"><ele>837.0</ele><time>2026-04-11T16:57:37.396Z</time></trkpt><trkpt lat="37.5321591" lon="-2.8296276"><ele>837.0</ele><time>2026-04-11T16:57:38.396Z</time></trkpt><trkpt lat="37.5322707" lon="-2.8298664"><ele>837.0</ele><time>2026-04-11T16:57:39.396Z</time></trkpt><trkpt lat="37.5323678" lon="-2.8300953"><ele>834.6666666666667</ele><time>2026-04-11T16:57:40.396Z</time></trkpt><trkpt lat="37.5324638" lon="-2.830327"><ele>832.3333333333334</ele><time>2026-04-11T16:57:41.396Z</time></trkpt><trkpt lat="37.5325416" lon="-2.8305038"><ele>830.0</ele><time>2026-04-11T16:57:42.396Z</time></trkpt><trkpt lat="37.5326215" lon="-2.8306928"><ele>830.0</ele><time>2026-04-11T16:57:43.396Z</time></trkpt><trkpt lat="37.5327062" lon="-2.830883"><ele>830.0</ele><time>2026-04-11T16:57:44.396Z</time></trkpt><trkpt lat="37.5327924" lon="-2.8310782"><ele>830.0</ele><time>2026-04-11T16:57:45.396Z</time></trkpt><trkpt lat="37.5328744" lon="-2.8312729"><ele>830.3333333333334</ele><time>2026-04-11T16:57:46.396Z</time></trkpt><trkpt lat="37.532958" lon="-2.8314742"><ele>830.6666666666667</ele><time>2026-04-11T16:57:47.396Z</time></trkpt><trkpt lat="37.5330433" lon="-2.8316808"><ele>831.0</ele><time>2026-04-11T16:57:48.395Z</time></trkpt><trkpt lat="37.5331323" lon="-2.8318832"><ele>828.6666666666667</ele><time>2026-04-11T16:57:49.396Z</time></trkpt><trkpt lat="37.5332157" lon="-2.8320801"><ele>826.3333333333334</ele><time>2026-04-11T16:57:50.396Z</time></trkpt><trkpt lat="37.5332942" lon="-2.8322627"><ele>824.0</ele><time>2026-04-11T16:57:51.395Z</time></trkpt><trkpt lat="37.5333719" lon="-2.8324395"><ele>824.0</ele><time>2026-04-11T16:57:52.395Z</time></trkpt><trkpt lat="37.5334427" lon="-2.8326114"><ele>824.0</ele><time>2026-04-11T16:57:53.396Z</time></trkpt><trkpt lat="37.5335103" lon="-2.8327731"><ele>824.0</ele><time>2026-04-11T16:57:54.395Z</time></trkpt><trkpt lat="37.5335676" lon="-2.8329096"><ele>824.0</ele><time>2026-04-11T16:57:55.396Z</time></trkpt><trkpt lat="37.5336194" lon="-2.8330353"><ele>823.6666666666667</ele><time>2026-04-11T16:57:56.396Z</time></trkpt><trkpt lat="37.5336698" lon="-2.8331382"><ele>823.3333333333334</ele><time>2026-04-11T16:57:57.396Z</time></trkpt><trkpt lat="37.5337227" lon="-2.8332508"><ele>823.0</ele><time>2026-04-11T16:57:58.396Z</time></trkpt><trkpt lat="37.5337801" lon="-2.8333045"><ele>822.6666666666667</ele><time>2026-04-11T16:57:59.396Z</time></trkpt><trkpt lat="37.5338341" lon="-2.8333563"><ele>822.3333333333334</ele><time>2026-04-11T16:58:00.396Z</time></trkpt><trkpt lat="37.5338857" lon="-2.8334056"><ele>822.0</ele><time>2026-04-11T16:58:01.395Z</time></trkpt><trkpt lat="37.5339592" lon="-2.8334456"><ele>821.6</ele><time>2026-04-11T16:58:02.396Z</time></trkpt><trkpt lat="37.5340373" lon="-2.8334916"><ele>821.2</ele><time>2026-04-11T16:58:03.396Z</time></trkpt><trkpt lat="37.5341205" lon="-2.8335673"><ele>820.8</ele><time>2026-04-11T16:58:04.396Z</time></trkpt><trkpt lat="37.534198" lon="-2.8336401"><ele>820.4</ele><time>2026-04-11T16:58:05.396Z</time></trkpt><trkpt lat="37.5342729" lon="-2.8337761"><ele>820.0</ele><time>2026-04-11T16:58:06.396Z</time></trkpt><trkpt lat="37.5343675" lon="-2.833886"><ele>820.0</ele><time>2026-04-11T16:58:07.396Z</time></trkpt><trkpt lat="37.5344805" lon="-2.8339755"><ele>820.0</ele><time>2026-04-11T16:58:08.396Z</time></trkpt><trkpt lat="37.5346005" lon="-2.8340551"><ele>820.0</ele><time>2026-04-11T16:58:09.396Z</time></trkpt><trkpt lat="37.5347161" lon="-2.8341292"><ele>820.0</ele><time>2026-04-11T16:58:10.396Z</time></trkpt><trkpt lat="37.5348189" lon="-2.8342002"><ele>819.4</ele><time>2026-04-11T16:58:11.396Z</time></trkpt><trkpt lat="37.5349198" lon="-2.8342686"><ele>818.8</ele><time>2026-04-11T16:58:12.396Z</time></trkpt><trkpt lat="37.5350173" lon="-2.8343328"><ele>818.2</ele><time>2026-04-11T16:58:13.396Z</time></trkpt><trkpt lat="37.5351124" lon="-2.834396"><ele>817.6</ele><time>2026-04-11T16:58:14.395Z</time></trkpt><trkpt lat="37.53521" lon="-2.8344575"><ele>817.0</ele><time>2026-04-11T16:58:15.396Z</time></trkpt><trkpt lat="37.5353077" lon="-2.8345201"><ele>815.0</ele><time>2026-04-11T16:58:16.396Z</time></trkpt><trkpt lat="37.5354065" lon="-2.8345833"><ele>813.0</ele><time>2026-04-11T16:58:17.396Z</time></trkpt><trkpt lat="37.5355067" lon="-2.834653"><ele>811.0</ele><time>2026-04-11T16:58:18.396Z</time></trkpt><trkpt lat="37.5356061" lon="-2.8347196"><ele>809.0</ele><time>2026-04-11T16:58:19.396Z</time></trkpt><trkpt lat="37.5357053" lon="-2.8347894"><ele>809.0</ele><time>2026-04-11T16:58:20.396Z</time></trkpt><trkpt lat="37.5358054" lon="-2.8348636"><ele>809.0</ele><time>2026-04-11T16:58:21.395Z</time></trkpt><trkpt lat="37.5359035" lon="-2.8349329"><ele>809.0</ele><time>2026-04-11T16:58:22.395Z</time></trkpt><trkpt lat="37.5359984" lon="-2.8349983"><ele>809.0</ele><time>2026-04-11T16:58:23.396Z</time></trkpt><trkpt lat="37.536081" lon="-2.8350571"><ele>809.0</ele><time>2026-04-11T16:58:24.396Z</time></trkpt><trkpt lat="37.5361586" lon="-2.8351046"><ele>808.3333333333334</ele><time>2026-04-11T16:58:25.396Z</time></trkpt><trkpt lat="37.5362331" lon="-2.8351438"><ele>807.6666666666667</ele><time>2026-04-11T16:58:26.396Z</time></trkpt><trkpt lat="37.536304" lon="-2.8351625"><ele>807.0</ele><time>2026-04-11T16:58:27.396Z</time></trkpt><trkpt lat="37.5363706" lon="-2.8351757"><ele>806.3333333333333</ele><time>2026-04-11T16:58:28.396Z</time></trkpt><trkpt lat="37.53643" lon="-2.8352091"><ele>805.6666666666666</ele><time>2026-04-11T16:58:29.395Z</time></trkpt><trkpt lat="37.536485" lon="-2.8353249"><ele>805.0</ele><time>2026-04-11T16:58:31.396Z</time></trkpt><trkpt lat="37.53646" lon="-2.835457"><ele>805.0</ele><time>2026-04-11T16:58:33.395Z</time></trkpt><trkpt lat="37.536423" lon="-2.8356213"><ele>805.0</ele><time>2026-04-11T16:58:35.396Z</time></trkpt><trkpt lat="37.5364047" lon="-2.8357213"><ele>805.0</ele><time>2026-04-11T16:58:36.396Z</time></trkpt><trkpt lat="37.5363844" lon="-2.8358256"><ele>805.0</ele><time>2026-04-11T16:58:37.396Z</time></trkpt><trkpt lat="37.5363622" lon="-2.8359504"><ele>805.0</ele><time>2026-04-11T16:58:38.396Z</time></trkpt><trkpt lat="37.5363384" lon="-2.8360876"><ele>804.75</ele><time>2026-04-11T16:58:39.396Z</time></trkpt><trkpt lat="37.5363151" lon="-2.8362431"><ele>804.5</ele><time>2026-04-11T16:58:40.395Z</time></trkpt><trkpt lat="37.5362914" lon="-2.8364078"><ele>804.25</ele><time>2026-04-11T16:58:41.395Z</time></trkpt><trkpt lat="37.5362591" lon="-2.8365846"><ele>804.0</ele><time>2026-04-11T16:58:42.396Z</time></trkpt><trkpt lat="37.5362301" lon="-2.8367767"><ele>804.0</ele><time>2026-04-11T16:58:43.395Z</time></trkpt><trkpt lat="37.5362001" lon="-2.836985"><ele>804.0</ele><time>2026-04-11T16:58:44.395Z</time></trkpt><trkpt lat="37.5361644" lon="-2.8372145"><ele>804.0</ele><time>2026-04-11T16:58:45.396Z</time></trkpt><trkpt lat="37.536128" lon="-2.8374537"><ele>802.0</ele><time>2026-04-11T16:58:46.396Z</time></trkpt><trkpt lat="37.5360899" lon="-2.8376964"><ele>800.0</ele><time>2026-04-11T16:58:47.396Z</time></trkpt><trkpt lat="37.5360533" lon="-2.8379521"><ele>798.0</ele><time>2026-04-11T16:58:48.396Z</time></trkpt><trkpt lat="37.5360082" lon="-2.8382249"><ele>798.6666666666667</ele><time>2026-04-11T16:58:49.396Z</time></trkpt><trkpt lat="37.5359644" lon="-2.8385"><ele>799.3333333333334</ele><time>2026-04-11T16:58:50.396Z</time></trkpt><trkpt lat="37.5359246" lon="-2.8387738"><ele>800.0</ele><time>2026-04-11T16:58:51.396Z</time></trkpt><trkpt lat="37.5358814" lon="-2.839057"><ele>800.5</ele><time>2026-04-11T16:58:52.396Z</time></trkpt><trkpt lat="37.5358398" lon="-2.8393367"><ele>801.0</ele><time>2026-04-11T16:58:53.395Z</time></trkpt><trkpt lat="37.5357956" lon="-2.8396191"><ele>801.0</ele><time>2026-04-11T16:58:54.395Z</time></trkpt><trkpt lat="37.5357531" lon="-2.8398979"><ele>801.0</ele><time>2026-04-11T16:58:55.395Z</time></trkpt><trkpt lat="37.5357079" lon="-2.8401776"><ele>798.5</ele><time>2026-04-11T16:58:56.396Z</time></trkpt><trkpt lat="37.5356663" lon="-2.8404622"><ele>796.0</ele><time>2026-04-11T16:58:57.395Z</time></trkpt><trkpt lat="37.5356232" lon="-2.8407445"><ele>795.5</ele><time>2026-04-11T16:58:58.396Z</time></trkpt><trkpt lat="37.5355766" lon="-2.8410267"><ele>795.0</ele><time>2026-04-11T16:58:59.396Z</time></trkpt><trkpt lat="37.5355306" lon="-2.8413164"><ele>795.0</ele><time>2026-04-11T16:59:00.396Z</time></trkpt><trkpt lat="37.5354845" lon="-2.8416069"><ele>795.0</ele><time>2026-04-11T16:59:01.396Z</time></trkpt><trkpt lat="37.5354385" lon="-2.8419027"><ele>798.0</ele><time>2026-04-11T16:59:02.395Z</time></trkpt><trkpt lat="37.5353916" lon="-2.8421954"><ele>801.0</ele><time>2026-04-11T16:59:03.395Z</time></trkpt><trkpt lat="37.5353437" lon="-2.8424842"><ele>803.5</ele><time>2026-04-11T16:59:04.396Z</time></trkpt><trkpt lat="37.5353012" lon="-2.8427675"><ele>806.0</ele><time>2026-04-11T16:59:05.396Z</time></trkpt><trkpt lat="37.5352595" lon="-2.8430417"><ele>806.0</ele><time>2026-04-11T16:59:06.396Z</time></trkpt><trkpt lat="37.5352214" lon="-2.8432924"><ele>806.0</ele><time>2026-04-11T16:59:07.396Z</time></trkpt><trkpt lat="37.5351869" lon="-2.8435136"><ele>806.0</ele><time>2026-04-11T16:59:08.396Z</time></trkpt><trkpt lat="37.535155" lon="-2.8437154"><ele>806.0</ele><time>2026-04-11T16:59:09.396Z</time></trkpt><trkpt lat="37.5351226" lon="-2.8439129"><ele>806.0</ele><time>2026-04-11T16:59:10.396Z</time></trkpt><trkpt lat="37.5350913" lon="-2.8441118"><ele>806.0</ele><time>2026-04-11T16:59:11.396Z</time></trkpt><trkpt lat="37.5350617" lon="-2.8443151"><ele>807.0</ele><time>2026-04-11T16:59:12.396Z</time></trkpt><trkpt lat="37.5350296" lon="-2.844523"><ele>808.0</ele><time>2026-04-11T16:59:13.396Z</time></trkpt><trkpt lat="37.5349969" lon="-2.844735"><ele>809.0</ele><time>2026-04-11T16:59:14.396Z</time></trkpt><trkpt lat="37.5349619" lon="-2.8449568"><ele>808.0</ele><time>2026-04-11T16:59:15.395Z</time></trkpt><trkpt lat="37.5349265" lon="-2.8451891"><ele>807.0</ele><time>2026-04-11T16:59:16.396Z</time></trkpt><trkpt lat="37.534887" lon="-2.8454261"><ele>806.0</ele><time>2026-04-11T16:59:17.396Z</time></trkpt><trkpt lat="37.5348484" lon="-2.845671"><ele>806.0</ele><time>2026-04-11T16:59:18.396Z</time></trkpt><trkpt lat="37.5348048" lon="-2.8459204"><ele>806.0</ele><time>2026-04-11T16:59:19.396Z</time></trkpt><trkpt lat="37.5347655" lon="-2.8461737"><ele>806.0</ele><time>2026-04-11T16:59:20.396Z</time></trkpt><trkpt lat="37.5347236" lon="-2.8464322"><ele>806.3333333333334</ele><time>2026-04-11T16:59:21.395Z</time></trkpt><trkpt lat="37.5346859" lon="-2.8466955"><ele>806.6666666666667</ele><time>2026-04-11T16:59:22.396Z</time></trkpt><trkpt lat="37.5346498" lon="-2.8469668"><ele>807.0</ele><time>2026-04-11T16:59:23.396Z</time></trkpt><trkpt lat="37.534607" lon="-2.8472459"><ele>807.0</ele><time>2026-04-11T16:59:24.396Z</time></trkpt><trkpt lat="37.5345656" lon="-2.8475321"><ele>807.0</ele><time>2026-04-11T16:59:25.396Z</time></trkpt><trkpt lat="37.5345217" lon="-2.8478172"><ele>807.0</ele><time>2026-04-11T16:59:26.396Z</time></trkpt><trkpt lat="37.5344835" lon="-2.8481048"><ele>807.0</ele><time>2026-04-11T16:59:27.396Z</time></trkpt><trkpt lat="37.5344546" lon="-2.8483905"><ele>810.5</ele><time>2026-04-11T16:59:28.395Z</time></trkpt><trkpt lat="37.5344348" lon="-2.8486772"><ele>814.0</ele><time>2026-04-11T16:59:29.396Z</time></trkpt><trkpt lat="37.5344215" lon="-2.8489624"><ele>814.0</ele><time>2026-04-11T16:59:30.395Z</time></trkpt><trkpt lat="37.5344179" lon="-2.8492491"><ele>814.0</ele><time>2026-04-11T16:59:31.396Z</time></trkpt><trkpt lat="37.5344235" lon="-2.8495359"><ele>817.0</ele><time>2026-04-11T16:59:32.396Z</time></trkpt><trkpt lat="37.5344313" lon="-2.8498232"><ele>820.0</ele><time>2026-04-11T16:59:33.396Z</time></trkpt><trkpt lat="37.534452" lon="-2.8501034"><ele>821.6666666666666</ele><time>2026-04-11T16:59:34.396Z</time></trkpt><trkpt lat="37.5344788" lon="-2.8503817"><ele>823.3333333333333</ele><time>2026-04-11T16:59:35.396Z</time></trkpt><trkpt lat="37.5345069" lon="-2.8506617"><ele>825.0</ele><time>2026-04-11T16:59:36.396Z</time></trkpt><trkpt lat="37.5345391" lon="-2.8509386"><ele>821.3333333333333</ele><time>2026-04-11T16:59:37.396Z</time></trkpt><trkpt lat="37.5345709" lon="-2.8512175"><ele>817.6666666666666</ele><time>2026-04-11T16:59:38.396Z</time></trkpt><trkpt lat="37.5346021" lon="-2.8514972"><ele>814.0</ele><time>2026-04-11T16:59:39.396Z</time></trkpt><trkpt lat="37.5346267" lon="-2.8517771"><ele>815.0</ele><time>2026-04-11T16:59:40.396Z</time></trkpt><trkpt lat="37.5346553" lon="-2.8520592"><ele>816.0</ele><time>2026-04-11T16:59:41.395Z</time></trkpt><trkpt lat="37.5346853" lon="-2.8523429"><ele>817.0</ele><time>2026-04-11T16:59:42.396Z</time></trkpt><trkpt lat="37.5347181" lon="-2.8526236"><ele>818.0</ele><time>2026-04-11T16:59:43.395Z</time></trkpt><trkpt lat="37.5347471" lon="-2.8528999"><ele>819.0</ele><time>2026-04-11T16:59:44.395Z</time></trkpt><trkpt lat="37.534778" lon="-2.8531718"><ele>819.0</ele><time>2026-04-11T16:59:45.395Z</time></trkpt><trkpt lat="37.5348032" lon="-2.8534322"><ele>819.0</ele><time>2026-04-11T16:59:46.396Z</time></trkpt><trkpt lat="37.5348285" lon="-2.8536689"><ele>819.0</ele><time>2026-04-11T16:59:47.396Z</time></trkpt><trkpt lat="37.5348542" lon="-2.8538951"><ele>820.0</ele><time>2026-04-11T16:59:48.396Z</time></trkpt><trkpt lat="37.5348789" lon="-2.8541186"><ele>821.0</ele><time>2026-04-11T16:59:49.396Z</time></trkpt><trkpt lat="37.5348999" lon="-2.8543308"><ele>822.0</ele><time>2026-04-11T16:59:50.396Z</time></trkpt><trkpt lat="37.534914" lon="-2.8545436"><ele>822.6666666666667</ele><time>2026-04-11T16:59:51.396Z</time></trkpt><trkpt lat="37.5349236" lon="-2.8547529"><ele>823.3333333333334</ele><time>2026-04-11T16:59:52.396Z</time></trkpt><trkpt lat="37.5349301" lon="-2.8549549"><ele>824.0</ele><time>2026-04-11T16:59:53.396Z</time></trkpt><trkpt lat="37.5349322" lon="-2.8551254"><ele>824.2</ele><time>2026-04-11T16:59:54.396Z</time></trkpt><trkpt lat="37.5349351" lon="-2.8552739"><ele>824.4000000000001</ele><time>2026-04-11T16:59:55.396Z</time></trkpt><trkpt lat="37.5349378" lon="-2.8554071"><ele>824.6</ele><time>2026-04-11T16:59:56.396Z</time></trkpt><trkpt lat="37.5349411" lon="-2.8555192"><ele>824.8</ele><time>2026-04-11T16:59:57.396Z</time></trkpt><trkpt lat="37.5349449" lon="-2.8556266"><ele>825.0</ele><time>2026-04-11T16:59:58.396Z</time></trkpt><trkpt lat="37.5349721" lon="-2.855715"><ele>825.0</ele><time>2026-04-11T16:59:59.395Z</time></trkpt><trkpt lat="37.5350192" lon="-2.8557869"><ele>825.0</ele><time>2026-04-11T17:00:00.396Z</time></trkpt><trkpt lat="37.5350777" lon="-2.8558546"><ele>825.0</ele><time>2026-04-11T17:00:01.396Z</time></trkpt><trkpt lat="37.5351215" lon="-2.8559384"><ele>825.0</ele><time>2026-04-11T17:00:02.396Z</time></trkpt><trkpt lat="37.5351425" lon="-2.8560339"><ele>825.0</ele><time>2026-04-11T17:00:03.396Z</time></trkpt><trkpt lat="37.5351287" lon="-2.8561422"><ele>825.0</ele><time>2026-04-11T17:00:04.396Z</time></trkpt><trkpt lat="37.5350856" lon="-2.8562463"><ele>825.8</ele><time>2026-04-11T17:00:05.396Z</time></trkpt><trkpt lat="37.5350255" lon="-2.8563497"><ele>826.6</ele><time>2026-04-11T17:00:06.396Z</time></trkpt><trkpt lat="37.5349651" lon="-2.8564613"><ele>827.4000000000001</ele><time>2026-04-11T17:00:07.396Z</time></trkpt><trkpt lat="37.5349147" lon="-2.8565842"><ele>828.2</ele><time>2026-04-11T17:00:08.395Z</time></trkpt><trkpt lat="37.5348836" lon="-2.8567229"><ele>829.0</ele><time>2026-04-11T17:00:09.396Z</time></trkpt><trkpt lat="37.5348627" lon="-2.8568739"><ele>830.25</ele><time>2026-04-11T17:00:10.396Z</time></trkpt><trkpt lat="37.5348446" lon="-2.8570289"><ele>831.5</ele><time>2026-04-11T17:00:11.396Z</time></trkpt><trkpt lat="37.5348229" lon="-2.857185"><ele>832.75</ele><time>2026-04-11T17:00:12.396Z</time></trkpt><trkpt lat="37.5348016" lon="-2.8573555"><ele>834.0</ele><time>2026-04-11T17:00:13.396Z</time></trkpt><trkpt lat="37.5347758" lon="-2.8575275"><ele>835.3333333333333</ele><time>2026-04-11T17:00:14.396Z</time></trkpt><trkpt lat="37.5347453" lon="-2.8577116"><ele>836.6666666666666</ele><time>2026-04-11T17:00:15.396Z</time></trkpt><trkpt lat="37.5347131" lon="-2.8578923"><ele>838.0</ele><time>2026-04-11T17:00:16.396Z</time></trkpt><trkpt lat="37.5346774" lon="-2.8580832"><ele>838.0</ele><time>2026-04-11T17:00:17.396Z</time></trkpt><trkpt lat="37.5346375" lon="-2.858288"><ele>838.0</ele><time>2026-04-11T17:00:18.395Z</time></trkpt><trkpt lat="37.5345983" lon="-2.8585027"><ele>838.0</ele><time>2026-04-11T17:00:19.396Z</time></trkpt><trkpt lat="37.5345554" lon="-2.8587261"><ele>836.6666666666666</ele><time>2026-04-11T17:00:20.396Z</time></trkpt><trkpt lat="37.5345132" lon="-2.8589568"><ele>835.3333333333333</ele><time>2026-04-11T17:00:21.396Z</time></trkpt><trkpt lat="37.5344688" lon="-2.8591923"><ele>834.0</ele><time>2026-04-11T17:00:22.396Z</time></trkpt><trkpt lat="37.5344202" lon="-2.8594449"><ele>832.6666666666667</ele><time>2026-04-11T17:00:23.396Z</time></trkpt><trkpt lat="37.5343741" lon="-2.859693"><ele>831.3333333333334</ele><time>2026-04-11T17:00:24.395Z</time></trkpt><trkpt lat="37.5343259" lon="-2.8599441"><ele>830.0</ele><time>2026-04-11T17:00:25.396Z</time></trkpt><trkpt lat="37.5342752" lon="-2.8602083"><ele>828.0</ele><time>2026-04-11T17:00:26.395Z</time></trkpt><trkpt lat="37.5342214" lon="-2.860485"><ele>826.0</ele><time>2026-04-11T17:00:27.396Z</time></trkpt><trkpt lat="37.5341677" lon="-2.8607643"><ele>827.5</ele><time>2026-04-11T17:00:28.396Z</time></trkpt><trkpt lat="37.5341096" lon="-2.8610486"><ele>829.0</ele><time>2026-04-11T17:00:29.396Z</time></trkpt><trkpt lat="37.5340508" lon="-2.861346"><ele>829.0</ele><time>2026-04-11T17:00:30.396Z</time></trkpt><trkpt lat="37.533995" lon="-2.8616469"><ele>829.0</ele><time>2026-04-11T17:00:31.395Z</time></trkpt><trkpt lat="37.5339365" lon="-2.8619539"><ele>829.0</ele><time>2026-04-11T17:00:32.396Z</time></trkpt><trkpt lat="37.53388" lon="-2.8622677"><ele>829.0</ele><time>2026-04-11T17:00:33.396Z</time></trkpt><trkpt lat="37.5338174" lon="-2.8625827"><ele>827.5</ele><time>2026-04-11T17:00:34.396Z</time></trkpt><trkpt lat="37.5337546" lon="-2.8629052"><ele>826.0</ele><time>2026-04-11T17:00:35.395Z</time></trkpt><trkpt lat="37.5336916" lon="-2.8632251"><ele>825.5</ele><time>2026-04-11T17:00:36.396Z</time></trkpt><trkpt lat="37.5336268" lon="-2.8635489"><ele>825.0</ele><time>2026-04-11T17:00:37.396Z</time></trkpt><trkpt lat="37.5335612" lon="-2.8638748"><ele>825.0</ele><time>2026-04-11T17:00:38.396Z</time></trkpt><trkpt lat="37.5334954" lon="-2.8642013"><ele>825.0</ele><time>2026-04-11T17:00:39.396Z</time></trkpt><trkpt lat="37.5334325" lon="-2.8645333"><ele>825.0</ele><time>2026-04-11T17:00:40.395Z</time></trkpt><trkpt lat="37.5333686" lon="-2.8648637"><ele>825.0</ele><time>2026-04-11T17:00:41.396Z</time></trkpt><trkpt lat="37.5333063" lon="-2.8651922"><ele>825.0</ele><time>2026-04-11T17:00:42.396Z</time></trkpt><trkpt lat="37.5332448" lon="-2.8655232"><ele>825.0</ele><time>2026-04-11T17:00:43.396Z</time></trkpt><trkpt lat="37.5331834" lon="-2.8658398"><ele>825.0</ele><time>2026-04-11T17:00:44.396Z</time></trkpt><trkpt lat="37.5331222" lon="-2.8661531"><ele>825.0</ele><time>2026-04-11T17:00:45.396Z</time></trkpt><trkpt lat="37.5330645" lon="-2.866458"><ele>825.0</ele><time>2026-04-11T17:00:46.396Z</time></trkpt><trkpt lat="37.5330085" lon="-2.8667644"><ele>825.0</ele><time>2026-04-11T17:00:47.396Z</time></trkpt><trkpt lat="37.5329493" lon="-2.8670735"><ele>826.5</ele><time>2026-04-11T17:00:48.396Z</time></trkpt><trkpt lat="37.5328915" lon="-2.8673859"><ele>828.0</ele><time>2026-04-11T17:00:49.396Z</time></trkpt><trkpt lat="37.5328295" lon="-2.8677022"><ele>831.0</ele><time>2026-04-11T17:00:50.396Z</time></trkpt><trkpt lat="37.5327724" lon="-2.8680169"><ele>834.0</ele><time>2026-04-11T17:00:51.396Z</time></trkpt><trkpt lat="37.5327174" lon="-2.8683363"><ele>836.0</ele><time>2026-04-11T17:00:52.396Z</time></trkpt><trkpt lat="37.5326685" lon="-2.8686572"><ele>838.0</ele><time>2026-04-11T17:00:53.395Z</time></trkpt><trkpt lat="37.532626" lon="-2.8689809"><ele>838.0</ele><time>2026-04-11T17:00:54.396Z</time></trkpt><trkpt lat="37.5325832" lon="-2.8693072"><ele>838.0</ele><time>2026-04-11T17:00:55.396Z</time></trkpt><trkpt lat="37.5325437" lon="-2.8696322"><ele>838.0</ele><time>2026-04-11T17:00:56.395Z</time></trkpt><trkpt lat="37.5325203" lon="-2.8699667"><ele>838.0</ele><time>2026-04-11T17:00:57.396Z</time></trkpt><trkpt lat="37.5324928" lon="-2.8702992"><ele>837.5</ele><time>2026-04-11T17:00:58.396Z</time></trkpt><trkpt lat="37.5324751" lon="-2.8706364"><ele>837.0</ele><time>2026-04-11T17:00:59.396Z</time></trkpt><trkpt lat="37.5324621" lon="-2.8709729"><ele>839.5</ele><time>2026-04-11T17:01:00.396Z</time></trkpt><trkpt lat="37.5324464" lon="-2.8713048"><ele>842.0</ele><time>2026-04-11T17:01:01.396Z</time></trkpt><trkpt lat="37.5324343" lon="-2.8716434"><ele>844.0</ele><time>2026-04-11T17:01:02.396Z</time></trkpt><trkpt lat="37.5324276" lon="-2.8719784"><ele>846.0</ele><time>2026-04-11T17:01:03.396Z</time></trkpt><trkpt lat="37.5324122" lon="-2.872315"><ele>848.0</ele><time>2026-04-11T17:01:04.396Z</time></trkpt><trkpt lat="37.5324021" lon="-2.8726493"><ele>850.0</ele><time>2026-04-11T17:01:05.396Z</time></trkpt><trkpt lat="37.5323899" lon="-2.8729739"><ele>850.0</ele><time>2026-04-11T17:01:06.395Z</time></trkpt><trkpt lat="37.5323748" lon="-2.8733072"><ele>850.0</ele><time>2026-04-11T17:01:07.396Z</time></trkpt><trkpt lat="37.5323629" lon="-2.8736356"><ele>851.5</ele><time>2026-04-11T17:01:08.396Z</time></trkpt><trkpt lat="37.532351" lon="-2.873964"><ele>853.0</ele><time>2026-04-11T17:01:09.396Z</time></trkpt><trkpt lat="37.5323403" lon="-2.8742939"><ele>855.5</ele><time>2026-04-11T17:01:10.396Z</time></trkpt><trkpt lat="37.5323285" lon="-2.8746147"><ele>858.0</ele><time>2026-04-11T17:01:11.396Z</time></trkpt><trkpt lat="37.5323152" lon="-2.8749325"><ele>855.0</ele><time>2026-04-11T17:01:12.396Z</time></trkpt><trkpt lat="37.532303" lon="-2.8752502"><ele>852.0</ele><time>2026-04-11T17:01:13.396Z</time></trkpt><trkpt lat="37.532292" lon="-2.875566"><ele>852.0</ele><time>2026-04-11T17:01:14.395Z</time></trkpt><trkpt lat="37.5322834" lon="-2.8758864"><ele>852.0</ele><time>2026-04-11T17:01:15.396Z</time></trkpt><trkpt lat="37.5322752" lon="-2.8762072"><ele>850.0</ele><time>2026-04-11T17:01:16.396Z</time></trkpt><trkpt lat="37.5322637" lon="-2.8765281"><ele>848.0</ele><time>2026-04-11T17:01:17.396Z</time></trkpt><trkpt lat="37.5322543" lon="-2.8768509"><ele>845.0</ele><time>2026-04-11T17:01:18.395Z</time></trkpt><trkpt lat="37.5322505" lon="-2.8771764"><ele>842.0</ele><time>2026-04-11T17:01:19.396Z</time></trkpt><trkpt lat="37.5322575" lon="-2.8775043"><ele>835.5</ele><time>2026-04-11T17:01:20.396Z</time></trkpt><trkpt lat="37.5322819" lon="-2.8778346"><ele>829.0</ele><time>2026-04-11T17:01:21.396Z</time></trkpt><trkpt lat="37.5323148" lon="-2.8781661"><ele>832.0</ele><time>2026-04-11T17:01:22.396Z</time></trkpt><trkpt lat="37.5323597" lon="-2.8784996"><ele>835.0</ele><time>2026-04-11T17:01:23.396Z</time></trkpt><trkpt lat="37.5324176" lon="-2.8788224"><ele>835.0</ele><time>2026-04-11T17:01:24.395Z</time></trkpt><trkpt lat="37.5324907" lon="-2.879144"><ele>835.0</ele><time>2026-04-11T17:01:25.395Z</time></trkpt><trkpt lat="37.5325776" lon="-2.87946"><ele>837.5</ele><time>2026-04-11T17:01:26.396Z</time></trkpt><trkpt lat="37.5326777" lon="-2.8797726"><ele>840.0</ele><time>2026-04-11T17:01:27.396Z</time></trkpt><trkpt lat="37.5327842" lon="-2.8800796"><ele>834.5</ele><time>2026-04-11T17:01:28.396Z</time></trkpt><trkpt lat="37.5329049" lon="-2.880384"><ele>829.0</ele><time>2026-04-11T17:01:29.396Z</time></trkpt><trkpt lat="37.533031" lon="-2.8806819"><ele>829.0</ele><time>2026-04-11T17:01:30.396Z</time></trkpt><trkpt lat="37.53316" lon="-2.8809821"><ele>829.0</ele><time>2026-04-11T17:01:31.395Z</time></trkpt><trkpt lat="37.5332942" lon="-2.8812825"><ele>829.0</ele><time>2026-04-11T17:01:32.396Z</time></trkpt><trkpt lat="37.5334296" lon="-2.8815921"><ele>829.0</ele><time>2026-04-11T17:01:33.396Z</time></trkpt><trkpt lat="37.5335665" lon="-2.8819034"><ele>829.5</ele><time>2026-04-11T17:01:34.396Z</time></trkpt><trkpt lat="37.5337088" lon="-2.8822177"><ele>830.0</ele><time>2026-04-11T17:01:35.396Z</time></trkpt><trkpt lat="37.5338536" lon="-2.8825356"><ele>833.5</ele><time>2026-04-11T17:01:36.396Z</time></trkpt><trkpt lat="37.5339975" lon="-2.8828541"><ele>837.0</ele><time>2026-04-11T17:01:37.396Z</time></trkpt><trkpt lat="37.5341363" lon="-2.8831748"><ele>834.5</ele><time>2026-04-11T17:01:38.396Z</time></trkpt><trkpt lat="37.5342716" lon="-2.883494"><ele>832.0</ele><time>2026-04-11T17:01:39.395Z</time></trkpt><trkpt lat="37.5344085" lon="-2.8838102"><ele>832.0</ele><time>2026-04-11T17:01:40.396Z</time></trkpt><trkpt lat="37.5345397" lon="-2.8841245"><ele>832.0</ele><time>2026-04-11T17:01:41.396Z</time></trkpt><trkpt lat="37.5346602" lon="-2.8844451"><ele>828.5</ele><time>2026-04-11T17:01:42.396Z</time></trkpt><trkpt lat="37.5347605" lon="-2.8847775"><ele>825.0</ele><time>2026-04-11T17:01:43.396Z</time></trkpt><trkpt lat="37.5348373" lon="-2.885118"><ele>824.5</ele><time>2026-04-11T17:01:44.396Z</time></trkpt><trkpt lat="37.5349119" lon="-2.8854739"><ele>824.0</ele><time>2026-04-11T17:01:45.396Z</time></trkpt><trkpt lat="37.5349276" lon="-2.885821"><ele>822.5</ele><time>2026-04-11T17:01:46.396Z</time></trkpt><trkpt lat="37.5349421" lon="-2.886171"><ele>821.0</ele><time>2026-04-11T17:01:47.396Z</time></trkpt><trkpt lat="37.534935" lon="-2.8865264"><ele>819.0</ele><time>2026-04-11T17:01:48.396Z</time></trkpt><trkpt lat="37.5349105" lon="-2.8868824"><ele>817.0</ele><time>2026-04-11T17:01:49.396Z</time></trkpt><trkpt lat="37.5348629" lon="-2.8872357"><ele>817.0</ele><time>2026-04-11T17:01:50.396Z</time></trkpt><trkpt lat="37.5347923" lon="-2.8875815"><ele>817.0</ele><time>2026-04-11T17:01:51.395Z</time></trkpt><trkpt lat="37.5346986" lon="-2.8879196"><ele>819.5</ele><time>2026-04-11T17:01:52.396Z</time></trkpt><trkpt lat="37.5345894" lon="-2.8882511"><ele>822.0</ele><time>2026-04-11T17:01:53.396Z</time></trkpt><trkpt lat="37.5344739" lon="-2.8885765"><ele>822.0</ele><time>2026-04-11T17:01:54.396Z</time></trkpt><trkpt lat="37.534358" lon="-2.8888952"><ele>822.0</ele><time>2026-04-11T17:01:55.395Z</time></trkpt><trkpt lat="37.5342426" lon="-2.8892118"><ele>818.5</ele><time>2026-04-11T17:01:56.396Z</time></trkpt><trkpt lat="37.5341323" lon="-2.8895214"><ele>815.0</ele><time>2026-04-11T17:01:57.396Z</time></trkpt><trkpt lat="37.5340316" lon="-2.8898334"><ele>814.0</ele><time>2026-04-11T17:01:58.395Z</time></trkpt><trkpt lat="37.5339389" lon="-2.8901522"><ele>813.0</ele><time>2026-04-11T17:01:59.395Z</time></trkpt><trkpt lat="37.533862" lon="-2.8904769"><ele>813.0</ele><time>2026-04-11T17:02:00.396Z</time></trkpt><trkpt lat="37.5337979" lon="-2.8908094"><ele>813.0</ele><time>2026-04-11T17:02:01.396Z</time></trkpt><trkpt lat="37.533751" lon="-2.8911503"><ele>810.5</ele><time>2026-04-11T17:02:02.395Z</time></trkpt><trkpt lat="37.5337222" lon="-2.8914942"><ele>808.0</ele><time>2026-04-11T17:02:03.396Z</time></trkpt><trkpt lat="37.5337077" lon="-2.8918396"><ele>810.5</ele><time>2026-04-11T17:02:04.396Z</time></trkpt><trkpt lat="37.5337135" lon="-2.89218"><ele>813.0</ele><time>2026-04-11T17:02:05.395Z</time></trkpt><trkpt lat="37.5337383" lon="-2.8925284"><ele>815.0</ele><time>2026-04-11T17:02:06.396Z</time></trkpt><trkpt lat="37.5337725" lon="-2.89288"><ele>817.0</ele><time>2026-04-11T17:02:07.396Z</time></trkpt><trkpt lat="37.5338218" lon="-2.8932325"><ele>817.5</ele><time>2026-04-11T17:02:08.396Z</time></trkpt><trkpt lat="37.5338912" lon="-2.8935787"><ele>818.0</ele><time>2026-04-11T17:02:09.395Z</time></trkpt><trkpt lat="37.5339671" lon="-2.8939215"><ele>820.5</ele><time>2026-04-11T17:02:10.396Z</time></trkpt><trkpt lat="37.5340503" lon="-2.8942565"><ele>823.0</ele><time>2026-04-11T17:02:11.396Z</time></trkpt><trkpt lat="37.5341343" lon="-2.8945929"><ele>823.0</ele><time>2026-04-11T17:02:12.396Z</time></trkpt><trkpt lat="37.5342175" lon="-2.8949282"><ele>823.0</ele><time>2026-04-11T17:02:13.395Z</time></trkpt><trkpt lat="37.5343039" lon="-2.8952645"><ele>823.5</ele><time>2026-04-11T17:02:14.395Z</time></trkpt><trkpt lat="37.5343852" lon="-2.8955991"><ele>824.0</ele><time>2026-04-11T17:02:15.396Z</time></trkpt><trkpt lat="37.5344678" lon="-2.8959273"><ele>822.0</ele><time>2026-04-11T17:02:16.396Z</time></trkpt><trkpt lat="37.5345459" lon="-2.8962526"><ele>820.0</ele><time>2026-04-11T17:02:17.396Z</time></trkpt><trkpt lat="37.5346255" lon="-2.8965759"><ele>819.0</ele><time>2026-04-11T17:02:18.396Z</time></trkpt><trkpt lat="37.5347032" lon="-2.8968971"><ele>818.0</ele><time>2026-04-11T17:02:19.396Z</time></trkpt><trkpt lat="37.5347802" lon="-2.8972108"><ele>818.0</ele><time>2026-04-11T17:02:20.396Z</time></trkpt><trkpt lat="37.534857" lon="-2.897524"><ele>818.0</ele><time>2026-04-11T17:02:21.396Z</time></trkpt><trkpt lat="37.534931" lon="-2.897841"><ele>817.5</ele><time>2026-04-11T17:02:22.396Z</time></trkpt><trkpt lat="37.5350081" lon="-2.8981566"><ele>817.0</ele><time>2026-04-11T17:02:23.396Z</time></trkpt><trkpt lat="37.5350859" lon="-2.8984776"><ele>817.0</ele><time>2026-04-11T17:02:24.395Z</time></trkpt><trkpt lat="37.5351667" lon="-2.8987994"><ele>817.0</ele><time>2026-04-11T17:02:25.396Z</time></trkpt><trkpt lat="37.5352449" lon="-2.8991205"><ele>815.0</ele><time>2026-04-11T17:02:26.396Z</time></trkpt><trkpt lat="37.5353222" lon="-2.8994426"><ele>813.0</ele><time>2026-04-11T17:02:27.396Z</time></trkpt><trkpt lat="37.5353977" lon="-2.899762"><ele>811.0</ele><time>2026-04-11T17:02:28.396Z</time></trkpt><trkpt lat="37.5354718" lon="-2.9000812"><ele>809.0</ele><time>2026-04-11T17:02:29.396Z</time></trkpt><trkpt lat="37.5355479" lon="-2.9004029"><ele>809.5</ele><time>2026-04-11T17:02:30.395Z</time></trkpt><trkpt lat="37.5356254" lon="-2.9007221"><ele>810.0</ele><time>2026-04-11T17:02:31.396Z</time></trkpt><trkpt lat="37.5357057" lon="-2.9010412"><ele>810.0</ele><time>2026-04-11T17:02:32.396Z</time></trkpt><trkpt lat="37.5357844" lon="-2.9013573"><ele>810.0</ele><time>2026-04-11T17:02:33.395Z</time></trkpt><trkpt lat="37.5358597" lon="-2.9016752"><ele>807.0</ele><time>2026-04-11T17:02:34.396Z</time></trkpt><trkpt lat="37.5359328" lon="-2.9019789"><ele>804.0</ele><time>2026-04-11T17:02:35.395Z</time></trkpt><trkpt lat="37.5360011" lon="-2.9022601"><ele>804.0</ele><time>2026-04-11T17:02:36.396Z</time></trkpt><trkpt lat="37.5360634" lon="-2.9025176"><ele>804.0</ele><time>2026-04-11T17:02:37.396Z</time></trkpt><trkpt lat="37.5361263" lon="-2.9027698"><ele>804.0</ele><time>2026-04-11T17:02:38.396Z</time></trkpt><trkpt lat="37.536185" lon="-2.9030067"><ele>801.6666666666667</ele><time>2026-04-11T17:02:39.396Z</time></trkpt><trkpt lat="37.5362418" lon="-2.903244"><ele>799.3333333333334</ele><time>2026-04-11T17:02:40.395Z</time></trkpt><trkpt lat="37.5363042" lon="-2.9034862"><ele>797.0</ele><time>2026-04-11T17:02:41.396Z</time></trkpt><trkpt lat="37.5363656" lon="-2.9037419"><ele>792.5</ele><time>2026-04-11T17:02:42.396Z</time></trkpt><trkpt lat="37.5364361" lon="-2.9040079"><ele>788.0</ele><time>2026-04-11T17:02:43.396Z</time></trkpt><trkpt lat="37.5365134" lon="-2.9042877"><ele>783.5</ele><time>2026-04-11T17:02:44.396Z</time></trkpt><trkpt lat="37.5366012" lon="-2.9045708"><ele>779.0</ele><time>2026-04-11T17:02:45.396Z</time></trkpt><trkpt lat="37.5366931" lon="-2.9048582"><ele>776.0</ele><time>2026-04-11T17:02:46.395Z</time></trkpt><trkpt lat="37.5367841" lon="-2.9051532"><ele>773.0</ele><time>2026-04-11T17:02:47.395Z</time></trkpt><trkpt lat="37.5368741" lon="-2.9054536"><ele>773.0</ele><time>2026-04-11T17:02:48.396Z</time></trkpt><trkpt lat="37.5369536" lon="-2.905742"><ele>773.0</ele><time>2026-04-11T17:02:49.396Z</time></trkpt><trkpt lat="37.5370306" lon="-2.9060213"><ele>770.0</ele><time>2026-04-11T17:02:50.396Z</time></trkpt><trkpt lat="37.5371068" lon="-2.906289"><ele>767.0</ele><time>2026-04-11T17:02:51.396Z</time></trkpt><trkpt lat="37.5371772" lon="-2.9065625"><ele>768.0</ele><time>2026-04-11T17:02:52.395Z</time></trkpt><trkpt lat="37.5372393" lon="-2.9068507"><ele>769.0</ele><time>2026-04-11T17:02:53.396Z</time></trkpt><trkpt lat="37.537287" lon="-2.9071379"><ele>769.0</ele><time>2026-04-11T17:02:54.396Z</time></trkpt><trkpt lat="37.537325" lon="-2.9074247"><ele>769.0</ele><time>2026-04-11T17:02:55.396Z</time></trkpt><trkpt lat="37.5373573" lon="-2.9077196"><ele>772.0</ele><time>2026-04-11T17:02:56.396Z</time></trkpt><trkpt lat="37.5373786" lon="-2.9080223"><ele>775.0</ele><time>2026-04-11T17:02:57.396Z</time></trkpt><trkpt lat="37.5373897" lon="-2.9083318"><ele>774.0</ele><time>2026-04-11T17:02:58.396Z</time></trkpt><trkpt lat="37.5373892" lon="-2.9086388"><ele>773.0</ele><time>2026-04-11T17:02:59.396Z</time></trkpt><trkpt lat="37.5373774" lon="-2.9089427"><ele>773.0</ele><time>2026-04-11T17:03:00.396Z</time></trkpt><trkpt lat="37.5373548" lon="-2.9092376"><ele>773.0</ele><time>2026-04-11T17:03:01.396Z</time></trkpt><trkpt lat="37.5373278" lon="-2.9095171"><ele>771.0</ele><time>2026-04-11T17:03:02.396Z</time></trkpt><trkpt lat="37.5372918" lon="-2.9097815"><ele>769.0</ele><time>2026-04-11T17:03:03.396Z</time></trkpt><trkpt lat="37.537245" lon="-2.9100453"><ele>767.0</ele><time>2026-04-11T17:03:04.395Z</time></trkpt><trkpt lat="37.5371883" lon="-2.9103162"><ele>766.5</ele><time>2026-04-11T17:03:05.396Z</time></trkpt><trkpt lat="37.5371213" lon="-2.9105976"><ele>766.0</ele><time>2026-04-11T17:03:06.396Z</time></trkpt><trkpt lat="37.5370423" lon="-2.9108866"><ele>765.0</ele><time>2026-04-11T17:03:07.396Z</time></trkpt><trkpt lat="37.5369519" lon="-2.9111759"><ele>764.0</ele><time>2026-04-11T17:03:08.396Z</time></trkpt><trkpt lat="37.5368491" lon="-2.9114639"><ele>760.5</ele><time>2026-04-11T17:03:09.396Z</time></trkpt><trkpt lat="37.5367329" lon="-2.9117457"><ele>757.0</ele><time>2026-04-11T17:03:10.396Z</time></trkpt><trkpt lat="37.5366065" lon="-2.9120239"><ele>757.0</ele><time>2026-04-11T17:03:11.396Z</time></trkpt><trkpt lat="37.5364745" lon="-2.9122992"><ele>757.0</ele><time>2026-04-11T17:03:12.396Z</time></trkpt><trkpt lat="37.5363433" lon="-2.912577"><ele>749.0</ele><time>2026-04-11T17:03:13.396Z</time></trkpt><trkpt lat="37.5362147" lon="-2.9128586"><ele>741.0</ele><time>2026-04-11T17:03:14.395Z</time></trkpt><trkpt lat="37.5360897" lon="-2.9131413"><ele>737.0</ele><time>2026-04-11T17:03:15.396Z</time></trkpt><trkpt lat="37.5359628" lon="-2.9134268"><ele>733.0</ele><time>2026-04-11T17:03:16.396Z</time></trkpt><trkpt lat="37.535838" lon="-2.9137185"><ele>733.0</ele><time>2026-04-11T17:03:17.396Z</time></trkpt><trkpt lat="37.5357092" lon="-2.9140083"><ele>733.0</ele><time>2026-04-11T17:03:18.396Z</time></trkpt><trkpt lat="37.5355774" lon="-2.9143044"><ele>732.0</ele><time>2026-04-11T17:03:19.396Z</time></trkpt><trkpt lat="37.5354458" lon="-2.9146042"><ele>731.0</ele><time>2026-04-11T17:03:20.396Z</time></trkpt><trkpt lat="37.5353129" lon="-2.9149026"><ele>736.5</ele><time>2026-04-11T17:03:21.395Z</time></trkpt><trkpt lat="37.5351764" lon="-2.915207"><ele>742.0</ele><time>2026-04-11T17:03:22.396Z</time></trkpt><trkpt lat="37.5350431" lon="-2.915506"><ele>742.0</ele><time>2026-04-11T17:03:23.396Z</time></trkpt><trkpt lat="37.5349127" lon="-2.9157985"><ele>742.0</ele><time>2026-04-11T17:03:24.396Z</time></trkpt><trkpt lat="37.5347855" lon="-2.9160785"><ele>744.0</ele><time>2026-04-11T17:03:25.396Z</time></trkpt><trkpt lat="37.5346665" lon="-2.9163484"><ele>746.0</ele><time>2026-04-11T17:03:26.396Z</time></trkpt><trkpt lat="37.5345479" lon="-2.9166123"><ele>753.0</ele><time>2026-04-11T17:03:27.396Z</time></trkpt><trkpt lat="37.5344319" lon="-2.9168788"><ele>760.0</ele><time>2026-04-11T17:03:28.396Z</time></trkpt><trkpt lat="37.534317" lon="-2.9171367"><ele>760.0</ele><time>2026-04-11T17:03:29.395Z</time></trkpt><trkpt lat="37.534208" lon="-2.9173871"><ele>760.0</ele><time>2026-04-11T17:03:30.395Z</time></trkpt><trkpt lat="37.534102" lon="-2.9176312"><ele>760.0</ele><time>2026-04-11T17:03:31.396Z</time></trkpt><trkpt lat="37.5339973" lon="-2.9178666"><ele>760.0</ele><time>2026-04-11T17:03:32.396Z</time></trkpt><trkpt lat="37.5338975" lon="-2.9180986"><ele>760.0</ele><time>2026-04-11T17:03:33.396Z</time></trkpt><trkpt lat="37.533796" lon="-2.9183282"><ele>760.0</ele><time>2026-04-11T17:03:34.396Z</time></trkpt><trkpt lat="37.5336993" lon="-2.9185529"><ele>760.0</ele><time>2026-04-11T17:03:35.395Z</time></trkpt><trkpt lat="37.5336046" lon="-2.9187714"><ele>760.0</ele><time>2026-04-11T17:03:36.396Z</time></trkpt><trkpt lat="37.5335113" lon="-2.9189933"><ele>760.0</ele><time>2026-04-11T17:03:37.396Z</time></trkpt><trkpt lat="37.5334216" lon="-2.9192153"><ele>757.0</ele><time>2026-04-11T17:03:38.396Z</time></trkpt><trkpt lat="37.5333361" lon="-2.9194481"><ele>754.0</ele><time>2026-04-11T17:03:39.395Z</time></trkpt><trkpt lat="37.5332564" lon="-2.9196894"><ele>751.0</ele><time>2026-04-11T17:03:40.396Z</time></trkpt><trkpt lat="37.5331864" lon="-2.9199387"><ele>748.6666666666667</ele><time>2026-04-11T17:03:41.395Z</time></trkpt><trkpt lat="37.5331234" lon="-2.920197"><ele>746.3333333333334</ele><time>2026-04-11T17:03:42.395Z</time></trkpt><trkpt lat="37.5330663" lon="-2.9204602"><ele>744.0</ele><time>2026-04-11T17:03:43.394Z</time></trkpt><trkpt lat="37.5330172" lon="-2.9207285"><ele>743.6666666666666</ele><time>2026-04-11T17:03:44.396Z</time></trkpt><trkpt lat="37.5329616" lon="-2.9209998"><ele>743.3333333333333</ele><time>2026-04-11T17:03:45.396Z</time></trkpt><trkpt lat="37.5329095" lon="-2.921268"><ele>743.0</ele><time>2026-04-11T17:03:46.396Z</time></trkpt><trkpt lat="37.5328591" lon="-2.9215337"><ele>742.3333333333333</ele><time>2026-04-11T17:03:47.396Z</time></trkpt><trkpt lat="37.5328075" lon="-2.9218023"><ele>741.6666666666666</ele><time>2026-04-11T17:03:48.396Z</time></trkpt><trkpt lat="37.5327674" lon="-2.9220746"><ele>741.0</ele><time>2026-04-11T17:03:49.396Z</time></trkpt><trkpt lat="37.5327355" lon="-2.9223493"><ele>742.3333333333334</ele><time>2026-04-11T17:03:50.396Z</time></trkpt><trkpt lat="37.5327187" lon="-2.9226167"><ele>743.6666666666667</ele><time>2026-04-11T17:03:51.396Z</time></trkpt><trkpt lat="37.5327155" lon="-2.9228832"><ele>745.0</ele><time>2026-04-11T17:03:52.396Z</time></trkpt><trkpt lat="37.5327143" lon="-2.9231424"><ele>745.3333333333334</ele><time>2026-04-11T17:03:53.396Z</time></trkpt><trkpt lat="37.5327486" lon="-2.9234158"><ele>745.6666666666666</ele><time>2026-04-11T17:03:54.396Z</time></trkpt><trkpt lat="37.5327865" lon="-2.9236881"><ele>746.0</ele><time>2026-04-11T17:03:55.396Z</time></trkpt><trkpt lat="37.5328334" lon="-2.9239604"><ele>743.6666666666666</ele><time>2026-04-11T17:03:56.396Z</time></trkpt><trkpt lat="37.5328937" lon="-2.9242324"><ele>741.3333333333334</ele><time>2026-04-11T17:03:57.396Z</time></trkpt><trkpt lat="37.5329707" lon="-2.9244985"><ele>739.0</ele><time>2026-04-11T17:03:58.395Z</time></trkpt><trkpt lat="37.533066" lon="-2.9247617"><ele>739.0</ele><time>2026-04-11T17:03:59.395Z</time></trkpt><trkpt lat="37.5331718" lon="-2.9250198"><ele>739.0</ele><time>2026-04-11T17:04:00.396Z</time></trkpt><trkpt lat="37.5332913" lon="-2.9252723"><ele>743.5</ele><time>2026-04-11T17:04:01.396Z</time></trkpt><trkpt lat="37.5334203" lon="-2.9255192"><ele>748.0</ele><time>2026-04-11T17:04:02.396Z</time></trkpt><trkpt lat="37.5335536" lon="-2.9257576"><ele>749.0</ele><time>2026-04-11T17:04:03.396Z</time></trkpt><trkpt lat="37.5336862" lon="-2.9259912"><ele>750.0</ele><time>2026-04-11T17:04:04.396Z</time></trkpt><trkpt lat="37.5338153" lon="-2.9262207"><ele>747.6666666666666</ele><time>2026-04-11T17:04:05.396Z</time></trkpt><trkpt lat="37.533945" lon="-2.926449"><ele>745.3333333333333</ele><time>2026-04-11T17:04:06.395Z</time></trkpt><trkpt lat="37.5340724" lon="-2.9266728"><ele>743.0</ele><time>2026-04-11T17:04:07.395Z</time></trkpt><trkpt lat="37.5342008" lon="-2.9268963"><ele>742.6666666666666</ele><time>2026-04-11T17:04:08.396Z</time></trkpt><trkpt lat="37.5343271" lon="-2.9271208"><ele>742.3333333333334</ele><time>2026-04-11T17:04:09.396Z</time></trkpt><trkpt lat="37.5344536" lon="-2.9273472"><ele>742.0</ele><time>2026-04-11T17:04:10.396Z</time></trkpt><trkpt lat="37.5345842" lon="-2.9275783"><ele>740.0</ele><time>2026-04-11T17:04:11.396Z</time></trkpt><trkpt lat="37.5347165" lon="-2.9278132"><ele>738.0</ele><time>2026-04-11T17:04:12.396Z</time></trkpt><trkpt lat="37.534853" lon="-2.928052"><ele>738.0</ele><time>2026-04-11T17:04:13.396Z</time></trkpt><trkpt lat="37.5349879" lon="-2.9282886"><ele>738.0</ele><time>2026-04-11T17:04:14.396Z</time></trkpt><trkpt lat="37.5351236" lon="-2.9285296"><ele>736.0</ele><time>2026-04-11T17:04:15.396Z</time></trkpt><trkpt lat="37.5352596" lon="-2.9287739"><ele>734.0</ele><time>2026-04-11T17:04:16.396Z</time></trkpt><trkpt lat="37.5353974" lon="-2.9290223"><ele>730.5</ele><time>2026-04-11T17:04:17.396Z</time></trkpt><trkpt lat="37.5355381" lon="-2.9292731"><ele>727.0</ele><time>2026-04-11T17:04:18.396Z</time></trkpt><trkpt lat="37.5356767" lon="-2.9295159"><ele>727.0</ele><time>2026-04-11T17:04:19.396Z</time></trkpt><trkpt lat="37.5358236" lon="-2.9297609"><ele>727.0</ele><time>2026-04-11T17:04:20.395Z</time></trkpt><trkpt lat="37.5359672" lon="-2.9300089"><ele>726.0</ele><time>2026-04-11T17:04:21.396Z</time></trkpt><trkpt lat="37.536113" lon="-2.9302621"><ele>725.0</ele><time>2026-04-11T17:04:22.396Z</time></trkpt><trkpt lat="37.5362587" lon="-2.9305173"><ele>723.5</ele><time>2026-04-11T17:04:23.396Z</time></trkpt><trkpt lat="37.5364053" lon="-2.9307735"><ele>722.0</ele><time>2026-04-11T17:04:24.396Z</time></trkpt><trkpt lat="37.536553" lon="-2.9310314"><ele>721.0</ele><time>2026-04-11T17:04:25.395Z</time></trkpt><trkpt lat="37.5366957" lon="-2.9312911"><ele>720.0</ele><time>2026-04-11T17:04:26.396Z</time></trkpt><trkpt lat="37.5368355" lon="-2.9315522"><ele>720.0</ele><time>2026-04-11T17:04:27.395Z</time></trkpt><trkpt lat="37.536981" lon="-2.9318074"><ele>720.0</ele><time>2026-04-11T17:04:28.395Z</time></trkpt><trkpt lat="37.5371249" lon="-2.9320648"><ele>717.5</ele><time>2026-04-11T17:04:29.396Z</time></trkpt><trkpt lat="37.5372681" lon="-2.9323254"><ele>715.0</ele><time>2026-04-11T17:04:30.395Z</time></trkpt><trkpt lat="37.5374094" lon="-2.9325818"><ele>714.5</ele><time>2026-04-11T17:04:31.396Z</time></trkpt><trkpt lat="37.5375535" lon="-2.9328372"><ele>714.0</ele><time>2026-04-11T17:04:32.396Z</time></trkpt><trkpt lat="37.5376956" lon="-2.9330907"><ele>714.0</ele><time>2026-04-11T17:04:33.395Z</time></trkpt><trkpt lat="37.5378368" lon="-2.9333439"><ele>714.0</ele><time>2026-04-11T17:04:34.396Z</time></trkpt><trkpt lat="37.5379768" lon="-2.9335957"><ele>712.5</ele><time>2026-04-11T17:04:35.396Z</time></trkpt><trkpt lat="37.5381142" lon="-2.9338476"><ele>711.0</ele><time>2026-04-11T17:04:36.395Z</time></trkpt><trkpt lat="37.538251" lon="-2.9340913"><ele>711.0</ele><time>2026-04-11T17:04:37.396Z</time></trkpt><trkpt lat="37.5383816" lon="-2.9343357"><ele>711.0</ele><time>2026-04-11T17:04:38.396Z</time></trkpt><trkpt lat="37.5385112" lon="-2.9345821"><ele>711.0</ele><time>2026-04-11T17:04:39.396Z</time></trkpt><trkpt lat="37.5386395" lon="-2.9348269"><ele>711.0</ele><time>2026-04-11T17:04:40.395Z</time></trkpt><trkpt lat="37.5387728" lon="-2.935069"><ele>709.0</ele><time>2026-04-11T17:04:41.396Z</time></trkpt><trkpt lat="37.538903" lon="-2.9353147"><ele>707.0</ele><time>2026-04-11T17:04:42.396Z</time></trkpt><trkpt lat="37.5390326" lon="-2.9355566"><ele>707.0</ele><time>2026-04-11T17:04:43.395Z</time></trkpt><trkpt lat="37.5391638" lon="-2.9357988"><ele>707.0</ele><time>2026-04-11T17:04:44.396Z</time></trkpt><trkpt lat="37.539301" lon="-2.936044"><ele>706.5</ele><time>2026-04-11T17:04:45.396Z</time></trkpt><trkpt lat="37.5394378" lon="-2.9362942"><ele>706.0</ele><time>2026-04-11T17:04:46.396Z</time></trkpt><trkpt lat="37.5395816" lon="-2.9365438"><ele>703.0</ele><time>2026-04-11T17:04:47.396Z</time></trkpt><trkpt lat="37.5397338" lon="-2.9367903"><ele>700.0</ele><time>2026-04-11T17:04:48.395Z</time></trkpt><trkpt lat="37.5398962" lon="-2.9370389"><ele>700.0</ele><time>2026-04-11T17:04:49.396Z</time></trkpt><trkpt lat="37.5400588" lon="-2.9372799"><ele>700.0</ele><time>2026-04-11T17:04:50.396Z</time></trkpt><trkpt lat="37.5402312" lon="-2.9375165"><ele>699.5</ele><time>2026-04-11T17:04:51.396Z</time></trkpt><trkpt lat="37.54041" lon="-2.9377516"><ele>699.0</ele><time>2026-04-11T17:04:52.396Z</time></trkpt><trkpt lat="37.5405959" lon="-2.937978"><ele>699.0</ele><time>2026-04-11T17:04:53.396Z</time></trkpt><trkpt lat="37.5407856" lon="-2.9381954"><ele>699.0</ele><time>2026-04-11T17:04:54.395Z</time></trkpt><trkpt lat="37.5409797" lon="-2.938403"><ele>698.5</ele><time>2026-04-11T17:04:55.396Z</time></trkpt><trkpt lat="37.5411789" lon="-2.9386003"><ele>698.0</ele><time>2026-04-11T17:04:56.395Z</time></trkpt><trkpt lat="37.5413852" lon="-2.9387932"><ele>696.5</ele><time>2026-04-11T17:04:57.396Z</time></trkpt><trkpt lat="37.5415949" lon="-2.9389822"><ele>695.0</ele><time>2026-04-11T17:04:58.395Z</time></trkpt><trkpt lat="37.541816" lon="-2.9391653"><ele>693.5</ele><time>2026-04-11T17:04:59.396Z</time></trkpt><trkpt lat="37.5420467" lon="-2.9393392"><ele>692.0</ele><time>2026-04-11T17:05:00.395Z</time></trkpt><trkpt lat="37.5422832" lon="-2.9395083"><ele>692.0</ele><time>2026-04-11T17:05:01.396Z</time></trkpt><trkpt lat="37.5425244" lon="-2.9396712"><ele>692.0</ele><time>2026-04-11T17:05:02.396Z</time></trkpt><trkpt lat="37.5427657" lon="-2.9398264"><ele>691.5</ele><time>2026-04-11T17:05:03.396Z</time></trkpt><trkpt lat="37.5430058" lon="-2.9399847"><ele>691.0</ele><time>2026-04-11T17:05:04.396Z</time></trkpt><trkpt lat="37.5432479" lon="-2.9401384"><ele>690.0</ele><time>2026-04-11T17:05:05.396Z</time></trkpt><trkpt lat="37.5434889" lon="-2.9402905"><ele>689.0</ele><time>2026-04-11T17:05:06.395Z</time></trkpt><trkpt lat="37.5437262" lon="-2.9404435"><ele>688.0</ele><time>2026-04-11T17:05:07.396Z</time></trkpt><trkpt lat="37.543965" lon="-2.9405899"><ele>687.0</ele><time>2026-04-11T17:05:08.396Z</time></trkpt><trkpt lat="37.5441978" lon="-2.9407383"><ele>686.5</ele><time>2026-04-11T17:05:09.396Z</time></trkpt><trkpt lat="37.544429" lon="-2.9408867"><ele>686.0</ele><time>2026-04-11T17:05:10.395Z</time></trkpt><trkpt lat="37.5446528" lon="-2.9410323"><ele>684.0</ele><time>2026-04-11T17:05:11.396Z</time></trkpt><trkpt lat="37.5448742" lon="-2.9411753"><ele>682.0</ele><time>2026-04-11T17:05:12.396Z</time></trkpt><trkpt lat="37.545084" lon="-2.9413125"><ele>682.0</ele><time>2026-04-11T17:05:13.396Z</time></trkpt><trkpt lat="37.5452856" lon="-2.9414433"><ele>682.0</ele><time>2026-04-11T17:05:14.396Z</time></trkpt><trkpt lat="37.5454825" lon="-2.9415797"><ele>680.0</ele><time>2026-04-11T17:05:15.396Z</time></trkpt><trkpt lat="37.5456775" lon="-2.9417189"><ele>678.0</ele><time>2026-04-11T17:05:16.396Z</time></trkpt><trkpt lat="37.5458681" lon="-2.9418607"><ele>676.0</ele><time>2026-04-11T17:05:17.395Z</time></trkpt><trkpt lat="37.5460638" lon="-2.9420039"><ele>676.5</ele><time>2026-04-11T17:05:18.396Z</time></trkpt><trkpt lat="37.5462578" lon="-2.9421528"><ele>677.0</ele><time>2026-04-11T17:05:19.396Z</time></trkpt><trkpt lat="37.5464521" lon="-2.9423121"><ele>677.0</ele><time>2026-04-11T17:05:20.396Z</time></trkpt><trkpt lat="37.5466502" lon="-2.9424772"><ele>677.0</ele><time>2026-04-11T17:05:21.396Z</time></trkpt><trkpt lat="37.5468457" lon="-2.9426496"><ele>676.5</ele><time>2026-04-11T17:05:22.395Z</time></trkpt><trkpt lat="37.547045" lon="-2.9428326"><ele>676.0</ele><time>2026-04-11T17:05:23.396Z</time></trkpt><trkpt lat="37.5472444" lon="-2.9430275"><ele>676.0</ele><time>2026-04-11T17:05:24.396Z</time></trkpt><trkpt lat="37.5474414" lon="-2.9432358"><ele>676.0</ele><time>2026-04-11T17:05:25.396Z</time></trkpt><trkpt lat="37.5476384" lon="-2.9434529"><ele>675.0</ele><time>2026-04-11T17:05:26.396Z</time></trkpt><trkpt lat="37.54783" lon="-2.9436709"><ele>674.0</ele><time>2026-04-11T17:05:27.395Z</time></trkpt><trkpt lat="37.5480227" lon="-2.9438873"><ele>674.0</ele><time>2026-04-11T17:05:28.395Z</time></trkpt><trkpt lat="37.5482167" lon="-2.9441015"><ele>674.0</ele><time>2026-04-11T17:05:29.396Z</time></trkpt><trkpt lat="37.5484072" lon="-2.9443144"><ele>671.5</ele><time>2026-04-11T17:05:30.396Z</time></trkpt><trkpt lat="37.5485949" lon="-2.9445271"><ele>669.0</ele><time>2026-04-11T17:05:31.396Z</time></trkpt><trkpt lat="37.5487864" lon="-2.9447359"><ele>668.0</ele><time>2026-04-11T17:05:32.396Z</time></trkpt><trkpt lat="37.548973" lon="-2.9449457"><ele>667.0</ele><time>2026-04-11T17:05:33.396Z</time></trkpt><trkpt lat="37.5491582" lon="-2.9451535"><ele>665.0</ele><time>2026-04-11T17:05:34.396Z</time></trkpt><trkpt lat="37.5493374" lon="-2.9453572"><ele>663.0</ele><time>2026-04-11T17:05:35.396Z</time></trkpt><trkpt lat="37.5495126" lon="-2.9455629"><ele>662.0</ele><time>2026-04-11T17:05:36.396Z</time></trkpt><trkpt lat="37.5496857" lon="-2.9457725"><ele>661.0</ele><time>2026-04-11T17:05:37.396Z</time></trkpt><trkpt lat="37.549855" lon="-2.945988"><ele>659.0</ele><time>2026-04-11T17:05:38.396Z</time></trkpt><trkpt lat="37.5500207" lon="-2.9462218"><ele>657.0</ele><time>2026-04-11T17:05:39.396Z</time></trkpt><trkpt lat="37.5501693" lon="-2.9464773"><ele>654.5</ele><time>2026-04-11T17:05:40.396Z</time></trkpt><trkpt lat="37.550304" lon="-2.9467469"><ele>652.0</ele><time>2026-04-11T17:05:41.395Z</time></trkpt><trkpt lat="37.5504248" lon="-2.9470227"><ele>652.0</ele><time>2026-04-11T17:05:42.396Z</time></trkpt><trkpt lat="37.5505387" lon="-2.9472987"><ele>652.0</ele><time>2026-04-11T17:05:43.396Z</time></trkpt><trkpt lat="37.5506522" lon="-2.9475785"><ele>652.5</ele><time>2026-04-11T17:05:44.396Z</time></trkpt><trkpt lat="37.5507698" lon="-2.9478555"><ele>653.0</ele><time>2026-04-11T17:05:45.396Z</time></trkpt><trkpt lat="37.5508894" lon="-2.9481293"><ele>652.5</ele><time>2026-04-11T17:05:46.396Z</time></trkpt><trkpt lat="37.55102" lon="-2.9484007"><ele>652.0</ele><time>2026-04-11T17:05:47.396Z</time></trkpt><trkpt lat="37.5511573" lon="-2.9486755"><ele>652.0</ele><time>2026-04-11T17:05:48.395Z</time></trkpt><trkpt lat="37.5513058" lon="-2.9489479"><ele>652.0</ele><time>2026-04-11T17:05:49.396Z</time></trkpt><trkpt lat="37.5514643" lon="-2.9492183"><ele>652.0</ele><time>2026-04-11T17:05:50.395Z</time></trkpt><trkpt lat="37.5516367" lon="-2.9494793"><ele>652.0</ele><time>2026-04-11T17:05:51.396Z</time></trkpt><trkpt lat="37.5518166" lon="-2.9497331"><ele>652.0</ele><time>2026-04-11T17:05:52.396Z</time></trkpt><trkpt lat="37.5520061" lon="-2.9499726"><ele>652.0</ele><time>2026-04-11T17:05:53.395Z</time></trkpt><trkpt lat="37.5522005" lon="-2.9502076"><ele>654.0</ele><time>2026-04-11T17:05:54.396Z</time></trkpt><trkpt lat="37.5524008" lon="-2.9504356"><ele>656.0</ele><time>2026-04-11T17:05:55.396Z</time></trkpt><trkpt lat="37.5526105" lon="-2.9506481"><ele>656.0</ele><time>2026-04-11T17:05:56.395Z</time></trkpt><trkpt lat="37.5528216" lon="-2.9508469"><ele>656.0</ele><time>2026-04-11T17:05:57.395Z</time></trkpt><trkpt lat="37.5530392" lon="-2.9510313"><ele>655.0</ele><time>2026-04-11T17:05:58.396Z</time></trkpt><trkpt lat="37.5532572" lon="-2.9512024"><ele>654.0</ele><time>2026-04-11T17:05:59.396Z</time></trkpt><trkpt lat="37.5534738" lon="-2.9513597"><ele>654.0</ele><time>2026-04-11T17:06:00.396Z</time></trkpt><trkpt lat="37.5536894" lon="-2.9515111"><ele>654.0</ele><time>2026-04-11T17:06:01.396Z</time></trkpt><trkpt lat="37.5539029" lon="-2.9516547"><ele>652.5</ele><time>2026-04-11T17:06:02.396Z</time></trkpt><trkpt lat="37.5541127" lon="-2.9517954"><ele>651.0</ele><time>2026-04-11T17:06:03.396Z</time></trkpt><trkpt lat="37.5543204" lon="-2.9519313"><ele>651.0</ele><time>2026-04-11T17:06:04.395Z</time></trkpt><trkpt lat="37.554524" lon="-2.9520691"><ele>651.0</ele><time>2026-04-11T17:06:05.396Z</time></trkpt><trkpt lat="37.5547167" lon="-2.9522018"><ele>652.6666666666666</ele><time>2026-04-11T17:06:06.395Z</time></trkpt><trkpt lat="37.5549034" lon="-2.9523313"><ele>654.3333333333333</ele><time>2026-04-11T17:06:07.396Z</time></trkpt><trkpt lat="37.55509" lon="-2.9524584"><ele>656.0</ele><time>2026-04-11T17:06:08.396Z</time></trkpt><trkpt lat="37.5552745" lon="-2.9525858"><ele>652.3333333333333</ele><time>2026-04-11T17:06:09.395Z</time></trkpt><trkpt lat="37.5554571" lon="-2.9527078"><ele>648.6666666666666</ele><time>2026-04-11T17:06:10.396Z</time></trkpt><trkpt lat="37.5556263" lon="-2.9528231"><ele>645.0</ele><time>2026-04-11T17:06:11.396Z</time></trkpt><trkpt lat="37.5557903" lon="-2.9529344"><ele>645.0</ele><time>2026-04-11T17:06:12.396Z</time></trkpt><trkpt lat="37.5559444" lon="-2.9530405"><ele>645.0</ele><time>2026-04-11T17:06:13.395Z</time></trkpt><trkpt lat="37.5560831" lon="-2.9531325"><ele>645.0</ele><time>2026-04-11T17:06:14.396Z</time></trkpt><trkpt lat="37.5562115" lon="-2.9532209"><ele>645.75</ele><time>2026-04-11T17:06:15.396Z</time></trkpt><trkpt lat="37.5563351" lon="-2.953302"><ele>646.5</ele><time>2026-04-11T17:06:16.396Z</time></trkpt><trkpt lat="37.5564532" lon="-2.9533799"><ele>647.25</ele><time>2026-04-11T17:06:17.396Z</time></trkpt><trkpt lat="37.5565754" lon="-2.9534518"><ele>648.0</ele><time>2026-04-11T17:06:18.396Z</time></trkpt><trkpt lat="37.5566982" lon="-2.9535172"><ele>643.25</ele><time>2026-04-11T17:06:19.395Z</time></trkpt><trkpt lat="37.5568197" lon="-2.9535731"><ele>638.5</ele><time>2026-04-11T17:06:20.396Z</time></trkpt><trkpt lat="37.5569407" lon="-2.9536151"><ele>633.75</ele><time>2026-04-11T17:06:21.395Z</time></trkpt><trkpt lat="37.5570567" lon="-2.9536427"><ele>629.0</ele><time>2026-04-11T17:06:22.396Z</time></trkpt><trkpt lat="37.5571717" lon="-2.9536564"><ele>629.0</ele><time>2026-04-11T17:06:23.396Z</time></trkpt><trkpt lat="37.5572839" lon="-2.9536527"><ele>629.0</ele><time>2026-04-11T17:06:24.396Z</time></trkpt><trkpt lat="37.5573886" lon="-2.953638"><ele>629.0</ele><time>2026-04-11T17:06:25.395Z</time></trkpt><trkpt lat="37.5574971" lon="-2.9536118"><ele>629.0</ele><time>2026-04-11T17:06:26.396Z</time></trkpt><trkpt lat="37.5575967" lon="-2.9535769"><ele>629.0</ele><time>2026-04-11T17:06:27.395Z</time></trkpt><trkpt lat="37.5576933" lon="-2.9535302"><ele>629.0</ele><time>2026-04-11T17:06:28.396Z</time></trkpt><trkpt lat="37.5577824" lon="-2.9534757"><ele>629.0</ele><time>2026-04-11T17:06:29.396Z</time></trkpt><trkpt lat="37.5578629" lon="-2.9534207"><ele>629.0</ele><time>2026-04-11T17:06:30.396Z</time></trkpt><trkpt lat="37.5579504" lon="-2.9533703"><ele>629.0</ele><time>2026-04-11T17:06:31.396Z</time></trkpt><trkpt lat="37.5580318" lon="-2.9533316"><ele>629.0</ele><time>2026-04-11T17:06:32.396Z</time></trkpt><trkpt lat="37.5581043" lon="-2.9532964"><ele>628.0</ele><time>2026-04-11T17:06:33.395Z</time></trkpt><trkpt lat="37.5582188" lon="-2.9532764"><ele>627.0</ele><time>2026-04-11T17:06:35.396Z</time></trkpt><trkpt lat="37.5583322" lon="-2.9533311"><ele>626.0</ele><time>2026-04-11T17:06:37.396Z</time></trkpt><trkpt lat="37.5583912" lon="-2.9533593"><ele>625.0</ele><time>2026-04-11T17:06:38.396Z</time></trkpt><trkpt lat="37.5584521" lon="-2.953388"><ele>624.0</ele><time>2026-04-11T17:06:39.395Z</time></trkpt><trkpt lat="37.5585684" lon="-2.9534486"><ele>624.0</ele><time>2026-04-11T17:06:41.395Z</time></trkpt><trkpt lat="37.5586681" lon="-2.9535023"><ele>624.0</ele><time>2026-04-11T17:06:43.396Z</time></trkpt><trkpt lat="37.5587666" lon="-2.9535542"><ele>624.0</ele><time>2026-04-11T17:06:45.396Z</time></trkpt><trkpt lat="37.5588597" lon="-2.9536048"><ele>624.0</ele><time>2026-04-11T17:06:47.396Z</time></trkpt><trkpt lat="37.5589493" lon="-2.9536516"><ele>624.0</ele><time>2026-04-11T17:06:49.396Z</time></trkpt><trkpt lat="37.5590446" lon="-2.9536991"><ele>625.25</ele><time>2026-04-11T17:06:51.396Z</time></trkpt><trkpt lat="37.5591485" lon="-2.9537542"><ele>626.5</ele><time>2026-04-11T17:06:53.396Z</time></trkpt><trkpt lat="37.5593294" lon="-2.9538484"><ele>627.75</ele><time>2026-04-11T17:06:56.395Z</time></trkpt><trkpt lat="37.5594007" lon="-2.9538808"><ele>629.0</ele><time>2026-04-11T17:06:57.395Z</time></trkpt><trkpt lat="37.5594796" lon="-2.9539208"><ele>628.8333333333333</ele><time>2026-04-11T17:06:58.395Z</time></trkpt><trkpt lat="37.5595592" lon="-2.9539578"><ele>628.6666666666666</ele><time>2026-04-11T17:06:59.396Z</time></trkpt><trkpt lat="37.5596406" lon="-2.9539966"><ele>628.5</ele><time>2026-04-11T17:07:00.396Z</time></trkpt><trkpt lat="37.5597245" lon="-2.9540402"><ele>628.3333333333334</ele><time>2026-04-11T17:07:01.396Z</time></trkpt><trkpt lat="37.5598058" lon="-2.954083"><ele>628.1666666666667</ele><time>2026-04-11T17:07:02.395Z</time></trkpt><trkpt lat="37.5598882" lon="-2.9541226"><ele>628.0</ele><time>2026-04-11T17:07:03.396Z</time></trkpt><trkpt lat="37.5599684" lon="-2.9541654"><ele>625.4</ele><time>2026-04-11T17:07:04.395Z</time></trkpt><trkpt lat="37.5600533" lon="-2.9542084"><ele>622.8</ele><time>2026-04-11T17:07:05.396Z</time></trkpt><trkpt lat="37.5601371" lon="-2.9542513"><ele>620.2</ele><time>2026-04-11T17:07:06.396Z</time></trkpt><trkpt lat="37.5602209" lon="-2.9542897"><ele>617.6</ele><time>2026-04-11T17:07:07.396Z</time></trkpt><trkpt lat="37.5603056" lon="-2.9543307"><ele>615.0</ele><time>2026-04-11T17:07:08.396Z</time></trkpt><trkpt lat="37.5603881" lon="-2.9543739"><ele>614.8333333333334</ele><time>2026-04-11T17:07:09.396Z</time></trkpt><trkpt lat="37.5604681" lon="-2.9544126"><ele>614.6666666666666</ele><time>2026-04-11T17:07:10.395Z</time></trkpt><trkpt lat="37.5605491" lon="-2.9544495"><ele>614.5</ele><time>2026-04-11T17:07:11.396Z</time></trkpt><trkpt lat="37.5606318" lon="-2.9544808"><ele>614.3333333333333</ele><time>2026-04-11T17:07:12.396Z</time></trkpt><trkpt lat="37.5607117" lon="-2.9545161"><ele>614.1666666666666</ele><time>2026-04-11T17:07:13.396Z</time></trkpt><trkpt lat="37.5607911" lon="-2.95455"><ele>614.0</ele><time>2026-04-11T17:07:14.396Z</time></trkpt><trkpt lat="37.5608677" lon="-2.9545896"><ele>614.0</ele><time>2026-04-11T17:07:15.396Z</time></trkpt><trkpt lat="37.5609482" lon="-2.9546261"><ele>614.0</ele><time>2026-04-11T17:07:16.396Z</time></trkpt><trkpt lat="37.5610259" lon="-2.954665"><ele>614.0</ele><time>2026-04-11T17:07:17.396Z</time></trkpt><trkpt lat="37.5611012" lon="-2.9547041"><ele>614.0</ele><time>2026-04-11T17:07:18.396Z</time></trkpt><trkpt lat="37.5611772" lon="-2.9547418"><ele>614.0</ele><time>2026-04-11T17:07:19.396Z</time></trkpt><trkpt lat="37.5612539" lon="-2.9547785"><ele>614.0</ele><time>2026-04-11T17:07:20.396Z</time></trkpt><trkpt lat="37.5613298" lon="-2.9548146"><ele>617.25</ele><time>2026-04-11T17:07:21.396Z</time></trkpt><trkpt lat="37.5614067" lon="-2.9548535"><ele>620.5</ele><time>2026-04-11T17:07:22.396Z</time></trkpt><trkpt lat="37.5615554" lon="-2.9549312"><ele>623.75</ele><time>2026-04-11T17:07:24.396Z</time></trkpt><trkpt lat="37.5617164" lon="-2.9549831"><ele>627.0</ele><time>2026-04-11T17:07:26.396Z</time></trkpt><trkpt lat="37.5618017" lon="-2.9549941"><ele>627.0</ele><time>2026-04-11T17:07:27.396Z</time></trkpt><trkpt lat="37.5618804" lon="-2.9549867"><ele>627.0</ele><time>2026-04-11T17:07:28.396Z</time></trkpt><trkpt lat="37.5619602" lon="-2.9549609"><ele>627.0</ele><time>2026-04-11T17:07:29.396Z</time></trkpt><trkpt lat="37.5620343" lon="-2.9549263"><ele>627.0</ele><time>2026-04-11T17:07:30.395Z</time></trkpt><trkpt lat="37.5621045" lon="-2.9548765"><ele>627.0</ele><time>2026-04-11T17:07:31.396Z</time></trkpt><trkpt lat="37.5621667" lon="-2.9548094"><ele>627.0</ele><time>2026-04-11T17:07:32.396Z</time></trkpt><trkpt lat="37.5622193" lon="-2.9547322"><ele>631.6666666666666</ele><time>2026-04-11T17:07:33.396Z</time></trkpt><trkpt lat="37.5622602" lon="-2.9546523"><ele>636.3333333333334</ele><time>2026-04-11T17:07:34.395Z</time></trkpt><trkpt lat="37.5622913" lon="-2.9545799"><ele>641.0</ele><time>2026-04-11T17:07:35.396Z</time></trkpt><trkpt lat="37.5623312" lon="-2.9544624"><ele>645.6666666666667</ele><time>2026-04-11T17:07:37.395Z</time></trkpt><trkpt lat="37.5623263" lon="-2.9543765"><ele>650.3333333333334</ele><time>2026-04-11T17:07:39.396Z</time></trkpt><trkpt lat="37.562295" lon="-2.9542987"><ele>655.0</ele><time>2026-04-11T17:07:41.395Z</time></trkpt><trkpt lat="37.5622442" lon="-2.9542252"><ele>655.0</ele><time>2026-04-11T17:07:43.396Z</time></trkpt><trkpt lat="37.5622126" lon="-2.9541546"><ele>655.0</ele><time>2026-04-11T17:08:26.396Z</time></trkpt><trkpt lat="37.5622383" lon="-2.954231"><ele>655.0</ele><time>2026-04-11T17:09:12.48Z</time></trkpt><trkpt lat="37.5622896" lon="-2.9542877"><ele>655.0</ele><time>2026-04-11T17:12:04.395Z</time></trkpt><trkpt lat="37.5623103" lon="-2.9543703"><ele>655.0</ele><time>2026-04-11T17:12:15.395Z</time></trkpt><trkpt lat="37.562368" lon="-2.9544168"><ele>655.0</ele><time>2026-04-11T17:12:20.395Z</time></trkpt><trkpt lat="37.5624269" lon="-2.9542331"><ele>653.6</ele><time>2026-04-11T17:12:22.394Z</time></trkpt><trkpt lat="37.5624868" lon="-2.9540814"><ele>652.2</ele><time>2026-04-11T17:12:24.394Z</time></trkpt><trkpt lat="37.5625259" lon="-2.9539911"><ele>650.8</ele><time>2026-04-11T17:12:25.395Z</time></trkpt><trkpt lat="37.5625756" lon="-2.9538962"><ele>649.4</ele><time>2026-04-11T17:12:26.395Z</time></trkpt><trkpt lat="37.5626123" lon="-2.9537849"><ele>648.0</ele><time>2026-04-11T17:12:27.395Z</time></trkpt><trkpt lat="37.5626595" lon="-2.9536787"><ele>648.0</ele><time>2026-04-11T17:12:28.395Z</time></trkpt><trkpt lat="37.5627128" lon="-2.9535664"><ele>648.0</ele><time>2026-04-11T17:12:29.394Z</time></trkpt><trkpt lat="37.5627772" lon="-2.9534481"><ele>648.0</ele><time>2026-04-11T17:12:30.395Z</time></trkpt><trkpt lat="37.5628547" lon="-2.9533218"><ele>648.0</ele><time>2026-04-11T17:12:31.395Z</time></trkpt><trkpt lat="37.5629284" lon="-2.9531953"><ele>650.75</ele><time>2026-04-11T17:12:32.395Z</time></trkpt><trkpt lat="37.5630041" lon="-2.953066"><ele>653.5</ele><time>2026-04-11T17:12:33.395Z</time></trkpt><trkpt lat="37.5630808" lon="-2.9529313"><ele>656.25</ele><time>2026-04-11T17:12:34.395Z</time></trkpt><trkpt lat="37.5631678" lon="-2.9528057"><ele>659.0</ele><time>2026-04-11T17:12:35.395Z</time></trkpt><trkpt lat="37.5632532" lon="-2.9526811"><ele>659.0</ele><time>2026-04-11T17:12:36.395Z</time></trkpt><trkpt lat="37.5633436" lon="-2.9525556"><ele>659.0</ele><time>2026-04-11T17:12:37.395Z</time></trkpt><trkpt lat="37.5634288" lon="-2.9524293"><ele>659.0</ele><time>2026-04-11T17:12:38.395Z</time></trkpt><trkpt lat="37.563524" lon="-2.9523042"><ele>659.0</ele><time>2026-04-11T17:12:39.395Z</time></trkpt><trkpt lat="37.5636203" lon="-2.95218"><ele>662.75</ele><time>2026-04-11T17:12:40.395Z</time></trkpt><trkpt lat="37.5637225" lon="-2.9520571"><ele>666.5</ele><time>2026-04-11T17:12:41.395Z</time></trkpt><trkpt lat="37.5638345" lon="-2.9519312"><ele>670.25</ele><time>2026-04-11T17:12:42.395Z</time></trkpt><trkpt lat="37.56394" lon="-2.9518201"><ele>674.0</ele><time>2026-04-11T17:12:43.395Z</time></trkpt><trkpt lat="37.5640561" lon="-2.951709"><ele>671.3333333333333</ele><time>2026-04-11T17:12:44.395Z</time></trkpt><trkpt lat="37.564179" lon="-2.9516027"><ele>668.6666666666666</ele><time>2026-04-11T17:12:45.394Z</time></trkpt><trkpt lat="37.5643107" lon="-2.9515058"><ele>666.0</ele><time>2026-04-11T17:12:46.394Z</time></trkpt><trkpt lat="37.5644561" lon="-2.9514156"><ele>670.0</ele><time>2026-04-11T17:12:47.394Z</time></trkpt><trkpt lat="37.5645909" lon="-2.9513446"><ele>674.0</ele><time>2026-04-11T17:12:48.395Z</time></trkpt><trkpt lat="37.5647403" lon="-2.9512796"><ele>678.0</ele><time>2026-04-11T17:12:49.395Z</time></trkpt><trkpt lat="37.5648945" lon="-2.9512226"><ele>678.0</ele><time>2026-04-11T17:12:50.394Z</time></trkpt><trkpt lat="37.5650496" lon="-2.9511748"><ele>678.0</ele><time>2026-04-11T17:12:51.395Z</time></trkpt><trkpt lat="37.5652129" lon="-2.9511286"><ele>678.0</ele><time>2026-04-11T17:12:52.395Z</time></trkpt><trkpt lat="37.5653732" lon="-2.9510837"><ele>683.0</ele><time>2026-04-11T17:12:53.395Z</time></trkpt><trkpt lat="37.5655379" lon="-2.9510385"><ele>688.0</ele><time>2026-04-11T17:12:54.394Z</time></trkpt><trkpt lat="37.5657132" lon="-2.9509917"><ele>693.0</ele><time>2026-04-11T17:12:55.394Z</time></trkpt><trkpt lat="37.565872" lon="-2.9509497"><ele>693.0</ele><time>2026-04-11T17:12:56.395Z</time></trkpt><trkpt lat="37.5660427" lon="-2.9509045"><ele>693.0</ele><time>2026-04-11T17:12:57.395Z</time></trkpt><trkpt lat="37.5662268" lon="-2.9508592"><ele>693.0</ele><time>2026-04-11T17:12:58.394Z</time></trkpt><trkpt lat="37.5663887" lon="-2.9508207"><ele>689.0</ele><time>2026-04-11T17:12:59.395Z</time></trkpt><trkpt lat="37.5665694" lon="-2.9507899"><ele>685.0</ele><time>2026-04-11T17:13:00.395Z</time></trkpt><trkpt lat="37.5667486" lon="-2.9507721"><ele>681.0</ele><time>2026-04-11T17:13:01.394Z</time></trkpt><trkpt lat="37.5669332" lon="-2.9507675"><ele>683.0</ele><time>2026-04-11T17:13:02.394Z</time></trkpt><trkpt lat="37.5671177" lon="-2.950782"><ele>685.0</ele><time>2026-04-11T17:13:03.395Z</time></trkpt><trkpt lat="37.5673009" lon="-2.9508152"><ele>687.0</ele><time>2026-04-11T17:13:04.395Z</time></trkpt><trkpt lat="37.5674848" lon="-2.9508683"><ele>689.0</ele><time>2026-04-11T17:13:05.394Z</time></trkpt><trkpt lat="37.5676666" lon="-2.9509437"><ele>691.0</ele><time>2026-04-11T17:13:06.395Z</time></trkpt><trkpt lat="37.5678416" lon="-2.9510354"><ele>693.0</ele><time>2026-04-11T17:13:07.395Z</time></trkpt><trkpt lat="37.5680142" lon="-2.9511469"><ele>695.6666666666666</ele><time>2026-04-11T17:13:08.395Z</time></trkpt><trkpt lat="37.5681808" lon="-2.9512745"><ele>698.3333333333333</ele><time>2026-04-11T17:13:09.394Z</time></trkpt><trkpt lat="37.5683398" lon="-2.951421"><ele>701.0</ele><time>2026-04-11T17:13:10.395Z</time></trkpt><trkpt lat="37.5684978" lon="-2.951592"><ele>701.6666666666666</ele><time>2026-04-11T17:13:11.395Z</time></trkpt><trkpt lat="37.5686311" lon="-2.9517585"><ele>702.3333333333334</ele><time>2026-04-11T17:13:12.395Z</time></trkpt><trkpt lat="37.5687699" lon="-2.9519417"><ele>703.0</ele><time>2026-04-11T17:13:13.394Z</time></trkpt><trkpt lat="37.5689132" lon="-2.9521397"><ele>705.0</ele><time>2026-04-11T17:13:14.394Z</time></trkpt><trkpt lat="37.5690429" lon="-2.95232"><ele>707.0</ele><time>2026-04-11T17:13:15.395Z</time></trkpt><trkpt lat="37.5691797" lon="-2.9525096"><ele>709.0</ele><time>2026-04-11T17:13:16.395Z</time></trkpt><trkpt lat="37.5693151" lon="-2.9526987"><ele>708.3333333333334</ele><time>2026-04-11T17:13:17.395Z</time></trkpt><trkpt lat="37.569451" lon="-2.952888"><ele>707.6666666666666</ele><time>2026-04-11T17:13:18.395Z</time></trkpt><trkpt lat="37.5695883" lon="-2.9530781"><ele>707.0</ele><time>2026-04-11T17:13:19.395Z</time></trkpt><trkpt lat="37.5697287" lon="-2.9532603"><ele>711.3333333333333</ele><time>2026-04-11T17:13:20.394Z</time></trkpt><trkpt lat="37.5698829" lon="-2.9534269"><ele>715.6666666666666</ele><time>2026-04-11T17:13:21.395Z</time></trkpt><trkpt lat="37.5700546" lon="-2.953568"><ele>720.0</ele><time>2026-04-11T17:13:22.395Z</time></trkpt><trkpt lat="37.5702408" lon="-2.9536712"><ele>716.5</ele><time>2026-04-11T17:13:23.395Z</time></trkpt><trkpt lat="37.5704453" lon="-2.9537363"><ele>713.0</ele><time>2026-04-11T17:13:24.395Z</time></trkpt><trkpt lat="37.5707571" lon="-2.9537858"><ele>713.0</ele><time>2026-04-11T17:13:26.32Z</time></trkpt><trkpt lat="37.5710906" lon="-2.9538107"><ele>713.0</ele><time>2026-04-11T17:13:27.392Z</time></trkpt><trkpt lat="37.5712956" lon="-2.9538241"><ele>714.0</ele><time>2026-04-11T17:13:28.39Z</time></trkpt><trkpt lat="37.5715205" lon="-2.9538351"><ele>715.0</ele><time>2026-04-11T17:13:29.387Z</time></trkpt><trkpt lat="37.5717602" lon="-2.9538409"><ele>715.0</ele><time>2026-04-11T17:13:30.397Z</time></trkpt><trkpt lat="37.5719795" lon="-2.9538329"><ele>715.0</ele><time>2026-04-11T17:13:31.401Z</time></trkpt><trkpt lat="37.5722221" lon="-2.9538003"><ele>717.0</ele><time>2026-04-11T17:13:32.401Z</time></trkpt><trkpt lat="37.5724375" lon="-2.9537513"><ele>719.0</ele><time>2026-04-11T17:13:33.401Z</time></trkpt><trkpt lat="37.5726688" lon="-2.9536932"><ele>715.6666666666666</ele><time>2026-04-11T17:13:34.401Z</time></trkpt><trkpt lat="37.572897" lon="-2.9536332"><ele>712.3333333333334</ele><time>2026-04-11T17:13:35.401Z</time></trkpt><trkpt lat="37.5731102" lon="-2.9535878"><ele>709.0</ele><time>2026-04-11T17:13:36.401Z</time></trkpt><trkpt lat="37.5733523" lon="-2.9535595"><ele>709.0</ele><time>2026-04-11T17:13:37.401Z</time></trkpt><trkpt lat="37.5735767" lon="-2.9535642"><ele>709.0</ele><time>2026-04-11T17:13:38.401Z</time></trkpt><trkpt lat="37.5738234" lon="-2.953609"><ele>710.5</ele><time>2026-04-11T17:13:39.401Z</time></trkpt><trkpt lat="37.5740745" lon="-2.9536977"><ele>712.0</ele><time>2026-04-11T17:13:40.401Z</time></trkpt><trkpt lat="37.574264" lon="-2.953811"><ele>712.0</ele><time>2026-04-11T17:13:41.401Z</time></trkpt><trkpt lat="37.5744782" lon="-2.9539451"><ele>712.0</ele><time>2026-04-11T17:13:42.401Z</time></trkpt><trkpt lat="37.5747019" lon="-2.9540963"><ele>715.6666666666667</ele><time>2026-04-11T17:13:43.401Z</time></trkpt><trkpt lat="37.5749006" lon="-2.9542101"><ele>719.3333333333334</ele><time>2026-04-11T17:13:44.4Z</time></trkpt><trkpt lat="37.5751097" lon="-2.9543003"><ele>723.0</ele><time>2026-04-11T17:13:45.4Z</time></trkpt><trkpt lat="37.5753327" lon="-2.9543499"><ele>724.3333333333334</ele><time>2026-04-11T17:13:46.401Z</time></trkpt><trkpt lat="37.5755373" lon="-2.9543608"><ele>725.6666666666667</ele><time>2026-04-11T17:13:47.401Z</time></trkpt><trkpt lat="37.5757717" lon="-2.9543734"><ele>727.0</ele><time>2026-04-11T17:13:48.401Z</time></trkpt><trkpt lat="37.5759717" lon="-2.9543581"><ele>725.0</ele><time>2026-04-11T17:13:49.401Z</time></trkpt><trkpt lat="37.5762022" lon="-2.9543536"><ele>723.0</ele><time>2026-04-11T17:13:50.401Z</time></trkpt><trkpt lat="37.5764724" lon="-2.9543146"><ele>724.0</ele><time>2026-04-11T17:13:51.4Z</time></trkpt><trkpt lat="37.5766725" lon="-2.954185"><ele>725.0</ele><time>2026-04-11T17:13:52.401Z</time></trkpt><trkpt lat="37.5769007" lon="-2.9541891"><ele>723.5</ele><time>2026-04-11T17:13:53.4Z</time></trkpt><trkpt lat="37.5771376" lon="-2.9542176"><ele>722.0</ele><time>2026-04-11T17:13:54.401Z</time></trkpt><trkpt lat="37.5773673" lon="-2.9542511"><ele>722.0</ele><time>2026-04-11T17:13:55.401Z</time></trkpt><trkpt lat="37.5776027" lon="-2.9542685"><ele>722.0</ele><time>2026-04-11T17:13:56.401Z</time></trkpt><trkpt lat="37.5778288" lon="-2.9542482"><ele>726.5</ele><time>2026-04-11T17:13:57.401Z</time></trkpt><trkpt lat="37.5780494" lon="-2.9541741"><ele>731.0</ele><time>2026-04-11T17:13:58.401Z</time></trkpt><trkpt lat="37.5782594" lon="-2.9540712"><ele>731.0</ele><time>2026-04-11T17:13:59.401Z</time></trkpt><trkpt lat="37.5784596" lon="-2.9539499"><ele>731.0</ele><time>2026-04-11T17:14:00.401Z</time></trkpt><trkpt lat="37.5785966" lon="-2.9537443"><ele>731.0</ele><time>2026-04-11T17:14:01.401Z</time></trkpt><trkpt lat="37.5787641" lon="-2.9535513"><ele>732.3333333333333</ele><time>2026-04-11T17:14:02.401Z</time></trkpt><trkpt lat="37.5789222" lon="-2.9534103"><ele>733.6666666666666</ele><time>2026-04-11T17:14:03.401Z</time></trkpt><trkpt lat="37.5791132" lon="-2.9532852"><ele>735.0</ele><time>2026-04-11T17:14:04.401Z</time></trkpt><trkpt lat="37.5793105" lon="-2.9532061"><ele>741.0</ele><time>2026-04-11T17:14:05.401Z</time></trkpt><trkpt lat="37.5795178" lon="-2.9531732"><ele>747.0</ele><time>2026-04-11T17:14:06.4Z</time></trkpt><trkpt lat="37.5797327" lon="-2.9531915"><ele>753.0</ele><time>2026-04-11T17:14:07.401Z</time></trkpt><trkpt lat="37.5799284" lon="-2.9532467"><ele>753.0</ele><time>2026-04-11T17:14:08.401Z</time></trkpt><trkpt lat="37.580119" lon="-2.9533488"><ele>753.0</ele><time>2026-04-11T17:14:09.401Z</time></trkpt><trkpt lat="37.5802929" lon="-2.9534778"><ele>753.0</ele><time>2026-04-11T17:14:10.4Z</time></trkpt><trkpt lat="37.5804671" lon="-2.9536231"><ele>758.0</ele><time>2026-04-11T17:14:11.401Z</time></trkpt><trkpt lat="37.5806383" lon="-2.9537588"><ele>763.0</ele><time>2026-04-11T17:14:12.401Z</time></trkpt><trkpt lat="37.5808175" lon="-2.953879"><ele>768.0</ele><time>2026-04-11T17:14:13.401Z</time></trkpt><trkpt lat="37.5810056" lon="-2.9539728"><ele>769.3333333333333</ele><time>2026-04-11T17:14:14.401Z</time></trkpt><trkpt lat="37.5812138" lon="-2.9540366"><ele>770.6666666666666</ele><time>2026-04-11T17:14:15.401Z</time></trkpt><trkpt lat="37.5814025" lon="-2.9540567"><ele>772.0</ele><time>2026-04-11T17:14:16.401Z</time></trkpt><trkpt lat="37.581607" lon="-2.9540397"><ele>772.0</ele><time>2026-04-11T17:14:17.401Z</time></trkpt><trkpt lat="37.5818149" lon="-2.9539836"><ele>772.0</ele><time>2026-04-11T17:14:18.4Z</time></trkpt><trkpt lat="37.5819973" lon="-2.9538955"><ele>772.0</ele><time>2026-04-11T17:14:19.401Z</time></trkpt><trkpt lat="37.5821804" lon="-2.9537649"><ele>772.0</ele><time>2026-04-11T17:14:20.401Z</time></trkpt><trkpt lat="37.5823335" lon="-2.9536105"><ele>772.0</ele><time>2026-04-11T17:14:21.401Z</time></trkpt><trkpt lat="37.5824773" lon="-2.9534112"><ele>772.0</ele><time>2026-04-11T17:14:22.4Z</time></trkpt><trkpt lat="37.5825943" lon="-2.9531945"><ele>772.0</ele><time>2026-04-11T17:14:23.401Z</time></trkpt><trkpt lat="37.5826734" lon="-2.9529754"><ele>772.0</ele><time>2026-04-11T17:14:24.401Z</time></trkpt><trkpt lat="37.5827319" lon="-2.9527255"><ele>772.0</ele><time>2026-04-11T17:14:25.401Z</time></trkpt><trkpt lat="37.5827668" lon="-2.9524649"><ele>772.6666666666666</ele><time>2026-04-11T17:14:26.401Z</time></trkpt><trkpt lat="37.5827916" lon="-2.9522044"><ele>773.3333333333333</ele><time>2026-04-11T17:14:27.401Z</time></trkpt><trkpt lat="37.5828146" lon="-2.9519344"><ele>774.0</ele><time>2026-04-11T17:14:28.4Z</time></trkpt><trkpt lat="37.5828356" lon="-2.9516692"><ele>775.0</ele><time>2026-04-11T17:14:29.401Z</time></trkpt><trkpt lat="37.5828547" lon="-2.9513993"><ele>776.0</ele><time>2026-04-11T17:14:30.401Z</time></trkpt><trkpt lat="37.5828751" lon="-2.9511165"><ele>777.0</ele><time>2026-04-11T17:14:31.401Z</time></trkpt><trkpt lat="37.5828935" lon="-2.9508578"><ele>779.0</ele><time>2026-04-11T17:14:32.401Z</time></trkpt><trkpt lat="37.5829157" lon="-2.9505676"><ele>781.0</ele><time>2026-04-11T17:14:33.401Z</time></trkpt><trkpt lat="37.5829369" lon="-2.9502911"><ele>782.0</ele><time>2026-04-11T17:14:34.4Z</time></trkpt><trkpt lat="37.5829567" lon="-2.9500314"><ele>783.0</ele><time>2026-04-11T17:14:35.401Z</time></trkpt><trkpt lat="37.5829788" lon="-2.9497477"><ele>784.0</ele><time>2026-04-11T17:14:36.401Z</time></trkpt><trkpt lat="37.5829993" lon="-2.9494663"><ele>786.5</ele><time>2026-04-11T17:14:37.401Z</time></trkpt><trkpt lat="37.5830199" lon="-2.9491886"><ele>789.0</ele><time>2026-04-11T17:14:38.401Z</time></trkpt><trkpt lat="37.5830417" lon="-2.9488824"><ele>789.0</ele><time>2026-04-11T17:14:39.401Z</time></trkpt><trkpt lat="37.5830601" lon="-2.9486193"><ele>789.0</ele><time>2026-04-11T17:14:40.401Z</time></trkpt><trkpt lat="37.5830802" lon="-2.9483388"><ele>789.0</ele><time>2026-04-11T17:14:41.401Z</time></trkpt><trkpt lat="37.5830995" lon="-2.9480613"><ele>788.5</ele><time>2026-04-11T17:14:42.401Z</time></trkpt><trkpt lat="37.5831207" lon="-2.9477846"><ele>788.0</ele><time>2026-04-11T17:14:43.401Z</time></trkpt><trkpt lat="37.5831495" lon="-2.9474951"><ele>788.0</ele><time>2026-04-11T17:14:44.401Z</time></trkpt><trkpt lat="37.5831907" lon="-2.9472093"><ele>788.0</ele><time>2026-04-11T17:14:45.4Z</time></trkpt><trkpt lat="37.5832555" lon="-2.9469268"><ele>786.5</ele><time>2026-04-11T17:14:46.401Z</time></trkpt><trkpt lat="37.5833452" lon="-2.9466361"><ele>785.0</ele><time>2026-04-11T17:14:47.401Z</time></trkpt><trkpt lat="37.5834468" lon="-2.9463475"><ele>785.0</ele><time>2026-04-11T17:14:48.401Z</time></trkpt><trkpt lat="37.5835689" lon="-2.9460341"><ele>785.0</ele><time>2026-04-11T17:14:49.401Z</time></trkpt><trkpt lat="37.5836905" lon="-2.9457293"><ele>781.0</ele><time>2026-04-11T17:14:50.401Z</time></trkpt><trkpt lat="37.5838027" lon="-2.9454542"><ele>777.0</ele><time>2026-04-11T17:14:51.401Z</time></trkpt><trkpt lat="37.5839269" lon="-2.9451487"><ele>778.5</ele><time>2026-04-11T17:14:52.4Z</time></trkpt><trkpt lat="37.5840483" lon="-2.9448487"><ele>780.0</ele><time>2026-04-11T17:14:53.401Z</time></trkpt><trkpt lat="37.5841717" lon="-2.9445433"><ele>780.0</ele><time>2026-04-11T17:14:54.401Z</time></trkpt><trkpt lat="37.5842999" lon="-2.9442263"><ele>780.0</ele><time>2026-04-11T17:14:55.401Z</time></trkpt><trkpt lat="37.5844169" lon="-2.9439441"><ele>779.0</ele><time>2026-04-11T17:14:56.401Z</time></trkpt><trkpt lat="37.5845445" lon="-2.9436398"><ele>778.0</ele><time>2026-04-11T17:14:57.401Z</time></trkpt><trkpt lat="37.5846679" lon="-2.9433674"><ele>780.0</ele><time>2026-04-11T17:14:58.401Z</time></trkpt><trkpt lat="37.5848106" lon="-2.9430962"><ele>782.0</ele><time>2026-04-11T17:14:59.4Z</time></trkpt><trkpt lat="37.5849778" lon="-2.9428285"><ele>782.0</ele><time>2026-04-11T17:15:00.401Z</time></trkpt><trkpt lat="37.5851446" lon="-2.9425999"><ele>782.0</ele><time>2026-04-11T17:15:01.401Z</time></trkpt><trkpt lat="37.5853285" lon="-2.9423699"><ele>781.5</ele><time>2026-04-11T17:15:02.401Z</time></trkpt><trkpt lat="37.5855186" lon="-2.9421377"><ele>781.0</ele><time>2026-04-11T17:15:03.401Z</time></trkpt><trkpt lat="37.5857071" lon="-2.9419131"><ele>782.5</ele><time>2026-04-11T17:15:04.401Z</time></trkpt><trkpt lat="37.585898" lon="-2.9416855"><ele>784.0</ele><time>2026-04-11T17:15:05.401Z</time></trkpt><trkpt lat="37.586101" lon="-2.9414439"><ele>785.0</ele><time>2026-04-11T17:15:06.4Z</time></trkpt><trkpt lat="37.5862768" lon="-2.9412352"><ele>786.0</ele><time>2026-04-11T17:15:07.401Z</time></trkpt><trkpt lat="37.5864714" lon="-2.9410052"><ele>787.5</ele><time>2026-04-11T17:15:08.4Z</time></trkpt><trkpt lat="37.5866657" lon="-2.9407773"><ele>789.0</ele><time>2026-04-11T17:15:09.401Z</time></trkpt><trkpt lat="37.5868596" lon="-2.9405478"><ele>785.0</ele><time>2026-04-11T17:15:10.401Z</time></trkpt><trkpt lat="37.5870654" lon="-2.9403018"><ele>781.0</ele><time>2026-04-11T17:15:11.4Z</time></trkpt><trkpt lat="37.5872429" lon="-2.9400895"><ele>781.5</ele><time>2026-04-11T17:15:12.401Z</time></trkpt><trkpt lat="37.5874388" lon="-2.9398577"><ele>782.0</ele><time>2026-04-11T17:15:13.401Z</time></trkpt><trkpt lat="37.5876349" lon="-2.9396261"><ele>782.0</ele><time>2026-04-11T17:15:14.401Z</time></trkpt><trkpt lat="37.587821" lon="-2.9394084"><ele>782.0</ele><time>2026-04-11T17:15:15.401Z</time></trkpt><trkpt lat="37.5880037" lon="-2.939205"><ele>781.5</ele><time>2026-04-11T17:15:16.401Z</time></trkpt><trkpt lat="37.5881929" lon="-2.9390233"><ele>781.0</ele><time>2026-04-11T17:15:17.401Z</time></trkpt><trkpt lat="37.5883938" lon="-2.9388711"><ele>781.0</ele><time>2026-04-11T17:15:18.401Z</time></trkpt><trkpt lat="37.5886272" lon="-2.9387357"><ele>781.0</ele><time>2026-04-11T17:15:19.401Z</time></trkpt><trkpt lat="37.5888444" lon="-2.9386498"><ele>780.0</ele><time>2026-04-11T17:15:20.4Z</time></trkpt><trkpt lat="37.5890851" lon="-2.9385927"><ele>779.0</ele><time>2026-04-11T17:15:21.401Z</time></trkpt><trkpt lat="37.589343" lon="-2.9385742"><ele>779.5</ele><time>2026-04-11T17:15:22.401Z</time></trkpt><trkpt lat="37.5895828" lon="-2.9385923"><ele>780.0</ele><time>2026-04-11T17:15:23.401Z</time></trkpt><trkpt lat="37.5898349" lon="-2.9386436"><ele>780.0</ele><time>2026-04-11T17:15:24.401Z</time></trkpt><trkpt lat="37.5900841" lon="-2.9387175"><ele>780.0</ele><time>2026-04-11T17:15:25.401Z</time></trkpt><trkpt lat="37.5903364" lon="-2.9387989"><ele>782.0</ele><time>2026-04-11T17:15:26.401Z</time></trkpt><trkpt lat="37.5906072" lon="-2.9388858"><ele>784.0</ele><time>2026-04-11T17:15:27.401Z</time></trkpt><trkpt lat="37.5908465" lon="-2.9389611"><ele>784.0</ele><time>2026-04-11T17:15:28.401Z</time></trkpt><trkpt lat="37.591104" lon="-2.9390441"><ele>784.0</ele><time>2026-04-11T17:15:29.401Z</time></trkpt><trkpt lat="37.5913569" lon="-2.9391272"><ele>784.0</ele><time>2026-04-11T17:15:30.401Z</time></trkpt><trkpt lat="37.5916206" lon="-2.9392136"><ele>784.0</ele><time>2026-04-11T17:15:31.401Z</time></trkpt><trkpt lat="37.591888" lon="-2.9393009"><ele>782.0</ele><time>2026-04-11T17:15:32.401Z</time></trkpt><trkpt lat="37.5921341" lon="-2.9393791"><ele>780.0</ele><time>2026-04-11T17:15:33.401Z</time></trkpt><trkpt lat="37.5923942" lon="-2.9394599"><ele>780.0</ele><time>2026-04-11T17:15:34.401Z</time></trkpt><trkpt lat="37.5926686" lon="-2.9395464"><ele>780.0</ele><time>2026-04-11T17:15:35.401Z</time></trkpt><trkpt lat="37.5929062" lon="-2.9396227"><ele>780.5</ele><time>2026-04-11T17:15:36.401Z</time></trkpt><trkpt lat="37.5931737" lon="-2.9397061"><ele>781.0</ele><time>2026-04-11T17:15:37.401Z</time></trkpt><trkpt lat="37.5934436" lon="-2.9397868"><ele>780.0</ele><time>2026-04-11T17:15:38.401Z</time></trkpt><trkpt lat="37.5936946" lon="-2.9398568"><ele>779.0</ele><time>2026-04-11T17:15:39.401Z</time></trkpt><trkpt lat="37.5939609" lon="-2.9399198"><ele>779.0</ele><time>2026-04-11T17:15:40.401Z</time></trkpt><trkpt lat="37.5942277" lon="-2.9399734"><ele>779.0</ele><time>2026-04-11T17:15:41.401Z</time></trkpt><trkpt lat="37.5944968" lon="-2.94002"><ele>776.0</ele><time>2026-04-11T17:15:42.401Z</time></trkpt><trkpt lat="37.5947896" lon="-2.940064"><ele>773.0</ele><time>2026-04-11T17:15:43.401Z</time></trkpt><trkpt lat="37.5950396" lon="-2.9400999"><ele>773.0</ele><time>2026-04-11T17:15:44.401Z</time></trkpt><trkpt lat="37.5953136" lon="-2.9401379"><ele>773.0</ele><time>2026-04-11T17:15:45.4Z</time></trkpt><trkpt lat="37.5955804" lon="-2.9401749"><ele>775.5</ele><time>2026-04-11T17:15:46.401Z</time></trkpt><trkpt lat="37.5958442" lon="-2.9402094"><ele>778.0</ele><time>2026-04-11T17:15:47.401Z</time></trkpt><trkpt lat="37.5961156" lon="-2.9402454"><ele>780.0</ele><time>2026-04-11T17:15:48.401Z</time></trkpt><trkpt lat="37.5963616" lon="-2.9402774"><ele>782.0</ele><time>2026-04-11T17:15:49.4Z</time></trkpt><trkpt lat="37.5966145" lon="-2.9403074"><ele>782.0</ele><time>2026-04-11T17:15:50.401Z</time></trkpt><trkpt lat="37.5968819" lon="-2.9403302"><ele>782.0</ele><time>2026-04-11T17:15:51.401Z</time></trkpt><trkpt lat="37.5971145" lon="-2.940333"><ele>783.5</ele><time>2026-04-11T17:15:52.4Z</time></trkpt><trkpt lat="37.5973773" lon="-2.940319"><ele>785.0</ele><time>2026-04-11T17:15:53.401Z</time></trkpt><trkpt lat="37.5976484" lon="-2.9402934"><ele>784.0</ele><time>2026-04-11T17:15:54.401Z</time></trkpt><trkpt lat="37.5978842" lon="-2.9402648"><ele>783.0</ele><time>2026-04-11T17:15:55.401Z</time></trkpt><trkpt lat="37.5981632" lon="-2.9402312"><ele>783.0</ele><time>2026-04-11T17:15:56.4Z</time></trkpt><trkpt lat="37.5984102" lon="-2.9402007"><ele>783.0</ele><time>2026-04-11T17:15:57.401Z</time></trkpt><trkpt lat="37.5986859" lon="-2.9401665"><ele>783.5</ele><time>2026-04-11T17:15:58.401Z</time></trkpt><trkpt lat="37.5989642" lon="-2.9401309"><ele>784.0</ele><time>2026-04-11T17:15:59.401Z</time></trkpt><trkpt lat="37.5992135" lon="-2.940099"><ele>784.0</ele><time>2026-04-11T17:16:00.401Z</time></trkpt><trkpt lat="37.59949" lon="-2.9400646"><ele>784.0</ele><time>2026-04-11T17:16:01.4Z</time></trkpt><trkpt lat="37.5997652" lon="-2.9400316"><ele>787.0</ele><time>2026-04-11T17:16:02.401Z</time></trkpt><trkpt lat="37.6000411" lon="-2.9399978"><ele>790.0</ele><time>2026-04-11T17:16:03.401Z</time></trkpt><trkpt lat="37.6003327" lon="-2.939961"><ele>789.5</ele><time>2026-04-11T17:16:04.401Z</time></trkpt><trkpt lat="37.6005876" lon="-2.9399276"><ele>789.0</ele><time>2026-04-11T17:16:05.401Z</time></trkpt><trkpt lat="37.6008649" lon="-2.9398908"><ele>789.0</ele><time>2026-04-11T17:16:06.401Z</time></trkpt><trkpt lat="37.6011631" lon="-2.9398508"><ele>789.0</ele><time>2026-04-11T17:16:07.401Z</time></trkpt><trkpt lat="37.601424" lon="-2.9398179"><ele>789.0</ele><time>2026-04-11T17:16:08.401Z</time></trkpt><trkpt lat="37.6017066" lon="-2.9397833"><ele>789.0</ele><time>2026-04-11T17:16:09.4Z</time></trkpt><trkpt lat="37.6019696" lon="-2.939753"><ele>790.5</ele><time>2026-04-11T17:16:10.401Z</time></trkpt><trkpt lat="37.6022193" lon="-2.9397315"><ele>792.0</ele><time>2026-04-11T17:16:11.4Z</time></trkpt><trkpt lat="37.6024916" lon="-2.9397307"><ele>792.0</ele><time>2026-04-11T17:16:12.401Z</time></trkpt><trkpt lat="37.6027399" lon="-2.9397547"><ele>792.0</ele><time>2026-04-11T17:16:13.401Z</time></trkpt><trkpt lat="37.6029966" lon="-2.9398014"><ele>796.0</ele><time>2026-04-11T17:16:14.401Z</time></trkpt><trkpt lat="37.6032672" lon="-2.9398613"><ele>800.0</ele><time>2026-04-11T17:16:15.4Z</time></trkpt><trkpt lat="37.6034986" lon="-2.9399211"><ele>802.0</ele><time>2026-04-11T17:16:16.401Z</time></trkpt><trkpt lat="37.6037347" lon="-2.939981"><ele>804.0</ele><time>2026-04-11T17:16:17.401Z</time></trkpt><trkpt lat="37.6039544" lon="-2.940037"><ele>803.5</ele><time>2026-04-11T17:16:18.401Z</time></trkpt><trkpt lat="37.6041716" lon="-2.9400925"><ele>803.0</ele><time>2026-04-11T17:16:19.401Z</time></trkpt><trkpt lat="37.6043968" lon="-2.9401444"><ele>804.0</ele><time>2026-04-11T17:16:20.401Z</time></trkpt><trkpt lat="37.6045861" lon="-2.9401852"><ele>805.0</ele><time>2026-04-11T17:16:21.401Z</time></trkpt><trkpt lat="37.6047723" lon="-2.9402258"><ele>806.0</ele><time>2026-04-11T17:16:22.401Z</time></trkpt><trkpt lat="37.6049533" lon="-2.9402668"><ele>806.0</ele><time>2026-04-11T17:16:23.4Z</time></trkpt><trkpt lat="37.605114" lon="-2.9403039"><ele>806.0</ele><time>2026-04-11T17:16:24.401Z</time></trkpt><trkpt lat="37.6052574" lon="-2.9403367"><ele>806.0</ele><time>2026-04-11T17:16:25.401Z</time></trkpt><trkpt lat="37.6053957" lon="-2.940368"><ele>806.5000000000001</ele><time>2026-04-11T17:16:26.401Z</time></trkpt><trkpt lat="37.605498" lon="-2.9403865"><ele>807.0</ele><time>2026-04-11T17:16:27.401Z</time></trkpt><trkpt lat="37.6055932" lon="-2.9403928"><ele>807.5</ele><time>2026-04-11T17:16:28.401Z</time></trkpt><trkpt lat="37.6056701" lon="-2.9403881"><ele>808.0</ele><time>2026-04-11T17:16:29.401Z</time></trkpt><trkpt lat="37.6057481" lon="-2.9403802"><ele>808.5000000000001</ele><time>2026-04-11T17:16:30.401Z</time></trkpt><trkpt lat="37.6058328" lon="-2.940384"><ele>809.0</ele><time>2026-04-11T17:16:31.4Z</time></trkpt><trkpt lat="37.6059066" lon="-2.940412"><ele>809.0</ele><time>2026-04-11T17:16:32.401Z</time></trkpt><trkpt lat="37.6059921" lon="-2.9404592"><ele>809.0</ele><time>2026-04-11T17:16:33.401Z</time></trkpt><trkpt lat="37.6060833" lon="-2.940505"><ele>809.0</ele><time>2026-04-11T17:16:34.401Z</time></trkpt><trkpt lat="37.6061839" lon="-2.9405343"><ele>809.0</ele><time>2026-04-11T17:16:35.401Z</time></trkpt><trkpt lat="37.606297" lon="-2.940545"><ele>809.0</ele><time>2026-04-11T17:16:36.4Z</time></trkpt><trkpt lat="37.6064175" lon="-2.9405504"><ele>808.5</ele><time>2026-04-11T17:16:37.401Z</time></trkpt><trkpt lat="37.6065491" lon="-2.9405362"><ele>808.0</ele><time>2026-04-11T17:16:38.401Z</time></trkpt><trkpt lat="37.6066888" lon="-2.9405032"><ele>807.5</ele><time>2026-04-11T17:16:39.401Z</time></trkpt><trkpt lat="37.6068237" lon="-2.9404554"><ele>807.0</ele><time>2026-04-11T17:16:40.401Z</time></trkpt><trkpt lat="37.6069634" lon="-2.9403862"><ele>807.0</ele><time>2026-04-11T17:16:41.401Z</time></trkpt><trkpt lat="37.6071103" lon="-2.9402905"><ele>807.0</ele><time>2026-04-11T17:16:42.401Z</time></trkpt><trkpt lat="37.6072447" lon="-2.9401807"><ele>807.0</ele><time>2026-04-11T17:16:43.401Z</time></trkpt><trkpt lat="37.60738" lon="-2.9400439"><ele>807.3333333333333</ele><time>2026-04-11T17:16:44.4Z</time></trkpt><trkpt lat="37.6075158" lon="-2.9398885"><ele>807.6666666666666</ele><time>2026-04-11T17:16:45.401Z</time></trkpt><trkpt lat="37.6076522" lon="-2.9397207"><ele>808.0</ele><time>2026-04-11T17:16:46.401Z</time></trkpt><trkpt lat="37.6077973" lon="-2.939545"><ele>807.3333333333333</ele><time>2026-04-11T17:16:47.401Z</time></trkpt><trkpt lat="37.6079324" lon="-2.9393827"><ele>806.6666666666667</ele><time>2026-04-11T17:16:48.401Z</time></trkpt><trkpt lat="37.6080865" lon="-2.9391972"><ele>806.0</ele><time>2026-04-11T17:16:49.401Z</time></trkpt><trkpt lat="37.6082284" lon="-2.9390264"><ele>807.3333333333334</ele><time>2026-04-11T17:16:50.401Z</time></trkpt><trkpt lat="37.6083793" lon="-2.9388425"><ele>808.6666666666667</ele><time>2026-04-11T17:16:51.401Z</time></trkpt><trkpt lat="37.6085356" lon="-2.9386502"><ele>810.0</ele><time>2026-04-11T17:16:52.4Z</time></trkpt><trkpt lat="37.6086895" lon="-2.93846"><ele>810.5</ele><time>2026-04-11T17:16:53.401Z</time></trkpt><trkpt lat="37.6088457" lon="-2.9382675"><ele>811.0</ele><time>2026-04-11T17:16:54.401Z</time></trkpt><trkpt lat="37.6090069" lon="-2.9380572"><ele>811.0</ele><time>2026-04-11T17:16:55.401Z</time></trkpt><trkpt lat="37.6091371" lon="-2.9378593"><ele>811.0</ele><time>2026-04-11T17:16:56.401Z</time></trkpt><trkpt lat="37.6092616" lon="-2.9376349"><ele>811.0</ele><time>2026-04-11T17:16:57.401Z</time></trkpt><trkpt lat="37.6093643" lon="-2.9374214"><ele>812.3333333333333</ele><time>2026-04-11T17:16:58.401Z</time></trkpt><trkpt lat="37.6094455" lon="-2.9372218"><ele>813.6666666666667</ele><time>2026-04-11T17:16:59.401Z</time></trkpt><trkpt lat="37.6095246" lon="-2.9370065"><ele>815.0</ele><time>2026-04-11T17:17:00.401Z</time></trkpt><trkpt lat="37.6096007" lon="-2.9367899"><ele>813.0</ele><time>2026-04-11T17:17:01.401Z</time></trkpt><trkpt lat="37.609676" lon="-2.9365754"><ele>811.0</ele><time>2026-04-11T17:17:02.401Z</time></trkpt><trkpt lat="37.6097534" lon="-2.9363558"><ele>809.0</ele><time>2026-04-11T17:17:03.401Z</time></trkpt><trkpt lat="37.6098271" lon="-2.936145"><ele>809.0</ele><time>2026-04-11T17:17:04.401Z</time></trkpt><trkpt lat="37.609905" lon="-2.9359264"><ele>809.0</ele><time>2026-04-11T17:17:05.401Z</time></trkpt><trkpt lat="37.6099814" lon="-2.9357119"><ele>809.0</ele><time>2026-04-11T17:17:06.401Z</time></trkpt><trkpt lat="37.6100604" lon="-2.93549"><ele>810.0</ele><time>2026-04-11T17:17:07.401Z</time></trkpt><trkpt lat="37.6101387" lon="-2.9352728"><ele>811.0</ele><time>2026-04-11T17:17:08.401Z</time></trkpt><trkpt lat="37.6102238" lon="-2.9350648"><ele>812.0</ele><time>2026-04-11T17:17:09.401Z</time></trkpt><trkpt lat="37.6103206" lon="-2.9348682"><ele>810.3333333333334</ele><time>2026-04-11T17:17:10.4Z</time></trkpt><trkpt lat="37.6104421" lon="-2.9346705"><ele>808.6666666666667</ele><time>2026-04-11T17:17:11.401Z</time></trkpt><trkpt lat="37.6105618" lon="-2.9345189"><ele>807.0</ele><time>2026-04-11T17:17:12.4Z</time></trkpt><trkpt lat="37.6107007" lon="-2.9343694"><ele>807.0</ele><time>2026-04-11T17:17:13.401Z</time></trkpt><trkpt lat="37.610852" lon="-2.9342224"><ele>807.0</ele><time>2026-04-11T17:17:14.401Z</time></trkpt><trkpt lat="37.6109807" lon="-2.934103"><ele>807.0</ele><time>2026-04-11T17:17:15.401Z</time></trkpt><trkpt lat="37.6111234" lon="-2.9339722"><ele>807.6666666666667</ele><time>2026-04-11T17:17:16.401Z</time></trkpt><trkpt lat="37.6112411" lon="-2.9338627"><ele>808.3333333333334</ele><time>2026-04-11T17:17:17.401Z</time></trkpt><trkpt lat="37.6113614" lon="-2.9337498"><ele>809.0</ele><time>2026-04-11T17:17:18.401Z</time></trkpt><trkpt lat="37.6114851" lon="-2.9336327"><ele>809.0</ele><time>2026-04-11T17:17:19.401Z</time></trkpt><trkpt lat="37.6115943" lon="-2.9335314"><ele>809.0</ele><time>2026-04-11T17:17:20.401Z</time></trkpt><trkpt lat="37.6117108" lon="-2.933423"><ele>809.0</ele><time>2026-04-11T17:17:21.401Z</time></trkpt><trkpt lat="37.6118112" lon="-2.9333294"><ele>809.0</ele><time>2026-04-11T17:17:22.401Z</time></trkpt><trkpt lat="37.6119035" lon="-2.9332427"><ele>809.1666666666667</ele><time>2026-04-11T17:17:23.401Z</time></trkpt><trkpt lat="37.6119719" lon="-2.9331773"><ele>809.3333333333334</ele><time>2026-04-11T17:17:24.4Z</time></trkpt><trkpt lat="37.6120272" lon="-2.9331238"><ele>809.5</ele><time>2026-04-11T17:17:25.401Z</time></trkpt><trkpt lat="37.6120778" lon="-2.9330746"><ele>809.6666666666667</ele><time>2026-04-11T17:17:26.4Z</time></trkpt><trkpt lat="37.6121328" lon="-2.9330216"><ele>809.8333333333334</ele><time>2026-04-11T17:17:27.4Z</time></trkpt><trkpt lat="37.6122318" lon="-2.9329051"><ele>810.0</ele><time>2026-04-11T17:17:29.4Z</time></trkpt><trkpt lat="37.6122787" lon="-2.9328303"><ele>810.0</ele><time>2026-04-11T17:17:30.401Z</time></trkpt><trkpt lat="37.6123312" lon="-2.9327711"><ele>810.0</ele><time>2026-04-11T17:17:31.401Z</time></trkpt><trkpt lat="37.6124034" lon="-2.9327247"><ele>810.0</ele><time>2026-04-11T17:17:32.401Z</time></trkpt><trkpt lat="37.6124889" lon="-2.9326994"><ele>810.0</ele><time>2026-04-11T17:17:33.401Z</time></trkpt><trkpt lat="37.612591" lon="-2.9326787"><ele>810.0</ele><time>2026-04-11T17:17:34.401Z</time></trkpt><trkpt lat="37.6127071" lon="-2.9326533"><ele>810.0</ele><time>2026-04-11T17:17:35.4Z</time></trkpt><trkpt lat="37.6128225" lon="-2.932623"><ele>810.0</ele><time>2026-04-11T17:17:36.401Z</time></trkpt><trkpt lat="37.6129557" lon="-2.9325882"><ele>810.0</ele><time>2026-04-11T17:17:37.401Z</time></trkpt><trkpt lat="37.6130793" lon="-2.9325571"><ele>810.0</ele><time>2026-04-11T17:17:38.401Z</time></trkpt><trkpt lat="37.6132059" lon="-2.9325267"><ele>810.25</ele><time>2026-04-11T17:17:39.401Z</time></trkpt><trkpt lat="37.613342" lon="-2.9324942"><ele>810.5</ele><time>2026-04-11T17:17:40.4Z</time></trkpt><trkpt lat="37.613461" lon="-2.9324655"><ele>810.75</ele><time>2026-04-11T17:17:41.401Z</time></trkpt><trkpt lat="37.6135836" lon="-2.9324356"><ele>811.0</ele><time>2026-04-11T17:17:42.401Z</time></trkpt><trkpt lat="37.6137154" lon="-2.9324058"><ele>811.0</ele><time>2026-04-11T17:17:43.401Z</time></trkpt><trkpt lat="37.6138315" lon="-2.9323833"><ele>811.0</ele><time>2026-04-11T17:17:44.401Z</time></trkpt><trkpt lat="37.6139704" lon="-2.9323628"><ele>811.0</ele><time>2026-04-11T17:17:45.401Z</time></trkpt><trkpt lat="37.6141092" lon="-2.9323527"><ele>811.0</ele><time>2026-04-11T17:17:46.401Z</time></trkpt><trkpt lat="37.614246" lon="-2.9323535"><ele>811.0</ele><time>2026-04-11T17:17:47.401Z</time></trkpt><trkpt lat="37.6143986" lon="-2.9323636"><ele>811.0</ele><time>2026-04-11T17:17:48.401Z</time></trkpt><trkpt lat="37.6145357" lon="-2.9323781"><ele>811.0</ele><time>2026-04-11T17:17:49.401Z</time></trkpt><trkpt lat="37.6146857" lon="-2.9323961"><ele>811.0</ele><time>2026-04-11T17:17:50.401Z</time></trkpt><trkpt lat="37.6148523" lon="-2.9324181"><ele>811.0</ele><time>2026-04-11T17:17:51.401Z</time></trkpt><trkpt lat="37.6150009" lon="-2.9324387"><ele>811.0</ele><time>2026-04-11T17:17:52.401Z</time></trkpt><trkpt lat="37.6151618" lon="-2.9324614"><ele>811.0</ele><time>2026-04-11T17:17:53.401Z</time></trkpt><trkpt lat="37.6153221" lon="-2.9324826"><ele>811.0</ele><time>2026-04-11T17:17:54.401Z</time></trkpt><trkpt lat="37.6154911" lon="-2.9325059"><ele>811.0</ele><time>2026-04-11T17:17:55.401Z</time></trkpt><trkpt lat="37.6156698" lon="-2.9325302"><ele>811.0</ele><time>2026-04-11T17:17:56.401Z</time></trkpt><trkpt lat="37.6158316" lon="-2.9325512"><ele>811.0</ele><time>2026-04-11T17:17:57.401Z</time></trkpt><trkpt lat="37.6160135" lon="-2.9325766"><ele>811.0</ele><time>2026-04-11T17:17:58.401Z</time></trkpt><trkpt lat="37.6161861" lon="-2.9326024"><ele>811.0</ele><time>2026-04-11T17:17:59.401Z</time></trkpt><trkpt lat="37.6163462" lon="-2.9326262"><ele>811.0</ele><time>2026-04-11T17:18:00.401Z</time></trkpt><trkpt lat="37.6165186" lon="-2.9326531"><ele>811.0</ele><time>2026-04-11T17:18:01.401Z</time></trkpt><trkpt lat="37.6166933" lon="-2.9326794"><ele>811.0</ele><time>2026-04-11T17:18:02.401Z</time></trkpt><trkpt lat="37.6168537" lon="-2.9327032"><ele>812.0</ele><time>2026-04-11T17:18:03.401Z</time></trkpt><trkpt lat="37.6170339" lon="-2.9327305"><ele>813.0</ele><time>2026-04-11T17:18:04.401Z</time></trkpt><trkpt lat="37.6171939" lon="-2.9327565"><ele>814.0</ele><time>2026-04-11T17:18:05.401Z</time></trkpt><trkpt lat="37.6173639" lon="-2.9327842"><ele>814.0</ele><time>2026-04-11T17:18:06.401Z</time></trkpt><trkpt lat="37.6175295" lon="-2.9328114"><ele>814.0</ele><time>2026-04-11T17:18:07.401Z</time></trkpt><trkpt lat="37.6176887" lon="-2.9328389"><ele>814.0</ele><time>2026-04-11T17:18:08.401Z</time></trkpt><trkpt lat="37.6178586" lon="-2.9328666"><ele>815.0</ele><time>2026-04-11T17:18:09.401Z</time></trkpt><trkpt lat="37.6180276" lon="-2.932892"><ele>816.0</ele><time>2026-04-11T17:18:10.401Z</time></trkpt><trkpt lat="37.6182017" lon="-2.9329169"><ele>817.0</ele><time>2026-04-11T17:18:11.4Z</time></trkpt><trkpt lat="37.618375" lon="-2.9329394"><ele>817.0</ele><time>2026-04-11T17:18:12.401Z</time></trkpt><trkpt lat="37.6185473" lon="-2.9329541"><ele>817.0</ele><time>2026-04-11T17:18:13.401Z</time></trkpt><trkpt lat="37.6187229" lon="-2.9329585"><ele>817.0</ele><time>2026-04-11T17:18:14.401Z</time></trkpt><trkpt lat="37.6189022" lon="-2.9329544"><ele>816.0</ele><time>2026-04-11T17:18:15.401Z</time></trkpt><trkpt lat="37.6190794" lon="-2.9329455"><ele>815.0</ele><time>2026-04-11T17:18:16.401Z</time></trkpt><trkpt lat="37.6192587" lon="-2.9329352"><ele>814.0</ele><time>2026-04-11T17:18:17.401Z</time></trkpt><trkpt lat="37.6194464" lon="-2.9329234"><ele>813.3333333333333</ele><time>2026-04-11T17:18:18.401Z</time></trkpt><trkpt lat="37.6196157" lon="-2.9329126"><ele>812.6666666666667</ele><time>2026-04-11T17:18:19.4Z</time></trkpt><trkpt lat="37.6198006" lon="-2.9329002"><ele>812.0</ele><time>2026-04-11T17:18:20.4Z</time></trkpt><trkpt lat="37.6199832" lon="-2.9328882"><ele>812.0</ele><time>2026-04-11T17:18:21.401Z</time></trkpt><trkpt lat="37.62017" lon="-2.9328749"><ele>812.0</ele><time>2026-04-11T17:18:22.4Z</time></trkpt><trkpt lat="37.6203615" lon="-2.9328621"><ele>812.0</ele><time>2026-04-11T17:18:23.401Z</time></trkpt><trkpt lat="37.6205525" lon="-2.9328488"><ele>812.6666666666667</ele><time>2026-04-11T17:18:24.401Z</time></trkpt><trkpt lat="37.62076" lon="-2.9328351"><ele>813.3333333333333</ele><time>2026-04-11T17:18:25.401Z</time></trkpt><trkpt lat="37.6209473" lon="-2.9328229"><ele>814.0</ele><time>2026-04-11T17:18:26.401Z</time></trkpt><trkpt lat="37.6211339" lon="-2.9328101"><ele>813.6666666666666</ele><time>2026-04-11T17:18:27.401Z</time></trkpt><trkpt lat="37.6213291" lon="-2.9327984"><ele>813.3333333333333</ele><time>2026-04-11T17:18:28.401Z</time></trkpt><trkpt lat="37.6215005" lon="-2.9327884"><ele>813.0</ele><time>2026-04-11T17:18:29.4Z</time></trkpt><trkpt lat="37.6216837" lon="-2.9327777"><ele>813.0</ele><time>2026-04-11T17:18:30.401Z</time></trkpt><trkpt lat="37.6218843" lon="-2.9327672"><ele>813.0</ele><time>2026-04-11T17:18:31.4Z</time></trkpt><trkpt lat="37.6220784" lon="-2.932764"><ele>813.0</ele><time>2026-04-11T17:18:32.4Z</time></trkpt><trkpt lat="37.6222906" lon="-2.932772"><ele>813.0</ele><time>2026-04-11T17:18:33.401Z</time></trkpt><trkpt lat="37.6225032" lon="-2.9327941"><ele>813.0</ele><time>2026-04-11T17:18:34.4Z</time></trkpt><trkpt lat="37.6227062" lon="-2.9328337"><ele>813.0</ele><time>2026-04-11T17:18:35.401Z</time></trkpt><trkpt lat="37.6229299" lon="-2.9329012"><ele>813.0</ele><time>2026-04-11T17:18:36.401Z</time></trkpt><trkpt lat="37.6231362" lon="-2.9329831"><ele>813.0</ele><time>2026-04-11T17:18:37.401Z</time></trkpt><trkpt lat="37.6233624" lon="-2.9330677"><ele>813.0</ele><time>2026-04-11T17:18:38.401Z</time></trkpt><trkpt lat="37.6236029" lon="-2.9331518"><ele>813.0</ele><time>2026-04-11T17:18:39.401Z</time></trkpt><trkpt lat="37.6238175" lon="-2.9332202"><ele>813.0</ele><time>2026-04-11T17:18:40.401Z</time></trkpt><trkpt lat="37.6240524" lon="-2.9332963"><ele>813.0</ele><time>2026-04-11T17:18:41.401Z</time></trkpt><trkpt lat="37.6242569" lon="-2.9333646"><ele>812.5</ele><time>2026-04-11T17:18:42.401Z</time></trkpt><trkpt lat="37.6244768" lon="-2.9334411"><ele>812.0</ele><time>2026-04-11T17:18:43.4Z</time></trkpt><trkpt lat="37.6247048" lon="-2.9335229"><ele>812.0</ele><time>2026-04-11T17:18:44.4Z</time></trkpt><trkpt lat="37.6249139" lon="-2.9335974"><ele>812.0</ele><time>2026-04-11T17:18:45.401Z</time></trkpt><trkpt lat="37.625142" lon="-2.9336785"><ele>812.5</ele><time>2026-04-11T17:18:46.401Z</time></trkpt><trkpt lat="37.6253896" lon="-2.9337669"><ele>813.0</ele><time>2026-04-11T17:18:47.401Z</time></trkpt><trkpt lat="37.6256136" lon="-2.9338474"><ele>813.0</ele><time>2026-04-11T17:18:48.401Z</time></trkpt><trkpt lat="37.6258526" lon="-2.9339327"><ele>813.0</ele><time>2026-04-11T17:18:49.4Z</time></trkpt><trkpt lat="37.6261081" lon="-2.9340239"><ele>814.0</ele><time>2026-04-11T17:18:50.401Z</time></trkpt><trkpt lat="37.6263452" lon="-2.9341087"><ele>815.0</ele><time>2026-04-11T17:18:51.401Z</time></trkpt><trkpt lat="37.6265927" lon="-2.934196"><ele>815.5</ele><time>2026-04-11T17:18:52.401Z</time></trkpt><trkpt lat="37.6268405" lon="-2.9342831"><ele>816.0</ele><time>2026-04-11T17:18:53.4Z</time></trkpt><trkpt lat="37.6271019" lon="-2.9343764"><ele>816.0</ele><time>2026-04-11T17:18:54.401Z</time></trkpt><trkpt lat="37.6273723" lon="-2.934475"><ele>816.0</ele><time>2026-04-11T17:18:55.401Z</time></trkpt><trkpt lat="37.6276162" lon="-2.9345657"><ele>816.5</ele><time>2026-04-11T17:18:56.4Z</time></trkpt><trkpt lat="37.6278711" lon="-2.9346631"><ele>817.0</ele><time>2026-04-11T17:18:57.401Z</time></trkpt><trkpt lat="37.6281265" lon="-2.9347626"><ele>817.0</ele><time>2026-04-11T17:18:58.401Z</time></trkpt><trkpt lat="37.6283873" lon="-2.9348688"><ele>817.0</ele><time>2026-04-11T17:18:59.401Z</time></trkpt><trkpt lat="37.6286562" lon="-2.9349798"><ele>814.5</ele><time>2026-04-11T17:19:00.401Z</time></trkpt><trkpt lat="37.6289005" lon="-2.93508"><ele>812.0</ele><time>2026-04-11T17:19:01.401Z</time></trkpt><trkpt lat="37.6291563" lon="-2.9351825"><ele>812.0</ele><time>2026-04-11T17:19:02.401Z</time></trkpt><trkpt lat="37.6294197" lon="-2.935284"><ele>812.0</ele><time>2026-04-11T17:19:03.401Z</time></trkpt><trkpt lat="37.6296802" lon="-2.9353853"><ele>812.0</ele><time>2026-04-11T17:19:04.401Z</time></trkpt><trkpt lat="37.6299511" lon="-2.9354869"><ele>812.0</ele><time>2026-04-11T17:19:05.401Z</time></trkpt><trkpt lat="37.630219" lon="-2.9355836"><ele>813.5</ele><time>2026-04-11T17:19:06.4Z</time></trkpt><trkpt lat="37.6304594" lon="-2.9356683"><ele>815.0</ele><time>2026-04-11T17:19:07.401Z</time></trkpt><trkpt lat="37.630723" lon="-2.9357602"><ele>815.0</ele><time>2026-04-11T17:19:08.4Z</time></trkpt><trkpt lat="37.6309802" lon="-2.9358503"><ele>815.0</ele><time>2026-04-11T17:19:09.401Z</time></trkpt><trkpt lat="37.6312322" lon="-2.9359388"><ele>813.0</ele><time>2026-04-11T17:19:10.401Z</time></trkpt><trkpt lat="37.6314969" lon="-2.9360302"><ele>811.0</ele><time>2026-04-11T17:19:11.401Z</time></trkpt><trkpt lat="37.6317325" lon="-2.93611"><ele>812.0</ele><time>2026-04-11T17:19:12.401Z</time></trkpt><trkpt lat="37.6319755" lon="-2.9362007"><ele>813.0</ele><time>2026-04-11T17:19:13.401Z</time></trkpt><trkpt lat="37.6322171" lon="-2.9363058"><ele>813.0</ele><time>2026-04-11T17:19:14.4Z</time></trkpt><trkpt lat="37.6324505" lon="-2.9364339"><ele>813.0</ele><time>2026-04-11T17:19:15.4Z</time></trkpt><trkpt lat="37.632683" lon="-2.9366014"><ele>812.5</ele><time>2026-04-11T17:19:16.401Z</time></trkpt><trkpt lat="37.6328824" lon="-2.9367605"><ele>812.0</ele><time>2026-04-11T17:19:17.401Z</time></trkpt><trkpt lat="37.6330887" lon="-2.9369284"><ele>812.0</ele><time>2026-04-11T17:19:18.401Z</time></trkpt><trkpt lat="37.6333133" lon="-2.9370973"><ele>812.0</ele><time>2026-04-11T17:19:19.4Z</time></trkpt><trkpt lat="37.6335123" lon="-2.9372209"><ele>814.0</ele><time>2026-04-11T17:19:20.401Z</time></trkpt><trkpt lat="37.6337458" lon="-2.9373322"><ele>816.0</ele><time>2026-04-11T17:19:21.401Z</time></trkpt><trkpt lat="37.6339758" lon="-2.9374094"><ele>816.0</ele><time>2026-04-11T17:19:22.401Z</time></trkpt><trkpt lat="37.6341931" lon="-2.9374578"><ele>816.0</ele><time>2026-04-11T17:19:23.401Z</time></trkpt><trkpt lat="37.6344427" lon="-2.9374952"><ele>818.0</ele><time>2026-04-11T17:19:24.401Z</time></trkpt><trkpt lat="37.6346683" lon="-2.9375212"><ele>820.0</ele><time>2026-04-11T17:19:25.401Z</time></trkpt><trkpt lat="37.6349137" lon="-2.9375391"><ele>820.0</ele><time>2026-04-11T17:19:26.401Z</time></trkpt><trkpt lat="37.6351774" lon="-2.9375356"><ele>820.0</ele><time>2026-04-11T17:19:27.401Z</time></trkpt><trkpt lat="37.6354148" lon="-2.93752"><ele>818.5</ele><time>2026-04-11T17:19:28.401Z</time></trkpt><trkpt lat="37.6356744" lon="-2.9374973"><ele>817.0</ele><time>2026-04-11T17:19:29.4Z</time></trkpt><trkpt lat="37.635931" lon="-2.9374748"><ele>816.0</ele><time>2026-04-11T17:19:30.4Z</time></trkpt><trkpt lat="37.6361915" lon="-2.9374524"><ele>815.0</ele><time>2026-04-11T17:19:31.401Z</time></trkpt><trkpt lat="37.6364533" lon="-2.9374309"><ele>815.0</ele><time>2026-04-11T17:19:32.4Z</time></trkpt><trkpt lat="37.6367099" lon="-2.937411"><ele>815.0</ele><time>2026-04-11T17:19:33.4Z</time></trkpt><trkpt lat="37.6369618" lon="-2.9373917"><ele>816.5</ele><time>2026-04-11T17:19:34.401Z</time></trkpt><trkpt lat="37.6372279" lon="-2.9373707"><ele>818.0</ele><time>2026-04-11T17:19:35.401Z</time></trkpt><trkpt lat="37.6374599" lon="-2.937353"><ele>818.0</ele><time>2026-04-11T17:19:36.401Z</time></trkpt><trkpt lat="37.6376992" lon="-2.9373355"><ele>818.0</ele><time>2026-04-11T17:19:37.401Z</time></trkpt><trkpt lat="37.6379554" lon="-2.9373172"><ele>818.0</ele><time>2026-04-11T17:19:38.401Z</time></trkpt><trkpt lat="37.6381794" lon="-2.9373025"><ele>818.0</ele><time>2026-04-11T17:19:39.401Z</time></trkpt><trkpt lat="37.638427" lon="-2.9372833"><ele>817.5</ele><time>2026-04-11T17:19:40.401Z</time></trkpt><trkpt lat="37.6386718" lon="-2.9372682"><ele>817.0</ele><time>2026-04-11T17:19:41.4Z</time></trkpt><trkpt lat="37.6389398" lon="-2.9372526"><ele>817.0</ele><time>2026-04-11T17:19:42.401Z</time></trkpt><trkpt lat="37.6391903" lon="-2.9372352"><ele>817.0</ele><time>2026-04-11T17:19:43.401Z</time></trkpt><trkpt lat="37.6394442" lon="-2.9372163"><ele>817.5</ele><time>2026-04-11T17:19:44.401Z</time></trkpt><trkpt lat="37.6397117" lon="-2.9371989"><ele>818.0</ele><time>2026-04-11T17:19:45.401Z</time></trkpt><trkpt lat="37.6399792" lon="-2.9371867"><ele>818.0</ele><time>2026-04-11T17:19:46.401Z</time></trkpt><trkpt lat="37.6402503" lon="-2.9371711"><ele>818.0</ele><time>2026-04-11T17:19:47.401Z</time></trkpt><trkpt lat="37.6405357" lon="-2.9371548"><ele>818.5</ele><time>2026-04-11T17:19:48.4Z</time></trkpt><trkpt lat="37.6407996" lon="-2.9371386"><ele>819.0</ele><time>2026-04-11T17:19:49.401Z</time></trkpt><trkpt lat="37.6410859" lon="-2.9371224"><ele>818.5</ele><time>2026-04-11T17:19:50.401Z</time></trkpt><trkpt lat="37.6413694" lon="-2.9371064"><ele>818.0</ele><time>2026-04-11T17:19:51.401Z</time></trkpt><trkpt lat="37.64163" lon="-2.9370946"><ele>818.0</ele><time>2026-04-11T17:19:52.401Z</time></trkpt><trkpt lat="37.6419198" lon="-2.9370809"><ele>818.0</ele><time>2026-04-11T17:19:53.401Z</time></trkpt><trkpt lat="37.6422032" lon="-2.9370667"><ele>818.5</ele><time>2026-04-11T17:19:54.4Z</time></trkpt><trkpt lat="37.642457" lon="-2.9370517"><ele>819.0</ele><time>2026-04-11T17:19:55.401Z</time></trkpt><trkpt lat="37.6427368" lon="-2.9370358"><ele>819.5</ele><time>2026-04-11T17:19:56.401Z</time></trkpt><trkpt lat="37.6430097" lon="-2.9370202"><ele>820.0</ele><time>2026-04-11T17:19:57.401Z</time></trkpt><trkpt lat="37.6432826" lon="-2.9370051"><ele>820.0</ele><time>2026-04-11T17:19:58.401Z</time></trkpt><trkpt lat="37.6435709" lon="-2.9369905"><ele>820.0</ele><time>2026-04-11T17:19:59.4Z</time></trkpt><trkpt lat="37.6438209" lon="-2.9369809"><ele>819.5</ele><time>2026-04-11T17:20:00.401Z</time></trkpt><trkpt lat="37.6440861" lon="-2.9369729"><ele>819.0</ele><time>2026-04-11T17:20:01.401Z</time></trkpt><trkpt lat="37.6443427" lon="-2.9369644"><ele>820.0</ele><time>2026-04-11T17:20:02.401Z</time></trkpt><trkpt lat="37.6446046" lon="-2.9369531"><ele>821.0</ele><time>2026-04-11T17:20:03.401Z</time></trkpt><trkpt lat="37.6448643" lon="-2.9369447"><ele>821.0</ele><time>2026-04-11T17:20:04.401Z</time></trkpt><trkpt lat="37.6451217" lon="-2.9369358"><ele>821.0</ele><time>2026-04-11T17:20:05.401Z</time></trkpt><trkpt lat="37.6453836" lon="-2.9369236"><ele>824.0</ele><time>2026-04-11T17:20:06.401Z</time></trkpt><trkpt lat="37.6456605" lon="-2.9368925"><ele>827.0</ele><time>2026-04-11T17:20:07.401Z</time></trkpt><trkpt lat="37.6458955" lon="-2.936826"><ele>827.0</ele><time>2026-04-11T17:20:08.401Z</time></trkpt><trkpt lat="37.6461353" lon="-2.9367239"><ele>827.0</ele><time>2026-04-11T17:20:09.401Z</time></trkpt><trkpt lat="37.6465879" lon="-2.9364584"><ele>827.0</ele><time>2026-04-11T17:20:11.401Z</time></trkpt><trkpt lat="37.646829" lon="-2.9363084"><ele>827.0</ele><time>2026-04-11T17:20:12.4Z</time></trkpt><trkpt lat="37.6470485" lon="-2.9361832"><ele>832.0</ele><time>2026-04-11T17:20:13.401Z</time></trkpt><trkpt lat="37.6472835" lon="-2.9360695"><ele>837.0</ele><time>2026-04-11T17:20:14.4Z</time></trkpt><trkpt lat="37.6475448" lon="-2.9359846"><ele>837.0</ele><time>2026-04-11T17:20:15.401Z</time></trkpt><trkpt lat="37.6477799" lon="-2.9359447"><ele>837.0</ele><time>2026-04-11T17:20:16.401Z</time></trkpt><trkpt lat="37.6480417" lon="-2.9359385"><ele>837.5</ele><time>2026-04-11T17:20:17.4Z</time></trkpt><trkpt lat="37.6482973" lon="-2.9359552"><ele>838.0</ele><time>2026-04-11T17:20:18.4Z</time></trkpt><trkpt lat="37.6485612" lon="-2.9359811"><ele>838.0</ele><time>2026-04-11T17:20:19.401Z</time></trkpt><trkpt lat="37.648822" lon="-2.9360021"><ele>838.0</ele><time>2026-04-11T17:20:20.401Z</time></trkpt><trkpt lat="37.6490848" lon="-2.9360046"><ele>838.0</ele><time>2026-04-11T17:20:21.4Z</time></trkpt><trkpt lat="37.6493472" lon="-2.9359824"><ele>838.0</ele><time>2026-04-11T17:20:22.401Z</time></trkpt><trkpt lat="37.649619" lon="-2.9359231"><ele>840.0</ele><time>2026-04-11T17:20:23.401Z</time></trkpt><trkpt lat="37.6498558" lon="-2.9358466"><ele>842.0</ele><time>2026-04-11T17:20:24.401Z</time></trkpt><trkpt lat="37.6501149" lon="-2.9357412"><ele>845.5</ele><time>2026-04-11T17:20:25.401Z</time></trkpt><trkpt lat="37.6503715" lon="-2.9356248"><ele>849.0</ele><time>2026-04-11T17:20:26.401Z</time></trkpt><trkpt lat="37.6505995" lon="-2.9355208"><ele>849.0</ele><time>2026-04-11T17:20:27.401Z</time></trkpt><trkpt lat="37.6508413" lon="-2.9354129"><ele>849.0</ele><time>2026-04-11T17:20:28.401Z</time></trkpt><trkpt lat="37.6510817" lon="-2.9353064"><ele>850.0</ele><time>2026-04-11T17:20:29.4Z</time></trkpt><trkpt lat="37.6513175" lon="-2.9352035"><ele>851.0</ele><time>2026-04-11T17:20:30.401Z</time></trkpt><trkpt lat="37.6515756" lon="-2.9350943"><ele>851.0</ele><time>2026-04-11T17:20:31.401Z</time></trkpt><trkpt lat="37.6518054" lon="-2.9350024"><ele>851.0</ele><time>2026-04-11T17:20:32.401Z</time></trkpt><trkpt lat="37.6520512" lon="-2.9349126"><ele>852.0</ele><time>2026-04-11T17:20:33.401Z</time></trkpt><trkpt lat="37.6522957" lon="-2.9348334"><ele>853.0</ele><time>2026-04-11T17:20:34.401Z</time></trkpt><trkpt lat="37.6525507" lon="-2.9347601"><ele>855.0</ele><time>2026-04-11T17:20:35.4Z</time></trkpt><trkpt lat="37.6528147" lon="-2.934695"><ele>857.0</ele><time>2026-04-11T17:20:36.401Z</time></trkpt><trkpt lat="37.65306" lon="-2.9346453"><ele>857.0</ele><time>2026-04-11T17:20:37.401Z</time></trkpt><trkpt lat="37.6533167" lon="-2.9346026"><ele>857.0</ele><time>2026-04-11T17:20:38.401Z</time></trkpt><trkpt lat="37.6535792" lon="-2.9345686"><ele>857.5</ele><time>2026-04-11T17:20:39.401Z</time></trkpt><trkpt lat="37.6538415" lon="-2.9345422"><ele>858.0</ele><time>2026-04-11T17:20:40.401Z</time></trkpt><trkpt lat="37.6540995" lon="-2.9345255"><ele>858.0</ele><time>2026-04-11T17:20:41.401Z</time></trkpt><trkpt lat="37.6543846" lon="-2.9345128"><ele>858.0</ele><time>2026-04-11T17:20:42.401Z</time></trkpt><trkpt lat="37.6546326" lon="-2.9345063"><ele>859.5</ele><time>2026-04-11T17:20:43.401Z</time></trkpt><trkpt lat="37.6548975" lon="-2.9345018"><ele>861.0</ele><time>2026-04-11T17:20:44.4Z</time></trkpt><trkpt lat="37.6551607" lon="-2.9344997"><ele>861.0</ele><time>2026-04-11T17:20:45.4Z</time></trkpt><trkpt lat="37.655416" lon="-2.9344991"><ele>861.0</ele><time>2026-04-11T17:20:46.401Z</time></trkpt><trkpt lat="37.6557011" lon="-2.9345"><ele>861.0</ele><time>2026-04-11T17:20:47.401Z</time></trkpt><trkpt lat="37.6559497" lon="-2.9345001"><ele>861.0</ele><time>2026-04-11T17:20:48.4Z</time></trkpt><trkpt lat="37.6562106" lon="-2.9345006"><ele>862.5</ele><time>2026-04-11T17:20:49.401Z</time></trkpt><trkpt lat="37.656476" lon="-2.9345003"><ele>864.0</ele><time>2026-04-11T17:20:50.401Z</time></trkpt><trkpt lat="37.6567439" lon="-2.9344998"><ele>864.5</ele><time>2026-04-11T17:20:51.401Z</time></trkpt><trkpt lat="37.6570173" lon="-2.9344984"><ele>865.0</ele><time>2026-04-11T17:20:52.401Z</time></trkpt><trkpt lat="37.6572824" lon="-2.9344973"><ele>865.0</ele><time>2026-04-11T17:20:53.4Z</time></trkpt><trkpt lat="37.6575505" lon="-2.9344959"><ele>865.0</ele><time>2026-04-11T17:20:54.401Z</time></trkpt><trkpt lat="37.6578182" lon="-2.9344962"><ele>866.0</ele><time>2026-04-11T17:20:55.401Z</time></trkpt><trkpt lat="37.6580827" lon="-2.9344977"><ele>867.0</ele><time>2026-04-11T17:20:56.401Z</time></trkpt><trkpt lat="37.6583509" lon="-2.9344937"><ele>867.5</ele><time>2026-04-11T17:20:57.4Z</time></trkpt><trkpt lat="37.6586267" lon="-2.9344719"><ele>868.0</ele><time>2026-04-11T17:20:58.401Z</time></trkpt><trkpt lat="37.6588768" lon="-2.9344301"><ele>868.0</ele><time>2026-04-11T17:20:59.401Z</time></trkpt><trkpt lat="37.6591382" lon="-2.9343629"><ele>868.0</ele><time>2026-04-11T17:21:00.401Z</time></trkpt><trkpt lat="37.6594009" lon="-2.9342756"><ele>869.0</ele><time>2026-04-11T17:21:01.401Z</time></trkpt><trkpt lat="37.6596651" lon="-2.9341789"><ele>870.0</ele><time>2026-04-11T17:21:02.4Z</time></trkpt><trkpt lat="37.6599452" lon="-2.934075"><ele>870.0</ele><time>2026-04-11T17:21:03.4Z</time></trkpt><trkpt lat="37.6602029" lon="-2.9339796"><ele>870.0</ele><time>2026-04-11T17:21:04.401Z</time></trkpt><trkpt lat="37.6604775" lon="-2.9338766"><ele>870.0</ele><time>2026-04-11T17:21:05.401Z</time></trkpt><trkpt lat="37.6607526" lon="-2.9337723"><ele>870.0</ele><time>2026-04-11T17:21:06.401Z</time></trkpt><trkpt lat="37.6610261" lon="-2.9336693"><ele>871.5</ele><time>2026-04-11T17:21:07.401Z</time></trkpt><trkpt lat="37.6613016" lon="-2.9335694"><ele>873.0</ele><time>2026-04-11T17:21:08.401Z</time></trkpt><trkpt lat="37.6615766" lon="-2.9334689"><ele>873.5</ele><time>2026-04-11T17:21:09.401Z</time></trkpt><trkpt lat="37.6618512" lon="-2.9333678"><ele>874.0</ele><time>2026-04-11T17:21:10.4Z</time></trkpt><trkpt lat="37.6621352" lon="-2.9332618"><ele>874.0</ele><time>2026-04-11T17:21:11.401Z</time></trkpt><trkpt lat="37.6623983" lon="-2.9331638"><ele>874.0</ele><time>2026-04-11T17:21:12.401Z</time></trkpt><trkpt lat="37.6626741" lon="-2.9330616"><ele>874.0</ele><time>2026-04-11T17:21:13.4Z</time></trkpt><trkpt lat="37.6629681" lon="-2.9329533"><ele>874.0</ele><time>2026-04-11T17:21:14.401Z</time></trkpt><trkpt lat="37.6632212" lon="-2.9328597"><ele>874.0</ele><time>2026-04-11T17:21:15.401Z</time></trkpt><trkpt lat="37.6635003" lon="-2.9327568"><ele>874.0</ele><time>2026-04-11T17:21:16.401Z</time></trkpt><trkpt lat="37.6637696" lon="-2.932656"><ele>875.0</ele><time>2026-04-11T17:21:17.401Z</time></trkpt><trkpt lat="37.6640435" lon="-2.932554"><ele>876.0</ele><time>2026-04-11T17:21:18.401Z</time></trkpt><trkpt lat="37.6643358" lon="-2.932446"><ele>876.5</ele><time>2026-04-11T17:21:19.4Z</time></trkpt><trkpt lat="37.6645885" lon="-2.932354"><ele>877.0</ele><time>2026-04-11T17:21:20.4Z</time></trkpt><trkpt lat="37.6648569" lon="-2.9322573"><ele>877.0</ele><time>2026-04-11T17:21:21.401Z</time></trkpt><trkpt lat="37.6651203" lon="-2.9321621"><ele>877.0</ele><time>2026-04-11T17:21:22.4Z</time></trkpt><trkpt lat="37.6653928" lon="-2.9320624"><ele>877.5</ele><time>2026-04-11T17:21:23.401Z</time></trkpt><trkpt lat="37.6656574" lon="-2.9319646"><ele>878.0</ele><time>2026-04-11T17:21:24.401Z</time></trkpt><trkpt lat="37.6659191" lon="-2.9318667"><ele>879.0</ele><time>2026-04-11T17:21:25.401Z</time></trkpt><trkpt lat="37.6661904" lon="-2.9317649"><ele>880.0</ele><time>2026-04-11T17:21:26.401Z</time></trkpt><trkpt lat="37.6664639" lon="-2.9316625"><ele>880.0</ele><time>2026-04-11T17:21:27.401Z</time></trkpt><trkpt lat="37.6667158" lon="-2.9315692"><ele>880.0</ele><time>2026-04-11T17:21:28.401Z</time></trkpt><trkpt lat="37.6669753" lon="-2.9314736"><ele>879.5</ele><time>2026-04-11T17:21:29.401Z</time></trkpt><trkpt lat="37.6672554" lon="-2.9313712"><ele>879.0</ele><time>2026-04-11T17:21:30.401Z</time></trkpt><trkpt lat="37.6674997" lon="-2.931281"><ele>878.5</ele><time>2026-04-11T17:21:31.4Z</time></trkpt><trkpt lat="37.6677788" lon="-2.9311775"><ele>878.0</ele><time>2026-04-11T17:21:32.401Z</time></trkpt><trkpt lat="37.6680333" lon="-2.931083"><ele>878.0</ele><time>2026-04-11T17:21:33.401Z</time></trkpt><trkpt lat="37.6683086" lon="-2.9309816"><ele>878.0</ele><time>2026-04-11T17:21:34.401Z</time></trkpt><trkpt lat="37.6685804" lon="-2.9308822"><ele>878.0</ele><time>2026-04-11T17:21:35.4Z</time></trkpt><trkpt lat="37.6688291" lon="-2.9307911"><ele>878.0</ele><time>2026-04-11T17:21:36.401Z</time></trkpt><trkpt lat="37.669092" lon="-2.9306957"><ele>878.0</ele><time>2026-04-11T17:21:37.401Z</time></trkpt><trkpt lat="37.6693592" lon="-2.9305968"><ele>878.0</ele><time>2026-04-11T17:21:38.401Z</time></trkpt><trkpt lat="37.6696292" lon="-2.9304963"><ele>877.5</ele><time>2026-04-11T17:21:39.401Z</time></trkpt><trkpt lat="37.6699142" lon="-2.9303896"><ele>877.0</ele><time>2026-04-11T17:21:40.401Z</time></trkpt><trkpt lat="37.6701769" lon="-2.9302925"><ele>877.5</ele><time>2026-04-11T17:21:41.4Z</time></trkpt><trkpt lat="37.6704522" lon="-2.9301922"><ele>878.0</ele><time>2026-04-11T17:21:42.401Z</time></trkpt><trkpt lat="37.6707375" lon="-2.930089"><ele>878.5</ele><time>2026-04-11T17:21:43.4Z</time></trkpt><trkpt lat="37.6709887" lon="-2.9299976"><ele>879.0</ele><time>2026-04-11T17:21:44.401Z</time></trkpt><trkpt lat="37.6712747" lon="-2.9298914"><ele>880.5</ele><time>2026-04-11T17:21:45.401Z</time></trkpt><trkpt lat="37.671548" lon="-2.9297892"><ele>882.0</ele><time>2026-04-11T17:21:46.401Z</time></trkpt><trkpt lat="37.6717919" lon="-2.9296965"><ele>881.5</ele><time>2026-04-11T17:21:47.401Z</time></trkpt><trkpt lat="37.6720619" lon="-2.9295944"><ele>881.0</ele><time>2026-04-11T17:21:48.401Z</time></trkpt><trkpt lat="37.6723257" lon="-2.9294973"><ele>881.0</ele><time>2026-04-11T17:21:49.401Z</time></trkpt><trkpt lat="37.6725999" lon="-2.9293995"><ele>881.0</ele><time>2026-04-11T17:21:50.401Z</time></trkpt><trkpt lat="37.6728918" lon="-2.929299"><ele>881.5</ele><time>2026-04-11T17:21:51.401Z</time></trkpt><trkpt lat="37.6731479" lon="-2.9292152"><ele>882.0</ele><time>2026-04-11T17:21:52.401Z</time></trkpt><trkpt lat="37.673427" lon="-2.9291277"><ele>883.0</ele><time>2026-04-11T17:21:53.401Z</time></trkpt><trkpt lat="37.6737017" lon="-2.9290441"><ele>884.0</ele><time>2026-04-11T17:21:54.401Z</time></trkpt><trkpt lat="37.6739791" lon="-2.9289593"><ele>884.0</ele><time>2026-04-11T17:21:55.401Z</time></trkpt><trkpt lat="37.674256" lon="-2.9288739"><ele>884.0</ele><time>2026-04-11T17:21:56.401Z</time></trkpt><trkpt lat="37.6745287" lon="-2.9287893"><ele>885.0</ele><time>2026-04-11T17:21:57.401Z</time></trkpt><trkpt lat="37.6748068" lon="-2.9287031"><ele>886.0</ele><time>2026-04-11T17:21:58.401Z</time></trkpt><trkpt lat="37.6750908" lon="-2.9286154"><ele>885.5</ele><time>2026-04-11T17:21:59.4Z</time></trkpt><trkpt lat="37.675354" lon="-2.9285346"><ele>885.0</ele><time>2026-04-11T17:22:00.401Z</time></trkpt><trkpt lat="37.6756298" lon="-2.9284519"><ele>885.0</ele><time>2026-04-11T17:22:01.4Z</time></trkpt><trkpt lat="37.6759208" lon="-2.9283662"><ele>885.0</ele><time>2026-04-11T17:22:02.401Z</time></trkpt><trkpt lat="37.6761752" lon="-2.9282912"><ele>885.0</ele><time>2026-04-11T17:22:03.401Z</time></trkpt><trkpt lat="37.6764664" lon="-2.9282041"><ele>885.0</ele><time>2026-04-11T17:22:04.4Z</time></trkpt><trkpt lat="37.6767231" lon="-2.9281257"><ele>886.5</ele><time>2026-04-11T17:22:05.4Z</time></trkpt><trkpt lat="37.6769895" lon="-2.9280443"><ele>888.0</ele><time>2026-04-11T17:22:06.401Z</time></trkpt><trkpt lat="37.6772739" lon="-2.9279575"><ele>888.0</ele><time>2026-04-11T17:22:07.401Z</time></trkpt><trkpt lat="37.6775175" lon="-2.9278832"><ele>888.0</ele><time>2026-04-11T17:22:08.4Z</time></trkpt><trkpt lat="37.6778" lon="-2.9277965"><ele>889.0</ele><time>2026-04-11T17:22:09.401Z</time></trkpt><trkpt lat="37.6780471" lon="-2.9277214"><ele>890.0</ele><time>2026-04-11T17:22:10.4Z</time></trkpt><trkpt lat="37.6783134" lon="-2.9276391"><ele>891.5</ele><time>2026-04-11T17:22:11.401Z</time></trkpt><trkpt lat="37.6785766" lon="-2.9275563"><ele>893.0</ele><time>2026-04-11T17:22:12.401Z</time></trkpt><trkpt lat="37.678839" lon="-2.9274722"><ele>894.5</ele><time>2026-04-11T17:22:13.401Z</time></trkpt><trkpt lat="37.6790976" lon="-2.9273887"><ele>896.0</ele><time>2026-04-11T17:22:14.401Z</time></trkpt><trkpt lat="37.6793729" lon="-2.9272994"><ele>896.5</ele><time>2026-04-11T17:22:15.4Z</time></trkpt><trkpt lat="37.6796217" lon="-2.9272244"><ele>897.0</ele><time>2026-04-11T17:22:16.401Z</time></trkpt><trkpt lat="37.6798851" lon="-2.9271672"><ele>897.0</ele><time>2026-04-11T17:22:17.4Z</time></trkpt><trkpt lat="37.6801701" lon="-2.9271354"><ele>897.0</ele><time>2026-04-11T17:22:18.401Z</time></trkpt><trkpt lat="37.680427" lon="-2.9271372"><ele>897.0</ele><time>2026-04-11T17:22:19.401Z</time></trkpt><trkpt lat="37.6809538" lon="-2.9271588"><ele>897.0</ele><time>2026-04-11T17:22:21.401Z</time></trkpt><trkpt lat="37.6812159" lon="-2.9271839"><ele>897.0</ele><time>2026-04-11T17:22:22.401Z</time></trkpt><trkpt lat="37.6814848" lon="-2.9272735"><ele>897.0</ele><time>2026-04-11T17:22:23.401Z</time></trkpt><trkpt lat="37.681745" lon="-2.9273612"><ele>897.0</ele><time>2026-04-11T17:22:24.401Z</time></trkpt><trkpt lat="37.6820046" lon="-2.9274283"><ele>898.5</ele><time>2026-04-11T17:22:25.401Z</time></trkpt><trkpt lat="37.6822579" lon="-2.9274928"><ele>900.0</ele><time>2026-04-11T17:22:26.401Z</time></trkpt><trkpt lat="37.6825171" lon="-2.9275537"><ele>901.0</ele><time>2026-04-11T17:22:27.401Z</time></trkpt><trkpt lat="37.6827863" lon="-2.927614"><ele>902.0</ele><time>2026-04-11T17:22:28.401Z</time></trkpt><trkpt lat="37.6830291" lon="-2.9276786"><ele>902.0</ele><time>2026-04-11T17:22:29.401Z</time></trkpt><trkpt lat="37.6832792" lon="-2.9277488"><ele>902.0</ele><time>2026-04-11T17:22:30.401Z</time></trkpt><trkpt lat="37.6835388" lon="-2.9278327"><ele>900.5</ele><time>2026-04-11T17:22:31.401Z</time></trkpt><trkpt lat="37.6837882" lon="-2.9279191"><ele>899.0</ele><time>2026-04-11T17:22:32.4Z</time></trkpt><trkpt lat="37.6840348" lon="-2.9280067"><ele>899.0</ele><time>2026-04-11T17:22:33.401Z</time></trkpt><trkpt lat="37.6842844" lon="-2.928096"><ele>899.0</ele><time>2026-04-11T17:22:34.401Z</time></trkpt><trkpt lat="37.6844932" lon="-2.9281711"><ele>899.0</ele><time>2026-04-11T17:22:35.401Z</time></trkpt><trkpt lat="37.6847091" lon="-2.9282475"><ele>899.0</ele><time>2026-04-11T17:22:36.401Z</time></trkpt><trkpt lat="37.6849163" lon="-2.9283204"><ele>899.0</ele><time>2026-04-11T17:22:37.401Z</time></trkpt><trkpt lat="37.6851223" lon="-2.9283941"><ele>898.6666666666667</ele><time>2026-04-11T17:22:38.401Z</time></trkpt><trkpt lat="37.6853267" lon="-2.9284664"><ele>898.3333333333333</ele><time>2026-04-11T17:22:39.401Z</time></trkpt><trkpt lat="37.685529" lon="-2.9285383"><ele>898.0</ele><time>2026-04-11T17:22:40.401Z</time></trkpt><trkpt lat="37.6857247" lon="-2.9286079"><ele>898.0</ele><time>2026-04-11T17:22:41.4Z</time></trkpt><trkpt lat="37.6859212" lon="-2.9286779"><ele>898.0</ele><time>2026-04-11T17:22:42.401Z</time></trkpt><trkpt lat="37.6861192" lon="-2.928748"><ele>898.0</ele><time>2026-04-11T17:22:43.401Z</time></trkpt><trkpt lat="37.6863096" lon="-2.9288149"><ele>898.3333333333333</ele><time>2026-04-11T17:22:44.401Z</time></trkpt><trkpt lat="37.6864945" lon="-2.9288797"><ele>898.6666666666667</ele><time>2026-04-11T17:22:45.401Z</time></trkpt><trkpt lat="37.686674" lon="-2.9289424"><ele>899.0</ele><time>2026-04-11T17:22:46.401Z</time></trkpt><trkpt lat="37.6868654" lon="-2.9290105"><ele>898.6666666666667</ele><time>2026-04-11T17:22:47.4Z</time></trkpt><trkpt lat="37.6870322" lon="-2.92907"><ele>898.3333333333333</ele><time>2026-04-11T17:22:48.401Z</time></trkpt><trkpt lat="37.6872081" lon="-2.9291341"><ele>898.0</ele><time>2026-04-11T17:22:49.401Z</time></trkpt><trkpt lat="37.6873912" lon="-2.929202"><ele>897.0</ele><time>2026-04-11T17:22:50.401Z</time></trkpt><trkpt lat="37.687561" lon="-2.9292699"><ele>896.0</ele><time>2026-04-11T17:22:51.4Z</time></trkpt><trkpt lat="37.6877498" lon="-2.9293552"><ele>895.0</ele><time>2026-04-11T17:22:52.4Z</time></trkpt><trkpt lat="37.687935" lon="-2.9294543"><ele>895.0</ele><time>2026-04-11T17:22:53.401Z</time></trkpt><trkpt lat="37.6881225" lon="-2.9295701"><ele>895.0</ele><time>2026-04-11T17:22:54.401Z</time></trkpt><trkpt lat="37.6883207" lon="-2.9297101"><ele>895.0</ele><time>2026-04-11T17:22:55.401Z</time></trkpt><trkpt lat="37.6884938" lon="-2.9298486"><ele>895.5</ele><time>2026-04-11T17:22:56.401Z</time></trkpt><trkpt lat="37.6886786" lon="-2.9300164"><ele>896.0</ele><time>2026-04-11T17:22:57.401Z</time></trkpt><trkpt lat="37.6888579" lon="-2.9302046"><ele>894.5</ele><time>2026-04-11T17:22:58.401Z</time></trkpt><trkpt lat="37.6890328" lon="-2.9304149"><ele>893.0</ele><time>2026-04-11T17:22:59.401Z</time></trkpt><trkpt lat="37.6891969" lon="-2.9306404"><ele>893.0</ele><time>2026-04-11T17:23:00.401Z</time></trkpt><trkpt lat="37.6893535" lon="-2.930888"><ele>893.0</ele><time>2026-04-11T17:23:01.401Z</time></trkpt><trkpt lat="37.6894976" lon="-2.9311503"><ele>891.0</ele><time>2026-04-11T17:23:02.4Z</time></trkpt><trkpt lat="37.68964" lon="-2.9314523"><ele>889.0</ele><time>2026-04-11T17:23:03.4Z</time></trkpt><trkpt lat="37.6897502" lon="-2.9317338"><ele>887.5</ele><time>2026-04-11T17:23:04.401Z</time></trkpt><trkpt lat="37.6898563" lon="-2.9320638"><ele>886.0</ele><time>2026-04-11T17:23:05.401Z</time></trkpt><trkpt lat="37.6899446" lon="-2.9323913"><ele>885.0</ele><time>2026-04-11T17:23:06.4Z</time></trkpt><trkpt lat="37.6900206" lon="-2.9327105"><ele>884.0</ele><time>2026-04-11T17:23:07.401Z</time></trkpt><trkpt lat="37.6901017" lon="-2.933063"><ele>882.0</ele><time>2026-04-11T17:23:08.4Z</time></trkpt><trkpt lat="37.6901787" lon="-2.933394"><ele>880.0</ele><time>2026-04-11T17:23:09.401Z</time></trkpt><trkpt lat="37.6902573" lon="-2.9337345"><ele>880.5</ele><time>2026-04-11T17:23:10.401Z</time></trkpt><trkpt lat="37.690341" lon="-2.9340996"><ele>881.0</ele><time>2026-04-11T17:23:11.401Z</time></trkpt><trkpt lat="37.6904136" lon="-2.9344196"><ele>879.5</ele><time>2026-04-11T17:23:12.401Z</time></trkpt><trkpt lat="37.6904904" lon="-2.9347566"><ele>878.0</ele><time>2026-04-11T17:23:13.4Z</time></trkpt><trkpt lat="37.6905677" lon="-2.9350959"><ele>876.5</ele><time>2026-04-11T17:23:14.401Z</time></trkpt><trkpt lat="37.6906436" lon="-2.935427"><ele>875.0</ele><time>2026-04-11T17:23:15.401Z</time></trkpt><trkpt lat="37.6907265" lon="-2.9357858"><ele>873.5</ele><time>2026-04-11T17:23:16.401Z</time></trkpt><trkpt lat="37.6908039" lon="-2.936106"><ele>872.0</ele><time>2026-04-11T17:23:17.401Z</time></trkpt><trkpt lat="37.6908906" lon="-2.9364293"><ele>870.5</ele><time>2026-04-11T17:23:18.401Z</time></trkpt><trkpt lat="37.6909979" lon="-2.9367739"><ele>869.0</ele><time>2026-04-11T17:23:19.401Z</time></trkpt><trkpt lat="37.6911052" lon="-2.9370752"><ele>867.0</ele><time>2026-04-11T17:23:20.401Z</time></trkpt><trkpt lat="37.6912375" lon="-2.9373953"><ele>865.0</ele><time>2026-04-11T17:23:21.401Z</time></trkpt><trkpt lat="37.6913873" lon="-2.9377022"><ele>862.5</ele><time>2026-04-11T17:23:22.401Z</time></trkpt><trkpt lat="37.6915348" lon="-2.9379649"><ele>860.0</ele><time>2026-04-11T17:23:23.401Z</time></trkpt><trkpt lat="37.6917096" lon="-2.9382437"><ele>857.0</ele><time>2026-04-11T17:23:24.401Z</time></trkpt><trkpt lat="37.6918934" lon="-2.9385077"><ele>854.0</ele><time>2026-04-11T17:23:25.401Z</time></trkpt><trkpt lat="37.6920883" lon="-2.9387575"><ele>853.0</ele><time>2026-04-11T17:23:26.4Z</time></trkpt><trkpt lat="37.6923017" lon="-2.9390166"><ele>852.0</ele><time>2026-04-11T17:23:27.401Z</time></trkpt><trkpt lat="37.6924864" lon="-2.9392319"><ele>848.0</ele><time>2026-04-11T17:23:28.401Z</time></trkpt><trkpt lat="37.6926758" lon="-2.93945"><ele>844.0</ele><time>2026-04-11T17:23:29.401Z</time></trkpt><trkpt lat="37.6928516" lon="-2.9396516"><ele>842.5</ele><time>2026-04-11T17:23:30.401Z</time></trkpt><trkpt lat="37.693027" lon="-2.9398518"><ele>841.0</ele><time>2026-04-11T17:23:31.401Z</time></trkpt><trkpt lat="37.6932036" lon="-2.9400512"><ele>840.0</ele><time>2026-04-11T17:23:32.4Z</time></trkpt><trkpt lat="37.6933598" lon="-2.9402223"><ele>839.0</ele><time>2026-04-11T17:23:33.4Z</time></trkpt><trkpt lat="37.6935261" lon="-2.9403952"><ele>838.0</ele><time>2026-04-11T17:23:34.401Z</time></trkpt><trkpt lat="37.6937103" lon="-2.9405725"><ele>838.0</ele><time>2026-04-11T17:23:35.401Z</time></trkpt><trkpt lat="37.6938771" lon="-2.9407216"><ele>838.0</ele><time>2026-04-11T17:23:36.401Z</time></trkpt><trkpt lat="37.694065" lon="-2.9408792"><ele>838.0</ele><time>2026-04-11T17:23:37.401Z</time></trkpt><trkpt lat="37.6942459" lon="-2.9410223"><ele>837.6666666666666</ele><time>2026-04-11T17:23:38.401Z</time></trkpt><trkpt lat="37.6944083" lon="-2.9411445"><ele>837.3333333333333</ele><time>2026-04-11T17:23:39.401Z</time></trkpt><trkpt lat="37.6945845" lon="-2.9412717"><ele>837.0</ele><time>2026-04-11T17:23:40.401Z</time></trkpt><trkpt lat="37.6947497" lon="-2.9413883"><ele>837.0</ele><time>2026-04-11T17:23:41.401Z</time></trkpt><trkpt lat="37.694895" lon="-2.9414868"><ele>837.0</ele><time>2026-04-11T17:23:42.401Z</time></trkpt><trkpt lat="37.6950301" lon="-2.9415789"><ele>837.0</ele><time>2026-04-11T17:23:43.401Z</time></trkpt><trkpt lat="37.6951381" lon="-2.9416519"><ele>837.0</ele><time>2026-04-11T17:23:44.401Z</time></trkpt><trkpt lat="37.6952513" lon="-2.9417286"><ele>836.8</ele><time>2026-04-11T17:23:45.401Z</time></trkpt><trkpt lat="37.6953387" lon="-2.9417872"><ele>836.6</ele><time>2026-04-11T17:23:46.4Z</time></trkpt><trkpt lat="37.695426" lon="-2.9418329"><ele>836.4</ele><time>2026-04-11T17:23:47.401Z</time></trkpt><trkpt lat="37.6955182" lon="-2.9418522"><ele>836.1999999999999</ele><time>2026-04-11T17:23:48.401Z</time></trkpt><trkpt lat="37.6956038" lon="-2.9418432"><ele>836.0</ele><time>2026-04-11T17:23:49.401Z</time></trkpt><trkpt lat="37.6956993" lon="-2.9418267"><ele>836.0</ele><time>2026-04-11T17:23:50.401Z</time></trkpt><trkpt lat="37.6958057" lon="-2.9418127"><ele>836.0</ele><time>2026-04-11T17:23:51.4Z</time></trkpt><trkpt lat="37.6959003" lon="-2.9418229"><ele>836.0</ele><time>2026-04-11T17:23:52.401Z</time></trkpt><trkpt lat="37.695996" lon="-2.9418733"><ele>836.0</ele><time>2026-04-11T17:23:53.401Z</time></trkpt><trkpt lat="37.6960708" lon="-2.9419597"><ele>836.0</ele><time>2026-04-11T17:23:54.401Z</time></trkpt><trkpt lat="37.6961239" lon="-2.9420663"><ele>836.5</ele><time>2026-04-11T17:23:55.401Z</time></trkpt><trkpt lat="37.6961776" lon="-2.9421896"><ele>837.0</ele><time>2026-04-11T17:23:56.401Z</time></trkpt><trkpt lat="37.696252" lon="-2.9423014"><ele>837.5</ele><time>2026-04-11T17:23:57.401Z</time></trkpt><trkpt lat="37.6963562" lon="-2.9423942"><ele>838.0</ele><time>2026-04-11T17:23:58.401Z</time></trkpt><trkpt lat="37.6964809" lon="-2.9424783"><ele>838.25</ele><time>2026-04-11T17:23:59.401Z</time></trkpt><trkpt lat="37.6966012" lon="-2.9425534"><ele>838.5</ele><time>2026-04-11T17:24:00.401Z</time></trkpt><trkpt lat="37.6967314" lon="-2.9426306"><ele>838.75</ele><time>2026-04-11T17:24:01.401Z</time></trkpt><trkpt lat="37.6968617" lon="-2.9427038"><ele>839.0</ele><time>2026-04-11T17:24:02.401Z</time></trkpt><trkpt lat="37.6969945" lon="-2.9427756"><ele>839.3333333333334</ele><time>2026-04-11T17:24:03.401Z</time></trkpt><trkpt lat="37.6971368" lon="-2.9428542"><ele>839.6666666666667</ele><time>2026-04-11T17:24:04.401Z</time></trkpt><trkpt lat="37.6972836" lon="-2.9429349"><ele>840.0</ele><time>2026-04-11T17:24:05.4Z</time></trkpt><trkpt lat="37.6974362" lon="-2.9430168"><ele>840.0</ele><time>2026-04-11T17:24:06.401Z</time></trkpt><trkpt lat="37.6976127" lon="-2.9431089"><ele>840.0</ele><time>2026-04-11T17:24:07.401Z</time></trkpt><trkpt lat="37.6977738" lon="-2.9431921"><ele>840.0</ele><time>2026-04-11T17:24:08.4Z</time></trkpt><trkpt lat="37.6979533" lon="-2.9432854"><ele>839.6666666666667</ele><time>2026-04-11T17:24:09.4Z</time></trkpt><trkpt lat="37.6981524" lon="-2.9433897"><ele>839.3333333333334</ele><time>2026-04-11T17:24:10.401Z</time></trkpt><trkpt lat="37.6983288" lon="-2.9434828"><ele>839.0</ele><time>2026-04-11T17:24:11.401Z</time></trkpt><trkpt lat="37.6985254" lon="-2.9435865"><ele>837.6666666666667</ele><time>2026-04-11T17:24:12.401Z</time></trkpt><trkpt lat="37.6987288" lon="-2.943692"><ele>836.3333333333333</ele><time>2026-04-11T17:24:13.401Z</time></trkpt><trkpt lat="37.6989401" lon="-2.9438003"><ele>835.0</ele><time>2026-04-11T17:24:14.401Z</time></trkpt><trkpt lat="37.6991716" lon="-2.9439202"><ele>835.0</ele><time>2026-04-11T17:24:15.401Z</time></trkpt><trkpt lat="37.6993813" lon="-2.9440286"><ele>835.0</ele><time>2026-04-11T17:24:16.4Z</time></trkpt><trkpt lat="37.6996254" lon="-2.9441544"><ele>831.0</ele><time>2026-04-11T17:24:17.401Z</time></trkpt><trkpt lat="37.6998543" lon="-2.9442707"><ele>827.0</ele><time>2026-04-11T17:24:18.401Z</time></trkpt><trkpt lat="37.7000996" lon="-2.944393"><ele>823.5</ele><time>2026-04-11T17:24:19.401Z</time></trkpt><trkpt lat="37.7003663" lon="-2.9445241"><ele>820.0</ele><time>2026-04-11T17:24:20.4Z</time></trkpt><trkpt lat="37.700624" lon="-2.9446525"><ele>820.0</ele><time>2026-04-11T17:24:21.401Z</time></trkpt><trkpt lat="37.7008945" lon="-2.9447886"><ele>820.0</ele><time>2026-04-11T17:24:22.4Z</time></trkpt><trkpt lat="37.7011801" lon="-2.944932"><ele>817.5</ele><time>2026-04-11T17:24:23.401Z</time></trkpt><trkpt lat="37.7014322" lon="-2.9450572"><ele>815.0</ele><time>2026-04-11T17:24:24.401Z</time></trkpt><trkpt lat="37.7017156" lon="-2.945197"><ele>815.0</ele><time>2026-04-11T17:24:25.401Z</time></trkpt><trkpt lat="37.7020135" lon="-2.9453434"><ele>815.0</ele><time>2026-04-11T17:24:26.401Z</time></trkpt><trkpt lat="37.7022776" lon="-2.9454735"><ele>815.0</ele><time>2026-04-11T17:24:27.401Z</time></trkpt><trkpt lat="37.7025696" lon="-2.9456181"><ele>815.0</ele><time>2026-04-11T17:24:28.401Z</time></trkpt><trkpt lat="37.7028373" lon="-2.9457508"><ele>815.0</ele><time>2026-04-11T17:24:29.4Z</time></trkpt><trkpt lat="37.7031198" lon="-2.945892"><ele>815.0</ele><time>2026-04-11T17:24:30.4Z</time></trkpt><trkpt lat="37.703416" lon="-2.9460427"><ele>815.0</ele><time>2026-04-11T17:24:31.4Z</time></trkpt><trkpt lat="37.7036819" lon="-2.9461811"><ele>815.0</ele><time>2026-04-11T17:24:32.401Z</time></trkpt><trkpt lat="37.7039728" lon="-2.9463346"><ele>815.0</ele><time>2026-04-11T17:24:33.401Z</time></trkpt><trkpt lat="37.7042358" lon="-2.9464731"><ele>815.0</ele><time>2026-04-11T17:24:34.401Z</time></trkpt><trkpt lat="37.704514" lon="-2.9466182"><ele>815.0</ele><time>2026-04-11T17:24:35.401Z</time></trkpt><trkpt lat="37.7048033" lon="-2.9467698"><ele>815.0</ele><time>2026-04-11T17:24:36.401Z</time></trkpt><trkpt lat="37.7050615" lon="-2.9469077"><ele>815.0</ele><time>2026-04-11T17:24:37.401Z</time></trkpt><trkpt lat="37.7053255" lon="-2.9470476"><ele>815.0</ele><time>2026-04-11T17:24:38.4Z</time></trkpt><trkpt lat="37.7056012" lon="-2.9471912"><ele>815.0</ele><time>2026-04-11T17:24:39.401Z</time></trkpt><trkpt lat="37.7058424" lon="-2.9473188"><ele>815.0</ele><time>2026-04-11T17:24:40.401Z</time></trkpt><trkpt lat="37.7061045" lon="-2.9474579"><ele>816.0</ele><time>2026-04-11T17:24:41.401Z</time></trkpt><trkpt lat="37.7063669" lon="-2.9475999"><ele>817.0</ele><time>2026-04-11T17:24:42.401Z</time></trkpt><trkpt lat="37.7065982" lon="-2.9477274"><ele>817.0</ele><time>2026-04-11T17:24:43.4Z</time></trkpt><trkpt lat="37.7068621" lon="-2.9478787"><ele>817.0</ele><time>2026-04-11T17:24:44.401Z</time></trkpt><trkpt lat="37.707089" lon="-2.9480205"><ele>817.5</ele><time>2026-04-11T17:24:45.401Z</time></trkpt><trkpt lat="37.7073262" lon="-2.9481865"><ele>818.0</ele><time>2026-04-11T17:24:46.401Z</time></trkpt><trkpt lat="37.7075709" lon="-2.9483821"><ele>817.0</ele><time>2026-04-11T17:24:47.401Z</time></trkpt><trkpt lat="37.7077761" lon="-2.948568"><ele>816.0</ele><time>2026-04-11T17:24:48.401Z</time></trkpt><trkpt lat="37.7079922" lon="-2.9487794"><ele>816.0</ele><time>2026-04-11T17:24:49.4Z</time></trkpt><trkpt lat="37.7082028" lon="-2.9489921"><ele>816.0</ele><time>2026-04-11T17:24:50.401Z</time></trkpt><trkpt lat="37.7084126" lon="-2.9492078"><ele>815.0</ele><time>2026-04-11T17:24:51.401Z</time></trkpt><trkpt lat="37.7086335" lon="-2.9494364"><ele>814.0</ele><time>2026-04-11T17:24:52.4Z</time></trkpt><trkpt lat="37.7088247" lon="-2.9496321"><ele>814.0</ele><time>2026-04-11T17:24:53.401Z</time></trkpt><trkpt lat="37.7090372" lon="-2.9498493"><ele>814.0</ele><time>2026-04-11T17:24:54.401Z</time></trkpt><trkpt lat="37.7092568" lon="-2.9500746"><ele>814.0</ele><time>2026-04-11T17:24:55.401Z</time></trkpt><trkpt lat="37.7094427" lon="-2.9502669"><ele>814.0</ele><time>2026-04-11T17:24:56.401Z</time></trkpt><trkpt lat="37.7096307" lon="-2.9504631"><ele>814.0</ele><time>2026-04-11T17:24:57.401Z</time></trkpt><trkpt lat="37.7098295" lon="-2.9506702"><ele>814.0</ele><time>2026-04-11T17:24:58.401Z</time></trkpt><trkpt lat="37.7099948" lon="-2.9508445"><ele>814.0</ele><time>2026-04-11T17:24:59.401Z</time></trkpt><trkpt lat="37.710177" lon="-2.9510441"><ele>814.0</ele><time>2026-04-11T17:25:00.4Z</time></trkpt><trkpt lat="37.7103482" lon="-2.9512454"><ele>812.5</ele><time>2026-04-11T17:25:01.401Z</time></trkpt><trkpt lat="37.7105153" lon="-2.9514614"><ele>811.0</ele><time>2026-04-11T17:25:02.401Z</time></trkpt><trkpt lat="37.710669" lon="-2.9516838"><ele>810.6666666666666</ele><time>2026-04-11T17:25:03.401Z</time></trkpt><trkpt lat="37.7107988" lon="-2.9518927"><ele>810.3333333333333</ele><time>2026-04-11T17:25:04.401Z</time></trkpt><trkpt lat="37.7109294" lon="-2.9521268"><ele>810.0</ele><time>2026-04-11T17:25:05.401Z</time></trkpt><trkpt lat="37.711046" lon="-2.9523556"><ele>810.3333333333333</ele><time>2026-04-11T17:25:06.401Z</time></trkpt><trkpt lat="37.7111518" lon="-2.9525864"><ele>810.6666666666666</ele><time>2026-04-11T17:25:07.4Z</time></trkpt><trkpt lat="37.7112432" lon="-2.9528058"><ele>811.0</ele><time>2026-04-11T17:25:08.4Z</time></trkpt><trkpt lat="37.7113187" lon="-2.9530031"><ele>811.0</ele><time>2026-04-11T17:25:09.401Z</time></trkpt><trkpt lat="37.7113838" lon="-2.9531827"><ele>811.0</ele><time>2026-04-11T17:25:10.401Z</time></trkpt><trkpt lat="37.7114429" lon="-2.9533471"><ele>811.0</ele><time>2026-04-11T17:25:11.401Z</time></trkpt><trkpt lat="37.7114908" lon="-2.9534728"><ele>811.0</ele><time>2026-04-11T17:25:12.401Z</time></trkpt><trkpt lat="37.7115402" lon="-2.9535901"><ele>810.8333333333333</ele><time>2026-04-11T17:25:13.401Z</time></trkpt><trkpt lat="37.7115814" lon="-2.9536778"><ele>810.6666666666666</ele><time>2026-04-11T17:25:14.4Z</time></trkpt><trkpt lat="37.7116398" lon="-2.9537856"><ele>810.5</ele><time>2026-04-11T17:25:16.401Z</time></trkpt><trkpt lat="37.7116841" lon="-2.9538583"><ele>810.3333333333333</ele><time>2026-04-11T17:25:18.401Z</time></trkpt><trkpt lat="37.7117408" lon="-2.9539423"><ele>810.1666666666666</ele><time>2026-04-11T17:25:21.386Z</time></trkpt><trkpt lat="37.7117835" lon="-2.9540375"><ele>810.0</ele><time>2026-04-11T17:25:23.398Z</time></trkpt><trkpt lat="37.7118263" lon="-2.9541734"><ele>809.6</ele><time>2026-04-11T17:25:25.39Z</time></trkpt><trkpt lat="37.7118503" lon="-2.9542855"><ele>809.2</ele><time>2026-04-11T17:25:27.39Z</time></trkpt><trkpt lat="37.7118625" lon="-2.9543852"><ele>808.8</ele><time>2026-04-11T17:25:29.39Z</time></trkpt><trkpt lat="37.7118715" lon="-2.9545472"><ele>808.4</ele><time>2026-04-11T17:25:31.39Z</time></trkpt><trkpt lat="37.7118944" lon="-2.954655"><ele>808.0</ele><time>2026-04-11T17:25:32.389Z</time></trkpt><trkpt lat="37.7119287" lon="-2.9547676"><ele>807.75</ele><time>2026-04-11T17:25:33.39Z</time></trkpt><trkpt lat="37.7119732" lon="-2.9548853"><ele>807.5</ele><time>2026-04-11T17:25:34.39Z</time></trkpt><trkpt lat="37.7120215" lon="-2.9550205"><ele>807.25</ele><time>2026-04-11T17:25:35.389Z</time></trkpt><trkpt lat="37.7120788" lon="-2.9551687"><ele>807.0</ele><time>2026-04-11T17:25:36.39Z</time></trkpt><trkpt lat="37.7121394" lon="-2.9553291"><ele>806.6666666666667</ele><time>2026-04-11T17:25:37.389Z</time></trkpt><trkpt lat="37.7122033" lon="-2.9555064"><ele>806.3333333333334</ele><time>2026-04-11T17:25:38.39Z</time></trkpt><trkpt lat="37.7122699" lon="-2.955687"><ele>806.0</ele><time>2026-04-11T17:25:39.39Z</time></trkpt><trkpt lat="37.7123403" lon="-2.9558791"><ele>806.0</ele><time>2026-04-11T17:25:40.39Z</time></trkpt><trkpt lat="37.7124156" lon="-2.9560821"><ele>806.0</ele><time>2026-04-11T17:25:41.39Z</time></trkpt><trkpt lat="37.7124965" lon="-2.9562947"><ele>806.0</ele><time>2026-04-11T17:25:42.39Z</time></trkpt><trkpt lat="37.7125758" lon="-2.9565213"><ele>805.6666666666667</ele><time>2026-04-11T17:25:43.39Z</time></trkpt><trkpt lat="37.7126583" lon="-2.9567539"><ele>805.3333333333333</ele><time>2026-04-11T17:25:44.39Z</time></trkpt><trkpt lat="37.7127405" lon="-2.9569917"><ele>805.0</ele><time>2026-04-11T17:25:45.39Z</time></trkpt><trkpt lat="37.712824" lon="-2.9572372"><ele>804.3333333333333</ele><time>2026-04-11T17:25:46.389Z</time></trkpt><trkpt lat="37.7129081" lon="-2.9574935"><ele>803.6666666666667</ele><time>2026-04-11T17:25:47.389Z</time></trkpt><trkpt lat="37.7129926" lon="-2.9577531"><ele>803.0</ele><time>2026-04-11T17:25:48.389Z</time></trkpt><trkpt lat="37.7130788" lon="-2.9580248"><ele>803.0</ele><time>2026-04-11T17:25:49.39Z</time></trkpt><trkpt lat="37.7131662" lon="-2.9583018"><ele>803.0</ele><time>2026-04-11T17:25:50.39Z</time></trkpt><trkpt lat="37.713257" lon="-2.9585775"><ele>802.5</ele><time>2026-04-11T17:25:51.39Z</time></trkpt><trkpt lat="37.7133452" lon="-2.958863"><ele>802.0</ele><time>2026-04-11T17:25:52.39Z</time></trkpt><trkpt lat="37.7134375" lon="-2.959153"><ele>801.5</ele><time>2026-04-11T17:25:53.39Z</time></trkpt><trkpt lat="37.7135304" lon="-2.959448"><ele>801.0</ele><time>2026-04-11T17:25:54.39Z</time></trkpt><trkpt lat="37.713625" lon="-2.9597512"><ele>800.5</ele><time>2026-04-11T17:25:55.39Z</time></trkpt><trkpt lat="37.7137233" lon="-2.9600487"><ele>800.0</ele><time>2026-04-11T17:25:56.39Z</time></trkpt><trkpt lat="37.7138205" lon="-2.960356"><ele>800.0</ele><time>2026-04-11T17:25:57.39Z</time></trkpt><trkpt lat="37.7139166" lon="-2.960664"><ele>800.0</ele><time>2026-04-11T17:25:58.39Z</time></trkpt><trkpt lat="37.7140166" lon="-2.9609799"><ele>799.0</ele><time>2026-04-11T17:25:59.39Z</time></trkpt><trkpt lat="37.7141174" lon="-2.9612885"><ele>798.0</ele><time>2026-04-11T17:26:00.39Z</time></trkpt><trkpt lat="37.7142171" lon="-2.9616008"><ele>797.5</ele><time>2026-04-11T17:26:01.39Z</time></trkpt><trkpt lat="37.7143195" lon="-2.9619167"><ele>797.0</ele><time>2026-04-11T17:26:02.39Z</time></trkpt><trkpt lat="37.714422" lon="-2.9622344"><ele>795.5</ele><time>2026-04-11T17:26:03.39Z</time></trkpt><trkpt lat="37.7145199" lon="-2.9625564"><ele>794.0</ele><time>2026-04-11T17:26:04.39Z</time></trkpt><trkpt lat="37.7146213" lon="-2.9628802"><ele>794.0</ele><time>2026-04-11T17:26:05.389Z</time></trkpt><trkpt lat="37.7147211" lon="-2.9632027"><ele>794.0</ele><time>2026-04-11T17:26:06.39Z</time></trkpt><trkpt lat="37.7148234" lon="-2.9635316"><ele>793.5</ele><time>2026-04-11T17:26:07.39Z</time></trkpt><trkpt lat="37.7149281" lon="-2.963857"><ele>793.0</ele><time>2026-04-11T17:26:08.389Z</time></trkpt><trkpt lat="37.7150314" lon="-2.9641857"><ele>792.5</ele><time>2026-04-11T17:26:09.39Z</time></trkpt><trkpt lat="37.7151351" lon="-2.9645159"><ele>792.0</ele><time>2026-04-11T17:26:10.39Z</time></trkpt><trkpt lat="37.7152357" lon="-2.9648475"><ele>792.5</ele><time>2026-04-11T17:26:11.389Z</time></trkpt><trkpt lat="37.7153358" lon="-2.9651739"><ele>793.0</ele><time>2026-04-11T17:26:12.39Z</time></trkpt><trkpt lat="37.7154347" lon="-2.9655007"><ele>793.0</ele><time>2026-04-11T17:26:13.39Z</time></trkpt><trkpt lat="37.7155365" lon="-2.9658267"><ele>793.0</ele><time>2026-04-11T17:26:14.39Z</time></trkpt><trkpt lat="37.7156347" lon="-2.9661498"><ele>791.5</ele><time>2026-04-11T17:26:15.39Z</time></trkpt><trkpt lat="37.7157341" lon="-2.9664734"><ele>790.0</ele><time>2026-04-11T17:26:16.389Z</time></trkpt><trkpt lat="37.7158325" lon="-2.9667918"><ele>789.0</ele><time>2026-04-11T17:26:17.39Z</time></trkpt><trkpt lat="37.7159329" lon="-2.9671095"><ele>788.0</ele><time>2026-04-11T17:26:18.39Z</time></trkpt><trkpt lat="37.7160321" lon="-2.9674296"><ele>787.5</ele><time>2026-04-11T17:26:19.39Z</time></trkpt><trkpt lat="37.7161297" lon="-2.9677516"><ele>787.0</ele><time>2026-04-11T17:26:20.389Z</time></trkpt><trkpt lat="37.7162259" lon="-2.9680802"><ele>787.5</ele><time>2026-04-11T17:26:21.39Z</time></trkpt><trkpt lat="37.7163197" lon="-2.9684108"><ele>788.0</ele><time>2026-04-11T17:26:22.39Z</time></trkpt><trkpt lat="37.716412" lon="-2.9687457"><ele>788.0</ele><time>2026-04-11T17:26:23.39Z</time></trkpt><trkpt lat="37.7164996" lon="-2.9690824"><ele>788.0</ele><time>2026-04-11T17:26:24.389Z</time></trkpt><trkpt lat="37.7165877" lon="-2.9694103"><ele>786.5</ele><time>2026-04-11T17:26:25.389Z</time></trkpt><trkpt lat="37.716677" lon="-2.9697555"><ele>785.0</ele><time>2026-04-11T17:26:26.39Z</time></trkpt><trkpt lat="37.7167449" lon="-2.9700905"><ele>785.0</ele><time>2026-04-11T17:26:27.39Z</time></trkpt><trkpt lat="37.7167915" lon="-2.9704387"><ele>785.0</ele><time>2026-04-11T17:26:28.39Z</time></trkpt><trkpt lat="37.716808" lon="-2.9707897"><ele>783.5</ele><time>2026-04-11T17:26:29.389Z</time></trkpt><trkpt lat="37.7167967" lon="-2.9711477"><ele>782.0</ele><time>2026-04-11T17:26:30.39Z</time></trkpt><trkpt lat="37.7167633" lon="-2.9715086"><ele>780.0</ele><time>2026-04-11T17:26:31.39Z</time></trkpt><trkpt lat="37.7167277" lon="-2.9718693"><ele>778.0</ele><time>2026-04-11T17:26:32.39Z</time></trkpt><trkpt lat="37.7167122" lon="-2.9722259"><ele>779.0</ele><time>2026-04-11T17:26:33.389Z</time></trkpt><trkpt lat="37.7166777" lon="-2.9725896"><ele>780.0</ele><time>2026-04-11T17:26:34.389Z</time></trkpt><trkpt lat="37.7166432" lon="-2.9729537"><ele>780.0</ele><time>2026-04-11T17:26:35.39Z</time></trkpt><trkpt lat="37.7166168" lon="-2.973314"><ele>780.0</ele><time>2026-04-11T17:26:36.39Z</time></trkpt><trkpt lat="37.7165831" lon="-2.9736788"><ele>779.5</ele><time>2026-04-11T17:26:37.389Z</time></trkpt><trkpt lat="37.7165532" lon="-2.9740429"><ele>779.0</ele><time>2026-04-11T17:26:38.39Z</time></trkpt><trkpt lat="37.7165138" lon="-2.974407"><ele>777.0</ele><time>2026-04-11T17:26:39.39Z</time></trkpt><trkpt lat="37.7164891" lon="-2.9747678"><ele>775.0</ele><time>2026-04-11T17:26:40.39Z</time></trkpt><trkpt lat="37.7164538" lon="-2.9751268"><ele>774.0</ele><time>2026-04-11T17:26:41.39Z</time></trkpt><trkpt lat="37.7164227" lon="-2.9754832"><ele>773.0</ele><time>2026-04-11T17:26:42.39Z</time></trkpt><trkpt lat="37.7163929" lon="-2.9758408"><ele>770.5</ele><time>2026-04-11T17:26:43.39Z</time></trkpt><trkpt lat="37.7163504" lon="-2.9762033"><ele>768.0</ele><time>2026-04-11T17:26:44.39Z</time></trkpt><trkpt lat="37.7163161" lon="-2.9765585"><ele>767.5</ele><time>2026-04-11T17:26:45.39Z</time></trkpt><trkpt lat="37.716282" lon="-2.9769126"><ele>767.0</ele><time>2026-04-11T17:26:46.39Z</time></trkpt><trkpt lat="37.7162405" lon="-2.9772674"><ele>766.0</ele><time>2026-04-11T17:26:47.39Z</time></trkpt><trkpt lat="37.7161935" lon="-2.9776209"><ele>765.0</ele><time>2026-04-11T17:26:48.39Z</time></trkpt><trkpt lat="37.7161319" lon="-2.9779747"><ele>772.0</ele><time>2026-04-11T17:26:49.39Z</time></trkpt><trkpt lat="37.7160633" lon="-2.9783235"><ele>779.0</ele><time>2026-04-11T17:26:50.39Z</time></trkpt><trkpt lat="37.7159877" lon="-2.9786676"><ele>779.0</ele><time>2026-04-11T17:26:51.39Z</time></trkpt><trkpt lat="37.7159079" lon="-2.9790111"><ele>779.0</ele><time>2026-04-11T17:26:52.39Z</time></trkpt><trkpt lat="37.715819" lon="-2.9793471"><ele>777.5</ele><time>2026-04-11T17:26:53.39Z</time></trkpt><trkpt lat="37.7157258" lon="-2.9796799"><ele>776.0</ele><time>2026-04-11T17:26:54.39Z</time></trkpt><trkpt lat="37.7156198" lon="-2.9800083"><ele>775.0</ele><time>2026-04-11T17:26:55.39Z</time></trkpt><trkpt lat="37.7155062" lon="-2.9803319"><ele>774.0</ele><time>2026-04-11T17:26:56.39Z</time></trkpt><trkpt lat="37.7153797" lon="-2.9806542"><ele>775.0</ele><time>2026-04-11T17:26:57.39Z</time></trkpt><trkpt lat="37.7152463" lon="-2.9809796"><ele>776.0</ele><time>2026-04-11T17:26:58.39Z</time></trkpt><trkpt lat="37.7151092" lon="-2.9813025"><ele>777.0</ele><time>2026-04-11T17:26:59.39Z</time></trkpt><trkpt lat="37.714965" lon="-2.9816262"><ele>778.0</ele><time>2026-04-11T17:27:00.39Z</time></trkpt><trkpt lat="37.7148193" lon="-2.9819441"><ele>778.0</ele><time>2026-04-11T17:27:01.39Z</time></trkpt><trkpt lat="37.7146781" lon="-2.9822545"><ele>778.0</ele><time>2026-04-11T17:27:02.39Z</time></trkpt><trkpt lat="37.714537" lon="-2.982563"><ele>774.5</ele><time>2026-04-11T17:27:03.39Z</time></trkpt><trkpt lat="37.7143919" lon="-2.9828655"><ele>771.0</ele><time>2026-04-11T17:27:04.39Z</time></trkpt><trkpt lat="37.7142588" lon="-2.9831688"><ele>772.0</ele><time>2026-04-11T17:27:05.389Z</time></trkpt><trkpt lat="37.7141126" lon="-2.9834607"><ele>773.0</ele><time>2026-04-11T17:27:06.39Z</time></trkpt><trkpt lat="37.7139897" lon="-2.9837507"><ele>773.0</ele><time>2026-04-11T17:27:07.39Z</time></trkpt><trkpt lat="37.7138668" lon="-2.98404"><ele>773.0</ele><time>2026-04-11T17:27:08.389Z</time></trkpt><trkpt lat="37.7137422" lon="-2.9843286"><ele>773.0</ele><time>2026-04-11T17:27:09.39Z</time></trkpt><trkpt lat="37.7136145" lon="-2.984612"><ele>773.0</ele><time>2026-04-11T17:27:10.39Z</time></trkpt><trkpt lat="37.7134893" lon="-2.9848939"><ele>771.5</ele><time>2026-04-11T17:27:11.389Z</time></trkpt><trkpt lat="37.7133651" lon="-2.9851761"><ele>770.0</ele><time>2026-04-11T17:27:12.39Z</time></trkpt><trkpt lat="37.7132391" lon="-2.9854557"><ele>770.0</ele><time>2026-04-11T17:27:13.39Z</time></trkpt><trkpt lat="37.7131129" lon="-2.9857367"><ele>770.0</ele><time>2026-04-11T17:27:14.39Z</time></trkpt><trkpt lat="37.7129854" lon="-2.9860138"><ele>769.0</ele><time>2026-04-11T17:27:15.39Z</time></trkpt><trkpt lat="37.7128612" lon="-2.9862946"><ele>768.0</ele><time>2026-04-11T17:27:16.39Z</time></trkpt><trkpt lat="37.712739" lon="-2.9865707"><ele>767.5</ele><time>2026-04-11T17:27:17.389Z</time></trkpt><trkpt lat="37.7126117" lon="-2.986848"><ele>767.0</ele><time>2026-04-11T17:27:18.39Z</time></trkpt><trkpt lat="37.7124888" lon="-2.9871236"><ele>767.0</ele><time>2026-04-11T17:27:19.39Z</time></trkpt><trkpt lat="37.7123656" lon="-2.9873947"><ele>767.0</ele><time>2026-04-11T17:27:20.39Z</time></trkpt><trkpt lat="37.7122424" lon="-2.9876674"><ele>766.0</ele><time>2026-04-11T17:27:21.39Z</time></trkpt><trkpt lat="37.7121228" lon="-2.9879429"><ele>765.0</ele><time>2026-04-11T17:27:22.389Z</time></trkpt><trkpt lat="37.7119991" lon="-2.9882184"><ele>765.0</ele><time>2026-04-11T17:27:23.389Z</time></trkpt><trkpt lat="37.7118785" lon="-2.9884984"><ele>765.0</ele><time>2026-04-11T17:27:24.389Z</time></trkpt><trkpt lat="37.7117557" lon="-2.9887811"><ele>765.0</ele><time>2026-04-11T17:27:25.39Z</time></trkpt><trkpt lat="37.7116357" lon="-2.9890641"><ele>765.0</ele><time>2026-04-11T17:27:26.39Z</time></trkpt><trkpt lat="37.7115194" lon="-2.9893538"><ele>760.0</ele><time>2026-04-11T17:27:27.39Z</time></trkpt><trkpt lat="37.7114142" lon="-2.9896496"><ele>755.0</ele><time>2026-04-11T17:27:28.39Z</time></trkpt><trkpt lat="37.7113235" lon="-2.9899521"><ele>748.5</ele><time>2026-04-11T17:27:29.39Z</time></trkpt><trkpt lat="37.7112261" lon="-2.9902538"><ele>742.0</ele><time>2026-04-11T17:27:30.39Z</time></trkpt><trkpt lat="37.7111371" lon="-2.9905591"><ele>735.5</ele><time>2026-04-11T17:27:31.39Z</time></trkpt><trkpt lat="37.7111004" lon="-2.9908833"><ele>729.0</ele><time>2026-04-11T17:27:32.39Z</time></trkpt><trkpt lat="37.711084" lon="-2.991209"><ele>729.0</ele><time>2026-04-11T17:27:33.39Z</time></trkpt><trkpt lat="37.7110842" lon="-2.9915273"><ele>729.0</ele><time>2026-04-11T17:27:34.39Z</time></trkpt><trkpt lat="37.7111096" lon="-2.9918527"><ele>733.5</ele><time>2026-04-11T17:27:35.39Z</time></trkpt><trkpt lat="37.7111412" lon="-2.9921719"><ele>738.0</ele><time>2026-04-11T17:27:36.39Z</time></trkpt><trkpt lat="37.71117" lon="-2.9924914"><ele>741.0</ele><time>2026-04-11T17:27:37.39Z</time></trkpt><trkpt lat="37.7111856" lon="-2.9928124"><ele>744.0</ele><time>2026-04-11T17:27:38.39Z</time></trkpt><trkpt lat="37.7112104" lon="-2.9931335"><ele>737.0</ele><time>2026-04-11T17:27:39.389Z</time></trkpt><trkpt lat="37.711212" lon="-2.9934615"><ele>730.0</ele><time>2026-04-11T17:27:40.39Z</time></trkpt><trkpt lat="37.7111865" lon="-2.9937705"><ele>730.0</ele><time>2026-04-11T17:27:41.39Z</time></trkpt><trkpt lat="37.7111811" lon="-2.9941322"><ele>730.0</ele><time>2026-04-11T17:27:42.389Z</time></trkpt><trkpt lat="37.7111369" lon="-2.9944612"><ele>717.0</ele><time>2026-04-11T17:27:43.39Z</time></trkpt><trkpt lat="37.7110848" lon="-2.9947884"><ele>704.0</ele><time>2026-04-11T17:27:44.39Z</time></trkpt><trkpt lat="37.71103" lon="-2.9951185"><ele>703.0</ele><time>2026-04-11T17:27:45.39Z</time></trkpt><trkpt lat="37.7109704" lon="-2.9954485"><ele>702.0</ele><time>2026-04-11T17:27:46.39Z</time></trkpt><trkpt lat="37.710905" lon="-2.9957841"><ele>700.0</ele><time>2026-04-11T17:27:47.39Z</time></trkpt><trkpt lat="37.7108329" lon="-2.9961244"><ele>698.0</ele><time>2026-04-11T17:27:48.39Z</time></trkpt><trkpt lat="37.7107604" lon="-2.9964588"><ele>691.0</ele><time>2026-04-11T17:27:49.39Z</time></trkpt><trkpt lat="37.710684" lon="-2.9967934"><ele>684.0</ele><time>2026-04-11T17:27:50.39Z</time></trkpt><trkpt lat="37.7106049" lon="-2.9971208"><ele>684.0</ele><time>2026-04-11T17:27:51.39Z</time></trkpt><trkpt lat="37.7105139" lon="-2.9974513"><ele>684.0</ele><time>2026-04-11T17:27:52.39Z</time></trkpt><trkpt lat="37.7104073" lon="-2.9977812"><ele>683.0</ele><time>2026-04-11T17:27:53.39Z</time></trkpt><trkpt lat="37.7103083" lon="-2.9981085"><ele>682.0</ele><time>2026-04-11T17:27:54.39Z</time></trkpt><trkpt lat="37.7101964" lon="-2.99843"><ele>682.0</ele><time>2026-04-11T17:27:55.39Z</time></trkpt><trkpt lat="37.710092" lon="-2.9987412"><ele>682.0</ele><time>2026-04-11T17:27:56.39Z</time></trkpt><trkpt lat="37.7099868" lon="-2.9990444"><ele>685.0</ele><time>2026-04-11T17:27:57.39Z</time></trkpt><trkpt lat="37.7098821" lon="-2.9993452"><ele>688.0</ele><time>2026-04-11T17:27:58.389Z</time></trkpt><trkpt lat="37.7097673" lon="-2.9996402"><ele>688.0</ele><time>2026-04-11T17:27:59.389Z</time></trkpt><trkpt lat="37.7096599" lon="-2.9999344"><ele>688.0</ele><time>2026-04-11T17:28:00.389Z</time></trkpt><trkpt lat="37.7095439" lon="-3.0002331"><ele>688.0</ele><time>2026-04-11T17:28:01.39Z</time></trkpt><trkpt lat="37.7094299" lon="-3.0005297"><ele>688.0</ele><time>2026-04-11T17:28:02.39Z</time></trkpt><trkpt lat="37.7093141" lon="-3.0008249"><ele>686.5</ele><time>2026-04-11T17:28:03.39Z</time></trkpt><trkpt lat="37.7091987" lon="-3.0011255"><ele>685.0</ele><time>2026-04-11T17:28:04.39Z</time></trkpt><trkpt lat="37.7090892" lon="-3.0014324"><ele>685.5</ele><time>2026-04-11T17:28:05.39Z</time></trkpt><trkpt lat="37.7089887" lon="-3.0017475"><ele>686.0</ele><time>2026-04-11T17:28:06.39Z</time></trkpt><trkpt lat="37.7089063" lon="-3.0020708"><ele>686.0</ele><time>2026-04-11T17:28:07.39Z</time></trkpt><trkpt lat="37.7088345" lon="-3.0023995"><ele>686.0</ele><time>2026-04-11T17:28:08.389Z</time></trkpt><trkpt lat="37.7087815" lon="-3.0027319"><ele>688.0</ele><time>2026-04-11T17:28:09.389Z</time></trkpt><trkpt lat="37.7087283" lon="-3.0030727"><ele>690.0</ele><time>2026-04-11T17:28:10.39Z</time></trkpt><trkpt lat="37.7086868" lon="-3.0034102"><ele>694.5</ele><time>2026-04-11T17:28:11.389Z</time></trkpt><trkpt lat="37.7086467" lon="-3.003753"><ele>699.0</ele><time>2026-04-11T17:28:12.39Z</time></trkpt><trkpt lat="37.7086072" lon="-3.0040976"><ele>687.0</ele><time>2026-04-11T17:28:13.39Z</time></trkpt><trkpt lat="37.7085648" lon="-3.0044354"><ele>675.0</ele><time>2026-04-11T17:28:14.39Z</time></trkpt><trkpt lat="37.7085205" lon="-3.0047712"><ele>674.5</ele><time>2026-04-11T17:28:15.39Z</time></trkpt><trkpt lat="37.7084773" lon="-3.005104"><ele>674.0</ele><time>2026-04-11T17:28:16.39Z</time></trkpt><trkpt lat="37.7084283" lon="-3.0054331"><ele>674.0</ele><time>2026-04-11T17:28:17.389Z</time></trkpt><trkpt lat="37.7083677" lon="-3.0057582"><ele>674.0</ele><time>2026-04-11T17:28:18.39Z</time></trkpt><trkpt lat="37.7083097" lon="-3.0060904"><ele>681.0</ele><time>2026-04-11T17:28:19.39Z</time></trkpt><trkpt lat="37.7082171" lon="-3.0064038"><ele>688.0</ele><time>2026-04-11T17:28:20.39Z</time></trkpt><trkpt lat="37.7081076" lon="-3.0067162"><ele>691.0</ele><time>2026-04-11T17:28:21.389Z</time></trkpt><trkpt lat="37.7079918" lon="-3.0070234"><ele>694.0</ele><time>2026-04-11T17:28:22.389Z</time></trkpt><trkpt lat="37.7078635" lon="-3.0073184"><ele>696.0</ele><time>2026-04-11T17:28:23.39Z</time></trkpt><trkpt lat="37.7077286" lon="-3.0076042"><ele>698.0</ele><time>2026-04-11T17:28:24.39Z</time></trkpt><trkpt lat="37.7075918" lon="-3.0078838"><ele>698.0</ele><time>2026-04-11T17:28:25.39Z</time></trkpt><trkpt lat="37.7074595" lon="-3.0081731"><ele>698.0</ele><time>2026-04-11T17:28:26.39Z</time></trkpt><trkpt lat="37.7073494" lon="-3.0084667"><ele>704.5</ele><time>2026-04-11T17:28:27.39Z</time></trkpt><trkpt lat="37.7072552" lon="-3.0087651"><ele>711.0</ele><time>2026-04-11T17:28:28.389Z</time></trkpt><trkpt lat="37.7071929" lon="-3.0090801"><ele>714.0</ele><time>2026-04-11T17:28:29.389Z</time></trkpt><trkpt lat="37.7071589" lon="-3.0093994"><ele>717.0</ele><time>2026-04-11T17:28:30.389Z</time></trkpt><trkpt lat="37.7071547" lon="-3.009719"><ele>723.0</ele><time>2026-04-11T17:28:31.39Z</time></trkpt><trkpt lat="37.7071887" lon="-3.0100429"><ele>729.0</ele><time>2026-04-11T17:28:32.389Z</time></trkpt><trkpt lat="37.707249" lon="-3.0103696"><ele>729.0</ele><time>2026-04-11T17:28:33.39Z</time></trkpt><trkpt lat="37.7073258" lon="-3.0106794"><ele>729.0</ele><time>2026-04-11T17:28:34.389Z</time></trkpt><trkpt lat="37.7074034" lon="-3.0109851"><ele>724.5</ele><time>2026-04-11T17:28:35.39Z</time></trkpt><trkpt lat="37.7074705" lon="-3.0112778"><ele>720.0</ele><time>2026-04-11T17:28:36.39Z</time></trkpt><trkpt lat="37.7075257" lon="-3.0115721"><ele>714.5</ele><time>2026-04-11T17:28:37.39Z</time></trkpt><trkpt lat="37.7075599" lon="-3.0118771"><ele>709.0</ele><time>2026-04-11T17:28:38.39Z</time></trkpt><trkpt lat="37.7075593" lon="-3.0121933"><ele>703.5</ele><time>2026-04-11T17:28:39.389Z</time></trkpt><trkpt lat="37.7075171" lon="-3.0124995"><ele>698.0</ele><time>2026-04-11T17:28:40.39Z</time></trkpt><trkpt lat="37.7074494" lon="-3.0128007"><ele>698.0</ele><time>2026-04-11T17:28:41.39Z</time></trkpt><trkpt lat="37.7073572" lon="-3.0130738"><ele>698.0</ele><time>2026-04-11T17:28:42.39Z</time></trkpt><trkpt lat="37.7072447" lon="-3.0133215"><ele>696.0</ele><time>2026-04-11T17:28:43.39Z</time></trkpt><trkpt lat="37.707107" lon="-3.0135526"><ele>694.0</ele><time>2026-04-11T17:28:44.39Z</time></trkpt><trkpt lat="37.7069424" lon="-3.0137615"><ele>692.5</ele><time>2026-04-11T17:28:45.39Z</time></trkpt><trkpt lat="37.7067528" lon="-3.0139417"><ele>691.0</ele><time>2026-04-11T17:28:46.39Z</time></trkpt><trkpt lat="37.7065473" lon="-3.0140953"><ele>683.0</ele><time>2026-04-11T17:28:47.389Z</time></trkpt><trkpt lat="37.7063077" lon="-3.0142102"><ele>675.0</ele><time>2026-04-11T17:28:48.39Z</time></trkpt><trkpt lat="37.7060666" lon="-3.0143265"><ele>675.0</ele><time>2026-04-11T17:28:49.39Z</time></trkpt><trkpt lat="37.7058238" lon="-3.0144403"><ele>675.0</ele><time>2026-04-11T17:28:50.39Z</time></trkpt><trkpt lat="37.7055765" lon="-3.0145532"><ele>675.0</ele><time>2026-04-11T17:28:51.39Z</time></trkpt><trkpt lat="37.7053319" lon="-3.0146655"><ele>675.0</ele><time>2026-04-11T17:28:52.39Z</time></trkpt><trkpt lat="37.7050862" lon="-3.0147838"><ele>673.5</ele><time>2026-04-11T17:28:53.39Z</time></trkpt><trkpt lat="37.7048393" lon="-3.0148943"><ele>672.0</ele><time>2026-04-11T17:28:54.39Z</time></trkpt><trkpt lat="37.7046004" lon="-3.0149999"><ele>661.0</ele><time>2026-04-11T17:28:55.389Z</time></trkpt><trkpt lat="37.7043715" lon="-3.0150999"><ele>650.0</ele><time>2026-04-11T17:28:56.39Z</time></trkpt><trkpt lat="37.7041446" lon="-3.0151994"><ele>650.0</ele><time>2026-04-11T17:28:57.39Z</time></trkpt><trkpt lat="37.7039255" lon="-3.0153044"><ele>650.0</ele><time>2026-04-11T17:28:58.389Z</time></trkpt><trkpt lat="37.7037123" lon="-3.0154052"><ele>651.3333333333333</ele><time>2026-04-11T17:28:59.39Z</time></trkpt><trkpt lat="37.7035079" lon="-3.0155113"><ele>652.6666666666666</ele><time>2026-04-11T17:29:00.39Z</time></trkpt><trkpt lat="37.7033083" lon="-3.015633"><ele>654.0</ele><time>2026-04-11T17:29:01.39Z</time></trkpt><trkpt lat="37.7031189" lon="-3.0157771"><ele>652.0</ele><time>2026-04-11T17:29:02.389Z</time></trkpt><trkpt lat="37.7029408" lon="-3.0159369"><ele>650.0</ele><time>2026-04-11T17:29:03.389Z</time></trkpt><trkpt lat="37.7027712" lon="-3.0161273"><ele>648.0</ele><time>2026-04-11T17:29:04.39Z</time></trkpt><trkpt lat="37.7026175" lon="-3.0163413"><ele>648.0</ele><time>2026-04-11T17:29:05.39Z</time></trkpt><trkpt lat="37.7024791" lon="-3.0165683"><ele>648.0</ele><time>2026-04-11T17:29:06.39Z</time></trkpt><trkpt lat="37.7023603" lon="-3.0168247"><ele>643.0</ele><time>2026-04-11T17:29:07.39Z</time></trkpt><trkpt lat="37.7022613" lon="-3.0171013"><ele>638.0</ele><time>2026-04-11T17:29:08.39Z</time></trkpt><trkpt lat="37.7021758" lon="-3.0173876"><ele>638.5</ele><time>2026-04-11T17:29:09.39Z</time></trkpt><trkpt lat="37.7021153" lon="-3.0176873"><ele>639.0</ele><time>2026-04-11T17:29:10.39Z</time></trkpt><trkpt lat="37.7020806" lon="-3.0179935"><ele>639.0</ele><time>2026-04-11T17:29:11.39Z</time></trkpt><trkpt lat="37.7020697" lon="-3.0182995"><ele>639.0</ele><time>2026-04-11T17:29:12.39Z</time></trkpt><trkpt lat="37.7020832" lon="-3.0186023"><ele>643.0</ele><time>2026-04-11T17:29:13.39Z</time></trkpt><trkpt lat="37.7021202" lon="-3.0189025"><ele>647.0</ele><time>2026-04-11T17:29:14.39Z</time></trkpt><trkpt lat="37.70218" lon="-3.0191998"><ele>647.0</ele><time>2026-04-11T17:29:15.39Z</time></trkpt><trkpt lat="37.702263" lon="-3.0194924"><ele>647.0</ele><time>2026-04-11T17:29:16.39Z</time></trkpt><trkpt lat="37.7023628" lon="-3.0197837"><ele>645.0</ele><time>2026-04-11T17:29:17.39Z</time></trkpt><trkpt lat="37.7024718" lon="-3.0200694"><ele>643.0</ele><time>2026-04-11T17:29:18.389Z</time></trkpt><trkpt lat="37.7025811" lon="-3.0203568"><ele>643.0</ele><time>2026-04-11T17:29:19.39Z</time></trkpt><trkpt lat="37.7026893" lon="-3.020643"><ele>643.0</ele><time>2026-04-11T17:29:20.39Z</time></trkpt><trkpt lat="37.702794" lon="-3.02093"><ele>635.5</ele><time>2026-04-11T17:29:21.39Z</time></trkpt><trkpt lat="37.7028978" lon="-3.021206"><ele>628.0</ele><time>2026-04-11T17:29:22.39Z</time></trkpt><trkpt lat="37.7029992" lon="-3.021468"><ele>629.6666666666667</ele><time>2026-04-11T17:29:23.39Z</time></trkpt><trkpt lat="37.7031034" lon="-3.0217202"><ele>631.3333333333334</ele><time>2026-04-11T17:29:24.39Z</time></trkpt><trkpt lat="37.7032175" lon="-3.0219611"><ele>633.0</ele><time>2026-04-11T17:29:25.39Z</time></trkpt><trkpt lat="37.703347" lon="-3.0221969"><ele>633.0</ele><time>2026-04-11T17:29:26.39Z</time></trkpt><trkpt lat="37.7034882" lon="-3.0224243"><ele>633.0</ele><time>2026-04-11T17:29:27.389Z</time></trkpt><trkpt lat="37.7036399" lon="-3.0226458"><ele>621.5</ele><time>2026-04-11T17:29:28.39Z</time></trkpt><trkpt lat="37.7038068" lon="-3.0228508"><ele>610.0</ele><time>2026-04-11T17:29:29.39Z</time></trkpt><trkpt lat="37.7039717" lon="-3.0230312"><ele>610.0</ele><time>2026-04-11T17:29:30.39Z</time></trkpt><trkpt lat="37.7041181" lon="-3.023176"><ele>610.0</ele><time>2026-04-11T17:29:31.39Z</time></trkpt><trkpt lat="37.7042424" lon="-3.0233016"><ele>610.0</ele><time>2026-04-11T17:29:32.39Z</time></trkpt><trkpt lat="37.7043552" lon="-3.0234063"><ele>609.75</ele><time>2026-04-11T17:29:33.39Z</time></trkpt><trkpt lat="37.7044671" lon="-3.0235124"><ele>609.5</ele><time>2026-04-11T17:29:34.39Z</time></trkpt><trkpt lat="37.7045744" lon="-3.0236167"><ele>609.25</ele><time>2026-04-11T17:29:35.39Z</time></trkpt><trkpt lat="37.7046895" lon="-3.0237321"><ele>609.0</ele><time>2026-04-11T17:29:36.39Z</time></trkpt><trkpt lat="37.7048179" lon="-3.0238575"><ele>609.0</ele><time>2026-04-11T17:29:37.39Z</time></trkpt><trkpt lat="37.7049405" lon="-3.024007"><ele>609.0</ele><time>2026-04-11T17:29:38.389Z</time></trkpt><trkpt lat="37.7050623" lon="-3.0241751"><ele>609.0</ele><time>2026-04-11T17:29:39.39Z</time></trkpt><trkpt lat="37.705193" lon="-3.0243338"><ele>604.6666666666666</ele><time>2026-04-11T17:29:40.389Z</time></trkpt><trkpt lat="37.7052882" lon="-3.0245672"><ele>600.3333333333333</ele><time>2026-04-11T17:29:41.39Z</time></trkpt><trkpt lat="37.705401" lon="-3.0247658"><ele>596.0</ele><time>2026-04-11T17:29:42.39Z</time></trkpt><trkpt lat="37.7054562" lon="-3.0250208"><ele>595.0</ele><time>2026-04-11T17:29:43.39Z</time></trkpt><trkpt lat="37.7055073" lon="-3.0252738"><ele>594.0</ele><time>2026-04-11T17:29:44.39Z</time></trkpt><trkpt lat="37.7055481" lon="-3.0255294"><ele>593.0</ele><time>2026-04-11T17:29:45.39Z</time></trkpt><trkpt lat="37.7055981" lon="-3.025801"><ele>593.0</ele><time>2026-04-11T17:29:46.39Z</time></trkpt><trkpt lat="37.7056542" lon="-3.0260775"><ele>593.0</ele><time>2026-04-11T17:29:47.39Z</time></trkpt><trkpt lat="37.7057118" lon="-3.0263551"><ele>593.0</ele><time>2026-04-11T17:29:48.39Z</time></trkpt><trkpt lat="37.7057633" lon="-3.026604"><ele>593.0</ele><time>2026-04-11T17:29:49.389Z</time></trkpt><trkpt lat="37.7058083" lon="-3.0268293"><ele>593.0</ele><time>2026-04-11T17:29:50.39Z</time></trkpt><trkpt lat="37.7058433" lon="-3.0270259"><ele>592.6666666666666</ele><time>2026-04-11T17:29:51.39Z</time></trkpt><trkpt lat="37.7058787" lon="-3.027215"><ele>592.3333333333334</ele><time>2026-04-11T17:29:52.39Z</time></trkpt><trkpt lat="37.7059187" lon="-3.027412"><ele>592.0</ele><time>2026-04-11T17:29:53.39Z</time></trkpt><trkpt lat="37.7059571" lon="-3.0276169"><ele>595.0</ele><time>2026-04-11T17:29:54.39Z</time></trkpt><trkpt lat="37.705996" lon="-3.0278272"><ele>598.0</ele><time>2026-04-11T17:29:55.39Z</time></trkpt><trkpt lat="37.7060372" lon="-3.0280416"><ele>601.0</ele><time>2026-04-11T17:29:56.39Z</time></trkpt><trkpt lat="37.7060773" lon="-3.0282605"><ele>605.0</ele><time>2026-04-11T17:29:57.39Z</time></trkpt><trkpt lat="37.7061255" lon="-3.0284806"><ele>609.0</ele><time>2026-04-11T17:29:58.39Z</time></trkpt><trkpt lat="37.706169" lon="-3.0287064"><ele>613.0</ele><time>2026-04-11T17:29:59.39Z</time></trkpt><trkpt lat="37.706172" lon="-3.0289197"><ele>613.0</ele><time>2026-04-11T17:30:00.39Z</time></trkpt><trkpt lat="37.7061633" lon="-3.0291337"><ele>613.0</ele><time>2026-04-11T17:30:01.39Z</time></trkpt><trkpt lat="37.7061738" lon="-3.0293555"><ele>613.0</ele><time>2026-04-11T17:30:02.39Z</time></trkpt><trkpt lat="37.706185" lon="-3.029579"><ele>612.0</ele><time>2026-04-11T17:30:03.39Z</time></trkpt><trkpt lat="37.7060978" lon="-3.0298032"><ele>611.0</ele><time>2026-04-11T17:30:04.39Z</time></trkpt><trkpt lat="37.7060013" lon="-3.0300214"><ele>610.0</ele><time>2026-04-11T17:30:05.39Z</time></trkpt><trkpt lat="37.705895" lon="-3.0302372"><ele>605.0</ele><time>2026-04-11T17:30:06.39Z</time></trkpt><trkpt lat="37.7057822" lon="-3.0304488"><ele>600.0</ele><time>2026-04-11T17:30:07.39Z</time></trkpt><trkpt lat="37.7056627" lon="-3.030667"><ele>595.0</ele><time>2026-04-11T17:30:08.39Z</time></trkpt><trkpt lat="37.7055423" lon="-3.0308962"><ele>594.6666666666667</ele><time>2026-04-11T17:30:09.389Z</time></trkpt><trkpt lat="37.7054228" lon="-3.0311252"><ele>594.3333333333334</ele><time>2026-04-11T17:30:10.39Z</time></trkpt><trkpt lat="37.7053058" lon="-3.0313642"><ele>594.0</ele><time>2026-04-11T17:30:11.39Z</time></trkpt><trkpt lat="37.70519" lon="-3.0316042"><ele>588.3333333333334</ele><time>2026-04-11T17:30:12.389Z</time></trkpt><trkpt lat="37.7050784" lon="-3.0318396"><ele>582.6666666666667</ele><time>2026-04-11T17:30:13.389Z</time></trkpt><trkpt lat="37.7049781" lon="-3.0320791"><ele>577.0</ele><time>2026-04-11T17:30:14.39Z</time></trkpt><trkpt lat="37.7048867" lon="-3.0323249"><ele>579.0</ele><time>2026-04-11T17:30:15.39Z</time></trkpt><trkpt lat="37.7048201" lon="-3.0325815"><ele>581.0</ele><time>2026-04-11T17:30:16.389Z</time></trkpt><trkpt lat="37.7047742" lon="-3.0328477"><ele>583.0</ele><time>2026-04-11T17:30:17.39Z</time></trkpt><trkpt lat="37.7047565" lon="-3.0331168"><ele>581.0</ele><time>2026-04-11T17:30:18.39Z</time></trkpt><trkpt lat="37.7047724" lon="-3.0333975"><ele>579.0</ele><time>2026-04-11T17:30:19.39Z</time></trkpt><trkpt lat="37.7048011" lon="-3.0336731"><ele>577.0</ele><time>2026-04-11T17:30:20.39Z</time></trkpt><trkpt lat="37.7048528" lon="-3.0339412"><ele>574.0</ele><time>2026-04-11T17:30:21.39Z</time></trkpt><trkpt lat="37.7049267" lon="-3.0342089"><ele>571.0</ele><time>2026-04-11T17:30:22.39Z</time></trkpt><trkpt lat="37.7050217" lon="-3.0344669"><ele>568.0</ele><time>2026-04-11T17:30:23.39Z</time></trkpt><trkpt lat="37.7051268" lon="-3.0347293"><ele>569.5</ele><time>2026-04-11T17:30:24.389Z</time></trkpt><trkpt lat="37.7052332" lon="-3.0349952"><ele>571.0</ele><time>2026-04-11T17:30:25.389Z</time></trkpt><trkpt lat="37.7053426" lon="-3.0352634"><ele>571.0</ele><time>2026-04-11T17:30:26.389Z</time></trkpt><trkpt lat="37.7054452" lon="-3.035541"><ele>571.0</ele><time>2026-04-11T17:30:27.39Z</time></trkpt><trkpt lat="37.7055437" lon="-3.0358223"><ele>570.5</ele><time>2026-04-11T17:30:28.39Z</time></trkpt><trkpt lat="37.7056405" lon="-3.0361093"><ele>570.0</ele><time>2026-04-11T17:30:29.39Z</time></trkpt><trkpt lat="37.7057326" lon="-3.0364029"><ele>567.5</ele><time>2026-04-11T17:30:30.39Z</time></trkpt><trkpt lat="37.7058215" lon="-3.0367015"><ele>565.0</ele><time>2026-04-11T17:30:31.39Z</time></trkpt><trkpt lat="37.7059041" lon="-3.0370048"><ele>565.0</ele><time>2026-04-11T17:30:32.39Z</time></trkpt><trkpt lat="37.7059859" lon="-3.0373057"><ele>565.0</ele><time>2026-04-11T17:30:33.39Z</time></trkpt><trkpt lat="37.7060614" lon="-3.0376107"><ele>571.5</ele><time>2026-04-11T17:30:34.39Z</time></trkpt><trkpt lat="37.706132" lon="-3.037919"><ele>578.0</ele><time>2026-04-11T17:30:35.39Z</time></trkpt><trkpt lat="37.7061993" lon="-3.0382315"><ele>570.0</ele><time>2026-04-11T17:30:36.39Z</time></trkpt><trkpt lat="37.7062608" lon="-3.0385445"><ele>562.0</ele><time>2026-04-11T17:30:37.39Z</time></trkpt><trkpt lat="37.7063218" lon="-3.0388591"><ele>552.5</ele><time>2026-04-11T17:30:38.39Z</time></trkpt><trkpt lat="37.7063753" lon="-3.0391747"><ele>543.0</ele><time>2026-04-11T17:30:39.389Z</time></trkpt><trkpt lat="37.7064234" lon="-3.0394903"><ele>543.0</ele><time>2026-04-11T17:30:40.39Z</time></trkpt><trkpt lat="37.7064663" lon="-3.0398073"><ele>543.0</ele><time>2026-04-11T17:30:41.39Z</time></trkpt><trkpt lat="37.7065022" lon="-3.0401296"><ele>534.0</ele><time>2026-04-11T17:30:42.39Z</time></trkpt><trkpt lat="37.7065373" lon="-3.0404512"><ele>525.0</ele><time>2026-04-11T17:30:43.39Z</time></trkpt><trkpt lat="37.7065662" lon="-3.0407761"><ele>520.5</ele><time>2026-04-11T17:30:44.39Z</time></trkpt><trkpt lat="37.7065907" lon="-3.0411015"><ele>516.0</ele><time>2026-04-11T17:30:45.39Z</time></trkpt><trkpt lat="37.7066078" lon="-3.0414256"><ele>517.5</ele><time>2026-04-11T17:30:46.39Z</time></trkpt><trkpt lat="37.7066222" lon="-3.0417512"><ele>519.0</ele><time>2026-04-11T17:30:47.39Z</time></trkpt><trkpt lat="37.7066389" lon="-3.0420807"><ele>519.0</ele><time>2026-04-11T17:30:48.39Z</time></trkpt><trkpt lat="37.706666" lon="-3.0424093"><ele>519.0</ele><time>2026-04-11T17:30:49.39Z</time></trkpt><trkpt lat="37.7067176" lon="-3.0427133"><ele>516.5</ele><time>2026-04-11T17:30:50.39Z</time></trkpt><trkpt lat="37.7067906" lon="-3.0429954"><ele>514.0</ele><time>2026-04-11T17:30:51.39Z</time></trkpt><trkpt lat="37.7068846" lon="-3.0432456"><ele>516.3333333333334</ele><time>2026-04-11T17:30:52.39Z</time></trkpt><trkpt lat="37.7070024" lon="-3.043471"><ele>518.6666666666666</ele><time>2026-04-11T17:30:53.389Z</time></trkpt><trkpt lat="37.7071492" lon="-3.0436816"><ele>521.0</ele><time>2026-04-11T17:30:54.39Z</time></trkpt><trkpt lat="37.7073139" lon="-3.0438819"><ele>521.0</ele><time>2026-04-11T17:30:55.39Z</time></trkpt><trkpt lat="37.7074926" lon="-3.0440696"><ele>521.0</ele><time>2026-04-11T17:30:56.39Z</time></trkpt><trkpt lat="37.7076833" lon="-3.0442483"><ele>506.5</ele><time>2026-04-11T17:30:57.39Z</time></trkpt><trkpt lat="37.7078742" lon="-3.0444324"><ele>492.0</ele><time>2026-04-11T17:30:58.39Z</time></trkpt><trkpt lat="37.708067" lon="-3.0446179"><ele>492.0</ele><time>2026-04-11T17:30:59.39Z</time></trkpt><trkpt lat="37.7082557" lon="-3.0448004"><ele>492.0</ele><time>2026-04-11T17:31:00.39Z</time></trkpt><trkpt lat="37.7084454" lon="-3.0449742"><ele>486.5</ele><time>2026-04-11T17:31:01.39Z</time></trkpt><trkpt lat="37.7086304" lon="-3.0451476"><ele>481.0</ele><time>2026-04-11T17:31:02.39Z</time></trkpt><trkpt lat="37.7088142" lon="-3.04532"><ele>481.0</ele><time>2026-04-11T17:31:03.39Z</time></trkpt><trkpt lat="37.7089993" lon="-3.0454868"><ele>481.0</ele><time>2026-04-11T17:31:04.39Z</time></trkpt><trkpt lat="37.7091842" lon="-3.0456527"><ele>480.0</ele><time>2026-04-11T17:31:05.389Z</time></trkpt><trkpt lat="37.7093748" lon="-3.0458026"><ele>479.0</ele><time>2026-04-11T17:31:06.389Z</time></trkpt><trkpt lat="37.7095796" lon="-3.0459408"><ele>479.0</ele><time>2026-04-11T17:31:07.39Z</time></trkpt><trkpt lat="37.7097881" lon="-3.0460646"><ele>479.0</ele><time>2026-04-11T17:31:08.39Z</time></trkpt><trkpt lat="37.710005" lon="-3.0461712"><ele>479.0</ele><time>2026-04-11T17:31:09.39Z</time></trkpt><trkpt lat="37.7102307" lon="-3.0462588"><ele>479.0</ele><time>2026-04-11T17:31:10.389Z</time></trkpt><trkpt lat="37.7104562" lon="-3.0463306"><ele>480.0</ele><time>2026-04-11T17:31:11.39Z</time></trkpt><trkpt lat="37.7106928" lon="-3.0463786"><ele>481.0</ele><time>2026-04-11T17:31:12.39Z</time></trkpt><trkpt lat="37.7109332" lon="-3.0464142"><ele>484.5</ele><time>2026-04-11T17:31:13.39Z</time></trkpt><trkpt lat="37.7111748" lon="-3.0464417"><ele>488.0</ele><time>2026-04-11T17:31:14.39Z</time></trkpt><trkpt lat="37.7114173" lon="-3.0464692"><ele>488.0</ele><time>2026-04-11T17:31:15.39Z</time></trkpt><trkpt lat="37.71166" lon="-3.0465037"><ele>488.0</ele><time>2026-04-11T17:31:16.389Z</time></trkpt><trkpt lat="37.711898" lon="-3.0465423"><ele>487.5</ele><time>2026-04-11T17:31:17.39Z</time></trkpt><trkpt lat="37.7121312" lon="-3.0465936"><ele>487.0</ele><time>2026-04-11T17:31:18.39Z</time></trkpt><trkpt lat="37.7123576" lon="-3.0466844"><ele>486.0</ele><time>2026-04-11T17:31:19.39Z</time></trkpt><trkpt lat="37.712566" lon="-3.0468119"><ele>485.0</ele><time>2026-04-11T17:31:20.39Z</time></trkpt><trkpt lat="37.7127569" lon="-3.0469711"><ele>485.0</ele><time>2026-04-11T17:31:21.39Z</time></trkpt><trkpt lat="37.7129262" lon="-3.047162"><ele>485.0</ele><time>2026-04-11T17:31:22.389Z</time></trkpt><trkpt lat="37.7130719" lon="-3.0473758"><ele>484.0</ele><time>2026-04-11T17:31:23.39Z</time></trkpt><trkpt lat="37.7131924" lon="-3.0476115"><ele>483.0</ele><time>2026-04-11T17:31:24.39Z</time></trkpt><trkpt lat="37.7132947" lon="-3.0478572"><ele>482.0</ele><time>2026-04-11T17:31:25.39Z</time></trkpt><trkpt lat="37.7133888" lon="-3.0481038"><ele>482.3333333333333</ele><time>2026-04-11T17:31:26.39Z</time></trkpt><trkpt lat="37.7134796" lon="-3.0483462"><ele>482.66666666666663</ele><time>2026-04-11T17:31:27.39Z</time></trkpt><trkpt lat="37.7135704" lon="-3.0485827"><ele>483.0</ele><time>2026-04-11T17:31:28.389Z</time></trkpt><trkpt lat="37.7136624" lon="-3.0488208"><ele>484.0</ele><time>2026-04-11T17:31:29.39Z</time></trkpt><trkpt lat="37.7137605" lon="-3.0490574"><ele>485.0</ele><time>2026-04-11T17:31:30.39Z</time></trkpt><trkpt lat="37.7138699" lon="-3.0492822"><ele>486.0</ele><time>2026-04-11T17:31:31.39Z</time></trkpt><trkpt lat="37.7139965" lon="-3.0494957"><ele>486.0</ele><time>2026-04-11T17:31:32.39Z</time></trkpt><trkpt lat="37.7141393" lon="-3.0496946"><ele>486.0</ele><time>2026-04-11T17:31:33.39Z</time></trkpt><trkpt lat="37.7143064" lon="-3.0498695"><ele>486.0</ele><time>2026-04-11T17:31:34.39Z</time></trkpt><trkpt lat="37.7144921" lon="-3.0500169"><ele>487.33333333333337</ele><time>2026-04-11T17:31:35.39Z</time></trkpt><trkpt lat="37.7146904" lon="-3.050141"><ele>488.6666666666667</ele><time>2026-04-11T17:31:36.39Z</time></trkpt><trkpt lat="37.714904" lon="-3.0502304"><ele>490.0</ele><time>2026-04-11T17:31:37.389Z</time></trkpt><trkpt lat="37.71513" lon="-3.0502839"><ele>488.5</ele><time>2026-04-11T17:31:38.39Z</time></trkpt><trkpt lat="37.7153559" lon="-3.0502981"><ele>487.0</ele><time>2026-04-11T17:31:39.39Z</time></trkpt><trkpt lat="37.7155878" lon="-3.050269"><ele>487.0</ele><time>2026-04-11T17:31:40.389Z</time></trkpt><trkpt lat="37.7158122" lon="-3.0502123"><ele>487.0</ele><time>2026-04-11T17:31:41.39Z</time></trkpt><trkpt lat="37.7160303" lon="-3.0501185"><ele>490.0</ele><time>2026-04-11T17:31:42.39Z</time></trkpt><trkpt lat="37.7162417" lon="-3.0499993"><ele>493.0</ele><time>2026-04-11T17:31:43.39Z</time></trkpt><trkpt lat="37.7164473" lon="-3.0498643"><ele>493.0</ele><time>2026-04-11T17:31:44.389Z</time></trkpt><trkpt lat="37.7166525" lon="-3.0497249"><ele>493.0</ele><time>2026-04-11T17:31:45.39Z</time></trkpt><trkpt lat="37.7168592" lon="-3.0495841"><ele>486.5</ele><time>2026-04-11T17:31:46.39Z</time></trkpt><trkpt lat="37.717064" lon="-3.0494425"><ele>480.0</ele><time>2026-04-11T17:31:47.39Z</time></trkpt><trkpt lat="37.7172691" lon="-3.0493003"><ele>480.0</ele><time>2026-04-11T17:31:48.39Z</time></trkpt><trkpt lat="37.7174751" lon="-3.0491637"><ele>480.0</ele><time>2026-04-11T17:31:49.39Z</time></trkpt><trkpt lat="37.717679" lon="-3.049023"><ele>482.5</ele><time>2026-04-11T17:31:50.39Z</time></trkpt><trkpt lat="37.7178851" lon="-3.0488836"><ele>485.0</ele><time>2026-04-11T17:31:51.389Z</time></trkpt><trkpt lat="37.718087" lon="-3.0487438"><ele>485.0</ele><time>2026-04-11T17:31:52.389Z</time></trkpt><trkpt lat="37.7182875" lon="-3.0486217"><ele>485.0</ele><time>2026-04-11T17:31:53.39Z</time></trkpt><trkpt lat="37.7184887" lon="-3.0484832"><ele>486.0</ele><time>2026-04-11T17:31:54.39Z</time></trkpt><trkpt lat="37.7186799" lon="-3.0483512"><ele>487.0</ele><time>2026-04-11T17:31:55.39Z</time></trkpt><trkpt lat="37.7188612" lon="-3.0482192"><ele>488.0</ele><time>2026-04-11T17:31:56.39Z</time></trkpt><trkpt lat="37.7190381" lon="-3.0481051"><ele>488.0</ele><time>2026-04-11T17:31:57.39Z</time></trkpt><trkpt lat="37.7192187" lon="-3.0480143"><ele>488.0</ele><time>2026-04-11T17:31:58.39Z</time></trkpt><trkpt lat="37.7194108" lon="-3.0479492"><ele>488.0</ele><time>2026-04-11T17:31:59.39Z</time></trkpt><trkpt lat="37.7196143" lon="-3.0479133"><ele>489.3333333333333</ele><time>2026-04-11T17:32:00.389Z</time></trkpt><trkpt lat="37.7198244" lon="-3.0479085"><ele>490.66666666666663</ele><time>2026-04-11T17:32:01.39Z</time></trkpt><trkpt lat="37.7200411" lon="-3.0479555"><ele>492.0</ele><time>2026-04-11T17:32:02.39Z</time></trkpt><trkpt lat="37.7202511" lon="-3.0480264"><ele>492.0</ele><time>2026-04-11T17:32:03.39Z</time></trkpt><trkpt lat="37.7204541" lon="-3.0481349"><ele>492.0</ele><time>2026-04-11T17:32:04.39Z</time></trkpt><trkpt lat="37.7206467" lon="-3.0482723"><ele>492.0</ele><time>2026-04-11T17:32:05.39Z</time></trkpt><trkpt lat="37.7208223" lon="-3.0484438"><ele>494.33333333333337</ele><time>2026-04-11T17:32:06.39Z</time></trkpt><trkpt lat="37.72098" lon="-3.048649"><ele>496.6666666666667</ele><time>2026-04-11T17:32:07.39Z</time></trkpt><trkpt lat="37.7211302" lon="-3.0488511"><ele>499.0</ele><time>2026-04-11T17:32:08.39Z</time></trkpt><trkpt lat="37.7212249" lon="-3.0491235"><ele>491.5</ele><time>2026-04-11T17:32:09.39Z</time></trkpt><trkpt lat="37.7213034" lon="-3.049398"><ele>484.0</ele><time>2026-04-11T17:32:10.389Z</time></trkpt><trkpt lat="37.721373" lon="-3.0496783"><ele>484.0</ele><time>2026-04-11T17:32:11.389Z</time></trkpt><trkpt lat="37.7214392" lon="-3.0499637"><ele>484.0</ele><time>2026-04-11T17:32:12.39Z</time></trkpt><trkpt lat="37.7215049" lon="-3.0502569"><ele>484.0</ele><time>2026-04-11T17:32:13.39Z</time></trkpt><trkpt lat="37.7215746" lon="-3.0505549"><ele>484.0</ele><time>2026-04-11T17:32:14.389Z</time></trkpt><trkpt lat="37.7216438" lon="-3.0508512"><ele>482.0</ele><time>2026-04-11T17:32:15.39Z</time></trkpt><trkpt lat="37.7217168" lon="-3.0511494"><ele>480.0</ele><time>2026-04-11T17:32:16.39Z</time></trkpt><trkpt lat="37.7217919" lon="-3.0514498"><ele>477.5</ele><time>2026-04-11T17:32:17.39Z</time></trkpt><trkpt lat="37.7218733" lon="-3.0517511"><ele>475.0</ele><time>2026-04-11T17:32:18.39Z</time></trkpt><trkpt lat="37.7219438" lon="-3.052047"><ele>479.0</ele><time>2026-04-11T17:32:19.39Z</time></trkpt><trkpt lat="37.7220148" lon="-3.0523423"><ele>483.0</ele><time>2026-04-11T17:32:20.39Z</time></trkpt><trkpt lat="37.7220833" lon="-3.0526359"><ele>483.0</ele><time>2026-04-11T17:32:21.39Z</time></trkpt><trkpt lat="37.7221555" lon="-3.0529265"><ele>483.0</ele><time>2026-04-11T17:32:22.39Z</time></trkpt><trkpt lat="37.7222358" lon="-3.0532027"><ele>479.5</ele><time>2026-04-11T17:32:23.389Z</time></trkpt><trkpt lat="37.7223371" lon="-3.053462"><ele>476.0</ele><time>2026-04-11T17:32:24.39Z</time></trkpt><trkpt lat="37.7224644" lon="-3.0537053"><ele>476.0</ele><time>2026-04-11T17:32:25.39Z</time></trkpt><trkpt lat="37.7226128" lon="-3.0539145"><ele>476.0</ele><time>2026-04-11T17:32:26.39Z</time></trkpt><trkpt lat="37.7227869" lon="-3.0540967"><ele>476.0</ele><time>2026-04-11T17:32:27.389Z</time></trkpt><trkpt lat="37.7229789" lon="-3.0542465"><ele>474.0</ele><time>2026-04-11T17:32:28.39Z</time></trkpt><trkpt lat="37.7231865" lon="-3.0543588"><ele>472.0</ele><time>2026-04-11T17:32:29.39Z</time></trkpt><trkpt lat="37.7234046" lon="-3.0544403"><ele>472.5</ele><time>2026-04-11T17:32:30.39Z</time></trkpt><trkpt lat="37.7236308" lon="-3.054476"><ele>473.0</ele><time>2026-04-11T17:32:31.39Z</time></trkpt><trkpt lat="37.7238632" lon="-3.0544772"><ele>473.0</ele><time>2026-04-11T17:32:32.39Z</time></trkpt><trkpt lat="37.7240966" lon="-3.0544641"><ele>473.0</ele><time>2026-04-11T17:32:33.39Z</time></trkpt><trkpt lat="37.7243336" lon="-3.0544503"><ele>472.5</ele><time>2026-04-11T17:32:34.39Z</time></trkpt><trkpt lat="37.7245714" lon="-3.0544352"><ele>472.0</ele><time>2026-04-11T17:32:35.39Z</time></trkpt><trkpt lat="37.7248144" lon="-3.0544195"><ele>472.0</ele><time>2026-04-11T17:32:36.39Z</time></trkpt><trkpt lat="37.7250542" lon="-3.054395"><ele>472.0</ele><time>2026-04-11T17:32:37.39Z</time></trkpt><trkpt lat="37.7252922" lon="-3.0543753"><ele>472.5</ele><time>2026-04-11T17:32:38.39Z</time></trkpt><trkpt lat="37.7255307" lon="-3.0543634"><ele>473.0</ele><time>2026-04-11T17:32:39.389Z</time></trkpt><trkpt lat="37.7257675" lon="-3.0543508"><ele>473.0</ele><time>2026-04-11T17:32:40.39Z</time></trkpt><trkpt lat="37.726002" lon="-3.0543383"><ele>473.0</ele><time>2026-04-11T17:32:41.39Z</time></trkpt><trkpt lat="37.7262379" lon="-3.0543206"><ele>474.0</ele><time>2026-04-11T17:32:42.39Z</time></trkpt><trkpt lat="37.7264736" lon="-3.054303"><ele>475.0</ele><time>2026-04-11T17:32:43.39Z</time></trkpt><trkpt lat="37.7267111" lon="-3.054287"><ele>478.0</ele><time>2026-04-11T17:32:44.39Z</time></trkpt><trkpt lat="37.7269476" lon="-3.054271"><ele>481.0</ele><time>2026-04-11T17:32:45.39Z</time></trkpt><trkpt lat="37.7271822" lon="-3.054258"><ele>481.0</ele><time>2026-04-11T17:32:46.39Z</time></trkpt><trkpt lat="37.727417" lon="-3.0542408"><ele>481.0</ele><time>2026-04-11T17:32:47.389Z</time></trkpt><trkpt lat="37.7276524" lon="-3.0542273"><ele>482.5</ele><time>2026-04-11T17:32:48.39Z</time></trkpt><trkpt lat="37.7278836" lon="-3.0542137"><ele>484.0</ele><time>2026-04-11T17:32:49.389Z</time></trkpt><trkpt lat="37.7281162" lon="-3.0542028"><ele>484.0</ele><time>2026-04-11T17:32:50.39Z</time></trkpt><trkpt lat="37.7283486" lon="-3.0541889"><ele>484.0</ele><time>2026-04-11T17:32:51.389Z</time></trkpt><trkpt lat="37.7285788" lon="-3.0541773"><ele>486.5</ele><time>2026-04-11T17:32:52.39Z</time></trkpt><trkpt lat="37.7288089" lon="-3.0541657"><ele>489.0</ele><time>2026-04-11T17:32:53.39Z</time></trkpt><trkpt lat="37.7290381" lon="-3.0541502"><ele>489.0</ele><time>2026-04-11T17:32:54.39Z</time></trkpt><trkpt lat="37.7292643" lon="-3.0541354"><ele>489.0</ele><time>2026-04-11T17:32:55.39Z</time></trkpt><trkpt lat="37.7294916" lon="-3.0541259"><ele>492.5</ele><time>2026-04-11T17:32:56.39Z</time></trkpt><trkpt lat="37.7297166" lon="-3.054114"><ele>496.0</ele><time>2026-04-11T17:32:57.389Z</time></trkpt><trkpt lat="37.7299424" lon="-3.0541062"><ele>496.0</ele><time>2026-04-11T17:32:58.39Z</time></trkpt><trkpt lat="37.7301631" lon="-3.0541163"><ele>496.0</ele><time>2026-04-11T17:32:59.39Z</time></trkpt><trkpt lat="37.7303819" lon="-3.0541481"><ele>496.0</ele><time>2026-04-11T17:33:00.389Z</time></trkpt><trkpt lat="37.7305965" lon="-3.0542103"><ele>496.0</ele><time>2026-04-11T17:33:01.39Z</time></trkpt><trkpt lat="37.730808" lon="-3.0543089"><ele>496.0</ele><time>2026-04-11T17:33:02.389Z</time></trkpt><trkpt lat="37.7310049" lon="-3.0544422"><ele>496.0</ele><time>2026-04-11T17:33:03.39Z</time></trkpt><trkpt lat="37.7311824" lon="-3.0546092"><ele>496.0</ele><time>2026-04-11T17:33:04.39Z</time></trkpt><trkpt lat="37.7313438" lon="-3.0548062"><ele>496.0</ele><time>2026-04-11T17:33:05.39Z</time></trkpt><trkpt lat="37.7314858" lon="-3.0550292"><ele>493.5</ele><time>2026-04-11T17:33:06.39Z</time></trkpt><trkpt lat="37.7316207" lon="-3.055268"><ele>491.0</ele><time>2026-04-11T17:33:07.39Z</time></trkpt><trkpt lat="37.7317486" lon="-3.0555147"><ele>491.0</ele><time>2026-04-11T17:33:08.389Z</time></trkpt><trkpt lat="37.7318774" lon="-3.055763"><ele>491.0</ele><time>2026-04-11T17:33:09.389Z</time></trkpt><trkpt lat="37.732001" lon="-3.0560238"><ele>496.0</ele><time>2026-04-11T17:33:10.389Z</time></trkpt><trkpt lat="37.7321252" lon="-3.0562823"><ele>501.0</ele><time>2026-04-11T17:33:11.39Z</time></trkpt><trkpt lat="37.7322558" lon="-3.0565301"><ele>498.5</ele><time>2026-04-11T17:33:12.39Z</time></trkpt><trkpt lat="37.732374" lon="-3.0567773"><ele>496.0</ele><time>2026-04-11T17:33:13.39Z</time></trkpt><trkpt lat="37.7325081" lon="-3.0570042"><ele>496.0</ele><time>2026-04-11T17:33:14.39Z</time></trkpt><trkpt lat="37.7326195" lon="-3.0572239"><ele>496.0</ele><time>2026-04-11T17:33:15.39Z</time></trkpt><trkpt lat="37.7327237" lon="-3.0574291"><ele>496.0</ele><time>2026-04-11T17:33:16.39Z</time></trkpt><trkpt lat="37.7328287" lon="-3.0576237"><ele>496.6666666666667</ele><time>2026-04-11T17:33:17.389Z</time></trkpt><trkpt lat="37.7329258" lon="-3.0578031"><ele>497.33333333333337</ele><time>2026-04-11T17:33:18.39Z</time></trkpt><trkpt lat="37.7330102" lon="-3.0579685"><ele>498.0</ele><time>2026-04-11T17:33:19.389Z</time></trkpt><trkpt lat="37.7330673" lon="-3.0581483"><ele>498.33333333333337</ele><time>2026-04-11T17:33:20.389Z</time></trkpt><trkpt lat="37.7330986" lon="-3.0583463"><ele>498.6666666666667</ele><time>2026-04-11T17:33:21.39Z</time></trkpt><trkpt lat="37.7331193" lon="-3.0585546"><ele>499.0</ele><time>2026-04-11T17:33:22.39Z</time></trkpt><trkpt lat="37.7331435" lon="-3.0587692"><ele>499.0</ele><time>2026-04-11T17:33:23.39Z</time></trkpt><trkpt lat="37.7331677" lon="-3.058998"><ele>499.0</ele><time>2026-04-11T17:33:24.39Z</time></trkpt><trkpt lat="37.7331866" lon="-3.0592234"><ele>499.0</ele><time>2026-04-11T17:33:25.39Z</time></trkpt><trkpt lat="37.7332055" lon="-3.0594508"><ele>499.0</ele><time>2026-04-11T17:33:26.39Z</time></trkpt><trkpt lat="37.7332295" lon="-3.0596796"><ele>499.0</ele><time>2026-04-11T17:33:27.389Z</time></trkpt><trkpt lat="37.7332541" lon="-3.0599109"><ele>499.0</ele><time>2026-04-11T17:33:28.39Z</time></trkpt><trkpt lat="37.7332903" lon="-3.0601325"><ele>499.0</ele><time>2026-04-11T17:33:29.39Z</time></trkpt><trkpt lat="37.7333495" lon="-3.0603456"><ele>499.0</ele><time>2026-04-11T17:33:30.39Z</time></trkpt><trkpt lat="37.733425" lon="-3.0605462"><ele>499.0</ele><time>2026-04-11T17:33:31.39Z</time></trkpt><trkpt lat="37.7335095" lon="-3.060729"><ele>506.75</ele><time>2026-04-11T17:33:32.39Z</time></trkpt><trkpt lat="37.7335827" lon="-3.0609024"><ele>514.5</ele><time>2026-04-11T17:33:33.39Z</time></trkpt><trkpt lat="37.7336362" lon="-3.061068"><ele>522.25</ele><time>2026-04-11T17:33:34.39Z</time></trkpt><trkpt lat="37.7336632" lon="-3.0612344"><ele>530.0</ele><time>2026-04-11T17:33:35.389Z</time></trkpt><trkpt lat="37.7336949" lon="-3.0613925"><ele>530.0</ele><time>2026-04-11T17:33:36.39Z</time></trkpt><trkpt lat="37.7337585" lon="-3.0615354"><ele>530.0</ele><time>2026-04-11T17:33:37.39Z</time></trkpt><trkpt lat="37.7338394" lon="-3.061664"><ele>530.0</ele><time>2026-04-11T17:33:38.389Z</time></trkpt><trkpt lat="37.7339171" lon="-3.0617993"><ele>530.0</ele><time>2026-04-11T17:33:39.39Z</time></trkpt><trkpt lat="37.733982" lon="-3.0619481"><ele>528.0</ele><time>2026-04-11T17:33:40.389Z</time></trkpt><trkpt lat="37.7340268" lon="-3.0621171"><ele>526.0</ele><time>2026-04-11T17:33:41.39Z</time></trkpt><trkpt lat="37.7340602" lon="-3.0622901"><ele>524.0</ele><time>2026-04-11T17:33:42.389Z</time></trkpt><trkpt lat="37.7341043" lon="-3.0624678"><ele>522.0</ele><time>2026-04-11T17:33:43.39Z</time></trkpt><trkpt lat="37.7341556" lon="-3.062641"><ele>519.5</ele><time>2026-04-11T17:33:44.39Z</time></trkpt><trkpt lat="37.7342066" lon="-3.0628117"><ele>517.0</ele><time>2026-04-11T17:33:45.389Z</time></trkpt><trkpt lat="37.7342386" lon="-3.0629841"><ele>514.5</ele><time>2026-04-11T17:33:46.39Z</time></trkpt><trkpt lat="37.7342398" lon="-3.0631642"><ele>512.0</ele><time>2026-04-11T17:33:47.39Z</time></trkpt><trkpt lat="37.734207" lon="-3.0633345"><ele>508.25</ele><time>2026-04-11T17:33:48.39Z</time></trkpt><trkpt lat="37.7341532" lon="-3.0635017"><ele>504.5</ele><time>2026-04-11T17:33:49.389Z</time></trkpt><trkpt lat="37.7340855" lon="-3.0636732"><ele>500.75</ele><time>2026-04-11T17:33:50.39Z</time></trkpt><trkpt lat="37.7340483" lon="-3.0638555"><ele>497.0</ele><time>2026-04-11T17:33:51.39Z</time></trkpt><trkpt lat="37.7340304" lon="-3.0640471"><ele>499.66666666666663</ele><time>2026-04-11T17:33:52.389Z</time></trkpt><trkpt lat="37.7340006" lon="-3.0642522"><ele>502.33333333333337</ele><time>2026-04-11T17:33:53.39Z</time></trkpt><trkpt lat="37.7339681" lon="-3.0644586"><ele>505.0</ele><time>2026-04-11T17:33:54.39Z</time></trkpt><trkpt lat="37.7339287" lon="-3.0646606"><ele>505.0</ele><time>2026-04-11T17:33:55.39Z</time></trkpt><trkpt lat="37.7338651" lon="-3.0648447"><ele>505.0</ele><time>2026-04-11T17:33:56.39Z</time></trkpt><trkpt lat="37.7337762" lon="-3.0649979"><ele>505.0</ele><time>2026-04-11T17:33:57.39Z</time></trkpt><trkpt lat="37.733679" lon="-3.0651383"><ele>508.33333333333337</ele><time>2026-04-11T17:33:58.39Z</time></trkpt><trkpt lat="37.7335957" lon="-3.0652985"><ele>511.66666666666663</ele><time>2026-04-11T17:33:59.39Z</time></trkpt><trkpt lat="37.7335205" lon="-3.0654721"><ele>515.0</ele><time>2026-04-11T17:34:00.39Z</time></trkpt><trkpt lat="37.7334426" lon="-3.0656479"><ele>509.25</ele><time>2026-04-11T17:34:01.39Z</time></trkpt><trkpt lat="37.7333725" lon="-3.0658246"><ele>503.5</ele><time>2026-04-11T17:34:02.39Z</time></trkpt><trkpt lat="37.7333292" lon="-3.0659924"><ele>497.75</ele><time>2026-04-11T17:34:03.39Z</time></trkpt><trkpt lat="37.7332678" lon="-3.066147"><ele>492.0</ele><time>2026-04-11T17:34:04.39Z</time></trkpt><trkpt lat="37.7331864" lon="-3.066286"><ele>492.0</ele><time>2026-04-11T17:34:05.389Z</time></trkpt><trkpt lat="37.7331179" lon="-3.0664329"><ele>492.0</ele><time>2026-04-11T17:34:06.39Z</time></trkpt><trkpt lat="37.7330803" lon="-3.0666051"><ele>492.0</ele><time>2026-04-11T17:34:07.39Z</time></trkpt><trkpt lat="37.7330564" lon="-3.0667915"><ele>492.0</ele><time>2026-04-11T17:34:08.39Z</time></trkpt><trkpt lat="37.7330083" lon="-3.0669759"><ele>495.5</ele><time>2026-04-11T17:34:09.39Z</time></trkpt><trkpt lat="37.7329591" lon="-3.0671326"><ele>499.0</ele><time>2026-04-11T17:34:10.39Z</time></trkpt><trkpt lat="37.7329071" lon="-3.0672876"><ele>502.5</ele><time>2026-04-11T17:34:11.39Z</time></trkpt><trkpt lat="37.7328973" lon="-3.0674444"><ele>506.0</ele><time>2026-04-11T17:34:12.39Z</time></trkpt><trkpt lat="37.7328976" lon="-3.0676177"><ele>508.75</ele><time>2026-04-11T17:34:13.389Z</time></trkpt><trkpt lat="37.7328837" lon="-3.0677876"><ele>511.5</ele><time>2026-04-11T17:34:14.39Z</time></trkpt><trkpt lat="37.7328522" lon="-3.0679635"><ele>514.25</ele><time>2026-04-11T17:34:15.39Z</time></trkpt><trkpt lat="37.7328102" lon="-3.0681357"><ele>517.0</ele><time>2026-04-11T17:34:16.39Z</time></trkpt><trkpt lat="37.7327419" lon="-3.0683004"><ele>506.6666666666667</ele><time>2026-04-11T17:34:17.39Z</time></trkpt><trkpt lat="37.732659" lon="-3.0684648"><ele>496.33333333333337</ele><time>2026-04-11T17:34:18.39Z</time></trkpt><trkpt lat="37.7325289" lon="-3.0686098"><ele>486.0</ele><time>2026-04-11T17:34:19.39Z</time></trkpt><trkpt lat="37.7324021" lon="-3.0687764"><ele>486.0</ele><time>2026-04-11T17:34:20.39Z</time></trkpt><trkpt lat="37.7322732" lon="-3.068951"><ele>486.0</ele><time>2026-04-11T17:34:21.39Z</time></trkpt><trkpt lat="37.7321387" lon="-3.0691242"><ele>486.0</ele><time>2026-04-11T17:34:22.39Z</time></trkpt><trkpt lat="37.7319976" lon="-3.0692966"><ele>481.0</ele><time>2026-04-11T17:34:23.39Z</time></trkpt><trkpt lat="37.7318497" lon="-3.069462"><ele>476.0</ele><time>2026-04-11T17:34:24.39Z</time></trkpt><trkpt lat="37.7316946" lon="-3.0696199"><ele>471.0</ele><time>2026-04-11T17:34:25.39Z</time></trkpt><trkpt lat="37.7315384" lon="-3.0697832"><ele>472.66666666666663</ele><time>2026-04-11T17:34:26.39Z</time></trkpt><trkpt lat="37.7313801" lon="-3.0699524"><ele>474.3333333333333</ele><time>2026-04-11T17:34:27.389Z</time></trkpt><trkpt lat="37.7312206" lon="-3.0701202"><ele>476.0</ele><time>2026-04-11T17:34:28.39Z</time></trkpt><trkpt lat="37.7310631" lon="-3.0702917"><ele>475.3333333333333</ele><time>2026-04-11T17:34:29.39Z</time></trkpt><trkpt lat="37.730904" lon="-3.0704592"><ele>474.66666666666663</ele><time>2026-04-11T17:34:30.39Z</time></trkpt><trkpt lat="37.7307473" lon="-3.0706297"><ele>474.0</ele><time>2026-04-11T17:34:31.39Z</time></trkpt><trkpt lat="37.7305909" lon="-3.0707968"><ele>474.0</ele><time>2026-04-11T17:34:32.39Z</time></trkpt><trkpt lat="37.7304408" lon="-3.0709593"><ele>474.0</ele><time>2026-04-11T17:34:33.39Z</time></trkpt><trkpt lat="37.7302979" lon="-3.0711221"><ele>474.0</ele><time>2026-04-11T17:34:34.39Z</time></trkpt><trkpt lat="37.730172" lon="-3.0712943"><ele>473.33333333333337</ele><time>2026-04-11T17:34:35.39Z</time></trkpt><trkpt lat="37.7300672" lon="-3.0714851"><ele>472.6666666666667</ele><time>2026-04-11T17:34:36.39Z</time></trkpt><trkpt lat="37.7299716" lon="-3.0716796"><ele>472.0</ele><time>2026-04-11T17:34:37.39Z</time></trkpt><trkpt lat="37.7298804" lon="-3.071881"><ele>472.0</ele><time>2026-04-11T17:34:38.39Z</time></trkpt><trkpt lat="37.7297884" lon="-3.0720747"><ele>472.0</ele><time>2026-04-11T17:34:39.39Z</time></trkpt><trkpt lat="37.7296972" lon="-3.0722654"><ele>472.0</ele><time>2026-04-11T17:34:40.39Z</time></trkpt><trkpt lat="37.7296089" lon="-3.0724551"><ele>474.0</ele><time>2026-04-11T17:34:41.39Z</time></trkpt><trkpt lat="37.7295263" lon="-3.0726374"><ele>476.0</ele><time>2026-04-11T17:34:42.39Z</time></trkpt><trkpt lat="37.7294623" lon="-3.0728267"><ele>478.0</ele><time>2026-04-11T17:34:43.39Z</time></trkpt><trkpt lat="37.7294206" lon="-3.0730209"><ele>478.0</ele><time>2026-04-11T17:34:44.39Z</time></trkpt><trkpt lat="37.7294081" lon="-3.0732255"><ele>478.0</ele><time>2026-04-11T17:34:45.39Z</time></trkpt><trkpt lat="37.7294152" lon="-3.0734199"><ele>478.0</ele><time>2026-04-11T17:34:46.39Z</time></trkpt><trkpt lat="37.7294463" lon="-3.0736134"><ele>479.6666666666667</ele><time>2026-04-11T17:34:47.39Z</time></trkpt><trkpt lat="37.729495" lon="-3.0738168"><ele>481.33333333333337</ele><time>2026-04-11T17:34:48.39Z</time></trkpt><trkpt lat="37.7295557" lon="-3.0740217"><ele>483.0</ele><time>2026-04-11T17:34:49.39Z</time></trkpt><trkpt lat="37.7296195" lon="-3.0742389"><ele>483.66666666666663</ele><time>2026-04-11T17:34:50.39Z</time></trkpt><trkpt lat="37.7296834" lon="-3.0744607"><ele>484.3333333333333</ele><time>2026-04-11T17:34:51.389Z</time></trkpt><trkpt lat="37.7297447" lon="-3.074686"><ele>485.0</ele><time>2026-04-11T17:34:52.39Z</time></trkpt><trkpt lat="37.7298125" lon="-3.0749176"><ele>483.66666666666663</ele><time>2026-04-11T17:34:53.39Z</time></trkpt><trkpt lat="37.7298887" lon="-3.0751479"><ele>482.33333333333337</ele><time>2026-04-11T17:34:54.39Z</time></trkpt><trkpt lat="37.7299754" lon="-3.0753768"><ele>481.0</ele><time>2026-04-11T17:34:55.39Z</time></trkpt><trkpt lat="37.7300664" lon="-3.0756014"><ele>477.6666666666667</ele><time>2026-04-11T17:34:56.39Z</time></trkpt><trkpt lat="37.730161" lon="-3.075826"><ele>474.33333333333337</ele><time>2026-04-11T17:34:57.39Z</time></trkpt><trkpt lat="37.7302595" lon="-3.0760489"><ele>471.0</ele><time>2026-04-11T17:34:58.39Z</time></trkpt><trkpt lat="37.7303579" lon="-3.076263"><ele>473.0</ele><time>2026-04-11T17:34:59.389Z</time></trkpt><trkpt lat="37.7304591" lon="-3.0764586"><ele>475.0</ele><time>2026-04-11T17:35:00.39Z</time></trkpt><trkpt lat="37.7305463" lon="-3.0766215"><ele>477.0</ele><time>2026-04-11T17:35:01.389Z</time></trkpt><trkpt lat="37.73064" lon="-3.076759"><ele>477.0</ele><time>2026-04-11T17:35:02.39Z</time></trkpt><trkpt lat="37.7307488" lon="-3.0768604"><ele>477.0</ele><time>2026-04-11T17:35:03.39Z</time></trkpt><trkpt lat="37.7308724" lon="-3.076924"><ele>477.0</ele><time>2026-04-11T17:35:04.39Z</time></trkpt><trkpt lat="37.7310064" lon="-3.0769539"><ele>477.0</ele><time>2026-04-11T17:35:05.39Z</time></trkpt><trkpt lat="37.7311486" lon="-3.0769736"><ele>481.0</ele><time>2026-04-11T17:35:06.39Z</time></trkpt><trkpt lat="37.7312967" lon="-3.0769925"><ele>485.0</ele><time>2026-04-11T17:35:07.39Z</time></trkpt><trkpt lat="37.73145" lon="-3.0769996"><ele>489.0</ele><time>2026-04-11T17:35:08.39Z</time></trkpt><trkpt lat="37.7316054" lon="-3.0769898"><ele>489.0</ele><time>2026-04-11T17:35:09.39Z</time></trkpt><trkpt lat="37.7317591" lon="-3.0769788"><ele>489.0</ele><time>2026-04-11T17:35:10.39Z</time></trkpt><trkpt lat="37.7319153" lon="-3.0769919"><ele>489.0</ele><time>2026-04-11T17:35:11.389Z</time></trkpt><trkpt lat="37.7320698" lon="-3.0770487"><ele>493.0</ele><time>2026-04-11T17:35:12.39Z</time></trkpt><trkpt lat="37.7322241" lon="-3.0771303"><ele>497.0</ele><time>2026-04-11T17:35:13.39Z</time></trkpt><trkpt lat="37.7323788" lon="-3.0772092"><ele>501.0</ele><time>2026-04-11T17:35:14.389Z</time></trkpt><trkpt lat="37.7325483" lon="-3.0772921"><ele>502.0</ele><time>2026-04-11T17:35:15.389Z</time></trkpt><trkpt lat="37.7327244" lon="-3.077352"><ele>503.0</ele><time>2026-04-11T17:35:16.39Z</time></trkpt><trkpt lat="37.7329136" lon="-3.0773913"><ele>504.0</ele><time>2026-04-11T17:35:17.39Z</time></trkpt><trkpt lat="37.7331033" lon="-3.0774138"><ele>504.0</ele><time>2026-04-11T17:35:18.39Z</time></trkpt><trkpt lat="37.7332938" lon="-3.0774325"><ele>504.0</ele><time>2026-04-11T17:35:19.39Z</time></trkpt><trkpt lat="37.733479" lon="-3.0774514"><ele>504.0</ele><time>2026-04-11T17:35:20.39Z</time></trkpt><trkpt lat="37.7336516" lon="-3.0774707"><ele>492.66666666666663</ele><time>2026-04-11T17:35:21.389Z</time></trkpt><trkpt lat="37.7338127" lon="-3.0774969"><ele>481.3333333333333</ele><time>2026-04-11T17:35:22.39Z</time></trkpt><trkpt lat="37.7339667" lon="-3.0775508"><ele>470.0</ele><time>2026-04-11T17:35:23.39Z</time></trkpt><trkpt lat="37.7341075" lon="-3.0776369"><ele>470.0</ele><time>2026-04-11T17:35:24.39Z</time></trkpt><trkpt lat="37.7342375" lon="-3.0777339"><ele>470.0</ele><time>2026-04-11T17:35:25.389Z</time></trkpt><trkpt lat="37.7343624" lon="-3.0778073"><ele>470.0</ele><time>2026-04-11T17:35:26.39Z</time></trkpt><trkpt lat="37.7344917" lon="-3.0778464"><ele>470.0</ele><time>2026-04-11T17:35:27.39Z</time></trkpt><trkpt lat="37.734629" lon="-3.0778349"><ele>469.75</ele><time>2026-04-11T17:35:28.39Z</time></trkpt><trkpt lat="37.7347662" lon="-3.077796"><ele>469.5</ele><time>2026-04-11T17:35:29.39Z</time></trkpt><trkpt lat="37.7349026" lon="-3.0777516"><ele>469.25</ele><time>2026-04-11T17:35:30.39Z</time></trkpt><trkpt lat="37.7350409" lon="-3.0777124"><ele>469.0</ele><time>2026-04-11T17:35:31.39Z</time></trkpt><trkpt lat="37.7351804" lon="-3.0776866"><ele>471.33333333333337</ele><time>2026-04-11T17:35:32.39Z</time></trkpt><trkpt lat="37.7353242" lon="-3.0776885"><ele>473.66666666666663</ele><time>2026-04-11T17:35:33.389Z</time></trkpt><trkpt lat="37.7354732" lon="-3.0777041"><ele>476.0</ele><time>2026-04-11T17:35:34.389Z</time></trkpt><trkpt lat="37.7356286" lon="-3.0777298"><ele>476.0</ele><time>2026-04-11T17:35:35.39Z</time></trkpt><trkpt lat="37.7357838" lon="-3.0777732"><ele>476.0</ele><time>2026-04-11T17:35:36.39Z</time></trkpt><trkpt lat="37.7359344" lon="-3.0778082"><ele>476.0</ele><time>2026-04-11T17:35:37.389Z</time></trkpt><trkpt lat="37.7361039" lon="-3.0778613"><ele>481.66666666666663</ele><time>2026-04-11T17:35:38.39Z</time></trkpt><trkpt lat="37.7362644" lon="-3.0779276"><ele>487.33333333333337</ele><time>2026-04-11T17:35:39.39Z</time></trkpt><trkpt lat="37.7364284" lon="-3.0780046"><ele>493.0</ele><time>2026-04-11T17:35:40.39Z</time></trkpt><trkpt lat="37.736589" lon="-3.0780851"><ele>493.0</ele><time>2026-04-11T17:35:41.39Z</time></trkpt><trkpt lat="37.7367472" lon="-3.0781614"><ele>493.0</ele><time>2026-04-11T17:35:42.389Z</time></trkpt><trkpt lat="37.7369007" lon="-3.0782452"><ele>493.0</ele><time>2026-04-11T17:35:43.39Z</time></trkpt><trkpt lat="37.7370439" lon="-3.0783366"><ele>490.6666666666667</ele><time>2026-04-11T17:35:44.39Z</time></trkpt><trkpt lat="37.7371841" lon="-3.0784359"><ele>488.33333333333337</ele><time>2026-04-11T17:35:45.389Z</time></trkpt><trkpt lat="37.7373308" lon="-3.0785237"><ele>486.0</ele><time>2026-04-11T17:35:46.389Z</time></trkpt><trkpt lat="37.7374859" lon="-3.0785973"><ele>486.0</ele><time>2026-04-11T17:35:47.39Z</time></trkpt><trkpt lat="37.7376516" lon="-3.078652"><ele>486.0</ele><time>2026-04-11T17:35:48.39Z</time></trkpt><trkpt lat="37.7378218" lon="-3.0786971"><ele>486.0</ele><time>2026-04-11T17:35:49.389Z</time></trkpt><trkpt lat="37.7379943" lon="-3.0787428"><ele>485.0</ele><time>2026-04-11T17:35:50.39Z</time></trkpt><trkpt lat="37.7381703" lon="-3.0787888"><ele>484.0</ele><time>2026-04-11T17:35:51.39Z</time></trkpt><trkpt lat="37.7383397" lon="-3.0788364"><ele>483.0</ele><time>2026-04-11T17:35:52.39Z</time></trkpt><trkpt lat="37.7385067" lon="-3.0788813"><ele>483.0</ele><time>2026-04-11T17:35:53.39Z</time></trkpt><trkpt lat="37.7386696" lon="-3.0789239"><ele>483.0</ele><time>2026-04-11T17:35:54.39Z</time></trkpt><trkpt lat="37.7388245" lon="-3.0789803"><ele>483.0</ele><time>2026-04-11T17:35:55.39Z</time></trkpt><trkpt lat="37.7389722" lon="-3.0790609"><ele>478.0</ele><time>2026-04-11T17:35:56.39Z</time></trkpt><trkpt lat="37.739114" lon="-3.0791476"><ele>473.0</ele><time>2026-04-11T17:35:57.39Z</time></trkpt><trkpt lat="37.7392415" lon="-3.0792928"><ele>468.0</ele><time>2026-04-11T17:35:58.39Z</time></trkpt><trkpt lat="37.7393686" lon="-3.0794425"><ele>470.66666666666663</ele><time>2026-04-11T17:35:59.39Z</time></trkpt><trkpt lat="37.7394834" lon="-3.0795966"><ele>473.3333333333333</ele><time>2026-04-11T17:36:00.39Z</time></trkpt><trkpt lat="37.73963" lon="-3.0797334"><ele>476.0</ele><time>2026-04-11T17:36:01.39Z</time></trkpt><trkpt lat="37.7397571" lon="-3.0798755"><ele>471.66666666666663</ele><time>2026-04-11T17:36:02.39Z</time></trkpt><trkpt lat="37.7398814" lon="-3.0800118"><ele>467.33333333333337</ele><time>2026-04-11T17:36:03.39Z</time></trkpt><trkpt lat="37.7399949" lon="-3.080141"><ele>463.0</ele><time>2026-04-11T17:36:04.389Z</time></trkpt><trkpt lat="37.7400955" lon="-3.0802599"><ele>463.0</ele><time>2026-04-11T17:36:05.39Z</time></trkpt><trkpt lat="37.7401855" lon="-3.0803748"><ele>463.0</ele><time>2026-04-11T17:36:06.39Z</time></trkpt><trkpt lat="37.7402636" lon="-3.08049"><ele>463.0</ele><time>2026-04-11T17:36:07.39Z</time></trkpt><trkpt lat="37.7403326" lon="-3.080596"><ele>463.0</ele><time>2026-04-11T17:36:08.39Z</time></trkpt><trkpt lat="37.740411" lon="-3.0806847"><ele>464.75</ele><time>2026-04-11T17:36:09.39Z</time></trkpt><trkpt lat="37.7405016" lon="-3.080758"><ele>466.5</ele><time>2026-04-11T17:36:10.39Z</time></trkpt><trkpt lat="37.7406055" lon="-3.0808019"><ele>468.25</ele><time>2026-04-11T17:36:11.39Z</time></trkpt><trkpt lat="37.7407203" lon="-3.0808147"><ele>470.0</ele><time>2026-04-11T17:36:12.39Z</time></trkpt><trkpt lat="37.7408392" lon="-3.0808109"><ele>470.25</ele><time>2026-04-11T17:36:13.389Z</time></trkpt><trkpt lat="37.7409627" lon="-3.080807"><ele>470.5</ele><time>2026-04-11T17:36:14.389Z</time></trkpt><trkpt lat="37.741087" lon="-3.0808026"><ele>470.75</ele><time>2026-04-11T17:36:15.39Z</time></trkpt><trkpt lat="37.7412058" lon="-3.0807973"><ele>471.0</ele><time>2026-04-11T17:36:16.39Z</time></trkpt><trkpt lat="37.7413272" lon="-3.0808023"><ele>474.5</ele><time>2026-04-11T17:36:17.39Z</time></trkpt><trkpt lat="37.741445" lon="-3.0808328"><ele>478.0</ele><time>2026-04-11T17:36:18.39Z</time></trkpt><trkpt lat="37.7415591" lon="-3.0808976"><ele>481.5</ele><time>2026-04-11T17:36:19.39Z</time></trkpt><trkpt lat="37.7416515" lon="-3.0809965"><ele>485.0</ele><time>2026-04-11T17:36:20.39Z</time></trkpt><trkpt lat="37.7417217" lon="-3.0811105"><ele>485.0</ele><time>2026-04-11T17:36:21.39Z</time></trkpt><trkpt lat="37.7417931" lon="-3.0812344"><ele>485.0</ele><time>2026-04-11T17:36:22.39Z</time></trkpt><trkpt lat="37.7418649" lon="-3.081362"><ele>485.0</ele><time>2026-04-11T17:36:23.39Z</time></trkpt><trkpt lat="37.7419491" lon="-3.0814835"><ele>485.0</ele><time>2026-04-11T17:36:24.39Z</time></trkpt><trkpt lat="37.7420445" lon="-3.0815869"><ele>488.0</ele><time>2026-04-11T17:36:25.39Z</time></trkpt><trkpt lat="37.7421517" lon="-3.0816753"><ele>491.0</ele><time>2026-04-11T17:36:26.39Z</time></trkpt><trkpt lat="37.7422586" lon="-3.0817696"><ele>494.0</ele><time>2026-04-11T17:36:27.39Z</time></trkpt><trkpt lat="37.7423697" lon="-3.0818635"><ele>497.0</ele><time>2026-04-11T17:36:28.39Z</time></trkpt><trkpt lat="37.7424729" lon="-3.0819706"><ele>497.0</ele><time>2026-04-11T17:36:29.39Z</time></trkpt><trkpt lat="37.7425681" lon="-3.082086"><ele>497.0</ele><time>2026-04-11T17:36:30.39Z</time></trkpt><trkpt lat="37.7426515" lon="-3.0822262"><ele>497.0</ele><time>2026-04-11T17:36:31.39Z</time></trkpt><trkpt lat="37.7427283" lon="-3.0823856"><ele>497.0</ele><time>2026-04-11T17:36:32.389Z</time></trkpt><trkpt lat="37.7428007" lon="-3.0825332"><ele>506.5</ele><time>2026-04-11T17:36:33.39Z</time></trkpt><trkpt lat="37.7428737" lon="-3.0826832"><ele>516.0</ele><time>2026-04-11T17:36:34.39Z</time></trkpt><trkpt lat="37.7429488" lon="-3.0828366"><ele>525.5</ele><time>2026-04-11T17:36:35.39Z</time></trkpt><trkpt lat="37.7430248" lon="-3.0829902"><ele>535.0</ele><time>2026-04-11T17:36:36.39Z</time></trkpt><trkpt lat="37.7431014" lon="-3.0831383"><ele>530.25</ele><time>2026-04-11T17:36:37.39Z</time></trkpt><trkpt lat="37.7431762" lon="-3.0832921"><ele>525.5</ele><time>2026-04-11T17:36:38.39Z</time></trkpt><trkpt lat="37.7432497" lon="-3.0834477"><ele>520.75</ele><time>2026-04-11T17:36:39.39Z</time></trkpt><trkpt lat="37.74332" lon="-3.0836086"><ele>516.0</ele><time>2026-04-11T17:36:40.389Z</time></trkpt><trkpt lat="37.7433874" lon="-3.0837744"><ele>516.0</ele><time>2026-04-11T17:36:41.39Z</time></trkpt><trkpt lat="37.7434511" lon="-3.0839421"><ele>516.0</ele><time>2026-04-11T17:36:42.389Z</time></trkpt><trkpt lat="37.7435141" lon="-3.0841103"><ele>516.0</ele><time>2026-04-11T17:36:43.39Z</time></trkpt><trkpt lat="37.7435736" lon="-3.0842717"><ele>516.0</ele><time>2026-04-11T17:36:44.39Z</time></trkpt><trkpt lat="37.7436336" lon="-3.0844297"><ele>520.5</ele><time>2026-04-11T17:36:45.39Z</time></trkpt><trkpt lat="37.7436852" lon="-3.0845813"><ele>525.0</ele><time>2026-04-11T17:36:46.39Z</time></trkpt><trkpt lat="37.743722" lon="-3.0847409"><ele>529.5</ele><time>2026-04-11T17:36:47.39Z</time></trkpt><trkpt lat="37.7437422" lon="-3.0849056"><ele>534.0</ele><time>2026-04-11T17:36:48.389Z</time></trkpt><trkpt lat="37.7437419" lon="-3.0850715"><ele>534.0</ele><time>2026-04-11T17:36:49.39Z</time></trkpt><trkpt lat="37.7437265" lon="-3.0852331"><ele>534.0</ele><time>2026-04-11T17:36:50.39Z</time></trkpt><trkpt lat="37.7437091" lon="-3.0853904"><ele>534.0</ele><time>2026-04-11T17:36:51.39Z</time></trkpt><trkpt lat="37.7437052" lon="-3.0855386"><ele>534.0</ele><time>2026-04-11T17:36:52.39Z</time></trkpt><trkpt lat="37.7437277" lon="-3.0856802"><ele>531.5</ele><time>2026-04-11T17:36:53.39Z</time></trkpt><trkpt lat="37.7437593" lon="-3.0858113"><ele>529.0</ele><time>2026-04-11T17:36:54.39Z</time></trkpt><trkpt lat="37.7438022" lon="-3.0859247"><ele>526.5</ele><time>2026-04-11T17:36:55.39Z</time></trkpt><trkpt lat="37.7439397" lon="-3.0859388"><ele>524.0</ele><time>2026-04-11T17:36:56.39Z</time></trkpt><trkpt lat="37.7440455" lon="-3.0859549"><ele>524.0</ele><time>2026-04-11T17:36:57.39Z</time></trkpt><trkpt lat="37.7441507" lon="-3.0859415"><ele>524.0</ele><time>2026-04-11T17:36:58.39Z</time></trkpt><trkpt lat="37.7442522" lon="-3.0859234"><ele>524.0</ele><time>2026-04-11T17:36:59.39Z</time></trkpt><trkpt lat="37.7443633" lon="-3.0859656"><ele>524.0</ele><time>2026-04-11T17:37:00.39Z</time></trkpt><trkpt lat="37.7444702" lon="-3.0860372"><ele>524.0</ele><time>2026-04-11T17:37:01.39Z</time></trkpt><trkpt lat="37.7445633" lon="-3.086133"><ele>526.25</ele><time>2026-04-11T17:37:02.39Z</time></trkpt><trkpt lat="37.7446625" lon="-3.0862309"><ele>528.5</ele><time>2026-04-11T17:37:03.39Z</time></trkpt><trkpt lat="37.7447722" lon="-3.086305"><ele>530.75</ele><time>2026-04-11T17:37:04.39Z</time></trkpt><trkpt lat="37.7448911" lon="-3.0863751"><ele>533.0</ele><time>2026-04-11T17:37:05.39Z</time></trkpt><trkpt lat="37.7450079" lon="-3.0864398"><ele>533.0</ele><time>2026-04-11T17:37:06.39Z</time></trkpt><trkpt lat="37.7451285" lon="-3.0865058"><ele>533.0</ele><time>2026-04-11T17:37:07.39Z</time></trkpt><trkpt lat="37.7452463" lon="-3.0865738"><ele>533.0</ele><time>2026-04-11T17:37:08.39Z</time></trkpt><trkpt lat="37.7453628" lon="-3.0866388"><ele>533.0</ele><time>2026-04-11T17:37:09.39Z</time></trkpt><trkpt lat="37.7454797" lon="-3.0866883"><ele>536.0</ele><time>2026-04-11T17:37:10.39Z</time></trkpt><trkpt lat="37.7455986" lon="-3.0867106"><ele>539.0</ele><time>2026-04-11T17:37:11.389Z</time></trkpt><trkpt lat="37.7457207" lon="-3.0867046"><ele>542.0</ele><time>2026-04-11T17:37:12.389Z</time></trkpt><trkpt lat="37.7458411" lon="-3.0866818"><ele>545.0</ele><time>2026-04-11T17:37:13.39Z</time></trkpt><trkpt lat="37.7459643" lon="-3.0866667"><ele>546.5</ele><time>2026-04-11T17:37:14.39Z</time></trkpt><trkpt lat="37.7460869" lon="-3.0866741"><ele>548.0</ele><time>2026-04-11T17:37:15.39Z</time></trkpt><trkpt lat="37.7462057" lon="-3.0866939"><ele>549.5</ele><time>2026-04-11T17:37:16.39Z</time></trkpt><trkpt lat="37.7463207" lon="-3.0867275"><ele>551.0</ele><time>2026-04-11T17:37:17.39Z</time></trkpt><trkpt lat="37.7464311" lon="-3.086786"><ele>551.0</ele><time>2026-04-11T17:37:18.39Z</time></trkpt><trkpt lat="37.746543" lon="-3.0868683"><ele>551.0</ele><time>2026-04-11T17:37:19.389Z</time></trkpt><trkpt lat="37.7466444" lon="-3.086965"><ele>551.0</ele><time>2026-04-11T17:37:20.39Z</time></trkpt><trkpt lat="37.7467347" lon="-3.0870781"><ele>551.0</ele><time>2026-04-11T17:37:21.389Z</time></trkpt><trkpt lat="37.746805" lon="-3.087191"><ele>551.0</ele><time>2026-04-11T17:37:22.39Z</time></trkpt><trkpt lat="37.746874" lon="-3.0872816"><ele>551.0</ele><time>2026-04-11T17:37:23.39Z</time></trkpt><trkpt lat="37.7468985" lon="-3.0875033"><ele>551.0</ele><time>2026-04-11T17:37:24.39Z</time></trkpt><trkpt lat="37.7469614" lon="-3.0876481"><ele>551.0</ele><time>2026-04-11T17:37:25.389Z</time></trkpt><trkpt lat="37.7470525" lon="-3.0877411"><ele>554.75</ele><time>2026-04-11T17:37:26.39Z</time></trkpt><trkpt lat="37.7471111" lon="-3.087916"><ele>558.5</ele><time>2026-04-11T17:37:27.39Z</time></trkpt><trkpt lat="37.7471741" lon="-3.0880746"><ele>562.25</ele><time>2026-04-11T17:37:28.39Z</time></trkpt><trkpt lat="37.7472321" lon="-3.0881481"><ele>566.0</ele><time>2026-04-11T17:37:29.39Z</time></trkpt><trkpt lat="37.7472934" lon="-3.0884042"><ele>566.3333333333333</ele><time>2026-04-11T17:37:30.39Z</time></trkpt><trkpt lat="37.7473351" lon="-3.0885757"><ele>566.6666666666666</ele><time>2026-04-11T17:37:31.389Z</time></trkpt><trkpt lat="37.7473811" lon="-3.0887458"><ele>567.0</ele><time>2026-04-11T17:37:32.39Z</time></trkpt><trkpt lat="37.7474814" lon="-3.0890776"><ele>568.0</ele><time>2026-04-11T17:37:34.39Z</time></trkpt><trkpt lat="37.7475514" lon="-3.0892944"><ele>569.0</ele><time>2026-04-11T17:37:36.233Z</time></trkpt><trkpt lat="37.7476766" lon="-3.0895658"><ele>570.0</ele><time>2026-04-11T17:37:38.17Z</time></trkpt><trkpt lat="37.7478837" lon="-3.0898022"><ele>577.5</ele><time>2026-04-11T17:37:40.139Z</time></trkpt><trkpt lat="37.7481444" lon="-3.0899546"><ele>585.0</ele><time>2026-04-11T17:37:42.407Z</time></trkpt><trkpt lat="37.7483838" lon="-3.0900141"><ele>586.3333333333334</ele><time>2026-04-11T17:37:44.251Z</time></trkpt><trkpt lat="37.7485927" lon="-3.0899856"><ele>587.6666666666667</ele><time>2026-04-11T17:37:45.388Z</time></trkpt><trkpt lat="37.748711" lon="-3.0899327"><ele>589.0</ele><time>2026-04-11T17:37:46.389Z</time></trkpt><trkpt lat="37.7488254" lon="-3.0898833"><ele>589.25</ele><time>2026-04-11T17:37:47.387Z</time></trkpt><trkpt lat="37.7489275" lon="-3.0898078"><ele>589.5</ele><time>2026-04-11T17:37:48.384Z</time></trkpt><trkpt lat="37.7490435" lon="-3.0897493"><ele>589.75</ele><time>2026-04-11T17:37:49.385Z</time></trkpt><trkpt lat="37.7491534" lon="-3.0896879"><ele>590.0</ele><time>2026-04-11T17:37:50.385Z</time></trkpt><trkpt lat="37.7492671" lon="-3.0896357"><ele>589.25</ele><time>2026-04-11T17:37:51.385Z</time></trkpt><trkpt lat="37.7493892" lon="-3.0895779"><ele>588.5</ele><time>2026-04-11T17:37:52.385Z</time></trkpt><trkpt lat="37.7495147" lon="-3.0895148"><ele>587.75</ele><time>2026-04-11T17:37:53.385Z</time></trkpt><trkpt lat="37.7496448" lon="-3.0894441"><ele>587.0</ele><time>2026-04-11T17:37:54.385Z</time></trkpt><trkpt lat="37.7497738" lon="-3.0893616"><ele>587.0</ele><time>2026-04-11T17:37:55.385Z</time></trkpt><trkpt lat="37.7498935" lon="-3.0892516"><ele>587.0</ele><time>2026-04-11T17:37:56.385Z</time></trkpt><trkpt lat="37.7499996" lon="-3.0891216"><ele>587.0</ele><time>2026-04-11T17:37:57.385Z</time></trkpt><trkpt lat="37.7500939" lon="-3.0889698"><ele>587.0</ele><time>2026-04-11T17:37:58.385Z</time></trkpt><trkpt lat="37.7502122" lon="-3.0888187"><ele>587.0</ele><time>2026-04-11T17:37:59.385Z</time></trkpt><trkpt lat="37.7503143" lon="-3.0886636"><ele>587.0</ele><time>2026-04-11T17:38:00.385Z</time></trkpt><trkpt lat="37.750418" lon="-3.0885068"><ele>587.0</ele><time>2026-04-11T17:38:01.384Z</time></trkpt><trkpt lat="37.7505223" lon="-3.0883526"><ele>588.0</ele><time>2026-04-11T17:38:02.385Z</time></trkpt><trkpt lat="37.7506245" lon="-3.0881943"><ele>589.0</ele><time>2026-04-11T17:38:03.385Z</time></trkpt><trkpt lat="37.7507274" lon="-3.0880376"><ele>590.0</ele><time>2026-04-11T17:38:04.385Z</time></trkpt><trkpt lat="37.7508311" lon="-3.0878781"><ele>590.0</ele><time>2026-04-11T17:38:05.385Z</time></trkpt><trkpt lat="37.7509354" lon="-3.0877199"><ele>590.0</ele><time>2026-04-11T17:38:06.385Z</time></trkpt><trkpt lat="37.75104" lon="-3.0875648"><ele>590.0</ele><time>2026-04-11T17:38:07.384Z</time></trkpt><trkpt lat="37.7511428" lon="-3.0874113"><ele>587.3333333333333</ele><time>2026-04-11T17:38:08.385Z</time></trkpt><trkpt lat="37.7512469" lon="-3.0872556"><ele>584.6666666666666</ele><time>2026-04-11T17:38:09.385Z</time></trkpt><trkpt lat="37.7513532" lon="-3.0871026"><ele>582.0</ele><time>2026-04-11T17:38:10.384Z</time></trkpt><trkpt lat="37.7514569" lon="-3.0869493"><ele>582.0</ele><time>2026-04-11T17:38:11.385Z</time></trkpt><trkpt lat="37.7515569" lon="-3.0867973"><ele>582.0</ele><time>2026-04-11T17:38:12.385Z</time></trkpt><trkpt lat="37.751658" lon="-3.0866411"><ele>582.0</ele><time>2026-04-11T17:38:13.385Z</time></trkpt><trkpt lat="37.75173" lon="-3.0864667"><ele>582.0</ele><time>2026-04-11T17:38:14.385Z</time></trkpt><trkpt lat="37.751801" lon="-3.0863069"><ele>582.0</ele><time>2026-04-11T17:38:15.384Z</time></trkpt><trkpt lat="37.7518654" lon="-3.0861497"><ele>582.0</ele><time>2026-04-11T17:38:16.385Z</time></trkpt><trkpt lat="37.7519263" lon="-3.085984"><ele>582.0</ele><time>2026-04-11T17:38:17.384Z</time></trkpt><trkpt lat="37.7519728" lon="-3.0858347"><ele>578.25</ele><time>2026-04-11T17:38:18.385Z</time></trkpt><trkpt lat="37.7520019" lon="-3.085675"><ele>574.5</ele><time>2026-04-11T17:38:19.385Z</time></trkpt><trkpt lat="37.7520106" lon="-3.0855118"><ele>570.75</ele><time>2026-04-11T17:38:20.385Z</time></trkpt><trkpt lat="37.7520105" lon="-3.0853502"><ele>567.0</ele><time>2026-04-11T17:38:21.385Z</time></trkpt><trkpt lat="37.7520177" lon="-3.0851913"><ele>567.0</ele><time>2026-04-11T17:38:22.385Z</time></trkpt><trkpt lat="37.7520446" lon="-3.0850424"><ele>567.0</ele><time>2026-04-11T17:38:23.385Z</time></trkpt><trkpt lat="37.7520942" lon="-3.0849027"><ele>567.0</ele><time>2026-04-11T17:38:24.385Z</time></trkpt><trkpt lat="37.7521675" lon="-3.0847747"><ele>567.0</ele><time>2026-04-11T17:38:25.385Z</time></trkpt><trkpt lat="37.7522642" lon="-3.0846731"><ele>568.25</ele><time>2026-04-11T17:38:26.385Z</time></trkpt><trkpt lat="37.7523799" lon="-3.0845991"><ele>569.5</ele><time>2026-04-11T17:38:27.385Z</time></trkpt><trkpt lat="37.7525048" lon="-3.0845617"><ele>570.75</ele><time>2026-04-11T17:38:28.385Z</time></trkpt><trkpt lat="37.752633" lon="-3.0845298"><ele>572.0</ele><time>2026-04-11T17:38:29.385Z</time></trkpt><trkpt lat="37.7527461" lon="-3.0844849"><ele>574.8000000000001</ele><time>2026-04-11T17:38:30.385Z</time></trkpt><trkpt lat="37.7528371" lon="-3.0844354"><ele>577.6</ele><time>2026-04-11T17:38:31.385Z</time></trkpt><trkpt lat="37.7529173" lon="-3.0843818"><ele>580.4000000000001</ele><time>2026-04-11T17:38:32.385Z</time></trkpt><trkpt lat="37.7529978" lon="-3.0843193"><ele>583.2</ele><time>2026-04-11T17:38:33.385Z</time></trkpt><trkpt lat="37.7530843" lon="-3.0842527"><ele>586.0</ele><time>2026-04-11T17:38:34.385Z</time></trkpt><trkpt lat="37.7531813" lon="-3.0841986"><ele>586.0</ele><time>2026-04-11T17:38:35.384Z</time></trkpt><trkpt lat="37.7532897" lon="-3.0841612"><ele>586.0</ele><time>2026-04-11T17:38:36.385Z</time></trkpt><trkpt lat="37.7534073" lon="-3.0841316"><ele>586.0</ele><time>2026-04-11T17:38:37.385Z</time></trkpt><trkpt lat="37.7535265" lon="-3.0840896"><ele>586.0</ele><time>2026-04-11T17:38:38.385Z</time></trkpt><trkpt lat="37.7536273" lon="-3.0840217"><ele>586.8</ele><time>2026-04-11T17:38:39.384Z</time></trkpt><trkpt lat="37.753709" lon="-3.0839311"><ele>587.6</ele><time>2026-04-11T17:38:40.385Z</time></trkpt><trkpt lat="37.7537711" lon="-3.083817"><ele>588.4</ele><time>2026-04-11T17:38:41.384Z</time></trkpt><trkpt lat="37.7538339" lon="-3.0837079"><ele>589.2</ele><time>2026-04-11T17:38:42.385Z</time></trkpt><trkpt lat="37.7539188" lon="-3.083623"><ele>590.0</ele><time>2026-04-11T17:38:43.384Z</time></trkpt><trkpt lat="37.7540286" lon="-3.0835726"><ele>590.0</ele><time>2026-04-11T17:38:44.385Z</time></trkpt><trkpt lat="37.7541502" lon="-3.0835599"><ele>590.0</ele><time>2026-04-11T17:38:45.385Z</time></trkpt><trkpt lat="37.7542748" lon="-3.0836015"><ele>590.0</ele><time>2026-04-11T17:38:46.385Z</time></trkpt><trkpt lat="37.7543886" lon="-3.0836969"><ele>590.0</ele><time>2026-04-11T17:38:47.384Z</time></trkpt><trkpt lat="37.7544906" lon="-3.0838188"><ele>592.0</ele><time>2026-04-11T17:38:48.385Z</time></trkpt><trkpt lat="37.7546002" lon="-3.0839191"><ele>594.0</ele><time>2026-04-11T17:38:49.385Z</time></trkpt><trkpt lat="37.7547272" lon="-3.0839854"><ele>596.0</ele><time>2026-04-11T17:38:50.385Z</time></trkpt><trkpt lat="37.7548671" lon="-3.0840045"><ele>598.0</ele><time>2026-04-11T17:38:51.385Z</time></trkpt><trkpt lat="37.7550057" lon="-3.0840005"><ele>598.0</ele><time>2026-04-11T17:38:52.385Z</time></trkpt><trkpt lat="37.7551537" lon="-3.0839642"><ele>598.0</ele><time>2026-04-11T17:38:53.384Z</time></trkpt><trkpt lat="37.7553049" lon="-3.083931"><ele>598.0</ele><time>2026-04-11T17:38:54.385Z</time></trkpt><trkpt lat="37.7554613" lon="-3.0839048"><ele>598.6666666666667</ele><time>2026-04-11T17:38:55.385Z</time></trkpt><trkpt lat="37.7556227" lon="-3.0838963"><ele>599.3333333333334</ele><time>2026-04-11T17:38:56.385Z</time></trkpt><trkpt lat="37.7557852" lon="-3.0839019"><ele>600.0</ele><time>2026-04-11T17:38:57.385Z</time></trkpt><trkpt lat="37.7559541" lon="-3.0839032"><ele>601.3333333333334</ele><time>2026-04-11T17:38:58.385Z</time></trkpt><trkpt lat="37.7561247" lon="-3.0839054"><ele>602.6666666666667</ele><time>2026-04-11T17:38:59.385Z</time></trkpt><trkpt lat="37.7562929" lon="-3.0839088"><ele>604.0</ele><time>2026-04-11T17:39:00.385Z</time></trkpt><trkpt lat="37.7564519" lon="-3.0839095"><ele>604.0</ele><time>2026-04-11T17:39:01.385Z</time></trkpt><trkpt lat="37.7566039" lon="-3.0838947"><ele>604.0</ele><time>2026-04-11T17:39:02.385Z</time></trkpt><trkpt lat="37.7567506" lon="-3.0838568"><ele>604.0</ele><time>2026-04-11T17:39:03.385Z</time></trkpt><trkpt lat="37.7568927" lon="-3.0837908"><ele>602.6666666666667</ele><time>2026-04-11T17:39:04.385Z</time></trkpt><trkpt lat="37.7570298" lon="-3.0837039"><ele>601.3333333333334</ele><time>2026-04-11T17:39:05.385Z</time></trkpt><trkpt lat="37.7571605" lon="-3.0835925"><ele>600.0</ele><time>2026-04-11T17:39:06.385Z</time></trkpt><trkpt lat="37.7572877" lon="-3.083468"><ele>600.0</ele><time>2026-04-11T17:39:07.385Z</time></trkpt><trkpt lat="37.7574176" lon="-3.0833364"><ele>600.0</ele><time>2026-04-11T17:39:08.385Z</time></trkpt><trkpt lat="37.7575452" lon="-3.0832063"><ele>600.0</ele><time>2026-04-11T17:39:09.385Z</time></trkpt><trkpt lat="37.757676" lon="-3.0830729"><ele>600.0</ele><time>2026-04-11T17:39:10.385Z</time></trkpt><trkpt lat="37.757802" lon="-3.0829393"><ele>600.0</ele><time>2026-04-11T17:39:11.385Z</time></trkpt><trkpt lat="37.7579308" lon="-3.0828076"><ele>600.0</ele><time>2026-04-11T17:39:12.384Z</time></trkpt><trkpt lat="37.7580574" lon="-3.0826805"><ele>600.0</ele><time>2026-04-11T17:39:13.385Z</time></trkpt><trkpt lat="37.7581799" lon="-3.0825601"><ele>600.0</ele><time>2026-04-11T17:39:14.385Z</time></trkpt><trkpt lat="37.7582876" lon="-3.0824537"><ele>600.0</ele><time>2026-04-11T17:39:15.385Z</time></trkpt><trkpt lat="37.7583848" lon="-3.0823534"><ele>600.0</ele><time>2026-04-11T17:39:16.385Z</time></trkpt><trkpt lat="37.7584781" lon="-3.0822563"><ele>601.25</ele><time>2026-04-11T17:39:17.385Z</time></trkpt><trkpt lat="37.7585621" lon="-3.082163"><ele>602.5</ele><time>2026-04-11T17:39:18.385Z</time></trkpt><trkpt lat="37.7586463" lon="-3.082073"><ele>603.75</ele><time>2026-04-11T17:39:19.385Z</time></trkpt><trkpt lat="37.7587381" lon="-3.0819973"><ele>605.0</ele><time>2026-04-11T17:39:20.385Z</time></trkpt><trkpt lat="37.7588477" lon="-3.0819357"><ele>605.0</ele><time>2026-04-11T17:39:21.385Z</time></trkpt><trkpt lat="37.7589725" lon="-3.0818937"><ele>605.0</ele><time>2026-04-11T17:39:22.385Z</time></trkpt><trkpt lat="37.7591045" lon="-3.0818543"><ele>605.0</ele><time>2026-04-11T17:39:23.385Z</time></trkpt><trkpt lat="37.7592432" lon="-3.0818055"><ele>605.0</ele><time>2026-04-11T17:39:24.385Z</time></trkpt><trkpt lat="37.7593832" lon="-3.0817496"><ele>606.5</ele><time>2026-04-11T17:39:25.385Z</time></trkpt><trkpt lat="37.7595211" lon="-3.0816946"><ele>608.0</ele><time>2026-04-11T17:39:26.384Z</time></trkpt><trkpt lat="37.7596664" lon="-3.0816446"><ele>609.5</ele><time>2026-04-11T17:39:27.384Z</time></trkpt><trkpt lat="37.7598177" lon="-3.0816124"><ele>611.0</ele><time>2026-04-11T17:39:28.385Z</time></trkpt><trkpt lat="37.7599723" lon="-3.0815878"><ele>612.6666666666666</ele><time>2026-04-11T17:39:29.385Z</time></trkpt><trkpt lat="37.7601259" lon="-3.0815654"><ele>614.3333333333334</ele><time>2026-04-11T17:39:30.385Z</time></trkpt><trkpt lat="37.7602821" lon="-3.0815403"><ele>616.0</ele><time>2026-04-11T17:39:31.385Z</time></trkpt><trkpt lat="37.7604419" lon="-3.0815153"><ele>616.3333333333334</ele><time>2026-04-11T17:39:32.385Z</time></trkpt><trkpt lat="37.7606013" lon="-3.081488"><ele>616.6666666666666</ele><time>2026-04-11T17:39:33.385Z</time></trkpt><trkpt lat="37.7607625" lon="-3.0814583"><ele>617.0</ele><time>2026-04-11T17:39:34.384Z</time></trkpt><trkpt lat="37.7609262" lon="-3.0814322"><ele>618.3333333333333</ele><time>2026-04-11T17:39:35.385Z</time></trkpt><trkpt lat="37.7610913" lon="-3.0814059"><ele>619.6666666666666</ele><time>2026-04-11T17:39:36.385Z</time></trkpt><trkpt lat="37.7612548" lon="-3.0813758"><ele>621.0</ele><time>2026-04-11T17:39:37.385Z</time></trkpt><trkpt lat="37.7614169" lon="-3.081344"><ele>621.0</ele><time>2026-04-11T17:39:38.385Z</time></trkpt><trkpt lat="37.7615763" lon="-3.0813121"><ele>621.0</ele><time>2026-04-11T17:39:39.385Z</time></trkpt><trkpt lat="37.7617288" lon="-3.0812766"><ele>621.0</ele><time>2026-04-11T17:39:40.385Z</time></trkpt><trkpt lat="37.7618757" lon="-3.0812452"><ele>619.75</ele><time>2026-04-11T17:39:41.384Z</time></trkpt><trkpt lat="37.7620081" lon="-3.0812212"><ele>618.5</ele><time>2026-04-11T17:39:42.385Z</time></trkpt><trkpt lat="37.7621359" lon="-3.0812196"><ele>617.25</ele><time>2026-04-11T17:39:43.385Z</time></trkpt><trkpt lat="37.7622675" lon="-3.0812507"><ele>616.0</ele><time>2026-04-11T17:39:44.385Z</time></trkpt><trkpt lat="37.7623948" lon="-3.0813164"><ele>616.0</ele><time>2026-04-11T17:39:45.385Z</time></trkpt><trkpt lat="37.7625047" lon="-3.0814142"><ele>616.0</ele><time>2026-04-11T17:39:46.385Z</time></trkpt><trkpt lat="37.7625975" lon="-3.0815406"><ele>616.0</ele><time>2026-04-11T17:39:47.385Z</time></trkpt><trkpt lat="37.7626671" lon="-3.0816813"><ele>616.0</ele><time>2026-04-11T17:39:48.385Z</time></trkpt><trkpt lat="37.7627243" lon="-3.0818163"><ele>615.8</ele><time>2026-04-11T17:39:49.385Z</time></trkpt><trkpt lat="37.7627886" lon="-3.0819362"><ele>615.6</ele><time>2026-04-11T17:39:50.385Z</time></trkpt><trkpt lat="37.7628665" lon="-3.0820122"><ele>615.4</ele><time>2026-04-11T17:39:51.385Z</time></trkpt><trkpt lat="37.7629552" lon="-3.082047"><ele>615.2</ele><time>2026-04-11T17:39:52.385Z</time></trkpt><trkpt lat="37.7630425" lon="-3.0820746"><ele>615.0</ele><time>2026-04-11T17:39:53.385Z</time></trkpt><trkpt lat="37.7631269" lon="-3.0820487"><ele>615.0</ele><time>2026-04-11T17:39:54.385Z</time></trkpt><trkpt lat="37.7632031" lon="-3.0820083"><ele>615.0</ele><time>2026-04-11T17:39:55.385Z</time></trkpt><trkpt lat="37.7632653" lon="-3.0819471"><ele>615.0</ele><time>2026-04-11T17:39:56.385Z</time></trkpt><trkpt lat="37.7633164" lon="-3.0818714"><ele>615.0</ele><time>2026-04-11T17:39:57.385Z</time></trkpt><trkpt lat="37.7633585" lon="-3.081787"><ele>615.0</ele><time>2026-04-11T17:39:58.385Z</time></trkpt><trkpt lat="37.763399" lon="-3.0817045"><ele>615.0</ele><time>2026-04-11T17:39:59.384Z</time></trkpt><trkpt lat="37.763448" lon="-3.0816137"><ele>615.1666666666666</ele><time>2026-04-11T17:40:00.385Z</time></trkpt><trkpt lat="37.763494" lon="-3.081525"><ele>615.3333333333334</ele><time>2026-04-11T17:40:01.385Z</time></trkpt><trkpt lat="37.7635412" lon="-3.0814371"><ele>615.5</ele><time>2026-04-11T17:40:02.384Z</time></trkpt><trkpt lat="37.7635846" lon="-3.0813491"><ele>615.6666666666667</ele><time>2026-04-11T17:40:03.385Z</time></trkpt><trkpt lat="37.7636242" lon="-3.0812616"><ele>615.8333333333334</ele><time>2026-04-11T17:40:04.385Z</time></trkpt><trkpt lat="37.7636632" lon="-3.0811858"><ele>616.0</ele><time>2026-04-11T17:40:05.385Z</time></trkpt><trkpt lat="37.763699" lon="-3.0811149"><ele>617.0</ele><time>2026-04-11T17:40:06.385Z</time></trkpt><trkpt lat="37.7637472" lon="-3.0810208"><ele>618.0</ele><time>2026-04-11T17:40:08.385Z</time></trkpt><trkpt lat="37.7637998" lon="-3.0809252"><ele>619.0</ele><time>2026-04-11T17:40:10.385Z</time></trkpt><trkpt lat="37.7638713" lon="-3.0807858"><ele>620.0</ele><time>2026-04-11T17:40:12.384Z</time></trkpt><trkpt lat="37.7639137" lon="-3.0807071"><ele>621.0</ele><time>2026-04-11T17:40:13.385Z</time></trkpt><trkpt lat="37.7639522" lon="-3.080627"><ele>621.5</ele><time>2026-04-11T17:40:14.384Z</time></trkpt><trkpt lat="37.7639949" lon="-3.080541"><ele>622.0</ele><time>2026-04-11T17:40:15.385Z</time></trkpt><trkpt lat="37.7640401" lon="-3.0804567"><ele>622.5</ele><time>2026-04-11T17:40:16.385Z</time></trkpt><trkpt lat="37.7640795" lon="-3.0803714"><ele>623.0</ele><time>2026-04-11T17:40:17.385Z</time></trkpt><trkpt lat="37.764132" lon="-3.0802598"><ele>623.5</ele><time>2026-04-11T17:40:19.385Z</time></trkpt><trkpt lat="37.7641719" lon="-3.0801756"><ele>624.0</ele><time>2026-04-11T17:40:21.385Z</time></trkpt><trkpt lat="37.7642335" lon="-3.0800481"><ele>624.0</ele><time>2026-04-11T17:40:23.385Z</time></trkpt><trkpt lat="37.7642683" lon="-3.0799717"><ele>624.0</ele><time>2026-04-11T17:40:24.384Z</time></trkpt><trkpt lat="37.7643059" lon="-3.0798875"><ele>624.0</ele><time>2026-04-11T17:40:25.385Z</time></trkpt><trkpt lat="37.7643464" lon="-3.079802"><ele>624.0</ele><time>2026-04-11T17:40:26.385Z</time></trkpt><trkpt lat="37.7643875" lon="-3.0797198"><ele>624.0</ele><time>2026-04-11T17:40:27.385Z</time></trkpt><trkpt lat="37.7644252" lon="-3.0796348"><ele>624.0</ele><time>2026-04-11T17:40:28.384Z</time></trkpt><trkpt lat="37.7644627" lon="-3.0795506"><ele>625.6666666666666</ele><time>2026-04-11T17:40:29.385Z</time></trkpt><trkpt lat="37.7644993" lon="-3.0794643"><ele>627.3333333333334</ele><time>2026-04-11T17:40:30.385Z</time></trkpt><trkpt lat="37.7645312" lon="-3.0793859"><ele>629.0</ele><time>2026-04-11T17:40:31.385Z</time></trkpt><trkpt lat="37.7645731" lon="-3.0792835"><ele>630.6666666666667</ele><time>2026-04-11T17:40:33.385Z</time></trkpt><trkpt lat="37.7646106" lon="-3.079191"><ele>632.3333333333334</ele><time>2026-04-11T17:40:36.384Z</time></trkpt><trkpt lat="37.7646417" lon="-3.0791149"><ele>634.0</ele><time>2026-04-11T17:40:40.385Z</time></trkpt><trkpt lat="37.7646856" lon="-3.0789813"><ele>634.5</ele><time>2026-04-11T17:40:43.385Z</time></trkpt><trkpt lat="37.764733" lon="-3.0789032"><ele>635.0</ele><time>2026-04-11T17:40:45.385Z</time></trkpt><trkpt lat="37.7647845" lon="-3.0788273"><ele>635.5</ele><time>2026-04-11T17:40:47.385Z</time></trkpt><trkpt lat="37.7648642" lon="-3.0787138"><ele>636.0</ele><time>2026-04-11T17:40:49.385Z</time></trkpt><trkpt lat="37.7649111" lon="-3.0786482"><ele>636.5</ele><time>2026-04-11T17:40:50.384Z</time></trkpt><trkpt lat="37.7649549" lon="-3.078578"><ele>637.0</ele><time>2026-04-11T17:40:51.385Z</time></trkpt><trkpt lat="37.7649987" lon="-3.0785149"><ele>637.0</ele><time>2026-04-11T17:40:52.385Z</time></trkpt><trkpt lat="37.7650695" lon="-3.0784003"><ele>637.0</ele><time>2026-04-11T17:40:54.385Z</time></trkpt><trkpt lat="37.7651124" lon="-3.0782854"><ele>637.0</ele><time>2026-04-11T17:40:56.385Z</time></trkpt><trkpt lat="37.7651015" lon="-3.0781495"><ele>637.0</ele><time>2026-04-11T17:40:58.385Z</time></trkpt><trkpt lat="37.7651093" lon="-3.0780096"><ele>637.0</ele><time>2026-04-11T17:41:00.385Z</time></trkpt><trkpt lat="37.7651743" lon="-3.0778895"><ele>638.3333333333334</ele><time>2026-04-11T17:41:02.385Z</time></trkpt><trkpt lat="37.7652404" lon="-3.0777823"><ele>639.6666666666667</ele><time>2026-04-11T17:41:04.385Z</time></trkpt><trkpt lat="37.7652836" lon="-3.0777132"><ele>641.0</ele><time>2026-04-11T17:41:05.385Z</time></trkpt><trkpt lat="37.7653293" lon="-3.0776404"><ele>642.3333333333334</ele><time>2026-04-11T17:41:06.385Z</time></trkpt><trkpt lat="37.765381" lon="-3.0775622"><ele>643.6666666666666</ele><time>2026-04-11T17:41:07.385Z</time></trkpt><trkpt lat="37.7654315" lon="-3.0774857"><ele>645.0</ele><time>2026-04-11T17:41:08.385Z</time></trkpt><trkpt lat="37.7654846" lon="-3.0774109"><ele>645.0</ele><time>2026-04-11T17:41:09.384Z</time></trkpt><trkpt lat="37.765535" lon="-3.0773337"><ele>645.0</ele><time>2026-04-11T17:41:10.385Z</time></trkpt><trkpt lat="37.7655794" lon="-3.0772643"><ele>645.0</ele><time>2026-04-11T17:41:11.385Z</time></trkpt><trkpt lat="37.7656233" lon="-3.0771981"><ele>645.0</ele><time>2026-04-11T17:41:12.385Z</time></trkpt><trkpt lat="37.7656924" lon="-3.0770888"><ele>645.0</ele><time>2026-04-11T17:41:14.385Z</time></trkpt><trkpt lat="37.7657331" lon="-3.0770268"><ele>645.0</ele><time>2026-04-11T17:41:16.384Z</time></trkpt><trkpt lat="37.7657769" lon="-3.0769468"><ele>645.0</ele><time>2026-04-11T17:41:18.385Z</time></trkpt><trkpt lat="37.7658394" lon="-3.0768422"><ele>645.0</ele><time>2026-04-11T17:41:20.385Z</time></trkpt><trkpt lat="37.7659195" lon="-3.0767221"><ele>645.0</ele><time>2026-04-11T17:41:22.385Z</time></trkpt><trkpt lat="37.7659633" lon="-3.0766591"><ele>645.0</ele><time>2026-04-11T17:41:23.384Z</time></trkpt><trkpt lat="37.7660486" lon="-3.0765352"><ele>645.0</ele><time>2026-04-11T17:41:25.385Z</time></trkpt><trkpt lat="37.766092" lon="-3.0764622"><ele>645.8333333333334</ele><time>2026-04-11T17:41:26.385Z</time></trkpt><trkpt lat="37.7661388" lon="-3.0763916"><ele>646.6666666666666</ele><time>2026-04-11T17:41:27.385Z</time></trkpt><trkpt lat="37.7661864" lon="-3.0763187"><ele>647.5</ele><time>2026-04-11T17:41:28.385Z</time></trkpt><trkpt lat="37.7662324" lon="-3.0762437"><ele>648.3333333333333</ele><time>2026-04-11T17:41:29.385Z</time></trkpt><trkpt lat="37.7662801" lon="-3.076173"><ele>649.1666666666666</ele><time>2026-04-11T17:41:30.385Z</time></trkpt><trkpt lat="37.7663208" lon="-3.0761121"><ele>650.0</ele><time>2026-04-11T17:41:31.385Z</time></trkpt><trkpt lat="37.7663888" lon="-3.0760138"><ele>650.0</ele><time>2026-04-11T17:41:33.385Z</time></trkpt><trkpt lat="37.7664469" lon="-3.0759156"><ele>650.0</ele><time>2026-04-11T17:41:35.385Z</time></trkpt><trkpt lat="37.7665202" lon="-3.0758183"><ele>650.0</ele><time>2026-04-11T17:41:37.385Z</time></trkpt><trkpt lat="37.766626" lon="-3.0758066"><ele>650.0</ele><time>2026-04-11T17:41:39.385Z</time></trkpt><trkpt lat="37.76668" lon="-3.0758478"><ele>650.0</ele><time>2026-04-11T17:41:40.385Z</time></trkpt><trkpt lat="37.7667363" lon="-3.0759004"><ele>650.0</ele><time>2026-04-11T17:41:41.384Z</time></trkpt><trkpt lat="37.7668001" lon="-3.0759532"><ele>650.5</ele><time>2026-04-11T17:41:42.385Z</time></trkpt><trkpt lat="37.7668673" lon="-3.0760026"><ele>651.0</ele><time>2026-04-11T17:41:43.385Z</time></trkpt><trkpt lat="37.7669337" lon="-3.0760474"><ele>651.5</ele><time>2026-04-11T17:41:44.385Z</time></trkpt><trkpt lat="37.7670018" lon="-3.0760898"><ele>652.0</ele><time>2026-04-11T17:41:45.385Z</time></trkpt><trkpt lat="37.7670698" lon="-3.0761337"><ele>652.5</ele><time>2026-04-11T17:41:46.384Z</time></trkpt><trkpt lat="37.7671386" lon="-3.0761787"><ele>653.0</ele><time>2026-04-11T17:41:47.385Z</time></trkpt><trkpt lat="37.7672101" lon="-3.0762236"><ele>653.0</ele><time>2026-04-11T17:41:48.385Z</time></trkpt><trkpt lat="37.7672737" lon="-3.0762609"><ele>653.0</ele><time>2026-04-11T17:41:49.385Z</time></trkpt><trkpt lat="37.7673358" lon="-3.0762944"><ele>653.0</ele><time>2026-04-11T17:41:50.385Z</time></trkpt><trkpt lat="37.7674466" lon="-3.0763436"><ele>653.0</ele><time>2026-04-11T17:41:52.384Z</time></trkpt><trkpt lat="37.7675552" lon="-3.0763895"><ele>653.0</ele><time>2026-04-11T17:41:54.384Z</time></trkpt><trkpt lat="37.7676229" lon="-3.0764246"><ele>653.0</ele><time>2026-04-11T17:41:55.385Z</time></trkpt><trkpt lat="37.7676855" lon="-3.0764556"><ele>653.5999999999999</ele><time>2026-04-11T17:41:56.385Z</time></trkpt><trkpt lat="37.7677778" lon="-3.0765001"><ele>654.1999999999999</ele><time>2026-04-11T17:41:57.385Z</time></trkpt><trkpt lat="37.7678576" lon="-3.0765398"><ele>654.8</ele><time>2026-04-11T17:41:58.385Z</time></trkpt><trkpt lat="37.7679313" lon="-3.0765777"><ele>655.4</ele><time>2026-04-11T17:41:59.385Z</time></trkpt><trkpt lat="37.7680284" lon="-3.0766247"><ele>656.0</ele><time>2026-04-11T17:42:01.385Z</time></trkpt><trkpt lat="37.7681461" lon="-3.0766687"><ele>656.1999999999999</ele><time>2026-04-11T17:42:03.385Z</time></trkpt><trkpt lat="37.7682296" lon="-3.0767091"><ele>656.4</ele><time>2026-04-11T17:42:04.385Z</time></trkpt><trkpt lat="37.7683139" lon="-3.076767"><ele>656.6</ele><time>2026-04-11T17:42:05.385Z</time></trkpt><trkpt lat="37.7683962" lon="-3.0768411"><ele>656.8</ele><time>2026-04-11T17:42:06.385Z</time></trkpt><trkpt lat="37.7684836" lon="-3.0769321"><ele>657.0</ele><time>2026-04-11T17:42:07.385Z</time></trkpt><trkpt lat="37.7685745" lon="-3.0770387"><ele>657.0</ele><time>2026-04-11T17:42:08.385Z</time></trkpt><trkpt lat="37.7686739" lon="-3.0771579"><ele>657.0</ele><time>2026-04-11T17:42:09.385Z</time></trkpt><trkpt lat="37.7687735" lon="-3.0772887"><ele>657.0</ele><time>2026-04-11T17:42:10.384Z</time></trkpt><trkpt lat="37.7688801" lon="-3.077419"><ele>657.0</ele><time>2026-04-11T17:42:11.385Z</time></trkpt><trkpt lat="37.7689984" lon="-3.0775534"><ele>657.0</ele><time>2026-04-11T17:42:12.384Z</time></trkpt><trkpt lat="37.7691329" lon="-3.0776817"><ele>657.0</ele><time>2026-04-11T17:42:13.384Z</time></trkpt><trkpt lat="37.7692841" lon="-3.0777953"><ele>657.0</ele><time>2026-04-11T17:42:14.384Z</time></trkpt><trkpt lat="37.769446" lon="-3.0778994"><ele>657.0</ele><time>2026-04-11T17:42:15.385Z</time></trkpt><trkpt lat="37.7696201" lon="-3.0779919"><ele>657.0</ele><time>2026-04-11T17:42:16.385Z</time></trkpt><trkpt lat="37.7697984" lon="-3.0780814"><ele>657.0</ele><time>2026-04-11T17:42:17.385Z</time></trkpt><trkpt lat="37.7699815" lon="-3.0781712"><ele>657.0</ele><time>2026-04-11T17:42:18.385Z</time></trkpt><trkpt lat="37.7701665" lon="-3.0782598"><ele>657.0</ele><time>2026-04-11T17:42:19.385Z</time></trkpt><trkpt lat="37.7703549" lon="-3.0783502"><ele>657.0</ele><time>2026-04-11T17:42:20.385Z</time></trkpt><trkpt lat="37.7705418" lon="-3.0784407"><ele>656.6666666666666</ele><time>2026-04-11T17:42:21.385Z</time></trkpt><trkpt lat="37.7707342" lon="-3.0785301"><ele>656.3333333333333</ele><time>2026-04-11T17:42:22.385Z</time></trkpt><trkpt lat="37.7709287" lon="-3.078617"><ele>656.0</ele><time>2026-04-11T17:42:23.385Z</time></trkpt><trkpt lat="37.7711286" lon="-3.0786914"><ele>656.0</ele><time>2026-04-11T17:42:24.385Z</time></trkpt><trkpt lat="37.7713303" lon="-3.0787569"><ele>656.0</ele><time>2026-04-11T17:42:25.384Z</time></trkpt><trkpt lat="37.7715304" lon="-3.078829"><ele>656.0</ele><time>2026-04-11T17:42:26.384Z</time></trkpt><trkpt lat="37.7717318" lon="-3.0789066"><ele>656.3333333333333</ele><time>2026-04-11T17:42:27.385Z</time></trkpt><trkpt lat="37.771938" lon="-3.0789863"><ele>656.6666666666666</ele><time>2026-04-11T17:42:28.385Z</time></trkpt><trkpt lat="37.7721395" lon="-3.0790719"><ele>657.0</ele><time>2026-04-11T17:42:29.385Z</time></trkpt><trkpt lat="37.772341" lon="-3.079154"><ele>657.0</ele><time>2026-04-11T17:42:30.385Z</time></trkpt><trkpt lat="37.7725408" lon="-3.0792383"><ele>657.0</ele><time>2026-04-11T17:42:31.384Z</time></trkpt><trkpt lat="37.7727353" lon="-3.0793333"><ele>657.0</ele><time>2026-04-11T17:42:32.385Z</time></trkpt><trkpt lat="37.7729216" lon="-3.0794363"><ele>660.0</ele><time>2026-04-11T17:42:33.384Z</time></trkpt><trkpt lat="37.7731033" lon="-3.0795539"><ele>663.0</ele><time>2026-04-11T17:42:34.384Z</time></trkpt><trkpt lat="37.7732725" lon="-3.0796844"><ele>666.0</ele><time>2026-04-11T17:42:35.385Z</time></trkpt><trkpt lat="37.7734345" lon="-3.0798237"><ele>666.3333333333334</ele><time>2026-04-11T17:42:36.385Z</time></trkpt><trkpt lat="37.7735909" lon="-3.0799634"><ele>666.6666666666667</ele><time>2026-04-11T17:42:37.385Z</time></trkpt><trkpt lat="37.7737415" lon="-3.080098"><ele>667.0</ele><time>2026-04-11T17:42:38.385Z</time></trkpt><trkpt lat="37.7738826" lon="-3.0802294"><ele>667.0</ele><time>2026-04-11T17:42:39.385Z</time></trkpt><trkpt lat="37.7740176" lon="-3.0803509"><ele>667.0</ele><time>2026-04-11T17:42:40.385Z</time></trkpt><trkpt lat="37.7741455" lon="-3.0804564"><ele>667.0</ele><time>2026-04-11T17:42:41.384Z</time></trkpt><trkpt lat="37.7742623" lon="-3.0805398"><ele>667.2</ele><time>2026-04-11T17:42:42.385Z</time></trkpt><trkpt lat="37.7743725" lon="-3.0806075"><ele>667.4000000000001</ele><time>2026-04-11T17:42:43.385Z</time></trkpt><trkpt lat="37.7744764" lon="-3.0806588"><ele>667.5999999999999</ele><time>2026-04-11T17:42:44.385Z</time></trkpt><trkpt lat="37.7745789" lon="-3.0807013"><ele>667.8</ele><time>2026-04-11T17:42:45.384Z</time></trkpt><trkpt lat="37.7746732" lon="-3.0807363"><ele>668.0</ele><time>2026-04-11T17:42:46.385Z</time></trkpt><trkpt lat="37.7747755" lon="-3.0807787"><ele>668.0</ele><time>2026-04-11T17:42:47.385Z</time></trkpt><trkpt lat="37.774881" lon="-3.0808372"><ele>668.0</ele><time>2026-04-11T17:42:48.385Z</time></trkpt><trkpt lat="37.7749897" lon="-3.080914"><ele>668.0</ele><time>2026-04-11T17:42:49.385Z</time></trkpt><trkpt lat="37.7750997" lon="-3.0810101"><ele>668.0</ele><time>2026-04-11T17:42:50.384Z</time></trkpt><trkpt lat="37.7752089" lon="-3.0811149"><ele>669.5</ele><time>2026-04-11T17:42:51.385Z</time></trkpt><trkpt lat="37.7753204" lon="-3.0812202"><ele>671.0</ele><time>2026-04-11T17:42:52.385Z</time></trkpt><trkpt lat="37.7754343" lon="-3.0813311"><ele>672.5</ele><time>2026-04-11T17:42:53.385Z</time></trkpt><trkpt lat="37.7755518" lon="-3.0814413"><ele>674.0</ele><time>2026-04-11T17:42:54.385Z</time></trkpt><trkpt lat="37.775674" lon="-3.0815493"><ele>674.3333333333333</ele><time>2026-04-11T17:42:55.385Z</time></trkpt><trkpt lat="37.7757969" lon="-3.0816624"><ele>674.6666666666666</ele><time>2026-04-11T17:42:56.385Z</time></trkpt><trkpt lat="37.7759205" lon="-3.0817801"><ele>675.0</ele><time>2026-04-11T17:42:57.385Z</time></trkpt><trkpt lat="37.7760491" lon="-3.0818995"><ele>679.0</ele><time>2026-04-11T17:42:58.385Z</time></trkpt><trkpt lat="37.7761776" lon="-3.0820249"><ele>683.0</ele><time>2026-04-11T17:42:59.385Z</time></trkpt><trkpt lat="37.7763094" lon="-3.0821537"><ele>687.0</ele><time>2026-04-11T17:43:00.385Z</time></trkpt><trkpt lat="37.7764357" lon="-3.0822906"><ele>685.0</ele><time>2026-04-11T17:43:01.385Z</time></trkpt><trkpt lat="37.7765568" lon="-3.0824315"><ele>683.0</ele><time>2026-04-11T17:43:02.385Z</time></trkpt><trkpt lat="37.7766742" lon="-3.0825699"><ele>681.0</ele><time>2026-04-11T17:43:03.384Z</time></trkpt><trkpt lat="37.7767903" lon="-3.0826896"><ele>681.75</ele><time>2026-04-11T17:43:04.385Z</time></trkpt><trkpt lat="37.7769065" lon="-3.0827923"><ele>682.5</ele><time>2026-04-11T17:43:05.385Z</time></trkpt><trkpt lat="37.777035" lon="-3.0828714"><ele>683.25</ele><time>2026-04-11T17:43:06.385Z</time></trkpt><trkpt lat="37.7771754" lon="-3.0829243"><ele>684.0</ele><time>2026-04-11T17:43:07.385Z</time></trkpt><trkpt lat="37.7773236" lon="-3.0829475"><ele>684.0</ele><time>2026-04-11T17:43:08.385Z</time></trkpt><trkpt lat="37.7774794" lon="-3.0829379"><ele>684.0</ele><time>2026-04-11T17:43:09.384Z</time></trkpt><trkpt lat="37.7776331" lon="-3.0828936"><ele>684.0</ele><time>2026-04-11T17:43:10.385Z</time></trkpt><trkpt lat="37.7777753" lon="-3.0828189"><ele>685.0</ele><time>2026-04-11T17:43:11.385Z</time></trkpt><trkpt lat="37.7779141" lon="-3.082735"><ele>686.0</ele><time>2026-04-11T17:43:12.385Z</time></trkpt><trkpt lat="37.7780494" lon="-3.0826549"><ele>687.0</ele><time>2026-04-11T17:43:13.385Z</time></trkpt><trkpt lat="37.7781886" lon="-3.0825972"><ele>687.0</ele><time>2026-04-11T17:43:14.385Z</time></trkpt><trkpt lat="37.7783364" lon="-3.082577"><ele>687.0</ele><time>2026-04-11T17:43:15.384Z</time></trkpt><trkpt lat="37.778483" lon="-3.0826006"><ele>687.0</ele><time>2026-04-11T17:43:16.385Z</time></trkpt><trkpt lat="37.7786296" lon="-3.0826548"><ele>687.0</ele><time>2026-04-11T17:43:17.385Z</time></trkpt><trkpt lat="37.7787698" lon="-3.0827344"><ele>691.0</ele><time>2026-04-11T17:43:18.385Z</time></trkpt><trkpt lat="37.7789101" lon="-3.0828249"><ele>695.0</ele><time>2026-04-11T17:43:19.385Z</time></trkpt><trkpt lat="37.7790476" lon="-3.0829255"><ele>699.0</ele><time>2026-04-11T17:43:20.385Z</time></trkpt><trkpt lat="37.7791836" lon="-3.0830405"><ele>699.0</ele><time>2026-04-11T17:43:21.385Z</time></trkpt><trkpt lat="37.7793161" lon="-3.0831663"><ele>699.0</ele><time>2026-04-11T17:43:22.385Z</time></trkpt><trkpt lat="37.7794456" lon="-3.0833021"><ele>699.0</ele><time>2026-04-11T17:43:23.385Z</time></trkpt><trkpt lat="37.7795712" lon="-3.0834447"><ele>703.3333333333334</ele><time>2026-04-11T17:43:24.385Z</time></trkpt><trkpt lat="37.7796938" lon="-3.0835892"><ele>707.6666666666667</ele><time>2026-04-11T17:43:25.385Z</time></trkpt><trkpt lat="37.779832" lon="-3.0837335"><ele>712.0</ele><time>2026-04-11T17:43:26.385Z</time></trkpt><trkpt lat="37.7799657" lon="-3.0838811"><ele>712.0</ele><time>2026-04-11T17:43:27.385Z</time></trkpt><trkpt lat="37.7801069" lon="-3.0840364"><ele>712.0</ele><time>2026-04-11T17:43:28.385Z</time></trkpt><trkpt lat="37.7802427" lon="-3.0841849"><ele>712.0</ele><time>2026-04-11T17:43:29.384Z</time></trkpt><trkpt lat="37.7803787" lon="-3.0843335"><ele>715.0</ele><time>2026-04-11T17:43:30.385Z</time></trkpt><trkpt lat="37.7805209" lon="-3.0844877"><ele>718.0</ele><time>2026-04-11T17:43:31.384Z</time></trkpt><trkpt lat="37.7806641" lon="-3.0846359"><ele>721.0</ele><time>2026-04-11T17:43:32.385Z</time></trkpt><trkpt lat="37.7808143" lon="-3.084774"><ele>721.0</ele><time>2026-04-11T17:43:33.385Z</time></trkpt><trkpt lat="37.7809714" lon="-3.0849031"><ele>721.0</ele><time>2026-04-11T17:43:34.384Z</time></trkpt><trkpt lat="37.7811332" lon="-3.0850199"><ele>721.0</ele><time>2026-04-11T17:43:35.385Z</time></trkpt><trkpt lat="37.7813059" lon="-3.0851236"><ele>719.6666666666667</ele><time>2026-04-11T17:43:36.385Z</time></trkpt><trkpt lat="37.781485" lon="-3.0852078"><ele>718.3333333333334</ele><time>2026-04-11T17:43:37.385Z</time></trkpt><trkpt lat="37.7816712" lon="-3.0852857"><ele>717.0</ele><time>2026-04-11T17:43:38.385Z</time></trkpt><trkpt lat="37.781863" lon="-3.0853478"><ele>720.0</ele><time>2026-04-11T17:43:39.385Z</time></trkpt><trkpt lat="37.7820592" lon="-3.0853992"><ele>723.0</ele><time>2026-04-11T17:43:40.384Z</time></trkpt><trkpt lat="37.7822607" lon="-3.0854275"><ele>726.0</ele><time>2026-04-11T17:43:41.385Z</time></trkpt><trkpt lat="37.7824598" lon="-3.0854441"><ele>726.0</ele><time>2026-04-11T17:43:42.385Z</time></trkpt><trkpt lat="37.78266" lon="-3.0854576"><ele>726.0</ele><time>2026-04-11T17:43:43.384Z</time></trkpt><trkpt lat="37.7828602" lon="-3.0854706"><ele>726.0</ele><time>2026-04-11T17:43:44.385Z</time></trkpt><trkpt lat="37.7830564" lon="-3.0854825"><ele>726.3333333333334</ele><time>2026-04-11T17:43:45.385Z</time></trkpt><trkpt lat="37.7832466" lon="-3.0854927"><ele>726.6666666666667</ele><time>2026-04-11T17:43:46.385Z</time></trkpt><trkpt lat="37.7834332" lon="-3.0855053"><ele>727.0</ele><time>2026-04-11T17:43:47.385Z</time></trkpt><trkpt lat="37.7836204" lon="-3.0855147"><ele>726.0</ele><time>2026-04-11T17:43:48.385Z</time></trkpt><trkpt lat="37.7838052" lon="-3.0855304"><ele>725.0</ele><time>2026-04-11T17:43:49.385Z</time></trkpt><trkpt lat="37.7839927" lon="-3.0855417"><ele>724.0</ele><time>2026-04-11T17:43:50.385Z</time></trkpt><trkpt lat="37.7841803" lon="-3.0855491"><ele>724.3333333333334</ele><time>2026-04-11T17:43:51.384Z</time></trkpt><trkpt lat="37.7843671" lon="-3.0855516"><ele>724.6666666666666</ele><time>2026-04-11T17:43:52.385Z</time></trkpt><trkpt lat="37.7845526" lon="-3.0855501"><ele>725.0</ele><time>2026-04-11T17:43:53.384Z</time></trkpt><trkpt lat="37.7847368" lon="-3.0855363"><ele>725.0</ele><time>2026-04-11T17:43:54.385Z</time></trkpt><trkpt lat="37.7849208" lon="-3.0855068"><ele>725.0</ele><time>2026-04-11T17:43:55.385Z</time></trkpt><trkpt lat="37.7851031" lon="-3.0854604"><ele>725.0</ele><time>2026-04-11T17:43:56.385Z</time></trkpt><trkpt lat="37.7852792" lon="-3.0853993"><ele>725.3333333333333</ele><time>2026-04-11T17:43:57.385Z</time></trkpt><trkpt lat="37.7854593" lon="-3.0853303"><ele>725.6666666666666</ele><time>2026-04-11T17:43:58.384Z</time></trkpt><trkpt lat="37.7856402" lon="-3.0852582"><ele>726.0</ele><time>2026-04-11T17:43:59.385Z</time></trkpt><trkpt lat="37.7858242" lon="-3.0851932"><ele>726.0</ele><time>2026-04-11T17:44:00.385Z</time></trkpt><trkpt lat="37.7860082" lon="-3.0851373"><ele>726.0</ele><time>2026-04-11T17:44:01.384Z</time></trkpt><trkpt lat="37.7861945" lon="-3.0850859"><ele>726.0</ele><time>2026-04-11T17:44:02.385Z</time></trkpt><trkpt lat="37.7863814" lon="-3.0850366"><ele>726.3333333333334</ele><time>2026-04-11T17:44:03.385Z</time></trkpt><trkpt lat="37.7865653" lon="-3.0849837"><ele>726.6666666666667</ele><time>2026-04-11T17:44:04.385Z</time></trkpt><trkpt lat="37.7867469" lon="-3.084924"><ele>727.0</ele><time>2026-04-11T17:44:05.385Z</time></trkpt><trkpt lat="37.7869241" lon="-3.0848484"><ele>733.0</ele><time>2026-04-11T17:44:06.385Z</time></trkpt><trkpt lat="37.7870878" lon="-3.0847539"><ele>739.0</ele><time>2026-04-11T17:44:07.385Z</time></trkpt><trkpt lat="37.7872414" lon="-3.0846465"><ele>745.0</ele><time>2026-04-11T17:44:08.385Z</time></trkpt><trkpt lat="37.7873882" lon="-3.0845437"><ele>745.0</ele><time>2026-04-11T17:44:09.385Z</time></trkpt><trkpt lat="37.78754" lon="-3.0844588"><ele>745.0</ele><time>2026-04-11T17:44:10.385Z</time></trkpt><trkpt lat="37.7876912" lon="-3.0843953"><ele>745.0</ele><time>2026-04-11T17:44:11.385Z</time></trkpt><trkpt lat="37.7878501" lon="-3.0843768"><ele>746.25</ele><time>2026-04-11T17:44:12.385Z</time></trkpt><trkpt lat="37.787998" lon="-3.084368"><ele>747.5</ele><time>2026-04-11T17:44:13.385Z</time></trkpt><trkpt lat="37.7881469" lon="-3.0843793"><ele>748.75</ele><time>2026-04-11T17:44:14.385Z</time></trkpt><trkpt lat="37.7882909" lon="-3.0844132"><ele>750.0</ele><time>2026-04-11T17:44:15.385Z</time></trkpt><trkpt lat="37.7884317" lon="-3.0844689"><ele>751.4</ele><time>2026-04-11T17:44:16.385Z</time></trkpt><trkpt lat="37.7885637" lon="-3.0845413"><ele>752.8</ele><time>2026-04-11T17:44:17.384Z</time></trkpt><trkpt lat="37.7886684" lon="-3.0846165"><ele>754.2</ele><time>2026-04-11T17:44:18.385Z</time></trkpt><trkpt lat="37.7887621" lon="-3.0846768"><ele>755.6</ele><time>2026-04-11T17:44:19.385Z</time></trkpt><trkpt lat="37.788835" lon="-3.0847151"><ele>757.0</ele><time>2026-04-11T17:44:20.385Z</time></trkpt><trkpt lat="37.7889389" lon="-3.0847565"><ele>757.0</ele><time>2026-04-11T17:44:22.385Z</time></trkpt><trkpt lat="37.7890679" lon="-3.0847962"><ele>757.0</ele><time>2026-04-11T17:44:24.384Z</time></trkpt><trkpt lat="37.7891473" lon="-3.0848115"><ele>757.0</ele><time>2026-04-11T17:44:25.385Z</time></trkpt><trkpt lat="37.7892308" lon="-3.0848226"><ele>757.0</ele><time>2026-04-11T17:44:26.385Z</time></trkpt><trkpt lat="37.7893159" lon="-3.0848293"><ele>757.0</ele><time>2026-04-11T17:44:27.385Z</time></trkpt><trkpt lat="37.7893971" lon="-3.0848353"><ele>758.1666666666667</ele><time>2026-04-11T17:44:28.385Z</time></trkpt><trkpt lat="37.7894744" lon="-3.0848283"><ele>759.3333333333334</ele><time>2026-04-11T17:44:29.385Z</time></trkpt><trkpt lat="37.7895557" lon="-3.0848187"><ele>760.5</ele><time>2026-04-11T17:44:30.385Z</time></trkpt><trkpt lat="37.7896406" lon="-3.0848012"><ele>761.6666666666666</ele><time>2026-04-11T17:44:31.384Z</time></trkpt><trkpt lat="37.7897233" lon="-3.0847741"><ele>762.8333333333333</ele><time>2026-04-11T17:44:32.385Z</time></trkpt><trkpt lat="37.7897976" lon="-3.0847416"><ele>764.0</ele><time>2026-04-11T17:44:33.385Z</time></trkpt><trkpt lat="37.789859" lon="-3.0847131"><ele>764.0</ele><time>2026-04-11T17:44:34.384Z</time></trkpt><trkpt lat="37.789966" lon="-3.0846663"><ele>764.0</ele><time>2026-04-11T17:44:36.385Z</time></trkpt><trkpt lat="37.7900749" lon="-3.0846114"><ele>764.0</ele><time>2026-04-11T17:44:38.384Z</time></trkpt><trkpt lat="37.7901348" lon="-3.084578"><ele>764.0</ele><time>2026-04-11T17:44:39.384Z</time></trkpt><trkpt lat="37.790199" lon="-3.0845395"><ele>764.0</ele><time>2026-04-11T17:44:40.384Z</time></trkpt><trkpt lat="37.7902657" lon="-3.0845059"><ele>764.0</ele><time>2026-04-11T17:44:41.385Z</time></trkpt><trkpt lat="37.7903517" lon="-3.0844588"><ele>764.1666666666666</ele><time>2026-04-11T17:44:42.384Z</time></trkpt><trkpt lat="37.7904308" lon="-3.0844218"><ele>764.3333333333333</ele><time>2026-04-11T17:44:43.385Z</time></trkpt><trkpt lat="37.7905142" lon="-3.0843709"><ele>764.5</ele><time>2026-04-11T17:44:44.385Z</time></trkpt><trkpt lat="37.7905945" lon="-3.0843098"><ele>764.6666666666666</ele><time>2026-04-11T17:44:45.385Z</time></trkpt><trkpt lat="37.7906675" lon="-3.0842411"><ele>764.8333333333334</ele><time>2026-04-11T17:44:46.385Z</time></trkpt><trkpt lat="37.7907334" lon="-3.0841712"><ele>765.0</ele><time>2026-04-11T17:44:47.385Z</time></trkpt><trkpt lat="37.790802" lon="-3.0840987"><ele>766.1666666666666</ele><time>2026-04-11T17:44:48.385Z</time></trkpt><trkpt lat="37.7908686" lon="-3.0840239"><ele>767.3333333333333</ele><time>2026-04-11T17:44:49.385Z</time></trkpt><trkpt lat="37.7909369" lon="-3.0839459"><ele>768.5</ele><time>2026-04-11T17:44:50.385Z</time></trkpt><trkpt lat="37.7910023" lon="-3.0838766"><ele>769.6666666666666</ele><time>2026-04-11T17:44:51.384Z</time></trkpt><trkpt lat="37.7910604" lon="-3.0838145"><ele>770.8333333333333</ele><time>2026-04-11T17:44:52.385Z</time></trkpt><trkpt lat="37.7911199" lon="-3.083747"><ele>772.0</ele><time>2026-04-11T17:44:53.385Z</time></trkpt><trkpt lat="37.7911827" lon="-3.0836769"><ele>771.9999999999999</ele><time>2026-04-11T17:44:54.384Z</time></trkpt><trkpt lat="37.791246" lon="-3.083607"><ele>772.0</ele><time>2026-04-11T17:44:55.385Z</time></trkpt><trkpt lat="37.7913113" lon="-3.083534"><ele>772.0</ele><time>2026-04-11T17:44:56.385Z</time></trkpt><trkpt lat="37.7913773" lon="-3.0834551"><ele>772.0</ele><time>2026-04-11T17:44:57.385Z</time></trkpt><trkpt lat="37.7914424" lon="-3.0833811"><ele>771.9999999999999</ele><time>2026-04-11T17:44:58.385Z</time></trkpt><trkpt lat="37.7915088" lon="-3.0833034"><ele>772.0</ele><time>2026-04-11T17:44:59.385Z</time></trkpt><trkpt lat="37.7915633" lon="-3.0832327"><ele>774.3333333333333</ele><time>2026-04-11T17:45:00.384Z</time></trkpt><trkpt lat="37.7916142" lon="-3.083172"><ele>776.6666666666666</ele><time>2026-04-11T17:45:01.385Z</time></trkpt><trkpt lat="37.7916623" lon="-3.0831158"><ele>779.0</ele><time>2026-04-11T17:45:02.385Z</time></trkpt><trkpt lat="37.7917563" lon="-3.0830045"><ele>781.3333333333333</ele><time>2026-04-11T17:45:04.384Z</time></trkpt><trkpt lat="37.7918211" lon="-3.0829566"><ele>783.6666666666666</ele><time>2026-04-11T17:45:05.385Z</time></trkpt><trkpt lat="37.7918886" lon="-3.0829116"><ele>786.0</ele><time>2026-04-11T17:45:06.385Z</time></trkpt><trkpt lat="37.7919506" lon="-3.0828728"><ele>786.0</ele><time>2026-04-11T17:45:07.385Z</time></trkpt><trkpt lat="37.7920351" lon="-3.0828302"><ele>786.0</ele><time>2026-04-11T17:45:08.385Z</time></trkpt><trkpt lat="37.7921184" lon="-3.0827993"><ele>786.0</ele><time>2026-04-11T17:45:09.385Z</time></trkpt><trkpt lat="37.792206" lon="-3.0827689"><ele>786.0</ele><time>2026-04-11T17:45:10.385Z</time></trkpt><trkpt lat="37.7923008" lon="-3.0827431"><ele>786.0</ele><time>2026-04-11T17:45:11.385Z</time></trkpt><trkpt lat="37.7923954" lon="-3.0827249"><ele>786.0</ele><time>2026-04-11T17:45:12.385Z</time></trkpt><trkpt lat="37.7924941" lon="-3.0827037"><ele>786.0</ele><time>2026-04-11T17:45:13.385Z</time></trkpt><trkpt lat="37.7925874" lon="-3.0826793"><ele>786.0</ele><time>2026-04-11T17:45:14.385Z</time></trkpt><trkpt lat="37.7926838" lon="-3.0826509"><ele>786.0</ele><time>2026-04-11T17:45:15.385Z</time></trkpt><trkpt lat="37.792773" lon="-3.0826186"><ele>786.0</ele><time>2026-04-11T17:45:16.385Z</time></trkpt><trkpt lat="37.7928545" lon="-3.0825927"><ele>785.8571428571429</ele><time>2026-04-11T17:45:17.385Z</time></trkpt><trkpt lat="37.7929268" lon="-3.0825839"><ele>785.7142857142858</ele><time>2026-04-11T17:45:18.384Z</time></trkpt><trkpt lat="37.792995" lon="-3.0825828"><ele>785.5714285714287</ele><time>2026-04-11T17:45:19.384Z</time></trkpt><trkpt lat="37.7930704" lon="-3.0825909"><ele>785.4285714285714</ele><time>2026-04-11T17:45:20.385Z</time></trkpt><trkpt lat="37.7931436" lon="-3.0825993"><ele>785.2857142857142</ele><time>2026-04-11T17:45:21.385Z</time></trkpt><trkpt lat="37.7932183" lon="-3.0826088"><ele>785.1428571428572</ele><time>2026-04-11T17:45:22.385Z</time></trkpt><trkpt lat="37.793302" lon="-3.0826224"><ele>785.0</ele><time>2026-04-11T17:45:23.385Z</time></trkpt><trkpt lat="37.7933953" lon="-3.0826365"><ele>785.0</ele><time>2026-04-11T17:45:24.385Z</time></trkpt><trkpt lat="37.7934967" lon="-3.0826522"><ele>785.0</ele><time>2026-04-11T17:45:25.385Z</time></trkpt><trkpt lat="37.7935995" lon="-3.0826728"><ele>785.0</ele><time>2026-04-11T17:45:26.385Z</time></trkpt><trkpt lat="37.7937055" lon="-3.0826944"><ele>785.0</ele><time>2026-04-11T17:45:27.385Z</time></trkpt><trkpt lat="37.7938137" lon="-3.0827158"><ele>785.0</ele><time>2026-04-11T17:45:28.385Z</time></trkpt><trkpt lat="37.79392" lon="-3.0827353"><ele>787.75</ele><time>2026-04-11T17:45:29.385Z</time></trkpt><trkpt lat="37.7940381" lon="-3.0827274"><ele>790.5</ele><time>2026-04-11T17:45:30.385Z</time></trkpt><trkpt lat="37.7941563" lon="-3.0826942"><ele>793.25</ele><time>2026-04-11T17:45:31.385Z</time></trkpt><trkpt lat="37.794275" lon="-3.0826442"><ele>796.0</ele><time>2026-04-11T17:45:32.385Z</time></trkpt><trkpt lat="37.7943899" lon="-3.0825778"><ele>798.0</ele><time>2026-04-11T17:45:33.385Z</time></trkpt><trkpt lat="37.7945107" lon="-3.0825162"><ele>800.0</ele><time>2026-04-11T17:45:34.385Z</time></trkpt><trkpt lat="37.7946412" lon="-3.0824739"><ele>802.0</ele><time>2026-04-11T17:45:35.384Z</time></trkpt><trkpt lat="37.7947736" lon="-3.0824536"><ele>804.0</ele><time>2026-04-11T17:45:36.385Z</time></trkpt><trkpt lat="37.7949104" lon="-3.0824507"><ele>804.0</ele><time>2026-04-11T17:45:37.385Z</time></trkpt><trkpt lat="37.7950446" lon="-3.0824707"><ele>804.0</ele><time>2026-04-11T17:45:38.385Z</time></trkpt><trkpt lat="37.7951702" lon="-3.0825191"><ele>804.0</ele><time>2026-04-11T17:45:39.385Z</time></trkpt><trkpt lat="37.7952839" lon="-3.0826037"><ele>804.0</ele><time>2026-04-11T17:45:40.385Z</time></trkpt><trkpt lat="37.7953738" lon="-3.0827278"><ele>803.75</ele><time>2026-04-11T17:45:41.385Z</time></trkpt><trkpt lat="37.7954427" lon="-3.0828803"><ele>803.5</ele><time>2026-04-11T17:45:42.385Z</time></trkpt><trkpt lat="37.7955163" lon="-3.0830367"><ele>803.25</ele><time>2026-04-11T17:45:43.385Z</time></trkpt><trkpt lat="37.7956077" lon="-3.0831739"><ele>803.0</ele><time>2026-04-11T17:45:44.385Z</time></trkpt><trkpt lat="37.7957135" lon="-3.0832924"><ele>803.0</ele><time>2026-04-11T17:45:45.384Z</time></trkpt><trkpt lat="37.7958306" lon="-3.0833977"><ele>803.0</ele><time>2026-04-11T17:45:46.385Z</time></trkpt><trkpt lat="37.7959631" lon="-3.0834992"><ele>803.0</ele><time>2026-04-11T17:45:47.384Z</time></trkpt><trkpt lat="37.7961066" lon="-3.0835938"><ele>807.0</ele><time>2026-04-11T17:45:48.384Z</time></trkpt><trkpt lat="37.7962524" lon="-3.0836731"><ele>811.0</ele><time>2026-04-11T17:45:49.385Z</time></trkpt><trkpt lat="37.7964149" lon="-3.0837321"><ele>815.0</ele><time>2026-04-11T17:45:50.385Z</time></trkpt><trkpt lat="37.7965882" lon="-3.0837725"><ele>815.0</ele><time>2026-04-11T17:45:51.385Z</time></trkpt><trkpt lat="37.796773" lon="-3.0837958"><ele>815.0</ele><time>2026-04-11T17:45:52.385Z</time></trkpt><trkpt lat="37.7969619" lon="-3.0838006"><ele>815.0</ele><time>2026-04-11T17:45:53.385Z</time></trkpt><trkpt lat="37.7971465" lon="-3.0837868"><ele>816.3333333333334</ele><time>2026-04-11T17:45:54.385Z</time></trkpt><trkpt lat="37.7973302" lon="-3.0837619"><ele>817.6666666666667</ele><time>2026-04-11T17:45:55.384Z</time></trkpt><trkpt lat="37.7975101" lon="-3.0837337"><ele>819.0</ele><time>2026-04-11T17:45:56.384Z</time></trkpt><trkpt lat="37.7976865" lon="-3.0837106"><ele>820.0</ele><time>2026-04-11T17:45:57.385Z</time></trkpt><trkpt lat="37.7978566" lon="-3.0836991"><ele>821.0</ele><time>2026-04-11T17:45:58.385Z</time></trkpt><trkpt lat="37.7980219" lon="-3.0837207"><ele>822.0</ele><time>2026-04-11T17:45:59.385Z</time></trkpt><trkpt lat="37.7981736" lon="-3.0837846"><ele>822.0</ele><time>2026-04-11T17:46:00.384Z</time></trkpt><trkpt lat="37.7983091" lon="-3.0838869"><ele>822.0</ele><time>2026-04-11T17:46:01.385Z</time></trkpt><trkpt lat="37.7984311" lon="-3.0840134"><ele>822.0</ele><time>2026-04-11T17:46:02.385Z</time></trkpt><trkpt lat="37.7985547" lon="-3.0841317"><ele>820.6666666666667</ele><time>2026-04-11T17:46:03.384Z</time></trkpt><trkpt lat="37.7986946" lon="-3.0842206"><ele>819.3333333333334</ele><time>2026-04-11T17:46:04.385Z</time></trkpt><trkpt lat="37.7988429" lon="-3.0842729"><ele>818.0</ele><time>2026-04-11T17:46:05.385Z</time></trkpt><trkpt lat="37.7989914" lon="-3.0842785"><ele>818.0</ele><time>2026-04-11T17:46:06.385Z</time></trkpt><trkpt lat="37.7991399" lon="-3.0842492"><ele>818.0</ele><time>2026-04-11T17:46:07.385Z</time></trkpt><trkpt lat="37.7992937" lon="-3.0842022"><ele>818.0</ele><time>2026-04-11T17:46:08.384Z</time></trkpt><trkpt lat="37.799445" lon="-3.0841423"><ele>819.3333333333334</ele><time>2026-04-11T17:46:09.385Z</time></trkpt><trkpt lat="37.7995967" lon="-3.084076"><ele>820.6666666666667</ele><time>2026-04-11T17:46:10.385Z</time></trkpt><trkpt lat="37.7997514" lon="-3.0840104"><ele>822.0</ele><time>2026-04-11T17:46:11.385Z</time></trkpt><trkpt lat="37.799914" lon="-3.0839501"><ele>822.0</ele><time>2026-04-11T17:46:12.385Z</time></trkpt><trkpt lat="37.8000782" lon="-3.0838887"><ele>822.0</ele><time>2026-04-11T17:46:13.385Z</time></trkpt><trkpt lat="37.8002493" lon="-3.0838302"><ele>822.0</ele><time>2026-04-11T17:46:14.385Z</time></trkpt><trkpt lat="37.8004218" lon="-3.0837768"><ele>819.3333333333333</ele><time>2026-04-11T17:46:15.385Z</time></trkpt><trkpt lat="37.8006023" lon="-3.0837307"><ele>816.6666666666666</ele><time>2026-04-11T17:46:16.385Z</time></trkpt><trkpt lat="37.8007881" lon="-3.0836904"><ele>814.0</ele><time>2026-04-11T17:46:17.384Z</time></trkpt><trkpt lat="37.8009745" lon="-3.083654"><ele>813.3333333333333</ele><time>2026-04-11T17:46:18.385Z</time></trkpt><trkpt lat="37.8011686" lon="-3.0836265"><ele>812.6666666666667</ele><time>2026-04-11T17:46:19.384Z</time></trkpt><trkpt lat="37.8013636" lon="-3.0836053"><ele>812.0</ele><time>2026-04-11T17:46:20.385Z</time></trkpt><trkpt lat="37.801561" lon="-3.0835866"><ele>812.0</ele><time>2026-04-11T17:46:21.385Z</time></trkpt><trkpt lat="37.801755" lon="-3.08357"><ele>812.0</ele><time>2026-04-11T17:46:22.385Z</time></trkpt><trkpt lat="37.8019459" lon="-3.083545"><ele>812.0</ele><time>2026-04-11T17:46:23.385Z</time></trkpt><trkpt lat="37.802127" lon="-3.0835153"><ele>811.3333333333334</ele><time>2026-04-11T17:46:24.385Z</time></trkpt><trkpt lat="37.8022963" lon="-3.0834827"><ele>810.6666666666667</ele><time>2026-04-11T17:46:25.385Z</time></trkpt><trkpt lat="37.8024628" lon="-3.083444"><ele>810.0</ele><time>2026-04-11T17:46:26.385Z</time></trkpt><trkpt lat="37.8026302" lon="-3.0833931"><ele>808.3333333333333</ele><time>2026-04-11T17:46:27.385Z</time></trkpt><trkpt lat="37.8027969" lon="-3.0833282"><ele>806.6666666666666</ele><time>2026-04-11T17:46:28.385Z</time></trkpt><trkpt lat="37.8029646" lon="-3.0832495"><ele>805.0</ele><time>2026-04-11T17:46:29.384Z</time></trkpt><trkpt lat="37.8031272" lon="-3.0831517"><ele>805.3333333333333</ele><time>2026-04-11T17:46:30.385Z</time></trkpt><trkpt lat="37.8032885" lon="-3.0830444"><ele>805.6666666666667</ele><time>2026-04-11T17:46:31.385Z</time></trkpt><trkpt lat="37.8034486" lon="-3.0829244"><ele>806.0</ele><time>2026-04-11T17:46:32.385Z</time></trkpt><trkpt lat="37.8036034" lon="-3.0827937"><ele>806.0</ele><time>2026-04-11T17:46:33.385Z</time></trkpt><trkpt lat="37.8037576" lon="-3.0826619"><ele>806.0</ele><time>2026-04-11T17:46:34.385Z</time></trkpt><trkpt lat="37.8039135" lon="-3.0825277"><ele>806.0</ele><time>2026-04-11T17:46:35.385Z</time></trkpt><trkpt lat="37.8040746" lon="-3.0824063"><ele>810.3333333333334</ele><time>2026-04-11T17:46:36.385Z</time></trkpt><trkpt lat="37.8042413" lon="-3.0822982"><ele>814.6666666666667</ele><time>2026-04-11T17:46:37.385Z</time></trkpt><trkpt lat="37.8044097" lon="-3.0822072"><ele>819.0</ele><time>2026-04-11T17:46:38.385Z</time></trkpt><trkpt lat="37.8045795" lon="-3.0821329"><ele>819.3333333333333</ele><time>2026-04-11T17:46:39.385Z</time></trkpt><trkpt lat="37.8047556" lon="-3.082077"><ele>819.6666666666666</ele><time>2026-04-11T17:46:40.385Z</time></trkpt><trkpt lat="37.8049319" lon="-3.0820511"><ele>820.0</ele><time>2026-04-11T17:46:41.385Z</time></trkpt><trkpt lat="37.8051133" lon="-3.0820473"><ele>823.0</ele><time>2026-04-11T17:46:42.385Z</time></trkpt><trkpt lat="37.8052915" lon="-3.0820645"><ele>826.0</ele><time>2026-04-11T17:46:43.384Z</time></trkpt><trkpt lat="37.8054728" lon="-3.0821027"><ele>829.0</ele><time>2026-04-11T17:46:44.384Z</time></trkpt><trkpt lat="37.8056492" lon="-3.0821667"><ele>829.0</ele><time>2026-04-11T17:46:45.385Z</time></trkpt><trkpt lat="37.8058245" lon="-3.0822551"><ele>829.0</ele><time>2026-04-11T17:46:46.385Z</time></trkpt><trkpt lat="37.805993" lon="-3.0823662"><ele>829.0</ele><time>2026-04-11T17:46:47.384Z</time></trkpt><trkpt lat="37.806151" lon="-3.0825021"><ele>828.3333333333333</ele><time>2026-04-11T17:46:48.384Z</time></trkpt><trkpt lat="37.8062999" lon="-3.0826547"><ele>827.6666666666667</ele><time>2026-04-11T17:46:49.385Z</time></trkpt><trkpt lat="37.8064375" lon="-3.0828193"><ele>827.0</ele><time>2026-04-11T17:46:50.385Z</time></trkpt><trkpt lat="37.8065724" lon="-3.082986"><ele>827.0</ele><time>2026-04-11T17:46:51.385Z</time></trkpt><trkpt lat="37.806707" lon="-3.0831557"><ele>827.0</ele><time>2026-04-11T17:46:52.384Z</time></trkpt><trkpt lat="37.8068471" lon="-3.0833194"><ele>827.0</ele><time>2026-04-11T17:46:53.385Z</time></trkpt><trkpt lat="37.8069908" lon="-3.0834799"><ele>828.6666666666667</ele><time>2026-04-11T17:46:54.385Z</time></trkpt><trkpt lat="37.8071405" lon="-3.0836286"><ele>830.3333333333333</ele><time>2026-04-11T17:46:55.385Z</time></trkpt><trkpt lat="37.8072917" lon="-3.0837651"><ele>832.0</ele><time>2026-04-11T17:46:56.384Z</time></trkpt><trkpt lat="37.807439" lon="-3.0838913"><ele>832.0</ele><time>2026-04-11T17:46:57.385Z</time></trkpt><trkpt lat="37.8075814" lon="-3.084003"><ele>832.0</ele><time>2026-04-11T17:46:58.385Z</time></trkpt><trkpt lat="37.8077139" lon="-3.0841009"><ele>832.0</ele><time>2026-04-11T17:46:59.385Z</time></trkpt><trkpt lat="37.8078327" lon="-3.0841833"><ele>831.6</ele><time>2026-04-11T17:47:00.385Z</time></trkpt><trkpt lat="37.8079424" lon="-3.0842555"><ele>831.2</ele><time>2026-04-11T17:47:01.385Z</time></trkpt><trkpt lat="37.8080425" lon="-3.0843228"><ele>830.8</ele><time>2026-04-11T17:47:02.385Z</time></trkpt><trkpt lat="37.8081364" lon="-3.0843847"><ele>830.4</ele><time>2026-04-11T17:47:03.385Z</time></trkpt><trkpt lat="37.8082301" lon="-3.0844456"><ele>830.0</ele><time>2026-04-11T17:47:04.385Z</time></trkpt><trkpt lat="37.8083287" lon="-3.0845103"><ele>830.0</ele><time>2026-04-11T17:47:05.385Z</time></trkpt><trkpt lat="37.8084352" lon="-3.0845757"><ele>830.0</ele><time>2026-04-11T17:47:06.385Z</time></trkpt><trkpt lat="37.8085435" lon="-3.084639"><ele>830.0</ele><time>2026-04-11T17:47:07.385Z</time></trkpt><trkpt lat="37.8086503" lon="-3.0847057"><ele>830.0</ele><time>2026-04-11T17:47:08.385Z</time></trkpt><trkpt lat="37.8087602" lon="-3.0847729"><ele>831.5</ele><time>2026-04-11T17:47:09.385Z</time></trkpt><trkpt lat="37.8088739" lon="-3.0848414"><ele>833.0</ele><time>2026-04-11T17:47:10.384Z</time></trkpt><trkpt lat="37.8089894" lon="-3.0849128"><ele>834.5</ele><time>2026-04-11T17:47:11.385Z</time></trkpt><trkpt lat="37.809107" lon="-3.0849855"><ele>836.0</ele><time>2026-04-11T17:47:12.385Z</time></trkpt><trkpt lat="37.8092253" lon="-3.0850639"><ele>834.25</ele><time>2026-04-11T17:47:13.385Z</time></trkpt><trkpt lat="37.8093443" lon="-3.0851431"><ele>832.5</ele><time>2026-04-11T17:47:14.385Z</time></trkpt><trkpt lat="37.8094586" lon="-3.0852311"><ele>830.75</ele><time>2026-04-11T17:47:15.384Z</time></trkpt><trkpt lat="37.8095725" lon="-3.0853276"><ele>829.0</ele><time>2026-04-11T17:47:16.385Z</time></trkpt><trkpt lat="37.8096897" lon="-3.0854341"><ele>829.0</ele><time>2026-04-11T17:47:17.384Z</time></trkpt><trkpt lat="37.8098052" lon="-3.0855583"><ele>829.0</ele><time>2026-04-11T17:47:18.385Z</time></trkpt><trkpt lat="37.8099245" lon="-3.0857002"><ele>829.0</ele><time>2026-04-11T17:47:19.385Z</time></trkpt><trkpt lat="37.8100511" lon="-3.08585"><ele>829.0</ele><time>2026-04-11T17:47:20.384Z</time></trkpt><trkpt lat="37.8101879" lon="-3.0860019"><ele>829.0</ele><time>2026-04-11T17:47:21.385Z</time></trkpt><trkpt lat="37.8103372" lon="-3.0861539"><ele>829.0</ele><time>2026-04-11T17:47:22.385Z</time></trkpt><trkpt lat="37.8104943" lon="-3.0863124"><ele>829.0</ele><time>2026-04-11T17:47:23.385Z</time></trkpt><trkpt lat="37.8106538" lon="-3.0864718"><ele>829.0</ele><time>2026-04-11T17:47:24.384Z</time></trkpt><trkpt lat="37.8108146" lon="-3.0866357"><ele>829.0</ele><time>2026-04-11T17:47:25.385Z</time></trkpt><trkpt lat="37.8109762" lon="-3.0868067"><ele>827.0</ele><time>2026-04-11T17:47:26.385Z</time></trkpt><trkpt lat="37.8111359" lon="-3.0869802"><ele>825.0</ele><time>2026-04-11T17:47:27.385Z</time></trkpt><trkpt lat="37.8112881" lon="-3.0871469"><ele>823.0</ele><time>2026-04-11T17:47:28.385Z</time></trkpt><trkpt lat="37.811429" lon="-3.0873005"><ele>821.6666666666666</ele><time>2026-04-11T17:47:29.385Z</time></trkpt><trkpt lat="37.8115727" lon="-3.0874499"><ele>820.3333333333333</ele><time>2026-04-11T17:47:30.385Z</time></trkpt><trkpt lat="37.8117251" lon="-3.0876102"><ele>819.0</ele><time>2026-04-11T17:47:31.385Z</time></trkpt><trkpt lat="37.8118333" lon="-3.0877182"><ele>819.0</ele><time>2026-04-11T17:47:32.384Z</time></trkpt><trkpt lat="37.8119653" lon="-3.0878402"><ele>819.0</ele><time>2026-04-11T17:47:33.385Z</time></trkpt><trkpt lat="37.8121134" lon="-3.0879409"><ele>819.0</ele><time>2026-04-11T17:47:34.385Z</time></trkpt><trkpt lat="37.8122725" lon="-3.0880071"><ele>819.0</ele><time>2026-04-11T17:47:35.385Z</time></trkpt><trkpt lat="37.8124296" lon="-3.0880372"><ele>819.0</ele><time>2026-04-11T17:47:36.385Z</time></trkpt><trkpt lat="37.812586" lon="-3.0880693"><ele>819.0</ele><time>2026-04-11T17:47:37.385Z</time></trkpt><trkpt lat="37.812741" lon="-3.088121"><ele>820.3333333333333</ele><time>2026-04-11T17:47:38.385Z</time></trkpt><trkpt lat="37.8128949" lon="-3.088209"><ele>821.6666666666666</ele><time>2026-04-11T17:47:39.385Z</time></trkpt><trkpt lat="37.8130427" lon="-3.0883181"><ele>823.0</ele><time>2026-04-11T17:47:40.384Z</time></trkpt><trkpt lat="37.8131805" lon="-3.0884471"><ele>819.0</ele><time>2026-04-11T17:47:41.385Z</time></trkpt><trkpt lat="37.8132902" lon="-3.0885789"><ele>815.0</ele><time>2026-04-11T17:47:42.385Z</time></trkpt><trkpt lat="37.8133984" lon="-3.0887241"><ele>811.0</ele><time>2026-04-11T17:47:43.385Z</time></trkpt><trkpt lat="37.8134799" lon="-3.0888761"><ele>810.6666666666666</ele><time>2026-04-11T17:47:44.385Z</time></trkpt><trkpt lat="37.8135546" lon="-3.0890495"><ele>810.3333333333333</ele><time>2026-04-11T17:47:45.385Z</time></trkpt><trkpt lat="37.8136183" lon="-3.0892476"><ele>810.0</ele><time>2026-04-11T17:47:46.385Z</time></trkpt><trkpt lat="37.8136772" lon="-3.0894572"><ele>810.0</ele><time>2026-04-11T17:47:47.385Z</time></trkpt><trkpt lat="37.8137281" lon="-3.0896851"><ele>810.0</ele><time>2026-04-11T17:47:48.385Z</time></trkpt><trkpt lat="37.8137789" lon="-3.0899229"><ele>810.0</ele><time>2026-04-11T17:47:49.385Z</time></trkpt><trkpt lat="37.8138307" lon="-3.0901678"><ele>806.3333333333333</ele><time>2026-04-11T17:47:50.384Z</time></trkpt><trkpt lat="37.8138895" lon="-3.0904121"><ele>802.6666666666666</ele><time>2026-04-11T17:47:51.385Z</time></trkpt><trkpt lat="37.8139631" lon="-3.0906493"><ele>799.0</ele><time>2026-04-11T17:47:52.385Z</time></trkpt><trkpt lat="37.8140464" lon="-3.0908613"><ele>795.6666666666666</ele><time>2026-04-11T17:47:53.385Z</time></trkpt><trkpt lat="37.8141362" lon="-3.091052"><ele>792.3333333333333</ele><time>2026-04-11T17:47:54.385Z</time></trkpt><trkpt lat="37.814236" lon="-3.0912119"><ele>789.0</ele><time>2026-04-11T17:47:55.384Z</time></trkpt><trkpt lat="37.8143519" lon="-3.0913714"><ele>788.6666666666667</ele><time>2026-04-11T17:47:56.385Z</time></trkpt><trkpt lat="37.8144692" lon="-3.09154"><ele>788.3333333333334</ele><time>2026-04-11T17:47:57.385Z</time></trkpt><trkpt lat="37.8145889" lon="-3.0917147"><ele>788.0</ele><time>2026-04-11T17:47:58.385Z</time></trkpt><trkpt lat="37.8147132" lon="-3.0918881"><ele>786.0</ele><time>2026-04-11T17:47:59.385Z</time></trkpt><trkpt lat="37.8148342" lon="-3.0920607"><ele>784.0</ele><time>2026-04-11T17:48:00.385Z</time></trkpt><trkpt lat="37.8149533" lon="-3.0922203"><ele>782.0</ele><time>2026-04-11T17:48:01.385Z</time></trkpt><trkpt lat="37.815068" lon="-3.09237"><ele>779.6666666666667</ele><time>2026-04-11T17:48:02.385Z</time></trkpt><trkpt lat="37.8151891" lon="-3.0925116"><ele>777.3333333333333</ele><time>2026-04-11T17:48:03.385Z</time></trkpt><trkpt lat="37.8153243" lon="-3.0926386"><ele>775.0</ele><time>2026-04-11T17:48:04.385Z</time></trkpt><trkpt lat="37.8154647" lon="-3.0927558"><ele>775.0</ele><time>2026-04-11T17:48:05.385Z</time></trkpt><trkpt lat="37.8156157" lon="-3.0928542"><ele>775.0</ele><time>2026-04-11T17:48:06.385Z</time></trkpt><trkpt lat="37.815771" lon="-3.0929295"><ele>775.0</ele><time>2026-04-11T17:48:07.385Z</time></trkpt><trkpt lat="37.8159422" lon="-3.0929896"><ele>774.3333333333333</ele><time>2026-04-11T17:48:08.385Z</time></trkpt><trkpt lat="37.8161135" lon="-3.0930354"><ele>773.6666666666667</ele><time>2026-04-11T17:48:09.385Z</time></trkpt><trkpt lat="37.8162951" lon="-3.0930714"><ele>773.0</ele><time>2026-04-11T17:48:10.384Z</time></trkpt><trkpt lat="37.8164781" lon="-3.093097"><ele>773.0</ele><time>2026-04-11T17:48:11.384Z</time></trkpt><trkpt lat="37.816665" lon="-3.0931254"><ele>773.0</ele><time>2026-04-11T17:48:12.385Z</time></trkpt><trkpt lat="37.8168498" lon="-3.0931504"><ele>773.0</ele><time>2026-04-11T17:48:13.385Z</time></trkpt><trkpt lat="37.8170313" lon="-3.0931762"><ele>772.3333333333334</ele><time>2026-04-11T17:48:14.385Z</time></trkpt><trkpt lat="37.817203" lon="-3.0932036"><ele>771.6666666666667</ele><time>2026-04-11T17:48:15.385Z</time></trkpt><trkpt lat="37.8173633" lon="-3.0932309"><ele>771.0</ele><time>2026-04-11T17:48:16.385Z</time></trkpt><trkpt lat="37.8175137" lon="-3.093279"><ele>767.3333333333334</ele><time>2026-04-11T17:48:17.385Z</time></trkpt><trkpt lat="37.8176607" lon="-3.093349"><ele>763.6666666666667</ele><time>2026-04-11T17:48:18.385Z</time></trkpt><trkpt lat="37.8178044" lon="-3.0934461"><ele>760.0</ele><time>2026-04-11T17:48:19.385Z</time></trkpt><trkpt lat="37.8179413" lon="-3.093571"><ele>760.0</ele><time>2026-04-11T17:48:20.385Z</time></trkpt><trkpt lat="37.8180776" lon="-3.0937069"><ele>760.0</ele><time>2026-04-11T17:48:21.385Z</time></trkpt><trkpt lat="37.8182085" lon="-3.0938402"><ele>760.0</ele><time>2026-04-11T17:48:22.385Z</time></trkpt><trkpt lat="37.8183374" lon="-3.0939659"><ele>760.0</ele><time>2026-04-11T17:48:23.385Z</time></trkpt><trkpt lat="37.8184647" lon="-3.0940707"><ele>760.0</ele><time>2026-04-11T17:48:24.385Z</time></trkpt><trkpt lat="37.8185894" lon="-3.0941487"><ele>760.0</ele><time>2026-04-11T17:48:25.385Z</time></trkpt><trkpt lat="37.8187097" lon="-3.0942007"><ele>760.0</ele><time>2026-04-11T17:48:26.385Z</time></trkpt><trkpt lat="37.8188364" lon="-3.0942207"><ele>757.25</ele><time>2026-04-11T17:48:27.385Z</time></trkpt><trkpt lat="37.8189713" lon="-3.0942328"><ele>754.5</ele><time>2026-04-11T17:48:28.385Z</time></trkpt><trkpt lat="37.8191138" lon="-3.0942524"><ele>751.75</ele><time>2026-04-11T17:48:29.385Z</time></trkpt><trkpt lat="37.8192647" lon="-3.0942982"><ele>749.0</ele><time>2026-04-11T17:48:30.384Z</time></trkpt><trkpt lat="37.8194138" lon="-3.0943749"><ele>749.0</ele><time>2026-04-11T17:48:31.385Z</time></trkpt><trkpt lat="37.8195661" lon="-3.0944683"><ele>749.0</ele><time>2026-04-11T17:48:32.385Z</time></trkpt><trkpt lat="37.8197147" lon="-3.094561"><ele>749.0</ele><time>2026-04-11T17:48:33.385Z</time></trkpt><trkpt lat="37.8198611" lon="-3.0946534"><ele>749.0</ele><time>2026-04-11T17:48:34.385Z</time></trkpt><trkpt lat="37.8200051" lon="-3.094752"><ele>749.0</ele><time>2026-04-11T17:48:35.385Z</time></trkpt><trkpt lat="37.8201369" lon="-3.0948772"><ele>749.0</ele><time>2026-04-11T17:48:36.384Z</time></trkpt><trkpt lat="37.8202657" lon="-3.0950201"><ele>748.6666666666666</ele><time>2026-04-11T17:48:37.385Z</time></trkpt><trkpt lat="37.8204011" lon="-3.0951475"><ele>748.3333333333334</ele><time>2026-04-11T17:48:38.385Z</time></trkpt><trkpt lat="37.8205512" lon="-3.0952476"><ele>748.0</ele><time>2026-04-11T17:48:39.385Z</time></trkpt><trkpt lat="37.8207072" lon="-3.095315"><ele>748.0</ele><time>2026-04-11T17:48:40.385Z</time></trkpt><trkpt lat="37.8208683" lon="-3.0953507"><ele>748.0</ele><time>2026-04-11T17:48:41.385Z</time></trkpt><trkpt lat="37.8210258" lon="-3.0953461"><ele>748.0</ele><time>2026-04-11T17:48:42.385Z</time></trkpt><trkpt lat="37.8211704" lon="-3.0953135"><ele>748.0</ele><time>2026-04-11T17:48:43.385Z</time></trkpt><trkpt lat="37.8213141" lon="-3.0952552"><ele>748.0</ele><time>2026-04-11T17:48:44.384Z</time></trkpt><trkpt lat="37.821444" lon="-3.0951697"><ele>748.0</ele><time>2026-04-11T17:48:45.385Z</time></trkpt><trkpt lat="37.8215538" lon="-3.0950679"><ele>748.0</ele><time>2026-04-11T17:48:46.385Z</time></trkpt><trkpt lat="37.8216582" lon="-3.0949585"><ele>748.75</ele><time>2026-04-11T17:48:47.384Z</time></trkpt><trkpt lat="37.8217608" lon="-3.0948477"><ele>749.5</ele><time>2026-04-11T17:48:48.384Z</time></trkpt><trkpt lat="37.8218642" lon="-3.0947387"><ele>750.25</ele><time>2026-04-11T17:48:49.384Z</time></trkpt><trkpt lat="37.8219804" lon="-3.0946448"><ele>751.0</ele><time>2026-04-11T17:48:50.385Z</time></trkpt><trkpt lat="37.8221126" lon="-3.0945776"><ele>751.0</ele><time>2026-04-11T17:48:51.385Z</time></trkpt><trkpt lat="37.8222544" lon="-3.0945441"><ele>751.0</ele><time>2026-04-11T17:48:52.384Z</time></trkpt><trkpt lat="37.8224064" lon="-3.0945347"><ele>751.0</ele><time>2026-04-11T17:48:53.385Z</time></trkpt><trkpt lat="37.822561" lon="-3.0945679"><ele>758.3333333333334</ele><time>2026-04-11T17:48:54.385Z</time></trkpt><trkpt lat="37.8227072" lon="-3.0946368"><ele>765.6666666666667</ele><time>2026-04-11T17:48:55.385Z</time></trkpt><trkpt lat="37.8228435" lon="-3.0947519"><ele>773.0</ele><time>2026-04-11T17:48:56.385Z</time></trkpt><trkpt lat="37.8229593" lon="-3.0948981"><ele>770.0</ele><time>2026-04-11T17:48:57.385Z</time></trkpt><trkpt lat="37.8230624" lon="-3.0950645"><ele>767.0</ele><time>2026-04-11T17:48:58.384Z</time></trkpt><trkpt lat="37.8231559" lon="-3.0952493"><ele>764.0</ele><time>2026-04-11T17:48:59.385Z</time></trkpt><trkpt lat="37.8232433" lon="-3.0954421"><ele>764.0</ele><time>2026-04-11T17:49:00.385Z</time></trkpt><trkpt lat="37.823323" lon="-3.095634"><ele>764.0</ele><time>2026-04-11T17:49:01.384Z</time></trkpt><trkpt lat="37.8233988" lon="-3.0958214"><ele>764.0</ele><time>2026-04-11T17:49:02.385Z</time></trkpt><trkpt lat="37.8234776" lon="-3.0960002"><ele>764.75</ele><time>2026-04-11T17:49:03.384Z</time></trkpt><trkpt lat="37.8235657" lon="-3.0961584"><ele>765.5</ele><time>2026-04-11T17:49:04.384Z</time></trkpt><trkpt lat="37.8236656" lon="-3.0962917"><ele>766.25</ele><time>2026-04-11T17:49:05.385Z</time></trkpt><trkpt lat="37.8237735" lon="-3.0964097"><ele>767.0</ele><time>2026-04-11T17:49:06.385Z</time></trkpt><trkpt lat="37.8238983" lon="-3.0965198"><ele>764.3333333333333</ele><time>2026-04-11T17:49:07.385Z</time></trkpt><trkpt lat="37.8240302" lon="-3.0966219"><ele>761.6666666666666</ele><time>2026-04-11T17:49:08.385Z</time></trkpt><trkpt lat="37.824169" lon="-3.0967166"><ele>759.0</ele><time>2026-04-11T17:49:09.384Z</time></trkpt><trkpt lat="37.8243165" lon="-3.0968006"><ele>759.0</ele><time>2026-04-11T17:49:10.385Z</time></trkpt><trkpt lat="37.824472" lon="-3.0968706"><ele>759.0</ele><time>2026-04-11T17:49:11.385Z</time></trkpt><trkpt lat="37.8246326" lon="-3.096938"><ele>759.0</ele><time>2026-04-11T17:49:12.385Z</time></trkpt><trkpt lat="37.8247957" lon="-3.0970023"><ele>759.0</ele><time>2026-04-11T17:49:13.385Z</time></trkpt><trkpt lat="37.8249557" lon="-3.09707"><ele>759.0</ele><time>2026-04-11T17:49:14.384Z</time></trkpt><trkpt lat="37.8251135" lon="-3.0971479"><ele>759.0</ele><time>2026-04-11T17:49:15.384Z</time></trkpt><trkpt lat="37.825262" lon="-3.0972563"><ele>759.6666666666666</ele><time>2026-04-11T17:49:16.385Z</time></trkpt><trkpt lat="37.825395" lon="-3.0973935"><ele>760.3333333333333</ele><time>2026-04-11T17:49:17.385Z</time></trkpt><trkpt lat="37.8255104" lon="-3.0975593"><ele>761.0</ele><time>2026-04-11T17:49:18.385Z</time></trkpt><trkpt lat="37.8255997" lon="-3.0977549"><ele>761.0</ele><time>2026-04-11T17:49:19.384Z</time></trkpt><trkpt lat="37.8256662" lon="-3.0979705"><ele>761.0</ele><time>2026-04-11T17:49:20.385Z</time></trkpt><trkpt lat="37.8257125" lon="-3.0981972"><ele>761.0</ele><time>2026-04-11T17:49:21.385Z</time></trkpt><trkpt lat="37.8257491" lon="-3.0984263"><ele>760.0</ele><time>2026-04-11T17:49:22.385Z</time></trkpt><trkpt lat="37.8257916" lon="-3.0986544"><ele>759.0</ele><time>2026-04-11T17:49:23.384Z</time></trkpt><trkpt lat="37.8258556" lon="-3.0988689"><ele>758.0</ele><time>2026-04-11T17:49:24.385Z</time></trkpt><trkpt lat="37.8259443" lon="-3.0990615"><ele>760.3333333333333</ele><time>2026-04-11T17:49:25.385Z</time></trkpt><trkpt lat="37.8260584" lon="-3.0992297"><ele>762.6666666666666</ele><time>2026-04-11T17:49:26.385Z</time></trkpt><trkpt lat="37.8261979" lon="-3.0993603"><ele>765.0</ele><time>2026-04-11T17:49:27.385Z</time></trkpt><trkpt lat="37.8263594" lon="-3.0994539"><ele>765.0</ele><time>2026-04-11T17:49:28.385Z</time></trkpt><trkpt lat="37.8265295" lon="-3.0995153"><ele>765.0</ele><time>2026-04-11T17:49:29.385Z</time></trkpt><trkpt lat="37.8266994" lon="-3.0995711"><ele>765.0</ele><time>2026-04-11T17:49:30.384Z</time></trkpt><trkpt lat="37.8268729" lon="-3.0996352"><ele>765.6666666666666</ele><time>2026-04-11T17:49:31.385Z</time></trkpt><trkpt lat="37.8270404" lon="-3.0997169"><ele>766.3333333333333</ele><time>2026-04-11T17:49:32.384Z</time></trkpt><trkpt lat="37.8272053" lon="-3.0998183"><ele>767.0</ele><time>2026-04-11T17:49:33.385Z</time></trkpt><trkpt lat="37.8273669" lon="-3.0999401"><ele>767.0</ele><time>2026-04-11T17:49:34.385Z</time></trkpt><trkpt lat="37.8275222" lon="-3.1000786"><ele>767.0</ele><time>2026-04-11T17:49:35.385Z</time></trkpt><trkpt lat="37.8276523" lon="-3.1002438"><ele>767.0</ele><time>2026-04-11T17:49:36.385Z</time></trkpt><trkpt lat="37.8277585" lon="-3.1004317"><ele>770.3333333333333</ele><time>2026-04-11T17:49:37.384Z</time></trkpt><trkpt lat="37.8278361" lon="-3.1006261"><ele>773.6666666666666</ele><time>2026-04-11T17:49:38.385Z</time></trkpt><trkpt lat="37.8279111" lon="-3.1008117"><ele>777.0</ele><time>2026-04-11T17:49:39.385Z</time></trkpt><trkpt lat="37.8280104" lon="-3.1009684"><ele>777.0</ele><time>2026-04-11T17:49:40.385Z</time></trkpt><trkpt lat="37.8281291" lon="-3.1010808"><ele>777.0</ele><time>2026-04-11T17:49:41.384Z</time></trkpt><trkpt lat="37.828259" lon="-3.1011713"><ele>777.0</ele><time>2026-04-11T17:49:42.385Z</time></trkpt><trkpt lat="37.8283988" lon="-3.1012176"><ele>777.0</ele><time>2026-04-11T17:49:43.385Z</time></trkpt><trkpt lat="37.828544" lon="-3.1012415"><ele>777.75</ele><time>2026-04-11T17:49:44.385Z</time></trkpt><trkpt lat="37.828689" lon="-3.1012307"><ele>778.5</ele><time>2026-04-11T17:49:45.385Z</time></trkpt><trkpt lat="37.8288243" lon="-3.1011753"><ele>779.25</ele><time>2026-04-11T17:49:46.385Z</time></trkpt><trkpt lat="37.8289509" lon="-3.1010876"><ele>780.0</ele><time>2026-04-11T17:49:47.385Z</time></trkpt><trkpt lat="37.8290557" lon="-3.1009721"><ele>780.0</ele><time>2026-04-11T17:49:48.384Z</time></trkpt><trkpt lat="37.8291453" lon="-3.1008437"><ele>780.0</ele><time>2026-04-11T17:49:49.385Z</time></trkpt><trkpt lat="37.8292259" lon="-3.1007104"><ele>780.0</ele><time>2026-04-11T17:49:50.385Z</time></trkpt><trkpt lat="37.8293094" lon="-3.1005831"><ele>780.0</ele><time>2026-04-11T17:49:51.385Z</time></trkpt><trkpt lat="37.8293947" lon="-3.1004553"><ele>782.25</ele><time>2026-04-11T17:49:52.384Z</time></trkpt><trkpt lat="37.8294817" lon="-3.1003347"><ele>784.5</ele><time>2026-04-11T17:49:53.385Z</time></trkpt><trkpt lat="37.829578" lon="-3.1002263"><ele>786.75</ele><time>2026-04-11T17:49:54.385Z</time></trkpt><trkpt lat="37.8296888" lon="-3.1001471"><ele>789.0</ele><time>2026-04-11T17:49:55.385Z</time></trkpt><trkpt lat="37.8298086" lon="-3.1000885"><ele>789.0</ele><time>2026-04-11T17:49:56.384Z</time></trkpt><trkpt lat="37.8299404" lon="-3.1000525"><ele>789.0</ele><time>2026-04-11T17:49:57.384Z</time></trkpt><trkpt lat="37.8300729" lon="-3.1000438"><ele>789.0</ele><time>2026-04-11T17:49:58.384Z</time></trkpt><trkpt lat="37.8301999" lon="-3.100052"><ele>789.0</ele><time>2026-04-11T17:49:59.384Z</time></trkpt><trkpt lat="37.8303362" lon="-3.1000859"><ele>791.0</ele><time>2026-04-11T17:50:00.385Z</time></trkpt><trkpt lat="37.8304685" lon="-3.100119"><ele>793.0</ele><time>2026-04-11T17:50:01.385Z</time></trkpt><trkpt lat="37.8306018" lon="-3.1001446"><ele>795.0</ele><time>2026-04-11T17:50:02.385Z</time></trkpt><trkpt lat="37.8307348" lon="-3.1001556"><ele>797.0</ele><time>2026-04-11T17:50:03.385Z</time></trkpt><trkpt lat="37.8308724" lon="-3.1001379"><ele>797.5</ele><time>2026-04-11T17:50:04.385Z</time></trkpt><trkpt lat="37.8310076" lon="-3.1000942"><ele>798.0</ele><time>2026-04-11T17:50:05.385Z</time></trkpt><trkpt lat="37.8311372" lon="-3.1000252"><ele>798.5</ele><time>2026-04-11T17:50:06.384Z</time></trkpt><trkpt lat="37.8312573" lon="-3.0999235"><ele>799.0</ele><time>2026-04-11T17:50:07.385Z</time></trkpt><trkpt lat="37.8313678" lon="-3.0998135"><ele>801.75</ele><time>2026-04-11T17:50:08.385Z</time></trkpt><trkpt lat="37.8314747" lon="-3.0996973"><ele>804.5</ele><time>2026-04-11T17:50:09.385Z</time></trkpt><trkpt lat="37.8315867" lon="-3.0995893"><ele>807.25</ele><time>2026-04-11T17:50:10.385Z</time></trkpt><trkpt lat="37.8317075" lon="-3.099493"><ele>810.0</ele><time>2026-04-11T17:50:11.385Z</time></trkpt><trkpt lat="37.8318394" lon="-3.0994057"><ele>811.3333333333333</ele><time>2026-04-11T17:50:12.384Z</time></trkpt><trkpt lat="37.8319782" lon="-3.0993236"><ele>812.6666666666666</ele><time>2026-04-11T17:50:13.385Z</time></trkpt><trkpt lat="37.8321201" lon="-3.0992445"><ele>814.0</ele><time>2026-04-11T17:50:14.384Z</time></trkpt><trkpt lat="37.8322644" lon="-3.0991696"><ele>814.0</ele><time>2026-04-11T17:50:15.385Z</time></trkpt><trkpt lat="37.832413" lon="-3.099115"><ele>814.0</ele><time>2026-04-11T17:50:16.385Z</time></trkpt><trkpt lat="37.8325687" lon="-3.0990907"><ele>814.0</ele><time>2026-04-11T17:50:17.384Z</time></trkpt><trkpt lat="37.8327246" lon="-3.0991045"><ele>816.0</ele><time>2026-04-11T17:50:18.385Z</time></trkpt><trkpt lat="37.832873" lon="-3.0991613"><ele>818.0</ele><time>2026-04-11T17:50:19.384Z</time></trkpt><trkpt lat="37.8330196" lon="-3.0992313"><ele>820.0</ele><time>2026-04-11T17:50:20.385Z</time></trkpt><trkpt lat="37.8331609" lon="-3.0992825"><ele>820.0</ele><time>2026-04-11T17:50:21.385Z</time></trkpt><trkpt lat="37.8333076" lon="-3.0992949"><ele>820.0</ele><time>2026-04-11T17:50:22.385Z</time></trkpt><trkpt lat="37.8334516" lon="-3.0992699"><ele>820.0</ele><time>2026-04-11T17:50:23.384Z</time></trkpt><trkpt lat="37.833589" lon="-3.0992041"><ele>820.0</ele><time>2026-04-11T17:50:24.385Z</time></trkpt><trkpt lat="37.8337184" lon="-3.0991212"><ele>820.75</ele><time>2026-04-11T17:50:25.385Z</time></trkpt><trkpt lat="37.8338393" lon="-3.099015"><ele>821.5</ele><time>2026-04-11T17:50:26.385Z</time></trkpt><trkpt lat="37.8339454" lon="-3.0988899"><ele>822.25</ele><time>2026-04-11T17:50:27.385Z</time></trkpt><trkpt lat="37.8340298" lon="-3.0987368"><ele>823.0</ele><time>2026-04-11T17:50:28.385Z</time></trkpt><trkpt lat="37.8340914" lon="-3.098563"><ele>823.0</ele><time>2026-04-11T17:50:29.385Z</time></trkpt><trkpt lat="37.8341365" lon="-3.0983791"><ele>823.0</ele><time>2026-04-11T17:50:30.385Z</time></trkpt><trkpt lat="37.8341731" lon="-3.0981929"><ele>823.0</ele><time>2026-04-11T17:50:31.385Z</time></trkpt><trkpt lat="37.8342077" lon="-3.0980007"><ele>823.3333333333333</ele><time>2026-04-11T17:50:32.385Z</time></trkpt><trkpt lat="37.834242" lon="-3.0978061"><ele>823.6666666666667</ele><time>2026-04-11T17:50:33.385Z</time></trkpt><trkpt lat="37.8342782" lon="-3.0976182"><ele>824.0</ele><time>2026-04-11T17:50:34.385Z</time></trkpt><trkpt lat="37.8343128" lon="-3.0974363"><ele>827.75</ele><time>2026-04-11T17:50:35.385Z</time></trkpt><trkpt lat="37.8343467" lon="-3.0972633"><ele>831.5</ele><time>2026-04-11T17:50:36.385Z</time></trkpt><trkpt lat="37.8343913" lon="-3.0970969"><ele>835.25</ele><time>2026-04-11T17:50:37.385Z</time></trkpt><trkpt lat="37.83445" lon="-3.0969455"><ele>839.0</ele><time>2026-04-11T17:50:38.385Z</time></trkpt><trkpt lat="37.8345398" lon="-3.0968051"><ele>839.0</ele><time>2026-04-11T17:50:39.385Z</time></trkpt><trkpt lat="37.8346572" lon="-3.0966934"><ele>839.0</ele><time>2026-04-11T17:50:40.385Z</time></trkpt><trkpt lat="37.8347846" lon="-3.0965983"><ele>839.0</ele><time>2026-04-11T17:50:41.384Z</time></trkpt><trkpt lat="37.834927" lon="-3.0965287"><ele>839.0</ele><time>2026-04-11T17:50:42.385Z</time></trkpt><trkpt lat="37.8350685" lon="-3.0964617"><ele>840.0</ele><time>2026-04-11T17:50:43.385Z</time></trkpt><trkpt lat="37.8352063" lon="-3.0963931"><ele>841.0</ele><time>2026-04-11T17:50:44.385Z</time></trkpt><trkpt lat="37.8353421" lon="-3.0963056"><ele>842.0</ele><time>2026-04-11T17:50:45.385Z</time></trkpt><trkpt lat="37.8354674" lon="-3.0961916"><ele>842.0</ele><time>2026-04-11T17:50:46.385Z</time></trkpt><trkpt lat="37.8355835" lon="-3.096056"><ele>842.0</ele><time>2026-04-11T17:50:47.385Z</time></trkpt><trkpt lat="37.8356948" lon="-3.0959179"><ele>842.0</ele><time>2026-04-11T17:50:48.385Z</time></trkpt><trkpt lat="37.8358108" lon="-3.095775"><ele>845.3333333333334</ele><time>2026-04-11T17:50:49.385Z</time></trkpt><trkpt lat="37.8359342" lon="-3.0956379"><ele>848.6666666666667</ele><time>2026-04-11T17:50:50.385Z</time></trkpt><trkpt lat="37.8360781" lon="-3.0955065"><ele>852.0</ele><time>2026-04-11T17:50:51.385Z</time></trkpt><trkpt lat="37.8362261" lon="-3.0953859"><ele>852.0</ele><time>2026-04-11T17:50:52.385Z</time></trkpt><trkpt lat="37.8363773" lon="-3.0952711"><ele>852.0</ele><time>2026-04-11T17:50:53.385Z</time></trkpt><trkpt lat="37.8365413" lon="-3.0951802"><ele>852.0</ele><time>2026-04-11T17:50:54.385Z</time></trkpt><trkpt lat="37.8367171" lon="-3.0951023"><ele>850.6666666666667</ele><time>2026-04-11T17:50:55.385Z</time></trkpt><trkpt lat="37.8368975" lon="-3.0950491"><ele>849.3333333333334</ele><time>2026-04-11T17:50:56.385Z</time></trkpt><trkpt lat="37.8370827" lon="-3.0950081"><ele>848.0</ele><time>2026-04-11T17:50:57.384Z</time></trkpt><trkpt lat="37.8372743" lon="-3.0949883"><ele>848.0</ele><time>2026-04-11T17:50:58.385Z</time></trkpt><trkpt lat="37.837467" lon="-3.0949958"><ele>848.0</ele><time>2026-04-11T17:50:59.385Z</time></trkpt><trkpt lat="37.8376594" lon="-3.0950169"><ele>848.0</ele><time>2026-04-11T17:51:00.385Z</time></trkpt><trkpt lat="37.837852" lon="-3.0950571"><ele>850.0</ele><time>2026-04-11T17:51:01.385Z</time></trkpt><trkpt lat="37.8380386" lon="-3.0951005"><ele>852.0</ele><time>2026-04-11T17:51:02.385Z</time></trkpt><trkpt lat="37.8382034" lon="-3.0951459"><ele>854.0</ele><time>2026-04-11T17:51:03.384Z</time></trkpt><trkpt lat="37.8383653" lon="-3.0951911"><ele>853.6666666666667</ele><time>2026-04-11T17:51:04.384Z</time></trkpt><trkpt lat="37.8385297" lon="-3.0952292"><ele>853.3333333333333</ele><time>2026-04-11T17:51:05.385Z</time></trkpt><trkpt lat="37.838701" lon="-3.095257"><ele>853.0</ele><time>2026-04-11T17:51:06.384Z</time></trkpt><trkpt lat="37.8388765" lon="-3.0952684"><ele>853.0</ele><time>2026-04-11T17:51:07.385Z</time></trkpt><trkpt lat="37.8390518" lon="-3.0952653"><ele>853.0</ele><time>2026-04-11T17:51:08.385Z</time></trkpt><trkpt lat="37.8392254" lon="-3.095244"><ele>853.0</ele><time>2026-04-11T17:51:09.385Z</time></trkpt><trkpt lat="37.8393921" lon="-3.0952109"><ele>850.75</ele><time>2026-04-11T17:51:10.385Z</time></trkpt><trkpt lat="37.8395499" lon="-3.0951652"><ele>848.5</ele><time>2026-04-11T17:51:11.385Z</time></trkpt><trkpt lat="37.8396883" lon="-3.0951067"><ele>846.25</ele><time>2026-04-11T17:51:12.385Z</time></trkpt><trkpt lat="37.8398167" lon="-3.0950379"><ele>844.0</ele><time>2026-04-11T17:51:13.384Z</time></trkpt><trkpt lat="37.8399322" lon="-3.0949683"><ele>845.0</ele><time>2026-04-11T17:51:14.385Z</time></trkpt><trkpt lat="37.8400385" lon="-3.0948922"><ele>846.0</ele><time>2026-04-11T17:51:15.385Z</time></trkpt><trkpt lat="37.8401461" lon="-3.0948063"><ele>847.0</ele><time>2026-04-11T17:51:16.385Z</time></trkpt><trkpt lat="37.8402548" lon="-3.0947121"><ele>848.0</ele><time>2026-04-11T17:51:17.385Z</time></trkpt><trkpt lat="37.8403663" lon="-3.0946016"><ele>844.3333333333334</ele><time>2026-04-11T17:51:18.385Z</time></trkpt><trkpt lat="37.8404723" lon="-3.0944775"><ele>840.6666666666667</ele><time>2026-04-11T17:51:19.385Z</time></trkpt><trkpt lat="37.8405801" lon="-3.0943391"><ele>837.0</ele><time>2026-04-11T17:51:20.385Z</time></trkpt><trkpt lat="37.8406825" lon="-3.0941855"><ele>841.0</ele><time>2026-04-11T17:51:21.385Z</time></trkpt><trkpt lat="37.8407789" lon="-3.09401"><ele>845.0</ele><time>2026-04-11T17:51:22.385Z</time></trkpt><trkpt lat="37.8408705" lon="-3.0938206"><ele>849.0</ele><time>2026-04-11T17:51:23.385Z</time></trkpt><trkpt lat="37.8409591" lon="-3.0936143"><ele>841.3333333333333</ele><time>2026-04-11T17:51:24.384Z</time></trkpt><trkpt lat="37.8410465" lon="-3.0933989"><ele>833.6666666666666</ele><time>2026-04-11T17:51:25.385Z</time></trkpt><trkpt lat="37.8411287" lon="-3.0931796"><ele>826.0</ele><time>2026-04-11T17:51:26.385Z</time></trkpt><trkpt lat="37.8412151" lon="-3.0929548"><ele>826.0</ele><time>2026-04-11T17:51:27.385Z</time></trkpt><trkpt lat="37.8413057" lon="-3.0927251"><ele>826.0</ele><time>2026-04-11T17:51:28.385Z</time></trkpt><trkpt lat="37.8413939" lon="-3.0924949"><ele>826.0</ele><time>2026-04-11T17:51:29.384Z</time></trkpt><trkpt lat="37.8414811" lon="-3.0922698"><ele>827.6666666666666</ele><time>2026-04-11T17:51:30.384Z</time></trkpt><trkpt lat="37.84157" lon="-3.092045"><ele>829.3333333333333</ele><time>2026-04-11T17:51:31.385Z</time></trkpt><trkpt lat="37.8416544" lon="-3.0918213"><ele>831.0</ele><time>2026-04-11T17:51:32.385Z</time></trkpt><trkpt lat="37.8417349" lon="-3.0916034"><ele>821.3333333333333</ele><time>2026-04-11T17:51:33.385Z</time></trkpt><trkpt lat="37.8418102" lon="-3.0913957"><ele>811.6666666666666</ele><time>2026-04-11T17:51:34.385Z</time></trkpt><trkpt lat="37.8418757" lon="-3.0912032"><ele>802.0</ele><time>2026-04-11T17:51:35.385Z</time></trkpt><trkpt lat="37.8419312" lon="-3.0910062"><ele>802.0</ele><time>2026-04-11T17:51:36.385Z</time></trkpt><trkpt lat="37.8419693" lon="-3.0908153"><ele>802.0</ele><time>2026-04-11T17:51:37.385Z</time></trkpt><trkpt lat="37.8419946" lon="-3.0906122"><ele>802.0</ele><time>2026-04-11T17:51:38.385Z</time></trkpt><trkpt lat="37.8419983" lon="-3.090407"><ele>804.0</ele><time>2026-04-11T17:51:39.385Z</time></trkpt><trkpt lat="37.841985" lon="-3.0902044"><ele>806.0</ele><time>2026-04-11T17:51:40.385Z</time></trkpt><trkpt lat="37.8419575" lon="-3.0900048"><ele>808.0</ele><time>2026-04-11T17:51:41.384Z</time></trkpt><trkpt lat="37.8419276" lon="-3.089806"><ele>809.0</ele><time>2026-04-11T17:51:42.385Z</time></trkpt><trkpt lat="37.8418998" lon="-3.0896132"><ele>810.0</ele><time>2026-04-11T17:51:43.385Z</time></trkpt><trkpt lat="37.8418833" lon="-3.0894215"><ele>811.0</ele><time>2026-04-11T17:51:44.385Z</time></trkpt><trkpt lat="37.8418854" lon="-3.0892365"><ele>812.75</ele><time>2026-04-11T17:51:45.385Z</time></trkpt><trkpt lat="37.841906" lon="-3.0890628"><ele>814.5</ele><time>2026-04-11T17:51:46.385Z</time></trkpt><trkpt lat="37.8419454" lon="-3.0888957"><ele>816.25</ele><time>2026-04-11T17:51:47.385Z</time></trkpt><trkpt lat="37.841994" lon="-3.0887327"><ele>818.0</ele><time>2026-04-11T17:51:48.385Z</time></trkpt><trkpt lat="37.842049" lon="-3.0885789"><ele>818.0</ele><time>2026-04-11T17:51:49.384Z</time></trkpt><trkpt lat="37.8421022" lon="-3.0884259"><ele>818.0</ele><time>2026-04-11T17:51:50.385Z</time></trkpt><trkpt lat="37.8421565" lon="-3.0882799"><ele>818.0</ele><time>2026-04-11T17:51:51.384Z</time></trkpt><trkpt lat="37.8422063" lon="-3.0881373"><ele>818.0</ele><time>2026-04-11T17:51:52.385Z</time></trkpt><trkpt lat="37.8422535" lon="-3.088002"><ele>820.8</ele><time>2026-04-11T17:51:53.384Z</time></trkpt><trkpt lat="37.842297" lon="-3.0878725"><ele>823.5999999999999</ele><time>2026-04-11T17:51:54.384Z</time></trkpt><trkpt lat="37.8423416" lon="-3.0877484"><ele>826.4000000000001</ele><time>2026-04-11T17:51:55.385Z</time></trkpt><trkpt lat="37.8423831" lon="-3.0876259"><ele>829.2</ele><time>2026-04-11T17:51:56.384Z</time></trkpt><trkpt lat="37.8424344" lon="-3.0875164"><ele>832.0</ele><time>2026-04-11T17:51:57.384Z</time></trkpt><trkpt lat="37.842493" lon="-3.0874119"><ele>834.0</ele><time>2026-04-11T17:51:58.385Z</time></trkpt><trkpt lat="37.8425591" lon="-3.0873118"><ele>836.0</ele><time>2026-04-11T17:51:59.385Z</time></trkpt><trkpt lat="37.8426244" lon="-3.087214"><ele>838.0</ele><time>2026-04-11T17:52:00.385Z</time></trkpt><trkpt lat="37.8426862" lon="-3.0871139"><ele>840.0</ele><time>2026-04-11T17:52:01.385Z</time></trkpt><trkpt lat="37.8427369" lon="-3.0870073"><ele>842.0</ele><time>2026-04-11T17:52:02.384Z</time></trkpt><trkpt lat="37.8427781" lon="-3.0868964"><ele>835.8</ele><time>2026-04-11T17:52:03.384Z</time></trkpt><trkpt lat="37.8428112" lon="-3.0867792"><ele>829.6</ele><time>2026-04-11T17:52:04.385Z</time></trkpt><trkpt lat="37.8428382" lon="-3.0866542"><ele>823.4</ele><time>2026-04-11T17:52:05.384Z</time></trkpt><trkpt lat="37.8428657" lon="-3.0865223"><ele>817.1999999999999</ele><time>2026-04-11T17:52:06.385Z</time></trkpt><trkpt lat="37.8428969" lon="-3.086385"><ele>811.0</ele><time>2026-04-11T17:52:07.385Z</time></trkpt><trkpt lat="37.8429271" lon="-3.0862463"><ele>811.0</ele><time>2026-04-11T17:52:08.385Z</time></trkpt><trkpt lat="37.8429555" lon="-3.0861017"><ele>811.0</ele><time>2026-04-11T17:52:09.385Z</time></trkpt><trkpt lat="37.8429854" lon="-3.0859621"><ele>811.0</ele><time>2026-04-11T17:52:10.385Z</time></trkpt><trkpt lat="37.8430151" lon="-3.0858198"><ele>811.0</ele><time>2026-04-11T17:52:11.385Z</time></trkpt><trkpt lat="37.8430444" lon="-3.0856738"><ele>811.5</ele><time>2026-04-11T17:52:12.385Z</time></trkpt><trkpt lat="37.8430735" lon="-3.0855304"><ele>812.0</ele><time>2026-04-11T17:52:13.385Z</time></trkpt><trkpt lat="37.8431017" lon="-3.0853927"><ele>812.5</ele><time>2026-04-11T17:52:14.385Z</time></trkpt><trkpt lat="37.8431314" lon="-3.0852568"><ele>813.0</ele><time>2026-04-11T17:52:15.385Z</time></trkpt><trkpt lat="37.8431588" lon="-3.0851203"><ele>813.0</ele><time>2026-04-11T17:52:16.385Z</time></trkpt><trkpt lat="37.8431831" lon="-3.0849824"><ele>813.0</ele><time>2026-04-11T17:52:17.385Z</time></trkpt><trkpt lat="37.8432011" lon="-3.0848388"><ele>813.0</ele><time>2026-04-11T17:52:18.385Z</time></trkpt><trkpt lat="37.8432026" lon="-3.0846845"><ele>813.0</ele><time>2026-04-11T17:52:19.385Z</time></trkpt><trkpt lat="37.8431856" lon="-3.0845147"><ele>809.6666666666667</ele><time>2026-04-11T17:52:20.385Z</time></trkpt><trkpt lat="37.8431518" lon="-3.0843345"><ele>806.3333333333334</ele><time>2026-04-11T17:52:21.385Z</time></trkpt><trkpt lat="37.8431131" lon="-3.0841469"><ele>803.0</ele><time>2026-04-11T17:52:22.385Z</time></trkpt><trkpt lat="37.8430739" lon="-3.083954"><ele>800.0</ele><time>2026-04-11T17:52:23.384Z</time></trkpt><trkpt lat="37.8430325" lon="-3.0837537"><ele>797.0</ele><time>2026-04-11T17:52:24.385Z</time></trkpt><trkpt lat="37.8429912" lon="-3.083549"><ele>794.0</ele><time>2026-04-11T17:52:25.385Z</time></trkpt><trkpt lat="37.8429453" lon="-3.0833395"><ele>790.3333333333334</ele><time>2026-04-11T17:52:26.385Z</time></trkpt><trkpt lat="37.8428998" lon="-3.0831358"><ele>786.6666666666667</ele><time>2026-04-11T17:52:27.385Z</time></trkpt><trkpt lat="37.8428565" lon="-3.0829209"><ele>783.0</ele><time>2026-04-11T17:52:28.385Z</time></trkpt><trkpt lat="37.8428209" lon="-3.0827273"><ele>783.0</ele><time>2026-04-11T17:52:29.385Z</time></trkpt><trkpt lat="37.8427899" lon="-3.0825195"><ele>783.0</ele><time>2026-04-11T17:52:30.385Z</time></trkpt><trkpt lat="37.8427642" lon="-3.0823129"><ele>783.0</ele><time>2026-04-11T17:52:31.385Z</time></trkpt><trkpt lat="37.8427445" lon="-3.0821101"><ele>780.6666666666667</ele><time>2026-04-11T17:52:32.385Z</time></trkpt><trkpt lat="37.8427301" lon="-3.0819157"><ele>778.3333333333334</ele><time>2026-04-11T17:52:33.385Z</time></trkpt><trkpt lat="37.8427189" lon="-3.0817233"><ele>776.0</ele><time>2026-04-11T17:52:34.385Z</time></trkpt><trkpt lat="37.8427125" lon="-3.0815331"><ele>775.6666666666667</ele><time>2026-04-11T17:52:35.385Z</time></trkpt><trkpt lat="37.8427037" lon="-3.0813404"><ele>775.3333333333333</ele><time>2026-04-11T17:52:36.384Z</time></trkpt><trkpt lat="37.8426978" lon="-3.081143"><ele>775.0</ele><time>2026-04-11T17:52:37.384Z</time></trkpt><trkpt lat="37.8426908" lon="-3.0809469"><ele>775.6666666666666</ele><time>2026-04-11T17:52:38.385Z</time></trkpt><trkpt lat="37.842684" lon="-3.0807474"><ele>776.3333333333333</ele><time>2026-04-11T17:52:39.385Z</time></trkpt><trkpt lat="37.8426734" lon="-3.080555"><ele>777.0</ele><time>2026-04-11T17:52:40.385Z</time></trkpt><trkpt lat="37.8426542" lon="-3.0803711"><ele>778.5</ele><time>2026-04-11T17:52:41.385Z</time></trkpt><trkpt lat="37.8426303" lon="-3.0801948"><ele>780.0</ele><time>2026-04-11T17:52:42.385Z</time></trkpt><trkpt lat="37.8426032" lon="-3.0800235"><ele>781.5</ele><time>2026-04-11T17:52:43.385Z</time></trkpt><trkpt lat="37.8425599" lon="-3.079837"><ele>783.0</ele><time>2026-04-11T17:52:44.385Z</time></trkpt><trkpt lat="37.8425114" lon="-3.0796617"><ele>783.0</ele><time>2026-04-11T17:52:45.385Z</time></trkpt><trkpt lat="37.842456" lon="-3.0794832"><ele>783.0</ele><time>2026-04-11T17:52:46.385Z</time></trkpt><trkpt lat="37.8423898" lon="-3.0793038"><ele>783.0</ele><time>2026-04-11T17:52:47.385Z</time></trkpt><trkpt lat="37.8423153" lon="-3.0791347"><ele>778.6666666666667</ele><time>2026-04-11T17:52:48.385Z</time></trkpt><trkpt lat="37.8422307" lon="-3.0789588"><ele>774.3333333333334</ele><time>2026-04-11T17:52:49.385Z</time></trkpt><trkpt lat="37.8421341" lon="-3.0787915"><ele>770.0</ele><time>2026-04-11T17:52:50.385Z</time></trkpt><trkpt lat="37.8420358" lon="-3.0786419"><ele>770.0</ele><time>2026-04-11T17:52:51.384Z</time></trkpt><trkpt lat="37.8419226" lon="-3.0784986"><ele>770.0</ele><time>2026-04-11T17:52:52.384Z</time></trkpt><trkpt lat="37.8418043" lon="-3.0783656"><ele>770.0</ele><time>2026-04-11T17:52:53.384Z</time></trkpt><trkpt lat="37.8416833" lon="-3.078245"><ele>769.0</ele><time>2026-04-11T17:52:54.385Z</time></trkpt><trkpt lat="37.8415622" lon="-3.0781367"><ele>768.0</ele><time>2026-04-11T17:52:55.385Z</time></trkpt><trkpt lat="37.8414461" lon="-3.0780301"><ele>767.0</ele><time>2026-04-11T17:52:56.385Z</time></trkpt><trkpt lat="37.8413387" lon="-3.0779364"><ele>766.0</ele><time>2026-04-11T17:52:57.384Z</time></trkpt><trkpt lat="37.8412377" lon="-3.0778461"><ele>766.0</ele><time>2026-04-11T17:52:58.384Z</time></trkpt><trkpt lat="37.8411427" lon="-3.0777524"><ele>766.0</ele><time>2026-04-11T17:52:59.385Z</time></trkpt><trkpt lat="37.8410526" lon="-3.0776463"><ele>766.0</ele><time>2026-04-11T17:53:00.385Z</time></trkpt><trkpt lat="37.8409677" lon="-3.0775226"><ele>766.0</ele><time>2026-04-11T17:53:01.384Z</time></trkpt><trkpt lat="37.8409" lon="-3.0773846"><ele>766.75</ele><time>2026-04-11T17:53:02.385Z</time></trkpt><trkpt lat="37.8408515" lon="-3.077231"><ele>767.5</ele><time>2026-04-11T17:53:03.385Z</time></trkpt><trkpt lat="37.8408268" lon="-3.0770681"><ele>768.25</ele><time>2026-04-11T17:53:04.385Z</time></trkpt><trkpt lat="37.840822" lon="-3.0768946"><ele>769.0</ele><time>2026-04-11T17:53:05.385Z</time></trkpt><trkpt lat="37.8408435" lon="-3.0767211"><ele>769.5</ele><time>2026-04-11T17:53:06.385Z</time></trkpt><trkpt lat="37.84089" lon="-3.0765526"><ele>770.0</ele><time>2026-04-11T17:53:07.385Z</time></trkpt><trkpt lat="37.8409577" lon="-3.0763891"><ele>770.5</ele><time>2026-04-11T17:53:08.385Z</time></trkpt><trkpt lat="37.8410496" lon="-3.0762404"><ele>771.0</ele><time>2026-04-11T17:53:09.384Z</time></trkpt><trkpt lat="37.8411631" lon="-3.0761115"><ele>767.6666666666666</ele><time>2026-04-11T17:53:10.384Z</time></trkpt><trkpt lat="37.8412945" lon="-3.0760127"><ele>764.3333333333333</ele><time>2026-04-11T17:53:11.385Z</time></trkpt><trkpt lat="37.8414402" lon="-3.0759339"><ele>761.0</ele><time>2026-04-11T17:53:12.385Z</time></trkpt><trkpt lat="37.8415861" lon="-3.0758569"><ele>761.0</ele><time>2026-04-11T17:53:13.385Z</time></trkpt><trkpt lat="37.8417276" lon="-3.0757785"><ele>761.0</ele><time>2026-04-11T17:53:14.385Z</time></trkpt><trkpt lat="37.8418618" lon="-3.075702"><ele>761.0</ele><time>2026-04-11T17:53:15.385Z</time></trkpt><trkpt lat="37.8419857" lon="-3.0756313"><ele>761.0</ele><time>2026-04-11T17:53:16.385Z</time></trkpt><trkpt lat="37.8421008" lon="-3.0755639"><ele>758.5</ele><time>2026-04-11T17:53:17.385Z</time></trkpt><trkpt lat="37.8422179" lon="-3.0754996"><ele>756.0</ele><time>2026-04-11T17:53:18.385Z</time></trkpt><trkpt lat="37.8423298" lon="-3.0754341"><ele>753.5</ele><time>2026-04-11T17:53:19.385Z</time></trkpt><trkpt lat="37.8424358" lon="-3.0753727"><ele>751.0</ele><time>2026-04-11T17:53:20.385Z</time></trkpt><trkpt lat="37.8425311" lon="-3.0753179"><ele>751.0</ele><time>2026-04-11T17:53:21.385Z</time></trkpt><trkpt lat="37.8426178" lon="-3.0752718"><ele>751.0</ele><time>2026-04-11T17:53:22.385Z</time></trkpt><trkpt lat="37.8426941" lon="-3.0752278"><ele>751.0</ele><time>2026-04-11T17:53:23.384Z</time></trkpt><trkpt lat="37.842764" lon="-3.0751828"><ele>751.0</ele><time>2026-04-11T17:53:24.385Z</time></trkpt><trkpt lat="37.8428281" lon="-3.0751384"><ele>751.0</ele><time>2026-04-11T17:53:25.385Z</time></trkpt><trkpt lat="37.8428816" lon="-3.0750837"><ele>751.0</ele><time>2026-04-11T17:53:26.385Z</time></trkpt><trkpt lat="37.8429275" lon="-3.0750214"><ele>750.0</ele><time>2026-04-11T17:53:27.385Z</time></trkpt><trkpt lat="37.843017" lon="-3.0749454"><ele>749.0</ele><time>2026-04-11T17:53:29.385Z</time></trkpt><trkpt lat="37.8431256" lon="-3.0750049"><ele>748.0</ele><time>2026-04-11T17:53:31.385Z</time></trkpt><trkpt lat="37.8431761" lon="-3.0750609"><ele>747.0</ele><time>2026-04-11T17:53:32.385Z</time></trkpt><trkpt lat="37.8432347" lon="-3.075101"><ele>746.0</ele><time>2026-04-11T17:53:33.384Z</time></trkpt><trkpt lat="37.8433016" lon="-3.0751292"><ele>745.0</ele><time>2026-04-11T17:53:34.385Z</time></trkpt><trkpt lat="37.843359" lon="-3.0751891"><ele>745.0</ele><time>2026-04-11T17:53:35.385Z</time></trkpt><trkpt lat="37.8433914" lon="-3.0752738"><ele>745.0</ele><time>2026-04-11T17:53:36.385Z</time></trkpt><trkpt lat="37.8433921" lon="-3.0753757"><ele>745.0</ele><time>2026-04-11T17:53:37.384Z</time></trkpt><trkpt lat="37.8433655" lon="-3.0754764"><ele>745.0</ele><time>2026-04-11T17:53:38.385Z</time></trkpt><trkpt lat="37.8433226" lon="-3.0755726"><ele>745.0</ele><time>2026-04-11T17:53:39.385Z</time></trkpt><trkpt lat="37.8432786" lon="-3.0756682"><ele>745.0</ele><time>2026-04-11T17:53:40.384Z</time></trkpt><trkpt lat="37.8432414" lon="-3.0757604"><ele>744.0</ele><time>2026-04-11T17:53:41.385Z</time></trkpt><trkpt lat="37.8432239" lon="-3.0758638"><ele>743.0</ele><time>2026-04-11T17:53:42.385Z</time></trkpt><trkpt lat="37.843237" lon="-3.075971"><ele>742.0</ele><time>2026-04-11T17:53:43.385Z</time></trkpt><trkpt lat="37.84328" lon="-3.0760682"><ele>741.0</ele><time>2026-04-11T17:53:44.385Z</time></trkpt><trkpt lat="37.843355" lon="-3.0761383"><ele>740.0</ele><time>2026-04-11T17:53:45.385Z</time></trkpt><trkpt lat="37.8434433" lon="-3.0761868"><ele>739.0</ele><time>2026-04-11T17:53:46.385Z</time></trkpt><trkpt lat="37.8435386" lon="-3.0762285"><ele>735.8000000000001</ele><time>2026-04-11T17:53:47.385Z</time></trkpt><trkpt lat="37.8436365" lon="-3.0762644"><ele>732.6</ele><time>2026-04-11T17:53:48.385Z</time></trkpt><trkpt lat="37.8437383" lon="-3.076294"><ele>729.4</ele><time>2026-04-11T17:53:49.385Z</time></trkpt><trkpt lat="37.8438397" lon="-3.0763176"><ele>726.2</ele><time>2026-04-11T17:53:50.385Z</time></trkpt><trkpt lat="37.8439424" lon="-3.0763419"><ele>723.0</ele><time>2026-04-11T17:53:51.384Z</time></trkpt><trkpt lat="37.8440458" lon="-3.0763596"><ele>723.0</ele><time>2026-04-11T17:53:52.385Z</time></trkpt><trkpt lat="37.8441514" lon="-3.0763697"><ele>723.0</ele><time>2026-04-11T17:53:53.385Z</time></trkpt><trkpt lat="37.8442593" lon="-3.0763721"><ele>723.0</ele><time>2026-04-11T17:53:54.385Z</time></trkpt><trkpt lat="37.8443774" lon="-3.0763698"><ele>723.0</ele><time>2026-04-11T17:53:55.385Z</time></trkpt><trkpt lat="37.844507" lon="-3.0763645"><ele>721.0</ele><time>2026-04-11T17:53:56.384Z</time></trkpt><trkpt lat="37.8446393" lon="-3.0763463"><ele>719.0</ele><time>2026-04-11T17:53:57.385Z</time></trkpt><trkpt lat="37.844783" lon="-3.076317"><ele>717.0</ele><time>2026-04-11T17:53:58.385Z</time></trkpt><trkpt lat="37.8449316" lon="-3.0762832"><ele>715.0</ele><time>2026-04-11T17:53:59.385Z</time></trkpt><trkpt lat="37.8450821" lon="-3.0762403"><ele>714.0</ele><time>2026-04-11T17:54:00.385Z</time></trkpt><trkpt lat="37.8452302" lon="-3.0761982"><ele>713.0</ele><time>2026-04-11T17:54:01.385Z</time></trkpt><trkpt lat="37.8453722" lon="-3.076161"><ele>712.0</ele><time>2026-04-11T17:54:02.384Z</time></trkpt><trkpt lat="37.8454947" lon="-3.0761221"><ele>711.0</ele><time>2026-04-11T17:54:03.385Z</time></trkpt><trkpt lat="37.8456175" lon="-3.0760816"><ele>711.0</ele><time>2026-04-11T17:54:04.385Z</time></trkpt><trkpt lat="37.8457312" lon="-3.0760615"><ele>711.0</ele><time>2026-04-11T17:54:05.385Z</time></trkpt><trkpt lat="37.8458431" lon="-3.0760721"><ele>711.0</ele><time>2026-04-11T17:54:06.385Z</time></trkpt><trkpt lat="37.8459534" lon="-3.0761194"><ele>711.0</ele><time>2026-04-11T17:54:07.384Z</time></trkpt><trkpt lat="37.8460641" lon="-3.0761918"><ele>709.1666666666666</ele><time>2026-04-11T17:54:08.385Z</time></trkpt><trkpt lat="37.8461703" lon="-3.0762639"><ele>707.3333333333334</ele><time>2026-04-11T17:54:09.385Z</time></trkpt><trkpt lat="37.8462563" lon="-3.0763144"><ele>705.5</ele><time>2026-04-11T17:54:10.385Z</time></trkpt><trkpt lat="37.8463283" lon="-3.0763335"><ele>703.6666666666667</ele><time>2026-04-11T17:54:11.385Z</time></trkpt><trkpt lat="37.8464074" lon="-3.0763217"><ele>701.8333333333334</ele><time>2026-04-11T17:54:12.385Z</time></trkpt><trkpt lat="37.8464695" lon="-3.0762729"><ele>700.0</ele><time>2026-04-11T17:54:13.385Z</time></trkpt><trkpt lat="37.8465185" lon="-3.0761923"><ele>700.0</ele><time>2026-04-11T17:54:14.385Z</time></trkpt><trkpt lat="37.8465478" lon="-3.0760848"><ele>700.0</ele><time>2026-04-11T17:54:15.385Z</time></trkpt><trkpt lat="37.8465689" lon="-3.0759689"><ele>700.0</ele><time>2026-04-11T17:54:16.385Z</time></trkpt><trkpt lat="37.846594" lon="-3.0758601"><ele>700.0</ele><time>2026-04-11T17:54:17.385Z</time></trkpt><trkpt lat="37.846637" lon="-3.0757701"><ele>700.0</ele><time>2026-04-11T17:54:18.385Z</time></trkpt><trkpt lat="37.8466931" lon="-3.0757035"><ele>700.0</ele><time>2026-04-11T17:54:19.385Z</time></trkpt><trkpt lat="37.8467572" lon="-3.0756648"><ele>695.6666666666667</ele><time>2026-04-11T17:54:20.385Z</time></trkpt><trkpt lat="37.8468298" lon="-3.0756613"><ele>691.3333333333334</ele><time>2026-04-11T17:54:21.385Z</time></trkpt><trkpt lat="37.8469057" lon="-3.0756855"><ele>687.0</ele><time>2026-04-11T17:54:22.385Z</time></trkpt><trkpt lat="37.8469811" lon="-3.075743"><ele>682.6666666666666</ele><time>2026-04-11T17:54:23.384Z</time></trkpt><trkpt lat="37.847035" lon="-3.0758386"><ele>678.3333333333333</ele><time>2026-04-11T17:54:24.385Z</time></trkpt><trkpt lat="37.8470738" lon="-3.0759552"><ele>674.0</ele><time>2026-04-11T17:54:25.385Z</time></trkpt><trkpt lat="37.8471029" lon="-3.0760815"><ele>674.0</ele><time>2026-04-11T17:54:26.385Z</time></trkpt><trkpt lat="37.8471238" lon="-3.076207"><ele>674.0</ele><time>2026-04-11T17:54:27.385Z</time></trkpt><trkpt lat="37.8471476" lon="-3.0763445"><ele>674.0</ele><time>2026-04-11T17:54:28.385Z</time></trkpt><trkpt lat="37.8471779" lon="-3.0764407"><ele>674.0</ele><time>2026-04-11T17:54:29.385Z</time></trkpt><trkpt lat="37.8472238" lon="-3.0765184"><ele>674.0</ele><time>2026-04-11T17:54:30.384Z</time></trkpt><trkpt lat="37.8472839" lon="-3.0765786"><ele>674.0</ele><time>2026-04-11T17:54:31.385Z</time></trkpt><trkpt lat="37.8473665" lon="-3.0766059"><ele>674.0</ele><time>2026-04-11T17:54:32.384Z</time></trkpt><trkpt lat="37.8474608" lon="-3.0765874"><ele>674.0</ele><time>2026-04-11T17:54:33.385Z</time></trkpt><trkpt lat="37.8475435" lon="-3.0765229"><ele>674.0</ele><time>2026-04-11T17:54:34.385Z</time></trkpt><trkpt lat="37.8476088" lon="-3.0764249"><ele>674.0</ele><time>2026-04-11T17:54:35.385Z</time></trkpt><trkpt lat="37.847657" lon="-3.0762979"><ele>674.0</ele><time>2026-04-11T17:54:36.384Z</time></trkpt><trkpt lat="37.8476849" lon="-3.076153"><ele>669.6</ele><time>2026-04-11T17:54:37.385Z</time></trkpt><trkpt lat="37.8476971" lon="-3.0759992"><ele>665.2</ele><time>2026-04-11T17:54:38.385Z</time></trkpt><trkpt lat="37.8476805" lon="-3.0758643"><ele>660.8000000000001</ele><time>2026-04-11T17:54:39.385Z</time></trkpt><trkpt lat="37.8476562" lon="-3.0757399"><ele>656.4000000000001</ele><time>2026-04-11T17:54:40.385Z</time></trkpt><trkpt lat="37.8476389" lon="-3.0756229"><ele>652.0</ele><time>2026-04-11T17:54:41.385Z</time></trkpt><trkpt lat="37.8476563" lon="-3.0754985"><ele>648.4</ele><time>2026-04-11T17:54:42.385Z</time></trkpt><trkpt lat="37.8476828" lon="-3.075376"><ele>644.8000000000001</ele><time>2026-04-11T17:54:43.385Z</time></trkpt><trkpt lat="37.8477079" lon="-3.0752452"><ele>641.2</ele><time>2026-04-11T17:54:44.385Z</time></trkpt><trkpt lat="37.8477199" lon="-3.075109"><ele>637.6</ele><time>2026-04-11T17:54:45.384Z</time></trkpt><trkpt lat="37.8477126" lon="-3.0749657"><ele>634.0</ele><time>2026-04-11T17:54:46.385Z</time></trkpt><trkpt lat="37.8477026" lon="-3.0748201"><ele>632.5</ele><time>2026-04-11T17:54:47.385Z</time></trkpt><trkpt lat="37.8476939" lon="-3.0746728"><ele>631.0</ele><time>2026-04-11T17:54:48.385Z</time></trkpt><trkpt lat="37.8476805" lon="-3.0745264"><ele>629.5</ele><time>2026-04-11T17:54:49.385Z</time></trkpt><trkpt lat="37.8476623" lon="-3.0743815"><ele>628.0</ele><time>2026-04-11T17:54:50.385Z</time></trkpt><trkpt lat="37.8476406" lon="-3.0742402"><ele>632.4</ele><time>2026-04-11T17:54:51.385Z</time></trkpt><trkpt lat="37.8476132" lon="-3.0741058"><ele>636.8</ele><time>2026-04-11T17:54:52.385Z</time></trkpt><trkpt lat="37.8475773" lon="-3.0739807"><ele>641.2</ele><time>2026-04-11T17:54:53.385Z</time></trkpt><trkpt lat="37.8475325" lon="-3.0738524"><ele>645.6</ele><time>2026-04-11T17:54:54.384Z</time></trkpt><trkpt lat="37.8474831" lon="-3.0737269"><ele>650.0</ele><time>2026-04-11T17:54:55.384Z</time></trkpt><trkpt lat="37.8474293" lon="-3.0736129"><ele>650.0</ele><time>2026-04-11T17:54:56.384Z</time></trkpt><trkpt lat="37.8473777" lon="-3.0735209"><ele>650.0</ele><time>2026-04-11T17:54:57.385Z</time></trkpt><trkpt lat="37.847344" lon="-3.0734355"><ele>650.0</ele><time>2026-04-11T17:54:58.385Z</time></trkpt><trkpt lat="37.8473264" lon="-3.0733433"><ele>650.0</ele><time>2026-04-11T17:54:59.385Z</time></trkpt><trkpt lat="37.8473105" lon="-3.0732479"><ele>650.0</ele><time>2026-04-11T17:55:00.385Z</time></trkpt><trkpt lat="37.8472852" lon="-3.0731575"><ele>650.0</ele><time>2026-04-11T17:55:01.385Z</time></trkpt><trkpt lat="37.8472381" lon="-3.0730836"><ele>646.4</ele><time>2026-04-11T17:55:02.385Z</time></trkpt><trkpt lat="37.8471667" lon="-3.0730285"><ele>642.8</ele><time>2026-04-11T17:55:03.384Z</time></trkpt><trkpt lat="37.8470873" lon="-3.0729826"><ele>639.2</ele><time>2026-04-11T17:55:04.384Z</time></trkpt><trkpt lat="37.8469986" lon="-3.0729523"><ele>635.6</ele><time>2026-04-11T17:55:05.384Z</time></trkpt><trkpt lat="37.8469045" lon="-3.0729394"><ele>632.0</ele><time>2026-04-11T17:55:06.385Z</time></trkpt><trkpt lat="37.8468068" lon="-3.0729549"><ele>634.4000000000001</ele><time>2026-04-11T17:55:07.385Z</time></trkpt><trkpt lat="37.8467111" lon="-3.0729957"><ele>636.8000000000001</ele><time>2026-04-11T17:55:08.385Z</time></trkpt><trkpt lat="37.8466166" lon="-3.0730415"><ele>639.2</ele><time>2026-04-11T17:55:09.385Z</time></trkpt><trkpt lat="37.8465183" lon="-3.0730916"><ele>641.6</ele><time>2026-04-11T17:55:10.385Z</time></trkpt><trkpt lat="37.8464214" lon="-3.0731366"><ele>644.0</ele><time>2026-04-11T17:55:11.385Z</time></trkpt><trkpt lat="37.8463314" lon="-3.0731776"><ele>644.0</ele><time>2026-04-11T17:55:12.385Z</time></trkpt><trkpt lat="37.8462499" lon="-3.073205"><ele>644.0</ele><time>2026-04-11T17:55:13.385Z</time></trkpt><trkpt lat="37.8461749" lon="-3.0732181"><ele>644.0</ele><time>2026-04-11T17:55:14.384Z</time></trkpt><trkpt lat="37.8460686" lon="-3.0731877"><ele>644.0</ele><time>2026-04-11T17:55:16.385Z</time></trkpt><trkpt lat="37.8459807" lon="-3.0731558"><ele>644.0</ele><time>2026-04-11T17:55:18.385Z</time></trkpt><trkpt lat="37.845875" lon="-3.0731221"><ele>646.2</ele><time>2026-04-11T17:55:20.385Z</time></trkpt><trkpt lat="37.8457824" lon="-3.0730245"><ele>648.4000000000001</ele><time>2026-04-11T17:55:22.385Z</time></trkpt><trkpt lat="37.8457705" lon="-3.0728756"><ele>650.6</ele><time>2026-04-11T17:55:24.385Z</time></trkpt><trkpt lat="37.8457846" lon="-3.0727941"><ele>652.8</ele><time>2026-04-11T17:55:25.385Z</time></trkpt><trkpt lat="37.845804" lon="-3.0727038"><ele>655.0</ele><time>2026-04-11T17:55:26.385Z</time></trkpt><trkpt lat="37.8458255" lon="-3.0726171"><ele>655.0</ele><time>2026-04-11T17:55:27.385Z</time></trkpt><trkpt lat="37.8458549" lon="-3.0725205"><ele>655.0</ele><time>2026-04-11T17:55:28.385Z</time></trkpt><trkpt lat="37.8459011" lon="-3.0724274"><ele>655.0</ele><time>2026-04-11T17:55:29.385Z</time></trkpt><trkpt lat="37.8459555" lon="-3.0723377"><ele>655.0</ele><time>2026-04-11T17:55:30.384Z</time></trkpt><trkpt lat="37.8460087" lon="-3.0722457"><ele>655.0</ele><time>2026-04-11T17:55:31.385Z</time></trkpt><trkpt lat="37.8460511" lon="-3.0721515"><ele>655.0</ele><time>2026-04-11T17:55:32.385Z</time></trkpt><trkpt lat="37.8460812" lon="-3.0720539"><ele>655.6666666666667</ele><time>2026-04-11T17:55:33.385Z</time></trkpt><trkpt lat="37.8460922" lon="-3.0719616"><ele>656.3333333333334</ele><time>2026-04-11T17:55:34.385Z</time></trkpt><trkpt lat="37.8460847" lon="-3.0718765"><ele>657.0</ele><time>2026-04-11T17:55:35.385Z</time></trkpt><trkpt lat="37.8460085" lon="-3.0717668"><ele>657.6666666666666</ele><time>2026-04-11T17:55:37.385Z</time></trkpt><trkpt lat="37.8459593" lon="-3.0717147"><ele>658.3333333333333</ele><time>2026-04-11T17:55:38.385Z</time></trkpt><trkpt lat="37.8458774" lon="-3.0716054"><ele>659.0</ele><time>2026-04-11T17:55:40.385Z</time></trkpt><trkpt lat="37.8458194" lon="-3.0715122"><ele>660.5</ele><time>2026-04-11T17:55:42.385Z</time></trkpt><trkpt lat="37.8457697" lon="-3.0714425"><ele>662.0</ele><time>2026-04-11T17:55:44.384Z</time></trkpt><trkpt lat="37.8457246" lon="-3.0713614"><ele>663.5</ele><time>2026-04-11T17:55:47.385Z</time></trkpt><trkpt lat="37.8456741" lon="-3.0712722"><ele>665.0</ele><time>2026-04-11T17:55:52.385Z</time></trkpt><trkpt lat="37.8456575" lon="-3.0711835"><ele>666.5</ele><time>2026-04-11T17:55:55.385Z</time></trkpt><trkpt lat="37.845754" lon="-3.0711563"><ele>668.0</ele><time>2026-04-11T17:56:45.388Z</time></trkpt><trkpt lat="37.8457527" lon="-3.0710595"><ele>668.0</ele><time>2026-04-11T17:56:58.385Z</time></trkpt><trkpt lat="37.8458185" lon="-3.0711033"><ele>668.0</ele><time>2026-04-11T17:58:11.384Z</time></trkpt><trkpt lat="37.8458897" lon="-3.0710862"><ele>668.0</ele><time>2026-04-11T17:58:31.588Z</time></trkpt><trkpt lat="37.8459534" lon="-3.0710736"><ele>668.0</ele><time>2026-04-11T17:58:45.693Z</time></trkpt><trkpt lat="37.846029" lon="-3.0710031"><ele>668.0</ele><time>2026-04-11T17:58:48.413Z</time></trkpt><trkpt lat="37.846092" lon="-3.0709319"><ele>668.0</ele><time>2026-04-11T17:58:51.384Z</time></trkpt><trkpt lat="37.8461511" lon="-3.0709042"><ele>665.8333333333333</ele><time>2026-04-11T17:58:55.38Z</time></trkpt><trkpt lat="37.846201" lon="-3.0709616"><ele>663.6666666666666</ele><time>2026-04-11T17:58:58.38Z</time></trkpt><trkpt lat="37.8461969" lon="-3.0710457"><ele>661.5</ele><time>2026-04-11T17:59:00.38Z</time></trkpt><trkpt lat="37.8461777" lon="-3.0711689"><ele>659.3333333333334</ele><time>2026-04-11T17:59:02.99Z</time></trkpt><trkpt lat="37.8461559" lon="-3.0713372"><ele>657.1666666666667</ele><time>2026-04-11T17:59:04.425Z</time></trkpt><trkpt lat="37.8461466" lon="-3.0714269"><ele>655.0</ele><time>2026-04-11T17:59:05.394Z</time></trkpt><trkpt lat="37.8461377" lon="-3.0715237"><ele>653.1666666666667</ele><time>2026-04-11T17:59:06.423Z</time></trkpt><trkpt lat="37.8461317" lon="-3.0716255"><ele>651.3333333333334</ele><time>2026-04-11T17:59:07.392Z</time></trkpt><trkpt lat="37.8461316" lon="-3.0717237"><ele>649.5</ele><time>2026-04-11T17:59:08.385Z</time></trkpt><trkpt lat="37.846131" lon="-3.071819"><ele>647.6666666666666</ele><time>2026-04-11T17:59:09.386Z</time></trkpt><trkpt lat="37.8461296" lon="-3.0719068"><ele>645.8333333333333</ele><time>2026-04-11T17:59:10.386Z</time></trkpt><trkpt lat="37.8461251" lon="-3.0720037"><ele>644.0</ele><time>2026-04-11T17:59:11.386Z</time></trkpt><trkpt lat="37.8461037" lon="-3.0720992"><ele>644.0</ele><time>2026-04-11T17:59:12.386Z</time></trkpt><trkpt lat="37.8460824" lon="-3.0721934"><ele>644.0</ele><time>2026-04-11T17:59:13.386Z</time></trkpt><trkpt lat="37.8460521" lon="-3.0723027"><ele>644.0</ele><time>2026-04-11T17:59:14.385Z</time></trkpt><trkpt lat="37.8459819" lon="-3.0723661"><ele>644.0</ele><time>2026-04-11T17:59:15.386Z</time></trkpt><trkpt lat="37.8459428" lon="-3.0724447"><ele>644.0</ele><time>2026-04-11T17:59:16.386Z</time></trkpt><trkpt lat="37.845921" lon="-3.0725211"><ele>644.0</ele><time>2026-04-11T17:59:17.386Z</time></trkpt><trkpt lat="37.8459381" lon="-3.0726479"><ele>644.0</ele><time>2026-04-11T17:59:19.386Z</time></trkpt><trkpt lat="37.8460174" lon="-3.0727304"><ele>644.0</ele><time>2026-04-11T17:59:22.386Z</time></trkpt><trkpt lat="37.8461216" lon="-3.0727891"><ele>644.0</ele><time>2026-04-11T17:59:24.386Z</time></trkpt><trkpt lat="37.8461892" lon="-3.0728093"><ele>644.0</ele><time>2026-04-11T17:59:25.386Z</time></trkpt><trkpt lat="37.8462678" lon="-3.0728128"><ele>644.0</ele><time>2026-04-11T17:59:26.386Z</time></trkpt><trkpt lat="37.8463506" lon="-3.0727943"><ele>644.0</ele><time>2026-04-11T17:59:27.386Z</time></trkpt><trkpt lat="37.8464428" lon="-3.0727554"><ele>644.0</ele><time>2026-04-11T17:59:28.386Z</time></trkpt><trkpt lat="37.8465381" lon="-3.0726983"><ele>644.0</ele><time>2026-04-11T17:59:29.386Z</time></trkpt><trkpt lat="37.8466416" lon="-3.0726405"><ele>644.0</ele><time>2026-04-11T17:59:30.386Z</time></trkpt><trkpt lat="37.8467543" lon="-3.0725879"><ele>644.0</ele><time>2026-04-11T17:59:31.385Z</time></trkpt><trkpt lat="37.8468723" lon="-3.0725466"><ele>641.0</ele><time>2026-04-11T17:59:32.386Z</time></trkpt><trkpt lat="37.8469891" lon="-3.0725077"><ele>638.0</ele><time>2026-04-11T17:59:33.386Z</time></trkpt><trkpt lat="37.8471223" lon="-3.0725083"><ele>635.0</ele><time>2026-04-11T17:59:34.385Z</time></trkpt><trkpt lat="37.8472518" lon="-3.0725206"><ele>632.0</ele><time>2026-04-11T17:59:35.385Z</time></trkpt><trkpt lat="37.8473838" lon="-3.0725513"><ele>632.0</ele><time>2026-04-11T17:59:36.386Z</time></trkpt><trkpt lat="37.8475175" lon="-3.072591"><ele>632.0</ele><time>2026-04-11T17:59:37.386Z</time></trkpt><trkpt lat="37.8476406" lon="-3.0726727"><ele>632.0</ele><time>2026-04-11T17:59:38.386Z</time></trkpt><trkpt lat="37.8477597" lon="-3.0727628"><ele>632.0</ele><time>2026-04-11T17:59:39.386Z</time></trkpt><trkpt lat="37.8478717" lon="-3.0728749"><ele>629.5</ele><time>2026-04-11T17:59:40.386Z</time></trkpt><trkpt lat="37.8479707" lon="-3.0730053"><ele>627.0</ele><time>2026-04-11T17:59:41.386Z</time></trkpt><trkpt lat="37.8480619" lon="-3.0731431"><ele>624.5</ele><time>2026-04-11T17:59:42.386Z</time></trkpt><trkpt lat="37.8481353" lon="-3.0733145"><ele>622.0</ele><time>2026-04-11T17:59:43.386Z</time></trkpt><trkpt lat="37.8482019" lon="-3.0734912"><ele>622.0</ele><time>2026-04-11T17:59:44.386Z</time></trkpt><trkpt lat="37.8482689" lon="-3.0736744"><ele>622.0</ele><time>2026-04-11T17:59:45.385Z</time></trkpt><trkpt lat="37.8483509" lon="-3.073851"><ele>622.0</ele><time>2026-04-11T17:59:46.386Z</time></trkpt><trkpt lat="37.8484465" lon="-3.0740016"><ele>620.25</ele><time>2026-04-11T17:59:47.386Z</time></trkpt><trkpt lat="37.8485646" lon="-3.0741233"><ele>618.5</ele><time>2026-04-11T17:59:48.386Z</time></trkpt><trkpt lat="37.8486941" lon="-3.0742016"><ele>616.75</ele><time>2026-04-11T17:59:49.386Z</time></trkpt><trkpt lat="37.8488348" lon="-3.0742366"><ele>615.0</ele><time>2026-04-11T17:59:50.386Z</time></trkpt><trkpt lat="37.8489841" lon="-3.0742392"><ele>615.0</ele><time>2026-04-11T17:59:51.385Z</time></trkpt><trkpt lat="37.8491321" lon="-3.0742227"><ele>615.0</ele><time>2026-04-11T17:59:52.386Z</time></trkpt><trkpt lat="37.8492651" lon="-3.0742136"><ele>615.0</ele><time>2026-04-11T17:59:53.386Z</time></trkpt><trkpt lat="37.8493996" lon="-3.0742402"><ele>615.0</ele><time>2026-04-11T17:59:54.386Z</time></trkpt><trkpt lat="37.8495305" lon="-3.0742982"><ele>610.0</ele><time>2026-04-11T17:59:55.386Z</time></trkpt><trkpt lat="37.8496529" lon="-3.0743895"><ele>605.0</ele><time>2026-04-11T17:59:56.386Z</time></trkpt><trkpt lat="37.8497638" lon="-3.0745229"><ele>600.0</ele><time>2026-04-11T17:59:57.386Z</time></trkpt><trkpt lat="37.8498731" lon="-3.0746724"><ele>600.0</ele><time>2026-04-11T17:59:58.386Z</time></trkpt><trkpt lat="37.8499775" lon="-3.074829"><ele>600.0</ele><time>2026-04-11T17:59:59.386Z</time></trkpt><trkpt lat="37.8500933" lon="-3.0749821"><ele>600.0</ele><time>2026-04-11T18:00:00.386Z</time></trkpt><trkpt lat="37.8502169" lon="-3.0751223"><ele>600.3333333333334</ele><time>2026-04-11T18:00:01.386Z</time></trkpt><trkpt lat="37.8503545" lon="-3.0752428"><ele>600.6666666666667</ele><time>2026-04-11T18:00:02.386Z</time></trkpt><trkpt lat="37.8505025" lon="-3.0753283"><ele>601.0</ele><time>2026-04-11T18:00:03.385Z</time></trkpt><trkpt lat="37.8507367" lon="-3.0753892"><ele>597.3333333333334</ele><time>2026-04-11T18:00:05.335Z</time></trkpt><trkpt lat="37.851006" lon="-3.0754056"><ele>593.6666666666666</ele><time>2026-04-11T18:00:06.388Z</time></trkpt><trkpt lat="37.8511749" lon="-3.0754118"><ele>590.0</ele><time>2026-04-11T18:00:07.403Z</time></trkpt><trkpt lat="37.8513497" lon="-3.0754278"><ele>590.0</ele><time>2026-04-11T18:00:08.392Z</time></trkpt><trkpt lat="37.8515167" lon="-3.0754602"><ele>590.0</ele><time>2026-04-11T18:00:09.4Z</time></trkpt><trkpt lat="37.8516758" lon="-3.0755334"><ele>590.0</ele><time>2026-04-11T18:00:10.39Z</time></trkpt><trkpt lat="37.851815" lon="-3.0756532"><ele>589.0</ele><time>2026-04-11T18:00:11.39Z</time></trkpt><trkpt lat="37.8519463" lon="-3.0758077"><ele>588.0</ele><time>2026-04-11T18:00:12.39Z</time></trkpt><trkpt lat="37.8520809" lon="-3.0759725"><ele>587.0</ele><time>2026-04-11T18:00:13.39Z</time></trkpt><trkpt lat="37.85222" lon="-3.0761376"><ele>587.0</ele><time>2026-04-11T18:00:14.39Z</time></trkpt><trkpt lat="37.8523614" lon="-3.0762997"><ele>587.0</ele><time>2026-04-11T18:00:15.39Z</time></trkpt><trkpt lat="37.8524991" lon="-3.0764625"><ele>587.0</ele><time>2026-04-11T18:00:16.39Z</time></trkpt><trkpt lat="37.8526269" lon="-3.0766078"><ele>584.5</ele><time>2026-04-11T18:00:17.39Z</time></trkpt><trkpt lat="37.8527407" lon="-3.0767435"><ele>582.0</ele><time>2026-04-11T18:00:18.39Z</time></trkpt><trkpt lat="37.8528426" lon="-3.0768701"><ele>579.5</ele><time>2026-04-11T18:00:19.39Z</time></trkpt><trkpt lat="37.8529319" lon="-3.0770081"><ele>577.0</ele><time>2026-04-11T18:00:20.39Z</time></trkpt><trkpt lat="37.8530035" lon="-3.0771707"><ele>577.0</ele><time>2026-04-11T18:00:21.39Z</time></trkpt><trkpt lat="37.8530453" lon="-3.0773462"><ele>577.0</ele><time>2026-04-11T18:00:22.39Z</time></trkpt><trkpt lat="37.8530665" lon="-3.0775342"><ele>577.0</ele><time>2026-04-11T18:00:23.39Z</time></trkpt><trkpt lat="37.8530858" lon="-3.0777305"><ele>577.75</ele><time>2026-04-11T18:00:24.39Z</time></trkpt><trkpt lat="37.8531061" lon="-3.0779312"><ele>578.5</ele><time>2026-04-11T18:00:25.39Z</time></trkpt><trkpt lat="37.8531223" lon="-3.0781217"><ele>579.25</ele><time>2026-04-11T18:00:26.39Z</time></trkpt><trkpt lat="37.8531443" lon="-3.078294"><ele>580.0</ele><time>2026-04-11T18:00:27.389Z</time></trkpt><trkpt lat="37.8531626" lon="-3.0784398"><ele>580.0</ele><time>2026-04-11T18:00:28.39Z</time></trkpt><trkpt lat="37.8531783" lon="-3.0785637"><ele>580.0</ele><time>2026-04-11T18:00:29.39Z</time></trkpt><trkpt lat="37.8531959" lon="-3.0786786"><ele>580.0</ele><time>2026-04-11T18:00:30.39Z</time></trkpt><trkpt lat="37.8532284" lon="-3.0787804"><ele>580.0</ele><time>2026-04-11T18:00:31.39Z</time></trkpt><trkpt lat="37.8532853" lon="-3.0788749"><ele>580.0</ele><time>2026-04-11T18:00:32.389Z</time></trkpt><trkpt lat="37.8533492" lon="-3.0789629"><ele>580.0</ele><time>2026-04-11T18:00:33.389Z</time></trkpt><trkpt lat="37.8533948" lon="-3.0790613"><ele>580.0</ele><time>2026-04-11T18:00:34.39Z</time></trkpt><trkpt lat="37.8534187" lon="-3.0791811"><ele>580.0</ele><time>2026-04-11T18:00:35.389Z</time></trkpt><trkpt lat="37.8534401" lon="-3.0792991"><ele>580.0</ele><time>2026-04-11T18:00:36.39Z</time></trkpt><trkpt lat="37.8534775" lon="-3.0794169"><ele>580.0</ele><time>2026-04-11T18:00:37.389Z</time></trkpt><trkpt lat="37.8535501" lon="-3.0795248"><ele>576.75</ele><time>2026-04-11T18:00:38.39Z</time></trkpt><trkpt lat="37.8536395" lon="-3.079614"><ele>573.5</ele><time>2026-04-11T18:00:39.39Z</time></trkpt><trkpt lat="37.8537559" lon="-3.0796901"><ele>570.25</ele><time>2026-04-11T18:00:40.39Z</time></trkpt><trkpt lat="37.8538784" lon="-3.0797488"><ele>567.0</ele><time>2026-04-11T18:00:41.389Z</time></trkpt><trkpt lat="37.8540137" lon="-3.0797998"><ele>567.0</ele><time>2026-04-11T18:00:42.39Z</time></trkpt><trkpt lat="37.8541584" lon="-3.0798462"><ele>567.0</ele><time>2026-04-11T18:00:43.389Z</time></trkpt><trkpt lat="37.8543107" lon="-3.0798891"><ele>567.0</ele><time>2026-04-11T18:00:44.39Z</time></trkpt><trkpt lat="37.854468" lon="-3.0799377"><ele>567.6666666666666</ele><time>2026-04-11T18:00:45.39Z</time></trkpt><trkpt lat="37.8546267" lon="-3.0799995"><ele>568.3333333333333</ele><time>2026-04-11T18:00:46.39Z</time></trkpt><trkpt lat="37.8547848" lon="-3.0800737"><ele>569.0</ele><time>2026-04-11T18:00:47.39Z</time></trkpt><trkpt lat="37.8549375" lon="-3.0801713"><ele>569.0</ele><time>2026-04-11T18:00:48.39Z</time></trkpt><trkpt lat="37.8550819" lon="-3.0802995"><ele>569.0</ele><time>2026-04-11T18:00:49.39Z</time></trkpt><trkpt lat="37.8552136" lon="-3.0804529"><ele>569.0</ele><time>2026-04-11T18:00:50.39Z</time></trkpt><trkpt lat="37.855333" lon="-3.0806269"><ele>567.3333333333333</ele><time>2026-04-11T18:00:51.39Z</time></trkpt><trkpt lat="37.8554478" lon="-3.0808158"><ele>565.6666666666666</ele><time>2026-04-11T18:00:52.39Z</time></trkpt><trkpt lat="37.8555549" lon="-3.0810119"><ele>564.0</ele><time>2026-04-11T18:00:53.39Z</time></trkpt><trkpt lat="37.8556618" lon="-3.0812097"><ele>564.0</ele><time>2026-04-11T18:00:54.39Z</time></trkpt><trkpt lat="37.8557706" lon="-3.0814049"><ele>564.0</ele><time>2026-04-11T18:00:55.39Z</time></trkpt><trkpt lat="37.8558746" lon="-3.0816041"><ele>564.0</ele><time>2026-04-11T18:00:56.39Z</time></trkpt><trkpt lat="37.8559805" lon="-3.0818008"><ele>562.6666666666666</ele><time>2026-04-11T18:00:57.39Z</time></trkpt><trkpt lat="37.8560886" lon="-3.0819954"><ele>561.3333333333333</ele><time>2026-04-11T18:00:58.389Z</time></trkpt><trkpt lat="37.856197" lon="-3.0821859"><ele>560.0</ele><time>2026-04-11T18:00:59.39Z</time></trkpt><trkpt lat="37.8562992" lon="-3.0823682"><ele>559.0</ele><time>2026-04-11T18:01:00.39Z</time></trkpt><trkpt lat="37.8563984" lon="-3.0825283"><ele>558.0</ele><time>2026-04-11T18:01:01.39Z</time></trkpt><trkpt lat="37.856508" lon="-3.0826775"><ele>557.0</ele><time>2026-04-11T18:01:02.39Z</time></trkpt><trkpt lat="37.8566316" lon="-3.0828041"><ele>557.0</ele><time>2026-04-11T18:01:03.39Z</time></trkpt><trkpt lat="37.8567626" lon="-3.0828924"><ele>557.0</ele><time>2026-04-11T18:01:04.39Z</time></trkpt><trkpt lat="37.8569064" lon="-3.0829609"><ele>557.0</ele><time>2026-04-11T18:01:05.389Z</time></trkpt><trkpt lat="37.8570628" lon="-3.0830044"><ele>557.3333333333333</ele><time>2026-04-11T18:01:06.389Z</time></trkpt><trkpt lat="37.8572235" lon="-3.0830368"><ele>557.6666666666666</ele><time>2026-04-11T18:01:07.39Z</time></trkpt><trkpt lat="37.8573904" lon="-3.0830643"><ele>558.0</ele><time>2026-04-11T18:01:08.39Z</time></trkpt><trkpt lat="37.857561" lon="-3.0830936"><ele>561.3333333333334</ele><time>2026-04-11T18:01:09.39Z</time></trkpt><trkpt lat="37.8577324" lon="-3.0831245"><ele>564.6666666666667</ele><time>2026-04-11T18:01:10.39Z</time></trkpt><trkpt lat="37.8579077" lon="-3.0831571"><ele>568.0</ele><time>2026-04-11T18:01:11.39Z</time></trkpt><trkpt lat="37.8580862" lon="-3.0831975"><ele>568.0</ele><time>2026-04-11T18:01:12.39Z</time></trkpt><trkpt lat="37.8582644" lon="-3.0832512"><ele>568.0</ele><time>2026-04-11T18:01:13.389Z</time></trkpt><trkpt lat="37.8584409" lon="-3.0833201"><ele>568.0</ele><time>2026-04-11T18:01:14.39Z</time></trkpt><trkpt lat="37.8586157" lon="-3.0833977"><ele>570.0</ele><time>2026-04-11T18:01:15.389Z</time></trkpt><trkpt lat="37.8587897" lon="-3.0834808"><ele>572.0</ele><time>2026-04-11T18:01:16.39Z</time></trkpt><trkpt lat="37.8589645" lon="-3.0835651"><ele>574.0</ele><time>2026-04-11T18:01:17.39Z</time></trkpt><trkpt lat="37.8591419" lon="-3.0836505"><ele>577.0</ele><time>2026-04-11T18:01:18.39Z</time></trkpt><trkpt lat="37.8593162" lon="-3.0837316"><ele>580.0</ele><time>2026-04-11T18:01:19.389Z</time></trkpt><trkpt lat="37.8594851" lon="-3.0838104"><ele>583.0</ele><time>2026-04-11T18:01:20.39Z</time></trkpt><trkpt lat="37.8596494" lon="-3.0838912"><ele>583.0</ele><time>2026-04-11T18:01:21.39Z</time></trkpt><trkpt lat="37.8598057" lon="-3.0839816"><ele>583.0</ele><time>2026-04-11T18:01:22.39Z</time></trkpt><trkpt lat="37.8599524" lon="-3.0840981"><ele>583.0</ele><time>2026-04-11T18:01:23.389Z</time></trkpt><trkpt lat="37.8600828" lon="-3.0842252"><ele>583.3333333333334</ele><time>2026-04-11T18:01:24.39Z</time></trkpt><trkpt lat="37.860197" lon="-3.0843662"><ele>583.6666666666666</ele><time>2026-04-11T18:01:25.39Z</time></trkpt><trkpt lat="37.8603026" lon="-3.0845092"><ele>584.0</ele><time>2026-04-11T18:01:26.39Z</time></trkpt><trkpt lat="37.8604024" lon="-3.0846422"><ele>584.0</ele><time>2026-04-11T18:01:27.39Z</time></trkpt><trkpt lat="37.8604882" lon="-3.0847551"><ele>584.0</ele><time>2026-04-11T18:01:28.39Z</time></trkpt><trkpt lat="37.8605637" lon="-3.0848453"><ele>584.0</ele><time>2026-04-11T18:01:29.389Z</time></trkpt><trkpt lat="37.8606371" lon="-3.0849015"><ele>584.0</ele><time>2026-04-11T18:01:30.39Z</time></trkpt><trkpt lat="37.8607172" lon="-3.0849241"><ele>584.0</ele><time>2026-04-11T18:01:31.39Z</time></trkpt><trkpt lat="37.8608047" lon="-3.0849322"><ele>584.4</ele><time>2026-04-11T18:01:32.39Z</time></trkpt><trkpt lat="37.860897" lon="-3.0849398"><ele>584.8</ele><time>2026-04-11T18:01:33.389Z</time></trkpt><trkpt lat="37.8609877" lon="-3.0849753"><ele>585.2</ele><time>2026-04-11T18:01:34.39Z</time></trkpt><trkpt lat="37.8610718" lon="-3.0850481"><ele>585.6</ele><time>2026-04-11T18:01:35.389Z</time></trkpt><trkpt lat="37.8611503" lon="-3.0851399"><ele>586.0</ele><time>2026-04-11T18:01:36.39Z</time></trkpt><trkpt lat="37.8612387" lon="-3.085218"><ele>588.25</ele><time>2026-04-11T18:01:37.39Z</time></trkpt><trkpt lat="37.8613404" lon="-3.0852448"><ele>590.5</ele><time>2026-04-11T18:01:38.39Z</time></trkpt><trkpt lat="37.861449" lon="-3.0852322"><ele>592.75</ele><time>2026-04-11T18:01:39.39Z</time></trkpt><trkpt lat="37.8615647" lon="-3.0851987"><ele>595.0</ele><time>2026-04-11T18:01:40.389Z</time></trkpt><trkpt lat="37.8616842" lon="-3.0851647"><ele>596.0</ele><time>2026-04-11T18:01:41.39Z</time></trkpt><trkpt lat="37.8618122" lon="-3.0851297"><ele>597.0</ele><time>2026-04-11T18:01:42.39Z</time></trkpt><trkpt lat="37.8619422" lon="-3.0850876"><ele>598.0</ele><time>2026-04-11T18:01:43.389Z</time></trkpt><trkpt lat="37.8620754" lon="-3.0850467"><ele>599.0</ele><time>2026-04-11T18:01:44.39Z</time></trkpt><trkpt lat="37.8622071" lon="-3.0850019"><ele>599.0</ele><time>2026-04-11T18:01:45.39Z</time></trkpt><trkpt lat="37.8623398" lon="-3.0849581"><ele>599.0</ele><time>2026-04-11T18:01:46.389Z</time></trkpt><trkpt lat="37.8624745" lon="-3.0849142"><ele>599.0</ele><time>2026-04-11T18:01:47.39Z</time></trkpt><trkpt lat="37.8626038" lon="-3.0848748"><ele>599.0</ele><time>2026-04-11T18:01:48.39Z</time></trkpt><trkpt lat="37.8627244" lon="-3.0848417"><ele>600.0</ele><time>2026-04-11T18:01:49.39Z</time></trkpt><trkpt lat="37.8628361" lon="-3.0848194"><ele>601.0</ele><time>2026-04-11T18:01:50.39Z</time></trkpt><trkpt lat="37.862935" lon="-3.0847974"><ele>602.0</ele><time>2026-04-11T18:01:51.39Z</time></trkpt><trkpt lat="37.8630345" lon="-3.0847683"><ele>603.0</ele><time>2026-04-11T18:01:52.39Z</time></trkpt><trkpt lat="37.8631133" lon="-3.084721"><ele>604.0</ele><time>2026-04-11T18:01:53.39Z</time></trkpt><trkpt lat="37.8631819" lon="-3.0846593"><ele>604.0</ele><time>2026-04-11T18:01:54.39Z</time></trkpt><trkpt lat="37.8632428" lon="-3.0845819"><ele>604.0</ele><time>2026-04-11T18:01:55.39Z</time></trkpt><trkpt lat="37.8632929" lon="-3.0844895"><ele>604.0</ele><time>2026-04-11T18:01:56.389Z</time></trkpt><trkpt lat="37.8633335" lon="-3.0843799"><ele>604.0</ele><time>2026-04-11T18:01:57.39Z</time></trkpt><trkpt lat="37.8633613" lon="-3.0842605"><ele>604.0</ele><time>2026-04-11T18:01:58.39Z</time></trkpt><trkpt lat="37.863376" lon="-3.0841358"><ele>604.4</ele><time>2026-04-11T18:01:59.39Z</time></trkpt><trkpt lat="37.863376" lon="-3.0840013"><ele>604.8</ele><time>2026-04-11T18:02:00.39Z</time></trkpt><trkpt lat="37.863367" lon="-3.0838634"><ele>605.2</ele><time>2026-04-11T18:02:01.389Z</time></trkpt><trkpt lat="37.8633567" lon="-3.0837236"><ele>605.6</ele><time>2026-04-11T18:02:02.39Z</time></trkpt><trkpt lat="37.863347" lon="-3.0835751"><ele>606.0</ele><time>2026-04-11T18:02:03.39Z</time></trkpt><trkpt lat="37.863336" lon="-3.0834211"><ele>606.0</ele><time>2026-04-11T18:02:04.39Z</time></trkpt><trkpt lat="37.8633225" lon="-3.0832656"><ele>606.0</ele><time>2026-04-11T18:02:05.39Z</time></trkpt><trkpt lat="37.863307" lon="-3.0831146"><ele>606.0</ele><time>2026-04-11T18:02:06.39Z</time></trkpt><trkpt lat="37.8632909" lon="-3.0829641"><ele>606.0</ele><time>2026-04-11T18:02:07.389Z</time></trkpt><trkpt lat="37.8632743" lon="-3.0828128"><ele>606.25</ele><time>2026-04-11T18:02:08.39Z</time></trkpt><trkpt lat="37.8632538" lon="-3.0826601"><ele>606.5</ele><time>2026-04-11T18:02:09.389Z</time></trkpt><trkpt lat="37.8632284" lon="-3.0825089"><ele>606.75</ele><time>2026-04-11T18:02:10.389Z</time></trkpt><trkpt lat="37.8631924" lon="-3.0823528"><ele>607.0</ele><time>2026-04-11T18:02:11.39Z</time></trkpt><trkpt lat="37.863153" lon="-3.0821989"><ele>607.25</ele><time>2026-04-11T18:02:12.39Z</time></trkpt><trkpt lat="37.8631078" lon="-3.0820432"><ele>607.5</ele><time>2026-04-11T18:02:13.39Z</time></trkpt><trkpt lat="37.8630671" lon="-3.0818883"><ele>607.75</ele><time>2026-04-11T18:02:14.39Z</time></trkpt><trkpt lat="37.8630258" lon="-3.0817296"><ele>608.0</ele><time>2026-04-11T18:02:15.39Z</time></trkpt><trkpt lat="37.862985" lon="-3.0815761"><ele>608.75</ele><time>2026-04-11T18:02:16.39Z</time></trkpt><trkpt lat="37.8629464" lon="-3.0814244"><ele>609.5</ele><time>2026-04-11T18:02:17.39Z</time></trkpt><trkpt lat="37.8629099" lon="-3.0812775"><ele>610.25</ele><time>2026-04-11T18:02:18.39Z</time></trkpt><trkpt lat="37.8628753" lon="-3.0811303"><ele>611.0</ele><time>2026-04-11T18:02:19.389Z</time></trkpt><trkpt lat="37.8628579" lon="-3.0809824"><ele>611.0</ele><time>2026-04-11T18:02:20.39Z</time></trkpt><trkpt lat="37.86286" lon="-3.0808343"><ele>611.0</ele><time>2026-04-11T18:02:21.39Z</time></trkpt><trkpt lat="37.8628828" lon="-3.0806912"><ele>611.0</ele><time>2026-04-11T18:02:22.39Z</time></trkpt><trkpt lat="37.8629319" lon="-3.0805602"><ele>611.0</ele><time>2026-04-11T18:02:23.39Z</time></trkpt><trkpt lat="37.8629893" lon="-3.0804429"><ele>612.25</ele><time>2026-04-11T18:02:24.39Z</time></trkpt><trkpt lat="37.8630508" lon="-3.0803236"><ele>613.5</ele><time>2026-04-11T18:02:25.389Z</time></trkpt><trkpt lat="37.8631138" lon="-3.0802028"><ele>614.75</ele><time>2026-04-11T18:02:26.39Z</time></trkpt><trkpt lat="37.8631832" lon="-3.0800796"><ele>616.0</ele><time>2026-04-11T18:02:27.39Z</time></trkpt><trkpt lat="37.863251" lon="-3.0799473"><ele>617.5</ele><time>2026-04-11T18:02:28.39Z</time></trkpt><trkpt lat="37.8633213" lon="-3.0798097"><ele>619.0</ele><time>2026-04-11T18:02:29.389Z</time></trkpt><trkpt lat="37.8633919" lon="-3.0796653"><ele>620.5</ele><time>2026-04-11T18:02:30.389Z</time></trkpt><trkpt lat="37.8634633" lon="-3.0795165"><ele>622.0</ele><time>2026-04-11T18:02:31.39Z</time></trkpt><trkpt lat="37.8635368" lon="-3.0793682"><ele>622.0</ele><time>2026-04-11T18:02:32.39Z</time></trkpt><trkpt lat="37.8636124" lon="-3.0792164"><ele>622.0</ele><time>2026-04-11T18:02:33.39Z</time></trkpt><trkpt lat="37.8636886" lon="-3.0790624"><ele>622.0</ele><time>2026-04-11T18:02:34.39Z</time></trkpt><trkpt lat="37.8637668" lon="-3.0789062"><ele>622.0</ele><time>2026-04-11T18:02:35.39Z</time></trkpt><trkpt lat="37.863845" lon="-3.078752"><ele>622.5</ele><time>2026-04-11T18:02:36.39Z</time></trkpt><trkpt lat="37.8639185" lon="-3.0786003"><ele>623.0</ele><time>2026-04-11T18:02:37.39Z</time></trkpt><trkpt lat="37.8639925" lon="-3.0784453"><ele>623.5</ele><time>2026-04-11T18:02:38.39Z</time></trkpt><trkpt lat="37.8640639" lon="-3.0782932"><ele>624.0</ele><time>2026-04-11T18:02:39.39Z</time></trkpt><trkpt lat="37.8641367" lon="-3.0781449"><ele>625.5</ele><time>2026-04-11T18:02:40.39Z</time></trkpt><trkpt lat="37.8642069" lon="-3.0779984"><ele>627.0</ele><time>2026-04-11T18:02:41.39Z</time></trkpt><trkpt lat="37.8642774" lon="-3.0778544"><ele>628.5</ele><time>2026-04-11T18:02:42.39Z</time></trkpt><trkpt lat="37.8643514" lon="-3.0777135"><ele>630.0</ele><time>2026-04-11T18:02:43.389Z</time></trkpt><trkpt lat="37.8644226" lon="-3.0775684"><ele>633.25</ele><time>2026-04-11T18:02:44.389Z</time></trkpt><trkpt lat="37.8644942" lon="-3.0774248"><ele>636.5</ele><time>2026-04-11T18:02:45.389Z</time></trkpt><trkpt lat="37.8645626" lon="-3.077281"><ele>639.75</ele><time>2026-04-11T18:02:46.39Z</time></trkpt><trkpt lat="37.8646299" lon="-3.0771385"><ele>643.0</ele><time>2026-04-11T18:02:47.39Z</time></trkpt><trkpt lat="37.8646957" lon="-3.076995"><ele>643.0</ele><time>2026-04-11T18:02:48.389Z</time></trkpt><trkpt lat="37.864757" lon="-3.0768433"><ele>643.0</ele><time>2026-04-11T18:02:49.39Z</time></trkpt><trkpt lat="37.8648165" lon="-3.0766916"><ele>643.0</ele><time>2026-04-11T18:02:50.39Z</time></trkpt><trkpt lat="37.8648731" lon="-3.0765417"><ele>643.0</ele><time>2026-04-11T18:02:51.39Z</time></trkpt><trkpt lat="37.8649319" lon="-3.0763903"><ele>644.0</ele><time>2026-04-11T18:02:52.39Z</time></trkpt><trkpt lat="37.8649833" lon="-3.0762398"><ele>645.0</ele><time>2026-04-11T18:02:53.389Z</time></trkpt><trkpt lat="37.8650249" lon="-3.0760878"><ele>646.0</ele><time>2026-04-11T18:02:54.39Z</time></trkpt><trkpt lat="37.8650525" lon="-3.0759355"><ele>647.0</ele><time>2026-04-11T18:02:55.39Z</time></trkpt><trkpt lat="37.8650672" lon="-3.0757849"><ele>649.25</ele><time>2026-04-11T18:02:56.39Z</time></trkpt><trkpt lat="37.865075" lon="-3.0756288"><ele>651.5</ele><time>2026-04-11T18:02:57.39Z</time></trkpt><trkpt lat="37.8650913" lon="-3.0754667"><ele>653.75</ele><time>2026-04-11T18:02:58.39Z</time></trkpt><trkpt lat="37.8651235" lon="-3.0753102"><ele>656.0</ele><time>2026-04-11T18:02:59.39Z</time></trkpt><trkpt lat="37.8651712" lon="-3.0751518"><ele>656.25</ele><time>2026-04-11T18:03:00.39Z</time></trkpt><trkpt lat="37.8652272" lon="-3.074999"><ele>656.5</ele><time>2026-04-11T18:03:01.39Z</time></trkpt><trkpt lat="37.8652862" lon="-3.07485"><ele>656.75</ele><time>2026-04-11T18:03:02.39Z</time></trkpt><trkpt lat="37.8653548" lon="-3.0747162"><ele>657.0</ele><time>2026-04-11T18:03:03.39Z</time></trkpt><trkpt lat="37.8654206" lon="-3.0746006"><ele>658.0</ele><time>2026-04-11T18:03:04.39Z</time></trkpt><trkpt lat="37.8654941" lon="-3.0744971"><ele>659.0</ele><time>2026-04-11T18:03:05.39Z</time></trkpt><trkpt lat="37.8655616" lon="-3.074389"><ele>660.0</ele><time>2026-04-11T18:03:06.39Z</time></trkpt><trkpt lat="37.86562" lon="-3.0742646"><ele>661.0</ele><time>2026-04-11T18:03:07.39Z</time></trkpt><trkpt lat="37.865659" lon="-3.0741286"><ele>662.0</ele><time>2026-04-11T18:03:08.39Z</time></trkpt><trkpt lat="37.8656836" lon="-3.073984"><ele>662.0</ele><time>2026-04-11T18:03:09.39Z</time></trkpt><trkpt lat="37.865687" lon="-3.0738383"><ele>662.0</ele><time>2026-04-11T18:03:10.39Z</time></trkpt><trkpt lat="37.8656689" lon="-3.0736967"><ele>662.0</ele><time>2026-04-11T18:03:11.389Z</time></trkpt><trkpt lat="37.8656358" lon="-3.0735544"><ele>662.0</ele><time>2026-04-11T18:03:12.39Z</time></trkpt><trkpt lat="37.865595" lon="-3.073409"><ele>663.25</ele><time>2026-04-11T18:03:13.39Z</time></trkpt><trkpt lat="37.8655613" lon="-3.0732619"><ele>664.5</ele><time>2026-04-11T18:03:14.39Z</time></trkpt><trkpt lat="37.8655299" lon="-3.073116"><ele>665.75</ele><time>2026-04-11T18:03:15.39Z</time></trkpt><trkpt lat="37.8655091" lon="-3.0729651"><ele>667.0</ele><time>2026-04-11T18:03:16.39Z</time></trkpt><trkpt lat="37.8655062" lon="-3.0728144"><ele>667.0</ele><time>2026-04-11T18:03:17.389Z</time></trkpt><trkpt lat="37.8655119" lon="-3.072665"><ele>667.0</ele><time>2026-04-11T18:03:18.39Z</time></trkpt><trkpt lat="37.8655176" lon="-3.0725116"><ele>667.0</ele><time>2026-04-11T18:03:19.39Z</time></trkpt><trkpt lat="37.8655251" lon="-3.0723628"><ele>667.0</ele><time>2026-04-11T18:03:20.39Z</time></trkpt><trkpt lat="37.8655318" lon="-3.0722175"><ele>669.0</ele><time>2026-04-11T18:03:21.39Z</time></trkpt><trkpt lat="37.8655385" lon="-3.0720751"><ele>671.0</ele><time>2026-04-11T18:03:22.389Z</time></trkpt><trkpt lat="37.8655364" lon="-3.07193"><ele>673.0</ele><time>2026-04-11T18:03:23.389Z</time></trkpt><trkpt lat="37.8655186" lon="-3.0717832"><ele>675.0</ele><time>2026-04-11T18:03:24.39Z</time></trkpt><trkpt lat="37.8654918" lon="-3.0716425"><ele>675.0</ele><time>2026-04-11T18:03:25.39Z</time></trkpt><trkpt lat="37.8654591" lon="-3.0714963"><ele>675.0</ele><time>2026-04-11T18:03:26.39Z</time></trkpt><trkpt lat="37.865431" lon="-3.0713478"><ele>675.0</ele><time>2026-04-11T18:03:27.39Z</time></trkpt><trkpt lat="37.8654045" lon="-3.0711992"><ele>675.0</ele><time>2026-04-11T18:03:28.39Z</time></trkpt><trkpt lat="37.8653764" lon="-3.0710522"><ele>675.0</ele><time>2026-04-11T18:03:29.39Z</time></trkpt><trkpt lat="37.8653509" lon="-3.0709161"><ele>675.0</ele><time>2026-04-11T18:03:30.39Z</time></trkpt><trkpt lat="37.8653276" lon="-3.0707865"><ele>675.0</ele><time>2026-04-11T18:03:31.39Z</time></trkpt><trkpt lat="37.8652983" lon="-3.0706553"><ele>675.0</ele><time>2026-04-11T18:03:32.39Z</time></trkpt><trkpt lat="37.8652664" lon="-3.0705223"><ele>675.0</ele><time>2026-04-11T18:03:33.39Z</time></trkpt><trkpt lat="37.8652364" lon="-3.0703867"><ele>675.75</ele><time>2026-04-11T18:03:34.39Z</time></trkpt><trkpt lat="37.8652032" lon="-3.0702425"><ele>676.5</ele><time>2026-04-11T18:03:35.39Z</time></trkpt><trkpt lat="37.8651738" lon="-3.0700967"><ele>677.25</ele><time>2026-04-11T18:03:36.39Z</time></trkpt><trkpt lat="37.8651447" lon="-3.0699545"><ele>678.0</ele><time>2026-04-11T18:03:37.39Z</time></trkpt><trkpt lat="37.8651195" lon="-3.0698174"><ele>679.8</ele><time>2026-04-11T18:03:38.39Z</time></trkpt><trkpt lat="37.8650993" lon="-3.0696885"><ele>681.5999999999999</ele><time>2026-04-11T18:03:39.39Z</time></trkpt><trkpt lat="37.8650846" lon="-3.0695706"><ele>683.4000000000001</ele><time>2026-04-11T18:03:40.39Z</time></trkpt><trkpt lat="37.8650743" lon="-3.0694532"><ele>685.2</ele><time>2026-04-11T18:03:41.389Z</time></trkpt><trkpt lat="37.8650699" lon="-3.0693298"><ele>687.0</ele><time>2026-04-11T18:03:42.39Z</time></trkpt><trkpt lat="37.8650713" lon="-3.0692007"><ele>686.75</ele><time>2026-04-11T18:03:43.39Z</time></trkpt><trkpt lat="37.8650765" lon="-3.0690657"><ele>686.5</ele><time>2026-04-11T18:03:44.39Z</time></trkpt><trkpt lat="37.8650809" lon="-3.068922"><ele>686.25</ele><time>2026-04-11T18:03:45.39Z</time></trkpt><trkpt lat="37.8650948" lon="-3.0687717"><ele>686.0</ele><time>2026-04-11T18:03:46.39Z</time></trkpt><trkpt lat="37.8651152" lon="-3.0686238"><ele>686.0</ele><time>2026-04-11T18:03:47.389Z</time></trkpt><trkpt lat="37.8651513" lon="-3.0684739"><ele>686.0</ele><time>2026-04-11T18:03:48.389Z</time></trkpt><trkpt lat="37.8652044" lon="-3.0683227"><ele>686.0</ele><time>2026-04-11T18:03:49.39Z</time></trkpt><trkpt lat="37.8652752" lon="-3.0681805"><ele>686.0</ele><time>2026-04-11T18:03:50.39Z</time></trkpt><trkpt lat="37.8653602" lon="-3.0680393"><ele>687.0</ele><time>2026-04-11T18:03:51.389Z</time></trkpt><trkpt lat="37.8654518" lon="-3.0679014"><ele>688.0</ele><time>2026-04-11T18:03:52.39Z</time></trkpt><trkpt lat="37.8655522" lon="-3.0677676"><ele>689.0</ele><time>2026-04-11T18:03:53.389Z</time></trkpt><trkpt lat="37.8656709" lon="-3.0676362"><ele>690.0</ele><time>2026-04-11T18:03:54.39Z</time></trkpt><trkpt lat="37.8657954" lon="-3.0675174"><ele>692.3333333333334</ele><time>2026-04-11T18:03:55.389Z</time></trkpt><trkpt lat="37.8659315" lon="-3.0674151"><ele>694.6666666666667</ele><time>2026-04-11T18:03:56.39Z</time></trkpt><trkpt lat="37.8660751" lon="-3.0673389"><ele>697.0</ele><time>2026-04-11T18:03:57.39Z</time></trkpt><trkpt lat="37.8662271" lon="-3.0672841"><ele>697.0</ele><time>2026-04-11T18:03:58.39Z</time></trkpt><trkpt lat="37.8663834" lon="-3.0672459"><ele>697.0</ele><time>2026-04-11T18:03:59.39Z</time></trkpt><trkpt lat="37.8665431" lon="-3.0672166"><ele>697.0</ele><time>2026-04-11T18:04:00.39Z</time></trkpt><trkpt lat="37.8667081" lon="-3.0672035"><ele>698.3333333333334</ele><time>2026-04-11T18:04:01.39Z</time></trkpt><trkpt lat="37.8668749" lon="-3.067213"><ele>699.6666666666666</ele><time>2026-04-11T18:04:02.389Z</time></trkpt><trkpt lat="37.8670407" lon="-3.067242"><ele>701.0</ele><time>2026-04-11T18:04:03.39Z</time></trkpt><trkpt lat="37.8672097" lon="-3.0672816"><ele>701.0</ele><time>2026-04-11T18:04:04.39Z</time></trkpt><trkpt lat="37.8673746" lon="-3.0673325"><ele>701.0</ele><time>2026-04-11T18:04:05.39Z</time></trkpt><trkpt lat="37.8675422" lon="-3.0673882"><ele>701.0</ele><time>2026-04-11T18:04:06.389Z</time></trkpt><trkpt lat="37.8677067" lon="-3.0674496"><ele>700.6666666666666</ele><time>2026-04-11T18:04:07.39Z</time></trkpt><trkpt lat="37.8678687" lon="-3.0675089"><ele>700.3333333333334</ele><time>2026-04-11T18:04:08.39Z</time></trkpt><trkpt lat="37.8680249" lon="-3.0675693"><ele>700.0</ele><time>2026-04-11T18:04:09.39Z</time></trkpt><trkpt lat="37.8681771" lon="-3.0676447"><ele>700.0</ele><time>2026-04-11T18:04:10.39Z</time></trkpt><trkpt lat="37.8683255" lon="-3.0677384"><ele>700.0</ele><time>2026-04-11T18:04:11.389Z</time></trkpt><trkpt lat="37.8684735" lon="-3.0678364"><ele>700.0</ele><time>2026-04-11T18:04:12.39Z</time></trkpt><trkpt lat="37.8686206" lon="-3.067935"><ele>702.6666666666667</ele><time>2026-04-11T18:04:13.39Z</time></trkpt><trkpt lat="37.8687687" lon="-3.0680319"><ele>705.3333333333334</ele><time>2026-04-11T18:04:14.39Z</time></trkpt><trkpt lat="37.8689108" lon="-3.0681283"><ele>708.0</ele><time>2026-04-11T18:04:15.39Z</time></trkpt><trkpt lat="37.8690559" lon="-3.0682238"><ele>708.0</ele><time>2026-04-11T18:04:16.39Z</time></trkpt><trkpt lat="37.8692032" lon="-3.0683231"><ele>708.0</ele><time>2026-04-11T18:04:17.39Z</time></trkpt><trkpt lat="37.8693448" lon="-3.0684183"><ele>708.0</ele><time>2026-04-11T18:04:18.39Z</time></trkpt><trkpt lat="37.8694852" lon="-3.0685135"><ele>708.0</ele><time>2026-04-11T18:04:19.39Z</time></trkpt><trkpt lat="37.8696261" lon="-3.0686062"><ele>708.0</ele><time>2026-04-11T18:04:20.39Z</time></trkpt><trkpt lat="37.8697638" lon="-3.0686979"><ele>708.0</ele><time>2026-04-11T18:04:21.389Z</time></trkpt><trkpt lat="37.8698948" lon="-3.0687902"><ele>708.0</ele><time>2026-04-11T18:04:22.389Z</time></trkpt><trkpt lat="37.8700318" lon="-3.0688833"><ele>708.0</ele><time>2026-04-11T18:04:23.39Z</time></trkpt><trkpt lat="37.8701762" lon="-3.0689724"><ele>708.0</ele><time>2026-04-11T18:04:24.39Z</time></trkpt><trkpt lat="37.8703261" lon="-3.0690659"><ele>707.6666666666666</ele><time>2026-04-11T18:04:25.389Z</time></trkpt><trkpt lat="37.8704838" lon="-3.0691599"><ele>707.3333333333333</ele><time>2026-04-11T18:04:26.39Z</time></trkpt><trkpt lat="37.870646" lon="-3.069253"><ele>707.0</ele><time>2026-04-11T18:04:27.389Z</time></trkpt><trkpt lat="37.8708111" lon="-3.0693441"><ele>707.0</ele><time>2026-04-11T18:04:28.389Z</time></trkpt><trkpt lat="37.8709826" lon="-3.0694375"><ele>707.0</ele><time>2026-04-11T18:04:29.39Z</time></trkpt><trkpt lat="37.8711593" lon="-3.0695314"><ele>707.0</ele><time>2026-04-11T18:04:30.39Z</time></trkpt><trkpt lat="37.8713344" lon="-3.0696311"><ele>707.0</ele><time>2026-04-11T18:04:31.39Z</time></trkpt><trkpt lat="37.8715092" lon="-3.0697251"><ele>707.0</ele><time>2026-04-11T18:04:32.39Z</time></trkpt><trkpt lat="37.87168" lon="-3.0698207"><ele>707.0</ele><time>2026-04-11T18:04:33.39Z</time></trkpt><trkpt lat="37.8718544" lon="-3.0699156"><ele>706.0</ele><time>2026-04-11T18:04:34.389Z</time></trkpt><trkpt lat="37.872031" lon="-3.0700102"><ele>705.0</ele><time>2026-04-11T18:04:35.39Z</time></trkpt><trkpt lat="37.8722114" lon="-3.0701086"><ele>704.0</ele><time>2026-04-11T18:04:36.39Z</time></trkpt><trkpt lat="37.8723925" lon="-3.0702004"><ele>704.0</ele><time>2026-04-11T18:04:37.39Z</time></trkpt><trkpt lat="37.8725714" lon="-3.0702965"><ele>704.0</ele><time>2026-04-11T18:04:38.39Z</time></trkpt><trkpt lat="37.8727454" lon="-3.0703919"><ele>704.0</ele><time>2026-04-11T18:04:39.389Z</time></trkpt><trkpt lat="37.8729198" lon="-3.0704872"><ele>706.3333333333333</ele><time>2026-04-11T18:04:40.39Z</time></trkpt><trkpt lat="37.8730943" lon="-3.0705804"><ele>708.6666666666666</ele><time>2026-04-11T18:04:41.39Z</time></trkpt><trkpt lat="37.8732671" lon="-3.0706694"><ele>711.0</ele><time>2026-04-11T18:04:42.39Z</time></trkpt><trkpt lat="37.8734311" lon="-3.0707615"><ele>711.3333333333334</ele><time>2026-04-11T18:04:43.39Z</time></trkpt><trkpt lat="37.8735939" lon="-3.0708505"><ele>711.6666666666667</ele><time>2026-04-11T18:04:44.389Z</time></trkpt><trkpt lat="37.8737544" lon="-3.0709392"><ele>712.0</ele><time>2026-04-11T18:04:45.389Z</time></trkpt><trkpt lat="37.8739118" lon="-3.071028"><ele>712.0</ele><time>2026-04-11T18:04:46.39Z</time></trkpt><trkpt lat="37.8740715" lon="-3.0711116"><ele>712.0</ele><time>2026-04-11T18:04:47.39Z</time></trkpt><trkpt lat="37.8742342" lon="-3.0711957"><ele>712.0</ele><time>2026-04-11T18:04:48.39Z</time></trkpt><trkpt lat="37.874401" lon="-3.0712782"><ele>714.6666666666667</ele><time>2026-04-11T18:04:49.39Z</time></trkpt><trkpt lat="37.8745679" lon="-3.0713529"><ele>717.3333333333334</ele><time>2026-04-11T18:04:50.389Z</time></trkpt><trkpt lat="37.8747353" lon="-3.0714276"><ele>720.0</ele><time>2026-04-11T18:04:51.39Z</time></trkpt><trkpt lat="37.8749037" lon="-3.0714999"><ele>720.0</ele><time>2026-04-11T18:04:52.39Z</time></trkpt><trkpt lat="37.8750706" lon="-3.0715719"><ele>720.0</ele><time>2026-04-11T18:04:53.389Z</time></trkpt><trkpt lat="37.8752401" lon="-3.071645"><ele>720.0</ele><time>2026-04-11T18:04:54.39Z</time></trkpt><trkpt lat="37.8754129" lon="-3.071716"><ele>720.0</ele><time>2026-04-11T18:04:55.389Z</time></trkpt><trkpt lat="37.8755856" lon="-3.0717926"><ele>720.0</ele><time>2026-04-11T18:04:56.39Z</time></trkpt><trkpt lat="37.8757583" lon="-3.0718649"><ele>720.0</ele><time>2026-04-11T18:04:57.389Z</time></trkpt><trkpt lat="37.8759311" lon="-3.0719413"><ele>720.6666666666666</ele><time>2026-04-11T18:04:58.39Z</time></trkpt><trkpt lat="37.8761063" lon="-3.0720154"><ele>721.3333333333333</ele><time>2026-04-11T18:04:59.39Z</time></trkpt><trkpt lat="37.8762804" lon="-3.0720805"><ele>722.0</ele><time>2026-04-11T18:05:00.39Z</time></trkpt><trkpt lat="37.8764581" lon="-3.0721335"><ele>722.0</ele><time>2026-04-11T18:05:01.39Z</time></trkpt><trkpt lat="37.8766358" lon="-3.0721709"><ele>722.0</ele><time>2026-04-11T18:05:02.39Z</time></trkpt><trkpt lat="37.8768165" lon="-3.0721897"><ele>722.0</ele><time>2026-04-11T18:05:03.39Z</time></trkpt><trkpt lat="37.8769969" lon="-3.0721988"><ele>722.0</ele><time>2026-04-11T18:05:04.39Z</time></trkpt><trkpt lat="37.877177" lon="-3.0721979"><ele>722.0</ele><time>2026-04-11T18:05:05.39Z</time></trkpt><trkpt lat="37.877359" lon="-3.0721833"><ele>722.0</ele><time>2026-04-11T18:05:06.39Z</time></trkpt><trkpt lat="37.8775444" lon="-3.0721654"><ele>721.3333333333333</ele><time>2026-04-11T18:05:07.39Z</time></trkpt><trkpt lat="37.8777324" lon="-3.0721479"><ele>720.6666666666666</ele><time>2026-04-11T18:05:08.39Z</time></trkpt><trkpt lat="37.8779242" lon="-3.0721237"><ele>720.0</ele><time>2026-04-11T18:05:09.39Z</time></trkpt><trkpt lat="37.878122" lon="-3.0721023"><ele>720.0</ele><time>2026-04-11T18:05:10.39Z</time></trkpt><trkpt lat="37.8783206" lon="-3.0720792"><ele>720.0</ele><time>2026-04-11T18:05:11.39Z</time></trkpt><trkpt lat="37.8785227" lon="-3.072056"><ele>720.0</ele><time>2026-04-11T18:05:12.39Z</time></trkpt><trkpt lat="37.8787225" lon="-3.0720287"><ele>717.0</ele><time>2026-04-11T18:05:13.39Z</time></trkpt><trkpt lat="37.878916" lon="-3.0720016"><ele>714.0</ele><time>2026-04-11T18:05:14.39Z</time></trkpt><trkpt lat="37.8790935" lon="-3.0719794"><ele>711.0</ele><time>2026-04-11T18:05:15.39Z</time></trkpt><trkpt lat="37.8792704" lon="-3.0719578"><ele>708.0</ele><time>2026-04-11T18:05:16.39Z</time></trkpt><trkpt lat="37.8794533" lon="-3.0719398"><ele>705.0</ele><time>2026-04-11T18:05:17.39Z</time></trkpt><trkpt lat="37.8796407" lon="-3.0719277"><ele>702.0</ele><time>2026-04-11T18:05:18.39Z</time></trkpt><trkpt lat="37.8798276" lon="-3.0719242"><ele>702.0</ele><time>2026-04-11T18:05:19.39Z</time></trkpt><trkpt lat="37.8800153" lon="-3.0719211"><ele>702.0</ele><time>2026-04-11T18:05:20.39Z</time></trkpt><trkpt lat="37.8802038" lon="-3.0719137"><ele>702.0</ele><time>2026-04-11T18:05:21.39Z</time></trkpt><trkpt lat="37.8803972" lon="-3.0719055"><ele>701.0</ele><time>2026-04-11T18:05:22.39Z</time></trkpt><trkpt lat="37.8805875" lon="-3.0719023"><ele>700.0</ele><time>2026-04-11T18:05:23.39Z</time></trkpt><trkpt lat="37.8807685" lon="-3.0718976"><ele>699.0</ele><time>2026-04-11T18:05:24.39Z</time></trkpt><trkpt lat="37.8809388" lon="-3.0718979"><ele>698.0</ele><time>2026-04-11T18:05:25.39Z</time></trkpt><trkpt lat="37.8810976" lon="-3.0719042"><ele>697.0</ele><time>2026-04-11T18:05:26.39Z</time></trkpt><trkpt lat="37.881252" lon="-3.0719056"><ele>696.0</ele><time>2026-04-11T18:05:27.39Z</time></trkpt><trkpt lat="37.8814006" lon="-3.0718928"><ele>696.0</ele><time>2026-04-11T18:05:28.39Z</time></trkpt><trkpt lat="37.8815493" lon="-3.0718799"><ele>696.0</ele><time>2026-04-11T18:05:29.39Z</time></trkpt><trkpt lat="37.8816981" lon="-3.0718711"><ele>696.0</ele><time>2026-04-11T18:05:30.39Z</time></trkpt><trkpt lat="37.8818459" lon="-3.0718695"><ele>696.0</ele><time>2026-04-11T18:05:31.39Z</time></trkpt><trkpt lat="37.8819925" lon="-3.071866"><ele>695.75</ele><time>2026-04-11T18:05:32.39Z</time></trkpt><trkpt lat="37.8821383" lon="-3.0718636"><ele>695.5</ele><time>2026-04-11T18:05:33.39Z</time></trkpt><trkpt lat="37.8822828" lon="-3.0718599"><ele>695.25</ele><time>2026-04-11T18:05:34.39Z</time></trkpt><trkpt lat="37.8824282" lon="-3.0718553"><ele>695.0</ele><time>2026-04-11T18:05:35.39Z</time></trkpt><trkpt lat="37.8825683" lon="-3.0718484"><ele>694.5</ele><time>2026-04-11T18:05:36.39Z</time></trkpt><trkpt lat="37.8827101" lon="-3.0718432"><ele>694.0</ele><time>2026-04-11T18:05:37.39Z</time></trkpt><trkpt lat="37.8828446" lon="-3.0718385"><ele>693.5</ele><time>2026-04-11T18:05:38.39Z</time></trkpt><trkpt lat="37.8829741" lon="-3.0718259"><ele>693.0</ele><time>2026-04-11T18:05:39.39Z</time></trkpt><trkpt lat="37.883103" lon="-3.0718148"><ele>693.0</ele><time>2026-04-11T18:05:40.39Z</time></trkpt><trkpt lat="37.8832338" lon="-3.0718009"><ele>693.0</ele><time>2026-04-11T18:05:41.39Z</time></trkpt><trkpt lat="37.8833609" lon="-3.0717848"><ele>693.0</ele><time>2026-04-11T18:05:42.39Z</time></trkpt><trkpt lat="37.883488" lon="-3.0717725"><ele>693.0</ele><time>2026-04-11T18:05:43.39Z</time></trkpt><trkpt lat="37.883615" lon="-3.0717434"><ele>692.5</ele><time>2026-04-11T18:05:44.39Z</time></trkpt><trkpt lat="37.883742" lon="-3.0717184"><ele>692.0</ele><time>2026-04-11T18:05:45.39Z</time></trkpt><trkpt lat="37.8838633" lon="-3.0716874"><ele>691.5</ele><time>2026-04-11T18:05:46.39Z</time></trkpt><trkpt lat="37.8839809" lon="-3.0716594"><ele>691.0</ele><time>2026-04-11T18:05:47.39Z</time></trkpt><trkpt lat="37.8840862" lon="-3.0716336"><ele>691.5999999999999</ele><time>2026-04-11T18:05:48.39Z</time></trkpt><trkpt lat="37.8841861" lon="-3.0716063"><ele>692.2</ele><time>2026-04-11T18:05:49.39Z</time></trkpt><trkpt lat="37.8842896" lon="-3.0715802"><ele>692.8</ele><time>2026-04-11T18:05:50.39Z</time></trkpt><trkpt lat="37.884396" lon="-3.0715485"><ele>693.4000000000001</ele><time>2026-04-11T18:05:51.389Z</time></trkpt><trkpt lat="37.8845027" lon="-3.0715139"><ele>694.0</ele><time>2026-04-11T18:05:52.39Z</time></trkpt><trkpt lat="37.8846038" lon="-3.0714765"><ele>693.0</ele><time>2026-04-11T18:05:53.39Z</time></trkpt><trkpt lat="37.8846996" lon="-3.0714445"><ele>692.0</ele><time>2026-04-11T18:05:54.39Z</time></trkpt><trkpt lat="37.8847854" lon="-3.0714161"><ele>691.0</ele><time>2026-04-11T18:05:55.39Z</time></trkpt><trkpt lat="37.884867" lon="-3.0713883"><ele>690.0</ele><time>2026-04-11T18:05:56.39Z</time></trkpt><trkpt lat="37.8849519" lon="-3.0713605"><ele>689.0</ele><time>2026-04-11T18:05:57.39Z</time></trkpt><trkpt lat="37.8850333" lon="-3.0713354"><ele>688.0</ele><time>2026-04-11T18:05:58.39Z</time></trkpt><trkpt lat="37.8851226" lon="-3.0713063"><ele>687.0</ele><time>2026-04-11T18:05:59.39Z</time></trkpt><trkpt lat="37.8852107" lon="-3.0712778"><ele>686.0</ele><time>2026-04-11T18:06:00.389Z</time></trkpt><trkpt lat="37.8853025" lon="-3.0712452"><ele>685.0</ele><time>2026-04-11T18:06:01.39Z</time></trkpt><trkpt lat="37.8854004" lon="-3.0712137"><ele>684.0</ele><time>2026-04-11T18:06:02.39Z</time></trkpt><trkpt lat="37.8854953" lon="-3.0711848"><ele>683.0</ele><time>2026-04-11T18:06:03.39Z</time></trkpt><trkpt lat="37.8855921" lon="-3.071149"><ele>683.0</ele><time>2026-04-11T18:06:04.39Z</time></trkpt><trkpt lat="37.8856922" lon="-3.0711183"><ele>683.0</ele><time>2026-04-11T18:06:05.39Z</time></trkpt><trkpt lat="37.8857939" lon="-3.0710845"><ele>683.0</ele><time>2026-04-11T18:06:06.389Z</time></trkpt><trkpt lat="37.8858989" lon="-3.0710515"><ele>683.0</ele><time>2026-04-11T18:06:07.39Z</time></trkpt><trkpt lat="37.885999" lon="-3.0710176"><ele>683.0</ele><time>2026-04-11T18:06:08.39Z</time></trkpt><trkpt lat="37.8861053" lon="-3.0709818"><ele>682.8</ele><time>2026-04-11T18:06:09.39Z</time></trkpt><trkpt lat="37.8862135" lon="-3.0709511"><ele>682.5999999999999</ele><time>2026-04-11T18:06:10.39Z</time></trkpt><trkpt lat="37.886321" lon="-3.0709218"><ele>682.4000000000001</ele><time>2026-04-11T18:06:11.39Z</time></trkpt><trkpt lat="37.8864299" lon="-3.0708892"><ele>682.2</ele><time>2026-04-11T18:06:12.39Z</time></trkpt><trkpt lat="37.8865411" lon="-3.0708514"><ele>682.0</ele><time>2026-04-11T18:06:13.39Z</time></trkpt><trkpt lat="37.886655" lon="-3.0708143"><ele>682.0</ele><time>2026-04-11T18:06:14.389Z</time></trkpt><trkpt lat="37.8867677" lon="-3.0707791"><ele>682.0</ele><time>2026-04-11T18:06:15.39Z</time></trkpt><trkpt lat="37.8868744" lon="-3.0707399"><ele>682.0</ele><time>2026-04-11T18:06:16.39Z</time></trkpt><trkpt lat="37.8869968" lon="-3.0707082"><ele>682.0</ele><time>2026-04-11T18:06:17.39Z</time></trkpt><trkpt lat="37.8871155" lon="-3.0706715"><ele>682.0</ele><time>2026-04-11T18:06:18.39Z</time></trkpt><trkpt lat="37.8872419" lon="-3.0706337"><ele>682.0</ele><time>2026-04-11T18:06:19.39Z</time></trkpt><trkpt lat="37.8873694" lon="-3.0705991"><ele>682.0</ele><time>2026-04-11T18:06:20.39Z</time></trkpt><trkpt lat="37.8874966" lon="-3.0705627"><ele>682.0</ele><time>2026-04-11T18:06:21.389Z</time></trkpt><trkpt lat="37.8876269" lon="-3.0705269"><ele>682.0</ele><time>2026-04-11T18:06:22.39Z</time></trkpt><trkpt lat="37.8877585" lon="-3.0704928"><ele>682.0</ele><time>2026-04-11T18:06:23.389Z</time></trkpt><trkpt lat="37.8878893" lon="-3.0704593"><ele>682.0</ele><time>2026-04-11T18:06:24.39Z</time></trkpt><trkpt lat="37.8880159" lon="-3.0704142"><ele>682.0</ele><time>2026-04-11T18:06:25.39Z</time></trkpt><trkpt lat="37.8881445" lon="-3.0703779"><ele>682.0</ele><time>2026-04-11T18:06:26.39Z</time></trkpt><trkpt lat="37.8882655" lon="-3.0703463"><ele>682.0</ele><time>2026-04-11T18:06:27.389Z</time></trkpt><trkpt lat="37.8883814" lon="-3.0703101"><ele>682.0</ele><time>2026-04-11T18:06:28.39Z</time></trkpt><trkpt lat="37.8885046" lon="-3.0702777"><ele>682.0</ele><time>2026-04-11T18:06:29.39Z</time></trkpt><trkpt lat="37.8886288" lon="-3.0702459"><ele>683.0</ele><time>2026-04-11T18:06:30.39Z</time></trkpt><trkpt lat="37.8887589" lon="-3.0702142"><ele>684.0</ele><time>2026-04-11T18:06:31.39Z</time></trkpt><trkpt lat="37.8888914" lon="-3.0701787"><ele>685.0</ele><time>2026-04-11T18:06:32.389Z</time></trkpt><trkpt lat="37.8890212" lon="-3.0701417"><ele>686.0</ele><time>2026-04-11T18:06:33.39Z</time></trkpt><trkpt lat="37.8891518" lon="-3.0701045"><ele>687.25</ele><time>2026-04-11T18:06:34.39Z</time></trkpt><trkpt lat="37.8892816" lon="-3.07007"><ele>688.5</ele><time>2026-04-11T18:06:35.39Z</time></trkpt><trkpt lat="37.8894098" lon="-3.0700405"><ele>689.75</ele><time>2026-04-11T18:06:36.389Z</time></trkpt><trkpt lat="37.8895333" lon="-3.0700154"><ele>691.0</ele><time>2026-04-11T18:06:37.39Z</time></trkpt><trkpt lat="37.8896613" lon="-3.0699815"><ele>691.0</ele><time>2026-04-11T18:06:38.39Z</time></trkpt><trkpt lat="37.8897945" lon="-3.0699543"><ele>691.0</ele><time>2026-04-11T18:06:39.39Z</time></trkpt><trkpt lat="37.8899017" lon="-3.0698758"><ele>691.0</ele><time>2026-04-11T18:06:40.39Z</time></trkpt><trkpt lat="37.8900012" lon="-3.0697931"><ele>691.0</ele><time>2026-04-11T18:06:41.39Z</time></trkpt><trkpt lat="37.8900755" lon="-3.0696811"><ele>692.0</ele><time>2026-04-11T18:06:42.39Z</time></trkpt><trkpt lat="37.8901353" lon="-3.0695476"><ele>693.0</ele><time>2026-04-11T18:06:43.39Z</time></trkpt><trkpt lat="37.8901807" lon="-3.0694017"><ele>694.0</ele><time>2026-04-11T18:06:44.39Z</time></trkpt><trkpt lat="37.8902256" lon="-3.0692451"><ele>695.0</ele><time>2026-04-11T18:06:45.389Z</time></trkpt><trkpt lat="37.890271" lon="-3.0690867"><ele>696.0</ele><time>2026-04-11T18:06:46.39Z</time></trkpt><trkpt lat="37.8903138" lon="-3.0689275"><ele>697.0</ele><time>2026-04-11T18:06:47.389Z</time></trkpt><trkpt lat="37.8903485" lon="-3.0687576"><ele>698.0</ele><time>2026-04-11T18:06:48.39Z</time></trkpt><trkpt lat="37.8903741" lon="-3.068583"><ele>699.0</ele><time>2026-04-11T18:06:49.39Z</time></trkpt><trkpt lat="37.8903946" lon="-3.0684154"><ele>699.25</ele><time>2026-04-11T18:06:50.39Z</time></trkpt><trkpt lat="37.890413" lon="-3.0682449"><ele>699.5</ele><time>2026-04-11T18:06:51.39Z</time></trkpt><trkpt lat="37.890433" lon="-3.0680759"><ele>699.75</ele><time>2026-04-11T18:06:52.39Z</time></trkpt><trkpt lat="37.8904548" lon="-3.0678992"><ele>700.0</ele><time>2026-04-11T18:06:53.39Z</time></trkpt><trkpt lat="37.8904745" lon="-3.0677314"><ele>700.0</ele><time>2026-04-11T18:06:54.39Z</time></trkpt><trkpt lat="37.8904936" lon="-3.0675618"><ele>700.0</ele><time>2026-04-11T18:06:55.39Z</time></trkpt><trkpt lat="37.8905148" lon="-3.0673872"><ele>700.0</ele><time>2026-04-11T18:06:56.39Z</time></trkpt><trkpt lat="37.890537" lon="-3.0672126"><ele>700.0</ele><time>2026-04-11T18:06:57.39Z</time></trkpt><trkpt lat="37.8905545" lon="-3.0670505"><ele>700.75</ele><time>2026-04-11T18:06:58.39Z</time></trkpt><trkpt lat="37.890574" lon="-3.0668819"><ele>701.5</ele><time>2026-04-11T18:06:59.39Z</time></trkpt><trkpt lat="37.8905945" lon="-3.0667156"><ele>702.25</ele><time>2026-04-11T18:07:00.39Z</time></trkpt><trkpt lat="37.8906168" lon="-3.0665553"><ele>703.0</ele><time>2026-04-11T18:07:01.39Z</time></trkpt><trkpt lat="37.890643" lon="-3.0663972"><ele>704.0</ele><time>2026-04-11T18:07:02.39Z</time></trkpt><trkpt lat="37.8906662" lon="-3.0662413"><ele>705.0</ele><time>2026-04-11T18:07:03.389Z</time></trkpt><trkpt lat="37.8906864" lon="-3.0660858"><ele>706.0</ele><time>2026-04-11T18:07:04.39Z</time></trkpt><trkpt lat="37.8907006" lon="-3.0659282"><ele>707.0</ele><time>2026-04-11T18:07:05.39Z</time></trkpt><trkpt lat="37.8906999" lon="-3.0657657"><ele>709.0</ele><time>2026-04-11T18:07:06.39Z</time></trkpt><trkpt lat="37.8906817" lon="-3.0656002"><ele>711.0</ele><time>2026-04-11T18:07:07.39Z</time></trkpt><trkpt lat="37.8906475" lon="-3.0654376"><ele>713.0</ele><time>2026-04-11T18:07:08.39Z</time></trkpt><trkpt lat="37.8906042" lon="-3.0652767"><ele>715.0</ele><time>2026-04-11T18:07:09.39Z</time></trkpt><trkpt lat="37.8905504" lon="-3.065119"><ele>715.0</ele><time>2026-04-11T18:07:10.39Z</time></trkpt><trkpt lat="37.8904872" lon="-3.0649581"><ele>715.0</ele><time>2026-04-11T18:07:11.39Z</time></trkpt><trkpt lat="37.8904224" lon="-3.0648026"><ele>715.0</ele><time>2026-04-11T18:07:12.39Z</time></trkpt><trkpt lat="37.8903575" lon="-3.0646439"><ele>715.0</ele><time>2026-04-11T18:07:13.39Z</time></trkpt><trkpt lat="37.8902951" lon="-3.0644916"><ele>715.0</ele><time>2026-04-11T18:07:14.39Z</time></trkpt><trkpt lat="37.8902401" lon="-3.0643383"><ele>715.0</ele><time>2026-04-11T18:07:15.39Z</time></trkpt><trkpt lat="37.8901769" lon="-3.0641957"><ele>715.0</ele><time>2026-04-11T18:07:16.39Z</time></trkpt><trkpt lat="37.8901149" lon="-3.0640571"><ele>715.0</ele><time>2026-04-11T18:07:17.39Z</time></trkpt><trkpt lat="37.89006" lon="-3.0639199"><ele>715.0</ele><time>2026-04-11T18:07:18.389Z</time></trkpt><trkpt lat="37.8900207" lon="-3.0637823"><ele>715.0</ele><time>2026-04-11T18:07:19.39Z</time></trkpt><trkpt lat="37.8900106" lon="-3.0636386"><ele>715.0</ele><time>2026-04-11T18:07:20.39Z</time></trkpt><trkpt lat="37.8900276" lon="-3.0634928"><ele>715.0</ele><time>2026-04-11T18:07:21.39Z</time></trkpt><trkpt lat="37.8900589" lon="-3.0633448"><ele>718.0</ele><time>2026-04-11T18:07:22.39Z</time></trkpt><trkpt lat="37.8901153" lon="-3.0632102"><ele>721.0</ele><time>2026-04-11T18:07:23.39Z</time></trkpt><trkpt lat="37.8901857" lon="-3.0630834"><ele>724.0</ele><time>2026-04-11T18:07:24.389Z</time></trkpt><trkpt lat="37.8902606" lon="-3.0629504"><ele>727.0</ele><time>2026-04-11T18:07:25.389Z</time></trkpt><trkpt lat="37.8903359" lon="-3.0628174"><ele>727.0</ele><time>2026-04-11T18:07:26.39Z</time></trkpt><trkpt lat="37.8904079" lon="-3.0626829"><ele>727.0</ele><time>2026-04-11T18:07:27.39Z</time></trkpt><trkpt lat="37.8904837" lon="-3.0625482"><ele>727.0</ele><time>2026-04-11T18:07:28.39Z</time></trkpt><trkpt lat="37.8905605" lon="-3.0624138"><ele>727.0</ele><time>2026-04-11T18:07:29.389Z</time></trkpt><trkpt lat="37.8906482" lon="-3.0622907"><ele>726.0</ele><time>2026-04-11T18:07:30.39Z</time></trkpt><trkpt lat="37.8907544" lon="-3.0621825"><ele>725.0</ele><time>2026-04-11T18:07:31.39Z</time></trkpt><trkpt lat="37.8908763" lon="-3.0620873"><ele>724.0</ele><time>2026-04-11T18:07:32.39Z</time></trkpt><trkpt lat="37.8910013" lon="-3.0620008"><ele>723.0</ele><time>2026-04-11T18:07:33.39Z</time></trkpt><trkpt lat="37.8911282" lon="-3.061915"><ele>724.75</ele><time>2026-04-11T18:07:34.39Z</time></trkpt><trkpt lat="37.8912534" lon="-3.0618261"><ele>726.5</ele><time>2026-04-11T18:07:35.39Z</time></trkpt><trkpt lat="37.891378" lon="-3.061739"><ele>728.25</ele><time>2026-04-11T18:07:36.39Z</time></trkpt><trkpt lat="37.8915066" lon="-3.0616516"><ele>730.0</ele><time>2026-04-11T18:07:37.39Z</time></trkpt><trkpt lat="37.8916355" lon="-3.0615635"><ele>731.75</ele><time>2026-04-11T18:07:38.39Z</time></trkpt><trkpt lat="37.8917626" lon="-3.0614774"><ele>733.5</ele><time>2026-04-11T18:07:39.39Z</time></trkpt><trkpt lat="37.8918918" lon="-3.0613884"><ele>735.25</ele><time>2026-04-11T18:07:40.39Z</time></trkpt><trkpt lat="37.892021" lon="-3.0613019"><ele>737.0</ele><time>2026-04-11T18:07:41.39Z</time></trkpt><trkpt lat="37.8921505" lon="-3.0612163"><ele>737.0</ele><time>2026-04-11T18:07:42.39Z</time></trkpt><trkpt lat="37.8922791" lon="-3.061126"><ele>737.0</ele><time>2026-04-11T18:07:43.39Z</time></trkpt><trkpt lat="37.8923956" lon="-3.0610226"><ele>737.0</ele><time>2026-04-11T18:07:44.39Z</time></trkpt><trkpt lat="37.8925075" lon="-3.0609176"><ele>737.0</ele><time>2026-04-11T18:07:45.39Z</time></trkpt><trkpt lat="37.8926289" lon="-3.0608097"><ele>738.0</ele><time>2026-04-11T18:07:46.39Z</time></trkpt><trkpt lat="37.8927494" lon="-3.0607014"><ele>739.0</ele><time>2026-04-11T18:07:47.39Z</time></trkpt><trkpt lat="37.8928667" lon="-3.0605906"><ele>740.0</ele><time>2026-04-11T18:07:48.39Z</time></trkpt><trkpt lat="37.8929867" lon="-3.060472"><ele>741.0</ele><time>2026-04-11T18:07:49.39Z</time></trkpt><trkpt lat="37.8931081" lon="-3.0603564"><ele>741.0</ele><time>2026-04-11T18:07:50.39Z</time></trkpt><trkpt lat="37.8932336" lon="-3.0602437"><ele>741.0</ele><time>2026-04-11T18:07:51.39Z</time></trkpt><trkpt lat="37.8933609" lon="-3.0601264"><ele>741.0</ele><time>2026-04-11T18:07:52.389Z</time></trkpt><trkpt lat="37.8934864" lon="-3.0600067"><ele>743.3333333333334</ele><time>2026-04-11T18:07:53.39Z</time></trkpt><trkpt lat="37.8936058" lon="-3.0598773"><ele>745.6666666666667</ele><time>2026-04-11T18:07:54.39Z</time></trkpt><trkpt lat="37.893714" lon="-3.0597347"><ele>748.0</ele><time>2026-04-11T18:07:55.39Z</time></trkpt><trkpt lat="37.8938092" lon="-3.0595802"><ele>748.0</ele><time>2026-04-11T18:07:56.389Z</time></trkpt><trkpt lat="37.8938901" lon="-3.0594114"><ele>748.0</ele><time>2026-04-11T18:07:57.39Z</time></trkpt><trkpt lat="37.8939492" lon="-3.0592296"><ele>748.0</ele><time>2026-04-11T18:07:58.39Z</time></trkpt><trkpt lat="37.8940105" lon="-3.0590451"><ele>749.3333333333334</ele><time>2026-04-11T18:07:59.39Z</time></trkpt><trkpt lat="37.8940201" lon="-3.0588454"><ele>750.6666666666666</ele><time>2026-04-11T18:08:00.39Z</time></trkpt><trkpt lat="37.8940401" lon="-3.0586577"><ele>752.0</ele><time>2026-04-11T18:08:01.39Z</time></trkpt><trkpt lat="37.8940245" lon="-3.0584596"><ele>754.6666666666666</ele><time>2026-04-11T18:08:02.389Z</time></trkpt><trkpt lat="37.8939989" lon="-3.0582688"><ele>757.3333333333334</ele><time>2026-04-11T18:08:03.39Z</time></trkpt><trkpt lat="37.8939582" lon="-3.0580888"><ele>760.0</ele><time>2026-04-11T18:08:04.39Z</time></trkpt><trkpt lat="37.8938998" lon="-3.0579133"><ele>760.0</ele><time>2026-04-11T18:08:05.39Z</time></trkpt><trkpt lat="37.8938269" lon="-3.057746"><ele>760.0</ele><time>2026-04-11T18:08:06.39Z</time></trkpt><trkpt lat="37.8937397" lon="-3.0575891"><ele>760.0</ele><time>2026-04-11T18:08:07.389Z</time></trkpt><trkpt lat="37.8936455" lon="-3.0574391"><ele>761.6666666666667</ele><time>2026-04-11T18:08:08.39Z</time></trkpt><trkpt lat="37.893556" lon="-3.057289"><ele>763.3333333333334</ele><time>2026-04-11T18:08:09.39Z</time></trkpt><trkpt lat="37.8934732" lon="-3.0571271"><ele>765.0</ele><time>2026-04-11T18:08:10.389Z</time></trkpt><trkpt lat="37.8934017" lon="-3.0569544"><ele>765.0</ele><time>2026-04-11T18:08:11.389Z</time></trkpt><trkpt lat="37.893342" lon="-3.05677"><ele>765.0</ele><time>2026-04-11T18:08:12.389Z</time></trkpt><trkpt lat="37.8932905" lon="-3.0565831"><ele>765.0</ele><time>2026-04-11T18:08:13.39Z</time></trkpt><trkpt lat="37.8932438" lon="-3.0563963"><ele>767.3333333333333</ele><time>2026-04-11T18:08:14.39Z</time></trkpt><trkpt lat="37.8932066" lon="-3.0562084"><ele>769.6666666666666</ele><time>2026-04-11T18:08:15.389Z</time></trkpt><trkpt lat="37.8931811" lon="-3.0560157"><ele>772.0</ele><time>2026-04-11T18:08:16.39Z</time></trkpt><trkpt lat="37.8931644" lon="-3.0558233"><ele>773.75</ele><time>2026-04-11T18:08:17.39Z</time></trkpt><trkpt lat="37.8931482" lon="-3.0556403"><ele>775.5</ele><time>2026-04-11T18:08:18.389Z</time></trkpt><trkpt lat="37.893128" lon="-3.055466"><ele>777.25</ele><time>2026-04-11T18:08:19.39Z</time></trkpt><trkpt lat="37.893102" lon="-3.0553001"><ele>779.0</ele><time>2026-04-11T18:08:20.39Z</time></trkpt><trkpt lat="37.8930599" lon="-3.0551417"><ele>779.0</ele><time>2026-04-11T18:08:21.39Z</time></trkpt><trkpt lat="37.8929888" lon="-3.054994"><ele>779.0</ele><time>2026-04-11T18:08:22.39Z</time></trkpt><trkpt lat="37.8928976" lon="-3.0548616"><ele>779.0</ele><time>2026-04-11T18:08:23.39Z</time></trkpt><trkpt lat="37.8928028" lon="-3.0547359"><ele>779.0</ele><time>2026-04-11T18:08:24.389Z</time></trkpt><trkpt lat="37.8927087" lon="-3.0546031"><ele>779.75</ele><time>2026-04-11T18:08:25.39Z</time></trkpt><trkpt lat="37.8926164" lon="-3.054478"><ele>780.5</ele><time>2026-04-11T18:08:26.39Z</time></trkpt><trkpt lat="37.8925225" lon="-3.0543571"><ele>781.25</ele><time>2026-04-11T18:08:27.39Z</time></trkpt><trkpt lat="37.892434" lon="-3.0542288"><ele>782.0</ele><time>2026-04-11T18:08:28.389Z</time></trkpt><trkpt lat="37.8923499" lon="-3.0540973"><ele>784.0</ele><time>2026-04-11T18:08:29.389Z</time></trkpt><trkpt lat="37.8922764" lon="-3.0539494"><ele>786.0</ele><time>2026-04-11T18:08:30.39Z</time></trkpt><trkpt lat="37.8922154" lon="-3.0537999"><ele>788.0</ele><time>2026-04-11T18:08:31.39Z</time></trkpt><trkpt lat="37.8921617" lon="-3.0536539"><ele>790.0</ele><time>2026-04-11T18:08:32.389Z</time></trkpt><trkpt lat="37.8921092" lon="-3.0535025"><ele>790.0</ele><time>2026-04-11T18:08:33.39Z</time></trkpt><trkpt lat="37.892058" lon="-3.053359"><ele>790.0</ele><time>2026-04-11T18:08:34.39Z</time></trkpt><trkpt lat="37.8920063" lon="-3.0532182"><ele>790.0</ele><time>2026-04-11T18:08:35.39Z</time></trkpt><trkpt lat="37.8919532" lon="-3.0530766"><ele>790.0</ele><time>2026-04-11T18:08:36.389Z</time></trkpt><trkpt lat="37.891904" lon="-3.0529376"><ele>789.75</ele><time>2026-04-11T18:08:37.39Z</time></trkpt><trkpt lat="37.8918552" lon="-3.0527952"><ele>789.5</ele><time>2026-04-11T18:08:38.39Z</time></trkpt><trkpt lat="37.8918231" lon="-3.0526486"><ele>789.25</ele><time>2026-04-11T18:08:39.39Z</time></trkpt><trkpt lat="37.8918105" lon="-3.0524996"><ele>789.0</ele><time>2026-04-11T18:08:40.39Z</time></trkpt><trkpt lat="37.8918218" lon="-3.0523427"><ele>789.0</ele><time>2026-04-11T18:08:41.389Z</time></trkpt><trkpt lat="37.8918487" lon="-3.0521846"><ele>789.0</ele><time>2026-04-11T18:08:42.39Z</time></trkpt><trkpt lat="37.8918815" lon="-3.0520214"><ele>789.0</ele><time>2026-04-11T18:08:43.39Z</time></trkpt><trkpt lat="37.8919175" lon="-3.0518639"><ele>789.0</ele><time>2026-04-11T18:08:44.39Z</time></trkpt><trkpt lat="37.8919538" lon="-3.0517138"><ele>788.75</ele><time>2026-04-11T18:08:45.389Z</time></trkpt><trkpt lat="37.8919882" lon="-3.0515655"><ele>788.5</ele><time>2026-04-11T18:08:46.39Z</time></trkpt><trkpt lat="37.8920292" lon="-3.0514349"><ele>788.25</ele><time>2026-04-11T18:08:47.389Z</time></trkpt><trkpt lat="37.892085" lon="-3.0513096"><ele>788.0</ele><time>2026-04-11T18:08:48.39Z</time></trkpt><trkpt lat="37.8921634" lon="-3.0512098"><ele>788.0</ele><time>2026-04-11T18:08:49.39Z</time></trkpt><trkpt lat="37.8922658" lon="-3.0511209"><ele>788.0</ele><time>2026-04-11T18:08:50.39Z</time></trkpt><trkpt lat="37.8923773" lon="-3.0510419"><ele>788.0</ele><time>2026-04-11T18:08:51.39Z</time></trkpt><trkpt lat="37.8924973" lon="-3.0509547"><ele>788.0</ele><time>2026-04-11T18:08:52.39Z</time></trkpt><trkpt lat="37.8926226" lon="-3.0508602"><ele>787.25</ele><time>2026-04-11T18:08:53.39Z</time></trkpt><trkpt lat="37.8927539" lon="-3.050769"><ele>786.5</ele><time>2026-04-11T18:08:54.389Z</time></trkpt><trkpt lat="37.8928834" lon="-3.0506801"><ele>785.75</ele><time>2026-04-11T18:08:55.39Z</time></trkpt><trkpt lat="37.8930116" lon="-3.0505868"><ele>785.0</ele><time>2026-04-11T18:08:56.39Z</time></trkpt><trkpt lat="37.8931352" lon="-3.0504747"><ele>785.0</ele><time>2026-04-11T18:08:57.39Z</time></trkpt><trkpt lat="37.8932438" lon="-3.0503428"><ele>785.0</ele><time>2026-04-11T18:08:58.39Z</time></trkpt><trkpt lat="37.8933351" lon="-3.0501919"><ele>785.0</ele><time>2026-04-11T18:08:59.39Z</time></trkpt><trkpt lat="37.8934182" lon="-3.0500265"><ele>783.6666666666667</ele><time>2026-04-11T18:09:00.39Z</time></trkpt><trkpt lat="37.8934941" lon="-3.0498574"><ele>782.3333333333333</ele><time>2026-04-11T18:09:01.39Z</time></trkpt><trkpt lat="37.8935691" lon="-3.0496859"><ele>781.0</ele><time>2026-04-11T18:09:02.389Z</time></trkpt><trkpt lat="37.8936442" lon="-3.0495173"><ele>781.0</ele><time>2026-04-11T18:09:03.39Z</time></trkpt><trkpt lat="37.893718" lon="-3.0493492"><ele>781.0</ele><time>2026-04-11T18:09:04.389Z</time></trkpt><trkpt lat="37.8937906" lon="-3.0491855"><ele>781.0</ele><time>2026-04-11T18:09:05.39Z</time></trkpt><trkpt lat="37.8938607" lon="-3.0490288"><ele>781.0</ele><time>2026-04-11T18:09:06.39Z</time></trkpt><trkpt lat="37.8939332" lon="-3.0488718"><ele>783.25</ele><time>2026-04-11T18:09:07.39Z</time></trkpt><trkpt lat="37.8939992" lon="-3.0487124"><ele>785.5</ele><time>2026-04-11T18:09:08.39Z</time></trkpt><trkpt lat="37.8940661" lon="-3.0485583"><ele>787.75</ele><time>2026-04-11T18:09:09.39Z</time></trkpt><trkpt lat="37.894134" lon="-3.0484006"><ele>790.0</ele><time>2026-04-11T18:09:10.389Z</time></trkpt><trkpt lat="37.8941978" lon="-3.0482441"><ele>789.5</ele><time>2026-04-11T18:09:11.39Z</time></trkpt><trkpt lat="37.8942605" lon="-3.0480992"><ele>789.0</ele><time>2026-04-11T18:09:12.39Z</time></trkpt><trkpt lat="37.8943335" lon="-3.0479601"><ele>788.5</ele><time>2026-04-11T18:09:13.39Z</time></trkpt><trkpt lat="37.8944235" lon="-3.0478389"><ele>788.0</ele><time>2026-04-11T18:09:14.389Z</time></trkpt><trkpt lat="37.8945312" lon="-3.0477442"><ele>788.0</ele><time>2026-04-11T18:09:15.39Z</time></trkpt><trkpt lat="37.8946621" lon="-3.0476871"><ele>788.0</ele><time>2026-04-11T18:09:16.39Z</time></trkpt><trkpt lat="37.894801" lon="-3.0476436"><ele>788.0</ele><time>2026-04-11T18:09:17.39Z</time></trkpt><trkpt lat="37.8949469" lon="-3.0475996"><ele>788.0</ele><time>2026-04-11T18:09:18.389Z</time></trkpt><trkpt lat="37.8950874" lon="-3.047551"><ele>788.0</ele><time>2026-04-11T18:09:19.39Z</time></trkpt><trkpt lat="37.8952317" lon="-3.0475031"><ele>788.0</ele><time>2026-04-11T18:09:20.39Z</time></trkpt><trkpt lat="37.8953663" lon="-3.0474565"><ele>788.0</ele><time>2026-04-11T18:09:21.39Z</time></trkpt><trkpt lat="37.895492" lon="-3.0474154"><ele>788.0</ele><time>2026-04-11T18:09:22.39Z</time></trkpt><trkpt lat="37.8956053" lon="-3.0473753"><ele>788.0</ele><time>2026-04-11T18:09:23.39Z</time></trkpt><trkpt lat="37.8957012" lon="-3.0473125"><ele>788.0</ele><time>2026-04-11T18:09:24.39Z</time></trkpt><trkpt lat="37.8957807" lon="-3.0472167"><ele>788.0</ele><time>2026-04-11T18:09:25.39Z</time></trkpt><trkpt lat="37.8958337" lon="-3.0470932"><ele>788.0</ele><time>2026-04-11T18:09:26.39Z</time></trkpt><trkpt lat="37.8958555" lon="-3.0469464"><ele>788.0</ele><time>2026-04-11T18:09:27.39Z</time></trkpt><trkpt lat="37.8958578" lon="-3.0467921"><ele>788.0</ele><time>2026-04-11T18:09:28.389Z</time></trkpt><trkpt lat="37.8958615" lon="-3.0466347"><ele>788.0</ele><time>2026-04-11T18:09:29.39Z</time></trkpt><trkpt lat="37.8958681" lon="-3.0464791"><ele>788.0</ele><time>2026-04-11T18:09:30.39Z</time></trkpt><trkpt lat="37.8958733" lon="-3.0463238"><ele>788.0</ele><time>2026-04-11T18:09:31.39Z</time></trkpt><trkpt lat="37.8958749" lon="-3.0461714"><ele>788.75</ele><time>2026-04-11T18:09:32.39Z</time></trkpt><trkpt lat="37.8958765" lon="-3.0460146"><ele>789.5</ele><time>2026-04-11T18:09:33.39Z</time></trkpt><trkpt lat="37.8958951" lon="-3.0458607"><ele>790.25</ele><time>2026-04-11T18:09:34.39Z</time></trkpt><trkpt lat="37.8959208" lon="-3.0457092"><ele>791.0</ele><time>2026-04-11T18:09:35.39Z</time></trkpt><trkpt lat="37.8959549" lon="-3.045564"><ele>791.0</ele><time>2026-04-11T18:09:36.389Z</time></trkpt><trkpt lat="37.8959787" lon="-3.0454259"><ele>791.0</ele><time>2026-04-11T18:09:37.39Z</time></trkpt><trkpt lat="37.8959922" lon="-3.0452916"><ele>791.0</ele><time>2026-04-11T18:09:38.389Z</time></trkpt><trkpt lat="37.8959942" lon="-3.0451441"><ele>791.0</ele><time>2026-04-11T18:09:39.39Z</time></trkpt><trkpt lat="37.8959805" lon="-3.0450028"><ele>791.0</ele><time>2026-04-11T18:09:40.39Z</time></trkpt><trkpt lat="37.895952" lon="-3.0448586"><ele>790.5</ele><time>2026-04-11T18:09:41.39Z</time></trkpt><trkpt lat="37.8959166" lon="-3.0447128"><ele>790.0</ele><time>2026-04-11T18:09:42.39Z</time></trkpt><trkpt lat="37.8958692" lon="-3.0445769"><ele>789.5</ele><time>2026-04-11T18:09:43.389Z</time></trkpt><trkpt lat="37.8957993" lon="-3.0444694"><ele>789.0</ele><time>2026-04-11T18:09:44.39Z</time></trkpt><trkpt lat="37.8957115" lon="-3.0443595"><ele>789.0</ele><time>2026-04-11T18:09:45.39Z</time></trkpt><trkpt lat="37.8956384" lon="-3.044249"><ele>789.0</ele><time>2026-04-11T18:09:46.39Z</time></trkpt><trkpt lat="37.8955808" lon="-3.0441332"><ele>789.0</ele><time>2026-04-11T18:09:47.39Z</time></trkpt><trkpt lat="37.8955483" lon="-3.0440007"><ele>789.0</ele><time>2026-04-11T18:09:48.389Z</time></trkpt><trkpt lat="37.8955503" lon="-3.0438704"><ele>789.0</ele><time>2026-04-11T18:09:49.39Z</time></trkpt><trkpt lat="37.8955824" lon="-3.0437413"><ele>790.25</ele><time>2026-04-11T18:09:50.39Z</time></trkpt><trkpt lat="37.8956353" lon="-3.0436259"><ele>791.5</ele><time>2026-04-11T18:09:51.39Z</time></trkpt><trkpt lat="37.8957297" lon="-3.0435435"><ele>792.75</ele><time>2026-04-11T18:09:52.39Z</time></trkpt><trkpt lat="37.8958395" lon="-3.0435021"><ele>794.0</ele><time>2026-04-11T18:09:53.39Z</time></trkpt><trkpt lat="37.895961" lon="-3.043501"><ele>796.5</ele><time>2026-04-11T18:09:54.39Z</time></trkpt><trkpt lat="37.8960837" lon="-3.0435344"><ele>799.0</ele><time>2026-04-11T18:09:55.39Z</time></trkpt><trkpt lat="37.8962113" lon="-3.0435964"><ele>801.5</ele><time>2026-04-11T18:09:56.39Z</time></trkpt><trkpt lat="37.89634" lon="-3.0436666"><ele>804.0</ele><time>2026-04-11T18:09:57.39Z</time></trkpt><trkpt lat="37.8964754" lon="-3.0437403"><ele>804.0</ele><time>2026-04-11T18:09:58.39Z</time></trkpt><trkpt lat="37.896611" lon="-3.0438174"><ele>804.0</ele><time>2026-04-11T18:09:59.39Z</time></trkpt><trkpt lat="37.8967467" lon="-3.0438958"><ele>804.0</ele><time>2026-04-11T18:10:00.39Z</time></trkpt><trkpt lat="37.8968767" lon="-3.0439672"><ele>804.0</ele><time>2026-04-11T18:10:01.39Z</time></trkpt><trkpt lat="37.8970161" lon="-3.0440442"><ele>804.6666666666667</ele><time>2026-04-11T18:10:02.39Z</time></trkpt><trkpt lat="37.8971502" lon="-3.0441228"><ele>805.3333333333334</ele><time>2026-04-11T18:10:03.39Z</time></trkpt><trkpt lat="37.8972878" lon="-3.0441991"><ele>806.0</ele><time>2026-04-11T18:10:04.389Z</time></trkpt><trkpt lat="37.8974327" lon="-3.0442839"><ele>806.0</ele><time>2026-04-11T18:10:05.39Z</time></trkpt><trkpt lat="37.897555" lon="-3.0443554"><ele>806.0</ele><time>2026-04-11T18:10:06.39Z</time></trkpt><trkpt lat="37.8976701" lon="-3.0444253"><ele>806.0</ele><time>2026-04-11T18:10:07.389Z</time></trkpt><trkpt lat="37.8977784" lon="-3.0444859"><ele>806.0</ele><time>2026-04-11T18:10:08.39Z</time></trkpt><trkpt lat="37.8978842" lon="-3.0445214"><ele>805.5999999999999</ele><time>2026-04-11T18:10:09.389Z</time></trkpt><trkpt lat="37.8979968" lon="-3.0445275"><ele>805.2</ele><time>2026-04-11T18:10:10.39Z</time></trkpt><trkpt lat="37.8981067" lon="-3.0444941"><ele>804.8</ele><time>2026-04-11T18:10:11.39Z</time></trkpt><trkpt lat="37.8982075" lon="-3.0444353"><ele>804.4000000000001</ele><time>2026-04-11T18:10:12.39Z</time></trkpt><trkpt lat="37.8982903" lon="-3.044345"><ele>804.0</ele><time>2026-04-11T18:10:13.389Z</time></trkpt><trkpt lat="37.8983485" lon="-3.0442312"><ele>805.2</ele><time>2026-04-11T18:10:14.39Z</time></trkpt><trkpt lat="37.8983689" lon="-3.0440911"><ele>806.4000000000001</ele><time>2026-04-11T18:10:15.39Z</time></trkpt><trkpt lat="37.8983814" lon="-3.0439491"><ele>807.6</ele><time>2026-04-11T18:10:16.39Z</time></trkpt><trkpt lat="37.8983939" lon="-3.043807"><ele>808.8</ele><time>2026-04-11T18:10:17.389Z</time></trkpt><trkpt lat="37.898405" lon="-3.0436669"><ele>810.0</ele><time>2026-04-11T18:10:18.39Z</time></trkpt><trkpt lat="37.8984134" lon="-3.0435288"><ele>810.2</ele><time>2026-04-11T18:10:19.39Z</time></trkpt><trkpt lat="37.8984187" lon="-3.0433955"><ele>810.4</ele><time>2026-04-11T18:10:20.39Z</time></trkpt><trkpt lat="37.898417" lon="-3.0432751"><ele>810.5999999999999</ele><time>2026-04-11T18:10:21.39Z</time></trkpt><trkpt lat="37.8984095" lon="-3.0431522"><ele>810.8</ele><time>2026-04-11T18:10:22.389Z</time></trkpt><trkpt lat="37.8983979" lon="-3.0430323"><ele>811.0</ele><time>2026-04-11T18:10:23.39Z</time></trkpt><trkpt lat="37.8983879" lon="-3.0429209"><ele>810.9999999999999</ele><time>2026-04-11T18:10:24.39Z</time></trkpt><trkpt lat="37.8983721" lon="-3.0428093"><ele>811.0</ele><time>2026-04-11T18:10:25.39Z</time></trkpt><trkpt lat="37.8983539" lon="-3.0427025"><ele>811.0</ele><time>2026-04-11T18:10:26.39Z</time></trkpt><trkpt lat="37.8983385" lon="-3.0426012"><ele>811.0</ele><time>2026-04-11T18:10:27.389Z</time></trkpt><trkpt lat="37.8983113" lon="-3.0425047"><ele>810.9999999999999</ele><time>2026-04-11T18:10:28.39Z</time></trkpt><trkpt lat="37.8982818" lon="-3.0424196"><ele>811.0</ele><time>2026-04-11T18:10:29.39Z</time></trkpt><trkpt lat="37.8982457" lon="-3.0422909"><ele>811.4</ele><time>2026-04-11T18:10:31.389Z</time></trkpt><trkpt lat="37.8982129" lon="-3.0421779"><ele>811.8</ele><time>2026-04-11T18:10:33.39Z</time></trkpt><trkpt lat="37.8981818" lon="-3.0420732"><ele>812.1999999999999</ele><time>2026-04-11T18:10:35.39Z</time></trkpt><trkpt lat="37.8981443" lon="-3.0419396"><ele>812.5999999999999</ele><time>2026-04-11T18:10:37.39Z</time></trkpt><trkpt lat="37.8981139" lon="-3.0418559"><ele>813.0</ele><time>2026-04-11T18:10:38.39Z</time></trkpt><trkpt lat="37.8980851" lon="-3.0417575"><ele>813.0</ele><time>2026-04-11T18:10:39.39Z</time></trkpt><trkpt lat="37.8980493" lon="-3.0416731"><ele>813.0</ele><time>2026-04-11T18:10:40.39Z</time></trkpt><trkpt lat="37.8980252" lon="-3.0415739"><ele>813.0</ele><time>2026-04-11T18:10:41.39Z</time></trkpt><trkpt lat="37.8980155" lon="-3.0414708"><ele>813.0</ele><time>2026-04-11T18:10:42.39Z</time></trkpt><trkpt lat="37.8980198" lon="-3.0413661"><ele>813.0</ele><time>2026-04-11T18:10:43.39Z</time></trkpt><trkpt lat="37.8980495" lon="-3.0412566"><ele>813.0</ele><time>2026-04-11T18:10:44.39Z</time></trkpt><trkpt lat="37.8980972" lon="-3.0411524"><ele>814.4</ele><time>2026-04-11T18:10:45.39Z</time></trkpt><trkpt lat="37.8981685" lon="-3.0410604"><ele>815.8</ele><time>2026-04-11T18:10:46.389Z</time></trkpt><trkpt lat="37.8982599" lon="-3.0409832"><ele>817.2</ele><time>2026-04-11T18:10:47.39Z</time></trkpt><trkpt lat="37.8983681" lon="-3.0409368"><ele>818.6</ele><time>2026-04-11T18:10:48.39Z</time></trkpt><trkpt lat="37.8984878" lon="-3.0409267"><ele>820.0</ele><time>2026-04-11T18:10:49.39Z</time></trkpt><trkpt lat="37.8986017" lon="-3.0409143"><ele>820.0</ele><time>2026-04-11T18:10:50.39Z</time></trkpt><trkpt lat="37.898735" lon="-3.0409694"><ele>820.0</ele><time>2026-04-11T18:10:51.39Z</time></trkpt><trkpt lat="37.8988593" lon="-3.0410048"><ele>820.0</ele><time>2026-04-11T18:10:52.39Z</time></trkpt><trkpt lat="37.898974" lon="-3.0410289"><ele>820.0</ele><time>2026-04-11T18:10:53.39Z</time></trkpt><trkpt lat="37.8990891" lon="-3.0410329"><ele>820.0</ele><time>2026-04-11T18:10:54.39Z</time></trkpt><trkpt lat="37.8992074" lon="-3.0410143"><ele>820.0</ele><time>2026-04-11T18:10:55.39Z</time></trkpt><trkpt lat="37.8993335" lon="-3.0409833"><ele>820.0</ele><time>2026-04-11T18:10:56.39Z</time></trkpt><trkpt lat="37.8994622" lon="-3.0409465"><ele>820.0</ele><time>2026-04-11T18:10:57.39Z</time></trkpt><trkpt lat="37.8995966" lon="-3.0409143"><ele>820.75</ele><time>2026-04-11T18:10:58.39Z</time></trkpt><trkpt lat="37.8997174" lon="-3.0408748"><ele>821.5</ele><time>2026-04-11T18:10:59.39Z</time></trkpt><trkpt lat="37.8998335" lon="-3.0408361"><ele>822.25</ele><time>2026-04-11T18:11:00.39Z</time></trkpt><trkpt lat="37.8999501" lon="-3.0407978"><ele>823.0</ele><time>2026-04-11T18:11:01.39Z</time></trkpt><trkpt lat="37.9000697" lon="-3.040757"><ele>824.5</ele><time>2026-04-11T18:11:02.39Z</time></trkpt><trkpt lat="37.9001888" lon="-3.0407231"><ele>826.0</ele><time>2026-04-11T18:11:03.39Z</time></trkpt><trkpt lat="37.9003128" lon="-3.0406935"><ele>827.5</ele><time>2026-04-11T18:11:04.39Z</time></trkpt><trkpt lat="37.9004393" lon="-3.0406795"><ele>829.0</ele><time>2026-04-11T18:11:05.39Z</time></trkpt><trkpt lat="37.9005712" lon="-3.0406958"><ele>829.0</ele><time>2026-04-11T18:11:06.39Z</time></trkpt><trkpt lat="37.9007082" lon="-3.0407043"><ele>829.0</ele><time>2026-04-11T18:11:07.39Z</time></trkpt><trkpt lat="37.9008367" lon="-3.0407635"><ele>829.0</ele><time>2026-04-11T18:11:08.389Z</time></trkpt><trkpt lat="37.9009622" lon="-3.0408138"><ele>829.0</ele><time>2026-04-11T18:11:09.389Z</time></trkpt><trkpt lat="37.9010874" lon="-3.0408609"><ele>828.2</ele><time>2026-04-11T18:11:10.39Z</time></trkpt><trkpt lat="37.9012019" lon="-3.0408982"><ele>827.4000000000001</ele><time>2026-04-11T18:11:11.39Z</time></trkpt><trkpt lat="37.901308" lon="-3.0409256"><ele>826.6</ele><time>2026-04-11T18:11:12.39Z</time></trkpt><trkpt lat="37.9014098" lon="-3.0409244"><ele>825.8</ele><time>2026-04-11T18:11:13.389Z</time></trkpt><trkpt lat="37.9015042" lon="-3.0409282"><ele>825.0</ele><time>2026-04-11T18:11:14.389Z</time></trkpt><trkpt lat="37.9016011" lon="-3.0408651"><ele>826.75</ele><time>2026-04-11T18:11:15.39Z</time></trkpt><trkpt lat="37.9016908" lon="-3.0407993"><ele>828.5</ele><time>2026-04-11T18:11:16.39Z</time></trkpt><trkpt lat="37.9017733" lon="-3.0407065"><ele>830.25</ele><time>2026-04-11T18:11:17.39Z</time></trkpt><trkpt lat="37.9018402" lon="-3.0405865"><ele>832.0</ele><time>2026-04-11T18:11:18.39Z</time></trkpt><trkpt lat="37.9019021" lon="-3.0404511"><ele>828.0</ele><time>2026-04-11T18:11:19.39Z</time></trkpt><trkpt lat="37.901937" lon="-3.0403037"><ele>824.0</ele><time>2026-04-11T18:11:20.39Z</time></trkpt><trkpt lat="37.901952" lon="-3.0401517"><ele>820.0</ele><time>2026-04-11T18:11:21.39Z</time></trkpt><trkpt lat="37.9019645" lon="-3.0399975"><ele>816.0</ele><time>2026-04-11T18:11:22.39Z</time></trkpt><trkpt lat="37.901979" lon="-3.0398499"><ele>816.0</ele><time>2026-04-11T18:11:23.389Z</time></trkpt><trkpt lat="37.9019922" lon="-3.039718"><ele>816.0</ele><time>2026-04-11T18:11:24.39Z</time></trkpt><trkpt lat="37.9020019" lon="-3.0395964"><ele>816.0</ele><time>2026-04-11T18:11:25.389Z</time></trkpt><trkpt lat="37.902012" lon="-3.0394801"><ele>816.0</ele><time>2026-04-11T18:11:26.39Z</time></trkpt><trkpt lat="37.9020199" lon="-3.0393651"><ele>816.0</ele><time>2026-04-11T18:11:27.39Z</time></trkpt><trkpt lat="37.9020327" lon="-3.0392492"><ele>816.0</ele><time>2026-04-11T18:11:28.39Z</time></trkpt><trkpt lat="37.9020439" lon="-3.0391367"><ele>816.0</ele><time>2026-04-11T18:11:29.39Z</time></trkpt><trkpt lat="37.9020561" lon="-3.0390253"><ele>816.0</ele><time>2026-04-11T18:11:30.389Z</time></trkpt><trkpt lat="37.9020655" lon="-3.0389211"><ele>816.0</ele><time>2026-04-11T18:11:31.39Z</time></trkpt><trkpt lat="37.9020879" lon="-3.0388214"><ele>816.0</ele><time>2026-04-11T18:11:32.389Z</time></trkpt><trkpt lat="37.9020902" lon="-3.0387225"><ele>816.0</ele><time>2026-04-11T18:11:33.389Z</time></trkpt><trkpt lat="37.9020991" lon="-3.0386214"><ele>816.5</ele><time>2026-04-11T18:11:34.389Z</time></trkpt><trkpt lat="37.902104" lon="-3.0385234"><ele>817.0</ele><time>2026-04-11T18:11:35.39Z</time></trkpt><trkpt lat="37.902113" lon="-3.0384229"><ele>817.5</ele><time>2026-04-11T18:11:36.39Z</time></trkpt><trkpt lat="37.9021235" lon="-3.0383257"><ele>818.0</ele><time>2026-04-11T18:11:37.39Z</time></trkpt><trkpt lat="37.9021356" lon="-3.0382315"><ele>818.5</ele><time>2026-04-11T18:11:38.39Z</time></trkpt><trkpt lat="37.9021377" lon="-3.0381491"><ele>819.0</ele><time>2026-04-11T18:11:39.389Z</time></trkpt><trkpt lat="37.9021386" lon="-3.0380237"><ele>820.2</ele><time>2026-04-11T18:11:41.389Z</time></trkpt><trkpt lat="37.9021605" lon="-3.0379012"><ele>821.4000000000001</ele><time>2026-04-11T18:11:43.39Z</time></trkpt><trkpt lat="37.9021696" lon="-3.0377963"><ele>822.6</ele><time>2026-04-11T18:11:58.39Z</time></trkpt><trkpt lat="37.9021798" lon="-3.0376317"><ele>823.8</ele><time>2026-04-11T18:12:00.389Z</time></trkpt><trkpt lat="37.9021894" lon="-3.0375329"><ele>825.0</ele><time>2026-04-11T18:12:01.39Z</time></trkpt><trkpt lat="37.9021947" lon="-3.0374408"><ele>826.6666666666667</ele><time>2026-04-11T18:12:02.39Z</time></trkpt><trkpt lat="37.9022165" lon="-3.0370905"><ele>828.3333333333334</ele><time>2026-04-11T18:12:05.39Z</time></trkpt><trkpt lat="37.9022311" lon="-3.0369829"><ele>830.0</ele><time>2026-04-11T18:12:06.39Z</time></trkpt><trkpt lat="37.9022709" lon="-3.0368803"><ele>830.0</ele><time>2026-04-11T18:12:07.39Z</time></trkpt><trkpt lat="37.9023079" lon="-3.0367804"><ele>830.0</ele><time>2026-04-11T18:12:08.39Z</time></trkpt><trkpt lat="37.9023475" lon="-3.0366719"><ele>830.0</ele><time>2026-04-11T18:12:09.389Z</time></trkpt><trkpt lat="37.9023851" lon="-3.0365586"><ele>830.0</ele><time>2026-04-11T18:12:10.39Z</time></trkpt><trkpt lat="37.9024156" lon="-3.0364638"><ele>830.0</ele><time>2026-04-11T18:12:11.39Z</time></trkpt><trkpt lat="37.902456" lon="-3.0363449"><ele>830.2</ele><time>2026-04-11T18:12:13.39Z</time></trkpt><trkpt lat="37.9025002" lon="-3.0362448"><ele>830.4</ele><time>2026-04-11T18:12:24.39Z</time></trkpt><trkpt lat="37.9025496" lon="-3.0360343"><ele>830.5999999999999</ele><time>2026-04-11T18:12:27.39Z</time></trkpt><trkpt lat="37.9025649" lon="-3.0359443"><ele>830.8</ele><time>2026-04-11T18:12:28.39Z</time></trkpt><trkpt lat="37.9025732" lon="-3.0358398"><ele>831.0</ele><time>2026-04-11T18:12:29.39Z</time></trkpt><trkpt lat="37.9025846" lon="-3.0357454"><ele>830.8</ele><time>2026-04-11T18:12:30.389Z</time></trkpt><trkpt lat="37.9025885" lon="-3.0356426"><ele>830.5999999999999</ele><time>2026-04-11T18:12:31.39Z</time></trkpt><trkpt lat="37.9025827" lon="-3.0355322"><ele>830.4</ele><time>2026-04-11T18:12:32.389Z</time></trkpt><trkpt lat="37.9025737" lon="-3.0354139"><ele>830.2</ele><time>2026-04-11T18:12:33.39Z</time></trkpt><trkpt lat="37.9025629" lon="-3.0352929"><ele>830.0</ele><time>2026-04-11T18:12:34.39Z</time></trkpt><trkpt lat="37.9025543" lon="-3.0351715"><ele>830.0</ele><time>2026-04-11T18:12:35.39Z</time></trkpt><trkpt lat="37.9025508" lon="-3.0350361"><ele>830.0</ele><time>2026-04-11T18:12:36.389Z</time></trkpt><trkpt lat="37.9025249" lon="-3.0349107"><ele>830.0</ele><time>2026-04-11T18:12:37.389Z</time></trkpt><trkpt lat="37.9025064" lon="-3.0347735"><ele>830.0</ele><time>2026-04-11T18:12:38.39Z</time></trkpt><trkpt lat="37.9024931" lon="-3.0346357"><ele>830.0</ele><time>2026-04-11T18:12:39.389Z</time></trkpt><trkpt lat="37.9024858" lon="-3.0344965"><ele>830.6</ele><time>2026-04-11T18:12:40.39Z</time></trkpt><trkpt lat="37.9024786" lon="-3.0343606"><ele>831.2</ele><time>2026-04-11T18:12:41.39Z</time></trkpt><trkpt lat="37.902472" lon="-3.0342184"><ele>831.8</ele><time>2026-04-11T18:12:42.39Z</time></trkpt><trkpt lat="37.9024613" lon="-3.0340777"><ele>832.4</ele><time>2026-04-11T18:12:43.389Z</time></trkpt><trkpt lat="37.9024472" lon="-3.0339468"><ele>833.0</ele><time>2026-04-11T18:12:44.39Z</time></trkpt><trkpt lat="37.9024438" lon="-3.0337973"><ele>833.0</ele><time>2026-04-11T18:12:45.389Z</time></trkpt><trkpt lat="37.9024606" lon="-3.033659"><ele>833.0</ele><time>2026-04-11T18:12:46.39Z</time></trkpt><trkpt lat="37.9024897" lon="-3.0335192"><ele>833.0</ele><time>2026-04-11T18:12:47.389Z</time></trkpt><trkpt lat="37.9025351" lon="-3.0333849"><ele>833.0</ele><time>2026-04-11T18:12:48.39Z</time></trkpt><trkpt lat="37.902574" lon="-3.033253"><ele>830.5</ele><time>2026-04-11T18:12:49.39Z</time></trkpt><trkpt lat="37.9026224" lon="-3.0331216"><ele>828.0</ele><time>2026-04-11T18:12:50.39Z</time></trkpt><trkpt lat="37.9026625" lon="-3.0329856"><ele>825.5</ele><time>2026-04-11T18:12:51.39Z</time></trkpt><trkpt lat="37.9027015" lon="-3.0328459"><ele>823.0</ele><time>2026-04-11T18:12:52.389Z</time></trkpt><trkpt lat="37.9027345" lon="-3.0326988"><ele>823.0</ele><time>2026-04-11T18:12:53.39Z</time></trkpt><trkpt lat="37.9027532" lon="-3.0325392"><ele>823.0</ele><time>2026-04-11T18:12:54.39Z</time></trkpt><trkpt lat="37.9027554" lon="-3.0323832"><ele>823.0</ele><time>2026-04-11T18:12:55.39Z</time></trkpt><trkpt lat="37.9027522" lon="-3.0322176"><ele>823.0</ele><time>2026-04-11T18:12:56.39Z</time></trkpt><trkpt lat="37.9027388" lon="-3.0320564"><ele>823.25</ele><time>2026-04-11T18:12:57.389Z</time></trkpt><trkpt lat="37.9027035" lon="-3.031907"><ele>823.5</ele><time>2026-04-11T18:12:58.389Z</time></trkpt><trkpt lat="37.9026617" lon="-3.031763"><ele>823.75</ele><time>2026-04-11T18:12:59.39Z</time></trkpt><trkpt lat="37.902613" lon="-3.0316249"><ele>824.0</ele><time>2026-04-11T18:13:00.39Z</time></trkpt><trkpt lat="37.9025656" lon="-3.0314885"><ele>826.5</ele><time>2026-04-11T18:13:01.39Z</time></trkpt><trkpt lat="37.9025225" lon="-3.0313543"><ele>829.0</ele><time>2026-04-11T18:13:02.389Z</time></trkpt><trkpt lat="37.9024775" lon="-3.0312189"><ele>831.5</ele><time>2026-04-11T18:13:03.389Z</time></trkpt><trkpt lat="37.902425" lon="-3.0310876"><ele>834.0</ele><time>2026-04-11T18:13:04.39Z</time></trkpt><trkpt lat="37.9023715" lon="-3.030955"><ele>834.0</ele><time>2026-04-11T18:13:05.39Z</time></trkpt><trkpt lat="37.9023316" lon="-3.0308347"><ele>834.0</ele><time>2026-04-11T18:13:06.39Z</time></trkpt><trkpt lat="37.9022877" lon="-3.0307085"><ele>834.0</ele><time>2026-04-11T18:13:07.39Z</time></trkpt><trkpt lat="37.9022443" lon="-3.030579"><ele>834.0</ele><time>2026-04-11T18:13:08.389Z</time></trkpt><trkpt lat="37.9022203" lon="-3.0304501"><ele>834.0</ele><time>2026-04-11T18:13:09.39Z</time></trkpt><trkpt lat="37.9021942" lon="-3.0303057"><ele>833.75</ele><time>2026-04-11T18:13:10.39Z</time></trkpt><trkpt lat="37.9021908" lon="-3.0301622"><ele>833.5</ele><time>2026-04-11T18:13:11.39Z</time></trkpt><trkpt lat="37.9021887" lon="-3.0300142"><ele>833.25</ele><time>2026-04-11T18:13:12.39Z</time></trkpt><trkpt lat="37.9021876" lon="-3.0298663"><ele>833.0</ele><time>2026-04-11T18:13:13.389Z</time></trkpt><trkpt lat="37.902187" lon="-3.0297217"><ele>831.25</ele><time>2026-04-11T18:13:14.39Z</time></trkpt><trkpt lat="37.9021876" lon="-3.0295788"><ele>829.5</ele><time>2026-04-11T18:13:15.389Z</time></trkpt><trkpt lat="37.902182" lon="-3.0294378"><ele>827.75</ele><time>2026-04-11T18:13:16.39Z</time></trkpt><trkpt lat="37.9021659" lon="-3.0292978"><ele>826.0</ele><time>2026-04-11T18:13:17.39Z</time></trkpt><trkpt lat="37.9021361" lon="-3.029154"><ele>823.5</ele><time>2026-04-11T18:13:18.39Z</time></trkpt><trkpt lat="37.9020959" lon="-3.0290081"><ele>821.0</ele><time>2026-04-11T18:13:19.39Z</time></trkpt><trkpt lat="37.90205" lon="-3.0288635"><ele>818.5</ele><time>2026-04-11T18:13:20.39Z</time></trkpt><trkpt lat="37.9020002" lon="-3.0287266"><ele>816.0</ele><time>2026-04-11T18:13:21.39Z</time></trkpt><trkpt lat="37.9019565" lon="-3.0285774"><ele>816.0</ele><time>2026-04-11T18:13:22.39Z</time></trkpt><trkpt lat="37.9019166" lon="-3.028428"><ele>816.0</ele><time>2026-04-11T18:13:23.39Z</time></trkpt><trkpt lat="37.9018762" lon="-3.0282755"><ele>816.0</ele><time>2026-04-11T18:13:24.39Z</time></trkpt><trkpt lat="37.901842" lon="-3.0281201"><ele>816.0</ele><time>2026-04-11T18:13:25.389Z</time></trkpt><trkpt lat="37.9018129" lon="-3.027966"><ele>814.5</ele><time>2026-04-11T18:13:26.389Z</time></trkpt><trkpt lat="37.901791" lon="-3.0278148"><ele>813.0</ele><time>2026-04-11T18:13:27.39Z</time></trkpt><trkpt lat="37.9017684" lon="-3.0276659"><ele>811.5</ele><time>2026-04-11T18:13:28.39Z</time></trkpt><trkpt lat="37.9017357" lon="-3.0275224"><ele>810.0</ele><time>2026-04-11T18:13:29.389Z</time></trkpt><trkpt lat="37.901691" lon="-3.0273834"><ele>815.25</ele><time>2026-04-11T18:13:30.39Z</time></trkpt><trkpt lat="37.9016343" lon="-3.0272579"><ele>820.5</ele><time>2026-04-11T18:13:31.39Z</time></trkpt><trkpt lat="37.9015644" lon="-3.0271355"><ele>825.75</ele><time>2026-04-11T18:13:32.39Z</time></trkpt><trkpt lat="37.9014943" lon="-3.0270097"><ele>831.0</ele><time>2026-04-11T18:13:33.389Z</time></trkpt><trkpt lat="37.9014256" lon="-3.0268879"><ele>831.0</ele><time>2026-04-11T18:13:34.39Z</time></trkpt><trkpt lat="37.901357" lon="-3.0267726"><ele>831.0</ele><time>2026-04-11T18:13:35.39Z</time></trkpt><trkpt lat="37.901279" lon="-3.0266625"><ele>831.0</ele><time>2026-04-11T18:13:36.389Z</time></trkpt><trkpt lat="37.9011964" lon="-3.0265687"><ele>831.0</ele><time>2026-04-11T18:13:37.39Z</time></trkpt><trkpt lat="37.9011087" lon="-3.0264799"><ele>831.5</ele><time>2026-04-11T18:13:38.39Z</time></trkpt><trkpt lat="37.901019" lon="-3.0263927"><ele>832.0</ele><time>2026-04-11T18:13:39.39Z</time></trkpt><trkpt lat="37.9009292" lon="-3.0263039"><ele>832.5</ele><time>2026-04-11T18:13:40.39Z</time></trkpt><trkpt lat="37.9008369" lon="-3.0262148"><ele>833.0</ele><time>2026-04-11T18:13:41.39Z</time></trkpt><trkpt lat="37.9007484" lon="-3.0261247"><ele>833.0</ele><time>2026-04-11T18:13:42.39Z</time></trkpt><trkpt lat="37.9006546" lon="-3.0260325"><ele>833.0</ele><time>2026-04-11T18:13:43.39Z</time></trkpt><trkpt lat="37.9005609" lon="-3.025938"><ele>833.0</ele><time>2026-04-11T18:13:44.39Z</time></trkpt><trkpt lat="37.9004632" lon="-3.0258399"><ele>833.0</ele><time>2026-04-11T18:13:45.39Z</time></trkpt><trkpt lat="37.9003642" lon="-3.0257372"><ele>832.5</ele><time>2026-04-11T18:13:46.389Z</time></trkpt><trkpt lat="37.9002616" lon="-3.0256365"><ele>832.0</ele><time>2026-04-11T18:13:47.39Z</time></trkpt><trkpt lat="37.900161" lon="-3.0255415"><ele>831.5</ele><time>2026-04-11T18:13:48.39Z</time></trkpt><trkpt lat="37.9000625" lon="-3.0254457"><ele>831.0</ele><time>2026-04-11T18:13:49.39Z</time></trkpt><trkpt lat="37.8999587" lon="-3.0253463"><ele>832.0</ele><time>2026-04-11T18:13:50.39Z</time></trkpt><trkpt lat="37.8998753" lon="-3.0252572"><ele>833.0</ele><time>2026-04-11T18:13:51.39Z</time></trkpt><trkpt lat="37.8998007" lon="-3.0251681"><ele>834.0</ele><time>2026-04-11T18:13:52.389Z</time></trkpt><trkpt lat="37.8997441" lon="-3.0250661"><ele>835.0</ele><time>2026-04-11T18:13:53.39Z</time></trkpt><trkpt lat="37.899708" lon="-3.0249533"><ele>836.0</ele><time>2026-04-11T18:13:54.389Z</time></trkpt><trkpt lat="37.8996991" lon="-3.0248281"><ele>838.8</ele><time>2026-04-11T18:13:55.39Z</time></trkpt><trkpt lat="37.8997151" lon="-3.0246992"><ele>841.5999999999999</ele><time>2026-04-11T18:13:56.389Z</time></trkpt><trkpt lat="37.8997621" lon="-3.0245873"><ele>844.4</ele><time>2026-04-11T18:13:57.39Z</time></trkpt><trkpt lat="37.8998453" lon="-3.0244897"><ele>847.2</ele><time>2026-04-11T18:13:58.39Z</time></trkpt><trkpt lat="37.8999236" lon="-3.0243918"><ele>850.0</ele><time>2026-04-11T18:13:59.39Z</time></trkpt><trkpt lat="37.9000264" lon="-3.0243501"><ele>851.25</ele><time>2026-04-11T18:14:00.389Z</time></trkpt><trkpt lat="37.9001696" lon="-3.0244202"><ele>852.5</ele><time>2026-04-11T18:14:01.39Z</time></trkpt><trkpt lat="37.9002804" lon="-3.0244716"><ele>853.75</ele><time>2026-04-11T18:14:02.39Z</time></trkpt><trkpt lat="37.9003979" lon="-3.0245431"><ele>855.0</ele><time>2026-04-11T18:14:03.39Z</time></trkpt><trkpt lat="37.9005059" lon="-3.024611"><ele>855.0</ele><time>2026-04-11T18:14:04.389Z</time></trkpt><trkpt lat="37.9006183" lon="-3.0246703"><ele>855.0</ele><time>2026-04-11T18:14:05.389Z</time></trkpt><trkpt lat="37.9007257" lon="-3.0247288"><ele>855.0</ele><time>2026-04-11T18:14:06.39Z</time></trkpt><trkpt lat="37.9008344" lon="-3.0247958"><ele>855.0</ele><time>2026-04-11T18:14:07.39Z</time></trkpt><trkpt lat="37.9009464" lon="-3.0248585"><ele>854.2</ele><time>2026-04-11T18:14:08.39Z</time></trkpt><trkpt lat="37.9010461" lon="-3.0249262"><ele>853.4</ele><time>2026-04-11T18:14:09.39Z</time></trkpt><trkpt lat="37.901137" lon="-3.0249675"><ele>852.5999999999999</ele><time>2026-04-11T18:14:10.389Z</time></trkpt><trkpt lat="37.9012365" lon="-3.0250039"><ele>851.8</ele><time>2026-04-11T18:14:11.39Z</time></trkpt><trkpt lat="37.901336" lon="-3.0250376"><ele>851.0</ele><time>2026-04-11T18:14:12.39Z</time></trkpt><trkpt lat="37.9014331" lon="-3.0250532"><ele>846.1999999999999</ele><time>2026-04-11T18:14:13.389Z</time></trkpt><trkpt lat="37.9015301" lon="-3.025063"><ele>841.4</ele><time>2026-04-11T18:14:14.39Z</time></trkpt><trkpt lat="37.9016304" lon="-3.0250646"><ele>836.6</ele><time>2026-04-11T18:14:15.389Z</time></trkpt><trkpt lat="37.9017202" lon="-3.0250745"><ele>831.8</ele><time>2026-04-11T18:14:16.39Z</time></trkpt><trkpt lat="37.9018292" lon="-3.0250667"><ele>827.0</ele><time>2026-04-11T18:14:17.39Z</time></trkpt><trkpt lat="37.9019369" lon="-3.0250604"><ele>827.0000000000001</ele><time>2026-04-11T18:14:18.389Z</time></trkpt><trkpt lat="37.9020459" lon="-3.0250574"><ele>827.0</ele><time>2026-04-11T18:14:19.39Z</time></trkpt><trkpt lat="37.9021426" lon="-3.0250541"><ele>827.0</ele><time>2026-04-11T18:14:20.39Z</time></trkpt><trkpt lat="37.9022246" lon="-3.0250571"><ele>827.0</ele><time>2026-04-11T18:14:21.389Z</time></trkpt><trkpt lat="37.9023003" lon="-3.025066"><ele>827.0000000000001</ele><time>2026-04-11T18:14:22.389Z</time></trkpt><trkpt lat="37.902379" lon="-3.0250906"><ele>827.0</ele><time>2026-04-11T18:14:23.39Z</time></trkpt><trkpt lat="37.9024565" lon="-3.0251217"><ele>827.0</ele><time>2026-04-11T18:14:24.389Z</time></trkpt><trkpt lat="37.9025535" lon="-3.025194"><ele>827.0</ele><time>2026-04-11T18:14:25.39Z</time></trkpt><trkpt lat="37.9026459" lon="-3.0252684"><ele>827.0</ele><time>2026-04-11T18:14:26.39Z</time></trkpt><trkpt lat="37.9027381" lon="-3.0253443"><ele>827.0</ele><time>2026-04-11T18:14:27.39Z</time></trkpt><trkpt lat="37.9028352" lon="-3.025427"><ele>827.0</ele><time>2026-04-11T18:14:28.39Z</time></trkpt><trkpt lat="37.9029314" lon="-3.025513"><ele>825.25</ele><time>2026-04-11T18:14:29.39Z</time></trkpt><trkpt lat="37.9030291" lon="-3.0256001"><ele>823.5</ele><time>2026-04-11T18:14:30.39Z</time></trkpt><trkpt lat="37.9031204" lon="-3.0256976"><ele>821.75</ele><time>2026-04-11T18:14:31.39Z</time></trkpt><trkpt lat="37.9032062" lon="-3.0258042"><ele>820.0</ele><time>2026-04-11T18:14:32.39Z</time></trkpt><trkpt lat="37.9032897" lon="-3.0259131"><ele>820.0</ele><time>2026-04-11T18:14:33.39Z</time></trkpt><trkpt lat="37.9033705" lon="-3.0260188"><ele>820.0</ele><time>2026-04-11T18:14:34.39Z</time></trkpt><trkpt lat="37.903455" lon="-3.0261244"><ele>820.0</ele><time>2026-04-11T18:14:35.389Z</time></trkpt><trkpt lat="37.9035435" lon="-3.0262235"><ele>820.0</ele><time>2026-04-11T18:14:36.39Z</time></trkpt><trkpt lat="37.9036297" lon="-3.0263091"><ele>821.6</ele><time>2026-04-11T18:14:37.39Z</time></trkpt><trkpt lat="37.9037136" lon="-3.0263795"><ele>823.2</ele><time>2026-04-11T18:14:38.39Z</time></trkpt><trkpt lat="37.9038" lon="-3.0264307"><ele>824.8</ele><time>2026-04-11T18:14:39.39Z</time></trkpt><trkpt lat="37.9038976" lon="-3.0264665"><ele>826.4</ele><time>2026-04-11T18:14:40.39Z</time></trkpt><trkpt lat="37.9039982" lon="-3.0264777"><ele>828.0</ele><time>2026-04-11T18:14:41.39Z</time></trkpt><trkpt lat="37.904102" lon="-3.0264867"><ele>828.0</ele><time>2026-04-11T18:14:42.39Z</time></trkpt><trkpt lat="37.9042121" lon="-3.0264978"><ele>828.0</ele><time>2026-04-11T18:14:43.389Z</time></trkpt><trkpt lat="37.9043197" lon="-3.0265254"><ele>828.0</ele><time>2026-04-11T18:14:44.39Z</time></trkpt><trkpt lat="37.9044308" lon="-3.0265741"><ele>828.0</ele><time>2026-04-11T18:14:45.39Z</time></trkpt><trkpt lat="37.9045347" lon="-3.0266445"><ele>826.0</ele><time>2026-04-11T18:14:46.39Z</time></trkpt><trkpt lat="37.9046372" lon="-3.0267353"><ele>824.0</ele><time>2026-04-11T18:14:47.39Z</time></trkpt><trkpt lat="37.9047394" lon="-3.0268271"><ele>822.0</ele><time>2026-04-11T18:14:48.39Z</time></trkpt><trkpt lat="37.9048416" lon="-3.0269174"><ele>820.0</ele><time>2026-04-11T18:14:49.39Z</time></trkpt><trkpt lat="37.9049417" lon="-3.02701"><ele>820.0</ele><time>2026-04-11T18:14:50.389Z</time></trkpt><trkpt lat="37.9050422" lon="-3.0270998"><ele>820.0</ele><time>2026-04-11T18:14:51.39Z</time></trkpt><trkpt lat="37.9051418" lon="-3.0271886"><ele>820.0</ele><time>2026-04-11T18:14:52.389Z</time></trkpt><trkpt lat="37.9052406" lon="-3.0272774"><ele>820.0</ele><time>2026-04-11T18:14:53.389Z</time></trkpt><trkpt lat="37.9053354" lon="-3.0273635"><ele>818.75</ele><time>2026-04-11T18:14:54.39Z</time></trkpt><trkpt lat="37.9054303" lon="-3.0274321"><ele>817.5</ele><time>2026-04-11T18:14:55.389Z</time></trkpt><trkpt lat="37.9055343" lon="-3.0274885"><ele>816.25</ele><time>2026-04-11T18:14:56.39Z</time></trkpt><trkpt lat="37.9056455" lon="-3.0275381"><ele>815.0</ele><time>2026-04-11T18:14:57.39Z</time></trkpt><trkpt lat="37.90576" lon="-3.0275827"><ele>815.0</ele><time>2026-04-11T18:14:58.39Z</time></trkpt><trkpt lat="37.9058802" lon="-3.0276152"><ele>815.0</ele><time>2026-04-11T18:14:59.39Z</time></trkpt><trkpt lat="37.9060069" lon="-3.0276404"><ele>815.0</ele><time>2026-04-11T18:15:00.39Z</time></trkpt><trkpt lat="37.9061333" lon="-3.027654"><ele>815.0</ele><time>2026-04-11T18:15:01.39Z</time></trkpt><trkpt lat="37.906257" lon="-3.0276703"><ele>816.0</ele><time>2026-04-11T18:15:02.39Z</time></trkpt><trkpt lat="37.9063822" lon="-3.0276886"><ele>817.0</ele><time>2026-04-11T18:15:03.39Z</time></trkpt><trkpt lat="37.906509" lon="-3.0277178"><ele>818.0</ele><time>2026-04-11T18:15:04.389Z</time></trkpt><trkpt lat="37.9066347" lon="-3.0277598"><ele>819.0</ele><time>2026-04-11T18:15:05.39Z</time></trkpt><trkpt lat="37.9067598" lon="-3.0278147"><ele>819.25</ele><time>2026-04-11T18:15:06.39Z</time></trkpt><trkpt lat="37.9068863" lon="-3.02787"><ele>819.5</ele><time>2026-04-11T18:15:07.39Z</time></trkpt><trkpt lat="37.9070149" lon="-3.0279245"><ele>819.75</ele><time>2026-04-11T18:15:08.389Z</time></trkpt><trkpt lat="37.9071425" lon="-3.0279806"><ele>820.0</ele><time>2026-04-11T18:15:09.39Z</time></trkpt><trkpt lat="37.9072661" lon="-3.0280322"><ele>820.0</ele><time>2026-04-11T18:15:10.389Z</time></trkpt><trkpt lat="37.9073854" lon="-3.0280828"><ele>820.0</ele><time>2026-04-11T18:15:11.39Z</time></trkpt><trkpt lat="37.9075025" lon="-3.0281346"><ele>820.0</ele><time>2026-04-11T18:15:12.39Z</time></trkpt><trkpt lat="37.9076187" lon="-3.0281845"><ele>820.0</ele><time>2026-04-11T18:15:13.389Z</time></trkpt><trkpt lat="37.9077345" lon="-3.0282338"><ele>819.5</ele><time>2026-04-11T18:15:14.39Z</time></trkpt><trkpt lat="37.9078473" lon="-3.0282811"><ele>819.0</ele><time>2026-04-11T18:15:15.39Z</time></trkpt><trkpt lat="37.9079564" lon="-3.0283292"><ele>818.5</ele><time>2026-04-11T18:15:16.39Z</time></trkpt><trkpt lat="37.9080658" lon="-3.0283571"><ele>818.0</ele><time>2026-04-11T18:15:17.389Z</time></trkpt><trkpt lat="37.9081721" lon="-3.0283633"><ele>818.0</ele><time>2026-04-11T18:15:18.389Z</time></trkpt><trkpt lat="37.9082761" lon="-3.0283343"><ele>818.0</ele><time>2026-04-11T18:15:19.39Z</time></trkpt><trkpt lat="37.9083692" lon="-3.0282831"><ele>818.0</ele><time>2026-04-11T18:15:20.389Z</time></trkpt><trkpt lat="37.9084591" lon="-3.0282214"><ele>818.0</ele><time>2026-04-11T18:15:21.39Z</time></trkpt><trkpt lat="37.9085473" lon="-3.0281516"><ele>818.0</ele><time>2026-04-11T18:15:22.39Z</time></trkpt><trkpt lat="37.9086366" lon="-3.0280835"><ele>816.5999999999999</ele><time>2026-04-11T18:15:23.39Z</time></trkpt><trkpt lat="37.9087285" lon="-3.0280173"><ele>815.1999999999999</ele><time>2026-04-11T18:15:24.389Z</time></trkpt><trkpt lat="37.9088214" lon="-3.0279431"><ele>813.8</ele><time>2026-04-11T18:15:25.389Z</time></trkpt><trkpt lat="37.9089113" lon="-3.0278689"><ele>812.4</ele><time>2026-04-11T18:15:26.39Z</time></trkpt><trkpt lat="37.908996" lon="-3.0277857"><ele>811.0</ele><time>2026-04-11T18:15:27.39Z</time></trkpt><trkpt lat="37.9090802" lon="-3.0276999"><ele>811.0</ele><time>2026-04-11T18:15:28.389Z</time></trkpt><trkpt lat="37.909161" lon="-3.0276107"><ele>811.0</ele><time>2026-04-11T18:15:29.39Z</time></trkpt><trkpt lat="37.909247" lon="-3.0275175"><ele>811.0</ele><time>2026-04-11T18:15:30.39Z</time></trkpt><trkpt lat="37.9093311" lon="-3.0274251"><ele>811.0</ele><time>2026-04-11T18:15:31.389Z</time></trkpt><trkpt lat="37.9094133" lon="-3.0273273"><ele>811.0</ele><time>2026-04-11T18:15:32.39Z</time></trkpt><trkpt lat="37.9094931" lon="-3.0272233"><ele>810.25</ele><time>2026-04-11T18:15:33.39Z</time></trkpt><trkpt lat="37.909574" lon="-3.0271093"><ele>809.5</ele><time>2026-04-11T18:15:34.39Z</time></trkpt><trkpt lat="37.9096436" lon="-3.0269912"><ele>808.75</ele><time>2026-04-11T18:15:35.39Z</time></trkpt><trkpt lat="37.9097024" lon="-3.0268608"><ele>808.0</ele><time>2026-04-11T18:15:36.39Z</time></trkpt><trkpt lat="37.9097495" lon="-3.0267302"><ele>808.1666666666666</ele><time>2026-04-11T18:15:37.39Z</time></trkpt><trkpt lat="37.9097801" lon="-3.0266216"><ele>808.3333333333333</ele><time>2026-04-11T18:15:38.39Z</time></trkpt><trkpt lat="37.9097957" lon="-3.0265426"><ele>808.5</ele><time>2026-04-11T18:15:39.39Z</time></trkpt><trkpt lat="37.9098248" lon="-3.0264325"><ele>808.6666666666667</ele><time>2026-04-11T18:15:42.333Z</time></trkpt><trkpt lat="37.9098183" lon="-3.0263085"><ele>808.8333333333334</ele><time>2026-04-11T18:16:08.399Z</time></trkpt><trkpt lat="37.909824" lon="-3.0262202"><ele>809.0</ele><time>2026-04-11T18:16:09.399Z</time></trkpt><trkpt lat="37.9098103" lon="-3.0260396"><ele>809.0000000000001</ele><time>2026-04-11T18:16:11.399Z</time></trkpt><trkpt lat="37.9097962" lon="-3.0259391"><ele>809.0</ele><time>2026-04-11T18:16:12.4Z</time></trkpt><trkpt lat="37.9097718" lon="-3.0258256"><ele>809.0</ele><time>2026-04-11T18:16:13.4Z</time></trkpt><trkpt lat="37.9097374" lon="-3.0257133"><ele>809.0</ele><time>2026-04-11T18:16:14.4Z</time></trkpt><trkpt lat="37.9096998" lon="-3.0256039"><ele>809.0000000000001</ele><time>2026-04-11T18:16:15.4Z</time></trkpt><trkpt lat="37.9096633" lon="-3.0255052"><ele>809.0</ele><time>2026-04-11T18:16:16.399Z</time></trkpt><trkpt lat="37.909618" lon="-3.0254051"><ele>807.6</ele><time>2026-04-11T18:16:17.4Z</time></trkpt><trkpt lat="37.909566" lon="-3.0252974"><ele>806.2</ele><time>2026-04-11T18:16:18.4Z</time></trkpt><trkpt lat="37.9095176" lon="-3.0251811"><ele>804.8000000000001</ele><time>2026-04-11T18:16:19.4Z</time></trkpt><trkpt lat="37.9094589" lon="-3.0250567"><ele>803.4000000000001</ele><time>2026-04-11T18:16:20.4Z</time></trkpt><trkpt lat="37.9094038" lon="-3.0249346"><ele>802.0</ele><time>2026-04-11T18:16:21.399Z</time></trkpt><trkpt lat="37.9093467" lon="-3.0248086"><ele>800.75</ele><time>2026-04-11T18:16:22.4Z</time></trkpt><trkpt lat="37.9092912" lon="-3.0246757"><ele>799.5</ele><time>2026-04-11T18:16:23.4Z</time></trkpt><trkpt lat="37.9092296" lon="-3.0245458"><ele>798.25</ele><time>2026-04-11T18:16:24.399Z</time></trkpt><trkpt lat="37.9091656" lon="-3.0244105"><ele>797.0</ele><time>2026-04-11T18:16:25.4Z</time></trkpt><trkpt lat="37.9090983" lon="-3.0242745"><ele>796.0</ele><time>2026-04-11T18:16:26.4Z</time></trkpt><trkpt lat="37.9090329" lon="-3.0241349"><ele>795.0</ele><time>2026-04-11T18:16:27.4Z</time></trkpt><trkpt lat="37.9089671" lon="-3.0239995"><ele>794.0</ele><time>2026-04-11T18:16:28.399Z</time></trkpt><trkpt lat="37.9089014" lon="-3.0238683"><ele>793.0</ele><time>2026-04-11T18:16:29.4Z</time></trkpt><trkpt lat="37.9088415" lon="-3.0237337"><ele>793.0</ele><time>2026-04-11T18:16:30.4Z</time></trkpt><trkpt lat="37.9087851" lon="-3.0236021"><ele>793.0</ele><time>2026-04-11T18:16:31.4Z</time></trkpt><trkpt lat="37.9087327" lon="-3.0234653"><ele>793.0</ele><time>2026-04-11T18:16:32.4Z</time></trkpt><trkpt lat="37.9086933" lon="-3.0233158"><ele>793.0</ele><time>2026-04-11T18:16:33.4Z</time></trkpt><trkpt lat="37.9086767" lon="-3.0231552"><ele>793.0</ele><time>2026-04-11T18:16:34.4Z</time></trkpt><trkpt lat="37.9086766" lon="-3.0229904"><ele>793.0</ele><time>2026-04-11T18:16:35.4Z</time></trkpt><trkpt lat="37.9086913" lon="-3.0228244"><ele>793.0</ele><time>2026-04-11T18:16:36.4Z</time></trkpt><trkpt lat="37.9087112" lon="-3.0226617"><ele>793.0</ele><time>2026-04-11T18:16:37.4Z</time></trkpt><trkpt lat="37.9087299" lon="-3.0224919"><ele>793.25</ele><time>2026-04-11T18:16:38.4Z</time></trkpt><trkpt lat="37.9087398" lon="-3.0223168"><ele>793.5</ele><time>2026-04-11T18:16:39.4Z</time></trkpt><trkpt lat="37.9087287" lon="-3.0221483"><ele>793.75</ele><time>2026-04-11T18:16:40.4Z</time></trkpt><trkpt lat="37.9087014" lon="-3.0219916"><ele>794.0</ele><time>2026-04-11T18:16:41.4Z</time></trkpt><trkpt lat="37.9086498" lon="-3.0218492"><ele>794.0</ele><time>2026-04-11T18:16:42.399Z</time></trkpt><trkpt lat="37.908577" lon="-3.0217184"><ele>794.0</ele><time>2026-04-11T18:16:43.4Z</time></trkpt><trkpt lat="37.9084882" lon="-3.0216081"><ele>794.0</ele><time>2026-04-11T18:16:44.399Z</time></trkpt><trkpt lat="37.9083905" lon="-3.0215089"><ele>794.0</ele><time>2026-04-11T18:16:45.4Z</time></trkpt><trkpt lat="37.9082803" lon="-3.0214051"><ele>796.25</ele><time>2026-04-11T18:16:46.4Z</time></trkpt><trkpt lat="37.9081851" lon="-3.0213058"><ele>798.5</ele><time>2026-04-11T18:16:47.4Z</time></trkpt><trkpt lat="37.9080948" lon="-3.0211884"><ele>800.75</ele><time>2026-04-11T18:16:48.4Z</time></trkpt><trkpt lat="37.9080213" lon="-3.0210542"><ele>803.0</ele><time>2026-04-11T18:16:49.4Z</time></trkpt><trkpt lat="37.9079633" lon="-3.0209073"><ele>803.0</ele><time>2026-04-11T18:16:50.4Z</time></trkpt><trkpt lat="37.9079159" lon="-3.020746"><ele>803.0</ele><time>2026-04-11T18:16:51.4Z</time></trkpt><trkpt lat="37.907873" lon="-3.0205843"><ele>803.0</ele><time>2026-04-11T18:16:52.4Z</time></trkpt><trkpt lat="37.9078276" lon="-3.0204198"><ele>803.0</ele><time>2026-04-11T18:16:53.4Z</time></trkpt><trkpt lat="37.9077856" lon="-3.0202584"><ele>803.0</ele><time>2026-04-11T18:16:54.4Z</time></trkpt><trkpt lat="37.9077451" lon="-3.020099"><ele>803.0</ele><time>2026-04-11T18:16:55.4Z</time></trkpt><trkpt lat="37.9077004" lon="-3.0199393"><ele>803.0</ele><time>2026-04-11T18:16:56.399Z</time></trkpt><trkpt lat="37.9076495" lon="-3.0197849"><ele>803.0</ele><time>2026-04-11T18:16:57.4Z</time></trkpt><trkpt lat="37.9075968" lon="-3.0196277"><ele>807.25</ele><time>2026-04-11T18:16:58.4Z</time></trkpt><trkpt lat="37.9075423" lon="-3.0194726"><ele>811.5</ele><time>2026-04-11T18:16:59.399Z</time></trkpt><trkpt lat="37.907481" lon="-3.0193164"><ele>815.75</ele><time>2026-04-11T18:17:00.399Z</time></trkpt><trkpt lat="37.9074215" lon="-3.019157"><ele>820.0</ele><time>2026-04-11T18:17:01.4Z</time></trkpt><trkpt lat="37.9073634" lon="-3.0190032"><ele>820.25</ele><time>2026-04-11T18:17:02.4Z</time></trkpt><trkpt lat="37.907309" lon="-3.018854"><ele>820.5</ele><time>2026-04-11T18:17:03.4Z</time></trkpt><trkpt lat="37.9072548" lon="-3.0187024"><ele>820.75</ele><time>2026-04-11T18:17:04.4Z</time></trkpt><trkpt lat="37.9071967" lon="-3.0185584"><ele>821.0</ele><time>2026-04-11T18:17:05.4Z</time></trkpt><trkpt lat="37.9071435" lon="-3.0184151"><ele>822.0</ele><time>2026-04-11T18:17:06.4Z</time></trkpt><trkpt lat="37.9070994" lon="-3.0182666"><ele>823.0</ele><time>2026-04-11T18:17:07.4Z</time></trkpt><trkpt lat="37.9070687" lon="-3.0181172"><ele>824.0</ele><time>2026-04-11T18:17:08.4Z</time></trkpt><trkpt lat="37.9070434" lon="-3.0179621"><ele>825.0</ele><time>2026-04-11T18:17:09.4Z</time></trkpt><trkpt lat="37.9070302" lon="-3.0178063"><ele>825.0</ele><time>2026-04-11T18:17:10.4Z</time></trkpt><trkpt lat="37.9070307" lon="-3.0176464"><ele>825.0</ele><time>2026-04-11T18:17:11.4Z</time></trkpt><trkpt lat="37.9070513" lon="-3.0174865"><ele>825.0</ele><time>2026-04-11T18:17:12.4Z</time></trkpt><trkpt lat="37.9070946" lon="-3.0173311"><ele>825.0</ele><time>2026-04-11T18:17:13.4Z</time></trkpt><trkpt lat="37.9071552" lon="-3.0171831"><ele>826.0</ele><time>2026-04-11T18:17:14.4Z</time></trkpt><trkpt lat="37.907229" lon="-3.0170446"><ele>827.0</ele><time>2026-04-11T18:17:15.4Z</time></trkpt><trkpt lat="37.9073172" lon="-3.0169246"><ele>828.0</ele><time>2026-04-11T18:17:16.4Z</time></trkpt><trkpt lat="37.9074211" lon="-3.0168248"><ele>829.0</ele><time>2026-04-11T18:17:17.4Z</time></trkpt><trkpt lat="37.9075352" lon="-3.0167377"><ele>825.0</ele><time>2026-04-11T18:17:18.4Z</time></trkpt><trkpt lat="37.9076599" lon="-3.0166493"><ele>821.0</ele><time>2026-04-11T18:17:19.4Z</time></trkpt><trkpt lat="37.9077891" lon="-3.0165606"><ele>817.0</ele><time>2026-04-11T18:17:20.4Z</time></trkpt><trkpt lat="37.9079229" lon="-3.0164673"><ele>813.0</ele><time>2026-04-11T18:17:21.4Z</time></trkpt><trkpt lat="37.9080623" lon="-3.0163775"><ele>813.0</ele><time>2026-04-11T18:17:22.4Z</time></trkpt><trkpt lat="37.9082044" lon="-3.0162891"><ele>813.0</ele><time>2026-04-11T18:17:23.4Z</time></trkpt><trkpt lat="37.9083512" lon="-3.0162076"><ele>813.0</ele><time>2026-04-11T18:17:24.4Z</time></trkpt><trkpt lat="37.9084822" lon="-3.0161367"><ele>813.2</ele><time>2026-04-11T18:17:25.4Z</time></trkpt><trkpt lat="37.9086015" lon="-3.0160824"><ele>813.4</ele><time>2026-04-11T18:17:26.399Z</time></trkpt><trkpt lat="37.9087046" lon="-3.016035"><ele>813.6</ele><time>2026-04-11T18:17:27.4Z</time></trkpt><trkpt lat="37.9088028" lon="-3.0159891"><ele>813.8000000000001</ele><time>2026-04-11T18:17:28.4Z</time></trkpt><trkpt lat="37.9088985" lon="-3.0159453"><ele>814.0</ele><time>2026-04-11T18:17:29.4Z</time></trkpt><trkpt lat="37.9089927" lon="-3.0159024"><ele>814.0</ele><time>2026-04-11T18:17:30.4Z</time></trkpt><trkpt lat="37.9090866" lon="-3.01586"><ele>814.0</ele><time>2026-04-11T18:17:31.4Z</time></trkpt><trkpt lat="37.9091763" lon="-3.0158239"><ele>814.0</ele><time>2026-04-11T18:17:32.4Z</time></trkpt><trkpt lat="37.9092661" lon="-3.0157774"><ele>814.0</ele><time>2026-04-11T18:17:33.4Z</time></trkpt><trkpt lat="37.9093545" lon="-3.0157253"><ele>814.0</ele><time>2026-04-11T18:17:34.4Z</time></trkpt><trkpt lat="37.9094384" lon="-3.0156635"><ele>811.0</ele><time>2026-04-11T18:17:35.399Z</time></trkpt><trkpt lat="37.9095318" lon="-3.0155989"><ele>808.0</ele><time>2026-04-11T18:17:36.4Z</time></trkpt><trkpt lat="37.9096246" lon="-3.015539"><ele>805.0</ele><time>2026-04-11T18:17:37.4Z</time></trkpt><trkpt lat="37.909718" lon="-3.0154807"><ele>802.0</ele><time>2026-04-11T18:17:38.4Z</time></trkpt><trkpt lat="37.9098057" lon="-3.0154335"><ele>799.0</ele><time>2026-04-11T18:17:39.4Z</time></trkpt><trkpt lat="37.9099046" lon="-3.0153983"><ele>799.0</ele><time>2026-04-11T18:17:40.4Z</time></trkpt><trkpt lat="37.9100045" lon="-3.0153696"><ele>799.0</ele><time>2026-04-11T18:17:41.4Z</time></trkpt><trkpt lat="37.9100955" lon="-3.015346"><ele>799.0</ele><time>2026-04-11T18:17:42.4Z</time></trkpt><trkpt lat="37.9101754" lon="-3.0153273"><ele>799.0</ele><time>2026-04-11T18:17:43.4Z</time></trkpt><trkpt lat="37.9102412" lon="-3.0153118"><ele>799.0</ele><time>2026-04-11T18:17:44.4Z</time></trkpt><trkpt lat="37.9103505" lon="-3.0152752"><ele>799.0</ele><time>2026-04-11T18:17:46.4Z</time></trkpt><trkpt lat="37.9104434" lon="-3.0152703"><ele>799.0</ele><time>2026-04-11T18:17:48.4Z</time></trkpt><trkpt lat="37.9105393" lon="-3.0152546"><ele>799.0</ele><time>2026-04-11T18:17:50.4Z</time></trkpt><trkpt lat="37.9106061" lon="-3.0152167"><ele>799.0</ele><time>2026-04-11T18:18:00.4Z</time></trkpt><trkpt lat="37.9106906" lon="-3.015207"><ele>799.0</ele><time>2026-04-11T18:18:02.4Z</time></trkpt><trkpt lat="37.9108709" lon="-3.0151026"><ele>799.8000000000001</ele><time>2026-04-11T18:18:05.4Z</time></trkpt><trkpt lat="37.9109398" lon="-3.0150487"><ele>800.6</ele><time>2026-04-11T18:18:06.4Z</time></trkpt><trkpt lat="37.9110161" lon="-3.0149945"><ele>801.4</ele><time>2026-04-11T18:18:07.4Z</time></trkpt><trkpt lat="37.9110924" lon="-3.0149313"><ele>802.2</ele><time>2026-04-11T18:18:08.4Z</time></trkpt><trkpt lat="37.9111787" lon="-3.0148682"><ele>803.0</ele><time>2026-04-11T18:18:09.4Z</time></trkpt><trkpt lat="37.9112663" lon="-3.0147989"><ele>799.2</ele><time>2026-04-11T18:18:10.4Z</time></trkpt><trkpt lat="37.9113567" lon="-3.0147308"><ele>795.4</ele><time>2026-04-11T18:18:11.399Z</time></trkpt><trkpt lat="37.9114589" lon="-3.0146719"><ele>791.6</ele><time>2026-04-11T18:18:12.4Z</time></trkpt><trkpt lat="37.9115594" lon="-3.0146125"><ele>787.8000000000001</ele><time>2026-04-11T18:18:13.4Z</time></trkpt><trkpt lat="37.911672" lon="-3.0145594"><ele>784.0</ele><time>2026-04-11T18:18:14.4Z</time></trkpt><trkpt lat="37.9117872" lon="-3.0145084"><ele>784.0</ele><time>2026-04-11T18:18:15.4Z</time></trkpt><trkpt lat="37.9119082" lon="-3.0144573"><ele>784.0</ele><time>2026-04-11T18:18:16.399Z</time></trkpt><trkpt lat="37.9120317" lon="-3.0144054"><ele>784.0</ele><time>2026-04-11T18:18:17.4Z</time></trkpt><trkpt lat="37.9121511" lon="-3.0143465"><ele>784.0</ele><time>2026-04-11T18:18:18.4Z</time></trkpt><trkpt lat="37.9122755" lon="-3.0142843"><ele>784.0</ele><time>2026-04-11T18:18:19.4Z</time></trkpt><trkpt lat="37.9124007" lon="-3.0142224"><ele>784.0</ele><time>2026-04-11T18:18:20.4Z</time></trkpt><trkpt lat="37.9125264" lon="-3.0141567"><ele>784.0</ele><time>2026-04-11T18:18:21.4Z</time></trkpt><trkpt lat="37.9126504" lon="-3.0141007"><ele>784.0</ele><time>2026-04-11T18:18:22.399Z</time></trkpt><trkpt lat="37.9127743" lon="-3.0140441"><ele>779.25</ele><time>2026-04-11T18:18:23.399Z</time></trkpt><trkpt lat="37.912894" lon="-3.013997"><ele>774.5</ele><time>2026-04-11T18:18:24.4Z</time></trkpt><trkpt lat="37.9130152" lon="-3.013965"><ele>769.75</ele><time>2026-04-11T18:18:25.4Z</time></trkpt><trkpt lat="37.9131402" lon="-3.01395"><ele>765.0</ele><time>2026-04-11T18:18:26.4Z</time></trkpt><trkpt lat="37.9132682" lon="-3.013961"><ele>765.0</ele><time>2026-04-11T18:18:27.4Z</time></trkpt><trkpt lat="37.9133939" lon="-3.0139836"><ele>765.0</ele><time>2026-04-11T18:18:28.399Z</time></trkpt><trkpt lat="37.9135254" lon="-3.0140504"><ele>765.0</ele><time>2026-04-11T18:18:29.4Z</time></trkpt><trkpt lat="37.9136439" lon="-3.0141353"><ele>765.0</ele><time>2026-04-11T18:18:30.4Z</time></trkpt><trkpt lat="37.913754" lon="-3.0142428"><ele>765.0</ele><time>2026-04-11T18:18:31.4Z</time></trkpt><trkpt lat="37.9138474" lon="-3.0143656"><ele>765.0</ele><time>2026-04-11T18:18:32.399Z</time></trkpt><trkpt lat="37.9139413" lon="-3.0144853"><ele>765.0</ele><time>2026-04-11T18:18:33.399Z</time></trkpt><trkpt lat="37.9140402" lon="-3.0145897"><ele>765.0</ele><time>2026-04-11T18:18:34.4Z</time></trkpt><trkpt lat="37.9141527" lon="-3.0146772"><ele>761.0</ele><time>2026-04-11T18:18:35.4Z</time></trkpt><trkpt lat="37.9142706" lon="-3.0147546"><ele>757.0</ele><time>2026-04-11T18:18:36.4Z</time></trkpt><trkpt lat="37.9143935" lon="-3.0148175"><ele>753.0</ele><time>2026-04-11T18:18:37.4Z</time></trkpt><trkpt lat="37.9145198" lon="-3.0148739"><ele>749.0</ele><time>2026-04-11T18:18:38.4Z</time></trkpt><trkpt lat="37.9146491" lon="-3.0149292"><ele>749.0</ele><time>2026-04-11T18:18:39.4Z</time></trkpt><trkpt lat="37.9147775" lon="-3.0149847"><ele>749.0</ele><time>2026-04-11T18:18:40.4Z</time></trkpt><trkpt lat="37.9149071" lon="-3.0150425"><ele>749.0</ele><time>2026-04-11T18:18:41.4Z</time></trkpt><trkpt lat="37.9150343" lon="-3.0151028"><ele>749.0</ele><time>2026-04-11T18:18:42.399Z</time></trkpt><trkpt lat="37.9151558" lon="-3.0151624"><ele>749.2</ele><time>2026-04-11T18:18:43.4Z</time></trkpt><trkpt lat="37.9152721" lon="-3.0152176"><ele>749.4000000000001</ele><time>2026-04-11T18:18:44.399Z</time></trkpt><trkpt lat="37.9153772" lon="-3.0152715"><ele>749.6</ele><time>2026-04-11T18:18:45.4Z</time></trkpt><trkpt lat="37.9154729" lon="-3.0153279"><ele>749.8</ele><time>2026-04-11T18:18:46.4Z</time></trkpt><trkpt lat="37.915565" lon="-3.015385"><ele>750.0</ele><time>2026-04-11T18:18:47.4Z</time></trkpt><trkpt lat="37.9156624" lon="-3.0154398"><ele>750.0</ele><time>2026-04-11T18:18:48.4Z</time></trkpt><trkpt lat="37.9157588" lon="-3.0154998"><ele>750.0</ele><time>2026-04-11T18:18:49.4Z</time></trkpt><trkpt lat="37.9158608" lon="-3.0155527"><ele>750.0</ele><time>2026-04-11T18:18:50.399Z</time></trkpt><trkpt lat="37.9159593" lon="-3.015596"><ele>750.0</ele><time>2026-04-11T18:18:51.4Z</time></trkpt><trkpt lat="37.9160557" lon="-3.015633"><ele>750.0</ele><time>2026-04-11T18:18:52.4Z</time></trkpt><trkpt lat="37.9161342" lon="-3.0156707"><ele>748.6666666666666</ele><time>2026-04-11T18:18:53.4Z</time></trkpt><trkpt lat="37.9162142" lon="-3.0157018"><ele>747.3333333333334</ele><time>2026-04-11T18:18:54.4Z</time></trkpt><trkpt lat="37.9162789" lon="-3.0157183"><ele>746.0</ele><time>2026-04-11T18:18:55.4Z</time></trkpt><trkpt lat="37.9163983" lon="-3.0157288"><ele>744.6666666666667</ele><time>2026-04-11T18:18:57.4Z</time></trkpt><trkpt lat="37.916459" lon="-3.0157075"><ele>743.3333333333334</ele><time>2026-04-11T18:18:58.4Z</time></trkpt><trkpt lat="37.9165238" lon="-3.0156891"><ele>742.0</ele><time>2026-04-11T18:18:59.4Z</time></trkpt><trkpt lat="37.9165876" lon="-3.0156806"><ele>742.0</ele><time>2026-04-11T18:19:00.4Z</time></trkpt><trkpt lat="37.916649" lon="-3.0157111"><ele>742.0</ele><time>2026-04-11T18:19:01.399Z</time></trkpt><trkpt lat="37.9167157" lon="-3.0158317"><ele>742.0</ele><time>2026-04-11T18:19:03.399Z</time></trkpt><trkpt lat="37.9166807" lon="-3.0159875"><ele>742.0</ele><time>2026-04-11T18:19:05.4Z</time></trkpt><trkpt lat="37.9166257" lon="-3.0160351"><ele>742.0</ele><time>2026-04-11T18:19:06.4Z</time></trkpt><trkpt lat="37.9165016" lon="-3.0160329"><ele>742.0</ele><time>2026-04-11T18:19:08.4Z</time></trkpt><trkpt lat="37.9164464" lon="-3.0159785"><ele>742.0</ele><time>2026-04-11T18:19:09.4Z</time></trkpt><trkpt lat="37.9163906" lon="-3.0159071"><ele>742.0</ele><time>2026-04-11T18:19:10.4Z</time></trkpt><trkpt lat="37.9163363" lon="-3.0158416"><ele>742.0</ele><time>2026-04-11T18:19:11.4Z</time></trkpt><trkpt lat="37.9162461" lon="-3.0157822"><ele>742.0</ele><time>2026-04-11T18:19:12.4Z</time></trkpt><trkpt lat="37.9161573" lon="-3.0157407"><ele>742.0</ele><time>2026-04-11T18:19:13.4Z</time></trkpt><trkpt lat="37.9160656" lon="-3.0157024"><ele>742.0</ele><time>2026-04-11T18:19:14.4Z</time></trkpt><trkpt lat="37.9159705" lon="-3.0156627"><ele>742.0</ele><time>2026-04-11T18:19:15.4Z</time></trkpt><trkpt lat="37.9158748" lon="-3.0156188"><ele>742.0</ele><time>2026-04-11T18:19:16.399Z</time></trkpt><trkpt lat="37.9157719" lon="-3.015572"><ele>742.0</ele><time>2026-04-11T18:19:17.4Z</time></trkpt><trkpt lat="37.9156681" lon="-3.0155199"><ele>742.0</ele><time>2026-04-11T18:19:18.399Z</time></trkpt><trkpt lat="37.9155629" lon="-3.015462"><ele>743.6</ele><time>2026-04-11T18:19:19.4Z</time></trkpt><trkpt lat="37.9154635" lon="-3.0154057"><ele>745.2</ele><time>2026-04-11T18:19:20.4Z</time></trkpt><trkpt lat="37.9153605" lon="-3.015355"><ele>746.8</ele><time>2026-04-11T18:19:21.4Z</time></trkpt><trkpt lat="37.9152557" lon="-3.0153015"><ele>748.4</ele><time>2026-04-11T18:19:22.4Z</time></trkpt><trkpt lat="37.915154" lon="-3.0152563"><ele>750.0</ele><time>2026-04-11T18:19:23.4Z</time></trkpt><trkpt lat="37.9150601" lon="-3.0152188"><ele>751.8333333333334</ele><time>2026-04-11T18:19:24.4Z</time></trkpt><trkpt lat="37.9149766" lon="-3.0151871"><ele>753.6666666666666</ele><time>2026-04-11T18:19:25.4Z</time></trkpt><trkpt lat="37.9149016" lon="-3.0151784"><ele>755.5</ele><time>2026-04-11T18:19:26.4Z</time></trkpt><trkpt lat="37.9148308" lon="-3.0151912"><ele>757.3333333333333</ele><time>2026-04-11T18:19:27.4Z</time></trkpt><trkpt lat="37.9147653" lon="-3.0152393"><ele>759.1666666666666</ele><time>2026-04-11T18:19:28.4Z</time></trkpt><trkpt lat="37.9147089" lon="-3.0153028"><ele>761.0</ele><time>2026-04-11T18:19:29.4Z</time></trkpt><trkpt lat="37.9146845" lon="-3.0154173"><ele>761.0</ele><time>2026-04-11T18:19:30.4Z</time></trkpt><trkpt lat="37.91469" lon="-3.0155312"><ele>761.0</ele><time>2026-04-11T18:19:31.4Z</time></trkpt><trkpt lat="37.9147336" lon="-3.0156302"><ele>761.0</ele><time>2026-04-11T18:19:32.4Z</time></trkpt><trkpt lat="37.9147799" lon="-3.0157215"><ele>761.0</ele><time>2026-04-11T18:19:33.4Z</time></trkpt><trkpt lat="37.9148719" lon="-3.0157775"><ele>761.0</ele><time>2026-04-11T18:19:34.4Z</time></trkpt><trkpt lat="37.9149482" lon="-3.0158363"><ele>760.4</ele><time>2026-04-11T18:19:35.399Z</time></trkpt><trkpt lat="37.9150281" lon="-3.0159198"><ele>759.8</ele><time>2026-04-11T18:19:36.4Z</time></trkpt><trkpt lat="37.9151059" lon="-3.0160217"><ele>759.1999999999999</ele><time>2026-04-11T18:19:37.399Z</time></trkpt><trkpt lat="37.9151708" lon="-3.0161293"><ele>758.5999999999999</ele><time>2026-04-11T18:19:38.399Z</time></trkpt><trkpt lat="37.9152115" lon="-3.0162639"><ele>758.0</ele><time>2026-04-11T18:19:39.4Z</time></trkpt><trkpt lat="37.9152235" lon="-3.0164047"><ele>758.0</ele><time>2026-04-11T18:19:40.4Z</time></trkpt><trkpt lat="37.9152132" lon="-3.0165562"><ele>758.0</ele><time>2026-04-11T18:19:41.4Z</time></trkpt><trkpt lat="37.9151935" lon="-3.0167113"><ele>758.0</ele><time>2026-04-11T18:19:42.4Z</time></trkpt><trkpt lat="37.9151819" lon="-3.0168716"><ele>758.0</ele><time>2026-04-11T18:19:43.4Z</time></trkpt><trkpt lat="37.9151701" lon="-3.0170293"><ele>760.5</ele><time>2026-04-11T18:19:44.4Z</time></trkpt><trkpt lat="37.9151641" lon="-3.0171841"><ele>763.0</ele><time>2026-04-11T18:19:45.4Z</time></trkpt><trkpt lat="37.9151743" lon="-3.0173398"><ele>765.5</ele><time>2026-04-11T18:19:46.4Z</time></trkpt><trkpt lat="37.915196" lon="-3.0174915"><ele>768.0</ele><time>2026-04-11T18:19:47.4Z</time></trkpt><trkpt lat="37.9152286" lon="-3.0176412"><ele>769.4</ele><time>2026-04-11T18:19:48.4Z</time></trkpt><trkpt lat="37.9152669" lon="-3.0177931"><ele>770.8</ele><time>2026-04-11T18:19:49.4Z</time></trkpt><trkpt lat="37.9153018" lon="-3.0179388"><ele>772.2</ele><time>2026-04-11T18:19:50.4Z</time></trkpt><trkpt lat="37.9153452" lon="-3.0180669"><ele>773.6</ele><time>2026-04-11T18:19:51.399Z</time></trkpt><trkpt lat="37.9153893" lon="-3.0181689"><ele>775.0</ele><time>2026-04-11T18:19:52.399Z</time></trkpt><trkpt lat="37.9154246" lon="-3.0182395"><ele>776.8</ele><time>2026-04-11T18:19:53.4Z</time></trkpt><trkpt lat="37.9154864" lon="-3.0183538"><ele>778.6</ele><time>2026-04-11T18:19:55.399Z</time></trkpt><trkpt lat="37.9155355" lon="-3.0184873"><ele>780.4000000000001</ele><time>2026-04-11T18:19:57.4Z</time></trkpt><trkpt lat="37.9155096" lon="-3.0186231"><ele>782.2</ele><time>2026-04-11T18:19:59.4Z</time></trkpt><trkpt lat="37.9154101" lon="-3.0186641"><ele>784.0</ele><time>2026-04-11T18:20:01.4Z</time></trkpt><trkpt lat="37.9153292" lon="-3.0185763"><ele>783.9999999999999</ele><time>2026-04-11T18:20:03.4Z</time></trkpt><trkpt lat="37.9152814" lon="-3.0184592"><ele>784.0</ele><time>2026-04-11T18:20:05.4Z</time></trkpt><trkpt lat="37.9152266" lon="-3.0183974"><ele>784.0</ele><time>2026-04-11T18:20:07.4Z</time></trkpt><trkpt lat="37.9151466" lon="-3.0183432"><ele>784.0</ele><time>2026-04-11T18:20:09.4Z</time></trkpt><trkpt lat="37.9150873" lon="-3.0183063"><ele>783.9999999999999</ele><time>2026-04-11T18:20:11.4Z</time></trkpt><trkpt lat="37.9150285" lon="-3.0182771"><ele>784.0</ele><time>2026-04-11T18:20:15.4Z</time></trkpt><trkpt lat="37.9149671" lon="-3.018246"><ele>784.7142857142857</ele><time>2026-04-11T18:20:20.399Z</time></trkpt><trkpt lat="37.91496" lon="-3.0181638"><ele>785.4285714285714</ele><time>2026-04-11T18:21:18.4Z</time></trkpt><trkpt lat="37.9149219" lon="-3.018087"><ele>786.1428571428571</ele><time>2026-04-11T18:21:40.4Z</time></trkpt><trkpt lat="37.9149662" lon="-3.0180265"><ele>786.8571428571429</ele><time>2026-04-11T18:21:46.33Z</time></trkpt><trkpt lat="37.9150192" lon="-3.0179797"><ele>787.5714285714286</ele><time>2026-04-11T18:21:52.738Z</time></trkpt><trkpt lat="37.9150179" lon="-3.0178991"><ele>788.2857142857142</ele><time>2026-04-11T18:21:59.38Z</time></trkpt><trkpt lat="37.9149902" lon="-3.0178226"><ele>789.0</ele><time>2026-04-11T18:22:04.379Z</time></trkpt><trkpt lat="37.9149553" lon="-3.0177473"><ele>788.9999999999999</ele><time>2026-04-11T18:22:15.405Z</time></trkpt><trkpt lat="37.9149979" lon="-3.0176747"><ele>789.0</ele><time>2026-04-11T18:22:26.353Z</time></trkpt><trkpt lat="37.9149989" lon="-3.0175923"><ele>789.0</ele><time>2026-04-11T18:22:32.38Z</time></trkpt><trkpt lat="37.9150028" lon="-3.0175062"><ele>789.0</ele><time>2026-04-11T18:22:39.38Z</time></trkpt><trkpt lat="37.9149395" lon="-3.0174863"><ele>789.0</ele><time>2026-04-11T18:22:42.411Z</time></trkpt><trkpt lat="37.9149037" lon="-3.01742"><ele>788.9999999999999</ele><time>2026-04-11T18:22:50.411Z</time></trkpt><trkpt lat="37.9148357" lon="-3.0173452"><ele>789.0</ele><time>2026-04-11T18:22:56.677Z</time></trkpt><trkpt lat="37.9148086" lon="-3.0172663"><ele>789.0</ele><time>2026-04-11T18:23:03.05Z</time></trkpt><trkpt lat="37.9148041" lon="-3.0174151"><ele>789.0</ele><time>2026-04-11T18:24:35.935Z</time></trkpt><trkpt lat="37.9148389" lon="-3.0174826"><ele>789.0</ele><time>2026-04-11T18:24:41.079Z</time></trkpt><trkpt lat="37.9148309" lon="-3.0175712"><ele>789.0</ele><time>2026-04-11T18:24:44.237Z</time></trkpt><trkpt lat="37.9147887" lon="-3.0176333"><ele>789.0</ele><time>2026-04-11T18:24:49.699Z</time></trkpt><trkpt lat="37.9148059" lon="-3.017554"><ele>789.0</ele><time>2026-04-11T18:25:02.66Z</time></trkpt><trkpt lat="37.9146967" lon="-3.0175701"><ele>788.9999999999999</ele><time>2026-04-11T18:25:43.8Z</time></trkpt><trkpt lat="37.9146339" lon="-3.0175861"><ele>789.0</ele><time>2026-04-11T18:25:53.084Z</time></trkpt><trkpt lat="37.9145785" lon="-3.0176258"><ele>789.0</ele><time>2026-04-11T18:25:58.435Z</time></trkpt><trkpt lat="37.9145465" lon="-3.0177189"><ele>789.0</ele><time>2026-04-11T18:26:05.361Z</time></trkpt><trkpt lat="37.9145644" lon="-3.0178052"><ele>789.0</ele><time>2026-04-11T18:26:12.359Z</time></trkpt><trkpt lat="37.9146064" lon="-3.0178674"><ele>788.9999999999999</ele><time>2026-04-11T18:26:18.321Z</time></trkpt><trkpt lat="37.9146747" lon="-3.0178756"><ele>789.0</ele><time>2026-04-11T18:26:34.339Z</time></trkpt><trkpt lat="37.9147372" lon="-3.0178455"><ele>788.9999999999999</ele><time>2026-04-11T18:26:42.36Z</time></trkpt><trkpt lat="37.9148085" lon="-3.0178542"><ele>789.0</ele><time>2026-04-11T18:27:02.306Z</time></trkpt><trkpt lat="37.9147484" lon="-3.0178295"><ele>789.0</ele><time>2026-04-11T18:27:27.437Z</time></trkpt><trkpt lat="37.9147049" lon="-3.0177508"><ele>789.0</ele><time>2026-04-11T18:27:32.975Z</time></trkpt><trkpt lat="37.9146934" lon="-3.0176687"><ele>789.0</ele><time>2026-04-11T18:27:35.933Z</time></trkpt><trkpt lat="37.9147295" lon="-3.0176011"><ele>788.9999999999999</ele><time>2026-04-11T18:27:52.624Z</time></trkpt><trkpt lat="37.9147998" lon="-3.0175727"><ele>789.0</ele><time>2026-04-11T18:27:57.954Z</time></trkpt><trkpt lat="37.9148613" lon="-3.0175953"><ele>788.9999999999999</ele><time>2026-04-11T18:28:04.74Z</time></trkpt><trkpt lat="37.9148867" lon="-3.017677"><ele>789.0</ele><time>2026-04-11T18:28:10.373Z</time></trkpt><trkpt lat="37.9149244" lon="-3.0177696"><ele>789.0</ele><time>2026-04-11T18:28:18.345Z</time></trkpt><trkpt lat="37.9149178" lon="-3.0178751"><ele>789.0</ele><time>2026-04-11T18:28:26Z</time></trkpt><trkpt lat="37.9148647" lon="-3.017823"><ele>789.0</ele><time>2026-04-11T18:29:12.383Z</time></trkpt><trkpt lat="37.9148424" lon="-3.0177399"><ele>788.9999999999999</ele><time>2026-04-11T18:29:22.394Z</time></trkpt><trkpt lat="37.9148443" lon="-3.0178229"><ele>789.0</ele><time>2026-04-11T18:30:20.383Z</time></trkpt><trkpt lat="37.9148979" lon="-3.0178702"><ele>788.9999999999999</ele><time>2026-04-11T18:33:11.099Z</time></trkpt><trkpt lat="37.9149091" lon="-3.0179536"><ele>789.0</ele><time>2026-04-11T18:33:13.013Z</time></trkpt><trkpt lat="37.9149186" lon="-3.0180448"><ele>789.0</ele><time>2026-04-11T18:33:19.197Z</time></trkpt><trkpt lat="37.9148672" lon="-3.0180931"><ele>789.0</ele><time>2026-04-11T18:33:27.879Z</time></trkpt><trkpt lat="37.9149088" lon="-3.0181749"><ele>789.0</ele><time>2026-04-11T18:33:33.386Z</time></trkpt><trkpt lat="37.9149564" lon="-3.0182339"><ele>788.9999999999999</ele><time>2026-04-11T18:33:38.398Z</time></trkpt><trkpt lat="37.9149526" lon="-3.0183137"><ele>789.0</ele><time>2026-04-11T18:33:43.383Z</time></trkpt><trkpt lat="37.914904" lon="-3.0182087"><ele>788.9999999999999</ele><time>2026-04-11T18:34:29.395Z</time></trkpt><trkpt lat="37.9148793" lon="-3.0181205"><ele>789.0</ele><time>2026-04-11T18:34:32.395Z</time></trkpt><trkpt lat="37.9149231" lon="-3.0180262"><ele>789.0</ele><time>2026-04-11T18:34:35.395Z</time></trkpt><trkpt lat="37.9149766" lon="-3.0179746"><ele>789.0</ele><time>2026-04-11T18:34:37.395Z</time></trkpt><trkpt lat="37.9150372" lon="-3.017937"><ele>789.0</ele><time>2026-04-11T18:34:39.394Z</time></trkpt><trkpt lat="37.9151007" lon="-3.0179268"><ele>788.9999999999999</ele><time>2026-04-11T18:34:41.395Z</time></trkpt><trkpt lat="37.9151558" lon="-3.0179708"><ele>789.0</ele><time>2026-04-11T18:34:44.395Z</time></trkpt><trkpt lat="37.9151981" lon="-3.018052"><ele>788.1666666666666</ele><time>2026-04-11T18:34:53.395Z</time></trkpt><trkpt lat="37.9152288" lon="-3.0181407"><ele>787.3333333333333</ele><time>2026-04-11T18:34:56.395Z</time></trkpt><trkpt lat="37.9152499" lon="-3.0182332"><ele>786.5</ele><time>2026-04-11T18:35:00.395Z</time></trkpt><trkpt lat="37.9152644" lon="-3.0183279"><ele>785.6666666666666</ele><time>2026-04-11T18:35:03.395Z</time></trkpt><trkpt lat="37.9153225" lon="-3.0183961"><ele>784.8333333333333</ele><time>2026-04-11T18:35:06.394Z</time></trkpt><trkpt lat="37.9153958" lon="-3.0183312"><ele>784.0</ele><time>2026-04-11T18:35:09.395Z</time></trkpt><trkpt lat="37.9153953" lon="-3.0182429"><ele>782.2</ele><time>2026-04-11T18:35:11.395Z</time></trkpt><trkpt lat="37.9153641" lon="-3.0181629"><ele>780.4000000000001</ele><time>2026-04-11T18:35:13.395Z</time></trkpt><trkpt lat="37.9153193" lon="-3.0180554"><ele>778.6</ele><time>2026-04-11T18:35:15.395Z</time></trkpt><trkpt lat="37.9152745" lon="-3.0179213"><ele>776.8</ele><time>2026-04-11T18:35:17.395Z</time></trkpt><trkpt lat="37.9152394" lon="-3.0177759"><ele>775.0</ele><time>2026-04-11T18:35:19.394Z</time></trkpt><trkpt lat="37.9152044" lon="-3.0176327"><ele>775.0</ele><time>2026-04-11T18:35:21.395Z</time></trkpt><trkpt lat="37.9151745" lon="-3.0174886"><ele>775.0</ele><time>2026-04-11T18:35:23.395Z</time></trkpt><trkpt lat="37.9151517" lon="-3.0173452"><ele>775.0</ele><time>2026-04-11T18:35:25.395Z</time></trkpt><trkpt lat="37.9151359" lon="-3.0171915"><ele>775.0</ele><time>2026-04-11T18:35:27.395Z</time></trkpt><trkpt lat="37.9151367" lon="-3.0171069"><ele>775.0</ele><time>2026-04-11T18:35:28.395Z</time></trkpt><trkpt lat="37.9151389" lon="-3.0170182"><ele>773.8333333333333</ele><time>2026-04-11T18:35:29.395Z</time></trkpt><trkpt lat="37.9151468" lon="-3.0169279"><ele>772.6666666666666</ele><time>2026-04-11T18:35:30.394Z</time></trkpt><trkpt lat="37.9151561" lon="-3.0168352"><ele>771.5</ele><time>2026-04-11T18:35:31.395Z</time></trkpt><trkpt lat="37.915169" lon="-3.0167387"><ele>770.3333333333333</ele><time>2026-04-11T18:35:32.395Z</time></trkpt><trkpt lat="37.9151808" lon="-3.0166369"><ele>769.1666666666666</ele><time>2026-04-11T18:35:33.395Z</time></trkpt><trkpt lat="37.9151932" lon="-3.0165352"><ele>768.0</ele><time>2026-04-11T18:35:34.395Z</time></trkpt><trkpt lat="37.9152015" lon="-3.0164346"><ele>768.6666666666666</ele><time>2026-04-11T18:35:35.395Z</time></trkpt><trkpt lat="37.9152007" lon="-3.0163349"><ele>769.3333333333333</ele><time>2026-04-11T18:35:36.395Z</time></trkpt><trkpt lat="37.915192" lon="-3.016238"><ele>770.0</ele><time>2026-04-11T18:35:37.395Z</time></trkpt><trkpt lat="37.9151593" lon="-3.0161427"><ele>770.6666666666666</ele><time>2026-04-11T18:35:38.394Z</time></trkpt><trkpt lat="37.9151153" lon="-3.0160536"><ele>771.3333333333333</ele><time>2026-04-11T18:35:39.394Z</time></trkpt><trkpt lat="37.9150582" lon="-3.0159746"><ele>772.0</ele><time>2026-04-11T18:35:40.395Z</time></trkpt><trkpt lat="37.9149831" lon="-3.0159057"><ele>771.9999999999999</ele><time>2026-04-11T18:35:41.395Z</time></trkpt><trkpt lat="37.9149053" lon="-3.0158468"><ele>772.0</ele><time>2026-04-11T18:35:42.395Z</time></trkpt><trkpt lat="37.9148315" lon="-3.0157875"><ele>772.0</ele><time>2026-04-11T18:35:43.394Z</time></trkpt><trkpt lat="37.9147646" lon="-3.015722"><ele>772.0</ele><time>2026-04-11T18:35:44.395Z</time></trkpt><trkpt lat="37.9147124" lon="-3.0156467"><ele>771.9999999999999</ele><time>2026-04-11T18:35:45.395Z</time></trkpt><trkpt lat="37.9146792" lon="-3.015564"><ele>772.0</ele><time>2026-04-11T18:35:46.395Z</time></trkpt><trkpt lat="37.9146687" lon="-3.0154795"><ele>770.4285714285714</ele><time>2026-04-11T18:35:47.395Z</time></trkpt><trkpt lat="37.9146698" lon="-3.0153938"><ele>768.8571428571429</ele><time>2026-04-11T18:35:48.394Z</time></trkpt><trkpt lat="37.9146906" lon="-3.0153141"><ele>767.2857142857142</ele><time>2026-04-11T18:35:49.395Z</time></trkpt><trkpt lat="37.9147115" lon="-3.0152358"><ele>765.7142857142858</ele><time>2026-04-11T18:35:50.395Z</time></trkpt><trkpt lat="37.914736" lon="-3.0151572"><ele>764.1428571428571</ele><time>2026-04-11T18:35:52.395Z</time></trkpt><trkpt lat="37.914814" lon="-3.0150816"><ele>762.5714285714286</ele><time>2026-04-11T18:36:06.395Z</time></trkpt><trkpt lat="37.9148779" lon="-3.0150825"><ele>761.0</ele><time>2026-04-11T18:36:07.395Z</time></trkpt><trkpt lat="37.9149455" lon="-3.0150993"><ele>761.0</ele><time>2026-04-11T18:36:08.395Z</time></trkpt><trkpt lat="37.9150256" lon="-3.0151329"><ele>761.0</ele><time>2026-04-11T18:36:09.394Z</time></trkpt><trkpt lat="37.9151139" lon="-3.0151689"><ele>761.0</ele><time>2026-04-11T18:36:10.395Z</time></trkpt><trkpt lat="37.9152115" lon="-3.0152174"><ele>761.0</ele><time>2026-04-11T18:36:11.395Z</time></trkpt><trkpt lat="37.91532" lon="-3.0152684"><ele>761.0</ele><time>2026-04-11T18:36:12.395Z</time></trkpt><trkpt lat="37.9154354" lon="-3.0153301"><ele>758.25</ele><time>2026-04-11T18:36:13.395Z</time></trkpt><trkpt lat="37.9155513" lon="-3.0153978"><ele>755.5</ele><time>2026-04-11T18:36:14.395Z</time></trkpt><trkpt lat="37.9156703" lon="-3.0154652"><ele>752.75</ele><time>2026-04-11T18:36:15.395Z</time></trkpt><trkpt lat="37.9157849" lon="-3.0155285"><ele>750.0</ele><time>2026-04-11T18:36:16.395Z</time></trkpt><trkpt lat="37.9158989" lon="-3.0155802"><ele>748.4</ele><time>2026-04-11T18:36:17.394Z</time></trkpt><trkpt lat="37.9160074" lon="-3.0156266"><ele>746.8</ele><time>2026-04-11T18:36:18.395Z</time></trkpt><trkpt lat="37.9161025" lon="-3.0156654"><ele>745.2</ele><time>2026-04-11T18:36:19.394Z</time></trkpt><trkpt lat="37.9161959" lon="-3.0156998"><ele>743.6</ele><time>2026-04-11T18:36:20.395Z</time></trkpt><trkpt lat="37.9162754" lon="-3.0157275"><ele>742.0</ele><time>2026-04-11T18:36:21.394Z</time></trkpt><trkpt lat="37.9163473" lon="-3.0157428"><ele>742.0</ele><time>2026-04-11T18:36:22.395Z</time></trkpt><trkpt lat="37.9164193" lon="-3.0157372"><ele>742.0</ele><time>2026-04-11T18:36:23.395Z</time></trkpt><trkpt lat="37.9165209" lon="-3.0156951"><ele>742.0</ele><time>2026-04-11T18:36:25.319Z</time></trkpt><trkpt lat="37.9166172" lon="-3.0156135"><ele>742.0</ele><time>2026-04-11T18:36:26.401Z</time></trkpt><trkpt lat="37.9166508" lon="-3.0155441"><ele>742.0</ele><time>2026-04-11T18:36:27.404Z</time></trkpt><trkpt lat="37.9166643" lon="-3.0154602"><ele>742.0</ele><time>2026-04-11T18:36:28.383Z</time></trkpt><trkpt lat="37.9166581" lon="-3.0153662"><ele>742.0</ele><time>2026-04-11T18:36:29.404Z</time></trkpt><trkpt lat="37.9166406" lon="-3.0152654"><ele>742.0</ele><time>2026-04-11T18:36:30.379Z</time></trkpt><trkpt lat="37.9166097" lon="-3.0151639"><ele>742.0</ele><time>2026-04-11T18:36:31.378Z</time></trkpt><trkpt lat="37.9165618" lon="-3.0150597"><ele>742.0</ele><time>2026-04-11T18:36:32.379Z</time></trkpt><trkpt lat="37.9165072" lon="-3.0149551"><ele>742.0</ele><time>2026-04-11T18:36:33.379Z</time></trkpt><trkpt lat="37.9164533" lon="-3.0148459"><ele>740.1666666666667</ele><time>2026-04-11T18:36:34.378Z</time></trkpt><trkpt lat="37.9164009" lon="-3.0147456"><ele>738.3333333333334</ele><time>2026-04-11T18:36:35.379Z</time></trkpt><trkpt lat="37.9163541" lon="-3.0146531"><ele>736.5</ele><time>2026-04-11T18:36:36.379Z</time></trkpt><trkpt lat="37.9163113" lon="-3.0145746"><ele>734.6666666666666</ele><time>2026-04-11T18:36:37.379Z</time></trkpt><trkpt lat="37.9162637" lon="-3.0145008"><ele>732.8333333333333</ele><time>2026-04-11T18:36:38.379Z</time></trkpt><trkpt lat="37.9162175" lon="-3.0144365"><ele>731.0</ele><time>2026-04-11T18:36:39.379Z</time></trkpt><trkpt lat="37.9161656" lon="-3.0143797"><ele>731.0</ele><time>2026-04-11T18:36:40.379Z</time></trkpt><trkpt lat="37.9161111" lon="-3.0143278"><ele>731.0</ele><time>2026-04-11T18:36:41.379Z</time></trkpt><trkpt lat="37.9160008" lon="-3.0142492"><ele>731.0</ele><time>2026-04-11T18:36:43.379Z</time></trkpt><trkpt lat="37.9159359" lon="-3.0142133"><ele>731.0</ele><time>2026-04-11T18:36:44.379Z</time></trkpt><trkpt lat="37.9158699" lon="-3.0141704"><ele>731.0</ele><time>2026-04-11T18:36:45.378Z</time></trkpt><trkpt lat="37.9158042" lon="-3.0141367"><ele>731.0</ele><time>2026-04-11T18:36:46.379Z</time></trkpt><trkpt lat="37.915738" lon="-3.014103"><ele>730.5</ele><time>2026-04-11T18:36:47.379Z</time></trkpt><trkpt lat="37.915668" lon="-3.0140636"><ele>730.0</ele><time>2026-04-11T18:36:48.379Z</time></trkpt><trkpt lat="37.9156031" lon="-3.0140274"><ele>729.5</ele><time>2026-04-11T18:36:49.379Z</time></trkpt><trkpt lat="37.9155392" lon="-3.0139937"><ele>729.0</ele><time>2026-04-11T18:36:50.379Z</time></trkpt><trkpt lat="37.9154354" lon="-3.0139376"><ele>728.5</ele><time>2026-04-11T18:36:52.379Z</time></trkpt><trkpt lat="37.9153473" lon="-3.013904"><ele>728.0</ele><time>2026-04-11T18:36:54.379Z</time></trkpt><trkpt lat="37.9152964" lon="-3.013856"><ele>728.0</ele><time>2026-04-11T18:36:56.379Z</time></trkpt><trkpt lat="37.9152843" lon="-3.0137653"><ele>728.0</ele><time>2026-04-11T18:37:00.379Z</time></trkpt><trkpt lat="37.9151888" lon="-3.0137148"><ele>728.0</ele><time>2026-04-11T18:37:03.379Z</time></trkpt><trkpt lat="37.915102" lon="-3.0137447"><ele>728.0</ele><time>2026-04-11T18:37:05.379Z</time></trkpt><trkpt lat="37.9149956" lon="-3.0138195"><ele>728.0</ele><time>2026-04-11T18:37:07.379Z</time></trkpt><trkpt lat="37.9149378" lon="-3.0138515"><ele>730.5999999999999</ele><time>2026-04-11T18:37:08.379Z</time></trkpt><trkpt lat="37.9148197" lon="-3.0139018"><ele>733.1999999999999</ele><time>2026-04-11T18:37:10.379Z</time></trkpt><trkpt lat="37.9147166" lon="-3.0139804"><ele>735.8</ele><time>2026-04-11T18:37:12.379Z</time></trkpt><trkpt lat="37.9146457" lon="-3.0140848"><ele>738.4</ele><time>2026-04-11T18:37:14.379Z</time></trkpt><trkpt lat="37.9146314" lon="-3.0141945"><ele>741.0</ele><time>2026-04-11T18:37:16.379Z</time></trkpt><trkpt lat="37.9146064" lon="-3.0143025"><ele>741.0</ele><time>2026-04-11T18:37:18.379Z</time></trkpt><trkpt lat="37.9145441" lon="-3.0143277"><ele>741.0</ele><time>2026-04-11T18:37:20.379Z</time></trkpt><trkpt lat="37.9145028" lon="-3.01424"><ele>741.0</ele><time>2026-04-11T18:37:22.379Z</time></trkpt><trkpt lat="37.9145653" lon="-3.0141241"><ele>741.0</ele><time>2026-04-11T18:37:24.379Z</time></trkpt><trkpt lat="37.914616" lon="-3.0140714"><ele>741.0</ele><time>2026-04-11T18:37:25.379Z</time></trkpt><trkpt lat="37.9146643" lon="-3.0140054"><ele>741.0</ele><time>2026-04-11T18:37:26.378Z</time></trkpt><trkpt lat="37.9147131" lon="-3.0139393"><ele>741.0</ele><time>2026-04-11T18:37:27.379Z</time></trkpt><trkpt lat="37.9147741" lon="-3.0138931"><ele>741.0</ele><time>2026-04-11T18:37:28.379Z</time></trkpt><trkpt lat="37.9148438" lon="-3.0138624"><ele>741.0</ele><time>2026-04-11T18:37:29.379Z</time></trkpt><trkpt lat="37.9149159" lon="-3.0138334"><ele>741.0</ele><time>2026-04-11T18:37:30.379Z</time></trkpt><trkpt lat="37.9149865" lon="-3.0138"><ele>741.0</ele><time>2026-04-11T18:37:31.379Z</time></trkpt><trkpt lat="37.9150581" lon="-3.0137667"><ele>741.0</ele><time>2026-04-11T18:37:32.379Z</time></trkpt><trkpt lat="37.9151267" lon="-3.0137496"><ele>741.0</ele><time>2026-04-11T18:37:33.379Z</time></trkpt><trkpt lat="37.9151962" lon="-3.0137573"><ele>738.8333333333334</ele><time>2026-04-11T18:37:34.379Z</time></trkpt><trkpt lat="37.9152636" lon="-3.01379"><ele>736.6666666666666</ele><time>2026-04-11T18:37:35.379Z</time></trkpt><trkpt lat="37.9153336" lon="-3.0138306"><ele>734.5</ele><time>2026-04-11T18:37:36.379Z</time></trkpt><trkpt lat="37.9154061" lon="-3.0138721"><ele>732.3333333333333</ele><time>2026-04-11T18:37:37.379Z</time></trkpt><trkpt lat="37.9154831" lon="-3.0139104"><ele>730.1666666666666</ele><time>2026-04-11T18:37:38.379Z</time></trkpt><trkpt lat="37.9155608" lon="-3.0139507"><ele>728.0</ele><time>2026-04-11T18:37:39.379Z</time></trkpt><trkpt lat="37.9156398" lon="-3.0139943"><ele>728.0</ele><time>2026-04-11T18:37:40.378Z</time></trkpt><trkpt lat="37.9157221" lon="-3.0140392"><ele>728.0</ele><time>2026-04-11T18:37:41.379Z</time></trkpt><trkpt lat="37.9158086" lon="-3.0140861"><ele>728.0</ele><time>2026-04-11T18:37:42.379Z</time></trkpt><trkpt lat="37.9158975" lon="-3.0141341"><ele>728.0</ele><time>2026-04-11T18:37:43.378Z</time></trkpt><trkpt lat="37.915986" lon="-3.0141892"><ele>728.0</ele><time>2026-04-11T18:37:44.379Z</time></trkpt><trkpt lat="37.9160857" lon="-3.014251"><ele>728.75</ele><time>2026-04-11T18:37:45.379Z</time></trkpt><trkpt lat="37.9161774" lon="-3.0143308"><ele>729.5</ele><time>2026-04-11T18:37:46.379Z</time></trkpt><trkpt lat="37.9162706" lon="-3.0144287"><ele>730.25</ele><time>2026-04-11T18:37:47.379Z</time></trkpt><trkpt lat="37.9163498" lon="-3.014545"><ele>731.0</ele><time>2026-04-11T18:37:48.378Z</time></trkpt><trkpt lat="37.9164231" lon="-3.0146793"><ele>731.0</ele><time>2026-04-11T18:37:49.379Z</time></trkpt><trkpt lat="37.9164882" lon="-3.0148253"><ele>731.0</ele><time>2026-04-11T18:37:50.379Z</time></trkpt><trkpt lat="37.9165564" lon="-3.0149656"><ele>731.0</ele><time>2026-04-11T18:37:51.379Z</time></trkpt><trkpt lat="37.9166147" lon="-3.0151061"><ele>731.0</ele><time>2026-04-11T18:37:52.379Z</time></trkpt><trkpt lat="37.9166615" lon="-3.0152413"><ele>732.8333333333333</ele><time>2026-04-11T18:37:53.379Z</time></trkpt><trkpt lat="37.9166876" lon="-3.0153746"><ele>734.6666666666666</ele><time>2026-04-11T18:37:54.379Z</time></trkpt><trkpt lat="37.916694" lon="-3.0155007"><ele>736.5</ele><time>2026-04-11T18:37:55.378Z</time></trkpt><trkpt lat="37.9166938" lon="-3.0156051"><ele>738.3333333333334</ele><time>2026-04-11T18:37:56.379Z</time></trkpt><trkpt lat="37.9166959" lon="-3.0157144"><ele>740.1666666666667</ele><time>2026-04-11T18:37:57.379Z</time></trkpt><trkpt lat="37.9167085" lon="-3.0157934"><ele>742.0</ele><time>2026-04-11T18:37:58.379Z</time></trkpt><trkpt lat="37.916734" lon="-3.0158935"><ele>741.4000000000001</ele><time>2026-04-11T18:37:59.379Z</time></trkpt><trkpt lat="37.9167754" lon="-3.0159958"><ele>740.8000000000001</ele><time>2026-04-11T18:38:00.378Z</time></trkpt><trkpt lat="37.9168312" lon="-3.0160937"><ele>740.2</ele><time>2026-04-11T18:38:01.379Z</time></trkpt><trkpt lat="37.9168898" lon="-3.0161773"><ele>739.6</ele><time>2026-04-11T18:38:02.378Z</time></trkpt><trkpt lat="37.9169701" lon="-3.0162358"><ele>739.0</ele><time>2026-04-11T18:38:03.379Z</time></trkpt><trkpt lat="37.9170492" lon="-3.0162675"><ele>739.0</ele><time>2026-04-11T18:38:04.379Z</time></trkpt><trkpt lat="37.91713" lon="-3.0162621"><ele>739.0</ele><time>2026-04-11T18:38:05.379Z</time></trkpt><trkpt lat="37.9172384" lon="-3.0162121"><ele>739.0</ele><time>2026-04-11T18:38:07.379Z</time></trkpt><trkpt lat="37.9172956" lon="-3.0161005"><ele>739.0</ele><time>2026-04-11T18:38:09.379Z</time></trkpt><trkpt lat="37.9173056" lon="-3.0160064"><ele>739.0</ele><time>2026-04-11T18:38:10.379Z</time></trkpt><trkpt lat="37.9172896" lon="-3.0159099"><ele>737.0</ele><time>2026-04-11T18:38:11.379Z</time></trkpt><trkpt lat="37.9172692" lon="-3.0158007"><ele>735.0</ele><time>2026-04-11T18:38:12.379Z</time></trkpt><trkpt lat="37.9172389" lon="-3.0156864"><ele>733.0</ele><time>2026-04-11T18:38:13.379Z</time></trkpt><trkpt lat="37.9172108" lon="-3.0155697"><ele>731.0</ele><time>2026-04-11T18:38:14.378Z</time></trkpt><trkpt lat="37.9171833" lon="-3.015462"><ele>729.0</ele><time>2026-04-11T18:38:15.379Z</time></trkpt><trkpt lat="37.9171511" lon="-3.0153621"><ele>729.0</ele><time>2026-04-11T18:38:16.379Z</time></trkpt><trkpt lat="37.9171092" lon="-3.0152576"><ele>729.0</ele><time>2026-04-11T18:38:17.379Z</time></trkpt><trkpt lat="37.9170532" lon="-3.0151526"><ele>729.0</ele><time>2026-04-11T18:38:18.378Z</time></trkpt><trkpt lat="37.9169899" lon="-3.0150349"><ele>729.0</ele><time>2026-04-11T18:38:19.379Z</time></trkpt><trkpt lat="37.9169187" lon="-3.0149019"><ele>729.0</ele><time>2026-04-11T18:38:20.379Z</time></trkpt><trkpt lat="37.9168474" lon="-3.0147647"><ele>729.5</ele><time>2026-04-11T18:38:21.379Z</time></trkpt><trkpt lat="37.9167694" lon="-3.0146241"><ele>730.0</ele><time>2026-04-11T18:38:22.379Z</time></trkpt><trkpt lat="37.9166833" lon="-3.0144769"><ele>730.5</ele><time>2026-04-11T18:38:23.379Z</time></trkpt><trkpt lat="37.9166007" lon="-3.0143347"><ele>731.0</ele><time>2026-04-11T18:38:24.378Z</time></trkpt><trkpt lat="37.9165142" lon="-3.014188"><ele>728.75</ele><time>2026-04-11T18:38:25.379Z</time></trkpt><trkpt lat="37.9164318" lon="-3.0140422"><ele>726.5</ele><time>2026-04-11T18:38:26.379Z</time></trkpt><trkpt lat="37.9163479" lon="-3.013899"><ele>724.25</ele><time>2026-04-11T18:38:27.378Z</time></trkpt><trkpt lat="37.9162647" lon="-3.013754"><ele>722.0</ele><time>2026-04-11T18:38:28.379Z</time></trkpt><trkpt lat="37.9161803" lon="-3.0136089"><ele>722.0</ele><time>2026-04-11T18:38:29.379Z</time></trkpt><trkpt lat="37.9160951" lon="-3.0134655"><ele>722.0</ele><time>2026-04-11T18:38:30.379Z</time></trkpt><trkpt lat="37.9159913" lon="-3.0133045"><ele>722.0</ele><time>2026-04-11T18:38:31.379Z</time></trkpt><trkpt lat="37.9159452" lon="-3.0132291"><ele>722.0</ele><time>2026-04-11T18:38:32.379Z</time></trkpt><trkpt lat="37.9158895" lon="-3.0131342"><ele>721.5</ele><time>2026-04-11T18:38:33.379Z</time></trkpt><trkpt lat="37.915835" lon="-3.0130472"><ele>721.0</ele><time>2026-04-11T18:38:34.379Z</time></trkpt><trkpt lat="37.9157701" lon="-3.01294"><ele>720.5</ele><time>2026-04-11T18:38:36.379Z</time></trkpt><trkpt lat="37.9157245" lon="-3.0128659"><ele>720.0</ele><time>2026-04-11T18:38:37.378Z</time></trkpt><trkpt lat="37.9156803" lon="-3.0127886"><ele>719.5</ele><time>2026-04-11T18:38:38.378Z</time></trkpt><trkpt lat="37.9156334" lon="-3.0127091"><ele>719.0</ele><time>2026-04-11T18:38:39.379Z</time></trkpt><trkpt lat="37.915586" lon="-3.0126332"><ele>718.9999999999999</ele><time>2026-04-11T18:38:40.379Z</time></trkpt><trkpt lat="37.9155354" lon="-3.0125739"><ele>719.0</ele><time>2026-04-11T18:38:41.379Z</time></trkpt><trkpt lat="37.9154747" lon="-3.0125368"><ele>719.0</ele><time>2026-04-11T18:38:42.379Z</time></trkpt><trkpt lat="37.9154098" lon="-3.0125008"><ele>719.0</ele><time>2026-04-11T18:38:43.379Z</time></trkpt><trkpt lat="37.9153531" lon="-3.0124427"><ele>719.0</ele><time>2026-04-11T18:38:44.378Z</time></trkpt><trkpt lat="37.9153141" lon="-3.0123675"><ele>718.9999999999999</ele><time>2026-04-11T18:38:45.378Z</time></trkpt><trkpt lat="37.9152919" lon="-3.0122729"><ele>719.0</ele><time>2026-04-11T18:38:46.379Z</time></trkpt><trkpt lat="37.9152636" lon="-3.0121783"><ele>717.8333333333333</ele><time>2026-04-11T18:38:47.379Z</time></trkpt><trkpt lat="37.9152305" lon="-3.0120892"><ele>716.6666666666666</ele><time>2026-04-11T18:38:48.379Z</time></trkpt><trkpt lat="37.9151917" lon="-3.011998"><ele>715.5</ele><time>2026-04-11T18:38:49.379Z</time></trkpt><trkpt lat="37.9151458" lon="-3.0119163"><ele>714.3333333333334</ele><time>2026-04-11T18:38:50.379Z</time></trkpt><trkpt lat="37.9150969" lon="-3.0118399"><ele>713.1666666666667</ele><time>2026-04-11T18:38:51.379Z</time></trkpt><trkpt lat="37.9150336" lon="-3.0117394"><ele>712.0</ele><time>2026-04-11T18:38:53.378Z</time></trkpt><trkpt lat="37.9149911" lon="-3.0116723"><ele>712.5</ele><time>2026-04-11T18:38:54.379Z</time></trkpt><trkpt lat="37.9149454" lon="-3.0116005"><ele>713.0</ele><time>2026-04-11T18:38:55.379Z</time></trkpt><trkpt lat="37.914897" lon="-3.0115224"><ele>713.5</ele><time>2026-04-11T18:38:56.379Z</time></trkpt><trkpt lat="37.9148503" lon="-3.0114518"><ele>714.0</ele><time>2026-04-11T18:38:57.379Z</time></trkpt><trkpt lat="37.914786" lon="-3.0113508"><ele>714.5</ele><time>2026-04-11T18:38:59.379Z</time></trkpt><trkpt lat="37.9146999" lon="-3.0112421"><ele>715.0</ele><time>2026-04-11T18:39:01.378Z</time></trkpt><trkpt lat="37.9146468" lon="-3.0111838"><ele>715.0</ele><time>2026-04-11T18:39:02.379Z</time></trkpt><trkpt lat="37.914587" lon="-3.0111212"><ele>715.0</ele><time>2026-04-11T18:39:03.379Z</time></trkpt><trkpt lat="37.9145205" lon="-3.0110628"><ele>715.0</ele><time>2026-04-11T18:39:04.379Z</time></trkpt><trkpt lat="37.9144467" lon="-3.0109987"><ele>715.0</ele><time>2026-04-11T18:39:05.379Z</time></trkpt><trkpt lat="37.9143672" lon="-3.0109356"><ele>715.0</ele><time>2026-04-11T18:39:06.379Z</time></trkpt><trkpt lat="37.9142822" lon="-3.0108744"><ele>715.0</ele><time>2026-04-11T18:39:07.379Z</time></trkpt><trkpt lat="37.9141889" lon="-3.0108167"><ele>712.4</ele><time>2026-04-11T18:39:08.379Z</time></trkpt><trkpt lat="37.9140947" lon="-3.0107637"><ele>709.8</ele><time>2026-04-11T18:39:09.379Z</time></trkpt><trkpt lat="37.9139948" lon="-3.0107215"><ele>707.2</ele><time>2026-04-11T18:39:10.379Z</time></trkpt><trkpt lat="37.9138949" lon="-3.0106832"><ele>704.6</ele><time>2026-04-11T18:39:11.378Z</time></trkpt><trkpt lat="37.913793" lon="-3.0106515"><ele>702.0</ele><time>2026-04-11T18:39:12.379Z</time></trkpt><trkpt lat="37.9136989" lon="-3.0106322"><ele>702.0</ele><time>2026-04-11T18:39:13.379Z</time></trkpt><trkpt lat="37.9136096" lon="-3.0106149"><ele>702.0</ele><time>2026-04-11T18:39:14.379Z</time></trkpt><trkpt lat="37.9135224" lon="-3.0106036"><ele>702.0</ele><time>2026-04-11T18:39:15.379Z</time></trkpt><trkpt lat="37.9134299" lon="-3.010593"><ele>702.0</ele><time>2026-04-11T18:39:16.378Z</time></trkpt><trkpt lat="37.9133394" lon="-3.0105813"><ele>702.0</ele><time>2026-04-11T18:39:17.379Z</time></trkpt><trkpt lat="37.9132473" lon="-3.0105695"><ele>701.2</ele><time>2026-04-11T18:39:18.379Z</time></trkpt><trkpt lat="37.9131526" lon="-3.0105631"><ele>700.4000000000001</ele><time>2026-04-11T18:39:19.379Z</time></trkpt><trkpt lat="37.9130527" lon="-3.0105555"><ele>699.5999999999999</ele><time>2026-04-11T18:39:20.379Z</time></trkpt><trkpt lat="37.9129524" lon="-3.0105474"><ele>698.8</ele><time>2026-04-11T18:39:21.379Z</time></trkpt><trkpt lat="37.9128477" lon="-3.0105392"><ele>698.0</ele><time>2026-04-11T18:39:22.379Z</time></trkpt><trkpt lat="37.9127415" lon="-3.0105266"><ele>698.0</ele><time>2026-04-11T18:39:23.379Z</time></trkpt><trkpt lat="37.9126324" lon="-3.0105148"><ele>698.0</ele><time>2026-04-11T18:39:24.379Z</time></trkpt><trkpt lat="37.9125217" lon="-3.0104953"><ele>698.0</ele><time>2026-04-11T18:39:25.379Z</time></trkpt><trkpt lat="37.9124125" lon="-3.0104659"><ele>698.0</ele><time>2026-04-11T18:39:26.379Z</time></trkpt><trkpt lat="37.9123057" lon="-3.0104243"><ele>698.0</ele><time>2026-04-11T18:39:27.378Z</time></trkpt><trkpt lat="37.9121966" lon="-3.0103738"><ele>698.5999999999999</ele><time>2026-04-11T18:39:28.379Z</time></trkpt><trkpt lat="37.9120965" lon="-3.0103212"><ele>699.1999999999999</ele><time>2026-04-11T18:39:29.379Z</time></trkpt><trkpt lat="37.9119941" lon="-3.0102769"><ele>699.8</ele><time>2026-04-11T18:39:30.378Z</time></trkpt><trkpt lat="37.9119015" lon="-3.0102231"><ele>700.4</ele><time>2026-04-11T18:39:31.379Z</time></trkpt><trkpt lat="37.9118129" lon="-3.0101704"><ele>701.0</ele><time>2026-04-11T18:39:32.379Z</time></trkpt><trkpt lat="37.9117291" lon="-3.0101198"><ele>702.1666666666666</ele><time>2026-04-11T18:39:33.379Z</time></trkpt><trkpt lat="37.9116525" lon="-3.0100661"><ele>703.3333333333333</ele><time>2026-04-11T18:39:34.379Z</time></trkpt><trkpt lat="37.9115881" lon="-3.010004"><ele>704.5</ele><time>2026-04-11T18:39:35.379Z</time></trkpt><trkpt lat="37.9115392" lon="-3.0099282"><ele>705.6666666666666</ele><time>2026-04-11T18:39:36.379Z</time></trkpt><trkpt lat="37.9115092" lon="-3.009842"><ele>706.8333333333334</ele><time>2026-04-11T18:39:37.378Z</time></trkpt><trkpt lat="37.9115043" lon="-3.009754"><ele>708.0</ele><time>2026-04-11T18:39:38.379Z</time></trkpt><trkpt lat="37.911508" lon="-3.0096681"><ele>708.0</ele><time>2026-04-11T18:39:39.378Z</time></trkpt><trkpt lat="37.9115956" lon="-3.00953"><ele>708.0</ele><time>2026-04-11T18:39:41.379Z</time></trkpt><trkpt lat="37.9116577" lon="-3.0094629"><ele>708.0</ele><time>2026-04-11T18:39:42.379Z</time></trkpt><trkpt lat="37.911718" lon="-3.0094009"><ele>708.0</ele><time>2026-04-11T18:39:43.379Z</time></trkpt><trkpt lat="37.9117811" lon="-3.0093407"><ele>708.0</ele><time>2026-04-11T18:39:44.379Z</time></trkpt><trkpt lat="37.9118492" lon="-3.009285"><ele>708.0</ele><time>2026-04-11T18:39:45.379Z</time></trkpt><trkpt lat="37.9119074" lon="-3.0092251"><ele>708.0</ele><time>2026-04-11T18:39:46.379Z</time></trkpt><trkpt lat="37.911972" lon="-3.0091691"><ele>708.0</ele><time>2026-04-11T18:39:47.379Z</time></trkpt><trkpt lat="37.9120398" lon="-3.0091236"><ele>708.0</ele><time>2026-04-11T18:39:48.379Z</time></trkpt><trkpt lat="37.9121187" lon="-3.0090849"><ele>708.0</ele><time>2026-04-11T18:39:49.379Z</time></trkpt><trkpt lat="37.9121993" lon="-3.0090583"><ele>708.0</ele><time>2026-04-11T18:39:50.379Z</time></trkpt><trkpt lat="37.91228" lon="-3.0090425"><ele>711.1666666666666</ele><time>2026-04-11T18:39:51.379Z</time></trkpt><trkpt lat="37.9123603" lon="-3.0090285"><ele>714.3333333333334</ele><time>2026-04-11T18:39:52.379Z</time></trkpt><trkpt lat="37.9124455" lon="-3.0090156"><ele>717.5</ele><time>2026-04-11T18:39:53.379Z</time></trkpt><trkpt lat="37.9125328" lon="-3.0090012"><ele>720.6666666666667</ele><time>2026-04-11T18:39:54.379Z</time></trkpt><trkpt lat="37.9126194" lon="-3.008986"><ele>723.8333333333334</ele><time>2026-04-11T18:39:55.379Z</time></trkpt><trkpt lat="37.9127048" lon="-3.0089738"><ele>727.0</ele><time>2026-04-11T18:39:56.378Z</time></trkpt><trkpt lat="37.9127894" lon="-3.0089555"><ele>727.0</ele><time>2026-04-11T18:39:57.378Z</time></trkpt><trkpt lat="37.9128855" lon="-3.0089311"><ele>727.0</ele><time>2026-04-11T18:39:58.379Z</time></trkpt><trkpt lat="37.9129788" lon="-3.0088994"><ele>727.0</ele><time>2026-04-11T18:39:59.379Z</time></trkpt><trkpt lat="37.9130656" lon="-3.0088622"><ele>727.0</ele><time>2026-04-11T18:40:00.379Z</time></trkpt><trkpt lat="37.9131562" lon="-3.0088197"><ele>727.0</ele><time>2026-04-11T18:40:01.379Z</time></trkpt><trkpt lat="37.9132432" lon="-3.008778"><ele>727.0</ele><time>2026-04-11T18:40:02.379Z</time></trkpt><trkpt lat="37.9133307" lon="-3.0087374"><ele>727.0</ele><time>2026-04-11T18:40:03.379Z</time></trkpt><trkpt lat="37.9134166" lon="-3.0086951"><ele>727.0</ele><time>2026-04-11T18:40:04.379Z</time></trkpt><trkpt lat="37.9135015" lon="-3.0086361"><ele>727.0</ele><time>2026-04-11T18:40:05.379Z</time></trkpt><trkpt lat="37.9135751" lon="-3.0085666"><ele>727.0</ele><time>2026-04-11T18:40:06.379Z</time></trkpt><trkpt lat="37.9136422" lon="-3.0084861"><ele>726.6666666666667</ele><time>2026-04-11T18:40:07.379Z</time></trkpt><trkpt lat="37.9137056" lon="-3.0083991"><ele>726.3333333333334</ele><time>2026-04-11T18:40:08.378Z</time></trkpt><trkpt lat="37.913748" lon="-3.008315"><ele>726.0</ele><time>2026-04-11T18:40:09.379Z</time></trkpt><trkpt lat="37.9137853" lon="-3.0082283"><ele>725.6666666666666</ele><time>2026-04-11T18:40:10.378Z</time></trkpt><trkpt lat="37.9138076" lon="-3.0081472"><ele>725.3333333333333</ele><time>2026-04-11T18:40:11.379Z</time></trkpt><trkpt lat="37.9138257" lon="-3.0080637"><ele>725.0</ele><time>2026-04-11T18:40:12.378Z</time></trkpt><trkpt lat="37.9138419" lon="-3.0079154"><ele>725.0</ele><time>2026-04-11T18:40:14.379Z</time></trkpt><trkpt lat="37.913861" lon="-3.0078155"><ele>725.0</ele><time>2026-04-11T18:40:16.379Z</time></trkpt><trkpt lat="37.9138869" lon="-3.007728"><ele>725.0</ele><time>2026-04-11T18:40:18.379Z</time></trkpt><trkpt lat="37.9139174" lon="-3.0076352"><ele>725.0</ele><time>2026-04-11T18:40:20.378Z</time></trkpt><trkpt lat="37.9139577" lon="-3.0075182"><ele>725.0</ele><time>2026-04-11T18:40:22.379Z</time></trkpt><trkpt lat="37.9139977" lon="-3.0074063"><ele>725.0</ele><time>2026-04-11T18:40:24.379Z</time></trkpt><trkpt lat="37.9140425" lon="-3.0073016"><ele>726.8</ele><time>2026-04-11T18:40:26.379Z</time></trkpt><trkpt lat="37.9140982" lon="-3.0072024"><ele>728.6</ele><time>2026-04-11T18:40:28.374Z</time></trkpt><trkpt lat="37.9141524" lon="-3.0070873"><ele>730.4000000000001</ele><time>2026-04-11T18:40:30.379Z</time></trkpt><trkpt lat="37.9142158" lon="-3.0069882"><ele>732.2</ele><time>2026-04-11T18:40:32.379Z</time></trkpt><trkpt lat="37.9142938" lon="-3.0069365"><ele>734.0</ele><time>2026-04-11T18:40:34.379Z</time></trkpt><trkpt lat="37.9143781" lon="-3.0068933"><ele>734.0</ele><time>2026-04-11T18:40:36.379Z</time></trkpt><trkpt lat="37.9144376" lon="-3.0068368"><ele>734.0</ele><time>2026-04-11T18:40:38.379Z</time></trkpt><trkpt lat="37.9144276" lon="-3.0067408"><ele>734.0</ele><time>2026-04-11T18:40:40.378Z</time></trkpt><trkpt lat="37.9143391" lon="-3.0066766"><ele>734.0</ele><time>2026-04-11T18:40:42.379Z</time></trkpt><trkpt lat="37.9142561" lon="-3.006632"><ele>734.0</ele><time>2026-04-11T18:40:44.379Z</time></trkpt><trkpt lat="37.914198" lon="-3.0065937"><ele>734.0</ele><time>2026-04-11T18:40:45.379Z</time></trkpt><trkpt lat="37.9140931" lon="-3.0065201"><ele>737.3333333333333</ele><time>2026-04-11T18:40:47.379Z</time></trkpt><trkpt lat="37.9139865" lon="-3.0064843"><ele>740.6666666666666</ele><time>2026-04-11T18:40:49.379Z</time></trkpt><trkpt lat="37.9139089" lon="-3.0064927"><ele>744.0</ele><time>2026-04-11T18:40:51.378Z</time></trkpt><trkpt lat="37.9138333" lon="-3.0065143"><ele>747.3333333333334</ele><time>2026-04-11T18:40:53.379Z</time></trkpt><trkpt lat="37.9137465" lon="-3.0065368"><ele>750.6666666666667</ele><time>2026-04-11T18:40:55.378Z</time></trkpt><trkpt lat="37.9136602" lon="-3.0065548"><ele>754.0</ele><time>2026-04-11T18:40:57.379Z</time></trkpt><trkpt lat="37.9135831" lon="-3.006576"><ele>754.0</ele><time>2026-04-11T18:40:59.379Z</time></trkpt><trkpt lat="37.9135245" lon="-3.0066101"><ele>754.0</ele><time>2026-04-11T18:41:01.379Z</time></trkpt><trkpt lat="37.9134988" lon="-3.0066921"><ele>754.0</ele><time>2026-04-11T18:41:03.379Z</time></trkpt><trkpt lat="37.9135115" lon="-3.0068058"><ele>754.0</ele><time>2026-04-11T18:41:05.379Z</time></trkpt><trkpt lat="37.9135362" lon="-3.0069312"><ele>754.0</ele><time>2026-04-11T18:41:07.379Z</time></trkpt><trkpt lat="37.9135513" lon="-3.0070118"><ele>754.0</ele><time>2026-04-11T18:41:08.379Z</time></trkpt><trkpt lat="37.9135649" lon="-3.0071413"><ele>751.5</ele><time>2026-04-11T18:41:10.378Z</time></trkpt><trkpt lat="37.9135689" lon="-3.0072378"><ele>749.0</ele><time>2026-04-11T18:41:12.379Z</time></trkpt><trkpt lat="37.9135562" lon="-3.0073336"><ele>746.5</ele><time>2026-04-11T18:41:14.378Z</time></trkpt><trkpt lat="37.9135133" lon="-3.007427"><ele>744.0</ele><time>2026-04-11T18:41:16.379Z</time></trkpt><trkpt lat="37.9134411" lon="-3.0074898"><ele>741.5</ele><time>2026-04-11T18:41:18.379Z</time></trkpt><trkpt lat="37.9133602" lon="-3.0075143"><ele>739.0</ele><time>2026-04-11T18:41:20.378Z</time></trkpt><trkpt lat="37.9132742" lon="-3.0074929"><ele>739.0</ele><time>2026-04-11T18:41:22.379Z</time></trkpt><trkpt lat="37.9131993" lon="-3.0074133"><ele>739.0</ele><time>2026-04-11T18:41:24.379Z</time></trkpt><trkpt lat="37.9131616" lon="-3.0073179"><ele>739.0</ele><time>2026-04-11T18:41:26.379Z</time></trkpt><trkpt lat="37.9131418" lon="-3.007207"><ele>739.0</ele><time>2026-04-11T18:41:28.379Z</time></trkpt><trkpt lat="37.9131211" lon="-3.0070867"><ele>739.0</ele><time>2026-04-11T18:41:30.379Z</time></trkpt><trkpt lat="37.9131029" lon="-3.0069853"><ele>739.0</ele><time>2026-04-11T18:41:32.379Z</time></trkpt><trkpt lat="37.9130834" lon="-3.0068835"><ele>739.0</ele><time>2026-04-11T18:41:34.379Z</time></trkpt><trkpt lat="37.9131121" lon="-3.0067521"><ele>739.0</ele><time>2026-04-11T18:41:40.392Z</time></trkpt><trkpt lat="37.9131739" lon="-3.0067312"><ele>739.0</ele><time>2026-04-11T18:41:44.388Z</time></trkpt><trkpt lat="37.9132434" lon="-3.0067128"><ele>739.0</ele><time>2026-04-11T18:41:50.388Z</time></trkpt><trkpt lat="37.9133099" lon="-3.0066727"><ele>739.0</ele><time>2026-04-11T18:42:03.388Z</time></trkpt><trkpt lat="37.9133749" lon="-3.0066468"><ele>738.4285714285714</ele><time>2026-04-11T18:42:07.387Z</time></trkpt><trkpt lat="37.9134362" lon="-3.0066239"><ele>737.8571428571429</ele><time>2026-04-11T18:42:10.388Z</time></trkpt><trkpt lat="37.9134979" lon="-3.0066526"><ele>737.2857142857142</ele><time>2026-04-11T18:42:13.387Z</time></trkpt><trkpt lat="37.9135264" lon="-3.0067592"><ele>736.7142857142858</ele><time>2026-04-11T18:42:16.388Z</time></trkpt><trkpt lat="37.9135377" lon="-3.0068641"><ele>736.1428571428571</ele><time>2026-04-11T18:42:19.387Z</time></trkpt><trkpt lat="37.9135508" lon="-3.0069435"><ele>735.5714285714286</ele><time>2026-04-11T18:42:22.388Z</time></trkpt><trkpt lat="37.9135637" lon="-3.0070449"><ele>735.0</ele><time>2026-04-11T18:42:26.388Z</time></trkpt><trkpt lat="37.9135622" lon="-3.00713"><ele>735.0</ele><time>2026-04-11T18:42:29.388Z</time></trkpt><trkpt lat="37.9135703" lon="-3.007213"><ele>735.0</ele><time>2026-04-11T18:42:31.387Z</time></trkpt><trkpt lat="37.913562" lon="-3.007333"><ele>735.0</ele><time>2026-04-11T18:42:33.388Z</time></trkpt><trkpt lat="37.9135041" lon="-3.0074399"><ele>735.0</ele><time>2026-04-11T18:42:35.388Z</time></trkpt><trkpt lat="37.9134244" lon="-3.0074955"><ele>735.0</ele><time>2026-04-11T18:42:37.388Z</time></trkpt><trkpt lat="37.91332" lon="-3.0075004"><ele>735.6666666666666</ele><time>2026-04-11T18:42:39.387Z</time></trkpt><trkpt lat="37.9132256" lon="-3.0074279"><ele>736.3333333333334</ele><time>2026-04-11T18:42:41.388Z</time></trkpt><trkpt lat="37.9131725" lon="-3.0073045"><ele>737.0</ele><time>2026-04-11T18:42:43.388Z</time></trkpt><trkpt lat="37.9131562" lon="-3.007224"><ele>737.6666666666667</ele><time>2026-04-11T18:42:44.388Z</time></trkpt><trkpt lat="37.9131361" lon="-3.0071384"><ele>738.3333333333334</ele><time>2026-04-11T18:42:45.388Z</time></trkpt><trkpt lat="37.9131195" lon="-3.007053"><ele>739.0</ele><time>2026-04-11T18:42:46.387Z</time></trkpt><trkpt lat="37.9131028" lon="-3.0069723"><ele>739.0</ele><time>2026-04-11T18:42:47.388Z</time></trkpt><trkpt lat="37.9130879" lon="-3.0068946"><ele>739.0</ele><time>2026-04-11T18:42:48.388Z</time></trkpt><trkpt lat="37.9130684" lon="-3.006774"><ele>739.0</ele><time>2026-04-11T18:42:50.388Z</time></trkpt><trkpt lat="37.9131101" lon="-3.0067105"><ele>739.0</ele><time>2026-04-11T18:42:52.387Z</time></trkpt><trkpt lat="37.9132058" lon="-3.0066724"><ele>739.0</ele><time>2026-04-11T18:42:54.388Z</time></trkpt><trkpt lat="37.9132687" lon="-3.006653"><ele>739.0</ele><time>2026-04-11T18:42:55.387Z</time></trkpt><trkpt lat="37.9133752" lon="-3.0066214"><ele>738.3333333333334</ele><time>2026-04-11T18:42:57.388Z</time></trkpt><trkpt lat="37.9134493" lon="-3.0066168"><ele>737.6666666666667</ele><time>2026-04-11T18:42:59.388Z</time></trkpt><trkpt lat="37.9135007" lon="-3.0067"><ele>737.0</ele><time>2026-04-11T18:43:01.388Z</time></trkpt><trkpt lat="37.91351" lon="-3.0067969"><ele>736.3333333333334</ele><time>2026-04-11T18:43:03.388Z</time></trkpt><trkpt lat="37.9135268" lon="-3.0068866"><ele>735.6666666666666</ele><time>2026-04-11T18:43:07.388Z</time></trkpt><trkpt lat="37.9135581" lon="-3.0070024"><ele>735.0</ele><time>2026-04-11T18:43:11.388Z</time></trkpt><trkpt lat="37.9135575" lon="-3.0070965"><ele>735.0</ele><time>2026-04-11T18:43:13.388Z</time></trkpt><trkpt lat="37.9135027" lon="-3.0070508"><ele>735.0</ele><time>2026-04-11T18:45:48.413Z</time></trkpt><trkpt lat="37.9134874" lon="-3.0069693"><ele>735.0</ele><time>2026-04-11T18:45:54.263Z</time></trkpt><trkpt lat="37.9134761" lon="-3.0068883"><ele>735.0</ele><time>2026-04-11T18:45:58.365Z</time></trkpt><trkpt lat="37.9134755" lon="-3.006791"><ele>735.0</ele><time>2026-04-11T18:46:03.314Z</time></trkpt><trkpt lat="37.9134471" lon="-3.0067151"><ele>735.0</ele><time>2026-04-11T18:46:08.381Z</time></trkpt><trkpt lat="37.9133822" lon="-3.0066868"><ele>735.0</ele><time>2026-04-11T18:46:13.377Z</time></trkpt><trkpt lat="37.9133141" lon="-3.0066925"><ele>735.0</ele><time>2026-04-11T18:46:18.411Z</time></trkpt><trkpt lat="37.9133146" lon="-3.0067795"><ele>735.0</ele><time>2026-04-11T18:46:28.38Z</time></trkpt><trkpt lat="37.9133253" lon="-3.006872"><ele>735.0</ele><time>2026-04-11T18:46:33.381Z</time></trkpt><trkpt lat="37.9133421" lon="-3.0069503"><ele>735.0</ele><time>2026-04-11T18:46:38.38Z</time></trkpt><trkpt lat="37.9133598" lon="-3.0070335"><ele>735.0</ele><time>2026-04-11T18:46:44.291Z</time></trkpt><trkpt lat="37.9133829" lon="-3.0071106"><ele>735.0</ele><time>2026-04-11T18:46:51.39Z</time></trkpt><trkpt lat="37.9134391" lon="-3.0071491"><ele>735.0</ele><time>2026-04-11T18:46:56.322Z</time></trkpt><trkpt lat="37.9133801" lon="-3.0072171"><ele>735.0</ele><time>2026-04-11T18:47:01.381Z</time></trkpt><trkpt lat="37.9134733" lon="-3.0072666"><ele>735.0</ele><time>2026-04-11T18:47:33.381Z</time></trkpt><trkpt lat="37.9134266" lon="-3.0072027"><ele>735.0</ele><time>2026-04-11T18:47:40.381Z</time></trkpt><trkpt lat="37.91339" lon="-3.0072752"><ele>735.0</ele><time>2026-04-11T18:47:48.381Z</time></trkpt><trkpt lat="37.913449" lon="-3.0073623"><ele>735.0</ele><time>2026-04-11T18:49:48.712Z</time></trkpt><trkpt lat="37.9134804" lon="-3.0074326"><ele>735.0</ele><time>2026-04-11T18:49:50.755Z</time></trkpt><trkpt lat="37.9134132" lon="-3.0073086"><ele>735.0</ele><time>2026-04-11T18:49:59.384Z</time></trkpt><trkpt lat="37.9139123" lon="-3.0071704"><ele>735.0</ele><time>2026-04-11T18:53:16.394Z</time></trkpt><trkpt lat="37.9141206" lon="-3.0071325"><ele>735.0</ele><time>2026-04-11T18:53:17.394Z</time></trkpt><trkpt lat="37.9140745" lon="-3.007197"><ele>735.0</ele><time>2026-04-11T18:53:38.394Z</time></trkpt><trkpt lat="37.9140062" lon="-3.0071599"><ele>735.0</ele><time>2026-04-11T18:53:39.394Z</time></trkpt><trkpt lat="37.9139182" lon="-3.007131"><ele>735.0</ele><time>2026-04-11T18:53:41.394Z</time></trkpt><trkpt lat="37.9137956" lon="-3.0071769"><ele>735.0</ele><time>2026-04-11T18:53:44.394Z</time></trkpt><trkpt lat="37.9137192" lon="-3.0071786"><ele>735.0</ele><time>2026-04-11T18:54:24.394Z</time></trkpt><trkpt lat="37.9136517" lon="-3.0071991"><ele>735.0</ele><time>2026-04-11T18:54:32.394Z</time></trkpt></trkseg><trkseg><trkpt lat="37.9135046" lon="-3.0072404"><ele>735.0</ele><time>2026-04-11T20:52:40.35Z</time></trkpt><trkpt lat="37.9134933" lon="-3.0071597"><ele>735.0</ele><time>2026-04-11T21:15:46.339Z</time></trkpt><trkpt lat="37.9135088" lon="-3.0072396"><ele>735.0</ele><time>2026-04-11T21:16:47.339Z</time></trkpt><trkpt lat="37.9135448" lon="-3.0073076"><ele>735.0</ele><time>2026-04-11T21:38:25.348Z</time></trkpt><trkpt lat="37.9135085" lon="-3.0072375"><ele>735.0</ele><time>2026-04-11T21:39:41.347Z</time></trkpt><trkpt lat="37.9135616" lon="-3.007292"><ele>735.0</ele><time>2026-04-11T21:43:35.337Z</time></trkpt><trkpt lat="37.9135042" lon="-3.0072167"><ele>735.0</ele><time>2026-04-11T21:44:16.337Z</time></trkpt><trkpt lat="37.9135539" lon="-3.007274"><ele>735.0</ele><time>2026-04-11T21:46:01.337Z</time></trkpt><trkpt lat="37.913506" lon="-3.0072196"><ele>735.0</ele><time>2026-04-11T22:00:45.343Z</time></trkpt><trkpt lat="37.9135701" lon="-3.0072353"><ele>735.0</ele><time>2026-04-11T22:08:55.37Z</time></trkpt><trkpt lat="37.9135112" lon="-3.0072655"><ele>735.0</ele><time>2026-04-11T22:09:17.343Z</time></trkpt><trkpt lat="37.9135689" lon="-3.0073034"><ele>735.0</ele><time>2026-04-11T22:18:33.343Z</time></trkpt><trkpt lat="37.9135143" lon="-3.0072488"><ele>735.0</ele><time>2026-04-11T22:18:49.343Z</time></trkpt><trkpt lat="37.9134978" lon="-3.0071691"><ele>735.0</ele><time>2026-04-11T22:18:57.343Z</time></trkpt><trkpt lat="37.9135344" lon="-3.0072809"><ele>735.0</ele><time>2026-04-11T22:20:09.343Z</time></trkpt><trkpt lat="37.9135043" lon="-3.0071899"><ele>735.0</ele><time>2026-04-11T22:20:38.343Z</time></trkpt><trkpt lat="37.9135392" lon="-3.0072736"><ele>735.0</ele><time>2026-04-11T22:22:43.343Z</time></trkpt><trkpt lat="37.9134959" lon="-3.0071984"><ele>735.0</ele><time>2026-04-11T22:27:17.343Z</time></trkpt><trkpt lat="37.9134821" lon="-3.0070918"><ele>735.0</ele><time>2026-04-11T22:27:19.343Z</time></trkpt><trkpt lat="37.9134991" lon="-3.0071819"><ele>735.0</ele><time>2026-04-11T22:27:24.343Z</time></trkpt><trkpt lat="37.9135349" lon="-3.0072492"><ele>735.0</ele><time>2026-04-11T22:28:22.343Z</time></trkpt><trkpt lat="37.9135729" lon="-3.0073146"><ele>735.0</ele><time>2026-04-11T22:28:41.343Z</time></trkpt><trkpt lat="37.9135144" lon="-3.0072781"><ele>735.0</ele><time>2026-04-11T22:30:06.338Z</time></trkpt><trkpt lat="37.913498" lon="-3.0071991"><ele>735.0</ele><time>2026-04-11T22:30:12.338Z</time></trkpt><trkpt lat="37.9135244" lon="-3.0072861"><ele>735.0</ele><time>2026-04-11T22:31:05.368Z</time></trkpt><trkpt lat="37.9135024" lon="-3.0071957"><ele>735.0</ele><time>2026-04-11T22:34:18.358Z</time></trkpt><trkpt lat="37.9134864" lon="-3.0071171"><ele>735.0</ele><time>2026-04-11T22:34:23.338Z</time></trkpt><trkpt lat="37.913527" lon="-3.0071943"><ele>735.0</ele><time>2026-04-11T22:34:46.338Z</time></trkpt><trkpt lat="37.9135648" lon="-3.007266"><ele>735.0</ele><time>2026-04-11T22:35:04.37Z</time></trkpt><trkpt lat="37.9135072" lon="-3.0072323"><ele>735.0</ele><time>2026-04-11T22:35:36.348Z</time></trkpt><trkpt lat="37.9135554" lon="-3.0072855"><ele>735.0</ele><time>2026-04-11T22:36:49.338Z</time></trkpt><trkpt lat="37.9135097" lon="-3.0072283"><ele>735.0</ele><time>2026-04-11T22:38:06.338Z</time></trkpt><trkpt lat="37.913524" lon="-3.0073065"><ele>735.0</ele><time>2026-04-11T22:40:53.338Z</time></trkpt><trkpt lat="37.9135052" lon="-3.0072269"><ele>735.0</ele><time>2026-04-11T22:41:47.34Z</time></trkpt><trkpt lat="37.9135236" lon="-3.0073043"><ele>735.0</ele><time>2026-04-11T22:43:56.368Z</time></trkpt><trkpt lat="37.9135081" lon="-3.0072252"><ele>735.0</ele><time>2026-04-11T22:44:21.338Z</time></trkpt><trkpt lat="37.9135391" lon="-3.007297"><ele>735.0</ele><time>2026-04-11T22:46:11.338Z</time></trkpt><trkpt lat="37.9135024" lon="-3.0071968"><ele>735.0</ele><time>2026-04-11T22:49:25.346Z</time></trkpt><trkpt lat="37.9134876" lon="-3.0071102"><ele>735.0</ele><time>2026-04-11T22:49:32.338Z</time></trkpt><trkpt lat="37.9135245" lon="-3.0071819"><ele>735.0</ele><time>2026-04-11T22:51:28.338Z</time></trkpt><trkpt lat="37.9135154" lon="-3.0072753"><ele>735.0</ele><time>2026-04-11T23:10:49.342Z</time></trkpt><trkpt lat="37.9135038" lon="-3.0071817"><ele>735.0</ele><time>2026-04-11T23:21:17.338Z</time></trkpt><trkpt lat="37.9135135" lon="-3.0072675"><ele>735.0</ele><time>2026-04-11T23:23:07.338Z</time></trkpt><trkpt lat="37.9134991" lon="-3.0071739"><ele>735.0</ele><time>2026-04-11T23:30:49.34Z</time></trkpt><trkpt lat="37.9135024" lon="-3.0072638"><ele>735.0</ele><time>2026-04-11T23:32:10.341Z</time></trkpt><trkpt lat="37.9134973" lon="-3.0071726"><ele>735.0</ele><time>2026-04-11T23:35:15.34Z</time></trkpt><trkpt lat="37.9135357" lon="-3.0072467"><ele>735.0</ele><time>2026-04-11T23:35:57.34Z</time></trkpt><trkpt lat="37.913499" lon="-3.0071815"><ele>735.0</ele><time>2026-04-11T23:42:41.343Z</time></trkpt><trkpt lat="37.9135359" lon="-3.0072712"><ele>735.0</ele><time>2026-04-11T23:43:48.34Z</time></trkpt><trkpt lat="37.9134999" lon="-3.0071933"><ele>735.0</ele><time>2026-04-11T23:45:10.34Z</time></trkpt><trkpt lat="37.9135357" lon="-3.0072868"><ele>735.0</ele><time>2026-04-11T23:45:53.34Z</time></trkpt><trkpt lat="37.9135025" lon="-3.0072088"><ele>735.0</ele><time>2026-04-11T23:50:00.34Z</time></trkpt><trkpt lat="37.9135674" lon="-3.0072241"><ele>735.0</ele><time>2026-04-11T23:52:45.34Z</time></trkpt><trkpt lat="37.913577" lon="-3.0073044"><ele>735.0</ele><time>2026-04-11T23:52:57.354Z</time></trkpt><trkpt lat="37.9135132" lon="-3.007309"><ele>735.0</ele><time>2026-04-11T23:57:25.356Z</time></trkpt><trkpt lat="37.9135802" lon="-3.007313"><ele>735.0</ele><time>2026-04-11T23:59:03.34Z</time></trkpt><trkpt lat="37.9135152" lon="-3.0073007"><ele>735.0</ele><time>2026-04-12T00:01:00.34Z</time></trkpt><trkpt lat="37.913501" lon="-3.0073796"><ele>735.0</ele><time>2026-04-12T00:05:49.34Z</time></trkpt><trkpt lat="37.9135047" lon="-3.0072989"><ele>735.0</ele><time>2026-04-12T00:06:44.34Z</time></trkpt><trkpt lat="37.9134995" lon="-3.0072192"><ele>735.0</ele><time>2026-04-12T00:06:50.34Z</time></trkpt><trkpt lat="37.9135116" lon="-3.0072981"><ele>735.0</ele><time>2026-04-12T00:08:10.34Z</time></trkpt><trkpt lat="37.9135798" lon="-3.0073166"><ele>735.0</ele><time>2026-04-12T00:13:44.366Z</time></trkpt><trkpt lat="37.9135237" lon="-3.0072795"><ele>735.0</ele><time>2026-04-12T00:14:34.34Z</time></trkpt><trkpt lat="37.9135011" lon="-3.007204"><ele>735.0</ele><time>2026-04-12T00:17:59.341Z</time></trkpt><trkpt lat="37.913522" lon="-3.0072837"><ele>735.0</ele><time>2026-04-12T00:19:55.345Z</time></trkpt><trkpt lat="37.9135027" lon="-3.0072076"><ele>735.0</ele><time>2026-04-12T00:39:39.345Z</time></trkpt><trkpt lat="37.9135537" lon="-3.0072726"><ele>735.0</ele><time>2026-04-12T00:40:24.345Z</time></trkpt><trkpt lat="37.9135038" lon="-3.0072172"><ele>735.0</ele><time>2026-04-12T00:42:25.346Z</time></trkpt><trkpt lat="37.9135436" lon="-3.0072834"><ele>735.0</ele><time>2026-04-12T00:43:46.345Z</time></trkpt><trkpt lat="37.9135043" lon="-3.0072195"><ele>735.0</ele><time>2026-04-12T00:45:36.345Z</time></trkpt><trkpt lat="37.9135415" lon="-3.0072866"><ele>735.0</ele><time>2026-04-12T00:46:22.378Z</time></trkpt><trkpt lat="37.9134997" lon="-3.0071972"><ele>735.0</ele><time>2026-04-12T01:07:14.345Z</time></trkpt><trkpt lat="37.9135416" lon="-3.0072569"><ele>735.0</ele><time>2026-04-12T01:09:00.353Z</time></trkpt><trkpt lat="37.9135009" lon="-3.0071926"><ele>735.0</ele><time>2026-04-12T01:11:09.353Z</time></trkpt><trkpt lat="37.9135208" lon="-3.0072703"><ele>735.0</ele><time>2026-04-12T01:12:14.353Z</time></trkpt><trkpt lat="37.913584" lon="-3.0073071"><ele>735.0</ele><time>2026-04-12T01:15:16.356Z</time></trkpt><trkpt lat="37.9135193" lon="-3.0072816"><ele>735.0</ele><time>2026-04-12T01:20:41.353Z</time></trkpt><trkpt lat="37.9134991" lon="-3.0071938"><ele>735.0</ele><time>2026-04-12T01:20:50.353Z</time></trkpt><trkpt lat="37.9135297" lon="-3.0072688"><ele>735.0</ele><time>2026-04-12T01:21:42.353Z</time></trkpt><trkpt lat="37.9134999" lon="-3.0071983"><ele>735.0</ele><time>2026-04-12T01:28:34.353Z</time></trkpt><trkpt lat="37.9135247" lon="-3.0072903"><ele>735.0</ele><time>2026-04-12T01:30:29.355Z</time></trkpt><trkpt lat="37.9135091" lon="-3.0072085"><ele>735.0</ele><time>2026-04-12T01:32:20.353Z</time></trkpt><trkpt lat="37.9135411" lon="-3.0072805"><ele>735.0</ele><time>2026-04-12T01:33:25.353Z</time></trkpt><trkpt lat="37.9135042" lon="-3.0072156"><ele>735.0</ele><time>2026-04-12T03:18:15.362Z</time></trkpt><trkpt lat="37.9135515" lon="-3.0072705"><ele>735.0</ele><time>2026-04-12T04:02:57.388Z</time></trkpt><trkpt lat="37.9135016" lon="-3.0072193"><ele>735.0</ele><time>2026-04-12T04:49:45.378Z</time></trkpt><trkpt lat="37.9135298" lon="-3.0072924"><ele>735.0</ele><time>2026-04-12T04:51:17.378Z</time></trkpt><trkpt lat="37.9135052" lon="-3.0072151"><ele>735.0</ele><time>2026-04-12T05:05:33.396Z</time></trkpt><trkpt lat="37.9135457" lon="-3.0072778"><ele>735.0</ele><time>2026-04-12T05:06:11.382Z</time></trkpt><trkpt lat="37.9135026" lon="-3.0072046"><ele>735.0</ele><time>2026-04-12T05:08:48.378Z</time></trkpt><trkpt lat="37.9135248" lon="-3.0072984"><ele>735.0</ele><time>2026-04-12T05:09:00.378Z</time></trkpt><trkpt lat="37.9135077" lon="-3.0072149"><ele>735.0</ele><time>2026-04-12T05:12:10.378Z</time></trkpt><trkpt lat="37.9135563" lon="-3.0072723"><ele>735.0</ele><time>2026-04-12T05:12:47.412Z</time></trkpt><trkpt lat="37.9135073" lon="-3.0072219"><ele>735.0</ele><time>2026-04-12T05:20:43.399Z</time></trkpt><trkpt lat="37.9135467" lon="-3.0072844"><ele>735.0</ele><time>2026-04-12T05:21:33.39Z</time></trkpt><trkpt lat="37.9135067" lon="-3.0072147"><ele>735.0</ele><time>2026-04-12T05:22:35.39Z</time></trkpt><trkpt lat="37.9135177" lon="-3.0073014"><ele>735.0</ele><time>2026-04-12T05:24:30.387Z</time></trkpt><trkpt lat="37.9135057" lon="-3.0072168"><ele>735.0</ele><time>2026-04-12T05:38:37.39Z</time></trkpt><trkpt lat="37.9135561" lon="-3.007272"><ele>735.0</ele><time>2026-04-12T05:39:29.386Z</time></trkpt><trkpt lat="37.9135058" lon="-3.0072105"><ele>735.0</ele><time>2026-04-12T05:40:51.389Z</time></trkpt><trkpt lat="37.913529" lon="-3.0072877"><ele>735.0</ele><time>2026-04-12T05:41:24.389Z</time></trkpt><trkpt lat="37.9135093" lon="-3.0072069"><ele>735.0</ele><time>2026-04-12T05:46:42.415Z</time></trkpt><trkpt lat="37.91356" lon="-3.007265"><ele>735.0</ele><time>2026-04-12T05:47:30.383Z</time></trkpt><trkpt lat="37.9135036" lon="-3.0072245"><ele>735.0</ele><time>2026-04-12T05:48:54.383Z</time></trkpt><trkpt lat="37.9135346" lon="-3.0073016"><ele>735.0</ele><time>2026-04-12T05:50:08.414Z</time></trkpt><trkpt lat="37.9135113" lon="-3.0072247"><ele>735.0</ele><time>2026-04-12T05:51:05.384Z</time></trkpt><trkpt lat="37.9135648" lon="-3.0072711"><ele>735.0</ele><time>2026-04-12T05:59:57.386Z</time></trkpt><trkpt lat="37.9135101" lon="-3.0072142"><ele>735.0</ele><time>2026-04-12T06:00:59.409Z</time></trkpt><trkpt lat="37.9135449" lon="-3.0072817"><ele>735.0</ele><time>2026-04-12T06:03:37.386Z</time></trkpt><trkpt lat="37.9135007" lon="-3.007185"><ele>735.0</ele><time>2026-04-12T06:05:21.395Z</time></trkpt><trkpt lat="37.9135484" lon="-3.0072427"><ele>735.0</ele><time>2026-04-12T06:06:00.402Z</time></trkpt><trkpt lat="37.9134976" lon="-3.0071793"><ele>735.0</ele><time>2026-04-12T06:14:46.395Z</time></trkpt><trkpt lat="37.9135278" lon="-3.0072696"><ele>735.0</ele><time>2026-04-12T06:16:18.421Z</time></trkpt><trkpt lat="37.9135013" lon="-3.0071906"><ele>735.0</ele><time>2026-04-12T06:22:38.389Z</time></trkpt><trkpt lat="37.9135292" lon="-3.0072717"><ele>735.0</ele><time>2026-04-12T06:23:27.392Z</time></trkpt><trkpt lat="37.9135022" lon="-3.0071927"><ele>735.0</ele><time>2026-04-12T06:24:53.395Z</time></trkpt><trkpt lat="37.9135455" lon="-3.0072639"><ele>735.0</ele><time>2026-04-12T06:25:42.395Z</time></trkpt><trkpt lat="37.9135035" lon="-3.0072033"><ele>735.0</ele><time>2026-04-12T06:31:03.388Z</time></trkpt><trkpt lat="37.9135326" lon="-3.0072835"><ele>735.0</ele><time>2026-04-12T06:33:03.388Z</time></trkpt><trkpt lat="37.9134987" lon="-3.0073583"><ele>735.0</ele><time>2026-04-12T06:39:21.392Z</time></trkpt><trkpt lat="37.913518" lon="-3.0072803"><ele>735.0</ele><time>2026-04-12T06:40:48.388Z</time></trkpt><trkpt lat="37.9135044" lon="-3.0072017"><ele>735.0</ele><time>2026-04-12T06:45:29.394Z</time></trkpt><trkpt lat="37.9135349" lon="-3.007273"><ele>735.0</ele><time>2026-04-12T06:47:12.403Z</time></trkpt><trkpt lat="37.9134981" lon="-3.0072036"><ele>735.0</ele><time>2026-04-12T07:10:51.396Z</time></trkpt><trkpt lat="37.9135262" lon="-3.0072877"><ele>735.0</ele><time>2026-04-12T07:12:02.396Z</time></trkpt><trkpt lat="37.9135018" lon="-3.0072059"><ele>735.0</ele><time>2026-04-12T07:14:23.396Z</time></trkpt></trkseg><trkseg><trkpt lat="37.9134094" lon="-3.0066299"><ele>754.0</ele><time>2026-04-13T07:31:11.663Z</time></trkpt><trkpt lat="37.9134825" lon="-3.006618"><ele>754.0</ele><time>2026-04-13T07:31:13.663Z</time></trkpt><trkpt lat="37.9135508" lon="-3.0065996"><ele>754.0</ele><time>2026-04-13T07:31:15.663Z</time></trkpt><trkpt lat="37.9136241" lon="-3.0065655"><ele>754.0</ele><time>2026-04-13T07:31:17.664Z</time></trkpt><trkpt lat="37.9136942" lon="-3.0065581"><ele>754.0</ele><time>2026-04-13T07:31:19.663Z</time></trkpt><trkpt lat="37.9138055" lon="-3.0065223"><ele>754.0</ele><time>2026-04-13T07:31:22.663Z</time></trkpt><trkpt lat="37.9138603" lon="-3.0064817"><ele>754.0</ele><time>2026-04-13T07:31:25.663Z</time></trkpt><trkpt lat="37.9139565" lon="-3.0064682"><ele>754.0</ele><time>2026-04-13T07:31:36.663Z</time></trkpt><trkpt lat="37.9140635" lon="-3.0065211"><ele>754.0</ele><time>2026-04-13T07:31:38.663Z</time></trkpt><trkpt lat="37.9141587" lon="-3.0065846"><ele>754.0</ele><time>2026-04-13T07:31:40.663Z</time></trkpt><trkpt lat="37.9142434" lon="-3.0066445"><ele>754.0</ele><time>2026-04-13T07:31:42.663Z</time></trkpt><trkpt lat="37.9143304" lon="-3.0066871"><ele>750.8333333333334</ele><time>2026-04-13T07:31:44.663Z</time></trkpt><trkpt lat="37.9143964" lon="-3.0067328"><ele>747.6666666666667</ele><time>2026-04-13T07:31:46.663Z</time></trkpt><trkpt lat="37.9144419" lon="-3.0067883"><ele>744.5</ele><time>2026-04-13T07:31:55.663Z</time></trkpt><trkpt lat="37.9144372" lon="-3.0068936"><ele>741.3333333333334</ele><time>2026-04-13T07:32:04.663Z</time></trkpt><trkpt lat="37.9143605" lon="-3.0069378"><ele>738.1666666666666</ele><time>2026-04-13T07:32:06.663Z</time></trkpt><trkpt lat="37.9142576" lon="-3.007004"><ele>735.0</ele><time>2026-04-13T07:32:08.663Z</time></trkpt><trkpt lat="37.9142036" lon="-3.0070642"><ele>735.0</ele><time>2026-04-13T07:32:09.663Z</time></trkpt><trkpt lat="37.9141474" lon="-3.007125"><ele>735.0</ele><time>2026-04-13T07:32:10.663Z</time></trkpt><trkpt lat="37.9141077" lon="-3.0072191"><ele>735.0</ele><time>2026-04-13T07:32:11.663Z</time></trkpt><trkpt lat="37.9140696" lon="-3.0073094"><ele>735.0</ele><time>2026-04-13T07:32:12.663Z</time></trkpt><trkpt lat="37.9140272" lon="-3.00741"><ele>735.0</ele><time>2026-04-13T07:32:13.663Z</time></trkpt><trkpt lat="37.9139822" lon="-3.0075119"><ele>735.0</ele><time>2026-04-13T07:32:14.663Z</time></trkpt><trkpt lat="37.9139447" lon="-3.0076087"><ele>733.5714285714286</ele><time>2026-04-13T07:32:15.663Z</time></trkpt><trkpt lat="37.9139127" lon="-3.0076991"><ele>732.1428571428571</ele><time>2026-04-13T07:32:16.663Z</time></trkpt><trkpt lat="37.9138826" lon="-3.0077804"><ele>730.7142857142858</ele><time>2026-04-13T07:32:17.663Z</time></trkpt><trkpt lat="37.913854" lon="-3.0078701"><ele>729.2857142857142</ele><time>2026-04-13T07:32:18.663Z</time></trkpt><trkpt lat="37.9138366" lon="-3.0079596"><ele>727.8571428571429</ele><time>2026-04-13T07:32:19.663Z</time></trkpt><trkpt lat="37.9138297" lon="-3.0080453"><ele>726.4285714285714</ele><time>2026-04-13T07:32:20.663Z</time></trkpt><trkpt lat="37.913815" lon="-3.0081385"><ele>725.0</ele><time>2026-04-13T07:32:21.663Z</time></trkpt><trkpt lat="37.9137928" lon="-3.0082398"><ele>722.6</ele><time>2026-04-13T07:32:22.663Z</time></trkpt><trkpt lat="37.9137595" lon="-3.0083378"><ele>720.2</ele><time>2026-04-13T07:32:23.663Z</time></trkpt><trkpt lat="37.9137082" lon="-3.0084329"><ele>717.8</ele><time>2026-04-13T07:32:24.663Z</time></trkpt><trkpt lat="37.9136527" lon="-3.0085206"><ele>715.4</ele><time>2026-04-13T07:32:25.663Z</time></trkpt><trkpt lat="37.9135899" lon="-3.0086105"><ele>713.0</ele><time>2026-04-13T07:32:26.663Z</time></trkpt><trkpt lat="37.9135153" lon="-3.0086815"><ele>713.0</ele><time>2026-04-13T07:32:27.663Z</time></trkpt><trkpt lat="37.913437" lon="-3.0087343"><ele>713.0</ele><time>2026-04-13T07:32:28.663Z</time></trkpt><trkpt lat="37.913347" lon="-3.0087864"><ele>713.0</ele><time>2026-04-13T07:32:29.663Z</time></trkpt><trkpt lat="37.9132524" lon="-3.0088294"><ele>713.0</ele><time>2026-04-13T07:32:30.663Z</time></trkpt><trkpt lat="37.9131552" lon="-3.0088713"><ele>713.0</ele><time>2026-04-13T07:32:31.663Z</time></trkpt><trkpt lat="37.9130575" lon="-3.0089172"><ele>715.8</ele><time>2026-04-13T07:32:32.663Z</time></trkpt><trkpt lat="37.9129591" lon="-3.0089593"><ele>718.5999999999999</ele><time>2026-04-13T07:32:33.663Z</time></trkpt><trkpt lat="37.912857" lon="-3.0089902"><ele>721.4000000000001</ele><time>2026-04-13T07:32:34.663Z</time></trkpt><trkpt lat="37.9127522" lon="-3.0090128"><ele>724.2</ele><time>2026-04-13T07:32:35.663Z</time></trkpt><trkpt lat="37.9126395" lon="-3.0090319"><ele>727.0</ele><time>2026-04-13T07:32:36.663Z</time></trkpt><trkpt lat="37.912531" lon="-3.0090497"><ele>727.75</ele><time>2026-04-13T07:32:37.663Z</time></trkpt><trkpt lat="37.9124194" lon="-3.0090671"><ele>728.5</ele><time>2026-04-13T07:32:38.663Z</time></trkpt><trkpt lat="37.9123074" lon="-3.009091"><ele>729.25</ele><time>2026-04-13T07:32:39.663Z</time></trkpt><trkpt lat="37.9121988" lon="-3.0091194"><ele>730.0</ele><time>2026-04-13T07:32:40.663Z</time></trkpt><trkpt lat="37.9120885" lon="-3.0091567"><ele>726.0</ele><time>2026-04-13T07:32:41.663Z</time></trkpt><trkpt lat="37.9119859" lon="-3.0092172"><ele>722.0</ele><time>2026-04-13T07:32:42.663Z</time></trkpt><trkpt lat="37.911888" lon="-3.0092946"><ele>718.0</ele><time>2026-04-13T07:32:43.663Z</time></trkpt><trkpt lat="37.9118031" lon="-3.0093822"><ele>714.0</ele><time>2026-04-13T07:32:44.663Z</time></trkpt><trkpt lat="37.9117258" lon="-3.009468"><ele>710.0</ele><time>2026-04-13T07:32:45.663Z</time></trkpt><trkpt lat="37.9116554" lon="-3.00955"><ele>710.0</ele><time>2026-04-13T07:32:46.663Z</time></trkpt><trkpt lat="37.9116002" lon="-3.0096306"><ele>710.0</ele><time>2026-04-13T07:32:47.663Z</time></trkpt><trkpt lat="37.9115736" lon="-3.0097253"><ele>710.0</ele><time>2026-04-13T07:32:48.663Z</time></trkpt><trkpt lat="37.9115706" lon="-3.0098276"><ele>710.0</ele><time>2026-04-13T07:32:49.663Z</time></trkpt><trkpt lat="37.9115965" lon="-3.0099227"><ele>710.0</ele><time>2026-04-13T07:32:50.663Z</time></trkpt><trkpt lat="37.9116394" lon="-3.0100104"><ele>710.0</ele><time>2026-04-13T07:32:51.663Z</time></trkpt><trkpt lat="37.9117034" lon="-3.0100752"><ele>708.2</ele><time>2026-04-13T07:32:52.663Z</time></trkpt><trkpt lat="37.9118063" lon="-3.0101379"><ele>706.4</ele><time>2026-04-13T07:32:53.663Z</time></trkpt><trkpt lat="37.9119021" lon="-3.0101946"><ele>704.5999999999999</ele><time>2026-04-13T07:32:54.663Z</time></trkpt><trkpt lat="37.9119935" lon="-3.0102441"><ele>702.8</ele><time>2026-04-13T07:32:55.663Z</time></trkpt><trkpt lat="37.9120891" lon="-3.0102922"><ele>701.0</ele><time>2026-04-13T07:32:56.663Z</time></trkpt><trkpt lat="37.9121813" lon="-3.0103369"><ele>701.0</ele><time>2026-04-13T07:32:57.663Z</time></trkpt><trkpt lat="37.9122801" lon="-3.0103853"><ele>701.0</ele><time>2026-04-13T07:32:58.663Z</time></trkpt><trkpt lat="37.9123819" lon="-3.0104291"><ele>701.0</ele><time>2026-04-13T07:32:59.663Z</time></trkpt><trkpt lat="37.9124885" lon="-3.0104645"><ele>701.0</ele><time>2026-04-13T07:33:00.663Z</time></trkpt><trkpt lat="37.9125963" lon="-3.0104884"><ele>701.0</ele><time>2026-04-13T07:33:01.663Z</time></trkpt><trkpt lat="37.9127037" lon="-3.010502"><ele>700.25</ele><time>2026-04-13T07:33:02.663Z</time></trkpt><trkpt lat="37.9128094" lon="-3.010512"><ele>699.5</ele><time>2026-04-13T07:33:03.663Z</time></trkpt><trkpt lat="37.9129156" lon="-3.0105198"><ele>698.75</ele><time>2026-04-13T07:33:04.663Z</time></trkpt><trkpt lat="37.9130161" lon="-3.0105293"><ele>698.0</ele><time>2026-04-13T07:33:05.663Z</time></trkpt><trkpt lat="37.9131662" lon="-3.0105373"><ele>698.0</ele><time>2026-04-13T07:33:07.598Z</time></trkpt><trkpt lat="37.9133327" lon="-3.0105518"><ele>698.0</ele><time>2026-04-13T07:33:08.663Z</time></trkpt><trkpt lat="37.913444" lon="-3.0105641"><ele>698.0</ele><time>2026-04-13T07:33:09.664Z</time></trkpt><trkpt lat="37.9135626" lon="-3.0105773"><ele>698.0</ele><time>2026-04-13T07:33:10.67Z</time></trkpt><trkpt lat="37.9136824" lon="-3.0105967"><ele>699.0</ele><time>2026-04-13T07:33:11.663Z</time></trkpt><trkpt lat="37.9138071" lon="-3.0106262"><ele>700.0</ele><time>2026-04-13T07:33:12.66Z</time></trkpt><trkpt lat="37.9139299" lon="-3.0106621"><ele>701.0</ele><time>2026-04-13T07:33:13.66Z</time></trkpt><trkpt lat="37.9140433" lon="-3.0107119"><ele>702.0</ele><time>2026-04-13T07:33:14.66Z</time></trkpt><trkpt lat="37.9141475" lon="-3.0107671"><ele>701.0</ele><time>2026-04-13T07:33:15.66Z</time></trkpt><trkpt lat="37.9142429" lon="-3.0108235"><ele>700.0</ele><time>2026-04-13T07:33:16.66Z</time></trkpt><trkpt lat="37.9143375" lon="-3.0108851"><ele>699.0</ele><time>2026-04-13T07:33:17.66Z</time></trkpt><trkpt lat="37.9144243" lon="-3.0109523"><ele>698.0</ele><time>2026-04-13T07:33:18.66Z</time></trkpt><trkpt lat="37.914507" lon="-3.0110228"><ele>697.0</ele><time>2026-04-13T07:33:19.66Z</time></trkpt><trkpt lat="37.9145886" lon="-3.0110992"><ele>700.0</ele><time>2026-04-13T07:33:20.66Z</time></trkpt><trkpt lat="37.9146611" lon="-3.0111778"><ele>703.0</ele><time>2026-04-13T07:33:21.66Z</time></trkpt><trkpt lat="37.9147287" lon="-3.0112591"><ele>706.0</ele><time>2026-04-13T07:33:22.66Z</time></trkpt><trkpt lat="37.9147912" lon="-3.011337"><ele>709.0</ele><time>2026-04-13T07:33:23.66Z</time></trkpt><trkpt lat="37.9148454" lon="-3.0114135"><ele>712.0</ele><time>2026-04-13T07:33:24.66Z</time></trkpt><trkpt lat="37.9148915" lon="-3.0114873"><ele>715.0</ele><time>2026-04-13T07:33:25.66Z</time></trkpt><trkpt lat="37.9149385" lon="-3.0115623"><ele>715.0</ele><time>2026-04-13T07:33:26.66Z</time></trkpt><trkpt lat="37.9149793" lon="-3.0116315"><ele>715.0</ele><time>2026-04-13T07:33:27.66Z</time></trkpt><trkpt lat="37.9150194" lon="-3.011694"><ele>715.0</ele><time>2026-04-13T07:33:28.66Z</time></trkpt><trkpt lat="37.9150594" lon="-3.0117567"><ele>715.0</ele><time>2026-04-13T07:33:29.66Z</time></trkpt><trkpt lat="37.9151329" lon="-3.0118804"><ele>715.0</ele><time>2026-04-13T07:33:31.66Z</time></trkpt><trkpt lat="37.9151722" lon="-3.0119457"><ele>715.0</ele><time>2026-04-13T07:33:32.66Z</time></trkpt><trkpt lat="37.915212" lon="-3.0120114"><ele>715.0</ele><time>2026-04-13T07:33:33.66Z</time></trkpt><trkpt lat="37.9152527" lon="-3.0120735"><ele>714.5</ele><time>2026-04-13T07:33:34.66Z</time></trkpt><trkpt lat="37.9153412" lon="-3.0121615"><ele>714.0</ele><time>2026-04-13T07:33:36.66Z</time></trkpt><trkpt lat="37.9154255" lon="-3.0121291"><ele>713.5</ele><time>2026-04-13T07:33:38.66Z</time></trkpt><trkpt lat="37.9153869" lon="-3.0120341"><ele>713.0</ele><time>2026-04-13T07:33:41.66Z</time></trkpt><trkpt lat="37.9153224" lon="-3.011996"><ele>712.5</ele><time>2026-04-13T07:33:45.66Z</time></trkpt><trkpt lat="37.915273" lon="-3.0119094"><ele>712.0</ele><time>2026-04-13T07:33:49.66Z</time></trkpt><trkpt lat="37.915252" lon="-3.0117868"><ele>711.9999999999999</ele><time>2026-04-13T07:33:52.66Z</time></trkpt><trkpt lat="37.9152467" lon="-3.0117025"><ele>712.0</ele><time>2026-04-13T07:34:10.66Z</time></trkpt><trkpt lat="37.9151806" lon="-3.0117261"><ele>712.0</ele><time>2026-04-13T07:34:24.66Z</time></trkpt><trkpt lat="37.9152534" lon="-3.0117265"><ele>712.0</ele><time>2026-04-13T07:35:05.66Z</time></trkpt><trkpt lat="37.9153234" lon="-3.0117843"><ele>712.0</ele><time>2026-04-13T07:35:14.66Z</time></trkpt><trkpt lat="37.9153613" lon="-3.0118669"><ele>711.9999999999999</ele><time>2026-04-13T07:35:17.66Z</time></trkpt><trkpt lat="37.9154003" lon="-3.0119423"><ele>712.0</ele><time>2026-04-13T07:35:22.66Z</time></trkpt><trkpt lat="37.9154304" lon="-3.0120291"><ele>712.0</ele><time>2026-04-13T07:35:24.66Z</time></trkpt><trkpt lat="37.9154535" lon="-3.0121277"><ele>712.0</ele><time>2026-04-13T07:35:26.66Z</time></trkpt><trkpt lat="37.9155165" lon="-3.0122422"><ele>712.0</ele><time>2026-04-13T07:35:27.66Z</time></trkpt><trkpt lat="37.9155524" lon="-3.0123745"><ele>712.0</ele><time>2026-04-13T07:35:29.66Z</time></trkpt><trkpt lat="37.9154981" lon="-3.012437"><ele>712.0</ele><time>2026-04-13T07:35:30.66Z</time></trkpt><trkpt lat="37.9154431" lon="-3.012482"><ele>712.0</ele><time>2026-04-13T07:35:31.66Z</time></trkpt><trkpt lat="37.9153279" lon="-3.0124534"><ele>712.0</ele><time>2026-04-13T07:35:33.66Z</time></trkpt><trkpt lat="37.9152796" lon="-3.0123024"><ele>712.0</ele><time>2026-04-13T07:35:35.66Z</time></trkpt><trkpt lat="37.9152674" lon="-3.0122163"><ele>712.0</ele><time>2026-04-13T07:35:36.66Z</time></trkpt><trkpt lat="37.9152596" lon="-3.012068"><ele>712.0</ele><time>2026-04-13T07:35:38.66Z</time></trkpt><trkpt lat="37.9152082" lon="-3.0119856"><ele>712.0</ele><time>2026-04-13T07:35:39.66Z</time></trkpt><trkpt lat="37.9151374" lon="-3.0118982"><ele>712.0</ele><time>2026-04-13T07:35:40.66Z</time></trkpt><trkpt lat="37.9150846" lon="-3.0118238"><ele>712.0</ele><time>2026-04-13T07:35:41.66Z</time></trkpt><trkpt lat="37.9150359" lon="-3.0117384"><ele>712.0</ele><time>2026-04-13T07:35:42.66Z</time></trkpt><trkpt lat="37.9149721" lon="-3.0116272"><ele>712.0</ele><time>2026-04-13T07:35:43.66Z</time></trkpt><trkpt lat="37.9149086" lon="-3.0115249"><ele>712.0</ele><time>2026-04-13T07:35:44.661Z</time></trkpt><trkpt lat="37.9148406" lon="-3.0114237"><ele>712.6</ele><time>2026-04-13T07:35:45.66Z</time></trkpt><trkpt lat="37.9147756" lon="-3.0113494"><ele>713.2</ele><time>2026-04-13T07:35:46.66Z</time></trkpt><trkpt lat="37.9147122" lon="-3.0112745"><ele>713.8</ele><time>2026-04-13T07:35:47.66Z</time></trkpt><trkpt lat="37.9146462" lon="-3.0111996"><ele>714.4</ele><time>2026-04-13T07:35:48.66Z</time></trkpt><trkpt lat="37.9145686" lon="-3.011115"><ele>715.0</ele><time>2026-04-13T07:35:49.66Z</time></trkpt><trkpt lat="37.914481" lon="-3.0110329"><ele>715.0</ele><time>2026-04-13T07:35:50.661Z</time></trkpt><trkpt lat="37.9143821" lon="-3.0109553"><ele>715.0</ele><time>2026-04-13T07:35:51.66Z</time></trkpt><trkpt lat="37.9142804" lon="-3.0108877"><ele>715.0</ele><time>2026-04-13T07:35:52.66Z</time></trkpt><trkpt lat="37.9141746" lon="-3.0108253"><ele>715.0</ele><time>2026-04-13T07:35:53.66Z</time></trkpt><trkpt lat="37.9140825" lon="-3.0107801"><ele>715.0</ele><time>2026-04-13T07:35:54.661Z</time></trkpt><trkpt lat="37.9139382" lon="-3.0107152"><ele>711.75</ele><time>2026-04-13T07:35:55.66Z</time></trkpt><trkpt lat="37.9138162" lon="-3.0106688"><ele>708.5</ele><time>2026-04-13T07:35:56.66Z</time></trkpt><trkpt lat="37.913689" lon="-3.010634"><ele>705.25</ele><time>2026-04-13T07:35:57.66Z</time></trkpt><trkpt lat="37.9135601" lon="-3.0106045"><ele>702.0</ele><time>2026-04-13T07:35:58.66Z</time></trkpt><trkpt lat="37.9134297" lon="-3.0105892"><ele>701.0</ele><time>2026-04-13T07:35:59.66Z</time></trkpt><trkpt lat="37.9132946" lon="-3.0105767"><ele>700.0</ele><time>2026-04-13T07:36:00.66Z</time></trkpt><trkpt lat="37.9131645" lon="-3.0105716"><ele>699.0</ele><time>2026-04-13T07:36:01.66Z</time></trkpt><trkpt lat="37.9130238" lon="-3.0105591"><ele>698.0</ele><time>2026-04-13T07:36:02.66Z</time></trkpt><trkpt lat="37.9128875" lon="-3.010548"><ele>698.0</ele><time>2026-04-13T07:36:03.66Z</time></trkpt><trkpt lat="37.9127525" lon="-3.0105303"><ele>698.0</ele><time>2026-04-13T07:36:04.66Z</time></trkpt><trkpt lat="37.9126247" lon="-3.010514"><ele>698.0</ele><time>2026-04-13T07:36:05.66Z</time></trkpt><trkpt lat="37.9124942" lon="-3.0104912"><ele>698.0</ele><time>2026-04-13T07:36:06.66Z</time></trkpt><trkpt lat="37.9123686" lon="-3.0104564"><ele>698.75</ele><time>2026-04-13T07:36:07.66Z</time></trkpt><trkpt lat="37.9122425" lon="-3.0104045"><ele>699.5</ele><time>2026-04-13T07:36:08.66Z</time></trkpt><trkpt lat="37.9121142" lon="-3.0103428"><ele>700.25</ele><time>2026-04-13T07:36:09.66Z</time></trkpt><trkpt lat="37.9119887" lon="-3.010279"><ele>701.0</ele><time>2026-04-13T07:36:10.66Z</time></trkpt><trkpt lat="37.9118751" lon="-3.0102197"><ele>701.0</ele><time>2026-04-13T07:36:11.66Z</time></trkpt><trkpt lat="37.9117658" lon="-3.0101611"><ele>701.0</ele><time>2026-04-13T07:36:12.66Z</time></trkpt><trkpt lat="37.9116689" lon="-3.0100981"><ele>701.0</ele><time>2026-04-13T07:36:13.66Z</time></trkpt><trkpt lat="37.9115874" lon="-3.0100245"><ele>701.0</ele><time>2026-04-13T07:36:14.66Z</time></trkpt><trkpt lat="37.9115313" lon="-3.0099383"><ele>701.0</ele><time>2026-04-13T07:36:15.66Z</time></trkpt><trkpt lat="37.9115021" lon="-3.0098375"><ele>702.1666666666666</ele><time>2026-04-13T07:36:16.66Z</time></trkpt><trkpt lat="37.9115035" lon="-3.0097395"><ele>703.3333333333333</ele><time>2026-04-13T07:36:17.66Z</time></trkpt><trkpt lat="37.9115259" lon="-3.0096474"><ele>704.5</ele><time>2026-04-13T07:36:18.66Z</time></trkpt><trkpt lat="37.9115715" lon="-3.00957"><ele>705.6666666666666</ele><time>2026-04-13T07:36:19.66Z</time></trkpt><trkpt lat="37.9116277" lon="-3.0094968"><ele>706.8333333333334</ele><time>2026-04-13T07:36:20.66Z</time></trkpt><trkpt lat="37.911694" lon="-3.0094259"><ele>708.0</ele><time>2026-04-13T07:36:21.66Z</time></trkpt><trkpt lat="37.9117677" lon="-3.0093575"><ele>708.0</ele><time>2026-04-13T07:36:22.66Z</time></trkpt><trkpt lat="37.9118423" lon="-3.0092792"><ele>708.0</ele><time>2026-04-13T07:36:23.66Z</time></trkpt><trkpt lat="37.9119219" lon="-3.0091973"><ele>708.0</ele><time>2026-04-13T07:36:24.66Z</time></trkpt><trkpt lat="37.9120117" lon="-3.0091313"><ele>708.0</ele><time>2026-04-13T07:36:25.66Z</time></trkpt><trkpt lat="37.912112" lon="-3.0090871"><ele>708.0</ele><time>2026-04-13T07:36:26.66Z</time></trkpt><trkpt lat="37.9122097" lon="-3.0090522"><ele>712.75</ele><time>2026-04-13T07:36:27.66Z</time></trkpt><trkpt lat="37.9123209" lon="-3.0090308"><ele>717.5</ele><time>2026-04-13T07:36:28.66Z</time></trkpt><trkpt lat="37.9124338" lon="-3.0090121"><ele>722.25</ele><time>2026-04-13T07:36:29.66Z</time></trkpt><trkpt lat="37.9125425" lon="-3.0089911"><ele>727.0</ele><time>2026-04-13T07:36:30.66Z</time></trkpt><trkpt lat="37.9126552" lon="-3.0089679"><ele>727.0</ele><time>2026-04-13T07:36:31.66Z</time></trkpt><trkpt lat="37.9127635" lon="-3.008947"><ele>727.0</ele><time>2026-04-13T07:36:32.66Z</time></trkpt><trkpt lat="37.9128747" lon="-3.0089226"><ele>727.0</ele><time>2026-04-13T07:36:33.66Z</time></trkpt><trkpt lat="37.9129781" lon="-3.0088797"><ele>727.0</ele><time>2026-04-13T07:36:34.66Z</time></trkpt><trkpt lat="37.9130837" lon="-3.0088347"><ele>727.0</ele><time>2026-04-13T07:36:35.66Z</time></trkpt><trkpt lat="37.9131892" lon="-3.0087858"><ele>727.0</ele><time>2026-04-13T07:36:36.66Z</time></trkpt><trkpt lat="37.9132914" lon="-3.0087401"><ele>727.0</ele><time>2026-04-13T07:36:37.66Z</time></trkpt><trkpt lat="37.9133882" lon="-3.0086892"><ele>727.0</ele><time>2026-04-13T07:36:38.66Z</time></trkpt><trkpt lat="37.9134788" lon="-3.0086204"><ele>727.0</ele><time>2026-04-13T07:36:39.66Z</time></trkpt><trkpt lat="37.9135583" lon="-3.0085347"><ele>727.0</ele><time>2026-04-13T07:36:40.66Z</time></trkpt><trkpt lat="37.9136298" lon="-3.0084376"><ele>726.6</ele><time>2026-04-13T07:36:41.66Z</time></trkpt><trkpt lat="37.9136914" lon="-3.0083293"><ele>726.2</ele><time>2026-04-13T07:36:42.66Z</time></trkpt><trkpt lat="37.9137422" lon="-3.0082178"><ele>725.8</ele><time>2026-04-13T07:36:43.66Z</time></trkpt><trkpt lat="37.9137785" lon="-3.0081104"><ele>725.4</ele><time>2026-04-13T07:36:44.66Z</time></trkpt><trkpt lat="37.9137961" lon="-3.0080078"><ele>725.0</ele><time>2026-04-13T07:36:45.66Z</time></trkpt><trkpt lat="37.9138055" lon="-3.0079141"><ele>725.0</ele><time>2026-04-13T07:36:46.66Z</time></trkpt><trkpt lat="37.9138278" lon="-3.0077757"><ele>725.0</ele><time>2026-04-13T07:36:48.66Z</time></trkpt><trkpt lat="37.9138648" lon="-3.0076908"><ele>725.0</ele><time>2026-04-13T07:36:50.66Z</time></trkpt><trkpt lat="37.9139318" lon="-3.0075387"><ele>725.0</ele><time>2026-04-13T07:36:52.66Z</time></trkpt><trkpt lat="37.9139728" lon="-3.007446"><ele>725.0</ele><time>2026-04-13T07:36:53.66Z</time></trkpt><trkpt lat="37.914011" lon="-3.0073539"><ele>726.5</ele><time>2026-04-13T07:36:54.66Z</time></trkpt><trkpt lat="37.9140563" lon="-3.0072622"><ele>728.0</ele><time>2026-04-13T07:36:55.66Z</time></trkpt><trkpt lat="37.9140968" lon="-3.0071642"><ele>729.5</ele><time>2026-04-13T07:36:56.66Z</time></trkpt><trkpt lat="37.9141422" lon="-3.007075"><ele>731.0</ele><time>2026-04-13T07:36:57.66Z</time></trkpt><trkpt lat="37.9141992" lon="-3.0070061"><ele>732.5</ele><time>2026-04-13T07:36:58.66Z</time></trkpt><trkpt lat="37.9142669" lon="-3.0069585"><ele>734.0</ele><time>2026-04-13T07:36:59.66Z</time></trkpt><trkpt lat="37.9143305" lon="-3.0069251"><ele>734.0</ele><time>2026-04-13T07:37:00.66Z</time></trkpt><trkpt lat="37.9144213" lon="-3.0068797"><ele>734.0</ele><time>2026-04-13T07:37:02.66Z</time></trkpt><trkpt lat="37.91454" lon="-3.0068481"><ele>734.0</ele><time>2026-04-13T07:37:04.66Z</time></trkpt><trkpt lat="37.9146099" lon="-3.006832"><ele>734.0</ele><time>2026-04-13T07:37:05.66Z</time></trkpt><trkpt lat="37.9146863" lon="-3.0068123"><ele>734.0</ele><time>2026-04-13T07:37:06.661Z</time></trkpt><trkpt lat="37.9147717" lon="-3.006787"><ele>734.0</ele><time>2026-04-13T07:37:07.66Z</time></trkpt><trkpt lat="37.9148614" lon="-3.0067646"><ele>734.0</ele><time>2026-04-13T07:37:08.66Z</time></trkpt><trkpt lat="37.914956" lon="-3.0067415"><ele>734.0</ele><time>2026-04-13T07:37:09.66Z</time></trkpt><trkpt lat="37.9150491" lon="-3.0067159"><ele>734.0</ele><time>2026-04-13T07:37:10.66Z</time></trkpt><trkpt lat="37.9151429" lon="-3.006693"><ele>734.0</ele><time>2026-04-13T07:37:11.66Z</time></trkpt><trkpt lat="37.9152381" lon="-3.0066761"><ele>737.8000000000001</ele><time>2026-04-13T07:37:12.66Z</time></trkpt><trkpt lat="37.9153377" lon="-3.0066569"><ele>741.6</ele><time>2026-04-13T07:37:13.66Z</time></trkpt><trkpt lat="37.915439" lon="-3.0066241"><ele>745.4</ele><time>2026-04-13T07:37:14.66Z</time></trkpt><trkpt lat="37.9155179" lon="-3.0065996"><ele>749.2</ele><time>2026-04-13T07:37:15.66Z</time></trkpt><trkpt lat="37.9156262" lon="-3.00657"><ele>753.0</ele><time>2026-04-13T07:37:17.66Z</time></trkpt><trkpt lat="37.9157283" lon="-3.0065621"><ele>753.0</ele><time>2026-04-13T07:37:19.66Z</time></trkpt><trkpt lat="37.9158609" lon="-3.0065796"><ele>753.0</ele><time>2026-04-13T07:37:21.66Z</time></trkpt><trkpt lat="37.9159393" lon="-3.006599"><ele>753.0</ele><time>2026-04-13T07:37:22.66Z</time></trkpt><trkpt lat="37.9160168" lon="-3.0066189"><ele>753.0</ele><time>2026-04-13T07:37:23.66Z</time></trkpt><trkpt lat="37.9160929" lon="-3.00664"><ele>753.0</ele><time>2026-04-13T07:37:24.66Z</time></trkpt><trkpt lat="37.916176" lon="-3.0066631"><ele>751.3333333333334</ele><time>2026-04-13T07:37:25.66Z</time></trkpt><trkpt lat="37.9162648" lon="-3.0066851"><ele>749.6666666666666</ele><time>2026-04-13T07:37:26.66Z</time></trkpt><trkpt lat="37.9163542" lon="-3.0067075"><ele>748.0</ele><time>2026-04-13T07:37:27.66Z</time></trkpt><trkpt lat="37.9164354" lon="-3.0067463"><ele>746.3333333333333</ele><time>2026-04-13T07:37:28.66Z</time></trkpt><trkpt lat="37.916506" lon="-3.0067862"><ele>744.6666666666666</ele><time>2026-04-13T07:37:29.66Z</time></trkpt><trkpt lat="37.9165822" lon="-3.0068358"><ele>743.0</ele><time>2026-04-13T07:37:30.66Z</time></trkpt><trkpt lat="37.9166486" lon="-3.0068816"><ele>742.2</ele><time>2026-04-13T07:37:32.66Z</time></trkpt><trkpt lat="37.9167669" lon="-3.006952"><ele>741.4</ele><time>2026-04-13T07:37:34.66Z</time></trkpt><trkpt lat="37.9168472" lon="-3.0069663"><ele>740.6</ele><time>2026-04-13T07:37:35.66Z</time></trkpt><trkpt lat="37.9169245" lon="-3.0069432"><ele>739.8000000000001</ele><time>2026-04-13T07:37:36.66Z</time></trkpt><trkpt lat="37.9169961" lon="-3.0068917"><ele>739.0</ele><time>2026-04-13T07:37:37.66Z</time></trkpt><trkpt lat="37.917061" lon="-3.0068094"><ele>739.0</ele><time>2026-04-13T07:37:38.66Z</time></trkpt><trkpt lat="37.9171095" lon="-3.0067054"><ele>739.0</ele><time>2026-04-13T07:37:39.66Z</time></trkpt><trkpt lat="37.9171412" lon="-3.0065913"><ele>739.0</ele><time>2026-04-13T07:37:40.66Z</time></trkpt><trkpt lat="37.9171705" lon="-3.0064746"><ele>739.0</ele><time>2026-04-13T07:37:41.66Z</time></trkpt><trkpt lat="37.9172052" lon="-3.0063566"><ele>739.0</ele><time>2026-04-13T07:37:42.66Z</time></trkpt><trkpt lat="37.9172417" lon="-3.0062399"><ele>741.0</ele><time>2026-04-13T07:37:43.66Z</time></trkpt><trkpt lat="37.9172881" lon="-3.0061395"><ele>743.0</ele><time>2026-04-13T07:37:44.66Z</time></trkpt><trkpt lat="37.9173481" lon="-3.0060665"><ele>745.0</ele><time>2026-04-13T07:37:45.66Z</time></trkpt><trkpt lat="37.9174226" lon="-3.0060268"><ele>747.0</ele><time>2026-04-13T07:37:46.66Z</time></trkpt><trkpt lat="37.9175067" lon="-3.0060128"><ele>749.0</ele><time>2026-04-13T07:37:47.66Z</time></trkpt><trkpt lat="37.9175933" lon="-3.0060123"><ele>751.0</ele><time>2026-04-13T07:37:48.66Z</time></trkpt><trkpt lat="37.9176732" lon="-3.0060153"><ele>752.0</ele><time>2026-04-13T07:37:49.66Z</time></trkpt><trkpt lat="37.9177741" lon="-3.0060207"><ele>753.0</ele><time>2026-04-13T07:37:51.66Z</time></trkpt><trkpt lat="37.9178513" lon="-3.0060267"><ele>754.0</ele><time>2026-04-13T07:37:53.661Z</time></trkpt><trkpt lat="37.9179764" lon="-3.0060335"><ele>755.0</ele><time>2026-04-13T07:37:55.66Z</time></trkpt><trkpt lat="37.9180529" lon="-3.0060397"><ele>756.0</ele><time>2026-04-13T07:37:56.66Z</time></trkpt><trkpt lat="37.9181352" lon="-3.0060516"><ele>756.0</ele><time>2026-04-13T07:37:57.66Z</time></trkpt><trkpt lat="37.9182135" lon="-3.0060717"><ele>756.0</ele><time>2026-04-13T07:37:58.66Z</time></trkpt><trkpt lat="37.9182911" lon="-3.0060992"><ele>756.0</ele><time>2026-04-13T07:37:59.66Z</time></trkpt><trkpt lat="37.9183795" lon="-3.0061378"><ele>756.0</ele><time>2026-04-13T07:38:00.66Z</time></trkpt><trkpt lat="37.9184636" lon="-3.0061703"><ele>756.0</ele><time>2026-04-13T07:38:01.66Z</time></trkpt><trkpt lat="37.9185371" lon="-3.0061962"><ele>756.0</ele><time>2026-04-13T07:38:02.66Z</time></trkpt><trkpt lat="37.9186138" lon="-3.006204"><ele>755.7142857142857</ele><time>2026-04-13T07:38:03.66Z</time></trkpt><trkpt lat="37.9186955" lon="-3.006182"><ele>755.4285714285714</ele><time>2026-04-13T07:38:04.66Z</time></trkpt><trkpt lat="37.9187498" lon="-3.0061152"><ele>755.1428571428571</ele><time>2026-04-13T07:38:05.66Z</time></trkpt><trkpt lat="37.9187859" lon="-3.0060295"><ele>754.8571428571429</ele><time>2026-04-13T07:38:06.66Z</time></trkpt><trkpt lat="37.9187841" lon="-3.0059323"><ele>754.5714285714286</ele><time>2026-04-13T07:38:07.66Z</time></trkpt><trkpt lat="37.9187717" lon="-3.0058504"><ele>754.2857142857142</ele><time>2026-04-13T07:38:08.66Z</time></trkpt><trkpt lat="37.9187342" lon="-3.0057858"><ele>754.0</ele><time>2026-04-13T07:38:09.66Z</time></trkpt><trkpt lat="37.918664" lon="-3.0057208"><ele>755.8000000000001</ele><time>2026-04-13T07:38:10.66Z</time></trkpt><trkpt lat="37.9185948" lon="-3.0056599"><ele>757.6</ele><time>2026-04-13T07:38:11.66Z</time></trkpt><trkpt lat="37.9185072" lon="-3.0055948"><ele>759.4</ele><time>2026-04-13T07:38:13.66Z</time></trkpt><trkpt lat="37.9184308" lon="-3.0055412"><ele>761.2</ele><time>2026-04-13T07:38:15.661Z</time></trkpt><trkpt lat="37.9183448" lon="-3.0054648"><ele>763.0</ele><time>2026-04-13T07:38:17.66Z</time></trkpt><trkpt lat="37.9182825" lon="-3.0054064"><ele>764.0</ele><time>2026-04-13T07:38:18.66Z</time></trkpt><trkpt lat="37.9182149" lon="-3.0053461"><ele>765.0</ele><time>2026-04-13T07:38:19.66Z</time></trkpt><trkpt lat="37.9181573" lon="-3.0052904"><ele>766.0</ele><time>2026-04-13T07:38:20.66Z</time></trkpt><trkpt lat="37.9180807" lon="-3.0052265"><ele>767.0</ele><time>2026-04-13T07:38:21.66Z</time></trkpt><trkpt lat="37.9180104" lon="-3.0051641"><ele>767.9999999999999</ele><time>2026-04-13T07:38:22.66Z</time></trkpt><trkpt lat="37.9179393" lon="-3.0051045"><ele>769.0</ele><time>2026-04-13T07:38:23.66Z</time></trkpt><trkpt lat="37.9178719" lon="-3.0050477"><ele>771.0</ele><time>2026-04-13T07:38:24.66Z</time></trkpt><trkpt lat="37.917812" lon="-3.0049947"><ele>773.0</ele><time>2026-04-13T07:38:25.66Z</time></trkpt><trkpt lat="37.9177566" lon="-3.0049473"><ele>775.0</ele><time>2026-04-13T07:38:26.66Z</time></trkpt><trkpt lat="37.9176891" lon="-3.0049128"><ele>777.0</ele><time>2026-04-13T07:38:28.66Z</time></trkpt><trkpt lat="37.9176225" lon="-3.0049173"><ele>779.0</ele><time>2026-04-13T07:38:32.66Z</time></trkpt><trkpt lat="37.9176914" lon="-3.0049496"><ele>781.0</ele><time>2026-04-13T07:38:47.66Z</time></trkpt><trkpt lat="37.9177642" lon="-3.0049828"><ele>783.0</ele><time>2026-04-13T07:38:54.661Z</time></trkpt><trkpt lat="37.9177063" lon="-3.0049438"><ele>783.0</ele><time>2026-04-13T07:39:11.66Z</time></trkpt><trkpt lat="37.917647" lon="-3.00491"><ele>783.0</ele><time>2026-04-13T07:39:20.633Z</time></trkpt><trkpt lat="37.9176065" lon="-3.0048397"><ele>783.0</ele><time>2026-04-13T07:40:19.698Z</time></trkpt><trkpt lat="37.9175542" lon="-3.0047906"><ele>783.0</ele><time>2026-04-13T07:40:21.702Z</time></trkpt><trkpt lat="37.9174488" lon="-3.0047499"><ele>783.0</ele><time>2026-04-13T07:40:24.683Z</time></trkpt><trkpt lat="37.9173872" lon="-3.0047217"><ele>783.0</ele><time>2026-04-13T07:40:25.683Z</time></trkpt><trkpt lat="37.9173224" lon="-3.0046915"><ele>783.0</ele><time>2026-04-13T07:40:26.683Z</time></trkpt><trkpt lat="37.9172412" lon="-3.0046588"><ele>782.4285714285714</ele><time>2026-04-13T07:40:27.683Z</time></trkpt><trkpt lat="37.9171576" lon="-3.0046174"><ele>781.8571428571429</ele><time>2026-04-13T07:40:28.683Z</time></trkpt><trkpt lat="37.9170947" lon="-3.0045871"><ele>781.2857142857143</ele><time>2026-04-13T07:40:29.683Z</time></trkpt><trkpt lat="37.9170195" lon="-3.0045607"><ele>780.7142857142858</ele><time>2026-04-13T07:40:30.683Z</time></trkpt><trkpt lat="37.9169549" lon="-3.0045641"><ele>780.1428571428571</ele><time>2026-04-13T07:40:31.684Z</time></trkpt><trkpt lat="37.9168884" lon="-3.0045776"><ele>779.5714285714287</ele><time>2026-04-13T07:40:32.683Z</time></trkpt><trkpt lat="37.9168217" lon="-3.0046122"><ele>779.0</ele><time>2026-04-13T07:40:33.683Z</time></trkpt><trkpt lat="37.9167589" lon="-3.0046497"><ele>780.3333333333334</ele><time>2026-04-13T07:40:34.683Z</time></trkpt><trkpt lat="37.916696" lon="-3.0046812"><ele>781.6666666666667</ele><time>2026-04-13T07:40:35.683Z</time></trkpt><trkpt lat="37.9166439" lon="-3.0047294"><ele>783.0</ele><time>2026-04-13T07:40:36.683Z</time></trkpt><trkpt lat="37.9165657" lon="-3.0047843"><ele>784.3333333333333</ele><time>2026-04-13T07:40:38.683Z</time></trkpt><trkpt lat="37.9164988" lon="-3.0048315"><ele>785.6666666666666</ele><time>2026-04-13T07:40:40.683Z</time></trkpt><trkpt lat="37.916406" lon="-3.0048702"><ele>787.0</ele><time>2026-04-13T07:40:42.683Z</time></trkpt><trkpt lat="37.9162815" lon="-3.0049153"><ele>786.9999999999999</ele><time>2026-04-13T07:40:44.683Z</time></trkpt><trkpt lat="37.9162054" lon="-3.0049151"><ele>787.0</ele><time>2026-04-13T07:40:45.683Z</time></trkpt><trkpt lat="37.9161339" lon="-3.0049201"><ele>787.0</ele><time>2026-04-13T07:40:46.683Z</time></trkpt><trkpt lat="37.9160612" lon="-3.0048955"><ele>787.0</ele><time>2026-04-13T07:40:47.683Z</time></trkpt><trkpt lat="37.9159879" lon="-3.0048613"><ele>786.9999999999999</ele><time>2026-04-13T07:40:48.684Z</time></trkpt><trkpt lat="37.9159165" lon="-3.0048349"><ele>787.0</ele><time>2026-04-13T07:40:49.683Z</time></trkpt><trkpt lat="37.9158442" lon="-3.0048118"><ele>788.1666666666666</ele><time>2026-04-13T07:40:50.683Z</time></trkpt><trkpt lat="37.9157706" lon="-3.0047897"><ele>789.3333333333333</ele><time>2026-04-13T07:40:51.683Z</time></trkpt><trkpt lat="37.9156937" lon="-3.0047633"><ele>790.5</ele><time>2026-04-13T07:40:52.683Z</time></trkpt><trkpt lat="37.9156153" lon="-3.0047356"><ele>791.6666666666667</ele><time>2026-04-13T07:40:53.683Z</time></trkpt><trkpt lat="37.9155327" lon="-3.0047076"><ele>792.8333333333334</ele><time>2026-04-13T07:40:54.683Z</time></trkpt><trkpt lat="37.9154535" lon="-3.0046815"><ele>794.0</ele><time>2026-04-13T07:40:55.683Z</time></trkpt><trkpt lat="37.9153703" lon="-3.0046561"><ele>794.0</ele><time>2026-04-13T07:40:56.683Z</time></trkpt><trkpt lat="37.9152804" lon="-3.0046319"><ele>794.0</ele><time>2026-04-13T07:40:57.683Z</time></trkpt><trkpt lat="37.9151894" lon="-3.0046198"><ele>794.0</ele><time>2026-04-13T07:40:58.683Z</time></trkpt><trkpt lat="37.9151033" lon="-3.0046167"><ele>794.0</ele><time>2026-04-13T07:40:59.683Z</time></trkpt><trkpt lat="37.9149525" lon="-3.004599"><ele>794.0</ele><time>2026-04-13T07:41:01.683Z</time></trkpt><trkpt lat="37.9148633" lon="-3.0046008"><ele>794.4000000000001</ele><time>2026-04-13T07:41:02.683Z</time></trkpt><trkpt lat="37.9147473" lon="-3.0045984"><ele>794.8</ele><time>2026-04-13T07:41:03.683Z</time></trkpt><trkpt lat="37.9146608" lon="-3.0045704"><ele>795.2</ele><time>2026-04-13T07:41:04.683Z</time></trkpt><trkpt lat="37.9145861" lon="-3.0045241"><ele>795.5999999999999</ele><time>2026-04-13T07:41:05.683Z</time></trkpt><trkpt lat="37.9145386" lon="-3.0044688"><ele>796.0</ele><time>2026-04-13T07:41:06.683Z</time></trkpt><trkpt lat="37.9144594" lon="-3.0043841"><ele>795.9999999999999</ele><time>2026-04-13T07:41:08.683Z</time></trkpt><trkpt lat="37.9144045" lon="-3.0043255"><ele>796.0</ele><time>2026-04-13T07:41:10.683Z</time></trkpt><trkpt lat="37.9143434" lon="-3.0042301"><ele>796.0</ele><time>2026-04-13T07:41:12.683Z</time></trkpt><trkpt lat="37.9143011" lon="-3.0041655"><ele>796.0</ele><time>2026-04-13T07:41:13.683Z</time></trkpt><trkpt lat="37.9142529" lon="-3.0040888"><ele>795.9999999999999</ele><time>2026-04-13T07:41:14.683Z</time></trkpt><trkpt lat="37.9141985" lon="-3.0040101"><ele>796.0</ele><time>2026-04-13T07:41:15.683Z</time></trkpt><trkpt lat="37.9141474" lon="-3.0039431"><ele>797.4999999999999</ele><time>2026-04-13T07:41:16.684Z</time></trkpt><trkpt lat="37.9140981" lon="-3.0038667"><ele>799.0</ele><time>2026-04-13T07:41:17.683Z</time></trkpt><trkpt lat="37.9140479" lon="-3.0037869"><ele>800.5</ele><time>2026-04-13T07:41:18.683Z</time></trkpt><trkpt lat="37.9140028" lon="-3.0037153"><ele>802.0</ele><time>2026-04-13T07:41:19.683Z</time></trkpt><trkpt lat="37.9139499" lon="-3.003645"><ele>803.4999999999999</ele><time>2026-04-13T07:41:20.683Z</time></trkpt><trkpt lat="37.9138943" lon="-3.0035727"><ele>805.0</ele><time>2026-04-13T07:41:21.683Z</time></trkpt><trkpt lat="37.9138386" lon="-3.0035012"><ele>805.0</ele><time>2026-04-13T07:41:22.683Z</time></trkpt><trkpt lat="37.9137838" lon="-3.0034422"><ele>805.0</ele><time>2026-04-13T07:41:23.683Z</time></trkpt><trkpt lat="37.9137276" lon="-3.0033774"><ele>805.0</ele><time>2026-04-13T07:41:24.683Z</time></trkpt><trkpt lat="37.9136718" lon="-3.0033206"><ele>805.0</ele><time>2026-04-13T07:41:25.683Z</time></trkpt><trkpt lat="37.9136146" lon="-3.0032674"><ele>805.0</ele><time>2026-04-13T07:41:26.683Z</time></trkpt><trkpt lat="37.9135602" lon="-3.0032133"><ele>805.0</ele><time>2026-04-13T07:41:27.683Z</time></trkpt><trkpt lat="37.9135134" lon="-3.0031595"><ele>805.0</ele><time>2026-04-13T07:41:28.683Z</time></trkpt><trkpt lat="37.9134061" lon="-3.0030622"><ele>805.0</ele><time>2026-04-13T07:41:31.61Z</time></trkpt><trkpt lat="37.9133428" lon="-3.0029931"><ele>805.0</ele><time>2026-04-13T07:41:33.669Z</time></trkpt><trkpt lat="37.9133094" lon="-3.0029229"><ele>805.0</ele><time>2026-04-13T07:41:36.667Z</time></trkpt><trkpt lat="37.9134394" lon="-3.0029537"><ele>805.0</ele><time>2026-04-13T07:41:39.667Z</time></trkpt><trkpt lat="37.913528" lon="-3.0030061"><ele>805.0</ele><time>2026-04-13T07:41:41.667Z</time></trkpt><trkpt lat="37.9136027" lon="-3.0030332"><ele>806.4999999999999</ele><time>2026-04-13T07:41:42.667Z</time></trkpt><trkpt lat="37.9136702" lon="-3.0030662"><ele>808.0</ele><time>2026-04-13T07:41:43.667Z</time></trkpt><trkpt lat="37.9137361" lon="-3.0031046"><ele>809.5</ele><time>2026-04-13T07:41:44.667Z</time></trkpt><trkpt lat="37.9137978" lon="-3.0031356"><ele>811.0</ele><time>2026-04-13T07:41:45.667Z</time></trkpt><trkpt lat="37.913921" lon="-3.003184"><ele>812.4999999999999</ele><time>2026-04-13T07:41:47.667Z</time></trkpt><trkpt lat="37.9139901" lon="-3.0032152"><ele>814.0</ele><time>2026-04-13T07:41:48.667Z</time></trkpt><trkpt lat="37.9140596" lon="-3.0032489"><ele>813.9999999999999</ele><time>2026-04-13T07:41:49.667Z</time></trkpt><trkpt lat="37.9141339" lon="-3.0032809"><ele>814.0</ele><time>2026-04-13T07:41:50.667Z</time></trkpt><trkpt lat="37.9142182" lon="-3.0033167"><ele>814.0</ele><time>2026-04-13T07:41:51.667Z</time></trkpt><trkpt lat="37.9142892" lon="-3.0033529"><ele>814.0</ele><time>2026-04-13T07:41:52.667Z</time></trkpt><trkpt lat="37.9143773" lon="-3.0033886"><ele>813.9999999999999</ele><time>2026-04-13T07:41:53.667Z</time></trkpt><trkpt lat="37.9144568" lon="-3.0034253"><ele>814.0</ele><time>2026-04-13T07:41:54.667Z</time></trkpt><trkpt lat="37.9145601" lon="-3.0034695"><ele>813.1666666666666</ele><time>2026-04-13T07:41:56.667Z</time></trkpt><trkpt lat="37.9146459" lon="-3.0035068"><ele>812.3333333333333</ele><time>2026-04-13T07:41:59.667Z</time></trkpt><trkpt lat="37.9147541" lon="-3.0035784"><ele>811.5</ele><time>2026-04-13T07:42:01.667Z</time></trkpt><trkpt lat="37.9148194" lon="-3.0036258"><ele>810.6666666666667</ele><time>2026-04-13T07:42:02.667Z</time></trkpt><trkpt lat="37.9148738" lon="-3.0036685"><ele>809.8333333333334</ele><time>2026-04-13T07:42:03.667Z</time></trkpt><trkpt lat="37.9149526" lon="-3.0037134"><ele>809.0</ele><time>2026-04-13T07:42:04.667Z</time></trkpt><trkpt lat="37.9150267" lon="-3.0037432"><ele>809.3333333333334</ele><time>2026-04-13T07:42:05.667Z</time></trkpt><trkpt lat="37.9151083" lon="-3.0037646"><ele>809.6666666666667</ele><time>2026-04-13T07:42:06.667Z</time></trkpt><trkpt lat="37.9151912" lon="-3.0037758"><ele>810.0</ele><time>2026-04-13T07:42:07.667Z</time></trkpt><trkpt lat="37.9152697" lon="-3.0037636"><ele>810.3333333333333</ele><time>2026-04-13T07:42:08.667Z</time></trkpt><trkpt lat="37.9153484" lon="-3.0037424"><ele>810.6666666666666</ele><time>2026-04-13T07:42:09.667Z</time></trkpt><trkpt lat="37.9154198" lon="-3.0037215"><ele>811.0</ele><time>2026-04-13T07:42:10.667Z</time></trkpt><trkpt lat="37.9154843" lon="-3.0037014"><ele>811.0</ele><time>2026-04-13T07:42:11.667Z</time></trkpt><trkpt lat="37.91559" lon="-3.0036674"><ele>811.0</ele><time>2026-04-13T07:42:13.667Z</time></trkpt><trkpt lat="37.9156698" lon="-3.0036422"><ele>811.0</ele><time>2026-04-13T07:42:15.667Z</time></trkpt><trkpt lat="37.9157291" lon="-3.0036135"><ele>811.0</ele><time>2026-04-13T07:42:18.668Z</time></trkpt><trkpt lat="37.9158084" lon="-3.0035877"><ele>811.0</ele><time>2026-04-13T07:42:20.667Z</time></trkpt><trkpt lat="37.9159237" lon="-3.0035527"><ele>810.5999999999999</ele><time>2026-04-13T07:42:22.667Z</time></trkpt><trkpt lat="37.9160299" lon="-3.0035065"><ele>810.2</ele><time>2026-04-13T07:42:24.667Z</time></trkpt><trkpt lat="37.9161249" lon="-3.0033993"><ele>809.8</ele><time>2026-04-13T07:42:26.667Z</time></trkpt><trkpt lat="37.9161743" lon="-3.0033329"><ele>809.4000000000001</ele><time>2026-04-13T07:42:27.667Z</time></trkpt><trkpt lat="37.9162604" lon="-3.0032303"><ele>809.0</ele><time>2026-04-13T07:42:29.667Z</time></trkpt><trkpt lat="37.9162031" lon="-3.0032812"><ele>809.0</ele><time>2026-04-13T07:43:00.668Z</time></trkpt><trkpt lat="37.916145" lon="-3.0033209"><ele>809.0</ele><time>2026-04-13T07:43:04.667Z</time></trkpt><trkpt lat="37.9161205" lon="-3.0033966"><ele>809.0</ele><time>2026-04-13T07:43:10.707Z</time></trkpt><trkpt lat="37.9161764" lon="-3.0034517"><ele>809.0</ele><time>2026-04-13T07:43:30.667Z</time></trkpt><trkpt lat="37.9162429" lon="-3.0034373"><ele>809.0</ele><time>2026-04-13T07:43:36.661Z</time></trkpt><trkpt lat="37.916309" lon="-3.0034432"><ele>809.0</ele><time>2026-04-13T07:43:44.688Z</time></trkpt><trkpt lat="37.916241" lon="-3.0034676"><ele>809.0</ele><time>2026-04-13T07:45:12.579Z</time></trkpt><trkpt lat="37.9161854" lon="-3.0035076"><ele>809.0000000000001</ele><time>2026-04-13T07:45:15.664Z</time></trkpt><trkpt lat="37.9161892" lon="-3.0034111"><ele>809.0</ele><time>2026-04-13T07:45:25.664Z</time></trkpt><trkpt lat="37.9162217" lon="-3.0033394"><ele>809.0</ele><time>2026-04-13T07:45:33.67Z</time></trkpt><trkpt lat="37.9162448" lon="-3.0031938"><ele>809.0</ele><time>2026-04-13T07:47:11.7Z</time></trkpt><trkpt lat="37.9163261" lon="-3.003092"><ele>809.0000000000001</ele><time>2026-04-13T07:47:16.702Z</time></trkpt><trkpt lat="37.9163792" lon="-3.0030402"><ele>809.0</ele><time>2026-04-13T07:47:18.708Z</time></trkpt><trkpt lat="37.9164177" lon="-3.0029677"><ele>812.75</ele><time>2026-04-13T07:47:19.704Z</time></trkpt><trkpt lat="37.9165242" lon="-3.0028944"><ele>816.5</ele><time>2026-04-13T07:47:21.701Z</time></trkpt><trkpt lat="37.9166363" lon="-3.0028704"><ele>820.25</ele><time>2026-04-13T07:47:23.701Z</time></trkpt><trkpt lat="37.9167447" lon="-3.0029037"><ele>824.0</ele><time>2026-04-13T07:47:25.694Z</time></trkpt><trkpt lat="37.916862" lon="-3.0029424"><ele>823.9999999999999</ele><time>2026-04-13T07:47:27.711Z</time></trkpt><trkpt lat="37.9169266" lon="-3.0029584"><ele>824.0</ele><time>2026-04-13T07:47:28.696Z</time></trkpt><trkpt lat="37.9169941" lon="-3.0029657"><ele>824.0</ele><time>2026-04-13T07:47:29.713Z</time></trkpt><trkpt lat="37.9170663" lon="-3.0029762"><ele>824.0</ele><time>2026-04-13T07:47:30.709Z</time></trkpt><trkpt lat="37.9171357" lon="-3.0029183"><ele>824.0</ele><time>2026-04-13T07:47:31.695Z</time></trkpt><trkpt lat="37.9171929" lon="-3.0028627"><ele>823.9999999999999</ele><time>2026-04-13T07:47:32.694Z</time></trkpt><trkpt lat="37.9172521" lon="-3.0027918"><ele>824.0</ele><time>2026-04-13T07:47:33.697Z</time></trkpt><trkpt lat="37.9173237" lon="-3.0027107"><ele>824.0000000000001</ele><time>2026-04-13T07:47:34.695Z</time></trkpt><trkpt lat="37.9173881" lon="-3.002634"><ele>824.0</ele><time>2026-04-13T07:47:35.705Z</time></trkpt><trkpt lat="37.917448" lon="-3.0025562"><ele>824.0</ele><time>2026-04-13T07:47:36.702Z</time></trkpt><trkpt lat="37.9175098" lon="-3.0024785"><ele>824.0</ele><time>2026-04-13T07:47:37.709Z</time></trkpt><trkpt lat="37.9175724" lon="-3.0024028"><ele>824.0000000000001</ele><time>2026-04-13T07:47:38.703Z</time></trkpt><trkpt lat="37.9176381" lon="-3.0023275"><ele>824.0</ele><time>2026-04-13T07:47:39.704Z</time></trkpt><trkpt lat="37.9177042" lon="-3.00226"><ele>825.0</ele><time>2026-04-13T07:47:40.715Z</time></trkpt><trkpt lat="37.9177746" lon="-3.0021893"><ele>826.0</ele><time>2026-04-13T07:47:41.701Z</time></trkpt><trkpt lat="37.9178597" lon="-3.0021337"><ele>827.0</ele><time>2026-04-13T07:47:42.714Z</time></trkpt><trkpt lat="37.9179672" lon="-3.0020972"><ele>828.0</ele><time>2026-04-13T07:47:43.701Z</time></trkpt><trkpt lat="37.9180754" lon="-3.0020612"><ele>829.0</ele><time>2026-04-13T07:47:44.711Z</time></trkpt><trkpt lat="37.9181741" lon="-3.0020477"><ele>828.9999999999999</ele><time>2026-04-13T07:47:45.695Z</time></trkpt><trkpt lat="37.9182649" lon="-3.002019"><ele>829.0</ele><time>2026-04-13T07:47:46.701Z</time></trkpt><trkpt lat="37.9183527" lon="-3.0019935"><ele>829.0</ele><time>2026-04-13T07:47:47.708Z</time></trkpt><trkpt lat="37.9184377" lon="-3.0019681"><ele>829.0</ele><time>2026-04-13T07:47:48.695Z</time></trkpt><trkpt lat="37.9185182" lon="-3.0019453"><ele>828.9999999999999</ele><time>2026-04-13T07:47:49.698Z</time></trkpt><trkpt lat="37.9185783" lon="-3.0019112"><ele>829.0</ele><time>2026-04-13T07:47:50.696Z</time></trkpt><trkpt lat="37.9186544" lon="-3.0018434"><ele>830.2</ele><time>2026-04-13T07:47:52.706Z</time></trkpt><trkpt lat="37.9187266" lon="-3.0017403"><ele>831.4000000000001</ele><time>2026-04-13T07:47:54.713Z</time></trkpt><trkpt lat="37.9187736" lon="-3.001676"><ele>832.6</ele><time>2026-04-13T07:47:55.701Z</time></trkpt><trkpt lat="37.9188567" lon="-3.0015508"><ele>833.8</ele><time>2026-04-13T07:47:57.695Z</time></trkpt><trkpt lat="37.9189035" lon="-3.0014769"><ele>835.0</ele><time>2026-04-13T07:47:58.695Z</time></trkpt><trkpt lat="37.9189487" lon="-3.0014018"><ele>834.9999999999999</ele><time>2026-04-13T07:47:59.706Z</time></trkpt><trkpt lat="37.9190002" lon="-3.0013275"><ele>835.0</ele><time>2026-04-13T07:48:00.696Z</time></trkpt><trkpt lat="37.9190493" lon="-3.0012532"><ele>835.0</ele><time>2026-04-13T07:48:01.708Z</time></trkpt><trkpt lat="37.9191114" lon="-3.0011612"><ele>835.0</ele><time>2026-04-13T07:48:02.709Z</time></trkpt><trkpt lat="37.9191662" lon="-3.0010776"><ele>834.9999999999999</ele><time>2026-04-13T07:48:03.702Z</time></trkpt><trkpt lat="37.919216" lon="-3.0010011"><ele>835.0</ele><time>2026-04-13T07:48:04.71Z</time></trkpt><trkpt lat="37.9192628" lon="-3.0009404"><ele>836.1666666666666</ele><time>2026-04-13T07:48:05.712Z</time></trkpt><trkpt lat="37.9193437" lon="-3.000838"><ele>837.3333333333333</ele><time>2026-04-13T07:48:07.698Z</time></trkpt><trkpt lat="37.9193918" lon="-3.0007804"><ele>838.5</ele><time>2026-04-13T07:48:08.696Z</time></trkpt><trkpt lat="37.9194431" lon="-3.0007245"><ele>839.6666666666667</ele><time>2026-04-13T07:48:09.707Z</time></trkpt><trkpt lat="37.9195011" lon="-3.000662"><ele>840.8333333333334</ele><time>2026-04-13T07:48:10.716Z</time></trkpt><trkpt lat="37.9195641" lon="-3.0005971"><ele>842.0</ele><time>2026-04-13T07:48:11.698Z</time></trkpt><trkpt lat="37.9196323" lon="-3.0005351"><ele>842.0000000000001</ele><time>2026-04-13T07:48:12.711Z</time></trkpt><trkpt lat="37.9197074" lon="-3.0004811"><ele>842.0</ele><time>2026-04-13T07:48:13.707Z</time></trkpt><trkpt lat="37.9197796" lon="-3.0004251"><ele>842.0</ele><time>2026-04-13T07:48:14.698Z</time></trkpt><trkpt lat="37.9198568" lon="-3.0003651"><ele>842.0</ele><time>2026-04-13T07:48:15.697Z</time></trkpt><trkpt lat="37.9199302" lon="-3.0003017"><ele>842.0000000000001</ele><time>2026-04-13T07:48:16.706Z</time></trkpt><trkpt lat="37.9199872" lon="-3.0002407"><ele>842.0</ele><time>2026-04-13T07:48:17.699Z</time></trkpt><trkpt lat="37.9200371" lon="-3.0001897"><ele>839.3333333333334</ele><time>2026-04-13T07:48:18.704Z</time></trkpt><trkpt lat="37.9201239" lon="-3.0000925"><ele>836.6666666666667</ele><time>2026-04-13T07:48:20.706Z</time></trkpt><trkpt lat="37.9201733" lon="-3.0000336"><ele>834.0</ele><time>2026-04-13T07:48:21.698Z</time></trkpt><trkpt lat="37.9202299" lon="-2.9999667"><ele>831.3333333333333</ele><time>2026-04-13T07:48:22.705Z</time></trkpt><trkpt lat="37.9202891" lon="-2.9998965"><ele>828.6666666666666</ele><time>2026-04-13T07:48:23.709Z</time></trkpt><trkpt lat="37.9203509" lon="-2.999822"><ele>826.0</ele><time>2026-04-13T07:48:24.725Z</time></trkpt><trkpt lat="37.9204173" lon="-2.9997457"><ele>826.0</ele><time>2026-04-13T07:48:25.707Z</time></trkpt><trkpt lat="37.9204871" lon="-2.9996661"><ele>826.0</ele><time>2026-04-13T07:48:26.711Z</time></trkpt><trkpt lat="37.9205579" lon="-2.9995785"><ele>826.0</ele><time>2026-04-13T07:48:27.71Z</time></trkpt><trkpt lat="37.9206341" lon="-2.9994863"><ele>826.0</ele><time>2026-04-13T07:48:28.695Z</time></trkpt><trkpt lat="37.9207362" lon="-2.9993405"><ele>825.5</ele><time>2026-04-13T07:48:30.598Z</time></trkpt><trkpt lat="37.9208436" lon="-2.9991626"><ele>825.0</ele><time>2026-04-13T07:48:31.662Z</time></trkpt><trkpt lat="37.9209069" lon="-2.9990432"><ele>824.5</ele><time>2026-04-13T07:48:32.666Z</time></trkpt><trkpt lat="37.9209624" lon="-2.9989231"><ele>824.0</ele><time>2026-04-13T07:48:33.66Z</time></trkpt><trkpt lat="37.9210039" lon="-2.9988076"><ele>824.0</ele><time>2026-04-13T07:48:34.672Z</time></trkpt><trkpt lat="37.9210365" lon="-2.9987"><ele>824.0</ele><time>2026-04-13T07:48:35.664Z</time></trkpt><trkpt lat="37.9210618" lon="-2.9985885"><ele>824.0</ele><time>2026-04-13T07:48:36.664Z</time></trkpt><trkpt lat="37.9210818" lon="-2.9984746"><ele>824.0</ele><time>2026-04-13T07:48:37.664Z</time></trkpt><trkpt lat="37.9210975" lon="-2.9983582"><ele>824.0</ele><time>2026-04-13T07:48:38.664Z</time></trkpt><trkpt lat="37.921098" lon="-2.9982427"><ele>825.0000000000001</ele><time>2026-04-13T07:48:39.665Z</time></trkpt><trkpt lat="37.9210888" lon="-2.9981293"><ele>826.0</ele><time>2026-04-13T07:48:40.664Z</time></trkpt><trkpt lat="37.9210724" lon="-2.9980181"><ele>827.0</ele><time>2026-04-13T07:48:41.664Z</time></trkpt><trkpt lat="37.9210425" lon="-2.9979175"><ele>828.0</ele><time>2026-04-13T07:48:42.664Z</time></trkpt><trkpt lat="37.9210033" lon="-2.9978222"><ele>829.0000000000001</ele><time>2026-04-13T07:48:43.664Z</time></trkpt><trkpt lat="37.9209534" lon="-2.9977462"><ele>830.0</ele><time>2026-04-13T07:48:44.664Z</time></trkpt><trkpt lat="37.9209024" lon="-2.9976755"><ele>834.6666666666667</ele><time>2026-04-13T07:48:45.664Z</time></trkpt><trkpt lat="37.9208553" lon="-2.9976155"><ele>839.3333333333334</ele><time>2026-04-13T07:48:46.664Z</time></trkpt><trkpt lat="37.9208133" lon="-2.997552"><ele>844.0</ele><time>2026-04-13T07:48:47.664Z</time></trkpt><trkpt lat="37.9207556" lon="-2.9974341"><ele>848.6666666666667</ele><time>2026-04-13T07:48:49.664Z</time></trkpt><trkpt lat="37.9207259" lon="-2.9973188"><ele>853.3333333333334</ele><time>2026-04-13T07:48:51.664Z</time></trkpt><trkpt lat="37.9207118" lon="-2.9971947"><ele>858.0</ele><time>2026-04-13T07:48:53.664Z</time></trkpt><trkpt lat="37.9207197" lon="-2.9970581"><ele>858.2</ele><time>2026-04-13T07:48:55.664Z</time></trkpt><trkpt lat="37.9207522" lon="-2.9969098"><ele>858.4</ele><time>2026-04-13T07:48:57.664Z</time></trkpt><trkpt lat="37.9207809" lon="-2.9968387"><ele>858.6000000000001</ele><time>2026-04-13T07:48:58.664Z</time></trkpt><trkpt lat="37.9208466" lon="-2.9967115"><ele>858.8000000000001</ele><time>2026-04-13T07:49:00.664Z</time></trkpt><trkpt lat="37.9209153" lon="-2.9965995"><ele>859.0</ele><time>2026-04-13T07:49:02.664Z</time></trkpt><trkpt lat="37.9209729" lon="-2.9965141"><ele>857.0</ele><time>2026-04-13T07:49:04.664Z</time></trkpt><trkpt lat="37.9210354" lon="-2.9964146"><ele>855.0000000000001</ele><time>2026-04-13T07:49:06.665Z</time></trkpt><trkpt lat="37.9211023" lon="-2.996296"><ele>853.0</ele><time>2026-04-13T07:49:08.664Z</time></trkpt><trkpt lat="37.9211469" lon="-2.9961768"><ele>851.0</ele><time>2026-04-13T07:49:10.664Z</time></trkpt><trkpt lat="37.9211926" lon="-2.9960642"><ele>849.0</ele><time>2026-04-13T07:49:12.664Z</time></trkpt><trkpt lat="37.9212385" lon="-2.9959516"><ele>852.75</ele><time>2026-04-13T07:49:14.664Z</time></trkpt><trkpt lat="37.9212806" lon="-2.9958266"><ele>856.5</ele><time>2026-04-13T07:49:16.664Z</time></trkpt><trkpt lat="37.9213248" lon="-2.9956862"><ele>860.25</ele><time>2026-04-13T07:49:18.664Z</time></trkpt><trkpt lat="37.9213712" lon="-2.9955454"><ele>864.0</ele><time>2026-04-13T07:49:20.664Z</time></trkpt><trkpt lat="37.9214058" lon="-2.9954203"><ele>864.0</ele><time>2026-04-13T07:49:22.664Z</time></trkpt><trkpt lat="37.9214158" lon="-2.995291"><ele>864.0000000000001</ele><time>2026-04-13T07:49:24.664Z</time></trkpt><trkpt lat="37.9213902" lon="-2.9951648"><ele>864.0000000000001</ele><time>2026-04-13T07:49:26.664Z</time></trkpt><trkpt lat="37.9213912" lon="-2.9950377"><ele>864.0</ele><time>2026-04-13T07:49:28.664Z</time></trkpt><trkpt lat="37.9214393" lon="-2.994932"><ele>864.0</ele><time>2026-04-13T07:49:30.664Z</time></trkpt><trkpt lat="37.9214993" lon="-2.9948688"><ele>863.4000000000001</ele><time>2026-04-13T07:49:31.664Z</time></trkpt><trkpt lat="37.9215453" lon="-2.9948129"><ele>862.8000000000001</ele><time>2026-04-13T07:49:32.664Z</time></trkpt><trkpt lat="37.9215906" lon="-2.9947549"><ele>862.1999999999999</ele><time>2026-04-13T07:49:33.664Z</time></trkpt><trkpt lat="37.921667" lon="-2.9946532"><ele>861.5999999999999</ele><time>2026-04-13T07:49:35.664Z</time></trkpt><trkpt lat="37.9217309" lon="-2.9945636"><ele>861.0</ele><time>2026-04-13T07:49:37.664Z</time></trkpt><trkpt lat="37.921824" lon="-2.994469"><ele>861.0</ele><time>2026-04-13T07:49:39.664Z</time></trkpt><trkpt lat="37.9218885" lon="-2.9944031"><ele>860.9999999999999</ele><time>2026-04-13T07:49:40.664Z</time></trkpt><trkpt lat="37.9219625" lon="-2.9943211"><ele>860.9999999999999</ele><time>2026-04-13T07:49:41.664Z</time></trkpt><trkpt lat="37.9220417" lon="-2.9942314"><ele>861.0</ele><time>2026-04-13T07:49:42.664Z</time></trkpt><trkpt lat="37.9221232" lon="-2.9941372"><ele>861.0</ele><time>2026-04-13T07:49:43.664Z</time></trkpt><trkpt lat="37.9222143" lon="-2.9940399"><ele>860.25</ele><time>2026-04-13T07:49:44.664Z</time></trkpt><trkpt lat="37.9223105" lon="-2.9939403"><ele>859.5</ele><time>2026-04-13T07:49:45.665Z</time></trkpt><trkpt lat="37.9224065" lon="-2.9938391"><ele>858.75</ele><time>2026-04-13T07:49:46.664Z</time></trkpt><trkpt lat="37.9224936" lon="-2.9937254"><ele>858.0</ele><time>2026-04-13T07:49:47.665Z</time></trkpt><trkpt lat="37.922567" lon="-2.9936048"><ele>858.0</ele><time>2026-04-13T07:49:48.664Z</time></trkpt><trkpt lat="37.9226169" lon="-2.9934788"><ele>858.0</ele><time>2026-04-13T07:49:49.664Z</time></trkpt><trkpt lat="37.9226456" lon="-2.9933498"><ele>858.0</ele><time>2026-04-13T07:49:50.664Z</time></trkpt><trkpt lat="37.9226366" lon="-2.9932575"><ele>858.0</ele><time>2026-04-13T07:49:51.664Z</time></trkpt><trkpt lat="37.9226074" lon="-2.9931259"><ele>858.0</ele><time>2026-04-13T07:49:53.664Z</time></trkpt><trkpt lat="37.9225842" lon="-2.9930468"><ele>861.5714285714286</ele><time>2026-04-13T07:49:54.664Z</time></trkpt><trkpt lat="37.9225631" lon="-2.9929673"><ele>865.1428571428571</ele><time>2026-04-13T07:49:55.664Z</time></trkpt><trkpt lat="37.9225318" lon="-2.9928721"><ele>868.7142857142858</ele><time>2026-04-13T07:49:56.665Z</time></trkpt><trkpt lat="37.9224987" lon="-2.992773"><ele>872.2857142857142</ele><time>2026-04-13T07:49:57.664Z</time></trkpt><trkpt lat="37.9224702" lon="-2.9926842"><ele>875.8571428571428</ele><time>2026-04-13T07:49:58.664Z</time></trkpt><trkpt lat="37.9224449" lon="-2.9926024"><ele>879.4285714285714</ele><time>2026-04-13T07:49:59.664Z</time></trkpt><trkpt lat="37.9224268" lon="-2.9925258"><ele>883.0</ele><time>2026-04-13T07:50:00.664Z</time></trkpt><trkpt lat="37.9223965" lon="-2.9923872"><ele>883.8</ele><time>2026-04-13T07:50:02.664Z</time></trkpt><trkpt lat="37.9223656" lon="-2.992261"><ele>884.5999999999999</ele><time>2026-04-13T07:50:04.664Z</time></trkpt><trkpt lat="37.9223271" lon="-2.9921458"><ele>885.4000000000001</ele><time>2026-04-13T07:50:06.664Z</time></trkpt><trkpt lat="37.9222805" lon="-2.9920428"><ele>886.2</ele><time>2026-04-13T07:50:08.664Z</time></trkpt><trkpt lat="37.922234" lon="-2.9919422"><ele>887.0</ele><time>2026-04-13T07:50:10.664Z</time></trkpt><trkpt lat="37.9221797" lon="-2.9918371"><ele>887.0</ele><time>2026-04-13T07:50:12.664Z</time></trkpt><trkpt lat="37.9221115" lon="-2.9917066"><ele>887.0</ele><time>2026-04-13T07:50:14.664Z</time></trkpt><trkpt lat="37.9220893" lon="-2.9916199"><ele>887.0</ele><time>2026-04-13T07:50:15.664Z</time></trkpt><trkpt lat="37.9220712" lon="-2.9915351"><ele>887.0</ele><time>2026-04-13T07:50:16.664Z</time></trkpt><trkpt lat="37.9220314" lon="-2.9913879"><ele>887.0</ele><time>2026-04-13T07:50:18.664Z</time></trkpt><trkpt lat="37.921992" lon="-2.9912601"><ele>885.6</ele><time>2026-04-13T07:50:20.664Z</time></trkpt><trkpt lat="37.9219463" lon="-2.9911419"><ele>884.2</ele><time>2026-04-13T07:50:22.665Z</time></trkpt><trkpt lat="37.9219019" lon="-2.9910138"><ele>882.8</ele><time>2026-04-13T07:50:24.664Z</time></trkpt><trkpt lat="37.9218689" lon="-2.9908772"><ele>881.4</ele><time>2026-04-13T07:50:26.664Z</time></trkpt><trkpt lat="37.9218556" lon="-2.9907394"><ele>880.0</ele><time>2026-04-13T07:50:28.664Z</time></trkpt><trkpt lat="37.9218527" lon="-2.9906322"><ele>878.8</ele><time>2026-04-13T07:50:30.664Z</time></trkpt><trkpt lat="37.9218532" lon="-2.9905197"><ele>877.6</ele><time>2026-04-13T07:50:32.663Z</time></trkpt><trkpt lat="37.9218504" lon="-2.990392"><ele>876.4000000000001</ele><time>2026-04-13T07:50:34.664Z</time></trkpt><trkpt lat="37.92184" lon="-2.9902706"><ele>875.2</ele><time>2026-04-13T07:50:36.664Z</time></trkpt><trkpt lat="37.9217829" lon="-2.9901647"><ele>874.0</ele><time>2026-04-13T07:50:38.665Z</time></trkpt><trkpt lat="37.9217282" lon="-2.990065"><ele>879.2</ele><time>2026-04-13T07:50:40.665Z</time></trkpt><trkpt lat="37.9216732" lon="-2.9899765"><ele>884.4000000000001</ele><time>2026-04-13T07:50:42.664Z</time></trkpt><trkpt lat="37.9216043" lon="-2.9898661"><ele>889.6</ele><time>2026-04-13T07:50:44.664Z</time></trkpt><trkpt lat="37.9215284" lon="-2.9897407"><ele>894.8</ele><time>2026-04-13T07:50:46.664Z</time></trkpt><trkpt lat="37.9214657" lon="-2.9896124"><ele>900.0</ele><time>2026-04-13T07:50:48.664Z</time></trkpt><trkpt lat="37.9214418" lon="-2.9895085"><ele>900.0</ele><time>2026-04-13T07:50:50.664Z</time></trkpt><trkpt lat="37.9214133" lon="-2.9894244"><ele>900.0</ele><time>2026-04-13T07:50:52.664Z</time></trkpt><trkpt lat="37.9213616" lon="-2.9893163"><ele>900.0</ele><time>2026-04-13T07:50:54.664Z</time></trkpt><trkpt lat="37.9212816" lon="-2.9892048"><ele>900.0</ele><time>2026-04-13T07:50:56.664Z</time></trkpt><trkpt lat="37.9211886" lon="-2.9891179"><ele>900.0</ele><time>2026-04-13T07:50:58.664Z</time></trkpt><trkpt lat="37.921092" lon="-2.9890442"><ele>903.75</ele><time>2026-04-13T07:51:00.664Z</time></trkpt><trkpt lat="37.920995" lon="-2.9889786"><ele>907.5</ele><time>2026-04-13T07:51:02.664Z</time></trkpt><trkpt lat="37.9209018" lon="-2.9889071"><ele>911.25</ele><time>2026-04-13T07:51:04.664Z</time></trkpt><trkpt lat="37.9208068" lon="-2.9888363"><ele>915.0</ele><time>2026-04-13T07:51:06.664Z</time></trkpt><trkpt lat="37.9207086" lon="-2.9887442"><ele>915.0</ele><time>2026-04-13T07:51:08.664Z</time></trkpt><trkpt lat="37.9206624" lon="-2.9886834"><ele>915.0</ele><time>2026-04-13T07:51:09.664Z</time></trkpt><trkpt lat="37.9206253" lon="-2.988614"><ele>915.0</ele><time>2026-04-13T07:51:10.664Z</time></trkpt><trkpt lat="37.9205905" lon="-2.9884697"><ele>915.0</ele><time>2026-04-13T07:51:12.664Z</time></trkpt><trkpt lat="37.9206029" lon="-2.9883254"><ele>915.0</ele><time>2026-04-13T07:51:14.664Z</time></trkpt><trkpt lat="37.9206173" lon="-2.9882447"><ele>915.0</ele><time>2026-04-13T07:51:15.664Z</time></trkpt><trkpt lat="37.9206306" lon="-2.9881627"><ele>911.0</ele><time>2026-04-13T07:51:16.664Z</time></trkpt><trkpt lat="37.9206535" lon="-2.9880135"><ele>907.0</ele><time>2026-04-13T07:51:18.664Z</time></trkpt><trkpt lat="37.9206784" lon="-2.9878833"><ele>903.0</ele><time>2026-04-13T07:51:20.664Z</time></trkpt><trkpt lat="37.9207115" lon="-2.9877352"><ele>899.0</ele><time>2026-04-13T07:51:22.664Z</time></trkpt><trkpt lat="37.9207259" lon="-2.9876506"><ele>895.0</ele><time>2026-04-13T07:51:23.664Z</time></trkpt><trkpt lat="37.9207433" lon="-2.9875634"><ele>896.6666666666666</ele><time>2026-04-13T07:51:24.664Z</time></trkpt><trkpt lat="37.9207705" lon="-2.9874866"><ele>898.3333333333333</ele><time>2026-04-13T07:51:25.664Z</time></trkpt><trkpt lat="37.9208045" lon="-2.9874102"><ele>900.0</ele><time>2026-04-13T07:51:26.664Z</time></trkpt><trkpt lat="37.920842" lon="-2.9873401"><ele>901.6666666666667</ele><time>2026-04-13T07:51:27.664Z</time></trkpt><trkpt lat="37.9209326" lon="-2.9872337"><ele>903.3333333333334</ele><time>2026-04-13T07:51:29.664Z</time></trkpt><trkpt lat="37.9209862" lon="-2.9871914"><ele>905.0</ele><time>2026-04-13T07:51:30.664Z</time></trkpt><trkpt lat="37.921073" lon="-2.9871512"><ele>901.0</ele><time>2026-04-13T07:51:32.664Z</time></trkpt><trkpt lat="37.9211394" lon="-2.9871337"><ele>897.0</ele><time>2026-04-13T07:51:33.664Z</time></trkpt><trkpt lat="37.9212609" lon="-2.9871042"><ele>893.0</ele><time>2026-04-13T07:51:35.664Z</time></trkpt><trkpt lat="37.9213826" lon="-2.9870712"><ele>889.0</ele><time>2026-04-13T07:51:37.664Z</time></trkpt><trkpt lat="37.9214474" lon="-2.9870521"><ele>885.0</ele><time>2026-04-13T07:51:38.664Z</time></trkpt><trkpt lat="37.9215131" lon="-2.9870214"><ele>885.0</ele><time>2026-04-13T07:51:39.664Z</time></trkpt><trkpt lat="37.9215891" lon="-2.9869859"><ele>885.0</ele><time>2026-04-13T07:51:40.664Z</time></trkpt><trkpt lat="37.9216571" lon="-2.9869362"><ele>885.0</ele><time>2026-04-13T07:51:41.664Z</time></trkpt><trkpt lat="37.9217241" lon="-2.9868776"><ele>885.0</ele><time>2026-04-13T07:51:42.664Z</time></trkpt><trkpt lat="37.9217939" lon="-2.986819"><ele>885.0</ele><time>2026-04-13T07:51:43.664Z</time></trkpt><trkpt lat="37.9218613" lon="-2.9867565"><ele>885.0</ele><time>2026-04-13T07:51:44.664Z</time></trkpt><trkpt lat="37.9219268" lon="-2.9866915"><ele>884.1666666666666</ele><time>2026-04-13T07:51:45.664Z</time></trkpt><trkpt lat="37.9219903" lon="-2.9866219"><ele>883.3333333333333</ele><time>2026-04-13T07:51:46.664Z</time></trkpt><trkpt lat="37.9220488" lon="-2.9865489"><ele>882.5</ele><time>2026-04-13T07:51:47.664Z</time></trkpt><trkpt lat="37.9221043" lon="-2.986467"><ele>881.6666666666666</ele><time>2026-04-13T07:51:48.664Z</time></trkpt><trkpt lat="37.922155" lon="-2.9863795"><ele>880.8333333333333</ele><time>2026-04-13T07:51:49.664Z</time></trkpt><trkpt lat="37.9222018" lon="-2.9862882"><ele>880.0</ele><time>2026-04-13T07:51:50.664Z</time></trkpt><trkpt lat="37.9222456" lon="-2.9861923"><ele>880.0</ele><time>2026-04-13T07:51:51.664Z</time></trkpt><trkpt lat="37.9222831" lon="-2.9860808"><ele>880.0</ele><time>2026-04-13T07:51:52.664Z</time></trkpt><trkpt lat="37.9223092" lon="-2.9859657"><ele>880.0</ele><time>2026-04-13T07:51:53.664Z</time></trkpt><trkpt lat="37.9223299" lon="-2.9858565"><ele>880.0</ele><time>2026-04-13T07:51:54.664Z</time></trkpt><trkpt lat="37.9223491" lon="-2.9857437"><ele>880.0</ele><time>2026-04-13T07:51:55.664Z</time></trkpt><trkpt lat="37.922366" lon="-2.9856348"><ele>882.3333333333333</ele><time>2026-04-13T07:51:56.664Z</time></trkpt><trkpt lat="37.9223845" lon="-2.9855279"><ele>884.6666666666666</ele><time>2026-04-13T07:51:57.664Z</time></trkpt><trkpt lat="37.9223968" lon="-2.9854178"><ele>887.0</ele><time>2026-04-13T07:51:58.664Z</time></trkpt><trkpt lat="37.9224061" lon="-2.985308"><ele>889.3333333333333</ele><time>2026-04-13T07:51:59.664Z</time></trkpt><trkpt lat="37.9224104" lon="-2.9852108"><ele>891.6666666666666</ele><time>2026-04-13T07:52:00.664Z</time></trkpt><trkpt lat="37.9224063" lon="-2.9851308"><ele>894.0</ele><time>2026-04-13T07:52:01.664Z</time></trkpt><trkpt lat="37.9223906" lon="-2.9849992"><ele>895.1666666666666</ele><time>2026-04-13T07:52:02.664Z</time></trkpt><trkpt lat="37.922363" lon="-2.9848792"><ele>896.3333333333333</ele><time>2026-04-13T07:52:03.664Z</time></trkpt><trkpt lat="37.9223303" lon="-2.9847651"><ele>897.5</ele><time>2026-04-13T07:52:04.664Z</time></trkpt><trkpt lat="37.9223" lon="-2.9846588"><ele>898.6666666666666</ele><time>2026-04-13T07:52:05.664Z</time></trkpt><trkpt lat="37.9222667" lon="-2.9845623"><ele>899.8333333333333</ele><time>2026-04-13T07:52:06.664Z</time></trkpt><trkpt lat="37.922238" lon="-2.9844682"><ele>901.0</ele><time>2026-04-13T07:52:07.664Z</time></trkpt><trkpt lat="37.9222107" lon="-2.9843704"><ele>901.0</ele><time>2026-04-13T07:52:08.664Z</time></trkpt><trkpt lat="37.9221897" lon="-2.9842718"><ele>900.9999999999999</ele><time>2026-04-13T07:52:09.664Z</time></trkpt><trkpt lat="37.9221748" lon="-2.9841729"><ele>900.9999999999999</ele><time>2026-04-13T07:52:10.664Z</time></trkpt><trkpt lat="37.9221711" lon="-2.9840515"><ele>901.0</ele><time>2026-04-13T07:52:11.664Z</time></trkpt><trkpt lat="37.9221796" lon="-2.9839311"><ele>901.0</ele><time>2026-04-13T07:52:12.664Z</time></trkpt><trkpt lat="37.9222008" lon="-2.9838001"><ele>901.0</ele><time>2026-04-13T07:52:13.664Z</time></trkpt><trkpt lat="37.9222245" lon="-2.9836603"><ele>901.0</ele><time>2026-04-13T07:52:14.664Z</time></trkpt><trkpt lat="37.9222463" lon="-2.983512"><ele>901.0</ele><time>2026-04-13T07:52:15.664Z</time></trkpt><trkpt lat="37.9222542" lon="-2.9833593"><ele>901.0</ele><time>2026-04-13T07:52:16.664Z</time></trkpt><trkpt lat="37.9222538" lon="-2.9832084"><ele>901.0</ele><time>2026-04-13T07:52:17.664Z</time></trkpt><trkpt lat="37.9222573" lon="-2.9830591"><ele>901.0</ele><time>2026-04-13T07:52:18.664Z</time></trkpt><trkpt lat="37.9222849" lon="-2.9829167"><ele>901.0</ele><time>2026-04-13T07:52:19.664Z</time></trkpt><trkpt lat="37.9223375" lon="-2.9827895"><ele>901.0</ele><time>2026-04-13T07:52:20.664Z</time></trkpt><trkpt lat="37.9224158" lon="-2.9826773"><ele>901.0</ele><time>2026-04-13T07:52:21.665Z</time></trkpt><trkpt lat="37.9225263" lon="-2.9825989"><ele>901.0</ele><time>2026-04-13T07:52:22.664Z</time></trkpt><trkpt lat="37.9226519" lon="-2.9825435"><ele>901.0</ele><time>2026-04-13T07:52:23.664Z</time></trkpt><trkpt lat="37.9227713" lon="-2.9824852"><ele>901.0</ele><time>2026-04-13T07:52:24.664Z</time></trkpt><trkpt lat="37.9229169" lon="-2.9824258"><ele>899.0</ele><time>2026-04-13T07:52:25.664Z</time></trkpt><trkpt lat="37.9230574" lon="-2.9823666"><ele>897.0</ele><time>2026-04-13T07:52:26.664Z</time></trkpt><trkpt lat="37.9232035" lon="-2.9822937"><ele>895.0</ele><time>2026-04-13T07:52:27.664Z</time></trkpt><trkpt lat="37.9233508" lon="-2.9822096"><ele>890.6666666666666</ele><time>2026-04-13T07:52:28.664Z</time></trkpt><trkpt lat="37.9234912" lon="-2.9821145"><ele>886.3333333333333</ele><time>2026-04-13T07:52:29.664Z</time></trkpt><trkpt lat="37.9236208" lon="-2.9820114"><ele>882.0</ele><time>2026-04-13T07:52:30.664Z</time></trkpt><trkpt lat="37.9237422" lon="-2.9819097"><ele>882.0</ele><time>2026-04-13T07:52:31.664Z</time></trkpt><trkpt lat="37.9238664" lon="-2.9818111"><ele>882.0</ele><time>2026-04-13T07:52:32.664Z</time></trkpt><trkpt lat="37.9239973" lon="-2.9817247"><ele>882.0</ele><time>2026-04-13T07:52:33.664Z</time></trkpt><trkpt lat="37.9241349" lon="-2.9816559"><ele>882.0</ele><time>2026-04-13T07:52:34.664Z</time></trkpt><trkpt lat="37.9242814" lon="-2.9816118"><ele>884.25</ele><time>2026-04-13T07:52:35.664Z</time></trkpt><trkpt lat="37.9244338" lon="-2.98159"><ele>886.5</ele><time>2026-04-13T07:52:36.664Z</time></trkpt><trkpt lat="37.9245832" lon="-2.9815715"><ele>888.75</ele><time>2026-04-13T07:52:37.664Z</time></trkpt><trkpt lat="37.9247164" lon="-2.9815418"><ele>891.0</ele><time>2026-04-13T07:52:38.664Z</time></trkpt><trkpt lat="37.9248298" lon="-2.9814922"><ele>891.0</ele><time>2026-04-13T07:52:39.664Z</time></trkpt><trkpt lat="37.9249218" lon="-2.9814079"><ele>891.0</ele><time>2026-04-13T07:52:40.664Z</time></trkpt><trkpt lat="37.9249955" lon="-2.9813037"><ele>891.0</ele><time>2026-04-13T07:52:41.664Z</time></trkpt><trkpt lat="37.925043" lon="-2.981149"><ele>891.0</ele><time>2026-04-13T07:52:42.665Z</time></trkpt><trkpt lat="37.9250817" lon="-2.9809794"><ele>883.5</ele><time>2026-04-13T07:52:43.664Z</time></trkpt><trkpt lat="37.9251205" lon="-2.9808041"><ele>876.0</ele><time>2026-04-13T07:52:44.664Z</time></trkpt><trkpt lat="37.9251644" lon="-2.9806318"><ele>868.5</ele><time>2026-04-13T07:52:45.664Z</time></trkpt><trkpt lat="37.9252169" lon="-2.9804704"><ele>861.0</ele><time>2026-04-13T07:52:46.664Z</time></trkpt><trkpt lat="37.9252856" lon="-2.9803133"><ele>861.0</ele><time>2026-04-13T07:52:47.664Z</time></trkpt><trkpt lat="37.9253753" lon="-2.9801657"><ele>861.0</ele><time>2026-04-13T07:52:48.664Z</time></trkpt><trkpt lat="37.9254724" lon="-2.980019"><ele>861.0</ele><time>2026-04-13T07:52:49.664Z</time></trkpt><trkpt lat="37.9255607" lon="-2.9798587"><ele>866.0</ele><time>2026-04-13T07:52:50.664Z</time></trkpt><trkpt lat="37.9256497" lon="-2.9796952"><ele>871.0</ele><time>2026-04-13T07:52:51.664Z</time></trkpt><trkpt lat="37.9257406" lon="-2.9795351"><ele>876.0</ele><time>2026-04-13T07:52:52.664Z</time></trkpt><trkpt lat="37.9258308" lon="-2.9793743"><ele>873.25</ele><time>2026-04-13T07:52:53.664Z</time></trkpt><trkpt lat="37.9259191" lon="-2.9792232"><ele>870.5</ele><time>2026-04-13T07:52:54.664Z</time></trkpt><trkpt lat="37.9259961" lon="-2.9790802"><ele>867.75</ele><time>2026-04-13T07:52:55.664Z</time></trkpt><trkpt lat="37.9260654" lon="-2.9789486"><ele>865.0</ele><time>2026-04-13T07:52:56.664Z</time></trkpt><trkpt lat="37.9261217" lon="-2.9788197"><ele>865.0</ele><time>2026-04-13T07:52:57.664Z</time></trkpt><trkpt lat="37.9261597" lon="-2.9786909"><ele>865.0</ele><time>2026-04-13T07:52:58.664Z</time></trkpt><trkpt lat="37.9261785" lon="-2.9785595"><ele>865.0</ele><time>2026-04-13T07:52:59.664Z</time></trkpt><trkpt lat="37.9261647" lon="-2.9784257"><ele>865.0</ele><time>2026-04-13T07:53:00.664Z</time></trkpt><trkpt lat="37.9261271" lon="-2.9782988"><ele>865.0</ele><time>2026-04-13T07:53:01.664Z</time></trkpt><trkpt lat="37.9260695" lon="-2.9781737"><ele>865.75</ele><time>2026-04-13T07:53:02.664Z</time></trkpt><trkpt lat="37.9260139" lon="-2.9780417"><ele>866.5</ele><time>2026-04-13T07:53:03.664Z</time></trkpt><trkpt lat="37.9259716" lon="-2.9778984"><ele>867.25</ele><time>2026-04-13T07:53:04.664Z</time></trkpt><trkpt lat="37.9259425" lon="-2.9777415"><ele>868.0</ele><time>2026-04-13T07:53:05.664Z</time></trkpt><trkpt lat="37.925931" lon="-2.9775779"><ele>865.25</ele><time>2026-04-13T07:53:06.664Z</time></trkpt><trkpt lat="37.9259393" lon="-2.9774133"><ele>862.5</ele><time>2026-04-13T07:53:07.664Z</time></trkpt><trkpt lat="37.9259754" lon="-2.9772555"><ele>859.75</ele><time>2026-04-13T07:53:08.664Z</time></trkpt><trkpt lat="37.9260385" lon="-2.9771032"><ele>857.0</ele><time>2026-04-13T07:53:09.664Z</time></trkpt><trkpt lat="37.926115" lon="-2.9769591"><ele>857.0</ele><time>2026-04-13T07:53:10.664Z</time></trkpt><trkpt lat="37.9261933" lon="-2.976816"><ele>857.0</ele><time>2026-04-13T07:53:11.664Z</time></trkpt><trkpt lat="37.9262732" lon="-2.9766724"><ele>857.0</ele><time>2026-04-13T07:53:12.664Z</time></trkpt><trkpt lat="37.9263467" lon="-2.9765282"><ele>857.0</ele><time>2026-04-13T07:53:13.664Z</time></trkpt><trkpt lat="37.926406" lon="-2.976377"><ele>857.75</ele><time>2026-04-13T07:53:14.664Z</time></trkpt><trkpt lat="37.9264548" lon="-2.9762148"><ele>858.5</ele><time>2026-04-13T07:53:15.664Z</time></trkpt><trkpt lat="37.9264954" lon="-2.9760382"><ele>859.25</ele><time>2026-04-13T07:53:16.664Z</time></trkpt><trkpt lat="37.9265338" lon="-2.9758522"><ele>860.0</ele><time>2026-04-13T07:53:17.664Z</time></trkpt><trkpt lat="37.9265684" lon="-2.9756631"><ele>862.3333333333334</ele><time>2026-04-13T07:53:18.664Z</time></trkpt><trkpt lat="37.926602" lon="-2.975474"><ele>864.6666666666667</ele><time>2026-04-13T07:53:19.664Z</time></trkpt><trkpt lat="37.9266333" lon="-2.9752859"><ele>867.0</ele><time>2026-04-13T07:53:20.664Z</time></trkpt><trkpt lat="37.9266618" lon="-2.9750967"><ele>868.75</ele><time>2026-04-13T07:53:21.664Z</time></trkpt><trkpt lat="37.9266831" lon="-2.9749179"><ele>870.5</ele><time>2026-04-13T07:53:22.664Z</time></trkpt><trkpt lat="37.9267012" lon="-2.9747437"><ele>872.25</ele><time>2026-04-13T07:53:23.664Z</time></trkpt><trkpt lat="37.9267197" lon="-2.9745698"><ele>874.0</ele><time>2026-04-13T07:53:24.664Z</time></trkpt><trkpt lat="37.9267484" lon="-2.9743996"><ele>867.75</ele><time>2026-04-13T07:53:25.664Z</time></trkpt><trkpt lat="37.9267945" lon="-2.9742344"><ele>861.5</ele><time>2026-04-13T07:53:26.664Z</time></trkpt><trkpt lat="37.9268608" lon="-2.9740787"><ele>855.25</ele><time>2026-04-13T07:53:27.664Z</time></trkpt><trkpt lat="37.9269353" lon="-2.9739281"><ele>849.0</ele><time>2026-04-13T07:53:28.664Z</time></trkpt><trkpt lat="37.9270099" lon="-2.9737766"><ele>848.5</ele><time>2026-04-13T07:53:29.664Z</time></trkpt><trkpt lat="37.9270758" lon="-2.9736181"><ele>848.0</ele><time>2026-04-13T07:53:30.665Z</time></trkpt><trkpt lat="37.927135" lon="-2.9734503"><ele>847.5</ele><time>2026-04-13T07:53:31.664Z</time></trkpt><trkpt lat="37.9271904" lon="-2.9732758"><ele>847.0</ele><time>2026-04-13T07:53:32.664Z</time></trkpt><trkpt lat="37.9272349" lon="-2.9730917"><ele>847.0</ele><time>2026-04-13T07:53:33.664Z</time></trkpt><trkpt lat="37.9272778" lon="-2.972909"><ele>847.0</ele><time>2026-04-13T07:53:34.664Z</time></trkpt><trkpt lat="37.9273159" lon="-2.9727325"><ele>847.0</ele><time>2026-04-13T07:53:35.664Z</time></trkpt><trkpt lat="37.9273686" lon="-2.9725237"><ele>851.0</ele><time>2026-04-13T07:53:36.665Z</time></trkpt><trkpt lat="37.9274194" lon="-2.9723289"><ele>855.0</ele><time>2026-04-13T07:53:37.664Z</time></trkpt><trkpt lat="37.9274777" lon="-2.9721363"><ele>859.0</ele><time>2026-04-13T07:53:38.664Z</time></trkpt><trkpt lat="37.9275502" lon="-2.9719455"><ele>849.0</ele><time>2026-04-13T07:53:39.665Z</time></trkpt><trkpt lat="37.9276327" lon="-2.9717619"><ele>839.0</ele><time>2026-04-13T07:53:40.664Z</time></trkpt><trkpt lat="37.9277189" lon="-2.9715817"><ele>829.0</ele><time>2026-04-13T07:53:41.664Z</time></trkpt><trkpt lat="37.9278072" lon="-2.9714022"><ele>829.0</ele><time>2026-04-13T07:53:42.665Z</time></trkpt><trkpt lat="37.9278964" lon="-2.971235"><ele>829.0</ele><time>2026-04-13T07:53:43.664Z</time></trkpt><trkpt lat="37.9279933" lon="-2.9710915"><ele>829.0</ele><time>2026-04-13T07:53:44.664Z</time></trkpt><trkpt lat="37.9281004" lon="-2.9709598"><ele>831.0</ele><time>2026-04-13T07:53:45.664Z</time></trkpt><trkpt lat="37.9281911" lon="-2.9708395"><ele>833.0</ele><time>2026-04-13T07:53:46.665Z</time></trkpt><trkpt lat="37.9282592" lon="-2.9707194"><ele>835.0</ele><time>2026-04-13T07:53:47.664Z</time></trkpt><trkpt lat="37.9282842" lon="-2.9706186"><ele>837.0</ele><time>2026-04-13T07:53:48.664Z</time></trkpt><trkpt lat="37.928261" lon="-2.9704971"><ele>839.0</ele><time>2026-04-13T07:53:49.664Z</time></trkpt><trkpt lat="37.9282241" lon="-2.970377"><ele>839.0</ele><time>2026-04-13T07:53:50.664Z</time></trkpt><trkpt lat="37.928168" lon="-2.9702555"><ele>839.0</ele><time>2026-04-13T07:53:51.664Z</time></trkpt><trkpt lat="37.9281111" lon="-2.9701324"><ele>839.0</ele><time>2026-04-13T07:53:52.664Z</time></trkpt><trkpt lat="37.9280624" lon="-2.9700105"><ele>839.0</ele><time>2026-04-13T07:53:53.664Z</time></trkpt><trkpt lat="37.9280331" lon="-2.9698799"><ele>839.0</ele><time>2026-04-13T07:53:54.664Z</time></trkpt><trkpt lat="37.9280455" lon="-2.9697549"><ele>839.6</ele><time>2026-04-13T07:53:55.664Z</time></trkpt><trkpt lat="37.9280909" lon="-2.9696456"><ele>840.2</ele><time>2026-04-13T07:53:56.664Z</time></trkpt><trkpt lat="37.928149" lon="-2.9695679"><ele>840.8000000000001</ele><time>2026-04-13T07:53:57.664Z</time></trkpt><trkpt lat="37.9282286" lon="-2.9695087"><ele>841.4000000000001</ele><time>2026-04-13T07:53:58.664Z</time></trkpt><trkpt lat="37.9283198" lon="-2.9694835"><ele>842.0</ele><time>2026-04-13T07:53:59.664Z</time></trkpt><trkpt lat="37.9284346" lon="-2.969523"><ele>845.0</ele><time>2026-04-13T07:54:00.664Z</time></trkpt><trkpt lat="37.9285438" lon="-2.969565"><ele>848.0</ele><time>2026-04-13T07:54:01.664Z</time></trkpt><trkpt lat="37.928647" lon="-2.9696353"><ele>851.0</ele><time>2026-04-13T07:54:02.664Z</time></trkpt><trkpt lat="37.9287492" lon="-2.9697062"><ele>854.0</ele><time>2026-04-13T07:54:03.664Z</time></trkpt><trkpt lat="37.9288413" lon="-2.9698131"><ele>854.0</ele><time>2026-04-13T07:54:04.664Z</time></trkpt><trkpt lat="37.928926" lon="-2.9699187"><ele>854.0000000000001</ele><time>2026-04-13T07:54:05.664Z</time></trkpt><trkpt lat="37.9290122" lon="-2.9700078"><ele>854.0000000000001</ele><time>2026-04-13T07:54:06.664Z</time></trkpt><trkpt lat="37.9291201" lon="-2.9700487"><ele>854.0</ele><time>2026-04-13T07:54:07.664Z</time></trkpt><trkpt lat="37.9292215" lon="-2.9700475"><ele>854.0</ele><time>2026-04-13T07:54:08.664Z</time></trkpt><trkpt lat="37.9293418" lon="-2.9700178"><ele>857.25</ele><time>2026-04-13T07:54:09.664Z</time></trkpt><trkpt lat="37.929466" lon="-2.9699888"><ele>860.5</ele><time>2026-04-13T07:54:10.664Z</time></trkpt><trkpt lat="37.9295982" lon="-2.969983"><ele>863.75</ele><time>2026-04-13T07:54:11.664Z</time></trkpt><trkpt lat="37.9297372" lon="-2.9699973"><ele>867.0</ele><time>2026-04-13T07:54:12.664Z</time></trkpt><trkpt lat="37.9298738" lon="-2.970016"><ele>863.0</ele><time>2026-04-13T07:54:13.664Z</time></trkpt><trkpt lat="37.9300109" lon="-2.9700336"><ele>859.0</ele><time>2026-04-13T07:54:14.664Z</time></trkpt><trkpt lat="37.9301498" lon="-2.9700605"><ele>855.0</ele><time>2026-04-13T07:54:15.664Z</time></trkpt><trkpt lat="37.9302899" lon="-2.9701047"><ele>851.0</ele><time>2026-04-13T07:54:16.664Z</time></trkpt><trkpt lat="37.9304283" lon="-2.9701586"><ele>851.0</ele><time>2026-04-13T07:54:17.664Z</time></trkpt><trkpt lat="37.9305687" lon="-2.9702116"><ele>851.0</ele><time>2026-04-13T07:54:18.664Z</time></trkpt><trkpt lat="37.9307063" lon="-2.9702797"><ele>851.0</ele><time>2026-04-13T07:54:19.664Z</time></trkpt><trkpt lat="37.9308445" lon="-2.970358"><ele>851.0</ele><time>2026-04-13T07:54:20.664Z</time></trkpt><trkpt lat="37.9309802" lon="-2.9704424"><ele>854.0</ele><time>2026-04-13T07:54:21.664Z</time></trkpt><trkpt lat="37.931116" lon="-2.9705285"><ele>857.0</ele><time>2026-04-13T07:54:22.665Z</time></trkpt><trkpt lat="37.931251" lon="-2.9706126"><ele>860.0</ele><time>2026-04-13T07:54:23.664Z</time></trkpt><trkpt lat="37.9313847" lon="-2.9707003"><ele>860.0</ele><time>2026-04-13T07:54:24.665Z</time></trkpt><trkpt lat="37.9315226" lon="-2.9707879"><ele>860.0</ele><time>2026-04-13T07:54:25.664Z</time></trkpt><trkpt lat="37.93166" lon="-2.9708748"><ele>860.0</ele><time>2026-04-13T07:54:26.664Z</time></trkpt><trkpt lat="37.9317983" lon="-2.9709605"><ele>859.3333333333334</ele><time>2026-04-13T07:54:27.664Z</time></trkpt><trkpt lat="37.9319448" lon="-2.9710469"><ele>858.6666666666667</ele><time>2026-04-13T07:54:28.664Z</time></trkpt><trkpt lat="37.9320856" lon="-2.9711205"><ele>858.0</ele><time>2026-04-13T07:54:29.664Z</time></trkpt><trkpt lat="37.9322285" lon="-2.9711823"><ele>858.0</ele><time>2026-04-13T07:54:30.664Z</time></trkpt><trkpt lat="37.9323691" lon="-2.9712412"><ele>858.0</ele><time>2026-04-13T07:54:31.664Z</time></trkpt><trkpt lat="37.9325063" lon="-2.9713105"><ele>858.0</ele><time>2026-04-13T07:54:32.664Z</time></trkpt><trkpt lat="37.9326417" lon="-2.9713964"><ele>858.0</ele><time>2026-04-13T07:54:33.664Z</time></trkpt><trkpt lat="37.9327738" lon="-2.9715036"><ele>859.3333333333333</ele><time>2026-04-13T07:54:34.664Z</time></trkpt><trkpt lat="37.9329007" lon="-2.9716199"><ele>860.6666666666666</ele><time>2026-04-13T07:54:35.664Z</time></trkpt><trkpt lat="37.9330259" lon="-2.9717373"><ele>862.0</ele><time>2026-04-13T07:54:36.665Z</time></trkpt><trkpt lat="37.9331531" lon="-2.9718556"><ele>862.0</ele><time>2026-04-13T07:54:37.665Z</time></trkpt><trkpt lat="37.9332687" lon="-2.971973"><ele>862.0</ele><time>2026-04-13T07:54:38.664Z</time></trkpt><trkpt lat="37.9333679" lon="-2.9721072"><ele>862.0</ele><time>2026-04-13T07:54:39.664Z</time></trkpt><trkpt lat="37.9334546" lon="-2.9722571"><ele>862.0</ele><time>2026-04-13T07:54:40.664Z</time></trkpt><trkpt lat="37.9335181" lon="-2.9724208"><ele>860.5</ele><time>2026-04-13T07:54:41.664Z</time></trkpt><trkpt lat="37.9335659" lon="-2.9725963"><ele>859.0</ele><time>2026-04-13T07:54:42.664Z</time></trkpt><trkpt lat="37.9336051" lon="-2.972765"><ele>857.5</ele><time>2026-04-13T07:54:43.664Z</time></trkpt><trkpt lat="37.9336562" lon="-2.9729099"><ele>856.0</ele><time>2026-04-13T07:54:44.664Z</time></trkpt><trkpt lat="37.93373" lon="-2.9730025"><ele>856.0</ele><time>2026-04-13T07:54:45.664Z</time></trkpt><trkpt lat="37.9338216" lon="-2.973048"><ele>855.9999999999999</ele><time>2026-04-13T07:54:46.664Z</time></trkpt><trkpt lat="37.9339165" lon="-2.973034"><ele>855.9999999999999</ele><time>2026-04-13T07:54:47.664Z</time></trkpt><trkpt lat="37.9339824" lon="-2.9729566"><ele>856.0</ele><time>2026-04-13T07:54:48.664Z</time></trkpt><trkpt lat="37.9340379" lon="-2.9728609"><ele>856.0</ele><time>2026-04-13T07:54:49.665Z</time></trkpt><trkpt lat="37.9340497" lon="-2.9727673"><ele>856.0</ele><time>2026-04-13T07:54:50.665Z</time></trkpt><trkpt lat="37.9339905" lon="-2.9726266"><ele>856.0</ele><time>2026-04-13T07:54:51.664Z</time></trkpt><trkpt lat="37.9339351" lon="-2.9725019"><ele>856.0</ele><time>2026-04-13T07:54:52.664Z</time></trkpt><trkpt lat="37.9338693" lon="-2.9723773"><ele>856.0</ele><time>2026-04-13T07:54:53.664Z</time></trkpt><trkpt lat="37.9337962" lon="-2.9722534"><ele>857.0</ele><time>2026-04-13T07:54:54.664Z</time></trkpt><trkpt lat="37.9337272" lon="-2.9721337"><ele>858.0</ele><time>2026-04-13T07:54:55.665Z</time></trkpt><trkpt lat="37.9336643" lon="-2.9720106"><ele>859.0</ele><time>2026-04-13T07:54:56.664Z</time></trkpt><trkpt lat="37.9336158" lon="-2.9718829"><ele>860.0</ele><time>2026-04-13T07:54:57.665Z</time></trkpt><trkpt lat="37.9335835" lon="-2.9717513"><ele>860.0</ele><time>2026-04-13T07:54:58.664Z</time></trkpt><trkpt lat="37.9335731" lon="-2.9716119"><ele>860.0</ele><time>2026-04-13T07:54:59.664Z</time></trkpt><trkpt lat="37.933591" lon="-2.9714668"><ele>860.0</ele><time>2026-04-13T07:55:00.664Z</time></trkpt><trkpt lat="37.9336413" lon="-2.9713263"><ele>860.0</ele><time>2026-04-13T07:55:01.664Z</time></trkpt><trkpt lat="37.9337222" lon="-2.9711996"><ele>860.0</ele><time>2026-04-13T07:55:02.664Z</time></trkpt><trkpt lat="37.9338276" lon="-2.9710952"><ele>860.0</ele><time>2026-04-13T07:55:03.664Z</time></trkpt><trkpt lat="37.9339382" lon="-2.9710046"><ele>860.0</ele><time>2026-04-13T07:55:04.664Z</time></trkpt><trkpt lat="37.934079" lon="-2.9709303"><ele>860.0</ele><time>2026-04-13T07:55:05.664Z</time></trkpt><trkpt lat="37.9342224" lon="-2.9708715"><ele>865.0</ele><time>2026-04-13T07:55:06.664Z</time></trkpt><trkpt lat="37.9343672" lon="-2.9708166"><ele>870.0</ele><time>2026-04-13T07:55:07.664Z</time></trkpt><trkpt lat="37.9345202" lon="-2.9707764"><ele>875.0</ele><time>2026-04-13T07:55:08.664Z</time></trkpt><trkpt lat="37.9346748" lon="-2.970737"><ele>875.0</ele><time>2026-04-13T07:55:09.664Z</time></trkpt><trkpt lat="37.9348345" lon="-2.9706928"><ele>875.0</ele><time>2026-04-13T07:55:10.664Z</time></trkpt><trkpt lat="37.9349913" lon="-2.9706372"><ele>875.0</ele><time>2026-04-13T07:55:11.664Z</time></trkpt><trkpt lat="37.9351466" lon="-2.9705811"><ele>871.0</ele><time>2026-04-13T07:55:12.664Z</time></trkpt><trkpt lat="37.9353021" lon="-2.9705236"><ele>867.0</ele><time>2026-04-13T07:55:13.664Z</time></trkpt><trkpt lat="37.9354513" lon="-2.9704671"><ele>863.0</ele><time>2026-04-13T07:55:14.664Z</time></trkpt><trkpt lat="37.9356046" lon="-2.9704069"><ele>863.0</ele><time>2026-04-13T07:55:15.664Z</time></trkpt><trkpt lat="37.9357489" lon="-2.9703569"><ele>863.0</ele><time>2026-04-13T07:55:16.664Z</time></trkpt><trkpt lat="37.9359001" lon="-2.9703016"><ele>863.0</ele><time>2026-04-13T07:55:17.664Z</time></trkpt><trkpt lat="37.9360486" lon="-2.9702488"><ele>858.6666666666667</ele><time>2026-04-13T07:55:18.664Z</time></trkpt><trkpt lat="37.9361866" lon="-2.9701724"><ele>854.3333333333333</ele><time>2026-04-13T07:55:19.664Z</time></trkpt><trkpt lat="37.9363203" lon="-2.9700799"><ele>850.0</ele><time>2026-04-13T07:55:20.664Z</time></trkpt><trkpt lat="37.9364422" lon="-2.9699571"><ele>850.6666666666666</ele><time>2026-04-13T07:55:21.664Z</time></trkpt><trkpt lat="37.9365592" lon="-2.969823"><ele>851.3333333333333</ele><time>2026-04-13T07:55:22.664Z</time></trkpt><trkpt lat="37.9366706" lon="-2.9696766"><ele>852.0</ele><time>2026-04-13T07:55:23.664Z</time></trkpt><trkpt lat="37.9367761" lon="-2.9695237"><ele>852.0</ele><time>2026-04-13T07:55:24.664Z</time></trkpt><trkpt lat="37.9368812" lon="-2.969366"><ele>852.0</ele><time>2026-04-13T07:55:25.664Z</time></trkpt><trkpt lat="37.9369799" lon="-2.9692066"><ele>852.0</ele><time>2026-04-13T07:55:26.664Z</time></trkpt><trkpt lat="37.9370756" lon="-2.9690485"><ele>855.75</ele><time>2026-04-13T07:55:27.664Z</time></trkpt><trkpt lat="37.9371701" lon="-2.9688934"><ele>859.5</ele><time>2026-04-13T07:55:28.664Z</time></trkpt><trkpt lat="37.9372417" lon="-2.9687236"><ele>863.25</ele><time>2026-04-13T07:55:29.664Z</time></trkpt><trkpt lat="37.9372841" lon="-2.9685556"><ele>867.0</ele><time>2026-04-13T07:55:30.664Z</time></trkpt><trkpt lat="37.9373068" lon="-2.9683918"><ele>869.5</ele><time>2026-04-13T07:55:31.664Z</time></trkpt><trkpt lat="37.9373313" lon="-2.968246"><ele>872.0</ele><time>2026-04-13T07:55:32.664Z</time></trkpt><trkpt lat="37.9373741" lon="-2.968119"><ele>874.5</ele><time>2026-04-13T07:55:33.664Z</time></trkpt><trkpt lat="37.9374428" lon="-2.9680125"><ele>877.0</ele><time>2026-04-13T07:55:34.664Z</time></trkpt><trkpt lat="37.9375297" lon="-2.9679134"><ele>874.75</ele><time>2026-04-13T07:55:35.664Z</time></trkpt><trkpt lat="37.937622" lon="-2.9678091"><ele>872.5</ele><time>2026-04-13T07:55:36.664Z</time></trkpt><trkpt lat="37.9377164" lon="-2.9676958"><ele>870.25</ele><time>2026-04-13T07:55:37.664Z</time></trkpt><trkpt lat="37.9378119" lon="-2.9675824"><ele>868.0</ele><time>2026-04-13T07:55:38.664Z</time></trkpt><trkpt lat="37.9379012" lon="-2.9674595"><ele>868.0</ele><time>2026-04-13T07:55:39.665Z</time></trkpt><trkpt lat="37.9379785" lon="-2.9673238"><ele>868.0</ele><time>2026-04-13T07:55:40.664Z</time></trkpt><trkpt lat="37.9380407" lon="-2.9671714"><ele>868.0</ele><time>2026-04-13T07:55:41.664Z</time></trkpt><trkpt lat="37.9380771" lon="-2.9670036"><ele>868.0</ele><time>2026-04-13T07:55:42.664Z</time></trkpt><trkpt lat="37.9380961" lon="-2.9668325"><ele>871.25</ele><time>2026-04-13T07:55:43.664Z</time></trkpt><trkpt lat="37.9381133" lon="-2.9666594"><ele>874.5</ele><time>2026-04-13T07:55:44.664Z</time></trkpt><trkpt lat="37.9381347" lon="-2.9664834"><ele>877.75</ele><time>2026-04-13T07:55:45.665Z</time></trkpt><trkpt lat="37.9381704" lon="-2.9663168"><ele>881.0</ele><time>2026-04-13T07:55:46.664Z</time></trkpt><trkpt lat="37.9382147" lon="-2.9661597"><ele>881.0</ele><time>2026-04-13T07:55:47.664Z</time></trkpt><trkpt lat="37.938273" lon="-2.9660037"><ele>881.0</ele><time>2026-04-13T07:55:48.664Z</time></trkpt><trkpt lat="37.9383327" lon="-2.9658582"><ele>881.0</ele><time>2026-04-13T07:55:49.664Z</time></trkpt><trkpt lat="37.9383898" lon="-2.9657208"><ele>881.0</ele><time>2026-04-13T07:55:50.664Z</time></trkpt><trkpt lat="37.9384407" lon="-2.9655861"><ele>881.8</ele><time>2026-04-13T07:55:51.664Z</time></trkpt><trkpt lat="37.9384833" lon="-2.9654558"><ele>882.5999999999999</ele><time>2026-04-13T07:55:52.664Z</time></trkpt><trkpt lat="37.9385009" lon="-2.9653255"><ele>883.4</ele><time>2026-04-13T07:55:53.664Z</time></trkpt><trkpt lat="37.9384772" lon="-2.9651977"><ele>884.2</ele><time>2026-04-13T07:55:54.664Z</time></trkpt><trkpt lat="37.9384234" lon="-2.9650819"><ele>885.0</ele><time>2026-04-13T07:55:55.664Z</time></trkpt><trkpt lat="37.9383432" lon="-2.964982"><ele>885.0</ele><time>2026-04-13T07:55:56.664Z</time></trkpt><trkpt lat="37.9382643" lon="-2.9648934"><ele>885.0</ele><time>2026-04-13T07:55:57.664Z</time></trkpt><trkpt lat="37.9381572" lon="-2.9648009"><ele>885.0</ele><time>2026-04-13T07:55:58.664Z</time></trkpt><trkpt lat="37.9380557" lon="-2.9647104"><ele>885.0</ele><time>2026-04-13T07:55:59.664Z</time></trkpt><trkpt lat="37.937956" lon="-2.964609"><ele>885.0</ele><time>2026-04-13T07:56:00.664Z</time></trkpt><trkpt lat="37.937866" lon="-2.9644982"><ele>885.0</ele><time>2026-04-13T07:56:01.665Z</time></trkpt><trkpt lat="37.9377881" lon="-2.9643697"><ele>885.0</ele><time>2026-04-13T07:56:02.664Z</time></trkpt><trkpt lat="37.9377222" lon="-2.9642212"><ele>885.0</ele><time>2026-04-13T07:56:03.664Z</time></trkpt><trkpt lat="37.9376717" lon="-2.9640639"><ele>882.75</ele><time>2026-04-13T07:56:04.664Z</time></trkpt><trkpt lat="37.9376375" lon="-2.963896"><ele>880.5</ele><time>2026-04-13T07:56:05.664Z</time></trkpt><trkpt lat="37.9376169" lon="-2.963722"><ele>878.25</ele><time>2026-04-13T07:56:06.664Z</time></trkpt><trkpt lat="37.9376044" lon="-2.963543"><ele>876.0</ele><time>2026-04-13T07:56:07.664Z</time></trkpt><trkpt lat="37.9375976" lon="-2.9633623"><ele>875.25</ele><time>2026-04-13T07:56:08.664Z</time></trkpt><trkpt lat="37.9375996" lon="-2.9631792"><ele>874.5</ele><time>2026-04-13T07:56:09.664Z</time></trkpt><trkpt lat="37.9375962" lon="-2.9629969"><ele>873.75</ele><time>2026-04-13T07:56:10.664Z</time></trkpt><trkpt lat="37.9375846" lon="-2.9628167"><ele>873.0</ele><time>2026-04-13T07:56:11.664Z</time></trkpt><trkpt lat="37.937556" lon="-2.9626299"><ele>878.25</ele><time>2026-04-13T07:56:12.664Z</time></trkpt><trkpt lat="37.9375243" lon="-2.9624551"><ele>883.5</ele><time>2026-04-13T07:56:13.664Z</time></trkpt><trkpt lat="37.9374898" lon="-2.9622781"><ele>888.75</ele><time>2026-04-13T07:56:14.664Z</time></trkpt><trkpt lat="37.937451" lon="-2.9621017"><ele>894.0</ele><time>2026-04-13T07:56:15.664Z</time></trkpt><trkpt lat="37.9374121" lon="-2.9619263"><ele>894.0</ele><time>2026-04-13T07:56:16.664Z</time></trkpt><trkpt lat="37.9373794" lon="-2.9617497"><ele>894.0</ele><time>2026-04-13T07:56:17.664Z</time></trkpt><trkpt lat="37.9373563" lon="-2.9615668"><ele>894.0</ele><time>2026-04-13T07:56:18.664Z</time></trkpt><trkpt lat="37.937349" lon="-2.9613849"><ele>894.0</ele><time>2026-04-13T07:56:19.664Z</time></trkpt><trkpt lat="37.9373543" lon="-2.9612138"><ele>894.25</ele><time>2026-04-13T07:56:20.664Z</time></trkpt><trkpt lat="37.9373767" lon="-2.961055"><ele>894.5</ele><time>2026-04-13T07:56:21.664Z</time></trkpt><trkpt lat="37.9374231" lon="-2.9609085"><ele>894.75</ele><time>2026-04-13T07:56:22.664Z</time></trkpt><trkpt lat="37.9374802" lon="-2.9607802"><ele>895.0</ele><time>2026-04-13T07:56:23.664Z</time></trkpt><trkpt lat="37.9375418" lon="-2.9606502"><ele>887.75</ele><time>2026-04-13T07:56:24.664Z</time></trkpt><trkpt lat="37.9375901" lon="-2.9605156"><ele>880.5</ele><time>2026-04-13T07:56:25.664Z</time></trkpt><trkpt lat="37.9376265" lon="-2.9603724"><ele>873.25</ele><time>2026-04-13T07:56:26.664Z</time></trkpt><trkpt lat="37.9376481" lon="-2.9602168"><ele>866.0</ele><time>2026-04-13T07:56:27.664Z</time></trkpt><trkpt lat="37.9376634" lon="-2.9600538"><ele>866.25</ele><time>2026-04-13T07:56:28.664Z</time></trkpt><trkpt lat="37.9376797" lon="-2.9598924"><ele>866.5</ele><time>2026-04-13T07:56:29.664Z</time></trkpt><trkpt lat="37.937697" lon="-2.9597256"><ele>866.75</ele><time>2026-04-13T07:56:30.664Z</time></trkpt><trkpt lat="37.9377146" lon="-2.9595557"><ele>867.0</ele><time>2026-04-13T07:56:31.664Z</time></trkpt><trkpt lat="37.9377312" lon="-2.9593913"><ele>867.0</ele><time>2026-04-13T07:56:32.664Z</time></trkpt><trkpt lat="37.9377443" lon="-2.9592293"><ele>867.0</ele><time>2026-04-13T07:56:33.664Z</time></trkpt><trkpt lat="37.9377657" lon="-2.9590761"><ele>867.0</ele><time>2026-04-13T07:56:34.664Z</time></trkpt><trkpt lat="37.9378049" lon="-2.9589381"><ele>867.0</ele><time>2026-04-13T07:56:35.664Z</time></trkpt><trkpt lat="37.9378587" lon="-2.9588079"><ele>868.75</ele><time>2026-04-13T07:56:36.665Z</time></trkpt><trkpt lat="37.9379162" lon="-2.958684"><ele>870.5</ele><time>2026-04-13T07:56:37.664Z</time></trkpt><trkpt lat="37.9379739" lon="-2.9585557"><ele>872.25</ele><time>2026-04-13T07:56:38.664Z</time></trkpt><trkpt lat="37.9380228" lon="-2.9584164"><ele>874.0</ele><time>2026-04-13T07:56:39.664Z</time></trkpt><trkpt lat="37.9380544" lon="-2.9582761"><ele>876.6</ele><time>2026-04-13T07:56:40.664Z</time></trkpt><trkpt lat="37.9380648" lon="-2.9581304"><ele>879.2</ele><time>2026-04-13T07:56:41.664Z</time></trkpt><trkpt lat="37.9380469" lon="-2.9579896"><ele>881.8000000000001</ele><time>2026-04-13T07:56:42.664Z</time></trkpt><trkpt lat="37.9380113" lon="-2.957858"><ele>884.4000000000001</ele><time>2026-04-13T07:56:43.664Z</time></trkpt><trkpt lat="37.9379762" lon="-2.957736"><ele>887.0</ele><time>2026-04-13T07:56:44.664Z</time></trkpt><trkpt lat="37.9379559" lon="-2.9576116"><ele>889.8</ele><time>2026-04-13T07:56:45.664Z</time></trkpt><trkpt lat="37.9379581" lon="-2.9574895"><ele>892.6</ele><time>2026-04-13T07:56:46.664Z</time></trkpt><trkpt lat="37.937975" lon="-2.9573744"><ele>895.3999999999999</ele><time>2026-04-13T07:56:47.664Z</time></trkpt><trkpt lat="37.9379981" lon="-2.9572837"><ele>898.1999999999999</ele><time>2026-04-13T07:56:48.664Z</time></trkpt><trkpt lat="37.9380328" lon="-2.9571471"><ele>901.0</ele><time>2026-04-13T07:56:50.664Z</time></trkpt><trkpt lat="37.9380572" lon="-2.9570394"><ele>901.0</ele><time>2026-04-13T07:56:52.664Z</time></trkpt><trkpt lat="37.9380775" lon="-2.9569412"><ele>900.9999999999999</ele><time>2026-04-13T07:56:55.664Z</time></trkpt><trkpt lat="37.9381053" lon="-2.9568499"><ele>900.9999999999999</ele><time>2026-04-13T07:57:06.664Z</time></trkpt><trkpt lat="37.9381496" lon="-2.9566382"><ele>901.0</ele><time>2026-04-13T07:57:11.664Z</time></trkpt><trkpt lat="37.9381731" lon="-2.9565102"><ele>901.0</ele><time>2026-04-13T07:57:13.664Z</time></trkpt><trkpt lat="37.938206" lon="-2.9563622"><ele>902.5999999999999</ele><time>2026-04-13T07:57:15.664Z</time></trkpt><trkpt lat="37.9382327" lon="-2.9562816"><ele>904.1999999999999</ele><time>2026-04-13T07:57:16.664Z</time></trkpt><trkpt lat="37.9382667" lon="-2.9562025"><ele>905.8000000000001</ele><time>2026-04-13T07:57:17.664Z</time></trkpt><trkpt lat="37.938304" lon="-2.9561323"><ele>907.4000000000001</ele><time>2026-04-13T07:57:18.664Z</time></trkpt><trkpt lat="37.938393" lon="-2.9560286"><ele>909.0</ele><time>2026-04-13T07:57:20.664Z</time></trkpt><trkpt lat="37.9385133" lon="-2.9559554"><ele>909.0</ele><time>2026-04-13T07:57:22.664Z</time></trkpt><trkpt lat="37.9385863" lon="-2.9559224"><ele>909.0</ele><time>2026-04-13T07:57:23.664Z</time></trkpt><trkpt lat="37.9386614" lon="-2.9558941"><ele>909.0</ele><time>2026-04-13T07:57:24.664Z</time></trkpt><trkpt lat="37.9387421" lon="-2.9558746"><ele>909.0</ele><time>2026-04-13T07:57:25.664Z</time></trkpt><trkpt lat="37.9388254" lon="-2.9558635"><ele>909.0</ele><time>2026-04-13T07:57:26.664Z</time></trkpt><trkpt lat="37.9389097" lon="-2.9558652"><ele>909.0</ele><time>2026-04-13T07:57:27.664Z</time></trkpt><trkpt lat="37.9390019" lon="-2.9558923"><ele>909.0</ele><time>2026-04-13T07:57:28.664Z</time></trkpt><trkpt lat="37.9390882" lon="-2.9559425"><ele>909.0000000000001</ele><time>2026-04-13T07:57:29.665Z</time></trkpt><trkpt lat="37.9391717" lon="-2.9560049"><ele>909.0000000000001</ele><time>2026-04-13T07:57:30.664Z</time></trkpt><trkpt lat="37.9392537" lon="-2.9560657"><ele>909.0</ele><time>2026-04-13T07:57:31.664Z</time></trkpt><trkpt lat="37.9393407" lon="-2.9561278"><ele>909.0</ele><time>2026-04-13T07:57:32.664Z</time></trkpt><trkpt lat="37.9394273" lon="-2.9561822"><ele>909.8333333333334</ele><time>2026-04-13T07:57:33.664Z</time></trkpt><trkpt lat="37.9395145" lon="-2.9562326"><ele>910.6666666666667</ele><time>2026-04-13T07:57:34.664Z</time></trkpt><trkpt lat="37.9395983" lon="-2.9562698"><ele>911.5</ele><time>2026-04-13T07:57:35.664Z</time></trkpt><trkpt lat="37.939679" lon="-2.9562973"><ele>912.3333333333334</ele><time>2026-04-13T07:57:36.664Z</time></trkpt><trkpt lat="37.9397543" lon="-2.9563198"><ele>913.1666666666667</ele><time>2026-04-13T07:57:37.665Z</time></trkpt><trkpt lat="37.93982" lon="-2.9563353"><ele>914.0</ele><time>2026-04-13T07:57:38.664Z</time></trkpt><trkpt lat="37.939925" lon="-2.9563624"><ele>914.0</ele><time>2026-04-13T07:57:40.664Z</time></trkpt><trkpt lat="37.9400166" lon="-2.9563838"><ele>914.0000000000001</ele><time>2026-04-13T07:57:42.664Z</time></trkpt><trkpt lat="37.9401236" lon="-2.956393"><ele>914.0000000000001</ele><time>2026-04-13T07:57:44.665Z</time></trkpt><trkpt lat="37.9402566" lon="-2.9563974"><ele>914.0</ele><time>2026-04-13T07:57:46.664Z</time></trkpt><trkpt lat="37.9403279" lon="-2.9563976"><ele>914.0</ele><time>2026-04-13T07:57:47.665Z</time></trkpt><trkpt lat="37.9404049" lon="-2.9563956"><ele>913.2</ele><time>2026-04-13T07:57:48.664Z</time></trkpt><trkpt lat="37.9404836" lon="-2.9563892"><ele>912.4000000000001</ele><time>2026-04-13T07:57:49.664Z</time></trkpt><trkpt lat="37.9405602" lon="-2.956379"><ele>911.6</ele><time>2026-04-13T07:57:50.664Z</time></trkpt><trkpt lat="37.9406339" lon="-2.9563665"><ele>910.8</ele><time>2026-04-13T07:57:51.664Z</time></trkpt><trkpt lat="37.9407507" lon="-2.956351"><ele>910.0</ele><time>2026-04-13T07:57:53.664Z</time></trkpt><trkpt lat="37.9408798" lon="-2.9563311"><ele>908.2</ele><time>2026-04-13T07:57:55.664Z</time></trkpt><trkpt lat="37.940962" lon="-2.956315"><ele>906.4</ele><time>2026-04-13T07:57:56.664Z</time></trkpt><trkpt lat="37.9410454" lon="-2.956297"><ele>904.5999999999999</ele><time>2026-04-13T07:57:57.665Z</time></trkpt><trkpt lat="37.941136" lon="-2.9562754"><ele>902.8</ele><time>2026-04-13T07:57:58.664Z</time></trkpt><trkpt lat="37.9412352" lon="-2.9562457"><ele>901.0</ele><time>2026-04-13T07:57:59.664Z</time></trkpt><trkpt lat="37.9413381" lon="-2.9562082"><ele>901.0</ele><time>2026-04-13T07:58:00.664Z</time></trkpt><trkpt lat="37.9414465" lon="-2.9561679"><ele>901.0</ele><time>2026-04-13T07:58:01.664Z</time></trkpt><trkpt lat="37.9415626" lon="-2.9561245"><ele>901.0</ele><time>2026-04-13T07:58:02.664Z</time></trkpt><trkpt lat="37.941686" lon="-2.9560734"><ele>901.0</ele><time>2026-04-13T07:58:03.664Z</time></trkpt><trkpt lat="37.9418009" lon="-2.9560112"><ele>899.75</ele><time>2026-04-13T07:58:04.664Z</time></trkpt><trkpt lat="37.9419147" lon="-2.9559376"><ele>898.5</ele><time>2026-04-13T07:58:05.664Z</time></trkpt><trkpt lat="37.9420224" lon="-2.9558426"><ele>897.25</ele><time>2026-04-13T07:58:06.664Z</time></trkpt><trkpt lat="37.9421211" lon="-2.9557304"><ele>896.0</ele><time>2026-04-13T07:58:07.664Z</time></trkpt><trkpt lat="37.9422197" lon="-2.9556129"><ele>898.0</ele><time>2026-04-13T07:58:08.664Z</time></trkpt><trkpt lat="37.9423205" lon="-2.9554965"><ele>900.0</ele><time>2026-04-13T07:58:09.664Z</time></trkpt><trkpt lat="37.9424313" lon="-2.9553898"><ele>902.0</ele><time>2026-04-13T07:58:10.664Z</time></trkpt><trkpt lat="37.9425483" lon="-2.9552996"><ele>904.0</ele><time>2026-04-13T07:58:11.664Z</time></trkpt><trkpt lat="37.9426716" lon="-2.9552154"><ele>904.0</ele><time>2026-04-13T07:58:12.664Z</time></trkpt><trkpt lat="37.9427938" lon="-2.9551307"><ele>904.0</ele><time>2026-04-13T07:58:13.664Z</time></trkpt><trkpt lat="37.9429127" lon="-2.9550503"><ele>904.0</ele><time>2026-04-13T07:58:14.664Z</time></trkpt><trkpt lat="37.9430329" lon="-2.9549641"><ele>904.0</ele><time>2026-04-13T07:58:15.664Z</time></trkpt><trkpt lat="37.9431535" lon="-2.954882"><ele>905.75</ele><time>2026-04-13T07:58:16.664Z</time></trkpt><trkpt lat="37.9432736" lon="-2.9547931"><ele>907.5</ele><time>2026-04-13T07:58:17.664Z</time></trkpt><trkpt lat="37.9433944" lon="-2.9546937"><ele>909.25</ele><time>2026-04-13T07:58:18.664Z</time></trkpt><trkpt lat="37.9434901" lon="-2.9545951"><ele>911.0</ele><time>2026-04-13T07:58:19.664Z</time></trkpt><trkpt lat="37.9435806" lon="-2.9544803"><ele>911.0</ele><time>2026-04-13T07:58:20.664Z</time></trkpt><trkpt lat="37.9436644" lon="-2.9543625"><ele>911.0</ele><time>2026-04-13T07:58:21.664Z</time></trkpt><trkpt lat="37.9437519" lon="-2.9542487"><ele>911.0</ele><time>2026-04-13T07:58:22.664Z</time></trkpt><trkpt lat="37.9438531" lon="-2.9541347"><ele>911.0</ele><time>2026-04-13T07:58:23.664Z</time></trkpt><trkpt lat="37.943957" lon="-2.9540522"><ele>914.75</ele><time>2026-04-13T07:58:24.664Z</time></trkpt><trkpt lat="37.9440734" lon="-2.9539765"><ele>918.5</ele><time>2026-04-13T07:58:25.664Z</time></trkpt><trkpt lat="37.9441922" lon="-2.9539172"><ele>922.25</ele><time>2026-04-13T07:58:26.664Z</time></trkpt><trkpt lat="37.9443139" lon="-2.9538728"><ele>926.0</ele><time>2026-04-13T07:58:27.664Z</time></trkpt><trkpt lat="37.9444309" lon="-2.9538283"><ele>926.0</ele><time>2026-04-13T07:58:28.664Z</time></trkpt><trkpt lat="37.9445438" lon="-2.953782"><ele>925.9999999999999</ele><time>2026-04-13T07:58:29.664Z</time></trkpt><trkpt lat="37.9446559" lon="-2.9537343"><ele>925.9999999999999</ele><time>2026-04-13T07:58:30.664Z</time></trkpt><trkpt lat="37.9447492" lon="-2.9536812"><ele>926.0</ele><time>2026-04-13T07:58:31.664Z</time></trkpt><trkpt lat="37.9448389" lon="-2.9536215"><ele>926.0</ele><time>2026-04-13T07:58:32.664Z</time></trkpt><trkpt lat="37.9449128" lon="-2.9535627"><ele>926.0000000000001</ele><time>2026-04-13T07:58:33.664Z</time></trkpt><trkpt lat="37.9449755" lon="-2.9535039"><ele>926.0</ele><time>2026-04-13T07:58:34.664Z</time></trkpt><trkpt lat="37.9450277" lon="-2.9534543"><ele>926.0</ele><time>2026-04-13T07:58:35.664Z</time></trkpt><trkpt lat="37.9451078" lon="-2.9533771"><ele>926.0</ele><time>2026-04-13T07:58:37.664Z</time></trkpt><trkpt lat="37.9451826" lon="-2.9533147"><ele>926.0000000000001</ele><time>2026-04-13T07:58:39.664Z</time></trkpt><trkpt lat="37.9452608" lon="-2.9532587"><ele>926.0</ele><time>2026-04-13T07:58:41.664Z</time></trkpt><trkpt lat="37.9453399" lon="-2.9532013"><ele>928.5000000000001</ele><time>2026-04-13T07:58:43.664Z</time></trkpt><trkpt lat="37.9454433" lon="-2.9531276"><ele>931.0</ele><time>2026-04-13T07:58:45.664Z</time></trkpt><trkpt lat="37.9454937" lon="-2.9530793"><ele>933.5</ele><time>2026-04-13T07:58:46.664Z</time></trkpt><trkpt lat="37.9455456" lon="-2.9530234"><ele>936.0</ele><time>2026-04-13T07:58:47.664Z</time></trkpt><trkpt lat="37.9455924" lon="-2.9529573"><ele>938.5000000000001</ele><time>2026-04-13T07:58:48.664Z</time></trkpt><trkpt lat="37.9456373" lon="-2.9528839"><ele>941.0</ele><time>2026-04-13T07:58:49.664Z</time></trkpt><trkpt lat="37.9456811" lon="-2.9528089"><ele>941.0</ele><time>2026-04-13T07:58:50.664Z</time></trkpt><trkpt lat="37.9457229" lon="-2.9527317"><ele>940.9999999999999</ele><time>2026-04-13T07:58:51.664Z</time></trkpt><trkpt lat="37.9457626" lon="-2.9526579"><ele>940.9999999999999</ele><time>2026-04-13T07:58:52.664Z</time></trkpt><trkpt lat="37.9458367" lon="-2.9525426"><ele>941.0</ele><time>2026-04-13T07:58:54.664Z</time></trkpt><trkpt lat="37.9459128" lon="-2.9524612"><ele>941.0</ele><time>2026-04-13T07:58:56.664Z</time></trkpt><trkpt lat="37.9460307" lon="-2.9523947"><ele>942.0000000000001</ele><time>2026-04-13T07:58:58.664Z</time></trkpt><trkpt lat="37.9461001" lon="-2.9523669"><ele>943.0</ele><time>2026-04-13T07:58:59.664Z</time></trkpt><trkpt lat="37.9461736" lon="-2.9523391"><ele>944.0</ele><time>2026-04-13T07:59:00.664Z</time></trkpt><trkpt lat="37.9462439" lon="-2.9523132"><ele>945.0</ele><time>2026-04-13T07:59:01.664Z</time></trkpt><trkpt lat="37.9463176" lon="-2.9522818"><ele>946.0000000000001</ele><time>2026-04-13T07:59:02.664Z</time></trkpt><trkpt lat="37.9464174" lon="-2.9522427"><ele>947.0</ele><time>2026-04-13T07:59:04.664Z</time></trkpt><trkpt lat="37.9464813" lon="-2.9521977"><ele>947.0000000000001</ele><time>2026-04-13T07:59:06.664Z</time></trkpt><trkpt lat="37.9465681" lon="-2.9521296"><ele>947.0</ele><time>2026-04-13T07:59:08.664Z</time></trkpt><trkpt lat="37.9466285" lon="-2.9520731"><ele>947.0</ele><time>2026-04-13T07:59:09.664Z</time></trkpt><trkpt lat="37.9466791" lon="-2.9520212"><ele>947.0</ele><time>2026-04-13T07:59:10.665Z</time></trkpt><trkpt lat="37.9467643" lon="-2.9519036"><ele>947.0000000000001</ele><time>2026-04-13T07:59:12.664Z</time></trkpt><trkpt lat="37.9468036" lon="-2.9518393"><ele>947.0</ele><time>2026-04-13T07:59:13.664Z</time></trkpt><trkpt lat="37.9468402" lon="-2.9517719"><ele>947.1428571428571</ele><time>2026-04-13T07:59:14.664Z</time></trkpt><trkpt lat="37.9468756" lon="-2.9516967"><ele>947.2857142857142</ele><time>2026-04-13T07:59:15.664Z</time></trkpt><trkpt lat="37.9469121" lon="-2.9516197"><ele>947.4285714285713</ele><time>2026-04-13T07:59:16.664Z</time></trkpt><trkpt lat="37.9469496" lon="-2.9515381"><ele>947.5714285714284</ele><time>2026-04-13T07:59:17.664Z</time></trkpt><trkpt lat="37.9469878" lon="-2.9514588"><ele>947.7142857142857</ele><time>2026-04-13T07:59:18.664Z</time></trkpt><trkpt lat="37.9470221" lon="-2.9513826"><ele>947.8571428571427</ele><time>2026-04-13T07:59:19.664Z</time></trkpt><trkpt lat="37.9470563" lon="-2.9513136"><ele>947.9999999999999</ele><time>2026-04-13T07:59:20.665Z</time></trkpt><trkpt lat="37.9471141" lon="-2.9511937"><ele>948.0</ele><time>2026-04-13T07:59:22.664Z</time></trkpt><trkpt lat="37.9471452" lon="-2.9511239"><ele>948.0</ele><time>2026-04-13T07:59:23.664Z</time></trkpt><trkpt lat="37.9471799" lon="-2.9510485"><ele>948.0</ele><time>2026-04-13T07:59:24.664Z</time></trkpt><trkpt lat="37.9472167" lon="-2.9509703"><ele>948.0</ele><time>2026-04-13T07:59:25.664Z</time></trkpt><trkpt lat="37.9472495" lon="-2.9508811"><ele>948.0</ele><time>2026-04-13T07:59:26.664Z</time></trkpt><trkpt lat="37.9472766" lon="-2.9507811"><ele>948.0</ele><time>2026-04-13T07:59:27.664Z</time></trkpt><trkpt lat="37.9472977" lon="-2.9506728"><ele>949.2</ele><time>2026-04-13T07:59:28.664Z</time></trkpt><trkpt lat="37.9473171" lon="-2.9505669"><ele>950.4</ele><time>2026-04-13T07:59:29.664Z</time></trkpt><trkpt lat="37.9473453" lon="-2.9504545"><ele>951.6000000000001</ele><time>2026-04-13T07:59:30.664Z</time></trkpt><trkpt lat="37.9473792" lon="-2.9503432"><ele>952.8000000000001</ele><time>2026-04-13T07:59:31.664Z</time></trkpt><trkpt lat="37.9474217" lon="-2.95023"><ele>954.0</ele><time>2026-04-13T07:59:32.664Z</time></trkpt><trkpt lat="37.9474781" lon="-2.9501215"><ele>954.2</ele><time>2026-04-13T07:59:33.664Z</time></trkpt><trkpt lat="37.947552" lon="-2.9500256"><ele>954.4000000000001</ele><time>2026-04-13T07:59:34.664Z</time></trkpt><trkpt lat="37.9476345" lon="-2.9499346"><ele>954.6</ele><time>2026-04-13T07:59:35.664Z</time></trkpt><trkpt lat="37.9477179" lon="-2.9498416"><ele>954.8</ele><time>2026-04-13T07:59:36.664Z</time></trkpt><trkpt lat="37.9477992" lon="-2.9497552"><ele>955.0</ele><time>2026-04-13T07:59:37.664Z</time></trkpt><trkpt lat="37.9478805" lon="-2.9496613"><ele>955.0</ele><time>2026-04-13T07:59:38.664Z</time></trkpt><trkpt lat="37.9479583" lon="-2.9495656"><ele>955.0</ele><time>2026-04-13T07:59:39.664Z</time></trkpt><trkpt lat="37.9480312" lon="-2.9494819"><ele>955.0</ele><time>2026-04-13T07:59:40.664Z</time></trkpt><trkpt lat="37.9481025" lon="-2.9493979"><ele>955.0</ele><time>2026-04-13T07:59:41.664Z</time></trkpt><trkpt lat="37.9481782" lon="-2.9493101"><ele>955.0</ele><time>2026-04-13T07:59:42.664Z</time></trkpt><trkpt lat="37.9482529" lon="-2.949225"><ele>954.6</ele><time>2026-04-13T07:59:43.664Z</time></trkpt><trkpt lat="37.9483288" lon="-2.9491359"><ele>954.2</ele><time>2026-04-13T07:59:44.664Z</time></trkpt><trkpt lat="37.9484011" lon="-2.9490499"><ele>953.8</ele><time>2026-04-13T07:59:45.664Z</time></trkpt><trkpt lat="37.9484709" lon="-2.9489487"><ele>953.4</ele><time>2026-04-13T07:59:46.664Z</time></trkpt><trkpt lat="37.9485355" lon="-2.9488403"><ele>953.0</ele><time>2026-04-13T07:59:47.664Z</time></trkpt><trkpt lat="37.9485977" lon="-2.9487315"><ele>953.0</ele><time>2026-04-13T07:59:48.664Z</time></trkpt><trkpt lat="37.9486528" lon="-2.9486255"><ele>953.0</ele><time>2026-04-13T07:59:49.665Z</time></trkpt><trkpt lat="37.9487086" lon="-2.9484927"><ele>953.0</ele><time>2026-04-13T07:59:51.679Z</time></trkpt><trkpt lat="37.9487444" lon="-2.9484115"><ele>953.0</ele><time>2026-04-13T07:59:52.668Z</time></trkpt><trkpt lat="37.9487755" lon="-2.9483315"><ele>953.0</ele><time>2026-04-13T07:59:54.662Z</time></trkpt><trkpt lat="37.9488194" lon="-2.9482227"><ele>955.0000000000001</ele><time>2026-04-13T07:59:56.672Z</time></trkpt><trkpt lat="37.9488499" lon="-2.9481429"><ele>957.0</ele><time>2026-04-13T07:59:57.659Z</time></trkpt><trkpt lat="37.948889" lon="-2.9480629"><ele>959.0</ele><time>2026-04-13T07:59:58.66Z</time></trkpt><trkpt lat="37.9489295" lon="-2.9479802"><ele>961.0</ele><time>2026-04-13T07:59:59.659Z</time></trkpt><trkpt lat="37.9489792" lon="-2.9479016"><ele>963.0000000000001</ele><time>2026-04-13T08:00:00.659Z</time></trkpt><trkpt lat="37.9490317" lon="-2.947829"><ele>965.0</ele><time>2026-04-13T08:00:01.659Z</time></trkpt><trkpt lat="37.9491009" lon="-2.9477672"><ele>965.0000000000001</ele><time>2026-04-13T08:00:02.66Z</time></trkpt><trkpt lat="37.9491706" lon="-2.9477107"><ele>965.0</ele><time>2026-04-13T08:00:03.659Z</time></trkpt><trkpt lat="37.9492412" lon="-2.9476607"><ele>965.0</ele><time>2026-04-13T08:00:04.659Z</time></trkpt><trkpt lat="37.9493166" lon="-2.9476076"><ele>965.0</ele><time>2026-04-13T08:00:05.659Z</time></trkpt><trkpt lat="37.9493965" lon="-2.9475629"><ele>965.0000000000001</ele><time>2026-04-13T08:00:06.659Z</time></trkpt><trkpt lat="37.9494687" lon="-2.947496"><ele>965.0</ele><time>2026-04-13T08:00:07.659Z</time></trkpt><trkpt lat="37.9495416" lon="-2.9474384"><ele>968.8</ele><time>2026-04-13T08:00:08.659Z</time></trkpt><trkpt lat="37.949624" lon="-2.9473887"><ele>972.6</ele><time>2026-04-13T08:00:09.659Z</time></trkpt><trkpt lat="37.9497114" lon="-2.9473678"><ele>976.4000000000001</ele><time>2026-04-13T08:00:10.659Z</time></trkpt><trkpt lat="37.9497982" lon="-2.9473816"><ele>980.2</ele><time>2026-04-13T08:00:11.659Z</time></trkpt><trkpt lat="37.9498805" lon="-2.9473975"><ele>984.0</ele><time>2026-04-13T08:00:12.659Z</time></trkpt><trkpt lat="37.9499687" lon="-2.9474767"><ele>983.2</ele><time>2026-04-13T08:00:13.659Z</time></trkpt><trkpt lat="37.9500541" lon="-2.9475395"><ele>982.4000000000001</ele><time>2026-04-13T08:00:14.66Z</time></trkpt><trkpt lat="37.9501491" lon="-2.9476042"><ele>981.6</ele><time>2026-04-13T08:00:15.659Z</time></trkpt><trkpt lat="37.9502378" lon="-2.947675"><ele>980.8</ele><time>2026-04-13T08:00:16.659Z</time></trkpt><trkpt lat="37.9503364" lon="-2.9477365"><ele>980.0</ele><time>2026-04-13T08:00:17.659Z</time></trkpt><trkpt lat="37.9504379" lon="-2.9477973"><ele>980.0</ele><time>2026-04-13T08:00:18.659Z</time></trkpt><trkpt lat="37.9505424" lon="-2.9478611"><ele>980.0</ele><time>2026-04-13T08:00:19.659Z</time></trkpt><trkpt lat="37.9506426" lon="-2.9479368"><ele>980.0</ele><time>2026-04-13T08:00:20.659Z</time></trkpt><trkpt lat="37.9507402" lon="-2.948008"><ele>980.0</ele><time>2026-04-13T08:00:21.659Z</time></trkpt><trkpt lat="37.9508232" lon="-2.9480902"><ele>983.8</ele><time>2026-04-13T08:00:22.659Z</time></trkpt><trkpt lat="37.9509143" lon="-2.9481636"><ele>987.6</ele><time>2026-04-13T08:00:23.659Z</time></trkpt><trkpt lat="37.9510188" lon="-2.9482085"><ele>991.4000000000001</ele><time>2026-04-13T08:00:24.659Z</time></trkpt><trkpt lat="37.9511247" lon="-2.9482445"><ele>995.2</ele><time>2026-04-13T08:00:25.659Z</time></trkpt><trkpt lat="37.9512362" lon="-2.9482784"><ele>999.0</ele><time>2026-04-13T08:00:26.659Z</time></trkpt><trkpt lat="37.9513521" lon="-2.9482952"><ele>999.0</ele><time>2026-04-13T08:00:27.659Z</time></trkpt><trkpt lat="37.9514679" lon="-2.9483122"><ele>999.0</ele><time>2026-04-13T08:00:28.659Z</time></trkpt><trkpt lat="37.9515832" lon="-2.9483385"><ele>999.0</ele><time>2026-04-13T08:00:29.659Z</time></trkpt><trkpt lat="37.9516989" lon="-2.9483729"><ele>999.0</ele><time>2026-04-13T08:00:30.659Z</time></trkpt><trkpt lat="37.9518128" lon="-2.9484195"><ele>995.5</ele><time>2026-04-13T08:00:31.659Z</time></trkpt><trkpt lat="37.9519237" lon="-2.9484745"><ele>992.0</ele><time>2026-04-13T08:00:32.659Z</time></trkpt><trkpt lat="37.9520297" lon="-2.948537"><ele>988.5</ele><time>2026-04-13T08:00:33.659Z</time></trkpt><trkpt lat="37.9521298" lon="-2.9485974"><ele>985.0</ele><time>2026-04-13T08:00:34.659Z</time></trkpt><trkpt lat="37.9522334" lon="-2.9486705"><ele>985.0</ele><time>2026-04-13T08:00:35.659Z</time></trkpt><trkpt lat="37.9523332" lon="-2.9487323"><ele>985.0</ele><time>2026-04-13T08:00:36.659Z</time></trkpt><trkpt lat="37.9524325" lon="-2.9487976"><ele>985.0</ele><time>2026-04-13T08:00:37.659Z</time></trkpt><trkpt lat="37.9525338" lon="-2.94886"><ele>985.0</ele><time>2026-04-13T08:00:38.659Z</time></trkpt><trkpt lat="37.9526326" lon="-2.948919"><ele>985.0</ele><time>2026-04-13T08:00:39.659Z</time></trkpt><trkpt lat="37.9527327" lon="-2.9489689"><ele>987.4</ele><time>2026-04-13T08:00:40.659Z</time></trkpt><trkpt lat="37.9528401" lon="-2.9489909"><ele>989.8</ele><time>2026-04-13T08:00:41.659Z</time></trkpt><trkpt lat="37.952949" lon="-2.9489958"><ele>992.2</ele><time>2026-04-13T08:00:42.659Z</time></trkpt><trkpt lat="37.9530597" lon="-2.9489915"><ele>994.6</ele><time>2026-04-13T08:00:43.659Z</time></trkpt><trkpt lat="37.953162" lon="-2.948995"><ele>997.0</ele><time>2026-04-13T08:00:44.659Z</time></trkpt><trkpt lat="37.9532657" lon="-2.9489743"><ele>997.0</ele><time>2026-04-13T08:00:45.659Z</time></trkpt><trkpt lat="37.9533706" lon="-2.9489516"><ele>997.0</ele><time>2026-04-13T08:00:46.659Z</time></trkpt><trkpt lat="37.9534779" lon="-2.9489307"><ele>997.0</ele><time>2026-04-13T08:00:47.659Z</time></trkpt><trkpt lat="37.9535892" lon="-2.948907"><ele>997.0</ele><time>2026-04-13T08:00:48.659Z</time></trkpt><trkpt lat="37.953699" lon="-2.9488854"><ele>997.0</ele><time>2026-04-13T08:00:49.659Z</time></trkpt><trkpt lat="37.9538119" lon="-2.9488624"><ele>999.5</ele><time>2026-04-13T08:00:50.659Z</time></trkpt><trkpt lat="37.9539259" lon="-2.9488467"><ele>1002.0</ele><time>2026-04-13T08:00:51.659Z</time></trkpt><trkpt lat="37.9540421" lon="-2.9488494"><ele>1004.5</ele><time>2026-04-13T08:00:52.659Z</time></trkpt><trkpt lat="37.9541489" lon="-2.9488525"><ele>1007.0</ele><time>2026-04-13T08:00:53.659Z</time></trkpt><trkpt lat="37.9542658" lon="-2.9488915"><ele>1011.0</ele><time>2026-04-13T08:00:54.659Z</time></trkpt><trkpt lat="37.9543854" lon="-2.9489385"><ele>1015.0</ele><time>2026-04-13T08:00:55.659Z</time></trkpt><trkpt lat="37.9545067" lon="-2.9489772"><ele>1019.0</ele><time>2026-04-13T08:00:56.659Z</time></trkpt><trkpt lat="37.9546265" lon="-2.9490191"><ele>1023.0</ele><time>2026-04-13T08:00:57.659Z</time></trkpt><trkpt lat="37.9547457" lon="-2.9490573"><ele>1023.0</ele><time>2026-04-13T08:00:58.659Z</time></trkpt><trkpt lat="37.954865" lon="-2.9490954"><ele>1023.0</ele><time>2026-04-13T08:00:59.659Z</time></trkpt><trkpt lat="37.9549844" lon="-2.9491339"><ele>1023.0</ele><time>2026-04-13T08:01:00.659Z</time></trkpt><trkpt lat="37.9550988" lon="-2.9491726"><ele>1023.0</ele><time>2026-04-13T08:01:01.659Z</time></trkpt><trkpt lat="37.9552124" lon="-2.9492083"><ele>1016.8</ele><time>2026-04-13T08:01:02.659Z</time></trkpt><trkpt lat="37.9553178" lon="-2.9492499"><ele>1010.5999999999999</ele><time>2026-04-13T08:01:03.659Z</time></trkpt><trkpt lat="37.9554185" lon="-2.9492969"><ele>1004.4000000000001</ele><time>2026-04-13T08:01:04.659Z</time></trkpt><trkpt lat="37.9555115" lon="-2.9493431"><ele>998.2</ele><time>2026-04-13T08:01:05.659Z</time></trkpt><trkpt lat="37.9555937" lon="-2.9493854"><ele>992.0</ele><time>2026-04-13T08:01:06.659Z</time></trkpt><trkpt lat="37.9556642" lon="-2.949411"><ele>992.0</ele><time>2026-04-13T08:01:07.659Z</time></trkpt><trkpt lat="37.9557516" lon="-2.9493693"><ele>992.0</ele><time>2026-04-13T08:01:09.659Z</time></trkpt><trkpt lat="37.9557156" lon="-2.9492572"><ele>992.0</ele><time>2026-04-13T08:01:11.659Z</time></trkpt><trkpt lat="37.955589" lon="-2.9492252"><ele>992.0</ele><time>2026-04-13T08:01:13.659Z</time></trkpt><trkpt lat="37.9555133" lon="-2.9492083"><ele>992.0</ele><time>2026-04-13T08:01:14.659Z</time></trkpt><trkpt lat="37.9554464" lon="-2.9491836"><ele>997.1666666666667</ele><time>2026-04-13T08:01:15.659Z</time></trkpt><trkpt lat="37.9553765" lon="-2.9491534"><ele>1002.3333333333334</ele><time>2026-04-13T08:01:16.659Z</time></trkpt><trkpt lat="37.9553075" lon="-2.9491291"><ele>1007.5</ele><time>2026-04-13T08:01:17.659Z</time></trkpt><trkpt lat="37.9552344" lon="-2.9491053"><ele>1012.6666666666667</ele><time>2026-04-13T08:01:18.659Z</time></trkpt><trkpt lat="37.9551532" lon="-2.9490706"><ele>1017.8333333333334</ele><time>2026-04-13T08:01:19.659Z</time></trkpt><trkpt lat="37.955066" lon="-2.9490216"><ele>1023.0</ele><time>2026-04-13T08:01:20.659Z</time></trkpt><trkpt lat="37.95498" lon="-2.9489677"><ele>1023.0</ele><time>2026-04-13T08:01:21.659Z</time></trkpt><trkpt lat="37.9548882" lon="-2.9489118"><ele>1023.0</ele><time>2026-04-13T08:01:22.659Z</time></trkpt><trkpt lat="37.9547919" lon="-2.9488572"><ele>1023.0</ele><time>2026-04-13T08:01:23.659Z</time></trkpt><trkpt lat="37.9546991" lon="-2.9488011"><ele>1023.0</ele><time>2026-04-13T08:01:24.659Z</time></trkpt><trkpt lat="37.9546053" lon="-2.9487424"><ele>1023.0</ele><time>2026-04-13T08:01:25.659Z</time></trkpt><trkpt lat="37.9545051" lon="-2.9486836"><ele>1023.0</ele><time>2026-04-13T08:01:26.659Z</time></trkpt><trkpt lat="37.9544076" lon="-2.9486225"><ele>1023.0</ele><time>2026-04-13T08:01:27.659Z</time></trkpt><trkpt lat="37.9543079" lon="-2.9485695"><ele>1023.0</ele><time>2026-04-13T08:01:28.659Z</time></trkpt><trkpt lat="37.9542067" lon="-2.9485232"><ele>1023.0</ele><time>2026-04-13T08:01:29.659Z</time></trkpt><trkpt lat="37.9541083" lon="-2.9484834"><ele>1023.0</ele><time>2026-04-13T08:01:30.659Z</time></trkpt><trkpt lat="37.9540077" lon="-2.948453"><ele>1019.8</ele><time>2026-04-13T08:01:31.659Z</time></trkpt><trkpt lat="37.9539041" lon="-2.9484323"><ele>1016.5999999999999</ele><time>2026-04-13T08:01:32.659Z</time></trkpt><trkpt lat="37.9538002" lon="-2.9484173"><ele>1013.4000000000001</ele><time>2026-04-13T08:01:33.659Z</time></trkpt><trkpt lat="37.953692" lon="-2.9484101"><ele>1010.2</ele><time>2026-04-13T08:01:34.659Z</time></trkpt><trkpt lat="37.9535856" lon="-2.9484013"><ele>1007.0</ele><time>2026-04-13T08:01:35.659Z</time></trkpt><trkpt lat="37.9534792" lon="-2.948398"><ele>1005.0</ele><time>2026-04-13T08:01:36.659Z</time></trkpt><trkpt lat="37.953372" lon="-2.9484026"><ele>1003.0</ele><time>2026-04-13T08:01:37.659Z</time></trkpt><trkpt lat="37.9532713" lon="-2.9483891"><ele>1001.0</ele><time>2026-04-13T08:01:38.66Z</time></trkpt><trkpt lat="37.9531634" lon="-2.948367"><ele>999.0</ele><time>2026-04-13T08:01:39.659Z</time></trkpt><trkpt lat="37.9530642" lon="-2.9483344"><ele>997.0</ele><time>2026-04-13T08:01:40.659Z</time></trkpt><trkpt lat="37.9529593" lon="-2.948288"><ele>1002.4000000000001</ele><time>2026-04-13T08:01:41.66Z</time></trkpt><trkpt lat="37.9528623" lon="-2.9482389"><ele>1007.8000000000001</ele><time>2026-04-13T08:01:42.659Z</time></trkpt><trkpt lat="37.9527739" lon="-2.9481509"><ele>1013.2</ele><time>2026-04-13T08:01:43.659Z</time></trkpt><trkpt lat="37.9526837" lon="-2.9480647"><ele>1018.6</ele><time>2026-04-13T08:01:44.659Z</time></trkpt><trkpt lat="37.9525916" lon="-2.9479704"><ele>1024.0</ele><time>2026-04-13T08:01:45.659Z</time></trkpt><trkpt lat="37.952501" lon="-2.9478737"><ele>1024.0</ele><time>2026-04-13T08:01:46.659Z</time></trkpt><trkpt lat="37.9524117" lon="-2.9477751"><ele>1024.0</ele><time>2026-04-13T08:01:47.659Z</time></trkpt><trkpt lat="37.9523227" lon="-2.9476741"><ele>1024.0</ele><time>2026-04-13T08:01:48.659Z</time></trkpt><trkpt lat="37.9522319" lon="-2.9475806"><ele>1024.0</ele><time>2026-04-13T08:01:49.66Z</time></trkpt><trkpt lat="37.9521325" lon="-2.9474928"><ele>1032.75</ele><time>2026-04-13T08:01:50.659Z</time></trkpt><trkpt lat="37.952028" lon="-2.9474091"><ele>1041.5</ele><time>2026-04-13T08:01:51.659Z</time></trkpt><trkpt lat="37.9519222" lon="-2.9473243"><ele>1050.25</ele><time>2026-04-13T08:01:52.659Z</time></trkpt><trkpt lat="37.951819" lon="-2.9472363"><ele>1059.0</ele><time>2026-04-13T08:01:53.659Z</time></trkpt><trkpt lat="37.951715" lon="-2.9471506"><ele>1053.0</ele><time>2026-04-13T08:01:54.66Z</time></trkpt><trkpt lat="37.9516146" lon="-2.9470641"><ele>1047.0</ele><time>2026-04-13T08:01:55.66Z</time></trkpt><trkpt lat="37.9515161" lon="-2.9469776"><ele>1041.0</ele><time>2026-04-13T08:01:56.659Z</time></trkpt><trkpt lat="37.9514243" lon="-2.9468948"><ele>1035.0</ele><time>2026-04-13T08:01:57.659Z</time></trkpt><trkpt lat="37.9513424" lon="-2.9468212"><ele>1035.0</ele><time>2026-04-13T08:01:58.659Z</time></trkpt><trkpt lat="37.951265" lon="-2.9467446"><ele>1035.0</ele><time>2026-04-13T08:01:59.659Z</time></trkpt><trkpt lat="37.9511938" lon="-2.946667"><ele>1035.0</ele><time>2026-04-13T08:02:00.659Z</time></trkpt><trkpt lat="37.9511179" lon="-2.9465967"><ele>1035.0</ele><time>2026-04-13T08:02:01.659Z</time></trkpt><trkpt lat="37.951037" lon="-2.9465398"><ele>1035.0</ele><time>2026-04-13T08:02:02.659Z</time></trkpt><trkpt lat="37.9509576" lon="-2.9464898"><ele>1036.1666666666667</ele><time>2026-04-13T08:02:03.659Z</time></trkpt><trkpt lat="37.9508838" lon="-2.9464268"><ele>1037.3333333333333</ele><time>2026-04-13T08:02:04.659Z</time></trkpt><trkpt lat="37.9508211" lon="-2.9463454"><ele>1038.5</ele><time>2026-04-13T08:02:05.659Z</time></trkpt><trkpt lat="37.9507672" lon="-2.9462566"><ele>1039.6666666666665</ele><time>2026-04-13T08:02:06.659Z</time></trkpt><trkpt lat="37.9507245" lon="-2.9461633"><ele>1040.8333333333333</ele><time>2026-04-13T08:02:07.659Z</time></trkpt><trkpt lat="37.9506826" lon="-2.9460616"><ele>1042.0</ele><time>2026-04-13T08:02:08.659Z</time></trkpt><trkpt lat="37.9506717" lon="-2.9459358"><ele>1047.2</ele><time>2026-04-13T08:02:09.659Z</time></trkpt><trkpt lat="37.9506586" lon="-2.9458112"><ele>1052.4</ele><time>2026-04-13T08:02:10.659Z</time></trkpt><trkpt lat="37.9506509" lon="-2.9456769"><ele>1057.6</ele><time>2026-04-13T08:02:11.66Z</time></trkpt><trkpt lat="37.950642" lon="-2.9455381"><ele>1062.8</ele><time>2026-04-13T08:02:12.659Z</time></trkpt><trkpt lat="37.9506392" lon="-2.9454332"><ele>1068.0</ele><time>2026-04-13T08:02:13.889Z</time></trkpt><trkpt lat="37.9506072" lon="-2.9451289"><ele>1069.3333333333333</ele><time>2026-04-13T08:02:15.672Z</time></trkpt><trkpt lat="37.9505921" lon="-2.9449975"><ele>1070.6666666666667</ele><time>2026-04-13T08:02:16.67Z</time></trkpt><trkpt lat="37.9505655" lon="-2.9448945"><ele>1072.0</ele><time>2026-04-13T08:02:17.667Z</time></trkpt><trkpt lat="37.9505301" lon="-2.9448"><ele>1073.3333333333335</ele><time>2026-04-13T08:02:18.672Z</time></trkpt><trkpt lat="37.9504607" lon="-2.9447479"><ele>1074.6666666666667</ele><time>2026-04-13T08:02:19.664Z</time></trkpt><trkpt lat="37.950382" lon="-2.9447377"><ele>1076.0</ele><time>2026-04-13T08:02:20.663Z</time></trkpt><trkpt lat="37.9503067" lon="-2.9447734"><ele>1076.0</ele><time>2026-04-13T08:02:21.663Z</time></trkpt><trkpt lat="37.950226" lon="-2.9448237"><ele>1076.0</ele><time>2026-04-13T08:02:22.663Z</time></trkpt><trkpt lat="37.950163" lon="-2.944863"><ele>1076.0</ele><time>2026-04-13T08:02:23.881Z</time></trkpt><trkpt lat="37.9499418" lon="-2.9450045"><ele>1076.0</ele><time>2026-04-13T08:02:25.679Z</time></trkpt><trkpt lat="37.9498416" lon="-2.9450644"><ele>1068.5</ele><time>2026-04-13T08:02:26.662Z</time></trkpt><trkpt lat="37.9497349" lon="-2.9451312"><ele>1061.0</ele><time>2026-04-13T08:02:27.666Z</time></trkpt><trkpt lat="37.9496322" lon="-2.945204"><ele>1053.5</ele><time>2026-04-13T08:02:28.674Z</time></trkpt><trkpt lat="37.9495261" lon="-2.9452807"><ele>1046.0</ele><time>2026-04-13T08:02:29.665Z</time></trkpt><trkpt lat="37.9494155" lon="-2.9453543"><ele>1046.0</ele><time>2026-04-13T08:02:30.665Z</time></trkpt><trkpt lat="37.9493001" lon="-2.9454279"><ele>1046.0</ele><time>2026-04-13T08:02:31.665Z</time></trkpt><trkpt lat="37.9491907" lon="-2.9455061"><ele>1046.0</ele><time>2026-04-13T08:02:32.665Z</time></trkpt><trkpt lat="37.9490866" lon="-2.9455926"><ele>1046.0</ele><time>2026-04-13T08:02:33.665Z</time></trkpt><trkpt lat="37.9489891" lon="-2.945688"><ele>1049.25</ele><time>2026-04-13T08:02:34.665Z</time></trkpt><trkpt lat="37.948892" lon="-2.9457826"><ele>1052.5</ele><time>2026-04-13T08:02:35.665Z</time></trkpt><trkpt lat="37.9487854" lon="-2.945862"><ele>1055.75</ele><time>2026-04-13T08:02:36.665Z</time></trkpt><trkpt lat="37.9486781" lon="-2.945926"><ele>1059.0</ele><time>2026-04-13T08:02:37.665Z</time></trkpt><trkpt lat="37.9485553" lon="-2.9459642"><ele>1056.75</ele><time>2026-04-13T08:02:38.665Z</time></trkpt><trkpt lat="37.9484402" lon="-2.9459908"><ele>1054.5</ele><time>2026-04-13T08:02:39.665Z</time></trkpt><trkpt lat="37.9483296" lon="-2.9460133"><ele>1052.25</ele><time>2026-04-13T08:02:40.665Z</time></trkpt><trkpt lat="37.9482148" lon="-2.9460229"><ele>1050.0</ele><time>2026-04-13T08:02:41.665Z</time></trkpt><trkpt lat="37.9481013" lon="-2.946022"><ele>1050.0</ele><time>2026-04-13T08:02:42.665Z</time></trkpt><trkpt lat="37.9479876" lon="-2.9460057"><ele>1050.0</ele><time>2026-04-13T08:02:43.665Z</time></trkpt><trkpt lat="37.9478816" lon="-2.9459825"><ele>1050.0</ele><time>2026-04-13T08:02:44.666Z</time></trkpt><trkpt lat="37.9477863" lon="-2.945961"><ele>1050.0</ele><time>2026-04-13T08:02:45.665Z</time></trkpt><trkpt lat="37.9477027" lon="-2.9459531"><ele>1050.0</ele><time>2026-04-13T08:02:46.665Z</time></trkpt><trkpt lat="37.9476213" lon="-2.9459696"><ele>1050.0</ele><time>2026-04-13T08:02:47.665Z</time></trkpt><trkpt lat="37.9475505" lon="-2.946016"><ele>1050.0</ele><time>2026-04-13T08:02:48.665Z</time></trkpt><trkpt lat="37.9474869" lon="-2.9460892"><ele>1050.0</ele><time>2026-04-13T08:02:49.665Z</time></trkpt><trkpt lat="37.9474505" lon="-2.9461922"><ele>1050.0</ele><time>2026-04-13T08:02:50.665Z</time></trkpt><trkpt lat="37.9474182" lon="-2.9463109"><ele>1050.0</ele><time>2026-04-13T08:02:51.665Z</time></trkpt><trkpt lat="37.9473845" lon="-2.9464368"><ele>1052.0</ele><time>2026-04-13T08:02:52.665Z</time></trkpt><trkpt lat="37.9473466" lon="-2.946568"><ele>1054.0</ele><time>2026-04-13T08:02:53.665Z</time></trkpt><trkpt lat="37.9473069" lon="-2.9466987"><ele>1056.0</ele><time>2026-04-13T08:02:54.665Z</time></trkpt><trkpt lat="37.9472721" lon="-2.94683"><ele>1058.0</ele><time>2026-04-13T08:02:55.665Z</time></trkpt><trkpt lat="37.9472468" lon="-2.9469631"><ele>1060.0</ele><time>2026-04-13T08:02:56.665Z</time></trkpt><trkpt lat="37.9472314" lon="-2.9471029"><ele>1060.0</ele><time>2026-04-13T08:02:57.665Z</time></trkpt><trkpt lat="37.9472121" lon="-2.9472376"><ele>1060.0</ele><time>2026-04-13T08:02:58.665Z</time></trkpt><trkpt lat="37.9471753" lon="-2.9473535"><ele>1060.0</ele><time>2026-04-13T08:02:59.665Z</time></trkpt><trkpt lat="37.9471211" lon="-2.9474496"><ele>1060.0</ele><time>2026-04-13T08:03:00.665Z</time></trkpt><trkpt lat="37.9470577" lon="-2.9475462"><ele>1060.0</ele><time>2026-04-13T08:03:01.665Z</time></trkpt><trkpt lat="37.9470115" lon="-2.9476601"><ele>1057.2</ele><time>2026-04-13T08:03:02.665Z</time></trkpt><trkpt lat="37.9469724" lon="-2.9477808"><ele>1054.4</ele><time>2026-04-13T08:03:03.665Z</time></trkpt><trkpt lat="37.9469368" lon="-2.9479105"><ele>1051.6</ele><time>2026-04-13T08:03:04.665Z</time></trkpt><trkpt lat="37.946881" lon="-2.9480319"><ele>1048.8</ele><time>2026-04-13T08:03:05.665Z</time></trkpt><trkpt lat="37.946813" lon="-2.9481384"><ele>1046.0</ele><time>2026-04-13T08:03:06.665Z</time></trkpt><trkpt lat="37.9467267" lon="-2.9482174"><ele>1047.5</ele><time>2026-04-13T08:03:07.665Z</time></trkpt><trkpt lat="37.946644" lon="-2.9482836"><ele>1049.0</ele><time>2026-04-13T08:03:08.665Z</time></trkpt><trkpt lat="37.9465816" lon="-2.9483551"><ele>1050.5</ele><time>2026-04-13T08:03:09.665Z</time></trkpt><trkpt lat="37.9465566" lon="-2.94845"><ele>1052.0</ele><time>2026-04-13T08:03:10.665Z</time></trkpt><trkpt lat="37.9465507" lon="-2.9485474"><ele>1053.5</ele><time>2026-04-13T08:03:11.665Z</time></trkpt><trkpt lat="37.9465477" lon="-2.9486424"><ele>1055.0</ele><time>2026-04-13T08:03:12.665Z</time></trkpt><trkpt lat="37.9465246" lon="-2.9487314"><ele>1055.0</ele><time>2026-04-13T08:03:13.665Z</time></trkpt><trkpt lat="37.9464784" lon="-2.9487991"><ele>1055.0</ele><time>2026-04-13T08:03:14.665Z</time></trkpt><trkpt lat="37.946358" lon="-2.9488173"><ele>1055.0</ele><time>2026-04-13T08:03:16.665Z</time></trkpt><trkpt lat="37.9463097" lon="-2.948761"><ele>1055.0</ele><time>2026-04-13T08:03:17.665Z</time></trkpt><trkpt lat="37.946291" lon="-2.9486766"><ele>1055.0</ele><time>2026-04-13T08:03:18.665Z</time></trkpt><trkpt lat="37.9463054" lon="-2.9485865"><ele>1055.0</ele><time>2026-04-13T08:03:19.665Z</time></trkpt><trkpt lat="37.9463478" lon="-2.9485073"><ele>1055.0</ele><time>2026-04-13T08:03:20.665Z</time></trkpt><trkpt lat="37.9463903" lon="-2.9484229"><ele>1055.0</ele><time>2026-04-13T08:03:21.665Z</time></trkpt><trkpt lat="37.9464333" lon="-2.9483369"><ele>1055.0</ele><time>2026-04-13T08:03:22.665Z</time></trkpt><trkpt lat="37.9464773" lon="-2.9482505"><ele>1055.0</ele><time>2026-04-13T08:03:23.665Z</time></trkpt><trkpt lat="37.9465399" lon="-2.9481797"><ele>1055.0</ele><time>2026-04-13T08:03:24.665Z</time></trkpt><trkpt lat="37.9466056" lon="-2.9481152"><ele>1055.0</ele><time>2026-04-13T08:03:25.665Z</time></trkpt><trkpt lat="37.9466627" lon="-2.948047"><ele>1056.0</ele><time>2026-04-13T08:03:26.665Z</time></trkpt><trkpt lat="37.9467145" lon="-2.9479616"><ele>1057.0</ele><time>2026-04-13T08:03:27.665Z</time></trkpt><trkpt lat="37.9467504" lon="-2.9478603"><ele>1058.0</ele><time>2026-04-13T08:03:28.665Z</time></trkpt><trkpt lat="37.9467724" lon="-2.9477522"><ele>1059.0</ele><time>2026-04-13T08:03:29.665Z</time></trkpt><trkpt lat="37.9467832" lon="-2.9476365"><ele>1060.0</ele><time>2026-04-13T08:03:30.665Z</time></trkpt><trkpt lat="37.94682" lon="-2.947403"><ele>1060.0</ele><time>2026-04-13T08:03:32.663Z</time></trkpt><trkpt lat="37.946855" lon="-2.9472871"><ele>1060.0</ele><time>2026-04-13T08:03:33.672Z</time></trkpt><trkpt lat="37.9468943" lon="-2.9471624"><ele>1060.0</ele><time>2026-04-13T08:03:34.672Z</time></trkpt><trkpt lat="37.9469178" lon="-2.9470374"><ele>1060.0</ele><time>2026-04-13T08:03:35.664Z</time></trkpt><trkpt lat="37.9469311" lon="-2.946913"><ele>1060.0</ele><time>2026-04-13T08:03:36.667Z</time></trkpt><trkpt lat="37.9469393" lon="-2.946785"><ele>1063.0</ele><time>2026-04-13T08:03:37.67Z</time></trkpt><trkpt lat="37.946948" lon="-2.9466603"><ele>1066.0</ele><time>2026-04-13T08:03:38.67Z</time></trkpt><trkpt lat="37.9469614" lon="-2.9465377"><ele>1069.0</ele><time>2026-04-13T08:03:39.67Z</time></trkpt><trkpt lat="37.9469722" lon="-2.9464173"><ele>1072.0</ele><time>2026-04-13T08:03:40.67Z</time></trkpt><trkpt lat="37.9469856" lon="-2.9462946"><ele>1075.0</ele><time>2026-04-13T08:03:41.67Z</time></trkpt><trkpt lat="37.9469908" lon="-2.9461735"><ele>1075.0</ele><time>2026-04-13T08:03:42.67Z</time></trkpt><trkpt lat="37.9469865" lon="-2.946053"><ele>1075.0</ele><time>2026-04-13T08:03:43.67Z</time></trkpt><trkpt lat="37.9469727" lon="-2.9459306"><ele>1075.0</ele><time>2026-04-13T08:03:44.67Z</time></trkpt><trkpt lat="37.9469527" lon="-2.9458122"><ele>1075.0</ele><time>2026-04-13T08:03:45.67Z</time></trkpt><trkpt lat="37.9469286" lon="-2.9456976"><ele>1075.0</ele><time>2026-04-13T08:03:46.67Z</time></trkpt><trkpt lat="37.9469109" lon="-2.9455773"><ele>1078.0</ele><time>2026-04-13T08:03:47.67Z</time></trkpt><trkpt lat="37.9468985" lon="-2.9454637"><ele>1081.0</ele><time>2026-04-13T08:03:48.67Z</time></trkpt><trkpt lat="37.9468961" lon="-2.945347"><ele>1084.0</ele><time>2026-04-13T08:03:49.67Z</time></trkpt><trkpt lat="37.9469199" lon="-2.9452292"><ele>1087.0</ele><time>2026-04-13T08:03:50.67Z</time></trkpt><trkpt lat="37.9469663" lon="-2.9451257"><ele>1090.0</ele><time>2026-04-13T08:03:51.67Z</time></trkpt><trkpt lat="37.9470246" lon="-2.9450319"><ele>1094.4</ele><time>2026-04-13T08:03:52.67Z</time></trkpt><trkpt lat="37.9470994" lon="-2.9449621"><ele>1098.8</ele><time>2026-04-13T08:03:53.67Z</time></trkpt><trkpt lat="37.9472193" lon="-2.9449538"><ele>1103.2</ele><time>2026-04-13T08:03:54.67Z</time></trkpt><trkpt lat="37.9473214" lon="-2.9449239"><ele>1107.6</ele><time>2026-04-13T08:03:55.67Z</time></trkpt><trkpt lat="37.9474117" lon="-2.9448906"><ele>1112.0</ele><time>2026-04-13T08:03:56.67Z</time></trkpt><trkpt lat="37.9475063" lon="-2.9448782"><ele>1110.8</ele><time>2026-04-13T08:03:57.67Z</time></trkpt><trkpt lat="37.9475851" lon="-2.944909"><ele>1109.6</ele><time>2026-04-13T08:03:58.67Z</time></trkpt><trkpt lat="37.9476625" lon="-2.9449574"><ele>1108.3999999999999</ele><time>2026-04-13T08:03:59.67Z</time></trkpt><trkpt lat="37.9477482" lon="-2.9450181"><ele>1107.2</ele><time>2026-04-13T08:04:00.67Z</time></trkpt><trkpt lat="37.9478411" lon="-2.9450753"><ele>1106.0</ele><time>2026-04-13T08:04:01.67Z</time></trkpt><trkpt lat="37.9479303" lon="-2.945127"><ele>1106.0</ele><time>2026-04-13T08:04:02.67Z</time></trkpt><trkpt lat="37.9480155" lon="-2.9451536"><ele>1106.0</ele><time>2026-04-13T08:04:03.67Z</time></trkpt><trkpt lat="37.9481025" lon="-2.9451488"><ele>1106.0</ele><time>2026-04-13T08:04:04.67Z</time></trkpt><trkpt lat="37.9481826" lon="-2.9451125"><ele>1106.0</ele><time>2026-04-13T08:04:05.67Z</time></trkpt><trkpt lat="37.948252" lon="-2.9450472"><ele>1106.0</ele><time>2026-04-13T08:04:06.67Z</time></trkpt><trkpt lat="37.9483081" lon="-2.9449555"><ele>1106.0</ele><time>2026-04-13T08:04:07.67Z</time></trkpt><trkpt lat="37.9483513" lon="-2.9448482"><ele>1102.8</ele><time>2026-04-13T08:04:08.67Z</time></trkpt><trkpt lat="37.9483866" lon="-2.9447416"><ele>1099.6</ele><time>2026-04-13T08:04:09.67Z</time></trkpt><trkpt lat="37.9484215" lon="-2.9446352"><ele>1096.4</ele><time>2026-04-13T08:04:10.67Z</time></trkpt><trkpt lat="37.9484705" lon="-2.9445435"><ele>1093.2</ele><time>2026-04-13T08:04:11.67Z</time></trkpt><trkpt lat="37.9485403" lon="-2.9444636"><ele>1090.0</ele><time>2026-04-13T08:04:12.67Z</time></trkpt><trkpt lat="37.9486217" lon="-2.9444"><ele>1090.0</ele><time>2026-04-13T08:04:13.67Z</time></trkpt><trkpt lat="37.9487046" lon="-2.9443401"><ele>1090.0</ele><time>2026-04-13T08:04:14.67Z</time></trkpt><trkpt lat="37.9487934" lon="-2.944279"><ele>1090.0</ele><time>2026-04-13T08:04:15.67Z</time></trkpt><trkpt lat="37.9488851" lon="-2.9442176"><ele>1090.0</ele><time>2026-04-13T08:04:16.67Z</time></trkpt><trkpt lat="37.9489768" lon="-2.944158"><ele>1090.0</ele><time>2026-04-13T08:04:17.67Z</time></trkpt><trkpt lat="37.9490713" lon="-2.9440997"><ele>1090.8</ele><time>2026-04-13T08:04:18.67Z</time></trkpt><trkpt lat="37.9491643" lon="-2.9440411"><ele>1091.6</ele><time>2026-04-13T08:04:19.67Z</time></trkpt><trkpt lat="37.9492558" lon="-2.943976"><ele>1092.4</ele><time>2026-04-13T08:04:20.67Z</time></trkpt><trkpt lat="37.9493427" lon="-2.9439057"><ele>1093.2</ele><time>2026-04-13T08:04:21.67Z</time></trkpt><trkpt lat="37.9494308" lon="-2.943825"><ele>1094.0</ele><time>2026-04-13T08:04:22.67Z</time></trkpt><trkpt lat="37.9495146" lon="-2.943743"><ele>1094.0</ele><time>2026-04-13T08:04:23.67Z</time></trkpt><trkpt lat="37.949602" lon="-2.943663"><ele>1094.0</ele><time>2026-04-13T08:04:24.67Z</time></trkpt><trkpt lat="37.9496901" lon="-2.9435799"><ele>1094.0</ele><time>2026-04-13T08:04:25.67Z</time></trkpt><trkpt lat="37.9497793" lon="-2.9434942"><ele>1094.0</ele><time>2026-04-13T08:04:26.67Z</time></trkpt><trkpt lat="37.9498648" lon="-2.9434101"><ele>1094.0</ele><time>2026-04-13T08:04:27.67Z</time></trkpt><trkpt lat="37.949951" lon="-2.9433257"><ele>1095.6000000000001</ele><time>2026-04-13T08:04:28.67Z</time></trkpt><trkpt lat="37.9500334" lon="-2.9432394"><ele>1097.2</ele><time>2026-04-13T08:04:29.67Z</time></trkpt><trkpt lat="37.9501106" lon="-2.9431623"><ele>1098.8000000000002</ele><time>2026-04-13T08:04:30.67Z</time></trkpt><trkpt lat="37.9501738" lon="-2.9430732"><ele>1100.4</ele><time>2026-04-13T08:04:31.67Z</time></trkpt><trkpt lat="37.9502406" lon="-2.9429905"><ele>1102.0</ele><time>2026-04-13T08:04:32.671Z</time></trkpt><trkpt lat="37.9503187" lon="-2.9428814"><ele>1102.0</ele><time>2026-04-13T08:04:33.67Z</time></trkpt><trkpt lat="37.9503915" lon="-2.9427863"><ele>1102.0</ele><time>2026-04-13T08:04:34.67Z</time></trkpt><trkpt lat="37.9504591" lon="-2.9426929"><ele>1102.0</ele><time>2026-04-13T08:04:35.67Z</time></trkpt><trkpt lat="37.9505268" lon="-2.94258"><ele>1102.0</ele><time>2026-04-13T08:04:36.671Z</time></trkpt><trkpt lat="37.9505838" lon="-2.9424902"><ele>1102.0</ele><time>2026-04-13T08:04:37.67Z</time></trkpt><trkpt lat="37.9506466" lon="-2.942403"><ele>1105.5</ele><time>2026-04-13T08:04:38.67Z</time></trkpt><trkpt lat="37.9506957" lon="-2.9423143"><ele>1109.0</ele><time>2026-04-13T08:04:39.67Z</time></trkpt><trkpt lat="37.9507438" lon="-2.9422202"><ele>1112.5</ele><time>2026-04-13T08:04:40.67Z</time></trkpt><trkpt lat="37.9507949" lon="-2.9421396"><ele>1116.0</ele><time>2026-04-13T08:04:41.67Z</time></trkpt><trkpt lat="37.9508486" lon="-2.9420658"><ele>1119.5</ele><time>2026-04-13T08:04:42.671Z</time></trkpt><trkpt lat="37.9509159" lon="-2.9420126"><ele>1123.0</ele><time>2026-04-13T08:04:43.67Z</time></trkpt><trkpt lat="37.9509845" lon="-2.9419676"><ele>1127.25</ele><time>2026-04-13T08:04:44.67Z</time></trkpt><trkpt lat="37.951169" lon="-2.9419804"><ele>1131.5</ele><time>2026-04-13T08:04:46.67Z</time></trkpt><trkpt lat="37.951241" lon="-2.9420167"><ele>1135.75</ele><time>2026-04-13T08:04:47.67Z</time></trkpt><trkpt lat="37.9512808" lon="-2.9421464"><ele>1140.0</ele><time>2026-04-13T08:04:48.67Z</time></trkpt><trkpt lat="37.9513314" lon="-2.9422541"><ele>1140.0</ele><time>2026-04-13T08:04:49.67Z</time></trkpt><trkpt lat="37.9513722" lon="-2.94236"><ele>1140.0</ele><time>2026-04-13T08:04:50.67Z</time></trkpt><trkpt lat="37.9514156" lon="-2.9424764"><ele>1140.0</ele><time>2026-04-13T08:04:51.67Z</time></trkpt><trkpt lat="37.951464" lon="-2.9425852"><ele>1140.0</ele><time>2026-04-13T08:04:52.67Z</time></trkpt><trkpt lat="37.9515354" lon="-2.9426743"><ele>1140.0</ele><time>2026-04-13T08:04:53.67Z</time></trkpt><trkpt lat="37.9516139" lon="-2.9427637"><ele>1140.6</ele><time>2026-04-13T08:04:54.67Z</time></trkpt><trkpt lat="37.9516893" lon="-2.9428472"><ele>1141.2</ele><time>2026-04-13T08:04:55.67Z</time></trkpt><trkpt lat="37.9517766" lon="-2.9429297"><ele>1141.8</ele><time>2026-04-13T08:04:56.67Z</time></trkpt><trkpt lat="37.9518582" lon="-2.943006"><ele>1142.4</ele><time>2026-04-13T08:04:57.67Z</time></trkpt><trkpt lat="37.9519425" lon="-2.9430736"><ele>1143.0</ele><time>2026-04-13T08:04:58.67Z</time></trkpt><trkpt lat="37.9520207" lon="-2.943149"><ele>1143.0</ele><time>2026-04-13T08:04:59.67Z</time></trkpt><trkpt lat="37.9521018" lon="-2.9432115"><ele>1143.0</ele><time>2026-04-13T08:05:00.67Z</time></trkpt><trkpt lat="37.9521859" lon="-2.9432632"><ele>1143.0</ele><time>2026-04-13T08:05:01.67Z</time></trkpt><trkpt lat="37.9522659" lon="-2.9433263"><ele>1143.0</ele><time>2026-04-13T08:05:02.67Z</time></trkpt><trkpt lat="37.9523405" lon="-2.9434022"><ele>1143.0</ele><time>2026-04-13T08:05:03.67Z</time></trkpt><trkpt lat="37.9524113" lon="-2.9434913"><ele>1141.2</ele><time>2026-04-13T08:05:04.671Z</time></trkpt><trkpt lat="37.9524672" lon="-2.9435976"><ele>1139.4</ele><time>2026-04-13T08:05:05.67Z</time></trkpt><trkpt lat="37.9525154" lon="-2.9437088"><ele>1137.6000000000001</ele><time>2026-04-13T08:05:06.67Z</time></trkpt><trkpt lat="37.9525584" lon="-2.943833"><ele>1135.8</ele><time>2026-04-13T08:05:07.671Z</time></trkpt><trkpt lat="37.9525894" lon="-2.943961"><ele>1134.0</ele><time>2026-04-13T08:05:08.67Z</time></trkpt><trkpt lat="37.9526168" lon="-2.9440913"><ele>1139.0</ele><time>2026-04-13T08:05:09.67Z</time></trkpt><trkpt lat="37.9526423" lon="-2.944217"><ele>1144.0</ele><time>2026-04-13T08:05:10.67Z</time></trkpt><trkpt lat="37.9526674" lon="-2.944342"><ele>1149.0</ele><time>2026-04-13T08:05:11.67Z</time></trkpt><trkpt lat="37.9526957" lon="-2.944467"><ele>1154.0</ele><time>2026-04-13T08:05:12.67Z</time></trkpt><trkpt lat="37.9527218" lon="-2.9445934"><ele>1159.0</ele><time>2026-04-13T08:05:13.67Z</time></trkpt><trkpt lat="37.9527501" lon="-2.9447209"><ele>1159.0</ele><time>2026-04-13T08:05:14.67Z</time></trkpt><trkpt lat="37.9527785" lon="-2.9448542"><ele>1159.0</ele><time>2026-04-13T08:05:15.67Z</time></trkpt><trkpt lat="37.9528026" lon="-2.9449822"><ele>1159.0</ele><time>2026-04-13T08:05:16.67Z</time></trkpt><trkpt lat="37.9528126" lon="-2.945107"><ele>1159.0</ele><time>2026-04-13T08:05:17.67Z</time></trkpt><trkpt lat="37.9528103" lon="-2.9452323"><ele>1159.0</ele><time>2026-04-13T08:05:18.67Z</time></trkpt><trkpt lat="37.952799" lon="-2.9453554"><ele>1157.857142857143</ele><time>2026-04-13T08:05:19.67Z</time></trkpt><trkpt lat="37.9527844" lon="-2.9454669"><ele>1156.7142857142858</ele><time>2026-04-13T08:05:20.67Z</time></trkpt><trkpt lat="37.9527865" lon="-2.9455659"><ele>1155.5714285714284</ele><time>2026-04-13T08:05:21.67Z</time></trkpt><trkpt lat="37.952808" lon="-2.9456521"><ele>1154.4285714285716</ele><time>2026-04-13T08:05:22.67Z</time></trkpt><trkpt lat="37.9528536" lon="-2.9457196"><ele>1153.2857142857142</ele><time>2026-04-13T08:05:23.67Z</time></trkpt><trkpt lat="37.9529209" lon="-2.9457462"><ele>1152.142857142857</ele><time>2026-04-13T08:05:24.67Z</time></trkpt><trkpt lat="37.952982" lon="-2.9457196"><ele>1151.0</ele><time>2026-04-13T08:05:25.67Z</time></trkpt><trkpt lat="37.9530412" lon="-2.9455706"><ele>1151.0</ele><time>2026-04-13T08:05:27.67Z</time></trkpt><trkpt lat="37.9530323" lon="-2.9454652"><ele>1151.0</ele><time>2026-04-13T08:05:28.67Z</time></trkpt><trkpt lat="37.9530269" lon="-2.945357"><ele>1151.0</ele><time>2026-04-13T08:05:29.67Z</time></trkpt><trkpt lat="37.9530233" lon="-2.9452407"><ele>1151.0</ele><time>2026-04-13T08:05:30.67Z</time></trkpt><trkpt lat="37.9530162" lon="-2.9451198"><ele>1151.0</ele><time>2026-04-13T08:05:31.67Z</time></trkpt><trkpt lat="37.9530158" lon="-2.9449961"><ele>1152.6</ele><time>2026-04-13T08:05:32.67Z</time></trkpt><trkpt lat="37.9530164" lon="-2.9448676"><ele>1154.1999999999998</ele><time>2026-04-13T08:05:33.67Z</time></trkpt><trkpt lat="37.9530175" lon="-2.9447342"><ele>1155.8000000000002</ele><time>2026-04-13T08:05:34.67Z</time></trkpt><trkpt lat="37.9530163" lon="-2.9445933"><ele>1157.4</ele><time>2026-04-13T08:05:35.67Z</time></trkpt><trkpt lat="37.9530137" lon="-2.9444575"><ele>1159.0</ele><time>2026-04-13T08:05:36.67Z</time></trkpt><trkpt lat="37.9530077" lon="-2.944321"><ele>1160.2</ele><time>2026-04-13T08:05:37.67Z</time></trkpt><trkpt lat="37.9530057" lon="-2.9441885"><ele>1161.4</ele><time>2026-04-13T08:05:38.67Z</time></trkpt><trkpt lat="37.9530044" lon="-2.94406"><ele>1162.6</ele><time>2026-04-13T08:05:39.67Z</time></trkpt><trkpt lat="37.9530032" lon="-2.9439335"><ele>1163.8</ele><time>2026-04-13T08:05:40.67Z</time></trkpt><trkpt lat="37.9530036" lon="-2.9438055"><ele>1165.0</ele><time>2026-04-13T08:05:41.67Z</time></trkpt><trkpt lat="37.9530057" lon="-2.9436837"><ele>1165.0</ele><time>2026-04-13T08:05:42.67Z</time></trkpt><trkpt lat="37.9529985" lon="-2.9435584"><ele>1165.0</ele><time>2026-04-13T08:05:43.67Z</time></trkpt><trkpt lat="37.9529813" lon="-2.9434325"><ele>1165.0</ele><time>2026-04-13T08:05:44.67Z</time></trkpt><trkpt lat="37.9529595" lon="-2.9433056"><ele>1165.0</ele><time>2026-04-13T08:05:45.67Z</time></trkpt><trkpt lat="37.952931" lon="-2.9431803"><ele>1165.0</ele><time>2026-04-13T08:05:46.67Z</time></trkpt><trkpt lat="37.9528992" lon="-2.9430644"><ele>1166.8</ele><time>2026-04-13T08:05:47.67Z</time></trkpt><trkpt lat="37.9528683" lon="-2.9429484"><ele>1168.6</ele><time>2026-04-13T08:05:48.67Z</time></trkpt><trkpt lat="37.952808" lon="-2.9428498"><ele>1170.4</ele><time>2026-04-13T08:05:49.67Z</time></trkpt><trkpt lat="37.9527286" lon="-2.942767"><ele>1172.2</ele><time>2026-04-13T08:05:50.671Z</time></trkpt><trkpt lat="37.9526501" lon="-2.9427039"><ele>1174.0</ele><time>2026-04-13T08:05:51.67Z</time></trkpt><trkpt lat="37.9525565" lon="-2.9426425"><ele>1172.6000000000001</ele><time>2026-04-13T08:05:52.67Z</time></trkpt><trkpt lat="37.9524657" lon="-2.9425738"><ele>1171.2</ele><time>2026-04-13T08:05:53.67Z</time></trkpt><trkpt lat="37.9523788" lon="-2.942509"><ele>1169.8000000000002</ele><time>2026-04-13T08:05:54.671Z</time></trkpt><trkpt lat="37.9522982" lon="-2.9424299"><ele>1168.4</ele><time>2026-04-13T08:05:55.67Z</time></trkpt><trkpt lat="37.9522207" lon="-2.9423455"><ele>1167.0</ele><time>2026-04-13T08:05:56.67Z</time></trkpt><trkpt lat="37.9521494" lon="-2.9422462"><ele>1167.0</ele><time>2026-04-13T08:05:57.67Z</time></trkpt><trkpt lat="37.9520888" lon="-2.9421342"><ele>1167.0</ele><time>2026-04-13T08:05:58.67Z</time></trkpt><trkpt lat="37.9520289" lon="-2.9420175"><ele>1167.0</ele><time>2026-04-13T08:05:59.67Z</time></trkpt><trkpt lat="37.951978" lon="-2.941896"><ele>1167.0</ele><time>2026-04-13T08:06:00.67Z</time></trkpt><trkpt lat="37.9519374" lon="-2.9417626"><ele>1167.0</ele><time>2026-04-13T08:06:01.67Z</time></trkpt><trkpt lat="37.9519108" lon="-2.9416301"><ele>1172.0</ele><time>2026-04-13T08:06:02.67Z</time></trkpt><trkpt lat="37.9518795" lon="-2.941494"><ele>1177.0</ele><time>2026-04-13T08:06:03.67Z</time></trkpt><trkpt lat="37.9518396" lon="-2.941362"><ele>1182.0</ele><time>2026-04-13T08:06:04.67Z</time></trkpt><trkpt lat="37.9517897" lon="-2.9412344"><ele>1187.0</ele><time>2026-04-13T08:06:05.67Z</time></trkpt><trkpt lat="37.9517319" lon="-2.9411055"><ele>1184.2</ele><time>2026-04-13T08:06:06.67Z</time></trkpt><trkpt lat="37.9516755" lon="-2.9409752"><ele>1181.4</ele><time>2026-04-13T08:06:07.67Z</time></trkpt><trkpt lat="37.9516179" lon="-2.9408502"><ele>1178.6</ele><time>2026-04-13T08:06:08.67Z</time></trkpt><trkpt lat="37.951565" lon="-2.940739"><ele>1175.8</ele><time>2026-04-13T08:06:09.67Z</time></trkpt><trkpt lat="37.951512" lon="-2.9406282"><ele>1173.0</ele><time>2026-04-13T08:06:10.67Z</time></trkpt><trkpt lat="37.9514645" lon="-2.9405193"><ele>1173.0</ele><time>2026-04-13T08:06:11.67Z</time></trkpt><trkpt lat="37.9514189" lon="-2.9404122"><ele>1173.0</ele><time>2026-04-13T08:06:12.67Z</time></trkpt><trkpt lat="37.9513792" lon="-2.9403111"><ele>1173.0</ele><time>2026-04-13T08:06:13.67Z</time></trkpt><trkpt lat="37.9513377" lon="-2.9402129"><ele>1173.0</ele><time>2026-04-13T08:06:14.67Z</time></trkpt><trkpt lat="37.9512858" lon="-2.9401302"><ele>1173.0</ele><time>2026-04-13T08:06:15.67Z</time></trkpt><trkpt lat="37.951213" lon="-2.9400739"><ele>1173.0</ele><time>2026-04-13T08:06:16.67Z</time></trkpt><trkpt lat="37.9511308" lon="-2.9400393"><ele>1171.2</ele><time>2026-04-13T08:06:17.67Z</time></trkpt><trkpt lat="37.9510411" lon="-2.9400327"><ele>1169.4</ele><time>2026-04-13T08:06:18.67Z</time></trkpt><trkpt lat="37.9509473" lon="-2.940049"><ele>1167.6000000000001</ele><time>2026-04-13T08:06:19.67Z</time></trkpt><trkpt lat="37.9508554" lon="-2.9401039"><ele>1165.8</ele><time>2026-04-13T08:06:20.67Z</time></trkpt><trkpt lat="37.9507638" lon="-2.9401711"><ele>1164.0</ele><time>2026-04-13T08:06:21.67Z</time></trkpt><trkpt lat="37.9506742" lon="-2.9402483"><ele>1164.0</ele><time>2026-04-13T08:06:22.67Z</time></trkpt><trkpt lat="37.9505799" lon="-2.9403246"><ele>1164.0</ele><time>2026-04-13T08:06:23.67Z</time></trkpt><trkpt lat="37.9504838" lon="-2.9404055"><ele>1164.0</ele><time>2026-04-13T08:06:24.67Z</time></trkpt><trkpt lat="37.9503872" lon="-2.9404859"><ele>1164.0</ele><time>2026-04-13T08:06:25.67Z</time></trkpt><trkpt lat="37.950289" lon="-2.9405619"><ele>1164.0</ele><time>2026-04-13T08:06:26.67Z</time></trkpt><trkpt lat="37.9501902" lon="-2.9406419"><ele>1164.0</ele><time>2026-04-13T08:06:27.67Z</time></trkpt><trkpt lat="37.9500932" lon="-2.9407165"><ele>1164.0</ele><time>2026-04-13T08:06:28.67Z</time></trkpt><trkpt lat="37.9499897" lon="-2.94079"><ele>1164.0</ele><time>2026-04-13T08:06:29.67Z</time></trkpt><trkpt lat="37.94989" lon="-2.9408623"><ele>1163.4</ele><time>2026-04-13T08:06:30.67Z</time></trkpt><trkpt lat="37.9497997" lon="-2.9409337"><ele>1162.8000000000002</ele><time>2026-04-13T08:06:31.67Z</time></trkpt><trkpt lat="37.9497154" lon="-2.9410138"><ele>1162.1999999999998</ele><time>2026-04-13T08:06:32.67Z</time></trkpt><trkpt lat="37.9496273" lon="-2.9410956"><ele>1161.6</ele><time>2026-04-13T08:06:33.67Z</time></trkpt><trkpt lat="37.9495446" lon="-2.9411821"><ele>1161.0</ele><time>2026-04-13T08:06:34.67Z</time></trkpt><trkpt lat="37.9494509" lon="-2.9412605"><ele>1161.0</ele><time>2026-04-13T08:06:35.67Z</time></trkpt><trkpt lat="37.9493576" lon="-2.9413344"><ele>1161.0</ele><time>2026-04-13T08:06:36.67Z</time></trkpt><trkpt lat="37.9492596" lon="-2.9413988"><ele>1161.0</ele><time>2026-04-13T08:06:37.67Z</time></trkpt><trkpt lat="37.9491679" lon="-2.9414698"><ele>1161.0</ele><time>2026-04-13T08:06:38.67Z</time></trkpt><trkpt lat="37.9490727" lon="-2.9415356"><ele>1161.0</ele><time>2026-04-13T08:06:39.67Z</time></trkpt><trkpt lat="37.9489788" lon="-2.9416019"><ele>1160.2</ele><time>2026-04-13T08:06:40.67Z</time></trkpt><trkpt lat="37.948885" lon="-2.9416733"><ele>1159.3999999999999</ele><time>2026-04-13T08:06:41.67Z</time></trkpt><trkpt lat="37.9487911" lon="-2.9417377"><ele>1158.6</ele><time>2026-04-13T08:06:42.67Z</time></trkpt><trkpt lat="37.9486923" lon="-2.9417976"><ele>1157.8</ele><time>2026-04-13T08:06:43.67Z</time></trkpt><trkpt lat="37.9485944" lon="-2.9418368"><ele>1157.0</ele><time>2026-04-13T08:06:44.671Z</time></trkpt><trkpt lat="37.9484959" lon="-2.9418603"><ele>1157.0</ele><time>2026-04-13T08:06:45.67Z</time></trkpt><trkpt lat="37.9483944" lon="-2.9418654"><ele>1157.0</ele><time>2026-04-13T08:06:46.67Z</time></trkpt><trkpt lat="37.9482899" lon="-2.9418503"><ele>1157.0</ele><time>2026-04-13T08:06:47.67Z</time></trkpt><trkpt lat="37.9481911" lon="-2.9418092"><ele>1157.0</ele><time>2026-04-13T08:06:48.67Z</time></trkpt><trkpt lat="37.9480942" lon="-2.9417504"><ele>1157.0</ele><time>2026-04-13T08:06:49.67Z</time></trkpt><trkpt lat="37.9479992" lon="-2.9416935"><ele>1165.0</ele><time>2026-04-13T08:06:50.67Z</time></trkpt><trkpt lat="37.9479041" lon="-2.9416356"><ele>1173.0</ele><time>2026-04-13T08:06:51.67Z</time></trkpt><trkpt lat="37.9478084" lon="-2.9415745"><ele>1181.0</ele><time>2026-04-13T08:06:52.67Z</time></trkpt><trkpt lat="37.9477196" lon="-2.9415097"><ele>1189.0</ele><time>2026-04-13T08:06:53.67Z</time></trkpt><trkpt lat="37.9476217" lon="-2.941454"><ele>1197.0</ele><time>2026-04-13T08:06:54.67Z</time></trkpt><trkpt lat="37.9475237" lon="-2.9414084"><ele>1197.0</ele><time>2026-04-13T08:06:55.67Z</time></trkpt><trkpt lat="37.9474184" lon="-2.9413719"><ele>1197.0</ele><time>2026-04-13T08:06:56.67Z</time></trkpt><trkpt lat="37.947315" lon="-2.9413582"><ele>1197.0</ele><time>2026-04-13T08:06:57.67Z</time></trkpt><trkpt lat="37.9472128" lon="-2.9413501"><ele>1197.0</ele><time>2026-04-13T08:06:58.67Z</time></trkpt><trkpt lat="37.9471148" lon="-2.9413552"><ele>1197.0</ele><time>2026-04-13T08:06:59.67Z</time></trkpt><trkpt lat="37.9470287" lon="-2.9413697"><ele>1197.0</ele><time>2026-04-13T08:07:00.67Z</time></trkpt><trkpt lat="37.9469645" lon="-2.9413878"><ele>1197.0</ele><time>2026-04-13T08:07:01.67Z</time></trkpt><trkpt lat="37.9468885" lon="-2.9414342"><ele>1197.0</ele><time>2026-04-13T08:07:03.67Z</time></trkpt><trkpt lat="37.946827" lon="-2.9414687"><ele>1197.0</ele><time>2026-04-13T08:07:38.67Z</time></trkpt><trkpt lat="37.9467687" lon="-2.9415007"><ele>1197.0</ele><time>2026-04-13T08:07:45.67Z</time></trkpt><trkpt lat="37.9467295" lon="-2.941571"><ele>1197.0</ele><time>2026-04-13T08:07:52.683Z</time></trkpt><trkpt lat="37.9466777" lon="-2.9416247"><ele>1197.0</ele><time>2026-04-13T08:07:57.694Z</time></trkpt><trkpt lat="37.9466478" lon="-2.9416964"><ele>1197.142857142857</ele><time>2026-04-13T08:08:04.67Z</time></trkpt><trkpt lat="37.9466162" lon="-2.941768"><ele>1197.2857142857142</ele><time>2026-04-13T08:08:16.664Z</time></trkpt><trkpt lat="37.9465776" lon="-2.9418422"><ele>1197.4285714285716</ele><time>2026-04-13T08:08:33.686Z</time></trkpt><trkpt lat="37.9465719" lon="-2.9419265"><ele>1197.5714285714284</ele><time>2026-04-13T08:08:38.664Z</time></trkpt><trkpt lat="37.9465548" lon="-2.942018"><ele>1197.7142857142858</ele><time>2026-04-13T08:08:44.664Z</time></trkpt><trkpt lat="37.9465374" lon="-2.9421057"><ele>1197.857142857143</ele><time>2026-04-13T08:08:51.664Z</time></trkpt><trkpt lat="37.9465658" lon="-2.9421794"><ele>1198.0</ele><time>2026-04-13T08:08:59.726Z</time></trkpt><trkpt lat="37.9465283" lon="-2.9421135"><ele>1198.0</ele><time>2026-04-13T08:10:17.664Z</time></trkpt><trkpt lat="37.946558" lon="-2.9420388"><ele>1198.0</ele><time>2026-04-13T08:10:23.664Z</time></trkpt><trkpt lat="37.9465898" lon="-2.9419654"><ele>1198.0</ele><time>2026-04-13T08:10:31.664Z</time></trkpt><trkpt lat="37.9466238" lon="-2.9418965"><ele>1198.0</ele><time>2026-04-13T08:10:39.664Z</time></trkpt><trkpt lat="37.9466173" lon="-2.9418109"><ele>1198.0</ele><time>2026-04-13T08:10:51.664Z</time></trkpt><trkpt lat="37.9466404" lon="-2.9417362"><ele>1198.0</ele><time>2026-04-13T08:10:58.664Z</time></trkpt><trkpt lat="37.9466633" lon="-2.9416488"><ele>1198.0</ele><time>2026-04-13T08:11:05.664Z</time></trkpt><trkpt lat="37.9466987" lon="-2.9415786"><ele>1197.8333333333333</ele><time>2026-04-13T08:11:12.664Z</time></trkpt><trkpt lat="37.9467514" lon="-2.9415258"><ele>1197.6666666666665</ele><time>2026-04-13T08:11:18.664Z</time></trkpt><trkpt lat="37.9468079" lon="-2.9414811"><ele>1197.5</ele><time>2026-04-13T08:11:23.664Z</time></trkpt><trkpt lat="37.9468789" lon="-2.9414659"><ele>1197.3333333333333</ele><time>2026-04-13T08:11:28.664Z</time></trkpt><trkpt lat="37.9468283" lon="-2.941414"><ele>1197.1666666666667</ele><time>2026-04-13T08:12:12.704Z</time></trkpt><trkpt lat="37.9467619" lon="-2.9414108"><ele>1197.0</ele><time>2026-04-13T08:12:13.704Z</time></trkpt><trkpt lat="37.9466398" lon="-2.9414262"><ele>1198.3333333333333</ele><time>2026-04-13T08:12:15.704Z</time></trkpt><trkpt lat="37.9465629" lon="-2.9414359"><ele>1199.6666666666667</ele><time>2026-04-13T08:12:16.704Z</time></trkpt><trkpt lat="37.9464764" lon="-2.9414542"><ele>1201.0</ele><time>2026-04-13T08:12:17.704Z</time></trkpt><trkpt lat="37.9463871" lon="-2.9414701"><ele>1202.3333333333335</ele><time>2026-04-13T08:12:18.701Z</time></trkpt><trkpt lat="37.9462952" lon="-2.9414823"><ele>1203.6666666666667</ele><time>2026-04-13T08:12:19.704Z</time></trkpt><trkpt lat="37.9461968" lon="-2.9414949"><ele>1205.0</ele><time>2026-04-13T08:12:20.704Z</time></trkpt><trkpt lat="37.9460941" lon="-2.9414963"><ele>1205.0</ele><time>2026-04-13T08:12:21.702Z</time></trkpt><trkpt lat="37.9459913" lon="-2.9414887"><ele>1205.0</ele><time>2026-04-13T08:12:22.704Z</time></trkpt><trkpt lat="37.9458886" lon="-2.9414737"><ele>1205.0</ele><time>2026-04-13T08:12:23.704Z</time></trkpt><trkpt lat="37.9457845" lon="-2.9414606"><ele>1205.0</ele><time>2026-04-13T08:12:24.704Z</time></trkpt><trkpt lat="37.9456825" lon="-2.9414515"><ele>1205.0</ele><time>2026-04-13T08:12:25.704Z</time></trkpt><trkpt lat="37.9455764" lon="-2.9414409"><ele>1208.8</ele><time>2026-04-13T08:12:26.704Z</time></trkpt><trkpt lat="37.9454721" lon="-2.9414297"><ele>1212.6</ele><time>2026-04-13T08:12:27.705Z</time></trkpt><trkpt lat="37.9453678" lon="-2.9414118"><ele>1216.4</ele><time>2026-04-13T08:12:28.704Z</time></trkpt><trkpt lat="37.9452699" lon="-2.9413741"><ele>1220.2</ele><time>2026-04-13T08:12:29.704Z</time></trkpt><trkpt lat="37.9451803" lon="-2.9413202"><ele>1224.0</ele><time>2026-04-13T08:12:30.704Z</time></trkpt><trkpt lat="37.9450933" lon="-2.9412649"><ele>1228.0</ele><time>2026-04-13T08:12:31.704Z</time></trkpt><trkpt lat="37.945006" lon="-2.9412242"><ele>1232.0</ele><time>2026-04-13T08:12:32.704Z</time></trkpt><trkpt lat="37.9449136" lon="-2.9412021"><ele>1236.0</ele><time>2026-04-13T08:12:33.704Z</time></trkpt><trkpt lat="37.9448165" lon="-2.941192"><ele>1240.0</ele><time>2026-04-13T08:12:34.704Z</time></trkpt><trkpt lat="37.9447149" lon="-2.9411842"><ele>1244.0</ele><time>2026-04-13T08:12:35.704Z</time></trkpt><trkpt lat="37.9446128" lon="-2.9411783"><ele>1244.0</ele><time>2026-04-13T08:12:36.7Z</time></trkpt><trkpt lat="37.9445143" lon="-2.9411717"><ele>1244.0</ele><time>2026-04-13T08:12:37.704Z</time></trkpt><trkpt lat="37.9444172" lon="-2.9411578"><ele>1244.0</ele><time>2026-04-13T08:12:38.704Z</time></trkpt><trkpt lat="37.9443266" lon="-2.9411318"><ele>1244.0</ele><time>2026-04-13T08:12:39.704Z</time></trkpt><trkpt lat="37.9442522" lon="-2.9410722"><ele>1244.0</ele><time>2026-04-13T08:12:40.698Z</time></trkpt><trkpt lat="37.9441963" lon="-2.9409928"><ele>1242.5</ele><time>2026-04-13T08:12:41.704Z</time></trkpt><trkpt lat="37.944152" lon="-2.9409007"><ele>1241.0</ele><time>2026-04-13T08:12:42.704Z</time></trkpt><trkpt lat="37.9441173" lon="-2.9408043"><ele>1239.5</ele><time>2026-04-13T08:12:43.704Z</time></trkpt><trkpt lat="37.9440798" lon="-2.9407089"><ele>1238.0</ele><time>2026-04-13T08:12:44.704Z</time></trkpt><trkpt lat="37.9440294" lon="-2.9406238"><ele>1236.5</ele><time>2026-04-13T08:12:45.704Z</time></trkpt><trkpt lat="37.9439736" lon="-2.9405466"><ele>1235.0</ele><time>2026-04-13T08:12:46.697Z</time></trkpt><trkpt lat="37.9438967" lon="-2.9405166"><ele>1235.0</ele><time>2026-04-13T08:12:47.704Z</time></trkpt><trkpt lat="37.9438189" lon="-2.9405094"><ele>1235.0</ele><time>2026-04-13T08:12:48.699Z</time></trkpt><trkpt lat="37.9437353" lon="-2.9405047"><ele>1235.0</ele><time>2026-04-13T08:12:49.701Z</time></trkpt><trkpt lat="37.9436523" lon="-2.9404862"><ele>1235.0</ele><time>2026-04-13T08:12:50.704Z</time></trkpt><trkpt lat="37.9435715" lon="-2.9404367"><ele>1235.0</ele><time>2026-04-13T08:12:51.704Z</time></trkpt><trkpt lat="37.9435039" lon="-2.940384"><ele>1235.0</ele><time>2026-04-13T08:12:52.704Z</time></trkpt><trkpt lat="37.9434212" lon="-2.9402959"><ele>1235.0</ele><time>2026-04-13T08:12:53.701Z</time></trkpt><trkpt lat="37.9433451" lon="-2.9402081"><ele>1235.0</ele><time>2026-04-13T08:12:54.704Z</time></trkpt><trkpt lat="37.9432755" lon="-2.9401349"><ele>1235.0</ele><time>2026-04-13T08:12:55.704Z</time></trkpt><trkpt lat="37.9432038" lon="-2.9400522"><ele>1235.0</ele><time>2026-04-13T08:12:56.7Z</time></trkpt><trkpt lat="37.9431377" lon="-2.9399778"><ele>1235.0</ele><time>2026-04-13T08:12:57.703Z</time></trkpt><trkpt lat="37.9430777" lon="-2.9399072"><ele>1235.0</ele><time>2026-04-13T08:12:58.7Z</time></trkpt><trkpt lat="37.9430221" lon="-2.9398395"><ele>1235.0</ele><time>2026-04-13T08:12:59.7Z</time></trkpt><trkpt lat="37.9429705" lon="-2.9397795"><ele>1235.0</ele><time>2026-04-13T08:13:00.704Z</time></trkpt><trkpt lat="37.9429131" lon="-2.9397209"><ele>1235.0</ele><time>2026-04-13T08:13:01.704Z</time></trkpt><trkpt lat="37.9428531" lon="-2.939672"><ele>1235.0</ele><time>2026-04-13T08:13:02.705Z</time></trkpt><trkpt lat="37.9427829" lon="-2.939643"><ele>1235.0</ele><time>2026-04-13T08:13:03.699Z</time></trkpt><trkpt lat="37.9426953" lon="-2.9396703"><ele>1235.0</ele><time>2026-04-13T08:13:04.701Z</time></trkpt><trkpt lat="37.9426122" lon="-2.9397151"><ele>1235.0</ele><time>2026-04-13T08:13:05.698Z</time></trkpt><trkpt lat="37.9425353" lon="-2.9397698"><ele>1235.0</ele><time>2026-04-13T08:13:06.696Z</time></trkpt><trkpt lat="37.9424602" lon="-2.9398252"><ele>1235.0</ele><time>2026-04-13T08:13:07.697Z</time></trkpt><trkpt lat="37.942378" lon="-2.9398665"><ele>1235.0</ele><time>2026-04-13T08:13:08.704Z</time></trkpt><trkpt lat="37.9422931" lon="-2.9398809"><ele>1235.0</ele><time>2026-04-13T08:13:09.703Z</time></trkpt><trkpt lat="37.9422077" lon="-2.9398765"><ele>1238.1666666666667</ele><time>2026-04-13T08:13:10.704Z</time></trkpt><trkpt lat="37.9421194" lon="-2.93987"><ele>1241.3333333333335</ele><time>2026-04-13T08:13:11.699Z</time></trkpt><trkpt lat="37.9420314" lon="-2.9398555"><ele>1244.5</ele><time>2026-04-13T08:13:12.704Z</time></trkpt><trkpt lat="37.9419428" lon="-2.9398435"><ele>1247.6666666666667</ele><time>2026-04-13T08:13:13.704Z</time></trkpt><trkpt lat="37.9418551" lon="-2.9398331"><ele>1250.8333333333333</ele><time>2026-04-13T08:13:14.704Z</time></trkpt><trkpt lat="37.9417697" lon="-2.9398227"><ele>1254.0</ele><time>2026-04-13T08:13:15.704Z</time></trkpt><trkpt lat="37.941684" lon="-2.9398085"><ele>1255.1666666666667</ele><time>2026-04-13T08:13:16.704Z</time></trkpt><trkpt lat="37.9416029" lon="-2.9397907"><ele>1256.3333333333333</ele><time>2026-04-13T08:13:17.704Z</time></trkpt><trkpt lat="37.941529" lon="-2.9397671"><ele>1257.5</ele><time>2026-04-13T08:13:18.703Z</time></trkpt><trkpt lat="37.9414697" lon="-2.9397393"><ele>1258.6666666666665</ele><time>2026-04-13T08:13:19.697Z</time></trkpt><trkpt lat="37.9414093" lon="-2.9396965"><ele>1259.8333333333333</ele><time>2026-04-13T08:13:21.617Z</time></trkpt><trkpt lat="37.9413476" lon="-2.9396479"><ele>1261.0</ele><time>2026-04-13T08:13:23.671Z</time></trkpt><trkpt lat="37.941277" lon="-2.9395539"><ele>1261.0</ele><time>2026-04-13T08:13:26.672Z</time></trkpt><trkpt lat="37.9412002" lon="-2.9394639"><ele>1261.0</ele><time>2026-04-13T08:13:28.671Z</time></trkpt><trkpt lat="37.9411031" lon="-2.9393748"><ele>1261.0</ele><time>2026-04-13T08:13:30.671Z</time></trkpt><trkpt lat="37.9409996" lon="-2.9392998"><ele>1261.0</ele><time>2026-04-13T08:13:32.671Z</time></trkpt><trkpt lat="37.9409362" lon="-2.9392728"><ele>1261.0</ele><time>2026-04-13T08:13:33.671Z</time></trkpt><trkpt lat="37.9408714" lon="-2.9392489"><ele>1262.142857142857</ele><time>2026-04-13T08:13:34.671Z</time></trkpt><trkpt lat="37.9408082" lon="-2.9392305"><ele>1263.2857142857142</ele><time>2026-04-13T08:13:35.671Z</time></trkpt><trkpt lat="37.9407387" lon="-2.9392241"><ele>1264.4285714285716</ele><time>2026-04-13T08:13:36.671Z</time></trkpt><trkpt lat="37.9406658" lon="-2.9392282"><ele>1265.5714285714284</ele><time>2026-04-13T08:13:37.671Z</time></trkpt><trkpt lat="37.9405909" lon="-2.9392411"><ele>1266.7142857142856</ele><time>2026-04-13T08:13:38.671Z</time></trkpt><trkpt lat="37.9405116" lon="-2.9392562"><ele>1267.857142857143</ele><time>2026-04-13T08:13:39.671Z</time></trkpt><trkpt lat="37.9404342" lon="-2.9392718"><ele>1269.0</ele><time>2026-04-13T08:13:40.671Z</time></trkpt><trkpt lat="37.9403509" lon="-2.9392915"><ele>1269.0</ele><time>2026-04-13T08:13:41.671Z</time></trkpt><trkpt lat="37.9402661" lon="-2.939309"><ele>1269.0</ele><time>2026-04-13T08:13:42.671Z</time></trkpt><trkpt lat="37.9401801" lon="-2.9393234"><ele>1269.0</ele><time>2026-04-13T08:13:43.671Z</time></trkpt><trkpt lat="37.9400954" lon="-2.9393442"><ele>1269.0</ele><time>2026-04-13T08:13:44.671Z</time></trkpt><trkpt lat="37.9400043" lon="-2.9393627"><ele>1269.0</ele><time>2026-04-13T08:13:45.671Z</time></trkpt><trkpt lat="37.9399117" lon="-2.9393752"><ele>1269.0</ele><time>2026-04-13T08:13:46.671Z</time></trkpt><trkpt lat="37.9398184" lon="-2.9393812"><ele>1267.2</ele><time>2026-04-13T08:13:47.671Z</time></trkpt><trkpt lat="37.9397253" lon="-2.9393752"><ele>1265.4</ele><time>2026-04-13T08:13:48.671Z</time></trkpt><trkpt lat="37.9396331" lon="-2.9393657"><ele>1263.6</ele><time>2026-04-13T08:13:49.671Z</time></trkpt><trkpt lat="37.9395394" lon="-2.939354"><ele>1261.8</ele><time>2026-04-13T08:13:50.671Z</time></trkpt><trkpt lat="37.9394506" lon="-2.9393435"><ele>1260.0</ele><time>2026-04-13T08:13:51.671Z</time></trkpt><trkpt lat="37.9393529" lon="-2.939337"><ele>1260.0</ele><time>2026-04-13T08:13:52.671Z</time></trkpt><trkpt lat="37.9392539" lon="-2.9393384"><ele>1260.0</ele><time>2026-04-13T08:13:53.671Z</time></trkpt><trkpt lat="37.9391551" lon="-2.9393507"><ele>1260.0</ele><time>2026-04-13T08:13:54.671Z</time></trkpt><trkpt lat="37.9390554" lon="-2.9393665"><ele>1260.0</ele><time>2026-04-13T08:13:55.671Z</time></trkpt><trkpt lat="37.9389545" lon="-2.9393897"><ele>1260.0</ele><time>2026-04-13T08:13:56.671Z</time></trkpt><trkpt lat="37.9388534" lon="-2.9394137"><ele>1258.2</ele><time>2026-04-13T08:13:57.671Z</time></trkpt><trkpt lat="37.9387552" lon="-2.9394343"><ele>1256.4</ele><time>2026-04-13T08:13:58.671Z</time></trkpt><trkpt lat="37.9386533" lon="-2.9394495"><ele>1254.6</ele><time>2026-04-13T08:13:59.671Z</time></trkpt><trkpt lat="37.9385515" lon="-2.9394497"><ele>1252.8</ele><time>2026-04-13T08:14:00.671Z</time></trkpt><trkpt lat="37.9384497" lon="-2.9394389"><ele>1251.0</ele><time>2026-04-13T08:14:01.671Z</time></trkpt><trkpt lat="37.93835" lon="-2.9394176"><ele>1250.0</ele><time>2026-04-13T08:14:02.671Z</time></trkpt><trkpt lat="37.9382491" lon="-2.9394036"><ele>1249.0</ele><time>2026-04-13T08:14:03.671Z</time></trkpt><trkpt lat="37.9381538" lon="-2.9393909"><ele>1248.0</ele><time>2026-04-13T08:14:04.671Z</time></trkpt><trkpt lat="37.9380654" lon="-2.9393797"><ele>1247.0</ele><time>2026-04-13T08:14:05.671Z</time></trkpt><trkpt lat="37.937972" lon="-2.9393701"><ele>1246.0</ele><time>2026-04-13T08:14:06.671Z</time></trkpt><trkpt lat="37.9378998" lon="-2.939371"><ele>1246.0</ele><time>2026-04-13T08:14:07.671Z</time></trkpt><trkpt lat="37.9378266" lon="-2.9394081"><ele>1246.0</ele><time>2026-04-13T08:14:08.672Z</time></trkpt><trkpt lat="37.9377639" lon="-2.9394602"><ele>1246.0</ele><time>2026-04-13T08:14:09.671Z</time></trkpt><trkpt lat="37.9377036" lon="-2.9395172"><ele>1246.0</ele><time>2026-04-13T08:14:10.671Z</time></trkpt><trkpt lat="37.9376586" lon="-2.9395784"><ele>1246.0</ele><time>2026-04-13T08:14:11.671Z</time></trkpt><trkpt lat="37.9375906" lon="-2.939675"><ele>1246.0</ele><time>2026-04-13T08:14:12.671Z</time></trkpt><trkpt lat="37.9375301" lon="-2.9397514"><ele>1245.0</ele><time>2026-04-13T08:14:13.671Z</time></trkpt><trkpt lat="37.9374557" lon="-2.9398201"><ele>1244.0</ele><time>2026-04-13T08:14:14.671Z</time></trkpt><trkpt lat="37.9373761" lon="-2.9398796"><ele>1243.0</ele><time>2026-04-13T08:14:15.671Z</time></trkpt><trkpt lat="37.9372928" lon="-2.9399332"><ele>1242.0</ele><time>2026-04-13T08:14:16.671Z</time></trkpt><trkpt lat="37.9372136" lon="-2.9399944"><ele>1241.0</ele><time>2026-04-13T08:14:17.671Z</time></trkpt><trkpt lat="37.9371495" lon="-2.9400548"><ele>1241.0</ele><time>2026-04-13T08:14:18.671Z</time></trkpt><trkpt lat="37.9370894" lon="-2.9401346"><ele>1241.0</ele><time>2026-04-13T08:14:19.671Z</time></trkpt><trkpt lat="37.9370471" lon="-2.9402263"><ele>1241.0</ele><time>2026-04-13T08:14:20.671Z</time></trkpt><trkpt lat="37.9370097" lon="-2.9403337"><ele>1241.0</ele><time>2026-04-13T08:14:21.671Z</time></trkpt><trkpt lat="37.9369789" lon="-2.9404493"><ele>1241.0</ele><time>2026-04-13T08:14:22.671Z</time></trkpt><trkpt lat="37.9369441" lon="-2.9405678"><ele>1241.0</ele><time>2026-04-13T08:14:23.671Z</time></trkpt><trkpt lat="37.9369187" lon="-2.9406909"><ele>1241.0</ele><time>2026-04-13T08:14:24.671Z</time></trkpt><trkpt lat="37.9368981" lon="-2.9408183"><ele>1241.0</ele><time>2026-04-13T08:14:25.671Z</time></trkpt><trkpt lat="37.9368791" lon="-2.9409495"><ele>1241.0</ele><time>2026-04-13T08:14:26.672Z</time></trkpt><trkpt lat="37.9368688" lon="-2.9410857"><ele>1241.0</ele><time>2026-04-13T08:14:27.671Z</time></trkpt><trkpt lat="37.9368604" lon="-2.9412179"><ele>1243.2</ele><time>2026-04-13T08:14:28.671Z</time></trkpt><trkpt lat="37.9368496" lon="-2.9413502"><ele>1245.3999999999999</ele><time>2026-04-13T08:14:29.671Z</time></trkpt><trkpt lat="37.9368363" lon="-2.9414863"><ele>1247.6</ele><time>2026-04-13T08:14:30.671Z</time></trkpt><trkpt lat="37.9368156" lon="-2.9416259"><ele>1249.8</ele><time>2026-04-13T08:14:31.671Z</time></trkpt><trkpt lat="37.9367779" lon="-2.9417625"><ele>1252.0</ele><time>2026-04-13T08:14:32.671Z</time></trkpt><trkpt lat="37.9367206" lon="-2.9418894"><ele>1247.4</ele><time>2026-04-13T08:14:33.671Z</time></trkpt><trkpt lat="37.9366595" lon="-2.9420128"><ele>1242.8000000000002</ele><time>2026-04-13T08:14:34.671Z</time></trkpt><trkpt lat="37.9366031" lon="-2.942129"><ele>1238.2</ele><time>2026-04-13T08:14:35.671Z</time></trkpt><trkpt lat="37.9365506" lon="-2.9422329"><ele>1233.6000000000001</ele><time>2026-04-13T08:14:36.671Z</time></trkpt><trkpt lat="37.9364858" lon="-2.9423267"><ele>1229.0</ele><time>2026-04-13T08:14:37.671Z</time></trkpt><trkpt lat="37.9364076" lon="-2.9424027"><ele>1229.0</ele><time>2026-04-13T08:14:38.671Z</time></trkpt><trkpt lat="37.9363182" lon="-2.9424515"><ele>1229.0</ele><time>2026-04-13T08:14:39.672Z</time></trkpt><trkpt lat="37.9362261" lon="-2.9424955"><ele>1229.0</ele><time>2026-04-13T08:14:40.671Z</time></trkpt><trkpt lat="37.9361378" lon="-2.9425475"><ele>1229.0</ele><time>2026-04-13T08:14:41.671Z</time></trkpt><trkpt lat="37.9360513" lon="-2.9426063"><ele>1229.0</ele><time>2026-04-13T08:14:42.671Z</time></trkpt><trkpt lat="37.9359661" lon="-2.9426749"><ele>1228.2</ele><time>2026-04-13T08:14:43.671Z</time></trkpt><trkpt lat="37.9358854" lon="-2.942756"><ele>1227.4</ele><time>2026-04-13T08:14:44.671Z</time></trkpt><trkpt lat="37.9358055" lon="-2.9428416"><ele>1226.6</ele><time>2026-04-13T08:14:45.671Z</time></trkpt><trkpt lat="37.9357264" lon="-2.9429339"><ele>1225.8</ele><time>2026-04-13T08:14:46.671Z</time></trkpt><trkpt lat="37.9356488" lon="-2.943026"><ele>1225.0</ele><time>2026-04-13T08:14:47.671Z</time></trkpt><trkpt lat="37.9355693" lon="-2.9431102"><ele>1225.0</ele><time>2026-04-13T08:14:48.671Z</time></trkpt><trkpt lat="37.935481" lon="-2.9431823"><ele>1225.0</ele><time>2026-04-13T08:14:49.671Z</time></trkpt><trkpt lat="37.9353878" lon="-2.9432363"><ele>1225.0</ele><time>2026-04-13T08:14:50.671Z</time></trkpt><trkpt lat="37.9352889" lon="-2.9432756"><ele>1225.0</ele><time>2026-04-13T08:14:51.671Z</time></trkpt><trkpt lat="37.9351865" lon="-2.9433086"><ele>1225.0</ele><time>2026-04-13T08:14:52.671Z</time></trkpt><trkpt lat="37.9350814" lon="-2.9433432"><ele>1224.2</ele><time>2026-04-13T08:14:53.671Z</time></trkpt><trkpt lat="37.9349761" lon="-2.9433756"><ele>1223.4</ele><time>2026-04-13T08:14:54.671Z</time></trkpt><trkpt lat="37.9348768" lon="-2.9434091"><ele>1222.6</ele><time>2026-04-13T08:14:55.671Z</time></trkpt><trkpt lat="37.934785" lon="-2.9434562"><ele>1221.8</ele><time>2026-04-13T08:14:56.671Z</time></trkpt><trkpt lat="37.9347028" lon="-2.943531"><ele>1221.0</ele><time>2026-04-13T08:14:57.671Z</time></trkpt><trkpt lat="37.9346318" lon="-2.9436244"><ele>1221.0</ele><time>2026-04-13T08:14:58.671Z</time></trkpt><trkpt lat="37.9345791" lon="-2.9437308"><ele>1221.0</ele><time>2026-04-13T08:14:59.671Z</time></trkpt><trkpt lat="37.9345396" lon="-2.9438503"><ele>1221.0</ele><time>2026-04-13T08:15:00.671Z</time></trkpt><trkpt lat="37.9345146" lon="-2.9439648"><ele>1221.0</ele><time>2026-04-13T08:15:01.671Z</time></trkpt><trkpt lat="37.9344856" lon="-2.9440716"><ele>1221.0</ele><time>2026-04-13T08:15:02.671Z</time></trkpt><trkpt lat="37.9344335" lon="-2.9441682"><ele>1218.6</ele><time>2026-04-13T08:15:03.671Z</time></trkpt><trkpt lat="37.9343616" lon="-2.9442502"><ele>1216.1999999999998</ele><time>2026-04-13T08:15:04.671Z</time></trkpt><trkpt lat="37.9342803" lon="-2.9443198"><ele>1213.8000000000002</ele><time>2026-04-13T08:15:05.671Z</time></trkpt><trkpt lat="37.9341919" lon="-2.9443903"><ele>1211.4</ele><time>2026-04-13T08:15:06.671Z</time></trkpt><trkpt lat="37.9341026" lon="-2.9444607"><ele>1209.0</ele><time>2026-04-13T08:15:07.671Z</time></trkpt><trkpt lat="37.9340105" lon="-2.9445294"><ele>1209.0</ele><time>2026-04-13T08:15:08.671Z</time></trkpt><trkpt lat="37.9339161" lon="-2.9446065"><ele>1209.0</ele><time>2026-04-13T08:15:09.671Z</time></trkpt><trkpt lat="37.9338245" lon="-2.9446848"><ele>1209.0</ele><time>2026-04-13T08:15:10.671Z</time></trkpt><trkpt lat="37.93373" lon="-2.9447604"><ele>1209.0</ele><time>2026-04-13T08:15:11.671Z</time></trkpt><trkpt lat="37.9336384" lon="-2.9448467"><ele>1209.0</ele><time>2026-04-13T08:15:12.671Z</time></trkpt><trkpt lat="37.9335519" lon="-2.9449403"><ele>1209.0</ele><time>2026-04-13T08:15:13.671Z</time></trkpt><trkpt lat="37.9334755" lon="-2.945043"><ele>1209.0</ele><time>2026-04-13T08:15:14.671Z</time></trkpt><trkpt lat="37.9333969" lon="-2.94515"><ele>1209.0</ele><time>2026-04-13T08:15:15.671Z</time></trkpt><trkpt lat="37.9333169" lon="-2.9452558"><ele>1209.0</ele><time>2026-04-13T08:15:16.671Z</time></trkpt><trkpt lat="37.9332345" lon="-2.9453605"><ele>1206.8</ele><time>2026-04-13T08:15:17.671Z</time></trkpt><trkpt lat="37.9331525" lon="-2.9454612"><ele>1204.6000000000001</ele><time>2026-04-13T08:15:18.671Z</time></trkpt><trkpt lat="37.9330685" lon="-2.9455533"><ele>1202.4</ele><time>2026-04-13T08:15:19.671Z</time></trkpt><trkpt lat="37.9329778" lon="-2.9456219"><ele>1200.2</ele><time>2026-04-13T08:15:20.671Z</time></trkpt><trkpt lat="37.9328807" lon="-2.9456812"><ele>1198.0</ele><time>2026-04-13T08:15:21.671Z</time></trkpt><trkpt lat="37.9327761" lon="-2.9457104"><ele>1198.0</ele><time>2026-04-13T08:15:22.671Z</time></trkpt><trkpt lat="37.9326786" lon="-2.9457371"><ele>1198.0</ele><time>2026-04-13T08:15:23.671Z</time></trkpt><trkpt lat="37.9325847" lon="-2.9457783"><ele>1198.0</ele><time>2026-04-13T08:15:24.671Z</time></trkpt><trkpt lat="37.9324994" lon="-2.9458347"><ele>1198.0</ele><time>2026-04-13T08:15:25.671Z</time></trkpt><trkpt lat="37.9324205" lon="-2.9459187"><ele>1198.0</ele><time>2026-04-13T08:15:26.671Z</time></trkpt><trkpt lat="37.9323437" lon="-2.9460014"><ele>1198.0</ele><time>2026-04-13T08:15:27.671Z</time></trkpt><trkpt lat="37.932267" lon="-2.9460817"><ele>1198.0</ele><time>2026-04-13T08:15:28.671Z</time></trkpt><trkpt lat="37.9321884" lon="-2.9461557"><ele>1198.0</ele><time>2026-04-13T08:15:29.671Z</time></trkpt><trkpt lat="37.9320974" lon="-2.9462218"><ele>1198.0</ele><time>2026-04-13T08:15:30.671Z</time></trkpt><trkpt lat="37.9320058" lon="-2.9462826"><ele>1198.0</ele><time>2026-04-13T08:15:31.671Z</time></trkpt><trkpt lat="37.9319167" lon="-2.9463472"><ele>1198.0</ele><time>2026-04-13T08:15:32.671Z</time></trkpt><trkpt lat="37.9318219" lon="-2.9464111"><ele>1198.0</ele><time>2026-04-13T08:15:33.671Z</time></trkpt><trkpt lat="37.931733" lon="-2.9464694"><ele>1198.0</ele><time>2026-04-13T08:15:34.671Z</time></trkpt><trkpt lat="37.9316408" lon="-2.9465358"><ele>1198.0</ele><time>2026-04-13T08:15:35.671Z</time></trkpt><trkpt lat="37.9315566" lon="-2.9466083"><ele>1198.0</ele><time>2026-04-13T08:15:36.671Z</time></trkpt><trkpt lat="37.9314856" lon="-2.9466978"><ele>1197.6</ele><time>2026-04-13T08:15:37.671Z</time></trkpt><trkpt lat="37.931434" lon="-2.9468042"><ele>1197.1999999999998</ele><time>2026-04-13T08:15:38.671Z</time></trkpt><trkpt lat="37.9313873" lon="-2.9469131"><ele>1196.8</ele><time>2026-04-13T08:15:39.671Z</time></trkpt><trkpt lat="37.9313372" lon="-2.9470173"><ele>1196.3999999999999</ele><time>2026-04-13T08:15:40.671Z</time></trkpt><trkpt lat="37.9312741" lon="-2.9471105"><ele>1196.0</ele><time>2026-04-13T08:15:41.671Z</time></trkpt><trkpt lat="37.9311879" lon="-2.947173"><ele>1196.0</ele><time>2026-04-13T08:15:42.671Z</time></trkpt><trkpt lat="37.9310965" lon="-2.9472322"><ele>1196.0</ele><time>2026-04-13T08:15:43.671Z</time></trkpt><trkpt lat="37.9310003" lon="-2.9472924"><ele>1196.0</ele><time>2026-04-13T08:15:44.671Z</time></trkpt><trkpt lat="37.9309207" lon="-2.9473547"><ele>1196.0</ele><time>2026-04-13T08:15:45.671Z</time></trkpt><trkpt lat="37.9308376" lon="-2.9474103"><ele>1196.0</ele><time>2026-04-13T08:15:46.671Z</time></trkpt><trkpt lat="37.930748" lon="-2.9474189"><ele>1195.0</ele><time>2026-04-13T08:15:47.671Z</time></trkpt><trkpt lat="37.9306636" lon="-2.9474017"><ele>1194.0</ele><time>2026-04-13T08:15:48.671Z</time></trkpt><trkpt lat="37.9305802" lon="-2.9473753"><ele>1193.0</ele><time>2026-04-13T08:15:49.672Z</time></trkpt><trkpt lat="37.9305058" lon="-2.9473803"><ele>1192.0</ele><time>2026-04-13T08:15:50.671Z</time></trkpt><trkpt lat="37.9304289" lon="-2.9474104"><ele>1191.0</ele><time>2026-04-13T08:15:51.671Z</time></trkpt><trkpt lat="37.930365" lon="-2.9474785"><ele>1190.0</ele><time>2026-04-13T08:15:52.671Z</time></trkpt><trkpt lat="37.9303114" lon="-2.9475613"><ele>1190.0</ele><time>2026-04-13T08:15:53.671Z</time></trkpt><trkpt lat="37.9302684" lon="-2.947665"><ele>1190.0</ele><time>2026-04-13T08:15:54.672Z</time></trkpt><trkpt lat="37.9302266" lon="-2.9477785"><ele>1190.0</ele><time>2026-04-13T08:15:55.671Z</time></trkpt><trkpt lat="37.9301897" lon="-2.9478875"><ele>1190.0</ele><time>2026-04-13T08:15:56.671Z</time></trkpt><trkpt lat="37.9301743" lon="-2.9479933"><ele>1190.0</ele><time>2026-04-13T08:15:57.671Z</time></trkpt><trkpt lat="37.9301651" lon="-2.9480987"><ele>1190.0</ele><time>2026-04-13T08:15:58.671Z</time></trkpt><trkpt lat="37.9301618" lon="-2.9482011"><ele>1190.0</ele><time>2026-04-13T08:15:59.671Z</time></trkpt><trkpt lat="37.9301495" lon="-2.9482971"><ele>1190.0</ele><time>2026-04-13T08:16:00.671Z</time></trkpt><trkpt lat="37.9301183" lon="-2.9483908"><ele>1190.0</ele><time>2026-04-13T08:16:01.671Z</time></trkpt><trkpt lat="37.9300664" lon="-2.9484789"><ele>1190.0</ele><time>2026-04-13T08:16:02.671Z</time></trkpt><trkpt lat="37.9300059" lon="-2.9485591"><ele>1190.0</ele><time>2026-04-13T08:16:03.671Z</time></trkpt><trkpt lat="37.9299386" lon="-2.9486395"><ele>1187.0</ele><time>2026-04-13T08:16:04.671Z</time></trkpt><trkpt lat="37.9298657" lon="-2.9487279"><ele>1184.0</ele><time>2026-04-13T08:16:05.671Z</time></trkpt><trkpt lat="37.9297916" lon="-2.9488152"><ele>1181.0</ele><time>2026-04-13T08:16:06.671Z</time></trkpt><trkpt lat="37.9297172" lon="-2.9489034"><ele>1178.0</ele><time>2026-04-13T08:16:07.671Z</time></trkpt><trkpt lat="37.9296435" lon="-2.9489898"><ele>1175.0</ele><time>2026-04-13T08:16:08.671Z</time></trkpt><trkpt lat="37.9295697" lon="-2.9490659"><ele>1175.0</ele><time>2026-04-13T08:16:09.671Z</time></trkpt><trkpt lat="37.9294946" lon="-2.9491235"><ele>1175.0</ele><time>2026-04-13T08:16:10.671Z</time></trkpt><trkpt lat="37.9294123" lon="-2.9491556"><ele>1175.0</ele><time>2026-04-13T08:16:11.671Z</time></trkpt><trkpt lat="37.9293232" lon="-2.9491621"><ele>1175.0</ele><time>2026-04-13T08:16:12.671Z</time></trkpt><trkpt lat="37.929243" lon="-2.9491445"><ele>1175.0</ele><time>2026-04-13T08:16:13.671Z</time></trkpt><trkpt lat="37.9291639" lon="-2.949122"><ele>1175.0</ele><time>2026-04-13T08:16:14.671Z</time></trkpt><trkpt lat="37.9290843" lon="-2.9491077"><ele>1177.4</ele><time>2026-04-13T08:16:15.671Z</time></trkpt><trkpt lat="37.9290007" lon="-2.9491089"><ele>1179.8</ele><time>2026-04-13T08:16:16.671Z</time></trkpt><trkpt lat="37.928914" lon="-2.9491304"><ele>1182.2</ele><time>2026-04-13T08:16:17.671Z</time></trkpt><trkpt lat="37.9288287" lon="-2.9491671"><ele>1184.6</ele><time>2026-04-13T08:16:18.671Z</time></trkpt><trkpt lat="37.9287437" lon="-2.9492138"><ele>1187.0</ele><time>2026-04-13T08:16:19.671Z</time></trkpt><trkpt lat="37.9286548" lon="-2.9492633"><ele>1187.0</ele><time>2026-04-13T08:16:20.671Z</time></trkpt><trkpt lat="37.9285634" lon="-2.9493108"><ele>1187.0</ele><time>2026-04-13T08:16:21.671Z</time></trkpt><trkpt lat="37.9284749" lon="-2.9493555"><ele>1187.0</ele><time>2026-04-13T08:16:22.671Z</time></trkpt><trkpt lat="37.9283936" lon="-2.9493971"><ele>1187.0</ele><time>2026-04-13T08:16:23.671Z</time></trkpt><trkpt lat="37.9283116" lon="-2.9494253"><ele>1187.0</ele><time>2026-04-13T08:16:24.671Z</time></trkpt><trkpt lat="37.9282251" lon="-2.9494266"><ele>1186.6666666666667</ele><time>2026-04-13T08:16:25.671Z</time></trkpt><trkpt lat="37.9281397" lon="-2.9493983"><ele>1186.3333333333335</ele><time>2026-04-13T08:16:26.672Z</time></trkpt><trkpt lat="37.928057" lon="-2.949357"><ele>1186.0</ele><time>2026-04-13T08:16:27.671Z</time></trkpt><trkpt lat="37.9279729" lon="-2.9493115"><ele>1185.6666666666667</ele><time>2026-04-13T08:16:28.671Z</time></trkpt><trkpt lat="37.9278892" lon="-2.949272"><ele>1185.3333333333333</ele><time>2026-04-13T08:16:29.671Z</time></trkpt><trkpt lat="37.92781" lon="-2.9492532"><ele>1185.0</ele><time>2026-04-13T08:16:30.671Z</time></trkpt><trkpt lat="37.927726" lon="-2.9492589"><ele>1185.0</ele><time>2026-04-13T08:16:31.671Z</time></trkpt><trkpt lat="37.9276438" lon="-2.9492955"><ele>1185.0</ele><time>2026-04-13T08:16:32.672Z</time></trkpt><trkpt lat="37.9275712" lon="-2.949357"><ele>1185.0</ele><time>2026-04-13T08:16:33.671Z</time></trkpt><trkpt lat="37.9274979" lon="-2.94943"><ele>1185.0</ele><time>2026-04-13T08:16:34.671Z</time></trkpt><trkpt lat="37.9274243" lon="-2.949505"><ele>1185.0</ele><time>2026-04-13T08:16:35.671Z</time></trkpt><trkpt lat="37.9273472" lon="-2.9495688"><ele>1181.4</ele><time>2026-04-13T08:16:36.671Z</time></trkpt><trkpt lat="37.9272627" lon="-2.9496174"><ele>1177.8</ele><time>2026-04-13T08:16:37.671Z</time></trkpt><trkpt lat="37.9271801" lon="-2.9496654"><ele>1174.2</ele><time>2026-04-13T08:16:38.671Z</time></trkpt><trkpt lat="37.9271016" lon="-2.9497175"><ele>1170.6</ele><time>2026-04-13T08:16:39.671Z</time></trkpt><trkpt lat="37.9270256" lon="-2.9497783"><ele>1167.0</ele><time>2026-04-13T08:16:40.671Z</time></trkpt><trkpt lat="37.926958" lon="-2.9498522"><ele>1167.0</ele><time>2026-04-13T08:16:41.671Z</time></trkpt><trkpt lat="37.9268958" lon="-2.9499312"><ele>1167.0</ele><time>2026-04-13T08:16:42.671Z</time></trkpt><trkpt lat="37.9268346" lon="-2.9500068"><ele>1167.0</ele><time>2026-04-13T08:16:43.671Z</time></trkpt><trkpt lat="37.9267819" lon="-2.9500737"><ele>1167.0</ele><time>2026-04-13T08:16:44.671Z</time></trkpt><trkpt lat="37.9267091" lon="-2.9501645"><ele>1167.0</ele><time>2026-04-13T08:16:46.671Z</time></trkpt><trkpt lat="37.9266543" lon="-2.9502323"><ele>1167.0</ele><time>2026-04-13T08:16:48.671Z</time></trkpt><trkpt lat="37.9265748" lon="-2.9503025"><ele>1170.2</ele><time>2026-04-13T08:16:50.671Z</time></trkpt><trkpt lat="37.9264479" lon="-2.9503525"><ele>1173.4</ele><time>2026-04-13T08:16:52.671Z</time></trkpt><trkpt lat="37.9263744" lon="-2.9503764"><ele>1176.6</ele><time>2026-04-13T08:16:53.671Z</time></trkpt><trkpt lat="37.9262988" lon="-2.9504165"><ele>1179.8</ele><time>2026-04-13T08:16:54.671Z</time></trkpt><trkpt lat="37.9262261" lon="-2.9504642"><ele>1183.0</ele><time>2026-04-13T08:16:55.671Z</time></trkpt><trkpt lat="37.9261464" lon="-2.9505171"><ele>1183.0</ele><time>2026-04-13T08:16:56.671Z</time></trkpt><trkpt lat="37.9260624" lon="-2.9505756"><ele>1183.0</ele><time>2026-04-13T08:16:57.671Z</time></trkpt><trkpt lat="37.9259764" lon="-2.9506377"><ele>1183.0</ele><time>2026-04-13T08:16:58.671Z</time></trkpt><trkpt lat="37.9258882" lon="-2.9507003"><ele>1183.0</ele><time>2026-04-13T08:16:59.671Z</time></trkpt><trkpt lat="37.9257961" lon="-2.9507649"><ele>1183.0</ele><time>2026-04-13T08:17:00.671Z</time></trkpt><trkpt lat="37.9257071" lon="-2.9508328"><ele>1182.0</ele><time>2026-04-13T08:17:01.671Z</time></trkpt><trkpt lat="37.9256189" lon="-2.9509111"><ele>1181.0</ele><time>2026-04-13T08:17:02.671Z</time></trkpt><trkpt lat="37.9255329" lon="-2.9509939"><ele>1180.0</ele><time>2026-04-13T08:17:03.671Z</time></trkpt><trkpt lat="37.9254509" lon="-2.9510749"><ele>1179.0</ele><time>2026-04-13T08:17:04.671Z</time></trkpt><trkpt lat="37.9253713" lon="-2.9511573"><ele>1178.0</ele><time>2026-04-13T08:17:05.671Z</time></trkpt><trkpt lat="37.9252963" lon="-2.9512488"><ele>1178.0</ele><time>2026-04-13T08:17:06.671Z</time></trkpt><trkpt lat="37.9252225" lon="-2.9513472"><ele>1178.0</ele><time>2026-04-13T08:17:07.671Z</time></trkpt><trkpt lat="37.9251478" lon="-2.9514534"><ele>1178.0</ele><time>2026-04-13T08:17:08.671Z</time></trkpt><trkpt lat="37.9250754" lon="-2.951553"><ele>1178.0</ele><time>2026-04-13T08:17:09.671Z</time></trkpt><trkpt lat="37.9249982" lon="-2.9516519"><ele>1178.0</ele><time>2026-04-13T08:17:10.671Z</time></trkpt><trkpt lat="37.9249202" lon="-2.9517253"><ele>1177.8</ele><time>2026-04-13T08:17:11.671Z</time></trkpt><trkpt lat="37.9248312" lon="-2.9517921"><ele>1177.6</ele><time>2026-04-13T08:17:12.671Z</time></trkpt><trkpt lat="37.9247325" lon="-2.9518422"><ele>1177.4</ele><time>2026-04-13T08:17:13.671Z</time></trkpt><trkpt lat="37.9246424" lon="-2.9518756"><ele>1177.2</ele><time>2026-04-13T08:17:14.671Z</time></trkpt><trkpt lat="37.9245357" lon="-2.9519155"><ele>1177.0</ele><time>2026-04-13T08:17:15.671Z</time></trkpt><trkpt lat="37.9244392" lon="-2.9519523"><ele>1177.0</ele><time>2026-04-13T08:17:16.671Z</time></trkpt><trkpt lat="37.9243488" lon="-2.9519953"><ele>1177.0</ele><time>2026-04-13T08:17:17.671Z</time></trkpt><trkpt lat="37.9242646" lon="-2.9520456"><ele>1177.0</ele><time>2026-04-13T08:17:18.671Z</time></trkpt><trkpt lat="37.924186" lon="-2.9521074"><ele>1177.0</ele><time>2026-04-13T08:17:19.671Z</time></trkpt><trkpt lat="37.9241001" lon="-2.9521569"><ele>1177.0</ele><time>2026-04-13T08:17:20.671Z</time></trkpt><trkpt lat="37.9240105" lon="-2.9521826"><ele>1171.4</ele><time>2026-04-13T08:17:21.671Z</time></trkpt><trkpt lat="37.923913" lon="-2.9521708"><ele>1165.8000000000002</ele><time>2026-04-13T08:17:22.671Z</time></trkpt><trkpt lat="37.9238159" lon="-2.9521325"><ele>1160.2</ele><time>2026-04-13T08:17:23.671Z</time></trkpt><trkpt lat="37.9237195" lon="-2.9520813"><ele>1154.6000000000001</ele><time>2026-04-13T08:17:24.671Z</time></trkpt><trkpt lat="37.9236231" lon="-2.95203"><ele>1149.0</ele><time>2026-04-13T08:17:25.671Z</time></trkpt><trkpt lat="37.9235351" lon="-2.9519852"><ele>1149.0</ele><time>2026-04-13T08:17:26.671Z</time></trkpt><trkpt lat="37.9234517" lon="-2.9519513"><ele>1149.0</ele><time>2026-04-13T08:17:27.671Z</time></trkpt><trkpt lat="37.9233729" lon="-2.951928"><ele>1149.0</ele><time>2026-04-13T08:17:28.671Z</time></trkpt><trkpt lat="37.9232992" lon="-2.9519183"><ele>1149.0</ele><time>2026-04-13T08:17:29.671Z</time></trkpt><trkpt lat="37.9232195" lon="-2.9519516"><ele>1149.0</ele><time>2026-04-13T08:17:30.671Z</time></trkpt><trkpt lat="37.9231435" lon="-2.9520107"><ele>1149.0</ele><time>2026-04-13T08:17:31.672Z</time></trkpt><trkpt lat="37.9230633" lon="-2.9520831"><ele>1147.0</ele><time>2026-04-13T08:17:32.671Z</time></trkpt><trkpt lat="37.9229864" lon="-2.9521553"><ele>1145.0</ele><time>2026-04-13T08:17:33.671Z</time></trkpt><trkpt lat="37.922905" lon="-2.95223"><ele>1143.0</ele><time>2026-04-13T08:17:34.671Z</time></trkpt><trkpt lat="37.9228241" lon="-2.9523073"><ele>1141.0</ele><time>2026-04-13T08:17:35.671Z</time></trkpt><trkpt lat="37.9227394" lon="-2.9523842"><ele>1139.0</ele><time>2026-04-13T08:17:36.671Z</time></trkpt><trkpt lat="37.9226526" lon="-2.9524605"><ele>1140.8</ele><time>2026-04-13T08:17:37.671Z</time></trkpt><trkpt lat="37.9225639" lon="-2.9525387"><ele>1142.6000000000001</ele><time>2026-04-13T08:17:38.671Z</time></trkpt><trkpt lat="37.9224764" lon="-2.952617"><ele>1144.4</ele><time>2026-04-13T08:17:39.671Z</time></trkpt><trkpt lat="37.9223905" lon="-2.9526933"><ele>1146.2</ele><time>2026-04-13T08:17:40.671Z</time></trkpt><trkpt lat="37.9223058" lon="-2.952771"><ele>1148.0</ele><time>2026-04-13T08:17:41.671Z</time></trkpt><trkpt lat="37.9222209" lon="-2.9528502"><ele>1148.0</ele><time>2026-04-13T08:17:42.671Z</time></trkpt><trkpt lat="37.9221358" lon="-2.9529163"><ele>1148.0</ele><time>2026-04-13T08:17:43.671Z</time></trkpt><trkpt lat="37.9220465" lon="-2.952979"><ele>1148.0</ele><time>2026-04-13T08:17:44.671Z</time></trkpt><trkpt lat="37.921957" lon="-2.9530384"><ele>1148.0</ele><time>2026-04-13T08:17:45.671Z</time></trkpt><trkpt lat="37.9218649" lon="-2.953093"><ele>1148.0</ele><time>2026-04-13T08:17:46.671Z</time></trkpt><trkpt lat="37.9217705" lon="-2.9531422"><ele>1143.4</ele><time>2026-04-13T08:17:47.672Z</time></trkpt><trkpt lat="37.9216737" lon="-2.9531776"><ele>1138.8</ele><time>2026-04-13T08:17:48.671Z</time></trkpt><trkpt lat="37.9215723" lon="-2.9531916"><ele>1134.2</ele><time>2026-04-13T08:17:49.671Z</time></trkpt><trkpt lat="37.9214737" lon="-2.9531828"><ele>1129.6</ele><time>2026-04-13T08:17:50.671Z</time></trkpt><trkpt lat="37.9213726" lon="-2.9531573"><ele>1125.0</ele><time>2026-04-13T08:17:51.671Z</time></trkpt><trkpt lat="37.9212759" lon="-2.953134"><ele>1125.0</ele><time>2026-04-13T08:17:52.671Z</time></trkpt><trkpt lat="37.9211804" lon="-2.9531331"><ele>1125.0</ele><time>2026-04-13T08:17:53.671Z</time></trkpt><trkpt lat="37.9210803" lon="-2.9531382"><ele>1125.0</ele><time>2026-04-13T08:17:54.671Z</time></trkpt><trkpt lat="37.9209809" lon="-2.9531679"><ele>1125.0</ele><time>2026-04-13T08:17:55.671Z</time></trkpt><trkpt lat="37.9208839" lon="-2.9531949"><ele>1125.0</ele><time>2026-04-13T08:17:56.671Z</time></trkpt><trkpt lat="37.920797" lon="-2.9532219"><ele>1121.8</ele><time>2026-04-13T08:17:57.671Z</time></trkpt><trkpt lat="37.9207068" lon="-2.953245"><ele>1118.6</ele><time>2026-04-13T08:17:58.671Z</time></trkpt><trkpt lat="37.9206179" lon="-2.9532529"><ele>1115.4</ele><time>2026-04-13T08:17:59.671Z</time></trkpt><trkpt lat="37.920522" lon="-2.9532246"><ele>1112.2</ele><time>2026-04-13T08:18:00.671Z</time></trkpt><trkpt lat="37.9204288" lon="-2.9531817"><ele>1109.0</ele><time>2026-04-13T08:18:01.671Z</time></trkpt><trkpt lat="37.9203355" lon="-2.9531314"><ele>1109.0</ele><time>2026-04-13T08:18:02.671Z</time></trkpt><trkpt lat="37.9202355" lon="-2.953088"><ele>1109.0</ele><time>2026-04-13T08:18:03.671Z</time></trkpt><trkpt lat="37.9201298" lon="-2.9530534"><ele>1109.0</ele><time>2026-04-13T08:18:04.671Z</time></trkpt><trkpt lat="37.9200216" lon="-2.9530272"><ele>1109.0</ele><time>2026-04-13T08:18:05.671Z</time></trkpt><trkpt lat="37.9199177" lon="-2.9530035"><ele>1109.0</ele><time>2026-04-13T08:18:06.671Z</time></trkpt><trkpt lat="37.9198209" lon="-2.9529899"><ele>1109.0</ele><time>2026-04-13T08:18:07.671Z</time></trkpt><trkpt lat="37.9197154" lon="-2.9529946"><ele>1109.0</ele><time>2026-04-13T08:18:08.671Z</time></trkpt><trkpt lat="37.9196123" lon="-2.9530178"><ele>1109.0</ele><time>2026-04-13T08:18:09.671Z</time></trkpt><trkpt lat="37.9195138" lon="-2.9530658"><ele>1109.0</ele><time>2026-04-13T08:18:10.671Z</time></trkpt><trkpt lat="37.9194243" lon="-2.9531266"><ele>1109.0</ele><time>2026-04-13T08:18:11.671Z</time></trkpt><trkpt lat="37.9193393" lon="-2.9531965"><ele>1109.0</ele><time>2026-04-13T08:18:12.671Z</time></trkpt><trkpt lat="37.9192607" lon="-2.9532676"><ele>1109.0</ele><time>2026-04-13T08:18:13.671Z</time></trkpt><trkpt lat="37.9191957" lon="-2.9533412"><ele>1109.0</ele><time>2026-04-13T08:18:14.671Z</time></trkpt><trkpt lat="37.9191508" lon="-2.9534261"><ele>1109.0</ele><time>2026-04-13T08:18:15.671Z</time></trkpt><trkpt lat="37.9191205" lon="-2.9535214"><ele>1109.0</ele><time>2026-04-13T08:18:16.671Z</time></trkpt><trkpt lat="37.9190951" lon="-2.9536137"><ele>1109.0</ele><time>2026-04-13T08:18:17.671Z</time></trkpt><trkpt lat="37.9190679" lon="-2.9536987"><ele>1110.8333333333335</ele><time>2026-04-13T08:18:18.671Z</time></trkpt><trkpt lat="37.9190236" lon="-2.9537689"><ele>1112.6666666666667</ele><time>2026-04-13T08:18:19.671Z</time></trkpt><trkpt lat="37.918964" lon="-2.9538189"><ele>1114.5</ele><time>2026-04-13T08:18:20.671Z</time></trkpt><trkpt lat="37.9188922" lon="-2.9538412"><ele>1116.3333333333333</ele><time>2026-04-13T08:18:21.671Z</time></trkpt><trkpt lat="37.9188184" lon="-2.9538148"><ele>1118.1666666666665</ele><time>2026-04-13T08:18:22.671Z</time></trkpt><trkpt lat="37.9187489" lon="-2.9537582"><ele>1120.0</ele><time>2026-04-13T08:18:23.671Z</time></trkpt><trkpt lat="37.9186781" lon="-2.9536924"><ele>1120.0</ele><time>2026-04-13T08:18:24.671Z</time></trkpt><trkpt lat="37.9186042" lon="-2.9536267"><ele>1120.0</ele><time>2026-04-13T08:18:25.671Z</time></trkpt><trkpt lat="37.9185235" lon="-2.9535817"><ele>1120.0</ele><time>2026-04-13T08:18:26.671Z</time></trkpt><trkpt lat="37.9184352" lon="-2.9535611"><ele>1120.0</ele><time>2026-04-13T08:18:27.671Z</time></trkpt><trkpt lat="37.9183423" lon="-2.9535598"><ele>1120.0</ele><time>2026-04-13T08:18:28.671Z</time></trkpt><trkpt lat="37.9182456" lon="-2.9535715"><ele>1118.1666666666665</ele><time>2026-04-13T08:18:29.671Z</time></trkpt><trkpt lat="37.9181472" lon="-2.9535863"><ele>1116.3333333333333</ele><time>2026-04-13T08:18:30.671Z</time></trkpt><trkpt lat="37.9180568" lon="-2.9536047"><ele>1114.5</ele><time>2026-04-13T08:18:31.671Z</time></trkpt><trkpt lat="37.9179744" lon="-2.9536305"><ele>1112.6666666666667</ele><time>2026-04-13T08:18:32.671Z</time></trkpt><trkpt lat="37.9179028" lon="-2.9536776"><ele>1110.8333333333335</ele><time>2026-04-13T08:18:33.671Z</time></trkpt><trkpt lat="37.91784" lon="-2.9537365"><ele>1109.0</ele><time>2026-04-13T08:18:34.671Z</time></trkpt><trkpt lat="37.9177795" lon="-2.9538029"><ele>1109.0</ele><time>2026-04-13T08:18:35.671Z</time></trkpt><trkpt lat="37.9177183" lon="-2.9538645"><ele>1109.0</ele><time>2026-04-13T08:18:36.671Z</time></trkpt><trkpt lat="37.9176485" lon="-2.9539002"><ele>1109.0</ele><time>2026-04-13T08:18:37.671Z</time></trkpt><trkpt lat="37.9175714" lon="-2.9539148"><ele>1109.0</ele><time>2026-04-13T08:18:38.671Z</time></trkpt><trkpt lat="37.9174967" lon="-2.9539028"><ele>1109.0</ele><time>2026-04-13T08:18:39.671Z</time></trkpt><trkpt lat="37.9174259" lon="-2.9538901"><ele>1109.0</ele><time>2026-04-13T08:18:40.671Z</time></trkpt><trkpt lat="37.9173495" lon="-2.9538855"><ele>1107.0</ele><time>2026-04-13T08:18:41.671Z</time></trkpt><trkpt lat="37.9172682" lon="-2.9539038"><ele>1105.0</ele><time>2026-04-13T08:18:42.671Z</time></trkpt><trkpt lat="37.9171968" lon="-2.9539403"><ele>1103.0</ele><time>2026-04-13T08:18:43.672Z</time></trkpt><trkpt lat="37.917131" lon="-2.953992"><ele>1101.0</ele><time>2026-04-13T08:18:44.671Z</time></trkpt><trkpt lat="37.9170727" lon="-2.9540671"><ele>1099.0</ele><time>2026-04-13T08:18:45.671Z</time></trkpt><trkpt lat="37.917017" lon="-2.9541371"><ele>1097.0</ele><time>2026-04-13T08:18:46.671Z</time></trkpt><trkpt lat="37.9169624" lon="-2.9542077"><ele>1094.6</ele><time>2026-04-13T08:18:47.671Z</time></trkpt><trkpt lat="37.9169086" lon="-2.9542656"><ele>1092.2</ele><time>2026-04-13T08:18:48.671Z</time></trkpt><trkpt lat="37.9168551" lon="-2.9543094"><ele>1089.8</ele><time>2026-04-13T08:18:49.671Z</time></trkpt><trkpt lat="37.9167439" lon="-2.9543275"><ele>1087.4</ele><time>2026-04-13T08:18:51.672Z</time></trkpt><trkpt lat="37.9166577" lon="-2.9542607"><ele>1085.0</ele><time>2026-04-13T08:18:53.671Z</time></trkpt><trkpt lat="37.9166314" lon="-2.9541146"><ele>1085.0</ele><time>2026-04-13T08:18:55.671Z</time></trkpt><trkpt lat="37.9166341" lon="-2.954032"><ele>1085.0</ele><time>2026-04-13T08:18:56.671Z</time></trkpt><trkpt lat="37.916636" lon="-2.9539391"><ele>1085.0</ele><time>2026-04-13T08:18:57.671Z</time></trkpt><trkpt lat="37.9166362" lon="-2.9538401"><ele>1085.0</ele><time>2026-04-13T08:18:58.671Z</time></trkpt><trkpt lat="37.9166341" lon="-2.9537396"><ele>1085.0</ele><time>2026-04-13T08:18:59.671Z</time></trkpt><trkpt lat="37.9166333" lon="-2.9536347"><ele>1085.0</ele><time>2026-04-13T08:19:00.67Z</time></trkpt><trkpt lat="37.916637" lon="-2.9535292"><ele>1085.0</ele><time>2026-04-13T08:19:01.671Z</time></trkpt><trkpt lat="37.9166404" lon="-2.9534229"><ele>1085.0</ele><time>2026-04-13T08:19:02.672Z</time></trkpt><trkpt lat="37.9166378" lon="-2.9533102"><ele>1085.0</ele><time>2026-04-13T08:19:03.671Z</time></trkpt><trkpt lat="37.9166394" lon="-2.9531984"><ele>1085.0</ele><time>2026-04-13T08:19:04.671Z</time></trkpt><trkpt lat="37.9166378" lon="-2.9530834"><ele>1085.0</ele><time>2026-04-13T08:19:05.671Z</time></trkpt><trkpt lat="37.916644" lon="-2.9529756"><ele>1085.0</ele><time>2026-04-13T08:19:06.671Z</time></trkpt><trkpt lat="37.9166591" lon="-2.9528529"><ele>1083.4</ele><time>2026-04-13T08:19:07.671Z</time></trkpt><trkpt lat="37.9166871" lon="-2.9527363"><ele>1081.8</ele><time>2026-04-13T08:19:08.671Z</time></trkpt><trkpt lat="37.9167312" lon="-2.9526284"><ele>1080.2</ele><time>2026-04-13T08:19:09.671Z</time></trkpt><trkpt lat="37.9167921" lon="-2.9525363"><ele>1078.6</ele><time>2026-04-13T08:19:10.671Z</time></trkpt><trkpt lat="37.9168527" lon="-2.9524424"><ele>1077.0</ele><time>2026-04-13T08:19:11.671Z</time></trkpt><trkpt lat="37.9168987" lon="-2.952343"><ele>1074.1666666666667</ele><time>2026-04-13T08:19:12.671Z</time></trkpt><trkpt lat="37.9169287" lon="-2.9522397"><ele>1071.3333333333333</ele><time>2026-04-13T08:19:13.671Z</time></trkpt><trkpt lat="37.9169478" lon="-2.9521269"><ele>1068.5</ele><time>2026-04-13T08:19:14.671Z</time></trkpt><trkpt lat="37.9169368" lon="-2.9520097"><ele>1065.6666666666665</ele><time>2026-04-13T08:19:15.671Z</time></trkpt><trkpt lat="37.9169106" lon="-2.9519045"><ele>1062.8333333333333</ele><time>2026-04-13T08:19:16.671Z</time></trkpt><trkpt lat="37.9168771" lon="-2.9518086"><ele>1060.0</ele><time>2026-04-13T08:19:17.671Z</time></trkpt><trkpt lat="37.9168484" lon="-2.9517232"><ele>1059.6666666666665</ele><time>2026-04-13T08:19:18.671Z</time></trkpt><trkpt lat="37.9168371" lon="-2.9516212"><ele>1059.3333333333333</ele><time>2026-04-13T08:19:19.671Z</time></trkpt><trkpt lat="37.9168465" lon="-2.9515265"><ele>1059.0</ele><time>2026-04-13T08:19:20.671Z</time></trkpt><trkpt lat="37.9168697" lon="-2.9514258"><ele>1058.6666666666667</ele><time>2026-04-13T08:19:21.671Z</time></trkpt><trkpt lat="37.9169186" lon="-2.9513341"><ele>1058.3333333333335</ele><time>2026-04-13T08:19:22.671Z</time></trkpt><trkpt lat="37.91699" lon="-2.9512687"><ele>1058.0</ele><time>2026-04-13T08:19:23.671Z</time></trkpt><trkpt lat="37.9170743" lon="-2.9512289"><ele>1058.0</ele><time>2026-04-13T08:19:24.671Z</time></trkpt><trkpt lat="37.9171618" lon="-2.9512112"><ele>1058.0</ele><time>2026-04-13T08:19:25.671Z</time></trkpt><trkpt lat="37.9172525" lon="-2.9512198"><ele>1058.0</ele><time>2026-04-13T08:19:26.671Z</time></trkpt><trkpt lat="37.9173436" lon="-2.9512493"><ele>1058.0</ele><time>2026-04-13T08:19:27.671Z</time></trkpt><trkpt lat="37.9174368" lon="-2.9512832"><ele>1058.0</ele><time>2026-04-13T08:19:28.671Z</time></trkpt><trkpt lat="37.917531" lon="-2.9513155"><ele>1055.2</ele><time>2026-04-13T08:19:29.671Z</time></trkpt><trkpt lat="37.9176282" lon="-2.9513353"><ele>1052.4</ele><time>2026-04-13T08:19:30.671Z</time></trkpt><trkpt lat="37.9177257" lon="-2.9513434"><ele>1049.6000000000001</ele><time>2026-04-13T08:19:31.671Z</time></trkpt><trkpt lat="37.9178201" lon="-2.9513277"><ele>1046.8</ele><time>2026-04-13T08:19:32.671Z</time></trkpt><trkpt lat="37.9179144" lon="-2.9512934"><ele>1044.0</ele><time>2026-04-13T08:19:33.671Z</time></trkpt><trkpt lat="37.918005" lon="-2.9512421"><ele>1044.0</ele><time>2026-04-13T08:19:34.671Z</time></trkpt><trkpt lat="37.9180978" lon="-2.9511772"><ele>1044.0</ele><time>2026-04-13T08:19:35.671Z</time></trkpt><trkpt lat="37.9181924" lon="-2.9511094"><ele>1044.0</ele><time>2026-04-13T08:19:36.671Z</time></trkpt><trkpt lat="37.9182896" lon="-2.9510447"><ele>1044.0</ele><time>2026-04-13T08:19:37.671Z</time></trkpt><trkpt lat="37.9183881" lon="-2.9509769"><ele>1044.0</ele><time>2026-04-13T08:19:38.671Z</time></trkpt><trkpt lat="37.9184844" lon="-2.9509045"><ele>1041.75</ele><time>2026-04-13T08:19:39.671Z</time></trkpt><trkpt lat="37.9185814" lon="-2.950829"><ele>1039.5</ele><time>2026-04-13T08:19:40.671Z</time></trkpt><trkpt lat="37.9186791" lon="-2.9507547"><ele>1037.25</ele><time>2026-04-13T08:19:41.671Z</time></trkpt><trkpt lat="37.9187762" lon="-2.9506785"><ele>1035.0</ele><time>2026-04-13T08:19:42.671Z</time></trkpt><trkpt lat="37.9188705" lon="-2.9506084"><ele>1035.0</ele><time>2026-04-13T08:19:43.671Z</time></trkpt><trkpt lat="37.9189692" lon="-2.9505328"><ele>1035.0</ele><time>2026-04-13T08:19:44.671Z</time></trkpt><trkpt lat="37.9190669" lon="-2.9504551"><ele>1035.0</ele><time>2026-04-13T08:19:45.671Z</time></trkpt><trkpt lat="37.9191449" lon="-2.9503914"><ele>1035.0</ele><time>2026-04-13T08:19:46.671Z</time></trkpt><trkpt lat="37.9192153" lon="-2.9503271"><ele>1035.0</ele><time>2026-04-13T08:19:47.671Z</time></trkpt><trkpt lat="37.9192708" lon="-2.9502461"><ele>1035.3333333333333</ele><time>2026-04-13T08:19:48.671Z</time></trkpt><trkpt lat="37.919305" lon="-2.9501486"><ele>1035.6666666666667</ele><time>2026-04-13T08:19:49.671Z</time></trkpt><trkpt lat="37.9193176" lon="-2.9500417"><ele>1036.0</ele><time>2026-04-13T08:19:50.671Z</time></trkpt><trkpt lat="37.9193111" lon="-2.9499245"><ele>1036.3333333333335</ele><time>2026-04-13T08:19:51.671Z</time></trkpt><trkpt lat="37.9192793" lon="-2.9498213"><ele>1036.6666666666667</ele><time>2026-04-13T08:19:52.671Z</time></trkpt><trkpt lat="37.919225" lon="-2.9497346"><ele>1037.0</ele><time>2026-04-13T08:19:53.671Z</time></trkpt><trkpt lat="37.9191548" lon="-2.9496654"><ele>1037.0</ele><time>2026-04-13T08:19:54.671Z</time></trkpt><trkpt lat="37.9190812" lon="-2.9495969"><ele>1037.0</ele><time>2026-04-13T08:19:55.671Z</time></trkpt><trkpt lat="37.9190166" lon="-2.9495231"><ele>1037.0</ele><time>2026-04-13T08:19:56.671Z</time></trkpt><trkpt lat="37.918968" lon="-2.9494393"><ele>1037.0</ele><time>2026-04-13T08:19:57.671Z</time></trkpt><trkpt lat="37.918934" lon="-2.9493532"><ele>1037.0</ele><time>2026-04-13T08:19:58.671Z</time></trkpt><trkpt lat="37.9189197" lon="-2.9492565"><ele>1037.0</ele><time>2026-04-13T08:19:59.671Z</time></trkpt><trkpt lat="37.9189247" lon="-2.949159"><ele>1035.6</ele><time>2026-04-13T08:20:00.671Z</time></trkpt><trkpt lat="37.9189557" lon="-2.9490648"><ele>1034.2</ele><time>2026-04-13T08:20:01.671Z</time></trkpt><trkpt lat="37.9190055" lon="-2.9489722"><ele>1032.8</ele><time>2026-04-13T08:20:02.671Z</time></trkpt><trkpt lat="37.919066" lon="-2.9488742"><ele>1031.4</ele><time>2026-04-13T08:20:03.671Z</time></trkpt><trkpt lat="37.9191401" lon="-2.9487766"><ele>1030.0</ele><time>2026-04-13T08:20:04.671Z</time></trkpt><trkpt lat="37.9192283" lon="-2.9486854"><ele>1029.0</ele><time>2026-04-13T08:20:05.671Z</time></trkpt><trkpt lat="37.9193244" lon="-2.9486021"><ele>1028.0</ele><time>2026-04-13T08:20:06.671Z</time></trkpt><trkpt lat="37.9194218" lon="-2.9485171"><ele>1027.0</ele><time>2026-04-13T08:20:07.672Z</time></trkpt><trkpt lat="37.9195193" lon="-2.948437"><ele>1026.0</ele><time>2026-04-13T08:20:08.671Z</time></trkpt><trkpt lat="37.9196057" lon="-2.9483658"><ele>1026.0</ele><time>2026-04-13T08:20:09.671Z</time></trkpt><trkpt lat="37.9196912" lon="-2.9483191"><ele>1026.0</ele><time>2026-04-13T08:20:10.671Z</time></trkpt><trkpt lat="37.9197829" lon="-2.9482991"><ele>1026.0</ele><time>2026-04-13T08:20:11.671Z</time></trkpt><trkpt lat="37.9198748" lon="-2.9483098"><ele>1026.0</ele><time>2026-04-13T08:20:12.671Z</time></trkpt><trkpt lat="37.9199725" lon="-2.9483443"><ele>1026.0</ele><time>2026-04-13T08:20:13.671Z</time></trkpt><trkpt lat="37.9200719" lon="-2.9483918"><ele>1023.1999999999999</ele><time>2026-04-13T08:20:14.671Z</time></trkpt><trkpt lat="37.9201683" lon="-2.9484412"><ele>1020.3999999999999</ele><time>2026-04-13T08:20:15.671Z</time></trkpt><trkpt lat="37.9202695" lon="-2.9484954"><ele>1017.6</ele><time>2026-04-13T08:20:16.671Z</time></trkpt><trkpt lat="37.9203662" lon="-2.9485481"><ele>1014.8</ele><time>2026-04-13T08:20:17.671Z</time></trkpt><trkpt lat="37.9204613" lon="-2.9485972"><ele>1012.0</ele><time>2026-04-13T08:20:18.671Z</time></trkpt><trkpt lat="37.920559" lon="-2.9486512"><ele>1012.0</ele><time>2026-04-13T08:20:19.671Z</time></trkpt><trkpt lat="37.9206532" lon="-2.9487014"><ele>1012.0</ele><time>2026-04-13T08:20:20.671Z</time></trkpt><trkpt lat="37.920749" lon="-2.9487451"><ele>1012.0</ele><time>2026-04-13T08:20:21.671Z</time></trkpt><trkpt lat="37.9208485" lon="-2.948777"><ele>1012.0</ele><time>2026-04-13T08:20:22.671Z</time></trkpt><trkpt lat="37.9209472" lon="-2.9487896"><ele>1012.0</ele><time>2026-04-13T08:20:23.671Z</time></trkpt><trkpt lat="37.9210549" lon="-2.9487818"><ele>1010.8</ele><time>2026-04-13T08:20:24.671Z</time></trkpt><trkpt lat="37.9211605" lon="-2.9487567"><ele>1009.6</ele><time>2026-04-13T08:20:25.671Z</time></trkpt><trkpt lat="37.9212677" lon="-2.9487214"><ele>1008.3999999999999</ele><time>2026-04-13T08:20:26.671Z</time></trkpt><trkpt lat="37.9213714" lon="-2.9486915"><ele>1007.1999999999999</ele><time>2026-04-13T08:20:27.671Z</time></trkpt><trkpt lat="37.9214674" lon="-2.9486632"><ele>1006.0</ele><time>2026-04-13T08:20:28.671Z</time></trkpt><trkpt lat="37.9215584" lon="-2.9486384"><ele>1006.0</ele><time>2026-04-13T08:20:29.671Z</time></trkpt><trkpt lat="37.9216493" lon="-2.9486016"><ele>1005.9999999999999</ele><time>2026-04-13T08:20:30.671Z</time></trkpt><trkpt lat="37.9217314" lon="-2.9485405"><ele>1005.9999999999999</ele><time>2026-04-13T08:20:31.671Z</time></trkpt><trkpt lat="37.9218101" lon="-2.9484653"><ele>1006.0</ele><time>2026-04-13T08:20:32.671Z</time></trkpt><trkpt lat="37.9218896" lon="-2.948383"><ele>1006.0</ele><time>2026-04-13T08:20:33.671Z</time></trkpt><trkpt lat="37.9219763" lon="-2.9483097"><ele>1003.1999999999999</ele><time>2026-04-13T08:20:34.671Z</time></trkpt><trkpt lat="37.9220691" lon="-2.9482461"><ele>1000.3999999999999</ele><time>2026-04-13T08:20:35.671Z</time></trkpt><trkpt lat="37.9221576" lon="-2.9481858"><ele>997.6</ele><time>2026-04-13T08:20:36.671Z</time></trkpt><trkpt lat="37.9222353" lon="-2.9481277"><ele>994.8</ele><time>2026-04-13T08:20:37.671Z</time></trkpt><trkpt lat="37.9223034" lon="-2.9480603"><ele>992.0</ele><time>2026-04-13T08:20:38.671Z</time></trkpt><trkpt lat="37.9223565" lon="-2.9479721"><ele>992.0</ele><time>2026-04-13T08:20:39.671Z</time></trkpt><trkpt lat="37.9223993" lon="-2.9478685"><ele>992.0</ele><time>2026-04-13T08:20:40.671Z</time></trkpt><trkpt lat="37.9224372" lon="-2.9477537"><ele>992.0</ele><time>2026-04-13T08:20:41.671Z</time></trkpt><trkpt lat="37.922481" lon="-2.9476332"><ele>992.0</ele><time>2026-04-13T08:20:42.671Z</time></trkpt><trkpt lat="37.922538" lon="-2.9475176"><ele>992.0</ele><time>2026-04-13T08:20:43.671Z</time></trkpt><trkpt lat="37.9226049" lon="-2.9474065"><ele>990.4000000000001</ele><time>2026-04-13T08:20:44.671Z</time></trkpt><trkpt lat="37.9226844" lon="-2.9473087"><ele>988.8000000000001</ele><time>2026-04-13T08:20:45.671Z</time></trkpt><trkpt lat="37.9227688" lon="-2.9472209"><ele>987.2</ele><time>2026-04-13T08:20:46.671Z</time></trkpt><trkpt lat="37.9228427" lon="-2.947134"><ele>985.6</ele><time>2026-04-13T08:20:47.671Z</time></trkpt><trkpt lat="37.9229105" lon="-2.9470286"><ele>984.0</ele><time>2026-04-13T08:20:48.671Z</time></trkpt><trkpt lat="37.9229694" lon="-2.9469232"><ele>984.0</ele><time>2026-04-13T08:20:49.671Z</time></trkpt><trkpt lat="37.9230224" lon="-2.9468119"><ele>984.0000000000001</ele><time>2026-04-13T08:20:50.671Z</time></trkpt><trkpt lat="37.9230753" lon="-2.9466962"><ele>984.0000000000001</ele><time>2026-04-13T08:20:51.671Z</time></trkpt><trkpt lat="37.9231283" lon="-2.9465835"><ele>984.0</ele><time>2026-04-13T08:20:52.671Z</time></trkpt><trkpt lat="37.9231787" lon="-2.9464818"><ele>984.0</ele><time>2026-04-13T08:20:53.671Z</time></trkpt><trkpt lat="37.9232346" lon="-2.9463811"><ele>984.6</ele><time>2026-04-13T08:20:54.671Z</time></trkpt><trkpt lat="37.9232981" lon="-2.946286"><ele>985.2</ele><time>2026-04-13T08:20:55.671Z</time></trkpt><trkpt lat="37.9233784" lon="-2.9462"><ele>985.8000000000001</ele><time>2026-04-13T08:20:56.671Z</time></trkpt><trkpt lat="37.923468" lon="-2.9461196"><ele>986.4000000000001</ele><time>2026-04-13T08:20:57.671Z</time></trkpt><trkpt lat="37.9235565" lon="-2.9460505"><ele>987.0</ele><time>2026-04-13T08:20:58.671Z</time></trkpt><trkpt lat="37.9236475" lon="-2.9459808"><ele>985.6</ele><time>2026-04-13T08:20:59.671Z</time></trkpt><trkpt lat="37.9237356" lon="-2.9459094"><ele>984.2</ele><time>2026-04-13T08:21:00.671Z</time></trkpt><trkpt lat="37.9238224" lon="-2.9458299"><ele>982.8</ele><time>2026-04-13T08:21:01.671Z</time></trkpt><trkpt lat="37.9239159" lon="-2.9457539"><ele>981.4</ele><time>2026-04-13T08:21:02.671Z</time></trkpt><trkpt lat="37.9240021" lon="-2.9456679"><ele>980.0</ele><time>2026-04-13T08:21:03.671Z</time></trkpt><trkpt lat="37.9240854" lon="-2.9455804"><ele>979.2</ele><time>2026-04-13T08:21:04.672Z</time></trkpt><trkpt lat="37.9241708" lon="-2.9454975"><ele>978.4</ele><time>2026-04-13T08:21:05.671Z</time></trkpt><trkpt lat="37.924251" lon="-2.9454183"><ele>977.5999999999999</ele><time>2026-04-13T08:21:06.671Z</time></trkpt><trkpt lat="37.9243287" lon="-2.9453433"><ele>976.8</ele><time>2026-04-13T08:21:07.671Z</time></trkpt><trkpt lat="37.9244022" lon="-2.9452701"><ele>976.0</ele><time>2026-04-13T08:21:08.671Z</time></trkpt><trkpt lat="37.9244696" lon="-2.9452039"><ele>975.1999999999999</ele><time>2026-04-13T08:21:09.671Z</time></trkpt><trkpt lat="37.9245306" lon="-2.945127"><ele>974.3999999999999</ele><time>2026-04-13T08:21:10.671Z</time></trkpt><trkpt lat="37.9245844" lon="-2.9450325"><ele>973.6</ele><time>2026-04-13T08:21:11.672Z</time></trkpt><trkpt lat="37.9246265" lon="-2.9449231"><ele>972.8</ele><time>2026-04-13T08:21:12.671Z</time></trkpt><trkpt lat="37.924656" lon="-2.9448004"><ele>972.0</ele><time>2026-04-13T08:21:13.671Z</time></trkpt><trkpt lat="37.9246766" lon="-2.9446602"><ele>971.0</ele><time>2026-04-13T08:21:14.671Z</time></trkpt><trkpt lat="37.9247044" lon="-2.9445224"><ele>970.0</ele><time>2026-04-13T08:21:15.671Z</time></trkpt><trkpt lat="37.92474" lon="-2.9443865"><ele>969.0</ele><time>2026-04-13T08:21:16.671Z</time></trkpt><trkpt lat="37.9247887" lon="-2.9442539"><ele>968.0</ele><time>2026-04-13T08:21:17.671Z</time></trkpt><trkpt lat="37.9248509" lon="-2.9441325"><ele>968.0</ele><time>2026-04-13T08:21:18.671Z</time></trkpt><trkpt lat="37.9249345" lon="-2.9440274"><ele>968.0</ele><time>2026-04-13T08:21:19.671Z</time></trkpt><trkpt lat="37.9250306" lon="-2.9439363"><ele>968.0</ele><time>2026-04-13T08:21:20.671Z</time></trkpt><trkpt lat="37.9251132" lon="-2.9438445"><ele>968.0</ele><time>2026-04-13T08:21:21.671Z</time></trkpt><trkpt lat="37.9251887" lon="-2.9437424"><ele>964.0</ele><time>2026-04-13T08:21:22.671Z</time></trkpt><trkpt lat="37.9252579" lon="-2.9436271"><ele>960.0</ele><time>2026-04-13T08:21:23.671Z</time></trkpt><trkpt lat="37.9253177" lon="-2.9435057"><ele>956.0</ele><time>2026-04-13T08:21:24.671Z</time></trkpt><trkpt lat="37.9253805" lon="-2.943379"><ele>952.0</ele><time>2026-04-13T08:21:25.671Z</time></trkpt><trkpt lat="37.9254468" lon="-2.9432581"><ele>952.0</ele><time>2026-04-13T08:21:26.671Z</time></trkpt><trkpt lat="37.9255143" lon="-2.9431317"><ele>952.0</ele><time>2026-04-13T08:21:27.671Z</time></trkpt><trkpt lat="37.925581" lon="-2.9430024"><ele>952.0</ele><time>2026-04-13T08:21:28.671Z</time></trkpt><trkpt lat="37.9256414" lon="-2.9428674"><ele>952.0</ele><time>2026-04-13T08:21:29.671Z</time></trkpt><trkpt lat="37.9257005" lon="-2.942746"><ele>952.0</ele><time>2026-04-13T08:21:30.671Z</time></trkpt><trkpt lat="37.9257482" lon="-2.9426425"><ele>952.0</ele><time>2026-04-13T08:21:31.671Z</time></trkpt><trkpt lat="37.9257989" lon="-2.94254"><ele>952.0</ele><time>2026-04-13T08:21:32.671Z</time></trkpt><trkpt lat="37.925853" lon="-2.9424344"><ele>952.0</ele><time>2026-04-13T08:21:33.671Z</time></trkpt><trkpt lat="37.9259059" lon="-2.9423272"><ele>952.0</ele><time>2026-04-13T08:21:34.671Z</time></trkpt><trkpt lat="37.9259553" lon="-2.9422116"><ele>948.2</ele><time>2026-04-13T08:21:35.671Z</time></trkpt><trkpt lat="37.9259967" lon="-2.9420831"><ele>944.4000000000001</ele><time>2026-04-13T08:21:36.671Z</time></trkpt><trkpt lat="37.9260213" lon="-2.9419459"><ele>940.5999999999999</ele><time>2026-04-13T08:21:37.671Z</time></trkpt><trkpt lat="37.9260308" lon="-2.9418061"><ele>936.8</ele><time>2026-04-13T08:21:38.671Z</time></trkpt><trkpt lat="37.9260454" lon="-2.9416653"><ele>933.0</ele><time>2026-04-13T08:21:39.671Z</time></trkpt><trkpt lat="37.9260582" lon="-2.9415217"><ele>932.0</ele><time>2026-04-13T08:21:40.671Z</time></trkpt><trkpt lat="37.9260699" lon="-2.9413903"><ele>931.0</ele><time>2026-04-13T08:21:41.671Z</time></trkpt><trkpt lat="37.9260787" lon="-2.9412618"><ele>930.0</ele><time>2026-04-13T08:21:42.671Z</time></trkpt><trkpt lat="37.926078" lon="-2.9411402"><ele>929.0</ele><time>2026-04-13T08:21:43.671Z</time></trkpt><trkpt lat="37.9260664" lon="-2.9410356"><ele>928.0</ele><time>2026-04-13T08:21:44.671Z</time></trkpt><trkpt lat="37.9260423" lon="-2.9409375"><ele>926.2</ele><time>2026-04-13T08:21:45.671Z</time></trkpt><trkpt lat="37.9259983" lon="-2.9408364"><ele>924.4</ele><time>2026-04-13T08:21:46.672Z</time></trkpt><trkpt lat="37.9259394" lon="-2.9407441"><ele>922.6000000000001</ele><time>2026-04-13T08:21:47.671Z</time></trkpt><trkpt lat="37.9258757" lon="-2.9406601"><ele>920.8000000000001</ele><time>2026-04-13T08:21:48.672Z</time></trkpt><trkpt lat="37.9258098" lon="-2.9405711"><ele>919.0</ele><time>2026-04-13T08:21:49.671Z</time></trkpt><trkpt lat="37.9257547" lon="-2.9404746"><ele>922.8000000000001</ele><time>2026-04-13T08:21:50.671Z</time></trkpt><trkpt lat="37.9257024" lon="-2.9403629"><ele>926.6000000000001</ele><time>2026-04-13T08:21:51.671Z</time></trkpt><trkpt lat="37.925671" lon="-2.9402365"><ele>930.4</ele><time>2026-04-13T08:21:52.671Z</time></trkpt><trkpt lat="37.9256625" lon="-2.9401025"><ele>934.2</ele><time>2026-04-13T08:21:53.671Z</time></trkpt><trkpt lat="37.9256717" lon="-2.9399704"><ele>938.0</ele><time>2026-04-13T08:21:54.671Z</time></trkpt><trkpt lat="37.9256951" lon="-2.9398439"><ele>938.0</ele><time>2026-04-13T08:21:55.671Z</time></trkpt><trkpt lat="37.9257398" lon="-2.9397097"><ele>938.0</ele><time>2026-04-13T08:21:56.671Z</time></trkpt><trkpt lat="37.9257887" lon="-2.9395789"><ele>938.0</ele><time>2026-04-13T08:21:57.671Z</time></trkpt><trkpt lat="37.9258363" lon="-2.9394637"><ele>938.0</ele><time>2026-04-13T08:21:58.671Z</time></trkpt><trkpt lat="37.9258731" lon="-2.9393561"><ele>938.0</ele><time>2026-04-13T08:21:59.671Z</time></trkpt><trkpt lat="37.9258993" lon="-2.9392403"><ele>937.8</ele><time>2026-04-13T08:22:00.671Z</time></trkpt><trkpt lat="37.925908" lon="-2.939126"><ele>937.5999999999999</ele><time>2026-04-13T08:22:01.671Z</time></trkpt><trkpt lat="37.9258978" lon="-2.939004"><ele>937.4000000000001</ele><time>2026-04-13T08:22:02.671Z</time></trkpt><trkpt lat="37.925891" lon="-2.9388739"><ele>937.2</ele><time>2026-04-13T08:22:03.671Z</time></trkpt><trkpt lat="37.9259023" lon="-2.9387491"><ele>937.0</ele><time>2026-04-13T08:22:04.671Z</time></trkpt><trkpt lat="37.9259272" lon="-2.9386264"><ele>936.6</ele><time>2026-04-13T08:22:05.671Z</time></trkpt><trkpt lat="37.9259497" lon="-2.9385101"><ele>936.2</ele><time>2026-04-13T08:22:06.671Z</time></trkpt><trkpt lat="37.925958" lon="-2.9383878"><ele>935.8</ele><time>2026-04-13T08:22:07.671Z</time></trkpt><trkpt lat="37.9259402" lon="-2.9382628"><ele>935.4</ele><time>2026-04-13T08:22:08.671Z</time></trkpt><trkpt lat="37.9259095" lon="-2.9381368"><ele>935.0</ele><time>2026-04-13T08:22:09.671Z</time></trkpt><trkpt lat="37.9258758" lon="-2.938012"><ele>935.0</ele><time>2026-04-13T08:22:10.671Z</time></trkpt><trkpt lat="37.925847" lon="-2.937889"><ele>935.0</ele><time>2026-04-13T08:22:11.671Z</time></trkpt><trkpt lat="37.9258429" lon="-2.9377533"><ele>935.0</ele><time>2026-04-13T08:22:12.671Z</time></trkpt><trkpt lat="37.9258553" lon="-2.9376157"><ele>935.0</ele><time>2026-04-13T08:22:13.671Z</time></trkpt><trkpt lat="37.9258705" lon="-2.9374823"><ele>935.0</ele><time>2026-04-13T08:22:14.671Z</time></trkpt><trkpt lat="37.9258829" lon="-2.9373562"><ele>929.0</ele><time>2026-04-13T08:22:15.671Z</time></trkpt><trkpt lat="37.9258953" lon="-2.9372337"><ele>923.0</ele><time>2026-04-13T08:22:16.671Z</time></trkpt><trkpt lat="37.9259123" lon="-2.9371183"><ele>917.0</ele><time>2026-04-13T08:22:17.671Z</time></trkpt><trkpt lat="37.9259331" lon="-2.9369807"><ele>911.0</ele><time>2026-04-13T08:22:18.671Z</time></trkpt><trkpt lat="37.9259571" lon="-2.9368453"><ele>905.0</ele><time>2026-04-13T08:22:19.671Z</time></trkpt><trkpt lat="37.92599" lon="-2.9367124"><ele>905.0</ele><time>2026-04-13T08:22:20.671Z</time></trkpt><trkpt lat="37.9260233" lon="-2.9365843"><ele>905.0</ele><time>2026-04-13T08:22:21.671Z</time></trkpt><trkpt lat="37.9260648" lon="-2.936457"><ele>905.0</ele><time>2026-04-13T08:22:22.671Z</time></trkpt><trkpt lat="37.9260994" lon="-2.9363436"><ele>905.0</ele><time>2026-04-13T08:22:23.671Z</time></trkpt><trkpt lat="37.9261347" lon="-2.9362485"><ele>905.0</ele><time>2026-04-13T08:22:24.671Z</time></trkpt><trkpt lat="37.9261729" lon="-2.9361792"><ele>905.0000000000001</ele><time>2026-04-13T08:22:25.671Z</time></trkpt><trkpt lat="37.9262224" lon="-2.9361246"><ele>905.0</ele><time>2026-04-13T08:22:26.671Z</time></trkpt><trkpt lat="37.9262801" lon="-2.9360723"><ele>905.0</ele><time>2026-04-13T08:22:27.671Z</time></trkpt><trkpt lat="37.9263476" lon="-2.9360212"><ele>905.0</ele><time>2026-04-13T08:22:28.671Z</time></trkpt><trkpt lat="37.9264184" lon="-2.9359517"><ele>905.0000000000001</ele><time>2026-04-13T08:22:29.671Z</time></trkpt><trkpt lat="37.9264929" lon="-2.9358795"><ele>905.0</ele><time>2026-04-13T08:22:30.671Z</time></trkpt><trkpt lat="37.92657" lon="-2.935803"><ele>906.2</ele><time>2026-04-13T08:22:31.671Z</time></trkpt><trkpt lat="37.9266432" lon="-2.935724"><ele>907.4</ele><time>2026-04-13T08:22:32.671Z</time></trkpt><trkpt lat="37.9266978" lon="-2.9356209"><ele>908.5999999999999</ele><time>2026-04-13T08:22:33.671Z</time></trkpt><trkpt lat="37.9267249" lon="-2.9355039"><ele>909.8</ele><time>2026-04-13T08:22:34.671Z</time></trkpt><trkpt lat="37.926734" lon="-2.9353813"><ele>911.0</ele><time>2026-04-13T08:22:35.671Z</time></trkpt><trkpt lat="37.9267438" lon="-2.9352595"><ele>907.5999999999999</ele><time>2026-04-13T08:22:36.671Z</time></trkpt><trkpt lat="37.9267645" lon="-2.9351371"><ele>904.1999999999999</ele><time>2026-04-13T08:22:37.671Z</time></trkpt><trkpt lat="37.9267997" lon="-2.9350218"><ele>900.8000000000001</ele><time>2026-04-13T08:22:38.671Z</time></trkpt><trkpt lat="37.926834" lon="-2.9349093"><ele>897.4000000000001</ele><time>2026-04-13T08:22:39.672Z</time></trkpt><trkpt lat="37.9268614" lon="-2.9347881"><ele>894.0</ele><time>2026-04-13T08:22:40.671Z</time></trkpt><trkpt lat="37.9268702" lon="-2.9346646"><ele>894.0</ele><time>2026-04-13T08:22:41.671Z</time></trkpt><trkpt lat="37.9268753" lon="-2.934539"><ele>894.0000000000001</ele><time>2026-04-13T08:22:42.671Z</time></trkpt><trkpt lat="37.9268709" lon="-2.9344134"><ele>894.0000000000001</ele><time>2026-04-13T08:22:43.671Z</time></trkpt><trkpt lat="37.9268599" lon="-2.9342892"><ele>894.0</ele><time>2026-04-13T08:22:44.671Z</time></trkpt><trkpt lat="37.9268535" lon="-2.9341653"><ele>894.0</ele><time>2026-04-13T08:22:45.671Z</time></trkpt><trkpt lat="37.9268435" lon="-2.9340418"><ele>893.0</ele><time>2026-04-13T08:22:46.671Z</time></trkpt><trkpt lat="37.9268266" lon="-2.9339212"><ele>892.0000000000001</ele><time>2026-04-13T08:22:47.671Z</time></trkpt><trkpt lat="37.9268035" lon="-2.9338011"><ele>891.0000000000001</ele><time>2026-04-13T08:22:48.671Z</time></trkpt><trkpt lat="37.9267733" lon="-2.9336755"><ele>890.0</ele><time>2026-04-13T08:22:49.671Z</time></trkpt><trkpt lat="37.9267447" lon="-2.9335485"><ele>889.0</ele><time>2026-04-13T08:22:50.671Z</time></trkpt><trkpt lat="37.926714" lon="-2.9334238"><ele>894.0</ele><time>2026-04-13T08:22:51.671Z</time></trkpt><trkpt lat="37.9266843" lon="-2.9333017"><ele>899.0000000000001</ele><time>2026-04-13T08:22:52.671Z</time></trkpt><trkpt lat="37.9266575" lon="-2.9331905"><ele>904.0000000000001</ele><time>2026-04-13T08:22:53.671Z</time></trkpt><trkpt lat="37.9266355" lon="-2.9330764"><ele>909.0</ele><time>2026-04-13T08:22:54.671Z</time></trkpt><trkpt lat="37.926628" lon="-2.932966"><ele>914.0</ele><time>2026-04-13T08:22:55.671Z</time></trkpt><trkpt lat="37.9266429" lon="-2.9328526"><ele>914.0</ele><time>2026-04-13T08:22:56.671Z</time></trkpt><trkpt lat="37.9266845" lon="-2.932746"><ele>914.0000000000001</ele><time>2026-04-13T08:22:57.671Z</time></trkpt><trkpt lat="37.926743" lon="-2.932664"><ele>914.0000000000001</ele><time>2026-04-13T08:22:58.672Z</time></trkpt><trkpt lat="37.926812" lon="-2.9325998"><ele>914.0</ele><time>2026-04-13T08:22:59.671Z</time></trkpt><trkpt lat="37.9268991" lon="-2.9325574"><ele>914.0</ele><time>2026-04-13T08:23:00.671Z</time></trkpt><trkpt lat="37.9269938" lon="-2.9325426"><ele>908.6</ele><time>2026-04-13T08:23:01.672Z</time></trkpt><trkpt lat="37.9270893" lon="-2.9325749"><ele>903.2</ele><time>2026-04-13T08:23:02.671Z</time></trkpt><trkpt lat="37.9271759" lon="-2.9326454"><ele>897.8000000000001</ele><time>2026-04-13T08:23:03.671Z</time></trkpt><trkpt lat="37.9272496" lon="-2.9327396"><ele>892.4000000000001</ele><time>2026-04-13T08:23:04.671Z</time></trkpt><trkpt lat="37.9273001" lon="-2.9328535"><ele>887.0</ele><time>2026-04-13T08:23:05.671Z</time></trkpt><trkpt lat="37.9273481" lon="-2.9329906"><ele>887.0</ele><time>2026-04-13T08:23:06.671Z</time></trkpt><trkpt lat="37.9273894" lon="-2.933125"><ele>887.0</ele><time>2026-04-13T08:23:07.671Z</time></trkpt><trkpt lat="37.9274272" lon="-2.9332475"><ele>887.0</ele><time>2026-04-13T08:23:08.671Z</time></trkpt><trkpt lat="37.9274743" lon="-2.933371"><ele>887.0</ele><time>2026-04-13T08:23:09.671Z</time></trkpt><trkpt lat="37.9275224" lon="-2.9334972"><ele>887.0</ele><time>2026-04-13T08:23:10.671Z</time></trkpt><trkpt lat="37.9275745" lon="-2.9336224"><ele>885.0000000000001</ele><time>2026-04-13T08:23:11.671Z</time></trkpt><trkpt lat="37.9276342" lon="-2.9337379"><ele>883.0</ele><time>2026-04-13T08:23:12.671Z</time></trkpt><trkpt lat="37.9276863" lon="-2.9338437"><ele>881.0</ele><time>2026-04-13T08:23:13.671Z</time></trkpt><trkpt lat="37.927746" lon="-2.9339354"><ele>879.0</ele><time>2026-04-13T08:23:14.671Z</time></trkpt><trkpt lat="37.9278026" lon="-2.9340017"><ele>877.0000000000001</ele><time>2026-04-13T08:23:15.671Z</time></trkpt><trkpt lat="37.9278588" lon="-2.9340498"><ele>875.0</ele><time>2026-04-13T08:23:16.671Z</time></trkpt><trkpt lat="37.9279242" lon="-2.9340741"><ele>875.0</ele><time>2026-04-13T08:23:17.672Z</time></trkpt><trkpt lat="37.9279907" lon="-2.9340859"><ele>875.0</ele><time>2026-04-13T08:23:18.671Z</time></trkpt><trkpt lat="37.9281098" lon="-2.93406"><ele>875.0</ele><time>2026-04-13T08:23:20.671Z</time></trkpt><trkpt lat="37.9281926" lon="-2.9339677"><ele>875.0</ele><time>2026-04-13T08:23:22.671Z</time></trkpt><trkpt lat="37.9282437" lon="-2.9338607"><ele>875.0</ele><time>2026-04-13T08:23:24.671Z</time></trkpt><trkpt lat="37.9282591" lon="-2.9337376"><ele>875.0</ele><time>2026-04-13T08:23:26.671Z</time></trkpt><trkpt lat="37.9282501" lon="-2.9336123"><ele>875.0</ele><time>2026-04-13T08:23:28.671Z</time></trkpt><trkpt lat="37.9282129" lon="-2.9334832"><ele>875.0</ele><time>2026-04-13T08:23:30.671Z</time></trkpt><trkpt lat="37.9281734" lon="-2.9334054"><ele>875.0</ele><time>2026-04-13T08:23:31.671Z</time></trkpt><trkpt lat="37.9280883" lon="-2.9332857"><ele>875.0</ele><time>2026-04-13T08:23:33.671Z</time></trkpt><trkpt lat="37.9280385" lon="-2.9332175"><ele>874.3333333333334</ele><time>2026-04-13T08:23:34.671Z</time></trkpt><trkpt lat="37.9279885" lon="-2.9331404"><ele>873.6666666666667</ele><time>2026-04-13T08:23:35.671Z</time></trkpt><trkpt lat="37.9279508" lon="-2.9330637"><ele>873.0</ele><time>2026-04-13T08:23:36.671Z</time></trkpt><trkpt lat="37.9279239" lon="-2.9329783"><ele>872.3333333333333</ele><time>2026-04-13T08:23:37.671Z</time></trkpt><trkpt lat="37.9279273" lon="-2.9328722"><ele>871.6666666666666</ele><time>2026-04-13T08:23:38.671Z</time></trkpt><trkpt lat="37.9279281" lon="-2.9327616"><ele>871.0</ele><time>2026-04-13T08:23:39.671Z</time></trkpt><trkpt lat="37.927935" lon="-2.9326468"><ele>869.8</ele><time>2026-04-13T08:23:40.671Z</time></trkpt><trkpt lat="37.9279398" lon="-2.932529"><ele>868.5999999999999</ele><time>2026-04-13T08:23:41.671Z</time></trkpt><trkpt lat="37.9279422" lon="-2.9324062"><ele>867.4</ele><time>2026-04-13T08:23:42.671Z</time></trkpt><trkpt lat="37.9279427" lon="-2.9322866"><ele>866.2</ele><time>2026-04-13T08:23:43.671Z</time></trkpt><trkpt lat="37.9279221" lon="-2.9321776"><ele>865.0</ele><time>2026-04-13T08:23:44.671Z</time></trkpt><trkpt lat="37.9278784" lon="-2.9320839"><ele>864.9999999999999</ele><time>2026-04-13T08:23:45.671Z</time></trkpt><trkpt lat="37.927822" lon="-2.9319971"><ele>865.0</ele><time>2026-04-13T08:23:46.671Z</time></trkpt><trkpt lat="37.9277633" lon="-2.9319091"><ele>865.0</ele><time>2026-04-13T08:23:47.671Z</time></trkpt><trkpt lat="37.9277048" lon="-2.9318236"><ele>865.0</ele><time>2026-04-13T08:23:48.671Z</time></trkpt><trkpt lat="37.9276498" lon="-2.9317401"><ele>864.9999999999999</ele><time>2026-04-13T08:23:49.671Z</time></trkpt><trkpt lat="37.9276066" lon="-2.9316535"><ele>865.0</ele><time>2026-04-13T08:23:50.671Z</time></trkpt><trkpt lat="37.9275741" lon="-2.9315443"><ele>865.6</ele><time>2026-04-13T08:23:51.671Z</time></trkpt><trkpt lat="37.9275598" lon="-2.9314294"><ele>866.2</ele><time>2026-04-13T08:23:52.671Z</time></trkpt><trkpt lat="37.9275634" lon="-2.9313092"><ele>866.8</ele><time>2026-04-13T08:23:53.671Z</time></trkpt><trkpt lat="37.9275859" lon="-2.9311867"><ele>867.4</ele><time>2026-04-13T08:23:54.671Z</time></trkpt><trkpt lat="37.9276156" lon="-2.9310607"><ele>868.0</ele><time>2026-04-13T08:23:55.671Z</time></trkpt><trkpt lat="37.9276497" lon="-2.9309349"><ele>865.0</ele><time>2026-04-13T08:23:56.671Z</time></trkpt><trkpt lat="37.9276891" lon="-2.9308081"><ele>862.0</ele><time>2026-04-13T08:23:57.671Z</time></trkpt><trkpt lat="37.9277348" lon="-2.9306841"><ele>859.0</ele><time>2026-04-13T08:23:58.671Z</time></trkpt><trkpt lat="37.9277868" lon="-2.9305871"><ele>856.0</ele><time>2026-04-13T08:23:59.671Z</time></trkpt><trkpt lat="37.9278476" lon="-2.9305132"><ele>853.0</ele><time>2026-04-13T08:24:00.671Z</time></trkpt><trkpt lat="37.9279151" lon="-2.9304554"><ele>853.0</ele><time>2026-04-13T08:24:01.671Z</time></trkpt><trkpt lat="37.9280043" lon="-2.9304245"><ele>853.0</ele><time>2026-04-13T08:24:02.671Z</time></trkpt><trkpt lat="37.9280944" lon="-2.9304129"><ele>853.0</ele><time>2026-04-13T08:24:03.671Z</time></trkpt><trkpt lat="37.9281912" lon="-2.9304325"><ele>853.0</ele><time>2026-04-13T08:24:04.671Z</time></trkpt><trkpt lat="37.928275" lon="-2.9304882"><ele>853.0</ele><time>2026-04-13T08:24:05.672Z</time></trkpt><trkpt lat="37.9283474" lon="-2.930571"><ele>852.0</ele><time>2026-04-13T08:24:06.671Z</time></trkpt><trkpt lat="37.9284031" lon="-2.9306743"><ele>851.0</ele><time>2026-04-13T08:24:07.671Z</time></trkpt><trkpt lat="37.9284556" lon="-2.9307828"><ele>850.0</ele><time>2026-04-13T08:24:08.671Z</time></trkpt><trkpt lat="37.9285071" lon="-2.9308919"><ele>849.0</ele><time>2026-04-13T08:24:09.671Z</time></trkpt><trkpt lat="37.928556" lon="-2.9310001"><ele>848.0</ele><time>2026-04-13T08:24:10.671Z</time></trkpt><trkpt lat="37.9285973" lon="-2.9310797"><ele>848.0</ele><time>2026-04-13T08:24:11.671Z</time></trkpt><trkpt lat="37.9286564" lon="-2.9311862"><ele>848.0</ele><time>2026-04-13T08:24:12.671Z</time></trkpt><trkpt lat="37.9287183" lon="-2.9312815"><ele>848.0</ele><time>2026-04-13T08:24:13.671Z</time></trkpt><trkpt lat="37.9287866" lon="-2.9313625"><ele>848.0</ele><time>2026-04-13T08:24:14.671Z</time></trkpt><trkpt lat="37.9288663" lon="-2.931422"><ele>848.0</ele><time>2026-04-13T08:24:15.671Z</time></trkpt><trkpt lat="37.9289587" lon="-2.9314613"><ele>848.0</ele><time>2026-04-13T08:24:16.671Z</time></trkpt><trkpt lat="37.9290597" lon="-2.9314608"><ele>848.0</ele><time>2026-04-13T08:24:17.671Z</time></trkpt><trkpt lat="37.9291553" lon="-2.9314352"><ele>848.0</ele><time>2026-04-13T08:24:18.671Z</time></trkpt><trkpt lat="37.9292449" lon="-2.9313915"><ele>848.0</ele><time>2026-04-13T08:24:19.671Z</time></trkpt><trkpt lat="37.9293139" lon="-2.9312934"><ele>848.0</ele><time>2026-04-13T08:24:20.672Z</time></trkpt><trkpt lat="37.9293778" lon="-2.9311936"><ele>847.8</ele><time>2026-04-13T08:24:21.671Z</time></trkpt><trkpt lat="37.9294424" lon="-2.9310913"><ele>847.5999999999999</ele><time>2026-04-13T08:24:22.671Z</time></trkpt><trkpt lat="37.9294996" lon="-2.9309952"><ele>847.4000000000001</ele><time>2026-04-13T08:24:23.671Z</time></trkpt><trkpt lat="37.9295526" lon="-2.9308951"><ele>847.2</ele><time>2026-04-13T08:24:24.671Z</time></trkpt><trkpt lat="37.9295925" lon="-2.9307917"><ele>847.0</ele><time>2026-04-13T08:24:25.671Z</time></trkpt><trkpt lat="37.9296255" lon="-2.9306784"><ele>845.0</ele><time>2026-04-13T08:24:26.672Z</time></trkpt><trkpt lat="37.9296523" lon="-2.9305611"><ele>843.0</ele><time>2026-04-13T08:24:27.671Z</time></trkpt><trkpt lat="37.9296778" lon="-2.9304474"><ele>841.0</ele><time>2026-04-13T08:24:28.671Z</time></trkpt><trkpt lat="37.92972" lon="-2.9303439"><ele>839.0</ele><time>2026-04-13T08:24:29.671Z</time></trkpt><trkpt lat="37.9297806" lon="-2.930248"><ele>837.0</ele><time>2026-04-13T08:24:30.671Z</time></trkpt><trkpt lat="37.929846" lon="-2.9301728"><ele>837.0</ele><time>2026-04-13T08:24:31.671Z</time></trkpt><trkpt lat="37.9299389" lon="-2.9301276"><ele>837.0</ele><time>2026-04-13T08:24:32.671Z</time></trkpt><trkpt lat="37.9300263" lon="-2.9301176"><ele>837.0</ele><time>2026-04-13T08:24:33.671Z</time></trkpt><trkpt lat="37.9301097" lon="-2.9301482"><ele>837.0</ele><time>2026-04-13T08:24:34.672Z</time></trkpt><trkpt lat="37.9301905" lon="-2.9302092"><ele>837.0</ele><time>2026-04-13T08:24:35.671Z</time></trkpt><trkpt lat="37.9302603" lon="-2.9302889"><ele>835.4000000000001</ele><time>2026-04-13T08:24:36.671Z</time></trkpt><trkpt lat="37.9303254" lon="-2.9303823"><ele>833.8000000000001</ele><time>2026-04-13T08:24:37.671Z</time></trkpt><trkpt lat="37.9303871" lon="-2.9304805"><ele>832.2</ele><time>2026-04-13T08:24:38.672Z</time></trkpt><trkpt lat="37.9304502" lon="-2.930575"><ele>830.6</ele><time>2026-04-13T08:24:39.671Z</time></trkpt><trkpt lat="37.9305218" lon="-2.9306583"><ele>829.0</ele><time>2026-04-13T08:24:40.671Z</time></trkpt><trkpt lat="37.9306003" lon="-2.9307309"><ele>828.9999999999999</ele><time>2026-04-13T08:24:41.671Z</time></trkpt><trkpt lat="37.930681" lon="-2.9307945"><ele>829.0</ele><time>2026-04-13T08:24:42.671Z</time></trkpt><trkpt lat="37.9307568" lon="-2.9308434"><ele>829.0</ele><time>2026-04-13T08:24:43.671Z</time></trkpt><trkpt lat="37.9308374" lon="-2.9308611"><ele>829.0</ele><time>2026-04-13T08:24:44.671Z</time></trkpt><trkpt lat="37.9309182" lon="-2.9308587"><ele>828.9999999999999</ele><time>2026-04-13T08:24:45.671Z</time></trkpt><trkpt lat="37.9309968" lon="-2.9308321"><ele>829.0</ele><time>2026-04-13T08:24:46.671Z</time></trkpt><trkpt lat="37.9310661" lon="-2.9307887"><ele>828.8333333333333</ele><time>2026-04-13T08:24:47.671Z</time></trkpt><trkpt lat="37.9311315" lon="-2.9307293"><ele>828.6666666666666</ele><time>2026-04-13T08:24:48.671Z</time></trkpt><trkpt lat="37.9311799" lon="-2.9306502"><ele>828.5</ele><time>2026-04-13T08:24:49.671Z</time></trkpt><trkpt lat="37.9312121" lon="-2.9305496"><ele>828.3333333333333</ele><time>2026-04-13T08:24:50.671Z</time></trkpt><trkpt lat="37.9312259" lon="-2.9304391"><ele>828.1666666666666</ele><time>2026-04-13T08:24:51.671Z</time></trkpt><trkpt lat="37.9312152" lon="-2.9303324"><ele>828.0</ele><time>2026-04-13T08:24:52.671Z</time></trkpt><trkpt lat="37.9311849" lon="-2.9302295"><ele>828.0</ele><time>2026-04-13T08:24:53.671Z</time></trkpt><trkpt lat="37.931139" lon="-2.9301335"><ele>828.0</ele><time>2026-04-13T08:24:54.671Z</time></trkpt><trkpt lat="37.9310733" lon="-2.9300638"><ele>828.0</ele><time>2026-04-13T08:24:55.671Z</time></trkpt><trkpt lat="37.9309994" lon="-2.9299997"><ele>828.0</ele><time>2026-04-13T08:24:56.671Z</time></trkpt><trkpt lat="37.9309244" lon="-2.9299364"><ele>828.0</ele><time>2026-04-13T08:24:57.671Z</time></trkpt><trkpt lat="37.9308459" lon="-2.9298736"><ele>828.0</ele><time>2026-04-13T08:24:58.671Z</time></trkpt><trkpt lat="37.9307685" lon="-2.9298171"><ele>826.8333333333334</ele><time>2026-04-13T08:24:59.671Z</time></trkpt><trkpt lat="37.9306932" lon="-2.9297646"><ele>825.6666666666667</ele><time>2026-04-13T08:25:00.671Z</time></trkpt><trkpt lat="37.930628" lon="-2.9297063"><ele>824.5</ele><time>2026-04-13T08:25:01.671Z</time></trkpt><trkpt lat="37.9305685" lon="-2.9296369"><ele>823.3333333333334</ele><time>2026-04-13T08:25:02.671Z</time></trkpt><trkpt lat="37.9305275" lon="-2.9295511"><ele>822.1666666666667</ele><time>2026-04-13T08:25:03.672Z</time></trkpt><trkpt lat="37.9304887" lon="-2.9294541"><ele>821.0</ele><time>2026-04-13T08:25:04.671Z</time></trkpt><trkpt lat="37.9304721" lon="-2.9293435"><ele>821.0</ele><time>2026-04-13T08:25:05.671Z</time></trkpt><trkpt lat="37.9304602" lon="-2.9292275"><ele>821.0</ele><time>2026-04-13T08:25:06.672Z</time></trkpt><trkpt lat="37.9304492" lon="-2.9291073"><ele>821.0</ele><time>2026-04-13T08:25:07.671Z</time></trkpt><trkpt lat="37.9304387" lon="-2.9289936"><ele>821.0</ele><time>2026-04-13T08:25:08.671Z</time></trkpt><trkpt lat="37.9304314" lon="-2.9288754"><ele>821.0</ele><time>2026-04-13T08:25:09.671Z</time></trkpt><trkpt lat="37.9304245" lon="-2.9287613"><ele>820.1666666666667</ele><time>2026-04-13T08:25:10.672Z</time></trkpt><trkpt lat="37.9304357" lon="-2.9286566"><ele>819.3333333333334</ele><time>2026-04-13T08:25:11.671Z</time></trkpt><trkpt lat="37.9304576" lon="-2.9285664"><ele>818.5</ele><time>2026-04-13T08:25:12.671Z</time></trkpt><trkpt lat="37.9304908" lon="-2.9284933"><ele>817.6666666666667</ele><time>2026-04-13T08:25:13.671Z</time></trkpt><trkpt lat="37.930537" lon="-2.9284158"><ele>816.8333333333334</ele><time>2026-04-13T08:25:14.671Z</time></trkpt><trkpt lat="37.9305962" lon="-2.9283495"><ele>816.0</ele><time>2026-04-13T08:25:15.671Z</time></trkpt><trkpt lat="37.9306645" lon="-2.9282975"><ele>815.6666666666666</ele><time>2026-04-13T08:25:16.671Z</time></trkpt><trkpt lat="37.9307328" lon="-2.9282523"><ele>815.3333333333333</ele><time>2026-04-13T08:25:17.671Z</time></trkpt><trkpt lat="37.930799" lon="-2.9282069"><ele>815.0</ele><time>2026-04-13T08:25:18.671Z</time></trkpt><trkpt lat="37.9308604" lon="-2.9281572"><ele>814.6666666666666</ele><time>2026-04-13T08:25:19.671Z</time></trkpt><trkpt lat="37.9309305" lon="-2.9281074"><ele>814.3333333333333</ele><time>2026-04-13T08:25:20.671Z</time></trkpt><trkpt lat="37.9310042" lon="-2.9280775"><ele>814.0</ele><time>2026-04-13T08:25:21.671Z</time></trkpt><trkpt lat="37.9310861" lon="-2.9280656"><ele>814.0</ele><time>2026-04-13T08:25:22.671Z</time></trkpt><trkpt lat="37.9311659" lon="-2.928068"><ele>814.0</ele><time>2026-04-13T08:25:23.671Z</time></trkpt><trkpt lat="37.931252" lon="-2.9281063"><ele>814.0</ele><time>2026-04-13T08:25:24.671Z</time></trkpt><trkpt lat="37.9313391" lon="-2.9281439"><ele>814.0</ele><time>2026-04-13T08:25:25.671Z</time></trkpt><trkpt lat="37.9314273" lon="-2.9281887"><ele>814.0</ele><time>2026-04-13T08:25:26.671Z</time></trkpt><trkpt lat="37.9315132" lon="-2.9282306"><ele>814.0</ele><time>2026-04-13T08:25:27.671Z</time></trkpt><trkpt lat="37.931603" lon="-2.9282692"><ele>814.0</ele><time>2026-04-13T08:25:28.671Z</time></trkpt><trkpt lat="37.9316888" lon="-2.9283051"><ele>814.0</ele><time>2026-04-13T08:25:29.671Z</time></trkpt><trkpt lat="37.9317725" lon="-2.9283422"><ele>814.0</ele><time>2026-04-13T08:25:30.671Z</time></trkpt><trkpt lat="37.9318553" lon="-2.9283928"><ele>814.0</ele><time>2026-04-13T08:25:31.671Z</time></trkpt><trkpt lat="37.9319289" lon="-2.9284567"><ele>812.6</ele><time>2026-04-13T08:25:32.671Z</time></trkpt><trkpt lat="37.9319943" lon="-2.9285378"><ele>811.2</ele><time>2026-04-13T08:25:33.671Z</time></trkpt><trkpt lat="37.9320605" lon="-2.9286184"><ele>809.8000000000001</ele><time>2026-04-13T08:25:34.671Z</time></trkpt><trkpt lat="37.9321274" lon="-2.9286979"><ele>808.4000000000001</ele><time>2026-04-13T08:25:35.671Z</time></trkpt><trkpt lat="37.9321969" lon="-2.9287749"><ele>807.0</ele><time>2026-04-13T08:25:36.672Z</time></trkpt><trkpt lat="37.9322758" lon="-2.9288383"><ele>807.0</ele><time>2026-04-13T08:25:37.671Z</time></trkpt><trkpt lat="37.9323647" lon="-2.9288779"><ele>807.0</ele><time>2026-04-13T08:25:38.671Z</time></trkpt><trkpt lat="37.9324551" lon="-2.9289096"><ele>807.0</ele><time>2026-04-13T08:25:39.671Z</time></trkpt><trkpt lat="37.9325517" lon="-2.928928"><ele>807.0</ele><time>2026-04-13T08:25:40.671Z</time></trkpt><trkpt lat="37.9326507" lon="-2.9289521"><ele>807.0</ele><time>2026-04-13T08:25:41.671Z</time></trkpt><trkpt lat="37.932749" lon="-2.9289702"><ele>807.2</ele><time>2026-04-13T08:25:42.671Z</time></trkpt><trkpt lat="37.9328445" lon="-2.9289757"><ele>807.4000000000001</ele><time>2026-04-13T08:25:43.671Z</time></trkpt><trkpt lat="37.9329483" lon="-2.9289713"><ele>807.5999999999999</ele><time>2026-04-13T08:25:44.671Z</time></trkpt><trkpt lat="37.9330509" lon="-2.9289511"><ele>807.8</ele><time>2026-04-13T08:25:45.671Z</time></trkpt><trkpt lat="37.9331514" lon="-2.9289275"><ele>808.0</ele><time>2026-04-13T08:25:46.671Z</time></trkpt><trkpt lat="37.9332538" lon="-2.9289192"><ele>808.0</ele><time>2026-04-13T08:25:47.671Z</time></trkpt><trkpt lat="37.9333629" lon="-2.9289213"><ele>808.0</ele><time>2026-04-13T08:25:48.671Z</time></trkpt><trkpt lat="37.9334695" lon="-2.9289374"><ele>808.0</ele><time>2026-04-13T08:25:49.671Z</time></trkpt><trkpt lat="37.9335787" lon="-2.928968"><ele>808.0</ele><time>2026-04-13T08:25:50.671Z</time></trkpt><trkpt lat="37.9336885" lon="-2.9290048"><ele>808.0</ele><time>2026-04-13T08:25:51.671Z</time></trkpt><trkpt lat="37.9337947" lon="-2.9290511"><ele>806.4</ele><time>2026-04-13T08:25:52.671Z</time></trkpt><trkpt lat="37.9338964" lon="-2.9291005"><ele>804.8</ele><time>2026-04-13T08:25:53.671Z</time></trkpt><trkpt lat="37.9339993" lon="-2.9291549"><ele>803.2</ele><time>2026-04-13T08:25:54.671Z</time></trkpt><trkpt lat="37.9341012" lon="-2.9292123"><ele>801.6</ele><time>2026-04-13T08:25:55.671Z</time></trkpt><trkpt lat="37.9342059" lon="-2.9292638"><ele>800.0</ele><time>2026-04-13T08:25:56.671Z</time></trkpt><trkpt lat="37.9343197" lon="-2.9293068"><ele>799.6</ele><time>2026-04-13T08:25:57.671Z</time></trkpt><trkpt lat="37.9344231" lon="-2.9293328"><ele>799.2</ele><time>2026-04-13T08:25:58.671Z</time></trkpt><trkpt lat="37.9345327" lon="-2.9293409"><ele>798.8</ele><time>2026-04-13T08:25:59.671Z</time></trkpt><trkpt lat="37.9346429" lon="-2.929336"><ele>798.4</ele><time>2026-04-13T08:26:00.671Z</time></trkpt><trkpt lat="37.9347499" lon="-2.9293177"><ele>798.0</ele><time>2026-04-13T08:26:01.671Z</time></trkpt><trkpt lat="37.9348571" lon="-2.9292704"><ele>800.2</ele><time>2026-04-13T08:26:02.671Z</time></trkpt><trkpt lat="37.9349537" lon="-2.9292093"><ele>802.4</ele><time>2026-04-13T08:26:03.671Z</time></trkpt><trkpt lat="37.935056" lon="-2.9291536"><ele>804.6</ele><time>2026-04-13T08:26:04.672Z</time></trkpt><trkpt lat="37.9351586" lon="-2.929115"><ele>806.8000000000001</ele><time>2026-04-13T08:26:05.671Z</time></trkpt><trkpt lat="37.9352657" lon="-2.9290957"><ele>809.0</ele><time>2026-04-13T08:26:06.671Z</time></trkpt><trkpt lat="37.935373" lon="-2.9290771"><ele>809.0</ele><time>2026-04-13T08:26:07.671Z</time></trkpt><trkpt lat="37.9354753" lon="-2.9290637"><ele>809.0</ele><time>2026-04-13T08:26:08.671Z</time></trkpt><trkpt lat="37.9355796" lon="-2.9290622"><ele>809.0</ele><time>2026-04-13T08:26:09.671Z</time></trkpt><trkpt lat="37.9356868" lon="-2.9290721"><ele>809.0</ele><time>2026-04-13T08:26:10.671Z</time></trkpt><trkpt lat="37.935793" lon="-2.9290912"><ele>809.0</ele><time>2026-04-13T08:26:11.671Z</time></trkpt><trkpt lat="37.9358926" lon="-2.929109"><ele>810.4000000000001</ele><time>2026-04-13T08:26:12.671Z</time></trkpt><trkpt lat="37.9359983" lon="-2.9291316"><ele>811.8</ele><time>2026-04-13T08:26:13.671Z</time></trkpt><trkpt lat="37.9361032" lon="-2.9291522"><ele>813.2</ele><time>2026-04-13T08:26:14.671Z</time></trkpt><trkpt lat="37.9362071" lon="-2.9291707"><ele>814.5999999999999</ele><time>2026-04-13T08:26:15.671Z</time></trkpt><trkpt lat="37.9363136" lon="-2.929186"><ele>816.0</ele><time>2026-04-13T08:26:16.672Z</time></trkpt><trkpt lat="37.9364175" lon="-2.9292009"><ele>816.0</ele><time>2026-04-13T08:26:17.671Z</time></trkpt><trkpt lat="37.93652" lon="-2.9292183"><ele>816.0</ele><time>2026-04-13T08:26:18.671Z</time></trkpt><trkpt lat="37.9366162" lon="-2.9292305"><ele>816.0</ele><time>2026-04-13T08:26:19.671Z</time></trkpt><trkpt lat="37.9367136" lon="-2.9292462"><ele>816.0</ele><time>2026-04-13T08:26:20.671Z</time></trkpt><trkpt lat="37.9368138" lon="-2.9292591"><ele>816.0</ele><time>2026-04-13T08:26:21.671Z</time></trkpt><trkpt lat="37.9369129" lon="-2.9292732"><ele>812.5999999999999</ele><time>2026-04-13T08:26:22.671Z</time></trkpt><trkpt lat="37.9370122" lon="-2.9292795"><ele>809.2</ele><time>2026-04-13T08:26:23.671Z</time></trkpt><trkpt lat="37.9371152" lon="-2.9292798"><ele>805.8</ele><time>2026-04-13T08:26:24.671Z</time></trkpt><trkpt lat="37.9372188" lon="-2.9292731"><ele>802.4000000000001</ele><time>2026-04-13T08:26:25.671Z</time></trkpt><trkpt lat="37.9373214" lon="-2.9292698"><ele>799.0</ele><time>2026-04-13T08:26:26.671Z</time></trkpt><trkpt lat="37.9374255" lon="-2.9292621"><ele>799.0</ele><time>2026-04-13T08:26:27.671Z</time></trkpt><trkpt lat="37.937532" lon="-2.9292439"><ele>799.0</ele><time>2026-04-13T08:26:28.671Z</time></trkpt><trkpt lat="37.937637" lon="-2.9292134"><ele>799.0</ele><time>2026-04-13T08:26:29.671Z</time></trkpt><trkpt lat="37.9377389" lon="-2.9291755"><ele>799.0</ele><time>2026-04-13T08:26:30.671Z</time></trkpt><trkpt lat="37.9378389" lon="-2.9291343"><ele>799.0</ele><time>2026-04-13T08:26:31.671Z</time></trkpt><trkpt lat="37.9379291" lon="-2.9290841"><ele>799.2</ele><time>2026-04-13T08:26:32.671Z</time></trkpt><trkpt lat="37.9380201" lon="-2.9290143"><ele>799.4000000000001</ele><time>2026-04-13T08:26:33.671Z</time></trkpt><trkpt lat="37.9380953" lon="-2.9289242"><ele>799.6</ele><time>2026-04-13T08:26:34.671Z</time></trkpt><trkpt lat="37.938162" lon="-2.9288262"><ele>799.8</ele><time>2026-04-13T08:26:35.671Z</time></trkpt><trkpt lat="37.9382303" lon="-2.9287221"><ele>800.0</ele><time>2026-04-13T08:26:36.671Z</time></trkpt><trkpt lat="37.9382978" lon="-2.9286161"><ele>800.0</ele><time>2026-04-13T08:26:37.672Z</time></trkpt><trkpt lat="37.9383524" lon="-2.9285271"><ele>800.0</ele><time>2026-04-13T08:26:38.671Z</time></trkpt><trkpt lat="37.9384222" lon="-2.9284044"><ele>800.0</ele><time>2026-04-13T08:26:39.671Z</time></trkpt><trkpt lat="37.9384806" lon="-2.9282947"><ele>800.0</ele><time>2026-04-13T08:26:40.671Z</time></trkpt><trkpt lat="37.9385436" lon="-2.9281832"><ele>800.0</ele><time>2026-04-13T08:26:41.671Z</time></trkpt><trkpt lat="37.9386102" lon="-2.9280612"><ele>800.2</ele><time>2026-04-13T08:26:42.671Z</time></trkpt><trkpt lat="37.9386728" lon="-2.9279459"><ele>800.4</ele><time>2026-04-13T08:26:43.671Z</time></trkpt><trkpt lat="37.9387381" lon="-2.9278304"><ele>800.5999999999999</ele><time>2026-04-13T08:26:44.671Z</time></trkpt><trkpt lat="37.9388018" lon="-2.9277167"><ele>800.8</ele><time>2026-04-13T08:26:45.671Z</time></trkpt><trkpt lat="37.9388627" lon="-2.9276098"><ele>801.0</ele><time>2026-04-13T08:26:46.671Z</time></trkpt><trkpt lat="37.9389273" lon="-2.9274961"><ele>801.0</ele><time>2026-04-13T08:26:47.671Z</time></trkpt><trkpt lat="37.9389875" lon="-2.9273893"><ele>801.0</ele><time>2026-04-13T08:26:48.671Z</time></trkpt><trkpt lat="37.939048" lon="-2.927281"><ele>801.0</ele><time>2026-04-13T08:26:49.671Z</time></trkpt><trkpt lat="37.9391082" lon="-2.9271728"><ele>801.0</ele><time>2026-04-13T08:26:50.671Z</time></trkpt><trkpt lat="37.93917" lon="-2.927066"><ele>801.0</ele><time>2026-04-13T08:26:51.671Z</time></trkpt><trkpt lat="37.9392287" lon="-2.9269547"><ele>800.1999999999999</ele><time>2026-04-13T08:26:52.671Z</time></trkpt><trkpt lat="37.939289" lon="-2.926834"><ele>799.4</ele><time>2026-04-13T08:26:53.671Z</time></trkpt><trkpt lat="37.9393459" lon="-2.9267148"><ele>798.6</ele><time>2026-04-13T08:26:54.671Z</time></trkpt><trkpt lat="37.9394011" lon="-2.926602"><ele>797.8</ele><time>2026-04-13T08:26:55.671Z</time></trkpt><trkpt lat="37.9394678" lon="-2.9265026"><ele>797.0</ele><time>2026-04-13T08:26:56.671Z</time></trkpt><trkpt lat="37.9395466" lon="-2.926414"><ele>797.0</ele><time>2026-04-13T08:26:57.671Z</time></trkpt><trkpt lat="37.9396395" lon="-2.9263369"><ele>797.0</ele><time>2026-04-13T08:26:58.671Z</time></trkpt><trkpt lat="37.9397412" lon="-2.9262738"><ele>797.0</ele><time>2026-04-13T08:26:59.671Z</time></trkpt><trkpt lat="37.9398541" lon="-2.9262173"><ele>797.0</ele><time>2026-04-13T08:27:00.671Z</time></trkpt><trkpt lat="37.93997" lon="-2.926192"><ele>796.5</ele><time>2026-04-13T08:27:01.671Z</time></trkpt><trkpt lat="37.9400791" lon="-2.9261653"><ele>796.0</ele><time>2026-04-13T08:27:02.671Z</time></trkpt><trkpt lat="37.9401951" lon="-2.9261437"><ele>795.5</ele><time>2026-04-13T08:27:03.671Z</time></trkpt><trkpt lat="37.9403081" lon="-2.9261253"><ele>795.0</ele><time>2026-04-13T08:27:04.671Z</time></trkpt><trkpt lat="37.9404216" lon="-2.9261203"><ele>795.0</ele><time>2026-04-13T08:27:05.671Z</time></trkpt><trkpt lat="37.9405378" lon="-2.9261187"><ele>795.0</ele><time>2026-04-13T08:27:06.671Z</time></trkpt><trkpt lat="37.9406504" lon="-2.926131"><ele>795.0</ele><time>2026-04-13T08:27:07.671Z</time></trkpt><trkpt lat="37.9407612" lon="-2.9261457"><ele>795.0</ele><time>2026-04-13T08:27:08.671Z</time></trkpt><trkpt lat="37.9408739" lon="-2.9261644"><ele>793.6</ele><time>2026-04-13T08:27:09.671Z</time></trkpt><trkpt lat="37.9409856" lon="-2.9261785"><ele>792.2</ele><time>2026-04-13T08:27:10.671Z</time></trkpt><trkpt lat="37.941095" lon="-2.9261874"><ele>790.8</ele><time>2026-04-13T08:27:11.671Z</time></trkpt><trkpt lat="37.9412015" lon="-2.9261786"><ele>789.4</ele><time>2026-04-13T08:27:12.671Z</time></trkpt><trkpt lat="37.9413141" lon="-2.9261492"><ele>788.0</ele><time>2026-04-13T08:27:13.671Z</time></trkpt><trkpt lat="37.941423" lon="-2.9261121"><ele>788.0</ele><time>2026-04-13T08:27:14.671Z</time></trkpt><trkpt lat="37.941532" lon="-2.9260678"><ele>788.0</ele><time>2026-04-13T08:27:15.671Z</time></trkpt><trkpt lat="37.9416387" lon="-2.9260165"><ele>788.0</ele><time>2026-04-13T08:27:16.671Z</time></trkpt><trkpt lat="37.9417378" lon="-2.925967"><ele>788.0</ele><time>2026-04-13T08:27:17.671Z</time></trkpt><trkpt lat="37.9418437" lon="-2.9259106"><ele>791.4</ele><time>2026-04-13T08:27:18.671Z</time></trkpt><trkpt lat="37.941952" lon="-2.9258678"><ele>794.8</ele><time>2026-04-13T08:27:19.671Z</time></trkpt><trkpt lat="37.9420563" lon="-2.9258359"><ele>798.2</ele><time>2026-04-13T08:27:20.671Z</time></trkpt><trkpt lat="37.9421545" lon="-2.9258115"><ele>801.6</ele><time>2026-04-13T08:27:21.671Z</time></trkpt><trkpt lat="37.9422525" lon="-2.9257835"><ele>805.0</ele><time>2026-04-13T08:27:22.671Z</time></trkpt><trkpt lat="37.9423505" lon="-2.9257598"><ele>805.0</ele><time>2026-04-13T08:27:23.671Z</time></trkpt><trkpt lat="37.9424478" lon="-2.9257431"><ele>805.0</ele><time>2026-04-13T08:27:24.671Z</time></trkpt><trkpt lat="37.9425466" lon="-2.9257203"><ele>805.0</ele><time>2026-04-13T08:27:25.671Z</time></trkpt><trkpt lat="37.9426462" lon="-2.9256884"><ele>805.0</ele><time>2026-04-13T08:27:26.671Z</time></trkpt><trkpt lat="37.942748" lon="-2.9256442"><ele>805.0</ele><time>2026-04-13T08:27:27.671Z</time></trkpt><trkpt lat="37.9428527" lon="-2.9255897"><ele>802.25</ele><time>2026-04-13T08:27:28.671Z</time></trkpt><trkpt lat="37.9429562" lon="-2.9255361"><ele>799.5</ele><time>2026-04-13T08:27:29.671Z</time></trkpt><trkpt lat="37.9430641" lon="-2.9254818"><ele>796.75</ele><time>2026-04-13T08:27:30.672Z</time></trkpt><trkpt lat="37.9431728" lon="-2.9254328"><ele>794.0</ele><time>2026-04-13T08:27:31.671Z</time></trkpt><trkpt lat="37.9432823" lon="-2.9253808"><ele>793.0</ele><time>2026-04-13T08:27:32.671Z</time></trkpt><trkpt lat="37.9433939" lon="-2.9253178"><ele>792.0</ele><time>2026-04-13T08:27:33.671Z</time></trkpt><trkpt lat="37.9435021" lon="-2.9252405"><ele>791.0</ele><time>2026-04-13T08:27:34.671Z</time></trkpt><trkpt lat="37.9436" lon="-2.9251467"><ele>790.0</ele><time>2026-04-13T08:27:35.671Z</time></trkpt><trkpt lat="37.9436881" lon="-2.9250452"><ele>790.0</ele><time>2026-04-13T08:27:36.671Z</time></trkpt><trkpt lat="37.9437736" lon="-2.9249335"><ele>790.0</ele><time>2026-04-13T08:27:37.671Z</time></trkpt><trkpt lat="37.9438517" lon="-2.9248146"><ele>790.0</ele><time>2026-04-13T08:27:38.671Z</time></trkpt><trkpt lat="37.9439255" lon="-2.9246955"><ele>790.0</ele><time>2026-04-13T08:27:39.671Z</time></trkpt><trkpt lat="37.9439981" lon="-2.9245739"><ele>790.0</ele><time>2026-04-13T08:27:40.671Z</time></trkpt><trkpt lat="37.9440643" lon="-2.924447"><ele>790.0</ele><time>2026-04-13T08:27:41.671Z</time></trkpt><trkpt lat="37.9441256" lon="-2.9243176"><ele>790.0</ele><time>2026-04-13T08:27:42.671Z</time></trkpt><trkpt lat="37.9441744" lon="-2.9241789"><ele>790.0</ele><time>2026-04-13T08:27:43.671Z</time></trkpt><trkpt lat="37.9442097" lon="-2.9240374"><ele>789.0</ele><time>2026-04-13T08:27:44.671Z</time></trkpt><trkpt lat="37.944239" lon="-2.9238923"><ele>788.0</ele><time>2026-04-13T08:27:45.671Z</time></trkpt><trkpt lat="37.9442773" lon="-2.923755"><ele>787.0</ele><time>2026-04-13T08:27:46.671Z</time></trkpt><trkpt lat="37.9443283" lon="-2.9236136"><ele>786.0</ele><time>2026-04-13T08:27:47.671Z</time></trkpt><trkpt lat="37.9444038" lon="-2.9234971"><ele>788.25</ele><time>2026-04-13T08:27:48.671Z</time></trkpt><trkpt lat="37.9444876" lon="-2.9233964"><ele>790.5</ele><time>2026-04-13T08:27:49.671Z</time></trkpt><trkpt lat="37.9445684" lon="-2.9232898"><ele>792.75</ele><time>2026-04-13T08:27:50.671Z</time></trkpt><trkpt lat="37.9446398" lon="-2.9231686"><ele>795.0</ele><time>2026-04-13T08:27:51.671Z</time></trkpt><trkpt lat="37.9446951" lon="-2.9230421"><ele>795.0</ele><time>2026-04-13T08:27:52.671Z</time></trkpt><trkpt lat="37.9447436" lon="-2.9229008"><ele>795.0</ele><time>2026-04-13T08:27:53.671Z</time></trkpt><trkpt lat="37.9447799" lon="-2.9227568"><ele>795.0</ele><time>2026-04-13T08:27:54.671Z</time></trkpt><trkpt lat="37.9448055" lon="-2.922603"><ele>795.0</ele><time>2026-04-13T08:27:55.671Z</time></trkpt><trkpt lat="37.9448208" lon="-2.9224472"><ele>797.0</ele><time>2026-04-13T08:27:56.671Z</time></trkpt><trkpt lat="37.9448242" lon="-2.9222975"><ele>799.0</ele><time>2026-04-13T08:27:57.671Z</time></trkpt><trkpt lat="37.9448155" lon="-2.9221466"><ele>801.0</ele><time>2026-04-13T08:27:58.672Z</time></trkpt><trkpt lat="37.9447937" lon="-2.9220007"><ele>803.0</ele><time>2026-04-13T08:27:59.671Z</time></trkpt><trkpt lat="37.9447633" lon="-2.9218716"><ele>803.0000000000001</ele><time>2026-04-13T08:28:00.671Z</time></trkpt><trkpt lat="37.9447372" lon="-2.921757"><ele>803.0</ele><time>2026-04-13T08:28:01.671Z</time></trkpt><trkpt lat="37.9447183" lon="-2.9216597"><ele>803.0</ele><time>2026-04-13T08:28:02.671Z</time></trkpt><trkpt lat="37.9446935" lon="-2.9215624"><ele>803.0</ele><time>2026-04-13T08:28:04.671Z</time></trkpt><trkpt lat="37.944687" lon="-2.9214537"><ele>803.0000000000001</ele><time>2026-04-13T08:28:07.671Z</time></trkpt><trkpt lat="37.9447029" lon="-2.9213496"><ele>803.0</ele><time>2026-04-13T08:28:09.671Z</time></trkpt><trkpt lat="37.9447569" lon="-2.921209"><ele>803.1428571428571</ele><time>2026-04-13T08:28:11.671Z</time></trkpt><trkpt lat="37.9447988" lon="-2.9211461"><ele>803.2857142857142</ele><time>2026-04-13T08:28:12.671Z</time></trkpt><trkpt lat="37.9448495" lon="-2.9210917"><ele>803.4285714285713</ele><time>2026-04-13T08:28:13.671Z</time></trkpt><trkpt lat="37.9449038" lon="-2.9210467"><ele>803.5714285714286</ele><time>2026-04-13T08:28:14.671Z</time></trkpt><trkpt lat="37.9449612" lon="-2.9210042"><ele>803.7142857142858</ele><time>2026-04-13T08:28:15.671Z</time></trkpt><trkpt lat="37.9450199" lon="-2.9209571"><ele>803.8571428571428</ele><time>2026-04-13T08:28:16.671Z</time></trkpt><trkpt lat="37.9450765" lon="-2.9209102"><ele>804.0</ele><time>2026-04-13T08:28:17.671Z</time></trkpt><trkpt lat="37.9451876" lon="-2.9208262"><ele>804.1428571428571</ele><time>2026-04-13T08:28:19.671Z</time></trkpt><trkpt lat="37.9452467" lon="-2.920781"><ele>804.2857142857143</ele><time>2026-04-13T08:28:20.671Z</time></trkpt><trkpt lat="37.9453035" lon="-2.9207361"><ele>804.4285714285714</ele><time>2026-04-13T08:28:21.671Z</time></trkpt><trkpt lat="37.9453697" lon="-2.9206892"><ele>804.5714285714286</ele><time>2026-04-13T08:28:22.671Z</time></trkpt><trkpt lat="37.9454375" lon="-2.9206373"><ele>804.7142857142858</ele><time>2026-04-13T08:28:23.671Z</time></trkpt><trkpt lat="37.9455044" lon="-2.9205895"><ele>804.8571428571429</ele><time>2026-04-13T08:28:24.671Z</time></trkpt><trkpt lat="37.9455709" lon="-2.9205506"><ele>805.0</ele><time>2026-04-13T08:28:25.671Z</time></trkpt><trkpt lat="37.9456448" lon="-2.9205213"><ele>805.0</ele><time>2026-04-13T08:28:26.672Z</time></trkpt><trkpt lat="37.9457209" lon="-2.9205085"><ele>805.0</ele><time>2026-04-13T08:28:27.671Z</time></trkpt><trkpt lat="37.9457918" lon="-2.9205019"><ele>805.0</ele><time>2026-04-13T08:28:28.671Z</time></trkpt><trkpt lat="37.945867" lon="-2.9204992"><ele>805.0</ele><time>2026-04-13T08:28:29.671Z</time></trkpt><trkpt lat="37.9459364" lon="-2.9204978"><ele>805.0</ele><time>2026-04-13T08:28:30.671Z</time></trkpt><trkpt lat="37.9460076" lon="-2.9205014"><ele>805.0</ele><time>2026-04-13T08:28:31.671Z</time></trkpt><trkpt lat="37.946079" lon="-2.9204996"><ele>805.0</ele><time>2026-04-13T08:28:32.671Z</time></trkpt><trkpt lat="37.9461545" lon="-2.9205017"><ele>805.4999999999999</ele><time>2026-04-13T08:28:33.671Z</time></trkpt><trkpt lat="37.9462244" lon="-2.920514"><ele>806.0</ele><time>2026-04-13T08:28:34.671Z</time></trkpt><trkpt lat="37.9462914" lon="-2.920545"><ele>806.5</ele><time>2026-04-13T08:28:35.671Z</time></trkpt><trkpt lat="37.9463541" lon="-2.9205839"><ele>807.0</ele><time>2026-04-13T08:28:36.671Z</time></trkpt><trkpt lat="37.9464103" lon="-2.9206252"><ele>807.4999999999999</ele><time>2026-04-13T08:28:37.671Z</time></trkpt><trkpt lat="37.9464913" lon="-2.9207063"><ele>808.0</ele><time>2026-04-13T08:28:39.671Z</time></trkpt><trkpt lat="37.9465923" lon="-2.9208016"><ele>808.0</ele><time>2026-04-13T08:28:41.671Z</time></trkpt><trkpt lat="37.946655" lon="-2.9208429"><ele>808.0</ele><time>2026-04-13T08:28:42.671Z</time></trkpt><trkpt lat="37.9467273" lon="-2.9208765"><ele>808.0</ele><time>2026-04-13T08:28:43.671Z</time></trkpt><trkpt lat="37.9468006" lon="-2.9208969"><ele>808.0</ele><time>2026-04-13T08:28:44.671Z</time></trkpt><trkpt lat="37.9468768" lon="-2.9209072"><ele>808.0</ele><time>2026-04-13T08:28:45.671Z</time></trkpt><trkpt lat="37.9469492" lon="-2.9209064"><ele>808.0</ele><time>2026-04-13T08:28:46.671Z</time></trkpt><trkpt lat="37.9470248" lon="-2.9209061"><ele>808.0</ele><time>2026-04-13T08:28:47.671Z</time></trkpt><trkpt lat="37.9470963" lon="-2.9209045"><ele>807.8571428571429</ele><time>2026-04-13T08:28:48.671Z</time></trkpt><trkpt lat="37.9471655" lon="-2.9209025"><ele>807.7142857142857</ele><time>2026-04-13T08:28:49.671Z</time></trkpt><trkpt lat="37.9472334" lon="-2.9208995"><ele>807.5714285714287</ele><time>2026-04-13T08:28:50.671Z</time></trkpt><trkpt lat="37.947301" lon="-2.9208886"><ele>807.4285714285714</ele><time>2026-04-13T08:28:51.671Z</time></trkpt><trkpt lat="37.9473656" lon="-2.9208806"><ele>807.2857142857143</ele><time>2026-04-13T08:28:52.671Z</time></trkpt><trkpt lat="37.9474324" lon="-2.920877"><ele>807.1428571428572</ele><time>2026-04-13T08:28:53.671Z</time></trkpt><trkpt lat="37.9474992" lon="-2.9208771"><ele>807.0</ele><time>2026-04-13T08:28:54.671Z</time></trkpt><trkpt lat="37.9475671" lon="-2.9208767"><ele>807.3333333333334</ele><time>2026-04-13T08:28:55.671Z</time></trkpt><trkpt lat="37.947639" lon="-2.9208743"><ele>807.6666666666667</ele><time>2026-04-13T08:28:56.671Z</time></trkpt><trkpt lat="37.9477146" lon="-2.9208708"><ele>808.0</ele><time>2026-04-13T08:28:57.671Z</time></trkpt><trkpt lat="37.9477917" lon="-2.9208708"><ele>808.3333333333334</ele><time>2026-04-13T08:28:58.671Z</time></trkpt><trkpt lat="37.9478726" lon="-2.9208661"><ele>808.6666666666667</ele><time>2026-04-13T08:28:59.671Z</time></trkpt><trkpt lat="37.9479522" lon="-2.9208613"><ele>809.0</ele><time>2026-04-13T08:29:00.672Z</time></trkpt><trkpt lat="37.9480404" lon="-2.920852"><ele>809.0</ele><time>2026-04-13T08:29:01.671Z</time></trkpt><trkpt lat="37.9481261" lon="-2.9208456"><ele>809.0</ele><time>2026-04-13T08:29:02.671Z</time></trkpt><trkpt lat="37.9482196" lon="-2.9208411"><ele>809.0</ele><time>2026-04-13T08:29:03.671Z</time></trkpt><trkpt lat="37.9483124" lon="-2.920837"><ele>809.0</ele><time>2026-04-13T08:29:04.672Z</time></trkpt><trkpt lat="37.9484052" lon="-2.9208339"><ele>809.0</ele><time>2026-04-13T08:29:05.671Z</time></trkpt><trkpt lat="37.948497" lon="-2.9208307"><ele>809.0</ele><time>2026-04-13T08:29:06.671Z</time></trkpt><trkpt lat="37.9485913" lon="-2.9208287"><ele>809.0</ele><time>2026-04-13T08:29:07.671Z</time></trkpt><trkpt lat="37.9486889" lon="-2.9208232"><ele>809.0</ele><time>2026-04-13T08:29:08.671Z</time></trkpt><trkpt lat="37.948785" lon="-2.9208182"><ele>809.0</ele><time>2026-04-13T08:29:09.671Z</time></trkpt><trkpt lat="37.9488767" lon="-2.920813"><ele>809.0</ele><time>2026-04-13T08:29:10.671Z</time></trkpt><trkpt lat="37.9489654" lon="-2.9208109"><ele>809.0</ele><time>2026-04-13T08:29:11.671Z</time></trkpt><trkpt lat="37.9490525" lon="-2.9208106"><ele>809.0</ele><time>2026-04-13T08:29:12.671Z</time></trkpt><trkpt lat="37.9491401" lon="-2.9208079"><ele>809.0</ele><time>2026-04-13T08:29:13.671Z</time></trkpt><trkpt lat="37.9492147" lon="-2.9208083"><ele>809.0</ele><time>2026-04-13T08:29:14.671Z</time></trkpt><trkpt lat="37.9493257" lon="-2.9208014"><ele>809.0</ele><time>2026-04-13T08:29:16.672Z</time></trkpt><trkpt lat="37.9494418" lon="-2.9207948"><ele>810.0000000000001</ele><time>2026-04-13T08:29:18.671Z</time></trkpt><trkpt lat="37.9495217" lon="-2.9207876"><ele>811.0</ele><time>2026-04-13T08:29:19.671Z</time></trkpt><trkpt lat="37.9495984" lon="-2.9207859"><ele>812.0</ele><time>2026-04-13T08:29:20.671Z</time></trkpt><trkpt lat="37.949671" lon="-2.9207837"><ele>813.0</ele><time>2026-04-13T08:29:21.671Z</time></trkpt><trkpt lat="37.9497468" lon="-2.9207838"><ele>814.0000000000001</ele><time>2026-04-13T08:29:22.671Z</time></trkpt><trkpt lat="37.9498226" lon="-2.9207827"><ele>815.0</ele><time>2026-04-13T08:29:23.671Z</time></trkpt><trkpt lat="37.9498919" lon="-2.9207815"><ele>815.0</ele><time>2026-04-13T08:29:24.671Z</time></trkpt><trkpt lat="37.9499671" lon="-2.9207807"><ele>815.0</ele><time>2026-04-13T08:29:25.671Z</time></trkpt><trkpt lat="37.9500457" lon="-2.9207701"><ele>815.0</ele><time>2026-04-13T08:29:26.671Z</time></trkpt><trkpt lat="37.9501185" lon="-2.9207624"><ele>815.0</ele><time>2026-04-13T08:29:27.671Z</time></trkpt><trkpt lat="37.9501944" lon="-2.9207568"><ele>815.0</ele><time>2026-04-13T08:29:28.671Z</time></trkpt><trkpt lat="37.9502635" lon="-2.9207533"><ele>815.0</ele><time>2026-04-13T08:29:29.671Z</time></trkpt><trkpt lat="37.9503275" lon="-2.9207497"><ele>815.0</ele><time>2026-04-13T08:29:30.671Z</time></trkpt><trkpt lat="37.9504509" lon="-2.9207449"><ele>814.8333333333334</ele><time>2026-04-13T08:29:32.671Z</time></trkpt><trkpt lat="37.9505162" lon="-2.9207391"><ele>814.6666666666667</ele><time>2026-04-13T08:29:33.671Z</time></trkpt><trkpt lat="37.9506423" lon="-2.9207327"><ele>814.5</ele><time>2026-04-13T08:29:35.671Z</time></trkpt><trkpt lat="37.9507174" lon="-2.9207315"><ele>814.3333333333333</ele><time>2026-04-13T08:29:36.671Z</time></trkpt><trkpt lat="37.950789" lon="-2.9207309"><ele>814.1666666666666</ele><time>2026-04-13T08:29:37.671Z</time></trkpt><trkpt lat="37.9508763" lon="-2.9207259"><ele>814.0</ele><time>2026-04-13T08:29:38.671Z</time></trkpt><trkpt lat="37.9509676" lon="-2.9207179"><ele>813.4000000000001</ele><time>2026-04-13T08:29:39.671Z</time></trkpt><trkpt lat="37.95106" lon="-2.9207124"><ele>812.8</ele><time>2026-04-13T08:29:40.671Z</time></trkpt><trkpt lat="37.951155" lon="-2.9207081"><ele>812.2</ele><time>2026-04-13T08:29:41.671Z</time></trkpt><trkpt lat="37.9512481" lon="-2.9207041"><ele>811.5999999999999</ele><time>2026-04-13T08:29:42.671Z</time></trkpt><trkpt lat="37.9513489" lon="-2.9207017"><ele>811.0</ele><time>2026-04-13T08:29:43.671Z</time></trkpt><trkpt lat="37.9514411" lon="-2.9206988"><ele>810.9999999999999</ele><time>2026-04-13T08:29:44.671Z</time></trkpt><trkpt lat="37.951516" lon="-2.920696"><ele>811.0</ele><time>2026-04-13T08:29:45.671Z</time></trkpt><trkpt lat="37.9515958" lon="-2.9206914"><ele>811.0</ele><time>2026-04-13T08:29:46.671Z</time></trkpt><trkpt lat="37.9516772" lon="-2.9206909"><ele>811.0</ele><time>2026-04-13T08:29:47.671Z</time></trkpt><trkpt lat="37.9517629" lon="-2.9206894"><ele>810.9999999999999</ele><time>2026-04-13T08:29:48.671Z</time></trkpt><trkpt lat="37.951853" lon="-2.9206859"><ele>811.0</ele><time>2026-04-13T08:29:49.671Z</time></trkpt><trkpt lat="37.9519453" lon="-2.9206787"><ele>810.5999999999999</ele><time>2026-04-13T08:29:50.671Z</time></trkpt><trkpt lat="37.9520396" lon="-2.920673"><ele>810.2</ele><time>2026-04-13T08:29:51.671Z</time></trkpt><trkpt lat="37.9521332" lon="-2.9206685"><ele>809.8</ele><time>2026-04-13T08:29:52.671Z</time></trkpt><trkpt lat="37.9522286" lon="-2.9206643"><ele>809.4000000000001</ele><time>2026-04-13T08:29:53.671Z</time></trkpt><trkpt lat="37.9523254" lon="-2.9206621"><ele>809.0</ele><time>2026-04-13T08:29:54.671Z</time></trkpt><trkpt lat="37.9524214" lon="-2.9206568"><ele>809.0</ele><time>2026-04-13T08:29:55.671Z</time></trkpt><trkpt lat="37.9525194" lon="-2.9206536"><ele>809.0</ele><time>2026-04-13T08:29:56.671Z</time></trkpt><trkpt lat="37.9526173" lon="-2.9206461"><ele>809.0</ele><time>2026-04-13T08:29:57.671Z</time></trkpt><trkpt lat="37.9527203" lon="-2.9206427"><ele>809.0</ele><time>2026-04-13T08:29:58.672Z</time></trkpt><trkpt lat="37.9528252" lon="-2.9206333"><ele>809.0</ele><time>2026-04-13T08:29:59.671Z</time></trkpt><trkpt lat="37.952933" lon="-2.920605"><ele>809.25</ele><time>2026-04-13T08:30:00.671Z</time></trkpt><trkpt lat="37.9530379" lon="-2.920561"><ele>809.5</ele><time>2026-04-13T08:30:01.671Z</time></trkpt><trkpt lat="37.9531422" lon="-2.9205032"><ele>809.75</ele><time>2026-04-13T08:30:02.671Z</time></trkpt><trkpt lat="37.9532451" lon="-2.9204442"><ele>810.0</ele><time>2026-04-13T08:30:03.671Z</time></trkpt><trkpt lat="37.9533567" lon="-2.920384"><ele>808.75</ele><time>2026-04-13T08:30:04.671Z</time></trkpt><trkpt lat="37.9534666" lon="-2.9203234"><ele>807.5</ele><time>2026-04-13T08:30:05.671Z</time></trkpt><trkpt lat="37.9535795" lon="-2.9202603"><ele>806.25</ele><time>2026-04-13T08:30:06.671Z</time></trkpt><trkpt lat="37.9536938" lon="-2.9201947"><ele>805.0</ele><time>2026-04-13T08:30:07.671Z</time></trkpt><trkpt lat="37.9538123" lon="-2.9201361"><ele>805.0</ele><time>2026-04-13T08:30:08.671Z</time></trkpt><trkpt lat="37.9539252" lon="-2.9200707"><ele>805.0</ele><time>2026-04-13T08:30:09.671Z</time></trkpt><trkpt lat="37.954039" lon="-2.9200059"><ele>805.0</ele><time>2026-04-13T08:30:10.671Z</time></trkpt><trkpt lat="37.9541538" lon="-2.9199419"><ele>805.0</ele><time>2026-04-13T08:30:11.671Z</time></trkpt><trkpt lat="37.9542681" lon="-2.9198747"><ele>804.25</ele><time>2026-04-13T08:30:12.671Z</time></trkpt><trkpt lat="37.954382" lon="-2.9198072"><ele>803.5</ele><time>2026-04-13T08:30:13.671Z</time></trkpt><trkpt lat="37.954494" lon="-2.9197427"><ele>802.75</ele><time>2026-04-13T08:30:14.671Z</time></trkpt><trkpt lat="37.9546064" lon="-2.9196787"><ele>802.0</ele><time>2026-04-13T08:30:15.671Z</time></trkpt><trkpt lat="37.9547187" lon="-2.9196138"><ele>802.0</ele><time>2026-04-13T08:30:16.671Z</time></trkpt><trkpt lat="37.9548285" lon="-2.9195476"><ele>802.0</ele><time>2026-04-13T08:30:17.671Z</time></trkpt><trkpt lat="37.954939" lon="-2.9194844"><ele>802.0</ele><time>2026-04-13T08:30:18.671Z</time></trkpt><trkpt lat="37.9550494" lon="-2.919422"><ele>802.0</ele><time>2026-04-13T08:30:19.671Z</time></trkpt><trkpt lat="37.9551565" lon="-2.9193619"><ele>801.0</ele><time>2026-04-13T08:30:20.671Z</time></trkpt><trkpt lat="37.9552686" lon="-2.9192996"><ele>800.0</ele><time>2026-04-13T08:30:21.671Z</time></trkpt><trkpt lat="37.9553778" lon="-2.9192334"><ele>799.0</ele><time>2026-04-13T08:30:22.671Z</time></trkpt><trkpt lat="37.955487" lon="-2.9191643"><ele>798.0</ele><time>2026-04-13T08:30:23.671Z</time></trkpt><trkpt lat="37.9555956" lon="-2.9190845"><ele>797.75</ele><time>2026-04-13T08:30:24.671Z</time></trkpt><trkpt lat="37.9557004" lon="-2.9189995"><ele>797.5</ele><time>2026-04-13T08:30:25.671Z</time></trkpt><trkpt lat="37.9557997" lon="-2.9189154"><ele>797.25</ele><time>2026-04-13T08:30:26.671Z</time></trkpt><trkpt lat="37.9558996" lon="-2.9188303"><ele>797.0</ele><time>2026-04-13T08:30:27.671Z</time></trkpt><trkpt lat="37.9559987" lon="-2.9187418"><ele>796.0</ele><time>2026-04-13T08:30:28.671Z</time></trkpt><trkpt lat="37.956088" lon="-2.9186585"><ele>795.0</ele><time>2026-04-13T08:30:29.671Z</time></trkpt><trkpt lat="37.9561759" lon="-2.9185769"><ele>794.0</ele><time>2026-04-13T08:30:30.671Z</time></trkpt><trkpt lat="37.9562687" lon="-2.9185025"><ele>793.0</ele><time>2026-04-13T08:30:31.671Z</time></trkpt><trkpt lat="37.9563584" lon="-2.9184654"><ele>792.0</ele><time>2026-04-13T08:30:32.671Z</time></trkpt><trkpt lat="37.9564555" lon="-2.9184557"><ele>792.0</ele><time>2026-04-13T08:30:33.671Z</time></trkpt><trkpt lat="37.9565498" lon="-2.9184906"><ele>792.0</ele><time>2026-04-13T08:30:34.671Z</time></trkpt><trkpt lat="37.9566465" lon="-2.9185822"><ele>792.0</ele><time>2026-04-13T08:30:35.671Z</time></trkpt><trkpt lat="37.9567358" lon="-2.918653"><ele>792.0</ele><time>2026-04-13T08:30:36.671Z</time></trkpt><trkpt lat="37.9568316" lon="-2.9187062"><ele>792.0</ele><time>2026-04-13T08:30:37.671Z</time></trkpt><trkpt lat="37.9569319" lon="-2.9187249"><ele>793.6</ele><time>2026-04-13T08:30:38.672Z</time></trkpt><trkpt lat="37.957029" lon="-2.9187203"><ele>795.2</ele><time>2026-04-13T08:30:39.671Z</time></trkpt><trkpt lat="37.957117" lon="-2.9186917"><ele>796.8</ele><time>2026-04-13T08:30:40.671Z</time></trkpt><trkpt lat="37.9572028" lon="-2.9186505"><ele>798.4</ele><time>2026-04-13T08:30:41.671Z</time></trkpt><trkpt lat="37.9572956" lon="-2.9185932"><ele>800.0</ele><time>2026-04-13T08:30:42.671Z</time></trkpt><trkpt lat="37.9573864" lon="-2.9185445"><ele>800.0</ele><time>2026-04-13T08:30:43.671Z</time></trkpt><trkpt lat="37.9574959" lon="-2.9184901"><ele>800.0</ele><time>2026-04-13T08:30:44.671Z</time></trkpt><trkpt lat="37.9576046" lon="-2.9184389"><ele>800.0</ele><time>2026-04-13T08:30:45.671Z</time></trkpt><trkpt lat="37.9577098" lon="-2.9183918"><ele>800.0</ele><time>2026-04-13T08:30:46.671Z</time></trkpt><trkpt lat="37.9578139" lon="-2.9183398"><ele>800.0</ele><time>2026-04-13T08:30:47.671Z</time></trkpt><trkpt lat="37.9579196" lon="-2.9182854"><ele>800.0</ele><time>2026-04-13T08:30:48.671Z</time></trkpt><trkpt lat="37.9580267" lon="-2.9182321"><ele>800.0</ele><time>2026-04-13T08:30:49.671Z</time></trkpt><trkpt lat="37.9581303" lon="-2.9181836"><ele>800.0</ele><time>2026-04-13T08:30:50.671Z</time></trkpt><trkpt lat="37.9582353" lon="-2.9181316"><ele>800.0</ele><time>2026-04-13T08:30:51.672Z</time></trkpt><trkpt lat="37.9583388" lon="-2.9180805"><ele>800.0</ele><time>2026-04-13T08:30:52.671Z</time></trkpt><trkpt lat="37.9584442" lon="-2.9180268"><ele>800.0</ele><time>2026-04-13T08:30:53.671Z</time></trkpt><trkpt lat="37.9585513" lon="-2.9179808"><ele>800.0</ele><time>2026-04-13T08:30:54.671Z</time></trkpt><trkpt lat="37.9586578" lon="-2.917925"><ele>799.8</ele><time>2026-04-13T08:30:55.671Z</time></trkpt><trkpt lat="37.9587651" lon="-2.9178732"><ele>799.6</ele><time>2026-04-13T08:30:56.671Z</time></trkpt><trkpt lat="37.9588701" lon="-2.9178202"><ele>799.4000000000001</ele><time>2026-04-13T08:30:57.671Z</time></trkpt><trkpt lat="37.958973" lon="-2.9177722"><ele>799.2</ele><time>2026-04-13T08:30:58.671Z</time></trkpt><trkpt lat="37.9590743" lon="-2.9177185"><ele>799.0</ele><time>2026-04-13T08:30:59.671Z</time></trkpt><trkpt lat="37.9591768" lon="-2.9176631"><ele>800.75</ele><time>2026-04-13T08:31:00.671Z</time></trkpt><trkpt lat="37.959282" lon="-2.9176093"><ele>802.5</ele><time>2026-04-13T08:31:01.671Z</time></trkpt><trkpt lat="37.9593913" lon="-2.9175589"><ele>804.25</ele><time>2026-04-13T08:31:02.671Z</time></trkpt><trkpt lat="37.9594989" lon="-2.9175056"><ele>806.0</ele><time>2026-04-13T08:31:03.671Z</time></trkpt><trkpt lat="37.959609" lon="-2.917452"><ele>806.0</ele><time>2026-04-13T08:31:04.671Z</time></trkpt><trkpt lat="37.9597192" lon="-2.9173962"><ele>806.0</ele><time>2026-04-13T08:31:05.671Z</time></trkpt><trkpt lat="37.9598306" lon="-2.9173391"><ele>806.0</ele><time>2026-04-13T08:31:06.671Z</time></trkpt><trkpt lat="37.959939" lon="-2.9172871"><ele>806.0</ele><time>2026-04-13T08:31:07.671Z</time></trkpt><trkpt lat="37.9600487" lon="-2.917235"><ele>809.25</ele><time>2026-04-13T08:31:08.671Z</time></trkpt><trkpt lat="37.9601556" lon="-2.9171821"><ele>812.5</ele><time>2026-04-13T08:31:09.671Z</time></trkpt><trkpt lat="37.9602618" lon="-2.9171294"><ele>815.75</ele><time>2026-04-13T08:31:10.671Z</time></trkpt><trkpt lat="37.9603665" lon="-2.9170777"><ele>819.0</ele><time>2026-04-13T08:31:11.671Z</time></trkpt><trkpt lat="37.9604742" lon="-2.9170239"><ele>819.0</ele><time>2026-04-13T08:31:12.671Z</time></trkpt><trkpt lat="37.9605793" lon="-2.9169693"><ele>819.0</ele><time>2026-04-13T08:31:13.671Z</time></trkpt><trkpt lat="37.9606805" lon="-2.9169154"><ele>819.0</ele><time>2026-04-13T08:31:14.671Z</time></trkpt><trkpt lat="37.9607819" lon="-2.9168647"><ele>819.0</ele><time>2026-04-13T08:31:15.671Z</time></trkpt><trkpt lat="37.9608924" lon="-2.9168079"><ele>816.5</ele><time>2026-04-13T08:31:16.671Z</time></trkpt><trkpt lat="37.9610013" lon="-2.9167524"><ele>814.0</ele><time>2026-04-13T08:31:17.671Z</time></trkpt><trkpt lat="37.9611101" lon="-2.9167001"><ele>811.5</ele><time>2026-04-13T08:31:18.671Z</time></trkpt><trkpt lat="37.9612228" lon="-2.9166448"><ele>809.0</ele><time>2026-04-13T08:31:19.671Z</time></trkpt><trkpt lat="37.9613363" lon="-2.9165888"><ele>809.0</ele><time>2026-04-13T08:31:20.671Z</time></trkpt><trkpt lat="37.9614414" lon="-2.9165258"><ele>809.0</ele><time>2026-04-13T08:31:21.671Z</time></trkpt><trkpt lat="37.961539" lon="-2.9164536"><ele>809.0</ele><time>2026-04-13T08:31:22.671Z</time></trkpt><trkpt lat="37.961622" lon="-2.916365"><ele>809.0</ele><time>2026-04-13T08:31:23.671Z</time></trkpt><trkpt lat="37.961694" lon="-2.9162515"><ele>809.25</ele><time>2026-04-13T08:31:24.671Z</time></trkpt><trkpt lat="37.9617583" lon="-2.9161327"><ele>809.5</ele><time>2026-04-13T08:31:25.671Z</time></trkpt><trkpt lat="37.9618217" lon="-2.9160064"><ele>809.75</ele><time>2026-04-13T08:31:26.671Z</time></trkpt><trkpt lat="37.9618822" lon="-2.9158827"><ele>810.0</ele><time>2026-04-13T08:31:27.671Z</time></trkpt><trkpt lat="37.9619604" lon="-2.9157761"><ele>807.5</ele><time>2026-04-13T08:31:28.671Z</time></trkpt><trkpt lat="37.9620562" lon="-2.9156888"><ele>805.0</ele><time>2026-04-13T08:31:29.671Z</time></trkpt><trkpt lat="37.9621673" lon="-2.9156225"><ele>802.5</ele><time>2026-04-13T08:31:30.671Z</time></trkpt><trkpt lat="37.9622843" lon="-2.9155666"><ele>800.0</ele><time>2026-04-13T08:31:31.671Z</time></trkpt><trkpt lat="37.9624046" lon="-2.9155077"><ele>800.0</ele><time>2026-04-13T08:31:32.671Z</time></trkpt><trkpt lat="37.9625231" lon="-2.9154449"><ele>800.0</ele><time>2026-04-13T08:31:33.672Z</time></trkpt><trkpt lat="37.962641" lon="-2.9153819"><ele>800.0</ele><time>2026-04-13T08:31:34.671Z</time></trkpt><trkpt lat="37.9627594" lon="-2.9153208"><ele>800.0</ele><time>2026-04-13T08:31:35.671Z</time></trkpt><trkpt lat="37.9628705" lon="-2.9152631"><ele>800.5</ele><time>2026-04-13T08:31:36.671Z</time></trkpt><trkpt lat="37.9629779" lon="-2.9152183"><ele>801.0</ele><time>2026-04-13T08:31:37.671Z</time></trkpt><trkpt lat="37.9630926" lon="-2.9151844"><ele>801.5</ele><time>2026-04-13T08:31:38.671Z</time></trkpt><trkpt lat="37.9632068" lon="-2.915151"><ele>802.0</ele><time>2026-04-13T08:31:39.671Z</time></trkpt><trkpt lat="37.963317" lon="-2.9151131"><ele>801.0</ele><time>2026-04-13T08:31:40.671Z</time></trkpt><trkpt lat="37.9634012" lon="-2.9150605"><ele>800.0</ele><time>2026-04-13T08:31:41.671Z</time></trkpt><trkpt lat="37.963478" lon="-2.9149841"><ele>799.0</ele><time>2026-04-13T08:31:42.671Z</time></trkpt><trkpt lat="37.9635497" lon="-2.9148801"><ele>798.0</ele><time>2026-04-13T08:31:43.671Z</time></trkpt><trkpt lat="37.9635994" lon="-2.9147581"><ele>797.0</ele><time>2026-04-13T08:31:44.671Z</time></trkpt><trkpt lat="37.9636453" lon="-2.9146305"><ele>797.0</ele><time>2026-04-13T08:31:45.671Z</time></trkpt><trkpt lat="37.9636932" lon="-2.9144959"><ele>797.0</ele><time>2026-04-13T08:31:46.671Z</time></trkpt><trkpt lat="37.9637415" lon="-2.9143643"><ele>797.0</ele><time>2026-04-13T08:31:47.671Z</time></trkpt><trkpt lat="37.9637909" lon="-2.9142352"><ele>797.0</ele><time>2026-04-13T08:31:48.672Z</time></trkpt><trkpt lat="37.9638454" lon="-2.9141055"><ele>795.0</ele><time>2026-04-13T08:31:49.671Z</time></trkpt><trkpt lat="37.9638989" lon="-2.9139727"><ele>793.0</ele><time>2026-04-13T08:31:50.671Z</time></trkpt><trkpt lat="37.9639413" lon="-2.9138596"><ele>791.0</ele><time>2026-04-13T08:31:51.671Z</time></trkpt><trkpt lat="37.9639793" lon="-2.9137318"><ele>789.0</ele><time>2026-04-13T08:31:52.671Z</time></trkpt><trkpt lat="37.9640295" lon="-2.9136182"><ele>787.0</ele><time>2026-04-13T08:31:53.671Z</time></trkpt><trkpt lat="37.964091" lon="-2.913515"><ele>787.0</ele><time>2026-04-13T08:31:54.671Z</time></trkpt><trkpt lat="37.9641817" lon="-2.9134591"><ele>787.0</ele><time>2026-04-13T08:31:55.671Z</time></trkpt><trkpt lat="37.9642821" lon="-2.9134135"><ele>787.0</ele><time>2026-04-13T08:31:56.671Z</time></trkpt><trkpt lat="37.9643874" lon="-2.9133759"><ele>787.0</ele><time>2026-04-13T08:31:57.671Z</time></trkpt><trkpt lat="37.9645014" lon="-2.9133708"><ele>787.0</ele><time>2026-04-13T08:31:58.671Z</time></trkpt><trkpt lat="37.9646038" lon="-2.9134017"><ele>787.4000000000001</ele><time>2026-04-13T08:31:59.671Z</time></trkpt><trkpt lat="37.9646944" lon="-2.9134454"><ele>787.8000000000001</ele><time>2026-04-13T08:32:00.671Z</time></trkpt><trkpt lat="37.9647748" lon="-2.9135307"><ele>788.2</ele><time>2026-04-13T08:32:01.671Z</time></trkpt><trkpt lat="37.9648481" lon="-2.9135932"><ele>788.6</ele><time>2026-04-13T08:32:02.671Z</time></trkpt><trkpt lat="37.9649222" lon="-2.9136381"><ele>789.0</ele><time>2026-04-13T08:32:03.671Z</time></trkpt><trkpt lat="37.9650048" lon="-2.9136684"><ele>789.2</ele><time>2026-04-13T08:32:04.671Z</time></trkpt><trkpt lat="37.9650864" lon="-2.9136726"><ele>789.4000000000001</ele><time>2026-04-13T08:32:05.671Z</time></trkpt><trkpt lat="37.9651846" lon="-2.9136378"><ele>789.6</ele><time>2026-04-13T08:32:06.671Z</time></trkpt><trkpt lat="37.9652692" lon="-2.9136011"><ele>789.8</ele><time>2026-04-13T08:32:07.671Z</time></trkpt><trkpt lat="37.9653737" lon="-2.913543"><ele>790.0</ele><time>2026-04-13T08:32:08.671Z</time></trkpt><trkpt lat="37.9654779" lon="-2.9134902"><ele>790.0</ele><time>2026-04-13T08:32:09.671Z</time></trkpt><trkpt lat="37.9655828" lon="-2.9134348"><ele>790.0</ele><time>2026-04-13T08:32:10.671Z</time></trkpt><trkpt lat="37.9656868" lon="-2.9133772"><ele>790.0</ele><time>2026-04-13T08:32:11.671Z</time></trkpt><trkpt lat="37.9657918" lon="-2.9133137"><ele>790.0</ele><time>2026-04-13T08:32:12.671Z</time></trkpt><trkpt lat="37.9658885" lon="-2.9132418"><ele>786.4</ele><time>2026-04-13T08:32:13.671Z</time></trkpt><trkpt lat="37.9659732" lon="-2.9131637"><ele>782.8</ele><time>2026-04-13T08:32:14.671Z</time></trkpt><trkpt lat="37.9660524" lon="-2.9130868"><ele>779.2</ele><time>2026-04-13T08:32:15.671Z</time></trkpt><trkpt lat="37.966133" lon="-2.9130215"><ele>775.6</ele><time>2026-04-13T08:32:16.671Z</time></trkpt><trkpt lat="37.9662255" lon="-2.9129855"><ele>772.0</ele><time>2026-04-13T08:32:17.671Z</time></trkpt><trkpt lat="37.9663218" lon="-2.9129766"><ele>772.0</ele><time>2026-04-13T08:32:18.671Z</time></trkpt><trkpt lat="37.9664182" lon="-2.9129814"><ele>772.0</ele><time>2026-04-13T08:32:19.671Z</time></trkpt><trkpt lat="37.966507" lon="-2.9129748"><ele>772.0</ele><time>2026-04-13T08:32:20.671Z</time></trkpt><trkpt lat="37.9665991" lon="-2.912933"><ele>772.0</ele><time>2026-04-13T08:32:21.671Z</time></trkpt><trkpt lat="37.9666792" lon="-2.9128586"><ele>772.0</ele><time>2026-04-13T08:32:22.671Z</time></trkpt><trkpt lat="37.9667561" lon="-2.9127693"><ele>772.0</ele><time>2026-04-13T08:32:23.671Z</time></trkpt><trkpt lat="37.9668202" lon="-2.9126634"><ele>772.0</ele><time>2026-04-13T08:32:24.672Z</time></trkpt><trkpt lat="37.9668834" lon="-2.9125482"><ele>772.0</ele><time>2026-04-13T08:32:25.671Z</time></trkpt><trkpt lat="37.9669454" lon="-2.9124352"><ele>772.0</ele><time>2026-04-13T08:32:26.671Z</time></trkpt><trkpt lat="37.9670017" lon="-2.9123475"><ele>772.0</ele><time>2026-04-13T08:32:27.671Z</time></trkpt><trkpt lat="37.9670595" lon="-2.9122681"><ele>769.2</ele><time>2026-04-13T08:32:28.671Z</time></trkpt><trkpt lat="37.9671239" lon="-2.9122085"><ele>766.4000000000001</ele><time>2026-04-13T08:32:29.671Z</time></trkpt><trkpt lat="37.9672012" lon="-2.9121621"><ele>763.5999999999999</ele><time>2026-04-13T08:32:30.671Z</time></trkpt><trkpt lat="37.9673129" lon="-2.9121559"><ele>760.8</ele><time>2026-04-13T08:32:31.671Z</time></trkpt><trkpt lat="37.9674218" lon="-2.9121761"><ele>758.0</ele><time>2026-04-13T08:32:32.671Z</time></trkpt><trkpt lat="37.9675287" lon="-2.9122089"><ele>756.4</ele><time>2026-04-13T08:32:33.671Z</time></trkpt><trkpt lat="37.9676316" lon="-2.9122567"><ele>754.8</ele><time>2026-04-13T08:32:34.671Z</time></trkpt><trkpt lat="37.9677334" lon="-2.9123055"><ele>753.2</ele><time>2026-04-13T08:32:35.671Z</time></trkpt><trkpt lat="37.9678357" lon="-2.9123545"><ele>751.6</ele><time>2026-04-13T08:32:36.672Z</time></trkpt><trkpt lat="37.9679327" lon="-2.912418"><ele>750.0</ele><time>2026-04-13T08:32:37.671Z</time></trkpt><trkpt lat="37.9680261" lon="-2.9124852"><ele>750.6</ele><time>2026-04-13T08:32:38.671Z</time></trkpt><trkpt lat="37.9681186" lon="-2.9125731"><ele>751.2</ele><time>2026-04-13T08:32:39.671Z</time></trkpt><trkpt lat="37.9682037" lon="-2.91267"><ele>751.8</ele><time>2026-04-13T08:32:40.671Z</time></trkpt><trkpt lat="37.9682829" lon="-2.9127669"><ele>752.4</ele><time>2026-04-13T08:32:41.671Z</time></trkpt><trkpt lat="37.9683611" lon="-2.9128565"><ele>753.0</ele><time>2026-04-13T08:32:42.671Z</time></trkpt><trkpt lat="37.9684452" lon="-2.9129404"><ele>753.0</ele><time>2026-04-13T08:32:43.671Z</time></trkpt><trkpt lat="37.9685373" lon="-2.9130122"><ele>753.0</ele><time>2026-04-13T08:32:44.671Z</time></trkpt><trkpt lat="37.9686292" lon="-2.9130683"><ele>753.0</ele><time>2026-04-13T08:32:45.671Z</time></trkpt><trkpt lat="37.9687389" lon="-2.9130935"><ele>753.0</ele><time>2026-04-13T08:32:46.671Z</time></trkpt><trkpt lat="37.9688546" lon="-2.9131054"><ele>753.0</ele><time>2026-04-13T08:32:47.671Z</time></trkpt><trkpt lat="37.9689677" lon="-2.913128"><ele>753.0</ele><time>2026-04-13T08:32:48.671Z</time></trkpt><trkpt lat="37.9690805" lon="-2.9131515"><ele>753.0</ele><time>2026-04-13T08:32:49.671Z</time></trkpt><trkpt lat="37.9691975" lon="-2.9131779"><ele>753.0</ele><time>2026-04-13T08:32:50.671Z</time></trkpt><trkpt lat="37.9693109" lon="-2.9132143"><ele>753.0</ele><time>2026-04-13T08:32:51.671Z</time></trkpt><trkpt lat="37.9694257" lon="-2.913252"><ele>750.8</ele><time>2026-04-13T08:32:52.671Z</time></trkpt><trkpt lat="37.9695334" lon="-2.9132885"><ele>748.5999999999999</ele><time>2026-04-13T08:32:53.671Z</time></trkpt><trkpt lat="37.969641" lon="-2.9133322"><ele>746.4000000000001</ele><time>2026-04-13T08:32:54.671Z</time></trkpt><trkpt lat="37.9697414" lon="-2.9133829"><ele>744.2</ele><time>2026-04-13T08:32:55.671Z</time></trkpt><trkpt lat="37.9698361" lon="-2.9134393"><ele>742.0</ele><time>2026-04-13T08:32:56.671Z</time></trkpt><trkpt lat="37.9699286" lon="-2.9135044"><ele>742.0</ele><time>2026-04-13T08:32:57.671Z</time></trkpt><trkpt lat="37.9700126" lon="-2.9135692"><ele>742.0</ele><time>2026-04-13T08:32:58.671Z</time></trkpt><trkpt lat="37.970097" lon="-2.9136319"><ele>742.0</ele><time>2026-04-13T08:32:59.671Z</time></trkpt><trkpt lat="37.9701838" lon="-2.9136743"><ele>742.0</ele><time>2026-04-13T08:33:00.671Z</time></trkpt><trkpt lat="37.9702716" lon="-2.9136892"><ele>742.0</ele><time>2026-04-13T08:33:01.671Z</time></trkpt><trkpt lat="37.9703564" lon="-2.9136805"><ele>743.5</ele><time>2026-04-13T08:33:02.671Z</time></trkpt><trkpt lat="37.9704408" lon="-2.9136436"><ele>745.0</ele><time>2026-04-13T08:33:03.671Z</time></trkpt><trkpt lat="37.9705246" lon="-2.9135946"><ele>746.5</ele><time>2026-04-13T08:33:04.671Z</time></trkpt><trkpt lat="37.9706024" lon="-2.9135428"><ele>748.0</ele><time>2026-04-13T08:33:05.671Z</time></trkpt><trkpt lat="37.9706736" lon="-2.913475"><ele>749.5</ele><time>2026-04-13T08:33:06.671Z</time></trkpt><trkpt lat="37.9707209" lon="-2.9133912"><ele>751.0</ele><time>2026-04-13T08:33:07.671Z</time></trkpt><trkpt lat="37.9707459" lon="-2.9132898"><ele>751.0</ele><time>2026-04-13T08:33:08.671Z</time></trkpt><trkpt lat="37.9707448" lon="-2.9131812"><ele>751.0</ele><time>2026-04-13T08:33:09.671Z</time></trkpt><trkpt lat="37.9707175" lon="-2.9130726"><ele>751.0</ele><time>2026-04-13T08:33:10.671Z</time></trkpt><trkpt lat="37.9706598" lon="-2.9129803"><ele>751.0</ele><time>2026-04-13T08:33:11.671Z</time></trkpt><trkpt lat="37.9705899" lon="-2.9128883"><ele>751.0</ele><time>2026-04-13T08:33:12.671Z</time></trkpt><trkpt lat="37.9705222" lon="-2.9127902"><ele>751.0</ele><time>2026-04-13T08:33:13.671Z</time></trkpt><trkpt lat="37.9704528" lon="-2.9126955"><ele>751.0</ele><time>2026-04-13T08:33:14.671Z</time></trkpt><trkpt lat="37.9703807" lon="-2.9126004"><ele>751.0</ele><time>2026-04-13T08:33:15.672Z</time></trkpt><trkpt lat="37.970309" lon="-2.9125034"><ele>751.0</ele><time>2026-04-13T08:33:16.671Z</time></trkpt><trkpt lat="37.97024" lon="-2.912404"><ele>751.0</ele><time>2026-04-13T08:33:17.671Z</time></trkpt><trkpt lat="37.9701791" lon="-2.9123034"><ele>752.0</ele><time>2026-04-13T08:33:18.671Z</time></trkpt><trkpt lat="37.970125" lon="-2.9121905"><ele>753.0</ele><time>2026-04-13T08:33:19.671Z</time></trkpt><trkpt lat="37.9700846" lon="-2.9120678"><ele>754.0</ele><time>2026-04-13T08:33:20.671Z</time></trkpt><trkpt lat="37.9700576" lon="-2.9119358"><ele>755.0</ele><time>2026-04-13T08:33:21.671Z</time></trkpt><trkpt lat="37.9700431" lon="-2.9118041"><ele>756.0</ele><time>2026-04-13T08:33:22.671Z</time></trkpt><trkpt lat="37.9700519" lon="-2.9116703"><ele>756.0</ele><time>2026-04-13T08:33:23.671Z</time></trkpt><trkpt lat="37.9700854" lon="-2.9115504"><ele>756.0</ele><time>2026-04-13T08:33:24.671Z</time></trkpt><trkpt lat="37.9701441" lon="-2.9114365"><ele>756.0</ele><time>2026-04-13T08:33:25.671Z</time></trkpt><trkpt lat="37.9702086" lon="-2.911334"><ele>756.0</ele><time>2026-04-13T08:33:26.671Z</time></trkpt><trkpt lat="37.9702806" lon="-2.9112337"><ele>756.0</ele><time>2026-04-13T08:33:27.671Z</time></trkpt><trkpt lat="37.9703564" lon="-2.9111452"><ele>756.0</ele><time>2026-04-13T08:33:28.671Z</time></trkpt><trkpt lat="37.9704523" lon="-2.91105"><ele>756.0</ele><time>2026-04-13T08:33:29.671Z</time></trkpt><trkpt lat="37.9705461" lon="-2.9109708"><ele>756.0</ele><time>2026-04-13T08:33:30.671Z</time></trkpt><trkpt lat="37.9706469" lon="-2.9108842"><ele>756.0</ele><time>2026-04-13T08:33:31.671Z</time></trkpt><trkpt lat="37.9707493" lon="-2.9107994"><ele>754.5</ele><time>2026-04-13T08:33:32.671Z</time></trkpt><trkpt lat="37.9708494" lon="-2.9107146"><ele>753.0</ele><time>2026-04-13T08:33:33.671Z</time></trkpt><trkpt lat="37.9709484" lon="-2.910629"><ele>751.5</ele><time>2026-04-13T08:33:34.671Z</time></trkpt><trkpt lat="37.9710456" lon="-2.9105467"><ele>750.0</ele><time>2026-04-13T08:33:35.671Z</time></trkpt><trkpt lat="37.9711385" lon="-2.9104624"><ele>750.0</ele><time>2026-04-13T08:33:36.671Z</time></trkpt><trkpt lat="37.9712321" lon="-2.9103824"><ele>750.0</ele><time>2026-04-13T08:33:37.671Z</time></trkpt><trkpt lat="37.9713248" lon="-2.9103058"><ele>750.0</ele><time>2026-04-13T08:33:38.672Z</time></trkpt><trkpt lat="37.9714147" lon="-2.9102381"><ele>750.0</ele><time>2026-04-13T08:33:39.671Z</time></trkpt><trkpt lat="37.9715152" lon="-2.9101911"><ele>750.0</ele><time>2026-04-13T08:33:40.671Z</time></trkpt><trkpt lat="37.9716169" lon="-2.9101659"><ele>751.6</ele><time>2026-04-13T08:33:41.671Z</time></trkpt><trkpt lat="37.9717215" lon="-2.9101528"><ele>753.2</ele><time>2026-04-13T08:33:42.671Z</time></trkpt><trkpt lat="37.9718286" lon="-2.9101329"><ele>754.8</ele><time>2026-04-13T08:33:43.671Z</time></trkpt><trkpt lat="37.9719345" lon="-2.9101176"><ele>756.4</ele><time>2026-04-13T08:33:44.672Z</time></trkpt><trkpt lat="37.9720433" lon="-2.9101035"><ele>758.0</ele><time>2026-04-13T08:33:45.671Z</time></trkpt><trkpt lat="37.9721448" lon="-2.9100845"><ele>758.8</ele><time>2026-04-13T08:33:46.671Z</time></trkpt><trkpt lat="37.9722476" lon="-2.9100532"><ele>759.5999999999999</ele><time>2026-04-13T08:33:47.671Z</time></trkpt><trkpt lat="37.9723416" lon="-2.9099788"><ele>760.4000000000001</ele><time>2026-04-13T08:33:48.671Z</time></trkpt><trkpt lat="37.9724243" lon="-2.9098835"><ele>761.2</ele><time>2026-04-13T08:33:49.671Z</time></trkpt><trkpt lat="37.9724991" lon="-2.9097708"><ele>762.0</ele><time>2026-04-13T08:33:50.671Z</time></trkpt><trkpt lat="37.9725723" lon="-2.9096553"><ele>762.0</ele><time>2026-04-13T08:33:51.671Z</time></trkpt><trkpt lat="37.9726493" lon="-2.9095395"><ele>762.0</ele><time>2026-04-13T08:33:52.671Z</time></trkpt><trkpt lat="37.9727303" lon="-2.9094261"><ele>762.0</ele><time>2026-04-13T08:33:53.671Z</time></trkpt><trkpt lat="37.9728113" lon="-2.9093108"><ele>762.0</ele><time>2026-04-13T08:33:54.671Z</time></trkpt><trkpt lat="37.9728967" lon="-2.9092029"><ele>759.75</ele><time>2026-04-13T08:33:55.671Z</time></trkpt><trkpt lat="37.9729836" lon="-2.9090913"><ele>757.5</ele><time>2026-04-13T08:33:56.671Z</time></trkpt><trkpt lat="37.9730766" lon="-2.908983"><ele>755.25</ele><time>2026-04-13T08:33:57.671Z</time></trkpt><trkpt lat="37.9731749" lon="-2.9088847"><ele>753.0</ele><time>2026-04-13T08:33:58.671Z</time></trkpt><trkpt lat="37.9732728" lon="-2.9087894"><ele>754.0</ele><time>2026-04-13T08:33:59.671Z</time></trkpt><trkpt lat="37.9733667" lon="-2.9086893"><ele>755.0</ele><time>2026-04-13T08:34:00.671Z</time></trkpt><trkpt lat="37.9734571" lon="-2.9085836"><ele>756.0</ele><time>2026-04-13T08:34:01.671Z</time></trkpt><trkpt lat="37.9735336" lon="-2.9084755"><ele>757.0</ele><time>2026-04-13T08:34:02.671Z</time></trkpt><trkpt lat="37.9736134" lon="-2.9083625"><ele>757.0</ele><time>2026-04-13T08:34:03.671Z</time></trkpt><trkpt lat="37.9736942" lon="-2.9082518"><ele>757.0</ele><time>2026-04-13T08:34:04.671Z</time></trkpt><trkpt lat="37.9737737" lon="-2.9081433"><ele>757.0</ele><time>2026-04-13T08:34:05.671Z</time></trkpt><trkpt lat="37.9738496" lon="-2.9080322"><ele>757.0</ele><time>2026-04-13T08:34:06.671Z</time></trkpt><trkpt lat="37.9739296" lon="-2.9079261"><ele>757.0</ele><time>2026-04-13T08:34:07.671Z</time></trkpt><trkpt lat="37.9740096" lon="-2.9078181"><ele>757.0</ele><time>2026-04-13T08:34:08.671Z</time></trkpt><trkpt lat="37.974085" lon="-2.9077129"><ele>757.0</ele><time>2026-04-13T08:34:09.671Z</time></trkpt><trkpt lat="37.974157" lon="-2.9076098"><ele>757.0</ele><time>2026-04-13T08:34:10.671Z</time></trkpt><trkpt lat="37.9742229" lon="-2.9075102"><ele>757.0</ele><time>2026-04-13T08:34:11.671Z</time></trkpt><trkpt lat="37.9742755" lon="-2.9073944"><ele>755.8</ele><time>2026-04-13T08:34:12.671Z</time></trkpt><trkpt lat="37.974304" lon="-2.9072689"><ele>754.6</ele><time>2026-04-13T08:34:13.671Z</time></trkpt><trkpt lat="37.974309" lon="-2.9071349"><ele>753.4</ele><time>2026-04-13T08:34:14.671Z</time></trkpt><trkpt lat="37.9743127" lon="-2.906994"><ele>752.1999999999999</ele><time>2026-04-13T08:34:15.671Z</time></trkpt><trkpt lat="37.9743284" lon="-2.9068611"><ele>751.0</ele><time>2026-04-13T08:34:16.671Z</time></trkpt><trkpt lat="37.9743546" lon="-2.9067297"><ele>749.1999999999999</ele><time>2026-04-13T08:34:17.671Z</time></trkpt><trkpt lat="37.9743892" lon="-2.906601"><ele>747.4</ele><time>2026-04-13T08:34:18.671Z</time></trkpt><trkpt lat="37.9744345" lon="-2.9064874"><ele>745.6</ele><time>2026-04-13T08:34:19.671Z</time></trkpt><trkpt lat="37.9744995" lon="-2.9063805"><ele>743.8</ele><time>2026-04-13T08:34:20.671Z</time></trkpt><trkpt lat="37.9745784" lon="-2.9062994"><ele>742.0</ele><time>2026-04-13T08:34:21.671Z</time></trkpt><trkpt lat="37.9746666" lon="-2.9062353"><ele>742.0</ele><time>2026-04-13T08:34:22.672Z</time></trkpt><trkpt lat="37.974776" lon="-2.9062161"><ele>742.0</ele><time>2026-04-13T08:34:23.671Z</time></trkpt><trkpt lat="37.974881" lon="-2.9062006"><ele>742.0</ele><time>2026-04-13T08:34:24.671Z</time></trkpt><trkpt lat="37.9749855" lon="-2.906179"><ele>742.0</ele><time>2026-04-13T08:34:25.671Z</time></trkpt><trkpt lat="37.9750952" lon="-2.9061594"><ele>742.0</ele><time>2026-04-13T08:34:26.671Z</time></trkpt><trkpt lat="37.9752102" lon="-2.9061385"><ele>742.25</ele><time>2026-04-13T08:34:27.671Z</time></trkpt><trkpt lat="37.9753294" lon="-2.9061199"><ele>742.5</ele><time>2026-04-13T08:34:28.671Z</time></trkpt><trkpt lat="37.9754451" lon="-2.9060994"><ele>742.75</ele><time>2026-04-13T08:34:29.671Z</time></trkpt><trkpt lat="37.9755625" lon="-2.906078"><ele>743.0</ele><time>2026-04-13T08:34:30.671Z</time></trkpt><trkpt lat="37.9756757" lon="-2.9060553"><ele>743.0</ele><time>2026-04-13T08:34:31.671Z</time></trkpt><trkpt lat="37.9757909" lon="-2.9060343"><ele>743.0</ele><time>2026-04-13T08:34:32.671Z</time></trkpt><trkpt lat="37.9759089" lon="-2.9060147"><ele>743.0</ele><time>2026-04-13T08:34:33.671Z</time></trkpt><trkpt lat="37.9760214" lon="-2.905998"><ele>743.0</ele><time>2026-04-13T08:34:34.671Z</time></trkpt><trkpt lat="37.9761326" lon="-2.9059762"><ele>742.75</ele><time>2026-04-13T08:34:35.671Z</time></trkpt><trkpt lat="37.9762447" lon="-2.9059552"><ele>742.5</ele><time>2026-04-13T08:34:36.671Z</time></trkpt><trkpt lat="37.9763571" lon="-2.9059416"><ele>742.25</ele><time>2026-04-13T08:34:37.671Z</time></trkpt><trkpt lat="37.976469" lon="-2.9059349"><ele>742.0</ele><time>2026-04-13T08:34:38.671Z</time></trkpt><trkpt lat="37.9765805" lon="-2.90595"><ele>741.25</ele><time>2026-04-13T08:34:39.671Z</time></trkpt><trkpt lat="37.9766897" lon="-2.9059818"><ele>740.5</ele><time>2026-04-13T08:34:40.671Z</time></trkpt><trkpt lat="37.9767955" lon="-2.9060313"><ele>739.75</ele><time>2026-04-13T08:34:41.671Z</time></trkpt><trkpt lat="37.9769073" lon="-2.906096"><ele>739.0</ele><time>2026-04-13T08:34:42.671Z</time></trkpt><trkpt lat="37.9770137" lon="-2.9061585"><ele>739.0</ele><time>2026-04-13T08:34:43.671Z</time></trkpt><trkpt lat="37.9771254" lon="-2.9062257"><ele>739.0</ele><time>2026-04-13T08:34:44.671Z</time></trkpt><trkpt lat="37.977238" lon="-2.9062946"><ele>739.0</ele><time>2026-04-13T08:34:45.671Z</time></trkpt><trkpt lat="37.9773506" lon="-2.9063624"><ele>739.0</ele><time>2026-04-13T08:34:46.671Z</time></trkpt><trkpt lat="37.9774757" lon="-2.9064342"><ele>737.25</ele><time>2026-04-13T08:34:47.671Z</time></trkpt><trkpt lat="37.977597" lon="-2.9064987"><ele>735.5</ele><time>2026-04-13T08:34:48.672Z</time></trkpt><trkpt lat="37.977717" lon="-2.9065618"><ele>733.75</ele><time>2026-04-13T08:34:49.671Z</time></trkpt><trkpt lat="37.9778294" lon="-2.9066288"><ele>732.0</ele><time>2026-04-13T08:34:50.671Z</time></trkpt><trkpt lat="37.977938" lon="-2.9066908"><ele>734.0</ele><time>2026-04-13T08:34:51.671Z</time></trkpt><trkpt lat="37.9780548" lon="-2.9067532"><ele>736.0</ele><time>2026-04-13T08:34:52.671Z</time></trkpt><trkpt lat="37.9781764" lon="-2.9068177"><ele>738.0</ele><time>2026-04-13T08:34:53.671Z</time></trkpt><trkpt lat="37.9782965" lon="-2.9068872"><ele>740.0</ele><time>2026-04-13T08:34:54.672Z</time></trkpt><trkpt lat="37.9784172" lon="-2.906958"><ele>740.0</ele><time>2026-04-13T08:34:55.671Z</time></trkpt><trkpt lat="37.9785319" lon="-2.9070239"><ele>740.0</ele><time>2026-04-13T08:34:56.671Z</time></trkpt><trkpt lat="37.9786443" lon="-2.9070865"><ele>740.0</ele><time>2026-04-13T08:34:57.671Z</time></trkpt><trkpt lat="37.9787561" lon="-2.907147"><ele>740.0</ele><time>2026-04-13T08:34:58.671Z</time></trkpt><trkpt lat="37.9788715" lon="-2.9072079"><ele>740.0</ele><time>2026-04-13T08:34:59.671Z</time></trkpt><trkpt lat="37.9789778" lon="-2.9072616"><ele>740.0</ele><time>2026-04-13T08:35:00.671Z</time></trkpt><trkpt lat="37.9790878" lon="-2.9073031"><ele>740.0</ele><time>2026-04-13T08:35:01.671Z</time></trkpt><trkpt lat="37.9791981" lon="-2.9073361"><ele>740.0</ele><time>2026-04-13T08:35:02.671Z</time></trkpt><trkpt lat="37.979309" lon="-2.9073659"><ele>741.75</ele><time>2026-04-13T08:35:03.671Z</time></trkpt><trkpt lat="37.979421" lon="-2.9073994"><ele>743.5</ele><time>2026-04-13T08:35:04.671Z</time></trkpt><trkpt lat="37.9795296" lon="-2.9074434"><ele>745.25</ele><time>2026-04-13T08:35:05.671Z</time></trkpt><trkpt lat="37.9796341" lon="-2.9075081"><ele>747.0</ele><time>2026-04-13T08:35:06.671Z</time></trkpt><trkpt lat="37.9797376" lon="-2.9075907"><ele>747.0</ele><time>2026-04-13T08:35:07.671Z</time></trkpt><trkpt lat="37.9798367" lon="-2.9076713"><ele>747.0</ele><time>2026-04-13T08:35:08.671Z</time></trkpt><trkpt lat="37.9799378" lon="-2.9077498"><ele>747.0</ele><time>2026-04-13T08:35:09.671Z</time></trkpt><trkpt lat="37.980038" lon="-2.9078268"><ele>747.0</ele><time>2026-04-13T08:35:10.671Z</time></trkpt><trkpt lat="37.9801403" lon="-2.9079038"><ele>743.0</ele><time>2026-04-13T08:35:11.671Z</time></trkpt><trkpt lat="37.9802402" lon="-2.9079842"><ele>739.0</ele><time>2026-04-13T08:35:12.671Z</time></trkpt><trkpt lat="37.980341" lon="-2.9080601"><ele>735.0</ele><time>2026-04-13T08:35:13.671Z</time></trkpt><trkpt lat="37.9804386" lon="-2.9081335"><ele>731.0</ele><time>2026-04-13T08:35:14.671Z</time></trkpt><trkpt lat="37.9805365" lon="-2.9082124"><ele>731.0</ele><time>2026-04-13T08:35:15.671Z</time></trkpt><trkpt lat="37.9806407" lon="-2.9082964"><ele>731.0</ele><time>2026-04-13T08:35:16.671Z</time></trkpt><trkpt lat="37.9807242" lon="-2.9083683"><ele>731.0</ele><time>2026-04-13T08:35:17.671Z</time></trkpt><trkpt lat="37.9808137" lon="-2.9084513"><ele>731.0</ele><time>2026-04-13T08:35:18.671Z</time></trkpt><trkpt lat="37.9809053" lon="-2.9085234"><ele>731.0</ele><time>2026-04-13T08:35:19.671Z</time></trkpt><trkpt lat="37.9809985" lon="-2.9085902"><ele>734.0</ele><time>2026-04-13T08:35:20.671Z</time></trkpt><trkpt lat="37.9810914" lon="-2.9086599"><ele>737.0</ele><time>2026-04-13T08:35:21.671Z</time></trkpt><trkpt lat="37.9811845" lon="-2.9087268"><ele>740.0</ele><time>2026-04-13T08:35:22.671Z</time></trkpt><trkpt lat="37.9812817" lon="-2.9087882"><ele>743.0</ele><time>2026-04-13T08:35:23.671Z</time></trkpt><trkpt lat="37.9813818" lon="-2.9088351"><ele>746.0</ele><time>2026-04-13T08:35:24.671Z</time></trkpt><trkpt lat="37.981492" lon="-2.9088592"><ele>746.0</ele><time>2026-04-13T08:35:25.671Z</time></trkpt><trkpt lat="37.9816029" lon="-2.9088658"><ele>746.0</ele><time>2026-04-13T08:35:26.671Z</time></trkpt><trkpt lat="37.9817121" lon="-2.9088564"><ele>746.0</ele><time>2026-04-13T08:35:27.671Z</time></trkpt><trkpt lat="37.9818245" lon="-2.9088169"><ele>746.0</ele><time>2026-04-13T08:35:28.671Z</time></trkpt><trkpt lat="37.9819322" lon="-2.9087651"><ele>748.0</ele><time>2026-04-13T08:35:29.671Z</time></trkpt><trkpt lat="37.982039" lon="-2.908718"><ele>750.0</ele><time>2026-04-13T08:35:30.671Z</time></trkpt><trkpt lat="37.982145" lon="-2.9086717"><ele>752.0</ele><time>2026-04-13T08:35:31.671Z</time></trkpt><trkpt lat="37.9822497" lon="-2.9086269"><ele>754.0</ele><time>2026-04-13T08:35:32.671Z</time></trkpt><trkpt lat="37.982353" lon="-2.9085845"><ele>756.0</ele><time>2026-04-13T08:35:33.671Z</time></trkpt><trkpt lat="37.9824554" lon="-2.9085473"><ele>754.8</ele><time>2026-04-13T08:35:34.671Z</time></trkpt><trkpt lat="37.9825616" lon="-2.9085101"><ele>753.5999999999999</ele><time>2026-04-13T08:35:35.671Z</time></trkpt><trkpt lat="37.9826613" lon="-2.9084557"><ele>752.4</ele><time>2026-04-13T08:35:36.671Z</time></trkpt><trkpt lat="37.9827577" lon="-2.9083834"><ele>751.2</ele><time>2026-04-13T08:35:37.671Z</time></trkpt><trkpt lat="37.9828423" lon="-2.908299"><ele>750.0</ele><time>2026-04-13T08:35:38.671Z</time></trkpt><trkpt lat="37.9829274" lon="-2.9082051"><ele>750.0</ele><time>2026-04-13T08:35:39.671Z</time></trkpt><trkpt lat="37.9830191" lon="-2.9081171"><ele>750.0</ele><time>2026-04-13T08:35:40.671Z</time></trkpt><trkpt lat="37.9831183" lon="-2.9080353"><ele>750.0</ele><time>2026-04-13T08:35:41.671Z</time></trkpt><trkpt lat="37.9832184" lon="-2.9079532"><ele>750.0</ele><time>2026-04-13T08:35:42.671Z</time></trkpt><trkpt lat="37.983318" lon="-2.9078689"><ele>754.25</ele><time>2026-04-13T08:35:43.671Z</time></trkpt><trkpt lat="37.9834189" lon="-2.9077889"><ele>758.5</ele><time>2026-04-13T08:35:44.671Z</time></trkpt><trkpt lat="37.9835156" lon="-2.9077222"><ele>762.75</ele><time>2026-04-13T08:35:45.671Z</time></trkpt><trkpt lat="37.9836239" lon="-2.9076638"><ele>767.0</ele><time>2026-04-13T08:35:46.671Z</time></trkpt><trkpt lat="37.983728" lon="-2.9076136"><ele>764.8</ele><time>2026-04-13T08:35:47.671Z</time></trkpt><trkpt lat="37.9838342" lon="-2.9075723"><ele>762.6</ele><time>2026-04-13T08:35:48.671Z</time></trkpt><trkpt lat="37.9839349" lon="-2.9075219"><ele>760.4</ele><time>2026-04-13T08:35:49.671Z</time></trkpt><trkpt lat="37.9840386" lon="-2.9074694"><ele>758.1999999999999</ele><time>2026-04-13T08:35:50.671Z</time></trkpt><trkpt lat="37.9841408" lon="-2.9074228"><ele>756.0</ele><time>2026-04-13T08:35:51.671Z</time></trkpt><trkpt lat="37.98424" lon="-2.9073793"><ele>756.0</ele><time>2026-04-13T08:35:52.672Z</time></trkpt><trkpt lat="37.9843425" lon="-2.9073411"><ele>756.0</ele><time>2026-04-13T08:35:53.671Z</time></trkpt><trkpt lat="37.9844461" lon="-2.9073112"><ele>756.0</ele><time>2026-04-13T08:35:54.671Z</time></trkpt><trkpt lat="37.9845477" lon="-2.9072871"><ele>756.0</ele><time>2026-04-13T08:35:55.671Z</time></trkpt><trkpt lat="37.9846524" lon="-2.9072701"><ele>756.0</ele><time>2026-04-13T08:35:56.671Z</time></trkpt><trkpt lat="37.9847506" lon="-2.9072473"><ele>756.0</ele><time>2026-04-13T08:35:57.671Z</time></trkpt><trkpt lat="37.9848478" lon="-2.9072144"><ele>756.0</ele><time>2026-04-13T08:35:58.671Z</time></trkpt><trkpt lat="37.9849429" lon="-2.9071692"><ele>756.0</ele><time>2026-04-13T08:35:59.671Z</time></trkpt><trkpt lat="37.9850357" lon="-2.9071153"><ele>756.0</ele><time>2026-04-13T08:36:00.671Z</time></trkpt><trkpt lat="37.9851388" lon="-2.9070477"><ele>756.0</ele><time>2026-04-13T08:36:01.671Z</time></trkpt><trkpt lat="37.9852369" lon="-2.9069949"><ele>759.4</ele><time>2026-04-13T08:36:02.671Z</time></trkpt><trkpt lat="37.9853405" lon="-2.9069463"><ele>762.8</ele><time>2026-04-13T08:36:03.671Z</time></trkpt><trkpt lat="37.9854448" lon="-2.906905"><ele>766.1999999999999</ele><time>2026-04-13T08:36:04.672Z</time></trkpt><trkpt lat="37.985556" lon="-2.9068634"><ele>769.5999999999999</ele><time>2026-04-13T08:36:05.671Z</time></trkpt><trkpt lat="37.9856625" lon="-2.9068209"><ele>773.0</ele><time>2026-04-13T08:36:06.671Z</time></trkpt><trkpt lat="37.9857676" lon="-2.906773"><ele>767.2</ele><time>2026-04-13T08:36:07.672Z</time></trkpt><trkpt lat="37.9858727" lon="-2.9067268"><ele>761.4</ele><time>2026-04-13T08:36:08.671Z</time></trkpt><trkpt lat="37.9859756" lon="-2.9066872"><ele>755.6</ele><time>2026-04-13T08:36:09.671Z</time></trkpt><trkpt lat="37.9860867" lon="-2.9066638"><ele>749.8000000000001</ele><time>2026-04-13T08:36:10.671Z</time></trkpt><trkpt lat="37.9861945" lon="-2.9066748"><ele>744.0</ele><time>2026-04-13T08:36:11.671Z</time></trkpt><trkpt lat="37.9862946" lon="-2.9067198"><ele>747.2</ele><time>2026-04-13T08:36:12.671Z</time></trkpt><trkpt lat="37.9863876" lon="-2.9067916"><ele>750.4000000000001</ele><time>2026-04-13T08:36:13.671Z</time></trkpt><trkpt lat="37.9864765" lon="-2.9068631"><ele>753.6</ele><time>2026-04-13T08:36:14.671Z</time></trkpt><trkpt lat="37.9865665" lon="-2.9069279"><ele>756.8</ele><time>2026-04-13T08:36:15.671Z</time></trkpt><trkpt lat="37.9866488" lon="-2.9069793"><ele>760.0</ele><time>2026-04-13T08:36:16.671Z</time></trkpt><trkpt lat="37.986726" lon="-2.9070021"><ele>764.2</ele><time>2026-04-13T08:36:17.671Z</time></trkpt><trkpt lat="37.9868064" lon="-2.9070001"><ele>768.4</ele><time>2026-04-13T08:36:18.671Z</time></trkpt><trkpt lat="37.9868863" lon="-2.9069745"><ele>772.5999999999999</ele><time>2026-04-13T08:36:19.671Z</time></trkpt><trkpt lat="37.9869708" lon="-2.9069244"><ele>776.8</ele><time>2026-04-13T08:36:20.671Z</time></trkpt><trkpt lat="37.9870566" lon="-2.9068511"><ele>781.0</ele><time>2026-04-13T08:36:21.671Z</time></trkpt><trkpt lat="37.9871279" lon="-2.906754"><ele>775.75</ele><time>2026-04-13T08:36:22.671Z</time></trkpt><trkpt lat="37.9871885" lon="-2.9066347"><ele>770.5</ele><time>2026-04-13T08:36:23.671Z</time></trkpt><trkpt lat="37.9872476" lon="-2.9065094"><ele>765.25</ele><time>2026-04-13T08:36:24.671Z</time></trkpt><trkpt lat="37.9873139" lon="-2.9063803"><ele>760.0</ele><time>2026-04-13T08:36:25.671Z</time></trkpt><trkpt lat="37.9873864" lon="-2.9062603"><ele>760.0</ele><time>2026-04-13T08:36:26.671Z</time></trkpt><trkpt lat="37.9874697" lon="-2.9061455"><ele>760.0</ele><time>2026-04-13T08:36:27.671Z</time></trkpt><trkpt lat="37.987559" lon="-2.9060381"><ele>760.0</ele><time>2026-04-13T08:36:28.671Z</time></trkpt><trkpt lat="37.9876524" lon="-2.9059313"><ele>760.0</ele><time>2026-04-13T08:36:29.671Z</time></trkpt><trkpt lat="37.9877515" lon="-2.9058272"><ele>760.0</ele><time>2026-04-13T08:36:30.671Z</time></trkpt><trkpt lat="37.9878489" lon="-2.9057225"><ele>760.0</ele><time>2026-04-13T08:36:31.671Z</time></trkpt><trkpt lat="37.9879433" lon="-2.905613"><ele>760.0</ele><time>2026-04-13T08:36:32.671Z</time></trkpt><trkpt lat="37.9880375" lon="-2.9055076"><ele>760.0</ele><time>2026-04-13T08:36:33.671Z</time></trkpt><trkpt lat="37.9881325" lon="-2.9053995"><ele>760.0</ele><time>2026-04-13T08:36:34.671Z</time></trkpt><trkpt lat="37.9882261" lon="-2.9052982"><ele>760.0</ele><time>2026-04-13T08:36:35.671Z</time></trkpt><trkpt lat="37.9883185" lon="-2.9051913"><ele>760.0</ele><time>2026-04-13T08:36:36.671Z</time></trkpt><trkpt lat="37.9884084" lon="-2.9050914"><ele>760.0</ele><time>2026-04-13T08:36:37.671Z</time></trkpt><trkpt lat="37.9884827" lon="-2.9050007"><ele>758.4</ele><time>2026-04-13T08:36:38.671Z</time></trkpt><trkpt lat="37.988546" lon="-2.9049061"><ele>756.8</ele><time>2026-04-13T08:36:39.671Z</time></trkpt><trkpt lat="37.9885975" lon="-2.9048047"><ele>755.2</ele><time>2026-04-13T08:36:40.671Z</time></trkpt><trkpt lat="37.9886326" lon="-2.9046929"><ele>753.6</ele><time>2026-04-13T08:36:41.671Z</time></trkpt><trkpt lat="37.9886551" lon="-2.9045716"><ele>752.0</ele><time>2026-04-13T08:36:42.671Z</time></trkpt><trkpt lat="37.9886607" lon="-2.9044506"><ele>752.0</ele><time>2026-04-13T08:36:43.672Z</time></trkpt><trkpt lat="37.9886577" lon="-2.9043313"><ele>752.0</ele><time>2026-04-13T08:36:44.671Z</time></trkpt><trkpt lat="37.9886644" lon="-2.9042146"><ele>752.0</ele><time>2026-04-13T08:36:45.671Z</time></trkpt><trkpt lat="37.9886815" lon="-2.9040956"><ele>752.0</ele><time>2026-04-13T08:36:46.671Z</time></trkpt><trkpt lat="37.9887206" lon="-2.903986"><ele>752.0</ele><time>2026-04-13T08:36:47.671Z</time></trkpt><trkpt lat="37.9887811" lon="-2.9038894"><ele>753.2</ele><time>2026-04-13T08:36:48.671Z</time></trkpt><trkpt lat="37.988861" lon="-2.903817"><ele>754.4000000000001</ele><time>2026-04-13T08:36:49.671Z</time></trkpt><trkpt lat="37.9889519" lon="-2.9037681"><ele>755.5999999999999</ele><time>2026-04-13T08:36:50.671Z</time></trkpt><trkpt lat="37.9890582" lon="-2.9037505"><ele>756.8</ele><time>2026-04-13T08:36:51.671Z</time></trkpt><trkpt lat="37.9891612" lon="-2.9037364"><ele>758.0</ele><time>2026-04-13T08:36:52.671Z</time></trkpt><trkpt lat="37.9892555" lon="-2.9037166"><ele>758.0</ele><time>2026-04-13T08:36:53.671Z</time></trkpt><trkpt lat="37.9893423" lon="-2.9036734"><ele>758.0</ele><time>2026-04-13T08:36:54.671Z</time></trkpt><trkpt lat="37.9894233" lon="-2.9036182"><ele>758.0</ele><time>2026-04-13T08:36:55.671Z</time></trkpt><trkpt lat="37.9894884" lon="-2.9035342"><ele>758.0</ele><time>2026-04-13T08:36:56.672Z</time></trkpt><trkpt lat="37.98955" lon="-2.9034348"><ele>758.0</ele><time>2026-04-13T08:36:57.671Z</time></trkpt><trkpt lat="37.9896151" lon="-2.9033385"><ele>759.2</ele><time>2026-04-13T08:36:58.671Z</time></trkpt><trkpt lat="37.9896924" lon="-2.9032469"><ele>760.4</ele><time>2026-04-13T08:36:59.671Z</time></trkpt><trkpt lat="37.9897841" lon="-2.9031651"><ele>761.6</ele><time>2026-04-13T08:37:00.671Z</time></trkpt><trkpt lat="37.9898817" lon="-2.9030947"><ele>762.8000000000001</ele><time>2026-04-13T08:37:01.671Z</time></trkpt><trkpt lat="37.989983" lon="-2.9030249"><ele>764.0</ele><time>2026-04-13T08:37:02.671Z</time></trkpt><trkpt lat="37.9900723" lon="-2.9029581"><ele>764.0</ele><time>2026-04-13T08:37:03.671Z</time></trkpt><trkpt lat="37.9901501" lon="-2.9028843"><ele>764.0</ele><time>2026-04-13T08:37:04.671Z</time></trkpt><trkpt lat="37.9902131" lon="-2.9027931"><ele>764.0</ele><time>2026-04-13T08:37:05.671Z</time></trkpt><trkpt lat="37.9902691" lon="-2.9026849"><ele>764.0</ele><time>2026-04-13T08:37:06.671Z</time></trkpt><trkpt lat="37.9903156" lon="-2.9025665"><ele>764.0</ele><time>2026-04-13T08:37:07.671Z</time></trkpt><trkpt lat="37.9903741" lon="-2.9024538"><ele>758.8000000000001</ele><time>2026-04-13T08:37:08.671Z</time></trkpt><trkpt lat="37.9904385" lon="-2.9023515"><ele>753.6</ele><time>2026-04-13T08:37:09.671Z</time></trkpt><trkpt lat="37.990518" lon="-2.9022576"><ele>748.4</ele><time>2026-04-13T08:37:10.671Z</time></trkpt><trkpt lat="37.9905991" lon="-2.9021654"><ele>743.2</ele><time>2026-04-13T08:37:11.671Z</time></trkpt><trkpt lat="37.9906729" lon="-2.9020747"><ele>738.0</ele><time>2026-04-13T08:37:12.671Z</time></trkpt><trkpt lat="37.9907455" lon="-2.9019827"><ele>738.0</ele><time>2026-04-13T08:37:13.671Z</time></trkpt><trkpt lat="37.9908047" lon="-2.9018748"><ele>738.0</ele><time>2026-04-13T08:37:14.671Z</time></trkpt><trkpt lat="37.9908474" lon="-2.9017529"><ele>738.0</ele><time>2026-04-13T08:37:15.671Z</time></trkpt><trkpt lat="37.990878" lon="-2.9016217"><ele>738.0</ele><time>2026-04-13T08:37:16.672Z</time></trkpt><trkpt lat="37.9909013" lon="-2.9015"><ele>738.0</ele><time>2026-04-13T08:37:17.671Z</time></trkpt><trkpt lat="37.99094" lon="-2.9013838"><ele>738.5999999999999</ele><time>2026-04-13T08:37:18.671Z</time></trkpt><trkpt lat="37.9909889" lon="-2.9012723"><ele>739.1999999999999</ele><time>2026-04-13T08:37:19.671Z</time></trkpt><trkpt lat="37.9910404" lon="-2.9011617"><ele>739.8</ele><time>2026-04-13T08:37:20.671Z</time></trkpt><trkpt lat="37.9910809" lon="-2.9010524"><ele>740.4</ele><time>2026-04-13T08:37:21.671Z</time></trkpt><trkpt lat="37.9911081" lon="-2.9009372"><ele>741.0</ele><time>2026-04-13T08:37:22.671Z</time></trkpt><trkpt lat="37.9910935" lon="-2.9008176"><ele>741.0</ele><time>2026-04-13T08:37:23.671Z</time></trkpt><trkpt lat="37.9910684" lon="-2.9007025"><ele>741.0</ele><time>2026-04-13T08:37:24.671Z</time></trkpt><trkpt lat="37.9910502" lon="-2.9005865"><ele>741.0</ele><time>2026-04-13T08:37:25.671Z</time></trkpt><trkpt lat="37.991046" lon="-2.9004701"><ele>741.0</ele><time>2026-04-13T08:37:26.671Z</time></trkpt><trkpt lat="37.9910575" lon="-2.9003549"><ele>741.0</ele><time>2026-04-13T08:37:27.671Z</time></trkpt><trkpt lat="37.9910811" lon="-2.9002424"><ele>741.0</ele><time>2026-04-13T08:37:28.671Z</time></trkpt><trkpt lat="37.9911209" lon="-2.9001451"><ele>741.0</ele><time>2026-04-13T08:37:29.671Z</time></trkpt><trkpt lat="37.9911744" lon="-2.9000594"><ele>741.0</ele><time>2026-04-13T08:37:30.671Z</time></trkpt><trkpt lat="37.9912343" lon="-2.8999912"><ele>741.0</ele><time>2026-04-13T08:37:31.671Z</time></trkpt><trkpt lat="37.991299" lon="-2.8999359"><ele>741.0</ele><time>2026-04-13T08:37:32.671Z</time></trkpt><trkpt lat="37.9913796" lon="-2.8999016"><ele>741.0</ele><time>2026-04-13T08:37:33.671Z</time></trkpt><trkpt lat="37.9914671" lon="-2.8998857"><ele>740.3333333333334</ele><time>2026-04-13T08:37:34.671Z</time></trkpt><trkpt lat="37.9915532" lon="-2.8998699"><ele>739.6666666666666</ele><time>2026-04-13T08:37:35.671Z</time></trkpt><trkpt lat="37.991641" lon="-2.899853"><ele>739.0</ele><time>2026-04-13T08:37:36.671Z</time></trkpt><trkpt lat="37.9917303" lon="-2.8998322"><ele>738.3333333333333</ele><time>2026-04-13T08:37:37.671Z</time></trkpt><trkpt lat="37.9918125" lon="-2.8998102"><ele>737.6666666666666</ele><time>2026-04-13T08:37:38.671Z</time></trkpt><trkpt lat="37.9918887" lon="-2.8997857"><ele>737.0</ele><time>2026-04-13T08:37:39.671Z</time></trkpt><trkpt lat="37.9919541" lon="-2.8997643"><ele>737.0</ele><time>2026-04-13T08:37:40.671Z</time></trkpt><trkpt lat="37.9920554" lon="-2.899724"><ele>737.0</ele><time>2026-04-13T08:37:42.671Z</time></trkpt><trkpt lat="37.992124" lon="-2.8996984"><ele>737.0</ele><time>2026-04-13T08:39:39.671Z</time></trkpt><trkpt lat="37.9922278" lon="-2.8996346"><ele>737.0</ele><time>2026-04-13T08:39:41.671Z</time></trkpt><trkpt lat="37.9922855" lon="-2.89959"><ele>737.0</ele><time>2026-04-13T08:39:42.671Z</time></trkpt><trkpt lat="37.9923404" lon="-2.8995378"><ele>737.0</ele><time>2026-04-13T08:39:43.671Z</time></trkpt><trkpt lat="37.9923934" lon="-2.8994784"><ele>737.0000000000001</ele><time>2026-04-13T08:39:44.671Z</time></trkpt><trkpt lat="37.9924422" lon="-2.8994179"><ele>737.0</ele><time>2026-04-13T08:39:45.671Z</time></trkpt><trkpt lat="37.9924808" lon="-2.8993525"><ele>737.0</ele><time>2026-04-13T08:39:46.671Z</time></trkpt><trkpt lat="37.9925142" lon="-2.8992825"><ele>737.0</ele><time>2026-04-13T08:39:47.671Z</time></trkpt><trkpt lat="37.9925409" lon="-2.8992031"><ele>737.0</ele><time>2026-04-13T08:39:48.671Z</time></trkpt><trkpt lat="37.992561" lon="-2.8991109"><ele>737.0000000000001</ele><time>2026-04-13T08:39:49.671Z</time></trkpt><trkpt lat="37.9925877" lon="-2.8990161"><ele>737.0</ele><time>2026-04-13T08:39:50.671Z</time></trkpt><trkpt lat="37.992626" lon="-2.8989223"><ele>737.4000000000001</ele><time>2026-04-13T08:39:51.671Z</time></trkpt><trkpt lat="37.9926874" lon="-2.8988441"><ele>737.8000000000001</ele><time>2026-04-13T08:39:52.671Z</time></trkpt><trkpt lat="37.9927674" lon="-2.8987762"><ele>738.2</ele><time>2026-04-13T08:39:53.671Z</time></trkpt><trkpt lat="37.9928616" lon="-2.8987393"><ele>738.6</ele><time>2026-04-13T08:39:54.671Z</time></trkpt><trkpt lat="37.9929634" lon="-2.8987202"><ele>739.0</ele><time>2026-04-13T08:39:55.671Z</time></trkpt><trkpt lat="37.9930675" lon="-2.8987132"><ele>739.0</ele><time>2026-04-13T08:39:56.671Z</time></trkpt><trkpt lat="37.9931681" lon="-2.8987006"><ele>739.0</ele><time>2026-04-13T08:39:57.671Z</time></trkpt><trkpt lat="37.993274" lon="-2.8986766"><ele>739.0</ele><time>2026-04-13T08:39:58.671Z</time></trkpt><trkpt lat="37.9933789" lon="-2.8986362"><ele>739.0</ele><time>2026-04-13T08:39:59.671Z</time></trkpt><trkpt lat="37.9934845" lon="-2.8985839"><ele>739.0</ele><time>2026-04-13T08:40:00.671Z</time></trkpt><trkpt lat="37.9935895" lon="-2.8985251"><ele>736.25</ele><time>2026-04-13T08:40:01.671Z</time></trkpt><trkpt lat="37.993697" lon="-2.8984605"><ele>733.5</ele><time>2026-04-13T08:40:02.671Z</time></trkpt><trkpt lat="37.9938046" lon="-2.8983884"><ele>730.75</ele><time>2026-04-13T08:40:03.671Z</time></trkpt><trkpt lat="37.9939108" lon="-2.8983142"><ele>728.0</ele><time>2026-04-13T08:40:04.672Z</time></trkpt><trkpt lat="37.994011" lon="-2.8982362"><ele>728.0</ele><time>2026-04-13T08:40:05.671Z</time></trkpt><trkpt lat="37.9940985" lon="-2.8981615"><ele>728.0</ele><time>2026-04-13T08:40:06.671Z</time></trkpt><trkpt lat="37.9941869" lon="-2.8980955"><ele>728.0</ele><time>2026-04-13T08:40:07.671Z</time></trkpt><trkpt lat="37.9942731" lon="-2.8980463"><ele>728.0</ele><time>2026-04-13T08:40:08.671Z</time></trkpt><trkpt lat="37.9943642" lon="-2.8980184"><ele>728.0</ele><time>2026-04-13T08:40:09.671Z</time></trkpt><trkpt lat="37.9944566" lon="-2.8980138"><ele>729.5999999999999</ele><time>2026-04-13T08:40:10.671Z</time></trkpt><trkpt lat="37.9945478" lon="-2.8980144"><ele>731.1999999999999</ele><time>2026-04-13T08:40:11.671Z</time></trkpt><trkpt lat="37.99464" lon="-2.8980098"><ele>732.8</ele><time>2026-04-13T08:40:12.671Z</time></trkpt><trkpt lat="37.9947297" lon="-2.8979844"><ele>734.4</ele><time>2026-04-13T08:40:13.671Z</time></trkpt><trkpt lat="37.9948131" lon="-2.8979342"><ele>736.0</ele><time>2026-04-13T08:40:14.671Z</time></trkpt><trkpt lat="37.9948822" lon="-2.8978565"><ele>736.0</ele><time>2026-04-13T08:40:15.671Z</time></trkpt><trkpt lat="37.9949366" lon="-2.8977488"><ele>736.0</ele><time>2026-04-13T08:40:16.671Z</time></trkpt><trkpt lat="37.9949745" lon="-2.8976326"><ele>736.0</ele><time>2026-04-13T08:40:17.671Z</time></trkpt><trkpt lat="37.995006" lon="-2.8975088"><ele>736.0</ele><time>2026-04-13T08:40:18.671Z</time></trkpt><trkpt lat="37.9950355" lon="-2.8973831"><ele>736.0</ele><time>2026-04-13T08:40:19.671Z</time></trkpt><trkpt lat="37.9950649" lon="-2.8972573"><ele>736.5999999999999</ele><time>2026-04-13T08:40:20.671Z</time></trkpt><trkpt lat="37.9950961" lon="-2.8971311"><ele>737.2</ele><time>2026-04-13T08:40:21.671Z</time></trkpt><trkpt lat="37.9951239" lon="-2.8970062"><ele>737.8</ele><time>2026-04-13T08:40:22.671Z</time></trkpt><trkpt lat="37.995152" lon="-2.8968846"><ele>738.4000000000001</ele><time>2026-04-13T08:40:23.672Z</time></trkpt><trkpt lat="37.9951798" lon="-2.8967674"><ele>739.0</ele><time>2026-04-13T08:40:24.671Z</time></trkpt><trkpt lat="37.9952076" lon="-2.8966505"><ele>739.0</ele><time>2026-04-13T08:40:25.671Z</time></trkpt><trkpt lat="37.9952352" lon="-2.8965351"><ele>739.0</ele><time>2026-04-13T08:40:26.671Z</time></trkpt><trkpt lat="37.9952648" lon="-2.8964196"><ele>739.0</ele><time>2026-04-13T08:40:27.671Z</time></trkpt><trkpt lat="37.9952972" lon="-2.8962995"><ele>739.0</ele><time>2026-04-13T08:40:28.671Z</time></trkpt><trkpt lat="37.9953354" lon="-2.8961788"><ele>739.0</ele><time>2026-04-13T08:40:29.671Z</time></trkpt><trkpt lat="37.9953774" lon="-2.89606"><ele>739.0</ele><time>2026-04-13T08:40:30.671Z</time></trkpt><trkpt lat="37.9954243" lon="-2.8959434"><ele>739.0</ele><time>2026-04-13T08:40:31.671Z</time></trkpt><trkpt lat="37.9954704" lon="-2.8958294"><ele>739.0</ele><time>2026-04-13T08:40:32.671Z</time></trkpt><trkpt lat="37.9955169" lon="-2.8957183"><ele>739.0</ele><time>2026-04-13T08:40:33.671Z</time></trkpt><trkpt lat="37.995566" lon="-2.8956089"><ele>739.0</ele><time>2026-04-13T08:40:34.671Z</time></trkpt><trkpt lat="37.9956167" lon="-2.8955017"><ele>739.2</ele><time>2026-04-13T08:40:35.671Z</time></trkpt><trkpt lat="37.9956671" lon="-2.8953961"><ele>739.4000000000001</ele><time>2026-04-13T08:40:36.671Z</time></trkpt><trkpt lat="37.9957167" lon="-2.8952917"><ele>739.6</ele><time>2026-04-13T08:40:37.671Z</time></trkpt><trkpt lat="37.9957704" lon="-2.895195"><ele>739.8</ele><time>2026-04-13T08:40:38.671Z</time></trkpt><trkpt lat="37.9958324" lon="-2.8951114"><ele>740.0</ele><time>2026-04-13T08:40:39.671Z</time></trkpt><trkpt lat="37.9959035" lon="-2.8950392"><ele>740.0</ele><time>2026-04-13T08:40:40.671Z</time></trkpt><trkpt lat="37.9959773" lon="-2.8949693"><ele>740.0</ele><time>2026-04-13T08:40:41.671Z</time></trkpt><trkpt lat="37.9960472" lon="-2.8948965"><ele>740.0</ele><time>2026-04-13T08:40:42.671Z</time></trkpt><trkpt lat="37.9961077" lon="-2.8948121"><ele>740.0</ele><time>2026-04-13T08:40:43.672Z</time></trkpt><trkpt lat="37.9961538" lon="-2.8947149"><ele>740.0</ele><time>2026-04-13T08:40:44.671Z</time></trkpt><trkpt lat="37.9961928" lon="-2.8946049"><ele>740.0</ele><time>2026-04-13T08:40:45.671Z</time></trkpt><trkpt lat="37.9962331" lon="-2.8944936"><ele>740.0</ele><time>2026-04-13T08:40:46.671Z</time></trkpt><trkpt lat="37.9962853" lon="-2.8943874"><ele>740.0</ele><time>2026-04-13T08:40:47.671Z</time></trkpt><trkpt lat="37.9963535" lon="-2.8942953"><ele>740.0</ele><time>2026-04-13T08:40:48.671Z</time></trkpt><trkpt lat="37.9964382" lon="-2.8942222"><ele>740.0</ele><time>2026-04-13T08:40:49.671Z</time></trkpt><trkpt lat="37.9965313" lon="-2.8941594"><ele>738.2</ele><time>2026-04-13T08:40:50.671Z</time></trkpt><trkpt lat="37.9966306" lon="-2.8941016"><ele>736.4</ele><time>2026-04-13T08:40:51.671Z</time></trkpt><trkpt lat="37.9967318" lon="-2.8940462"><ele>734.5999999999999</ele><time>2026-04-13T08:40:52.671Z</time></trkpt><trkpt lat="37.9968326" lon="-2.8939907"><ele>732.8</ele><time>2026-04-13T08:40:53.671Z</time></trkpt><trkpt lat="37.9969313" lon="-2.8939347"><ele>731.0</ele><time>2026-04-13T08:40:54.671Z</time></trkpt><trkpt lat="37.9970254" lon="-2.8938712"><ele>731.0</ele><time>2026-04-13T08:40:55.671Z</time></trkpt><trkpt lat="37.9971095" lon="-2.8937922"><ele>731.0</ele><time>2026-04-13T08:40:56.671Z</time></trkpt><trkpt lat="37.9971785" lon="-2.8936979"><ele>731.0</ele><time>2026-04-13T08:40:57.671Z</time></trkpt><trkpt lat="37.9972315" lon="-2.8935873"><ele>731.0</ele><time>2026-04-13T08:40:58.671Z</time></trkpt><trkpt lat="37.9972783" lon="-2.8934634"><ele>731.0</ele><time>2026-04-13T08:40:59.671Z</time></trkpt><trkpt lat="37.9973198" lon="-2.8933373"><ele>732.8</ele><time>2026-04-13T08:41:00.671Z</time></trkpt><trkpt lat="37.997361" lon="-2.8932136"><ele>734.5999999999999</ele><time>2026-04-13T08:41:01.671Z</time></trkpt><trkpt lat="37.9974006" lon="-2.8930979"><ele>736.4</ele><time>2026-04-13T08:41:02.671Z</time></trkpt><trkpt lat="37.9974393" lon="-2.8929854"><ele>738.2</ele><time>2026-04-13T08:41:03.671Z</time></trkpt><trkpt lat="37.9974754" lon="-2.8928762"><ele>740.0</ele><time>2026-04-13T08:41:04.671Z</time></trkpt><trkpt lat="37.9975115" lon="-2.8927687"><ele>740.0</ele><time>2026-04-13T08:41:05.671Z</time></trkpt><trkpt lat="37.9975474" lon="-2.89266"><ele>740.0</ele><time>2026-04-13T08:41:06.671Z</time></trkpt><trkpt lat="37.9975837" lon="-2.8925496"><ele>740.0</ele><time>2026-04-13T08:41:07.671Z</time></trkpt><trkpt lat="37.9976197" lon="-2.8924407"><ele>740.0</ele><time>2026-04-13T08:41:08.671Z</time></trkpt><trkpt lat="37.9976551" lon="-2.8923354"><ele>740.0</ele><time>2026-04-13T08:41:09.671Z</time></trkpt><trkpt lat="37.9976894" lon="-2.8922338"><ele>739.8333333333333</ele><time>2026-04-13T08:41:10.671Z</time></trkpt><trkpt lat="37.9977208" lon="-2.8921357"><ele>739.6666666666666</ele><time>2026-04-13T08:41:11.671Z</time></trkpt><trkpt lat="37.9977506" lon="-2.8920385"><ele>739.5</ele><time>2026-04-13T08:41:12.671Z</time></trkpt><trkpt lat="37.9977803" lon="-2.8919402"><ele>739.3333333333334</ele><time>2026-04-13T08:41:13.671Z</time></trkpt><trkpt lat="37.9978107" lon="-2.8918386"><ele>739.1666666666667</ele><time>2026-04-13T08:41:14.671Z</time></trkpt><trkpt lat="37.9978428" lon="-2.8917377"><ele>739.0</ele><time>2026-04-13T08:41:15.671Z</time></trkpt><trkpt lat="37.997875" lon="-2.8916352"><ele>738.1666666666667</ele><time>2026-04-13T08:41:16.671Z</time></trkpt><trkpt lat="37.9979088" lon="-2.8915328"><ele>737.3333333333334</ele><time>2026-04-13T08:41:17.671Z</time></trkpt><trkpt lat="37.9979444" lon="-2.8914279"><ele>736.5</ele><time>2026-04-13T08:41:18.672Z</time></trkpt><trkpt lat="37.9979812" lon="-2.8913241"><ele>735.6666666666666</ele><time>2026-04-13T08:41:19.671Z</time></trkpt><trkpt lat="37.9980214" lon="-2.8912212"><ele>734.8333333333333</ele><time>2026-04-13T08:41:20.671Z</time></trkpt><trkpt lat="37.9980704" lon="-2.8911235"><ele>734.0</ele><time>2026-04-13T08:41:21.671Z</time></trkpt><trkpt lat="37.9981335" lon="-2.891034"><ele>734.0</ele><time>2026-04-13T08:41:22.671Z</time></trkpt><trkpt lat="37.99821" lon="-2.8909585"><ele>734.0</ele><time>2026-04-13T08:41:23.672Z</time></trkpt><trkpt lat="37.9982962" lon="-2.8908955"><ele>734.0</ele><time>2026-04-13T08:41:24.671Z</time></trkpt><trkpt lat="37.9983873" lon="-2.8908388"><ele>734.0</ele><time>2026-04-13T08:41:25.671Z</time></trkpt><trkpt lat="37.9984809" lon="-2.8907844"><ele>734.0</ele><time>2026-04-13T08:41:26.671Z</time></trkpt><trkpt lat="37.9985744" lon="-2.8907281"><ele>734.8000000000001</ele><time>2026-04-13T08:41:27.671Z</time></trkpt><trkpt lat="37.9986631" lon="-2.8906659"><ele>735.6</ele><time>2026-04-13T08:41:28.672Z</time></trkpt><trkpt lat="37.9987466" lon="-2.8905943"><ele>736.4</ele><time>2026-04-13T08:41:29.671Z</time></trkpt><trkpt lat="37.9988169" lon="-2.8905056"><ele>737.2</ele><time>2026-04-13T08:41:30.671Z</time></trkpt><trkpt lat="37.998874" lon="-2.8904004"><ele>738.0</ele><time>2026-04-13T08:41:31.671Z</time></trkpt><trkpt lat="37.9989276" lon="-2.8902891"><ele>738.0</ele><time>2026-04-13T08:41:32.671Z</time></trkpt><trkpt lat="37.998982" lon="-2.8901791"><ele>738.0</ele><time>2026-04-13T08:41:33.671Z</time></trkpt><trkpt lat="37.9990386" lon="-2.8900705"><ele>738.0</ele><time>2026-04-13T08:41:34.672Z</time></trkpt><trkpt lat="37.9991051" lon="-2.8899771"><ele>738.0</ele><time>2026-04-13T08:41:35.671Z</time></trkpt><trkpt lat="37.9991831" lon="-2.8898964"><ele>738.0</ele><time>2026-04-13T08:41:36.671Z</time></trkpt><trkpt lat="37.999275" lon="-2.8898335"><ele>739.5999999999999</ele><time>2026-04-13T08:41:37.671Z</time></trkpt><trkpt lat="37.999364" lon="-2.8897819"><ele>741.1999999999999</ele><time>2026-04-13T08:41:38.671Z</time></trkpt><trkpt lat="37.9994486" lon="-2.8897315"><ele>742.8</ele><time>2026-04-13T08:41:39.671Z</time></trkpt><trkpt lat="37.9995254" lon="-2.8896732"><ele>744.4</ele><time>2026-04-13T08:41:40.671Z</time></trkpt><trkpt lat="37.9995962" lon="-2.8896004"><ele>746.0</ele><time>2026-04-13T08:41:41.671Z</time></trkpt><trkpt lat="37.9996568" lon="-2.8895089"><ele>746.0</ele><time>2026-04-13T08:41:42.671Z</time></trkpt><trkpt lat="37.9997064" lon="-2.8894002"><ele>746.0</ele><time>2026-04-13T08:41:43.672Z</time></trkpt><trkpt lat="37.9997537" lon="-2.889286"><ele>746.0</ele><time>2026-04-13T08:41:44.671Z</time></trkpt><trkpt lat="37.9998018" lon="-2.8891714"><ele>746.0</ele><time>2026-04-13T08:41:45.671Z</time></trkpt><trkpt lat="37.9998494" lon="-2.8890582"><ele>746.0</ele><time>2026-04-13T08:41:46.671Z</time></trkpt><trkpt lat="37.9998985" lon="-2.8889509"><ele>744.0</ele><time>2026-04-13T08:41:47.671Z</time></trkpt><trkpt lat="37.9999436" lon="-2.8888459"><ele>742.0</ele><time>2026-04-13T08:41:48.671Z</time></trkpt><trkpt lat="37.9999847" lon="-2.888738"><ele>740.0</ele><time>2026-04-13T08:41:49.671Z</time></trkpt><trkpt lat="38.0000223" lon="-2.8886244"><ele>738.0</ele><time>2026-04-13T08:41:50.671Z</time></trkpt><trkpt lat="38.0000584" lon="-2.8885082"><ele>736.0</ele><time>2026-04-13T08:41:51.671Z</time></trkpt><trkpt lat="38.0000944" lon="-2.8883905"><ele>733.5999999999999</ele><time>2026-04-13T08:41:52.671Z</time></trkpt><trkpt lat="38.0001293" lon="-2.8882736"><ele>731.2</ele><time>2026-04-13T08:41:53.671Z</time></trkpt><trkpt lat="38.0001625" lon="-2.8881591"><ele>728.8</ele><time>2026-04-13T08:41:54.671Z</time></trkpt><trkpt lat="38.0001982" lon="-2.8880503"><ele>726.4000000000001</ele><time>2026-04-13T08:41:55.671Z</time></trkpt><trkpt lat="38.0002446" lon="-2.8879456"><ele>724.0</ele><time>2026-04-13T08:41:56.671Z</time></trkpt><trkpt lat="38.000304" lon="-2.8878451"><ele>724.0</ele><time>2026-04-13T08:41:57.671Z</time></trkpt><trkpt lat="38.0003746" lon="-2.8877489"><ele>724.0</ele><time>2026-04-13T08:41:58.671Z</time></trkpt><trkpt lat="38.000451" lon="-2.8876494"><ele>724.0</ele><time>2026-04-13T08:41:59.671Z</time></trkpt><trkpt lat="38.0005295" lon="-2.8875491"><ele>724.0</ele><time>2026-04-13T08:42:00.672Z</time></trkpt><trkpt lat="38.0006109" lon="-2.8874472"><ele>724.0</ele><time>2026-04-13T08:42:01.671Z</time></trkpt><trkpt lat="38.0006904" lon="-2.8873434"><ele>723.8000000000001</ele><time>2026-04-13T08:42:02.671Z</time></trkpt><trkpt lat="38.0007689" lon="-2.8872386"><ele>723.6</ele><time>2026-04-13T08:42:03.671Z</time></trkpt><trkpt lat="38.0008471" lon="-2.8871362"><ele>723.4</ele><time>2026-04-13T08:42:04.671Z</time></trkpt><trkpt lat="38.0009219" lon="-2.8870365"><ele>723.2</ele><time>2026-04-13T08:42:05.671Z</time></trkpt><trkpt lat="38.0010005" lon="-2.8869451"><ele>723.0</ele><time>2026-04-13T08:42:06.671Z</time></trkpt><trkpt lat="38.0010858" lon="-2.8868686"><ele>723.8</ele><time>2026-04-13T08:42:07.671Z</time></trkpt><trkpt lat="38.0011819" lon="-2.886812"><ele>724.5999999999999</ele><time>2026-04-13T08:42:08.671Z</time></trkpt><trkpt lat="38.0012879" lon="-2.8867771"><ele>725.4000000000001</ele><time>2026-04-13T08:42:09.671Z</time></trkpt><trkpt lat="38.0013989" lon="-2.886751"><ele>726.2</ele><time>2026-04-13T08:42:10.671Z</time></trkpt><trkpt lat="38.0015141" lon="-2.8867263"><ele>727.0</ele><time>2026-04-13T08:42:11.671Z</time></trkpt><trkpt lat="38.0016318" lon="-2.8867016"><ele>728.75</ele><time>2026-04-13T08:42:12.672Z</time></trkpt><trkpt lat="38.0017489" lon="-2.8866728"><ele>730.5</ele><time>2026-04-13T08:42:13.671Z</time></trkpt><trkpt lat="38.0018658" lon="-2.886647"><ele>732.25</ele><time>2026-04-13T08:42:14.671Z</time></trkpt><trkpt lat="38.0019856" lon="-2.886635"><ele>734.0</ele><time>2026-04-13T08:42:15.671Z</time></trkpt><trkpt lat="38.0021027" lon="-2.8866474"><ele>734.0</ele><time>2026-04-13T08:42:16.671Z</time></trkpt><trkpt lat="38.0022156" lon="-2.8866768"><ele>734.0</ele><time>2026-04-13T08:42:17.671Z</time></trkpt><trkpt lat="38.0023263" lon="-2.8867075"><ele>734.0</ele><time>2026-04-13T08:42:18.671Z</time></trkpt><trkpt lat="38.0024343" lon="-2.8867184"><ele>734.0</ele><time>2026-04-13T08:42:19.671Z</time></trkpt><trkpt lat="38.0025411" lon="-2.8866993"><ele>734.0</ele><time>2026-04-13T08:42:20.671Z</time></trkpt><trkpt lat="38.002647" lon="-2.8866556"><ele>734.25</ele><time>2026-04-13T08:42:21.671Z</time></trkpt><trkpt lat="38.0027533" lon="-2.8866063"><ele>734.5</ele><time>2026-04-13T08:42:22.671Z</time></trkpt><trkpt lat="38.0028628" lon="-2.8865549"><ele>734.75</ele><time>2026-04-13T08:42:23.671Z</time></trkpt><trkpt lat="38.0029735" lon="-2.8865004"><ele>735.0</ele><time>2026-04-13T08:42:24.671Z</time></trkpt><trkpt lat="38.0030844" lon="-2.8864444"><ele>735.0</ele><time>2026-04-13T08:42:25.671Z</time></trkpt><trkpt lat="38.0031949" lon="-2.8863909"><ele>735.0</ele><time>2026-04-13T08:42:26.671Z</time></trkpt><trkpt lat="38.0033045" lon="-2.8863441"><ele>735.0</ele><time>2026-04-13T08:42:27.671Z</time></trkpt><trkpt lat="38.003412" lon="-2.8863045"><ele>735.0</ele><time>2026-04-13T08:42:28.671Z</time></trkpt><trkpt lat="38.0035168" lon="-2.8862676"><ele>735.0</ele><time>2026-04-13T08:42:29.671Z</time></trkpt><trkpt lat="38.0036118" lon="-2.8862219"><ele>735.0</ele><time>2026-04-13T08:42:30.671Z</time></trkpt><trkpt lat="38.0036905" lon="-2.8861621"><ele>735.0</ele><time>2026-04-13T08:42:31.671Z</time></trkpt><trkpt lat="38.0037475" lon="-2.8860859"><ele>735.0</ele><time>2026-04-13T08:42:32.671Z</time></trkpt><trkpt lat="38.0037798" lon="-2.8859961"><ele>735.0</ele><time>2026-04-13T08:42:33.671Z</time></trkpt><trkpt lat="38.003786" lon="-2.8858976"><ele>735.0</ele><time>2026-04-13T08:42:34.671Z</time></trkpt><trkpt lat="38.0037684" lon="-2.8857946"><ele>735.0</ele><time>2026-04-13T08:42:35.671Z</time></trkpt><trkpt lat="38.0037281" lon="-2.8856969"><ele>735.0</ele><time>2026-04-13T08:42:36.671Z</time></trkpt><trkpt lat="38.0036642" lon="-2.8856143"><ele>735.0</ele><time>2026-04-13T08:42:37.671Z</time></trkpt><trkpt lat="38.0035764" lon="-2.8855524"><ele>735.0</ele><time>2026-04-13T08:42:38.671Z</time></trkpt><trkpt lat="38.0034817" lon="-2.8855147"><ele>735.0</ele><time>2026-04-13T08:42:39.671Z</time></trkpt><trkpt lat="38.0033834" lon="-2.8854837"><ele>733.2</ele><time>2026-04-13T08:42:40.671Z</time></trkpt><trkpt lat="38.0032863" lon="-2.8854509"><ele>731.4</ele><time>2026-04-13T08:42:41.671Z</time></trkpt><trkpt lat="38.0031913" lon="-2.8854047"><ele>729.5999999999999</ele><time>2026-04-13T08:42:42.671Z</time></trkpt><trkpt lat="38.0030998" lon="-2.8853379"><ele>727.8</ele><time>2026-04-13T08:42:43.671Z</time></trkpt><trkpt lat="38.0030193" lon="-2.8852477"><ele>726.0</ele><time>2026-04-13T08:42:44.672Z</time></trkpt><trkpt lat="38.0029534" lon="-2.8851401"><ele>726.5999999999999</ele><time>2026-04-13T08:42:45.671Z</time></trkpt><trkpt lat="38.0029071" lon="-2.8850178"><ele>727.2</ele><time>2026-04-13T08:42:46.671Z</time></trkpt><trkpt lat="38.0028846" lon="-2.8848842"><ele>727.8</ele><time>2026-04-13T08:42:47.671Z</time></trkpt><trkpt lat="38.002883" lon="-2.8847483"><ele>728.4000000000001</ele><time>2026-04-13T08:42:48.671Z</time></trkpt><trkpt lat="38.0028864" lon="-2.8846143"><ele>729.0</ele><time>2026-04-13T08:42:49.671Z</time></trkpt><trkpt lat="38.0028762" lon="-2.8844829"><ele>729.0</ele><time>2026-04-13T08:42:50.671Z</time></trkpt><trkpt lat="38.0028461" lon="-2.8843611"><ele>729.0</ele><time>2026-04-13T08:42:51.671Z</time></trkpt><trkpt lat="38.0027978" lon="-2.8842492"><ele>729.0</ele><time>2026-04-13T08:42:52.671Z</time></trkpt><trkpt lat="38.0027415" lon="-2.8841481"><ele>729.0</ele><time>2026-04-13T08:42:53.671Z</time></trkpt><trkpt lat="38.0026913" lon="-2.8840458"><ele>729.0</ele><time>2026-04-13T08:42:54.671Z</time></trkpt><trkpt lat="38.0026519" lon="-2.8839353"><ele>729.4000000000001</ele><time>2026-04-13T08:42:55.671Z</time></trkpt><trkpt lat="38.0026338" lon="-2.8838143"><ele>729.8</ele><time>2026-04-13T08:42:56.671Z</time></trkpt><trkpt lat="38.0026401" lon="-2.8836838"><ele>730.2</ele><time>2026-04-13T08:42:57.671Z</time></trkpt><trkpt lat="38.0026636" lon="-2.883551"><ele>730.5999999999999</ele><time>2026-04-13T08:42:58.671Z</time></trkpt><trkpt lat="38.0026965" lon="-2.8834161"><ele>731.0</ele><time>2026-04-13T08:42:59.671Z</time></trkpt><trkpt lat="38.0027302" lon="-2.8832797"><ele>731.5999999999999</ele><time>2026-04-13T08:43:00.671Z</time></trkpt><trkpt lat="38.0027611" lon="-2.8831428"><ele>732.2</ele><time>2026-04-13T08:43:01.671Z</time></trkpt><trkpt lat="38.0027936" lon="-2.8830089"><ele>732.8</ele><time>2026-04-13T08:43:02.671Z</time></trkpt><trkpt lat="38.0028364" lon="-2.8828814"><ele>733.4000000000001</ele><time>2026-04-13T08:43:03.671Z</time></trkpt><trkpt lat="38.002896" lon="-2.882764"><ele>734.0</ele><time>2026-04-13T08:43:04.671Z</time></trkpt><trkpt lat="38.0029681" lon="-2.8826549"><ele>734.4000000000001</ele><time>2026-04-13T08:43:05.671Z</time></trkpt><trkpt lat="38.0030438" lon="-2.8825539"><ele>734.8</ele><time>2026-04-13T08:43:06.671Z</time></trkpt><trkpt lat="38.0031224" lon="-2.8824512"><ele>735.2</ele><time>2026-04-13T08:43:07.671Z</time></trkpt><trkpt lat="38.0032008" lon="-2.8823472"><ele>735.5999999999999</ele><time>2026-04-13T08:43:08.671Z</time></trkpt><trkpt lat="38.003281" lon="-2.8822456"><ele>736.0</ele><time>2026-04-13T08:43:09.671Z</time></trkpt><trkpt lat="38.0033592" lon="-2.8821419"><ele>736.8</ele><time>2026-04-13T08:43:10.671Z</time></trkpt><trkpt lat="38.003437" lon="-2.8820406"><ele>737.5999999999999</ele><time>2026-04-13T08:43:11.671Z</time></trkpt><trkpt lat="38.0035141" lon="-2.8819386"><ele>738.4</ele><time>2026-04-13T08:43:12.672Z</time></trkpt><trkpt lat="38.0035901" lon="-2.8818379"><ele>739.2</ele><time>2026-04-13T08:43:13.671Z</time></trkpt><trkpt lat="38.0036666" lon="-2.8817374"><ele>740.0</ele><time>2026-04-13T08:43:14.671Z</time></trkpt><trkpt lat="38.0037409" lon="-2.8816352"><ele>740.0</ele><time>2026-04-13T08:43:15.671Z</time></trkpt><trkpt lat="38.0038175" lon="-2.8815336"><ele>740.0</ele><time>2026-04-13T08:43:16.671Z</time></trkpt><trkpt lat="38.0038971" lon="-2.8814321"><ele>740.0</ele><time>2026-04-13T08:43:17.671Z</time></trkpt><trkpt lat="38.003975" lon="-2.8813301"><ele>740.0</ele><time>2026-04-13T08:43:18.671Z</time></trkpt><trkpt lat="38.0040542" lon="-2.8812273"><ele>740.0</ele><time>2026-04-13T08:43:19.671Z</time></trkpt><trkpt lat="38.0041335" lon="-2.8811242"><ele>740.0</ele><time>2026-04-13T08:43:20.671Z</time></trkpt><trkpt lat="38.0042131" lon="-2.8810177"><ele>740.0</ele><time>2026-04-13T08:43:21.672Z</time></trkpt><trkpt lat="38.0042928" lon="-2.8809116"><ele>740.0</ele><time>2026-04-13T08:43:22.671Z</time></trkpt><trkpt lat="38.0043745" lon="-2.8808046"><ele>740.0</ele><time>2026-04-13T08:43:23.671Z</time></trkpt><trkpt lat="38.0044545" lon="-2.8806964"><ele>739.0</ele><time>2026-04-13T08:43:24.671Z</time></trkpt><trkpt lat="38.0045349" lon="-2.8805858"><ele>738.0</ele><time>2026-04-13T08:43:25.671Z</time></trkpt><trkpt lat="38.0046147" lon="-2.8804756"><ele>737.0</ele><time>2026-04-13T08:43:26.671Z</time></trkpt><trkpt lat="38.0046961" lon="-2.8803688"><ele>736.0</ele><time>2026-04-13T08:43:27.671Z</time></trkpt><trkpt lat="38.004779" lon="-2.880266"><ele>736.0</ele><time>2026-04-13T08:43:28.671Z</time></trkpt><trkpt lat="38.0048683" lon="-2.8801734"><ele>736.0</ele><time>2026-04-13T08:43:29.671Z</time></trkpt><trkpt lat="38.0049713" lon="-2.8801066"><ele>736.0</ele><time>2026-04-13T08:43:30.671Z</time></trkpt><trkpt lat="38.0050838" lon="-2.8800749"><ele>736.0</ele><time>2026-04-13T08:43:31.671Z</time></trkpt><trkpt lat="38.0051989" lon="-2.8800834"><ele>736.25</ele><time>2026-04-13T08:43:32.671Z</time></trkpt><trkpt lat="38.0053077" lon="-2.8801334"><ele>736.5</ele><time>2026-04-13T08:43:33.671Z</time></trkpt><trkpt lat="38.0054014" lon="-2.8802165"><ele>736.75</ele><time>2026-04-13T08:43:34.671Z</time></trkpt><trkpt lat="38.005477" lon="-2.8803296"><ele>737.0</ele><time>2026-04-13T08:43:35.671Z</time></trkpt><trkpt lat="38.0055382" lon="-2.8804637"><ele>737.0</ele><time>2026-04-13T08:43:36.671Z</time></trkpt><trkpt lat="38.0055887" lon="-2.8806059"><ele>737.0</ele><time>2026-04-13T08:43:37.671Z</time></trkpt><trkpt lat="38.0056379" lon="-2.8807492"><ele>737.0</ele><time>2026-04-13T08:43:38.671Z</time></trkpt><trkpt lat="38.0056863" lon="-2.8808901"><ele>737.0</ele><time>2026-04-13T08:43:39.671Z</time></trkpt><trkpt lat="38.0057358" lon="-2.881015"><ele>736.2</ele><time>2026-04-13T08:43:40.671Z</time></trkpt><trkpt lat="38.0057965" lon="-2.8811183"><ele>735.4000000000001</ele><time>2026-04-13T08:43:41.671Z</time></trkpt><trkpt lat="38.0058711" lon="-2.881194"><ele>734.5999999999999</ele><time>2026-04-13T08:43:42.672Z</time></trkpt><trkpt lat="38.0059585" lon="-2.8812429"><ele>733.8</ele><time>2026-04-13T08:43:43.671Z</time></trkpt><trkpt lat="38.0060541" lon="-2.8812569"><ele>733.0</ele><time>2026-04-13T08:43:44.671Z</time></trkpt><trkpt lat="38.0061504" lon="-2.8812412"><ele>732.5999999999999</ele><time>2026-04-13T08:43:45.671Z</time></trkpt><trkpt lat="38.0062427" lon="-2.8811969"><ele>732.1999999999999</ele><time>2026-04-13T08:43:46.671Z</time></trkpt><trkpt lat="38.0063271" lon="-2.8811267"><ele>731.8</ele><time>2026-04-13T08:43:47.671Z</time></trkpt><trkpt lat="38.0064058" lon="-2.8810342"><ele>731.4</ele><time>2026-04-13T08:43:48.671Z</time></trkpt><trkpt lat="38.0064736" lon="-2.8809201"><ele>731.0</ele><time>2026-04-13T08:43:49.671Z</time></trkpt><trkpt lat="38.0065364" lon="-2.8807914"><ele>731.0</ele><time>2026-04-13T08:43:50.671Z</time></trkpt><trkpt lat="38.0066002" lon="-2.8806555"><ele>731.0</ele><time>2026-04-13T08:43:51.671Z</time></trkpt><trkpt lat="38.0066605" lon="-2.8805235"><ele>731.0</ele><time>2026-04-13T08:43:52.671Z</time></trkpt><trkpt lat="38.0067237" lon="-2.880391"><ele>731.0</ele><time>2026-04-13T08:43:53.671Z</time></trkpt><trkpt lat="38.0067822" lon="-2.8802633"><ele>731.0</ele><time>2026-04-13T08:43:54.671Z</time></trkpt><trkpt lat="38.0068393" lon="-2.8801371"><ele>731.0</ele><time>2026-04-13T08:43:55.671Z</time></trkpt><trkpt lat="38.0069013" lon="-2.8800124"><ele>731.0</ele><time>2026-04-13T08:43:56.671Z</time></trkpt><trkpt lat="38.006974" lon="-2.8798955"><ele>731.0</ele><time>2026-04-13T08:43:57.671Z</time></trkpt><trkpt lat="38.0070615" lon="-2.8797938"><ele>729.75</ele><time>2026-04-13T08:43:58.671Z</time></trkpt><trkpt lat="38.0071607" lon="-2.8797079"><ele>728.5</ele><time>2026-04-13T08:43:59.671Z</time></trkpt><trkpt lat="38.007264" lon="-2.8796317"><ele>727.25</ele><time>2026-04-13T08:44:00.671Z</time></trkpt><trkpt lat="38.0073619" lon="-2.8795585"><ele>726.0</ele><time>2026-04-13T08:44:01.671Z</time></trkpt><trkpt lat="38.0074546" lon="-2.8794882"><ele>726.8</ele><time>2026-04-13T08:44:02.671Z</time></trkpt><trkpt lat="38.0075358" lon="-2.8794231"><ele>727.5999999999999</ele><time>2026-04-13T08:44:03.671Z</time></trkpt><trkpt lat="38.0076067" lon="-2.8793474"><ele>728.4</ele><time>2026-04-13T08:44:04.671Z</time></trkpt><trkpt lat="38.0076651" lon="-2.8792507"><ele>729.2</ele><time>2026-04-13T08:44:05.671Z</time></trkpt><trkpt lat="38.0077045" lon="-2.8791332"><ele>730.0</ele><time>2026-04-13T08:44:06.671Z</time></trkpt><trkpt lat="38.007724" lon="-2.879002"><ele>726.6</ele><time>2026-04-13T08:44:07.671Z</time></trkpt><trkpt lat="38.0077316" lon="-2.8788629"><ele>723.2</ele><time>2026-04-13T08:44:08.671Z</time></trkpt><trkpt lat="38.0077424" lon="-2.8787269"><ele>719.8</ele><time>2026-04-13T08:44:09.671Z</time></trkpt><trkpt lat="38.0077571" lon="-2.8785924"><ele>716.4</ele><time>2026-04-13T08:44:10.671Z</time></trkpt><trkpt lat="38.0077792" lon="-2.8784607"><ele>713.0</ele><time>2026-04-13T08:44:11.671Z</time></trkpt><trkpt lat="38.0078087" lon="-2.8783404"><ele>711.4</ele><time>2026-04-13T08:44:12.671Z</time></trkpt><trkpt lat="38.0078422" lon="-2.8782238"><ele>709.8</ele><time>2026-04-13T08:44:13.671Z</time></trkpt><trkpt lat="38.0078814" lon="-2.8781149"><ele>708.2</ele><time>2026-04-13T08:44:14.671Z</time></trkpt><trkpt lat="38.0079325" lon="-2.8780084"><ele>706.6</ele><time>2026-04-13T08:44:15.671Z</time></trkpt><trkpt lat="38.0079972" lon="-2.8779108"><ele>705.0</ele><time>2026-04-13T08:44:16.671Z</time></trkpt><trkpt lat="38.0080762" lon="-2.8778217"><ele>705.0</ele><time>2026-04-13T08:44:17.671Z</time></trkpt><trkpt lat="38.0081655" lon="-2.8777397"><ele>705.0</ele><time>2026-04-13T08:44:18.671Z</time></trkpt><trkpt lat="38.008255" lon="-2.8776631"><ele>705.0</ele><time>2026-04-13T08:44:19.671Z</time></trkpt><trkpt lat="38.008343" lon="-2.8775718"><ele>705.0</ele><time>2026-04-13T08:44:20.671Z</time></trkpt><trkpt lat="38.0084295" lon="-2.8774702"><ele>704.25</ele><time>2026-04-13T08:44:21.671Z</time></trkpt><trkpt lat="38.0085118" lon="-2.8773674"><ele>703.5</ele><time>2026-04-13T08:44:22.671Z</time></trkpt><trkpt lat="38.0085944" lon="-2.8772629"><ele>702.75</ele><time>2026-04-13T08:44:23.671Z</time></trkpt><trkpt lat="38.008677" lon="-2.8771551"><ele>702.0</ele><time>2026-04-13T08:44:24.671Z</time></trkpt><trkpt lat="38.0087599" lon="-2.877049"><ele>702.0</ele><time>2026-04-13T08:44:25.671Z</time></trkpt><trkpt lat="38.0088427" lon="-2.8769436"><ele>702.0</ele><time>2026-04-13T08:44:26.671Z</time></trkpt><trkpt lat="38.008925" lon="-2.8768387"><ele>702.0</ele><time>2026-04-13T08:44:27.671Z</time></trkpt><trkpt lat="38.0090065" lon="-2.8767334"><ele>702.0</ele><time>2026-04-13T08:44:28.672Z</time></trkpt><trkpt lat="38.0090887" lon="-2.8766289"><ele>701.75</ele><time>2026-04-13T08:44:29.671Z</time></trkpt><trkpt lat="38.0091703" lon="-2.8765234"><ele>701.5</ele><time>2026-04-13T08:44:30.671Z</time></trkpt><trkpt lat="38.0092512" lon="-2.876417"><ele>701.25</ele><time>2026-04-13T08:44:31.671Z</time></trkpt><trkpt lat="38.0093329" lon="-2.8763127"><ele>701.0</ele><time>2026-04-13T08:44:32.671Z</time></trkpt><trkpt lat="38.0094211" lon="-2.876217"><ele>701.0</ele><time>2026-04-13T08:44:33.671Z</time></trkpt><trkpt lat="38.0095191" lon="-2.8761387"><ele>701.0</ele><time>2026-04-13T08:44:34.671Z</time></trkpt><trkpt lat="38.0096282" lon="-2.8760805"><ele>701.0</ele><time>2026-04-13T08:44:35.671Z</time></trkpt><trkpt lat="38.0097448" lon="-2.8760342"><ele>701.0</ele><time>2026-04-13T08:44:36.671Z</time></trkpt><trkpt lat="38.0098649" lon="-2.8759935"><ele>701.0</ele><time>2026-04-13T08:44:37.671Z</time></trkpt><trkpt lat="38.0099888" lon="-2.8759502"><ele>701.0</ele><time>2026-04-13T08:44:38.671Z</time></trkpt><trkpt lat="38.0101136" lon="-2.8759006"><ele>701.0</ele><time>2026-04-13T08:44:39.671Z</time></trkpt><trkpt lat="38.0102364" lon="-2.8758358"><ele>701.0</ele><time>2026-04-13T08:44:40.671Z</time></trkpt><trkpt lat="38.0103537" lon="-2.8757532"><ele>699.5</ele><time>2026-04-13T08:44:41.672Z</time></trkpt><trkpt lat="38.0104683" lon="-2.8756608"><ele>698.0</ele><time>2026-04-13T08:44:42.671Z</time></trkpt><trkpt lat="38.0105809" lon="-2.8755675"><ele>696.5</ele><time>2026-04-13T08:44:43.671Z</time></trkpt><trkpt lat="38.0106905" lon="-2.8754775"><ele>695.0</ele><time>2026-04-13T08:44:44.672Z</time></trkpt><trkpt lat="38.0107911" lon="-2.8753936"><ele>694.4</ele><time>2026-04-13T08:44:45.671Z</time></trkpt><trkpt lat="38.0108828" lon="-2.8753072"><ele>693.8</ele><time>2026-04-13T08:44:46.671Z</time></trkpt><trkpt lat="38.0109607" lon="-2.8752123"><ele>693.2</ele><time>2026-04-13T08:44:47.671Z</time></trkpt><trkpt lat="38.0110238" lon="-2.8751017"><ele>692.6</ele><time>2026-04-13T08:44:48.671Z</time></trkpt><trkpt lat="38.0110714" lon="-2.874977"><ele>692.0</ele><time>2026-04-13T08:44:49.671Z</time></trkpt><trkpt lat="38.0111089" lon="-2.8748454"><ele>692.0</ele><time>2026-04-13T08:44:50.672Z</time></trkpt><trkpt lat="38.0111427" lon="-2.874712"><ele>692.0</ele><time>2026-04-13T08:44:51.671Z</time></trkpt><trkpt lat="38.0111791" lon="-2.8745822"><ele>692.0</ele><time>2026-04-13T08:44:52.671Z</time></trkpt><trkpt lat="38.0112249" lon="-2.8744629"><ele>692.0</ele><time>2026-04-13T08:44:53.671Z</time></trkpt><trkpt lat="38.0112825" lon="-2.8743627"><ele>692.0</ele><time>2026-04-13T08:44:54.671Z</time></trkpt><trkpt lat="38.0113554" lon="-2.8742673"><ele>693.4000000000001</ele><time>2026-04-13T08:44:55.671Z</time></trkpt><trkpt lat="38.0114367" lon="-2.8741845"><ele>694.8000000000001</ele><time>2026-04-13T08:44:56.671Z</time></trkpt><trkpt lat="38.0115193" lon="-2.874103"><ele>696.2</ele><time>2026-04-13T08:44:57.671Z</time></trkpt><trkpt lat="38.0116038" lon="-2.8740188"><ele>697.6</ele><time>2026-04-13T08:44:58.671Z</time></trkpt><trkpt lat="38.0116897" lon="-2.8739372"><ele>699.0</ele><time>2026-04-13T08:44:59.671Z</time></trkpt><trkpt lat="38.0117825" lon="-2.8738592"><ele>699.0</ele><time>2026-04-13T08:45:00.671Z</time></trkpt><trkpt lat="38.0118776" lon="-2.873786"><ele>699.0</ele><time>2026-04-13T08:45:01.671Z</time></trkpt><trkpt lat="38.0119757" lon="-2.8737146"><ele>699.0</ele><time>2026-04-13T08:45:02.671Z</time></trkpt><trkpt lat="38.0120768" lon="-2.8736427"><ele>699.0</ele><time>2026-04-13T08:45:03.671Z</time></trkpt><trkpt lat="38.0121778" lon="-2.8735715"><ele>699.0</ele><time>2026-04-13T08:45:04.671Z</time></trkpt><trkpt lat="38.0122778" lon="-2.8734997"><ele>699.0</ele><time>2026-04-13T08:45:05.671Z</time></trkpt><trkpt lat="38.0123788" lon="-2.8734258"><ele>699.0</ele><time>2026-04-13T08:45:06.671Z</time></trkpt><trkpt lat="38.0124798" lon="-2.8733509"><ele>699.0</ele><time>2026-04-13T08:45:07.671Z</time></trkpt><trkpt lat="38.0125817" lon="-2.8732761"><ele>699.6</ele><time>2026-04-13T08:45:08.671Z</time></trkpt><trkpt lat="38.0126812" lon="-2.8732027"><ele>700.2</ele><time>2026-04-13T08:45:09.671Z</time></trkpt><trkpt lat="38.0127721" lon="-2.8731404"><ele>700.8000000000001</ele><time>2026-04-13T08:45:10.671Z</time></trkpt><trkpt lat="38.0128376" lon="-2.8730987"><ele>701.4000000000001</ele><time>2026-04-13T08:45:11.671Z</time></trkpt><trkpt lat="38.0129204" lon="-2.8730514"><ele>702.0</ele><time>2026-04-13T08:45:13.671Z</time></trkpt><trkpt lat="38.0130217" lon="-2.8730122"><ele>702.0</ele><time>2026-04-13T08:45:15.671Z</time></trkpt><trkpt lat="38.0130879" lon="-2.8729916"><ele>702.0</ele><time>2026-04-13T08:45:16.671Z</time></trkpt><trkpt lat="38.0131659" lon="-2.8729691"><ele>702.0</ele><time>2026-04-13T08:45:17.671Z</time></trkpt><trkpt lat="38.0132512" lon="-2.8729469"><ele>702.0</ele><time>2026-04-13T08:45:18.671Z</time></trkpt><trkpt lat="38.0133388" lon="-2.8729218"><ele>702.0</ele><time>2026-04-13T08:45:19.671Z</time></trkpt><trkpt lat="38.0134262" lon="-2.8728958"><ele>702.0</ele><time>2026-04-13T08:45:20.671Z</time></trkpt><trkpt lat="38.0135133" lon="-2.8728677"><ele>703.6666666666666</ele><time>2026-04-13T08:45:21.671Z</time></trkpt><trkpt lat="38.0135992" lon="-2.8728403"><ele>705.3333333333334</ele><time>2026-04-13T08:45:22.671Z</time></trkpt><trkpt lat="38.013683" lon="-2.8728118"><ele>707.0</ele><time>2026-04-13T08:45:23.671Z</time></trkpt><trkpt lat="38.013763" lon="-2.8727814"><ele>708.6666666666667</ele><time>2026-04-13T08:45:24.671Z</time></trkpt><trkpt lat="38.0138292" lon="-2.8727497"><ele>710.3333333333334</ele><time>2026-04-13T08:45:25.671Z</time></trkpt><trkpt lat="38.0139067" lon="-2.8727038"><ele>712.0</ele><time>2026-04-13T08:45:27.671Z</time></trkpt><trkpt lat="38.013982" lon="-2.8726451"><ele>708.8</ele><time>2026-04-13T08:45:29.671Z</time></trkpt><trkpt lat="38.0140712" lon="-2.872558"><ele>705.6</ele><time>2026-04-13T08:45:31.671Z</time></trkpt><trkpt lat="38.0141379" lon="-2.8724673"><ele>702.4</ele><time>2026-04-13T08:45:33.671Z</time></trkpt><trkpt lat="38.0142109" lon="-2.8723283"><ele>699.1999999999999</ele><time>2026-04-13T08:45:35.671Z</time></trkpt><trkpt lat="38.0142538" lon="-2.8722454"><ele>696.0</ele><time>2026-04-13T08:45:36.671Z</time></trkpt><trkpt lat="38.014303" lon="-2.8721601"><ele>696.0</ele><time>2026-04-13T08:45:37.671Z</time></trkpt><trkpt lat="38.0143619" lon="-2.8720821"><ele>696.0</ele><time>2026-04-13T08:45:38.671Z</time></trkpt><trkpt lat="38.0144293" lon="-2.8720172"><ele>696.0</ele><time>2026-04-13T08:45:39.671Z</time></trkpt><trkpt lat="38.0145031" lon="-2.8719734"><ele>696.0</ele><time>2026-04-13T08:45:40.671Z</time></trkpt><trkpt lat="38.0145792" lon="-2.8719511"><ele>696.0</ele><time>2026-04-13T08:45:41.671Z</time></trkpt><trkpt lat="38.0146444" lon="-2.8719491"><ele>696.0</ele><time>2026-04-13T08:45:42.671Z</time></trkpt><trkpt lat="38.0147428" lon="-2.8719764"><ele>696.0</ele><time>2026-04-13T08:45:44.671Z</time></trkpt><trkpt lat="38.0148621" lon="-2.8720502"><ele>696.0</ele><time>2026-04-13T08:45:46.671Z</time></trkpt><trkpt lat="38.0149288" lon="-2.8721073"><ele>696.0</ele><time>2026-04-13T08:45:47.671Z</time></trkpt><trkpt lat="38.0149936" lon="-2.8721801"><ele>696.0</ele><time>2026-04-13T08:45:48.671Z</time></trkpt><trkpt lat="38.0150551" lon="-2.8722688"><ele>696.0</ele><time>2026-04-13T08:45:49.671Z</time></trkpt><trkpt lat="38.0151128" lon="-2.8723657"><ele>696.0</ele><time>2026-04-13T08:45:50.671Z</time></trkpt><trkpt lat="38.0151697" lon="-2.8724632"><ele>696.0</ele><time>2026-04-13T08:45:51.671Z</time></trkpt><trkpt lat="38.0152333" lon="-2.8725589"><ele>696.0</ele><time>2026-04-13T08:45:52.671Z</time></trkpt><trkpt lat="38.015313" lon="-2.8726434"><ele>696.0</ele><time>2026-04-13T08:45:53.671Z</time></trkpt><trkpt lat="38.0154047" lon="-2.8726967"><ele>696.0</ele><time>2026-04-13T08:45:54.671Z</time></trkpt><trkpt lat="38.0155072" lon="-2.8727281"><ele>698.1999999999999</ele><time>2026-04-13T08:45:55.671Z</time></trkpt><trkpt lat="38.0156147" lon="-2.8727476"><ele>700.4</ele><time>2026-04-13T08:45:56.671Z</time></trkpt><trkpt lat="38.0157256" lon="-2.8727562"><ele>702.6</ele><time>2026-04-13T08:45:57.671Z</time></trkpt><trkpt lat="38.0158357" lon="-2.8727505"><ele>704.8</ele><time>2026-04-13T08:45:58.671Z</time></trkpt><trkpt lat="38.0159425" lon="-2.8727282"><ele>707.0</ele><time>2026-04-13T08:45:59.671Z</time></trkpt><trkpt lat="38.0160473" lon="-2.872691"><ele>707.0</ele><time>2026-04-13T08:46:00.671Z</time></trkpt><trkpt lat="38.0161521" lon="-2.8726495"><ele>707.0</ele><time>2026-04-13T08:46:01.671Z</time></trkpt><trkpt lat="38.0162566" lon="-2.8726067"><ele>707.0</ele><time>2026-04-13T08:46:02.671Z</time></trkpt><trkpt lat="38.0163621" lon="-2.8725672"><ele>707.0</ele><time>2026-04-13T08:46:03.671Z</time></trkpt><trkpt lat="38.0164687" lon="-2.8725334"><ele>707.0</ele><time>2026-04-13T08:46:04.671Z</time></trkpt><trkpt lat="38.0165796" lon="-2.8725067"><ele>704.25</ele><time>2026-04-13T08:46:05.671Z</time></trkpt><trkpt lat="38.0166957" lon="-2.8724931"><ele>701.5</ele><time>2026-04-13T08:46:06.671Z</time></trkpt><trkpt lat="38.0168134" lon="-2.8724904"><ele>698.75</ele><time>2026-04-13T08:46:07.671Z</time></trkpt><trkpt lat="38.016933" lon="-2.872495"><ele>696.0</ele><time>2026-04-13T08:46:08.671Z</time></trkpt><trkpt lat="38.0170503" lon="-2.872503"><ele>696.0</ele><time>2026-04-13T08:46:09.671Z</time></trkpt><trkpt lat="38.0171643" lon="-2.8725168"><ele>696.0</ele><time>2026-04-13T08:46:10.671Z</time></trkpt><trkpt lat="38.0172773" lon="-2.8725441"><ele>696.0</ele><time>2026-04-13T08:46:11.671Z</time></trkpt><trkpt lat="38.0173869" lon="-2.8725882"><ele>696.0</ele><time>2026-04-13T08:46:12.671Z</time></trkpt><trkpt lat="38.0174893" lon="-2.8726375"><ele>698.0</ele><time>2026-04-13T08:46:13.671Z</time></trkpt><trkpt lat="38.0175739" lon="-2.8726829"><ele>700.0</ele><time>2026-04-13T08:46:14.671Z</time></trkpt><trkpt lat="38.0176469" lon="-2.8727221"><ele>702.0</ele><time>2026-04-13T08:46:15.671Z</time></trkpt><trkpt lat="38.0177196" lon="-2.872749"><ele>704.0</ele><time>2026-04-13T08:46:16.671Z</time></trkpt><trkpt lat="38.0177967" lon="-2.872761"><ele>706.0</ele><time>2026-04-13T08:46:17.671Z</time></trkpt><trkpt lat="38.0178798" lon="-2.8727641"><ele>708.0</ele><time>2026-04-13T08:46:18.671Z</time></trkpt><trkpt lat="38.0179662" lon="-2.8727528"><ele>708.0</ele><time>2026-04-13T08:46:19.671Z</time></trkpt><trkpt lat="38.0180533" lon="-2.8727288"><ele>708.0</ele><time>2026-04-13T08:46:20.671Z</time></trkpt><trkpt lat="38.0181433" lon="-2.8726881"><ele>708.0</ele><time>2026-04-13T08:46:21.671Z</time></trkpt><trkpt lat="38.0182354" lon="-2.8726389"><ele>708.0</ele><time>2026-04-13T08:46:22.671Z</time></trkpt><trkpt lat="38.0183296" lon="-2.8725866"><ele>708.0</ele><time>2026-04-13T08:46:23.671Z</time></trkpt><trkpt lat="38.0184254" lon="-2.8725396"><ele>703.0</ele><time>2026-04-13T08:46:24.671Z</time></trkpt><trkpt lat="38.0185208" lon="-2.8724882"><ele>698.0</ele><time>2026-04-13T08:46:25.671Z</time></trkpt><trkpt lat="38.0186144" lon="-2.8724306"><ele>693.0</ele><time>2026-04-13T08:46:26.671Z</time></trkpt><trkpt lat="38.0187084" lon="-2.872374"><ele>688.0</ele><time>2026-04-13T08:46:27.671Z</time></trkpt><trkpt lat="38.0188036" lon="-2.8723217"><ele>683.0</ele><time>2026-04-13T08:46:28.671Z</time></trkpt><trkpt lat="38.0189017" lon="-2.8722754"><ele>683.0</ele><time>2026-04-13T08:46:29.671Z</time></trkpt><trkpt lat="38.0190003" lon="-2.8722332"><ele>683.0</ele><time>2026-04-13T08:46:30.671Z</time></trkpt><trkpt lat="38.0191013" lon="-2.8721974"><ele>683.0</ele><time>2026-04-13T08:46:31.672Z</time></trkpt><trkpt lat="38.0191973" lon="-2.8721678"><ele>683.0</ele><time>2026-04-13T08:46:32.671Z</time></trkpt><trkpt lat="38.0192852" lon="-2.8721402"><ele>683.0</ele><time>2026-04-13T08:46:33.671Z</time></trkpt><trkpt lat="38.0193698" lon="-2.8721156"><ele>684.5999999999999</ele><time>2026-04-13T08:46:34.671Z</time></trkpt><trkpt lat="38.0194555" lon="-2.872091"><ele>686.1999999999999</ele><time>2026-04-13T08:46:35.671Z</time></trkpt><trkpt lat="38.0195432" lon="-2.8720581"><ele>687.8</ele><time>2026-04-13T08:46:36.671Z</time></trkpt><trkpt lat="38.0196281" lon="-2.8720047"><ele>689.4</ele><time>2026-04-13T08:46:37.671Z</time></trkpt><trkpt lat="38.0197094" lon="-2.87193"><ele>691.0</ele><time>2026-04-13T08:46:38.671Z</time></trkpt><trkpt lat="38.0197895" lon="-2.8718424"><ele>688.75</ele><time>2026-04-13T08:46:39.671Z</time></trkpt><trkpt lat="38.0198711" lon="-2.8717482"><ele>686.5</ele><time>2026-04-13T08:46:40.671Z</time></trkpt><trkpt lat="38.0199533" lon="-2.8716506"><ele>684.25</ele><time>2026-04-13T08:46:41.671Z</time></trkpt><trkpt lat="38.0200366" lon="-2.8715537"><ele>682.0</ele><time>2026-04-13T08:46:42.671Z</time></trkpt><trkpt lat="38.0201215" lon="-2.8714575"><ele>682.0</ele><time>2026-04-13T08:46:43.671Z</time></trkpt><trkpt lat="38.0202087" lon="-2.871366"><ele>682.0</ele><time>2026-04-13T08:46:44.671Z</time></trkpt><trkpt lat="38.0202985" lon="-2.8712762"><ele>682.0</ele><time>2026-04-13T08:46:45.671Z</time></trkpt><trkpt lat="38.0203898" lon="-2.8711902"><ele>682.0</ele><time>2026-04-13T08:46:46.671Z</time></trkpt><trkpt lat="38.0204831" lon="-2.871108"><ele>682.0</ele><time>2026-04-13T08:46:47.671Z</time></trkpt><trkpt lat="38.0205761" lon="-2.8710288"><ele>682.0</ele><time>2026-04-13T08:46:48.671Z</time></trkpt><trkpt lat="38.0206723" lon="-2.8709546"><ele>682.0</ele><time>2026-04-13T08:46:49.671Z</time></trkpt><trkpt lat="38.0207721" lon="-2.870896"><ele>682.0</ele><time>2026-04-13T08:46:50.671Z</time></trkpt><trkpt lat="38.0208788" lon="-2.8708531"><ele>682.0</ele><time>2026-04-13T08:46:51.671Z</time></trkpt><trkpt lat="38.02099" lon="-2.8708273"><ele>679.25</ele><time>2026-04-13T08:46:52.671Z</time></trkpt><trkpt lat="38.0211041" lon="-2.8708147"><ele>676.5</ele><time>2026-04-13T08:46:53.671Z</time></trkpt><trkpt lat="38.02122" lon="-2.8708169"><ele>673.75</ele><time>2026-04-13T08:46:54.671Z</time></trkpt><trkpt lat="38.0213363" lon="-2.8708325"><ele>671.0</ele><time>2026-04-13T08:46:55.671Z</time></trkpt><trkpt lat="38.0214515" lon="-2.8708501"><ele>671.0</ele><time>2026-04-13T08:46:56.671Z</time></trkpt><trkpt lat="38.0215653" lon="-2.8708674"><ele>671.0</ele><time>2026-04-13T08:46:57.671Z</time></trkpt><trkpt lat="38.0216778" lon="-2.8708836"><ele>671.0</ele><time>2026-04-13T08:46:58.671Z</time></trkpt><trkpt lat="38.0217921" lon="-2.8709009"><ele>671.0</ele><time>2026-04-13T08:46:59.671Z</time></trkpt><trkpt lat="38.021906" lon="-2.8709173"><ele>671.5</ele><time>2026-04-13T08:47:00.671Z</time></trkpt><trkpt lat="38.0220217" lon="-2.8709263"><ele>672.0</ele><time>2026-04-13T08:47:01.671Z</time></trkpt><trkpt lat="38.0221374" lon="-2.8709211"><ele>672.5</ele><time>2026-04-13T08:47:02.671Z</time></trkpt><trkpt lat="38.0222521" lon="-2.8708992"><ele>673.0</ele><time>2026-04-13T08:47:03.671Z</time></trkpt><trkpt lat="38.0223646" lon="-2.8708712"><ele>673.0</ele><time>2026-04-13T08:47:04.671Z</time></trkpt><trkpt lat="38.0224766" lon="-2.8708433"><ele>673.0</ele><time>2026-04-13T08:47:05.671Z</time></trkpt><trkpt lat="38.0225856" lon="-2.8708127"><ele>673.0</ele><time>2026-04-13T08:47:06.671Z</time></trkpt><trkpt lat="38.0226908" lon="-2.8707806"><ele>673.0</ele><time>2026-04-13T08:47:07.671Z</time></trkpt><trkpt lat="38.0227975" lon="-2.8707499"><ele>673.0</ele><time>2026-04-13T08:47:08.671Z</time></trkpt><trkpt lat="38.0229048" lon="-2.8707201"><ele>673.0</ele><time>2026-04-13T08:47:09.671Z</time></trkpt><trkpt lat="38.0230149" lon="-2.8706893"><ele>673.0</ele><time>2026-04-13T08:47:10.671Z</time></trkpt><trkpt lat="38.0231253" lon="-2.8706583"><ele>673.0</ele><time>2026-04-13T08:47:11.671Z</time></trkpt><trkpt lat="38.0232347" lon="-2.8706276"><ele>673.0</ele><time>2026-04-13T08:47:12.671Z</time></trkpt><trkpt lat="38.0233393" lon="-2.8705989"><ele>673.0</ele><time>2026-04-13T08:47:13.671Z</time></trkpt><trkpt lat="38.0234372" lon="-2.8705748"><ele>674.2</ele><time>2026-04-13T08:47:14.671Z</time></trkpt><trkpt lat="38.0235312" lon="-2.870552"><ele>675.4</ele><time>2026-04-13T08:47:15.671Z</time></trkpt><trkpt lat="38.0236234" lon="-2.8705225"><ele>676.6</ele><time>2026-04-13T08:47:16.671Z</time></trkpt><trkpt lat="38.0237062" lon="-2.8704737"><ele>677.8000000000001</ele><time>2026-04-13T08:47:17.671Z</time></trkpt><trkpt lat="38.0237798" lon="-2.8704053"><ele>679.0</ele><time>2026-04-13T08:47:18.671Z</time></trkpt><trkpt lat="38.0238472" lon="-2.8703313"><ele>679.0</ele><time>2026-04-13T08:47:19.671Z</time></trkpt><trkpt lat="38.023917" lon="-2.8702576"><ele>679.0</ele><time>2026-04-13T08:47:20.671Z</time></trkpt><trkpt lat="38.0239925" lon="-2.8701845"><ele>679.0</ele><time>2026-04-13T08:47:21.671Z</time></trkpt><trkpt lat="38.0240671" lon="-2.8701095"><ele>679.0</ele><time>2026-04-13T08:47:22.671Z</time></trkpt><trkpt lat="38.0241424" lon="-2.8700314"><ele>679.0</ele><time>2026-04-13T08:47:23.671Z</time></trkpt><trkpt lat="38.0242174" lon="-2.8699531"><ele>677.6</ele><time>2026-04-13T08:47:24.671Z</time></trkpt><trkpt lat="38.0242894" lon="-2.8698719"><ele>676.2</ele><time>2026-04-13T08:47:25.671Z</time></trkpt><trkpt lat="38.0243546" lon="-2.8697867"><ele>674.8000000000001</ele><time>2026-04-13T08:47:26.671Z</time></trkpt><trkpt lat="38.0244111" lon="-2.8696966"><ele>673.4000000000001</ele><time>2026-04-13T08:47:27.671Z</time></trkpt><trkpt lat="38.0244602" lon="-2.8696013"><ele>672.0</ele><time>2026-04-13T08:47:28.671Z</time></trkpt><trkpt lat="38.0245097" lon="-2.8695058"><ele>672.0</ele><time>2026-04-13T08:47:29.671Z</time></trkpt><trkpt lat="38.0245582" lon="-2.8694088"><ele>672.0</ele><time>2026-04-13T08:47:30.671Z</time></trkpt><trkpt lat="38.0246056" lon="-2.869307"><ele>672.0</ele><time>2026-04-13T08:47:31.671Z</time></trkpt><trkpt lat="38.024653" lon="-2.8692014"><ele>672.0</ele><time>2026-04-13T08:47:32.671Z</time></trkpt><trkpt lat="38.0247007" lon="-2.8690919"><ele>672.0</ele><time>2026-04-13T08:47:33.671Z</time></trkpt><trkpt lat="38.0247474" lon="-2.8689768"><ele>670.4000000000001</ele><time>2026-04-13T08:47:34.671Z</time></trkpt><trkpt lat="38.0247901" lon="-2.8688534"><ele>668.8000000000001</ele><time>2026-04-13T08:47:35.671Z</time></trkpt><trkpt lat="38.0248263" lon="-2.8687256"><ele>667.2</ele><time>2026-04-13T08:47:36.671Z</time></trkpt><trkpt lat="38.024862" lon="-2.8685969"><ele>665.6</ele><time>2026-04-13T08:47:37.671Z</time></trkpt><trkpt lat="38.0248971" lon="-2.8684695"><ele>664.0</ele><time>2026-04-13T08:47:38.671Z</time></trkpt><trkpt lat="38.0249319" lon="-2.8683451"><ele>663.8000000000001</ele><time>2026-04-13T08:47:39.671Z</time></trkpt><trkpt lat="38.0249642" lon="-2.8682239"><ele>663.6</ele><time>2026-04-13T08:47:40.671Z</time></trkpt><trkpt lat="38.0249968" lon="-2.8681069"><ele>663.4</ele><time>2026-04-13T08:47:41.671Z</time></trkpt><trkpt lat="38.0250323" lon="-2.8679958"><ele>663.2</ele><time>2026-04-13T08:47:42.671Z</time></trkpt><trkpt lat="38.0250702" lon="-2.8678877"><ele>663.0</ele><time>2026-04-13T08:47:43.671Z</time></trkpt><trkpt lat="38.0251108" lon="-2.8677804"><ele>662.5999999999999</ele><time>2026-04-13T08:47:44.671Z</time></trkpt><trkpt lat="38.0251525" lon="-2.8676741"><ele>662.1999999999999</ele><time>2026-04-13T08:47:45.671Z</time></trkpt><trkpt lat="38.0251934" lon="-2.8675664"><ele>661.8</ele><time>2026-04-13T08:47:46.671Z</time></trkpt><trkpt lat="38.0252336" lon="-2.8674578"><ele>661.4</ele><time>2026-04-13T08:47:47.671Z</time></trkpt><trkpt lat="38.0252758" lon="-2.8673498"><ele>661.0</ele><time>2026-04-13T08:47:48.671Z</time></trkpt><trkpt lat="38.0253193" lon="-2.8672461"><ele>661.0</ele><time>2026-04-13T08:47:49.671Z</time></trkpt><trkpt lat="38.0253678" lon="-2.8671433"><ele>661.0</ele><time>2026-04-13T08:47:50.671Z</time></trkpt><trkpt lat="38.0254191" lon="-2.8670452"><ele>661.0</ele><time>2026-04-13T08:47:51.671Z</time></trkpt><trkpt lat="38.0254732" lon="-2.8669467"><ele>661.0</ele><time>2026-04-13T08:47:52.671Z</time></trkpt><trkpt lat="38.0255278" lon="-2.866846"><ele>661.0</ele><time>2026-04-13T08:47:53.671Z</time></trkpt><trkpt lat="38.0255806" lon="-2.8667387"><ele>660.8</ele><time>2026-04-13T08:47:54.671Z</time></trkpt><trkpt lat="38.0256382" lon="-2.8666298"><ele>660.5999999999999</ele><time>2026-04-13T08:47:55.671Z</time></trkpt><trkpt lat="38.0257042" lon="-2.866523"><ele>660.4</ele><time>2026-04-13T08:47:56.671Z</time></trkpt><trkpt lat="38.0257796" lon="-2.8664211"><ele>660.2</ele><time>2026-04-13T08:47:57.671Z</time></trkpt><trkpt lat="38.0258594" lon="-2.8663219"><ele>660.0</ele><time>2026-04-13T08:47:58.671Z</time></trkpt><trkpt lat="38.025941" lon="-2.8662218"><ele>659.6</ele><time>2026-04-13T08:47:59.671Z</time></trkpt><trkpt lat="38.0260228" lon="-2.8661217"><ele>659.2</ele><time>2026-04-13T08:48:00.671Z</time></trkpt><trkpt lat="38.0261033" lon="-2.8660217"><ele>658.8</ele><time>2026-04-13T08:48:01.671Z</time></trkpt><trkpt lat="38.026183" lon="-2.8659223"><ele>658.4</ele><time>2026-04-13T08:48:02.671Z</time></trkpt><trkpt lat="38.0262597" lon="-2.8658248"><ele>658.0</ele><time>2026-04-13T08:48:03.671Z</time></trkpt><trkpt lat="38.0263334" lon="-2.8657311"><ele>658.0</ele><time>2026-04-13T08:48:04.671Z</time></trkpt><trkpt lat="38.0264113" lon="-2.8656524"><ele>658.0</ele><time>2026-04-13T08:48:05.671Z</time></trkpt><trkpt lat="38.0264993" lon="-2.8655963"><ele>658.0</ele><time>2026-04-13T08:48:06.671Z</time></trkpt><trkpt lat="38.0265958" lon="-2.8655672"><ele>658.0</ele><time>2026-04-13T08:48:07.671Z</time></trkpt><trkpt lat="38.0266907" lon="-2.8655652"><ele>658.0</ele><time>2026-04-13T08:48:08.671Z</time></trkpt><trkpt lat="38.0267913" lon="-2.865578"><ele>658.4</ele><time>2026-04-13T08:48:09.671Z</time></trkpt><trkpt lat="38.0268938" lon="-2.8656016"><ele>658.8</ele><time>2026-04-13T08:48:10.671Z</time></trkpt><trkpt lat="38.0269985" lon="-2.8656249"><ele>659.2</ele><time>2026-04-13T08:48:11.671Z</time></trkpt><trkpt lat="38.0271049" lon="-2.8656472"><ele>659.6</ele><time>2026-04-13T08:48:12.671Z</time></trkpt><trkpt lat="38.0272163" lon="-2.8656717"><ele>660.0</ele><time>2026-04-13T08:48:13.671Z</time></trkpt><trkpt lat="38.0273289" lon="-2.8656991"><ele>660.0</ele><time>2026-04-13T08:48:14.671Z</time></trkpt><trkpt lat="38.0274431" lon="-2.8657289"><ele>660.0</ele><time>2026-04-13T08:48:15.671Z</time></trkpt><trkpt lat="38.0275594" lon="-2.8657565"><ele>660.0</ele><time>2026-04-13T08:48:16.671Z</time></trkpt><trkpt lat="38.0276776" lon="-2.8657842"><ele>660.0</ele><time>2026-04-13T08:48:17.671Z</time></trkpt><trkpt lat="38.0277942" lon="-2.8658106"><ele>659.25</ele><time>2026-04-13T08:48:18.671Z</time></trkpt><trkpt lat="38.0279116" lon="-2.8658373"><ele>658.5</ele><time>2026-04-13T08:48:19.671Z</time></trkpt><trkpt lat="38.0280292" lon="-2.8658654"><ele>657.75</ele><time>2026-04-13T08:48:20.671Z</time></trkpt><trkpt lat="38.0281472" lon="-2.8658934"><ele>657.0</ele><time>2026-04-13T08:48:21.671Z</time></trkpt><trkpt lat="38.0282647" lon="-2.8659211"><ele>659.75</ele><time>2026-04-13T08:48:22.671Z</time></trkpt><trkpt lat="38.0283822" lon="-2.8659507"><ele>662.5</ele><time>2026-04-13T08:48:23.671Z</time></trkpt><trkpt lat="38.0284989" lon="-2.8659804"><ele>665.25</ele><time>2026-04-13T08:48:24.671Z</time></trkpt><trkpt lat="38.0286133" lon="-2.8660106"><ele>668.0</ele><time>2026-04-13T08:48:25.671Z</time></trkpt><trkpt lat="38.0287258" lon="-2.8660393"><ele>668.0</ele><time>2026-04-13T08:48:26.671Z</time></trkpt><trkpt lat="38.0288374" lon="-2.8660654"><ele>668.0</ele><time>2026-04-13T08:48:27.671Z</time></trkpt><trkpt lat="38.0289452" lon="-2.8660906"><ele>668.0</ele><time>2026-04-13T08:48:28.671Z</time></trkpt><trkpt lat="38.0290513" lon="-2.8661098"><ele>668.0</ele><time>2026-04-13T08:48:29.671Z</time></trkpt><trkpt lat="38.0291534" lon="-2.8661126"><ele>668.0</ele><time>2026-04-13T08:48:30.671Z</time></trkpt><trkpt lat="38.0292556" lon="-2.8660905"><ele>669.4</ele><time>2026-04-13T08:48:31.671Z</time></trkpt><trkpt lat="38.0293495" lon="-2.8660389"><ele>670.8</ele><time>2026-04-13T08:48:32.671Z</time></trkpt><trkpt lat="38.0294373" lon="-2.8659662"><ele>672.2</ele><time>2026-04-13T08:48:33.671Z</time></trkpt><trkpt lat="38.0295251" lon="-2.8658862"><ele>673.6</ele><time>2026-04-13T08:48:34.671Z</time></trkpt><trkpt lat="38.0296139" lon="-2.8658101"><ele>675.0</ele><time>2026-04-13T08:48:35.671Z</time></trkpt><trkpt lat="38.0297088" lon="-2.8657431"><ele>672.75</ele><time>2026-04-13T08:48:36.671Z</time></trkpt><trkpt lat="38.0298114" lon="-2.865695"><ele>670.5</ele><time>2026-04-13T08:48:37.671Z</time></trkpt><trkpt lat="38.0299221" lon="-2.8656682"><ele>668.25</ele><time>2026-04-13T08:48:38.671Z</time></trkpt><trkpt lat="38.0300365" lon="-2.865666"><ele>666.0</ele><time>2026-04-13T08:48:39.672Z</time></trkpt><trkpt lat="38.0301544" lon="-2.8656793"><ele>666.0</ele><time>2026-04-13T08:48:40.671Z</time></trkpt><trkpt lat="38.0302727" lon="-2.865705"><ele>666.0</ele><time>2026-04-13T08:48:41.671Z</time></trkpt><trkpt lat="38.0303785" lon="-2.8657343"><ele>666.0</ele><time>2026-04-13T08:48:42.672Z</time></trkpt><trkpt lat="38.0304938" lon="-2.8657619"><ele>666.0</ele><time>2026-04-13T08:48:43.671Z</time></trkpt><trkpt lat="38.0306061" lon="-2.865789"><ele>666.0</ele><time>2026-04-13T08:48:44.671Z</time></trkpt><trkpt lat="38.0307126" lon="-2.8658163"><ele>666.0</ele><time>2026-04-13T08:48:45.671Z</time></trkpt><trkpt lat="38.0308143" lon="-2.8658369"><ele>666.0</ele><time>2026-04-13T08:48:46.671Z</time></trkpt><trkpt lat="38.0309151" lon="-2.8658396"><ele>666.0</ele><time>2026-04-13T08:48:47.671Z</time></trkpt><trkpt lat="38.0310138" lon="-2.8658242"><ele>666.0</ele><time>2026-04-13T08:48:48.672Z</time></trkpt><trkpt lat="38.0311098" lon="-2.8657996"><ele>664.5</ele><time>2026-04-13T08:48:49.671Z</time></trkpt><trkpt lat="38.0312078" lon="-2.8657812"><ele>663.0</ele><time>2026-04-13T08:48:50.671Z</time></trkpt><trkpt lat="38.0313087" lon="-2.8657755"><ele>661.5</ele><time>2026-04-13T08:48:51.671Z</time></trkpt><trkpt lat="38.0314636" lon="-2.8657715"><ele>660.0</ele><time>2026-04-13T08:48:53.584Z</time></trkpt><trkpt lat="38.0316248" lon="-2.8657737"><ele>660.6</ele><time>2026-04-13T08:48:54.677Z</time></trkpt><trkpt lat="38.0317308" lon="-2.8657672"><ele>661.2</ele><time>2026-04-13T08:48:55.675Z</time></trkpt><trkpt lat="38.0318352" lon="-2.8657511"><ele>661.8</ele><time>2026-04-13T08:48:56.678Z</time></trkpt><trkpt lat="38.0319379" lon="-2.865733"><ele>662.4</ele><time>2026-04-13T08:48:57.67Z</time></trkpt><trkpt lat="38.0320398" lon="-2.865716"><ele>663.0</ele><time>2026-04-13T08:48:58.675Z</time></trkpt><trkpt lat="38.0321461" lon="-2.8657067"><ele>663.0</ele><time>2026-04-13T08:48:59.675Z</time></trkpt><trkpt lat="38.0322537" lon="-2.8657154"><ele>663.0</ele><time>2026-04-13T08:49:00.675Z</time></trkpt><trkpt lat="38.0323623" lon="-2.8657338"><ele>663.0</ele><time>2026-04-13T08:49:01.676Z</time></trkpt><trkpt lat="38.0324709" lon="-2.8657554"><ele>663.0</ele><time>2026-04-13T08:49:02.675Z</time></trkpt><trkpt lat="38.0325762" lon="-2.8657797"><ele>663.0</ele><time>2026-04-13T08:49:03.675Z</time></trkpt><trkpt lat="38.0326824" lon="-2.8658031"><ele>663.5999999999999</ele><time>2026-04-13T08:49:04.675Z</time></trkpt><trkpt lat="38.0327848" lon="-2.8658288"><ele>664.1999999999999</ele><time>2026-04-13T08:49:05.675Z</time></trkpt><trkpt lat="38.0328833" lon="-2.8658534"><ele>664.8</ele><time>2026-04-13T08:49:06.675Z</time></trkpt><trkpt lat="38.0329808" lon="-2.8658772"><ele>665.4</ele><time>2026-04-13T08:49:07.675Z</time></trkpt><trkpt lat="38.0330745" lon="-2.8658993"><ele>666.0</ele><time>2026-04-13T08:49:08.675Z</time></trkpt><trkpt lat="38.0331694" lon="-2.8659215"><ele>666.0</ele><time>2026-04-13T08:49:09.675Z</time></trkpt><trkpt lat="38.033265" lon="-2.8659423"><ele>666.0</ele><time>2026-04-13T08:49:10.675Z</time></trkpt><trkpt lat="38.0333652" lon="-2.8659661"><ele>666.0</ele><time>2026-04-13T08:49:11.676Z</time></trkpt><trkpt lat="38.0334688" lon="-2.8659878"><ele>666.0</ele><time>2026-04-13T08:49:12.675Z</time></trkpt><trkpt lat="38.0335747" lon="-2.8659974"><ele>666.0</ele><time>2026-04-13T08:49:13.675Z</time></trkpt><trkpt lat="38.033678" lon="-2.8659928"><ele>667.1999999999999</ele><time>2026-04-13T08:49:14.675Z</time></trkpt><trkpt lat="38.0337807" lon="-2.8659757"><ele>668.4</ele><time>2026-04-13T08:49:15.675Z</time></trkpt><trkpt lat="38.0338824" lon="-2.8659543"><ele>669.6</ele><time>2026-04-13T08:49:16.675Z</time></trkpt><trkpt lat="38.0339808" lon="-2.8659312"><ele>670.8</ele><time>2026-04-13T08:49:17.675Z</time></trkpt><trkpt lat="38.0340775" lon="-2.8659072"><ele>672.0</ele><time>2026-04-13T08:49:18.675Z</time></trkpt><trkpt lat="38.0341756" lon="-2.8658834"><ele>672.2</ele><time>2026-04-13T08:49:19.675Z</time></trkpt><trkpt lat="38.0342742" lon="-2.8658615"><ele>672.4000000000001</ele><time>2026-04-13T08:49:20.675Z</time></trkpt><trkpt lat="38.034367" lon="-2.8658503"><ele>672.5999999999999</ele><time>2026-04-13T08:49:21.675Z</time></trkpt><trkpt lat="38.034464" lon="-2.865843"><ele>672.8</ele><time>2026-04-13T08:49:22.675Z</time></trkpt><trkpt lat="38.0345609" lon="-2.8658394"><ele>673.0</ele><time>2026-04-13T08:49:23.675Z</time></trkpt><trkpt lat="38.0346559" lon="-2.8658372"><ele>673.0</ele><time>2026-04-13T08:49:24.675Z</time></trkpt><trkpt lat="38.0347505" lon="-2.8658348"><ele>673.0</ele><time>2026-04-13T08:49:25.675Z</time></trkpt><trkpt lat="38.0348455" lon="-2.865833"><ele>673.0</ele><time>2026-04-13T08:49:26.675Z</time></trkpt><trkpt lat="38.0349417" lon="-2.8658314"><ele>673.0</ele><time>2026-04-13T08:49:27.675Z</time></trkpt><trkpt lat="38.0350397" lon="-2.86583"><ele>673.0</ele><time>2026-04-13T08:49:28.675Z</time></trkpt><trkpt lat="38.0351379" lon="-2.865828"><ele>673.8</ele><time>2026-04-13T08:49:29.675Z</time></trkpt><trkpt lat="38.0352356" lon="-2.8658277"><ele>674.5999999999999</ele><time>2026-04-13T08:49:30.675Z</time></trkpt><trkpt lat="38.0353329" lon="-2.8658301"><ele>675.4000000000001</ele><time>2026-04-13T08:49:31.675Z</time></trkpt><trkpt lat="38.0354314" lon="-2.8658393"><ele>676.2</ele><time>2026-04-13T08:49:32.675Z</time></trkpt><trkpt lat="38.0355298" lon="-2.8658556"><ele>677.0</ele><time>2026-04-13T08:49:33.675Z</time></trkpt><trkpt lat="38.035626" lon="-2.8658747"><ele>677.0</ele><time>2026-04-13T08:49:34.675Z</time></trkpt><trkpt lat="38.0357182" lon="-2.8658943"><ele>677.0</ele><time>2026-04-13T08:49:35.675Z</time></trkpt><trkpt lat="38.0358063" lon="-2.8659108"><ele>677.0</ele><time>2026-04-13T08:49:36.675Z</time></trkpt><trkpt lat="38.0358926" lon="-2.8659168"><ele>677.0</ele><time>2026-04-13T08:49:37.675Z</time></trkpt><trkpt lat="38.0359779" lon="-2.865905"><ele>677.0</ele><time>2026-04-13T08:49:38.675Z</time></trkpt><trkpt lat="38.0360633" lon="-2.8658699"><ele>677.0</ele><time>2026-04-13T08:49:39.675Z</time></trkpt><trkpt lat="38.0361473" lon="-2.8658117"><ele>678.6</ele><time>2026-04-13T08:49:40.675Z</time></trkpt><trkpt lat="38.0362323" lon="-2.8657384"><ele>680.2</ele><time>2026-04-13T08:49:41.675Z</time></trkpt><trkpt lat="38.0363183" lon="-2.865658"><ele>681.8</ele><time>2026-04-13T08:49:42.675Z</time></trkpt><trkpt lat="38.0364049" lon="-2.8655738"><ele>683.4</ele><time>2026-04-13T08:49:43.675Z</time></trkpt><trkpt lat="38.0364935" lon="-2.8654872"><ele>685.0</ele><time>2026-04-13T08:49:44.675Z</time></trkpt><trkpt lat="38.0365842" lon="-2.8653998"><ele>685.0</ele><time>2026-04-13T08:49:45.675Z</time></trkpt><trkpt lat="38.0366744" lon="-2.8653131"><ele>685.0</ele><time>2026-04-13T08:49:46.675Z</time></trkpt><trkpt lat="38.036765" lon="-2.8652271"><ele>685.0</ele><time>2026-04-13T08:49:47.675Z</time></trkpt><trkpt lat="38.0368547" lon="-2.8651408"><ele>685.0</ele><time>2026-04-13T08:49:48.675Z</time></trkpt><trkpt lat="38.0369419" lon="-2.8650544"><ele>685.0</ele><time>2026-04-13T08:49:49.675Z</time></trkpt><trkpt lat="38.0370242" lon="-2.8649627"><ele>685.0</ele><time>2026-04-13T08:49:50.675Z</time></trkpt><trkpt lat="38.0370961" lon="-2.8648608"><ele>685.0</ele><time>2026-04-13T08:49:51.675Z</time></trkpt><trkpt lat="38.0371581" lon="-2.8647508"><ele>685.0</ele><time>2026-04-13T08:49:52.675Z</time></trkpt><trkpt lat="38.0372178" lon="-2.8646357"><ele>685.0</ele><time>2026-04-13T08:49:53.675Z</time></trkpt><trkpt lat="38.0372796" lon="-2.8645174"><ele>685.0</ele><time>2026-04-13T08:49:54.675Z</time></trkpt><trkpt lat="38.0373407" lon="-2.8643957"><ele>686.25</ele><time>2026-04-13T08:49:55.675Z</time></trkpt><trkpt lat="38.0374048" lon="-2.8642746"><ele>687.5</ele><time>2026-04-13T08:49:56.675Z</time></trkpt><trkpt lat="38.0374703" lon="-2.8641538"><ele>688.75</ele><time>2026-04-13T08:49:57.675Z</time></trkpt><trkpt lat="38.0375379" lon="-2.8640333"><ele>690.0</ele><time>2026-04-13T08:49:58.675Z</time></trkpt><trkpt lat="38.0376055" lon="-2.8639195"><ele>690.0</ele><time>2026-04-13T08:49:59.675Z</time></trkpt><trkpt lat="38.0376721" lon="-2.8638101"><ele>690.0</ele><time>2026-04-13T08:50:00.675Z</time></trkpt><trkpt lat="38.037733" lon="-2.8637058"><ele>690.0</ele><time>2026-04-13T08:50:01.675Z</time></trkpt><trkpt lat="38.0377935" lon="-2.863614"><ele>690.0</ele><time>2026-04-13T08:50:02.675Z</time></trkpt><trkpt lat="38.0378616" lon="-2.8635388"><ele>690.0</ele><time>2026-04-13T08:50:03.675Z</time></trkpt><trkpt lat="38.0379369" lon="-2.8634725"><ele>690.6</ele><time>2026-04-13T08:50:04.675Z</time></trkpt><trkpt lat="38.0380208" lon="-2.863405"><ele>691.2</ele><time>2026-04-13T08:50:05.675Z</time></trkpt><trkpt lat="38.0381109" lon="-2.8633388"><ele>691.8</ele><time>2026-04-13T08:50:06.675Z</time></trkpt><trkpt lat="38.0382027" lon="-2.8632679"><ele>692.4</ele><time>2026-04-13T08:50:07.675Z</time></trkpt><trkpt lat="38.038293" lon="-2.8631968"><ele>693.0</ele><time>2026-04-13T08:50:08.675Z</time></trkpt><trkpt lat="38.0383839" lon="-2.8631252"><ele>693.0</ele><time>2026-04-13T08:50:09.675Z</time></trkpt><trkpt lat="38.0384737" lon="-2.8630487"><ele>693.0</ele><time>2026-04-13T08:50:10.675Z</time></trkpt><trkpt lat="38.0385601" lon="-2.8629652"><ele>693.0</ele><time>2026-04-13T08:50:11.675Z</time></trkpt><trkpt lat="38.0386458" lon="-2.8628753"><ele>693.0</ele><time>2026-04-13T08:50:12.675Z</time></trkpt><trkpt lat="38.0387316" lon="-2.8627836"><ele>693.0</ele><time>2026-04-13T08:50:13.675Z</time></trkpt><trkpt lat="38.038819" lon="-2.8626904"><ele>692.0</ele><time>2026-04-13T08:50:14.675Z</time></trkpt><trkpt lat="38.0389097" lon="-2.8626029"><ele>691.0</ele><time>2026-04-13T08:50:15.675Z</time></trkpt><trkpt lat="38.0390059" lon="-2.8625224"><ele>690.0</ele><time>2026-04-13T08:50:16.675Z</time></trkpt><trkpt lat="38.039105" lon="-2.8624456"><ele>689.0</ele><time>2026-04-13T08:50:17.675Z</time></trkpt><trkpt lat="38.0392027" lon="-2.8623695"><ele>689.0</ele><time>2026-04-13T08:50:18.675Z</time></trkpt><trkpt lat="38.0392996" lon="-2.8622904"><ele>689.0</ele><time>2026-04-13T08:50:19.675Z</time></trkpt><trkpt lat="38.0393988" lon="-2.862213"><ele>689.0</ele><time>2026-04-13T08:50:20.675Z</time></trkpt><trkpt lat="38.039503" lon="-2.8621421"><ele>689.0</ele><time>2026-04-13T08:50:21.675Z</time></trkpt><trkpt lat="38.0396127" lon="-2.862082"><ele>689.0</ele><time>2026-04-13T08:50:22.675Z</time></trkpt><trkpt lat="38.0397248" lon="-2.8620301"><ele>689.0</ele><time>2026-04-13T08:50:23.676Z</time></trkpt><trkpt lat="38.0398381" lon="-2.8619804"><ele>689.0</ele><time>2026-04-13T08:50:24.675Z</time></trkpt><trkpt lat="38.0399505" lon="-2.8619301"><ele>689.0</ele><time>2026-04-13T08:50:25.675Z</time></trkpt><trkpt lat="38.0400612" lon="-2.8618767"><ele>686.5</ele><time>2026-04-13T08:50:26.675Z</time></trkpt><trkpt lat="38.0401709" lon="-2.8618131"><ele>684.0</ele><time>2026-04-13T08:50:27.675Z</time></trkpt><trkpt lat="38.0402754" lon="-2.86174"><ele>681.5</ele><time>2026-04-13T08:50:28.675Z</time></trkpt><trkpt lat="38.040378" lon="-2.8616569"><ele>679.0</ele><time>2026-04-13T08:50:29.675Z</time></trkpt><trkpt lat="38.0404729" lon="-2.8615648"><ele>679.0</ele><time>2026-04-13T08:50:30.675Z</time></trkpt><trkpt lat="38.0405616" lon="-2.8614661"><ele>679.0</ele><time>2026-04-13T08:50:31.675Z</time></trkpt><trkpt lat="38.0406393" lon="-2.8613718"><ele>679.0</ele><time>2026-04-13T08:50:32.675Z</time></trkpt><trkpt lat="38.0406986" lon="-2.8612705"><ele>679.0</ele><time>2026-04-13T08:50:33.675Z</time></trkpt><trkpt lat="38.0407515" lon="-2.8611675"><ele>679.0</ele><time>2026-04-13T08:50:34.675Z</time></trkpt><trkpt lat="38.0408109" lon="-2.8610731"><ele>680.8000000000001</ele><time>2026-04-13T08:50:35.676Z</time></trkpt><trkpt lat="38.0408876" lon="-2.8609954"><ele>682.6</ele><time>2026-04-13T08:50:36.675Z</time></trkpt><trkpt lat="38.0409745" lon="-2.86093"><ele>684.4</ele><time>2026-04-13T08:50:37.675Z</time></trkpt><trkpt lat="38.0410725" lon="-2.8608726"><ele>686.2</ele><time>2026-04-13T08:50:38.675Z</time></trkpt><trkpt lat="38.0411679" lon="-2.8608136"><ele>688.0</ele><time>2026-04-13T08:50:39.675Z</time></trkpt><trkpt lat="38.0412576" lon="-2.8607527"><ele>683.5999999999999</ele><time>2026-04-13T08:50:40.675Z</time></trkpt><trkpt lat="38.0413313" lon="-2.8606732"><ele>679.1999999999999</ele><time>2026-04-13T08:50:41.675Z</time></trkpt><trkpt lat="38.041393" lon="-2.8605717"><ele>674.8</ele><time>2026-04-13T08:50:42.675Z</time></trkpt><trkpt lat="38.041447" lon="-2.8604613"><ele>670.4</ele><time>2026-04-13T08:50:43.675Z</time></trkpt><trkpt lat="38.0415059" lon="-2.8603493"><ele>666.0</ele><time>2026-04-13T08:50:44.676Z</time></trkpt><trkpt lat="38.0415734" lon="-2.8602393"><ele>665.0</ele><time>2026-04-13T08:50:45.675Z</time></trkpt><trkpt lat="38.0416545" lon="-2.8601426"><ele>664.0</ele><time>2026-04-13T08:50:46.675Z</time></trkpt><trkpt lat="38.0417442" lon="-2.8600572"><ele>663.0</ele><time>2026-04-13T08:50:47.675Z</time></trkpt><trkpt lat="38.041836" lon="-2.8599739"><ele>662.0</ele><time>2026-04-13T08:50:48.675Z</time></trkpt><trkpt lat="38.0419284" lon="-2.8598899"><ele>662.0</ele><time>2026-04-13T08:50:49.676Z</time></trkpt><trkpt lat="38.042021" lon="-2.8598043"><ele>662.0</ele><time>2026-04-13T08:50:50.675Z</time></trkpt><trkpt lat="38.0421121" lon="-2.8597217"><ele>662.0</ele><time>2026-04-13T08:50:51.675Z</time></trkpt><trkpt lat="38.0422016" lon="-2.8596436"><ele>662.0</ele><time>2026-04-13T08:50:52.675Z</time></trkpt><trkpt lat="38.0422919" lon="-2.8595805"><ele>662.0</ele><time>2026-04-13T08:50:53.675Z</time></trkpt><trkpt lat="38.0423884" lon="-2.8595466"><ele>662.1666666666666</ele><time>2026-04-13T08:50:54.675Z</time></trkpt><trkpt lat="38.0424866" lon="-2.8595355"><ele>662.3333333333333</ele><time>2026-04-13T08:50:55.675Z</time></trkpt><trkpt lat="38.0425783" lon="-2.8595335"><ele>662.5</ele><time>2026-04-13T08:50:56.675Z</time></trkpt><trkpt lat="38.0426638" lon="-2.8595325"><ele>662.6666666666666</ele><time>2026-04-13T08:50:57.675Z</time></trkpt><trkpt lat="38.0427466" lon="-2.8595311"><ele>662.8333333333334</ele><time>2026-04-13T08:50:58.675Z</time></trkpt><trkpt lat="38.0428311" lon="-2.8595249"><ele>663.0</ele><time>2026-04-13T08:50:59.675Z</time></trkpt><trkpt lat="38.042913" lon="-2.8595065"><ele>663.0</ele><time>2026-04-13T08:51:00.675Z</time></trkpt><trkpt lat="38.0429893" lon="-2.8594704"><ele>663.0</ele><time>2026-04-13T08:51:01.675Z</time></trkpt><trkpt lat="38.0430566" lon="-2.8594079"><ele>663.0</ele><time>2026-04-13T08:51:02.675Z</time></trkpt><trkpt lat="38.0431117" lon="-2.8593197"><ele>663.0</ele><time>2026-04-13T08:51:03.675Z</time></trkpt><trkpt lat="38.0431541" lon="-2.8592106"><ele>663.0</ele><time>2026-04-13T08:51:04.675Z</time></trkpt><trkpt lat="38.04319" lon="-2.8590889"><ele>663.5999999999999</ele><time>2026-04-13T08:51:05.676Z</time></trkpt><trkpt lat="38.043221" lon="-2.8589596"><ele>664.1999999999999</ele><time>2026-04-13T08:51:06.675Z</time></trkpt><trkpt lat="38.0432504" lon="-2.8588242"><ele>664.8</ele><time>2026-04-13T08:51:07.675Z</time></trkpt><trkpt lat="38.0432771" lon="-2.8586895"><ele>665.4</ele><time>2026-04-13T08:51:08.675Z</time></trkpt><trkpt lat="38.0433036" lon="-2.8585587"><ele>666.0</ele><time>2026-04-13T08:51:09.675Z</time></trkpt><trkpt lat="38.0433319" lon="-2.8584303"><ele>664.8</ele><time>2026-04-13T08:51:10.675Z</time></trkpt><trkpt lat="38.043364" lon="-2.8583044"><ele>663.5999999999999</ele><time>2026-04-13T08:51:11.675Z</time></trkpt><trkpt lat="38.0434074" lon="-2.8581823"><ele>662.4</ele><time>2026-04-13T08:51:12.676Z</time></trkpt><trkpt lat="38.0434605" lon="-2.8580669"><ele>661.2</ele><time>2026-04-13T08:51:13.675Z</time></trkpt><trkpt lat="38.0435179" lon="-2.8579558"><ele>660.0</ele><time>2026-04-13T08:51:14.675Z</time></trkpt><trkpt lat="38.0435773" lon="-2.8578468"><ele>660.0</ele><time>2026-04-13T08:51:15.675Z</time></trkpt><trkpt lat="38.0436352" lon="-2.8577329"><ele>660.0</ele><time>2026-04-13T08:51:16.675Z</time></trkpt><trkpt lat="38.0436877" lon="-2.8576135"><ele>660.0</ele><time>2026-04-13T08:51:17.676Z</time></trkpt><trkpt lat="38.0437286" lon="-2.8574907"><ele>660.0</ele><time>2026-04-13T08:51:18.676Z</time></trkpt><trkpt lat="38.0437577" lon="-2.8573613"><ele>660.0</ele><time>2026-04-13T08:51:19.675Z</time></trkpt><trkpt lat="38.0437797" lon="-2.8572302"><ele>659.2</ele><time>2026-04-13T08:51:20.675Z</time></trkpt><trkpt lat="38.0437998" lon="-2.8570987"><ele>658.4</ele><time>2026-04-13T08:51:21.675Z</time></trkpt><trkpt lat="38.0438236" lon="-2.856969"><ele>657.5999999999999</ele><time>2026-04-13T08:51:22.675Z</time></trkpt><trkpt lat="38.0438551" lon="-2.8568424"><ele>656.8</ele><time>2026-04-13T08:51:23.675Z</time></trkpt><trkpt lat="38.043899" lon="-2.8567174"><ele>656.0</ele><time>2026-04-13T08:51:24.675Z</time></trkpt><trkpt lat="38.043951" lon="-2.856595"><ele>656.0</ele><time>2026-04-13T08:51:25.675Z</time></trkpt><trkpt lat="38.0440069" lon="-2.8564754"><ele>656.0</ele><time>2026-04-13T08:51:26.675Z</time></trkpt><trkpt lat="38.0440618" lon="-2.856357"><ele>656.0</ele><time>2026-04-13T08:51:27.675Z</time></trkpt><trkpt lat="38.0441151" lon="-2.8562388"><ele>656.0</ele><time>2026-04-13T08:51:28.675Z</time></trkpt><trkpt lat="38.0441676" lon="-2.8561215"><ele>656.0</ele><time>2026-04-13T08:51:29.675Z</time></trkpt><trkpt lat="38.0442184" lon="-2.8560021"><ele>657.25</ele><time>2026-04-13T08:51:30.675Z</time></trkpt><trkpt lat="38.0442737" lon="-2.85588"><ele>658.5</ele><time>2026-04-13T08:51:31.675Z</time></trkpt><trkpt lat="38.0443392" lon="-2.8557623"><ele>659.75</ele><time>2026-04-13T08:51:32.675Z</time></trkpt><trkpt lat="38.0444207" lon="-2.8556522"><ele>661.0</ele><time>2026-04-13T08:51:33.675Z</time></trkpt><trkpt lat="38.0445105" lon="-2.8555537"><ele>661.0</ele><time>2026-04-13T08:51:34.675Z</time></trkpt><trkpt lat="38.0446055" lon="-2.8554597"><ele>661.0</ele><time>2026-04-13T08:51:35.675Z</time></trkpt><trkpt lat="38.0446998" lon="-2.8553654"><ele>661.0</ele><time>2026-04-13T08:51:36.675Z</time></trkpt><trkpt lat="38.0447859" lon="-2.8552644"><ele>661.0</ele><time>2026-04-13T08:51:37.675Z</time></trkpt><trkpt lat="38.0448642" lon="-2.8551588"><ele>661.75</ele><time>2026-04-13T08:51:38.675Z</time></trkpt><trkpt lat="38.0449399" lon="-2.8550486"><ele>662.5</ele><time>2026-04-13T08:51:39.675Z</time></trkpt><trkpt lat="38.0450167" lon="-2.8549414"><ele>663.25</ele><time>2026-04-13T08:51:40.675Z</time></trkpt><trkpt lat="38.0451009" lon="-2.854839"><ele>664.0</ele><time>2026-04-13T08:51:41.675Z</time></trkpt><trkpt lat="38.0451919" lon="-2.8547437"><ele>664.0</ele><time>2026-04-13T08:51:42.676Z</time></trkpt><trkpt lat="38.0452875" lon="-2.8546541"><ele>664.0</ele><time>2026-04-13T08:51:43.675Z</time></trkpt><trkpt lat="38.0453861" lon="-2.8545721"><ele>664.0</ele><time>2026-04-13T08:51:44.675Z</time></trkpt><trkpt lat="38.045482" lon="-2.8544924"><ele>664.0</ele><time>2026-04-13T08:51:45.675Z</time></trkpt><trkpt lat="38.045578" lon="-2.8544156"><ele>664.0</ele><time>2026-04-13T08:51:46.675Z</time></trkpt><trkpt lat="38.0456712" lon="-2.8543393"><ele>664.0</ele><time>2026-04-13T08:51:47.675Z</time></trkpt><trkpt lat="38.0457619" lon="-2.8542647"><ele>664.0</ele><time>2026-04-13T08:51:48.675Z</time></trkpt><trkpt lat="38.0458509" lon="-2.8541892"><ele>664.0</ele><time>2026-04-13T08:51:49.675Z</time></trkpt><trkpt lat="38.0459394" lon="-2.8541149"><ele>664.0</ele><time>2026-04-13T08:51:50.675Z</time></trkpt><trkpt lat="38.0460268" lon="-2.8540427"><ele>664.2</ele><time>2026-04-13T08:51:51.675Z</time></trkpt><trkpt lat="38.0461126" lon="-2.8539731"><ele>664.4000000000001</ele><time>2026-04-13T08:51:52.675Z</time></trkpt><trkpt lat="38.0462009" lon="-2.8539061"><ele>664.6</ele><time>2026-04-13T08:51:53.675Z</time></trkpt><trkpt lat="38.0462903" lon="-2.8538415"><ele>664.8</ele><time>2026-04-13T08:51:54.675Z</time></trkpt><trkpt lat="38.046383" lon="-2.8537884"><ele>665.0</ele><time>2026-04-13T08:51:55.676Z</time></trkpt><trkpt lat="38.0464809" lon="-2.853745"><ele>665.0</ele><time>2026-04-13T08:51:56.676Z</time></trkpt><trkpt lat="38.0465826" lon="-2.8537071"><ele>665.0</ele><time>2026-04-13T08:51:57.675Z</time></trkpt><trkpt lat="38.0466838" lon="-2.8536612"><ele>665.0</ele><time>2026-04-13T08:51:58.675Z</time></trkpt><trkpt lat="38.0467776" lon="-2.8535982"><ele>665.0</ele><time>2026-04-13T08:51:59.675Z</time></trkpt><trkpt lat="38.046865" lon="-2.8535202"><ele>665.0</ele><time>2026-04-13T08:52:00.675Z</time></trkpt><trkpt lat="38.0469502" lon="-2.8534339"><ele>664.4</ele><time>2026-04-13T08:52:01.675Z</time></trkpt><trkpt lat="38.0470349" lon="-2.8533479"><ele>663.8</ele><time>2026-04-13T08:52:02.676Z</time></trkpt><trkpt lat="38.0471174" lon="-2.8532628"><ele>663.2</ele><time>2026-04-13T08:52:03.675Z</time></trkpt><trkpt lat="38.0472029" lon="-2.8531811"><ele>662.6</ele><time>2026-04-13T08:52:04.675Z</time></trkpt><trkpt lat="38.0472881" lon="-2.8531007"><ele>662.0</ele><time>2026-04-13T08:52:05.675Z</time></trkpt><trkpt lat="38.0473709" lon="-2.8530178"><ele>662.0</ele><time>2026-04-13T08:52:06.675Z</time></trkpt><trkpt lat="38.0474539" lon="-2.8529308"><ele>662.0</ele><time>2026-04-13T08:52:07.675Z</time></trkpt><trkpt lat="38.0475378" lon="-2.8528419"><ele>662.0</ele><time>2026-04-13T08:52:08.675Z</time></trkpt><trkpt lat="38.0476215" lon="-2.8527465"><ele>662.0</ele><time>2026-04-13T08:52:09.675Z</time></trkpt><trkpt lat="38.0476987" lon="-2.8526413"><ele>662.0</ele><time>2026-04-13T08:52:10.675Z</time></trkpt><trkpt lat="38.0477679" lon="-2.8525271"><ele>661.0</ele><time>2026-04-13T08:52:11.675Z</time></trkpt><trkpt lat="38.0478325" lon="-2.8524114"><ele>660.0</ele><time>2026-04-13T08:52:12.675Z</time></trkpt><trkpt lat="38.0479002" lon="-2.8522979"><ele>659.0</ele><time>2026-04-13T08:52:13.675Z</time></trkpt><trkpt lat="38.0479758" lon="-2.8521913"><ele>658.0</ele><time>2026-04-13T08:52:14.675Z</time></trkpt><trkpt lat="38.0480564" lon="-2.8520927"><ele>657.0</ele><time>2026-04-13T08:52:15.675Z</time></trkpt><trkpt lat="38.0481376" lon="-2.8519932"><ele>657.0</ele><time>2026-04-13T08:52:16.675Z</time></trkpt><trkpt lat="38.0482153" lon="-2.8518918"><ele>657.0</ele><time>2026-04-13T08:52:17.675Z</time></trkpt><trkpt lat="38.0482872" lon="-2.8517859"><ele>657.0</ele><time>2026-04-13T08:52:18.675Z</time></trkpt><trkpt lat="38.0483532" lon="-2.8516752"><ele>657.0</ele><time>2026-04-13T08:52:19.676Z</time></trkpt><trkpt lat="38.0484104" lon="-2.8515555"><ele>657.0</ele><time>2026-04-13T08:52:20.675Z</time></trkpt><trkpt lat="38.0484576" lon="-2.8514295"><ele>656.2</ele><time>2026-04-13T08:52:21.675Z</time></trkpt><trkpt lat="38.0484971" lon="-2.8512986"><ele>655.4000000000001</ele><time>2026-04-13T08:52:22.675Z</time></trkpt><trkpt lat="38.0485337" lon="-2.8511651"><ele>654.5999999999999</ele><time>2026-04-13T08:52:23.675Z</time></trkpt><trkpt lat="38.0485741" lon="-2.8510359"><ele>653.8</ele><time>2026-04-13T08:52:24.675Z</time></trkpt><trkpt lat="38.0486193" lon="-2.8509071"><ele>653.0</ele><time>2026-04-13T08:52:25.675Z</time></trkpt><trkpt lat="38.0486682" lon="-2.8507779"><ele>653.0</ele><time>2026-04-13T08:52:26.675Z</time></trkpt><trkpt lat="38.0487224" lon="-2.850653"><ele>653.0</ele><time>2026-04-13T08:52:27.675Z</time></trkpt><trkpt lat="38.0487835" lon="-2.8505341"><ele>653.0</ele><time>2026-04-13T08:52:28.675Z</time></trkpt><trkpt lat="38.0488487" lon="-2.8504295"><ele>653.0</ele><time>2026-04-13T08:52:29.675Z</time></trkpt><trkpt lat="38.048915" lon="-2.8503394"><ele>653.0</ele><time>2026-04-13T08:52:30.675Z</time></trkpt><trkpt lat="38.0489741" lon="-2.8502608"><ele>653.0</ele><time>2026-04-13T08:52:31.675Z</time></trkpt><trkpt lat="38.049014" lon="-2.8501915"><ele>653.0</ele><time>2026-04-13T08:52:32.675Z</time></trkpt><trkpt lat="38.0490181" lon="-2.8500928"><ele>653.0</ele><time>2026-04-13T08:52:34.675Z</time></trkpt><trkpt lat="38.0489563" lon="-2.850064"><ele>653.0</ele><time>2026-04-13T08:52:36.675Z</time></trkpt><trkpt lat="38.048896" lon="-2.8501361"><ele>653.0</ele><time>2026-04-13T08:52:38.675Z</time></trkpt><trkpt lat="38.0488235" lon="-2.8502602"><ele>653.0</ele><time>2026-04-13T08:52:40.676Z</time></trkpt><trkpt lat="38.0487802" lon="-2.8503272"><ele>653.0000000000001</ele><time>2026-04-13T08:52:41.675Z</time></trkpt><trkpt lat="38.0487345" lon="-2.8503938"><ele>653.0</ele><time>2026-04-13T08:52:42.675Z</time></trkpt><trkpt lat="38.0486859" lon="-2.8504637"><ele>653.0</ele><time>2026-04-13T08:52:43.675Z</time></trkpt><trkpt lat="38.0486369" lon="-2.8505342"><ele>653.0</ele><time>2026-04-13T08:52:44.675Z</time></trkpt><trkpt lat="38.0485897" lon="-2.85061"><ele>653.0</ele><time>2026-04-13T08:52:45.675Z</time></trkpt><trkpt lat="38.048544" lon="-2.8506897"><ele>653.0000000000001</ele><time>2026-04-13T08:52:46.675Z</time></trkpt><trkpt lat="38.0485029" lon="-2.8507742"><ele>653.0</ele><time>2026-04-13T08:52:47.675Z</time></trkpt><trkpt lat="38.0484689" lon="-2.8508642"><ele>653.0000000000001</ele><time>2026-04-13T08:52:48.675Z</time></trkpt><trkpt lat="38.0484354" lon="-2.8509556"><ele>653.0</ele><time>2026-04-13T08:52:49.675Z</time></trkpt><trkpt lat="38.0484003" lon="-2.8510479"><ele>653.0</ele><time>2026-04-13T08:52:50.675Z</time></trkpt><trkpt lat="38.0483595" lon="-2.85113"><ele>653.0</ele><time>2026-04-13T08:52:51.675Z</time></trkpt><trkpt lat="38.0483075" lon="-2.8511982"><ele>653.0</ele><time>2026-04-13T08:52:52.676Z</time></trkpt><trkpt lat="38.0482469" lon="-2.8512463"><ele>653.0000000000001</ele><time>2026-04-13T08:52:53.675Z</time></trkpt><trkpt lat="38.0481837" lon="-2.8512714"><ele>653.0</ele><time>2026-04-13T08:52:54.675Z</time></trkpt><trkpt lat="38.0480815" lon="-2.8512525"><ele>652.4285714285714</ele><time>2026-04-13T08:52:56.675Z</time></trkpt><trkpt lat="38.0480276" lon="-2.8511925"><ele>651.8571428571429</ele><time>2026-04-13T08:52:59.675Z</time></trkpt><trkpt lat="38.0479912" lon="-2.8511097"><ele>651.2857142857142</ele><time>2026-04-13T08:53:10.675Z</time></trkpt><trkpt lat="38.0479601" lon="-2.8509981"><ele>650.7142857142858</ele><time>2026-04-13T08:53:13.675Z</time></trkpt><trkpt lat="38.0479362" lon="-2.8509198"><ele>650.1428571428571</ele><time>2026-04-13T08:53:15.675Z</time></trkpt><trkpt lat="38.0479113" lon="-2.8508429"><ele>649.5714285714286</ele><time>2026-04-13T08:53:17.675Z</time></trkpt><trkpt lat="38.0478822" lon="-2.8507516"><ele>649.0</ele><time>2026-04-13T08:53:19.675Z</time></trkpt><trkpt lat="38.0478416" lon="-2.8506251"><ele>649.0</ele><time>2026-04-13T08:53:21.675Z</time></trkpt><trkpt lat="38.0477914" lon="-2.8504766"><ele>649.0</ele><time>2026-04-13T08:53:23.675Z</time></trkpt><trkpt lat="38.0477643" lon="-2.8504009"><ele>649.0</ele><time>2026-04-13T08:53:24.675Z</time></trkpt><trkpt lat="38.0477378" lon="-2.8503249"><ele>649.0</ele><time>2026-04-13T08:53:25.675Z</time></trkpt><trkpt lat="38.0477118" lon="-2.850251"><ele>649.0</ele><time>2026-04-13T08:53:26.675Z</time></trkpt><trkpt lat="38.0476563" lon="-2.8501324"><ele>649.0</ele><time>2026-04-13T08:53:28.675Z</time></trkpt><trkpt lat="38.0475792" lon="-2.8500691"><ele>649.8333333333334</ele><time>2026-04-13T08:53:31.675Z</time></trkpt><trkpt lat="38.0474954" lon="-2.8500623"><ele>650.6666666666667</ele><time>2026-04-13T08:53:33.675Z</time></trkpt><trkpt lat="38.0474126" lon="-2.8501363"><ele>651.5</ele><time>2026-04-13T08:53:35.675Z</time></trkpt><trkpt lat="38.0473798" lon="-2.850206"><ele>652.3333333333334</ele><time>2026-04-13T08:53:36.675Z</time></trkpt><trkpt lat="38.0473494" lon="-2.8502831"><ele>653.1666666666666</ele><time>2026-04-13T08:53:37.675Z</time></trkpt><trkpt lat="38.0473192" lon="-2.8503629"><ele>654.0</ele><time>2026-04-13T08:53:38.675Z</time></trkpt><trkpt lat="38.0472866" lon="-2.8504446"><ele>654.3333333333334</ele><time>2026-04-13T08:53:39.675Z</time></trkpt><trkpt lat="38.0472455" lon="-2.850524"><ele>654.6666666666666</ele><time>2026-04-13T08:53:40.675Z</time></trkpt><trkpt lat="38.0471952" lon="-2.8505986"><ele>655.0</ele><time>2026-04-13T08:53:41.675Z</time></trkpt><trkpt lat="38.0471404" lon="-2.8506687"><ele>655.3333333333333</ele><time>2026-04-13T08:53:42.675Z</time></trkpt><trkpt lat="38.0470823" lon="-2.8507323"><ele>655.6666666666666</ele><time>2026-04-13T08:53:43.675Z</time></trkpt><trkpt lat="38.0470292" lon="-2.8507843"><ele>656.0</ele><time>2026-04-13T08:53:44.675Z</time></trkpt><trkpt lat="38.0469315" lon="-2.8508596"><ele>656.0</ele><time>2026-04-13T08:53:46.675Z</time></trkpt><trkpt lat="38.0468718" lon="-2.8508993"><ele>656.0</ele><time>2026-04-13T08:53:47.675Z</time></trkpt><trkpt lat="38.0468032" lon="-2.850944"><ele>656.0</ele><time>2026-04-13T08:53:48.675Z</time></trkpt><trkpt lat="38.0467306" lon="-2.8509821"><ele>656.0</ele><time>2026-04-13T08:53:49.675Z</time></trkpt><trkpt lat="38.0466528" lon="-2.8510059"><ele>656.0</ele><time>2026-04-13T08:53:50.675Z</time></trkpt><trkpt lat="38.0465738" lon="-2.850996"><ele>656.0</ele><time>2026-04-13T08:53:51.675Z</time></trkpt><trkpt lat="38.0465032" lon="-2.850947"><ele>656.0</ele><time>2026-04-13T08:53:52.675Z</time></trkpt><trkpt lat="38.0464566" lon="-2.8508648"><ele>656.0</ele><time>2026-04-13T08:53:53.675Z</time></trkpt><trkpt lat="38.0464434" lon="-2.8507642"><ele>656.0</ele><time>2026-04-13T08:53:54.675Z</time></trkpt><trkpt lat="38.0464639" lon="-2.8506646"><ele>656.0</ele><time>2026-04-13T08:53:55.675Z</time></trkpt><trkpt lat="38.04652" lon="-2.8505857"><ele>656.0</ele><time>2026-04-13T08:53:56.675Z</time></trkpt><trkpt lat="38.0465867" lon="-2.8505235"><ele>656.0</ele><time>2026-04-13T08:53:57.675Z</time></trkpt><trkpt lat="38.0466574" lon="-2.8504678"><ele>656.0</ele><time>2026-04-13T08:53:58.675Z</time></trkpt><trkpt lat="38.0467209" lon="-2.8504005"><ele>656.0</ele><time>2026-04-13T08:53:59.675Z</time></trkpt><trkpt lat="38.0467667" lon="-2.8503174"><ele>656.0</ele><time>2026-04-13T08:54:00.675Z</time></trkpt><trkpt lat="38.0467898" lon="-2.8502239"><ele>656.0</ele><time>2026-04-13T08:54:01.675Z</time></trkpt><trkpt lat="38.0467959" lon="-2.8501264"><ele>656.0</ele><time>2026-04-13T08:54:02.675Z</time></trkpt><trkpt lat="38.0467942" lon="-2.8500262"><ele>656.0</ele><time>2026-04-13T08:54:03.675Z</time></trkpt><trkpt lat="38.0467877" lon="-2.8499442"><ele>657.8</ele><time>2026-04-13T08:54:04.675Z</time></trkpt><trkpt lat="38.0467651" lon="-2.8498292"><ele>659.5999999999999</ele><time>2026-04-13T08:54:06.675Z</time></trkpt><trkpt lat="38.0467584" lon="-2.8497249"><ele>661.4</ele><time>2026-04-13T08:54:08.675Z</time></trkpt><trkpt lat="38.0467648" lon="-2.8496095"><ele>663.2</ele><time>2026-04-13T08:54:10.675Z</time></trkpt><trkpt lat="38.0467744" lon="-2.8494888"><ele>665.0</ele><time>2026-04-13T08:54:12.675Z</time></trkpt><trkpt lat="38.0467951" lon="-2.8493552"><ele>666.2</ele><time>2026-04-13T08:54:14.675Z</time></trkpt><trkpt lat="38.0467749" lon="-2.8492575"><ele>667.4</ele><time>2026-04-13T08:54:16.676Z</time></trkpt><trkpt lat="38.0466912" lon="-2.8492186"><ele>668.5999999999999</ele><time>2026-04-13T08:54:18.675Z</time></trkpt><trkpt lat="38.0465735" lon="-2.8491985"><ele>669.8</ele><time>2026-04-13T08:54:20.675Z</time></trkpt><trkpt lat="38.0464654" lon="-2.849185"><ele>671.0</ele><time>2026-04-13T08:54:22.675Z</time></trkpt><trkpt lat="38.0463685" lon="-2.849167"><ele>671.4</ele><time>2026-04-13T08:54:24.675Z</time></trkpt><trkpt lat="38.0462517" lon="-2.8491451"><ele>671.8</ele><time>2026-04-13T08:54:26.675Z</time></trkpt><trkpt lat="38.0461411" lon="-2.8491264"><ele>672.1999999999999</ele><time>2026-04-13T08:54:28.675Z</time></trkpt><trkpt lat="38.0460766" lon="-2.8491236"><ele>672.5999999999999</ele><time>2026-04-13T08:54:32.675Z</time></trkpt><trkpt lat="38.0460642" lon="-2.8490433"><ele>673.0</ele><time>2026-04-13T08:55:00.675Z</time></trkpt><trkpt lat="38.0459977" lon="-2.8491966"><ele>673.0</ele><time>2026-04-13T08:55:35.675Z</time></trkpt><trkpt lat="38.0459643" lon="-2.8492657"><ele>673.0</ele><time>2026-04-13T08:55:41.675Z</time></trkpt><trkpt lat="38.0459469" lon="-2.8493505"><ele>673.0</ele><time>2026-04-13T08:55:48.714Z</time></trkpt><trkpt lat="38.0459132" lon="-2.8494196"><ele>673.0</ele><time>2026-04-13T08:55:58.294Z</time></trkpt><trkpt lat="38.0458498" lon="-2.849435"><ele>673.0</ele><time>2026-04-13T08:56:29.68Z</time></trkpt><trkpt lat="38.045915" lon="-2.8494306"><ele>673.0</ele><time>2026-04-13T09:02:35.586Z</time></trkpt><trkpt lat="38.0459307" lon="-2.8493467"><ele>673.0</ele><time>2026-04-13T09:02:40.489Z</time></trkpt><trkpt lat="38.0459741" lon="-2.849274"><ele>673.0</ele><time>2026-04-13T09:02:45.669Z</time></trkpt><trkpt lat="38.0460077" lon="-2.8491813"><ele>673.0</ele><time>2026-04-13T09:02:51.669Z</time></trkpt><trkpt lat="38.0460321" lon="-2.8490941"><ele>673.0</ele><time>2026-04-13T09:02:57.669Z</time></trkpt><trkpt lat="38.0460508" lon="-2.8492124"><ele>673.0</ele><time>2026-04-13T09:06:32.717Z</time></trkpt><trkpt lat="38.0460405" lon="-2.8493191"><ele>673.0</ele><time>2026-04-13T09:06:34.708Z</time></trkpt><trkpt lat="38.0460314" lon="-2.8494334"><ele>673.0</ele><time>2026-04-13T09:06:36.705Z</time></trkpt><trkpt lat="38.0460117" lon="-2.8495453"><ele>672.3333333333334</ele><time>2026-04-13T09:06:38.707Z</time></trkpt><trkpt lat="38.0459973" lon="-2.849651"><ele>671.6666666666667</ele><time>2026-04-13T09:06:40.706Z</time></trkpt><trkpt lat="38.0459762" lon="-2.849757"><ele>671.0</ele><time>2026-04-13T09:06:42.702Z</time></trkpt><trkpt lat="38.0459531" lon="-2.8498825"><ele>670.3333333333334</ele><time>2026-04-13T09:06:44.716Z</time></trkpt><trkpt lat="38.0459451" lon="-2.850009"><ele>669.6666666666666</ele><time>2026-04-13T09:06:46.716Z</time></trkpt><trkpt lat="38.0459277" lon="-2.8500933"><ele>669.0</ele><time>2026-04-13T09:06:48.716Z</time></trkpt><trkpt lat="38.045941" lon="-2.8501719"><ele>668.5</ele><time>2026-04-13T09:06:51.716Z</time></trkpt><trkpt lat="38.0460079" lon="-2.8501989"><ele>668.0</ele><time>2026-04-13T09:06:53.71Z</time></trkpt><trkpt lat="38.046094" lon="-2.8502044"><ele>667.5</ele><time>2026-04-13T09:06:55.716Z</time></trkpt><trkpt lat="38.0461549" lon="-2.8502263"><ele>667.0</ele><time>2026-04-13T09:06:56.716Z</time></trkpt><trkpt lat="38.0462786" lon="-2.8502412"><ele>666.5</ele><time>2026-04-13T09:06:58.716Z</time></trkpt><trkpt lat="38.0463418" lon="-2.8502491"><ele>666.0</ele><time>2026-04-13T09:06:59.71Z</time></trkpt><trkpt lat="38.046407" lon="-2.8502591"><ele>666.0</ele><time>2026-04-13T09:07:00.716Z</time></trkpt><trkpt lat="38.046471" lon="-2.8502666"><ele>666.0</ele><time>2026-04-13T09:07:01.711Z</time></trkpt><trkpt lat="38.0465898" lon="-2.8502661"><ele>666.0</ele><time>2026-04-13T09:07:03.708Z</time></trkpt><trkpt lat="38.0466834" lon="-2.8502121"><ele>666.0</ele><time>2026-04-13T09:07:05.716Z</time></trkpt><trkpt lat="38.0467349" lon="-2.8500804"><ele>666.0</ele><time>2026-04-13T09:07:07.715Z</time></trkpt><trkpt lat="38.0467133" lon="-2.8499825"><ele>665.8571428571429</ele><time>2026-04-13T09:07:09.712Z</time></trkpt><trkpt lat="38.0467112" lon="-2.8498978"><ele>665.7142857142857</ele><time>2026-04-13T09:07:11.716Z</time></trkpt><trkpt lat="38.0467738" lon="-2.8499082"><ele>665.5714285714286</ele><time>2026-04-13T09:07:15.716Z</time></trkpt><trkpt lat="38.0467873" lon="-2.8500304"><ele>665.4285714285714</ele><time>2026-04-13T09:07:17.708Z</time></trkpt><trkpt lat="38.0468099" lon="-2.8501147"><ele>665.2857142857142</ele><time>2026-04-13T09:07:18.708Z</time></trkpt><trkpt lat="38.0467982" lon="-2.85022"><ele>665.1428571428571</ele><time>2026-04-13T09:07:20.712Z</time></trkpt><trkpt lat="38.0467781" lon="-2.8503026"><ele>665.0</ele><time>2026-04-13T09:07:21.708Z</time></trkpt><trkpt lat="38.0467412" lon="-2.850375"><ele>665.1666666666666</ele><time>2026-04-13T09:07:22.716Z</time></trkpt><trkpt lat="38.0466775" lon="-2.8504427"><ele>665.3333333333333</ele><time>2026-04-13T09:07:23.716Z</time></trkpt><trkpt lat="38.046611" lon="-2.8504913"><ele>665.5</ele><time>2026-04-13T09:07:24.716Z</time></trkpt><trkpt lat="38.0465454" lon="-2.8505418"><ele>665.6666666666666</ele><time>2026-04-13T09:07:25.717Z</time></trkpt><trkpt lat="38.0464875" lon="-2.8506043"><ele>665.8333333333334</ele><time>2026-04-13T09:07:26.716Z</time></trkpt><trkpt lat="38.0464412" lon="-2.8506876"><ele>666.0</ele><time>2026-04-13T09:07:27.708Z</time></trkpt><trkpt lat="38.0464139" lon="-2.8507894"><ele>666.0</ele><time>2026-04-13T09:07:28.716Z</time></trkpt><trkpt lat="38.0464174" lon="-2.8508962"><ele>666.0</ele><time>2026-04-13T09:07:29.716Z</time></trkpt><trkpt lat="38.0465017" lon="-2.8508905"><ele>666.0</ele><time>2026-04-13T09:07:30.705Z</time></trkpt><trkpt lat="38.0465676" lon="-2.8509324"><ele>666.0</ele><time>2026-04-13T09:07:31.707Z</time></trkpt><trkpt lat="38.0466469" lon="-2.8509389"><ele>666.0</ele><time>2026-04-13T09:07:32.716Z</time></trkpt><trkpt lat="38.0467181" lon="-2.8509188"><ele>666.0</ele><time>2026-04-13T09:07:33.712Z</time></trkpt><trkpt lat="38.0467952" lon="-2.8508776"><ele>664.3333333333334</ele><time>2026-04-13T09:07:34.711Z</time></trkpt><trkpt lat="38.0468601" lon="-2.8508343"><ele>662.6666666666666</ele><time>2026-04-13T09:07:35.713Z</time></trkpt><trkpt lat="38.046936" lon="-2.8507818"><ele>661.0</ele><time>2026-04-13T09:07:37.716Z</time></trkpt><trkpt lat="38.0470237" lon="-2.8507068"><ele>659.3333333333333</ele><time>2026-04-13T09:07:40.716Z</time></trkpt><trkpt lat="38.0471073" lon="-2.8506133"><ele>657.6666666666666</ele><time>2026-04-13T09:07:42.708Z</time></trkpt><trkpt lat="38.0471527" lon="-2.8505579"><ele>656.0</ele><time>2026-04-13T09:07:43.712Z</time></trkpt><trkpt lat="38.0471984" lon="-2.8504974"><ele>655.9999999999999</ele><time>2026-04-13T09:07:44.709Z</time></trkpt><trkpt lat="38.0472343" lon="-2.8504267"><ele>656.0</ele><time>2026-04-13T09:07:45.716Z</time></trkpt><trkpt lat="38.0472646" lon="-2.8503499"><ele>656.0</ele><time>2026-04-13T09:07:46.706Z</time></trkpt><trkpt lat="38.0472928" lon="-2.850272"><ele>656.0</ele><time>2026-04-13T09:07:47.709Z</time></trkpt><trkpt lat="38.0473239" lon="-2.8501938"><ele>656.0</ele><time>2026-04-13T09:07:48.707Z</time></trkpt><trkpt lat="38.0473597" lon="-2.8501172"><ele>655.9999999999999</ele><time>2026-04-13T09:07:49.709Z</time></trkpt><trkpt lat="38.0474068" lon="-2.8500513"><ele>656.0</ele><time>2026-04-13T09:07:50.716Z</time></trkpt><trkpt lat="38.0474608" lon="-2.8500091"><ele>655.5999999999999</ele><time>2026-04-13T09:07:51.716Z</time></trkpt><trkpt lat="38.0475627" lon="-2.8500087"><ele>655.2</ele><time>2026-04-13T09:07:53.716Z</time></trkpt><trkpt lat="38.0476254" lon="-2.8500516"><ele>654.8</ele><time>2026-04-13T09:07:56.71Z</time></trkpt><trkpt lat="38.047713" lon="-2.8501918"><ele>654.4000000000001</ele><time>2026-04-13T09:08:01.67Z</time></trkpt><trkpt lat="38.0477421" lon="-2.8502847"><ele>654.0</ele><time>2026-04-13T09:08:03.675Z</time></trkpt><trkpt lat="38.0477692" lon="-2.8503665"><ele>653.2857142857142</ele><time>2026-04-13T09:08:05.684Z</time></trkpt><trkpt lat="38.0477854" lon="-2.8504571"><ele>652.5714285714286</ele><time>2026-04-13T09:08:07.683Z</time></trkpt><trkpt lat="38.0477899" lon="-2.850541"><ele>651.8571428571429</ele><time>2026-04-13T09:08:08.683Z</time></trkpt><trkpt lat="38.047851" lon="-2.8505839"><ele>651.1428571428571</ele><time>2026-04-13T09:08:11.683Z</time></trkpt><trkpt lat="38.047871" lon="-2.8506614"><ele>650.4285714285714</ele><time>2026-04-13T09:08:13.683Z</time></trkpt><trkpt lat="38.0478898" lon="-2.8507407"><ele>649.7142857142857</ele><time>2026-04-13T09:08:16.683Z</time></trkpt><trkpt lat="38.0479268" lon="-2.8508273"><ele>649.0</ele><time>2026-04-13T09:08:32.683Z</time></trkpt><trkpt lat="38.0479672" lon="-2.8509166"><ele>648.7142857142857</ele><time>2026-04-13T09:08:36.683Z</time></trkpt><trkpt lat="38.0480008" lon="-2.8509964"><ele>648.4285714285714</ele><time>2026-04-13T09:08:39.683Z</time></trkpt><trkpt lat="38.0480405" lon="-2.8510883"><ele>648.1428571428571</ele><time>2026-04-13T09:08:42.683Z</time></trkpt><trkpt lat="38.0480719" lon="-2.8511767"><ele>647.8571428571429</ele><time>2026-04-13T09:08:46.683Z</time></trkpt><trkpt lat="38.0481182" lon="-2.8512363"><ele>647.5714285714286</ele><time>2026-04-13T09:08:49.683Z</time></trkpt><trkpt lat="38.0481887" lon="-2.851264"><ele>647.2857142857142</ele><time>2026-04-13T09:08:52.683Z</time></trkpt><trkpt lat="38.0482435" lon="-2.8512174"><ele>647.0</ele><time>2026-04-13T09:09:04.683Z</time></trkpt><trkpt lat="38.0483144" lon="-2.8511356"><ele>648.2</ele><time>2026-04-13T09:09:19.683Z</time></trkpt><trkpt lat="38.0483042" lon="-2.851041"><ele>649.4000000000001</ele><time>2026-04-13T09:09:22.683Z</time></trkpt><trkpt lat="38.0484246" lon="-2.8509021"><ele>650.5999999999999</ele><time>2026-04-13T09:09:24.683Z</time></trkpt><trkpt lat="38.0484821" lon="-2.8507635"><ele>651.8</ele><time>2026-04-13T09:09:26.683Z</time></trkpt><trkpt lat="38.0485219" lon="-2.8506882"><ele>653.0</ele><time>2026-04-13T09:09:27.683Z</time></trkpt><trkpt lat="38.0485655" lon="-2.8506035"><ele>653.0</ele><time>2026-04-13T09:09:28.683Z</time></trkpt><trkpt lat="38.048616" lon="-2.8505234"><ele>653.0</ele><time>2026-04-13T09:09:29.683Z</time></trkpt><trkpt lat="38.0486661" lon="-2.8504431"><ele>653.0</ele><time>2026-04-13T09:09:30.683Z</time></trkpt><trkpt lat="38.0487135" lon="-2.8503593"><ele>653.0</ele><time>2026-04-13T09:09:31.683Z</time></trkpt><trkpt lat="38.0487684" lon="-2.8502864"><ele>653.0</ele><time>2026-04-13T09:09:32.683Z</time></trkpt><trkpt lat="38.0488096" lon="-2.8502004"><ele>653.0</ele><time>2026-04-13T09:09:33.683Z</time></trkpt><trkpt lat="38.0488483" lon="-2.8501209"><ele>651.8</ele><time>2026-04-13T09:09:34.683Z</time></trkpt><trkpt lat="38.0488879" lon="-2.8500584"><ele>650.5999999999999</ele><time>2026-04-13T09:09:35.683Z</time></trkpt><trkpt lat="38.0489683" lon="-2.8499984"><ele>649.4000000000001</ele><time>2026-04-13T09:09:37.683Z</time></trkpt><trkpt lat="38.0490341" lon="-2.8499794"><ele>648.2</ele><time>2026-04-13T09:09:42.683Z</time></trkpt><trkpt lat="38.0491333" lon="-2.8499007"><ele>647.0</ele><time>2026-04-13T09:09:45.684Z</time></trkpt><trkpt lat="38.0492358" lon="-2.8497888"><ele>647.6666666666666</ele><time>2026-04-13T09:09:47.683Z</time></trkpt><trkpt lat="38.0492947" lon="-2.8497218"><ele>648.3333333333333</ele><time>2026-04-13T09:09:48.683Z</time></trkpt><trkpt lat="38.0493512" lon="-2.8496481"><ele>649.0</ele><time>2026-04-13T09:09:49.683Z</time></trkpt><trkpt lat="38.0494105" lon="-2.8495648"><ele>649.6666666666666</ele><time>2026-04-13T09:09:50.683Z</time></trkpt><trkpt lat="38.0494714" lon="-2.8494705"><ele>650.3333333333334</ele><time>2026-04-13T09:09:51.683Z</time></trkpt><trkpt lat="38.0495217" lon="-2.849356"><ele>651.0</ele><time>2026-04-13T09:09:52.683Z</time></trkpt><trkpt lat="38.0495637" lon="-2.8492322"><ele>651.0</ele><time>2026-04-13T09:09:53.683Z</time></trkpt><trkpt lat="38.0495714" lon="-2.8491057"><ele>651.0</ele><time>2026-04-13T09:09:54.683Z</time></trkpt><trkpt lat="38.049598" lon="-2.8489816"><ele>651.0</ele><time>2026-04-13T09:09:55.683Z</time></trkpt><trkpt lat="38.0496237" lon="-2.8488609"><ele>651.0</ele><time>2026-04-13T09:09:56.683Z</time></trkpt><trkpt lat="38.0496663" lon="-2.8487317"><ele>651.0</ele><time>2026-04-13T09:09:57.683Z</time></trkpt><trkpt lat="38.0497132" lon="-2.8486071"><ele>651.0</ele><time>2026-04-13T09:09:58.683Z</time></trkpt><trkpt lat="38.0497644" lon="-2.8484769"><ele>651.0</ele><time>2026-04-13T09:09:59.683Z</time></trkpt><trkpt lat="38.0498016" lon="-2.8483494"><ele>651.0</ele><time>2026-04-13T09:10:00.683Z</time></trkpt><trkpt lat="38.0498218" lon="-2.848214"><ele>651.0</ele><time>2026-04-13T09:10:01.683Z</time></trkpt><trkpt lat="38.0498314" lon="-2.8480822"><ele>651.0</ele><time>2026-04-13T09:10:02.683Z</time></trkpt><trkpt lat="38.0498329" lon="-2.8479594"><ele>651.0</ele><time>2026-04-13T09:10:03.683Z</time></trkpt><trkpt lat="38.0498397" lon="-2.8478545"><ele>651.0</ele><time>2026-04-13T09:10:04.683Z</time></trkpt><trkpt lat="38.0498487" lon="-2.8477511"><ele>651.0</ele><time>2026-04-13T09:10:05.683Z</time></trkpt><trkpt lat="38.049893" lon="-2.8476705"><ele>651.0</ele><time>2026-04-13T09:10:06.683Z</time></trkpt><trkpt lat="38.0499319" lon="-2.8475881"><ele>651.0</ele><time>2026-04-13T09:10:07.684Z</time></trkpt><trkpt lat="38.0499949" lon="-2.8475045"><ele>651.0</ele><time>2026-04-13T09:10:08.683Z</time></trkpt><trkpt lat="38.0500473" lon="-2.8474079"><ele>653.4</ele><time>2026-04-13T09:10:09.683Z</time></trkpt><trkpt lat="38.0501009" lon="-2.8473092"><ele>655.8</ele><time>2026-04-13T09:10:10.683Z</time></trkpt><trkpt lat="38.0501557" lon="-2.8472048"><ele>658.1999999999999</ele><time>2026-04-13T09:10:11.684Z</time></trkpt><trkpt lat="38.0501987" lon="-2.8470996"><ele>660.5999999999999</ele><time>2026-04-13T09:10:12.683Z</time></trkpt><trkpt lat="38.0502514" lon="-2.8469874"><ele>663.0</ele><time>2026-04-13T09:10:13.683Z</time></trkpt><trkpt lat="38.0503048" lon="-2.8468762"><ele>660.4</ele><time>2026-04-13T09:10:14.683Z</time></trkpt><trkpt lat="38.0503559" lon="-2.8467568"><ele>657.8</ele><time>2026-04-13T09:10:15.683Z</time></trkpt><trkpt lat="38.0504045" lon="-2.8466358"><ele>655.2</ele><time>2026-04-13T09:10:16.683Z</time></trkpt><trkpt lat="38.0504462" lon="-2.8465168"><ele>652.6</ele><time>2026-04-13T09:10:17.683Z</time></trkpt><trkpt lat="38.0504964" lon="-2.8463976"><ele>650.0</ele><time>2026-04-13T09:10:18.683Z</time></trkpt><trkpt lat="38.0505449" lon="-2.8462764"><ele>650.0</ele><time>2026-04-13T09:10:19.683Z</time></trkpt><trkpt lat="38.0505959" lon="-2.846155"><ele>650.0</ele><time>2026-04-13T09:10:20.683Z</time></trkpt><trkpt lat="38.0506589" lon="-2.8460382"><ele>650.0</ele><time>2026-04-13T09:10:21.683Z</time></trkpt><trkpt lat="38.0507321" lon="-2.8459267"><ele>650.0</ele><time>2026-04-13T09:10:22.683Z</time></trkpt><trkpt lat="38.0508124" lon="-2.845819"><ele>652.25</ele><time>2026-04-13T09:10:23.683Z</time></trkpt><trkpt lat="38.050892" lon="-2.8457114"><ele>654.5</ele><time>2026-04-13T09:10:24.683Z</time></trkpt><trkpt lat="38.050966" lon="-2.8456016"><ele>656.75</ele><time>2026-04-13T09:10:25.683Z</time></trkpt><trkpt lat="38.0510398" lon="-2.8454964"><ele>659.0</ele><time>2026-04-13T09:10:26.683Z</time></trkpt><trkpt lat="38.0511199" lon="-2.8453751"><ele>659.0</ele><time>2026-04-13T09:10:27.683Z</time></trkpt><trkpt lat="38.0512006" lon="-2.8452566"><ele>659.0</ele><time>2026-04-13T09:10:28.683Z</time></trkpt><trkpt lat="38.0512848" lon="-2.8451341"><ele>659.0</ele><time>2026-04-13T09:10:29.683Z</time></trkpt><trkpt lat="38.0513648" lon="-2.8450165"><ele>659.0</ele><time>2026-04-13T09:10:30.683Z</time></trkpt><trkpt lat="38.0514427" lon="-2.8448988"><ele>657.75</ele><time>2026-04-13T09:10:31.683Z</time></trkpt><trkpt lat="38.0515208" lon="-2.8447792"><ele>656.5</ele><time>2026-04-13T09:10:32.683Z</time></trkpt><trkpt lat="38.051601" lon="-2.8446649"><ele>655.25</ele><time>2026-04-13T09:10:33.683Z</time></trkpt><trkpt lat="38.0516862" lon="-2.8445603"><ele>654.0</ele><time>2026-04-13T09:10:34.683Z</time></trkpt><trkpt lat="38.0517811" lon="-2.8444601"><ele>655.25</ele><time>2026-04-13T09:10:35.683Z</time></trkpt><trkpt lat="38.0518818" lon="-2.8443697"><ele>656.5</ele><time>2026-04-13T09:10:36.683Z</time></trkpt><trkpt lat="38.0519873" lon="-2.8442871"><ele>657.75</ele><time>2026-04-13T09:10:37.683Z</time></trkpt><trkpt lat="38.0520878" lon="-2.8442034"><ele>659.0</ele><time>2026-04-13T09:10:38.683Z</time></trkpt><trkpt lat="38.052193" lon="-2.8441149"><ele>659.0</ele><time>2026-04-13T09:10:39.683Z</time></trkpt><trkpt lat="38.0522975" lon="-2.8440268"><ele>659.0</ele><time>2026-04-13T09:10:40.683Z</time></trkpt><trkpt lat="38.0523993" lon="-2.8439404"><ele>659.0</ele><time>2026-04-13T09:10:41.683Z</time></trkpt><trkpt lat="38.052503" lon="-2.8438527"><ele>659.0</ele><time>2026-04-13T09:10:42.683Z</time></trkpt><trkpt lat="38.0526109" lon="-2.8437718"><ele>661.5</ele><time>2026-04-13T09:10:43.683Z</time></trkpt><trkpt lat="38.0527247" lon="-2.8437008"><ele>664.0</ele><time>2026-04-13T09:10:44.683Z</time></trkpt><trkpt lat="38.0528395" lon="-2.8436315"><ele>666.5</ele><time>2026-04-13T09:10:45.683Z</time></trkpt><trkpt lat="38.0529547" lon="-2.8435489"><ele>669.0</ele><time>2026-04-13T09:10:46.683Z</time></trkpt><trkpt lat="38.0530644" lon="-2.8434657"><ele>668.5</ele><time>2026-04-13T09:10:47.683Z</time></trkpt><trkpt lat="38.0531731" lon="-2.8433765"><ele>668.0</ele><time>2026-04-13T09:10:48.683Z</time></trkpt><trkpt lat="38.0532785" lon="-2.8432862"><ele>667.5</ele><time>2026-04-13T09:10:49.683Z</time></trkpt><trkpt lat="38.0533824" lon="-2.8431927"><ele>667.0</ele><time>2026-04-13T09:10:50.683Z</time></trkpt><trkpt lat="38.0534816" lon="-2.8431026"><ele>667.0</ele><time>2026-04-13T09:10:51.683Z</time></trkpt><trkpt lat="38.0535814" lon="-2.8430143"><ele>667.0</ele><time>2026-04-13T09:10:52.683Z</time></trkpt><trkpt lat="38.0536802" lon="-2.8429277"><ele>667.0</ele><time>2026-04-13T09:10:53.683Z</time></trkpt><trkpt lat="38.0537804" lon="-2.8428416"><ele>667.0</ele><time>2026-04-13T09:10:54.683Z</time></trkpt><trkpt lat="38.0538793" lon="-2.8427512"><ele>667.0</ele><time>2026-04-13T09:10:55.683Z</time></trkpt><trkpt lat="38.0539784" lon="-2.8426574"><ele>667.0</ele><time>2026-04-13T09:10:56.683Z</time></trkpt><trkpt lat="38.0540704" lon="-2.8425507"><ele>667.0</ele><time>2026-04-13T09:10:57.683Z</time></trkpt><trkpt lat="38.0541522" lon="-2.8424393"><ele>667.0</ele><time>2026-04-13T09:10:58.683Z</time></trkpt><trkpt lat="38.0542265" lon="-2.8423194"><ele>666.5</ele><time>2026-04-13T09:10:59.683Z</time></trkpt><trkpt lat="38.0542999" lon="-2.8422053"><ele>666.0</ele><time>2026-04-13T09:11:00.683Z</time></trkpt><trkpt lat="38.0543805" lon="-2.8420883"><ele>665.5</ele><time>2026-04-13T09:11:01.683Z</time></trkpt><trkpt lat="38.0544645" lon="-2.8419787"><ele>665.0</ele><time>2026-04-13T09:11:02.683Z</time></trkpt><trkpt lat="38.0545534" lon="-2.8418715"><ele>661.0</ele><time>2026-04-13T09:11:03.683Z</time></trkpt><trkpt lat="38.0546397" lon="-2.841758"><ele>657.0</ele><time>2026-04-13T09:11:04.683Z</time></trkpt><trkpt lat="38.0547238" lon="-2.8416511"><ele>653.0</ele><time>2026-04-13T09:11:05.683Z</time></trkpt><trkpt lat="38.0548062" lon="-2.8415388"><ele>649.0</ele><time>2026-04-13T09:11:06.683Z</time></trkpt><trkpt lat="38.054892" lon="-2.8414275"><ele>654.75</ele><time>2026-04-13T09:11:07.683Z</time></trkpt><trkpt lat="38.0549777" lon="-2.8413149"><ele>660.5</ele><time>2026-04-13T09:11:08.683Z</time></trkpt><trkpt lat="38.0550708" lon="-2.8412108"><ele>666.25</ele><time>2026-04-13T09:11:09.683Z</time></trkpt><trkpt lat="38.0551656" lon="-2.8411153"><ele>672.0</ele><time>2026-04-13T09:11:10.683Z</time></trkpt><trkpt lat="38.0552674" lon="-2.8410313"><ele>667.75</ele><time>2026-04-13T09:11:11.683Z</time></trkpt><trkpt lat="38.055369" lon="-2.8409486"><ele>663.5</ele><time>2026-04-13T09:11:12.683Z</time></trkpt><trkpt lat="38.0554705" lon="-2.8408635"><ele>659.25</ele><time>2026-04-13T09:11:13.683Z</time></trkpt><trkpt lat="38.0555637" lon="-2.840771"><ele>655.0</ele><time>2026-04-13T09:11:14.683Z</time></trkpt><trkpt lat="38.0556516" lon="-2.8406695"><ele>655.0</ele><time>2026-04-13T09:11:15.683Z</time></trkpt><trkpt lat="38.0557361" lon="-2.8405685"><ele>655.0</ele><time>2026-04-13T09:11:16.683Z</time></trkpt><trkpt lat="38.0558076" lon="-2.8404489"><ele>655.0</ele><time>2026-04-13T09:11:17.683Z</time></trkpt><trkpt lat="38.0558523" lon="-2.8403175"><ele>655.0</ele><time>2026-04-13T09:11:18.683Z</time></trkpt><trkpt lat="38.0558757" lon="-2.8401712"><ele>657.0</ele><time>2026-04-13T09:11:19.683Z</time></trkpt><trkpt lat="38.0558843" lon="-2.8400192"><ele>659.0</ele><time>2026-04-13T09:11:20.683Z</time></trkpt><trkpt lat="38.0558891" lon="-2.8398642"><ele>661.0</ele><time>2026-04-13T09:11:21.683Z</time></trkpt><trkpt lat="38.0558914" lon="-2.8397067"><ele>663.0</ele><time>2026-04-13T09:11:22.683Z</time></trkpt><trkpt lat="38.0558967" lon="-2.8395523"><ele>663.0</ele><time>2026-04-13T09:11:23.683Z</time></trkpt><trkpt lat="38.0558982" lon="-2.8393896"><ele>663.0</ele><time>2026-04-13T09:11:24.683Z</time></trkpt><trkpt lat="38.0559017" lon="-2.8392258"><ele>663.0</ele><time>2026-04-13T09:11:25.683Z</time></trkpt><trkpt lat="38.0559017" lon="-2.8390654"><ele>663.0</ele><time>2026-04-13T09:11:26.683Z</time></trkpt><trkpt lat="38.0559041" lon="-2.8389033"><ele>661.5</ele><time>2026-04-13T09:11:27.683Z</time></trkpt><trkpt lat="38.0559229" lon="-2.8387477"><ele>660.0</ele><time>2026-04-13T09:11:28.683Z</time></trkpt><trkpt lat="38.0559613" lon="-2.8385894"><ele>658.5</ele><time>2026-04-13T09:11:29.683Z</time></trkpt><trkpt lat="38.0559999" lon="-2.8384327"><ele>657.0</ele><time>2026-04-13T09:11:30.683Z</time></trkpt><trkpt lat="38.0560394" lon="-2.8382684"><ele>656.0</ele><time>2026-04-13T09:11:31.683Z</time></trkpt><trkpt lat="38.0561015" lon="-2.8381274"><ele>655.0</ele><time>2026-04-13T09:11:32.683Z</time></trkpt><trkpt lat="38.0561438" lon="-2.8379843"><ele>654.0</ele><time>2026-04-13T09:11:33.683Z</time></trkpt><trkpt lat="38.0561914" lon="-2.8378422"><ele>653.0</ele><time>2026-04-13T09:11:34.683Z</time></trkpt><trkpt lat="38.0562396" lon="-2.8377095"><ele>652.4</ele><time>2026-04-13T09:11:35.683Z</time></trkpt><trkpt lat="38.0562959" lon="-2.8375934"><ele>651.8</ele><time>2026-04-13T09:11:36.683Z</time></trkpt><trkpt lat="38.0563686" lon="-2.8374865"><ele>651.2</ele><time>2026-04-13T09:11:37.683Z</time></trkpt><trkpt lat="38.0564579" lon="-2.8373986"><ele>650.6</ele><time>2026-04-13T09:11:38.683Z</time></trkpt><trkpt lat="38.0565485" lon="-2.8373178"><ele>650.0</ele><time>2026-04-13T09:11:39.683Z</time></trkpt><trkpt lat="38.0566348" lon="-2.8372327"><ele>651.8</ele><time>2026-04-13T09:11:40.683Z</time></trkpt><trkpt lat="38.0567154" lon="-2.8371358"><ele>653.6</ele><time>2026-04-13T09:11:41.683Z</time></trkpt><trkpt lat="38.0567786" lon="-2.8370296"><ele>655.4000000000001</ele><time>2026-04-13T09:11:42.683Z</time></trkpt><trkpt lat="38.0568331" lon="-2.8369159"><ele>657.2</ele><time>2026-04-13T09:11:43.683Z</time></trkpt><trkpt lat="38.0568884" lon="-2.8368044"><ele>659.0</ele><time>2026-04-13T09:11:44.683Z</time></trkpt><trkpt lat="38.0569431" lon="-2.8366932"><ele>659.0</ele><time>2026-04-13T09:11:45.683Z</time></trkpt><trkpt lat="38.0569976" lon="-2.8365806"><ele>659.0</ele><time>2026-04-13T09:11:46.683Z</time></trkpt><trkpt lat="38.0570583" lon="-2.8364692"><ele>659.0</ele><time>2026-04-13T09:11:47.683Z</time></trkpt><trkpt lat="38.0571155" lon="-2.8363627"><ele>659.0</ele><time>2026-04-13T09:11:48.683Z</time></trkpt><trkpt lat="38.0571762" lon="-2.8362563"><ele>659.0</ele><time>2026-04-13T09:11:49.683Z</time></trkpt><trkpt lat="38.057246" lon="-2.8361584"><ele>659.0</ele><time>2026-04-13T09:11:50.683Z</time></trkpt><trkpt lat="38.0573185" lon="-2.8360639"><ele>659.0</ele><time>2026-04-13T09:11:51.683Z</time></trkpt><trkpt lat="38.0573993" lon="-2.8359737"><ele>659.0</ele><time>2026-04-13T09:11:52.683Z</time></trkpt><trkpt lat="38.0574792" lon="-2.8358793"><ele>659.0</ele><time>2026-04-13T09:11:53.683Z</time></trkpt><trkpt lat="38.0575621" lon="-2.8357927"><ele>659.0</ele><time>2026-04-13T09:11:54.683Z</time></trkpt><trkpt lat="38.0576473" lon="-2.8357073"><ele>660.5</ele><time>2026-04-13T09:11:55.683Z</time></trkpt><trkpt lat="38.057733" lon="-2.8356165"><ele>662.0</ele><time>2026-04-13T09:11:56.683Z</time></trkpt><trkpt lat="38.057824" lon="-2.835522"><ele>663.5</ele><time>2026-04-13T09:11:57.683Z</time></trkpt><trkpt lat="38.0579115" lon="-2.8354257"><ele>665.0</ele><time>2026-04-13T09:11:58.683Z</time></trkpt><trkpt lat="38.0580055" lon="-2.835332"><ele>665.0</ele><time>2026-04-13T09:11:59.683Z</time></trkpt><trkpt lat="38.058098" lon="-2.8352292"><ele>665.0</ele><time>2026-04-13T09:12:00.683Z</time></trkpt><trkpt lat="38.0581903" lon="-2.8351228"><ele>665.0</ele><time>2026-04-13T09:12:01.683Z</time></trkpt><trkpt lat="38.0582798" lon="-2.8350165"><ele>665.0</ele><time>2026-04-13T09:12:02.683Z</time></trkpt><trkpt lat="38.0583665" lon="-2.8349009"><ele>665.25</ele><time>2026-04-13T09:12:03.683Z</time></trkpt><trkpt lat="38.0584378" lon="-2.8347738"><ele>665.5</ele><time>2026-04-13T09:12:04.683Z</time></trkpt><trkpt lat="38.0584873" lon="-2.8346334"><ele>665.75</ele><time>2026-04-13T09:12:05.683Z</time></trkpt><trkpt lat="38.0585179" lon="-2.8344896"><ele>666.0</ele><time>2026-04-13T09:12:06.684Z</time></trkpt><trkpt lat="38.0585377" lon="-2.8343586"><ele>662.8</ele><time>2026-04-13T09:12:07.683Z</time></trkpt><trkpt lat="38.0585714" lon="-2.8342402"><ele>659.5999999999999</ele><time>2026-04-13T09:12:08.683Z</time></trkpt><trkpt lat="38.0586261" lon="-2.8341337"><ele>656.4</ele><time>2026-04-13T09:12:09.683Z</time></trkpt><trkpt lat="38.0587024" lon="-2.8340423"><ele>653.2</ele><time>2026-04-13T09:12:10.683Z</time></trkpt><trkpt lat="38.0587943" lon="-2.8339634"><ele>650.0</ele><time>2026-04-13T09:12:11.683Z</time></trkpt><trkpt lat="38.0588951" lon="-2.8338938"><ele>650.0</ele><time>2026-04-13T09:12:12.683Z</time></trkpt><trkpt lat="38.0589991" lon="-2.8338319"><ele>650.0</ele><time>2026-04-13T09:12:13.683Z</time></trkpt><trkpt lat="38.0591077" lon="-2.8337686"><ele>650.0</ele><time>2026-04-13T09:12:14.683Z</time></trkpt><trkpt lat="38.0592179" lon="-2.8337"><ele>650.0</ele><time>2026-04-13T09:12:15.683Z</time></trkpt><trkpt lat="38.0593199" lon="-2.8336144"><ele>652.5</ele><time>2026-04-13T09:12:16.683Z</time></trkpt><trkpt lat="38.0594098" lon="-2.8335057"><ele>655.0</ele><time>2026-04-13T09:12:17.683Z</time></trkpt><trkpt lat="38.0594833" lon="-2.8333826"><ele>657.5</ele><time>2026-04-13T09:12:18.683Z</time></trkpt><trkpt lat="38.0595502" lon="-2.8332563"><ele>660.0</ele><time>2026-04-13T09:12:19.683Z</time></trkpt><trkpt lat="38.0596139" lon="-2.8331279"><ele>660.0</ele><time>2026-04-13T09:12:20.683Z</time></trkpt><trkpt lat="38.0596903" lon="-2.8330062"><ele>660.0</ele><time>2026-04-13T09:12:21.683Z</time></trkpt><trkpt lat="38.0597707" lon="-2.8328851"><ele>660.0</ele><time>2026-04-13T09:12:22.683Z</time></trkpt><trkpt lat="38.0598569" lon="-2.8327716"><ele>660.0</ele><time>2026-04-13T09:12:23.684Z</time></trkpt><trkpt lat="38.0599417" lon="-2.8326544"><ele>661.25</ele><time>2026-04-13T09:12:24.683Z</time></trkpt><trkpt lat="38.060024" lon="-2.8325319"><ele>662.5</ele><time>2026-04-13T09:12:25.683Z</time></trkpt><trkpt lat="38.0601045" lon="-2.8324115"><ele>663.75</ele><time>2026-04-13T09:12:26.683Z</time></trkpt><trkpt lat="38.0601865" lon="-2.8322952"><ele>665.0</ele><time>2026-04-13T09:12:27.683Z</time></trkpt><trkpt lat="38.0602664" lon="-2.832176"><ele>665.0</ele><time>2026-04-13T09:12:28.683Z</time></trkpt><trkpt lat="38.0603443" lon="-2.8320602"><ele>665.0</ele><time>2026-04-13T09:12:29.683Z</time></trkpt><trkpt lat="38.0604325" lon="-2.8319559"><ele>665.0</ele><time>2026-04-13T09:12:30.683Z</time></trkpt><trkpt lat="38.0605308" lon="-2.8318711"><ele>665.0</ele><time>2026-04-13T09:12:31.683Z</time></trkpt><trkpt lat="38.0606436" lon="-2.831801"><ele>664.75</ele><time>2026-04-13T09:12:32.683Z</time></trkpt><trkpt lat="38.0607591" lon="-2.8317388"><ele>664.5</ele><time>2026-04-13T09:12:33.683Z</time></trkpt><trkpt lat="38.0608747" lon="-2.8316742"><ele>664.25</ele><time>2026-04-13T09:12:34.683Z</time></trkpt><trkpt lat="38.0609886" lon="-2.8316043"><ele>664.0</ele><time>2026-04-13T09:12:35.684Z</time></trkpt><trkpt lat="38.0610979" lon="-2.831528"><ele>664.0</ele><time>2026-04-13T09:12:36.683Z</time></trkpt><trkpt lat="38.0612089" lon="-2.8314468"><ele>664.0</ele><time>2026-04-13T09:12:37.683Z</time></trkpt><trkpt lat="38.0613221" lon="-2.8313676"><ele>664.0</ele><time>2026-04-13T09:12:38.683Z</time></trkpt><trkpt lat="38.0614354" lon="-2.8312893"><ele>664.0</ele><time>2026-04-13T09:12:39.683Z</time></trkpt><trkpt lat="38.0615434" lon="-2.8312023"><ele>663.25</ele><time>2026-04-13T09:12:40.683Z</time></trkpt><trkpt lat="38.0616501" lon="-2.8311235"><ele>662.5</ele><time>2026-04-13T09:12:41.684Z</time></trkpt><trkpt lat="38.0617558" lon="-2.831044"><ele>661.75</ele><time>2026-04-13T09:12:42.683Z</time></trkpt><trkpt lat="38.0618612" lon="-2.8309664"><ele>661.0</ele><time>2026-04-13T09:12:43.683Z</time></trkpt><trkpt lat="38.0619748" lon="-2.8309083"><ele>661.0</ele><time>2026-04-13T09:12:44.683Z</time></trkpt><trkpt lat="38.0620918" lon="-2.830869"><ele>661.0</ele><time>2026-04-13T09:12:45.683Z</time></trkpt><trkpt lat="38.0622091" lon="-2.8308289"><ele>661.0</ele><time>2026-04-13T09:12:46.683Z</time></trkpt><trkpt lat="38.0623212" lon="-2.8307676"><ele>661.0</ele><time>2026-04-13T09:12:47.683Z</time></trkpt><trkpt lat="38.0624261" lon="-2.8306899"><ele>666.75</ele><time>2026-04-13T09:12:48.683Z</time></trkpt><trkpt lat="38.0625387" lon="-2.8306256"><ele>672.5</ele><time>2026-04-13T09:12:49.683Z</time></trkpt><trkpt lat="38.0626568" lon="-2.8305757"><ele>678.25</ele><time>2026-04-13T09:12:50.683Z</time></trkpt><trkpt lat="38.0627816" lon="-2.8305359"><ele>684.0</ele><time>2026-04-13T09:12:51.683Z</time></trkpt><trkpt lat="38.06291" lon="-2.8305024"><ele>684.0</ele><time>2026-04-13T09:12:52.683Z</time></trkpt><trkpt lat="38.063034" lon="-2.8304674"><ele>684.0</ele><time>2026-04-13T09:12:53.683Z</time></trkpt><trkpt lat="38.0631666" lon="-2.8304453"><ele>684.0</ele><time>2026-04-13T09:12:54.684Z</time></trkpt><trkpt lat="38.0632903" lon="-2.830425"><ele>684.0</ele><time>2026-04-13T09:12:55.683Z</time></trkpt><trkpt lat="38.0634155" lon="-2.830401"><ele>688.75</ele><time>2026-04-13T09:12:56.683Z</time></trkpt><trkpt lat="38.063534" lon="-2.8303694"><ele>693.5</ele><time>2026-04-13T09:12:57.683Z</time></trkpt><trkpt lat="38.0636433" lon="-2.8303133"><ele>698.25</ele><time>2026-04-13T09:12:58.683Z</time></trkpt><trkpt lat="38.0637415" lon="-2.8302318"><ele>703.0</ele><time>2026-04-13T09:12:59.683Z</time></trkpt><trkpt lat="38.0638418" lon="-2.8301506"><ele>699.25</ele><time>2026-04-13T09:13:00.683Z</time></trkpt><trkpt lat="38.063924" lon="-2.8300213"><ele>695.5</ele><time>2026-04-13T09:13:01.683Z</time></trkpt><trkpt lat="38.0640204" lon="-2.829898"><ele>691.75</ele><time>2026-04-13T09:13:02.683Z</time></trkpt><trkpt lat="38.0641164" lon="-2.8297782"><ele>688.0</ele><time>2026-04-13T09:13:03.683Z</time></trkpt><trkpt lat="38.0642185" lon="-2.8296676"><ele>688.0</ele><time>2026-04-13T09:13:04.683Z</time></trkpt><trkpt lat="38.0643398" lon="-2.8295739"><ele>688.0</ele><time>2026-04-13T09:13:05.683Z</time></trkpt><trkpt lat="38.0644605" lon="-2.8295057"><ele>688.0</ele><time>2026-04-13T09:13:06.683Z</time></trkpt><trkpt lat="38.0645708" lon="-2.829443"><ele>688.0</ele><time>2026-04-13T09:13:07.683Z</time></trkpt><trkpt lat="38.0646746" lon="-2.8293858"><ele>688.0</ele><time>2026-04-13T09:13:08.683Z</time></trkpt><trkpt lat="38.0647688" lon="-2.8293285"><ele>688.0</ele><time>2026-04-13T09:13:09.683Z</time></trkpt><trkpt lat="38.0648569" lon="-2.829254"><ele>688.0</ele><time>2026-04-13T09:13:10.683Z</time></trkpt><trkpt lat="38.0649375" lon="-2.8291642"><ele>688.0</ele><time>2026-04-13T09:13:11.683Z</time></trkpt><trkpt lat="38.0650187" lon="-2.8290659"><ele>688.0</ele><time>2026-04-13T09:13:12.683Z</time></trkpt><trkpt lat="38.0650923" lon="-2.82896"><ele>686.5999999999999</ele><time>2026-04-13T09:13:13.683Z</time></trkpt><trkpt lat="38.0651625" lon="-2.8288496"><ele>685.1999999999999</ele><time>2026-04-13T09:13:14.683Z</time></trkpt><trkpt lat="38.0652286" lon="-2.8287391"><ele>683.8</ele><time>2026-04-13T09:13:15.683Z</time></trkpt><trkpt lat="38.0652862" lon="-2.828625"><ele>682.4</ele><time>2026-04-13T09:13:16.683Z</time></trkpt><trkpt lat="38.065341" lon="-2.828517"><ele>681.0</ele><time>2026-04-13T09:13:17.683Z</time></trkpt><trkpt lat="38.0654148" lon="-2.8284222"><ele>681.4</ele><time>2026-04-13T09:13:18.683Z</time></trkpt><trkpt lat="38.0655017" lon="-2.8283519"><ele>681.8</ele><time>2026-04-13T09:13:19.683Z</time></trkpt><trkpt lat="38.0655955" lon="-2.8282936"><ele>682.1999999999999</ele><time>2026-04-13T09:13:20.683Z</time></trkpt><trkpt lat="38.0656923" lon="-2.8282418"><ele>682.5999999999999</ele><time>2026-04-13T09:13:21.684Z</time></trkpt><trkpt lat="38.0657893" lon="-2.828188"><ele>683.0</ele><time>2026-04-13T09:13:22.683Z</time></trkpt><trkpt lat="38.0658832" lon="-2.8281287"><ele>683.0</ele><time>2026-04-13T09:13:23.683Z</time></trkpt><trkpt lat="38.065978" lon="-2.8280643"><ele>683.0</ele><time>2026-04-13T09:13:24.683Z</time></trkpt><trkpt lat="38.0660814" lon="-2.8280161"><ele>683.0</ele><time>2026-04-13T09:13:25.683Z</time></trkpt><trkpt lat="38.0661955" lon="-2.8279885"><ele>683.0</ele><time>2026-04-13T09:13:26.683Z</time></trkpt><trkpt lat="38.0663103" lon="-2.8279688"><ele>683.0</ele><time>2026-04-13T09:13:27.683Z</time></trkpt><trkpt lat="38.0664262" lon="-2.8279582"><ele>683.0</ele><time>2026-04-13T09:13:28.683Z</time></trkpt><trkpt lat="38.0665399" lon="-2.8279571"><ele>683.0</ele><time>2026-04-13T09:13:29.683Z</time></trkpt><trkpt lat="38.0666533" lon="-2.8279587"><ele>683.0</ele><time>2026-04-13T09:13:30.683Z</time></trkpt><trkpt lat="38.0667711" lon="-2.8279658"><ele>685.0</ele><time>2026-04-13T09:13:31.683Z</time></trkpt><trkpt lat="38.0668756" lon="-2.8279682"><ele>687.0</ele><time>2026-04-13T09:13:32.683Z</time></trkpt><trkpt lat="38.0669726" lon="-2.827979"><ele>689.0</ele><time>2026-04-13T09:13:33.683Z</time></trkpt><trkpt lat="38.0670621" lon="-2.8280112"><ele>691.0</ele><time>2026-04-13T09:13:34.683Z</time></trkpt><trkpt lat="38.0671497" lon="-2.8280547"><ele>693.0</ele><time>2026-04-13T09:13:35.684Z</time></trkpt><trkpt lat="38.0672356" lon="-2.8281028"><ele>693.0</ele><time>2026-04-13T09:13:36.683Z</time></trkpt><trkpt lat="38.0673244" lon="-2.8281389"><ele>693.0</ele><time>2026-04-13T09:13:37.683Z</time></trkpt><trkpt lat="38.0674068" lon="-2.828153"><ele>693.0</ele><time>2026-04-13T09:13:38.683Z</time></trkpt><trkpt lat="38.0674909" lon="-2.8281374"><ele>693.0</ele><time>2026-04-13T09:13:39.683Z</time></trkpt><trkpt lat="38.0675783" lon="-2.8280965"><ele>693.0</ele><time>2026-04-13T09:13:40.683Z</time></trkpt><trkpt lat="38.0676493" lon="-2.8280264"><ele>693.0</ele><time>2026-04-13T09:13:41.683Z</time></trkpt><trkpt lat="38.067708" lon="-2.8279301"><ele>692.0</ele><time>2026-04-13T09:13:42.683Z</time></trkpt><trkpt lat="38.0677436" lon="-2.8278162"><ele>691.0</ele><time>2026-04-13T09:13:43.683Z</time></trkpt><trkpt lat="38.0677684" lon="-2.8276976"><ele>690.0</ele><time>2026-04-13T09:13:44.683Z</time></trkpt><trkpt lat="38.0677662" lon="-2.8275772"><ele>689.0</ele><time>2026-04-13T09:13:45.683Z</time></trkpt><trkpt lat="38.0677527" lon="-2.8274551"><ele>688.0</ele><time>2026-04-13T09:13:46.683Z</time></trkpt><trkpt lat="38.0677396" lon="-2.8273359"><ele>684.2</ele><time>2026-04-13T09:13:47.683Z</time></trkpt><trkpt lat="38.0677212" lon="-2.8272111"><ele>680.4</ele><time>2026-04-13T09:13:48.683Z</time></trkpt><trkpt lat="38.067707" lon="-2.8270846"><ele>676.6</ele><time>2026-04-13T09:13:49.683Z</time></trkpt><trkpt lat="38.067689" lon="-2.8269577"><ele>672.8000000000001</ele><time>2026-04-13T09:13:50.683Z</time></trkpt><trkpt lat="38.0676746" lon="-2.8268305"><ele>669.0</ele><time>2026-04-13T09:13:51.683Z</time></trkpt><trkpt lat="38.0676597" lon="-2.8267059"><ele>668.8000000000001</ele><time>2026-04-13T09:13:52.683Z</time></trkpt><trkpt lat="38.0676593" lon="-2.826582"><ele>668.6</ele><time>2026-04-13T09:13:53.683Z</time></trkpt><trkpt lat="38.0676773" lon="-2.8264571"><ele>668.4</ele><time>2026-04-13T09:13:54.683Z</time></trkpt><trkpt lat="38.0677211" lon="-2.826343"><ele>668.2</ele><time>2026-04-13T09:13:55.683Z</time></trkpt><trkpt lat="38.0677813" lon="-2.8262385"><ele>668.0</ele><time>2026-04-13T09:13:56.683Z</time></trkpt><trkpt lat="38.0678443" lon="-2.8261332"><ele>668.0</ele><time>2026-04-13T09:13:57.683Z</time></trkpt><trkpt lat="38.0679061" lon="-2.8260211"><ele>668.0</ele><time>2026-04-13T09:13:58.683Z</time></trkpt><trkpt lat="38.0679733" lon="-2.8259117"><ele>668.0</ele><time>2026-04-13T09:13:59.683Z</time></trkpt><trkpt lat="38.0680487" lon="-2.825808"><ele>668.0</ele><time>2026-04-13T09:14:00.683Z</time></trkpt><trkpt lat="38.0681316" lon="-2.8257168"><ele>668.0</ele><time>2026-04-13T09:14:01.683Z</time></trkpt><trkpt lat="38.0682201" lon="-2.8256312"><ele>672.0</ele><time>2026-04-13T09:14:02.683Z</time></trkpt><trkpt lat="38.0683057" lon="-2.8255508"><ele>676.0</ele><time>2026-04-13T09:14:03.683Z</time></trkpt><trkpt lat="38.0683873" lon="-2.8254724"><ele>680.0</ele><time>2026-04-13T09:14:04.683Z</time></trkpt><trkpt lat="38.0684652" lon="-2.8253887"><ele>684.0</ele><time>2026-04-13T09:14:05.683Z</time></trkpt><trkpt lat="38.0685391" lon="-2.8253028"><ele>688.0</ele><time>2026-04-13T09:14:06.683Z</time></trkpt><trkpt lat="38.0686099" lon="-2.8252114"><ele>682.8</ele><time>2026-04-13T09:14:07.683Z</time></trkpt><trkpt lat="38.0686747" lon="-2.8251096"><ele>677.5999999999999</ele><time>2026-04-13T09:14:08.683Z</time></trkpt><trkpt lat="38.068735" lon="-2.8250132"><ele>672.4000000000001</ele><time>2026-04-13T09:14:09.683Z</time></trkpt><trkpt lat="38.0688056" lon="-2.824924"><ele>667.2</ele><time>2026-04-13T09:14:10.683Z</time></trkpt><trkpt lat="38.068887" lon="-2.824849"><ele>662.0</ele><time>2026-04-13T09:14:11.683Z</time></trkpt><trkpt lat="38.0689708" lon="-2.8247845"><ele>662.0</ele><time>2026-04-13T09:14:12.683Z</time></trkpt><trkpt lat="38.0690543" lon="-2.8247166"><ele>662.0</ele><time>2026-04-13T09:14:13.683Z</time></trkpt><trkpt lat="38.06912" lon="-2.8246321"><ele>662.0</ele><time>2026-04-13T09:14:14.683Z</time></trkpt><trkpt lat="38.0691754" lon="-2.82453"><ele>662.0</ele><time>2026-04-13T09:14:15.683Z</time></trkpt><trkpt lat="38.0692093" lon="-2.8244312"><ele>662.0</ele><time>2026-04-13T09:14:16.683Z</time></trkpt><trkpt lat="38.0692247" lon="-2.8243401"><ele>662.0</ele><time>2026-04-13T09:14:17.683Z</time></trkpt><trkpt lat="38.0692544" lon="-2.8241997"><ele>664.0</ele><time>2026-04-13T09:14:19.683Z</time></trkpt><trkpt lat="38.0692867" lon="-2.8241143"><ele>666.0</ele><time>2026-04-13T09:14:21.683Z</time></trkpt><trkpt lat="38.0693416" lon="-2.8240113"><ele>668.0</ele><time>2026-04-13T09:14:24.683Z</time></trkpt><trkpt lat="38.0693914" lon="-2.8238865"><ele>670.0</ele><time>2026-04-13T09:14:26.683Z</time></trkpt><trkpt lat="38.0694248" lon="-2.8238144"><ele>672.0</ele><time>2026-04-13T09:14:27.683Z</time></trkpt><trkpt lat="38.0694582" lon="-2.8237342"><ele>674.0</ele><time>2026-04-13T09:14:28.683Z</time></trkpt><trkpt lat="38.0694901" lon="-2.8236624"><ele>674.0</ele><time>2026-04-13T09:14:29.683Z</time></trkpt><trkpt lat="38.0695235" lon="-2.8235817"><ele>674.0</ele><time>2026-04-13T09:14:30.683Z</time></trkpt><trkpt lat="38.069563" lon="-2.8235019"><ele>674.0</ele><time>2026-04-13T09:14:31.683Z</time></trkpt><trkpt lat="38.0696005" lon="-2.8234187"><ele>674.0</ele><time>2026-04-13T09:14:32.683Z</time></trkpt><trkpt lat="38.0696388" lon="-2.8233306"><ele>674.0</ele><time>2026-04-13T09:14:33.683Z</time></trkpt><trkpt lat="38.0696815" lon="-2.823237"><ele>674.0</ele><time>2026-04-13T09:14:34.683Z</time></trkpt><trkpt lat="38.0697225" lon="-2.8231454"><ele>672.1666666666666</ele><time>2026-04-13T09:14:35.683Z</time></trkpt><trkpt lat="38.0697644" lon="-2.8230561"><ele>670.3333333333333</ele><time>2026-04-13T09:14:36.683Z</time></trkpt><trkpt lat="38.0698138" lon="-2.8229638"><ele>668.5</ele><time>2026-04-13T09:14:37.683Z</time></trkpt><trkpt lat="38.0698715" lon="-2.8228936"><ele>666.6666666666666</ele><time>2026-04-13T09:14:38.683Z</time></trkpt><trkpt lat="38.0699384" lon="-2.8228269"><ele>664.8333333333334</ele><time>2026-04-13T09:14:39.683Z</time></trkpt><trkpt lat="38.0700084" lon="-2.8227599"><ele>663.0</ele><time>2026-04-13T09:14:40.683Z</time></trkpt><trkpt lat="38.0700853" lon="-2.8226923"><ele>665.8</ele><time>2026-04-13T09:14:41.683Z</time></trkpt><trkpt lat="38.0701629" lon="-2.8226223"><ele>668.5999999999999</ele><time>2026-04-13T09:14:42.683Z</time></trkpt><trkpt lat="38.0702431" lon="-2.8225522"><ele>671.4000000000001</ele><time>2026-04-13T09:14:43.683Z</time></trkpt><trkpt lat="38.0703273" lon="-2.822481"><ele>674.2</ele><time>2026-04-13T09:14:44.683Z</time></trkpt><trkpt lat="38.0704089" lon="-2.8224114"><ele>677.0</ele><time>2026-04-13T09:14:45.683Z</time></trkpt><trkpt lat="38.0704915" lon="-2.8223375"><ele>677.0</ele><time>2026-04-13T09:14:46.683Z</time></trkpt><trkpt lat="38.070571" lon="-2.8222575"><ele>677.0</ele><time>2026-04-13T09:14:47.683Z</time></trkpt><trkpt lat="38.0706473" lon="-2.8221742"><ele>677.0</ele><time>2026-04-13T09:14:48.683Z</time></trkpt><trkpt lat="38.0706959" lon="-2.8220873"><ele>677.0</ele><time>2026-04-13T09:14:49.683Z</time></trkpt><trkpt lat="38.0707394" lon="-2.8219661"><ele>677.0</ele><time>2026-04-13T09:14:50.683Z</time></trkpt><trkpt lat="38.0707776" lon="-2.8218504"><ele>679.0</ele><time>2026-04-13T09:14:51.683Z</time></trkpt><trkpt lat="38.0708257" lon="-2.8217429"><ele>681.0</ele><time>2026-04-13T09:14:52.683Z</time></trkpt><trkpt lat="38.0708925" lon="-2.8216477"><ele>683.0</ele><time>2026-04-13T09:14:53.683Z</time></trkpt><trkpt lat="38.0709745" lon="-2.8215687"><ele>685.0</ele><time>2026-04-13T09:14:54.683Z</time></trkpt><trkpt lat="38.0710636" lon="-2.821515"><ele>687.0</ele><time>2026-04-13T09:14:55.683Z</time></trkpt><trkpt lat="38.0711666" lon="-2.8214837"><ele>687.0</ele><time>2026-04-13T09:14:56.683Z</time></trkpt><trkpt lat="38.0712646" lon="-2.8214778"><ele>687.0</ele><time>2026-04-13T09:14:57.684Z</time></trkpt><trkpt lat="38.0713735" lon="-2.8214792"><ele>687.0</ele><time>2026-04-13T09:14:58.683Z</time></trkpt><trkpt lat="38.071484" lon="-2.8214781"><ele>687.0</ele><time>2026-04-13T09:14:59.683Z</time></trkpt><trkpt lat="38.0715947" lon="-2.8214817"><ele>687.0</ele><time>2026-04-13T09:15:00.683Z</time></trkpt><trkpt lat="38.0717017" lon="-2.8214813"><ele>689.8</ele><time>2026-04-13T09:15:01.683Z</time></trkpt><trkpt lat="38.0718106" lon="-2.8214902"><ele>692.6</ele><time>2026-04-13T09:15:02.683Z</time></trkpt><trkpt lat="38.0719133" lon="-2.8215079"><ele>695.4</ele><time>2026-04-13T09:15:03.684Z</time></trkpt><trkpt lat="38.0720133" lon="-2.8215401"><ele>698.1999999999999</ele><time>2026-04-13T09:15:04.683Z</time></trkpt><trkpt lat="38.0721139" lon="-2.8215756"><ele>701.0</ele><time>2026-04-13T09:15:05.683Z</time></trkpt><trkpt lat="38.072215" lon="-2.8216024"><ele>701.0</ele><time>2026-04-13T09:15:06.683Z</time></trkpt><trkpt lat="38.0723171" lon="-2.8216026"><ele>701.0</ele><time>2026-04-13T09:15:07.683Z</time></trkpt><trkpt lat="38.0724209" lon="-2.821586"><ele>701.0</ele><time>2026-04-13T09:15:08.683Z</time></trkpt><trkpt lat="38.0725217" lon="-2.8215448"><ele>701.0</ele><time>2026-04-13T09:15:09.683Z</time></trkpt><trkpt lat="38.0726127" lon="-2.8214772"><ele>701.0</ele><time>2026-04-13T09:15:10.683Z</time></trkpt><trkpt lat="38.0726874" lon="-2.8213889"><ele>702.4</ele><time>2026-04-13T09:15:11.683Z</time></trkpt><trkpt lat="38.0727597" lon="-2.8212942"><ele>703.8</ele><time>2026-04-13T09:15:12.683Z</time></trkpt><trkpt lat="38.0728427" lon="-2.8212213"><ele>705.1999999999999</ele><time>2026-04-13T09:15:13.683Z</time></trkpt><trkpt lat="38.0729399" lon="-2.8211818"><ele>706.5999999999999</ele><time>2026-04-13T09:15:14.683Z</time></trkpt><trkpt lat="38.0730432" lon="-2.8211832"><ele>708.0</ele><time>2026-04-13T09:15:15.683Z</time></trkpt><trkpt lat="38.0731454" lon="-2.8212138"><ele>708.0</ele><time>2026-04-13T09:15:16.683Z</time></trkpt><trkpt lat="38.0732479" lon="-2.8212603"><ele>708.0</ele><time>2026-04-13T09:15:17.683Z</time></trkpt><trkpt lat="38.0733547" lon="-2.8213081"><ele>708.0</ele><time>2026-04-13T09:15:18.683Z</time></trkpt><trkpt lat="38.0734615" lon="-2.8213589"><ele>708.0</ele><time>2026-04-13T09:15:19.683Z</time></trkpt><trkpt lat="38.0735679" lon="-2.8214119"><ele>709.5</ele><time>2026-04-13T09:15:20.683Z</time></trkpt><trkpt lat="38.0736789" lon="-2.8214625"><ele>711.0</ele><time>2026-04-13T09:15:21.683Z</time></trkpt><trkpt lat="38.073787" lon="-2.8215139"><ele>712.5</ele><time>2026-04-13T09:15:22.683Z</time></trkpt><trkpt lat="38.0738919" lon="-2.8215739"><ele>714.0</ele><time>2026-04-13T09:15:23.683Z</time></trkpt><trkpt lat="38.073992" lon="-2.8216497"><ele>714.0</ele><time>2026-04-13T09:15:24.683Z</time></trkpt><trkpt lat="38.0740835" lon="-2.8217387"><ele>714.0</ele><time>2026-04-13T09:15:25.683Z</time></trkpt><trkpt lat="38.0741712" lon="-2.8218263"><ele>714.0</ele><time>2026-04-13T09:15:26.683Z</time></trkpt><trkpt lat="38.07426" lon="-2.8219127"><ele>714.0</ele><time>2026-04-13T09:15:27.683Z</time></trkpt><trkpt lat="38.0743544" lon="-2.8219984"><ele>716.0</ele><time>2026-04-13T09:15:28.683Z</time></trkpt><trkpt lat="38.0744515" lon="-2.8220851"><ele>718.0</ele><time>2026-04-13T09:15:29.683Z</time></trkpt><trkpt lat="38.0745539" lon="-2.822168"><ele>720.0</ele><time>2026-04-13T09:15:30.683Z</time></trkpt><trkpt lat="38.0746572" lon="-2.8222478"><ele>722.0</ele><time>2026-04-13T09:15:31.683Z</time></trkpt><trkpt lat="38.0747677" lon="-2.8223204"><ele>722.0</ele><time>2026-04-13T09:15:32.684Z</time></trkpt><trkpt lat="38.0748807" lon="-2.8223774"><ele>722.0</ele><time>2026-04-13T09:15:33.683Z</time></trkpt><trkpt lat="38.0750017" lon="-2.8224104"><ele>722.0</ele><time>2026-04-13T09:15:34.683Z</time></trkpt><trkpt lat="38.0751302" lon="-2.8224116"><ele>722.0</ele><time>2026-04-13T09:15:35.683Z</time></trkpt><trkpt lat="38.0752567" lon="-2.8223986"><ele>719.25</ele><time>2026-04-13T09:15:36.683Z</time></trkpt><trkpt lat="38.0753841" lon="-2.822383"><ele>716.5</ele><time>2026-04-13T09:15:37.683Z</time></trkpt><trkpt lat="38.0755131" lon="-2.822382"><ele>713.75</ele><time>2026-04-13T09:15:38.683Z</time></trkpt><trkpt lat="38.07564" lon="-2.8224134"><ele>711.0</ele><time>2026-04-13T09:15:39.683Z</time></trkpt><trkpt lat="38.075756" lon="-2.822479"><ele>708.5999999999999</ele><time>2026-04-13T09:15:40.683Z</time></trkpt><trkpt lat="38.0758549" lon="-2.8225441"><ele>706.2</ele><time>2026-04-13T09:15:41.683Z</time></trkpt><trkpt lat="38.0759578" lon="-2.8226054"><ele>703.8</ele><time>2026-04-13T09:15:42.683Z</time></trkpt><trkpt lat="38.0760678" lon="-2.8226464"><ele>701.4000000000001</ele><time>2026-04-13T09:15:43.683Z</time></trkpt><trkpt lat="38.0761751" lon="-2.8226578"><ele>699.0</ele><time>2026-04-13T09:15:44.683Z</time></trkpt><trkpt lat="38.0762754" lon="-2.8226864"><ele>701.2</ele><time>2026-04-13T09:15:45.683Z</time></trkpt><trkpt lat="38.0763819" lon="-2.8227358"><ele>703.4000000000001</ele><time>2026-04-13T09:15:46.683Z</time></trkpt><trkpt lat="38.0764868" lon="-2.8227917"><ele>705.6</ele><time>2026-04-13T09:15:47.683Z</time></trkpt><trkpt lat="38.0765856" lon="-2.8228433"><ele>707.8</ele><time>2026-04-13T09:15:48.683Z</time></trkpt><trkpt lat="38.076679" lon="-2.822883"><ele>710.0</ele><time>2026-04-13T09:15:49.683Z</time></trkpt><trkpt lat="38.0767742" lon="-2.8229008"><ele>710.0</ele><time>2026-04-13T09:15:50.683Z</time></trkpt><trkpt lat="38.0768631" lon="-2.8228931"><ele>710.0</ele><time>2026-04-13T09:15:51.683Z</time></trkpt><trkpt lat="38.0769424" lon="-2.8228619"><ele>710.0</ele><time>2026-04-13T09:15:52.683Z</time></trkpt><trkpt lat="38.0770106" lon="-2.8227974"><ele>710.0</ele><time>2026-04-13T09:15:53.683Z</time></trkpt><trkpt lat="38.0770675" lon="-2.8227098"><ele>710.0</ele><time>2026-04-13T09:15:54.683Z</time></trkpt><trkpt lat="38.0771048" lon="-2.822606"><ele>710.0</ele><time>2026-04-13T09:15:55.683Z</time></trkpt><trkpt lat="38.0771463" lon="-2.8224785"><ele>706.2</ele><time>2026-04-13T09:15:56.683Z</time></trkpt><trkpt lat="38.0771205" lon="-2.8223583"><ele>702.4</ele><time>2026-04-13T09:15:57.683Z</time></trkpt><trkpt lat="38.0771199" lon="-2.8222317"><ele>698.5999999999999</ele><time>2026-04-13T09:15:58.683Z</time></trkpt><trkpt lat="38.077131" lon="-2.8221022"><ele>694.8</ele><time>2026-04-13T09:15:59.683Z</time></trkpt><trkpt lat="38.0771533" lon="-2.8219717"><ele>691.0</ele><time>2026-04-13T09:16:00.683Z</time></trkpt><trkpt lat="38.0772032" lon="-2.821846"><ele>691.4</ele><time>2026-04-13T09:16:01.683Z</time></trkpt><trkpt lat="38.0772706" lon="-2.8217427"><ele>691.8</ele><time>2026-04-13T09:16:02.683Z</time></trkpt><trkpt lat="38.0773542" lon="-2.8216596"><ele>692.1999999999999</ele><time>2026-04-13T09:16:03.683Z</time></trkpt><trkpt lat="38.077454" lon="-2.8216011"><ele>692.5999999999999</ele><time>2026-04-13T09:16:04.683Z</time></trkpt><trkpt lat="38.0775513" lon="-2.8215556"><ele>693.0</ele><time>2026-04-13T09:16:05.683Z</time></trkpt><trkpt lat="38.0776366" lon="-2.8214996"><ele>693.0</ele><time>2026-04-13T09:16:06.683Z</time></trkpt><trkpt lat="38.077707" lon="-2.8214143"><ele>693.0</ele><time>2026-04-13T09:16:07.683Z</time></trkpt><trkpt lat="38.077768" lon="-2.8213118"><ele>693.0</ele><time>2026-04-13T09:16:08.683Z</time></trkpt><trkpt lat="38.0778189" lon="-2.8212003"><ele>693.0</ele><time>2026-04-13T09:16:09.683Z</time></trkpt><trkpt lat="38.0778671" lon="-2.8210902"><ele>693.0</ele><time>2026-04-13T09:16:10.683Z</time></trkpt><trkpt lat="38.0779272" lon="-2.8209826"><ele>694.4</ele><time>2026-04-13T09:16:11.683Z</time></trkpt><trkpt lat="38.0780064" lon="-2.8208911"><ele>695.8</ele><time>2026-04-13T09:16:12.683Z</time></trkpt><trkpt lat="38.0780948" lon="-2.8208087"><ele>697.2</ele><time>2026-04-13T09:16:13.683Z</time></trkpt><trkpt lat="38.0781753" lon="-2.820717"><ele>698.6</ele><time>2026-04-13T09:16:14.683Z</time></trkpt><trkpt lat="38.0782529" lon="-2.8206229"><ele>700.0</ele><time>2026-04-13T09:16:15.683Z</time></trkpt><trkpt lat="38.0783323" lon="-2.8205256"><ele>700.0</ele><time>2026-04-13T09:16:16.683Z</time></trkpt><trkpt lat="38.0784129" lon="-2.8204187"><ele>700.0</ele><time>2026-04-13T09:16:17.683Z</time></trkpt><trkpt lat="38.078505" lon="-2.8202932"><ele>700.0</ele><time>2026-04-13T09:16:18.683Z</time></trkpt><trkpt lat="38.0785353" lon="-2.8201791"><ele>700.0</ele><time>2026-04-13T09:16:19.683Z</time></trkpt><trkpt lat="38.0785809" lon="-2.8200627"><ele>700.0</ele><time>2026-04-13T09:16:20.683Z</time></trkpt><trkpt lat="38.0786298" lon="-2.8199445"><ele>696.0</ele><time>2026-04-13T09:16:21.683Z</time></trkpt><trkpt lat="38.0786813" lon="-2.8198325"><ele>692.0</ele><time>2026-04-13T09:16:22.683Z</time></trkpt><trkpt lat="38.0787413" lon="-2.8197196"><ele>688.0</ele><time>2026-04-13T09:16:23.683Z</time></trkpt><trkpt lat="38.078811" lon="-2.8196233"><ele>684.0</ele><time>2026-04-13T09:16:24.683Z</time></trkpt><trkpt lat="38.0788918" lon="-2.819522"><ele>680.0</ele><time>2026-04-13T09:16:25.683Z</time></trkpt><trkpt lat="38.0789757" lon="-2.8194261"><ele>679.5</ele><time>2026-04-13T09:16:26.683Z</time></trkpt><trkpt lat="38.0790526" lon="-2.8193137"><ele>679.0</ele><time>2026-04-13T09:16:27.683Z</time></trkpt><trkpt lat="38.0791402" lon="-2.8192112"><ele>678.5</ele><time>2026-04-13T09:16:28.683Z</time></trkpt><trkpt lat="38.079222" lon="-2.8191095"><ele>678.0</ele><time>2026-04-13T09:16:29.683Z</time></trkpt><trkpt lat="38.079302" lon="-2.8190177"><ele>678.0</ele><time>2026-04-13T09:16:30.683Z</time></trkpt><trkpt lat="38.0793875" lon="-2.8189277"><ele>678.0</ele><time>2026-04-13T09:16:31.683Z</time></trkpt><trkpt lat="38.0794666" lon="-2.8188389"><ele>678.0</ele><time>2026-04-13T09:16:32.683Z</time></trkpt><trkpt lat="38.0795385" lon="-2.8187447"><ele>678.0</ele><time>2026-04-13T09:16:33.683Z</time></trkpt><trkpt lat="38.0796133" lon="-2.8186494"><ele>678.0</ele><time>2026-04-13T09:16:34.683Z</time></trkpt><trkpt lat="38.0796888" lon="-2.8185617"><ele>677.0</ele><time>2026-04-13T09:16:35.683Z</time></trkpt><trkpt lat="38.0797782" lon="-2.8184824"><ele>676.0</ele><time>2026-04-13T09:16:36.683Z</time></trkpt><trkpt lat="38.079881" lon="-2.8184295"><ele>675.0</ele><time>2026-04-13T09:16:37.683Z</time></trkpt><trkpt lat="38.0799929" lon="-2.8184038"><ele>674.0</ele><time>2026-04-13T09:16:38.683Z</time></trkpt><trkpt lat="38.0801042" lon="-2.818396"><ele>673.0</ele><time>2026-04-13T09:16:39.683Z</time></trkpt><trkpt lat="38.0802139" lon="-2.818395"><ele>673.0</ele><time>2026-04-13T09:16:40.683Z</time></trkpt><trkpt lat="38.0803299" lon="-2.8183944"><ele>673.0</ele><time>2026-04-13T09:16:41.683Z</time></trkpt><trkpt lat="38.0804467" lon="-2.8183848"><ele>673.0</ele><time>2026-04-13T09:16:42.683Z</time></trkpt><trkpt lat="38.0805591" lon="-2.8183606"><ele>673.0</ele><time>2026-04-13T09:16:43.684Z</time></trkpt><trkpt lat="38.0806532" lon="-2.8182912"><ele>673.0</ele><time>2026-04-13T09:16:44.683Z</time></trkpt><trkpt lat="38.0807243" lon="-2.818186"><ele>673.0</ele><time>2026-04-13T09:16:45.683Z</time></trkpt><trkpt lat="38.0807633" lon="-2.8180712"><ele>673.0</ele><time>2026-04-13T09:16:46.683Z</time></trkpt><trkpt lat="38.0807795" lon="-2.8179392"><ele>673.0</ele><time>2026-04-13T09:16:47.684Z</time></trkpt><trkpt lat="38.0807518" lon="-2.8178203"><ele>673.0</ele><time>2026-04-13T09:16:48.683Z</time></trkpt><trkpt lat="38.0807438" lon="-2.8177021"><ele>671.5999999999999</ele><time>2026-04-13T09:16:49.683Z</time></trkpt><trkpt lat="38.0807213" lon="-2.8176181"><ele>670.1999999999999</ele><time>2026-04-13T09:16:50.683Z</time></trkpt><trkpt lat="38.0806928" lon="-2.8175177"><ele>668.8</ele><time>2026-04-13T09:16:51.683Z</time></trkpt><trkpt lat="38.080601" lon="-2.8173856"><ele>667.4</ele><time>2026-04-13T09:16:52.683Z</time></trkpt><trkpt lat="38.0805288" lon="-2.8172504"><ele>666.0</ele><time>2026-04-13T09:16:53.683Z</time></trkpt><trkpt lat="38.0804641" lon="-2.8171191"><ele>666.0</ele><time>2026-04-13T09:16:54.683Z</time></trkpt><trkpt lat="38.0804113" lon="-2.816987"><ele>666.0</ele><time>2026-04-13T09:16:55.683Z</time></trkpt><trkpt lat="38.0803747" lon="-2.8168629"><ele>666.0</ele><time>2026-04-13T09:16:56.683Z</time></trkpt><trkpt lat="38.0803555" lon="-2.8167365"><ele>666.0</ele><time>2026-04-13T09:16:57.683Z</time></trkpt><trkpt lat="38.0803663" lon="-2.8166018"><ele>666.0</ele><time>2026-04-13T09:16:58.683Z</time></trkpt><trkpt lat="38.0803915" lon="-2.816472"><ele>664.4</ele><time>2026-04-13T09:16:59.683Z</time></trkpt><trkpt lat="38.0804217" lon="-2.8163439"><ele>662.8</ele><time>2026-04-13T09:17:00.683Z</time></trkpt><trkpt lat="38.0804463" lon="-2.8162096"><ele>661.1999999999999</ele><time>2026-04-13T09:17:01.683Z</time></trkpt><trkpt lat="38.0804712" lon="-2.8160749"><ele>659.5999999999999</ele><time>2026-04-13T09:17:02.683Z</time></trkpt><trkpt lat="38.0805117" lon="-2.8159417"><ele>658.0</ele><time>2026-04-13T09:17:03.683Z</time></trkpt><trkpt lat="38.080572" lon="-2.8158202"><ele>657.75</ele><time>2026-04-13T09:17:04.683Z</time></trkpt><trkpt lat="38.0806482" lon="-2.8157137"><ele>657.5</ele><time>2026-04-13T09:17:05.683Z</time></trkpt><trkpt lat="38.0807354" lon="-2.8156185"><ele>657.25</ele><time>2026-04-13T09:17:06.683Z</time></trkpt><trkpt lat="38.0808307" lon="-2.815539"><ele>657.0</ele><time>2026-04-13T09:17:07.683Z</time></trkpt><trkpt lat="38.0809351" lon="-2.8154836"><ele>657.0</ele><time>2026-04-13T09:17:08.683Z</time></trkpt><trkpt lat="38.0810393" lon="-2.8154624"><ele>657.0</ele><time>2026-04-13T09:17:09.683Z</time></trkpt><trkpt lat="38.0811363" lon="-2.8154711"><ele>657.0</ele><time>2026-04-13T09:17:10.683Z</time></trkpt><trkpt lat="38.0812254" lon="-2.8155135"><ele>657.0</ele><time>2026-04-13T09:17:11.683Z</time></trkpt><trkpt lat="38.0813028" lon="-2.815577"><ele>657.0</ele><time>2026-04-13T09:17:12.683Z</time></trkpt><trkpt lat="38.081383" lon="-2.8156439"><ele>657.0</ele><time>2026-04-13T09:17:13.683Z</time></trkpt><trkpt lat="38.0814505" lon="-2.8157318"><ele>657.0</ele><time>2026-04-13T09:17:14.683Z</time></trkpt><trkpt lat="38.0815138" lon="-2.8158224"><ele>657.0</ele><time>2026-04-13T09:17:15.683Z</time></trkpt><trkpt lat="38.0815809" lon="-2.8159167"><ele>657.0</ele><time>2026-04-13T09:17:16.683Z</time></trkpt><trkpt lat="38.081653" lon="-2.8160145"><ele>657.0</ele><time>2026-04-13T09:17:17.683Z</time></trkpt><trkpt lat="38.0817178" lon="-2.816117"><ele>658.6</ele><time>2026-04-13T09:17:18.683Z</time></trkpt><trkpt lat="38.081792" lon="-2.8162214"><ele>660.2</ele><time>2026-04-13T09:17:19.683Z</time></trkpt><trkpt lat="38.0818617" lon="-2.8163217"><ele>661.8</ele><time>2026-04-13T09:17:20.683Z</time></trkpt><trkpt lat="38.08193" lon="-2.8164353"><ele>663.4</ele><time>2026-04-13T09:17:21.683Z</time></trkpt><trkpt lat="38.0820017" lon="-2.8165496"><ele>665.0</ele><time>2026-04-13T09:17:22.683Z</time></trkpt><trkpt lat="38.0820642" lon="-2.8166629"><ele>665.0</ele><time>2026-04-13T09:17:23.683Z</time></trkpt><trkpt lat="38.0821257" lon="-2.8167816"><ele>665.0</ele><time>2026-04-13T09:17:24.683Z</time></trkpt><trkpt lat="38.0821797" lon="-2.8168657"><ele>665.0</ele><time>2026-04-13T09:17:25.683Z</time></trkpt><trkpt lat="38.0822229" lon="-2.8169696"><ele>665.0</ele><time>2026-04-13T09:17:26.683Z</time></trkpt><trkpt lat="38.0822832" lon="-2.8170787"><ele>665.0</ele><time>2026-04-13T09:17:27.683Z</time></trkpt><trkpt lat="38.0823416" lon="-2.817194"><ele>664.0</ele><time>2026-04-13T09:17:28.683Z</time></trkpt><trkpt lat="38.0823933" lon="-2.8172942"><ele>663.0</ele><time>2026-04-13T09:17:29.683Z</time></trkpt><trkpt lat="38.0824535" lon="-2.8173886"><ele>662.0</ele><time>2026-04-13T09:17:30.683Z</time></trkpt><trkpt lat="38.082518" lon="-2.8174871"><ele>661.0</ele><time>2026-04-13T09:17:31.683Z</time></trkpt><trkpt lat="38.0825829" lon="-2.8175787"><ele>660.0</ele><time>2026-04-13T09:17:32.683Z</time></trkpt><trkpt lat="38.0826587" lon="-2.8176711"><ele>662.4</ele><time>2026-04-13T09:17:33.683Z</time></trkpt><trkpt lat="38.0827425" lon="-2.8177342"><ele>664.8</ele><time>2026-04-13T09:17:34.683Z</time></trkpt><trkpt lat="38.0828272" lon="-2.8177811"><ele>667.2</ele><time>2026-04-13T09:17:35.683Z</time></trkpt><trkpt lat="38.0829288" lon="-2.8178061"><ele>669.6</ele><time>2026-04-13T09:17:36.683Z</time></trkpt><trkpt lat="38.0830276" lon="-2.8178308"><ele>672.0</ele><time>2026-04-13T09:17:37.683Z</time></trkpt><trkpt lat="38.0831206" lon="-2.8178537"><ele>672.0</ele><time>2026-04-13T09:17:38.683Z</time></trkpt><trkpt lat="38.0831942" lon="-2.8179017"><ele>672.0</ele><time>2026-04-13T09:17:39.683Z</time></trkpt><trkpt lat="38.0833086" lon="-2.8179135"><ele>672.0</ele><time>2026-04-13T09:17:40.684Z</time></trkpt><trkpt lat="38.0834064" lon="-2.817932"><ele>672.0</ele><time>2026-04-13T09:17:41.683Z</time></trkpt><trkpt lat="38.0835059" lon="-2.8179578"><ele>672.0</ele><time>2026-04-13T09:17:42.683Z</time></trkpt><trkpt lat="38.0836087" lon="-2.8179467"><ele>671.8</ele><time>2026-04-13T09:17:43.683Z</time></trkpt><trkpt lat="38.0837158" lon="-2.8179364"><ele>671.6</ele><time>2026-04-13T09:17:44.683Z</time></trkpt><trkpt lat="38.0838121" lon="-2.8179136"><ele>671.4</ele><time>2026-04-13T09:17:45.683Z</time></trkpt><trkpt lat="38.0839102" lon="-2.8178941"><ele>671.1999999999999</ele><time>2026-04-13T09:17:46.683Z</time></trkpt><trkpt lat="38.0840058" lon="-2.8178639"><ele>671.0</ele><time>2026-04-13T09:17:47.683Z</time></trkpt><trkpt lat="38.0840986" lon="-2.8178206"><ele>668.5999999999999</ele><time>2026-04-13T09:17:48.683Z</time></trkpt><trkpt lat="38.0841952" lon="-2.817769"><ele>666.2</ele><time>2026-04-13T09:17:49.683Z</time></trkpt><trkpt lat="38.0842912" lon="-2.8177103"><ele>663.8</ele><time>2026-04-13T09:17:50.683Z</time></trkpt><trkpt lat="38.0843838" lon="-2.8176469"><ele>661.4000000000001</ele><time>2026-04-13T09:17:51.683Z</time></trkpt><trkpt lat="38.0844791" lon="-2.8175919"><ele>659.0</ele><time>2026-04-13T09:17:52.683Z</time></trkpt><trkpt lat="38.0845858" lon="-2.8175255"><ele>659.0</ele><time>2026-04-13T09:17:53.683Z</time></trkpt><trkpt lat="38.0846884" lon="-2.8174564"><ele>659.0</ele><time>2026-04-13T09:17:54.683Z</time></trkpt><trkpt lat="38.0847883" lon="-2.8173895"><ele>659.0</ele><time>2026-04-13T09:17:55.683Z</time></trkpt><trkpt lat="38.0848847" lon="-2.8173254"><ele>659.0</ele><time>2026-04-13T09:17:56.683Z</time></trkpt><trkpt lat="38.0849825" lon="-2.817253"><ele>663.4000000000001</ele><time>2026-04-13T09:17:57.683Z</time></trkpt><trkpt lat="38.0850756" lon="-2.8171756"><ele>667.8</ele><time>2026-04-13T09:17:58.684Z</time></trkpt><trkpt lat="38.0851699" lon="-2.8170943"><ele>672.2</ele><time>2026-04-13T09:17:59.683Z</time></trkpt><trkpt lat="38.085261" lon="-2.8170129"><ele>676.5999999999999</ele><time>2026-04-13T09:18:00.683Z</time></trkpt><trkpt lat="38.0853525" lon="-2.8169369"><ele>681.0</ele><time>2026-04-13T09:18:01.683Z</time></trkpt><trkpt lat="38.0854388" lon="-2.8168608"><ele>679.5999999999999</ele><time>2026-04-13T09:18:02.683Z</time></trkpt><trkpt lat="38.0855253" lon="-2.8167814"><ele>678.2</ele><time>2026-04-13T09:18:03.683Z</time></trkpt><trkpt lat="38.0856057" lon="-2.8167163"><ele>676.8</ele><time>2026-04-13T09:18:04.683Z</time></trkpt><trkpt lat="38.0856899" lon="-2.8166545"><ele>675.4000000000001</ele><time>2026-04-13T09:18:05.683Z</time></trkpt><trkpt lat="38.0857794" lon="-2.8165896"><ele>674.0</ele><time>2026-04-13T09:18:06.683Z</time></trkpt><trkpt lat="38.0858667" lon="-2.8165264"><ele>674.0</ele><time>2026-04-13T09:18:07.683Z</time></trkpt><trkpt lat="38.0859548" lon="-2.8164624"><ele>674.0</ele><time>2026-04-13T09:18:08.683Z</time></trkpt><trkpt lat="38.0860453" lon="-2.8163915"><ele>674.0</ele><time>2026-04-13T09:18:09.683Z</time></trkpt><trkpt lat="38.0861345" lon="-2.8163198"><ele>674.0</ele><time>2026-04-13T09:18:10.683Z</time></trkpt><trkpt lat="38.0862343" lon="-2.8162529"><ele>674.0</ele><time>2026-04-13T09:18:11.683Z</time></trkpt><trkpt lat="38.086329" lon="-2.8161995"><ele>674.0</ele><time>2026-04-13T09:18:12.683Z</time></trkpt><trkpt lat="38.086414" lon="-2.816146"><ele>674.0</ele><time>2026-04-13T09:18:13.683Z</time></trkpt><trkpt lat="38.0865011" lon="-2.8160925"><ele>674.0</ele><time>2026-04-13T09:18:14.683Z</time></trkpt><trkpt lat="38.0865825" lon="-2.8160358"><ele>674.0</ele><time>2026-04-13T09:18:15.683Z</time></trkpt><trkpt lat="38.0866634" lon="-2.8159818"><ele>674.0</ele><time>2026-04-13T09:18:16.683Z</time></trkpt><trkpt lat="38.0867549" lon="-2.8159314"><ele>672.0</ele><time>2026-04-13T09:18:17.683Z</time></trkpt><trkpt lat="38.086843" lon="-2.8158844"><ele>670.0</ele><time>2026-04-13T09:18:18.683Z</time></trkpt><trkpt lat="38.0869405" lon="-2.8158318"><ele>668.0</ele><time>2026-04-13T09:18:19.683Z</time></trkpt><trkpt lat="38.0870375" lon="-2.8157848"><ele>666.0</ele><time>2026-04-13T09:18:20.683Z</time></trkpt><trkpt lat="38.0871407" lon="-2.8157402"><ele>664.0</ele><time>2026-04-13T09:18:21.683Z</time></trkpt><trkpt lat="38.087253" lon="-2.8157089"><ele>664.0</ele><time>2026-04-13T09:18:22.683Z</time></trkpt><trkpt lat="38.0873662" lon="-2.8156842"><ele>664.0</ele><time>2026-04-13T09:18:23.683Z</time></trkpt><trkpt lat="38.0874809" lon="-2.8156576"><ele>664.0</ele><time>2026-04-13T09:18:24.683Z</time></trkpt><trkpt lat="38.087599" lon="-2.8156426"><ele>664.0</ele><time>2026-04-13T09:18:25.683Z</time></trkpt><trkpt lat="38.0877042" lon="-2.8156326"><ele>667.75</ele><time>2026-04-13T09:18:26.683Z</time></trkpt><trkpt lat="38.0878212" lon="-2.8156146"><ele>671.5</ele><time>2026-04-13T09:18:27.683Z</time></trkpt><trkpt lat="38.0879391" lon="-2.8155923"><ele>675.25</ele><time>2026-04-13T09:18:28.683Z</time></trkpt><trkpt lat="38.0880591" lon="-2.8155633"><ele>679.0</ele><time>2026-04-13T09:18:29.683Z</time></trkpt><trkpt lat="38.0881789" lon="-2.8155333"><ele>683.5</ele><time>2026-04-13T09:18:30.683Z</time></trkpt><trkpt lat="38.0883015" lon="-2.8155035"><ele>688.0</ele><time>2026-04-13T09:18:31.683Z</time></trkpt><trkpt lat="38.088422" lon="-2.8154667"><ele>692.5</ele><time>2026-04-13T09:18:32.683Z</time></trkpt><trkpt lat="38.0885399" lon="-2.8154174"><ele>697.0</ele><time>2026-04-13T09:18:33.683Z</time></trkpt><trkpt lat="38.0886477" lon="-2.8153601"><ele>697.0</ele><time>2026-04-13T09:18:34.683Z</time></trkpt><trkpt lat="38.0887537" lon="-2.815318"><ele>697.0</ele><time>2026-04-13T09:18:35.683Z</time></trkpt><trkpt lat="38.0888617" lon="-2.8152781"><ele>697.0</ele><time>2026-04-13T09:18:36.683Z</time></trkpt><trkpt lat="38.0889657" lon="-2.8152547"><ele>697.0</ele><time>2026-04-13T09:18:37.684Z</time></trkpt><trkpt lat="38.089067" lon="-2.8152304"><ele>697.0</ele><time>2026-04-13T09:18:38.683Z</time></trkpt><trkpt lat="38.0891676" lon="-2.8152023"><ele>699.8</ele><time>2026-04-13T09:18:39.683Z</time></trkpt><trkpt lat="38.0892646" lon="-2.8151705"><ele>702.6</ele><time>2026-04-13T09:18:40.683Z</time></trkpt><trkpt lat="38.0893594" lon="-2.8151309"><ele>705.4</ele><time>2026-04-13T09:18:41.683Z</time></trkpt><trkpt lat="38.0894578" lon="-2.8150946"><ele>708.1999999999999</ele><time>2026-04-13T09:18:42.683Z</time></trkpt><trkpt lat="38.0895627" lon="-2.8150515"><ele>711.0</ele><time>2026-04-13T09:18:43.683Z</time></trkpt><trkpt lat="38.0896667" lon="-2.8150072"><ele>705.5999999999999</ele><time>2026-04-13T09:18:44.683Z</time></trkpt><trkpt lat="38.0897748" lon="-2.8149641"><ele>700.2</ele><time>2026-04-13T09:18:45.683Z</time></trkpt><trkpt lat="38.0898801" lon="-2.8149185"><ele>694.8</ele><time>2026-04-13T09:18:46.683Z</time></trkpt><trkpt lat="38.0899804" lon="-2.8148751"><ele>689.4000000000001</ele><time>2026-04-13T09:18:47.683Z</time></trkpt><trkpt lat="38.0900745" lon="-2.8148198"><ele>684.0</ele><time>2026-04-13T09:18:48.683Z</time></trkpt><trkpt lat="38.0901537" lon="-2.8147337"><ele>684.0</ele><time>2026-04-13T09:18:49.683Z</time></trkpt><trkpt lat="38.0902337" lon="-2.8146355"><ele>684.0</ele><time>2026-04-13T09:18:50.683Z</time></trkpt><trkpt lat="38.0903054" lon="-2.8145394"><ele>684.0</ele><time>2026-04-13T09:18:51.683Z</time></trkpt><trkpt lat="38.0903645" lon="-2.8144282"><ele>684.0</ele><time>2026-04-13T09:18:52.683Z</time></trkpt><trkpt lat="38.0904075" lon="-2.8143159"><ele>684.0</ele><time>2026-04-13T09:18:53.683Z</time></trkpt><trkpt lat="38.0904423" lon="-2.8141936"><ele>681.4000000000001</ele><time>2026-04-13T09:18:54.683Z</time></trkpt><trkpt lat="38.0904836" lon="-2.8140799"><ele>678.8</ele><time>2026-04-13T09:18:55.683Z</time></trkpt><trkpt lat="38.0905388" lon="-2.8139748"><ele>676.2</ele><time>2026-04-13T09:18:56.683Z</time></trkpt><trkpt lat="38.0906102" lon="-2.8138766"><ele>673.5999999999999</ele><time>2026-04-13T09:18:57.683Z</time></trkpt><trkpt lat="38.0906784" lon="-2.8137747"><ele>671.0</ele><time>2026-04-13T09:18:58.683Z</time></trkpt><trkpt lat="38.0907532" lon="-2.8136748"><ele>672.5</ele><time>2026-04-13T09:18:59.683Z</time></trkpt><trkpt lat="38.0908352" lon="-2.8135784"><ele>674.0</ele><time>2026-04-13T09:19:00.683Z</time></trkpt><trkpt lat="38.0909335" lon="-2.8135032"><ele>675.5</ele><time>2026-04-13T09:19:01.683Z</time></trkpt><trkpt lat="38.0910382" lon="-2.8134436"><ele>677.0</ele><time>2026-04-13T09:19:02.683Z</time></trkpt><trkpt lat="38.0911415" lon="-2.8133747"><ele>677.0</ele><time>2026-04-13T09:19:03.683Z</time></trkpt><trkpt lat="38.0912445" lon="-2.8132966"><ele>677.0</ele><time>2026-04-13T09:19:04.683Z</time></trkpt><trkpt lat="38.0913487" lon="-2.813216"><ele>677.0</ele><time>2026-04-13T09:19:05.683Z</time></trkpt><trkpt lat="38.091458" lon="-2.813129"><ele>677.0</ele><time>2026-04-13T09:19:06.683Z</time></trkpt><trkpt lat="38.0915629" lon="-2.8130355"><ele>682.75</ele><time>2026-04-13T09:19:07.683Z</time></trkpt><trkpt lat="38.09167" lon="-2.8129459"><ele>688.5</ele><time>2026-04-13T09:19:08.683Z</time></trkpt><trkpt lat="38.0917735" lon="-2.8128513"><ele>694.25</ele><time>2026-04-13T09:19:09.683Z</time></trkpt><trkpt lat="38.0918591" lon="-2.8127773"><ele>700.0</ele><time>2026-04-13T09:19:10.683Z</time></trkpt><trkpt lat="38.0919822" lon="-2.8126705"><ele>699.75</ele><time>2026-04-13T09:19:11.683Z</time></trkpt><trkpt lat="38.0920867" lon="-2.8125788"><ele>699.5</ele><time>2026-04-13T09:19:12.683Z</time></trkpt><trkpt lat="38.0921928" lon="-2.8124908"><ele>699.25</ele><time>2026-04-13T09:19:13.683Z</time></trkpt><trkpt lat="38.0923078" lon="-2.8124109"><ele>699.0</ele><time>2026-04-13T09:19:14.683Z</time></trkpt><trkpt lat="38.092427" lon="-2.8123631"><ele>699.0</ele><time>2026-04-13T09:19:15.684Z</time></trkpt><trkpt lat="38.0925443" lon="-2.8123532"><ele>699.0</ele><time>2026-04-13T09:19:16.683Z</time></trkpt><trkpt lat="38.0926564" lon="-2.8123627"><ele>699.0</ele><time>2026-04-13T09:19:17.683Z</time></trkpt><trkpt lat="38.0927628" lon="-2.812386"><ele>699.0</ele><time>2026-04-13T09:19:18.683Z</time></trkpt><trkpt lat="38.0928725" lon="-2.8124188"><ele>699.0</ele><time>2026-04-13T09:19:19.683Z</time></trkpt><trkpt lat="38.0929846" lon="-2.8124452"><ele>699.0</ele><time>2026-04-13T09:19:20.683Z</time></trkpt><trkpt lat="38.0930952" lon="-2.8124621"><ele>699.0</ele><time>2026-04-13T09:19:21.683Z</time></trkpt><trkpt lat="38.0932088" lon="-2.8124571"><ele>699.0</ele><time>2026-04-13T09:19:22.683Z</time></trkpt><trkpt lat="38.0933236" lon="-2.812443"><ele>699.6</ele><time>2026-04-13T09:19:23.683Z</time></trkpt><trkpt lat="38.0934316" lon="-2.8124159"><ele>700.2</ele><time>2026-04-13T09:19:24.683Z</time></trkpt><trkpt lat="38.0935375" lon="-2.8123774"><ele>700.8000000000001</ele><time>2026-04-13T09:19:25.684Z</time></trkpt><trkpt lat="38.0936458" lon="-2.8123531"><ele>701.4000000000001</ele><time>2026-04-13T09:19:26.683Z</time></trkpt><trkpt lat="38.0937595" lon="-2.8123548"><ele>702.0</ele><time>2026-04-13T09:19:27.683Z</time></trkpt><trkpt lat="38.0938666" lon="-2.8123872"><ele>702.0</ele><time>2026-04-13T09:19:28.683Z</time></trkpt><trkpt lat="38.093974" lon="-2.8124293"><ele>702.0</ele><time>2026-04-13T09:19:29.683Z</time></trkpt><trkpt lat="38.0940809" lon="-2.8124738"><ele>702.0</ele><time>2026-04-13T09:19:30.683Z</time></trkpt><trkpt lat="38.0941838" lon="-2.8125251"><ele>702.0</ele><time>2026-04-13T09:19:31.683Z</time></trkpt><trkpt lat="38.0942902" lon="-2.8125677"><ele>702.0</ele><time>2026-04-13T09:19:32.683Z</time></trkpt><trkpt lat="38.0943926" lon="-2.8125989"><ele>701.0</ele><time>2026-04-13T09:19:33.683Z</time></trkpt><trkpt lat="38.094505" lon="-2.8126134"><ele>700.0</ele><time>2026-04-13T09:19:34.683Z</time></trkpt><trkpt lat="38.0946202" lon="-2.8125984"><ele>699.0</ele><time>2026-04-13T09:19:35.683Z</time></trkpt><trkpt lat="38.0947313" lon="-2.8125677"><ele>698.0</ele><time>2026-04-13T09:19:36.683Z</time></trkpt><trkpt lat="38.0948475" lon="-2.8125347"><ele>698.5</ele><time>2026-04-13T09:19:37.683Z</time></trkpt><trkpt lat="38.0949607" lon="-2.8125022"><ele>699.0</ele><time>2026-04-13T09:19:38.683Z</time></trkpt><trkpt lat="38.0950707" lon="-2.8124716"><ele>699.5</ele><time>2026-04-13T09:19:39.683Z</time></trkpt><trkpt lat="38.0951801" lon="-2.8124351"><ele>700.0</ele><time>2026-04-13T09:19:40.683Z</time></trkpt><trkpt lat="38.0952926" lon="-2.8123765"><ele>700.0</ele><time>2026-04-13T09:19:41.683Z</time></trkpt><trkpt lat="38.0953889" lon="-2.8123045"><ele>700.0</ele><time>2026-04-13T09:19:42.683Z</time></trkpt><trkpt lat="38.0954768" lon="-2.8122252"><ele>700.0</ele><time>2026-04-13T09:19:43.683Z</time></trkpt><trkpt lat="38.0955682" lon="-2.8121542"><ele>700.0</ele><time>2026-04-13T09:19:44.683Z</time></trkpt><trkpt lat="38.0956675" lon="-2.8121093"><ele>700.0</ele><time>2026-04-13T09:19:45.683Z</time></trkpt><trkpt lat="38.0957713" lon="-2.81212"><ele>700.4</ele><time>2026-04-13T09:19:46.684Z</time></trkpt><trkpt lat="38.095876" lon="-2.8121426"><ele>700.8</ele><time>2026-04-13T09:19:47.683Z</time></trkpt><trkpt lat="38.0959695" lon="-2.8122197"><ele>701.2</ele><time>2026-04-13T09:19:48.683Z</time></trkpt><trkpt lat="38.0960615" lon="-2.8122961"><ele>701.6</ele><time>2026-04-13T09:19:49.683Z</time></trkpt><trkpt lat="38.0961597" lon="-2.8123571"><ele>702.0</ele><time>2026-04-13T09:19:50.683Z</time></trkpt><trkpt lat="38.096263" lon="-2.8123812"><ele>702.0</ele><time>2026-04-13T09:19:51.683Z</time></trkpt><trkpt lat="38.0963718" lon="-2.8123712"><ele>702.0</ele><time>2026-04-13T09:19:52.683Z</time></trkpt><trkpt lat="38.0964815" lon="-2.8123364"><ele>702.0</ele><time>2026-04-13T09:19:53.683Z</time></trkpt><trkpt lat="38.0965901" lon="-2.8122968"><ele>702.0</ele><time>2026-04-13T09:19:54.683Z</time></trkpt><trkpt lat="38.0966986" lon="-2.8122554"><ele>702.0</ele><time>2026-04-13T09:19:55.683Z</time></trkpt><trkpt lat="38.0968099" lon="-2.8122093"><ele>702.8</ele><time>2026-04-13T09:19:56.683Z</time></trkpt><trkpt lat="38.0969179" lon="-2.8121746"><ele>703.6</ele><time>2026-04-13T09:19:57.683Z</time></trkpt><trkpt lat="38.0970218" lon="-2.8121551"><ele>704.4</ele><time>2026-04-13T09:19:58.683Z</time></trkpt><trkpt lat="38.0971172" lon="-2.8121455"><ele>705.1999999999999</ele><time>2026-04-13T09:19:59.683Z</time></trkpt><trkpt lat="38.0972024" lon="-2.8121462"><ele>706.0</ele><time>2026-04-13T09:20:00.683Z</time></trkpt><trkpt lat="38.0972831" lon="-2.8121526"><ele>706.0</ele><time>2026-04-13T09:20:01.683Z</time></trkpt><trkpt lat="38.0973585" lon="-2.8121602"><ele>706.0</ele><time>2026-04-13T09:20:02.683Z</time></trkpt><trkpt lat="38.0974253" lon="-2.8121677"><ele>706.0</ele><time>2026-04-13T09:20:03.683Z</time></trkpt><trkpt lat="38.0975209" lon="-2.8121732"><ele>706.0</ele><time>2026-04-13T09:20:05.683Z</time></trkpt><trkpt lat="38.097613" lon="-2.8121802"><ele>706.0</ele><time>2026-04-13T09:20:07.683Z</time></trkpt><trkpt lat="38.0977003" lon="-2.8121803"><ele>706.0</ele><time>2026-04-13T09:20:09.683Z</time></trkpt><trkpt lat="38.0977679" lon="-2.8121471"><ele>706.0</ele><time>2026-04-13T09:20:14.683Z</time></trkpt><trkpt lat="38.0978498" lon="-2.8121474"><ele>706.0</ele><time>2026-04-13T09:20:27.683Z</time></trkpt><trkpt lat="38.0977797" lon="-2.8121396"><ele>706.0</ele><time>2026-04-13T09:20:37.683Z</time></trkpt><trkpt lat="38.0977125" lon="-2.8121366"><ele>706.0</ele><time>2026-04-13T09:20:43.683Z</time></trkpt><trkpt lat="38.0976465" lon="-2.8121399"><ele>706.0</ele><time>2026-04-13T09:20:49.586Z</time></trkpt><trkpt lat="38.0976709" lon="-2.812051"><ele>706.0</ele><time>2026-04-13T09:24:05.668Z</time></trkpt><trkpt lat="38.0976098" lon="-2.8120804"><ele>706.0</ele><time>2026-04-13T09:25:14.668Z</time></trkpt><trkpt lat="38.097662" lon="-2.8121403"><ele>706.0</ele><time>2026-04-13T09:25:26.668Z</time></trkpt><trkpt lat="38.0977317" lon="-2.8121467"><ele>706.0</ele><time>2026-04-13T09:25:33.668Z</time></trkpt><trkpt lat="38.0977971" lon="-2.812153"><ele>706.0</ele><time>2026-04-13T09:26:29.668Z</time></trkpt><trkpt lat="38.0978833" lon="-2.8121754"><ele>706.0</ele><time>2026-04-13T09:27:24.675Z</time></trkpt><trkpt lat="38.0979559" lon="-2.8121851"><ele>706.0</ele><time>2026-04-13T09:27:26.674Z</time></trkpt><trkpt lat="38.0980436" lon="-2.8121672"><ele>706.0</ele><time>2026-04-13T09:27:28.674Z</time></trkpt><trkpt lat="38.098119" lon="-2.8121249"><ele>706.0</ele><time>2026-04-13T09:27:29.674Z</time></trkpt><trkpt lat="38.0981878" lon="-2.8120865"><ele>706.0</ele><time>2026-04-13T09:27:30.674Z</time></trkpt><trkpt lat="38.0982529" lon="-2.8120332"><ele>706.0</ele><time>2026-04-13T09:27:31.674Z</time></trkpt><trkpt lat="38.0983183" lon="-2.811983"><ele>706.0</ele><time>2026-04-13T09:27:32.674Z</time></trkpt><trkpt lat="38.0983967" lon="-2.8119407"><ele>706.0</ele><time>2026-04-13T09:27:33.674Z</time></trkpt><trkpt lat="38.0984894" lon="-2.8118957"><ele>706.0</ele><time>2026-04-13T09:27:34.674Z</time></trkpt><trkpt lat="38.0985847" lon="-2.8118804"><ele>706.0</ele><time>2026-04-13T09:27:35.674Z</time></trkpt><trkpt lat="38.0986819" lon="-2.8118786"><ele>706.0</ele><time>2026-04-13T09:27:36.674Z</time></trkpt><trkpt lat="38.0987743" lon="-2.8119006"><ele>706.0</ele><time>2026-04-13T09:27:37.674Z</time></trkpt><trkpt lat="38.0988664" lon="-2.8119311"><ele>706.0</ele><time>2026-04-13T09:27:38.674Z</time></trkpt><trkpt lat="38.098959" lon="-2.8119728"><ele>706.0</ele><time>2026-04-13T09:27:39.674Z</time></trkpt><trkpt lat="38.0990462" lon="-2.8120176"><ele>706.1999999999999</ele><time>2026-04-13T09:27:40.674Z</time></trkpt><trkpt lat="38.0991349" lon="-2.8120549"><ele>706.4</ele><time>2026-04-13T09:27:41.674Z</time></trkpt><trkpt lat="38.0992275" lon="-2.8120783"><ele>706.6</ele><time>2026-04-13T09:27:42.674Z</time></trkpt><trkpt lat="38.0993254" lon="-2.8121105"><ele>706.8</ele><time>2026-04-13T09:27:43.674Z</time></trkpt><trkpt lat="38.0994352" lon="-2.8120873"><ele>707.0</ele><time>2026-04-13T09:27:44.675Z</time></trkpt><trkpt lat="38.0995414" lon="-2.8120881"><ele>707.0</ele><time>2026-04-13T09:27:45.674Z</time></trkpt><trkpt lat="38.0996529" lon="-2.8120873"><ele>707.0</ele><time>2026-04-13T09:27:46.674Z</time></trkpt><trkpt lat="38.0997644" lon="-2.812099"><ele>707.0</ele><time>2026-04-13T09:27:47.674Z</time></trkpt><trkpt lat="38.0998802" lon="-2.8121132"><ele>707.0</ele><time>2026-04-13T09:27:48.674Z</time></trkpt><trkpt lat="38.0999924" lon="-2.8121436"><ele>705.6</ele><time>2026-04-13T09:27:49.674Z</time></trkpt><trkpt lat="38.1000991" lon="-2.812195"><ele>704.2</ele><time>2026-04-13T09:27:50.674Z</time></trkpt><trkpt lat="38.1002005" lon="-2.8122563"><ele>702.8</ele><time>2026-04-13T09:27:51.674Z</time></trkpt><trkpt lat="38.1002946" lon="-2.8123239"><ele>701.4</ele><time>2026-04-13T09:27:52.674Z</time></trkpt><trkpt lat="38.1003827" lon="-2.8123963"><ele>700.0</ele><time>2026-04-13T09:27:53.674Z</time></trkpt><trkpt lat="38.1004626" lon="-2.8124809"><ele>700.0</ele><time>2026-04-13T09:27:54.674Z</time></trkpt><trkpt lat="38.1005393" lon="-2.8125803"><ele>700.0</ele><time>2026-04-13T09:27:55.674Z</time></trkpt><trkpt lat="38.1006144" lon="-2.8126875"><ele>700.0</ele><time>2026-04-13T09:27:56.674Z</time></trkpt><trkpt lat="38.1006946" lon="-2.8127856"><ele>700.0</ele><time>2026-04-13T09:27:57.674Z</time></trkpt><trkpt lat="38.1007671" lon="-2.8128777"><ele>700.0</ele><time>2026-04-13T09:27:58.674Z</time></trkpt><trkpt lat="38.1008843" lon="-2.812935"><ele>702.5</ele><time>2026-04-13T09:27:59.674Z</time></trkpt><trkpt lat="38.1009895" lon="-2.8129868"><ele>705.0</ele><time>2026-04-13T09:28:00.674Z</time></trkpt><trkpt lat="38.1011048" lon="-2.8130226"><ele>707.5</ele><time>2026-04-13T09:28:01.674Z</time></trkpt><trkpt lat="38.1012232" lon="-2.813057"><ele>710.0</ele><time>2026-04-13T09:28:02.674Z</time></trkpt><trkpt lat="38.1013468" lon="-2.8130848"><ele>710.0</ele><time>2026-04-13T09:28:03.674Z</time></trkpt><trkpt lat="38.1014701" lon="-2.8131079"><ele>710.0</ele><time>2026-04-13T09:28:04.674Z</time></trkpt><trkpt lat="38.1016045" lon="-2.81311"><ele>710.0</ele><time>2026-04-13T09:28:05.674Z</time></trkpt><trkpt lat="38.1017294" lon="-2.8131148"><ele>710.0</ele><time>2026-04-13T09:28:06.675Z</time></trkpt><trkpt lat="38.1018565" lon="-2.8131156"><ele>710.75</ele><time>2026-04-13T09:28:07.674Z</time></trkpt><trkpt lat="38.1019836" lon="-2.8131061"><ele>711.5</ele><time>2026-04-13T09:28:08.674Z</time></trkpt><trkpt lat="38.1021065" lon="-2.8130837"><ele>712.25</ele><time>2026-04-13T09:28:09.674Z</time></trkpt><trkpt lat="38.1022333" lon="-2.813062"><ele>713.0</ele><time>2026-04-13T09:28:10.674Z</time></trkpt><trkpt lat="38.1023517" lon="-2.8130374"><ele>714.0</ele><time>2026-04-13T09:28:11.674Z</time></trkpt><trkpt lat="38.1024706" lon="-2.8130126"><ele>715.0</ele><time>2026-04-13T09:28:12.674Z</time></trkpt><trkpt lat="38.1025839" lon="-2.8129858"><ele>716.0</ele><time>2026-04-13T09:28:13.674Z</time></trkpt><trkpt lat="38.1026962" lon="-2.8129468"><ele>717.0</ele><time>2026-04-13T09:28:14.674Z</time></trkpt><trkpt lat="38.1028033" lon="-2.8128791"><ele>717.0</ele><time>2026-04-13T09:28:15.674Z</time></trkpt><trkpt lat="38.1029024" lon="-2.8127982"><ele>717.0</ele><time>2026-04-13T09:28:16.674Z</time></trkpt><trkpt lat="38.1030126" lon="-2.8127242"><ele>717.0</ele><time>2026-04-13T09:28:17.674Z</time></trkpt><trkpt lat="38.1031207" lon="-2.8126569"><ele>717.0</ele><time>2026-04-13T09:28:18.674Z</time></trkpt><trkpt lat="38.1032273" lon="-2.8125923"><ele>709.75</ele><time>2026-04-13T09:28:19.674Z</time></trkpt><trkpt lat="38.1033373" lon="-2.8125369"><ele>702.5</ele><time>2026-04-13T09:28:20.674Z</time></trkpt><trkpt lat="38.1034509" lon="-2.8124835"><ele>695.25</ele><time>2026-04-13T09:28:21.674Z</time></trkpt><trkpt lat="38.1035673" lon="-2.812425"><ele>688.0</ele><time>2026-04-13T09:28:22.674Z</time></trkpt><trkpt lat="38.103683" lon="-2.81237"><ele>688.0</ele><time>2026-04-13T09:28:23.674Z</time></trkpt><trkpt lat="38.1037981" lon="-2.8123065"><ele>688.0</ele><time>2026-04-13T09:28:24.674Z</time></trkpt><trkpt lat="38.1039093" lon="-2.8122289"><ele>688.0</ele><time>2026-04-13T09:28:25.674Z</time></trkpt><trkpt lat="38.1040066" lon="-2.8121289"><ele>688.0</ele><time>2026-04-13T09:28:26.674Z</time></trkpt><trkpt lat="38.1040882" lon="-2.812016"><ele>689.6666666666667</ele><time>2026-04-13T09:28:27.674Z</time></trkpt><trkpt lat="38.1041744" lon="-2.8118423"><ele>691.3333333333334</ele><time>2026-04-13T09:28:29.613Z</time></trkpt><trkpt lat="38.1041557" lon="-2.8115923"><ele>693.0</ele><time>2026-04-13T09:28:30.676Z</time></trkpt><trkpt lat="38.1041425" lon="-2.8114438"><ele>693.0</ele><time>2026-04-13T09:28:31.67Z</time></trkpt><trkpt lat="38.1041644" lon="-2.8112957"><ele>693.0</ele><time>2026-04-13T09:28:32.679Z</time></trkpt><trkpt lat="38.104187" lon="-2.8111445"><ele>693.0</ele><time>2026-04-13T09:28:33.675Z</time></trkpt><trkpt lat="38.1042149" lon="-2.8109871"><ele>693.0</ele><time>2026-04-13T09:28:34.677Z</time></trkpt><trkpt lat="38.1042453" lon="-2.8108418"><ele>692.0</ele><time>2026-04-13T09:28:35.677Z</time></trkpt><trkpt lat="38.1042749" lon="-2.8106894"><ele>691.0</ele><time>2026-04-13T09:28:36.677Z</time></trkpt><trkpt lat="38.1042941" lon="-2.8105407"><ele>690.0</ele><time>2026-04-13T09:28:37.677Z</time></trkpt><trkpt lat="38.1043086" lon="-2.810398"><ele>689.0</ele><time>2026-04-13T09:28:38.677Z</time></trkpt><trkpt lat="38.1043259" lon="-2.8102531"><ele>687.75</ele><time>2026-04-13T09:28:39.677Z</time></trkpt><trkpt lat="38.1043389" lon="-2.8101079"><ele>686.5</ele><time>2026-04-13T09:28:40.677Z</time></trkpt><trkpt lat="38.1043477" lon="-2.8099578"><ele>685.25</ele><time>2026-04-13T09:28:41.677Z</time></trkpt><trkpt lat="38.1043486" lon="-2.8098157"><ele>684.0</ele><time>2026-04-13T09:28:42.677Z</time></trkpt><trkpt lat="38.1043362" lon="-2.8096732"><ele>684.0</ele><time>2026-04-13T09:28:43.677Z</time></trkpt><trkpt lat="38.1043161" lon="-2.809538"><ele>684.0</ele><time>2026-04-13T09:28:44.677Z</time></trkpt><trkpt lat="38.1043035" lon="-2.8094037"><ele>684.0</ele><time>2026-04-13T09:28:45.677Z</time></trkpt><trkpt lat="38.1043103" lon="-2.8092716"><ele>684.0</ele><time>2026-04-13T09:28:46.677Z</time></trkpt><trkpt lat="38.1043438" lon="-2.8091501"><ele>684.0</ele><time>2026-04-13T09:28:47.677Z</time></trkpt><trkpt lat="38.1043996" lon="-2.8090424"><ele>683.25</ele><time>2026-04-13T09:28:48.678Z</time></trkpt><trkpt lat="38.1044701" lon="-2.8089402"><ele>682.5</ele><time>2026-04-13T09:28:49.677Z</time></trkpt><trkpt lat="38.1045528" lon="-2.8088407"><ele>681.75</ele><time>2026-04-13T09:28:50.677Z</time></trkpt><trkpt lat="38.1046458" lon="-2.8087453"><ele>681.0</ele><time>2026-04-13T09:28:51.677Z</time></trkpt><trkpt lat="38.1047375" lon="-2.8086496"><ele>681.0</ele><time>2026-04-13T09:28:52.677Z</time></trkpt><trkpt lat="38.1048354" lon="-2.8085661"><ele>681.0</ele><time>2026-04-13T09:28:53.677Z</time></trkpt><trkpt lat="38.1049394" lon="-2.8084974"><ele>681.0</ele><time>2026-04-13T09:28:54.677Z</time></trkpt><trkpt lat="38.1050544" lon="-2.8084411"><ele>681.0</ele><time>2026-04-13T09:28:55.677Z</time></trkpt><trkpt lat="38.1051689" lon="-2.8083822"><ele>682.0</ele><time>2026-04-13T09:28:56.677Z</time></trkpt><trkpt lat="38.1052844" lon="-2.8083218"><ele>683.0</ele><time>2026-04-13T09:28:57.677Z</time></trkpt><trkpt lat="38.1054036" lon="-2.808255"><ele>684.0</ele><time>2026-04-13T09:28:58.677Z</time></trkpt><trkpt lat="38.1055191" lon="-2.8081809"><ele>685.0</ele><time>2026-04-13T09:28:59.677Z</time></trkpt><trkpt lat="38.1056331" lon="-2.8081147"><ele>689.5</ele><time>2026-04-13T09:29:00.677Z</time></trkpt><trkpt lat="38.1057459" lon="-2.8080406"><ele>694.0</ele><time>2026-04-13T09:29:01.677Z</time></trkpt><trkpt lat="38.1058551" lon="-2.8079749"><ele>698.5</ele><time>2026-04-13T09:29:02.677Z</time></trkpt><trkpt lat="38.1059679" lon="-2.8079078"><ele>703.0</ele><time>2026-04-13T09:29:03.677Z</time></trkpt><trkpt lat="38.1060807" lon="-2.8078417"><ele>703.0</ele><time>2026-04-13T09:29:04.677Z</time></trkpt><trkpt lat="38.1061939" lon="-2.8077635"><ele>703.0</ele><time>2026-04-13T09:29:05.677Z</time></trkpt><trkpt lat="38.1063019" lon="-2.80768"><ele>703.0</ele><time>2026-04-13T09:29:06.677Z</time></trkpt><trkpt lat="38.1064114" lon="-2.807591"><ele>703.0</ele><time>2026-04-13T09:29:07.677Z</time></trkpt><trkpt lat="38.1065193" lon="-2.8074957"><ele>701.75</ele><time>2026-04-13T09:29:08.677Z</time></trkpt><trkpt lat="38.1066298" lon="-2.80739"><ele>700.5</ele><time>2026-04-13T09:29:09.677Z</time></trkpt><trkpt lat="38.1067249" lon="-2.8072698"><ele>699.25</ele><time>2026-04-13T09:29:10.677Z</time></trkpt><trkpt lat="38.1068092" lon="-2.8071393"><ele>698.0</ele><time>2026-04-13T09:29:11.677Z</time></trkpt><trkpt lat="38.1068844" lon="-2.8070153"><ele>698.0</ele><time>2026-04-13T09:29:12.677Z</time></trkpt><trkpt lat="38.1069623" lon="-2.8069039"><ele>698.0</ele><time>2026-04-13T09:29:13.677Z</time></trkpt><trkpt lat="38.1070525" lon="-2.8068166"><ele>698.0</ele><time>2026-04-13T09:29:14.677Z</time></trkpt><trkpt lat="38.1071543" lon="-2.8067623"><ele>698.0</ele><time>2026-04-13T09:29:15.677Z</time></trkpt><trkpt lat="38.1072697" lon="-2.8067343"><ele>695.5</ele><time>2026-04-13T09:29:16.677Z</time></trkpt><trkpt lat="38.1073903" lon="-2.8067229"><ele>693.0</ele><time>2026-04-13T09:29:17.677Z</time></trkpt><trkpt lat="38.1075154" lon="-2.8067678"><ele>690.5</ele><time>2026-04-13T09:29:18.677Z</time></trkpt><trkpt lat="38.1076366" lon="-2.8068063"><ele>688.0</ele><time>2026-04-13T09:29:19.677Z</time></trkpt><trkpt lat="38.1077551" lon="-2.8068433"><ele>694.75</ele><time>2026-04-13T09:29:20.677Z</time></trkpt><trkpt lat="38.1078773" lon="-2.806877"><ele>701.5</ele><time>2026-04-13T09:29:21.677Z</time></trkpt><trkpt lat="38.1079955" lon="-2.8069028"><ele>708.25</ele><time>2026-04-13T09:29:22.677Z</time></trkpt><trkpt lat="38.1081059" lon="-2.8069222"><ele>715.0</ele><time>2026-04-13T09:29:23.677Z</time></trkpt><trkpt lat="38.1082086" lon="-2.8069178"><ele>714.25</ele><time>2026-04-13T09:29:24.677Z</time></trkpt><trkpt lat="38.1083208" lon="-2.806868"><ele>713.5</ele><time>2026-04-13T09:29:25.677Z</time></trkpt><trkpt lat="38.1084252" lon="-2.8068431"><ele>712.75</ele><time>2026-04-13T09:29:26.677Z</time></trkpt><trkpt lat="38.108543" lon="-2.8067438"><ele>712.0</ele><time>2026-04-13T09:29:27.677Z</time></trkpt><trkpt lat="38.1086604" lon="-2.806674"><ele>707.25</ele><time>2026-04-13T09:29:28.677Z</time></trkpt><trkpt lat="38.1087834" lon="-2.8065975"><ele>702.5</ele><time>2026-04-13T09:29:29.677Z</time></trkpt><trkpt lat="38.1089091" lon="-2.8065256"><ele>697.75</ele><time>2026-04-13T09:29:30.677Z</time></trkpt><trkpt lat="38.1090255" lon="-2.8064554"><ele>693.0</ele><time>2026-04-13T09:29:31.677Z</time></trkpt><trkpt lat="38.109125" lon="-2.8063953"><ele>693.0</ele><time>2026-04-13T09:29:32.677Z</time></trkpt><trkpt lat="38.1092252" lon="-2.8063186"><ele>693.0</ele><time>2026-04-13T09:29:33.677Z</time></trkpt><trkpt lat="38.1093125" lon="-2.8062174"><ele>693.0</ele><time>2026-04-13T09:29:34.677Z</time></trkpt><trkpt lat="38.1093826" lon="-2.8061"><ele>693.0</ele><time>2026-04-13T09:29:35.677Z</time></trkpt><trkpt lat="38.1094374" lon="-2.8059658"><ele>688.0</ele><time>2026-04-13T09:29:36.677Z</time></trkpt><trkpt lat="38.1094863" lon="-2.8058262"><ele>683.0</ele><time>2026-04-13T09:29:37.677Z</time></trkpt><trkpt lat="38.1095483" lon="-2.8056928"><ele>678.0</ele><time>2026-04-13T09:29:38.677Z</time></trkpt><trkpt lat="38.109627" lon="-2.8055837"><ele>673.0</ele><time>2026-04-13T09:29:39.677Z</time></trkpt><trkpt lat="38.1096919" lon="-2.8054674"><ele>673.0</ele><time>2026-04-13T09:29:40.677Z</time></trkpt><trkpt lat="38.1098208" lon="-2.8054563"><ele>673.0</ele><time>2026-04-13T09:29:41.677Z</time></trkpt><trkpt lat="38.1099216" lon="-2.8054089"><ele>673.0</ele><time>2026-04-13T09:29:42.677Z</time></trkpt><trkpt lat="38.1100207" lon="-2.8053681"><ele>673.0</ele><time>2026-04-13T09:29:43.677Z</time></trkpt><trkpt lat="38.1101157" lon="-2.8053062"><ele>673.0</ele><time>2026-04-13T09:29:44.677Z</time></trkpt><trkpt lat="38.1101888" lon="-2.8052142"><ele>673.5</ele><time>2026-04-13T09:29:45.677Z</time></trkpt><trkpt lat="38.1102697" lon="-2.805127"><ele>674.0</ele><time>2026-04-13T09:29:46.677Z</time></trkpt><trkpt lat="38.110305" lon="-2.8049745"><ele>674.5</ele><time>2026-04-13T09:29:47.677Z</time></trkpt><trkpt lat="38.1103492" lon="-2.8048425"><ele>675.0</ele><time>2026-04-13T09:29:48.677Z</time></trkpt><trkpt lat="38.1103924" lon="-2.8047134"><ele>675.0</ele><time>2026-04-13T09:29:49.677Z</time></trkpt><trkpt lat="38.1104435" lon="-2.8045879"><ele>675.0</ele><time>2026-04-13T09:29:50.677Z</time></trkpt><trkpt lat="38.1105263" lon="-2.8044861"><ele>675.0</ele><time>2026-04-13T09:29:51.677Z</time></trkpt><trkpt lat="38.1106178" lon="-2.8044189"><ele>675.0</ele><time>2026-04-13T09:29:52.677Z</time></trkpt><trkpt lat="38.1107173" lon="-2.8043841"><ele>675.0</ele><time>2026-04-13T09:29:53.677Z</time></trkpt><trkpt lat="38.1108151" lon="-2.8043576"><ele>675.0</ele><time>2026-04-13T09:29:54.677Z</time></trkpt><trkpt lat="38.1109227" lon="-2.804349"><ele>675.0</ele><time>2026-04-13T09:29:55.677Z</time></trkpt><trkpt lat="38.1110215" lon="-2.8043312"><ele>675.0</ele><time>2026-04-13T09:29:56.677Z</time></trkpt><trkpt lat="38.1111273" lon="-2.8043135"><ele>675.0</ele><time>2026-04-13T09:29:57.677Z</time></trkpt><trkpt lat="38.1112334" lon="-2.804298"><ele>675.0</ele><time>2026-04-13T09:29:58.678Z</time></trkpt><trkpt lat="38.1113357" lon="-2.8042868"><ele>675.0</ele><time>2026-04-13T09:29:59.677Z</time></trkpt><trkpt lat="38.1114389" lon="-2.8042816"><ele>675.0</ele><time>2026-04-13T09:30:00.677Z</time></trkpt><trkpt lat="38.1115509" lon="-2.8042851"><ele>675.0</ele><time>2026-04-13T09:30:01.677Z</time></trkpt><trkpt lat="38.1116565" lon="-2.8043037"><ele>675.0</ele><time>2026-04-13T09:30:02.677Z</time></trkpt><trkpt lat="38.1117592" lon="-2.8043387"><ele>675.0</ele><time>2026-04-13T09:30:03.677Z</time></trkpt><trkpt lat="38.1118651" lon="-2.8043829"><ele>679.5</ele><time>2026-04-13T09:30:04.677Z</time></trkpt><trkpt lat="38.1119702" lon="-2.8044298"><ele>684.0</ele><time>2026-04-13T09:30:05.677Z</time></trkpt><trkpt lat="38.1120752" lon="-2.8044822"><ele>688.5</ele><time>2026-04-13T09:30:06.677Z</time></trkpt><trkpt lat="38.1121809" lon="-2.8045357"><ele>693.0</ele><time>2026-04-13T09:30:07.677Z</time></trkpt><trkpt lat="38.1122883" lon="-2.804589"><ele>693.0</ele><time>2026-04-13T09:30:08.677Z</time></trkpt><trkpt lat="38.1123975" lon="-2.8046246"><ele>693.0</ele><time>2026-04-13T09:30:09.677Z</time></trkpt><trkpt lat="38.1125018" lon="-2.8046664"><ele>693.0</ele><time>2026-04-13T09:30:10.677Z</time></trkpt><trkpt lat="38.1126087" lon="-2.8047054"><ele>693.0</ele><time>2026-04-13T09:30:11.677Z</time></trkpt><trkpt lat="38.1127179" lon="-2.8047204"><ele>693.0</ele><time>2026-04-13T09:30:12.677Z</time></trkpt><trkpt lat="38.1128245" lon="-2.8047101"><ele>690.5</ele><time>2026-04-13T09:30:13.677Z</time></trkpt><trkpt lat="38.1129309" lon="-2.8046731"><ele>688.0</ele><time>2026-04-13T09:30:14.677Z</time></trkpt><trkpt lat="38.1130371" lon="-2.8046058"><ele>685.5</ele><time>2026-04-13T09:30:15.677Z</time></trkpt><trkpt lat="38.1131379" lon="-2.8045189"><ele>683.0</ele><time>2026-04-13T09:30:16.677Z</time></trkpt><trkpt lat="38.1132327" lon="-2.8044227"><ele>680.0</ele><time>2026-04-13T09:30:17.677Z</time></trkpt><trkpt lat="38.1133304" lon="-2.8043181"><ele>677.0</ele><time>2026-04-13T09:30:18.677Z</time></trkpt><trkpt lat="38.1134268" lon="-2.8042083"><ele>674.0</ele><time>2026-04-13T09:30:19.677Z</time></trkpt><trkpt lat="38.1135208" lon="-2.8040993"><ele>671.0</ele><time>2026-04-13T09:30:20.677Z</time></trkpt><trkpt lat="38.1136158" lon="-2.8039899"><ele>671.0</ele><time>2026-04-13T09:30:21.677Z</time></trkpt><trkpt lat="38.1137149" lon="-2.8038884"><ele>671.0</ele><time>2026-04-13T09:30:22.677Z</time></trkpt><trkpt lat="38.1138199" lon="-2.8037987"><ele>671.0</ele><time>2026-04-13T09:30:23.677Z</time></trkpt><trkpt lat="38.113936" lon="-2.8037151"><ele>671.0</ele><time>2026-04-13T09:30:24.677Z</time></trkpt><trkpt lat="38.1140616" lon="-2.8036503"><ele>670.25</ele><time>2026-04-13T09:30:25.677Z</time></trkpt><trkpt lat="38.1141933" lon="-2.8035833"><ele>669.5</ele><time>2026-04-13T09:30:26.677Z</time></trkpt><trkpt lat="38.1143206" lon="-2.8035215"><ele>668.75</ele><time>2026-04-13T09:30:27.677Z</time></trkpt><trkpt lat="38.1144472" lon="-2.8034619"><ele>668.0</ele><time>2026-04-13T09:30:28.677Z</time></trkpt><trkpt lat="38.1145738" lon="-2.8033961"><ele>668.0</ele><time>2026-04-13T09:30:29.677Z</time></trkpt><trkpt lat="38.1146958" lon="-2.8033268"><ele>668.0</ele><time>2026-04-13T09:30:30.677Z</time></trkpt><trkpt lat="38.1148152" lon="-2.8032565"><ele>668.0</ele><time>2026-04-13T09:30:31.677Z</time></trkpt><trkpt lat="38.1149269" lon="-2.8031841"><ele>668.0</ele><time>2026-04-13T09:30:32.677Z</time></trkpt><trkpt lat="38.1150312" lon="-2.8031068"><ele>666.75</ele><time>2026-04-13T09:30:33.677Z</time></trkpt><trkpt lat="38.1151198" lon="-2.8030018"><ele>665.5</ele><time>2026-04-13T09:30:34.677Z</time></trkpt><trkpt lat="38.1151928" lon="-2.8028761"><ele>664.25</ele><time>2026-04-13T09:30:35.677Z</time></trkpt><trkpt lat="38.1152625" lon="-2.8027487"><ele>663.0</ele><time>2026-04-13T09:30:36.677Z</time></trkpt><trkpt lat="38.1153274" lon="-2.802615"><ele>663.0</ele><time>2026-04-13T09:30:37.677Z</time></trkpt><trkpt lat="38.1153929" lon="-2.8024854"><ele>663.0</ele><time>2026-04-13T09:30:38.677Z</time></trkpt><trkpt lat="38.1154609" lon="-2.802359"><ele>663.0</ele><time>2026-04-13T09:30:39.677Z</time></trkpt><trkpt lat="38.1155322" lon="-2.8022317"><ele>663.0</ele><time>2026-04-13T09:30:40.677Z</time></trkpt><trkpt lat="38.1156087" lon="-2.8021027"><ele>663.0</ele><time>2026-04-13T09:30:41.677Z</time></trkpt><trkpt lat="38.1156837" lon="-2.8019754"><ele>663.0</ele><time>2026-04-13T09:30:42.677Z</time></trkpt><trkpt lat="38.1157399" lon="-2.801841"><ele>663.0</ele><time>2026-04-13T09:30:43.677Z</time></trkpt><trkpt lat="38.1157816" lon="-2.8016879"><ele>663.0</ele><time>2026-04-13T09:30:44.677Z</time></trkpt><trkpt lat="38.115814" lon="-2.8015385"><ele>663.0</ele><time>2026-04-13T09:30:45.677Z</time></trkpt><trkpt lat="38.1158118" lon="-2.8013939"><ele>663.0</ele><time>2026-04-13T09:30:46.677Z</time></trkpt><trkpt lat="38.1158334" lon="-2.8012595"><ele>663.0</ele><time>2026-04-13T09:30:47.677Z</time></trkpt><trkpt lat="38.1158727" lon="-2.8011366"><ele>663.0</ele><time>2026-04-13T09:30:48.677Z</time></trkpt><trkpt lat="38.1159366" lon="-2.8010308"><ele>663.0</ele><time>2026-04-13T09:30:49.677Z</time></trkpt><trkpt lat="38.1160212" lon="-2.800946"><ele>663.0</ele><time>2026-04-13T09:30:50.677Z</time></trkpt><trkpt lat="38.1161077" lon="-2.800861"><ele>663.0</ele><time>2026-04-13T09:30:51.677Z</time></trkpt><trkpt lat="38.1161955" lon="-2.8007749"><ele>663.0</ele><time>2026-04-13T09:30:52.677Z</time></trkpt><trkpt lat="38.1162808" lon="-2.8006725"><ele>663.0</ele><time>2026-04-13T09:30:53.677Z</time></trkpt><trkpt lat="38.1163634" lon="-2.8005817"><ele>663.0</ele><time>2026-04-13T09:30:54.678Z</time></trkpt><trkpt lat="38.1164461" lon="-2.8005067"><ele>663.0</ele><time>2026-04-13T09:30:55.677Z</time></trkpt><trkpt lat="38.1165347" lon="-2.8004504"><ele>663.0</ele><time>2026-04-13T09:30:56.677Z</time></trkpt><trkpt lat="38.1166322" lon="-2.8004302"><ele>663.0</ele><time>2026-04-13T09:30:57.678Z</time></trkpt><trkpt lat="38.1167279" lon="-2.8004433"><ele>663.0</ele><time>2026-04-13T09:30:58.677Z</time></trkpt><trkpt lat="38.1168305" lon="-2.8004752"><ele>663.0</ele><time>2026-04-13T09:30:59.677Z</time></trkpt><trkpt lat="38.1169273" lon="-2.80053"><ele>664.8</ele><time>2026-04-13T09:31:00.678Z</time></trkpt><trkpt lat="38.1170195" lon="-2.8006008"><ele>666.5999999999999</ele><time>2026-04-13T09:31:01.677Z</time></trkpt><trkpt lat="38.117109" lon="-2.8006866"><ele>668.4000000000001</ele><time>2026-04-13T09:31:02.677Z</time></trkpt><trkpt lat="38.1171941" lon="-2.8007721"><ele>670.2</ele><time>2026-04-13T09:31:03.677Z</time></trkpt><trkpt lat="38.11727" lon="-2.8008619"><ele>672.0</ele><time>2026-04-13T09:31:04.677Z</time></trkpt><trkpt lat="38.1173333" lon="-2.8009559"><ele>672.2</ele><time>2026-04-13T09:31:05.677Z</time></trkpt><trkpt lat="38.1173771" lon="-2.801071"><ele>672.4000000000001</ele><time>2026-04-13T09:31:06.677Z</time></trkpt><trkpt lat="38.1174022" lon="-2.8011952"><ele>672.5999999999999</ele><time>2026-04-13T09:31:07.677Z</time></trkpt><trkpt lat="38.1174238" lon="-2.8013304"><ele>672.8</ele><time>2026-04-13T09:31:08.677Z</time></trkpt><trkpt lat="38.1174446" lon="-2.8014663"><ele>673.0</ele><time>2026-04-13T09:31:09.677Z</time></trkpt><trkpt lat="38.1174646" lon="-2.8016052"><ele>673.0</ele><time>2026-04-13T09:31:10.677Z</time></trkpt><trkpt lat="38.1174836" lon="-2.8017512"><ele>673.0</ele><time>2026-04-13T09:31:11.677Z</time></trkpt><trkpt lat="38.1174986" lon="-2.8018994"><ele>673.0</ele><time>2026-04-13T09:31:12.677Z</time></trkpt><trkpt lat="38.1175046" lon="-2.802049"><ele>673.0</ele><time>2026-04-13T09:31:13.677Z</time></trkpt><trkpt lat="38.117524" lon="-2.802191"><ele>675.0</ele><time>2026-04-13T09:31:14.677Z</time></trkpt><trkpt lat="38.1175185" lon="-2.8023445"><ele>677.0</ele><time>2026-04-13T09:31:15.677Z</time></trkpt><trkpt lat="38.1175207" lon="-2.8024961"><ele>679.0</ele><time>2026-04-13T09:31:16.677Z</time></trkpt><trkpt lat="38.1175318" lon="-2.8026405"><ele>681.0</ele><time>2026-04-13T09:31:17.677Z</time></trkpt><trkpt lat="38.1175382" lon="-2.8028006"><ele>681.75</ele><time>2026-04-13T09:31:18.677Z</time></trkpt><trkpt lat="38.1175353" lon="-2.8029605"><ele>682.5</ele><time>2026-04-13T09:31:19.677Z</time></trkpt><trkpt lat="38.1175242" lon="-2.8031152"><ele>683.25</ele><time>2026-04-13T09:31:20.677Z</time></trkpt><trkpt lat="38.1174971" lon="-2.8032713"><ele>684.0</ele><time>2026-04-13T09:31:21.677Z</time></trkpt><trkpt lat="38.1174751" lon="-2.8034256"><ele>684.25</ele><time>2026-04-13T09:31:22.677Z</time></trkpt><trkpt lat="38.1174524" lon="-2.8035835"><ele>684.5</ele><time>2026-04-13T09:31:23.677Z</time></trkpt><trkpt lat="38.1174336" lon="-2.8037422"><ele>684.75</ele><time>2026-04-13T09:31:24.677Z</time></trkpt><trkpt lat="38.1174127" lon="-2.8039006"><ele>685.0</ele><time>2026-04-13T09:31:25.677Z</time></trkpt><trkpt lat="38.1174028" lon="-2.8040686"><ele>691.0</ele><time>2026-04-13T09:31:26.677Z</time></trkpt><trkpt lat="38.1173868" lon="-2.8042302"><ele>697.0</ele><time>2026-04-13T09:31:27.677Z</time></trkpt><trkpt lat="38.1173763" lon="-2.804388"><ele>703.0</ele><time>2026-04-13T09:31:28.677Z</time></trkpt><trkpt lat="38.1173637" lon="-2.8045413"><ele>709.0</ele><time>2026-04-13T09:31:29.677Z</time></trkpt><trkpt lat="38.1173514" lon="-2.8046913"><ele>710.25</ele><time>2026-04-13T09:31:30.677Z</time></trkpt><trkpt lat="38.1173467" lon="-2.8048368"><ele>711.5</ele><time>2026-04-13T09:31:31.677Z</time></trkpt><trkpt lat="38.1173528" lon="-2.8049782"><ele>712.75</ele><time>2026-04-13T09:31:32.677Z</time></trkpt><trkpt lat="38.1173826" lon="-2.8051166"><ele>714.0</ele><time>2026-04-13T09:31:33.677Z</time></trkpt><trkpt lat="38.1174136" lon="-2.805258"><ele>710.25</ele><time>2026-04-13T09:31:34.677Z</time></trkpt><trkpt lat="38.1174476" lon="-2.8053979"><ele>706.5</ele><time>2026-04-13T09:31:35.677Z</time></trkpt><trkpt lat="38.1174976" lon="-2.805538"><ele>702.75</ele><time>2026-04-13T09:31:36.677Z</time></trkpt><trkpt lat="38.1175369" lon="-2.8056722"><ele>699.0</ele><time>2026-04-13T09:31:37.677Z</time></trkpt><trkpt lat="38.117561" lon="-2.8057974"><ele>699.0</ele><time>2026-04-13T09:31:38.677Z</time></trkpt><trkpt lat="38.1175711" lon="-2.8059304"><ele>699.0</ele><time>2026-04-13T09:31:39.677Z</time></trkpt><trkpt lat="38.1175716" lon="-2.8060541"><ele>699.0</ele><time>2026-04-13T09:31:40.677Z</time></trkpt><trkpt lat="38.1175748" lon="-2.8061752"><ele>699.0</ele><time>2026-04-13T09:31:41.677Z</time></trkpt><trkpt lat="38.1175993" lon="-2.8062892"><ele>699.0</ele><time>2026-04-13T09:31:42.677Z</time></trkpt><trkpt lat="38.1176297" lon="-2.806396"><ele>699.8000000000001</ele><time>2026-04-13T09:31:43.677Z</time></trkpt><trkpt lat="38.1176797" lon="-2.806496"><ele>700.6</ele><time>2026-04-13T09:31:44.677Z</time></trkpt><trkpt lat="38.1177423" lon="-2.806576"><ele>701.4</ele><time>2026-04-13T09:31:45.677Z</time></trkpt><trkpt lat="38.1178041" lon="-2.806632"><ele>702.2</ele><time>2026-04-13T09:31:46.677Z</time></trkpt><trkpt lat="38.1179046" lon="-2.8066632"><ele>703.0</ele><time>2026-04-13T09:31:47.677Z</time></trkpt><trkpt lat="38.1180088" lon="-2.8066718"><ele>703.0</ele><time>2026-04-13T09:31:48.677Z</time></trkpt><trkpt lat="38.1181077" lon="-2.8066733"><ele>703.0</ele><time>2026-04-13T09:31:49.678Z</time></trkpt><trkpt lat="38.1182003" lon="-2.8066778"><ele>703.0</ele><time>2026-04-13T09:31:50.677Z</time></trkpt><trkpt lat="38.1182786" lon="-2.8066058"><ele>703.0</ele><time>2026-04-13T09:31:51.677Z</time></trkpt><trkpt lat="38.1183344" lon="-2.8064934"><ele>703.0</ele><time>2026-04-13T09:31:52.677Z</time></trkpt><trkpt lat="38.1183752" lon="-2.8063748"><ele>702.75</ele><time>2026-04-13T09:31:53.677Z</time></trkpt><trkpt lat="38.1184069" lon="-2.8062488"><ele>702.5</ele><time>2026-04-13T09:31:54.677Z</time></trkpt><trkpt lat="38.1184328" lon="-2.8061073"><ele>702.25</ele><time>2026-04-13T09:31:55.677Z</time></trkpt><trkpt lat="38.118465" lon="-2.8059671"><ele>702.0</ele><time>2026-04-13T09:31:56.677Z</time></trkpt><trkpt lat="38.1185197" lon="-2.8058346"><ele>699.6</ele><time>2026-04-13T09:31:57.677Z</time></trkpt><trkpt lat="38.1185804" lon="-2.805718"><ele>697.2</ele><time>2026-04-13T09:31:58.677Z</time></trkpt><trkpt lat="38.1186476" lon="-2.8056289"><ele>694.8</ele><time>2026-04-13T09:31:59.677Z</time></trkpt><trkpt lat="38.1187387" lon="-2.8055509"><ele>692.4</ele><time>2026-04-13T09:32:00.677Z</time></trkpt><trkpt lat="38.1188226" lon="-2.8054697"><ele>690.0</ele><time>2026-04-13T09:32:01.677Z</time></trkpt><trkpt lat="38.1189062" lon="-2.8053827"><ele>690.0</ele><time>2026-04-13T09:32:02.677Z</time></trkpt><trkpt lat="38.1189864" lon="-2.8052811"><ele>690.0</ele><time>2026-04-13T09:32:03.677Z</time></trkpt><trkpt lat="38.1190625" lon="-2.8051783"><ele>690.0</ele><time>2026-04-13T09:32:04.677Z</time></trkpt><trkpt lat="38.1191416" lon="-2.8050686"><ele>690.0</ele><time>2026-04-13T09:32:05.677Z</time></trkpt><trkpt lat="38.1192194" lon="-2.8049627"><ele>690.6</ele><time>2026-04-13T09:32:06.677Z</time></trkpt><trkpt lat="38.119299" lon="-2.8048746"><ele>691.2</ele><time>2026-04-13T09:32:07.677Z</time></trkpt><trkpt lat="38.1193847" lon="-2.804822"><ele>691.8</ele><time>2026-04-13T09:32:08.678Z</time></trkpt><trkpt lat="38.1194687" lon="-2.8047627"><ele>692.4</ele><time>2026-04-13T09:32:09.677Z</time></trkpt><trkpt lat="38.1195655" lon="-2.8048391"><ele>693.0</ele><time>2026-04-13T09:32:10.677Z</time></trkpt><trkpt lat="38.1196445" lon="-2.8049123"><ele>693.0</ele><time>2026-04-13T09:32:11.677Z</time></trkpt><trkpt lat="38.1197074" lon="-2.8050163"><ele>693.0</ele><time>2026-04-13T09:32:12.677Z</time></trkpt><trkpt lat="38.1197765" lon="-2.8051361"><ele>693.0</ele><time>2026-04-13T09:32:13.677Z</time></trkpt><trkpt lat="38.119843" lon="-2.8052666"><ele>693.0</ele><time>2026-04-13T09:32:14.677Z</time></trkpt><trkpt lat="38.1199147" lon="-2.805404"><ele>694.75</ele><time>2026-04-13T09:32:15.677Z</time></trkpt><trkpt lat="38.1199909" lon="-2.8055442"><ele>696.5</ele><time>2026-04-13T09:32:16.677Z</time></trkpt><trkpt lat="38.1200672" lon="-2.8056843"><ele>698.25</ele><time>2026-04-13T09:32:17.677Z</time></trkpt><trkpt lat="38.1201385" lon="-2.8058223"><ele>700.0</ele><time>2026-04-13T09:32:18.677Z</time></trkpt><trkpt lat="38.1202135" lon="-2.8059591"><ele>703.5</ele><time>2026-04-13T09:32:19.677Z</time></trkpt><trkpt lat="38.1202897" lon="-2.8060917"><ele>707.0</ele><time>2026-04-13T09:32:20.677Z</time></trkpt><trkpt lat="38.1203655" lon="-2.8062231"><ele>710.5</ele><time>2026-04-13T09:32:21.677Z</time></trkpt><trkpt lat="38.1204431" lon="-2.8063478"><ele>714.0</ele><time>2026-04-13T09:32:22.677Z</time></trkpt><trkpt lat="38.1205311" lon="-2.8064485"><ele>714.0</ele><time>2026-04-13T09:32:23.677Z</time></trkpt><trkpt lat="38.1206175" lon="-2.8065263"><ele>714.0</ele><time>2026-04-13T09:32:24.677Z</time></trkpt><trkpt lat="38.1207056" lon="-2.8065769"><ele>714.0</ele><time>2026-04-13T09:32:25.677Z</time></trkpt><trkpt lat="38.1208015" lon="-2.8065998"><ele>714.0</ele><time>2026-04-13T09:32:26.677Z</time></trkpt><trkpt lat="38.1208929" lon="-2.8065912"><ele>714.0</ele><time>2026-04-13T09:32:27.677Z</time></trkpt><trkpt lat="38.1209801" lon="-2.8065448"><ele>711.2</ele><time>2026-04-13T09:32:28.677Z</time></trkpt><trkpt lat="38.1210569" lon="-2.806466"><ele>708.4000000000001</ele><time>2026-04-13T09:32:29.677Z</time></trkpt><trkpt lat="38.1211255" lon="-2.8063868"><ele>705.6</ele><time>2026-04-13T09:32:30.677Z</time></trkpt><trkpt lat="38.1211901" lon="-2.8062531"><ele>702.8</ele><time>2026-04-13T09:32:31.677Z</time></trkpt><trkpt lat="38.121249" lon="-2.8061341"><ele>700.0</ele><time>2026-04-13T09:32:32.677Z</time></trkpt><trkpt lat="38.1212807" lon="-2.805972"><ele>696.5</ele><time>2026-04-13T09:32:33.677Z</time></trkpt><trkpt lat="38.1213156" lon="-2.8058182"><ele>693.0</ele><time>2026-04-13T09:32:34.677Z</time></trkpt><trkpt lat="38.1213466" lon="-2.8056535"><ele>689.5</ele><time>2026-04-13T09:32:35.677Z</time></trkpt><trkpt lat="38.1213796" lon="-2.8054908"><ele>686.0</ele><time>2026-04-13T09:32:36.677Z</time></trkpt><trkpt lat="38.1214078" lon="-2.8053256"><ele>686.0</ele><time>2026-04-13T09:32:37.677Z</time></trkpt><trkpt lat="38.1214297" lon="-2.8051649"><ele>686.0</ele><time>2026-04-13T09:32:38.677Z</time></trkpt><trkpt lat="38.1214475" lon="-2.8050218"><ele>686.0</ele><time>2026-04-13T09:32:39.678Z</time></trkpt><trkpt lat="38.1214668" lon="-2.8048887"><ele>686.0</ele><time>2026-04-13T09:32:40.677Z</time></trkpt><trkpt lat="38.1214894" lon="-2.8047714"><ele>686.0</ele><time>2026-04-13T09:32:41.677Z</time></trkpt><trkpt lat="38.1215319" lon="-2.8046569"><ele>686.4</ele><time>2026-04-13T09:32:42.677Z</time></trkpt><trkpt lat="38.1215969" lon="-2.8045568"><ele>686.8</ele><time>2026-04-13T09:32:43.677Z</time></trkpt><trkpt lat="38.1216819" lon="-2.8044765"><ele>687.1999999999999</ele><time>2026-04-13T09:32:44.677Z</time></trkpt><trkpt lat="38.1217821" lon="-2.8043927"><ele>687.5999999999999</ele><time>2026-04-13T09:32:45.677Z</time></trkpt><trkpt lat="38.1218834" lon="-2.8043096"><ele>688.0</ele><time>2026-04-13T09:32:46.677Z</time></trkpt><trkpt lat="38.1219707" lon="-2.8042304"><ele>685.2</ele><time>2026-04-13T09:32:47.677Z</time></trkpt><trkpt lat="38.1220438" lon="-2.8041441"><ele>682.4</ele><time>2026-04-13T09:32:48.677Z</time></trkpt><trkpt lat="38.1220933" lon="-2.8040337"><ele>679.6</ele><time>2026-04-13T09:32:49.677Z</time></trkpt><trkpt lat="38.1221269" lon="-2.8039037"><ele>676.8000000000001</ele><time>2026-04-13T09:32:50.677Z</time></trkpt><trkpt lat="38.1221325" lon="-2.8037625"><ele>674.0</ele><time>2026-04-13T09:32:51.677Z</time></trkpt><trkpt lat="38.122147" lon="-2.8036214"><ele>672.25</ele><time>2026-04-13T09:32:52.677Z</time></trkpt><trkpt lat="38.1221508" lon="-2.8034731"><ele>670.5</ele><time>2026-04-13T09:32:53.677Z</time></trkpt><trkpt lat="38.1221687" lon="-2.8033226"><ele>668.75</ele><time>2026-04-13T09:32:54.677Z</time></trkpt><trkpt lat="38.1221901" lon="-2.8031716"><ele>667.0</ele><time>2026-04-13T09:32:55.678Z</time></trkpt><trkpt lat="38.1222147" lon="-2.803018"><ele>667.0</ele><time>2026-04-13T09:32:56.677Z</time></trkpt><trkpt lat="38.1222388" lon="-2.8028657"><ele>667.0</ele><time>2026-04-13T09:32:57.677Z</time></trkpt><trkpt lat="38.1222616" lon="-2.8027127"><ele>667.0</ele><time>2026-04-13T09:32:58.677Z</time></trkpt><trkpt lat="38.1222843" lon="-2.802563"><ele>667.0</ele><time>2026-04-13T09:32:59.677Z</time></trkpt><trkpt lat="38.1223003" lon="-2.8024183"><ele>665.75</ele><time>2026-04-13T09:33:00.677Z</time></trkpt><trkpt lat="38.1223179" lon="-2.8022745"><ele>664.5</ele><time>2026-04-13T09:33:01.677Z</time></trkpt><trkpt lat="38.1223432" lon="-2.8021269"><ele>663.25</ele><time>2026-04-13T09:33:02.677Z</time></trkpt><trkpt lat="38.1223672" lon="-2.8019825"><ele>662.0</ele><time>2026-04-13T09:33:03.677Z</time></trkpt><trkpt lat="38.1223891" lon="-2.8018374"><ele>667.25</ele><time>2026-04-13T09:33:04.677Z</time></trkpt><trkpt lat="38.1224221" lon="-2.8016948"><ele>672.5</ele><time>2026-04-13T09:33:05.677Z</time></trkpt><trkpt lat="38.1224634" lon="-2.8015511"><ele>677.75</ele><time>2026-04-13T09:33:06.677Z</time></trkpt><trkpt lat="38.122519" lon="-2.8014092"><ele>683.0</ele><time>2026-04-13T09:33:07.677Z</time></trkpt><trkpt lat="38.1225816" lon="-2.8012704"><ele>683.0</ele><time>2026-04-13T09:33:08.677Z</time></trkpt><trkpt lat="38.1226513" lon="-2.8011277"><ele>683.0</ele><time>2026-04-13T09:33:09.677Z</time></trkpt><trkpt lat="38.1227257" lon="-2.8009917"><ele>683.0</ele><time>2026-04-13T09:33:10.677Z</time></trkpt><trkpt lat="38.1228003" lon="-2.8008569"><ele>683.0</ele><time>2026-04-13T09:33:11.677Z</time></trkpt><trkpt lat="38.122886" lon="-2.8007297"><ele>681.25</ele><time>2026-04-13T09:33:12.677Z</time></trkpt><trkpt lat="38.1229527" lon="-2.8006016"><ele>679.5</ele><time>2026-04-13T09:33:13.677Z</time></trkpt><trkpt lat="38.1230145" lon="-2.800478"><ele>677.75</ele><time>2026-04-13T09:33:14.677Z</time></trkpt><trkpt lat="38.1230741" lon="-2.8003567"><ele>676.0</ele><time>2026-04-13T09:33:15.677Z</time></trkpt><trkpt lat="38.1231512" lon="-2.8002425"><ele>678.1999999999999</ele><time>2026-04-13T09:33:16.677Z</time></trkpt><trkpt lat="38.123237" lon="-2.8001574"><ele>680.4</ele><time>2026-04-13T09:33:17.677Z</time></trkpt><trkpt lat="38.12333" lon="-2.8000921"><ele>682.6</ele><time>2026-04-13T09:33:18.677Z</time></trkpt><trkpt lat="38.1234259" lon="-2.8000422"><ele>684.8</ele><time>2026-04-13T09:33:19.677Z</time></trkpt><trkpt lat="38.1235099" lon="-2.7999767"><ele>687.0</ele><time>2026-04-13T09:33:20.677Z</time></trkpt><trkpt lat="38.1235704" lon="-2.7998853"><ele>687.0</ele><time>2026-04-13T09:33:21.677Z</time></trkpt><trkpt lat="38.1235942" lon="-2.7997729"><ele>687.0</ele><time>2026-04-13T09:33:22.677Z</time></trkpt><trkpt lat="38.1235815" lon="-2.7996534"><ele>687.0</ele><time>2026-04-13T09:33:23.677Z</time></trkpt><trkpt lat="38.1235338" lon="-2.7995379"><ele>687.0</ele><time>2026-04-13T09:33:24.677Z</time></trkpt><trkpt lat="38.1234687" lon="-2.7994154"><ele>687.0</ele><time>2026-04-13T09:33:25.677Z</time></trkpt><trkpt lat="38.1233931" lon="-2.7992947"><ele>688.25</ele><time>2026-04-13T09:33:26.677Z</time></trkpt><trkpt lat="38.123315" lon="-2.7991738"><ele>689.5</ele><time>2026-04-13T09:33:27.677Z</time></trkpt><trkpt lat="38.1231987" lon="-2.7990791"><ele>690.75</ele><time>2026-04-13T09:33:28.677Z</time></trkpt><trkpt lat="38.1230997" lon="-2.798978"><ele>692.0</ele><time>2026-04-13T09:33:29.677Z</time></trkpt><trkpt lat="38.1229995" lon="-2.7988873"><ele>690.0</ele><time>2026-04-13T09:33:30.677Z</time></trkpt><trkpt lat="38.1229057" lon="-2.7988003"><ele>688.0</ele><time>2026-04-13T09:33:31.678Z</time></trkpt><trkpt lat="38.1228186" lon="-2.7987117"><ele>686.0</ele><time>2026-04-13T09:33:32.677Z</time></trkpt><trkpt lat="38.1227321" lon="-2.7986313"><ele>684.0</ele><time>2026-04-13T09:33:33.677Z</time></trkpt><trkpt lat="38.1226492" lon="-2.7985542"><ele>682.0</ele><time>2026-04-13T09:33:34.677Z</time></trkpt><trkpt lat="38.1225672" lon="-2.7984766"><ele>682.0</ele><time>2026-04-13T09:33:35.677Z</time></trkpt><trkpt lat="38.1224848" lon="-2.7983975"><ele>682.0</ele><time>2026-04-13T09:33:36.677Z</time></trkpt><trkpt lat="38.122405" lon="-2.7983195"><ele>682.0</ele><time>2026-04-13T09:33:37.677Z</time></trkpt><trkpt lat="38.1223513" lon="-2.7982188"><ele>682.0</ele><time>2026-04-13T09:33:38.677Z</time></trkpt><trkpt lat="38.1223267" lon="-2.7981024"><ele>682.0</ele><time>2026-04-13T09:33:39.677Z</time></trkpt><trkpt lat="38.1223366" lon="-2.7979779"><ele>682.0</ele><time>2026-04-13T09:33:40.677Z</time></trkpt><trkpt lat="38.1223719" lon="-2.7978448"><ele>682.0</ele><time>2026-04-13T09:33:41.677Z</time></trkpt><trkpt lat="38.1224174" lon="-2.7977186"><ele>682.0</ele><time>2026-04-13T09:33:42.677Z</time></trkpt><trkpt lat="38.1224752" lon="-2.797596"><ele>682.0</ele><time>2026-04-13T09:33:43.677Z</time></trkpt><trkpt lat="38.1225308" lon="-2.7974635"><ele>682.75</ele><time>2026-04-13T09:33:44.677Z</time></trkpt><trkpt lat="38.122607" lon="-2.7973565"><ele>683.5</ele><time>2026-04-13T09:33:45.677Z</time></trkpt><trkpt lat="38.1226738" lon="-2.797231"><ele>684.25</ele><time>2026-04-13T09:33:46.677Z</time></trkpt><trkpt lat="38.1227442" lon="-2.7971031"><ele>685.0</ele><time>2026-04-13T09:33:47.677Z</time></trkpt><trkpt lat="38.1228113" lon="-2.796976"><ele>685.0</ele><time>2026-04-13T09:33:48.677Z</time></trkpt><trkpt lat="38.1228816" lon="-2.7968459"><ele>685.0</ele><time>2026-04-13T09:33:49.677Z</time></trkpt><trkpt lat="38.1229535" lon="-2.796717"><ele>685.0</ele><time>2026-04-13T09:33:50.677Z</time></trkpt><trkpt lat="38.1230227" lon="-2.7965907"><ele>685.0</ele><time>2026-04-13T09:33:51.678Z</time></trkpt><trkpt lat="38.1230927" lon="-2.7964599"><ele>685.25</ele><time>2026-04-13T09:33:52.677Z</time></trkpt><trkpt lat="38.1231547" lon="-2.7963228"><ele>685.5</ele><time>2026-04-13T09:33:53.677Z</time></trkpt><trkpt lat="38.1232078" lon="-2.7961853"><ele>685.75</ele><time>2026-04-13T09:33:54.677Z</time></trkpt><trkpt lat="38.1232639" lon="-2.7960541"><ele>686.0</ele><time>2026-04-13T09:33:55.677Z</time></trkpt><trkpt lat="38.1233177" lon="-2.7959211"><ele>686.0</ele><time>2026-04-13T09:33:56.677Z</time></trkpt><trkpt lat="38.1233655" lon="-2.7957892"><ele>686.0</ele><time>2026-04-13T09:33:57.677Z</time></trkpt><trkpt lat="38.1234096" lon="-2.7956558"><ele>686.0</ele><time>2026-04-13T09:33:58.677Z</time></trkpt><trkpt lat="38.1234617" lon="-2.7955374"><ele>686.0</ele><time>2026-04-13T09:33:59.677Z</time></trkpt><trkpt lat="38.1235343" lon="-2.7954364"><ele>686.0</ele><time>2026-04-13T09:34:00.678Z</time></trkpt><trkpt lat="38.1236251" lon="-2.7953831"><ele>686.0</ele><time>2026-04-13T09:34:01.677Z</time></trkpt><trkpt lat="38.123723" lon="-2.7953564"><ele>686.0</ele><time>2026-04-13T09:34:02.677Z</time></trkpt><trkpt lat="38.12383" lon="-2.7953691"><ele>686.0</ele><time>2026-04-13T09:34:03.677Z</time></trkpt><trkpt lat="38.1239283" lon="-2.79542"><ele>686.0</ele><time>2026-04-13T09:34:04.677Z</time></trkpt><trkpt lat="38.1240264" lon="-2.7954912"><ele>686.0</ele><time>2026-04-13T09:34:05.677Z</time></trkpt><trkpt lat="38.1241284" lon="-2.7955723"><ele>686.75</ele><time>2026-04-13T09:34:06.677Z</time></trkpt><trkpt lat="38.124229" lon="-2.795659"><ele>687.5</ele><time>2026-04-13T09:34:07.677Z</time></trkpt><trkpt lat="38.1243256" lon="-2.7957584"><ele>688.25</ele><time>2026-04-13T09:34:08.677Z</time></trkpt><trkpt lat="38.1244351" lon="-2.7958445"><ele>689.0</ele><time>2026-04-13T09:34:09.677Z</time></trkpt><trkpt lat="38.1245332" lon="-2.7959375"><ele>691.75</ele><time>2026-04-13T09:34:10.678Z</time></trkpt><trkpt lat="38.1246375" lon="-2.7960277"><ele>694.5</ele><time>2026-04-13T09:34:11.677Z</time></trkpt><trkpt lat="38.1247398" lon="-2.7961181"><ele>697.25</ele><time>2026-04-13T09:34:12.677Z</time></trkpt><trkpt lat="38.1248374" lon="-2.7962067"><ele>700.0</ele><time>2026-04-13T09:34:13.678Z</time></trkpt><trkpt lat="38.1249278" lon="-2.7962892"><ele>700.2</ele><time>2026-04-13T09:34:14.677Z</time></trkpt><trkpt lat="38.1250255" lon="-2.7963501"><ele>700.4</ele><time>2026-04-13T09:34:15.678Z</time></trkpt><trkpt lat="38.1251311" lon="-2.7964119"><ele>700.5999999999999</ele><time>2026-04-13T09:34:16.677Z</time></trkpt><trkpt lat="38.1252335" lon="-2.7963641"><ele>700.8</ele><time>2026-04-13T09:34:17.677Z</time></trkpt><trkpt lat="38.1253103" lon="-2.796295"><ele>701.0</ele><time>2026-04-13T09:34:18.677Z</time></trkpt><trkpt lat="38.1253639" lon="-2.7961904"><ele>701.0</ele><time>2026-04-13T09:34:19.677Z</time></trkpt><trkpt lat="38.1253745" lon="-2.7960559"><ele>701.0</ele><time>2026-04-13T09:34:20.677Z</time></trkpt><trkpt lat="38.125365" lon="-2.7959148"><ele>701.0</ele><time>2026-04-13T09:34:21.677Z</time></trkpt><trkpt lat="38.1253372" lon="-2.7957654"><ele>701.0</ele><time>2026-04-13T09:34:22.677Z</time></trkpt><trkpt lat="38.1253094" lon="-2.7956167"><ele>696.75</ele><time>2026-04-13T09:34:23.677Z</time></trkpt><trkpt lat="38.1252819" lon="-2.7954596"><ele>692.5</ele><time>2026-04-13T09:34:24.677Z</time></trkpt><trkpt lat="38.1252541" lon="-2.7953088"><ele>688.25</ele><time>2026-04-13T09:34:25.678Z</time></trkpt><trkpt lat="38.1252288" lon="-2.7951529"><ele>684.0</ele><time>2026-04-13T09:34:26.677Z</time></trkpt><trkpt lat="38.1252108" lon="-2.7949929"><ele>682.0</ele><time>2026-04-13T09:34:27.677Z</time></trkpt><trkpt lat="38.1251935" lon="-2.7948375"><ele>680.0</ele><time>2026-04-13T09:34:28.677Z</time></trkpt><trkpt lat="38.1251782" lon="-2.7946823"><ele>678.0</ele><time>2026-04-13T09:34:29.677Z</time></trkpt><trkpt lat="38.1251663" lon="-2.7945275"><ele>676.0</ele><time>2026-04-13T09:34:30.677Z</time></trkpt><trkpt lat="38.125156" lon="-2.7943783"><ele>675.8</ele><time>2026-04-13T09:34:31.677Z</time></trkpt><trkpt lat="38.1251469" lon="-2.7942316"><ele>675.5999999999999</ele><time>2026-04-13T09:34:32.677Z</time></trkpt><trkpt lat="38.1251398" lon="-2.7940885"><ele>675.4</ele><time>2026-04-13T09:34:33.677Z</time></trkpt><trkpt lat="38.1251283" lon="-2.7939516"><ele>675.2</ele><time>2026-04-13T09:34:34.677Z</time></trkpt><trkpt lat="38.1251258" lon="-2.7938164"><ele>675.0</ele><time>2026-04-13T09:34:35.677Z</time></trkpt><trkpt lat="38.1251327" lon="-2.793682"><ele>675.0</ele><time>2026-04-13T09:34:36.677Z</time></trkpt><trkpt lat="38.1251531" lon="-2.7935502"><ele>675.0</ele><time>2026-04-13T09:34:37.677Z</time></trkpt><trkpt lat="38.1251865" lon="-2.7934204"><ele>675.0</ele><time>2026-04-13T09:34:38.677Z</time></trkpt><trkpt lat="38.125235" lon="-2.7933114"><ele>675.0</ele><time>2026-04-13T09:34:39.677Z</time></trkpt><trkpt lat="38.1253042" lon="-2.7932241"><ele>675.0</ele><time>2026-04-13T09:34:40.677Z</time></trkpt><trkpt lat="38.1253951" lon="-2.7931735"><ele>674.4</ele><time>2026-04-13T09:34:41.677Z</time></trkpt><trkpt lat="38.1254946" lon="-2.79314"><ele>673.8</ele><time>2026-04-13T09:34:42.677Z</time></trkpt><trkpt lat="38.1256031" lon="-2.7931342"><ele>673.2</ele><time>2026-04-13T09:34:43.677Z</time></trkpt><trkpt lat="38.1257126" lon="-2.7931397"><ele>672.6</ele><time>2026-04-13T09:34:44.677Z</time></trkpt><trkpt lat="38.1258256" lon="-2.7931431"><ele>672.0</ele><time>2026-04-13T09:34:45.677Z</time></trkpt><trkpt lat="38.1259441" lon="-2.7931454"><ele>676.75</ele><time>2026-04-13T09:34:46.677Z</time></trkpt><trkpt lat="38.1260594" lon="-2.7931522"><ele>681.5</ele><time>2026-04-13T09:34:47.677Z</time></trkpt><trkpt lat="38.1261744" lon="-2.7931594"><ele>686.25</ele><time>2026-04-13T09:34:48.677Z</time></trkpt><trkpt lat="38.1262865" lon="-2.7931641"><ele>691.0</ele><time>2026-04-13T09:34:49.677Z</time></trkpt><trkpt lat="38.1263978" lon="-2.7931631"><ele>691.0</ele><time>2026-04-13T09:34:50.677Z</time></trkpt><trkpt lat="38.1265054" lon="-2.7931328"><ele>691.0</ele><time>2026-04-13T09:34:51.677Z</time></trkpt><trkpt lat="38.1266062" lon="-2.7930707"><ele>691.0</ele><time>2026-04-13T09:34:52.677Z</time></trkpt><trkpt lat="38.1266989" lon="-2.7929876"><ele>691.0</ele><time>2026-04-13T09:34:53.678Z</time></trkpt><trkpt lat="38.1267844" lon="-2.7928813"><ele>692.5</ele><time>2026-04-13T09:34:54.677Z</time></trkpt><trkpt lat="38.1268559" lon="-2.792766"><ele>694.0</ele><time>2026-04-13T09:34:55.677Z</time></trkpt><trkpt lat="38.1269239" lon="-2.7926394"><ele>695.5</ele><time>2026-04-13T09:34:56.677Z</time></trkpt><trkpt lat="38.1269911" lon="-2.7925135"><ele>697.0</ele><time>2026-04-13T09:34:57.677Z</time></trkpt><trkpt lat="38.1270508" lon="-2.7923816"><ele>693.0</ele><time>2026-04-13T09:34:58.677Z</time></trkpt><trkpt lat="38.1271105" lon="-2.7922593"><ele>689.0</ele><time>2026-04-13T09:34:59.677Z</time></trkpt><trkpt lat="38.127166" lon="-2.7921374"><ele>685.0</ele><time>2026-04-13T09:35:00.677Z</time></trkpt><trkpt lat="38.1272248" lon="-2.7920189"><ele>681.0</ele><time>2026-04-13T09:35:01.677Z</time></trkpt><trkpt lat="38.1272821" lon="-2.791908"><ele>677.0</ele><time>2026-04-13T09:35:02.677Z</time></trkpt><trkpt lat="38.1273462" lon="-2.7917803"><ele>679.5</ele><time>2026-04-13T09:35:03.677Z</time></trkpt><trkpt lat="38.1274126" lon="-2.7916506"><ele>682.0</ele><time>2026-04-13T09:35:04.677Z</time></trkpt><trkpt lat="38.1274779" lon="-2.791529"><ele>684.5</ele><time>2026-04-13T09:35:05.677Z</time></trkpt><trkpt lat="38.1275323" lon="-2.7914035"><ele>687.0</ele><time>2026-04-13T09:35:06.677Z</time></trkpt><trkpt lat="38.1275881" lon="-2.7912747"><ele>687.0</ele><time>2026-04-13T09:35:07.677Z</time></trkpt><trkpt lat="38.1276485" lon="-2.791146"><ele>687.0</ele><time>2026-04-13T09:35:08.677Z</time></trkpt><trkpt lat="38.1277105" lon="-2.7910136"><ele>687.0</ele><time>2026-04-13T09:35:09.677Z</time></trkpt><trkpt lat="38.1277714" lon="-2.7908861"><ele>687.0</ele><time>2026-04-13T09:35:10.677Z</time></trkpt><trkpt lat="38.1278295" lon="-2.7907635"><ele>684.6</ele><time>2026-04-13T09:35:11.677Z</time></trkpt><trkpt lat="38.1278881" lon="-2.7906402"><ele>682.2</ele><time>2026-04-13T09:35:12.677Z</time></trkpt><trkpt lat="38.1279202" lon="-2.7905371"><ele>679.8</ele><time>2026-04-13T09:35:13.677Z</time></trkpt><trkpt lat="38.127946" lon="-2.7904118"><ele>677.4</ele><time>2026-04-13T09:35:14.677Z</time></trkpt><trkpt lat="38.1279368" lon="-2.7902792"><ele>675.0</ele><time>2026-04-13T09:35:15.677Z</time></trkpt><trkpt lat="38.127897" lon="-2.7901585"><ele>674.4</ele><time>2026-04-13T09:35:16.677Z</time></trkpt><trkpt lat="38.1278607" lon="-2.7900335"><ele>673.8</ele><time>2026-04-13T09:35:17.677Z</time></trkpt><trkpt lat="38.1278195" lon="-2.7899063"><ele>673.2</ele><time>2026-04-13T09:35:18.678Z</time></trkpt><trkpt lat="38.1277893" lon="-2.7897793"><ele>672.6</ele><time>2026-04-13T09:35:19.677Z</time></trkpt><trkpt lat="38.1277813" lon="-2.7896499"><ele>672.0</ele><time>2026-04-13T09:35:20.677Z</time></trkpt><trkpt lat="38.1278234" lon="-2.7895398"><ele>672.0</ele><time>2026-04-13T09:35:21.677Z</time></trkpt><trkpt lat="38.1278691" lon="-2.7894277"><ele>672.0</ele><time>2026-04-13T09:35:22.677Z</time></trkpt><trkpt lat="38.1279244" lon="-2.7893211"><ele>672.0</ele><time>2026-04-13T09:35:23.677Z</time></trkpt><trkpt lat="38.1279791" lon="-2.7892029"><ele>672.0</ele><time>2026-04-13T09:35:24.678Z</time></trkpt><trkpt lat="38.128034" lon="-2.7890915"><ele>672.0</ele><time>2026-04-13T09:35:25.677Z</time></trkpt><trkpt lat="38.1281035" lon="-2.7889945"><ele>672.4000000000001</ele><time>2026-04-13T09:35:26.677Z</time></trkpt><trkpt lat="38.1281824" lon="-2.7889158"><ele>672.8000000000001</ele><time>2026-04-13T09:35:27.677Z</time></trkpt><trkpt lat="38.1282778" lon="-2.7888483"><ele>673.2</ele><time>2026-04-13T09:35:28.677Z</time></trkpt><trkpt lat="38.1283722" lon="-2.7887851"><ele>673.6</ele><time>2026-04-13T09:35:29.677Z</time></trkpt><trkpt lat="38.1284778" lon="-2.7887271"><ele>674.0</ele><time>2026-04-13T09:35:30.677Z</time></trkpt><trkpt lat="38.1285838" lon="-2.7886722"><ele>674.5</ele><time>2026-04-13T09:35:31.677Z</time></trkpt><trkpt lat="38.1286937" lon="-2.7886191"><ele>675.0</ele><time>2026-04-13T09:35:32.677Z</time></trkpt><trkpt lat="38.1288066" lon="-2.7885631"><ele>675.5</ele><time>2026-04-13T09:35:33.677Z</time></trkpt><trkpt lat="38.1289112" lon="-2.7884927"><ele>676.0</ele><time>2026-04-13T09:35:34.677Z</time></trkpt><trkpt lat="38.1290213" lon="-2.7884287"><ele>679.25</ele><time>2026-04-13T09:35:35.677Z</time></trkpt><trkpt lat="38.1291261" lon="-2.7883519"><ele>682.5</ele><time>2026-04-13T09:35:36.677Z</time></trkpt><trkpt lat="38.1292292" lon="-2.7882761"><ele>685.75</ele><time>2026-04-13T09:35:37.677Z</time></trkpt><trkpt lat="38.1293264" lon="-2.7881762"><ele>689.0</ele><time>2026-04-13T09:35:38.677Z</time></trkpt><trkpt lat="38.1294151" lon="-2.7880783"><ele>689.0</ele><time>2026-04-13T09:35:39.677Z</time></trkpt><trkpt lat="38.129491" lon="-2.787963"><ele>689.0</ele><time>2026-04-13T09:35:40.677Z</time></trkpt><trkpt lat="38.129548" lon="-2.7878273"><ele>689.0</ele><time>2026-04-13T09:35:41.677Z</time></trkpt><trkpt lat="38.1296042" lon="-2.7876885"><ele>689.0</ele><time>2026-04-13T09:35:42.677Z</time></trkpt><trkpt lat="38.129657" lon="-2.7875582"><ele>692.25</ele><time>2026-04-13T09:35:43.677Z</time></trkpt><trkpt lat="38.129708" lon="-2.7874297"><ele>695.5</ele><time>2026-04-13T09:35:44.677Z</time></trkpt><trkpt lat="38.1297656" lon="-2.7873004"><ele>698.75</ele><time>2026-04-13T09:35:45.677Z</time></trkpt><trkpt lat="38.1298309" lon="-2.7871787"><ele>702.0</ele><time>2026-04-13T09:35:46.677Z</time></trkpt><trkpt lat="38.1299026" lon="-2.7870575"><ele>702.0</ele><time>2026-04-13T09:35:47.677Z</time></trkpt><trkpt lat="38.1299757" lon="-2.7869418"><ele>702.0</ele><time>2026-04-13T09:35:48.677Z</time></trkpt><trkpt lat="38.1300605" lon="-2.7868213"><ele>702.0</ele><time>2026-04-13T09:35:49.677Z</time></trkpt><trkpt lat="38.1301391" lon="-2.7867143"><ele>702.0</ele><time>2026-04-13T09:35:50.677Z</time></trkpt><trkpt lat="38.1302274" lon="-2.7866028"><ele>696.25</ele><time>2026-04-13T09:35:51.677Z</time></trkpt><trkpt lat="38.1303178" lon="-2.786502"><ele>690.5</ele><time>2026-04-13T09:35:52.677Z</time></trkpt><trkpt lat="38.1304159" lon="-2.786398"><ele>684.75</ele><time>2026-04-13T09:35:53.678Z</time></trkpt><trkpt lat="38.1305107" lon="-2.786297"><ele>679.0</ele><time>2026-04-13T09:35:54.677Z</time></trkpt><trkpt lat="38.1306028" lon="-2.7862003"><ele>679.0</ele><time>2026-04-13T09:35:55.677Z</time></trkpt><trkpt lat="38.1306975" lon="-2.7860965"><ele>679.0</ele><time>2026-04-13T09:35:56.677Z</time></trkpt><trkpt lat="38.1307894" lon="-2.785995"><ele>679.0</ele><time>2026-04-13T09:35:57.678Z</time></trkpt><trkpt lat="38.1308814" lon="-2.7858896"><ele>679.0</ele><time>2026-04-13T09:35:58.677Z</time></trkpt><trkpt lat="38.1309764" lon="-2.7857871"><ele>681.75</ele><time>2026-04-13T09:35:59.677Z</time></trkpt><trkpt lat="38.1310686" lon="-2.7856818"><ele>684.5</ele><time>2026-04-13T09:36:00.677Z</time></trkpt><trkpt lat="38.1311535" lon="-2.7855649"><ele>687.25</ele><time>2026-04-13T09:36:01.677Z</time></trkpt><trkpt lat="38.1312215" lon="-2.7854383"><ele>690.0</ele><time>2026-04-13T09:36:02.677Z</time></trkpt><trkpt lat="38.131292" lon="-2.7853129"><ele>690.0</ele><time>2026-04-13T09:36:03.677Z</time></trkpt><trkpt lat="38.1313582" lon="-2.7851845"><ele>690.0</ele><time>2026-04-13T09:36:04.677Z</time></trkpt><trkpt lat="38.1314291" lon="-2.7850699"><ele>690.0</ele><time>2026-04-13T09:36:05.677Z</time></trkpt><trkpt lat="38.131522" lon="-2.7849709"><ele>690.0</ele><time>2026-04-13T09:36:06.677Z</time></trkpt><trkpt lat="38.1316254" lon="-2.7849021"><ele>691.25</ele><time>2026-04-13T09:36:07.677Z</time></trkpt><trkpt lat="38.1317327" lon="-2.7848471"><ele>692.5</ele><time>2026-04-13T09:36:08.678Z</time></trkpt><trkpt lat="38.1318354" lon="-2.7847797"><ele>693.75</ele><time>2026-04-13T09:36:09.677Z</time></trkpt><trkpt lat="38.1319299" lon="-2.7846963"><ele>695.0</ele><time>2026-04-13T09:36:10.677Z</time></trkpt><trkpt lat="38.1320203" lon="-2.7845942"><ele>695.0</ele><time>2026-04-13T09:36:11.677Z</time></trkpt><trkpt lat="38.1320972" lon="-2.7844825"><ele>695.0</ele><time>2026-04-13T09:36:12.677Z</time></trkpt><trkpt lat="38.1321763" lon="-2.7843709"><ele>695.0</ele><time>2026-04-13T09:36:13.677Z</time></trkpt><trkpt lat="38.1322647" lon="-2.7842708"><ele>695.0</ele><time>2026-04-13T09:36:14.677Z</time></trkpt><trkpt lat="38.1323706" lon="-2.7841999"><ele>694.0</ele><time>2026-04-13T09:36:15.677Z</time></trkpt><trkpt lat="38.1324773" lon="-2.7841448"><ele>693.0</ele><time>2026-04-13T09:36:16.677Z</time></trkpt><trkpt lat="38.1326009" lon="-2.7841189"><ele>692.0</ele><time>2026-04-13T09:36:17.677Z</time></trkpt><trkpt lat="38.1327243" lon="-2.7841084"><ele>691.0</ele><time>2026-04-13T09:36:18.677Z</time></trkpt><trkpt lat="38.1328477" lon="-2.784099"><ele>691.0</ele><time>2026-04-13T09:36:19.677Z</time></trkpt><trkpt lat="38.1329723" lon="-2.7840857"><ele>691.0</ele><time>2026-04-13T09:36:20.677Z</time></trkpt><trkpt lat="38.1330954" lon="-2.7840581"><ele>691.0</ele><time>2026-04-13T09:36:21.677Z</time></trkpt><trkpt lat="38.1332128" lon="-2.7840283"><ele>691.0</ele><time>2026-04-13T09:36:22.677Z</time></trkpt><trkpt lat="38.1333245" lon="-2.7840281"><ele>692.75</ele><time>2026-04-13T09:36:23.677Z</time></trkpt><trkpt lat="38.133447" lon="-2.7840418"><ele>694.5</ele><time>2026-04-13T09:36:24.677Z</time></trkpt><trkpt lat="38.1335706" lon="-2.7840701"><ele>696.25</ele><time>2026-04-13T09:36:25.677Z</time></trkpt><trkpt lat="38.1336906" lon="-2.7841156"><ele>698.0</ele><time>2026-04-13T09:36:26.677Z</time></trkpt><trkpt lat="38.1338115" lon="-2.7841622"><ele>698.0</ele><time>2026-04-13T09:36:27.677Z</time></trkpt><trkpt lat="38.1339443" lon="-2.7841962"><ele>698.0</ele><time>2026-04-13T09:36:28.677Z</time></trkpt><trkpt lat="38.1340699" lon="-2.7842247"><ele>698.0</ele><time>2026-04-13T09:36:29.677Z</time></trkpt><trkpt lat="38.1342151" lon="-2.784232"><ele>698.0</ele><time>2026-04-13T09:36:30.677Z</time></trkpt><trkpt lat="38.1343507" lon="-2.7842302"><ele>697.75</ele><time>2026-04-13T09:36:31.677Z</time></trkpt><trkpt lat="38.1344864" lon="-2.7842285"><ele>697.5</ele><time>2026-04-13T09:36:32.677Z</time></trkpt><trkpt lat="38.1346237" lon="-2.7842382"><ele>697.25</ele><time>2026-04-13T09:36:33.677Z</time></trkpt><trkpt lat="38.1347469" lon="-2.78425"><ele>697.0</ele><time>2026-04-13T09:36:34.677Z</time></trkpt><trkpt lat="38.1348733" lon="-2.7842692"><ele>696.25</ele><time>2026-04-13T09:36:35.677Z</time></trkpt><trkpt lat="38.1350011" lon="-2.7842815"><ele>695.5</ele><time>2026-04-13T09:36:36.677Z</time></trkpt><trkpt lat="38.1351225" lon="-2.7842849"><ele>694.75</ele><time>2026-04-13T09:36:37.677Z</time></trkpt><trkpt lat="38.1352388" lon="-2.7842469"><ele>694.0</ele><time>2026-04-13T09:36:38.677Z</time></trkpt><trkpt lat="38.1353484" lon="-2.7841824"><ele>694.0</ele><time>2026-04-13T09:36:39.677Z</time></trkpt><trkpt lat="38.1354458" lon="-2.7841236"><ele>694.0</ele><time>2026-04-13T09:36:40.677Z</time></trkpt><trkpt lat="38.1355485" lon="-2.7840928"><ele>694.0</ele><time>2026-04-13T09:36:41.677Z</time></trkpt><trkpt lat="38.1356516" lon="-2.784107"><ele>694.0</ele><time>2026-04-13T09:36:42.677Z</time></trkpt><trkpt lat="38.1357465" lon="-2.7841452"><ele>694.0</ele><time>2026-04-13T09:36:43.677Z</time></trkpt><trkpt lat="38.1358358" lon="-2.7842031"><ele>694.4000000000001</ele><time>2026-04-13T09:36:44.677Z</time></trkpt><trkpt lat="38.1359272" lon="-2.7842646"><ele>694.8</ele><time>2026-04-13T09:36:45.677Z</time></trkpt><trkpt lat="38.1360236" lon="-2.78431"><ele>695.2</ele><time>2026-04-13T09:36:46.677Z</time></trkpt><trkpt lat="38.1361311" lon="-2.7843232"><ele>695.5999999999999</ele><time>2026-04-13T09:36:47.677Z</time></trkpt><trkpt lat="38.1362428" lon="-2.7843288"><ele>696.0</ele><time>2026-04-13T09:36:48.675Z</time></trkpt><trkpt lat="38.1363563" lon="-2.7843248"><ele>696.0</ele><time>2026-04-13T09:36:49.678Z</time></trkpt><trkpt lat="38.1364704" lon="-2.7843248"><ele>696.0</ele><time>2026-04-13T09:36:50.677Z</time></trkpt><trkpt lat="38.1365892" lon="-2.7843198"><ele>696.0</ele><time>2026-04-13T09:36:51.677Z</time></trkpt><trkpt lat="38.1367039" lon="-2.78432"><ele>696.0</ele><time>2026-04-13T09:36:52.677Z</time></trkpt><trkpt lat="38.1368214" lon="-2.7843115"><ele>696.8</ele><time>2026-04-13T09:36:53.677Z</time></trkpt><trkpt lat="38.1369307" lon="-2.7842975"><ele>697.5999999999999</ele><time>2026-04-13T09:36:54.677Z</time></trkpt><trkpt lat="38.137038" lon="-2.7842661"><ele>698.4</ele><time>2026-04-13T09:36:55.677Z</time></trkpt><trkpt lat="38.1371439" lon="-2.7842148"><ele>699.2</ele><time>2026-04-13T09:36:56.677Z</time></trkpt><trkpt lat="38.1372458" lon="-2.7841632"><ele>700.0</ele><time>2026-04-13T09:36:57.677Z</time></trkpt><trkpt lat="38.1373538" lon="-2.7841129"><ele>702.5</ele><time>2026-04-13T09:36:58.677Z</time></trkpt><trkpt lat="38.1374617" lon="-2.7840965"><ele>705.0</ele><time>2026-04-13T09:36:59.677Z</time></trkpt><trkpt lat="38.1375771" lon="-2.7841144"><ele>707.5</ele><time>2026-04-13T09:37:00.677Z</time></trkpt><trkpt lat="38.1376891" lon="-2.7841479"><ele>710.0</ele><time>2026-04-13T09:37:01.677Z</time></trkpt><trkpt lat="38.1378028" lon="-2.7841838"><ele>710.0</ele><time>2026-04-13T09:37:02.677Z</time></trkpt><trkpt lat="38.1379157" lon="-2.7842011"><ele>710.0</ele><time>2026-04-13T09:37:03.677Z</time></trkpt><trkpt lat="38.1380296" lon="-2.7842053"><ele>710.0</ele><time>2026-04-13T09:37:04.677Z</time></trkpt><trkpt lat="38.1381447" lon="-2.7842105"><ele>710.0</ele><time>2026-04-13T09:37:05.677Z</time></trkpt><trkpt lat="38.1382614" lon="-2.7842225"><ele>709.0</ele><time>2026-04-13T09:37:06.677Z</time></trkpt><trkpt lat="38.1383795" lon="-2.7842458"><ele>708.0</ele><time>2026-04-13T09:37:07.677Z</time></trkpt><trkpt lat="38.1384965" lon="-2.7842754"><ele>707.0</ele><time>2026-04-13T09:37:08.677Z</time></trkpt><trkpt lat="38.1386088" lon="-2.7843042"><ele>706.0</ele><time>2026-04-13T09:37:09.677Z</time></trkpt><trkpt lat="38.1387201" lon="-2.7843283"><ele>709.4</ele><time>2026-04-13T09:37:10.677Z</time></trkpt><trkpt lat="38.1388238" lon="-2.7843466"><ele>712.8</ele><time>2026-04-13T09:37:11.677Z</time></trkpt><trkpt lat="38.1389246" lon="-2.7843678"><ele>716.1999999999999</ele><time>2026-04-13T09:37:12.677Z</time></trkpt><trkpt lat="38.1390186" lon="-2.78441"><ele>719.5999999999999</ele><time>2026-04-13T09:37:13.677Z</time></trkpt><trkpt lat="38.1390979" lon="-2.7844853"><ele>723.0</ele><time>2026-04-13T09:37:14.677Z</time></trkpt><trkpt lat="38.139169" lon="-2.7845596"><ele>723.0</ele><time>2026-04-13T09:37:15.677Z</time></trkpt><trkpt lat="38.1392415" lon="-2.7846661"><ele>723.0</ele><time>2026-04-13T09:37:16.677Z</time></trkpt><trkpt lat="38.1393196" lon="-2.7847488"><ele>723.0</ele><time>2026-04-13T09:37:17.677Z</time></trkpt><trkpt lat="38.1394212" lon="-2.7848001"><ele>723.0</ele><time>2026-04-13T09:37:18.677Z</time></trkpt><trkpt lat="38.1395199" lon="-2.7848613"><ele>723.0</ele><time>2026-04-13T09:37:19.677Z</time></trkpt><trkpt lat="38.1396341" lon="-2.7848801"><ele>723.0</ele><time>2026-04-13T09:37:20.677Z</time></trkpt><trkpt lat="38.1397451" lon="-2.7849296"><ele>723.0</ele><time>2026-04-13T09:37:21.677Z</time></trkpt><trkpt lat="38.1398518" lon="-2.7849863"><ele>723.0</ele><time>2026-04-13T09:37:22.677Z</time></trkpt><trkpt lat="38.1399598" lon="-2.7850526"><ele>723.0</ele><time>2026-04-13T09:37:23.677Z</time></trkpt><trkpt lat="38.1400646" lon="-2.7851182"><ele>720.8</ele><time>2026-04-13T09:37:24.677Z</time></trkpt><trkpt lat="38.140169" lon="-2.7851779"><ele>718.5999999999999</ele><time>2026-04-13T09:37:25.677Z</time></trkpt><trkpt lat="38.1402697" lon="-2.7852354"><ele>716.4000000000001</ele><time>2026-04-13T09:37:26.677Z</time></trkpt><trkpt lat="38.1403671" lon="-2.7852887"><ele>714.2</ele><time>2026-04-13T09:37:27.677Z</time></trkpt><trkpt lat="38.1404515" lon="-2.785366"><ele>712.0</ele><time>2026-04-13T09:37:28.677Z</time></trkpt><trkpt lat="38.1405194" lon="-2.7854699"><ele>714.2</ele><time>2026-04-13T09:37:29.677Z</time></trkpt><trkpt lat="38.1405657" lon="-2.7855941"><ele>716.4000000000001</ele><time>2026-04-13T09:37:30.677Z</time></trkpt><trkpt lat="38.1405958" lon="-2.7857282"><ele>718.5999999999999</ele><time>2026-04-13T09:37:31.677Z</time></trkpt><trkpt lat="38.1406319" lon="-2.7858646"><ele>720.8</ele><time>2026-04-13T09:37:32.677Z</time></trkpt><trkpt lat="38.1406806" lon="-2.7859959"><ele>723.0</ele><time>2026-04-13T09:37:33.677Z</time></trkpt><trkpt lat="38.1407263" lon="-2.7861287"><ele>723.0</ele><time>2026-04-13T09:37:34.677Z</time></trkpt><trkpt lat="38.1407831" lon="-2.7862633"><ele>723.0</ele><time>2026-04-13T09:37:35.677Z</time></trkpt><trkpt lat="38.1408354" lon="-2.786398"><ele>723.0</ele><time>2026-04-13T09:37:36.677Z</time></trkpt><trkpt lat="38.140889" lon="-2.7865358"><ele>723.0</ele><time>2026-04-13T09:37:37.677Z</time></trkpt><trkpt lat="38.1409421" lon="-2.786673"><ele>723.0</ele><time>2026-04-13T09:37:38.677Z</time></trkpt><trkpt lat="38.1409951" lon="-2.7868022"><ele>723.0</ele><time>2026-04-13T09:37:39.677Z</time></trkpt><trkpt lat="38.1410455" lon="-2.7869278"><ele>723.0</ele><time>2026-04-13T09:37:40.677Z</time></trkpt><trkpt lat="38.1410956" lon="-2.7870508"><ele>723.0</ele><time>2026-04-13T09:37:41.677Z</time></trkpt><trkpt lat="38.1411483" lon="-2.7871667"><ele>723.0</ele><time>2026-04-13T09:37:42.677Z</time></trkpt><trkpt lat="38.1412235" lon="-2.7872597"><ele>723.75</ele><time>2026-04-13T09:37:43.677Z</time></trkpt><trkpt lat="38.1412948" lon="-2.7873515"><ele>724.5</ele><time>2026-04-13T09:37:44.677Z</time></trkpt><trkpt lat="38.1413676" lon="-2.787458"><ele>725.25</ele><time>2026-04-13T09:37:45.677Z</time></trkpt><trkpt lat="38.1415442" lon="-2.7874097"><ele>726.0</ele><time>2026-04-13T09:37:46.677Z</time></trkpt><trkpt lat="38.141657" lon="-2.7874394"><ele>726.0</ele><time>2026-04-13T09:37:47.677Z</time></trkpt><trkpt lat="38.1417877" lon="-2.7874527"><ele>726.0</ele><time>2026-04-13T09:37:48.677Z</time></trkpt><trkpt lat="38.1419016" lon="-2.787478"><ele>726.0</ele><time>2026-04-13T09:37:49.677Z</time></trkpt><trkpt lat="38.1420158" lon="-2.787493"><ele>726.0</ele><time>2026-04-13T09:37:50.677Z</time></trkpt><trkpt lat="38.1421319" lon="-2.7875058"><ele>726.0</ele><time>2026-04-13T09:37:51.677Z</time></trkpt><trkpt lat="38.1422509" lon="-2.7875289"><ele>726.0</ele><time>2026-04-13T09:37:52.677Z</time></trkpt><trkpt lat="38.1423707" lon="-2.7875689"><ele>726.0</ele><time>2026-04-13T09:37:53.677Z</time></trkpt><trkpt lat="38.1424773" lon="-2.7876366"><ele>726.0</ele><time>2026-04-13T09:37:54.677Z</time></trkpt><trkpt lat="38.1425854" lon="-2.7877144"><ele>728.5</ele><time>2026-04-13T09:37:55.677Z</time></trkpt><trkpt lat="38.1426919" lon="-2.7878001"><ele>731.0</ele><time>2026-04-13T09:37:56.677Z</time></trkpt><trkpt lat="38.1428006" lon="-2.7878901"><ele>733.5</ele><time>2026-04-13T09:37:57.677Z</time></trkpt><trkpt lat="38.1429161" lon="-2.7879633"><ele>736.0</ele><time>2026-04-13T09:37:58.677Z</time></trkpt><trkpt lat="38.1430368" lon="-2.7880307"><ele>736.0</ele><time>2026-04-13T09:37:59.677Z</time></trkpt><trkpt lat="38.1431633" lon="-2.788081"><ele>736.0</ele><time>2026-04-13T09:38:00.677Z</time></trkpt><trkpt lat="38.1432871" lon="-2.7881302"><ele>736.0</ele><time>2026-04-13T09:38:01.677Z</time></trkpt><trkpt lat="38.1434136" lon="-2.7881675"><ele>736.0</ele><time>2026-04-13T09:38:02.678Z</time></trkpt><trkpt lat="38.1435384" lon="-2.7882023"><ele>732.5</ele><time>2026-04-13T09:38:03.677Z</time></trkpt><trkpt lat="38.1436582" lon="-2.7882332"><ele>729.0</ele><time>2026-04-13T09:38:04.677Z</time></trkpt><trkpt lat="38.1437751" lon="-2.7882785"><ele>725.5</ele><time>2026-04-13T09:38:05.677Z</time></trkpt><trkpt lat="38.1438764" lon="-2.7883603"><ele>722.0</ele><time>2026-04-13T09:38:06.677Z</time></trkpt><trkpt lat="38.1439648" lon="-2.7884624"><ele>719.75</ele><time>2026-04-13T09:38:07.677Z</time></trkpt><trkpt lat="38.1440393" lon="-2.7885846"><ele>717.5</ele><time>2026-04-13T09:38:08.677Z</time></trkpt><trkpt lat="38.1441038" lon="-2.788723"><ele>715.25</ele><time>2026-04-13T09:38:09.677Z</time></trkpt><trkpt lat="38.1441532" lon="-2.7888745"><ele>713.0</ele><time>2026-04-13T09:38:10.677Z</time></trkpt><trkpt lat="38.1441855" lon="-2.7890306"><ele>713.0</ele><time>2026-04-13T09:38:11.677Z</time></trkpt><trkpt lat="38.1442011" lon="-2.7891925"><ele>713.0</ele><time>2026-04-13T09:38:12.677Z</time></trkpt><trkpt lat="38.1442117" lon="-2.7893578"><ele>713.0</ele><time>2026-04-13T09:38:13.677Z</time></trkpt><trkpt lat="38.1442236" lon="-2.789524"><ele>713.0</ele><time>2026-04-13T09:38:14.677Z</time></trkpt><trkpt lat="38.1442335" lon="-2.7896882"><ele>715.0</ele><time>2026-04-13T09:38:15.677Z</time></trkpt><trkpt lat="38.1442545" lon="-2.7898491"><ele>717.0</ele><time>2026-04-13T09:38:16.677Z</time></trkpt><trkpt lat="38.1442947" lon="-2.7899997"><ele>719.0</ele><time>2026-04-13T09:38:17.678Z</time></trkpt><trkpt lat="38.1443531" lon="-2.7901401"><ele>721.0</ele><time>2026-04-13T09:38:18.677Z</time></trkpt><trkpt lat="38.1444136" lon="-2.7902813"><ele>722.5</ele><time>2026-04-13T09:38:19.677Z</time></trkpt><trkpt lat="38.1444757" lon="-2.7904216"><ele>724.0</ele><time>2026-04-13T09:38:20.677Z</time></trkpt><trkpt lat="38.1445415" lon="-2.7905609"><ele>725.5</ele><time>2026-04-13T09:38:21.677Z</time></trkpt><trkpt lat="38.144609" lon="-2.7906957"><ele>727.0</ele><time>2026-04-13T09:38:22.677Z</time></trkpt><trkpt lat="38.144672" lon="-2.7908454"><ele>727.0</ele><time>2026-04-13T09:38:23.677Z</time></trkpt><trkpt lat="38.1447149" lon="-2.790988"><ele>727.0</ele><time>2026-04-13T09:38:24.677Z</time></trkpt><trkpt lat="38.14476" lon="-2.7911368"><ele>727.0</ele><time>2026-04-13T09:38:25.677Z</time></trkpt><trkpt lat="38.1447943" lon="-2.7912887"><ele>727.0</ele><time>2026-04-13T09:38:26.677Z</time></trkpt><trkpt lat="38.1448129" lon="-2.7914366"><ele>729.0</ele><time>2026-04-13T09:38:27.677Z</time></trkpt><trkpt lat="38.1448317" lon="-2.7915977"><ele>731.0</ele><time>2026-04-13T09:38:28.677Z</time></trkpt><trkpt lat="38.1448316" lon="-2.7917455"><ele>733.0</ele><time>2026-04-13T09:38:29.677Z</time></trkpt><trkpt lat="38.1448201" lon="-2.7918979"><ele>735.0</ele><time>2026-04-13T09:38:30.677Z</time></trkpt><trkpt lat="38.1448106" lon="-2.7920491"><ele>736.25</ele><time>2026-04-13T09:38:31.677Z</time></trkpt><trkpt lat="38.1448092" lon="-2.7921955"><ele>737.5</ele><time>2026-04-13T09:38:32.677Z</time></trkpt><trkpt lat="38.1448099" lon="-2.7923375"><ele>738.75</ele><time>2026-04-13T09:38:33.678Z</time></trkpt><trkpt lat="38.1448165" lon="-2.7924857"><ele>740.0</ele><time>2026-04-13T09:38:34.677Z</time></trkpt><trkpt lat="38.1448319" lon="-2.7926208"><ele>739.5</ele><time>2026-04-13T09:38:35.677Z</time></trkpt><trkpt lat="38.1448443" lon="-2.7927604"><ele>739.0</ele><time>2026-04-13T09:38:36.677Z</time></trkpt><trkpt lat="38.1448755" lon="-2.7929129"><ele>738.5</ele><time>2026-04-13T09:38:37.677Z</time></trkpt><trkpt lat="38.144901" lon="-2.7930471"><ele>738.0</ele><time>2026-04-13T09:38:38.677Z</time></trkpt><trkpt lat="38.1449372" lon="-2.7931892"><ele>731.5</ele><time>2026-04-13T09:38:39.677Z</time></trkpt><trkpt lat="38.1449712" lon="-2.7933286"><ele>725.0</ele><time>2026-04-13T09:38:40.677Z</time></trkpt><trkpt lat="38.1450021" lon="-2.7934759"><ele>718.5</ele><time>2026-04-13T09:38:41.678Z</time></trkpt><trkpt lat="38.1450283" lon="-2.7936157"><ele>712.0</ele><time>2026-04-13T09:38:42.677Z</time></trkpt><trkpt lat="38.1450611" lon="-2.7937628"><ele>712.0</ele><time>2026-04-13T09:38:43.677Z</time></trkpt><trkpt lat="38.1450861" lon="-2.7938956"><ele>712.0</ele><time>2026-04-13T09:38:44.677Z</time></trkpt><trkpt lat="38.1451234" lon="-2.7940252"><ele>712.0</ele><time>2026-04-13T09:38:45.677Z</time></trkpt><trkpt lat="38.1451642" lon="-2.7941512"><ele>712.0</ele><time>2026-04-13T09:38:46.677Z</time></trkpt><trkpt lat="38.1452152" lon="-2.7942791"><ele>712.0</ele><time>2026-04-13T09:38:47.677Z</time></trkpt><trkpt lat="38.1453012" lon="-2.7943748"><ele>713.4000000000001</ele><time>2026-04-13T09:38:48.677Z</time></trkpt><trkpt lat="38.1453753" lon="-2.7944581"><ele>714.8000000000001</ele><time>2026-04-13T09:38:49.677Z</time></trkpt><trkpt lat="38.1454524" lon="-2.7945326"><ele>716.2</ele><time>2026-04-13T09:38:50.677Z</time></trkpt><trkpt lat="38.1455111" lon="-2.7945951"><ele>717.6</ele><time>2026-04-13T09:38:51.677Z</time></trkpt><trkpt lat="38.1455613" lon="-2.7946485"><ele>719.0</ele><time>2026-04-13T09:38:52.677Z</time></trkpt><trkpt lat="38.1456493" lon="-2.7947405"><ele>719.0</ele><time>2026-04-13T09:38:54.677Z</time></trkpt><trkpt lat="38.1456988" lon="-2.7947951"><ele>719.0</ele><time>2026-04-13T09:38:55.677Z</time></trkpt><trkpt lat="38.1457514" lon="-2.7948609"><ele>719.0</ele><time>2026-04-13T09:38:56.677Z</time></trkpt><trkpt lat="38.1458178" lon="-2.794934"><ele>719.0</ele><time>2026-04-13T09:38:57.677Z</time></trkpt><trkpt lat="38.1458948" lon="-2.795003"><ele>719.0</ele><time>2026-04-13T09:38:58.677Z</time></trkpt><trkpt lat="38.1459798" lon="-2.795074"><ele>719.0</ele><time>2026-04-13T09:38:59.677Z</time></trkpt><trkpt lat="38.1460595" lon="-2.7951404"><ele>716.0</ele><time>2026-04-13T09:39:00.677Z</time></trkpt><trkpt lat="38.1461854" lon="-2.795133"><ele>713.0</ele><time>2026-04-13T09:39:01.677Z</time></trkpt><trkpt lat="38.146287" lon="-2.7951372"><ele>710.0</ele><time>2026-04-13T09:39:02.677Z</time></trkpt><trkpt lat="38.1463871" lon="-2.7951261"><ele>707.0</ele><time>2026-04-13T09:39:03.677Z</time></trkpt><trkpt lat="38.1464748" lon="-2.7950848"><ele>704.0</ele><time>2026-04-13T09:39:04.677Z</time></trkpt><trkpt lat="38.1465517" lon="-2.7950122"><ele>704.0</ele><time>2026-04-13T09:39:05.677Z</time></trkpt><trkpt lat="38.1466127" lon="-2.7949154"><ele>704.0</ele><time>2026-04-13T09:39:06.677Z</time></trkpt><trkpt lat="38.1466666" lon="-2.7948013"><ele>704.0</ele><time>2026-04-13T09:39:07.677Z</time></trkpt><trkpt lat="38.1467249" lon="-2.7946773"><ele>704.0</ele><time>2026-04-13T09:39:08.677Z</time></trkpt><trkpt lat="38.1467784" lon="-2.7945479"><ele>704.0</ele><time>2026-04-13T09:39:09.677Z</time></trkpt><trkpt lat="38.1468377" lon="-2.7944155"><ele>701.5</ele><time>2026-04-13T09:39:10.677Z</time></trkpt><trkpt lat="38.1468984" lon="-2.7942842"><ele>699.0</ele><time>2026-04-13T09:39:11.677Z</time></trkpt><trkpt lat="38.1469572" lon="-2.7941573"><ele>696.5</ele><time>2026-04-13T09:39:12.677Z</time></trkpt><trkpt lat="38.1470122" lon="-2.7940342"><ele>694.0</ele><time>2026-04-13T09:39:13.677Z</time></trkpt><trkpt lat="38.1470628" lon="-2.7939185"><ele>694.0</ele><time>2026-04-13T09:39:14.677Z</time></trkpt><trkpt lat="38.1471275" lon="-2.7938187"><ele>694.0</ele><time>2026-04-13T09:39:15.677Z</time></trkpt><trkpt lat="38.1472008" lon="-2.7937286"><ele>694.0</ele><time>2026-04-13T09:39:16.677Z</time></trkpt><trkpt lat="38.1472862" lon="-2.7936615"><ele>694.0</ele><time>2026-04-13T09:39:17.677Z</time></trkpt><trkpt lat="38.1473795" lon="-2.793609"><ele>694.0</ele><time>2026-04-13T09:39:18.677Z</time></trkpt><trkpt lat="38.1474814" lon="-2.793579"><ele>698.0</ele><time>2026-04-13T09:39:19.677Z</time></trkpt><trkpt lat="38.1475844" lon="-2.793563"><ele>702.0</ele><time>2026-04-13T09:39:20.677Z</time></trkpt><trkpt lat="38.1476919" lon="-2.7935577"><ele>706.0</ele><time>2026-04-13T09:39:21.677Z</time></trkpt><trkpt lat="38.1478448" lon="-2.7935906"><ele>710.0</ele><time>2026-04-13T09:39:23.632Z</time></trkpt><trkpt lat="38.1480089" lon="-2.7936485"><ele>710.0</ele><time>2026-04-13T09:39:24.673Z</time></trkpt><trkpt lat="38.1481085" lon="-2.7937022"><ele>710.0</ele><time>2026-04-13T09:39:25.67Z</time></trkpt><trkpt lat="38.1482099" lon="-2.7937296"><ele>710.0</ele><time>2026-04-13T09:39:26.673Z</time></trkpt><trkpt lat="38.148312" lon="-2.7937105"><ele>710.0</ele><time>2026-04-13T09:39:27.673Z</time></trkpt><trkpt lat="38.148403" lon="-2.7936595"><ele>710.0</ele><time>2026-04-13T09:39:28.67Z</time></trkpt><trkpt lat="38.148475" lon="-2.7935725"><ele>708.2</ele><time>2026-04-13T09:39:29.67Z</time></trkpt><trkpt lat="38.1485238" lon="-2.7934622"><ele>706.4</ele><time>2026-04-13T09:39:30.67Z</time></trkpt><trkpt lat="38.1485525" lon="-2.7933342"><ele>704.5999999999999</ele><time>2026-04-13T09:39:31.67Z</time></trkpt><trkpt lat="38.1485678" lon="-2.7932102"><ele>702.8</ele><time>2026-04-13T09:39:32.67Z</time></trkpt><trkpt lat="38.1485968" lon="-2.7930873"><ele>701.0</ele><time>2026-04-13T09:39:33.671Z</time></trkpt><trkpt lat="38.1486246" lon="-2.7929673"><ele>701.0</ele><time>2026-04-13T09:39:34.67Z</time></trkpt><trkpt lat="38.1486517" lon="-2.7928475"><ele>701.0</ele><time>2026-04-13T09:39:35.67Z</time></trkpt><trkpt lat="38.148691" lon="-2.7927274"><ele>701.0</ele><time>2026-04-13T09:39:36.67Z</time></trkpt><trkpt lat="38.1487282" lon="-2.7926097"><ele>701.0</ele><time>2026-04-13T09:39:37.67Z</time></trkpt><trkpt lat="38.1487602" lon="-2.7924923"><ele>701.0</ele><time>2026-04-13T09:39:38.67Z</time></trkpt><trkpt lat="38.1487985" lon="-2.7923774"><ele>698.1999999999999</ele><time>2026-04-13T09:39:39.67Z</time></trkpt><trkpt lat="38.1488402" lon="-2.7922649"><ele>695.4</ele><time>2026-04-13T09:39:40.67Z</time></trkpt><trkpt lat="38.1488864" lon="-2.7921529"><ele>692.6</ele><time>2026-04-13T09:39:41.67Z</time></trkpt><trkpt lat="38.1489367" lon="-2.7920444"><ele>689.8</ele><time>2026-04-13T09:39:42.67Z</time></trkpt><trkpt lat="38.1489905" lon="-2.7919283"><ele>687.0</ele><time>2026-04-13T09:39:43.67Z</time></trkpt><trkpt lat="38.1490412" lon="-2.7917977"><ele>691.0</ele><time>2026-04-13T09:39:44.67Z</time></trkpt><trkpt lat="38.1490817" lon="-2.7916652"><ele>695.0</ele><time>2026-04-13T09:39:45.67Z</time></trkpt><trkpt lat="38.1491063" lon="-2.791531"><ele>699.0</ele><time>2026-04-13T09:39:46.67Z</time></trkpt><trkpt lat="38.1490964" lon="-2.7913875"><ele>703.0</ele><time>2026-04-13T09:39:47.67Z</time></trkpt><trkpt lat="38.149089" lon="-2.7912418"><ele>707.0</ele><time>2026-04-13T09:39:48.67Z</time></trkpt><trkpt lat="38.1490897" lon="-2.7911027"><ele>705.8</ele><time>2026-04-13T09:39:49.67Z</time></trkpt><trkpt lat="38.1490971" lon="-2.7909661"><ele>704.6</ele><time>2026-04-13T09:39:50.67Z</time></trkpt><trkpt lat="38.1491091" lon="-2.790827"><ele>703.4</ele><time>2026-04-13T09:39:51.67Z</time></trkpt><trkpt lat="38.149129" lon="-2.7906861"><ele>702.1999999999999</ele><time>2026-04-13T09:39:52.67Z</time></trkpt><trkpt lat="38.1491535" lon="-2.7905438"><ele>701.0</ele><time>2026-04-13T09:39:53.67Z</time></trkpt><trkpt lat="38.1491683" lon="-2.7904059"><ele>701.0</ele><time>2026-04-13T09:39:54.67Z</time></trkpt><trkpt lat="38.1491854" lon="-2.7902659"><ele>701.0</ele><time>2026-04-13T09:39:55.67Z</time></trkpt><trkpt lat="38.1492169" lon="-2.790127"><ele>701.0</ele><time>2026-04-13T09:39:56.67Z</time></trkpt><trkpt lat="38.1492599" lon="-2.7899939"><ele>701.0</ele><time>2026-04-13T09:39:57.67Z</time></trkpt><trkpt lat="38.1493198" lon="-2.7898619"><ele>699.75</ele><time>2026-04-13T09:39:58.67Z</time></trkpt><trkpt lat="38.1493826" lon="-2.789729"><ele>698.5</ele><time>2026-04-13T09:39:59.67Z</time></trkpt><trkpt lat="38.1494469" lon="-2.7895931"><ele>697.25</ele><time>2026-04-13T09:40:00.67Z</time></trkpt><trkpt lat="38.149511" lon="-2.7894512"><ele>696.0</ele><time>2026-04-13T09:40:01.67Z</time></trkpt><trkpt lat="38.1495772" lon="-2.7893084"><ele>693.25</ele><time>2026-04-13T09:40:02.67Z</time></trkpt><trkpt lat="38.1496444" lon="-2.7891657"><ele>690.5</ele><time>2026-04-13T09:40:03.67Z</time></trkpt><trkpt lat="38.1497154" lon="-2.7890276"><ele>687.75</ele><time>2026-04-13T09:40:04.67Z</time></trkpt><trkpt lat="38.1497918" lon="-2.7888848"><ele>685.0</ele><time>2026-04-13T09:40:05.67Z</time></trkpt><trkpt lat="38.1498631" lon="-2.7887392"><ele>688.75</ele><time>2026-04-13T09:40:06.67Z</time></trkpt><trkpt lat="38.1499231" lon="-2.7885936"><ele>692.5</ele><time>2026-04-13T09:40:07.67Z</time></trkpt><trkpt lat="38.1499772" lon="-2.7884411"><ele>696.25</ele><time>2026-04-13T09:40:08.67Z</time></trkpt><trkpt lat="38.1500288" lon="-2.7882884"><ele>700.0</ele><time>2026-04-13T09:40:09.67Z</time></trkpt><trkpt lat="38.1500771" lon="-2.7881485"><ele>700.0</ele><time>2026-04-13T09:40:10.67Z</time></trkpt><trkpt lat="38.150123" lon="-2.7880027"><ele>700.0</ele><time>2026-04-13T09:40:11.67Z</time></trkpt><trkpt lat="38.1501723" lon="-2.7878627"><ele>700.0</ele><time>2026-04-13T09:40:12.67Z</time></trkpt><trkpt lat="38.1502237" lon="-2.7877316"><ele>700.0</ele><time>2026-04-13T09:40:13.67Z</time></trkpt><trkpt lat="38.1502783" lon="-2.7876083"><ele>698.1666666666667</ele><time>2026-04-13T09:40:14.67Z</time></trkpt><trkpt lat="38.1503375" lon="-2.7874985"><ele>696.3333333333334</ele><time>2026-04-13T09:40:15.67Z</time></trkpt><trkpt lat="38.1503935" lon="-2.7874025"><ele>694.5</ele><time>2026-04-13T09:40:16.67Z</time></trkpt><trkpt lat="38.1504352" lon="-2.7873338"><ele>692.6666666666666</ele><time>2026-04-13T09:40:17.67Z</time></trkpt><trkpt lat="38.1504902" lon="-2.7872704"><ele>690.8333333333333</ele><time>2026-04-13T09:40:19.67Z</time></trkpt><trkpt lat="38.150566" lon="-2.7872076"><ele>689.0</ele><time>2026-04-13T09:40:21.67Z</time></trkpt><trkpt lat="38.1506753" lon="-2.7871476"><ele>693.3333333333333</ele><time>2026-04-13T09:40:23.67Z</time></trkpt><trkpt lat="38.1507452" lon="-2.7871206"><ele>697.6666666666666</ele><time>2026-04-13T09:40:24.67Z</time></trkpt><trkpt lat="38.1508215" lon="-2.787094"><ele>702.0</ele><time>2026-04-13T09:40:25.67Z</time></trkpt><trkpt lat="38.1509054" lon="-2.7870652"><ele>706.3333333333334</ele><time>2026-04-13T09:40:26.67Z</time></trkpt><trkpt lat="38.1509979" lon="-2.7870353"><ele>710.6666666666667</ele><time>2026-04-13T09:40:27.67Z</time></trkpt><trkpt lat="38.1510945" lon="-2.7870011"><ele>715.0</ele><time>2026-04-13T09:40:28.67Z</time></trkpt><trkpt lat="38.1511923" lon="-2.7869681"><ele>715.0</ele><time>2026-04-13T09:40:29.67Z</time></trkpt><trkpt lat="38.1512946" lon="-2.786933"><ele>715.0</ele><time>2026-04-13T09:40:30.67Z</time></trkpt><trkpt lat="38.1514042" lon="-2.7868992"><ele>715.0</ele><time>2026-04-13T09:40:31.67Z</time></trkpt><trkpt lat="38.1515148" lon="-2.7868605"><ele>715.0</ele><time>2026-04-13T09:40:32.67Z</time></trkpt><trkpt lat="38.1516219" lon="-2.7868212"><ele>715.0</ele><time>2026-04-13T09:40:33.67Z</time></trkpt><trkpt lat="38.1517321" lon="-2.7867772"><ele>711.25</ele><time>2026-04-13T09:40:34.671Z</time></trkpt><trkpt lat="38.1518455" lon="-2.786737"><ele>707.5</ele><time>2026-04-13T09:40:35.67Z</time></trkpt><trkpt lat="38.1519565" lon="-2.7866982"><ele>703.75</ele><time>2026-04-13T09:40:36.67Z</time></trkpt><trkpt lat="38.1520689" lon="-2.7866636"><ele>700.0</ele><time>2026-04-13T09:40:37.67Z</time></trkpt><trkpt lat="38.152182" lon="-2.7866362"><ele>700.0</ele><time>2026-04-13T09:40:38.67Z</time></trkpt><trkpt lat="38.1523072" lon="-2.786629"><ele>700.0</ele><time>2026-04-13T09:40:39.67Z</time></trkpt><trkpt lat="38.1524282" lon="-2.7866331"><ele>700.0</ele><time>2026-04-13T09:40:40.67Z</time></trkpt><trkpt lat="38.1525496" lon="-2.7866479"><ele>700.0</ele><time>2026-04-13T09:40:41.67Z</time></trkpt><trkpt lat="38.1526707" lon="-2.7866578"><ele>700.25</ele><time>2026-04-13T09:40:42.67Z</time></trkpt><trkpt lat="38.1527918" lon="-2.7866482"><ele>700.5</ele><time>2026-04-13T09:40:43.67Z</time></trkpt><trkpt lat="38.1529108" lon="-2.786609"><ele>700.75</ele><time>2026-04-13T09:40:44.67Z</time></trkpt><trkpt lat="38.1530211" lon="-2.7865509"><ele>701.0</ele><time>2026-04-13T09:40:45.67Z</time></trkpt><trkpt lat="38.153138" lon="-2.7864861"><ele>700.5</ele><time>2026-04-13T09:40:46.67Z</time></trkpt><trkpt lat="38.1532493" lon="-2.7864275"><ele>700.0</ele><time>2026-04-13T09:40:47.67Z</time></trkpt><trkpt lat="38.1533655" lon="-2.7863903"><ele>699.5</ele><time>2026-04-13T09:40:48.67Z</time></trkpt><trkpt lat="38.1534872" lon="-2.7863803"><ele>699.0</ele><time>2026-04-13T09:40:49.67Z</time></trkpt><trkpt lat="38.1536091" lon="-2.7864068"><ele>699.0</ele><time>2026-04-13T09:40:50.67Z</time></trkpt><trkpt lat="38.1537186" lon="-2.7864617"><ele>699.0</ele><time>2026-04-13T09:40:51.67Z</time></trkpt><trkpt lat="38.1538305" lon="-2.7865264"><ele>699.0</ele><time>2026-04-13T09:40:52.67Z</time></trkpt><trkpt lat="38.1539448" lon="-2.7865945"><ele>699.0</ele><time>2026-04-13T09:40:53.67Z</time></trkpt><trkpt lat="38.1540643" lon="-2.7866616"><ele>697.5</ele><time>2026-04-13T09:40:54.67Z</time></trkpt><trkpt lat="38.1541884" lon="-2.7867146"><ele>696.0</ele><time>2026-04-13T09:40:55.67Z</time></trkpt><trkpt lat="38.1543182" lon="-2.786744"><ele>694.5</ele><time>2026-04-13T09:40:56.67Z</time></trkpt><trkpt lat="38.1544481" lon="-2.7867479"><ele>693.0</ele><time>2026-04-13T09:40:57.67Z</time></trkpt><trkpt lat="38.1545861" lon="-2.7867219"><ele>693.0</ele><time>2026-04-13T09:40:58.67Z</time></trkpt><trkpt lat="38.1547187" lon="-2.7866838"><ele>693.0</ele><time>2026-04-13T09:40:59.67Z</time></trkpt><trkpt lat="38.1548538" lon="-2.78665"><ele>693.0</ele><time>2026-04-13T09:41:00.67Z</time></trkpt><trkpt lat="38.1549858" lon="-2.786636"><ele>693.0</ele><time>2026-04-13T09:41:01.67Z</time></trkpt><trkpt lat="38.1551197" lon="-2.7866346"><ele>694.25</ele><time>2026-04-13T09:41:02.67Z</time></trkpt><trkpt lat="38.1552532" lon="-2.7866446"><ele>695.5</ele><time>2026-04-13T09:41:03.67Z</time></trkpt><trkpt lat="38.1553831" lon="-2.7866578"><ele>696.75</ele><time>2026-04-13T09:41:04.67Z</time></trkpt><trkpt lat="38.1555059" lon="-2.7866681"><ele>698.0</ele><time>2026-04-13T09:41:05.67Z</time></trkpt><trkpt lat="38.1556296" lon="-2.7866761"><ele>698.25</ele><time>2026-04-13T09:41:06.67Z</time></trkpt><trkpt lat="38.1557385" lon="-2.7866847"><ele>698.5</ele><time>2026-04-13T09:41:07.67Z</time></trkpt><trkpt lat="38.15585" lon="-2.7866971"><ele>698.75</ele><time>2026-04-13T09:41:08.67Z</time></trkpt><trkpt lat="38.1559713" lon="-2.7867048"><ele>699.0</ele><time>2026-04-13T09:41:09.67Z</time></trkpt><trkpt lat="38.1560921" lon="-2.786706"><ele>699.0</ele><time>2026-04-13T09:41:10.67Z</time></trkpt><trkpt lat="38.1562121" lon="-2.7866914"><ele>699.0</ele><time>2026-04-13T09:41:11.67Z</time></trkpt><trkpt lat="38.1563315" lon="-2.7866566"><ele>699.0</ele><time>2026-04-13T09:41:12.67Z</time></trkpt><trkpt lat="38.1564513" lon="-2.7866021"><ele>699.0</ele><time>2026-04-13T09:41:13.67Z</time></trkpt><trkpt lat="38.1565656" lon="-2.7865411"><ele>700.0</ele><time>2026-04-13T09:41:14.67Z</time></trkpt><trkpt lat="38.1566787" lon="-2.7864801"><ele>701.0</ele><time>2026-04-13T09:41:15.67Z</time></trkpt><trkpt lat="38.1567929" lon="-2.7864273"><ele>702.0</ele><time>2026-04-13T09:41:16.67Z</time></trkpt><trkpt lat="38.1569116" lon="-2.7863695"><ele>703.0</ele><time>2026-04-13T09:41:17.67Z</time></trkpt><trkpt lat="38.1570301" lon="-2.7863179"><ele>703.0</ele><time>2026-04-13T09:41:18.67Z</time></trkpt><trkpt lat="38.1571395" lon="-2.7862554"><ele>703.0</ele><time>2026-04-13T09:41:19.67Z</time></trkpt><trkpt lat="38.1572508" lon="-2.7861895"><ele>703.0</ele><time>2026-04-13T09:41:20.67Z</time></trkpt><trkpt lat="38.1573576" lon="-2.7861361"><ele>703.0</ele><time>2026-04-13T09:41:21.67Z</time></trkpt><trkpt lat="38.1574729" lon="-2.7860871"><ele>706.0</ele><time>2026-04-13T09:41:22.67Z</time></trkpt><trkpt lat="38.1575949" lon="-2.7860419"><ele>709.0</ele><time>2026-04-13T09:41:23.67Z</time></trkpt><trkpt lat="38.1577149" lon="-2.7860058"><ele>712.0</ele><time>2026-04-13T09:41:24.67Z</time></trkpt><trkpt lat="38.1578357" lon="-2.7859738"><ele>715.0</ele><time>2026-04-13T09:41:25.67Z</time></trkpt><trkpt lat="38.1579611" lon="-2.7859538"><ele>718.5</ele><time>2026-04-13T09:41:26.67Z</time></trkpt><trkpt lat="38.1580905" lon="-2.7859473"><ele>722.0</ele><time>2026-04-13T09:41:27.67Z</time></trkpt><trkpt lat="38.1582147" lon="-2.7859709"><ele>725.5</ele><time>2026-04-13T09:41:28.67Z</time></trkpt><trkpt lat="38.1583267" lon="-2.7860011"><ele>729.0</ele><time>2026-04-13T09:41:29.67Z</time></trkpt><trkpt lat="38.1584315" lon="-2.7860348"><ele>729.0</ele><time>2026-04-13T09:41:30.67Z</time></trkpt><trkpt lat="38.1585386" lon="-2.7860687"><ele>729.0</ele><time>2026-04-13T09:41:31.67Z</time></trkpt><trkpt lat="38.1586483" lon="-2.7861029"><ele>729.0</ele><time>2026-04-13T09:41:32.67Z</time></trkpt><trkpt lat="38.1587611" lon="-2.7861423"><ele>729.0</ele><time>2026-04-13T09:41:33.67Z</time></trkpt><trkpt lat="38.15887" lon="-2.7861821"><ele>729.0</ele><time>2026-04-13T09:41:34.67Z</time></trkpt><trkpt lat="38.1589802" lon="-2.7862248"><ele>729.0</ele><time>2026-04-13T09:41:35.67Z</time></trkpt><trkpt lat="38.1590878" lon="-2.7862687"><ele>729.0</ele><time>2026-04-13T09:41:36.67Z</time></trkpt><trkpt lat="38.1591934" lon="-2.7863198"><ele>729.0</ele><time>2026-04-13T09:41:37.67Z</time></trkpt><trkpt lat="38.1592968" lon="-2.7863692"><ele>725.8000000000001</ele><time>2026-04-13T09:41:38.67Z</time></trkpt><trkpt lat="38.1593986" lon="-2.7864275"><ele>722.6</ele><time>2026-04-13T09:41:39.67Z</time></trkpt><trkpt lat="38.1594969" lon="-2.7864882"><ele>719.4</ele><time>2026-04-13T09:41:40.67Z</time></trkpt><trkpt lat="38.1595975" lon="-2.786543"><ele>716.2</ele><time>2026-04-13T09:41:41.67Z</time></trkpt><trkpt lat="38.1597036" lon="-2.7865792"><ele>713.0</ele><time>2026-04-13T09:41:42.67Z</time></trkpt><trkpt lat="38.1598093" lon="-2.7865911"><ele>711.25</ele><time>2026-04-13T09:41:43.67Z</time></trkpt><trkpt lat="38.1599122" lon="-2.7865583"><ele>709.5</ele><time>2026-04-13T09:41:44.67Z</time></trkpt><trkpt lat="38.1600145" lon="-2.7864957"><ele>707.75</ele><time>2026-04-13T09:41:45.67Z</time></trkpt><trkpt lat="38.1601144" lon="-2.7864186"><ele>706.0</ele><time>2026-04-13T09:41:46.67Z</time></trkpt><trkpt lat="38.160215" lon="-2.7863364"><ele>706.0</ele><time>2026-04-13T09:41:47.67Z</time></trkpt><trkpt lat="38.1603087" lon="-2.7862362"><ele>706.0</ele><time>2026-04-13T09:41:48.67Z</time></trkpt><trkpt lat="38.1603898" lon="-2.7861376"><ele>706.0</ele><time>2026-04-13T09:41:49.67Z</time></trkpt><trkpt lat="38.1604626" lon="-2.7860198"><ele>706.0</ele><time>2026-04-13T09:41:50.67Z</time></trkpt><trkpt lat="38.1605181" lon="-2.7858959"><ele>704.4</ele><time>2026-04-13T09:41:51.671Z</time></trkpt><trkpt lat="38.1605647" lon="-2.7857744"><ele>702.8</ele><time>2026-04-13T09:41:52.67Z</time></trkpt><trkpt lat="38.1606062" lon="-2.7856456"><ele>701.1999999999999</ele><time>2026-04-13T09:41:53.67Z</time></trkpt><trkpt lat="38.1606372" lon="-2.7855546"><ele>699.5999999999999</ele><time>2026-04-13T09:41:54.67Z</time></trkpt><trkpt lat="38.1606879" lon="-2.7854552"><ele>698.0</ele><time>2026-04-13T09:41:55.67Z</time></trkpt><trkpt lat="38.1607575" lon="-2.7853687"><ele>698.0</ele><time>2026-04-13T09:41:56.67Z</time></trkpt><trkpt lat="38.1608405" lon="-2.7852894"><ele>698.0</ele><time>2026-04-13T09:41:57.67Z</time></trkpt><trkpt lat="38.1609357" lon="-2.7852254"><ele>698.0</ele><time>2026-04-13T09:41:58.67Z</time></trkpt><trkpt lat="38.161032" lon="-2.7851712"><ele>698.0</ele><time>2026-04-13T09:41:59.67Z</time></trkpt><trkpt lat="38.161131" lon="-2.7851348"><ele>698.0</ele><time>2026-04-13T09:42:00.67Z</time></trkpt><trkpt lat="38.1612366" lon="-2.7851145"><ele>694.75</ele><time>2026-04-13T09:42:01.67Z</time></trkpt><trkpt lat="38.1613446" lon="-2.7851181"><ele>691.5</ele><time>2026-04-13T09:42:02.67Z</time></trkpt><trkpt lat="38.1614579" lon="-2.7851411"><ele>688.25</ele><time>2026-04-13T09:42:03.67Z</time></trkpt><trkpt lat="38.1615691" lon="-2.7851728"><ele>685.0</ele><time>2026-04-13T09:42:04.67Z</time></trkpt><trkpt lat="38.1616835" lon="-2.7852113"><ele>692.25</ele><time>2026-04-13T09:42:05.67Z</time></trkpt><trkpt lat="38.1618002" lon="-2.7852468"><ele>699.5</ele><time>2026-04-13T09:42:06.67Z</time></trkpt><trkpt lat="38.1619186" lon="-2.7852715"><ele>706.75</ele><time>2026-04-13T09:42:07.67Z</time></trkpt><trkpt lat="38.1620436" lon="-2.7852737"><ele>714.0</ele><time>2026-04-13T09:42:08.67Z</time></trkpt><trkpt lat="38.1621717" lon="-2.7852654"><ele>714.0</ele><time>2026-04-13T09:42:09.67Z</time></trkpt><trkpt lat="38.1622971" lon="-2.7852424"><ele>714.0</ele><time>2026-04-13T09:42:10.67Z</time></trkpt><trkpt lat="38.162423" lon="-2.785216"><ele>714.0</ele><time>2026-04-13T09:42:11.67Z</time></trkpt><trkpt lat="38.162551" lon="-2.7851771"><ele>714.0</ele><time>2026-04-13T09:42:12.67Z</time></trkpt><trkpt lat="38.1626739" lon="-2.7851283"><ele>707.25</ele><time>2026-04-13T09:42:13.67Z</time></trkpt><trkpt lat="38.162784" lon="-2.7850665"><ele>700.5</ele><time>2026-04-13T09:42:14.67Z</time></trkpt><trkpt lat="38.1628832" lon="-2.7849928"><ele>693.75</ele><time>2026-04-13T09:42:15.67Z</time></trkpt><trkpt lat="38.1629813" lon="-2.7849182"><ele>687.0</ele><time>2026-04-13T09:42:16.67Z</time></trkpt><trkpt lat="38.1630793" lon="-2.7848847"><ele>687.0</ele><time>2026-04-13T09:42:17.67Z</time></trkpt><trkpt lat="38.1631942" lon="-2.7848783"><ele>687.0</ele><time>2026-04-13T09:42:18.67Z</time></trkpt><trkpt lat="38.1633106" lon="-2.7848965"><ele>687.0</ele><time>2026-04-13T09:42:19.67Z</time></trkpt><trkpt lat="38.1634275" lon="-2.7849182"><ele>687.0</ele><time>2026-04-13T09:42:20.67Z</time></trkpt><trkpt lat="38.1635495" lon="-2.7849309"><ele>687.0</ele><time>2026-04-13T09:42:21.67Z</time></trkpt><trkpt lat="38.1636647" lon="-2.7849447"><ele>687.0</ele><time>2026-04-13T09:42:22.67Z</time></trkpt><trkpt lat="38.1637995" lon="-2.7849479"><ele>687.0</ele><time>2026-04-13T09:42:23.67Z</time></trkpt><trkpt lat="38.1639283" lon="-2.784947"><ele>687.0</ele><time>2026-04-13T09:42:24.67Z</time></trkpt><trkpt lat="38.1640548" lon="-2.7849413"><ele>687.0</ele><time>2026-04-13T09:42:25.67Z</time></trkpt><trkpt lat="38.1641836" lon="-2.7849505"><ele>687.0</ele><time>2026-04-13T09:42:26.67Z</time></trkpt><trkpt lat="38.1643087" lon="-2.7849659"><ele>687.0</ele><time>2026-04-13T09:42:27.67Z</time></trkpt><trkpt lat="38.1644341" lon="-2.7849836"><ele>687.0</ele><time>2026-04-13T09:42:28.67Z</time></trkpt><trkpt lat="38.1645591" lon="-2.7849868"><ele>687.0</ele><time>2026-04-13T09:42:29.67Z</time></trkpt><trkpt lat="38.1646841" lon="-2.784985"><ele>687.0</ele><time>2026-04-13T09:42:30.67Z</time></trkpt><trkpt lat="38.1648085" lon="-2.7849836"><ele>687.0</ele><time>2026-04-13T09:42:31.67Z</time></trkpt><trkpt lat="38.1649379" lon="-2.7850065"><ele>687.0</ele><time>2026-04-13T09:42:32.67Z</time></trkpt><trkpt lat="38.1650577" lon="-2.7850604"><ele>685.0</ele><time>2026-04-13T09:42:33.67Z</time></trkpt><trkpt lat="38.1651717" lon="-2.7851383"><ele>683.0</ele><time>2026-04-13T09:42:34.67Z</time></trkpt><trkpt lat="38.1652777" lon="-2.7852253"><ele>681.0</ele><time>2026-04-13T09:42:35.67Z</time></trkpt><trkpt lat="38.1653717" lon="-2.7853244"><ele>679.0</ele><time>2026-04-13T09:42:36.67Z</time></trkpt><trkpt lat="38.1654548" lon="-2.785435"><ele>684.0</ele><time>2026-04-13T09:42:37.67Z</time></trkpt><trkpt lat="38.1655197" lon="-2.7855616"><ele>689.0</ele><time>2026-04-13T09:42:38.67Z</time></trkpt><trkpt lat="38.1655615" lon="-2.7857002"><ele>694.0</ele><time>2026-04-13T09:42:39.67Z</time></trkpt><trkpt lat="38.1655786" lon="-2.7858421"><ele>699.0</ele><time>2026-04-13T09:42:40.67Z</time></trkpt><trkpt lat="38.1655623" lon="-2.785985"><ele>700.25</ele><time>2026-04-13T09:42:41.67Z</time></trkpt><trkpt lat="38.165535" lon="-2.7861236"><ele>701.5</ele><time>2026-04-13T09:42:42.67Z</time></trkpt><trkpt lat="38.1655086" lon="-2.7862669"><ele>702.75</ele><time>2026-04-13T09:42:43.67Z</time></trkpt><trkpt lat="38.1654841" lon="-2.7864177"><ele>704.0</ele><time>2026-04-13T09:42:44.67Z</time></trkpt><trkpt lat="38.165464" lon="-2.7865637"><ele>704.0</ele><time>2026-04-13T09:42:45.67Z</time></trkpt><trkpt lat="38.1654507" lon="-2.7867"><ele>704.0</ele><time>2026-04-13T09:42:46.67Z</time></trkpt><trkpt lat="38.1654485" lon="-2.786836"><ele>704.0</ele><time>2026-04-13T09:42:47.67Z</time></trkpt><trkpt lat="38.1654684" lon="-2.7869643"><ele>704.0</ele><time>2026-04-13T09:42:48.67Z</time></trkpt><trkpt lat="38.1655088" lon="-2.7870828"><ele>704.0</ele><time>2026-04-13T09:42:49.67Z</time></trkpt><trkpt lat="38.1655593" lon="-2.7871939"><ele>704.6</ele><time>2026-04-13T09:42:50.67Z</time></trkpt><trkpt lat="38.1656088" lon="-2.7873049"><ele>705.2</ele><time>2026-04-13T09:42:51.67Z</time></trkpt><trkpt lat="38.1656556" lon="-2.7874218"><ele>705.8000000000001</ele><time>2026-04-13T09:42:52.67Z</time></trkpt><trkpt lat="38.1656978" lon="-2.7875417"><ele>706.4000000000001</ele><time>2026-04-13T09:42:53.67Z</time></trkpt><trkpt lat="38.1657347" lon="-2.787658"><ele>707.0</ele><time>2026-04-13T09:42:54.67Z</time></trkpt><trkpt lat="38.165766" lon="-2.7877589"><ele>703.0</ele><time>2026-04-13T09:42:55.67Z</time></trkpt><trkpt lat="38.1657944" lon="-2.7878485"><ele>699.0</ele><time>2026-04-13T09:42:56.67Z</time></trkpt><trkpt lat="38.1658327" lon="-2.7879706"><ele>695.0</ele><time>2026-04-13T09:42:58.671Z</time></trkpt><trkpt lat="38.1658646" lon="-2.7880518"><ele>691.0</ele><time>2026-04-13T09:43:01.67Z</time></trkpt><trkpt lat="38.1659059" lon="-2.7881489"><ele>687.0</ele><time>2026-04-13T09:43:27.67Z</time></trkpt><trkpt lat="38.1659575" lon="-2.7882783"><ele>687.0</ele><time>2026-04-13T09:43:29.67Z</time></trkpt><trkpt lat="38.1659873" lon="-2.7883609"><ele>687.0</ele><time>2026-04-13T09:43:30.67Z</time></trkpt><trkpt lat="38.166022" lon="-2.7884466"><ele>687.0</ele><time>2026-04-13T09:43:31.67Z</time></trkpt><trkpt lat="38.1660603" lon="-2.7885466"><ele>687.0</ele><time>2026-04-13T09:43:32.67Z</time></trkpt><trkpt lat="38.1660941" lon="-2.788657"><ele>687.0</ele><time>2026-04-13T09:43:33.67Z</time></trkpt><trkpt lat="38.1661225" lon="-2.7887693"><ele>687.0</ele><time>2026-04-13T09:43:34.67Z</time></trkpt><trkpt lat="38.1661508" lon="-2.7888853"><ele>688.6</ele><time>2026-04-13T09:43:35.67Z</time></trkpt><trkpt lat="38.1661824" lon="-2.7890071"><ele>690.2</ele><time>2026-04-13T09:43:36.67Z</time></trkpt><trkpt lat="38.1662222" lon="-2.7891251"><ele>691.8</ele><time>2026-04-13T09:43:37.67Z</time></trkpt><trkpt lat="38.1662723" lon="-2.7892367"><ele>693.4</ele><time>2026-04-13T09:43:38.67Z</time></trkpt><trkpt lat="38.1663358" lon="-2.7893383"><ele>695.0</ele><time>2026-04-13T09:43:39.67Z</time></trkpt><trkpt lat="38.1664089" lon="-2.7894278"><ele>695.6</ele><time>2026-04-13T09:43:40.67Z</time></trkpt><trkpt lat="38.1664951" lon="-2.7895097"><ele>696.2</ele><time>2026-04-13T09:43:41.67Z</time></trkpt><trkpt lat="38.1665893" lon="-2.7895873"><ele>696.8</ele><time>2026-04-13T09:43:42.67Z</time></trkpt><trkpt lat="38.1666777" lon="-2.7896666"><ele>697.4</ele><time>2026-04-13T09:43:43.67Z</time></trkpt><trkpt lat="38.1667575" lon="-2.7897618"><ele>698.0</ele><time>2026-04-13T09:43:44.67Z</time></trkpt><trkpt lat="38.1668191" lon="-2.7898688"><ele>694.0</ele><time>2026-04-13T09:43:45.67Z</time></trkpt><trkpt lat="38.1668499" lon="-2.78998"><ele>690.0</ele><time>2026-04-13T09:43:46.67Z</time></trkpt><trkpt lat="38.1668473" lon="-2.7900993"><ele>686.0</ele><time>2026-04-13T09:43:47.67Z</time></trkpt><trkpt lat="38.1668088" lon="-2.7902109"><ele>682.0</ele><time>2026-04-13T09:43:48.67Z</time></trkpt><trkpt lat="38.166756" lon="-2.7903173"><ele>678.0</ele><time>2026-04-13T09:43:49.671Z</time></trkpt><trkpt lat="38.1667059" lon="-2.7904296"><ele>678.0</ele><time>2026-04-13T09:43:50.67Z</time></trkpt><trkpt lat="38.1666788" lon="-2.7905548"><ele>678.0</ele><time>2026-04-13T09:43:51.67Z</time></trkpt><trkpt lat="38.1666906" lon="-2.7906888"><ele>678.0</ele><time>2026-04-13T09:43:52.67Z</time></trkpt><trkpt lat="38.1667415" lon="-2.7908095"><ele>678.0</ele><time>2026-04-13T09:43:53.67Z</time></trkpt><trkpt lat="38.1668181" lon="-2.7909072"><ele>678.0</ele><time>2026-04-13T09:43:54.67Z</time></trkpt><trkpt lat="38.1669047" lon="-2.7909976"><ele>680.5999999999999</ele><time>2026-04-13T09:43:55.67Z</time></trkpt><trkpt lat="38.1669858" lon="-2.7910897"><ele>683.1999999999999</ele><time>2026-04-13T09:43:56.67Z</time></trkpt><trkpt lat="38.1670511" lon="-2.7911896"><ele>685.8</ele><time>2026-04-13T09:43:57.67Z</time></trkpt><trkpt lat="38.1670966" lon="-2.7913023"><ele>688.4</ele><time>2026-04-13T09:43:58.67Z</time></trkpt><trkpt lat="38.1671236" lon="-2.791423"><ele>691.0</ele><time>2026-04-13T09:43:59.67Z</time></trkpt><trkpt lat="38.1671351" lon="-2.7915529"><ele>691.0</ele><time>2026-04-13T09:44:00.67Z</time></trkpt><trkpt lat="38.1671334" lon="-2.79169"><ele>691.0</ele><time>2026-04-13T09:44:01.67Z</time></trkpt><trkpt lat="38.1671193" lon="-2.7918246"><ele>691.0</ele><time>2026-04-13T09:44:02.67Z</time></trkpt><trkpt lat="38.1671019" lon="-2.7919619"><ele>691.0</ele><time>2026-04-13T09:44:03.67Z</time></trkpt><trkpt lat="38.1670833" lon="-2.7920983"><ele>691.0</ele><time>2026-04-13T09:44:04.67Z</time></trkpt><trkpt lat="38.1670663" lon="-2.7922376"><ele>690.5</ele><time>2026-04-13T09:44:05.67Z</time></trkpt><trkpt lat="38.1670491" lon="-2.7923763"><ele>690.0</ele><time>2026-04-13T09:44:06.67Z</time></trkpt><trkpt lat="38.1670219" lon="-2.7925172"><ele>689.5</ele><time>2026-04-13T09:44:07.67Z</time></trkpt><trkpt lat="38.1669804" lon="-2.792655"><ele>689.0</ele><time>2026-04-13T09:44:08.67Z</time></trkpt><trkpt lat="38.1669278" lon="-2.7927918"><ele>684.5</ele><time>2026-04-13T09:44:09.67Z</time></trkpt><trkpt lat="38.1668751" lon="-2.7929285"><ele>680.0</ele><time>2026-04-13T09:44:10.67Z</time></trkpt><trkpt lat="38.1668242" lon="-2.7930675"><ele>675.5</ele><time>2026-04-13T09:44:11.67Z</time></trkpt><trkpt lat="38.1667768" lon="-2.7932081"><ele>671.0</ele><time>2026-04-13T09:44:12.67Z</time></trkpt><trkpt lat="38.1667285" lon="-2.7933449"><ele>671.0</ele><time>2026-04-13T09:44:13.67Z</time></trkpt><trkpt lat="38.1666803" lon="-2.793478"><ele>671.0</ele><time>2026-04-13T09:44:14.67Z</time></trkpt><trkpt lat="38.1666323" lon="-2.793604"><ele>671.0</ele><time>2026-04-13T09:44:15.67Z</time></trkpt><trkpt lat="38.1665835" lon="-2.7937256"><ele>671.0</ele><time>2026-04-13T09:44:16.67Z</time></trkpt><trkpt lat="38.1665326" lon="-2.7938458"><ele>671.0</ele><time>2026-04-13T09:44:17.67Z</time></trkpt><trkpt lat="38.1664797" lon="-2.7939669"><ele>670.25</ele><time>2026-04-13T09:44:18.67Z</time></trkpt><trkpt lat="38.1664249" lon="-2.7940881"><ele>669.5</ele><time>2026-04-13T09:44:19.67Z</time></trkpt><trkpt lat="38.1663657" lon="-2.7942089"><ele>668.75</ele><time>2026-04-13T09:44:20.67Z</time></trkpt><trkpt lat="38.1663028" lon="-2.7943271"><ele>668.0</ele><time>2026-04-13T09:44:21.67Z</time></trkpt><trkpt lat="38.1662363" lon="-2.7944473"><ele>668.0</ele><time>2026-04-13T09:44:22.671Z</time></trkpt><trkpt lat="38.1661698" lon="-2.7945694"><ele>668.0</ele><time>2026-04-13T09:44:23.67Z</time></trkpt><trkpt lat="38.1660981" lon="-2.7946877"><ele>668.0</ele><time>2026-04-13T09:44:24.67Z</time></trkpt><trkpt lat="38.1660215" lon="-2.7948014"><ele>668.0</ele><time>2026-04-13T09:44:25.67Z</time></trkpt><trkpt lat="38.1659397" lon="-2.7949125"><ele>668.0</ele><time>2026-04-13T09:44:26.67Z</time></trkpt><trkpt lat="38.1658572" lon="-2.7950227"><ele>668.0</ele><time>2026-04-13T09:44:27.67Z</time></trkpt><trkpt lat="38.1657826" lon="-2.7951332"><ele>668.0</ele><time>2026-04-13T09:44:28.67Z</time></trkpt><trkpt lat="38.1657236" lon="-2.7952475"><ele>668.0</ele><time>2026-04-13T09:44:29.67Z</time></trkpt><trkpt lat="38.1656918" lon="-2.7953714"><ele>668.0</ele><time>2026-04-13T09:44:30.67Z</time></trkpt><trkpt lat="38.1656905" lon="-2.7955008"><ele>668.0</ele><time>2026-04-13T09:44:31.671Z</time></trkpt><trkpt lat="38.1657235" lon="-2.7956246"><ele>668.0</ele><time>2026-04-13T09:44:32.67Z</time></trkpt><trkpt lat="38.1657796" lon="-2.7957308"><ele>668.0</ele><time>2026-04-13T09:44:33.67Z</time></trkpt><trkpt lat="38.16586" lon="-2.7958245"><ele>668.0</ele><time>2026-04-13T09:44:34.67Z</time></trkpt><trkpt lat="38.165957" lon="-2.7958988"><ele>668.0</ele><time>2026-04-13T09:44:35.67Z</time></trkpt><trkpt lat="38.1660611" lon="-2.7959626"><ele>671.0</ele><time>2026-04-13T09:44:36.67Z</time></trkpt><trkpt lat="38.1661653" lon="-2.7960402"><ele>674.0</ele><time>2026-04-13T09:44:37.671Z</time></trkpt><trkpt lat="38.1662558" lon="-2.7961443"><ele>677.0</ele><time>2026-04-13T09:44:38.67Z</time></trkpt><trkpt lat="38.1663373" lon="-2.7962611"><ele>680.0</ele><time>2026-04-13T09:44:39.67Z</time></trkpt><trkpt lat="38.1664146" lon="-2.7963859"><ele>680.0</ele><time>2026-04-13T09:44:40.671Z</time></trkpt><trkpt lat="38.1664917" lon="-2.7965047"><ele>680.0</ele><time>2026-04-13T09:44:41.67Z</time></trkpt><trkpt lat="38.166565" lon="-2.7966241"><ele>680.0</ele><time>2026-04-13T09:44:42.67Z</time></trkpt><trkpt lat="38.1666225" lon="-2.7967519"><ele>680.0</ele><time>2026-04-13T09:44:43.67Z</time></trkpt><trkpt lat="38.1666599" lon="-2.7968928"><ele>678.25</ele><time>2026-04-13T09:44:44.67Z</time></trkpt><trkpt lat="38.1666809" lon="-2.7970442"><ele>676.5</ele><time>2026-04-13T09:44:45.67Z</time></trkpt><trkpt lat="38.1667008" lon="-2.7972035"><ele>674.75</ele><time>2026-04-13T09:44:46.67Z</time></trkpt><trkpt lat="38.166725" lon="-2.7973664"><ele>673.0</ele><time>2026-04-13T09:44:47.67Z</time></trkpt><trkpt lat="38.1667553" lon="-2.7975361"><ele>674.25</ele><time>2026-04-13T09:44:48.67Z</time></trkpt><trkpt lat="38.166791" lon="-2.7977078"><ele>675.5</ele><time>2026-04-13T09:44:49.67Z</time></trkpt><trkpt lat="38.1668293" lon="-2.797877"><ele>676.75</ele><time>2026-04-13T09:44:50.67Z</time></trkpt><trkpt lat="38.1668704" lon="-2.7980457"><ele>678.0</ele><time>2026-04-13T09:44:51.67Z</time></trkpt><trkpt lat="38.1669096" lon="-2.7982033"><ele>678.0</ele><time>2026-04-13T09:44:52.67Z</time></trkpt><trkpt lat="38.1669477" lon="-2.7983544"><ele>678.0</ele><time>2026-04-13T09:44:53.67Z</time></trkpt><trkpt lat="38.1669842" lon="-2.7984997"><ele>678.0</ele><time>2026-04-13T09:44:54.67Z</time></trkpt><trkpt lat="38.1670178" lon="-2.7986405"><ele>678.0</ele><time>2026-04-13T09:44:55.67Z</time></trkpt><trkpt lat="38.1670698" lon="-2.7987637"><ele>678.2</ele><time>2026-04-13T09:44:56.67Z</time></trkpt><trkpt lat="38.1671418" lon="-2.7988599"><ele>678.4</ele><time>2026-04-13T09:44:57.67Z</time></trkpt><trkpt lat="38.1672317" lon="-2.798926"><ele>678.6</ele><time>2026-04-13T09:44:58.67Z</time></trkpt><trkpt lat="38.1673267" lon="-2.7989472"><ele>678.8000000000001</ele><time>2026-04-13T09:44:59.67Z</time></trkpt><trkpt lat="38.1674211" lon="-2.7989239"><ele>679.0</ele><time>2026-04-13T09:45:00.67Z</time></trkpt><trkpt lat="38.1675086" lon="-2.7988742"><ele>679.0</ele><time>2026-04-13T09:45:01.67Z</time></trkpt><trkpt lat="38.1675984" lon="-2.798822"><ele>679.0</ele><time>2026-04-13T09:45:02.67Z</time></trkpt><trkpt lat="38.1676955" lon="-2.7987833"><ele>679.0</ele><time>2026-04-13T09:45:03.67Z</time></trkpt><trkpt lat="38.1677993" lon="-2.7987489"><ele>679.0</ele><time>2026-04-13T09:45:04.67Z</time></trkpt><trkpt lat="38.1679037" lon="-2.7987019"><ele>679.0</ele><time>2026-04-13T09:45:05.67Z</time></trkpt><trkpt lat="38.1680004" lon="-2.7986234"><ele>679.0</ele><time>2026-04-13T09:45:06.67Z</time></trkpt><trkpt lat="38.1680936" lon="-2.7985312"><ele>679.0</ele><time>2026-04-13T09:45:07.67Z</time></trkpt><trkpt lat="38.1681832" lon="-2.7984334"><ele>679.0</ele><time>2026-04-13T09:45:08.67Z</time></trkpt><trkpt lat="38.1682702" lon="-2.7983377"><ele>679.0</ele><time>2026-04-13T09:45:09.67Z</time></trkpt><trkpt lat="38.1683474" lon="-2.7982312"><ele>677.0</ele><time>2026-04-13T09:45:10.67Z</time></trkpt><trkpt lat="38.1684125" lon="-2.798115"><ele>675.0</ele><time>2026-04-13T09:45:11.67Z</time></trkpt><trkpt lat="38.1684702" lon="-2.7979922"><ele>673.0</ele><time>2026-04-13T09:45:12.67Z</time></trkpt><trkpt lat="38.1685269" lon="-2.7978702"><ele>671.0</ele><time>2026-04-13T09:45:13.67Z</time></trkpt><trkpt lat="38.1685832" lon="-2.7977459"><ele>669.0</ele><time>2026-04-13T09:45:14.671Z</time></trkpt><trkpt lat="38.1686399" lon="-2.797619"><ele>663.8000000000001</ele><time>2026-04-13T09:45:15.67Z</time></trkpt><trkpt lat="38.1686984" lon="-2.797489"><ele>658.6</ele><time>2026-04-13T09:45:16.67Z</time></trkpt><trkpt lat="38.1687553" lon="-2.7973588"><ele>653.4</ele><time>2026-04-13T09:45:17.67Z</time></trkpt><trkpt lat="38.1688144" lon="-2.7972408"><ele>648.2</ele><time>2026-04-13T09:45:18.67Z</time></trkpt><trkpt lat="38.1688821" lon="-2.797141"><ele>643.0</ele><time>2026-04-13T09:45:19.67Z</time></trkpt><trkpt lat="38.1689583" lon="-2.7970601"><ele>649.2</ele><time>2026-04-13T09:45:20.671Z</time></trkpt><trkpt lat="38.1690466" lon="-2.7969991"><ele>655.4</ele><time>2026-04-13T09:45:21.67Z</time></trkpt><trkpt lat="38.1691445" lon="-2.7969599"><ele>661.6</ele><time>2026-04-13T09:45:22.67Z</time></trkpt><trkpt lat="38.1692479" lon="-2.7969375"><ele>667.8000000000001</ele><time>2026-04-13T09:45:23.67Z</time></trkpt><trkpt lat="38.1693555" lon="-2.7969205"><ele>674.0</ele><time>2026-04-13T09:45:24.67Z</time></trkpt><trkpt lat="38.1694668" lon="-2.7969091"><ele>674.0</ele><time>2026-04-13T09:45:25.67Z</time></trkpt><trkpt lat="38.1695804" lon="-2.7969028"><ele>674.0</ele><time>2026-04-13T09:45:26.67Z</time></trkpt><trkpt lat="38.169693" lon="-2.7969058"><ele>674.0</ele><time>2026-04-13T09:45:27.67Z</time></trkpt><trkpt lat="38.1698055" lon="-2.7969186"><ele>674.0</ele><time>2026-04-13T09:45:28.67Z</time></trkpt><trkpt lat="38.1699142" lon="-2.7969285"><ele>674.0</ele><time>2026-04-13T09:45:29.67Z</time></trkpt><trkpt lat="38.1700251" lon="-2.7969231"><ele>675.4000000000001</ele><time>2026-04-13T09:45:30.67Z</time></trkpt><trkpt lat="38.1701324" lon="-2.7969047"><ele>676.8</ele><time>2026-04-13T09:45:31.67Z</time></trkpt><trkpt lat="38.1702378" lon="-2.7968693"><ele>678.2</ele><time>2026-04-13T09:45:32.67Z</time></trkpt><trkpt lat="38.1703393" lon="-2.7968215"><ele>679.5999999999999</ele><time>2026-04-13T09:45:33.67Z</time></trkpt><trkpt lat="38.1704352" lon="-2.7967635"><ele>681.0</ele><time>2026-04-13T09:45:34.67Z</time></trkpt><trkpt lat="38.1705222" lon="-2.7967024"><ele>675.1999999999999</ele><time>2026-04-13T09:45:35.67Z</time></trkpt><trkpt lat="38.170611" lon="-2.7966465"><ele>669.4</ele><time>2026-04-13T09:45:36.67Z</time></trkpt><trkpt lat="38.1706983" lon="-2.7966054"><ele>663.6</ele><time>2026-04-13T09:45:37.67Z</time></trkpt><trkpt lat="38.1707848" lon="-2.7965847"><ele>657.8</ele><time>2026-04-13T09:45:38.67Z</time></trkpt><trkpt lat="38.1708719" lon="-2.7965818"><ele>652.0</ele><time>2026-04-13T09:45:39.67Z</time></trkpt><trkpt lat="38.1709587" lon="-2.7965993"><ele>652.0</ele><time>2026-04-13T09:45:40.67Z</time></trkpt><trkpt lat="38.1710357" lon="-2.7966415"><ele>652.0</ele><time>2026-04-13T09:45:41.67Z</time></trkpt><trkpt lat="38.1711044" lon="-2.7967015"><ele>652.0</ele><time>2026-04-13T09:45:42.67Z</time></trkpt><trkpt lat="38.1711692" lon="-2.7967718"><ele>652.0</ele><time>2026-04-13T09:45:43.67Z</time></trkpt><trkpt lat="38.1712287" lon="-2.7968453"><ele>652.0</ele><time>2026-04-13T09:45:44.67Z</time></trkpt><trkpt lat="38.1712868" lon="-2.7969122"><ele>652.0</ele><time>2026-04-13T09:45:45.67Z</time></trkpt><trkpt lat="38.1713443" lon="-2.7969675"><ele>656.8</ele><time>2026-04-13T09:45:46.67Z</time></trkpt><trkpt lat="38.171407" lon="-2.7970084"><ele>661.6</ele><time>2026-04-13T09:45:47.67Z</time></trkpt><trkpt lat="38.1714748" lon="-2.7970359"><ele>666.4</ele><time>2026-04-13T09:45:48.67Z</time></trkpt><trkpt lat="38.1715942" lon="-2.7970382"><ele>671.1999999999999</ele><time>2026-04-13T09:45:50.67Z</time></trkpt><trkpt lat="38.1716995" lon="-2.7970098"><ele>676.0</ele><time>2026-04-13T09:45:52.67Z</time></trkpt><trkpt lat="38.1718013" lon="-2.7969831"><ele>676.0</ele><time>2026-04-13T09:45:54.67Z</time></trkpt><trkpt lat="38.1719019" lon="-2.7969529"><ele>676.0</ele><time>2026-04-13T09:45:56.67Z</time></trkpt><trkpt lat="38.172" lon="-2.796923"><ele>676.0</ele><time>2026-04-13T09:45:58.67Z</time></trkpt><trkpt lat="38.1721002" lon="-2.7968959"><ele>676.0</ele><time>2026-04-13T09:46:00.67Z</time></trkpt><trkpt lat="38.1722033" lon="-2.7968723"><ele>676.0</ele><time>2026-04-13T09:46:02.67Z</time></trkpt><trkpt lat="38.1723091" lon="-2.7968547"><ele>676.4</ele><time>2026-04-13T09:46:04.67Z</time></trkpt><trkpt lat="38.1724205" lon="-2.796844"><ele>676.8</ele><time>2026-04-13T09:46:06.67Z</time></trkpt><trkpt lat="38.1725377" lon="-2.7968472"><ele>677.1999999999999</ele><time>2026-04-13T09:46:08.67Z</time></trkpt><trkpt lat="38.1726651" lon="-2.7968671"><ele>677.5999999999999</ele><time>2026-04-13T09:46:10.67Z</time></trkpt><trkpt lat="38.1727333" lon="-2.7968723"><ele>678.0</ele><time>2026-04-13T09:46:11.67Z</time></trkpt><trkpt lat="38.1728042" lon="-2.7968799"><ele>678.0</ele><time>2026-04-13T09:46:12.67Z</time></trkpt><trkpt lat="38.1728771" lon="-2.7968924"><ele>678.0</ele><time>2026-04-13T09:46:13.67Z</time></trkpt><trkpt lat="38.1729523" lon="-2.7969128"><ele>678.0</ele><time>2026-04-13T09:46:14.67Z</time></trkpt><trkpt lat="38.1730301" lon="-2.796939"><ele>678.0</ele><time>2026-04-13T09:46:15.67Z</time></trkpt><trkpt lat="38.1731107" lon="-2.7969653"><ele>678.0</ele><time>2026-04-13T09:46:16.67Z</time></trkpt><trkpt lat="38.1731935" lon="-2.7969798"><ele>678.0</ele><time>2026-04-13T09:46:17.67Z</time></trkpt><trkpt lat="38.1732791" lon="-2.7969775"><ele>678.3333333333334</ele><time>2026-04-13T09:46:18.67Z</time></trkpt><trkpt lat="38.1733639" lon="-2.7969577"><ele>678.6666666666666</ele><time>2026-04-13T09:46:19.67Z</time></trkpt><trkpt lat="38.1734441" lon="-2.7969097"><ele>679.0</ele><time>2026-04-13T09:46:20.67Z</time></trkpt><trkpt lat="38.1735102" lon="-2.7968393"><ele>679.3333333333333</ele><time>2026-04-13T09:46:21.67Z</time></trkpt><trkpt lat="38.173558" lon="-2.7967668"><ele>679.6666666666666</ele><time>2026-04-13T09:46:23.67Z</time></trkpt><trkpt lat="38.1736067" lon="-2.7967126"><ele>680.0</ele><time>2026-04-13T09:47:39.67Z</time></trkpt><trkpt lat="38.1736603" lon="-2.7966641"><ele>673.6666666666666</ele><time>2026-04-13T09:47:41.67Z</time></trkpt><trkpt lat="38.1737101" lon="-2.7966093"><ele>667.3333333333333</ele><time>2026-04-13T09:47:43.67Z</time></trkpt><trkpt lat="38.1737297" lon="-2.7965198"><ele>661.0</ele><time>2026-04-13T09:47:44.67Z</time></trkpt><trkpt lat="38.1738043" lon="-2.7964134"><ele>654.6666666666666</ele><time>2026-04-13T09:47:46.67Z</time></trkpt><trkpt lat="38.1738851" lon="-2.7962962"><ele>648.3333333333334</ele><time>2026-04-13T09:47:48.67Z</time></trkpt><trkpt lat="38.1739349" lon="-2.7962417"><ele>642.0</ele><time>2026-04-13T09:47:49.67Z</time></trkpt><trkpt lat="38.1740793" lon="-2.796097"><ele>639.0</ele><time>2026-04-13T09:47:52.67Z</time></trkpt><trkpt lat="38.1741269" lon="-2.7960109"><ele>636.0</ele><time>2026-04-13T09:47:54.67Z</time></trkpt><trkpt lat="38.1742588" lon="-2.7959482"><ele>633.0</ele><time>2026-04-13T09:47:56.67Z</time></trkpt><trkpt lat="38.1743334" lon="-2.7959273"><ele>630.0</ele><time>2026-04-13T09:47:57.67Z</time></trkpt><trkpt lat="38.1744093" lon="-2.7959115"><ele>627.0</ele><time>2026-04-13T09:47:58.67Z</time></trkpt><trkpt lat="38.1744815" lon="-2.7958975"><ele>627.0</ele><time>2026-04-13T09:47:59.67Z</time></trkpt><trkpt lat="38.174555" lon="-2.7958869"><ele>627.0</ele><time>2026-04-13T09:48:00.67Z</time></trkpt><trkpt lat="38.1746238" lon="-2.7958825"><ele>627.0</ele><time>2026-04-13T09:48:01.67Z</time></trkpt><trkpt lat="38.1746985" lon="-2.7958744"><ele>627.0</ele><time>2026-04-13T09:48:02.67Z</time></trkpt><trkpt lat="38.1747751" lon="-2.7958788"><ele>627.0</ele><time>2026-04-13T09:48:03.67Z</time></trkpt><trkpt lat="38.174849" lon="-2.7958879"><ele>627.0</ele><time>2026-04-13T09:48:04.67Z</time></trkpt><trkpt lat="38.1749287" lon="-2.7958991"><ele>627.0</ele><time>2026-04-13T09:48:05.67Z</time></trkpt><trkpt lat="38.1750039" lon="-2.7959179"><ele>626.6666666666666</ele><time>2026-04-13T09:48:06.67Z</time></trkpt><trkpt lat="38.1750772" lon="-2.7959381"><ele>626.3333333333334</ele><time>2026-04-13T09:48:07.67Z</time></trkpt><trkpt lat="38.1751495" lon="-2.7959682"><ele>626.0</ele><time>2026-04-13T09:48:08.67Z</time></trkpt><trkpt lat="38.1752156" lon="-2.7959949"><ele>625.6666666666667</ele><time>2026-04-13T09:48:09.671Z</time></trkpt><trkpt lat="38.1752796" lon="-2.7960292"><ele>625.3333333333334</ele><time>2026-04-13T09:48:10.67Z</time></trkpt><trkpt lat="38.1753876" lon="-2.7960346"><ele>625.0</ele><time>2026-04-13T09:48:12.67Z</time></trkpt><trkpt lat="38.1754757" lon="-2.7959515"><ele>625.0</ele><time>2026-04-13T09:48:14.67Z</time></trkpt><trkpt lat="38.1755631" lon="-2.7958593"><ele>625.0</ele><time>2026-04-13T09:48:16.67Z</time></trkpt><trkpt lat="38.1756516" lon="-2.7957615"><ele>625.0</ele><time>2026-04-13T09:48:18.67Z</time></trkpt><trkpt lat="38.1757663" lon="-2.795672"><ele>625.0</ele><time>2026-04-13T09:48:20.67Z</time></trkpt><trkpt lat="38.1758132" lon="-2.7955279"><ele>628.0000000000001</ele><time>2026-04-13T09:48:22.67Z</time></trkpt><trkpt lat="38.1758241" lon="-2.7954382"><ele>631.0</ele><time>2026-04-13T09:48:23.67Z</time></trkpt><trkpt lat="38.1758405" lon="-2.7953464"><ele>634.0</ele><time>2026-04-13T09:48:24.67Z</time></trkpt><trkpt lat="38.1758634" lon="-2.7952622"><ele>637.0</ele><time>2026-04-13T09:48:25.67Z</time></trkpt><trkpt lat="38.1758911" lon="-2.7951684"><ele>640.0</ele><time>2026-04-13T09:48:26.67Z</time></trkpt><trkpt lat="38.1758912" lon="-2.7950768"><ele>643.0000000000001</ele><time>2026-04-13T09:48:27.67Z</time></trkpt><trkpt lat="38.1758755" lon="-2.7949747"><ele>646.0</ele><time>2026-04-13T09:48:28.67Z</time></trkpt><trkpt lat="38.1758565" lon="-2.7948782"><ele>646.4</ele><time>2026-04-13T09:48:29.67Z</time></trkpt><trkpt lat="38.1758294" lon="-2.794774"><ele>646.8</ele><time>2026-04-13T09:48:30.67Z</time></trkpt><trkpt lat="38.1757597" lon="-2.7946069"><ele>647.1999999999999</ele><time>2026-04-13T09:48:32.67Z</time></trkpt><trkpt lat="38.1757177" lon="-2.7945192"><ele>647.5999999999999</ele><time>2026-04-13T09:48:33.67Z</time></trkpt><trkpt lat="38.1756826" lon="-2.7944362"><ele>648.0</ele><time>2026-04-13T09:48:34.67Z</time></trkpt><trkpt lat="38.1756401" lon="-2.79435"><ele>645.8571428571429</ele><time>2026-04-13T09:48:35.67Z</time></trkpt><trkpt lat="38.1755996" lon="-2.7942709"><ele>643.7142857142857</ele><time>2026-04-13T09:48:36.67Z</time></trkpt><trkpt lat="38.1755539" lon="-2.7941936"><ele>641.5714285714286</ele><time>2026-04-13T09:48:37.67Z</time></trkpt><trkpt lat="38.1755171" lon="-2.7941148"><ele>639.4285714285714</ele><time>2026-04-13T09:48:38.67Z</time></trkpt><trkpt lat="38.1754802" lon="-2.7940368"><ele>637.2857142857143</ele><time>2026-04-13T09:48:39.67Z</time></trkpt><trkpt lat="38.1754434" lon="-2.7939516"><ele>635.1428571428571</ele><time>2026-04-13T09:48:40.67Z</time></trkpt><trkpt lat="38.175407" lon="-2.7938646"><ele>633.0</ele><time>2026-04-13T09:48:41.67Z</time></trkpt><trkpt lat="38.1753705" lon="-2.7937752"><ele>633.0</ele><time>2026-04-13T09:48:42.67Z</time></trkpt><trkpt lat="38.1753327" lon="-2.7936866"><ele>633.0</ele><time>2026-04-13T09:48:43.671Z</time></trkpt><trkpt lat="38.1752912" lon="-2.7935973"><ele>633.0</ele><time>2026-04-13T09:48:44.67Z</time></trkpt><trkpt lat="38.1752533" lon="-2.7935123"><ele>633.0</ele><time>2026-04-13T09:48:45.67Z</time></trkpt><trkpt lat="38.1752086" lon="-2.7934289"><ele>633.0</ele><time>2026-04-13T09:48:46.67Z</time></trkpt><trkpt lat="38.1751627" lon="-2.7933433"><ele>633.0</ele><time>2026-04-13T09:48:47.67Z</time></trkpt><trkpt lat="38.1751127" lon="-2.7932634"><ele>631.6666666666666</ele><time>2026-04-13T09:48:48.67Z</time></trkpt><trkpt lat="38.1750632" lon="-2.7931728"><ele>630.3333333333334</ele><time>2026-04-13T09:48:49.67Z</time></trkpt><trkpt lat="38.1750144" lon="-2.7930835"><ele>629.0</ele><time>2026-04-13T09:48:50.67Z</time></trkpt><trkpt lat="38.1749632" lon="-2.7929963"><ele>627.6666666666667</ele><time>2026-04-13T09:48:51.67Z</time></trkpt><trkpt lat="38.1749216" lon="-2.792922"><ele>626.3333333333334</ele><time>2026-04-13T09:48:52.67Z</time></trkpt><trkpt lat="38.1748544" lon="-2.7928041"><ele>625.0</ele><time>2026-04-13T09:48:54.67Z</time></trkpt><trkpt lat="38.1747842" lon="-2.792679"><ele>628.1666666666667</ele><time>2026-04-13T09:48:56.67Z</time></trkpt><trkpt lat="38.1747384" lon="-2.7926026"><ele>631.3333333333334</ele><time>2026-04-13T09:48:57.67Z</time></trkpt><trkpt lat="38.1746836" lon="-2.792535"><ele>634.5</ele><time>2026-04-13T09:48:58.67Z</time></trkpt><trkpt lat="38.1746173" lon="-2.7924667"><ele>637.6666666666666</ele><time>2026-04-13T09:48:59.67Z</time></trkpt><trkpt lat="38.1745436" lon="-2.7924056"><ele>640.8333333333333</ele><time>2026-04-13T09:49:00.67Z</time></trkpt><trkpt lat="38.174465" lon="-2.7923596"><ele>644.0</ele><time>2026-04-13T09:49:01.67Z</time></trkpt><trkpt lat="38.1743788" lon="-2.7923131"><ele>644.0</ele><time>2026-04-13T09:49:02.67Z</time></trkpt><trkpt lat="38.1742923" lon="-2.79227"><ele>644.0</ele><time>2026-04-13T09:49:03.67Z</time></trkpt><trkpt lat="38.1742091" lon="-2.7922188"><ele>644.0</ele><time>2026-04-13T09:49:04.67Z</time></trkpt><trkpt lat="38.1741212" lon="-2.7921695"><ele>644.0</ele><time>2026-04-13T09:49:05.67Z</time></trkpt><trkpt lat="38.1740329" lon="-2.7921212"><ele>644.0</ele><time>2026-04-13T09:49:06.67Z</time></trkpt><trkpt lat="38.1739447" lon="-2.7920746"><ele>642.6666666666666</ele><time>2026-04-13T09:49:07.67Z</time></trkpt><trkpt lat="38.1738575" lon="-2.7920243"><ele>641.3333333333333</ele><time>2026-04-13T09:49:08.67Z</time></trkpt><trkpt lat="38.1737783" lon="-2.7919813"><ele>640.0</ele><time>2026-04-13T09:49:09.67Z</time></trkpt><trkpt lat="38.1737071" lon="-2.7919439"><ele>638.6666666666666</ele><time>2026-04-13T09:49:10.67Z</time></trkpt><trkpt lat="38.1735981" lon="-2.7919158"><ele>637.3333333333334</ele><time>2026-04-13T09:49:12.67Z</time></trkpt><trkpt lat="38.1735212" lon="-2.7919227"><ele>636.0</ele><time>2026-04-13T09:49:24.67Z</time></trkpt><trkpt lat="38.1735463" lon="-2.791849"><ele>642.0</ele><time>2026-04-13T09:50:22.67Z</time></trkpt><trkpt lat="38.1733682" lon="-2.7917465"><ele>648.0</ele><time>2026-04-13T09:50:24.67Z</time></trkpt><trkpt lat="38.1732576" lon="-2.7916885"><ele>654.0</ele><time>2026-04-13T09:50:26.67Z</time></trkpt><trkpt lat="38.1731954" lon="-2.7916537"><ele>660.0</ele><time>2026-04-13T09:50:27.67Z</time></trkpt><trkpt lat="38.1731337" lon="-2.7916202"><ele>660.0</ele><time>2026-04-13T09:50:28.67Z</time></trkpt><trkpt lat="38.1730647" lon="-2.7915792"><ele>660.0</ele><time>2026-04-13T09:50:29.67Z</time></trkpt><trkpt lat="38.1729931" lon="-2.7915384"><ele>660.0</ele><time>2026-04-13T09:50:30.67Z</time></trkpt><trkpt lat="38.1729219" lon="-2.791501"><ele>660.0</ele><time>2026-04-13T09:50:31.67Z</time></trkpt><trkpt lat="38.1728462" lon="-2.7914563"><ele>660.0</ele><time>2026-04-13T09:50:32.67Z</time></trkpt><trkpt lat="38.1727668" lon="-2.7914162"><ele>660.0</ele><time>2026-04-13T09:50:33.671Z</time></trkpt><trkpt lat="38.1726905" lon="-2.7913763"><ele>660.0</ele><time>2026-04-13T09:50:34.67Z</time></trkpt><trkpt lat="38.1726185" lon="-2.7913327"><ele>660.0</ele><time>2026-04-13T09:50:35.67Z</time></trkpt><trkpt lat="38.172547" lon="-2.7912903"><ele>660.0</ele><time>2026-04-13T09:50:36.67Z</time></trkpt><trkpt lat="38.1724712" lon="-2.7912479"><ele>660.0</ele><time>2026-04-13T09:50:37.67Z</time></trkpt><trkpt lat="38.1723943" lon="-2.7912067"><ele>660.0</ele><time>2026-04-13T09:50:38.67Z</time></trkpt><trkpt lat="38.1723195" lon="-2.791164"><ele>660.0</ele><time>2026-04-13T09:50:39.67Z</time></trkpt><trkpt lat="38.1722377" lon="-2.7911196"><ele>661.2</ele><time>2026-04-13T09:50:40.67Z</time></trkpt><trkpt lat="38.1721513" lon="-2.7910709"><ele>662.4</ele><time>2026-04-13T09:50:41.67Z</time></trkpt><trkpt lat="38.1720676" lon="-2.7910087"><ele>663.5999999999999</ele><time>2026-04-13T09:50:42.67Z</time></trkpt><trkpt lat="38.1719761" lon="-2.7909599"><ele>664.8</ele><time>2026-04-13T09:50:43.67Z</time></trkpt><trkpt lat="38.1718806" lon="-2.7909025"><ele>666.0</ele><time>2026-04-13T09:50:44.67Z</time></trkpt><trkpt lat="38.171798" lon="-2.7908311"><ele>666.0</ele><time>2026-04-13T09:50:45.67Z</time></trkpt><trkpt lat="38.1717209" lon="-2.7907333"><ele>666.0</ele><time>2026-04-13T09:50:46.67Z</time></trkpt><trkpt lat="38.1716473" lon="-2.7906272"><ele>666.0</ele><time>2026-04-13T09:50:47.67Z</time></trkpt><trkpt lat="38.1715739" lon="-2.790513"><ele>666.0</ele><time>2026-04-13T09:50:48.67Z</time></trkpt><trkpt lat="38.1714986" lon="-2.7904007"><ele>666.0</ele><time>2026-04-13T09:50:49.67Z</time></trkpt><trkpt lat="38.1714249" lon="-2.7902913"><ele>666.0</ele><time>2026-04-13T09:50:50.67Z</time></trkpt><trkpt lat="38.171337" lon="-2.7901815"><ele>666.0</ele><time>2026-04-13T09:50:51.67Z</time></trkpt><trkpt lat="38.1712446" lon="-2.7900786"><ele>666.0</ele><time>2026-04-13T09:50:52.67Z</time></trkpt><trkpt lat="38.1711467" lon="-2.7899842"><ele>666.0</ele><time>2026-04-13T09:50:53.67Z</time></trkpt><trkpt lat="38.1710396" lon="-2.7899108"><ele>666.0</ele><time>2026-04-13T09:50:54.67Z</time></trkpt><trkpt lat="38.1709349" lon="-2.7898345"><ele>666.0</ele><time>2026-04-13T09:50:55.67Z</time></trkpt><trkpt lat="38.1708317" lon="-2.7897432"><ele>666.0</ele><time>2026-04-13T09:50:56.671Z</time></trkpt><trkpt lat="38.1707386" lon="-2.7896243"><ele>657.75</ele><time>2026-04-13T09:50:57.67Z</time></trkpt><trkpt lat="38.1706651" lon="-2.7894983"><ele>649.5</ele><time>2026-04-13T09:50:58.67Z</time></trkpt><trkpt lat="38.1706006" lon="-2.7893526"><ele>641.25</ele><time>2026-04-13T09:50:59.67Z</time></trkpt><trkpt lat="38.170556" lon="-2.7891913"><ele>633.0</ele><time>2026-04-13T09:51:00.67Z</time></trkpt><trkpt lat="38.1705069" lon="-2.7890348"><ele>633.0</ele><time>2026-04-13T09:51:01.67Z</time></trkpt><trkpt lat="38.1704617" lon="-2.7888773"><ele>633.0</ele><time>2026-04-13T09:51:02.67Z</time></trkpt><trkpt lat="38.1704255" lon="-2.7887113"><ele>633.0</ele><time>2026-04-13T09:51:03.67Z</time></trkpt><trkpt lat="38.1703875" lon="-2.7885467"><ele>633.0</ele><time>2026-04-13T09:51:04.67Z</time></trkpt><trkpt lat="38.1703504" lon="-2.7883841"><ele>635.25</ele><time>2026-04-13T09:51:05.67Z</time></trkpt><trkpt lat="38.1703108" lon="-2.7882313"><ele>637.5</ele><time>2026-04-13T09:51:06.67Z</time></trkpt><trkpt lat="38.1702726" lon="-2.7880785"><ele>639.75</ele><time>2026-04-13T09:51:07.67Z</time></trkpt><trkpt lat="38.1702396" lon="-2.7879364"><ele>642.0</ele><time>2026-04-13T09:51:08.67Z</time></trkpt><trkpt lat="38.1702211" lon="-2.7877917"><ele>641.25</ele><time>2026-04-13T09:51:09.67Z</time></trkpt><trkpt lat="38.1702238" lon="-2.7876506"><ele>640.5</ele><time>2026-04-13T09:51:10.67Z</time></trkpt><trkpt lat="38.1702385" lon="-2.7874973"><ele>639.75</ele><time>2026-04-13T09:51:11.671Z</time></trkpt><trkpt lat="38.1702398" lon="-2.7873472"><ele>639.0</ele><time>2026-04-13T09:51:12.67Z</time></trkpt><trkpt lat="38.170247" lon="-2.7871964"><ele>639.0</ele><time>2026-04-13T09:51:13.67Z</time></trkpt><trkpt lat="38.1702391" lon="-2.7870594"><ele>639.0</ele><time>2026-04-13T09:51:14.67Z</time></trkpt><trkpt lat="38.170226" lon="-2.7869208"><ele>639.0</ele><time>2026-04-13T09:51:15.67Z</time></trkpt><trkpt lat="38.1702077" lon="-2.7867913"><ele>639.0</ele><time>2026-04-13T09:51:16.67Z</time></trkpt><trkpt lat="38.1701953" lon="-2.7866577"><ele>639.0</ele><time>2026-04-13T09:51:17.67Z</time></trkpt><trkpt lat="38.1701971" lon="-2.7865256"><ele>639.2</ele><time>2026-04-13T09:51:18.67Z</time></trkpt><trkpt lat="38.1702208" lon="-2.7863954"><ele>639.4</ele><time>2026-04-13T09:51:19.67Z</time></trkpt><trkpt lat="38.1702563" lon="-2.7862628"><ele>639.6</ele><time>2026-04-13T09:51:20.67Z</time></trkpt><trkpt lat="38.1702965" lon="-2.7861253"><ele>639.8</ele><time>2026-04-13T09:51:21.67Z</time></trkpt><trkpt lat="38.1703264" lon="-2.7859866"><ele>640.0</ele><time>2026-04-13T09:51:22.67Z</time></trkpt><trkpt lat="38.1703601" lon="-2.7858478"><ele>638.4</ele><time>2026-04-13T09:51:23.67Z</time></trkpt><trkpt lat="38.1703942" lon="-2.7857069"><ele>636.8</ele><time>2026-04-13T09:51:24.67Z</time></trkpt><trkpt lat="38.1704383" lon="-2.7855752"><ele>635.2</ele><time>2026-04-13T09:51:25.67Z</time></trkpt><trkpt lat="38.1704847" lon="-2.7854578"><ele>633.6</ele><time>2026-04-13T09:51:26.671Z</time></trkpt><trkpt lat="38.1705249" lon="-2.78533"><ele>632.0</ele><time>2026-04-13T09:51:27.67Z</time></trkpt><trkpt lat="38.1705757" lon="-2.7852146"><ele>630.0</ele><time>2026-04-13T09:51:28.67Z</time></trkpt><trkpt lat="38.170629" lon="-2.7851107"><ele>628.0</ele><time>2026-04-13T09:51:29.67Z</time></trkpt><trkpt lat="38.170723" lon="-2.7850156"><ele>626.0</ele><time>2026-04-13T09:51:30.67Z</time></trkpt><trkpt lat="38.170811" lon="-2.7849302"><ele>624.0</ele><time>2026-04-13T09:51:31.67Z</time></trkpt><trkpt lat="38.1708921" lon="-2.7848321"><ele>622.0</ele><time>2026-04-13T09:51:32.67Z</time></trkpt><trkpt lat="38.1709999" lon="-2.7847429"><ele>629.25</ele><time>2026-04-13T09:51:33.67Z</time></trkpt><trkpt lat="38.1711045" lon="-2.7846523"><ele>636.5</ele><time>2026-04-13T09:51:34.67Z</time></trkpt><trkpt lat="38.171205" lon="-2.7845585"><ele>643.75</ele><time>2026-04-13T09:51:35.67Z</time></trkpt><trkpt lat="38.1713041" lon="-2.784454"><ele>651.0</ele><time>2026-04-13T09:51:36.67Z</time></trkpt><trkpt lat="38.1714086" lon="-2.7843685"><ele>653.25</ele><time>2026-04-13T09:51:37.67Z</time></trkpt><trkpt lat="38.1715044" lon="-2.7842608"><ele>655.5</ele><time>2026-04-13T09:51:38.67Z</time></trkpt><trkpt lat="38.1715936" lon="-2.7841493"><ele>657.75</ele><time>2026-04-13T09:51:39.67Z</time></trkpt><trkpt lat="38.1716737" lon="-2.7840254"><ele>660.0</ele><time>2026-04-13T09:51:40.67Z</time></trkpt><trkpt lat="38.1717479" lon="-2.783896"><ele>660.0</ele><time>2026-04-13T09:51:41.67Z</time></trkpt><trkpt lat="38.1718319" lon="-2.7837734"><ele>660.0</ele><time>2026-04-13T09:51:42.67Z</time></trkpt><trkpt lat="38.1719068" lon="-2.7836437"><ele>660.0</ele><time>2026-04-13T09:51:43.67Z</time></trkpt><trkpt lat="38.1719828" lon="-2.7835194"><ele>660.0</ele><time>2026-04-13T09:51:44.67Z</time></trkpt><trkpt lat="38.1720613" lon="-2.7833964"><ele>656.0</ele><time>2026-04-13T09:51:45.67Z</time></trkpt><trkpt lat="38.1721279" lon="-2.7832918"><ele>652.0</ele><time>2026-04-13T09:51:46.67Z</time></trkpt><trkpt lat="38.1722069" lon="-2.7831482"><ele>648.0</ele><time>2026-04-13T09:51:47.67Z</time></trkpt><trkpt lat="38.1722798" lon="-2.7830146"><ele>644.0</ele><time>2026-04-13T09:51:48.67Z</time></trkpt><trkpt lat="38.1723559" lon="-2.7828837"><ele>648.5</ele><time>2026-04-13T09:51:49.67Z</time></trkpt><trkpt lat="38.1724338" lon="-2.7827604"><ele>653.0</ele><time>2026-04-13T09:51:50.67Z</time></trkpt><trkpt lat="38.1725086" lon="-2.7826265"><ele>657.5</ele><time>2026-04-13T09:51:51.67Z</time></trkpt><trkpt lat="38.1725862" lon="-2.782493"><ele>662.0</ele><time>2026-04-13T09:51:52.67Z</time></trkpt><trkpt lat="38.1726608" lon="-2.7823596"><ele>662.0</ele><time>2026-04-13T09:51:53.67Z</time></trkpt><trkpt lat="38.1727394" lon="-2.7822289"><ele>662.0</ele><time>2026-04-13T09:51:54.67Z</time></trkpt><trkpt lat="38.1728156" lon="-2.7820952"><ele>662.0</ele><time>2026-04-13T09:51:55.67Z</time></trkpt><trkpt lat="38.1728924" lon="-2.7819652"><ele>662.0</ele><time>2026-04-13T09:51:56.67Z</time></trkpt><trkpt lat="38.1729694" lon="-2.7818364"><ele>666.0</ele><time>2026-04-13T09:51:57.67Z</time></trkpt><trkpt lat="38.1730462" lon="-2.7817053"><ele>670.0</ele><time>2026-04-13T09:51:58.67Z</time></trkpt><trkpt lat="38.1731213" lon="-2.7815777"><ele>674.0</ele><time>2026-04-13T09:51:59.67Z</time></trkpt><trkpt lat="38.1731994" lon="-2.7814572"><ele>678.0</ele><time>2026-04-13T09:52:00.67Z</time></trkpt><trkpt lat="38.1732866" lon="-2.7813428"><ele>678.0</ele><time>2026-04-13T09:52:01.67Z</time></trkpt><trkpt lat="38.173392" lon="-2.7812551"><ele>678.0</ele><time>2026-04-13T09:52:02.67Z</time></trkpt><trkpt lat="38.1735028" lon="-2.7811807"><ele>678.0</ele><time>2026-04-13T09:52:03.67Z</time></trkpt><trkpt lat="38.1736203" lon="-2.7811284"><ele>678.0</ele><time>2026-04-13T09:52:04.67Z</time></trkpt><trkpt lat="38.1737276" lon="-2.7810578"><ele>678.25</ele><time>2026-04-13T09:52:05.67Z</time></trkpt><trkpt lat="38.1738487" lon="-2.7810026"><ele>678.5</ele><time>2026-04-13T09:52:06.67Z</time></trkpt><trkpt lat="38.1739666" lon="-2.7809567"><ele>678.75</ele><time>2026-04-13T09:52:07.67Z</time></trkpt><trkpt lat="38.174086" lon="-2.7809075"><ele>679.0</ele><time>2026-04-13T09:52:08.67Z</time></trkpt><trkpt lat="38.174195" lon="-2.7808563"><ele>679.0</ele><time>2026-04-13T09:52:09.67Z</time></trkpt><trkpt lat="38.174296" lon="-2.7807822"><ele>679.0</ele><time>2026-04-13T09:52:10.67Z</time></trkpt><trkpt lat="38.1743876" lon="-2.7806786"><ele>679.0</ele><time>2026-04-13T09:52:11.671Z</time></trkpt><trkpt lat="38.1744712" lon="-2.7805659"><ele>679.0</ele><time>2026-04-13T09:52:12.67Z</time></trkpt><trkpt lat="38.1745587" lon="-2.7804523"><ele>679.0</ele><time>2026-04-13T09:52:13.671Z</time></trkpt><trkpt lat="38.1746428" lon="-2.7803298"><ele>679.0</ele><time>2026-04-13T09:52:14.67Z</time></trkpt><trkpt lat="38.1747279" lon="-2.7802106"><ele>679.0</ele><time>2026-04-13T09:52:15.67Z</time></trkpt><trkpt lat="38.174818" lon="-2.780098"><ele>679.0</ele><time>2026-04-13T09:52:16.67Z</time></trkpt><trkpt lat="38.1749052" lon="-2.7799836"><ele>680.25</ele><time>2026-04-13T09:52:17.67Z</time></trkpt><trkpt lat="38.1749955" lon="-2.779865"><ele>681.5</ele><time>2026-04-13T09:52:18.67Z</time></trkpt><trkpt lat="38.1750842" lon="-2.7797531"><ele>682.75</ele><time>2026-04-13T09:52:19.67Z</time></trkpt><trkpt lat="38.1751712" lon="-2.7796425"><ele>684.0</ele><time>2026-04-13T09:52:20.67Z</time></trkpt><trkpt lat="38.1752605" lon="-2.7795299"><ele>684.0</ele><time>2026-04-13T09:52:21.67Z</time></trkpt><trkpt lat="38.1753449" lon="-2.7794159"><ele>684.0</ele><time>2026-04-13T09:52:22.67Z</time></trkpt><trkpt lat="38.1754264" lon="-2.7792972"><ele>684.0</ele><time>2026-04-13T09:52:23.67Z</time></trkpt><trkpt lat="38.1755095" lon="-2.7791832"><ele>684.0</ele><time>2026-04-13T09:52:24.67Z</time></trkpt><trkpt lat="38.1755971" lon="-2.7790736"><ele>687.25</ele><time>2026-04-13T09:52:25.67Z</time></trkpt><trkpt lat="38.1756947" lon="-2.7789755"><ele>690.5</ele><time>2026-04-13T09:52:26.67Z</time></trkpt><trkpt lat="38.1757974" lon="-2.7788872"><ele>693.75</ele><time>2026-04-13T09:52:27.67Z</time></trkpt><trkpt lat="38.1759074" lon="-2.7788048"><ele>697.0</ele><time>2026-04-13T09:52:28.67Z</time></trkpt><trkpt lat="38.1760233" lon="-2.7787376"><ele>697.0</ele><time>2026-04-13T09:52:29.67Z</time></trkpt><trkpt lat="38.1761386" lon="-2.7786709"><ele>697.0</ele><time>2026-04-13T09:52:30.67Z</time></trkpt><trkpt lat="38.1762511" lon="-2.778607"><ele>697.0</ele><time>2026-04-13T09:52:31.67Z</time></trkpt><trkpt lat="38.1763619" lon="-2.7785411"><ele>697.0</ele><time>2026-04-13T09:52:32.67Z</time></trkpt><trkpt lat="38.176473" lon="-2.7784775"><ele>697.0</ele><time>2026-04-13T09:52:33.67Z</time></trkpt><trkpt lat="38.1765798" lon="-2.7784112"><ele>697.0</ele><time>2026-04-13T09:52:34.67Z</time></trkpt><trkpt lat="38.1766899" lon="-2.7783417"><ele>697.0</ele><time>2026-04-13T09:52:35.671Z</time></trkpt><trkpt lat="38.1767984" lon="-2.7782785"><ele>697.0</ele><time>2026-04-13T09:52:36.67Z</time></trkpt><trkpt lat="38.1768994" lon="-2.7782153"><ele>697.0</ele><time>2026-04-13T09:52:37.67Z</time></trkpt><trkpt lat="38.1770039" lon="-2.7781533"><ele>697.0</ele><time>2026-04-13T09:52:38.67Z</time></trkpt><trkpt lat="38.1771081" lon="-2.7780853"><ele>697.0</ele><time>2026-04-13T09:52:39.67Z</time></trkpt><trkpt lat="38.1772185" lon="-2.7780221"><ele>697.0</ele><time>2026-04-13T09:52:40.67Z</time></trkpt><trkpt lat="38.1773184" lon="-2.7779393"><ele>698.5</ele><time>2026-04-13T09:52:41.67Z</time></trkpt><trkpt lat="38.177408" lon="-2.7778363"><ele>700.0</ele><time>2026-04-13T09:52:42.67Z</time></trkpt><trkpt lat="38.177482" lon="-2.7777261"><ele>701.5</ele><time>2026-04-13T09:52:43.67Z</time></trkpt><trkpt lat="38.177547" lon="-2.7775937"><ele>703.0</ele><time>2026-04-13T09:52:44.67Z</time></trkpt><trkpt lat="38.1776219" lon="-2.7774722"><ele>703.0</ele><time>2026-04-13T09:52:45.67Z</time></trkpt><trkpt lat="38.1776901" lon="-2.7773478"><ele>703.0</ele><time>2026-04-13T09:52:46.67Z</time></trkpt><trkpt lat="38.1777674" lon="-2.7772332"><ele>703.0</ele><time>2026-04-13T09:52:47.67Z</time></trkpt><trkpt lat="38.1778524" lon="-2.7771375"><ele>703.0</ele><time>2026-04-13T09:52:48.67Z</time></trkpt><trkpt lat="38.17795" lon="-2.7770639"><ele>703.0</ele><time>2026-04-13T09:52:49.67Z</time></trkpt><trkpt lat="38.1780814" lon="-2.7770399"><ele>703.0</ele><time>2026-04-13T09:52:50.67Z</time></trkpt><trkpt lat="38.1782121" lon="-2.7770105"><ele>703.0</ele><time>2026-04-13T09:52:51.67Z</time></trkpt><trkpt lat="38.1783412" lon="-2.7769719"><ele>703.0</ele><time>2026-04-13T09:52:52.67Z</time></trkpt><trkpt lat="38.1784634" lon="-2.7769151"><ele>702.5</ele><time>2026-04-13T09:52:53.67Z</time></trkpt><trkpt lat="38.1785853" lon="-2.7768469"><ele>702.0</ele><time>2026-04-13T09:52:54.67Z</time></trkpt><trkpt lat="38.1787048" lon="-2.7767717"><ele>701.5</ele><time>2026-04-13T09:52:55.67Z</time></trkpt><trkpt lat="38.1788238" lon="-2.7766993"><ele>701.0</ele><time>2026-04-13T09:52:56.67Z</time></trkpt><trkpt lat="38.1789397" lon="-2.7766259"><ele>706.0</ele><time>2026-04-13T09:52:57.67Z</time></trkpt><trkpt lat="38.1790548" lon="-2.7765501"><ele>711.0</ele><time>2026-04-13T09:52:58.67Z</time></trkpt><trkpt lat="38.179167" lon="-2.7764745"><ele>716.0</ele><time>2026-04-13T09:52:59.67Z</time></trkpt><trkpt lat="38.1792811" lon="-2.7764047"><ele>721.0</ele><time>2026-04-13T09:53:00.67Z</time></trkpt><trkpt lat="38.179401" lon="-2.7763516"><ele>721.0</ele><time>2026-04-13T09:53:01.67Z</time></trkpt><trkpt lat="38.1795304" lon="-2.7763278"><ele>721.0</ele><time>2026-04-13T09:53:02.67Z</time></trkpt><trkpt lat="38.17966" lon="-2.7763256"><ele>721.0</ele><time>2026-04-13T09:53:03.67Z</time></trkpt><trkpt lat="38.1797924" lon="-2.7763431"><ele>721.0</ele><time>2026-04-13T09:53:04.67Z</time></trkpt><trkpt lat="38.1799234" lon="-2.7763612"><ele>724.5</ele><time>2026-04-13T09:53:05.67Z</time></trkpt><trkpt lat="38.1800566" lon="-2.7763833"><ele>728.0</ele><time>2026-04-13T09:53:06.67Z</time></trkpt><trkpt lat="38.1801875" lon="-2.7764018"><ele>731.5</ele><time>2026-04-13T09:53:07.67Z</time></trkpt><trkpt lat="38.1803161" lon="-2.7764139"><ele>735.0</ele><time>2026-04-13T09:53:08.67Z</time></trkpt><trkpt lat="38.1804448" lon="-2.7764227"><ele>735.0</ele><time>2026-04-13T09:53:09.67Z</time></trkpt><trkpt lat="38.1805732" lon="-2.7764117"><ele>735.0</ele><time>2026-04-13T09:53:10.67Z</time></trkpt><trkpt lat="38.1807003" lon="-2.7763869"><ele>735.0</ele><time>2026-04-13T09:53:11.671Z</time></trkpt><trkpt lat="38.1808223" lon="-2.7763596"><ele>735.0</ele><time>2026-04-13T09:53:12.67Z</time></trkpt><trkpt lat="38.1809381" lon="-2.7763308"><ele>737.5</ele><time>2026-04-13T09:53:13.67Z</time></trkpt><trkpt lat="38.1810502" lon="-2.7763038"><ele>740.0</ele><time>2026-04-13T09:53:14.671Z</time></trkpt><trkpt lat="38.1811628" lon="-2.7762839"><ele>742.5</ele><time>2026-04-13T09:53:15.67Z</time></trkpt><trkpt lat="38.1812737" lon="-2.7762642"><ele>745.0</ele><time>2026-04-13T09:53:16.67Z</time></trkpt><trkpt lat="38.1813959" lon="-2.7762602"><ele>745.0</ele><time>2026-04-13T09:53:17.67Z</time></trkpt><trkpt lat="38.1815108" lon="-2.7762654"><ele>745.0</ele><time>2026-04-13T09:53:18.67Z</time></trkpt><trkpt lat="38.1816277" lon="-2.7762762"><ele>745.0</ele><time>2026-04-13T09:53:19.67Z</time></trkpt><trkpt lat="38.1817461" lon="-2.7762874"><ele>745.0</ele><time>2026-04-13T09:53:20.67Z</time></trkpt><trkpt lat="38.1818605" lon="-2.776289"><ele>745.6</ele><time>2026-04-13T09:53:21.67Z</time></trkpt><trkpt lat="38.1819616" lon="-2.7762902"><ele>746.2</ele><time>2026-04-13T09:53:22.67Z</time></trkpt><trkpt lat="38.1820584" lon="-2.7763045"><ele>746.8</ele><time>2026-04-13T09:53:23.67Z</time></trkpt><trkpt lat="38.1821479" lon="-2.7763129"><ele>747.4</ele><time>2026-04-13T09:53:24.67Z</time></trkpt><trkpt lat="38.1822395" lon="-2.7763268"><ele>748.0</ele><time>2026-04-13T09:53:25.67Z</time></trkpt><trkpt lat="38.182327" lon="-2.7763483"><ele>747.8333333333334</ele><time>2026-04-13T09:53:26.67Z</time></trkpt><trkpt lat="38.182409" lon="-2.776387"><ele>747.6666666666667</ele><time>2026-04-13T09:53:27.671Z</time></trkpt><trkpt lat="38.1824662" lon="-2.7764539"><ele>747.5</ele><time>2026-04-13T09:53:28.67Z</time></trkpt><trkpt lat="38.18253" lon="-2.7765224"><ele>747.3333333333334</ele><time>2026-04-13T09:53:29.67Z</time></trkpt><trkpt lat="38.1826063" lon="-2.7765888"><ele>747.1666666666666</ele><time>2026-04-13T09:53:30.67Z</time></trkpt><trkpt lat="38.182664" lon="-2.7766493"><ele>747.0</ele><time>2026-04-13T09:53:31.67Z</time></trkpt><trkpt lat="38.1827369" lon="-2.7767098"><ele>747.0</ele><time>2026-04-13T09:53:32.67Z</time></trkpt><trkpt lat="38.1828128" lon="-2.776756"><ele>747.0</ele><time>2026-04-13T09:53:33.67Z</time></trkpt><trkpt lat="38.1828992" lon="-2.7767794"><ele>747.0</ele><time>2026-04-13T09:53:34.67Z</time></trkpt><trkpt lat="38.1829823" lon="-2.7767744"><ele>747.0</ele><time>2026-04-13T09:53:35.67Z</time></trkpt><trkpt lat="38.183066" lon="-2.7767655"><ele>747.0</ele><time>2026-04-13T09:53:36.67Z</time></trkpt><trkpt lat="38.1831435" lon="-2.776712"><ele>747.0</ele><time>2026-04-13T09:53:37.67Z</time></trkpt><trkpt lat="38.1832132" lon="-2.7766434"><ele>748.1666666666666</ele><time>2026-04-13T09:53:38.67Z</time></trkpt><trkpt lat="38.1832656" lon="-2.7765639"><ele>749.3333333333334</ele><time>2026-04-13T09:53:39.67Z</time></trkpt><trkpt lat="38.1832996" lon="-2.7764769"><ele>750.5</ele><time>2026-04-13T09:53:40.67Z</time></trkpt><trkpt lat="38.1833242" lon="-2.7763805"><ele>751.6666666666667</ele><time>2026-04-13T09:53:41.67Z</time></trkpt><trkpt lat="38.1833099" lon="-2.7762823"><ele>752.8333333333334</ele><time>2026-04-13T09:53:42.67Z</time></trkpt><trkpt lat="38.1832861" lon="-2.7761717"><ele>754.0</ele><time>2026-04-13T09:53:43.67Z</time></trkpt><trkpt lat="38.1832502" lon="-2.7760705"><ele>753.4000000000001</ele><time>2026-04-13T09:53:44.67Z</time></trkpt><trkpt lat="38.183203" lon="-2.7759591"><ele>752.8</ele><time>2026-04-13T09:53:45.67Z</time></trkpt><trkpt lat="38.1831545" lon="-2.7758703"><ele>752.2</ele><time>2026-04-13T09:53:46.67Z</time></trkpt><trkpt lat="38.183095" lon="-2.7757609"><ele>751.5999999999999</ele><time>2026-04-13T09:53:47.67Z</time></trkpt><trkpt lat="38.1830445" lon="-2.7756707"><ele>751.0</ele><time>2026-04-13T09:53:48.67Z</time></trkpt><trkpt lat="38.1830093" lon="-2.775572"><ele>749.8333333333334</ele><time>2026-04-13T09:53:49.67Z</time></trkpt><trkpt lat="38.1829647" lon="-2.7754918"><ele>748.6666666666667</ele><time>2026-04-13T09:53:50.67Z</time></trkpt><trkpt lat="38.182923" lon="-2.7754026"><ele>747.5</ele><time>2026-04-13T09:53:51.67Z</time></trkpt><trkpt lat="38.1828915" lon="-2.7753079"><ele>746.3333333333334</ele><time>2026-04-13T09:53:52.67Z</time></trkpt><trkpt lat="38.1828638" lon="-2.7752132"><ele>745.1666666666666</ele><time>2026-04-13T09:53:53.67Z</time></trkpt><trkpt lat="38.1828505" lon="-2.7751154"><ele>744.0</ele><time>2026-04-13T09:53:54.67Z</time></trkpt><trkpt lat="38.1828542" lon="-2.7750169"><ele>744.0</ele><time>2026-04-13T09:53:55.67Z</time></trkpt><trkpt lat="38.182879" lon="-2.7749225"><ele>744.0</ele><time>2026-04-13T09:53:56.67Z</time></trkpt><trkpt lat="38.1829263" lon="-2.7748379"><ele>744.0</ele><time>2026-04-13T09:53:57.67Z</time></trkpt><trkpt lat="38.1829577" lon="-2.7747363"><ele>744.0</ele><time>2026-04-13T09:53:58.67Z</time></trkpt><trkpt lat="38.1830408" lon="-2.7746705"><ele>744.0</ele><time>2026-04-13T09:53:59.67Z</time></trkpt><trkpt lat="38.1831421" lon="-2.7746452"><ele>744.0</ele><time>2026-04-13T09:54:00.67Z</time></trkpt><trkpt lat="38.1832368" lon="-2.7746286"><ele>746.8000000000001</ele><time>2026-04-13T09:54:01.67Z</time></trkpt><trkpt lat="38.1833426" lon="-2.7746415"><ele>749.6</ele><time>2026-04-13T09:54:02.671Z</time></trkpt><trkpt lat="38.1834446" lon="-2.7746619"><ele>752.4</ele><time>2026-04-13T09:54:03.67Z</time></trkpt><trkpt lat="38.1835417" lon="-2.7746801"><ele>755.2</ele><time>2026-04-13T09:54:04.67Z</time></trkpt><trkpt lat="38.1836384" lon="-2.7746965"><ele>758.0</ele><time>2026-04-13T09:54:05.67Z</time></trkpt><trkpt lat="38.1837294" lon="-2.774712"><ele>758.0</ele><time>2026-04-13T09:54:06.67Z</time></trkpt><trkpt lat="38.1838162" lon="-2.7747183"><ele>758.0</ele><time>2026-04-13T09:54:07.67Z</time></trkpt><trkpt lat="38.1839019" lon="-2.7747249"><ele>758.0</ele><time>2026-04-13T09:54:08.67Z</time></trkpt><trkpt lat="38.1839932" lon="-2.7747081"><ele>758.0</ele><time>2026-04-13T09:54:09.67Z</time></trkpt><trkpt lat="38.1840768" lon="-2.774679"><ele>758.0</ele><time>2026-04-13T09:54:10.671Z</time></trkpt><trkpt lat="38.1841632" lon="-2.7746337"><ele>758.0</ele><time>2026-04-13T09:54:11.67Z</time></trkpt><trkpt lat="38.1842477" lon="-2.7745726"><ele>757.2</ele><time>2026-04-13T09:54:12.67Z</time></trkpt><trkpt lat="38.1843352" lon="-2.7745054"><ele>756.4</ele><time>2026-04-13T09:54:13.67Z</time></trkpt><trkpt lat="38.1844234" lon="-2.7744273"><ele>755.6</ele><time>2026-04-13T09:54:14.67Z</time></trkpt><trkpt lat="38.1845156" lon="-2.7743572"><ele>754.8000000000001</ele><time>2026-04-13T09:54:15.67Z</time></trkpt><trkpt lat="38.1846092" lon="-2.7742753"><ele>754.0</ele><time>2026-04-13T09:54:16.67Z</time></trkpt><trkpt lat="38.1846985" lon="-2.7742052"><ele>754.0</ele><time>2026-04-13T09:54:17.67Z</time></trkpt><trkpt lat="38.1847855" lon="-2.7741286"><ele>754.0</ele><time>2026-04-13T09:54:18.67Z</time></trkpt><trkpt lat="38.1848692" lon="-2.7740649"><ele>754.0</ele><time>2026-04-13T09:54:19.67Z</time></trkpt><trkpt lat="38.1849521" lon="-2.7740029"><ele>754.0</ele><time>2026-04-13T09:54:20.67Z</time></trkpt><trkpt lat="38.1850369" lon="-2.7739295"><ele>754.0</ele><time>2026-04-13T09:54:21.67Z</time></trkpt><trkpt lat="38.1851103" lon="-2.7738656"><ele>755.0</ele><time>2026-04-13T09:54:22.67Z</time></trkpt><trkpt lat="38.1851867" lon="-2.7737983"><ele>756.0</ele><time>2026-04-13T09:54:23.67Z</time></trkpt><trkpt lat="38.1852571" lon="-2.7737461"><ele>757.0</ele><time>2026-04-13T09:54:24.67Z</time></trkpt><trkpt lat="38.1853361" lon="-2.7736837"><ele>758.0</ele><time>2026-04-13T09:54:25.67Z</time></trkpt><trkpt lat="38.1854129" lon="-2.7736328"><ele>759.0</ele><time>2026-04-13T09:54:26.67Z</time></trkpt><trkpt lat="38.185488" lon="-2.7735785"><ele>760.0</ele><time>2026-04-13T09:54:27.67Z</time></trkpt><trkpt lat="38.1855664" lon="-2.7735178"><ele>760.0</ele><time>2026-04-13T09:54:28.67Z</time></trkpt><trkpt lat="38.1856471" lon="-2.7734463"><ele>760.0</ele><time>2026-04-13T09:54:29.67Z</time></trkpt><trkpt lat="38.1857154" lon="-2.7733966"><ele>760.0</ele><time>2026-04-13T09:54:30.67Z</time></trkpt><trkpt lat="38.185796" lon="-2.7733285"><ele>760.0</ele><time>2026-04-13T09:54:31.67Z</time></trkpt><trkpt lat="38.185853" lon="-2.7732795"><ele>760.0</ele><time>2026-04-13T09:54:32.67Z</time></trkpt><trkpt lat="38.1859348" lon="-2.7731999"><ele>760.0</ele><time>2026-04-13T09:54:33.67Z</time></trkpt><trkpt lat="38.1859996" lon="-2.7731253"><ele>762.4</ele><time>2026-04-13T09:54:34.67Z</time></trkpt><trkpt lat="38.1860538" lon="-2.7730411"><ele>764.8</ele><time>2026-04-13T09:54:35.67Z</time></trkpt><trkpt lat="38.1861001" lon="-2.7729505"><ele>767.2</ele><time>2026-04-13T09:54:36.67Z</time></trkpt><trkpt lat="38.186141" lon="-2.7728383"><ele>769.6</ele><time>2026-04-13T09:54:37.67Z</time></trkpt><trkpt lat="38.1861773" lon="-2.7727238"><ele>772.0</ele><time>2026-04-13T09:54:38.67Z</time></trkpt><trkpt lat="38.186219" lon="-2.7726064"><ele>772.0</ele><time>2026-04-13T09:54:39.67Z</time></trkpt><trkpt lat="38.1862595" lon="-2.7724849"><ele>772.0</ele><time>2026-04-13T09:54:40.67Z</time></trkpt><trkpt lat="38.1863061" lon="-2.7723625"><ele>772.0</ele><time>2026-04-13T09:54:41.67Z</time></trkpt><trkpt lat="38.1863495" lon="-2.7722359"><ele>772.0</ele><time>2026-04-13T09:54:42.67Z</time></trkpt><trkpt lat="38.1863918" lon="-2.7721151"><ele>772.0</ele><time>2026-04-13T09:54:43.67Z</time></trkpt><trkpt lat="38.1864287" lon="-2.7720007"><ele>771.9999999999999</ele><time>2026-04-13T09:54:44.67Z</time></trkpt><trkpt lat="38.1864617" lon="-2.7718989"><ele>772.0</ele><time>2026-04-13T09:54:45.67Z</time></trkpt><trkpt lat="38.1864942" lon="-2.7718043"><ele>772.0</ele><time>2026-04-13T09:54:46.67Z</time></trkpt><trkpt lat="38.1865319" lon="-2.7717086"><ele>772.0</ele><time>2026-04-13T09:54:47.671Z</time></trkpt><trkpt lat="38.1865775" lon="-2.7716183"><ele>771.9999999999999</ele><time>2026-04-13T09:54:48.67Z</time></trkpt><trkpt lat="38.186637" lon="-2.7715321"><ele>772.0</ele><time>2026-04-13T09:54:49.671Z</time></trkpt><trkpt lat="38.1867068" lon="-2.7714483"><ele>771.0</ele><time>2026-04-13T09:54:50.67Z</time></trkpt><trkpt lat="38.1867896" lon="-2.7713747"><ele>770.0</ele><time>2026-04-13T09:54:51.67Z</time></trkpt><trkpt lat="38.1868831" lon="-2.7713009"><ele>769.0</ele><time>2026-04-13T09:54:52.67Z</time></trkpt><trkpt lat="38.1869794" lon="-2.7712236"><ele>768.0</ele><time>2026-04-13T09:54:53.67Z</time></trkpt><trkpt lat="38.187075" lon="-2.7711401"><ele>767.0</ele><time>2026-04-13T09:54:54.67Z</time></trkpt><trkpt lat="38.1871706" lon="-2.7710556"><ele>766.5</ele><time>2026-04-13T09:54:55.67Z</time></trkpt><trkpt lat="38.1872642" lon="-2.7709651"><ele>766.0</ele><time>2026-04-13T09:54:56.67Z</time></trkpt><trkpt lat="38.1873589" lon="-2.7708781"><ele>765.5</ele><time>2026-04-13T09:54:57.67Z</time></trkpt><trkpt lat="38.1874471" lon="-2.7707828"><ele>765.0</ele><time>2026-04-13T09:54:58.67Z</time></trkpt><trkpt lat="38.1875309" lon="-2.7706837"><ele>765.0</ele><time>2026-04-13T09:54:59.67Z</time></trkpt><trkpt lat="38.1876072" lon="-2.7705822"><ele>765.0</ele><time>2026-04-13T09:55:00.67Z</time></trkpt><trkpt lat="38.1876725" lon="-2.7704904"><ele>765.0</ele><time>2026-04-13T09:55:01.67Z</time></trkpt><trkpt lat="38.1877291" lon="-2.7704237"><ele>765.0</ele><time>2026-04-13T09:55:02.67Z</time></trkpt><trkpt lat="38.1878324" lon="-2.7703405"><ele>765.0</ele><time>2026-04-13T09:55:04.67Z</time></trkpt><trkpt lat="38.1879603" lon="-2.7703128"><ele>765.0</ele><time>2026-04-13T09:55:06.67Z</time></trkpt><trkpt lat="38.1880399" lon="-2.7703301"><ele>765.0</ele><time>2026-04-13T09:55:07.671Z</time></trkpt><trkpt lat="38.1881136" lon="-2.7703583"><ele>765.0</ele><time>2026-04-13T09:55:08.67Z</time></trkpt><trkpt lat="38.1881941" lon="-2.7703999"><ele>765.0</ele><time>2026-04-13T09:55:09.67Z</time></trkpt><trkpt lat="38.1882721" lon="-2.7704335"><ele>765.0</ele><time>2026-04-13T09:55:10.67Z</time></trkpt><trkpt lat="38.188354" lon="-2.7704745"><ele>765.0</ele><time>2026-04-13T09:55:11.671Z</time></trkpt><trkpt lat="38.1884403" lon="-2.7705056"><ele>767.4</ele><time>2026-04-13T09:55:12.67Z</time></trkpt><trkpt lat="38.1885269" lon="-2.7705236"><ele>769.8</ele><time>2026-04-13T09:55:13.67Z</time></trkpt><trkpt lat="38.1886171" lon="-2.7705376"><ele>772.2</ele><time>2026-04-13T09:55:14.67Z</time></trkpt><trkpt lat="38.1887051" lon="-2.7705499"><ele>774.6</ele><time>2026-04-13T09:55:15.67Z</time></trkpt><trkpt lat="38.1887992" lon="-2.7705528"><ele>777.0</ele><time>2026-04-13T09:55:16.67Z</time></trkpt><trkpt lat="38.1888901" lon="-2.7705471"><ele>777.0</ele><time>2026-04-13T09:55:17.67Z</time></trkpt><trkpt lat="38.1889828" lon="-2.7705476"><ele>777.0</ele><time>2026-04-13T09:55:18.67Z</time></trkpt><trkpt lat="38.1890762" lon="-2.7705498"><ele>777.0</ele><time>2026-04-13T09:55:19.67Z</time></trkpt><trkpt lat="38.1891706" lon="-2.7705779"><ele>777.0</ele><time>2026-04-13T09:55:20.67Z</time></trkpt><trkpt lat="38.1892618" lon="-2.7706119"><ele>777.0</ele><time>2026-04-13T09:55:21.67Z</time></trkpt><trkpt lat="38.1893367" lon="-2.7707055"><ele>774.8</ele><time>2026-04-13T09:55:22.671Z</time></trkpt><trkpt lat="38.1894079" lon="-2.7708018"><ele>772.6</ele><time>2026-04-13T09:55:23.67Z</time></trkpt><trkpt lat="38.1894784" lon="-2.7709016"><ele>770.4</ele><time>2026-04-13T09:55:24.67Z</time></trkpt><trkpt lat="38.1895521" lon="-2.771002"><ele>768.1999999999999</ele><time>2026-04-13T09:55:25.67Z</time></trkpt><trkpt lat="38.1896307" lon="-2.7710841"><ele>766.0</ele><time>2026-04-13T09:55:26.67Z</time></trkpt><trkpt lat="38.189718" lon="-2.7711564"><ele>766.0</ele><time>2026-04-13T09:55:27.67Z</time></trkpt><trkpt lat="38.1898161" lon="-2.7712276"><ele>766.0</ele><time>2026-04-13T09:55:28.67Z</time></trkpt><trkpt lat="38.1899171" lon="-2.7712956"><ele>766.0</ele><time>2026-04-13T09:55:29.67Z</time></trkpt><trkpt lat="38.1900203" lon="-2.7713734"><ele>766.0</ele><time>2026-04-13T09:55:30.67Z</time></trkpt><trkpt lat="38.1901272" lon="-2.7714487"><ele>766.0</ele><time>2026-04-13T09:55:31.67Z</time></trkpt><trkpt lat="38.1902352" lon="-2.7715265"><ele>766.0</ele><time>2026-04-13T09:55:32.67Z</time></trkpt><trkpt lat="38.1903472" lon="-2.7715949"><ele>766.0</ele><time>2026-04-13T09:55:33.67Z</time></trkpt><trkpt lat="38.1904608" lon="-2.7716601"><ele>766.0</ele><time>2026-04-13T09:55:34.67Z</time></trkpt><trkpt lat="38.1905746" lon="-2.771718"><ele>769.0</ele><time>2026-04-13T09:55:35.67Z</time></trkpt><trkpt lat="38.1906847" lon="-2.7717779"><ele>772.0</ele><time>2026-04-13T09:55:36.67Z</time></trkpt><trkpt lat="38.1907978" lon="-2.7718417"><ele>775.0</ele><time>2026-04-13T09:55:37.67Z</time></trkpt><trkpt lat="38.1909094" lon="-2.7719054"><ele>778.0</ele><time>2026-04-13T09:55:38.67Z</time></trkpt><trkpt lat="38.1910194" lon="-2.7719718"><ele>778.0</ele><time>2026-04-13T09:55:39.67Z</time></trkpt><trkpt lat="38.1911314" lon="-2.7720253"><ele>778.0</ele><time>2026-04-13T09:55:40.67Z</time></trkpt><trkpt lat="38.191248" lon="-2.7720634"><ele>778.0</ele><time>2026-04-13T09:55:41.67Z</time></trkpt><trkpt lat="38.1913678" lon="-2.772068"><ele>778.0</ele><time>2026-04-13T09:55:42.67Z</time></trkpt><trkpt lat="38.191492" lon="-2.7720519"><ele>775.0</ele><time>2026-04-13T09:55:43.67Z</time></trkpt><trkpt lat="38.1916098" lon="-2.772006"><ele>772.0</ele><time>2026-04-13T09:55:44.67Z</time></trkpt><trkpt lat="38.1917254" lon="-2.7719429"><ele>769.0</ele><time>2026-04-13T09:55:45.67Z</time></trkpt><trkpt lat="38.1918386" lon="-2.7718678"><ele>766.0</ele><time>2026-04-13T09:55:46.67Z</time></trkpt><trkpt lat="38.1919459" lon="-2.7717753"><ele>759.75</ele><time>2026-04-13T09:55:47.67Z</time></trkpt><trkpt lat="38.1920763" lon="-2.7717176"><ele>753.5</ele><time>2026-04-13T09:55:48.67Z</time></trkpt><trkpt lat="38.1921181" lon="-2.7715594"><ele>747.25</ele><time>2026-04-13T09:55:49.67Z</time></trkpt><trkpt lat="38.1921587" lon="-2.7714124"><ele>741.0</ele><time>2026-04-13T09:55:50.67Z</time></trkpt><trkpt lat="38.192165" lon="-2.771257"><ele>741.0</ele><time>2026-04-13T09:55:51.67Z</time></trkpt><trkpt lat="38.1921409" lon="-2.7710954"><ele>741.0</ele><time>2026-04-13T09:55:52.67Z</time></trkpt><trkpt lat="38.192102" lon="-2.7709418"><ele>741.0</ele><time>2026-04-13T09:55:53.67Z</time></trkpt><trkpt lat="38.1920641" lon="-2.7707829"><ele>741.0</ele><time>2026-04-13T09:55:54.67Z</time></trkpt><trkpt lat="38.1920343" lon="-2.7706264"><ele>741.0</ele><time>2026-04-13T09:55:55.67Z</time></trkpt><trkpt lat="38.1920148" lon="-2.7704691"><ele>741.0</ele><time>2026-04-13T09:55:56.67Z</time></trkpt><trkpt lat="38.1920001" lon="-2.7703097"><ele>741.0</ele><time>2026-04-13T09:55:57.67Z</time></trkpt><trkpt lat="38.1919825" lon="-2.7701525"><ele>741.0</ele><time>2026-04-13T09:55:58.67Z</time></trkpt><trkpt lat="38.1919778" lon="-2.7700096"><ele>741.0</ele><time>2026-04-13T09:55:59.67Z</time></trkpt><trkpt lat="38.1919872" lon="-2.7698587"><ele>741.0</ele><time>2026-04-13T09:56:00.67Z</time></trkpt><trkpt lat="38.1920317" lon="-2.7697402"><ele>741.0</ele><time>2026-04-13T09:56:01.67Z</time></trkpt><trkpt lat="38.1921054" lon="-2.7696408"><ele>741.0</ele><time>2026-04-13T09:56:02.67Z</time></trkpt><trkpt lat="38.1921868" lon="-2.7695487"><ele>741.0</ele><time>2026-04-13T09:56:03.67Z</time></trkpt><trkpt lat="38.1922713" lon="-2.7694595"><ele>744.1999999999999</ele><time>2026-04-13T09:56:04.67Z</time></trkpt><trkpt lat="38.1923556" lon="-2.7693586"><ele>747.4</ele><time>2026-04-13T09:56:05.67Z</time></trkpt><trkpt lat="38.1924334" lon="-2.7692602"><ele>750.6</ele><time>2026-04-13T09:56:06.67Z</time></trkpt><trkpt lat="38.1925068" lon="-2.7691605"><ele>753.8</ele><time>2026-04-13T09:56:07.67Z</time></trkpt><trkpt lat="38.1925718" lon="-2.7690455"><ele>757.0</ele><time>2026-04-13T09:56:08.67Z</time></trkpt><trkpt lat="38.1926209" lon="-2.7689241"><ele>757.0</ele><time>2026-04-13T09:56:09.671Z</time></trkpt><trkpt lat="38.1926445" lon="-2.7687954"><ele>757.0</ele><time>2026-04-13T09:56:10.67Z</time></trkpt><trkpt lat="38.1926899" lon="-2.7686972"><ele>757.0</ele><time>2026-04-13T09:56:11.67Z</time></trkpt><trkpt lat="38.192687" lon="-2.7685451"><ele>757.0</ele><time>2026-04-13T09:56:12.67Z</time></trkpt><trkpt lat="38.1926992" lon="-2.7684112"><ele>757.0</ele><time>2026-04-13T09:56:13.67Z</time></trkpt><trkpt lat="38.1926659" lon="-2.7682435"><ele>756.75</ele><time>2026-04-13T09:56:14.67Z</time></trkpt><trkpt lat="38.1926477" lon="-2.7680868"><ele>756.5</ele><time>2026-04-13T09:56:15.67Z</time></trkpt><trkpt lat="38.1926351" lon="-2.767938"><ele>756.25</ele><time>2026-04-13T09:56:16.67Z</time></trkpt><trkpt lat="38.192639" lon="-2.767795"><ele>756.0</ele><time>2026-04-13T09:56:17.67Z</time></trkpt><trkpt lat="38.1926541" lon="-2.7676638"><ele>756.0</ele><time>2026-04-13T09:56:18.67Z</time></trkpt><trkpt lat="38.1926767" lon="-2.7675329"><ele>756.0</ele><time>2026-04-13T09:56:19.67Z</time></trkpt><trkpt lat="38.1927011" lon="-2.767407"><ele>756.0</ele><time>2026-04-13T09:56:20.67Z</time></trkpt><trkpt lat="38.1927256" lon="-2.7672879"><ele>756.0</ele><time>2026-04-13T09:56:21.67Z</time></trkpt><trkpt lat="38.1927509" lon="-2.7671681"><ele>756.0</ele><time>2026-04-13T09:56:22.67Z</time></trkpt><trkpt lat="38.1927746" lon="-2.7670477"><ele>756.0</ele><time>2026-04-13T09:56:23.67Z</time></trkpt><trkpt lat="38.1927967" lon="-2.7669293"><ele>756.0</ele><time>2026-04-13T09:56:24.67Z</time></trkpt><trkpt lat="38.192818" lon="-2.7668084"><ele>756.0</ele><time>2026-04-13T09:56:25.67Z</time></trkpt><trkpt lat="38.1928395" lon="-2.7666821"><ele>756.0</ele><time>2026-04-13T09:56:26.67Z</time></trkpt><trkpt lat="38.1928681" lon="-2.766561"><ele>756.0</ele><time>2026-04-13T09:56:27.67Z</time></trkpt><trkpt lat="38.1928975" lon="-2.7664378"><ele>755.0</ele><time>2026-04-13T09:56:28.67Z</time></trkpt><trkpt lat="38.1929305" lon="-2.7663134"><ele>754.0</ele><time>2026-04-13T09:56:29.67Z</time></trkpt><trkpt lat="38.1929641" lon="-2.7661754"><ele>753.0</ele><time>2026-04-13T09:56:30.67Z</time></trkpt><trkpt lat="38.193018" lon="-2.7660446"><ele>752.0</ele><time>2026-04-13T09:56:31.67Z</time></trkpt><trkpt lat="38.193102" lon="-2.7659453"><ele>751.0</ele><time>2026-04-13T09:56:32.67Z</time></trkpt><trkpt lat="38.1931892" lon="-2.7658545"><ele>757.5</ele><time>2026-04-13T09:56:33.67Z</time></trkpt><trkpt lat="38.1932786" lon="-2.7657617"><ele>764.0</ele><time>2026-04-13T09:56:34.67Z</time></trkpt><trkpt lat="38.1933788" lon="-2.7656699"><ele>770.5</ele><time>2026-04-13T09:56:35.67Z</time></trkpt><trkpt lat="38.1934705" lon="-2.7655712"><ele>777.0</ele><time>2026-04-13T09:56:36.67Z</time></trkpt><trkpt lat="38.1935714" lon="-2.765475"><ele>777.0</ele><time>2026-04-13T09:56:37.67Z</time></trkpt><trkpt lat="38.1936684" lon="-2.7653738"><ele>777.0</ele><time>2026-04-13T09:56:38.67Z</time></trkpt><trkpt lat="38.1937628" lon="-2.7652805"><ele>777.0</ele><time>2026-04-13T09:56:39.67Z</time></trkpt><trkpt lat="38.1938577" lon="-2.7651889"><ele>777.0</ele><time>2026-04-13T09:56:40.67Z</time></trkpt><trkpt lat="38.1939593" lon="-2.7651084"><ele>777.0</ele><time>2026-04-13T09:56:41.67Z</time></trkpt><trkpt lat="38.1940689" lon="-2.7650361"><ele>777.0</ele><time>2026-04-13T09:56:42.67Z</time></trkpt><trkpt lat="38.1941797" lon="-2.7649734"><ele>777.0</ele><time>2026-04-13T09:56:43.67Z</time></trkpt><trkpt lat="38.1942905" lon="-2.7649016"><ele>777.0</ele><time>2026-04-13T09:56:44.67Z</time></trkpt><trkpt lat="38.1943935" lon="-2.7648056"><ele>777.0</ele><time>2026-04-13T09:56:45.67Z</time></trkpt><trkpt lat="38.1944713" lon="-2.7646746"><ele>777.0</ele><time>2026-04-13T09:56:46.67Z</time></trkpt><trkpt lat="38.1945365" lon="-2.7645295"><ele>777.0</ele><time>2026-04-13T09:56:47.67Z</time></trkpt><trkpt lat="38.1945802" lon="-2.7643689"><ele>777.0</ele><time>2026-04-13T09:56:48.67Z</time></trkpt><trkpt lat="38.1946076" lon="-2.7642054"><ele>772.0</ele><time>2026-04-13T09:56:49.67Z</time></trkpt><trkpt lat="38.1946212" lon="-2.764026"><ele>767.0</ele><time>2026-04-13T09:56:50.67Z</time></trkpt><trkpt lat="38.1946329" lon="-2.7638471"><ele>762.0</ele><time>2026-04-13T09:56:51.67Z</time></trkpt><trkpt lat="38.1946485" lon="-2.7636715"><ele>757.0</ele><time>2026-04-13T09:56:52.67Z</time></trkpt><trkpt lat="38.1946535" lon="-2.7634911"><ele>752.5</ele><time>2026-04-13T09:56:53.67Z</time></trkpt><trkpt lat="38.1946517" lon="-2.7632941"><ele>748.0</ele><time>2026-04-13T09:56:54.67Z</time></trkpt><trkpt lat="38.1946457" lon="-2.7631236"><ele>743.5</ele><time>2026-04-13T09:56:55.67Z</time></trkpt><trkpt lat="38.194679" lon="-2.7630321"><ele>739.0</ele><time>2026-04-13T09:56:56.67Z</time></trkpt><trkpt lat="38.1946998" lon="-2.7629004"><ele>739.0</ele><time>2026-04-13T09:56:57.67Z</time></trkpt><trkpt lat="38.1947135" lon="-2.7627606"><ele>739.0</ele><time>2026-04-13T09:56:58.67Z</time></trkpt><trkpt lat="38.1947283" lon="-2.7626284"><ele>739.0</ele><time>2026-04-13T09:56:59.67Z</time></trkpt><trkpt lat="38.1947685" lon="-2.762512"><ele>739.0</ele><time>2026-04-13T09:57:00.67Z</time></trkpt><trkpt lat="38.194796" lon="-2.7623825"><ele>739.0</ele><time>2026-04-13T09:57:01.67Z</time></trkpt><trkpt lat="38.1948651" lon="-2.7622796"><ele>742.75</ele><time>2026-04-13T09:57:02.67Z</time></trkpt><trkpt lat="38.1949414" lon="-2.7621779"><ele>746.5</ele><time>2026-04-13T09:57:03.67Z</time></trkpt><trkpt lat="38.1950223" lon="-2.762072"><ele>750.25</ele><time>2026-04-13T09:57:04.671Z</time></trkpt><trkpt lat="38.195096" lon="-2.7619586"><ele>754.0</ele><time>2026-04-13T09:57:05.67Z</time></trkpt><trkpt lat="38.1951582" lon="-2.7618452"><ele>754.0</ele><time>2026-04-13T09:57:06.67Z</time></trkpt><trkpt lat="38.195233" lon="-2.7617449"><ele>754.0</ele><time>2026-04-13T09:57:07.67Z</time></trkpt><trkpt lat="38.1953051" lon="-2.7616431"><ele>754.0</ele><time>2026-04-13T09:57:08.67Z</time></trkpt><trkpt lat="38.195377" lon="-2.7615486"><ele>754.0</ele><time>2026-04-13T09:57:09.67Z</time></trkpt><trkpt lat="38.1954599" lon="-2.7614658"><ele>754.0</ele><time>2026-04-13T09:57:10.67Z</time></trkpt><trkpt lat="38.1955525" lon="-2.7613988"><ele>754.0</ele><time>2026-04-13T09:57:11.67Z</time></trkpt><trkpt lat="38.1956505" lon="-2.7613382"><ele>754.0</ele><time>2026-04-13T09:57:12.67Z</time></trkpt><trkpt lat="38.1957546" lon="-2.7612791"><ele>754.0</ele><time>2026-04-13T09:57:13.67Z</time></trkpt><trkpt lat="38.1958569" lon="-2.7612199"><ele>754.0</ele><time>2026-04-13T09:57:14.67Z</time></trkpt><trkpt lat="38.1959592" lon="-2.7611578"><ele>754.0</ele><time>2026-04-13T09:57:15.67Z</time></trkpt><trkpt lat="38.1960562" lon="-2.7610881"><ele>753.8000000000001</ele><time>2026-04-13T09:57:16.671Z</time></trkpt><trkpt lat="38.1961531" lon="-2.7610156"><ele>753.6</ele><time>2026-04-13T09:57:17.67Z</time></trkpt><trkpt lat="38.1962479" lon="-2.7609377"><ele>753.4</ele><time>2026-04-13T09:57:18.67Z</time></trkpt><trkpt lat="38.1963424" lon="-2.7608708"><ele>753.2</ele><time>2026-04-13T09:57:19.67Z</time></trkpt><trkpt lat="38.1964339" lon="-2.7607862"><ele>753.0</ele><time>2026-04-13T09:57:20.67Z</time></trkpt><trkpt lat="38.1965226" lon="-2.7607022"><ele>757.5999999999999</ele><time>2026-04-13T09:57:21.67Z</time></trkpt><trkpt lat="38.1966139" lon="-2.7606191"><ele>762.1999999999999</ele><time>2026-04-13T09:57:22.67Z</time></trkpt><trkpt lat="38.1967049" lon="-2.7605419"><ele>766.8</ele><time>2026-04-13T09:57:23.67Z</time></trkpt><trkpt lat="38.1967947" lon="-2.7604606"><ele>771.4</ele><time>2026-04-13T09:57:24.67Z</time></trkpt><trkpt lat="38.1968836" lon="-2.760382"><ele>776.0</ele><time>2026-04-13T09:57:25.67Z</time></trkpt><trkpt lat="38.1969674" lon="-2.7602917"><ele>776.0</ele><time>2026-04-13T09:57:26.671Z</time></trkpt><trkpt lat="38.1970438" lon="-2.7602002"><ele>776.0</ele><time>2026-04-13T09:57:27.67Z</time></trkpt><trkpt lat="38.1971169" lon="-2.7600957"><ele>776.0</ele><time>2026-04-13T09:57:28.67Z</time></trkpt><trkpt lat="38.19719" lon="-2.7599992"><ele>776.0</ele><time>2026-04-13T09:57:29.67Z</time></trkpt><trkpt lat="38.1972766" lon="-2.7599247"><ele>776.0</ele><time>2026-04-13T09:57:30.67Z</time></trkpt><trkpt lat="38.1973788" lon="-2.7598739"><ele>774.25</ele><time>2026-04-13T09:57:31.67Z</time></trkpt><trkpt lat="38.197494" lon="-2.7598486"><ele>772.5</ele><time>2026-04-13T09:57:32.67Z</time></trkpt><trkpt lat="38.1976104" lon="-2.759869"><ele>770.75</ele><time>2026-04-13T09:57:33.67Z</time></trkpt><trkpt lat="38.1977275" lon="-2.7598922"><ele>769.0</ele><time>2026-04-13T09:57:34.671Z</time></trkpt><trkpt lat="38.1978485" lon="-2.7599087"><ele>769.0</ele><time>2026-04-13T09:57:35.67Z</time></trkpt><trkpt lat="38.1979708" lon="-2.7599323"><ele>769.0</ele><time>2026-04-13T09:57:36.67Z</time></trkpt><trkpt lat="38.1980933" lon="-2.7599407"><ele>769.0</ele><time>2026-04-13T09:57:37.67Z</time></trkpt><trkpt lat="38.1982156" lon="-2.7599334"><ele>769.0</ele><time>2026-04-13T09:57:38.67Z</time></trkpt><trkpt lat="38.1983439" lon="-2.7599108"><ele>770.75</ele><time>2026-04-13T09:57:39.67Z</time></trkpt><trkpt lat="38.1984622" lon="-2.7598671"><ele>772.5</ele><time>2026-04-13T09:57:40.67Z</time></trkpt><trkpt lat="38.1985829" lon="-2.7598146"><ele>774.25</ele><time>2026-04-13T09:57:41.67Z</time></trkpt><trkpt lat="38.1986991" lon="-2.7597502"><ele>776.0</ele><time>2026-04-13T09:57:42.67Z</time></trkpt><trkpt lat="38.1988091" lon="-2.7596749"><ele>776.0</ele><time>2026-04-13T09:57:43.67Z</time></trkpt><trkpt lat="38.1989126" lon="-2.7595792"><ele>776.0</ele><time>2026-04-13T09:57:44.67Z</time></trkpt><trkpt lat="38.1990069" lon="-2.7594671"><ele>776.0</ele><time>2026-04-13T09:57:45.67Z</time></trkpt><trkpt lat="38.199093" lon="-2.7593451"><ele>776.0</ele><time>2026-04-13T09:57:46.67Z</time></trkpt><trkpt lat="38.1991826" lon="-2.7592295"><ele>776.25</ele><time>2026-04-13T09:57:47.67Z</time></trkpt><trkpt lat="38.1992706" lon="-2.7591124"><ele>776.5</ele><time>2026-04-13T09:57:48.67Z</time></trkpt><trkpt lat="38.1993565" lon="-2.7589958"><ele>776.75</ele><time>2026-04-13T09:57:49.67Z</time></trkpt><trkpt lat="38.1994421" lon="-2.7588836"><ele>777.0</ele><time>2026-04-13T09:57:50.67Z</time></trkpt><trkpt lat="38.1995328" lon="-2.7587791"><ele>777.0</ele><time>2026-04-13T09:57:51.67Z</time></trkpt><trkpt lat="38.1996349" lon="-2.7586921"><ele>777.0</ele><time>2026-04-13T09:57:52.67Z</time></trkpt><trkpt lat="38.1997481" lon="-2.7586353"><ele>777.0</ele><time>2026-04-13T09:57:53.67Z</time></trkpt><trkpt lat="38.1998734" lon="-2.7586116"><ele>777.0</ele><time>2026-04-13T09:57:54.67Z</time></trkpt><trkpt lat="38.2000006" lon="-2.7586013"><ele>780.75</ele><time>2026-04-13T09:57:55.67Z</time></trkpt><trkpt lat="38.2001277" lon="-2.7585989"><ele>784.5</ele><time>2026-04-13T09:57:56.67Z</time></trkpt><trkpt lat="38.2002561" lon="-2.7585983"><ele>788.25</ele><time>2026-04-13T09:57:57.67Z</time></trkpt><trkpt lat="38.2003782" lon="-2.7585847"><ele>792.0</ele><time>2026-04-13T09:57:58.67Z</time></trkpt><trkpt lat="38.2005006" lon="-2.7585621"><ele>789.5</ele><time>2026-04-13T09:57:59.67Z</time></trkpt><trkpt lat="38.2006043" lon="-2.7584952"><ele>787.0</ele><time>2026-04-13T09:58:00.67Z</time></trkpt><trkpt lat="38.200704" lon="-2.758418"><ele>784.5</ele><time>2026-04-13T09:58:01.67Z</time></trkpt><trkpt lat="38.2008041" lon="-2.7583364"><ele>782.0</ele><time>2026-04-13T09:58:02.67Z</time></trkpt><trkpt lat="38.2009043" lon="-2.7582582"><ele>782.0</ele><time>2026-04-13T09:58:03.67Z</time></trkpt><trkpt lat="38.2010033" lon="-2.7581817"><ele>782.0</ele><time>2026-04-13T09:58:04.67Z</time></trkpt><trkpt lat="38.2010953" lon="-2.7581106"><ele>782.0</ele><time>2026-04-13T09:58:05.67Z</time></trkpt><trkpt lat="38.2011893" lon="-2.7580515"><ele>782.0</ele><time>2026-04-13T09:58:06.67Z</time></trkpt><trkpt lat="38.2012863" lon="-2.758009"><ele>782.0</ele><time>2026-04-13T09:58:07.67Z</time></trkpt><trkpt lat="38.2013891" lon="-2.7579774"><ele>782.0</ele><time>2026-04-13T09:58:08.67Z</time></trkpt><trkpt lat="38.2014979" lon="-2.757946"><ele>782.0</ele><time>2026-04-13T09:58:09.67Z</time></trkpt><trkpt lat="38.2016095" lon="-2.757913"><ele>782.0</ele><time>2026-04-13T09:58:10.67Z</time></trkpt><trkpt lat="38.2017232" lon="-2.7578788"><ele>782.0</ele><time>2026-04-13T09:58:11.67Z</time></trkpt><trkpt lat="38.2018375" lon="-2.7578421"><ele>780.5</ele><time>2026-04-13T09:58:12.67Z</time></trkpt><trkpt lat="38.2019478" lon="-2.7577914"><ele>779.0</ele><time>2026-04-13T09:58:13.67Z</time></trkpt><trkpt lat="38.2020543" lon="-2.7577289"><ele>777.5</ele><time>2026-04-13T09:58:14.67Z</time></trkpt><trkpt lat="38.2021598" lon="-2.7576579"><ele>776.0</ele><time>2026-04-13T09:58:15.67Z</time></trkpt><trkpt lat="38.2022623" lon="-2.7575814"><ele>779.5</ele><time>2026-04-13T09:58:16.67Z</time></trkpt><trkpt lat="38.2023659" lon="-2.7575026"><ele>783.0</ele><time>2026-04-13T09:58:17.67Z</time></trkpt><trkpt lat="38.2024718" lon="-2.7574285"><ele>786.5</ele><time>2026-04-13T09:58:18.67Z</time></trkpt><trkpt lat="38.2025768" lon="-2.7573517"><ele>790.0</ele><time>2026-04-13T09:58:19.67Z</time></trkpt><trkpt lat="38.2026801" lon="-2.7572774"><ele>790.0</ele><time>2026-04-13T09:58:20.67Z</time></trkpt><trkpt lat="38.2027801" lon="-2.7572042"><ele>790.0</ele><time>2026-04-13T09:58:21.67Z</time></trkpt><trkpt lat="38.2028756" lon="-2.7571286"><ele>790.0</ele><time>2026-04-13T09:58:22.67Z</time></trkpt><trkpt lat="38.202972" lon="-2.7570525"><ele>790.0</ele><time>2026-04-13T09:58:23.67Z</time></trkpt><trkpt lat="38.203074" lon="-2.7569787"><ele>788.5</ele><time>2026-04-13T09:58:24.67Z</time></trkpt><trkpt lat="38.2031812" lon="-2.7569134"><ele>787.0</ele><time>2026-04-13T09:58:25.67Z</time></trkpt><trkpt lat="38.2032934" lon="-2.7568609"><ele>785.5</ele><time>2026-04-13T09:58:26.67Z</time></trkpt><trkpt lat="38.2034067" lon="-2.7568113"><ele>784.0</ele><time>2026-04-13T09:58:27.67Z</time></trkpt><trkpt lat="38.2035206" lon="-2.756761"><ele>784.0</ele><time>2026-04-13T09:58:28.67Z</time></trkpt><trkpt lat="38.2036351" lon="-2.7567144"><ele>784.0</ele><time>2026-04-13T09:58:29.67Z</time></trkpt><trkpt lat="38.2037428" lon="-2.7566683"><ele>784.0</ele><time>2026-04-13T09:58:30.67Z</time></trkpt><trkpt lat="38.2038554" lon="-2.7566403"><ele>784.0</ele><time>2026-04-13T09:58:31.67Z</time></trkpt><trkpt lat="38.2039736" lon="-2.7566269"><ele>784.75</ele><time>2026-04-13T09:58:32.67Z</time></trkpt><trkpt lat="38.2041038" lon="-2.7566169"><ele>785.5</ele><time>2026-04-13T09:58:33.67Z</time></trkpt><trkpt lat="38.2042269" lon="-2.7566284"><ele>786.25</ele><time>2026-04-13T09:58:34.67Z</time></trkpt><trkpt lat="38.2043493" lon="-2.7566409"><ele>787.0</ele><time>2026-04-13T09:58:35.67Z</time></trkpt><trkpt lat="38.2044721" lon="-2.7566512"><ele>787.0</ele><time>2026-04-13T09:58:36.67Z</time></trkpt><trkpt lat="38.2045966" lon="-2.7566591"><ele>787.0</ele><time>2026-04-13T09:58:37.67Z</time></trkpt><trkpt lat="38.204715" lon="-2.7566669"><ele>787.0</ele><time>2026-04-13T09:58:38.67Z</time></trkpt><trkpt lat="38.2048344" lon="-2.7566729"><ele>787.0</ele><time>2026-04-13T09:58:39.67Z</time></trkpt><trkpt lat="38.204949" lon="-2.7566728"><ele>786.5</ele><time>2026-04-13T09:58:40.67Z</time></trkpt><trkpt lat="38.205065" lon="-2.7566766"><ele>786.0</ele><time>2026-04-13T09:58:41.67Z</time></trkpt><trkpt lat="38.2051799" lon="-2.7566891"><ele>785.5</ele><time>2026-04-13T09:58:42.67Z</time></trkpt><trkpt lat="38.2052918" lon="-2.7567193"><ele>785.0</ele><time>2026-04-13T09:58:43.67Z</time></trkpt><trkpt lat="38.2054014" lon="-2.7567662"><ele>785.0</ele><time>2026-04-13T09:58:44.67Z</time></trkpt><trkpt lat="38.2055123" lon="-2.7568166"><ele>785.0</ele><time>2026-04-13T09:58:45.67Z</time></trkpt><trkpt lat="38.20562" lon="-2.7568633"><ele>785.0</ele><time>2026-04-13T09:58:46.67Z</time></trkpt><trkpt lat="38.20573" lon="-2.7569017"><ele>785.0</ele><time>2026-04-13T09:58:47.67Z</time></trkpt><trkpt lat="38.2058419" lon="-2.7569245"><ele>785.0</ele><time>2026-04-13T09:58:48.67Z</time></trkpt><trkpt lat="38.2059624" lon="-2.7569324"><ele>785.0</ele><time>2026-04-13T09:58:49.67Z</time></trkpt><trkpt lat="38.2060852" lon="-2.7569172"><ele>785.0</ele><time>2026-04-13T09:58:50.67Z</time></trkpt><trkpt lat="38.2062097" lon="-2.7568844"><ele>785.0</ele><time>2026-04-13T09:58:51.67Z</time></trkpt><trkpt lat="38.2063319" lon="-2.75685"><ele>785.0</ele><time>2026-04-13T09:58:52.67Z</time></trkpt><trkpt lat="38.2064596" lon="-2.7568187"><ele>785.0</ele><time>2026-04-13T09:58:53.67Z</time></trkpt><trkpt lat="38.2065796" lon="-2.7567765"><ele>785.0</ele><time>2026-04-13T09:58:54.67Z</time></trkpt><trkpt lat="38.2067026" lon="-2.7567405"><ele>785.0</ele><time>2026-04-13T09:58:55.67Z</time></trkpt><trkpt lat="38.2068223" lon="-2.7566976"><ele>785.25</ele><time>2026-04-13T09:58:56.67Z</time></trkpt><trkpt lat="38.2069433" lon="-2.7566531"><ele>785.5</ele><time>2026-04-13T09:58:57.67Z</time></trkpt><trkpt lat="38.2070662" lon="-2.7566212"><ele>785.75</ele><time>2026-04-13T09:58:58.67Z</time></trkpt><trkpt lat="38.2071863" lon="-2.7566092"><ele>786.0</ele><time>2026-04-13T09:58:59.67Z</time></trkpt><trkpt lat="38.2073133" lon="-2.7566202"><ele>785.3333333333333</ele><time>2026-04-13T09:59:00.67Z</time></trkpt><trkpt lat="38.20745" lon="-2.7566613"><ele>784.6666666666666</ele><time>2026-04-13T09:59:01.67Z</time></trkpt><trkpt lat="38.2075948" lon="-2.7567018"><ele>784.0</ele><time>2026-04-13T09:59:02.67Z</time></trkpt><trkpt lat="38.2077522" lon="-2.7567478"><ele>784.0</ele><time>2026-04-13T09:59:03.67Z</time></trkpt><trkpt lat="38.2079195" lon="-2.7567939"><ele>784.0</ele><time>2026-04-13T09:59:04.67Z</time></trkpt><trkpt lat="38.2080974" lon="-2.7568444"><ele>784.0</ele><time>2026-04-13T09:59:05.67Z</time></trkpt><trkpt lat="38.2082698" lon="-2.7568938"><ele>787.6666666666666</ele><time>2026-04-13T09:59:06.67Z</time></trkpt><trkpt lat="38.2084342" lon="-2.7569429"><ele>791.3333333333333</ele><time>2026-04-13T09:59:07.67Z</time></trkpt><trkpt lat="38.2085831" lon="-2.7569904"><ele>795.0</ele><time>2026-04-13T09:59:08.67Z</time></trkpt><trkpt lat="38.2087278" lon="-2.7570096"><ele>795.0</ele><time>2026-04-13T09:59:09.67Z</time></trkpt><trkpt lat="38.2088815" lon="-2.7569905"><ele>795.0</ele><time>2026-04-13T09:59:10.67Z</time></trkpt><trkpt lat="38.2090157" lon="-2.7569573"><ele>795.0</ele><time>2026-04-13T09:59:11.67Z</time></trkpt><trkpt lat="38.2091388" lon="-2.7569208"><ele>795.0</ele><time>2026-04-13T09:59:12.67Z</time></trkpt><trkpt lat="38.2092626" lon="-2.7568932"><ele>793.5</ele><time>2026-04-13T09:59:13.67Z</time></trkpt><trkpt lat="38.209393" lon="-2.7569022"><ele>792.0</ele><time>2026-04-13T09:59:14.67Z</time></trkpt><trkpt lat="38.2095136" lon="-2.7569397"><ele>790.5</ele><time>2026-04-13T09:59:15.67Z</time></trkpt><trkpt lat="38.2096201" lon="-2.7570081"><ele>789.0</ele><time>2026-04-13T09:59:16.67Z</time></trkpt><trkpt lat="38.2097037" lon="-2.7570877"><ele>789.0</ele><time>2026-04-13T09:59:17.67Z</time></trkpt><trkpt lat="38.2097683" lon="-2.7571389"><ele>789.0</ele><time>2026-04-13T09:59:18.67Z</time></trkpt><trkpt lat="38.2098786" lon="-2.7572049"><ele>789.0</ele><time>2026-04-13T09:59:20.67Z</time></trkpt><trkpt lat="38.2099501" lon="-2.7572383"><ele>789.0</ele><time>2026-04-13T09:59:21.67Z</time></trkpt><trkpt lat="38.2100333" lon="-2.7572585"><ele>789.0</ele><time>2026-04-13T09:59:22.67Z</time></trkpt><trkpt lat="38.2101243" lon="-2.7572649"><ele>785.8000000000001</ele><time>2026-04-13T09:59:23.67Z</time></trkpt><trkpt lat="38.2102187" lon="-2.7572609"><ele>782.6</ele><time>2026-04-13T09:59:24.67Z</time></trkpt><trkpt lat="38.2103221" lon="-2.757251"><ele>779.4</ele><time>2026-04-13T09:59:25.67Z</time></trkpt><trkpt lat="38.2104311" lon="-2.7572419"><ele>776.2</ele><time>2026-04-13T09:59:26.67Z</time></trkpt><trkpt lat="38.2105476" lon="-2.757233"><ele>773.0</ele><time>2026-04-13T09:59:27.67Z</time></trkpt><trkpt lat="38.2106663" lon="-2.7572271"><ele>773.0</ele><time>2026-04-13T09:59:28.671Z</time></trkpt><trkpt lat="38.2107851" lon="-2.7572206"><ele>773.0</ele><time>2026-04-13T09:59:29.67Z</time></trkpt><trkpt lat="38.2109052" lon="-2.7572173"><ele>773.0</ele><time>2026-04-13T09:59:30.67Z</time></trkpt><trkpt lat="38.2110284" lon="-2.7572135"><ele>773.0</ele><time>2026-04-13T09:59:31.67Z</time></trkpt><trkpt lat="38.211151" lon="-2.7572072"><ele>773.0</ele><time>2026-04-13T09:59:32.67Z</time></trkpt><trkpt lat="38.2112741" lon="-2.7572032"><ele>773.0</ele><time>2026-04-13T09:59:33.67Z</time></trkpt><trkpt lat="38.2113988" lon="-2.757194"><ele>773.0</ele><time>2026-04-13T09:59:34.67Z</time></trkpt><trkpt lat="38.211519" lon="-2.7571854"><ele>773.0</ele><time>2026-04-13T09:59:35.67Z</time></trkpt><trkpt lat="38.2116385" lon="-2.7571735"><ele>774.0</ele><time>2026-04-13T09:59:36.67Z</time></trkpt><trkpt lat="38.2117523" lon="-2.7571371"><ele>775.0</ele><time>2026-04-13T09:59:37.67Z</time></trkpt><trkpt lat="38.2118653" lon="-2.7570808"><ele>776.0</ele><time>2026-04-13T09:59:38.67Z</time></trkpt><trkpt lat="38.2119805" lon="-2.7570156"><ele>777.0</ele><time>2026-04-13T09:59:39.67Z</time></trkpt><trkpt lat="38.2120964" lon="-2.7569486"><ele>777.0</ele><time>2026-04-13T09:59:40.67Z</time></trkpt><trkpt lat="38.2122098" lon="-2.7568788"><ele>777.0</ele><time>2026-04-13T09:59:41.67Z</time></trkpt><trkpt lat="38.2123178" lon="-2.7568087"><ele>777.0</ele><time>2026-04-13T09:59:42.67Z</time></trkpt><trkpt lat="38.2124277" lon="-2.7567418"><ele>777.0</ele><time>2026-04-13T09:59:43.67Z</time></trkpt><trkpt lat="38.2125412" lon="-2.7566809"><ele>776.25</ele><time>2026-04-13T09:59:44.67Z</time></trkpt><trkpt lat="38.2126527" lon="-2.7566198"><ele>775.5</ele><time>2026-04-13T09:59:45.67Z</time></trkpt><trkpt lat="38.2127627" lon="-2.7565554"><ele>774.75</ele><time>2026-04-13T09:59:46.67Z</time></trkpt><trkpt lat="38.2128716" lon="-2.7564927"><ele>774.0</ele><time>2026-04-13T09:59:47.67Z</time></trkpt><trkpt lat="38.2129783" lon="-2.7564295"><ele>774.0</ele><time>2026-04-13T09:59:48.67Z</time></trkpt><trkpt lat="38.2130826" lon="-2.7563681"><ele>774.0</ele><time>2026-04-13T09:59:49.67Z</time></trkpt><trkpt lat="38.2131884" lon="-2.7563029"><ele>774.0</ele><time>2026-04-13T09:59:50.67Z</time></trkpt><trkpt lat="38.2132925" lon="-2.7562344"><ele>774.0</ele><time>2026-04-13T09:59:51.67Z</time></trkpt><trkpt lat="38.2133984" lon="-2.7561691"><ele>774.3333333333334</ele><time>2026-04-13T09:59:52.67Z</time></trkpt><trkpt lat="38.2134917" lon="-2.7561146"><ele>774.6666666666667</ele><time>2026-04-13T09:59:53.67Z</time></trkpt><trkpt lat="38.2135705" lon="-2.756067"><ele>775.0</ele><time>2026-04-13T09:59:54.67Z</time></trkpt><trkpt lat="38.2136313" lon="-2.7560318"><ele>775.3333333333334</ele><time>2026-04-13T09:59:55.67Z</time></trkpt><trkpt lat="38.2136913" lon="-2.7559988"><ele>775.6666666666667</ele><time>2026-04-13T09:59:56.671Z</time></trkpt><trkpt lat="38.2137558" lon="-2.7559585"><ele>776.0</ele><time>2026-04-13T09:59:57.67Z</time></trkpt><trkpt lat="38.2138284" lon="-2.7559115"><ele>776.0</ele><time>2026-04-13T09:59:58.67Z</time></trkpt><trkpt lat="38.2139082" lon="-2.755862"><ele>776.0</ele><time>2026-04-13T09:59:59.67Z</time></trkpt><trkpt lat="38.2139927" lon="-2.7558119"><ele>776.0</ele><time>2026-04-13T10:00:00.67Z</time></trkpt><trkpt lat="38.2140856" lon="-2.7557584"><ele>776.0</ele><time>2026-04-13T10:00:01.67Z</time></trkpt><trkpt lat="38.2141755" lon="-2.7557082"><ele>776.0</ele><time>2026-04-13T10:00:02.67Z</time></trkpt><trkpt lat="38.21427" lon="-2.7556509"><ele>776.4</ele><time>2026-04-13T10:00:03.67Z</time></trkpt><trkpt lat="38.2143689" lon="-2.7555959"><ele>776.8</ele><time>2026-04-13T10:00:04.671Z</time></trkpt><trkpt lat="38.2144708" lon="-2.7555377"><ele>777.1999999999999</ele><time>2026-04-13T10:00:05.67Z</time></trkpt><trkpt lat="38.214574" lon="-2.7554767"><ele>777.5999999999999</ele><time>2026-04-13T10:00:06.67Z</time></trkpt><trkpt lat="38.2146788" lon="-2.755418"><ele>778.0</ele><time>2026-04-13T10:00:07.67Z</time></trkpt><trkpt lat="38.214778" lon="-2.7553599"><ele>778.4</ele><time>2026-04-13T10:00:08.67Z</time></trkpt><trkpt lat="38.2148773" lon="-2.7553041"><ele>778.8</ele><time>2026-04-13T10:00:09.67Z</time></trkpt><trkpt lat="38.2149728" lon="-2.7552439"><ele>779.2</ele><time>2026-04-13T10:00:10.67Z</time></trkpt><trkpt lat="38.2150476" lon="-2.7551977"><ele>779.6</ele><time>2026-04-13T10:00:11.67Z</time></trkpt><trkpt lat="38.2151505" lon="-2.7551294"><ele>780.0</ele><time>2026-04-13T10:00:13.67Z</time></trkpt><trkpt lat="38.2152116" lon="-2.7550951"><ele>780.6</ele><time>2026-04-13T10:00:14.67Z</time></trkpt><trkpt lat="38.2152825" lon="-2.755056"><ele>781.2</ele><time>2026-04-13T10:00:15.67Z</time></trkpt><trkpt lat="38.2153616" lon="-2.7550106"><ele>781.8</ele><time>2026-04-13T10:00:16.671Z</time></trkpt><trkpt lat="38.2154415" lon="-2.7549629"><ele>782.4</ele><time>2026-04-13T10:00:17.671Z</time></trkpt><trkpt lat="38.2155302" lon="-2.7549095"><ele>783.0</ele><time>2026-04-13T10:00:18.671Z</time></trkpt><trkpt lat="38.215628" lon="-2.7548571"><ele>783.5</ele><time>2026-04-13T10:00:19.67Z</time></trkpt><trkpt lat="38.2157344" lon="-2.7548105"><ele>784.0</ele><time>2026-04-13T10:00:20.67Z</time></trkpt><trkpt lat="38.2158464" lon="-2.7547646"><ele>784.5</ele><time>2026-04-13T10:00:21.67Z</time></trkpt><trkpt lat="38.2159655" lon="-2.7547255"><ele>785.0</ele><time>2026-04-13T10:00:22.67Z</time></trkpt><trkpt lat="38.2160769" lon="-2.7546859"><ele>785.0</ele><time>2026-04-13T10:00:23.67Z</time></trkpt><trkpt lat="38.2161908" lon="-2.7546461"><ele>785.0</ele><time>2026-04-13T10:00:24.67Z</time></trkpt><trkpt lat="38.2163036" lon="-2.7546015"><ele>785.0</ele><time>2026-04-13T10:00:25.67Z</time></trkpt><trkpt lat="38.2164001" lon="-2.7545391"><ele>785.0</ele><time>2026-04-13T10:00:26.67Z</time></trkpt><trkpt lat="38.2164985" lon="-2.7544559"><ele>783.75</ele><time>2026-04-13T10:00:27.67Z</time></trkpt><trkpt lat="38.2165919" lon="-2.7543624"><ele>782.5</ele><time>2026-04-13T10:00:28.67Z</time></trkpt><trkpt lat="38.2166847" lon="-2.7542668"><ele>781.25</ele><time>2026-04-13T10:00:29.67Z</time></trkpt><trkpt lat="38.2167801" lon="-2.7541717"><ele>780.0</ele><time>2026-04-13T10:00:30.67Z</time></trkpt><trkpt lat="38.2168777" lon="-2.754076"><ele>780.0</ele><time>2026-04-13T10:00:31.67Z</time></trkpt><trkpt lat="38.2169752" lon="-2.7539774"><ele>780.0</ele><time>2026-04-13T10:00:32.67Z</time></trkpt><trkpt lat="38.2170745" lon="-2.75388"><ele>780.0</ele><time>2026-04-13T10:00:33.67Z</time></trkpt><trkpt lat="38.2171754" lon="-2.753784"><ele>780.0</ele><time>2026-04-13T10:00:34.67Z</time></trkpt><trkpt lat="38.2172804" lon="-2.7536891"><ele>780.0</ele><time>2026-04-13T10:00:35.67Z</time></trkpt><trkpt lat="38.2173882" lon="-2.7536043"><ele>780.0</ele><time>2026-04-13T10:00:36.671Z</time></trkpt><trkpt lat="38.217509" lon="-2.7535346"><ele>780.0</ele><time>2026-04-13T10:00:37.67Z</time></trkpt><trkpt lat="38.2176397" lon="-2.7534868"><ele>780.0</ele><time>2026-04-13T10:00:38.67Z</time></trkpt><trkpt lat="38.2177677" lon="-2.7534274"><ele>780.0</ele><time>2026-04-13T10:00:39.67Z</time></trkpt><trkpt lat="38.2178982" lon="-2.7533998"><ele>780.0</ele><time>2026-04-13T10:00:40.67Z</time></trkpt><trkpt lat="38.2180188" lon="-2.7533738"><ele>780.0</ele><time>2026-04-13T10:00:41.67Z</time></trkpt><trkpt lat="38.2181219" lon="-2.7533469"><ele>780.0</ele><time>2026-04-13T10:00:42.67Z</time></trkpt><trkpt lat="38.2181918" lon="-2.7533293"><ele>780.0</ele><time>2026-04-13T10:00:43.67Z</time></trkpt><trkpt lat="38.218257" lon="-2.7533085"><ele>777.8</ele><time>2026-04-13T10:00:44.67Z</time></trkpt><trkpt lat="38.2183313" lon="-2.7532864"><ele>775.6</ele><time>2026-04-13T10:00:45.67Z</time></trkpt><trkpt lat="38.2184152" lon="-2.7532526"><ele>773.4000000000001</ele><time>2026-04-13T10:00:46.67Z</time></trkpt><trkpt lat="38.2185049" lon="-2.7532036"><ele>771.2</ele><time>2026-04-13T10:00:47.67Z</time></trkpt><trkpt lat="38.2186025" lon="-2.7531361"><ele>769.0</ele><time>2026-04-13T10:00:48.67Z</time></trkpt><trkpt lat="38.2187095" lon="-2.753069"><ele>769.0</ele><time>2026-04-13T10:00:49.67Z</time></trkpt><trkpt lat="38.2188155" lon="-2.7529928"><ele>769.0</ele><time>2026-04-13T10:00:50.67Z</time></trkpt><trkpt lat="38.2189246" lon="-2.7529262"><ele>769.0</ele><time>2026-04-13T10:00:51.67Z</time></trkpt><trkpt lat="38.2190441" lon="-2.7528689"><ele>769.0</ele><time>2026-04-13T10:00:52.67Z</time></trkpt><trkpt lat="38.2191681" lon="-2.7528481"><ele>767.25</ele><time>2026-04-13T10:00:53.67Z</time></trkpt><trkpt lat="38.2192934" lon="-2.7528662"><ele>765.5</ele><time>2026-04-13T10:00:54.67Z</time></trkpt><trkpt lat="38.219414" lon="-2.7529134"><ele>763.75</ele><time>2026-04-13T10:00:55.67Z</time></trkpt><trkpt lat="38.2195253" lon="-2.7529727"><ele>762.0</ele><time>2026-04-13T10:00:56.67Z</time></trkpt><trkpt lat="38.219631" lon="-2.7530338"><ele>762.0</ele><time>2026-04-13T10:00:57.67Z</time></trkpt><trkpt lat="38.2197328" lon="-2.7531"><ele>762.0</ele><time>2026-04-13T10:00:58.67Z</time></trkpt><trkpt lat="38.219833" lon="-2.7531607"><ele>762.0</ele><time>2026-04-13T10:00:59.67Z</time></trkpt><trkpt lat="38.2199332" lon="-2.7532211"><ele>762.0</ele><time>2026-04-13T10:01:00.67Z</time></trkpt><trkpt lat="38.220032" lon="-2.7532807"><ele>762.0</ele><time>2026-04-13T10:01:01.67Z</time></trkpt><trkpt lat="38.2201325" lon="-2.7533349"><ele>762.2</ele><time>2026-04-13T10:01:02.67Z</time></trkpt><trkpt lat="38.2202374" lon="-2.7533709"><ele>762.4000000000001</ele><time>2026-04-13T10:01:03.67Z</time></trkpt><trkpt lat="38.2203463" lon="-2.7533754"><ele>762.5999999999999</ele><time>2026-04-13T10:01:04.67Z</time></trkpt><trkpt lat="38.2204572" lon="-2.7533402"><ele>762.8</ele><time>2026-04-13T10:01:05.67Z</time></trkpt><trkpt lat="38.2205583" lon="-2.7532654"><ele>763.0</ele><time>2026-04-13T10:01:06.67Z</time></trkpt><trkpt lat="38.2206558" lon="-2.753166"><ele>763.0</ele><time>2026-04-13T10:01:07.67Z</time></trkpt><trkpt lat="38.220749" lon="-2.7530551"><ele>763.0</ele><time>2026-04-13T10:01:08.67Z</time></trkpt><trkpt lat="38.2208469" lon="-2.7529403"><ele>763.0</ele><time>2026-04-13T10:01:09.67Z</time></trkpt><trkpt lat="38.2209425" lon="-2.7528194"><ele>763.0</ele><time>2026-04-13T10:01:10.67Z</time></trkpt><trkpt lat="38.22104" lon="-2.7526984"><ele>760.5</ele><time>2026-04-13T10:01:11.67Z</time></trkpt><trkpt lat="38.2211341" lon="-2.7525733"><ele>758.0</ele><time>2026-04-13T10:01:12.671Z</time></trkpt><trkpt lat="38.2212149" lon="-2.7524301"><ele>755.5</ele><time>2026-04-13T10:01:13.67Z</time></trkpt><trkpt lat="38.2212932" lon="-2.7522898"><ele>753.0</ele><time>2026-04-13T10:01:14.67Z</time></trkpt><trkpt lat="38.2213724" lon="-2.7521439"><ele>753.0</ele><time>2026-04-13T10:01:15.67Z</time></trkpt><trkpt lat="38.2214497" lon="-2.7519943"><ele>753.0</ele><time>2026-04-13T10:01:16.67Z</time></trkpt><trkpt lat="38.2215274" lon="-2.7518419"><ele>753.0</ele><time>2026-04-13T10:01:17.67Z</time></trkpt><trkpt lat="38.2216005" lon="-2.7516806"><ele>753.0</ele><time>2026-04-13T10:01:18.67Z</time></trkpt><trkpt lat="38.2216676" lon="-2.7515183"><ele>752.25</ele><time>2026-04-13T10:01:19.67Z</time></trkpt><trkpt lat="38.2217292" lon="-2.7513672"><ele>751.5</ele><time>2026-04-13T10:01:20.67Z</time></trkpt><trkpt lat="38.2217867" lon="-2.7512264"><ele>750.75</ele><time>2026-04-13T10:01:21.67Z</time></trkpt><trkpt lat="38.2218436" lon="-2.7510851"><ele>750.0</ele><time>2026-04-13T10:01:22.67Z</time></trkpt><trkpt lat="38.2218962" lon="-2.7509415"><ele>747.25</ele><time>2026-04-13T10:01:23.67Z</time></trkpt><trkpt lat="38.2219527" lon="-2.7507987"><ele>744.5</ele><time>2026-04-13T10:01:24.671Z</time></trkpt><trkpt lat="38.2220197" lon="-2.750658"><ele>741.75</ele><time>2026-04-13T10:01:25.67Z</time></trkpt><trkpt lat="38.2221021" lon="-2.7505347"><ele>739.0</ele><time>2026-04-13T10:01:26.67Z</time></trkpt><trkpt lat="38.2221936" lon="-2.7504175"><ele>739.0</ele><time>2026-04-13T10:01:27.67Z</time></trkpt><trkpt lat="38.2222926" lon="-2.7503023"><ele>739.0</ele><time>2026-04-13T10:01:28.67Z</time></trkpt><trkpt lat="38.2223907" lon="-2.7502029"><ele>739.0</ele><time>2026-04-13T10:01:29.67Z</time></trkpt><trkpt lat="38.2224966" lon="-2.7501179"><ele>739.0</ele><time>2026-04-13T10:01:30.67Z</time></trkpt><trkpt lat="38.22261" lon="-2.7500336"><ele>737.75</ele><time>2026-04-13T10:01:31.67Z</time></trkpt><trkpt lat="38.2227246" lon="-2.749953"><ele>736.5</ele><time>2026-04-13T10:01:32.67Z</time></trkpt><trkpt lat="38.2228419" lon="-2.7498704"><ele>735.25</ele><time>2026-04-13T10:01:33.67Z</time></trkpt><trkpt lat="38.2229618" lon="-2.749789"><ele>734.0</ele><time>2026-04-13T10:01:34.67Z</time></trkpt><trkpt lat="38.2230814" lon="-2.7497094"><ele>736.5</ele><time>2026-04-13T10:01:35.67Z</time></trkpt><trkpt lat="38.2232011" lon="-2.7496313"><ele>739.0</ele><time>2026-04-13T10:01:36.67Z</time></trkpt><trkpt lat="38.2233191" lon="-2.7495374"><ele>741.5</ele><time>2026-04-13T10:01:37.67Z</time></trkpt><trkpt lat="38.2234247" lon="-2.7494216"><ele>744.0</ele><time>2026-04-13T10:01:38.67Z</time></trkpt><trkpt lat="38.223512" lon="-2.749281"><ele>739.0</ele><time>2026-04-13T10:01:39.67Z</time></trkpt><trkpt lat="38.2235866" lon="-2.749124"><ele>734.0</ele><time>2026-04-13T10:01:40.67Z</time></trkpt><trkpt lat="38.2236541" lon="-2.7489675"><ele>729.0</ele><time>2026-04-13T10:01:41.67Z</time></trkpt><trkpt lat="38.2237203" lon="-2.7488037"><ele>724.0</ele><time>2026-04-13T10:01:42.67Z</time></trkpt><trkpt lat="38.2237846" lon="-2.7486458"><ele>723.0</ele><time>2026-04-13T10:01:43.67Z</time></trkpt><trkpt lat="38.2238425" lon="-2.7484899"><ele>722.0</ele><time>2026-04-13T10:01:44.67Z</time></trkpt><trkpt lat="38.223896" lon="-2.7483311"><ele>721.0</ele><time>2026-04-13T10:01:45.67Z</time></trkpt><trkpt lat="38.2239372" lon="-2.7481684"><ele>720.0</ele><time>2026-04-13T10:01:46.67Z</time></trkpt><trkpt lat="38.2239733" lon="-2.7480029"><ele>720.75</ele><time>2026-04-13T10:01:47.67Z</time></trkpt><trkpt lat="38.2239978" lon="-2.7478303"><ele>721.5</ele><time>2026-04-13T10:01:48.67Z</time></trkpt><trkpt lat="38.2240217" lon="-2.7476512"><ele>722.25</ele><time>2026-04-13T10:01:49.67Z</time></trkpt><trkpt lat="38.2240457" lon="-2.7474753"><ele>723.0</ele><time>2026-04-13T10:01:50.67Z</time></trkpt><trkpt lat="38.2240645" lon="-2.7473002"><ele>723.0</ele><time>2026-04-13T10:01:51.67Z</time></trkpt><trkpt lat="38.224078" lon="-2.747142"><ele>723.0</ele><time>2026-04-13T10:01:52.67Z</time></trkpt><trkpt lat="38.224078" lon="-2.7470017"><ele>723.0</ele><time>2026-04-13T10:01:53.67Z</time></trkpt><trkpt lat="38.2240597" lon="-2.746852"><ele>723.0</ele><time>2026-04-13T10:01:54.67Z</time></trkpt><trkpt lat="38.2240242" lon="-2.7467147"><ele>719.75</ele><time>2026-04-13T10:01:55.67Z</time></trkpt><trkpt lat="38.2239793" lon="-2.7465793"><ele>716.5</ele><time>2026-04-13T10:01:56.67Z</time></trkpt><trkpt lat="38.2239245" lon="-2.7464427"><ele>713.25</ele><time>2026-04-13T10:01:57.67Z</time></trkpt><trkpt lat="38.2238663" lon="-2.7463107"><ele>710.0</ele><time>2026-04-13T10:01:58.67Z</time></trkpt><trkpt lat="38.2238079" lon="-2.7461781"><ele>710.0</ele><time>2026-04-13T10:01:59.67Z</time></trkpt><trkpt lat="38.2237414" lon="-2.7460546"><ele>710.0</ele><time>2026-04-13T10:02:00.67Z</time></trkpt><trkpt lat="38.2236616" lon="-2.7459489"><ele>710.0</ele><time>2026-04-13T10:02:01.67Z</time></trkpt><trkpt lat="38.22357" lon="-2.7458582"><ele>710.0</ele><time>2026-04-13T10:02:02.67Z</time></trkpt><trkpt lat="38.223471" lon="-2.7457833"><ele>710.0</ele><time>2026-04-13T10:02:03.67Z</time></trkpt><trkpt lat="38.2233732" lon="-2.7457047"><ele>710.0</ele><time>2026-04-13T10:02:04.67Z</time></trkpt><trkpt lat="38.2232833" lon="-2.7456103"><ele>710.0</ele><time>2026-04-13T10:02:05.67Z</time></trkpt><trkpt lat="38.223217" lon="-2.7454843"><ele>710.0</ele><time>2026-04-13T10:02:06.67Z</time></trkpt><trkpt lat="38.2231617" lon="-2.7453494"><ele>710.25</ele><time>2026-04-13T10:02:07.67Z</time></trkpt><trkpt lat="38.2231227" lon="-2.7452067"><ele>710.5</ele><time>2026-04-13T10:02:08.67Z</time></trkpt><trkpt lat="38.2231094" lon="-2.7450478"><ele>710.75</ele><time>2026-04-13T10:02:09.67Z</time></trkpt><trkpt lat="38.2231246" lon="-2.7448887"><ele>711.0</ele><time>2026-04-13T10:02:10.67Z</time></trkpt><trkpt lat="38.2231563" lon="-2.7447276"><ele>711.0</ele><time>2026-04-13T10:02:11.67Z</time></trkpt><trkpt lat="38.2231945" lon="-2.7445711"><ele>711.0</ele><time>2026-04-13T10:02:12.67Z</time></trkpt><trkpt lat="38.2232273" lon="-2.7444093"><ele>711.0</ele><time>2026-04-13T10:02:13.67Z</time></trkpt><trkpt lat="38.2232558" lon="-2.7442392"><ele>711.0</ele><time>2026-04-13T10:02:14.67Z</time></trkpt><trkpt lat="38.2232766" lon="-2.7440667"><ele>710.0</ele><time>2026-04-13T10:02:15.67Z</time></trkpt><trkpt lat="38.2232909" lon="-2.743892"><ele>709.0</ele><time>2026-04-13T10:02:16.67Z</time></trkpt><trkpt lat="38.223297" lon="-2.7437144"><ele>708.0</ele><time>2026-04-13T10:02:17.67Z</time></trkpt><trkpt lat="38.2232945" lon="-2.7435431"><ele>707.0</ele><time>2026-04-13T10:02:18.67Z</time></trkpt><trkpt lat="38.2232819" lon="-2.7433844"><ele>705.5</ele><time>2026-04-13T10:02:19.67Z</time></trkpt><trkpt lat="38.2232543" lon="-2.7432171"><ele>704.0</ele><time>2026-04-13T10:02:20.67Z</time></trkpt><trkpt lat="38.2231956" lon="-2.7430853"><ele>702.5</ele><time>2026-04-13T10:02:21.67Z</time></trkpt><trkpt lat="38.2231151" lon="-2.7429636"><ele>701.0</ele><time>2026-04-13T10:02:22.67Z</time></trkpt><trkpt lat="38.2230309" lon="-2.7428426"><ele>700.5</ele><time>2026-04-13T10:02:23.67Z</time></trkpt><trkpt lat="38.2229436" lon="-2.7427203"><ele>700.0</ele><time>2026-04-13T10:02:24.67Z</time></trkpt><trkpt lat="38.2228561" lon="-2.7426004"><ele>699.5</ele><time>2026-04-13T10:02:25.67Z</time></trkpt><trkpt lat="38.2227722" lon="-2.7424803"><ele>699.0</ele><time>2026-04-13T10:02:26.67Z</time></trkpt><trkpt lat="38.2227091" lon="-2.7423507"><ele>698.0</ele><time>2026-04-13T10:02:27.671Z</time></trkpt><trkpt lat="38.2226709" lon="-2.7422104"><ele>697.0</ele><time>2026-04-13T10:02:28.67Z</time></trkpt><trkpt lat="38.2226615" lon="-2.7420619"><ele>696.0</ele><time>2026-04-13T10:02:29.67Z</time></trkpt><trkpt lat="38.2226803" lon="-2.7419116"><ele>695.0</ele><time>2026-04-13T10:02:30.671Z</time></trkpt><trkpt lat="38.2227221" lon="-2.7417723"><ele>695.0</ele><time>2026-04-13T10:02:31.67Z</time></trkpt><trkpt lat="38.2227682" lon="-2.7416334"><ele>695.0</ele><time>2026-04-13T10:02:32.67Z</time></trkpt><trkpt lat="38.2228034" lon="-2.7414881"><ele>695.0</ele><time>2026-04-13T10:02:33.67Z</time></trkpt><trkpt lat="38.2228289" lon="-2.7413312"><ele>695.0</ele><time>2026-04-13T10:02:34.67Z</time></trkpt><trkpt lat="38.2228472" lon="-2.7411743"><ele>695.25</ele><time>2026-04-13T10:02:35.67Z</time></trkpt><trkpt lat="38.2228658" lon="-2.7410161"><ele>695.5</ele><time>2026-04-13T10:02:36.67Z</time></trkpt><trkpt lat="38.2228854" lon="-2.7408582"><ele>695.75</ele><time>2026-04-13T10:02:37.67Z</time></trkpt><trkpt lat="38.2229044" lon="-2.740698"><ele>696.0</ele><time>2026-04-13T10:02:38.67Z</time></trkpt><trkpt lat="38.2229195" lon="-2.7405353"><ele>696.0</ele><time>2026-04-13T10:02:39.67Z</time></trkpt><trkpt lat="38.2229332" lon="-2.7403725"><ele>696.0</ele><time>2026-04-13T10:02:40.67Z</time></trkpt><trkpt lat="38.2229472" lon="-2.7402077"><ele>696.0</ele><time>2026-04-13T10:02:41.67Z</time></trkpt><trkpt lat="38.222963" lon="-2.7400437"><ele>696.0</ele><time>2026-04-13T10:02:42.67Z</time></trkpt><trkpt lat="38.2229812" lon="-2.7398815"><ele>696.0</ele><time>2026-04-13T10:02:43.67Z</time></trkpt><trkpt lat="38.2229933" lon="-2.7397174"><ele>696.0</ele><time>2026-04-13T10:02:44.67Z</time></trkpt><trkpt lat="38.2230083" lon="-2.7395508"><ele>696.0</ele><time>2026-04-13T10:02:45.67Z</time></trkpt><trkpt lat="38.2230231" lon="-2.7393857"><ele>696.0</ele><time>2026-04-13T10:02:46.67Z</time></trkpt><trkpt lat="38.2230501" lon="-2.7392251"><ele>696.0</ele><time>2026-04-13T10:02:47.67Z</time></trkpt><trkpt lat="38.2230836" lon="-2.7390639"><ele>696.0</ele><time>2026-04-13T10:02:48.67Z</time></trkpt><trkpt lat="38.2231353" lon="-2.7389121"><ele>696.0</ele><time>2026-04-13T10:02:49.67Z</time></trkpt><trkpt lat="38.2232037" lon="-2.7387724"><ele>696.0</ele><time>2026-04-13T10:02:50.67Z</time></trkpt><trkpt lat="38.2232839" lon="-2.7386393"><ele>692.25</ele><time>2026-04-13T10:02:51.671Z</time></trkpt><trkpt lat="38.2233612" lon="-2.738505"><ele>688.5</ele><time>2026-04-13T10:02:52.67Z</time></trkpt><trkpt lat="38.2234387" lon="-2.738368"><ele>684.75</ele><time>2026-04-13T10:02:53.67Z</time></trkpt><trkpt lat="38.2235095" lon="-2.7382191"><ele>681.0</ele><time>2026-04-13T10:02:54.67Z</time></trkpt><trkpt lat="38.2235603" lon="-2.7380696"><ele>681.0</ele><time>2026-04-13T10:02:55.67Z</time></trkpt><trkpt lat="38.2236" lon="-2.7379077"><ele>681.0</ele><time>2026-04-13T10:02:56.67Z</time></trkpt><trkpt lat="38.2236264" lon="-2.7377336"><ele>681.0</ele><time>2026-04-13T10:02:57.67Z</time></trkpt><trkpt lat="38.2236468" lon="-2.7375584"><ele>681.0</ele><time>2026-04-13T10:02:58.67Z</time></trkpt><trkpt lat="38.2236544" lon="-2.7373766"><ele>682.75</ele><time>2026-04-13T10:02:59.67Z</time></trkpt><trkpt lat="38.2236691" lon="-2.7371968"><ele>684.5</ele><time>2026-04-13T10:03:00.67Z</time></trkpt><trkpt lat="38.223687" lon="-2.7370258"><ele>686.25</ele><time>2026-04-13T10:03:01.67Z</time></trkpt><trkpt lat="38.2236959" lon="-2.7368604"><ele>688.0</ele><time>2026-04-13T10:03:02.67Z</time></trkpt><trkpt lat="38.2236896" lon="-2.736696"><ele>688.75</ele><time>2026-04-13T10:03:03.67Z</time></trkpt><trkpt lat="38.2236671" lon="-2.73654"><ele>689.5</ele><time>2026-04-13T10:03:04.67Z</time></trkpt><trkpt lat="38.2236183" lon="-2.7363826"><ele>690.25</ele><time>2026-04-13T10:03:05.67Z</time></trkpt><trkpt lat="38.2235639" lon="-2.7362253"><ele>691.0</ele><time>2026-04-13T10:03:06.67Z</time></trkpt><trkpt lat="38.2235049" lon="-2.7360732"><ele>688.25</ele><time>2026-04-13T10:03:07.67Z</time></trkpt><trkpt lat="38.2234532" lon="-2.7359559"><ele>685.5</ele><time>2026-04-13T10:03:08.67Z</time></trkpt><trkpt lat="38.223386" lon="-2.7358367"><ele>682.75</ele><time>2026-04-13T10:03:09.67Z</time></trkpt><trkpt lat="38.2233053" lon="-2.7357338"><ele>680.0</ele><time>2026-04-13T10:03:10.67Z</time></trkpt><trkpt lat="38.223212" lon="-2.7356446"><ele>684.5</ele><time>2026-04-13T10:03:11.67Z</time></trkpt><trkpt lat="38.2231077" lon="-2.7355508"><ele>689.0</ele><time>2026-04-13T10:03:12.67Z</time></trkpt><trkpt lat="38.2230036" lon="-2.735447"><ele>693.5</ele><time>2026-04-13T10:03:13.67Z</time></trkpt><trkpt lat="38.2229013" lon="-2.735347"><ele>698.0</ele><time>2026-04-13T10:03:14.67Z</time></trkpt><trkpt lat="38.2227953" lon="-2.7352431"><ele>691.75</ele><time>2026-04-13T10:03:15.67Z</time></trkpt><trkpt lat="38.2226895" lon="-2.7351462"><ele>685.5</ele><time>2026-04-13T10:03:16.67Z</time></trkpt><trkpt lat="38.2225848" lon="-2.7350439"><ele>679.25</ele><time>2026-04-13T10:03:17.67Z</time></trkpt><trkpt lat="38.2224869" lon="-2.7349334"><ele>673.0</ele><time>2026-04-13T10:03:18.67Z</time></trkpt><trkpt lat="38.2223977" lon="-2.7348074"><ele>673.0</ele><time>2026-04-13T10:03:19.67Z</time></trkpt><trkpt lat="38.2223183" lon="-2.7346679"><ele>673.0</ele><time>2026-04-13T10:03:20.67Z</time></trkpt><trkpt lat="38.2222476" lon="-2.7345363"><ele>673.0</ele><time>2026-04-13T10:03:21.67Z</time></trkpt><trkpt lat="38.2221816" lon="-2.7343953"><ele>673.0</ele><time>2026-04-13T10:03:22.67Z</time></trkpt><trkpt lat="38.2221009" lon="-2.7342692"><ele>672.0</ele><time>2026-04-13T10:03:23.67Z</time></trkpt><trkpt lat="38.2220111" lon="-2.7341527"><ele>671.0</ele><time>2026-04-13T10:03:24.67Z</time></trkpt><trkpt lat="38.2219235" lon="-2.7340331"><ele>670.0</ele><time>2026-04-13T10:03:25.67Z</time></trkpt><trkpt lat="38.2218422" lon="-2.7339182"><ele>669.0</ele><time>2026-04-13T10:03:26.67Z</time></trkpt><trkpt lat="38.2217558" lon="-2.7338009"><ele>669.0</ele><time>2026-04-13T10:03:27.67Z</time></trkpt><trkpt lat="38.2216629" lon="-2.7336905"><ele>669.0</ele><time>2026-04-13T10:03:28.67Z</time></trkpt><trkpt lat="38.221563" lon="-2.7335918"><ele>669.0</ele><time>2026-04-13T10:03:29.67Z</time></trkpt><trkpt lat="38.2214561" lon="-2.733503"><ele>669.0</ele><time>2026-04-13T10:03:30.67Z</time></trkpt><trkpt lat="38.2211303" lon="-2.733235"><ele>668.75</ele><time>2026-04-13T10:03:33.674Z</time></trkpt><trkpt lat="38.2210285" lon="-2.7331189"><ele>668.5</ele><time>2026-04-13T10:03:34.689Z</time></trkpt><trkpt lat="38.2209407" lon="-2.732987"><ele>668.25</ele><time>2026-04-13T10:03:35.678Z</time></trkpt><trkpt lat="38.2208579" lon="-2.7328468"><ele>668.0</ele><time>2026-04-13T10:03:36.684Z</time></trkpt><trkpt lat="38.2207691" lon="-2.7327125"><ele>666.25</ele><time>2026-04-13T10:03:37.677Z</time></trkpt><trkpt lat="38.2206729" lon="-2.7325939"><ele>664.5</ele><time>2026-04-13T10:03:38.679Z</time></trkpt><trkpt lat="38.2205675" lon="-2.7324869"><ele>662.75</ele><time>2026-04-13T10:03:39.679Z</time></trkpt><trkpt lat="38.2204571" lon="-2.7323857"><ele>661.0</ele><time>2026-04-13T10:03:40.679Z</time></trkpt><trkpt lat="38.2203559" lon="-2.7322836"><ele>661.0</ele><time>2026-04-13T10:03:41.679Z</time></trkpt><trkpt lat="38.2202675" lon="-2.7321769"><ele>661.0</ele><time>2026-04-13T10:03:42.679Z</time></trkpt><trkpt lat="38.220202" lon="-2.7320455"><ele>661.0</ele><time>2026-04-13T10:03:43.679Z</time></trkpt><trkpt lat="38.2201598" lon="-2.7318939"><ele>661.0</ele><time>2026-04-13T10:03:44.679Z</time></trkpt><trkpt lat="38.2201407" lon="-2.7317326"><ele>657.5</ele><time>2026-04-13T10:03:45.679Z</time></trkpt><trkpt lat="38.220135" lon="-2.73157"><ele>654.0</ele><time>2026-04-13T10:03:46.679Z</time></trkpt><trkpt lat="38.2201376" lon="-2.7314056"><ele>650.5</ele><time>2026-04-13T10:03:47.679Z</time></trkpt><trkpt lat="38.2201329" lon="-2.7312383"><ele>647.0</ele><time>2026-04-13T10:03:48.679Z</time></trkpt><trkpt lat="38.2201264" lon="-2.731073"><ele>646.5</ele><time>2026-04-13T10:03:49.679Z</time></trkpt><trkpt lat="38.2201266" lon="-2.7309013"><ele>646.0</ele><time>2026-04-13T10:03:50.679Z</time></trkpt><trkpt lat="38.2201455" lon="-2.7307341"><ele>645.5</ele><time>2026-04-13T10:03:51.679Z</time></trkpt><trkpt lat="38.2201932" lon="-2.7305808"><ele>645.0</ele><time>2026-04-13T10:03:52.679Z</time></trkpt><trkpt lat="38.2202693" lon="-2.7304549"><ele>645.0</ele><time>2026-04-13T10:03:53.679Z</time></trkpt><trkpt lat="38.2203706" lon="-2.7303464"><ele>645.0</ele><time>2026-04-13T10:03:54.679Z</time></trkpt><trkpt lat="38.2204915" lon="-2.7302703"><ele>645.0</ele><time>2026-04-13T10:03:55.679Z</time></trkpt><trkpt lat="38.2206235" lon="-2.7302245"><ele>645.0</ele><time>2026-04-13T10:03:56.679Z</time></trkpt><trkpt lat="38.2207618" lon="-2.7301918"><ele>647.75</ele><time>2026-04-13T10:03:57.679Z</time></trkpt><trkpt lat="38.2208935" lon="-2.7301493"><ele>650.5</ele><time>2026-04-13T10:03:58.679Z</time></trkpt><trkpt lat="38.2210243" lon="-2.7300868"><ele>653.25</ele><time>2026-04-13T10:03:59.679Z</time></trkpt><trkpt lat="38.2211516" lon="-2.7300248"><ele>656.0</ele><time>2026-04-13T10:04:00.679Z</time></trkpt><trkpt lat="38.221293" lon="-2.7299904"><ele>656.0</ele><time>2026-04-13T10:04:01.679Z</time></trkpt><trkpt lat="38.2214403" lon="-2.7299829"><ele>656.0</ele><time>2026-04-13T10:04:02.679Z</time></trkpt><trkpt lat="38.2215912" lon="-2.7299856"><ele>656.0</ele><time>2026-04-13T10:04:03.679Z</time></trkpt><trkpt lat="38.2217463" lon="-2.7299708"><ele>655.6666666666666</ele><time>2026-04-13T10:04:04.679Z</time></trkpt><trkpt lat="38.2219025" lon="-2.7299282"><ele>655.3333333333334</ele><time>2026-04-13T10:04:05.679Z</time></trkpt><trkpt lat="38.2220589" lon="-2.7298732"><ele>655.0</ele><time>2026-04-13T10:04:06.679Z</time></trkpt><trkpt lat="38.2222172" lon="-2.7298142"><ele>655.0</ele><time>2026-04-13T10:04:07.679Z</time></trkpt><trkpt lat="38.2223759" lon="-2.7297525"><ele>655.0</ele><time>2026-04-13T10:04:08.679Z</time></trkpt><trkpt lat="38.2225294" lon="-2.7296909"><ele>655.0</ele><time>2026-04-13T10:04:09.679Z</time></trkpt><trkpt lat="38.2226773" lon="-2.729635"><ele>655.0</ele><time>2026-04-13T10:04:10.679Z</time></trkpt><trkpt lat="38.2228285" lon="-2.7295952"><ele>655.0</ele><time>2026-04-13T10:04:11.679Z</time></trkpt><trkpt lat="38.2229833" lon="-2.7295899"><ele>655.0</ele><time>2026-04-13T10:04:12.679Z</time></trkpt><trkpt lat="38.2231333" lon="-2.7296095"><ele>654.6666666666667</ele><time>2026-04-13T10:04:13.679Z</time></trkpt><trkpt lat="38.223281" lon="-2.7296353"><ele>654.3333333333334</ele><time>2026-04-13T10:04:14.679Z</time></trkpt><trkpt lat="38.2234309" lon="-2.729657"><ele>654.0</ele><time>2026-04-13T10:04:15.679Z</time></trkpt><trkpt lat="38.2235814" lon="-2.7296631"><ele>654.0</ele><time>2026-04-13T10:04:16.679Z</time></trkpt><trkpt lat="38.2237344" lon="-2.7296457"><ele>654.0</ele><time>2026-04-13T10:04:17.679Z</time></trkpt><trkpt lat="38.2238931" lon="-2.7296168"><ele>654.0</ele><time>2026-04-13T10:04:18.679Z</time></trkpt><trkpt lat="38.2240516" lon="-2.7295802"><ele>654.6666666666666</ele><time>2026-04-13T10:04:19.679Z</time></trkpt><trkpt lat="38.2242078" lon="-2.7295413"><ele>655.3333333333333</ele><time>2026-04-13T10:04:20.679Z</time></trkpt><trkpt lat="38.2243568" lon="-2.7294887"><ele>656.0</ele><time>2026-04-13T10:04:21.679Z</time></trkpt><trkpt lat="38.2244959" lon="-2.7294068"><ele>658.0</ele><time>2026-04-13T10:04:22.679Z</time></trkpt><trkpt lat="38.2246375" lon="-2.7293033"><ele>660.0</ele><time>2026-04-13T10:04:23.679Z</time></trkpt><trkpt lat="38.2247778" lon="-2.7292005"><ele>662.0</ele><time>2026-04-13T10:04:24.679Z</time></trkpt><trkpt lat="38.2249148" lon="-2.7290991"><ele>662.0</ele><time>2026-04-13T10:04:25.68Z</time></trkpt><trkpt lat="38.2250579" lon="-2.7289962"><ele>662.0</ele><time>2026-04-13T10:04:26.679Z</time></trkpt><trkpt lat="38.2252009" lon="-2.7288949"><ele>662.0</ele><time>2026-04-13T10:04:27.679Z</time></trkpt><trkpt lat="38.2253496" lon="-2.7287896"><ele>662.0</ele><time>2026-04-13T10:04:28.679Z</time></trkpt><trkpt lat="38.2254962" lon="-2.728685"><ele>662.0</ele><time>2026-04-13T10:04:29.679Z</time></trkpt><trkpt lat="38.2256411" lon="-2.7285789"><ele>662.0</ele><time>2026-04-13T10:04:30.679Z</time></trkpt><trkpt lat="38.2257918" lon="-2.728473"><ele>664.0</ele><time>2026-04-13T10:04:31.679Z</time></trkpt><trkpt lat="38.2259456" lon="-2.7283624"><ele>666.0</ele><time>2026-04-13T10:04:32.679Z</time></trkpt><trkpt lat="38.2260999" lon="-2.7282445"><ele>668.0</ele><time>2026-04-13T10:04:33.679Z</time></trkpt><trkpt lat="38.2262526" lon="-2.7281311"><ele>668.0</ele><time>2026-04-13T10:04:34.679Z</time></trkpt><trkpt lat="38.2264029" lon="-2.7280181"><ele>668.0</ele><time>2026-04-13T10:04:35.679Z</time></trkpt><trkpt lat="38.2265506" lon="-2.727905"><ele>668.0</ele><time>2026-04-13T10:04:36.679Z</time></trkpt><trkpt lat="38.2266962" lon="-2.7277978"><ele>669.0</ele><time>2026-04-13T10:04:37.679Z</time></trkpt><trkpt lat="38.2268416" lon="-2.7277008"><ele>670.0</ele><time>2026-04-13T10:04:38.679Z</time></trkpt><trkpt lat="38.2269971" lon="-2.7276323"><ele>671.0</ele><time>2026-04-13T10:04:39.679Z</time></trkpt><trkpt lat="38.2271609" lon="-2.7275879"><ele>669.3333333333333</ele><time>2026-04-13T10:04:40.679Z</time></trkpt><trkpt lat="38.2273255" lon="-2.7275553"><ele>667.6666666666666</ele><time>2026-04-13T10:04:41.679Z</time></trkpt><trkpt lat="38.2274907" lon="-2.7275195"><ele>666.0</ele><time>2026-04-13T10:04:42.679Z</time></trkpt><trkpt lat="38.2276535" lon="-2.7274854"><ele>666.0</ele><time>2026-04-13T10:04:43.68Z</time></trkpt><trkpt lat="38.227813" lon="-2.7274462"><ele>666.0</ele><time>2026-04-13T10:04:44.679Z</time></trkpt><trkpt lat="38.2279678" lon="-2.7273929"><ele>666.0</ele><time>2026-04-13T10:04:45.679Z</time></trkpt><trkpt lat="38.2281109" lon="-2.7273156"><ele>666.3333333333334</ele><time>2026-04-13T10:04:46.679Z</time></trkpt><trkpt lat="38.2282486" lon="-2.7272113"><ele>666.6666666666667</ele><time>2026-04-13T10:04:47.679Z</time></trkpt><trkpt lat="38.2283819" lon="-2.7270955"><ele>667.0</ele><time>2026-04-13T10:04:48.679Z</time></trkpt><trkpt lat="38.2285245" lon="-2.72697"><ele>671.6666666666667</ele><time>2026-04-13T10:04:49.679Z</time></trkpt><trkpt lat="38.2286639" lon="-2.726844"><ele>676.3333333333334</ele><time>2026-04-13T10:04:50.679Z</time></trkpt><trkpt lat="38.2287969" lon="-2.7267265"><ele>681.0</ele><time>2026-04-13T10:04:51.679Z</time></trkpt><trkpt lat="38.2289237" lon="-2.726617"><ele>678.75</ele><time>2026-04-13T10:04:52.679Z</time></trkpt><trkpt lat="38.2290445" lon="-2.726513"><ele>676.5</ele><time>2026-04-13T10:04:53.679Z</time></trkpt><trkpt lat="38.2291624" lon="-2.7264063"><ele>674.25</ele><time>2026-04-13T10:04:54.679Z</time></trkpt><trkpt lat="38.2292747" lon="-2.7263005"><ele>672.0</ele><time>2026-04-13T10:04:55.679Z</time></trkpt><trkpt lat="38.2293759" lon="-2.7261859"><ele>674.0</ele><time>2026-04-13T10:04:56.679Z</time></trkpt><trkpt lat="38.2294569" lon="-2.7260559"><ele>676.0</ele><time>2026-04-13T10:04:57.679Z</time></trkpt><trkpt lat="38.2295224" lon="-2.7259142"><ele>678.0</ele><time>2026-04-13T10:04:58.679Z</time></trkpt><trkpt lat="38.2295731" lon="-2.7257665"><ele>680.0</ele><time>2026-04-13T10:04:59.679Z</time></trkpt><trkpt lat="38.2296338" lon="-2.7256302"><ele>680.0</ele><time>2026-04-13T10:05:00.679Z</time></trkpt><trkpt lat="38.2297119" lon="-2.7255111"><ele>680.0</ele><time>2026-04-13T10:05:01.679Z</time></trkpt><trkpt lat="38.2298066" lon="-2.7254101"><ele>680.0</ele><time>2026-04-13T10:05:02.679Z</time></trkpt><trkpt lat="38.2299144" lon="-2.7253207"><ele>680.0</ele><time>2026-04-13T10:05:03.679Z</time></trkpt><trkpt lat="38.2300273" lon="-2.7252308"><ele>678.75</ele><time>2026-04-13T10:05:04.679Z</time></trkpt><trkpt lat="38.2301441" lon="-2.7251435"><ele>677.5</ele><time>2026-04-13T10:05:05.679Z</time></trkpt><trkpt lat="38.2302611" lon="-2.7250523"><ele>676.25</ele><time>2026-04-13T10:05:06.679Z</time></trkpt><trkpt lat="38.2303729" lon="-2.7249712"><ele>675.0</ele><time>2026-04-13T10:05:07.679Z</time></trkpt><trkpt lat="38.230478" lon="-2.7248838"><ele>675.0</ele><time>2026-04-13T10:05:08.679Z</time></trkpt><trkpt lat="38.2305653" lon="-2.7248047"><ele>675.0</ele><time>2026-04-13T10:05:09.679Z</time></trkpt><trkpt lat="38.2306338" lon="-2.7247321"><ele>675.0</ele><time>2026-04-13T10:05:10.68Z</time></trkpt><trkpt lat="38.2307105" lon="-2.7246783"><ele>675.0</ele><time>2026-04-13T10:05:12.679Z</time></trkpt><trkpt lat="38.2307921" lon="-2.7246739"><ele>675.0</ele><time>2026-04-13T10:05:16.679Z</time></trkpt><trkpt lat="38.2308707" lon="-2.7247358"><ele>675.2</ele><time>2026-04-13T10:05:18.679Z</time></trkpt><trkpt lat="38.2309319" lon="-2.7248292"><ele>675.4</ele><time>2026-04-13T10:05:19.679Z</time></trkpt><trkpt lat="38.230987" lon="-2.7249188"><ele>675.5999999999999</ele><time>2026-04-13T10:05:20.679Z</time></trkpt><trkpt lat="38.2310452" lon="-2.7250136"><ele>675.8</ele><time>2026-04-13T10:05:21.679Z</time></trkpt><trkpt lat="38.2311092" lon="-2.7251243"><ele>676.0</ele><time>2026-04-13T10:05:22.679Z</time></trkpt><trkpt lat="38.2311816" lon="-2.7252394"><ele>676.0</ele><time>2026-04-13T10:05:23.679Z</time></trkpt><trkpt lat="38.2312639" lon="-2.725368"><ele>676.0</ele><time>2026-04-13T10:05:24.679Z</time></trkpt><trkpt lat="38.2313448" lon="-2.7254978"><ele>676.0</ele><time>2026-04-13T10:05:25.679Z</time></trkpt><trkpt lat="38.2314266" lon="-2.7256304"><ele>676.0</ele><time>2026-04-13T10:05:26.679Z</time></trkpt><trkpt lat="38.2315111" lon="-2.7257703"><ele>677.3333333333334</ele><time>2026-04-13T10:05:27.679Z</time></trkpt><trkpt lat="38.2315981" lon="-2.7259158"><ele>678.6666666666666</ele><time>2026-04-13T10:05:28.679Z</time></trkpt><trkpt lat="38.2316935" lon="-2.7260693"><ele>680.0</ele><time>2026-04-13T10:05:29.679Z</time></trkpt><trkpt lat="38.2317884" lon="-2.7262272"><ele>680.0</ele><time>2026-04-13T10:05:30.679Z</time></trkpt><trkpt lat="38.231889" lon="-2.7263906"><ele>680.0</ele><time>2026-04-13T10:05:31.679Z</time></trkpt><trkpt lat="38.2319931" lon="-2.7265618"><ele>680.0</ele><time>2026-04-13T10:05:32.679Z</time></trkpt><trkpt lat="38.2320998" lon="-2.7267315"><ele>680.0</ele><time>2026-04-13T10:05:33.679Z</time></trkpt><trkpt lat="38.2322121" lon="-2.726894"><ele>680.0</ele><time>2026-04-13T10:05:34.679Z</time></trkpt><trkpt lat="38.2323382" lon="-2.7270412"><ele>680.0</ele><time>2026-04-13T10:05:35.679Z</time></trkpt><trkpt lat="38.2324769" lon="-2.7271756"><ele>680.0</ele><time>2026-04-13T10:05:36.679Z</time></trkpt><trkpt lat="38.2326207" lon="-2.7273109"><ele>680.0</ele><time>2026-04-13T10:05:37.679Z</time></trkpt><trkpt lat="38.2327662" lon="-2.7274417"><ele>680.0</ele><time>2026-04-13T10:05:38.679Z</time></trkpt><trkpt lat="38.2329132" lon="-2.7275692"><ele>680.0</ele><time>2026-04-13T10:05:39.679Z</time></trkpt><trkpt lat="38.2330598" lon="-2.7276962"><ele>680.0</ele><time>2026-04-13T10:05:40.679Z</time></trkpt><trkpt lat="38.2332034" lon="-2.727823"><ele>680.0</ele><time>2026-04-13T10:05:41.679Z</time></trkpt><trkpt lat="38.2333453" lon="-2.7279458"><ele>682.0</ele><time>2026-04-13T10:05:42.679Z</time></trkpt><trkpt lat="38.2334904" lon="-2.7280571"><ele>684.0</ele><time>2026-04-13T10:05:43.679Z</time></trkpt><trkpt lat="38.2336405" lon="-2.7281414"><ele>686.0</ele><time>2026-04-13T10:05:44.68Z</time></trkpt><trkpt lat="38.2337982" lon="-2.7282115"><ele>686.0</ele><time>2026-04-13T10:05:45.679Z</time></trkpt><trkpt lat="38.2339665" lon="-2.7282642"><ele>686.0</ele><time>2026-04-13T10:05:46.679Z</time></trkpt><trkpt lat="38.2341409" lon="-2.7282961"><ele>686.0</ele><time>2026-04-13T10:05:47.679Z</time></trkpt><trkpt lat="38.2343198" lon="-2.7283037"><ele>686.3333333333333</ele><time>2026-04-13T10:05:48.679Z</time></trkpt><trkpt lat="38.2344997" lon="-2.7282916"><ele>686.6666666666666</ele><time>2026-04-13T10:05:49.679Z</time></trkpt><trkpt lat="38.2346813" lon="-2.7282717"><ele>687.0</ele><time>2026-04-13T10:05:50.679Z</time></trkpt><trkpt lat="38.2348655" lon="-2.7282533"><ele>687.6666666666666</ele><time>2026-04-13T10:05:51.679Z</time></trkpt><trkpt lat="38.2350479" lon="-2.7282338"><ele>688.3333333333333</ele><time>2026-04-13T10:05:52.679Z</time></trkpt><trkpt lat="38.2352314" lon="-2.7282191"><ele>689.0</ele><time>2026-04-13T10:05:53.679Z</time></trkpt><trkpt lat="38.2354196" lon="-2.7282359"><ele>689.0</ele><time>2026-04-13T10:05:54.679Z</time></trkpt><trkpt lat="38.2355921" lon="-2.7282937"><ele>689.0</ele><time>2026-04-13T10:05:55.679Z</time></trkpt><trkpt lat="38.2357624" lon="-2.7283665"><ele>689.0</ele><time>2026-04-13T10:05:56.679Z</time></trkpt><trkpt lat="38.2359278" lon="-2.7284392"><ele>689.3333333333333</ele><time>2026-04-13T10:05:57.679Z</time></trkpt><trkpt lat="38.2360986" lon="-2.7284904"><ele>689.6666666666666</ele><time>2026-04-13T10:05:58.679Z</time></trkpt><trkpt lat="38.2362676" lon="-2.7285131"><ele>690.0</ele><time>2026-04-13T10:05:59.679Z</time></trkpt><trkpt lat="38.2364337" lon="-2.7285195"><ele>690.6666666666666</ele><time>2026-04-13T10:06:00.679Z</time></trkpt><trkpt lat="38.2365943" lon="-2.7285366"><ele>691.3333333333333</ele><time>2026-04-13T10:06:01.679Z</time></trkpt><trkpt lat="38.2367511" lon="-2.7285877"><ele>692.0</ele><time>2026-04-13T10:06:02.679Z</time></trkpt><trkpt lat="38.2369068" lon="-2.7286612"><ele>692.0</ele><time>2026-04-13T10:06:03.679Z</time></trkpt><trkpt lat="38.2370373" lon="-2.7287448"><ele>692.0</ele><time>2026-04-13T10:06:04.68Z</time></trkpt><trkpt lat="38.2371642" lon="-2.7287999"><ele>692.0</ele><time>2026-04-13T10:06:05.679Z</time></trkpt><trkpt lat="38.2372956" lon="-2.7288112"><ele>692.0</ele><time>2026-04-13T10:06:06.679Z</time></trkpt><trkpt lat="38.2374237" lon="-2.7287799"><ele>693.0</ele><time>2026-04-13T10:06:07.679Z</time></trkpt><trkpt lat="38.2375393" lon="-2.7287216"><ele>694.0</ele><time>2026-04-13T10:06:08.679Z</time></trkpt><trkpt lat="38.2376551" lon="-2.7286517"><ele>695.0</ele><time>2026-04-13T10:06:09.679Z</time></trkpt><trkpt lat="38.2377744" lon="-2.7285793"><ele>696.0</ele><time>2026-04-13T10:06:10.679Z</time></trkpt><trkpt lat="38.2378962" lon="-2.728507"><ele>697.75</ele><time>2026-04-13T10:06:11.679Z</time></trkpt><trkpt lat="38.238023" lon="-2.7284422"><ele>699.5</ele><time>2026-04-13T10:06:12.68Z</time></trkpt><trkpt lat="38.2381573" lon="-2.7283794"><ele>701.25</ele><time>2026-04-13T10:06:13.68Z</time></trkpt><trkpt lat="38.2382971" lon="-2.7283254"><ele>703.0</ele><time>2026-04-13T10:06:14.679Z</time></trkpt><trkpt lat="38.2384407" lon="-2.7282792"><ele>703.0</ele><time>2026-04-13T10:06:15.679Z</time></trkpt><trkpt lat="38.2385896" lon="-2.7282431"><ele>703.0</ele><time>2026-04-13T10:06:16.679Z</time></trkpt><trkpt lat="38.2387442" lon="-2.728205"><ele>703.0</ele><time>2026-04-13T10:06:17.679Z</time></trkpt><trkpt lat="38.2388974" lon="-2.7281719"><ele>704.0</ele><time>2026-04-13T10:06:18.679Z</time></trkpt><trkpt lat="38.2390519" lon="-2.7281326"><ele>705.0</ele><time>2026-04-13T10:06:19.679Z</time></trkpt><trkpt lat="38.2392099" lon="-2.7280939"><ele>706.0</ele><time>2026-04-13T10:06:20.679Z</time></trkpt><trkpt lat="38.2393681" lon="-2.728061"><ele>706.0</ele><time>2026-04-13T10:06:21.679Z</time></trkpt><trkpt lat="38.239532" lon="-2.7280487"><ele>706.0</ele><time>2026-04-13T10:06:22.679Z</time></trkpt><trkpt lat="38.2396907" lon="-2.7280695"><ele>706.0</ele><time>2026-04-13T10:06:23.679Z</time></trkpt><trkpt lat="38.2398482" lon="-2.7281066"><ele>708.0</ele><time>2026-04-13T10:06:24.679Z</time></trkpt><trkpt lat="38.240002" lon="-2.7281432"><ele>710.0</ele><time>2026-04-13T10:06:25.679Z</time></trkpt><trkpt lat="38.24015" lon="-2.7281752"><ele>712.0</ele><time>2026-04-13T10:06:26.679Z</time></trkpt><trkpt lat="38.2402793" lon="-2.7282071"><ele>714.0</ele><time>2026-04-13T10:06:27.679Z</time></trkpt><trkpt lat="38.240393" lon="-2.7282639"><ele>714.0</ele><time>2026-04-13T10:06:28.679Z</time></trkpt><trkpt lat="38.2404938" lon="-2.728342"><ele>714.0</ele><time>2026-04-13T10:06:29.68Z</time></trkpt><trkpt lat="38.2405711" lon="-2.7284402"><ele>714.0</ele><time>2026-04-13T10:06:30.679Z</time></trkpt><trkpt lat="38.2406141" lon="-2.7286238"><ele>714.0</ele><time>2026-04-13T10:06:31.679Z</time></trkpt><trkpt lat="38.2406393" lon="-2.7287831"><ele>717.5</ele><time>2026-04-13T10:06:32.679Z</time></trkpt><trkpt lat="38.2406554" lon="-2.7289484"><ele>721.0</ele><time>2026-04-13T10:06:33.679Z</time></trkpt><trkpt lat="38.2406845" lon="-2.7290918"><ele>724.5</ele><time>2026-04-13T10:06:34.679Z</time></trkpt><trkpt lat="38.2407409" lon="-2.7292237"><ele>728.0</ele><time>2026-04-13T10:06:35.679Z</time></trkpt><trkpt lat="38.240819" lon="-2.7293284"><ele>725.0</ele><time>2026-04-13T10:06:36.679Z</time></trkpt><trkpt lat="38.2409204" lon="-2.7294072"><ele>722.0</ele><time>2026-04-13T10:06:37.679Z</time></trkpt><trkpt lat="38.2410339" lon="-2.7294379"><ele>719.0</ele><time>2026-04-13T10:06:38.679Z</time></trkpt><trkpt lat="38.2411502" lon="-2.7294337"><ele>716.0</ele><time>2026-04-13T10:06:39.679Z</time></trkpt><trkpt lat="38.2412613" lon="-2.7294094"><ele>719.0</ele><time>2026-04-13T10:06:40.679Z</time></trkpt><trkpt lat="38.2413775" lon="-2.7293746"><ele>722.0</ele><time>2026-04-13T10:06:41.679Z</time></trkpt><trkpt lat="38.2414937" lon="-2.7293438"><ele>725.0</ele><time>2026-04-13T10:06:42.68Z</time></trkpt><trkpt lat="38.2416126" lon="-2.7293126"><ele>728.0</ele><time>2026-04-13T10:06:43.679Z</time></trkpt><trkpt lat="38.2417316" lon="-2.7292786"><ele>730.0</ele><time>2026-04-13T10:06:44.679Z</time></trkpt><trkpt lat="38.241854" lon="-2.729232"><ele>732.0</ele><time>2026-04-13T10:06:45.679Z</time></trkpt><trkpt lat="38.2419648" lon="-2.7291595"><ele>734.0</ele><time>2026-04-13T10:06:46.679Z</time></trkpt><trkpt lat="38.242061" lon="-2.7290534"><ele>736.0</ele><time>2026-04-13T10:06:47.679Z</time></trkpt><trkpt lat="38.242123" lon="-2.7289186"><ele>736.0</ele><time>2026-04-13T10:06:48.679Z</time></trkpt><trkpt lat="38.2421627" lon="-2.728761"><ele>736.0</ele><time>2026-04-13T10:06:49.679Z</time></trkpt><trkpt lat="38.2421978" lon="-2.728604"><ele>736.0</ele><time>2026-04-13T10:06:50.679Z</time></trkpt><trkpt lat="38.2422298" lon="-2.7284486"><ele>736.0</ele><time>2026-04-13T10:06:51.679Z</time></trkpt><trkpt lat="38.2422665" lon="-2.7283025"><ele>738.0</ele><time>2026-04-13T10:06:52.679Z</time></trkpt><trkpt lat="38.2423144" lon="-2.7281688"><ele>740.0</ele><time>2026-04-13T10:06:53.679Z</time></trkpt><trkpt lat="38.242384" lon="-2.7280527"><ele>742.0</ele><time>2026-04-13T10:06:54.679Z</time></trkpt><trkpt lat="38.2424687" lon="-2.7279567"><ele>744.0</ele><time>2026-04-13T10:06:55.679Z</time></trkpt><trkpt lat="38.2425708" lon="-2.7278929"><ele>744.0</ele><time>2026-04-13T10:06:56.68Z</time></trkpt><trkpt lat="38.2426802" lon="-2.7278611"><ele>744.0</ele><time>2026-04-13T10:06:57.679Z</time></trkpt><trkpt lat="38.2427883" lon="-2.7278569"><ele>744.0</ele><time>2026-04-13T10:06:58.679Z</time></trkpt><trkpt lat="38.2429" lon="-2.7278589"><ele>744.0</ele><time>2026-04-13T10:06:59.679Z</time></trkpt><trkpt lat="38.2430051" lon="-2.7278604"><ele>744.0</ele><time>2026-04-13T10:07:00.679Z</time></trkpt><trkpt lat="38.2431051" lon="-2.7278599"><ele>744.6666666666666</ele><time>2026-04-13T10:07:01.679Z</time></trkpt><trkpt lat="38.2431911" lon="-2.7278582"><ele>745.3333333333334</ele><time>2026-04-13T10:07:02.679Z</time></trkpt><trkpt lat="38.24326" lon="-2.727859"><ele>746.0</ele><time>2026-04-13T10:07:03.679Z</time></trkpt><trkpt lat="38.2433769" lon="-2.7278594"><ele>746.6666666666667</ele><time>2026-04-13T10:07:05.679Z</time></trkpt><trkpt lat="38.2434451" lon="-2.7278548"><ele>747.3333333333334</ele><time>2026-04-13T10:07:06.679Z</time></trkpt><trkpt lat="38.2435205" lon="-2.7278372"><ele>748.0</ele><time>2026-04-13T10:07:07.679Z</time></trkpt><trkpt lat="38.2435962" lon="-2.7278184"><ele>748.0</ele><time>2026-04-13T10:07:08.679Z</time></trkpt><trkpt lat="38.2436793" lon="-2.7277852"><ele>748.0</ele><time>2026-04-13T10:07:09.679Z</time></trkpt><trkpt lat="38.2437641" lon="-2.7277505"><ele>748.0</ele><time>2026-04-13T10:07:10.679Z</time></trkpt><trkpt lat="38.243848" lon="-2.7277157"><ele>748.0</ele><time>2026-04-13T10:07:11.679Z</time></trkpt><trkpt lat="38.2439246" lon="-2.7276839"><ele>748.0</ele><time>2026-04-13T10:07:12.679Z</time></trkpt><trkpt lat="38.2439906" lon="-2.7276576"><ele>748.0</ele><time>2026-04-13T10:07:13.679Z</time></trkpt><trkpt lat="38.2440552" lon="-2.727633"><ele>748.8</ele><time>2026-04-13T10:07:14.679Z</time></trkpt><trkpt lat="38.2441228" lon="-2.7276128"><ele>749.5999999999999</ele><time>2026-04-13T10:07:15.679Z</time></trkpt><trkpt lat="38.2442081" lon="-2.7275976"><ele>750.4000000000001</ele><time>2026-04-13T10:07:16.679Z</time></trkpt><trkpt lat="38.2443048" lon="-2.7275951"><ele>751.2</ele><time>2026-04-13T10:07:17.679Z</time></trkpt><trkpt lat="38.2444041" lon="-2.7275959"><ele>752.0</ele><time>2026-04-13T10:07:18.679Z</time></trkpt><trkpt lat="38.2445064" lon="-2.7275977"><ele>752.0</ele><time>2026-04-13T10:07:19.679Z</time></trkpt><trkpt lat="38.2446106" lon="-2.7276068"><ele>752.0</ele><time>2026-04-13T10:07:20.679Z</time></trkpt><trkpt lat="38.2447108" lon="-2.7276178"><ele>752.0</ele><time>2026-04-13T10:07:21.679Z</time></trkpt><trkpt lat="38.2448087" lon="-2.727631"><ele>752.0</ele><time>2026-04-13T10:07:22.679Z</time></trkpt><trkpt lat="38.244901" lon="-2.7276451"><ele>752.0</ele><time>2026-04-13T10:07:23.679Z</time></trkpt><trkpt lat="38.2449888" lon="-2.7276568"><ele>752.8</ele><time>2026-04-13T10:07:24.679Z</time></trkpt><trkpt lat="38.2450621" lon="-2.7276563"><ele>753.6</ele><time>2026-04-13T10:07:25.679Z</time></trkpt><trkpt lat="38.2451728" lon="-2.7276419"><ele>754.4</ele><time>2026-04-13T10:07:27.679Z</time></trkpt><trkpt lat="38.2452871" lon="-2.7275836"><ele>755.1999999999999</ele><time>2026-04-13T10:07:29.679Z</time></trkpt><trkpt lat="38.2453515" lon="-2.7275311"><ele>756.0</ele><time>2026-04-13T10:07:30.679Z</time></trkpt><trkpt lat="38.2454173" lon="-2.7274791"><ele>756.0</ele><time>2026-04-13T10:07:31.679Z</time></trkpt><trkpt lat="38.2454858" lon="-2.7274242"><ele>756.0</ele><time>2026-04-13T10:07:32.679Z</time></trkpt><trkpt lat="38.2455583" lon="-2.7273694"><ele>756.0</ele><time>2026-04-13T10:07:33.679Z</time></trkpt><trkpt lat="38.2456333" lon="-2.7273125"><ele>756.0</ele><time>2026-04-13T10:07:34.679Z</time></trkpt><trkpt lat="38.2457021" lon="-2.7272537"><ele>756.0</ele><time>2026-04-13T10:07:35.679Z</time></trkpt><trkpt lat="38.2457651" lon="-2.7271992"><ele>756.0</ele><time>2026-04-13T10:07:36.679Z</time></trkpt><trkpt lat="38.2458696" lon="-2.727121"><ele>756.3333333333334</ele><time>2026-04-13T10:07:38.679Z</time></trkpt><trkpt lat="38.2459668" lon="-2.7270468"><ele>756.6666666666666</ele><time>2026-04-13T10:07:40.679Z</time></trkpt><trkpt lat="38.2460253" lon="-2.7270003"><ele>757.0</ele><time>2026-04-13T10:07:41.679Z</time></trkpt><trkpt lat="38.2460865" lon="-2.7269601"><ele>757.3333333333333</ele><time>2026-04-13T10:07:42.679Z</time></trkpt><trkpt lat="38.2461523" lon="-2.726912"><ele>757.6666666666666</ele><time>2026-04-13T10:07:43.679Z</time></trkpt><trkpt lat="38.2462177" lon="-2.7268633"><ele>758.0</ele><time>2026-04-13T10:07:44.679Z</time></trkpt><trkpt lat="38.2462837" lon="-2.7268164"><ele>758.1666666666666</ele><time>2026-04-13T10:07:45.679Z</time></trkpt><trkpt lat="38.2463441" lon="-2.726756"><ele>758.3333333333333</ele><time>2026-04-13T10:07:46.679Z</time></trkpt><trkpt lat="38.2463859" lon="-2.7266772"><ele>758.5</ele><time>2026-04-13T10:07:47.679Z</time></trkpt><trkpt lat="38.2464256" lon="-2.7266027"><ele>758.6666666666666</ele><time>2026-04-13T10:07:48.679Z</time></trkpt><trkpt lat="38.2464894" lon="-2.7264916"><ele>758.8333333333334</ele><time>2026-04-13T10:07:50.679Z</time></trkpt><trkpt lat="38.2465465" lon="-2.7263909"><ele>759.0</ele><time>2026-04-13T10:07:52.679Z</time></trkpt><trkpt lat="38.246621" lon="-2.7262597"><ele>759.0</ele><time>2026-04-13T10:07:54.679Z</time></trkpt><trkpt lat="38.2466603" lon="-2.7261914"><ele>759.0</ele><time>2026-04-13T10:07:55.679Z</time></trkpt><trkpt lat="38.2467019" lon="-2.7261237"><ele>759.0</ele><time>2026-04-13T10:07:56.679Z</time></trkpt><trkpt lat="38.246775" lon="-2.7260285"><ele>759.0</ele><time>2026-04-13T10:07:58.679Z</time></trkpt><trkpt lat="38.2468432" lon="-2.7259511"><ele>759.0</ele><time>2026-04-13T10:08:00.679Z</time></trkpt><trkpt lat="38.246916" lon="-2.725863"><ele>759.0</ele><time>2026-04-13T10:08:02.679Z</time></trkpt><trkpt lat="38.2469861" lon="-2.7257605"><ele>759.1666666666666</ele><time>2026-04-13T10:08:04.679Z</time></trkpt><trkpt lat="38.2470807" lon="-2.7257057"><ele>759.3333333333334</ele><time>2026-04-13T10:08:06.679Z</time></trkpt><trkpt lat="38.2471605" lon="-2.7256661"><ele>759.5</ele><time>2026-04-13T10:08:08.679Z</time></trkpt><trkpt lat="38.2472274" lon="-2.7256465"><ele>759.6666666666667</ele><time>2026-04-13T10:08:25.679Z</time></trkpt><trkpt lat="38.2472971" lon="-2.725657"><ele>759.8333333333334</ele><time>2026-04-13T10:08:27.68Z</time></trkpt><trkpt lat="38.2473678" lon="-2.7256758"><ele>760.0</ele><time>2026-04-13T10:08:29.679Z</time></trkpt><trkpt lat="38.2474509" lon="-2.7256892"><ele>759.6666666666667</ele><time>2026-04-13T10:08:31.679Z</time></trkpt><trkpt lat="38.2475345" lon="-2.7256878"><ele>759.3333333333334</ele><time>2026-04-13T10:08:33.679Z</time></trkpt><trkpt lat="38.2476146" lon="-2.7256736"><ele>759.0</ele><time>2026-04-13T10:08:35.679Z</time></trkpt><trkpt lat="38.2476794" lon="-2.7256702"><ele>758.6666666666666</ele><time>2026-04-13T10:08:37.679Z</time></trkpt><trkpt lat="38.247775" lon="-2.7256739"><ele>758.3333333333333</ele><time>2026-04-13T10:08:40.679Z</time></trkpt><trkpt lat="38.2478987" lon="-2.7256593"><ele>758.0</ele><time>2026-04-13T10:08:42.679Z</time></trkpt><trkpt lat="38.2479714" lon="-2.7256346"><ele>758.0</ele><time>2026-04-13T10:08:43.679Z</time></trkpt><trkpt lat="38.248044" lon="-2.7256058"><ele>758.0</ele><time>2026-04-13T10:08:44.68Z</time></trkpt><trkpt lat="38.2481157" lon="-2.7255729"><ele>758.0</ele><time>2026-04-13T10:08:45.679Z</time></trkpt><trkpt lat="38.248196" lon="-2.7255432"><ele>758.0</ele><time>2026-04-13T10:08:46.679Z</time></trkpt><trkpt lat="38.2482745" lon="-2.7255122"><ele>758.0</ele><time>2026-04-13T10:08:47.679Z</time></trkpt><trkpt lat="38.2483449" lon="-2.7254827"><ele>758.0</ele><time>2026-04-13T10:08:48.679Z</time></trkpt><trkpt lat="38.2484444" lon="-2.7254399"><ele>757.5</ele><time>2026-04-13T10:08:50.679Z</time></trkpt><trkpt lat="38.2485477" lon="-2.7254098"><ele>757.0</ele><time>2026-04-13T10:08:52.679Z</time></trkpt><trkpt lat="38.2486146" lon="-2.7253934"><ele>756.5</ele><time>2026-04-13T10:08:53.679Z</time></trkpt><trkpt lat="38.2486853" lon="-2.7253805"><ele>756.0</ele><time>2026-04-13T10:08:54.679Z</time></trkpt><trkpt lat="38.2487543" lon="-2.7253689"><ele>755.5</ele><time>2026-04-13T10:08:55.68Z</time></trkpt><trkpt lat="38.2488292" lon="-2.7253702"><ele>755.0</ele><time>2026-04-13T10:08:56.679Z</time></trkpt><trkpt lat="38.2489075" lon="-2.7253802"><ele>754.8333333333333</ele><time>2026-04-13T10:08:57.679Z</time></trkpt><trkpt lat="38.2489902" lon="-2.7253958"><ele>754.6666666666666</ele><time>2026-04-13T10:08:58.68Z</time></trkpt><trkpt lat="38.2490767" lon="-2.7254124"><ele>754.5</ele><time>2026-04-13T10:08:59.679Z</time></trkpt><trkpt lat="38.2491659" lon="-2.72542"><ele>754.3333333333334</ele><time>2026-04-13T10:09:00.679Z</time></trkpt><trkpt lat="38.2492479" lon="-2.7254215"><ele>754.1666666666667</ele><time>2026-04-13T10:09:01.679Z</time></trkpt><trkpt lat="38.2493264" lon="-2.725412"><ele>754.0</ele><time>2026-04-13T10:09:02.679Z</time></trkpt><trkpt lat="38.2493913" lon="-2.7253977"><ele>754.0</ele><time>2026-04-13T10:09:03.679Z</time></trkpt><trkpt lat="38.2495035" lon="-2.7253612"><ele>754.0</ele><time>2026-04-13T10:09:05.679Z</time></trkpt><trkpt lat="38.2495666" lon="-2.7253386"><ele>754.0</ele><time>2026-04-13T10:09:06.679Z</time></trkpt><trkpt lat="38.24964" lon="-2.725312"><ele>754.0</ele><time>2026-04-13T10:09:07.679Z</time></trkpt><trkpt lat="38.2497208" lon="-2.725282"><ele>754.0</ele><time>2026-04-13T10:09:08.679Z</time></trkpt><trkpt lat="38.2498074" lon="-2.7252469"><ele>754.0</ele><time>2026-04-13T10:09:09.679Z</time></trkpt><trkpt lat="38.2498956" lon="-2.7252105"><ele>754.4000000000001</ele><time>2026-04-13T10:09:10.679Z</time></trkpt><trkpt lat="38.2499848" lon="-2.7251724"><ele>754.8</ele><time>2026-04-13T10:09:11.679Z</time></trkpt><trkpt lat="38.2500715" lon="-2.7251355"><ele>755.2</ele><time>2026-04-13T10:09:12.679Z</time></trkpt><trkpt lat="38.2501571" lon="-2.7250993"><ele>755.5999999999999</ele><time>2026-04-13T10:09:13.679Z</time></trkpt><trkpt lat="38.2502296" lon="-2.7250675"><ele>756.0</ele><time>2026-04-13T10:09:14.679Z</time></trkpt><trkpt lat="38.2503365" lon="-2.7250187"><ele>756.0</ele><time>2026-04-13T10:09:16.68Z</time></trkpt><trkpt lat="38.2504616" lon="-2.7249562"><ele>756.0</ele><time>2026-04-13T10:09:18.679Z</time></trkpt><trkpt lat="38.2505385" lon="-2.7249166"><ele>756.0</ele><time>2026-04-13T10:09:19.679Z</time></trkpt><trkpt lat="38.2506259" lon="-2.7248724"><ele>756.0</ele><time>2026-04-13T10:09:20.679Z</time></trkpt><trkpt lat="38.2507219" lon="-2.7248232"><ele>756.0</ele><time>2026-04-13T10:09:21.679Z</time></trkpt><trkpt lat="38.2508237" lon="-2.7247698"><ele>755.25</ele><time>2026-04-13T10:09:22.679Z</time></trkpt><trkpt lat="38.2509296" lon="-2.7247142"><ele>754.5</ele><time>2026-04-13T10:09:23.679Z</time></trkpt><trkpt lat="38.251036" lon="-2.7246564"><ele>753.75</ele><time>2026-04-13T10:09:24.679Z</time></trkpt><trkpt lat="38.2511432" lon="-2.7245975"><ele>753.0</ele><time>2026-04-13T10:09:25.679Z</time></trkpt><trkpt lat="38.2512499" lon="-2.7245402"><ele>753.0</ele><time>2026-04-13T10:09:26.679Z</time></trkpt><trkpt lat="38.2513585" lon="-2.7244834"><ele>753.0</ele><time>2026-04-13T10:09:27.679Z</time></trkpt><trkpt lat="38.2514674" lon="-2.724428"><ele>753.0</ele><time>2026-04-13T10:09:28.679Z</time></trkpt><trkpt lat="38.251576" lon="-2.7243709"><ele>753.0</ele><time>2026-04-13T10:09:29.679Z</time></trkpt><trkpt lat="38.2516781" lon="-2.7243175"><ele>752.5999999999999</ele><time>2026-04-13T10:09:30.679Z</time></trkpt><trkpt lat="38.2517721" lon="-2.7242701"><ele>752.1999999999999</ele><time>2026-04-13T10:09:31.679Z</time></trkpt><trkpt lat="38.2518461" lon="-2.7242331"><ele>751.8</ele><time>2026-04-13T10:09:32.679Z</time></trkpt><trkpt lat="38.2519089" lon="-2.7242048"><ele>751.4</ele><time>2026-04-13T10:09:33.679Z</time></trkpt><trkpt lat="38.252032" lon="-2.7241498"><ele>751.0</ele><time>2026-04-13T10:09:35.679Z</time></trkpt><trkpt lat="38.2521116" lon="-2.7241146"><ele>751.0</ele><time>2026-04-13T10:09:36.679Z</time></trkpt><trkpt lat="38.2522031" lon="-2.7240737"><ele>751.0</ele><time>2026-04-13T10:09:37.679Z</time></trkpt><trkpt lat="38.2523073" lon="-2.7240273"><ele>751.0</ele><time>2026-04-13T10:09:38.679Z</time></trkpt><trkpt lat="38.2524251" lon="-2.7239774"><ele>751.0</ele><time>2026-04-13T10:09:39.679Z</time></trkpt><trkpt lat="38.2525558" lon="-2.7239253"><ele>750.0</ele><time>2026-04-13T10:09:40.679Z</time></trkpt><trkpt lat="38.2526934" lon="-2.7238721"><ele>749.0</ele><time>2026-04-13T10:09:41.679Z</time></trkpt><trkpt lat="38.2528398" lon="-2.723817"><ele>748.0</ele><time>2026-04-13T10:09:42.679Z</time></trkpt><trkpt lat="38.2529978" lon="-2.7237587"><ele>747.0</ele><time>2026-04-13T10:09:43.679Z</time></trkpt><trkpt lat="38.2531664" lon="-2.7236963"><ele>746.0</ele><time>2026-04-13T10:09:44.679Z</time></trkpt><trkpt lat="38.2533385" lon="-2.7236339"><ele>745.0</ele><time>2026-04-13T10:09:45.679Z</time></trkpt><trkpt lat="38.2535192" lon="-2.7235679"><ele>745.3333333333334</ele><time>2026-04-13T10:09:46.68Z</time></trkpt><trkpt lat="38.2537053" lon="-2.7235008"><ele>745.6666666666666</ele><time>2026-04-13T10:09:47.679Z</time></trkpt><trkpt lat="38.2539006" lon="-2.7234318"><ele>746.0</ele><time>2026-04-13T10:09:48.679Z</time></trkpt><trkpt lat="38.2541012" lon="-2.7233607"><ele>744.6666666666666</ele><time>2026-04-13T10:09:49.679Z</time></trkpt><trkpt lat="38.2543063" lon="-2.7232863"><ele>743.3333333333334</ele><time>2026-04-13T10:09:50.679Z</time></trkpt><trkpt lat="38.2545111" lon="-2.7232131"><ele>742.0</ele><time>2026-04-13T10:09:51.679Z</time></trkpt><trkpt lat="38.2547183" lon="-2.7231378"><ele>741.3333333333334</ele><time>2026-04-13T10:09:52.679Z</time></trkpt><trkpt lat="38.2549238" lon="-2.7230643"><ele>740.6666666666666</ele><time>2026-04-13T10:09:53.679Z</time></trkpt><trkpt lat="38.2551295" lon="-2.7229917"><ele>740.0</ele><time>2026-04-13T10:09:54.679Z</time></trkpt><trkpt lat="38.2553351" lon="-2.7229176"><ele>740.0</ele><time>2026-04-13T10:09:55.679Z</time></trkpt><trkpt lat="38.2555385" lon="-2.7228443"><ele>740.0</ele><time>2026-04-13T10:09:56.679Z</time></trkpt><trkpt lat="38.2557436" lon="-2.7227708"><ele>740.0</ele><time>2026-04-13T10:09:57.679Z</time></trkpt><trkpt lat="38.255948" lon="-2.7226962"><ele>740.0</ele><time>2026-04-13T10:09:58.679Z</time></trkpt><trkpt lat="38.2561507" lon="-2.7226234"><ele>740.0</ele><time>2026-04-13T10:09:59.679Z</time></trkpt><trkpt lat="38.2563518" lon="-2.7225524"><ele>740.0</ele><time>2026-04-13T10:10:00.679Z</time></trkpt><trkpt lat="38.2565505" lon="-2.7224835"><ele>740.0</ele><time>2026-04-13T10:10:01.679Z</time></trkpt><trkpt lat="38.2567508" lon="-2.7224137"><ele>740.0</ele><time>2026-04-13T10:10:02.679Z</time></trkpt><trkpt lat="38.2569502" lon="-2.7223348"><ele>740.0</ele><time>2026-04-13T10:10:03.679Z</time></trkpt><trkpt lat="38.2571454" lon="-2.7222431"><ele>743.0</ele><time>2026-04-13T10:10:04.679Z</time></trkpt><trkpt lat="38.2573326" lon="-2.7221353"><ele>746.0</ele><time>2026-04-13T10:10:05.679Z</time></trkpt><trkpt lat="38.2575115" lon="-2.7220207"><ele>749.0</ele><time>2026-04-13T10:10:06.679Z</time></trkpt><trkpt lat="38.2576833" lon="-2.7219058"><ele>749.6666666666666</ele><time>2026-04-13T10:10:07.679Z</time></trkpt><trkpt lat="38.2578477" lon="-2.7217958"><ele>750.3333333333334</ele><time>2026-04-13T10:10:08.679Z</time></trkpt><trkpt lat="38.258003" lon="-2.7216912"><ele>751.0</ele><time>2026-04-13T10:10:09.679Z</time></trkpt><trkpt lat="38.2581513" lon="-2.7215965"><ele>751.0</ele><time>2026-04-13T10:10:10.679Z</time></trkpt><trkpt lat="38.2583054" lon="-2.721522"><ele>751.0</ele><time>2026-04-13T10:10:11.679Z</time></trkpt><trkpt lat="38.2584708" lon="-2.7214751"><ele>751.0</ele><time>2026-04-13T10:10:12.679Z</time></trkpt><trkpt lat="38.2586447" lon="-2.7214401"><ele>751.0</ele><time>2026-04-13T10:10:13.679Z</time></trkpt><trkpt lat="38.2588188" lon="-2.7213936"><ele>751.0</ele><time>2026-04-13T10:10:14.679Z</time></trkpt><trkpt lat="38.2589888" lon="-2.7213312"><ele>751.0</ele><time>2026-04-13T10:10:15.679Z</time></trkpt><trkpt lat="38.2591486" lon="-2.7212539"><ele>751.0</ele><time>2026-04-13T10:10:16.679Z</time></trkpt><trkpt lat="38.2592921" lon="-2.7211707"><ele>751.0</ele><time>2026-04-13T10:10:17.679Z</time></trkpt><trkpt lat="38.259425" lon="-2.7210909"><ele>751.0</ele><time>2026-04-13T10:10:18.679Z</time></trkpt><trkpt lat="38.2595522" lon="-2.7210285"><ele>751.0</ele><time>2026-04-13T10:10:19.679Z</time></trkpt><trkpt lat="38.2596827" lon="-2.7209992"><ele>751.25</ele><time>2026-04-13T10:10:20.679Z</time></trkpt><trkpt lat="38.2598139" lon="-2.721008"><ele>751.5</ele><time>2026-04-13T10:10:21.679Z</time></trkpt><trkpt lat="38.2599427" lon="-2.7210415"><ele>751.75</ele><time>2026-04-13T10:10:22.679Z</time></trkpt><trkpt lat="38.2600716" lon="-2.7210823"><ele>752.0</ele><time>2026-04-13T10:10:23.679Z</time></trkpt><trkpt lat="38.2602096" lon="-2.7211153"><ele>752.0</ele><time>2026-04-13T10:10:24.679Z</time></trkpt><trkpt lat="38.26036" lon="-2.7211364"><ele>752.0</ele><time>2026-04-13T10:10:25.679Z</time></trkpt><trkpt lat="38.260516" lon="-2.7211373"><ele>752.0</ele><time>2026-04-13T10:10:26.679Z</time></trkpt><trkpt lat="38.2606738" lon="-2.7211276"><ele>751.0</ele><time>2026-04-13T10:10:27.679Z</time></trkpt><trkpt lat="38.2608334" lon="-2.7211114"><ele>750.0</ele><time>2026-04-13T10:10:28.679Z</time></trkpt><trkpt lat="38.2609958" lon="-2.7210948"><ele>749.0</ele><time>2026-04-13T10:10:29.679Z</time></trkpt><trkpt lat="38.261158" lon="-2.7210821"><ele>749.0</ele><time>2026-04-13T10:10:30.679Z</time></trkpt><trkpt lat="38.2613186" lon="-2.7210658"><ele>749.0</ele><time>2026-04-13T10:10:31.679Z</time></trkpt><trkpt lat="38.2614769" lon="-2.7210497"><ele>749.0</ele><time>2026-04-13T10:10:32.679Z</time></trkpt><trkpt lat="38.2616364" lon="-2.721032"><ele>745.3333333333333</ele><time>2026-04-13T10:10:33.679Z</time></trkpt><trkpt lat="38.2617951" lon="-2.7210151"><ele>741.6666666666666</ele><time>2026-04-13T10:10:34.679Z</time></trkpt><trkpt lat="38.2619527" lon="-2.720998"><ele>738.0</ele><time>2026-04-13T10:10:35.679Z</time></trkpt><trkpt lat="38.2621076" lon="-2.7209774"><ele>738.0</ele><time>2026-04-13T10:10:36.679Z</time></trkpt><trkpt lat="38.2622596" lon="-2.7209511"><ele>738.0</ele><time>2026-04-13T10:10:37.679Z</time></trkpt><trkpt lat="38.2624102" lon="-2.7209187"><ele>738.0</ele><time>2026-04-13T10:10:38.679Z</time></trkpt><trkpt lat="38.2625581" lon="-2.7208831"><ele>737.25</ele><time>2026-04-13T10:10:39.679Z</time></trkpt><trkpt lat="38.2627055" lon="-2.7208452"><ele>736.5</ele><time>2026-04-13T10:10:40.679Z</time></trkpt><trkpt lat="38.2628497" lon="-2.7208081"><ele>735.75</ele><time>2026-04-13T10:10:41.679Z</time></trkpt><trkpt lat="38.2629898" lon="-2.7207721"><ele>735.0</ele><time>2026-04-13T10:10:42.679Z</time></trkpt><trkpt lat="38.2631193" lon="-2.7207366"><ele>736.5</ele><time>2026-04-13T10:10:43.679Z</time></trkpt><trkpt lat="38.263241" lon="-2.7206905"><ele>738.0</ele><time>2026-04-13T10:10:44.679Z</time></trkpt><trkpt lat="38.2633579" lon="-2.7206257"><ele>739.5</ele><time>2026-04-13T10:10:45.679Z</time></trkpt><trkpt lat="38.2634716" lon="-2.7205396"><ele>741.0</ele><time>2026-04-13T10:10:46.679Z</time></trkpt><trkpt lat="38.2635842" lon="-2.7204417"><ele>741.0</ele><time>2026-04-13T10:10:47.679Z</time></trkpt><trkpt lat="38.2636962" lon="-2.7203401"><ele>741.0</ele><time>2026-04-13T10:10:48.679Z</time></trkpt><trkpt lat="38.2638077" lon="-2.7202403"><ele>741.0</ele><time>2026-04-13T10:10:49.679Z</time></trkpt><trkpt lat="38.2639223" lon="-2.7201469"><ele>741.0</ele><time>2026-04-13T10:10:50.68Z</time></trkpt><trkpt lat="38.2640409" lon="-2.7200699"><ele>739.75</ele><time>2026-04-13T10:10:51.679Z</time></trkpt><trkpt lat="38.2641601" lon="-2.7200162"><ele>738.5</ele><time>2026-04-13T10:10:52.679Z</time></trkpt><trkpt lat="38.2642815" lon="-2.7199977"><ele>737.25</ele><time>2026-04-13T10:10:53.679Z</time></trkpt><trkpt lat="38.2643955" lon="-2.7200142"><ele>736.0</ele><time>2026-04-13T10:10:54.679Z</time></trkpt><trkpt lat="38.2644993" lon="-2.7200475"><ele>736.0</ele><time>2026-04-13T10:10:55.679Z</time></trkpt><trkpt lat="38.2645999" lon="-2.7200913"><ele>736.0</ele><time>2026-04-13T10:10:56.679Z</time></trkpt><trkpt lat="38.2647013" lon="-2.7201426"><ele>736.0</ele><time>2026-04-13T10:10:57.679Z</time></trkpt><trkpt lat="38.2648045" lon="-2.7201962"><ele>736.0</ele><time>2026-04-13T10:10:58.679Z</time></trkpt><trkpt lat="38.26491" lon="-2.7202455"><ele>736.0</ele><time>2026-04-13T10:10:59.68Z</time></trkpt><trkpt lat="38.2650139" lon="-2.7202956"><ele>738.25</ele><time>2026-04-13T10:11:00.679Z</time></trkpt><trkpt lat="38.2651181" lon="-2.7203501"><ele>740.5</ele><time>2026-04-13T10:11:01.679Z</time></trkpt><trkpt lat="38.2652202" lon="-2.7204069"><ele>742.75</ele><time>2026-04-13T10:11:02.679Z</time></trkpt><trkpt lat="38.265322" lon="-2.7204705"><ele>745.0</ele><time>2026-04-13T10:11:03.679Z</time></trkpt><trkpt lat="38.2654225" lon="-2.7205385"><ele>745.0</ele><time>2026-04-13T10:11:04.679Z</time></trkpt><trkpt lat="38.2655204" lon="-2.7206086"><ele>745.0</ele><time>2026-04-13T10:11:05.68Z</time></trkpt><trkpt lat="38.2656157" lon="-2.720681"><ele>745.0</ele><time>2026-04-13T10:11:06.679Z</time></trkpt><trkpt lat="38.2657075" lon="-2.7207545"><ele>745.0</ele><time>2026-04-13T10:11:07.679Z</time></trkpt><trkpt lat="38.2657985" lon="-2.7208287"><ele>745.0</ele><time>2026-04-13T10:11:08.679Z</time></trkpt><trkpt lat="38.2658879" lon="-2.7209017"><ele>744.4</ele><time>2026-04-13T10:11:09.679Z</time></trkpt><trkpt lat="38.2659754" lon="-2.7209679"><ele>743.8</ele><time>2026-04-13T10:11:10.679Z</time></trkpt><trkpt lat="38.2660574" lon="-2.7210262"><ele>743.2</ele><time>2026-04-13T10:11:11.679Z</time></trkpt><trkpt lat="38.2661392" lon="-2.7210807"><ele>742.6</ele><time>2026-04-13T10:11:12.679Z</time></trkpt><trkpt lat="38.2662194" lon="-2.7211291"><ele>742.0</ele><time>2026-04-13T10:11:13.679Z</time></trkpt><trkpt lat="38.2662969" lon="-2.7211727"><ele>742.0</ele><time>2026-04-13T10:11:14.679Z</time></trkpt><trkpt lat="38.2663675" lon="-2.7212107"><ele>742.0</ele><time>2026-04-13T10:11:15.679Z</time></trkpt><trkpt lat="38.2664277" lon="-2.7212415"><ele>742.0</ele><time>2026-04-13T10:11:16.679Z</time></trkpt><trkpt lat="38.266517" lon="-2.7212891"><ele>742.0</ele><time>2026-04-13T10:11:18.68Z</time></trkpt><trkpt lat="38.2666115" lon="-2.7213356"><ele>742.0</ele><time>2026-04-13T10:11:20.679Z</time></trkpt><trkpt lat="38.2667347" lon="-2.7213957"><ele>739.6666666666667</ele><time>2026-04-13T10:11:22.679Z</time></trkpt><trkpt lat="38.266807" lon="-2.7214319"><ele>737.3333333333334</ele><time>2026-04-13T10:11:23.679Z</time></trkpt><trkpt lat="38.2668839" lon="-2.7214734"><ele>735.0</ele><time>2026-04-13T10:11:24.679Z</time></trkpt><trkpt lat="38.2669659" lon="-2.7215143"><ele>732.6666666666666</ele><time>2026-04-13T10:11:25.679Z</time></trkpt><trkpt lat="38.2670509" lon="-2.7215579"><ele>730.3333333333333</ele><time>2026-04-13T10:11:26.679Z</time></trkpt><trkpt lat="38.2671387" lon="-2.7216038"><ele>728.0</ele><time>2026-04-13T10:11:27.679Z</time></trkpt><trkpt lat="38.2672282" lon="-2.7216495"><ele>726.8</ele><time>2026-04-13T10:11:28.679Z</time></trkpt><trkpt lat="38.267321" lon="-2.7216949"><ele>725.5999999999999</ele><time>2026-04-13T10:11:29.679Z</time></trkpt><trkpt lat="38.2674134" lon="-2.7217391"><ele>724.4000000000001</ele><time>2026-04-13T10:11:30.679Z</time></trkpt><trkpt lat="38.2675059" lon="-2.7217825"><ele>723.2</ele><time>2026-04-13T10:11:31.679Z</time></trkpt><trkpt lat="38.2675922" lon="-2.7218228"><ele>722.0</ele><time>2026-04-13T10:11:32.679Z</time></trkpt><trkpt lat="38.2676607" lon="-2.721855"><ele>722.0</ele><time>2026-04-13T10:11:33.679Z</time></trkpt><trkpt lat="38.2677213" lon="-2.721883"><ele>722.0</ele><time>2026-04-13T10:11:34.679Z</time></trkpt><trkpt lat="38.2677837" lon="-2.7219118"><ele>722.0</ele><time>2026-04-13T10:11:35.679Z</time></trkpt><trkpt lat="38.2678541" lon="-2.721942"><ele>722.0</ele><time>2026-04-13T10:11:36.679Z</time></trkpt><trkpt lat="38.2679332" lon="-2.721969"><ele>722.0</ele><time>2026-04-13T10:11:37.679Z</time></trkpt><trkpt lat="38.2680244" lon="-2.7219852"><ele>722.0</ele><time>2026-04-13T10:11:38.679Z</time></trkpt><trkpt lat="38.2681257" lon="-2.7219825"><ele>721.5</ele><time>2026-04-13T10:11:39.679Z</time></trkpt><trkpt lat="38.2682345" lon="-2.7219534"><ele>721.0</ele><time>2026-04-13T10:11:40.679Z</time></trkpt><trkpt lat="38.2683494" lon="-2.7219171"><ele>720.5</ele><time>2026-04-13T10:11:41.679Z</time></trkpt><trkpt lat="38.268472" lon="-2.7218788"><ele>720.0</ele><time>2026-04-13T10:11:42.679Z</time></trkpt><trkpt lat="38.2685986" lon="-2.7218469"><ele>720.0</ele><time>2026-04-13T10:11:43.679Z</time></trkpt><trkpt lat="38.2687284" lon="-2.7218287"><ele>720.0</ele><time>2026-04-13T10:11:44.679Z</time></trkpt><trkpt lat="38.2688577" lon="-2.7218291"><ele>720.0</ele><time>2026-04-13T10:11:45.679Z</time></trkpt><trkpt lat="38.2689772" lon="-2.7218376"><ele>720.0</ele><time>2026-04-13T10:11:46.679Z</time></trkpt><trkpt lat="38.2690819" lon="-2.721848"><ele>720.0</ele><time>2026-04-13T10:11:47.679Z</time></trkpt><trkpt lat="38.2691724" lon="-2.7218578"><ele>720.0</ele><time>2026-04-13T10:11:48.679Z</time></trkpt><trkpt lat="38.2692447" lon="-2.7218654"><ele>720.0</ele><time>2026-04-13T10:11:49.679Z</time></trkpt><trkpt lat="38.2693552" lon="-2.7218759"><ele>720.0</ele><time>2026-04-13T10:11:51.679Z</time></trkpt><trkpt lat="38.2694182" lon="-2.7218821"><ele>720.0</ele><time>2026-04-13T10:11:52.679Z</time></trkpt><trkpt lat="38.2694923" lon="-2.7218903"><ele>720.0</ele><time>2026-04-13T10:11:53.679Z</time></trkpt><trkpt lat="38.2695768" lon="-2.7218971"><ele>720.0</ele><time>2026-04-13T10:11:54.679Z</time></trkpt><trkpt lat="38.2696747" lon="-2.7218974"><ele>720.0</ele><time>2026-04-13T10:11:55.679Z</time></trkpt><trkpt lat="38.2697835" lon="-2.721886"><ele>720.0</ele><time>2026-04-13T10:11:56.679Z</time></trkpt><trkpt lat="38.2699012" lon="-2.7218545"><ele>720.0</ele><time>2026-04-13T10:11:57.679Z</time></trkpt><trkpt lat="38.2700276" lon="-2.7218108"><ele>720.25</ele><time>2026-04-13T10:11:58.679Z</time></trkpt><trkpt lat="38.2701574" lon="-2.7217574"><ele>720.5</ele><time>2026-04-13T10:11:59.679Z</time></trkpt><trkpt lat="38.2702947" lon="-2.7216974"><ele>720.75</ele><time>2026-04-13T10:12:00.679Z</time></trkpt><trkpt lat="38.2704392" lon="-2.7216335"><ele>721.0</ele><time>2026-04-13T10:12:01.679Z</time></trkpt><trkpt lat="38.2705911" lon="-2.7215667"><ele>723.3333333333334</ele><time>2026-04-13T10:12:02.679Z</time></trkpt><trkpt lat="38.2707539" lon="-2.7214968"><ele>725.6666666666666</ele><time>2026-04-13T10:12:03.679Z</time></trkpt><trkpt lat="38.2709283" lon="-2.7214257"><ele>728.0</ele><time>2026-04-13T10:12:04.679Z</time></trkpt><trkpt lat="38.2711146" lon="-2.7213557"><ele>728.0</ele><time>2026-04-13T10:12:05.679Z</time></trkpt><trkpt lat="38.2713132" lon="-2.7212924"><ele>728.0</ele><time>2026-04-13T10:12:06.679Z</time></trkpt><trkpt lat="38.2715203" lon="-2.7212339"><ele>728.0</ele><time>2026-04-13T10:12:07.679Z</time></trkpt><trkpt lat="38.2717342" lon="-2.7211744"><ele>727.0</ele><time>2026-04-13T10:12:08.68Z</time></trkpt><trkpt lat="38.2719477" lon="-2.7211059"><ele>726.0</ele><time>2026-04-13T10:12:09.679Z</time></trkpt><trkpt lat="38.2721611" lon="-2.7210312"><ele>725.0</ele><time>2026-04-13T10:12:10.679Z</time></trkpt><trkpt lat="38.2723771" lon="-2.7209517"><ele>720.0</ele><time>2026-04-13T10:12:11.679Z</time></trkpt><trkpt lat="38.272601" lon="-2.7208672"><ele>715.0</ele><time>2026-04-13T10:12:12.679Z</time></trkpt><trkpt lat="38.2728315" lon="-2.7207802"><ele>715.0</ele><time>2026-04-13T10:12:13.68Z</time></trkpt><trkpt lat="38.2730631" lon="-2.7206935"><ele>715.0</ele><time>2026-04-13T10:12:14.679Z</time></trkpt><trkpt lat="38.273293" lon="-2.7206042"><ele>715.5</ele><time>2026-04-13T10:12:15.679Z</time></trkpt><trkpt lat="38.2735218" lon="-2.7205139"><ele>716.0</ele><time>2026-04-13T10:12:16.679Z</time></trkpt><trkpt lat="38.2737463" lon="-2.7204203"><ele>718.0</ele><time>2026-04-13T10:12:17.679Z</time></trkpt><trkpt lat="38.273964" lon="-2.7203234"><ele>720.0</ele><time>2026-04-13T10:12:18.679Z</time></trkpt><trkpt lat="38.2741779" lon="-2.7202232"><ele>715.5</ele><time>2026-04-13T10:12:19.679Z</time></trkpt><trkpt lat="38.2743877" lon="-2.7201187"><ele>711.0</ele><time>2026-04-13T10:12:20.679Z</time></trkpt><trkpt lat="38.274597" lon="-2.7200061"><ele>710.5</ele><time>2026-04-13T10:12:21.679Z</time></trkpt><trkpt lat="38.2748041" lon="-2.7198864"><ele>710.0</ele><time>2026-04-13T10:12:22.679Z</time></trkpt><trkpt lat="38.2750118" lon="-2.7197618"><ele>710.0</ele><time>2026-04-13T10:12:23.679Z</time></trkpt><trkpt lat="38.2752201" lon="-2.7196348"><ele>710.0</ele><time>2026-04-13T10:12:24.679Z</time></trkpt><trkpt lat="38.2754341" lon="-2.7195047"><ele>708.0</ele><time>2026-04-13T10:12:25.679Z</time></trkpt><trkpt lat="38.2756508" lon="-2.7193723"><ele>706.0</ele><time>2026-04-13T10:12:26.679Z</time></trkpt><trkpt lat="38.2758682" lon="-2.7192388"><ele>706.0</ele><time>2026-04-13T10:12:27.679Z</time></trkpt><trkpt lat="38.2760876" lon="-2.7191055"><ele>706.0</ele><time>2026-04-13T10:12:28.679Z</time></trkpt><trkpt lat="38.2763053" lon="-2.7189755"><ele>705.5</ele><time>2026-04-13T10:12:29.679Z</time></trkpt><trkpt lat="38.2765244" lon="-2.7188432"><ele>705.0</ele><time>2026-04-13T10:12:30.68Z</time></trkpt><trkpt lat="38.2767402" lon="-2.7187126"><ele>705.0</ele><time>2026-04-13T10:12:31.679Z</time></trkpt><trkpt lat="38.2769538" lon="-2.7185854"><ele>705.0</ele><time>2026-04-13T10:12:32.679Z</time></trkpt><trkpt lat="38.2771642" lon="-2.7184587"><ele>705.5</ele><time>2026-04-13T10:12:33.679Z</time></trkpt><trkpt lat="38.2773705" lon="-2.7183247"><ele>706.0</ele><time>2026-04-13T10:12:34.679Z</time></trkpt><trkpt lat="38.2775716" lon="-2.7181829"><ele>706.0</ele><time>2026-04-13T10:12:35.679Z</time></trkpt><trkpt lat="38.2777677" lon="-2.7180325"><ele>706.0</ele><time>2026-04-13T10:12:36.679Z</time></trkpt><trkpt lat="38.2779635" lon="-2.7178773"><ele>704.5</ele><time>2026-04-13T10:12:37.679Z</time></trkpt><trkpt lat="38.2781618" lon="-2.7177285"><ele>703.0</ele><time>2026-04-13T10:12:38.679Z</time></trkpt><trkpt lat="38.2783678" lon="-2.7175935"><ele>703.0</ele><time>2026-04-13T10:12:39.679Z</time></trkpt><trkpt lat="38.2785775" lon="-2.7174719"><ele>703.0</ele><time>2026-04-13T10:12:40.679Z</time></trkpt><trkpt lat="38.278791" lon="-2.7173563"><ele>706.5</ele><time>2026-04-13T10:12:41.679Z</time></trkpt><trkpt lat="38.2790051" lon="-2.7172368"><ele>710.0</ele><time>2026-04-13T10:12:42.679Z</time></trkpt><trkpt lat="38.2792142" lon="-2.7171085"><ele>710.0</ele><time>2026-04-13T10:12:43.679Z</time></trkpt><trkpt lat="38.2794157" lon="-2.716964"><ele>710.0</ele><time>2026-04-13T10:12:44.679Z</time></trkpt><trkpt lat="38.2796022" lon="-2.7167983"><ele>709.6666666666666</ele><time>2026-04-13T10:12:45.679Z</time></trkpt><trkpt lat="38.2797679" lon="-2.7166058"><ele>709.3333333333334</ele><time>2026-04-13T10:12:46.679Z</time></trkpt><trkpt lat="38.2799211" lon="-2.7164003"><ele>709.0</ele><time>2026-04-13T10:12:47.679Z</time></trkpt><trkpt lat="38.2800668" lon="-2.7161997"><ele>706.0</ele><time>2026-04-13T10:12:48.679Z</time></trkpt><trkpt lat="38.2802017" lon="-2.7160156"><ele>703.0</ele><time>2026-04-13T10:12:49.679Z</time></trkpt><trkpt lat="38.280329" lon="-2.7158487"><ele>700.0</ele><time>2026-04-13T10:12:50.679Z</time></trkpt><trkpt lat="38.2804566" lon="-2.7157077"><ele>700.0</ele><time>2026-04-13T10:12:51.679Z</time></trkpt><trkpt lat="38.2805979" lon="-2.7156012"><ele>700.0</ele><time>2026-04-13T10:12:52.68Z</time></trkpt><trkpt lat="38.2807543" lon="-2.7155344"><ele>700.0</ele><time>2026-04-13T10:12:53.679Z</time></trkpt><trkpt lat="38.2809209" lon="-2.7154915"><ele>702.0</ele><time>2026-04-13T10:12:54.679Z</time></trkpt><trkpt lat="38.2810964" lon="-2.7154538"><ele>704.0</ele><time>2026-04-13T10:12:55.679Z</time></trkpt><trkpt lat="38.2812799" lon="-2.7154229"><ele>706.0</ele><time>2026-04-13T10:12:56.679Z</time></trkpt><trkpt lat="38.2814684" lon="-2.7154109"><ele>707.0</ele><time>2026-04-13T10:12:57.679Z</time></trkpt><trkpt lat="38.2816591" lon="-2.71543"><ele>708.0</ele><time>2026-04-13T10:12:58.679Z</time></trkpt><trkpt lat="38.2818486" lon="-2.715473"><ele>709.0</ele><time>2026-04-13T10:12:59.679Z</time></trkpt><trkpt lat="38.2820391" lon="-2.7155182"><ele>709.0</ele><time>2026-04-13T10:13:00.679Z</time></trkpt><trkpt lat="38.2822295" lon="-2.7155515"><ele>709.0</ele><time>2026-04-13T10:13:01.679Z</time></trkpt><trkpt lat="38.2824233" lon="-2.7155643"><ele>709.0</ele><time>2026-04-13T10:13:02.679Z</time></trkpt><trkpt lat="38.2826156" lon="-2.7155488"><ele>707.3333333333334</ele><time>2026-04-13T10:13:03.679Z</time></trkpt><trkpt lat="38.2828018" lon="-2.7155186"><ele>705.6666666666666</ele><time>2026-04-13T10:13:04.679Z</time></trkpt><trkpt lat="38.2829887" lon="-2.7154843"><ele>704.0</ele><time>2026-04-13T10:13:05.679Z</time></trkpt><trkpt lat="38.2831745" lon="-2.7154531"><ele>703.6666666666666</ele><time>2026-04-13T10:13:06.679Z</time></trkpt><trkpt lat="38.2833547" lon="-2.7154273"><ele>703.3333333333334</ele><time>2026-04-13T10:13:07.679Z</time></trkpt><trkpt lat="38.2835309" lon="-2.7154029"><ele>703.0</ele><time>2026-04-13T10:13:08.679Z</time></trkpt><trkpt lat="38.2837012" lon="-2.7153695"><ele>703.0</ele><time>2026-04-13T10:13:09.679Z</time></trkpt><trkpt lat="38.2838704" lon="-2.715344"><ele>703.0</ele><time>2026-04-13T10:13:10.679Z</time></trkpt><trkpt lat="38.2840395" lon="-2.7153397"><ele>703.0</ele><time>2026-04-13T10:13:11.679Z</time></trkpt><trkpt lat="38.2842072" lon="-2.7153503"><ele>701.6666666666667</ele><time>2026-04-13T10:13:12.679Z</time></trkpt><trkpt lat="38.284371" lon="-2.7153658"><ele>700.3333333333334</ele><time>2026-04-13T10:13:13.679Z</time></trkpt><trkpt lat="38.2845258" lon="-2.7153781"><ele>699.0</ele><time>2026-04-13T10:13:14.679Z</time></trkpt><trkpt lat="38.284671" lon="-2.7153795"><ele>701.25</ele><time>2026-04-13T10:13:15.679Z</time></trkpt><trkpt lat="38.2848131" lon="-2.7153666"><ele>703.5</ele><time>2026-04-13T10:13:16.679Z</time></trkpt><trkpt lat="38.2849445" lon="-2.7153371"><ele>705.75</ele><time>2026-04-13T10:13:17.679Z</time></trkpt><trkpt lat="38.2850724" lon="-2.7152911"><ele>708.0</ele><time>2026-04-13T10:13:18.679Z</time></trkpt><trkpt lat="38.2851967" lon="-2.7152404"><ele>704.25</ele><time>2026-04-13T10:13:19.679Z</time></trkpt><trkpt lat="38.2853183" lon="-2.7151925"><ele>700.5</ele><time>2026-04-13T10:13:20.679Z</time></trkpt><trkpt lat="38.2854377" lon="-2.7151527"><ele>696.75</ele><time>2026-04-13T10:13:21.679Z</time></trkpt><trkpt lat="38.2855585" lon="-2.7151273"><ele>693.0</ele><time>2026-04-13T10:13:22.679Z</time></trkpt><trkpt lat="38.2856827" lon="-2.7151202"><ele>693.0</ele><time>2026-04-13T10:13:23.679Z</time></trkpt><trkpt lat="38.2858066" lon="-2.7151372"><ele>693.0</ele><time>2026-04-13T10:13:24.679Z</time></trkpt><trkpt lat="38.2859271" lon="-2.7151754"><ele>693.0</ele><time>2026-04-13T10:13:25.679Z</time></trkpt><trkpt lat="38.2860448" lon="-2.7152262"><ele>693.0</ele><time>2026-04-13T10:13:26.679Z</time></trkpt><trkpt lat="38.2861605" lon="-2.7152789"><ele>694.75</ele><time>2026-04-13T10:13:27.679Z</time></trkpt><trkpt lat="38.2862739" lon="-2.7153288"><ele>696.5</ele><time>2026-04-13T10:13:28.679Z</time></trkpt><trkpt lat="38.2863854" lon="-2.7153764"><ele>698.25</ele><time>2026-04-13T10:13:29.679Z</time></trkpt><trkpt lat="38.2864945" lon="-2.7154216"><ele>700.0</ele><time>2026-04-13T10:13:30.679Z</time></trkpt><trkpt lat="38.2866029" lon="-2.7154661"><ele>700.0</ele><time>2026-04-13T10:13:31.679Z</time></trkpt><trkpt lat="38.286712" lon="-2.71551"><ele>700.0</ele><time>2026-04-13T10:13:32.679Z</time></trkpt><trkpt lat="38.2868258" lon="-2.7155523"><ele>700.0</ele><time>2026-04-13T10:13:33.679Z</time></trkpt><trkpt lat="38.2869444" lon="-2.7155877"><ele>700.0</ele><time>2026-04-13T10:13:34.679Z</time></trkpt><trkpt lat="38.2870708" lon="-2.7156195"><ele>700.0</ele><time>2026-04-13T10:13:35.679Z</time></trkpt><trkpt lat="38.2872069" lon="-2.7156424"><ele>700.0</ele><time>2026-04-13T10:13:36.679Z</time></trkpt><trkpt lat="38.2873518" lon="-2.7156595"><ele>700.0</ele><time>2026-04-13T10:13:37.679Z</time></trkpt><trkpt lat="38.2875039" lon="-2.7156692"><ele>700.0</ele><time>2026-04-13T10:13:38.679Z</time></trkpt><trkpt lat="38.2876637" lon="-2.7156772"><ele>698.6666666666667</ele><time>2026-04-13T10:13:39.68Z</time></trkpt><trkpt lat="38.2878281" lon="-2.7156851"><ele>697.3333333333334</ele><time>2026-04-13T10:13:40.679Z</time></trkpt><trkpt lat="38.2879955" lon="-2.7156951"><ele>696.0</ele><time>2026-04-13T10:13:41.679Z</time></trkpt><trkpt lat="38.2881644" lon="-2.7157074"><ele>695.3333333333334</ele><time>2026-04-13T10:13:42.679Z</time></trkpt><trkpt lat="38.2883348" lon="-2.7157208"><ele>694.6666666666667</ele><time>2026-04-13T10:13:43.679Z</time></trkpt><trkpt lat="38.2885092" lon="-2.7157287"><ele>694.0</ele><time>2026-04-13T10:13:44.679Z</time></trkpt><trkpt lat="38.2886879" lon="-2.7157224"><ele>694.0</ele><time>2026-04-13T10:13:45.679Z</time></trkpt><trkpt lat="38.2888697" lon="-2.7156946"><ele>694.0</ele><time>2026-04-13T10:13:46.679Z</time></trkpt><trkpt lat="38.289043" lon="-2.7156461"><ele>694.0</ele><time>2026-04-13T10:13:47.679Z</time></trkpt><trkpt lat="38.2892136" lon="-2.7155838"><ele>692.3333333333334</ele><time>2026-04-13T10:13:48.679Z</time></trkpt><trkpt lat="38.289372" lon="-2.7155163"><ele>690.6666666666666</ele><time>2026-04-13T10:13:49.679Z</time></trkpt><trkpt lat="38.2895205" lon="-2.7154523"><ele>689.0</ele><time>2026-04-13T10:13:50.679Z</time></trkpt><trkpt lat="38.2896617" lon="-2.7153913"><ele>688.75</ele><time>2026-04-13T10:13:51.679Z</time></trkpt><trkpt lat="38.2897992" lon="-2.7153319"><ele>688.5</ele><time>2026-04-13T10:13:52.679Z</time></trkpt><trkpt lat="38.2899356" lon="-2.715271"><ele>688.25</ele><time>2026-04-13T10:13:53.679Z</time></trkpt><trkpt lat="38.2900697" lon="-2.7152038"><ele>688.0</ele><time>2026-04-13T10:13:54.679Z</time></trkpt><trkpt lat="38.2902029" lon="-2.715117"><ele>687.6666666666667</ele><time>2026-04-13T10:13:55.679Z</time></trkpt><trkpt lat="38.2903364" lon="-2.71501"><ele>687.3333333333334</ele><time>2026-04-13T10:13:56.679Z</time></trkpt><trkpt lat="38.2904732" lon="-2.7148856"><ele>687.0</ele><time>2026-04-13T10:13:57.679Z</time></trkpt><trkpt lat="38.2906121" lon="-2.714745"><ele>687.0</ele><time>2026-04-13T10:13:58.679Z</time></trkpt><trkpt lat="38.2907526" lon="-2.7145907"><ele>687.0</ele><time>2026-04-13T10:13:59.679Z</time></trkpt><trkpt lat="38.2908936" lon="-2.7144303"><ele>687.0</ele><time>2026-04-13T10:14:00.679Z</time></trkpt><trkpt lat="38.2910359" lon="-2.7142633"><ele>686.0</ele><time>2026-04-13T10:14:01.679Z</time></trkpt><trkpt lat="38.291183" lon="-2.7140876"><ele>685.0</ele><time>2026-04-13T10:14:02.679Z</time></trkpt><trkpt lat="38.2913338" lon="-2.7139039"><ele>684.0</ele><time>2026-04-13T10:14:03.679Z</time></trkpt><trkpt lat="38.2914846" lon="-2.7137188"><ele>682.3333333333334</ele><time>2026-04-13T10:14:04.68Z</time></trkpt><trkpt lat="38.2916362" lon="-2.7135326"><ele>680.6666666666667</ele><time>2026-04-13T10:14:05.679Z</time></trkpt><trkpt lat="38.2917868" lon="-2.7133522"><ele>679.0</ele><time>2026-04-13T10:14:06.679Z</time></trkpt><trkpt lat="38.2919376" lon="-2.7131764"><ele>679.0</ele><time>2026-04-13T10:14:07.679Z</time></trkpt><trkpt lat="38.2920872" lon="-2.7130064"><ele>679.0</ele><time>2026-04-13T10:14:08.679Z</time></trkpt><trkpt lat="38.2922297" lon="-2.7128409"><ele>679.0</ele><time>2026-04-13T10:14:09.679Z</time></trkpt><trkpt lat="38.2923727" lon="-2.7126827"><ele>680.0</ele><time>2026-04-13T10:14:10.679Z</time></trkpt><trkpt lat="38.2925262" lon="-2.7125391"><ele>681.0</ele><time>2026-04-13T10:14:11.679Z</time></trkpt><trkpt lat="38.2926933" lon="-2.7124148"><ele>682.0</ele><time>2026-04-13T10:14:12.679Z</time></trkpt><trkpt lat="38.2928689" lon="-2.7123049"><ele>682.0</ele><time>2026-04-13T10:14:13.679Z</time></trkpt><trkpt lat="38.293049" lon="-2.7121985"><ele>682.0</ele><time>2026-04-13T10:14:14.679Z</time></trkpt><trkpt lat="38.2932318" lon="-2.7120917"><ele>682.0</ele><time>2026-04-13T10:14:15.679Z</time></trkpt><trkpt lat="38.2934134" lon="-2.7119873"><ele>682.3333333333334</ele><time>2026-04-13T10:14:16.679Z</time></trkpt><trkpt lat="38.2935916" lon="-2.7118837"><ele>682.6666666666666</ele><time>2026-04-13T10:14:17.679Z</time></trkpt><trkpt lat="38.2937652" lon="-2.7117821"><ele>683.0</ele><time>2026-04-13T10:14:18.679Z</time></trkpt><trkpt lat="38.2939343" lon="-2.7116836"><ele>684.6666666666666</ele><time>2026-04-13T10:14:19.679Z</time></trkpt><trkpt lat="38.2940923" lon="-2.7115958"><ele>686.3333333333334</ele><time>2026-04-13T10:14:20.679Z</time></trkpt><trkpt lat="38.294246" lon="-2.7115206"><ele>688.0</ele><time>2026-04-13T10:14:21.679Z</time></trkpt><trkpt lat="38.2944012" lon="-2.7114696"><ele>688.0</ele><time>2026-04-13T10:14:22.679Z</time></trkpt><trkpt lat="38.2945597" lon="-2.7114504"><ele>688.0</ele><time>2026-04-13T10:14:23.679Z</time></trkpt><trkpt lat="38.2947221" lon="-2.7114659"><ele>688.0</ele><time>2026-04-13T10:14:24.679Z</time></trkpt><trkpt lat="38.2948836" lon="-2.7115148"><ele>688.3333333333334</ele><time>2026-04-13T10:14:25.679Z</time></trkpt><trkpt lat="38.2950443" lon="-2.7115829"><ele>688.6666666666666</ele><time>2026-04-13T10:14:26.679Z</time></trkpt><trkpt lat="38.2952017" lon="-2.711653"><ele>689.0</ele><time>2026-04-13T10:14:27.679Z</time></trkpt><trkpt lat="38.2953532" lon="-2.7117197"><ele>689.0</ele><time>2026-04-13T10:14:28.679Z</time></trkpt><trkpt lat="38.2954925" lon="-2.7117756"><ele>689.0</ele><time>2026-04-13T10:14:29.679Z</time></trkpt><trkpt lat="38.2956273" lon="-2.7118081"><ele>689.0</ele><time>2026-04-13T10:14:30.679Z</time></trkpt><trkpt lat="38.2957613" lon="-2.711804"><ele>689.0</ele><time>2026-04-13T10:14:31.679Z</time></trkpt><trkpt lat="38.2958751" lon="-2.7117514"><ele>688.0</ele><time>2026-04-13T10:14:32.679Z</time></trkpt><trkpt lat="38.2959869" lon="-2.7116506"><ele>687.0</ele><time>2026-04-13T10:14:33.679Z</time></trkpt><trkpt lat="38.2960852" lon="-2.7115193"><ele>686.0</ele><time>2026-04-13T10:14:34.679Z</time></trkpt><trkpt lat="38.2961817" lon="-2.7113732"><ele>685.0</ele><time>2026-04-13T10:14:35.679Z</time></trkpt><trkpt lat="38.2962808" lon="-2.7112201"><ele>685.3333333333334</ele><time>2026-04-13T10:14:36.679Z</time></trkpt><trkpt lat="38.2963858" lon="-2.7110652"><ele>685.6666666666666</ele><time>2026-04-13T10:14:37.68Z</time></trkpt><trkpt lat="38.2965008" lon="-2.7109199"><ele>686.0</ele><time>2026-04-13T10:14:38.679Z</time></trkpt><trkpt lat="38.2966352" lon="-2.7107947"><ele>686.0</ele><time>2026-04-13T10:14:39.679Z</time></trkpt><trkpt lat="38.2967882" lon="-2.7106969"><ele>686.0</ele><time>2026-04-13T10:14:40.68Z</time></trkpt><trkpt lat="38.2969563" lon="-2.7106106"><ele>686.0</ele><time>2026-04-13T10:14:41.679Z</time></trkpt><trkpt lat="38.2971301" lon="-2.7105265"><ele>685.0</ele><time>2026-04-13T10:14:42.679Z</time></trkpt><trkpt lat="38.2973064" lon="-2.710431"><ele>684.0</ele><time>2026-04-13T10:14:43.679Z</time></trkpt><trkpt lat="38.2974807" lon="-2.7103164"><ele>683.0</ele><time>2026-04-13T10:14:44.679Z</time></trkpt><trkpt lat="38.2976548" lon="-2.7101877"><ele>683.0</ele><time>2026-04-13T10:14:45.679Z</time></trkpt><trkpt lat="38.2978264" lon="-2.7100492"><ele>683.0</ele><time>2026-04-13T10:14:46.679Z</time></trkpt><trkpt lat="38.2979975" lon="-2.7099045"><ele>683.0</ele><time>2026-04-13T10:14:47.679Z</time></trkpt><trkpt lat="38.2981654" lon="-2.7097545"><ele>681.6666666666666</ele><time>2026-04-13T10:14:48.679Z</time></trkpt><trkpt lat="38.2983304" lon="-2.7096013"><ele>680.3333333333334</ele><time>2026-04-13T10:14:49.679Z</time></trkpt><trkpt lat="38.2984953" lon="-2.7094501"><ele>679.0</ele><time>2026-04-13T10:14:50.679Z</time></trkpt><trkpt lat="38.2986599" lon="-2.7093022"><ele>679.0</ele><time>2026-04-13T10:14:51.679Z</time></trkpt><trkpt lat="38.298831" lon="-2.7091596"><ele>679.0</ele><time>2026-04-13T10:14:52.679Z</time></trkpt><trkpt lat="38.2990042" lon="-2.709021"><ele>679.0</ele><time>2026-04-13T10:14:53.679Z</time></trkpt><trkpt lat="38.299179" lon="-2.7088866"><ele>680.3333333333334</ele><time>2026-04-13T10:14:54.679Z</time></trkpt><trkpt lat="38.2993569" lon="-2.7087529"><ele>681.6666666666666</ele><time>2026-04-13T10:14:55.679Z</time></trkpt><trkpt lat="38.2995342" lon="-2.7086204"><ele>683.0</ele><time>2026-04-13T10:14:56.679Z</time></trkpt><trkpt lat="38.2997111" lon="-2.7084907"><ele>680.6666666666666</ele><time>2026-04-13T10:14:57.679Z</time></trkpt><trkpt lat="38.2998907" lon="-2.7083611"><ele>678.3333333333334</ele><time>2026-04-13T10:14:58.679Z</time></trkpt><trkpt lat="38.3000674" lon="-2.7082324"><ele>676.0</ele><time>2026-04-13T10:14:59.679Z</time></trkpt><trkpt lat="38.3002439" lon="-2.7081036"><ele>676.0</ele><time>2026-04-13T10:15:00.679Z</time></trkpt><trkpt lat="38.3004188" lon="-2.707975"><ele>676.0</ele><time>2026-04-13T10:15:01.679Z</time></trkpt><trkpt lat="38.3005897" lon="-2.7078489"><ele>676.0</ele><time>2026-04-13T10:15:02.679Z</time></trkpt><trkpt lat="38.3007589" lon="-2.7077236"><ele>674.3333333333334</ele><time>2026-04-13T10:15:03.679Z</time></trkpt><trkpt lat="38.300921" lon="-2.7076014"><ele>672.6666666666666</ele><time>2026-04-13T10:15:04.679Z</time></trkpt><trkpt lat="38.301072" lon="-2.7074873"><ele>671.0</ele><time>2026-04-13T10:15:05.679Z</time></trkpt><trkpt lat="38.3012169" lon="-2.7073758"><ele>671.0</ele><time>2026-04-13T10:15:06.679Z</time></trkpt><trkpt lat="38.3013612" lon="-2.7072644"><ele>671.0</ele><time>2026-04-13T10:15:07.679Z</time></trkpt><trkpt lat="38.3015078" lon="-2.7071549"><ele>671.0</ele><time>2026-04-13T10:15:08.679Z</time></trkpt><trkpt lat="38.3016539" lon="-2.7070448"><ele>670.3333333333333</ele><time>2026-04-13T10:15:09.679Z</time></trkpt><trkpt lat="38.3018023" lon="-2.7069318"><ele>669.6666666666666</ele><time>2026-04-13T10:15:10.679Z</time></trkpt><trkpt lat="38.3019517" lon="-2.7068186"><ele>669.0</ele><time>2026-04-13T10:15:11.679Z</time></trkpt><trkpt lat="38.3021025" lon="-2.7067034"><ele>666.0</ele><time>2026-04-13T10:15:12.679Z</time></trkpt><trkpt lat="38.3022542" lon="-2.7065846"><ele>663.0</ele><time>2026-04-13T10:15:13.679Z</time></trkpt><trkpt lat="38.3024095" lon="-2.7064649"><ele>660.0</ele><time>2026-04-13T10:15:14.679Z</time></trkpt><trkpt lat="38.3025704" lon="-2.7063408"><ele>660.0</ele><time>2026-04-13T10:15:15.679Z</time></trkpt><trkpt lat="38.3027359" lon="-2.7062107"><ele>660.0</ele><time>2026-04-13T10:15:16.679Z</time></trkpt><trkpt lat="38.3029058" lon="-2.7060798"><ele>660.0</ele><time>2026-04-13T10:15:17.679Z</time></trkpt><trkpt lat="38.3030786" lon="-2.7059441"><ele>658.0</ele><time>2026-04-13T10:15:18.679Z</time></trkpt><trkpt lat="38.3032537" lon="-2.7058063"><ele>656.0</ele><time>2026-04-13T10:15:19.679Z</time></trkpt><trkpt lat="38.3034296" lon="-2.7056667"><ele>654.0</ele><time>2026-04-13T10:15:20.679Z</time></trkpt><trkpt lat="38.3036067" lon="-2.7055271"><ele>654.0</ele><time>2026-04-13T10:15:21.679Z</time></trkpt><trkpt lat="38.3037831" lon="-2.7053902"><ele>654.0</ele><time>2026-04-13T10:15:22.679Z</time></trkpt><trkpt lat="38.3039586" lon="-2.7052548"><ele>654.0</ele><time>2026-04-13T10:15:23.679Z</time></trkpt><trkpt lat="38.3041252" lon="-2.7051258"><ele>652.0</ele><time>2026-04-13T10:15:24.679Z</time></trkpt><trkpt lat="38.3042836" lon="-2.7050074"><ele>650.0</ele><time>2026-04-13T10:15:25.679Z</time></trkpt><trkpt lat="38.3044431" lon="-2.7049028"><ele>648.0</ele><time>2026-04-13T10:15:26.679Z</time></trkpt><trkpt lat="38.304612" lon="-2.7048183"><ele>648.0</ele><time>2026-04-13T10:15:27.679Z</time></trkpt><trkpt lat="38.3047924" lon="-2.7047575"><ele>648.0</ele><time>2026-04-13T10:15:28.679Z</time></trkpt><trkpt lat="38.3049812" lon="-2.7047225"><ele>648.0</ele><time>2026-04-13T10:15:29.679Z</time></trkpt><trkpt lat="38.3051758" lon="-2.7047025"><ele>648.0</ele><time>2026-04-13T10:15:30.679Z</time></trkpt><trkpt lat="38.3053727" lon="-2.7046878"><ele>648.0</ele><time>2026-04-13T10:15:31.679Z</time></trkpt><trkpt lat="38.3055689" lon="-2.7046775"><ele>648.0</ele><time>2026-04-13T10:15:32.679Z</time></trkpt><trkpt lat="38.3057656" lon="-2.7046667"><ele>648.3333333333334</ele><time>2026-04-13T10:15:33.679Z</time></trkpt><trkpt lat="38.3059586" lon="-2.704639"><ele>648.6666666666667</ele><time>2026-04-13T10:15:34.679Z</time></trkpt><trkpt lat="38.3061478" lon="-2.7045879"><ele>649.0</ele><time>2026-04-13T10:15:35.679Z</time></trkpt><trkpt lat="38.3063304" lon="-2.7045217"><ele>650.0</ele><time>2026-04-13T10:15:36.679Z</time></trkpt><trkpt lat="38.3065113" lon="-2.7044483"><ele>651.0</ele><time>2026-04-13T10:15:37.679Z</time></trkpt><trkpt lat="38.3066884" lon="-2.7043693"><ele>652.0</ele><time>2026-04-13T10:15:38.679Z</time></trkpt><trkpt lat="38.3068581" lon="-2.7042772"><ele>650.3333333333334</ele><time>2026-04-13T10:15:39.679Z</time></trkpt><trkpt lat="38.3070161" lon="-2.7041632"><ele>648.6666666666666</ele><time>2026-04-13T10:15:40.679Z</time></trkpt><trkpt lat="38.307159" lon="-2.704021"><ele>647.0</ele><time>2026-04-13T10:15:41.679Z</time></trkpt><trkpt lat="38.3072934" lon="-2.7038665"><ele>647.0</ele><time>2026-04-13T10:15:42.679Z</time></trkpt><trkpt lat="38.3074353" lon="-2.7037198"><ele>647.0</ele><time>2026-04-13T10:15:43.679Z</time></trkpt><trkpt lat="38.3075902" lon="-2.7035842"><ele>647.0</ele><time>2026-04-13T10:15:44.679Z</time></trkpt><trkpt lat="38.3077595" lon="-2.7034645"><ele>645.6666666666666</ele><time>2026-04-13T10:15:45.679Z</time></trkpt><trkpt lat="38.3079385" lon="-2.703351"><ele>644.3333333333334</ele><time>2026-04-13T10:15:46.679Z</time></trkpt><trkpt lat="38.308119" lon="-2.7032432"><ele>643.0</ele><time>2026-04-13T10:15:47.679Z</time></trkpt><trkpt lat="38.3082993" lon="-2.7031386"><ele>643.0</ele><time>2026-04-13T10:15:48.679Z</time></trkpt><trkpt lat="38.3084789" lon="-2.7030348"><ele>643.0</ele><time>2026-04-13T10:15:49.679Z</time></trkpt><trkpt lat="38.3086504" lon="-2.702936"><ele>643.0</ele><time>2026-04-13T10:15:50.679Z</time></trkpt><trkpt lat="38.3088183" lon="-2.7028407"><ele>642.0</ele><time>2026-04-13T10:15:51.679Z</time></trkpt><trkpt lat="38.3089707" lon="-2.7027548"><ele>641.0</ele><time>2026-04-13T10:15:52.679Z</time></trkpt><trkpt lat="38.3090937" lon="-2.7026897"><ele>640.0</ele><time>2026-04-13T10:15:53.679Z</time></trkpt><trkpt lat="38.3091856" lon="-2.7026492"><ele>639.0</ele><time>2026-04-13T10:15:54.68Z</time></trkpt><trkpt lat="38.3092683" lon="-2.7026129"><ele>639.0</ele><time>2026-04-13T10:15:55.679Z</time></trkpt><trkpt lat="38.3093429" lon="-2.7025713"><ele>639.0</ele><time>2026-04-13T10:15:56.68Z</time></trkpt><trkpt lat="38.309414" lon="-2.7025238"><ele>639.0</ele><time>2026-04-13T10:15:57.679Z</time></trkpt><trkpt lat="38.3094834" lon="-2.7024728"><ele>639.0</ele><time>2026-04-13T10:15:58.679Z</time></trkpt><trkpt lat="38.3095577" lon="-2.702422"><ele>639.0</ele><time>2026-04-13T10:15:59.679Z</time></trkpt><trkpt lat="38.3096382" lon="-2.7023679"><ele>639.0</ele><time>2026-04-13T10:16:00.679Z</time></trkpt><trkpt lat="38.3097226" lon="-2.7023138"><ele>640.2</ele><time>2026-04-13T10:16:01.679Z</time></trkpt><trkpt lat="38.30981" lon="-2.7022553"><ele>641.4</ele><time>2026-04-13T10:16:02.679Z</time></trkpt><trkpt lat="38.3098969" lon="-2.7021925"><ele>642.6</ele><time>2026-04-13T10:16:03.679Z</time></trkpt><trkpt lat="38.3099836" lon="-2.702119"><ele>643.8</ele><time>2026-04-13T10:16:04.679Z</time></trkpt><trkpt lat="38.3100731" lon="-2.7020324"><ele>645.0</ele><time>2026-04-13T10:16:05.679Z</time></trkpt><trkpt lat="38.3101657" lon="-2.7019334"><ele>642.75</ele><time>2026-04-13T10:16:06.679Z</time></trkpt><trkpt lat="38.3102624" lon="-2.7018255"><ele>640.5</ele><time>2026-04-13T10:16:07.679Z</time></trkpt><trkpt lat="38.3103614" lon="-2.7017127"><ele>638.25</ele><time>2026-04-13T10:16:08.679Z</time></trkpt><trkpt lat="38.310463" lon="-2.701594"><ele>636.0</ele><time>2026-04-13T10:16:09.679Z</time></trkpt><trkpt lat="38.310567" lon="-2.7014715"><ele>635.25</ele><time>2026-04-13T10:16:10.679Z</time></trkpt><trkpt lat="38.3106724" lon="-2.7013469"><ele>634.5</ele><time>2026-04-13T10:16:11.679Z</time></trkpt><trkpt lat="38.3107791" lon="-2.7012226"><ele>633.75</ele><time>2026-04-13T10:16:12.679Z</time></trkpt><trkpt lat="38.3108864" lon="-2.7010959"><ele>633.0</ele><time>2026-04-13T10:16:13.679Z</time></trkpt><trkpt lat="38.3109933" lon="-2.7009681"><ele>633.0</ele><time>2026-04-13T10:16:14.679Z</time></trkpt><trkpt lat="38.311099" lon="-2.7008405"><ele>633.0</ele><time>2026-04-13T10:16:15.679Z</time></trkpt><trkpt lat="38.3112039" lon="-2.7007119"><ele>633.0</ele><time>2026-04-13T10:16:16.679Z</time></trkpt><trkpt lat="38.3113096" lon="-2.7005848"><ele>633.0</ele><time>2026-04-13T10:16:17.679Z</time></trkpt><trkpt lat="38.31142" lon="-2.7004659"><ele>632.75</ele><time>2026-04-13T10:16:18.679Z</time></trkpt><trkpt lat="38.3115405" lon="-2.7003651"><ele>632.5</ele><time>2026-04-13T10:16:19.679Z</time></trkpt><trkpt lat="38.3116731" lon="-2.7002819"><ele>632.25</ele><time>2026-04-13T10:16:20.679Z</time></trkpt><trkpt lat="38.3118151" lon="-2.7002159"><ele>632.0</ele><time>2026-04-13T10:16:21.679Z</time></trkpt><trkpt lat="38.3119625" lon="-2.7001596"><ele>632.0</ele><time>2026-04-13T10:16:22.679Z</time></trkpt><trkpt lat="38.3121097" lon="-2.7001032"><ele>632.0</ele><time>2026-04-13T10:16:23.679Z</time></trkpt><trkpt lat="38.3122551" lon="-2.7000464"><ele>632.0</ele><time>2026-04-13T10:16:24.679Z</time></trkpt><trkpt lat="38.3123966" lon="-2.6999899"><ele>632.6666666666666</ele><time>2026-04-13T10:16:25.679Z</time></trkpt><trkpt lat="38.3125376" lon="-2.6999301"><ele>633.3333333333334</ele><time>2026-04-13T10:16:26.68Z</time></trkpt><trkpt lat="38.3126809" lon="-2.6998709"><ele>634.0</ele><time>2026-04-13T10:16:27.679Z</time></trkpt><trkpt lat="38.3128305" lon="-2.6998239"><ele>634.0</ele><time>2026-04-13T10:16:28.679Z</time></trkpt><trkpt lat="38.3129878" lon="-2.6997892"><ele>634.0</ele><time>2026-04-13T10:16:29.679Z</time></trkpt><trkpt lat="38.3131479" lon="-2.6997672"><ele>634.0</ele><time>2026-04-13T10:16:30.679Z</time></trkpt><trkpt lat="38.3133096" lon="-2.6997552"><ele>636.3333333333334</ele><time>2026-04-13T10:16:31.679Z</time></trkpt><trkpt lat="38.3134706" lon="-2.6997418"><ele>638.6666666666666</ele><time>2026-04-13T10:16:32.679Z</time></trkpt><trkpt lat="38.3136324" lon="-2.6997207"><ele>641.0</ele><time>2026-04-13T10:16:33.679Z</time></trkpt><trkpt lat="38.313791" lon="-2.6996915"><ele>641.0</ele><time>2026-04-13T10:16:34.679Z</time></trkpt><trkpt lat="38.3139481" lon="-2.699655"><ele>641.0</ele><time>2026-04-13T10:16:35.679Z</time></trkpt><trkpt lat="38.3140995" lon="-2.699616"><ele>641.0</ele><time>2026-04-13T10:16:36.679Z</time></trkpt><trkpt lat="38.3142496" lon="-2.6995769"><ele>641.0</ele><time>2026-04-13T10:16:37.679Z</time></trkpt><trkpt lat="38.3143896" lon="-2.6995397"><ele>641.0</ele><time>2026-04-13T10:16:38.679Z</time></trkpt><trkpt lat="38.31452" lon="-2.6995045"><ele>641.0</ele><time>2026-04-13T10:16:39.679Z</time></trkpt><trkpt lat="38.3146445" lon="-2.6994684"><ele>641.0</ele><time>2026-04-13T10:16:40.679Z</time></trkpt><trkpt lat="38.3147536" lon="-2.6994274"><ele>638.6666666666666</ele><time>2026-04-13T10:16:41.679Z</time></trkpt><trkpt lat="38.3148401" lon="-2.699374"><ele>636.3333333333333</ele><time>2026-04-13T10:16:42.679Z</time></trkpt><trkpt lat="38.3149051" lon="-2.6993025"><ele>634.0</ele><time>2026-04-13T10:16:43.679Z</time></trkpt><trkpt lat="38.3149452" lon="-2.6992105"><ele>631.6666666666666</ele><time>2026-04-13T10:16:44.679Z</time></trkpt><trkpt lat="38.3149571" lon="-2.6991045"><ele>629.3333333333334</ele><time>2026-04-13T10:16:45.679Z</time></trkpt><trkpt lat="38.3149505" lon="-2.6989882"><ele>627.0</ele><time>2026-04-13T10:16:46.679Z</time></trkpt><trkpt lat="38.3149389" lon="-2.6988607"><ele>627.0</ele><time>2026-04-13T10:16:47.679Z</time></trkpt><trkpt lat="38.3149234" lon="-2.6987339"><ele>627.0</ele><time>2026-04-13T10:16:48.679Z</time></trkpt><trkpt lat="38.3149086" lon="-2.6985984"><ele>627.0</ele><time>2026-04-13T10:16:49.679Z</time></trkpt><trkpt lat="38.314894" lon="-2.6984665"><ele>627.0</ele><time>2026-04-13T10:16:50.679Z</time></trkpt><trkpt lat="38.3148917" lon="-2.6983357"><ele>627.0</ele><time>2026-04-13T10:16:51.679Z</time></trkpt><trkpt lat="38.3149155" lon="-2.6982098"><ele>626.6</ele><time>2026-04-13T10:16:52.679Z</time></trkpt><trkpt lat="38.3149733" lon="-2.6981014"><ele>626.2</ele><time>2026-04-13T10:16:53.679Z</time></trkpt><trkpt lat="38.3150627" lon="-2.6980218"><ele>625.8</ele><time>2026-04-13T10:16:54.679Z</time></trkpt><trkpt lat="38.3151668" lon="-2.6979718"><ele>625.4</ele><time>2026-04-13T10:16:55.679Z</time></trkpt><trkpt lat="38.3152738" lon="-2.6979433"><ele>625.0</ele><time>2026-04-13T10:16:56.679Z</time></trkpt><trkpt lat="38.3153794" lon="-2.6979276"><ele>625.0</ele><time>2026-04-13T10:16:57.679Z</time></trkpt><trkpt lat="38.3154784" lon="-2.6979158"><ele>625.0</ele><time>2026-04-13T10:16:58.679Z</time></trkpt><trkpt lat="38.3155756" lon="-2.6979029"><ele>625.0</ele><time>2026-04-13T10:16:59.679Z</time></trkpt><trkpt lat="38.3156682" lon="-2.6978909"><ele>625.0</ele><time>2026-04-13T10:17:00.679Z</time></trkpt><trkpt lat="38.3157502" lon="-2.6978825"><ele>625.0</ele><time>2026-04-13T10:17:01.679Z</time></trkpt><trkpt lat="38.3158264" lon="-2.6978767"><ele>625.0</ele><time>2026-04-13T10:17:02.679Z</time></trkpt><trkpt lat="38.3158983" lon="-2.6978681"><ele>624.8</ele><time>2026-04-13T10:17:03.679Z</time></trkpt><trkpt lat="38.3159693" lon="-2.6978452"><ele>624.6</ele><time>2026-04-13T10:17:04.679Z</time></trkpt><trkpt lat="38.3160481" lon="-2.6978115"><ele>624.4</ele><time>2026-04-13T10:17:05.679Z</time></trkpt><trkpt lat="38.3161383" lon="-2.6977759"><ele>624.2</ele><time>2026-04-13T10:17:06.679Z</time></trkpt><trkpt lat="38.316237" lon="-2.6977529"><ele>624.0</ele><time>2026-04-13T10:17:07.679Z</time></trkpt><trkpt lat="38.316338" lon="-2.6977423"><ele>625.2</ele><time>2026-04-13T10:17:08.679Z</time></trkpt><trkpt lat="38.3164415" lon="-2.6977345"><ele>626.4</ele><time>2026-04-13T10:17:09.679Z</time></trkpt><trkpt lat="38.3165445" lon="-2.6977281"><ele>627.6</ele><time>2026-04-13T10:17:10.679Z</time></trkpt><trkpt lat="38.3166493" lon="-2.697722"><ele>628.8</ele><time>2026-04-13T10:17:11.679Z</time></trkpt><trkpt lat="38.3167556" lon="-2.6977154"><ele>630.0</ele><time>2026-04-13T10:17:12.679Z</time></trkpt><trkpt lat="38.3168628" lon="-2.6977082"><ele>630.0</ele><time>2026-04-13T10:17:13.678Z</time></trkpt><trkpt lat="38.3169768" lon="-2.6977002"><ele>630.0</ele><time>2026-04-13T10:17:14.679Z</time></trkpt><trkpt lat="38.3170995" lon="-2.6976922"><ele>630.0</ele><time>2026-04-13T10:17:15.679Z</time></trkpt><trkpt lat="38.3172233" lon="-2.6976846"><ele>630.0</ele><time>2026-04-13T10:17:16.679Z</time></trkpt><trkpt lat="38.3173488" lon="-2.6976765"><ele>629.0</ele><time>2026-04-13T10:17:17.679Z</time></trkpt><trkpt lat="38.3174727" lon="-2.6976689"><ele>628.0</ele><time>2026-04-13T10:17:18.68Z</time></trkpt><trkpt lat="38.3175962" lon="-2.6976632"><ele>627.0</ele><time>2026-04-13T10:17:19.679Z</time></trkpt><trkpt lat="38.3177186" lon="-2.6976599"><ele>626.0</ele><time>2026-04-13T10:17:20.679Z</time></trkpt><trkpt lat="38.3178408" lon="-2.6976593"><ele>626.0</ele><time>2026-04-13T10:17:21.679Z</time></trkpt><trkpt lat="38.3179655" lon="-2.6976625"><ele>626.0</ele><time>2026-04-13T10:17:22.679Z</time></trkpt><trkpt lat="38.3180951" lon="-2.6976674"><ele>626.0</ele><time>2026-04-13T10:17:23.679Z</time></trkpt><trkpt lat="38.3182299" lon="-2.6976739"><ele>626.0</ele><time>2026-04-13T10:17:24.679Z</time></trkpt><trkpt lat="38.3183719" lon="-2.6976817"><ele>625.0</ele><time>2026-04-13T10:17:25.679Z</time></trkpt><trkpt lat="38.3185127" lon="-2.6976926"><ele>624.0</ele><time>2026-04-13T10:17:26.679Z</time></trkpt><trkpt lat="38.3186495" lon="-2.6977046"><ele>623.0</ele><time>2026-04-13T10:17:27.679Z</time></trkpt><trkpt lat="38.3187892" lon="-2.6977175"><ele>622.0</ele><time>2026-04-13T10:17:28.679Z</time></trkpt><trkpt lat="38.318938" lon="-2.6977434"><ele>620.3333333333334</ele><time>2026-04-13T10:17:29.679Z</time></trkpt><trkpt lat="38.3190968" lon="-2.6977762"><ele>618.6666666666666</ele><time>2026-04-13T10:17:30.679Z</time></trkpt><trkpt lat="38.3192647" lon="-2.6978044"><ele>617.0</ele><time>2026-04-13T10:17:31.679Z</time></trkpt><trkpt lat="38.3194392" lon="-2.6978247"><ele>617.0</ele><time>2026-04-13T10:17:32.679Z</time></trkpt><trkpt lat="38.3196214" lon="-2.6978415"><ele>617.0</ele><time>2026-04-13T10:17:33.679Z</time></trkpt><trkpt lat="38.3198112" lon="-2.6978526"><ele>617.0</ele><time>2026-04-13T10:17:34.679Z</time></trkpt><trkpt lat="38.3200058" lon="-2.6978592"><ele>616.6666666666666</ele><time>2026-04-13T10:17:35.679Z</time></trkpt><trkpt lat="38.3202038" lon="-2.6978687"><ele>616.3333333333334</ele><time>2026-04-13T10:17:36.679Z</time></trkpt><trkpt lat="38.3204049" lon="-2.6978815"><ele>616.0</ele><time>2026-04-13T10:17:37.679Z</time></trkpt><trkpt lat="38.3206099" lon="-2.6979008"><ele>615.6666666666667</ele><time>2026-04-13T10:17:38.679Z</time></trkpt><trkpt lat="38.3208203" lon="-2.697923"><ele>615.3333333333334</ele><time>2026-04-13T10:17:39.679Z</time></trkpt><trkpt lat="38.3210328" lon="-2.6979456"><ele>615.0</ele><time>2026-04-13T10:17:40.679Z</time></trkpt><trkpt lat="38.3212463" lon="-2.6979674"><ele>615.6666666666666</ele><time>2026-04-13T10:17:41.679Z</time></trkpt><trkpt lat="38.3214619" lon="-2.6979902"><ele>616.3333333333333</ele><time>2026-04-13T10:17:42.679Z</time></trkpt><trkpt lat="38.3216775" lon="-2.6980175"><ele>617.0</ele><time>2026-04-13T10:17:43.679Z</time></trkpt><trkpt lat="38.3218917" lon="-2.6980571"><ele>617.0</ele><time>2026-04-13T10:17:44.679Z</time></trkpt><trkpt lat="38.3221068" lon="-2.6981099"><ele>617.0</ele><time>2026-04-13T10:17:45.679Z</time></trkpt><trkpt lat="38.3223197" lon="-2.6981754"><ele>617.0</ele><time>2026-04-13T10:17:46.679Z</time></trkpt><trkpt lat="38.3225329" lon="-2.6982549"><ele>616.0</ele><time>2026-04-13T10:17:47.679Z</time></trkpt><trkpt lat="38.3227431" lon="-2.6983474"><ele>615.0</ele><time>2026-04-13T10:17:48.679Z</time></trkpt><trkpt lat="38.3229524" lon="-2.6984497"><ele>614.0</ele><time>2026-04-13T10:17:49.679Z</time></trkpt><trkpt lat="38.3231619" lon="-2.6985596"><ele>614.5</ele><time>2026-04-13T10:17:50.679Z</time></trkpt><trkpt lat="38.3233707" lon="-2.6986701"><ele>615.0</ele><time>2026-04-13T10:17:51.679Z</time></trkpt><trkpt lat="38.3235827" lon="-2.698783"><ele>615.0</ele><time>2026-04-13T10:17:52.679Z</time></trkpt><trkpt lat="38.3237964" lon="-2.6988977"><ele>615.0</ele><time>2026-04-13T10:17:53.679Z</time></trkpt><trkpt lat="38.3240095" lon="-2.6990118"><ele>615.5</ele><time>2026-04-13T10:17:54.679Z</time></trkpt><trkpt lat="38.3242238" lon="-2.6991222"><ele>616.0</ele><time>2026-04-13T10:17:55.679Z</time></trkpt><trkpt lat="38.3244412" lon="-2.6992229"><ele>616.0</ele><time>2026-04-13T10:17:56.679Z</time></trkpt><trkpt lat="38.3246662" lon="-2.6993143"><ele>616.0</ele><time>2026-04-13T10:17:57.679Z</time></trkpt><trkpt lat="38.324896" lon="-2.6993924"><ele>615.0</ele><time>2026-04-13T10:17:58.679Z</time></trkpt><trkpt lat="38.325128" lon="-2.699456"><ele>614.0</ele><time>2026-04-13T10:17:59.679Z</time></trkpt><trkpt lat="38.3253586" lon="-2.6995061"><ele>614.0</ele><time>2026-04-13T10:18:00.679Z</time></trkpt><trkpt lat="38.3255901" lon="-2.6995502"><ele>614.0</ele><time>2026-04-13T10:18:01.679Z</time></trkpt><trkpt lat="38.3258203" lon="-2.6995942"><ele>614.0</ele><time>2026-04-13T10:18:02.679Z</time></trkpt><trkpt lat="38.3260482" lon="-2.6996475"><ele>614.0</ele><time>2026-04-13T10:18:03.679Z</time></trkpt><trkpt lat="38.3262745" lon="-2.6997126"><ele>614.0</ele><time>2026-04-13T10:18:04.679Z</time></trkpt><trkpt lat="38.3264982" lon="-2.6997819"><ele>614.0</ele><time>2026-04-13T10:18:05.679Z</time></trkpt><trkpt lat="38.3267217" lon="-2.6998435"><ele>614.0</ele><time>2026-04-13T10:18:06.679Z</time></trkpt><trkpt lat="38.3269469" lon="-2.6998833"><ele>614.0</ele><time>2026-04-13T10:18:07.679Z</time></trkpt><trkpt lat="38.3271741" lon="-2.6999004"><ele>613.5</ele><time>2026-04-13T10:18:08.679Z</time></trkpt><trkpt lat="38.327402" lon="-2.6998978"><ele>613.0</ele><time>2026-04-13T10:18:09.679Z</time></trkpt><trkpt lat="38.3276298" lon="-2.6998855"><ele>613.0</ele><time>2026-04-13T10:18:10.679Z</time></trkpt><trkpt lat="38.3278548" lon="-2.69987"><ele>613.0</ele><time>2026-04-13T10:18:11.679Z</time></trkpt><trkpt lat="38.3280794" lon="-2.6998524"><ele>612.6666666666667</ele><time>2026-04-13T10:18:12.679Z</time></trkpt><trkpt lat="38.3283013" lon="-2.6998339"><ele>612.3333333333334</ele><time>2026-04-13T10:18:13.679Z</time></trkpt><trkpt lat="38.3285229" lon="-2.6998192"><ele>612.0</ele><time>2026-04-13T10:18:14.679Z</time></trkpt><trkpt lat="38.3287423" lon="-2.6998083"><ele>612.0</ele><time>2026-04-13T10:18:15.679Z</time></trkpt><trkpt lat="38.328962" lon="-2.6998023"><ele>612.0</ele><time>2026-04-13T10:18:16.679Z</time></trkpt><trkpt lat="38.3291817" lon="-2.6998018"><ele>612.0</ele><time>2026-04-13T10:18:17.679Z</time></trkpt><trkpt lat="38.3294018" lon="-2.6998078"><ele>612.0</ele><time>2026-04-13T10:18:18.679Z</time></trkpt><trkpt lat="38.3296222" lon="-2.6998234"><ele>612.0</ele><time>2026-04-13T10:18:19.679Z</time></trkpt><trkpt lat="38.3298409" lon="-2.6998504"><ele>612.0</ele><time>2026-04-13T10:18:20.679Z</time></trkpt><trkpt lat="38.3300606" lon="-2.6998927"><ele>611.3333333333334</ele><time>2026-04-13T10:18:21.679Z</time></trkpt><trkpt lat="38.3302775" lon="-2.6999557"><ele>610.6666666666667</ele><time>2026-04-13T10:18:22.679Z</time></trkpt><trkpt lat="38.330492" lon="-2.7000382"><ele>610.0</ele><time>2026-04-13T10:18:23.679Z</time></trkpt><trkpt lat="38.3307012" lon="-2.7001365"><ele>607.0</ele><time>2026-04-13T10:18:24.679Z</time></trkpt><trkpt lat="38.3309116" lon="-2.7002521"><ele>604.0</ele><time>2026-04-13T10:18:25.679Z</time></trkpt><trkpt lat="38.3311146" lon="-2.7003823"><ele>604.0</ele><time>2026-04-13T10:18:26.679Z</time></trkpt><trkpt lat="38.3313087" lon="-2.7005314"><ele>604.0</ele><time>2026-04-13T10:18:27.679Z</time></trkpt><trkpt lat="38.331494" lon="-2.7006933"><ele>605.0</ele><time>2026-04-13T10:18:28.679Z</time></trkpt><trkpt lat="38.331677" lon="-2.7008637"><ele>606.0</ele><time>2026-04-13T10:18:29.679Z</time></trkpt><trkpt lat="38.3318562" lon="-2.701041"><ele>604.5</ele><time>2026-04-13T10:18:30.679Z</time></trkpt><trkpt lat="38.3320301" lon="-2.7012267"><ele>603.0</ele><time>2026-04-13T10:18:31.679Z</time></trkpt><trkpt lat="38.3321968" lon="-2.7014216"><ele>604.5</ele><time>2026-04-13T10:18:32.679Z</time></trkpt><trkpt lat="38.3323585" lon="-2.7016274"><ele>606.0</ele><time>2026-04-13T10:18:33.679Z</time></trkpt><trkpt lat="38.3325185" lon="-2.7018397"><ele>603.5</ele><time>2026-04-13T10:18:34.679Z</time></trkpt><trkpt lat="38.3326776" lon="-2.702055"><ele>601.0</ele><time>2026-04-13T10:18:35.679Z</time></trkpt><trkpt lat="38.3328355" lon="-2.7022705"><ele>601.0</ele><time>2026-04-13T10:18:36.679Z</time></trkpt><trkpt lat="38.3329937" lon="-2.7024889"><ele>601.0</ele><time>2026-04-13T10:18:37.679Z</time></trkpt><trkpt lat="38.3331526" lon="-2.7027072"><ele>600.5</ele><time>2026-04-13T10:18:38.679Z</time></trkpt><trkpt lat="38.3333106" lon="-2.7029227"><ele>600.0</ele><time>2026-04-13T10:18:39.679Z</time></trkpt><trkpt lat="38.333473" lon="-2.7031386"><ele>600.0</ele><time>2026-04-13T10:18:40.679Z</time></trkpt><trkpt lat="38.3336376" lon="-2.7033464"><ele>600.0</ele><time>2026-04-13T10:18:41.679Z</time></trkpt><trkpt lat="38.3338091" lon="-2.7035459"><ele>601.5</ele><time>2026-04-13T10:18:42.679Z</time></trkpt><trkpt lat="38.3339869" lon="-2.7037318"><ele>603.0</ele><time>2026-04-13T10:18:43.679Z</time></trkpt><trkpt lat="38.3341705" lon="-2.7039055"><ele>603.0</ele><time>2026-04-13T10:18:44.679Z</time></trkpt><trkpt lat="38.3343613" lon="-2.7040681"><ele>603.0</ele><time>2026-04-13T10:18:45.679Z</time></trkpt><trkpt lat="38.3345594" lon="-2.7042205"><ele>601.0</ele><time>2026-04-13T10:18:46.679Z</time></trkpt><trkpt lat="38.3347618" lon="-2.7043684"><ele>599.0</ele><time>2026-04-13T10:18:47.679Z</time></trkpt><trkpt lat="38.3349667" lon="-2.7045111"><ele>599.0</ele><time>2026-04-13T10:18:48.679Z</time></trkpt><trkpt lat="38.3351744" lon="-2.7046533"><ele>599.0</ele><time>2026-04-13T10:18:49.679Z</time></trkpt><trkpt lat="38.3353813" lon="-2.7047947"><ele>602.5</ele><time>2026-04-13T10:18:50.679Z</time></trkpt><trkpt lat="38.3355899" lon="-2.7049384"><ele>606.0</ele><time>2026-04-13T10:18:51.679Z</time></trkpt><trkpt lat="38.3357984" lon="-2.7050844"><ele>606.0</ele><time>2026-04-13T10:18:52.679Z</time></trkpt><trkpt lat="38.336006" lon="-2.7052288"><ele>606.0</ele><time>2026-04-13T10:18:53.679Z</time></trkpt><trkpt lat="38.3362128" lon="-2.705373"><ele>603.0</ele><time>2026-04-13T10:18:54.679Z</time></trkpt><trkpt lat="38.3364172" lon="-2.7055173"><ele>600.0</ele><time>2026-04-13T10:18:55.679Z</time></trkpt><trkpt lat="38.3366212" lon="-2.7056608"><ele>600.0</ele><time>2026-04-13T10:18:56.679Z</time></trkpt><trkpt lat="38.3368241" lon="-2.7058039"><ele>600.0</ele><time>2026-04-13T10:18:57.679Z</time></trkpt><trkpt lat="38.3370249" lon="-2.7059451"><ele>598.5</ele><time>2026-04-13T10:18:58.679Z</time></trkpt><trkpt lat="38.3372266" lon="-2.7060831"><ele>597.0</ele><time>2026-04-13T10:18:59.679Z</time></trkpt><trkpt lat="38.3374292" lon="-2.7062218"><ele>597.0</ele><time>2026-04-13T10:19:00.679Z</time></trkpt><trkpt lat="38.3376278" lon="-2.7063659"><ele>597.0</ele><time>2026-04-13T10:19:01.679Z</time></trkpt><trkpt lat="38.3378209" lon="-2.7065226"><ele>597.0</ele><time>2026-04-13T10:19:02.679Z</time></trkpt><trkpt lat="38.3380044" lon="-2.7067004"><ele>597.0</ele><time>2026-04-13T10:19:03.679Z</time></trkpt><trkpt lat="38.3381756" lon="-2.7069009"><ele>596.0</ele><time>2026-04-13T10:19:04.68Z</time></trkpt><trkpt lat="38.3383313" lon="-2.7071226"><ele>595.0</ele><time>2026-04-13T10:19:05.679Z</time></trkpt><trkpt lat="38.338468" lon="-2.707362"><ele>595.0</ele><time>2026-04-13T10:19:06.679Z</time></trkpt><trkpt lat="38.3385874" lon="-2.7076162"><ele>595.0</ele><time>2026-04-13T10:19:07.679Z</time></trkpt><trkpt lat="38.3386825" lon="-2.7078788"><ele>594.0</ele><time>2026-04-13T10:19:08.679Z</time></trkpt><trkpt lat="38.3387576" lon="-2.7081421"><ele>593.0</ele><time>2026-04-13T10:19:09.679Z</time></trkpt><trkpt lat="38.3388225" lon="-2.7084041"><ele>592.0</ele><time>2026-04-13T10:19:10.679Z</time></trkpt><trkpt lat="38.3388855" lon="-2.7086646"><ele>591.0</ele><time>2026-04-13T10:19:11.679Z</time></trkpt><trkpt lat="38.3389488" lon="-2.7089172"><ele>590.0</ele><time>2026-04-13T10:19:12.679Z</time></trkpt><trkpt lat="38.3390107" lon="-2.7091547"><ele>589.0</ele><time>2026-04-13T10:19:13.679Z</time></trkpt><trkpt lat="38.3390784" lon="-2.7093804"><ele>588.6666666666667</ele><time>2026-04-13T10:19:14.679Z</time></trkpt><trkpt lat="38.3391569" lon="-2.709596"><ele>588.3333333333334</ele><time>2026-04-13T10:19:15.679Z</time></trkpt><trkpt lat="38.3392484" lon="-2.7097968"><ele>588.0</ele><time>2026-04-13T10:19:16.679Z</time></trkpt><trkpt lat="38.3393524" lon="-2.7099795"><ele>588.0</ele><time>2026-04-13T10:19:17.679Z</time></trkpt><trkpt lat="38.3394691" lon="-2.7101381"><ele>588.0</ele><time>2026-04-13T10:19:18.679Z</time></trkpt><trkpt lat="38.3395983" lon="-2.7102775"><ele>588.0</ele><time>2026-04-13T10:19:19.679Z</time></trkpt><trkpt lat="38.3397338" lon="-2.7103964"><ele>588.3333333333334</ele><time>2026-04-13T10:19:20.679Z</time></trkpt><trkpt lat="38.3398735" lon="-2.7104976"><ele>588.6666666666667</ele><time>2026-04-13T10:19:21.679Z</time></trkpt><trkpt lat="38.340015" lon="-2.7105793"><ele>589.0</ele><time>2026-04-13T10:19:22.679Z</time></trkpt><trkpt lat="38.3401572" lon="-2.7106486"><ele>589.0</ele><time>2026-04-13T10:19:23.679Z</time></trkpt><trkpt lat="38.3402942" lon="-2.7107081"><ele>589.0</ele><time>2026-04-13T10:19:24.679Z</time></trkpt><trkpt lat="38.3404133" lon="-2.7107562"><ele>589.0</ele><time>2026-04-13T10:19:25.679Z</time></trkpt><trkpt lat="38.3405218" lon="-2.7108056"><ele>589.0</ele><time>2026-04-13T10:19:26.679Z</time></trkpt><trkpt lat="38.3406204" lon="-2.7108605"><ele>589.5</ele><time>2026-04-13T10:19:27.679Z</time></trkpt><trkpt lat="38.3407018" lon="-2.710909"><ele>590.0</ele><time>2026-04-13T10:19:28.679Z</time></trkpt><trkpt lat="38.3407699" lon="-2.7109441"><ele>590.5</ele><time>2026-04-13T10:19:29.679Z</time></trkpt><trkpt lat="38.3408328" lon="-2.7109609"><ele>591.0</ele><time>2026-04-13T10:19:30.679Z</time></trkpt><trkpt lat="38.340935" lon="-2.7109046"><ele>591.5</ele><time>2026-04-13T10:19:32.679Z</time></trkpt><trkpt lat="38.3409836" lon="-2.710837"><ele>592.0</ele><time>2026-04-13T10:19:33.679Z</time></trkpt><trkpt lat="38.3410394" lon="-2.7107492"><ele>592.0</ele><time>2026-04-13T10:19:34.679Z</time></trkpt><trkpt lat="38.3410999" lon="-2.7106533"><ele>592.0</ele><time>2026-04-13T10:19:35.679Z</time></trkpt><trkpt lat="38.3411643" lon="-2.7105471"><ele>592.0</ele><time>2026-04-13T10:19:36.679Z</time></trkpt><trkpt lat="38.3412322" lon="-2.710427"><ele>592.0</ele><time>2026-04-13T10:19:37.679Z</time></trkpt><trkpt lat="38.3413016" lon="-2.7102918"><ele>592.0</ele><time>2026-04-13T10:19:38.679Z</time></trkpt><trkpt lat="38.3413723" lon="-2.7101411"><ele>592.75</ele><time>2026-04-13T10:19:39.679Z</time></trkpt><trkpt lat="38.3414413" lon="-2.7099883"><ele>593.5</ele><time>2026-04-13T10:19:40.679Z</time></trkpt><trkpt lat="38.3415132" lon="-2.7098299"><ele>594.25</ele><time>2026-04-13T10:19:41.679Z</time></trkpt><trkpt lat="38.3415859" lon="-2.7096672"><ele>595.0</ele><time>2026-04-13T10:19:42.679Z</time></trkpt><trkpt lat="38.3416621" lon="-2.7094999"><ele>595.3333333333334</ele><time>2026-04-13T10:19:43.679Z</time></trkpt><trkpt lat="38.3417403" lon="-2.7093245"><ele>595.6666666666666</ele><time>2026-04-13T10:19:44.679Z</time></trkpt><trkpt lat="38.3418216" lon="-2.709142"><ele>596.0</ele><time>2026-04-13T10:19:45.679Z</time></trkpt><trkpt lat="38.341906" lon="-2.7089512"><ele>596.0</ele><time>2026-04-13T10:19:46.679Z</time></trkpt><trkpt lat="38.3419951" lon="-2.7087499"><ele>596.0</ele><time>2026-04-13T10:19:47.679Z</time></trkpt><trkpt lat="38.3420841" lon="-2.7085497"><ele>596.0</ele><time>2026-04-13T10:19:48.68Z</time></trkpt><trkpt lat="38.3421815" lon="-2.7083481"><ele>596.6666666666666</ele><time>2026-04-13T10:19:49.679Z</time></trkpt><trkpt lat="38.3422892" lon="-2.7081491"><ele>597.3333333333334</ele><time>2026-04-13T10:19:50.679Z</time></trkpt><trkpt lat="38.3424084" lon="-2.7079494"><ele>598.0</ele><time>2026-04-13T10:19:51.679Z</time></trkpt><trkpt lat="38.3425375" lon="-2.7077485"><ele>597.0</ele><time>2026-04-13T10:19:52.679Z</time></trkpt><trkpt lat="38.3426725" lon="-2.7075453"><ele>596.0</ele><time>2026-04-13T10:19:53.679Z</time></trkpt><trkpt lat="38.3428129" lon="-2.7073376"><ele>595.0</ele><time>2026-04-13T10:19:54.679Z</time></trkpt><trkpt lat="38.3429547" lon="-2.707127"><ele>595.0</ele><time>2026-04-13T10:19:55.679Z</time></trkpt><trkpt lat="38.3431002" lon="-2.7069115"><ele>595.0</ele><time>2026-04-13T10:19:56.679Z</time></trkpt><trkpt lat="38.3432483" lon="-2.7066929"><ele>595.0</ele><time>2026-04-13T10:19:57.679Z</time></trkpt><trkpt lat="38.3433961" lon="-2.7064742"><ele>595.0</ele><time>2026-04-13T10:19:58.679Z</time></trkpt><trkpt lat="38.3435447" lon="-2.7062534"><ele>594.5</ele><time>2026-04-13T10:19:59.679Z</time></trkpt><trkpt lat="38.3436921" lon="-2.7060317"><ele>594.0</ele><time>2026-04-13T10:20:00.679Z</time></trkpt><trkpt lat="38.3438387" lon="-2.7058102"><ele>597.0</ele><time>2026-04-13T10:20:01.68Z</time></trkpt><trkpt lat="38.343985" lon="-2.705589"><ele>600.0</ele><time>2026-04-13T10:20:02.679Z</time></trkpt><trkpt lat="38.3441309" lon="-2.7053695"><ele>598.0</ele><time>2026-04-13T10:20:03.679Z</time></trkpt><trkpt lat="38.3442785" lon="-2.705152"><ele>596.0</ele><time>2026-04-13T10:20:04.679Z</time></trkpt><trkpt lat="38.3444251" lon="-2.7049351"><ele>596.0</ele><time>2026-04-13T10:20:05.679Z</time></trkpt><trkpt lat="38.3445709" lon="-2.7047166"><ele>596.0</ele><time>2026-04-13T10:20:06.679Z</time></trkpt><trkpt lat="38.3447152" lon="-2.704499"><ele>596.0</ele><time>2026-04-13T10:20:07.679Z</time></trkpt><trkpt lat="38.3448571" lon="-2.7042835"><ele>596.3333333333333</ele><time>2026-04-13T10:20:08.679Z</time></trkpt><trkpt lat="38.3449959" lon="-2.7040735"><ele>596.6666666666666</ele><time>2026-04-13T10:20:09.679Z</time></trkpt><trkpt lat="38.3451331" lon="-2.703866"><ele>597.0</ele><time>2026-04-13T10:20:10.679Z</time></trkpt><trkpt lat="38.3452673" lon="-2.7036632"><ele>597.6666666666666</ele><time>2026-04-13T10:20:11.679Z</time></trkpt><trkpt lat="38.3453998" lon="-2.703465"><ele>598.3333333333333</ele><time>2026-04-13T10:20:12.679Z</time></trkpt><trkpt lat="38.3455357" lon="-2.703269"><ele>599.0</ele><time>2026-04-13T10:20:13.679Z</time></trkpt><trkpt lat="38.3456839" lon="-2.7030882"><ele>599.0</ele><time>2026-04-13T10:20:14.679Z</time></trkpt><trkpt lat="38.3458484" lon="-2.7029217"><ele>599.0</ele><time>2026-04-13T10:20:15.679Z</time></trkpt><trkpt lat="38.3460291" lon="-2.7027744"><ele>599.0</ele><time>2026-04-13T10:20:16.679Z</time></trkpt><trkpt lat="38.3462217" lon="-2.7026414"><ele>598.0</ele><time>2026-04-13T10:20:17.679Z</time></trkpt><trkpt lat="38.3464239" lon="-2.7025162"><ele>597.0</ele><time>2026-04-13T10:20:18.679Z</time></trkpt><trkpt lat="38.3466309" lon="-2.7023928"><ele>597.0</ele><time>2026-04-13T10:20:19.679Z</time></trkpt><trkpt lat="38.3468385" lon="-2.7022691"><ele>597.0</ele><time>2026-04-13T10:20:20.68Z</time></trkpt><trkpt lat="38.347047" lon="-2.7021444"><ele>597.0</ele><time>2026-04-13T10:20:21.679Z</time></trkpt><trkpt lat="38.347255" lon="-2.7020187"><ele>597.0</ele><time>2026-04-13T10:20:22.679Z</time></trkpt><trkpt lat="38.3474624" lon="-2.7018944"><ele>597.0</ele><time>2026-04-13T10:20:23.679Z</time></trkpt><trkpt lat="38.3476663" lon="-2.7017708"><ele>597.0</ele><time>2026-04-13T10:20:24.679Z</time></trkpt><trkpt lat="38.3478707" lon="-2.7016477"><ele>598.0</ele><time>2026-04-13T10:20:25.679Z</time></trkpt><trkpt lat="38.3480749" lon="-2.7015267"><ele>599.0</ele><time>2026-04-13T10:20:26.679Z</time></trkpt><trkpt lat="38.348277" lon="-2.7014044"><ele>600.0</ele><time>2026-04-13T10:20:27.679Z</time></trkpt><trkpt lat="38.3484755" lon="-2.7012822"><ele>600.0</ele><time>2026-04-13T10:20:28.679Z</time></trkpt><trkpt lat="38.3486732" lon="-2.7011599"><ele>600.0</ele><time>2026-04-13T10:20:29.679Z</time></trkpt><trkpt lat="38.3488692" lon="-2.7010402"><ele>600.0</ele><time>2026-04-13T10:20:30.679Z</time></trkpt><trkpt lat="38.3490658" lon="-2.7009309"><ele>600.0</ele><time>2026-04-13T10:20:31.679Z</time></trkpt><trkpt lat="38.3492656" lon="-2.7008442"><ele>600.0</ele><time>2026-04-13T10:20:32.679Z</time></trkpt><trkpt lat="38.3494734" lon="-2.7007896"><ele>600.0</ele><time>2026-04-13T10:20:33.679Z</time></trkpt><trkpt lat="38.3496894" lon="-2.7007656"><ele>599.3333333333334</ele><time>2026-04-13T10:20:34.679Z</time></trkpt><trkpt lat="38.3499104" lon="-2.7007571"><ele>598.6666666666667</ele><time>2026-04-13T10:20:35.679Z</time></trkpt><trkpt lat="38.3501344" lon="-2.7007554"><ele>598.0</ele><time>2026-04-13T10:20:36.679Z</time></trkpt><trkpt lat="38.3503593" lon="-2.7007528"><ele>598.0</ele><time>2026-04-13T10:20:37.679Z</time></trkpt><trkpt lat="38.3505863" lon="-2.7007487"><ele>598.0</ele><time>2026-04-13T10:20:38.679Z</time></trkpt><trkpt lat="38.3508159" lon="-2.7007434"><ele>598.0</ele><time>2026-04-13T10:20:39.679Z</time></trkpt><trkpt lat="38.3510464" lon="-2.700738"><ele>598.0</ele><time>2026-04-13T10:20:40.679Z</time></trkpt><trkpt lat="38.3512792" lon="-2.7007319"><ele>598.5</ele><time>2026-04-13T10:20:41.679Z</time></trkpt><trkpt lat="38.3515136" lon="-2.7007252"><ele>599.0</ele><time>2026-04-13T10:20:42.679Z</time></trkpt><trkpt lat="38.3517463" lon="-2.7007195"><ele>599.0</ele><time>2026-04-13T10:20:43.679Z</time></trkpt><trkpt lat="38.3519771" lon="-2.7007141"><ele>599.0</ele><time>2026-04-13T10:20:44.679Z</time></trkpt><trkpt lat="38.3522078" lon="-2.7007078"><ele>600.0</ele><time>2026-04-13T10:20:45.679Z</time></trkpt><trkpt lat="38.3524368" lon="-2.7007015"><ele>601.0</ele><time>2026-04-13T10:20:46.679Z</time></trkpt><trkpt lat="38.3526631" lon="-2.7006953"><ele>601.0</ele><time>2026-04-13T10:20:47.679Z</time></trkpt><trkpt lat="38.3528871" lon="-2.7006883"><ele>601.0</ele><time>2026-04-13T10:20:48.679Z</time></trkpt><trkpt lat="38.3531062" lon="-2.7006717"><ele>601.0</ele><time>2026-04-13T10:20:49.68Z</time></trkpt><trkpt lat="38.3533219" lon="-2.7006369"><ele>602.3333333333334</ele><time>2026-04-13T10:20:50.679Z</time></trkpt><trkpt lat="38.3535284" lon="-2.7005751"><ele>603.6666666666666</ele><time>2026-04-13T10:20:51.679Z</time></trkpt><trkpt lat="38.3537217" lon="-2.7004788"><ele>605.0</ele><time>2026-04-13T10:20:52.679Z</time></trkpt><trkpt lat="38.3539047" lon="-2.7003494"><ele>604.3333333333333</ele><time>2026-04-13T10:20:53.679Z</time></trkpt><trkpt lat="38.3540773" lon="-2.7001928"><ele>603.6666666666666</ele><time>2026-04-13T10:20:54.679Z</time></trkpt><trkpt lat="38.3542487" lon="-2.7000191"><ele>603.0</ele><time>2026-04-13T10:20:55.679Z</time></trkpt><trkpt lat="38.3544181" lon="-2.6998372"><ele>603.0</ele><time>2026-04-13T10:20:56.679Z</time></trkpt><trkpt lat="38.354587" lon="-2.6996526"><ele>603.0</ele><time>2026-04-13T10:20:57.679Z</time></trkpt><trkpt lat="38.3547534" lon="-2.6994593"><ele>603.0</ele><time>2026-04-13T10:20:58.679Z</time></trkpt><trkpt lat="38.3549163" lon="-2.6992563"><ele>603.5</ele><time>2026-04-13T10:20:59.679Z</time></trkpt><trkpt lat="38.3550811" lon="-2.6990528"><ele>604.0</ele><time>2026-04-13T10:21:00.679Z</time></trkpt><trkpt lat="38.3552485" lon="-2.6988527"><ele>604.0</ele><time>2026-04-13T10:21:01.679Z</time></trkpt><trkpt lat="38.355419" lon="-2.6986573"><ele>604.0</ele><time>2026-04-13T10:21:02.679Z</time></trkpt><trkpt lat="38.3555927" lon="-2.6984684"><ele>604.5</ele><time>2026-04-13T10:21:03.679Z</time></trkpt><trkpt lat="38.3557707" lon="-2.6982831"><ele>605.0</ele><time>2026-04-13T10:21:04.679Z</time></trkpt><trkpt lat="38.3559525" lon="-2.698102"><ele>605.0</ele><time>2026-04-13T10:21:05.679Z</time></trkpt><trkpt lat="38.3561347" lon="-2.6979179"><ele>605.0</ele><time>2026-04-13T10:21:06.679Z</time></trkpt><trkpt lat="38.3563125" lon="-2.6977308"><ele>605.0</ele><time>2026-04-13T10:21:07.679Z</time></trkpt><trkpt lat="38.3564859" lon="-2.6975414"><ele>605.0</ele><time>2026-04-13T10:21:08.679Z</time></trkpt><trkpt lat="38.3566589" lon="-2.6973495"><ele>605.0</ele><time>2026-04-13T10:21:09.679Z</time></trkpt><trkpt lat="38.356833" lon="-2.697157"><ele>605.0</ele><time>2026-04-13T10:21:10.679Z</time></trkpt><trkpt lat="38.3570074" lon="-2.6969652"><ele>603.0</ele><time>2026-04-13T10:21:11.679Z</time></trkpt><trkpt lat="38.3571793" lon="-2.6967748"><ele>601.0</ele><time>2026-04-13T10:21:12.679Z</time></trkpt><trkpt lat="38.3573517" lon="-2.6965818"><ele>606.0</ele><time>2026-04-13T10:21:13.679Z</time></trkpt><trkpt lat="38.3575242" lon="-2.6963902"><ele>611.0</ele><time>2026-04-13T10:21:14.679Z</time></trkpt><trkpt lat="38.3576968" lon="-2.696199"><ele>612.0</ele><time>2026-04-13T10:21:15.679Z</time></trkpt><trkpt lat="38.3578682" lon="-2.6960076"><ele>613.0</ele><time>2026-04-13T10:21:16.679Z</time></trkpt><trkpt lat="38.358041" lon="-2.6958152"><ele>613.0</ele><time>2026-04-13T10:21:17.679Z</time></trkpt><trkpt lat="38.3582143" lon="-2.695623"><ele>613.0</ele><time>2026-04-13T10:21:18.679Z</time></trkpt><trkpt lat="38.3583885" lon="-2.6954299"><ele>609.0</ele><time>2026-04-13T10:21:19.679Z</time></trkpt><trkpt lat="38.3585623" lon="-2.6952382"><ele>605.0</ele><time>2026-04-13T10:21:20.679Z</time></trkpt><trkpt lat="38.3587381" lon="-2.6950437"><ele>609.0</ele><time>2026-04-13T10:21:21.679Z</time></trkpt><trkpt lat="38.3589139" lon="-2.6948488"><ele>613.0</ele><time>2026-04-13T10:21:22.679Z</time></trkpt><trkpt lat="38.3590893" lon="-2.6946547"><ele>613.0</ele><time>2026-04-13T10:21:23.679Z</time></trkpt><trkpt lat="38.3592637" lon="-2.6944622"><ele>613.0</ele><time>2026-04-13T10:21:24.679Z</time></trkpt><trkpt lat="38.3594395" lon="-2.6942676"><ele>612.0</ele><time>2026-04-13T10:21:25.679Z</time></trkpt><trkpt lat="38.3596144" lon="-2.6940736"><ele>611.0</ele><time>2026-04-13T10:21:26.679Z</time></trkpt><trkpt lat="38.3597898" lon="-2.6938798"><ele>611.0</ele><time>2026-04-13T10:21:27.679Z</time></trkpt><trkpt lat="38.3599639" lon="-2.6936874"><ele>611.0</ele><time>2026-04-13T10:21:28.679Z</time></trkpt><trkpt lat="38.3601391" lon="-2.6934938"><ele>611.5</ele><time>2026-04-13T10:21:29.679Z</time></trkpt><trkpt lat="38.3603145" lon="-2.6932999"><ele>612.0</ele><time>2026-04-13T10:21:30.679Z</time></trkpt><trkpt lat="38.3604911" lon="-2.6931049"><ele>613.0</ele><time>2026-04-13T10:21:31.679Z</time></trkpt><trkpt lat="38.3606666" lon="-2.6929114"><ele>614.0</ele><time>2026-04-13T10:21:32.679Z</time></trkpt><trkpt lat="38.3608433" lon="-2.6927162"><ele>612.0</ele><time>2026-04-13T10:21:33.679Z</time></trkpt><trkpt lat="38.3610201" lon="-2.6925194"><ele>610.0</ele><time>2026-04-13T10:21:34.679Z</time></trkpt><trkpt lat="38.3611949" lon="-2.6923246"><ele>613.5</ele><time>2026-04-13T10:21:35.679Z</time></trkpt><trkpt lat="38.3613705" lon="-2.692132"><ele>617.0</ele><time>2026-04-13T10:21:36.679Z</time></trkpt><trkpt lat="38.3615424" lon="-2.6919414"><ele>615.5</ele><time>2026-04-13T10:21:37.679Z</time></trkpt><trkpt lat="38.361714" lon="-2.6917504"><ele>614.0</ele><time>2026-04-13T10:21:38.679Z</time></trkpt><trkpt lat="38.3618831" lon="-2.6915604"><ele>614.0</ele><time>2026-04-13T10:21:39.679Z</time></trkpt><trkpt lat="38.3620506" lon="-2.6913741"><ele>614.0</ele><time>2026-04-13T10:21:40.679Z</time></trkpt><trkpt lat="38.3622213" lon="-2.6911883"><ele>614.0</ele><time>2026-04-13T10:21:41.679Z</time></trkpt><trkpt lat="38.3623933" lon="-2.6910006"><ele>616.5</ele><time>2026-04-13T10:21:42.679Z</time></trkpt><trkpt lat="38.3625649" lon="-2.6908115"><ele>619.0</ele><time>2026-04-13T10:21:43.68Z</time></trkpt><trkpt lat="38.362736" lon="-2.6906208"><ele>619.0</ele><time>2026-04-13T10:21:44.679Z</time></trkpt><trkpt lat="38.3629088" lon="-2.690428"><ele>619.0</ele><time>2026-04-13T10:21:45.679Z</time></trkpt><trkpt lat="38.363084" lon="-2.6902344"><ele>623.0</ele><time>2026-04-13T10:21:46.68Z</time></trkpt><trkpt lat="38.363261" lon="-2.6900413"><ele>627.0</ele><time>2026-04-13T10:21:47.679Z</time></trkpt><trkpt lat="38.3634372" lon="-2.6898468"><ele>627.0</ele><time>2026-04-13T10:21:48.679Z</time></trkpt><trkpt lat="38.3636118" lon="-2.6896524"><ele>627.0</ele><time>2026-04-13T10:21:49.679Z</time></trkpt><trkpt lat="38.3637861" lon="-2.6894565"><ele>628.0</ele><time>2026-04-13T10:21:50.679Z</time></trkpt><trkpt lat="38.3639605" lon="-2.6892612"><ele>629.0</ele><time>2026-04-13T10:21:51.679Z</time></trkpt><trkpt lat="38.3641344" lon="-2.689067"><ele>629.0</ele><time>2026-04-13T10:21:52.679Z</time></trkpt><trkpt lat="38.3643095" lon="-2.6888725"><ele>629.0</ele><time>2026-04-13T10:21:53.679Z</time></trkpt><trkpt lat="38.3644856" lon="-2.6886774"><ele>629.0</ele><time>2026-04-13T10:21:54.679Z</time></trkpt><trkpt lat="38.3646634" lon="-2.6884786"><ele>629.0</ele><time>2026-04-13T10:21:55.679Z</time></trkpt><trkpt lat="38.3648437" lon="-2.6882762"><ele>629.0</ele><time>2026-04-13T10:21:56.679Z</time></trkpt><trkpt lat="38.3650264" lon="-2.6880704"><ele>629.0</ele><time>2026-04-13T10:21:57.679Z</time></trkpt><trkpt lat="38.3652069" lon="-2.6878638"><ele>628.5</ele><time>2026-04-13T10:21:58.679Z</time></trkpt><trkpt lat="38.3653883" lon="-2.6876535"><ele>628.0</ele><time>2026-04-13T10:21:59.679Z</time></trkpt><trkpt lat="38.3655726" lon="-2.6874401"><ele>631.5</ele><time>2026-04-13T10:22:00.679Z</time></trkpt><trkpt lat="38.365757" lon="-2.6872226"><ele>635.0</ele><time>2026-04-13T10:22:01.679Z</time></trkpt><trkpt lat="38.365942" lon="-2.6869983"><ele>633.0</ele><time>2026-04-13T10:22:02.679Z</time></trkpt><trkpt lat="38.3661304" lon="-2.6867684"><ele>631.0</ele><time>2026-04-13T10:22:03.679Z</time></trkpt><trkpt lat="38.366322" lon="-2.6865355"><ele>632.5</ele><time>2026-04-13T10:22:04.679Z</time></trkpt><trkpt lat="38.3665188" lon="-2.6863018"><ele>634.0</ele><time>2026-04-13T10:22:05.679Z</time></trkpt><trkpt lat="38.3667215" lon="-2.6860735"><ele>634.0</ele><time>2026-04-13T10:22:06.679Z</time></trkpt><trkpt lat="38.3669283" lon="-2.6858373"><ele>634.0</ele><time>2026-04-13T10:22:07.679Z</time></trkpt><trkpt lat="38.3671298" lon="-2.6855891"><ele>635.0</ele><time>2026-04-13T10:22:08.679Z</time></trkpt><trkpt lat="38.3673273" lon="-2.6853285"><ele>636.0</ele><time>2026-04-13T10:22:09.679Z</time></trkpt><trkpt lat="38.3675279" lon="-2.6850632"><ele>636.0</ele><time>2026-04-13T10:22:10.679Z</time></trkpt><trkpt lat="38.3677351" lon="-2.6848032"><ele>636.0</ele><time>2026-04-13T10:22:11.679Z</time></trkpt><trkpt lat="38.3679491" lon="-2.68454"><ele>636.5</ele><time>2026-04-13T10:22:12.679Z</time></trkpt><trkpt lat="38.3681667" lon="-2.6842722"><ele>637.0</ele><time>2026-04-13T10:22:13.679Z</time></trkpt><trkpt lat="38.3683886" lon="-2.6840018"><ele>637.0</ele><time>2026-04-13T10:22:14.679Z</time></trkpt><trkpt lat="38.3686181" lon="-2.6837328"><ele>637.0</ele><time>2026-04-13T10:22:15.679Z</time></trkpt><trkpt lat="38.3688527" lon="-2.6834679"><ele>636.5</ele><time>2026-04-13T10:22:16.679Z</time></trkpt><trkpt lat="38.36909" lon="-2.6831921"><ele>636.0</ele><time>2026-04-13T10:22:17.679Z</time></trkpt><trkpt lat="38.3693243" lon="-2.6829081"><ele>635.5</ele><time>2026-04-13T10:22:18.679Z</time></trkpt><trkpt lat="38.3695527" lon="-2.6826163"><ele>635.0</ele><time>2026-04-13T10:22:19.679Z</time></trkpt><trkpt lat="38.3697743" lon="-2.6823245"><ele>635.0</ele><time>2026-04-13T10:22:20.679Z</time></trkpt><trkpt lat="38.3699934" lon="-2.6820426"><ele>635.0</ele><time>2026-04-13T10:22:21.679Z</time></trkpt><trkpt lat="38.3702138" lon="-2.6817652"><ele>634.5</ele><time>2026-04-13T10:22:22.679Z</time></trkpt><trkpt lat="38.3704316" lon="-2.6814947"><ele>634.0</ele><time>2026-04-13T10:22:23.679Z</time></trkpt><trkpt lat="38.370646" lon="-2.6812304"><ele>634.0</ele><time>2026-04-13T10:22:24.679Z</time></trkpt><trkpt lat="38.3708559" lon="-2.6809726"><ele>634.0</ele><time>2026-04-13T10:22:25.679Z</time></trkpt><trkpt lat="38.3710639" lon="-2.6807175"><ele>634.0</ele><time>2026-04-13T10:22:26.679Z</time></trkpt><trkpt lat="38.3712701" lon="-2.6804662"><ele>634.0</ele><time>2026-04-13T10:22:27.679Z</time></trkpt><trkpt lat="38.3714749" lon="-2.6802183"><ele>632.5</ele><time>2026-04-13T10:22:28.679Z</time></trkpt><trkpt lat="38.3716839" lon="-2.6799699"><ele>631.0</ele><time>2026-04-13T10:22:29.68Z</time></trkpt><trkpt lat="38.3718956" lon="-2.6797202"><ele>631.0</ele><time>2026-04-13T10:22:30.679Z</time></trkpt><trkpt lat="38.3721112" lon="-2.6794747"><ele>631.0</ele><time>2026-04-13T10:22:31.679Z</time></trkpt><trkpt lat="38.3723314" lon="-2.6792244"><ele>631.0</ele><time>2026-04-13T10:22:32.679Z</time></trkpt><trkpt lat="38.3725549" lon="-2.6789738"><ele>631.0</ele><time>2026-04-13T10:22:33.679Z</time></trkpt><trkpt lat="38.3727813" lon="-2.6787225"><ele>628.0</ele><time>2026-04-13T10:22:34.679Z</time></trkpt><trkpt lat="38.3730085" lon="-2.6784686"><ele>625.0</ele><time>2026-04-13T10:22:35.679Z</time></trkpt><trkpt lat="38.3732402" lon="-2.6782124"><ele>625.0</ele><time>2026-04-13T10:22:36.679Z</time></trkpt><trkpt lat="38.3734747" lon="-2.6779544"><ele>625.0</ele><time>2026-04-13T10:22:37.679Z</time></trkpt><trkpt lat="38.3737105" lon="-2.6776946"><ele>625.0</ele><time>2026-04-13T10:22:38.679Z</time></trkpt><trkpt lat="38.3739462" lon="-2.677435"><ele>625.0</ele><time>2026-04-13T10:22:39.679Z</time></trkpt><trkpt lat="38.3741809" lon="-2.6771757"><ele>623.0</ele><time>2026-04-13T10:22:40.679Z</time></trkpt><trkpt lat="38.374414" lon="-2.6769194"><ele>621.0</ele><time>2026-04-13T10:22:41.679Z</time></trkpt><trkpt lat="38.3746461" lon="-2.6766609"><ele>623.5</ele><time>2026-04-13T10:22:42.679Z</time></trkpt><trkpt lat="38.3748761" lon="-2.676406"><ele>626.0</ele><time>2026-04-13T10:22:43.679Z</time></trkpt><trkpt lat="38.375105" lon="-2.6761525"><ele>624.0</ele><time>2026-04-13T10:22:44.679Z</time></trkpt><trkpt lat="38.3753317" lon="-2.6759023"><ele>622.0</ele><time>2026-04-13T10:22:45.679Z</time></trkpt><trkpt lat="38.3755588" lon="-2.6756527"><ele>622.0</ele><time>2026-04-13T10:22:46.679Z</time></trkpt><trkpt lat="38.3757855" lon="-2.6754035"><ele>622.0</ele><time>2026-04-13T10:22:47.679Z</time></trkpt><trkpt lat="38.3760086" lon="-2.6751557"><ele>621.0</ele><time>2026-04-13T10:22:48.679Z</time></trkpt><trkpt lat="38.3762275" lon="-2.6749124"><ele>620.0</ele><time>2026-04-13T10:22:49.679Z</time></trkpt><trkpt lat="38.3764452" lon="-2.6746688"><ele>620.0</ele><time>2026-04-13T10:22:50.679Z</time></trkpt><trkpt lat="38.3766628" lon="-2.6744284"><ele>620.0</ele><time>2026-04-13T10:22:51.679Z</time></trkpt><trkpt lat="38.3768796" lon="-2.6741899"><ele>620.0</ele><time>2026-04-13T10:22:52.679Z</time></trkpt><trkpt lat="38.3770911" lon="-2.6739529"><ele>620.0</ele><time>2026-04-13T10:22:53.679Z</time></trkpt><trkpt lat="38.3773035" lon="-2.6737189"><ele>620.0</ele><time>2026-04-13T10:22:54.679Z</time></trkpt><trkpt lat="38.3775128" lon="-2.6734817"><ele>620.0</ele><time>2026-04-13T10:22:55.679Z</time></trkpt><trkpt lat="38.3777149" lon="-2.6732331"><ele>620.0</ele><time>2026-04-13T10:22:56.68Z</time></trkpt><trkpt lat="38.3779" lon="-2.6729619"><ele>620.0</ele><time>2026-04-13T10:22:57.679Z</time></trkpt><trkpt lat="38.3780598" lon="-2.6726641"><ele>621.5</ele><time>2026-04-13T10:22:58.679Z</time></trkpt><trkpt lat="38.378204" lon="-2.672349"><ele>623.0</ele><time>2026-04-13T10:22:59.679Z</time></trkpt><trkpt lat="38.3783412" lon="-2.6720247"><ele>623.0</ele><time>2026-04-13T10:23:00.679Z</time></trkpt><trkpt lat="38.3784779" lon="-2.6717002"><ele>623.0</ele><time>2026-04-13T10:23:01.679Z</time></trkpt><trkpt lat="38.3786127" lon="-2.6713771"><ele>623.5</ele><time>2026-04-13T10:23:02.679Z</time></trkpt><trkpt lat="38.3787469" lon="-2.671055"><ele>624.0</ele><time>2026-04-13T10:23:03.679Z</time></trkpt><trkpt lat="38.3788802" lon="-2.6707347"><ele>624.0</ele><time>2026-04-13T10:23:04.679Z</time></trkpt><trkpt lat="38.3790112" lon="-2.670417"><ele>624.0</ele><time>2026-04-13T10:23:05.679Z</time></trkpt><trkpt lat="38.3791412" lon="-2.6701058"><ele>624.0</ele><time>2026-04-13T10:23:06.679Z</time></trkpt><trkpt lat="38.3792714" lon="-2.6697945"><ele>624.0</ele><time>2026-04-13T10:23:07.679Z</time></trkpt><trkpt lat="38.3794005" lon="-2.669485"><ele>622.5</ele><time>2026-04-13T10:23:08.679Z</time></trkpt><trkpt lat="38.3795269" lon="-2.6691789"><ele>621.0</ele><time>2026-04-13T10:23:09.679Z</time></trkpt><trkpt lat="38.3796525" lon="-2.668877"><ele>621.5</ele><time>2026-04-13T10:23:10.679Z</time></trkpt><trkpt lat="38.3797866" lon="-2.6685803"><ele>622.0</ele><time>2026-04-13T10:23:11.679Z</time></trkpt><trkpt lat="38.3799386" lon="-2.668298"><ele>622.0</ele><time>2026-04-13T10:23:12.679Z</time></trkpt><trkpt lat="38.380115" lon="-2.6680303"><ele>622.0</ele><time>2026-04-13T10:23:13.679Z</time></trkpt><trkpt lat="38.3803116" lon="-2.6677765"><ele>621.0</ele><time>2026-04-13T10:23:14.68Z</time></trkpt><trkpt lat="38.3805195" lon="-2.6675303"><ele>620.0</ele><time>2026-04-13T10:23:15.679Z</time></trkpt><trkpt lat="38.3807338" lon="-2.667288"><ele>620.0</ele><time>2026-04-13T10:23:16.679Z</time></trkpt><trkpt lat="38.3809507" lon="-2.6670434"><ele>620.0</ele><time>2026-04-13T10:23:17.679Z</time></trkpt><trkpt lat="38.3811688" lon="-2.6667995"><ele>621.5</ele><time>2026-04-13T10:23:18.679Z</time></trkpt><trkpt lat="38.3813856" lon="-2.6665592"><ele>623.0</ele><time>2026-04-13T10:23:19.679Z</time></trkpt><trkpt lat="38.3815979" lon="-2.6663186"><ele>621.0</ele><time>2026-04-13T10:23:20.679Z</time></trkpt><trkpt lat="38.3818088" lon="-2.6660767"><ele>619.0</ele><time>2026-04-13T10:23:21.679Z</time></trkpt><trkpt lat="38.3820167" lon="-2.6658366"><ele>620.0</ele><time>2026-04-13T10:23:22.679Z</time></trkpt><trkpt lat="38.3822212" lon="-2.6655963"><ele>621.0</ele><time>2026-04-13T10:23:23.679Z</time></trkpt><trkpt lat="38.382421" lon="-2.6653571"><ele>620.5</ele><time>2026-04-13T10:23:24.679Z</time></trkpt><trkpt lat="38.3826204" lon="-2.6651162"><ele>620.0</ele><time>2026-04-13T10:23:25.68Z</time></trkpt><trkpt lat="38.3828172" lon="-2.6648763"><ele>620.0</ele><time>2026-04-13T10:23:26.679Z</time></trkpt><trkpt lat="38.3830121" lon="-2.6646354"><ele>620.0</ele><time>2026-04-13T10:23:27.679Z</time></trkpt><trkpt lat="38.3832045" lon="-2.664392"><ele>619.5</ele><time>2026-04-13T10:23:28.679Z</time></trkpt><trkpt lat="38.3833963" lon="-2.6641506"><ele>619.0</ele><time>2026-04-13T10:23:29.679Z</time></trkpt><trkpt lat="38.3835881" lon="-2.663907"><ele>619.0</ele><time>2026-04-13T10:23:30.679Z</time></trkpt><trkpt lat="38.3837786" lon="-2.6636662"><ele>619.0</ele><time>2026-04-13T10:23:31.679Z</time></trkpt><trkpt lat="38.3839697" lon="-2.663427"><ele>622.0</ele><time>2026-04-13T10:23:32.679Z</time></trkpt><trkpt lat="38.3841611" lon="-2.6631903"><ele>625.0</ele><time>2026-04-13T10:23:33.679Z</time></trkpt><trkpt lat="38.3843554" lon="-2.6629494"><ele>625.0</ele><time>2026-04-13T10:23:34.679Z</time></trkpt><trkpt lat="38.3845517" lon="-2.6627071"><ele>625.0</ele><time>2026-04-13T10:23:35.679Z</time></trkpt><trkpt lat="38.3847484" lon="-2.6624617"><ele>626.5</ele><time>2026-04-13T10:23:36.679Z</time></trkpt><trkpt lat="38.3849431" lon="-2.6622069"><ele>628.0</ele><time>2026-04-13T10:23:37.679Z</time></trkpt><trkpt lat="38.3851289" lon="-2.6619391"><ele>628.0</ele><time>2026-04-13T10:23:38.679Z</time></trkpt><trkpt lat="38.3853021" lon="-2.6616503"><ele>628.0</ele><time>2026-04-13T10:23:39.68Z</time></trkpt><trkpt lat="38.3854611" lon="-2.6613433"><ele>629.0</ele><time>2026-04-13T10:23:40.679Z</time></trkpt><trkpt lat="38.3856135" lon="-2.6610242"><ele>630.0</ele><time>2026-04-13T10:23:41.679Z</time></trkpt><trkpt lat="38.3857617" lon="-2.6607025"><ele>630.0</ele><time>2026-04-13T10:23:42.679Z</time></trkpt><trkpt lat="38.3859103" lon="-2.6603791"><ele>630.0</ele><time>2026-04-13T10:23:43.679Z</time></trkpt><trkpt lat="38.3860577" lon="-2.6600592"><ele>628.5</ele><time>2026-04-13T10:23:44.679Z</time></trkpt><trkpt lat="38.3862045" lon="-2.6597451"><ele>627.0</ele><time>2026-04-13T10:23:45.679Z</time></trkpt><trkpt lat="38.3863505" lon="-2.6594318"><ele>630.5</ele><time>2026-04-13T10:23:46.679Z</time></trkpt><trkpt lat="38.386497" lon="-2.6591176"><ele>634.0</ele><time>2026-04-13T10:23:47.679Z</time></trkpt><trkpt lat="38.386641" lon="-2.6588029"><ele>631.5</ele><time>2026-04-13T10:23:48.679Z</time></trkpt><trkpt lat="38.3867828" lon="-2.6584898"><ele>629.0</ele><time>2026-04-13T10:23:49.679Z</time></trkpt><trkpt lat="38.3869238" lon="-2.6581807"><ele>629.0</ele><time>2026-04-13T10:23:50.679Z</time></trkpt><trkpt lat="38.3870636" lon="-2.6578773"><ele>629.0</ele><time>2026-04-13T10:23:51.679Z</time></trkpt><trkpt lat="38.3872055" lon="-2.6575816"><ele>631.5</ele><time>2026-04-13T10:23:52.679Z</time></trkpt><trkpt lat="38.3873546" lon="-2.6572972"><ele>634.0</ele><time>2026-04-13T10:23:53.679Z</time></trkpt><trkpt lat="38.3875273" lon="-2.6570301"><ele>634.0</ele><time>2026-04-13T10:23:54.679Z</time></trkpt><trkpt lat="38.3877197" lon="-2.6567829"><ele>634.0</ele><time>2026-04-13T10:23:55.679Z</time></trkpt><trkpt lat="38.3879264" lon="-2.6565504"><ele>635.0</ele><time>2026-04-13T10:23:56.679Z</time></trkpt><trkpt lat="38.3881372" lon="-2.6563242"><ele>636.0</ele><time>2026-04-13T10:23:57.679Z</time></trkpt><trkpt lat="38.3883418" lon="-2.656098"><ele>634.0</ele><time>2026-04-13T10:23:58.679Z</time></trkpt><trkpt lat="38.3885403" lon="-2.6558597"><ele>632.0</ele><time>2026-04-13T10:23:59.679Z</time></trkpt><trkpt lat="38.3887295" lon="-2.6556133"><ele>633.5</ele><time>2026-04-13T10:24:00.679Z</time></trkpt><trkpt lat="38.3889094" lon="-2.6553504"><ele>635.0</ele><time>2026-04-13T10:24:01.679Z</time></trkpt><trkpt lat="38.389082" lon="-2.6550823"><ele>635.0</ele><time>2026-04-13T10:24:02.679Z</time></trkpt><trkpt lat="38.3892505" lon="-2.6548098"><ele>635.0</ele><time>2026-04-13T10:24:03.679Z</time></trkpt><trkpt lat="38.3894176" lon="-2.6545375"><ele>635.5</ele><time>2026-04-13T10:24:04.679Z</time></trkpt><trkpt lat="38.3895816" lon="-2.6542682"><ele>636.0</ele><time>2026-04-13T10:24:05.679Z</time></trkpt><trkpt lat="38.3897406" lon="-2.654006"><ele>638.0</ele><time>2026-04-13T10:24:06.679Z</time></trkpt><trkpt lat="38.3898959" lon="-2.653747"><ele>640.0</ele><time>2026-04-13T10:24:07.679Z</time></trkpt><trkpt lat="38.3900496" lon="-2.6534927"><ele>640.0</ele><time>2026-04-13T10:24:08.679Z</time></trkpt><trkpt lat="38.3902006" lon="-2.6532417"><ele>640.0</ele><time>2026-04-13T10:24:09.679Z</time></trkpt><trkpt lat="38.3903509" lon="-2.6529936"><ele>640.0</ele><time>2026-04-13T10:24:10.679Z</time></trkpt><trkpt lat="38.3905008" lon="-2.652746"><ele>640.0</ele><time>2026-04-13T10:24:11.679Z</time></trkpt><trkpt lat="38.3906563" lon="-2.6524982"><ele>639.5</ele><time>2026-04-13T10:24:12.679Z</time></trkpt><trkpt lat="38.3908157" lon="-2.6522537"><ele>639.0</ele><time>2026-04-13T10:24:13.679Z</time></trkpt><trkpt lat="38.3909829" lon="-2.6520161"><ele>639.0</ele><time>2026-04-13T10:24:14.679Z</time></trkpt><trkpt lat="38.3911543" lon="-2.6517892"><ele>639.0</ele><time>2026-04-13T10:24:15.679Z</time></trkpt><trkpt lat="38.3913296" lon="-2.6515706"><ele>640.0</ele><time>2026-04-13T10:24:16.679Z</time></trkpt><trkpt lat="38.3915047" lon="-2.6513583"><ele>641.0</ele><time>2026-04-13T10:24:17.679Z</time></trkpt><trkpt lat="38.3916777" lon="-2.6511528"><ele>640.5</ele><time>2026-04-13T10:24:18.679Z</time></trkpt><trkpt lat="38.3918474" lon="-2.6509512"><ele>640.0</ele><time>2026-04-13T10:24:19.679Z</time></trkpt><trkpt lat="38.3920131" lon="-2.650755"><ele>642.0</ele><time>2026-04-13T10:24:20.679Z</time></trkpt><trkpt lat="38.3921784" lon="-2.6505586"><ele>644.0</ele><time>2026-04-13T10:24:21.679Z</time></trkpt><trkpt lat="38.3923436" lon="-2.6503617"><ele>643.0</ele><time>2026-04-13T10:24:22.679Z</time></trkpt><trkpt lat="38.3925075" lon="-2.6501625"><ele>642.0</ele><time>2026-04-13T10:24:23.679Z</time></trkpt><trkpt lat="38.3926697" lon="-2.6499536"><ele>642.0</ele><time>2026-04-13T10:24:24.679Z</time></trkpt><trkpt lat="38.3928203" lon="-2.649726"><ele>642.0</ele><time>2026-04-13T10:24:25.679Z</time></trkpt><trkpt lat="38.3929571" lon="-2.6494792"><ele>641.0</ele><time>2026-04-13T10:24:26.679Z</time></trkpt><trkpt lat="38.3930739" lon="-2.6492138"><ele>640.0</ele><time>2026-04-13T10:24:27.679Z</time></trkpt><trkpt lat="38.3931725" lon="-2.6489257"><ele>640.0</ele><time>2026-04-13T10:24:28.68Z</time></trkpt><trkpt lat="38.3932468" lon="-2.6486265"><ele>640.0</ele><time>2026-04-13T10:24:29.679Z</time></trkpt><trkpt lat="38.3933076" lon="-2.6483293"><ele>640.0</ele><time>2026-04-13T10:24:30.679Z</time></trkpt><trkpt lat="38.3933626" lon="-2.6480343"><ele>640.0</ele><time>2026-04-13T10:24:31.68Z</time></trkpt><trkpt lat="38.3934156" lon="-2.6477432"><ele>641.0</ele><time>2026-04-13T10:24:32.679Z</time></trkpt><trkpt lat="38.3934685" lon="-2.6474542"><ele>642.0</ele><time>2026-04-13T10:24:33.679Z</time></trkpt><trkpt lat="38.3935208" lon="-2.6471684"><ele>640.5</ele><time>2026-04-13T10:24:34.679Z</time></trkpt><trkpt lat="38.393573" lon="-2.6468844"><ele>639.0</ele><time>2026-04-13T10:24:35.679Z</time></trkpt><trkpt lat="38.3936247" lon="-2.6466013"><ele>639.0</ele><time>2026-04-13T10:24:36.679Z</time></trkpt><trkpt lat="38.3936752" lon="-2.6463168"><ele>639.0</ele><time>2026-04-13T10:24:37.679Z</time></trkpt><trkpt lat="38.3937262" lon="-2.6460337"><ele>640.0</ele><time>2026-04-13T10:24:38.68Z</time></trkpt><trkpt lat="38.3937781" lon="-2.6457488"><ele>641.0</ele><time>2026-04-13T10:24:39.679Z</time></trkpt><trkpt lat="38.3938304" lon="-2.6454612"><ele>646.5</ele><time>2026-04-13T10:24:40.679Z</time></trkpt><trkpt lat="38.3938829" lon="-2.6451702"><ele>652.0</ele><time>2026-04-13T10:24:41.679Z</time></trkpt><trkpt lat="38.3939365" lon="-2.6448759"><ele>652.0</ele><time>2026-04-13T10:24:42.679Z</time></trkpt><trkpt lat="38.3939886" lon="-2.6445804"><ele>652.0</ele><time>2026-04-13T10:24:43.679Z</time></trkpt><trkpt lat="38.3940384" lon="-2.6442814"><ele>649.5</ele><time>2026-04-13T10:24:44.679Z</time></trkpt><trkpt lat="38.39408" lon="-2.6439795"><ele>647.0</ele><time>2026-04-13T10:24:45.679Z</time></trkpt><trkpt lat="38.3941125" lon="-2.643677"><ele>647.0</ele><time>2026-04-13T10:24:46.679Z</time></trkpt><trkpt lat="38.3941328" lon="-2.6433776"><ele>647.0</ele><time>2026-04-13T10:24:47.679Z</time></trkpt><trkpt lat="38.3941466" lon="-2.6430787"><ele>647.0</ele><time>2026-04-13T10:24:48.679Z</time></trkpt><trkpt lat="38.3941563" lon="-2.6427823"><ele>647.0</ele><time>2026-04-13T10:24:49.679Z</time></trkpt><trkpt lat="38.3941647" lon="-2.6424891"><ele>647.0</ele><time>2026-04-13T10:24:50.68Z</time></trkpt><trkpt lat="38.3941728" lon="-2.6422021"><ele>647.0</ele><time>2026-04-13T10:24:51.679Z</time></trkpt><trkpt lat="38.3941804" lon="-2.6419185"><ele>647.0</ele><time>2026-04-13T10:24:52.679Z</time></trkpt><trkpt lat="38.3941889" lon="-2.6416358"><ele>647.0</ele><time>2026-04-13T10:24:53.679Z</time></trkpt><trkpt lat="38.3942004" lon="-2.6413544"><ele>647.0</ele><time>2026-04-13T10:24:54.679Z</time></trkpt><trkpt lat="38.3942229" lon="-2.6410725"><ele>647.0</ele><time>2026-04-13T10:24:55.679Z</time></trkpt><trkpt lat="38.394263" lon="-2.6407888"><ele>647.0</ele><time>2026-04-13T10:24:56.679Z</time></trkpt><trkpt lat="38.3943219" lon="-2.6405095"><ele>647.0</ele><time>2026-04-13T10:24:57.679Z</time></trkpt><trkpt lat="38.394397" lon="-2.6402386"><ele>646.5</ele><time>2026-04-13T10:24:58.679Z</time></trkpt><trkpt lat="38.394482" lon="-2.6399715"><ele>646.0</ele><time>2026-04-13T10:24:59.679Z</time></trkpt><trkpt lat="38.3945703" lon="-2.6397075"><ele>646.0</ele><time>2026-04-13T10:25:00.68Z</time></trkpt><trkpt lat="38.3946583" lon="-2.6394476"><ele>646.0</ele><time>2026-04-13T10:25:01.679Z</time></trkpt><trkpt lat="38.3947448" lon="-2.6391897"><ele>646.0</ele><time>2026-04-13T10:25:02.679Z</time></trkpt><trkpt lat="38.3948321" lon="-2.6389329"><ele>646.0</ele><time>2026-04-13T10:25:03.679Z</time></trkpt><trkpt lat="38.3949197" lon="-2.6386773"><ele>646.0</ele><time>2026-04-13T10:25:04.679Z</time></trkpt><trkpt lat="38.3950053" lon="-2.6384226"><ele>646.0</ele><time>2026-04-13T10:25:05.679Z</time></trkpt><trkpt lat="38.3950916" lon="-2.638166"><ele>645.6666666666667</ele><time>2026-04-13T10:25:06.679Z</time></trkpt><trkpt lat="38.395178" lon="-2.6379092"><ele>645.3333333333334</ele><time>2026-04-13T10:25:07.679Z</time></trkpt><trkpt lat="38.3952654" lon="-2.6376499"><ele>645.0</ele><time>2026-04-13T10:25:08.679Z</time></trkpt><trkpt lat="38.3953541" lon="-2.6373894"><ele>645.0</ele><time>2026-04-13T10:25:09.679Z</time></trkpt><trkpt lat="38.3954438" lon="-2.6371279"><ele>645.0</ele><time>2026-04-13T10:25:10.679Z</time></trkpt><trkpt lat="38.3955342" lon="-2.6368631"><ele>647.0</ele><time>2026-04-13T10:25:11.679Z</time></trkpt><trkpt lat="38.3956252" lon="-2.6365959"><ele>649.0</ele><time>2026-04-13T10:25:12.68Z</time></trkpt><trkpt lat="38.3957159" lon="-2.6363284"><ele>648.5</ele><time>2026-04-13T10:25:13.679Z</time></trkpt><trkpt lat="38.3958082" lon="-2.6360578"><ele>648.0</ele><time>2026-04-13T10:25:14.679Z</time></trkpt><trkpt lat="38.3959012" lon="-2.6357858"><ele>648.0</ele><time>2026-04-13T10:25:15.679Z</time></trkpt><trkpt lat="38.3959939" lon="-2.6355115"><ele>648.0</ele><time>2026-04-13T10:25:16.679Z</time></trkpt><trkpt lat="38.3960865" lon="-2.6352364"><ele>648.0</ele><time>2026-04-13T10:25:17.679Z</time></trkpt><trkpt lat="38.396179" lon="-2.6349626"><ele>648.0</ele><time>2026-04-13T10:25:18.679Z</time></trkpt><trkpt lat="38.3962729" lon="-2.6346863"><ele>650.0</ele><time>2026-04-13T10:25:19.679Z</time></trkpt><trkpt lat="38.3963674" lon="-2.6344099"><ele>652.0</ele><time>2026-04-13T10:25:20.679Z</time></trkpt><trkpt lat="38.3964627" lon="-2.6341323"><ele>652.0</ele><time>2026-04-13T10:25:21.679Z</time></trkpt><trkpt lat="38.3965573" lon="-2.6338591"><ele>652.0</ele><time>2026-04-13T10:25:22.679Z</time></trkpt><trkpt lat="38.3966513" lon="-2.6335877"><ele>652.0</ele><time>2026-04-13T10:25:23.679Z</time></trkpt><trkpt lat="38.3967431" lon="-2.6333188"><ele>652.0</ele><time>2026-04-13T10:25:24.679Z</time></trkpt><trkpt lat="38.3968255" lon="-2.633051"><ele>651.3333333333334</ele><time>2026-04-13T10:25:25.679Z</time></trkpt><trkpt lat="38.3968905" lon="-2.6327827"><ele>650.6666666666666</ele><time>2026-04-13T10:25:26.679Z</time></trkpt><trkpt lat="38.3969349" lon="-2.6325105"><ele>650.0</ele><time>2026-04-13T10:25:27.679Z</time></trkpt><trkpt lat="38.3969545" lon="-2.6322376"><ele>650.0</ele><time>2026-04-13T10:25:28.679Z</time></trkpt><trkpt lat="38.3969508" lon="-2.6319673"><ele>650.0</ele><time>2026-04-13T10:25:29.679Z</time></trkpt><trkpt lat="38.3969237" lon="-2.6317046"><ele>650.0</ele><time>2026-04-13T10:25:30.679Z</time></trkpt><trkpt lat="38.3968724" lon="-2.6314494"><ele>650.0</ele><time>2026-04-13T10:25:31.679Z</time></trkpt><trkpt lat="38.3968001" lon="-2.6312058"><ele>650.0</ele><time>2026-04-13T10:25:32.679Z</time></trkpt><trkpt lat="38.3967081" lon="-2.6309711"><ele>650.0</ele><time>2026-04-13T10:25:33.679Z</time></trkpt><trkpt lat="38.3965977" lon="-2.630748"><ele>649.3333333333333</ele><time>2026-04-13T10:25:34.679Z</time></trkpt><trkpt lat="38.3964699" lon="-2.6305355"><ele>648.6666666666666</ele><time>2026-04-13T10:25:35.679Z</time></trkpt><trkpt lat="38.3963278" lon="-2.6303371"><ele>648.0</ele><time>2026-04-13T10:25:36.679Z</time></trkpt><trkpt lat="38.3961805" lon="-2.6301538"><ele>647.6666666666666</ele><time>2026-04-13T10:25:37.679Z</time></trkpt><trkpt lat="38.3960315" lon="-2.6299822"><ele>647.3333333333333</ele><time>2026-04-13T10:25:38.679Z</time></trkpt><trkpt lat="38.3958781" lon="-2.6298141"><ele>647.0</ele><time>2026-04-13T10:25:39.679Z</time></trkpt><trkpt lat="38.3957217" lon="-2.629647"><ele>647.0</ele><time>2026-04-13T10:25:40.679Z</time></trkpt><trkpt lat="38.39556" lon="-2.6294814"><ele>647.0</ele><time>2026-04-13T10:25:41.679Z</time></trkpt><trkpt lat="38.395401" lon="-2.6293178"><ele>647.0</ele><time>2026-04-13T10:25:42.679Z</time></trkpt><trkpt lat="38.3952433" lon="-2.6291549"><ele>648.3333333333333</ele><time>2026-04-13T10:25:43.679Z</time></trkpt><trkpt lat="38.3950869" lon="-2.6289923"><ele>649.6666666666666</ele><time>2026-04-13T10:25:44.679Z</time></trkpt><trkpt lat="38.3949293" lon="-2.6288282"><ele>651.0</ele><time>2026-04-13T10:25:45.679Z</time></trkpt><trkpt lat="38.3947696" lon="-2.6286606"><ele>652.6666666666666</ele><time>2026-04-13T10:25:46.679Z</time></trkpt><trkpt lat="38.3946049" lon="-2.6284912"><ele>654.3333333333333</ele><time>2026-04-13T10:25:47.679Z</time></trkpt><trkpt lat="38.3944381" lon="-2.6283245"><ele>656.0</ele><time>2026-04-13T10:25:48.679Z</time></trkpt><trkpt lat="38.3942673" lon="-2.6281639"><ele>656.0</ele><time>2026-04-13T10:25:49.679Z</time></trkpt><trkpt lat="38.3940864" lon="-2.628019"><ele>656.0</ele><time>2026-04-13T10:25:50.679Z</time></trkpt><trkpt lat="38.393897" lon="-2.6278986"><ele>656.0</ele><time>2026-04-13T10:25:51.679Z</time></trkpt><trkpt lat="38.3937028" lon="-2.6278074"><ele>659.3333333333333</ele><time>2026-04-13T10:25:52.679Z</time></trkpt><trkpt lat="38.3935033" lon="-2.6277472"><ele>662.6666666666666</ele><time>2026-04-13T10:25:53.679Z</time></trkpt><trkpt lat="38.3933033" lon="-2.6277064"><ele>666.0</ele><time>2026-04-13T10:25:54.679Z</time></trkpt><trkpt lat="38.3931063" lon="-2.6276743"><ele>665.6666666666666</ele><time>2026-04-13T10:25:55.679Z</time></trkpt><trkpt lat="38.3929129" lon="-2.6276378"><ele>665.3333333333333</ele><time>2026-04-13T10:25:56.679Z</time></trkpt><trkpt lat="38.3927184" lon="-2.627592"><ele>665.0</ele><time>2026-04-13T10:25:57.679Z</time></trkpt><trkpt lat="38.3925234" lon="-2.6275306"><ele>665.0</ele><time>2026-04-13T10:25:58.679Z</time></trkpt><trkpt lat="38.3923299" lon="-2.6274519"><ele>665.0</ele><time>2026-04-13T10:25:59.68Z</time></trkpt><trkpt lat="38.3921402" lon="-2.6273508"><ele>665.0</ele><time>2026-04-13T10:26:00.679Z</time></trkpt><trkpt lat="38.391956" lon="-2.6272285"><ele>664.3333333333333</ele><time>2026-04-13T10:26:01.679Z</time></trkpt><trkpt lat="38.3917794" lon="-2.6270907"><ele>663.6666666666666</ele><time>2026-04-13T10:26:02.679Z</time></trkpt><trkpt lat="38.3916133" lon="-2.6269344"><ele>663.0</ele><time>2026-04-13T10:26:03.679Z</time></trkpt><trkpt lat="38.3914518" lon="-2.6267679"><ele>663.3333333333334</ele><time>2026-04-13T10:26:04.679Z</time></trkpt><trkpt lat="38.3912957" lon="-2.6265883"><ele>663.6666666666667</ele><time>2026-04-13T10:26:05.679Z</time></trkpt><trkpt lat="38.3911477" lon="-2.6263946"><ele>664.0</ele><time>2026-04-13T10:26:06.679Z</time></trkpt><trkpt lat="38.3910113" lon="-2.6261848"><ele>666.3333333333334</ele><time>2026-04-13T10:26:07.679Z</time></trkpt><trkpt lat="38.3908887" lon="-2.6259554"><ele>668.6666666666666</ele><time>2026-04-13T10:26:08.679Z</time></trkpt><trkpt lat="38.3907782" lon="-2.6257153"><ele>671.0</ele><time>2026-04-13T10:26:09.679Z</time></trkpt><trkpt lat="38.3906775" lon="-2.625472"><ele>670.0</ele><time>2026-04-13T10:26:10.679Z</time></trkpt><trkpt lat="38.3905828" lon="-2.6252301"><ele>669.0</ele><time>2026-04-13T10:26:11.679Z</time></trkpt><trkpt lat="38.3904912" lon="-2.6249895"><ele>668.0</ele><time>2026-04-13T10:26:12.679Z</time></trkpt><trkpt lat="38.3904016" lon="-2.6247534"><ele>668.0</ele><time>2026-04-13T10:26:13.679Z</time></trkpt><trkpt lat="38.390311" lon="-2.6245169"><ele>668.0</ele><time>2026-04-13T10:26:14.679Z</time></trkpt><trkpt lat="38.3902202" lon="-2.6242804"><ele>668.0</ele><time>2026-04-13T10:26:15.679Z</time></trkpt><trkpt lat="38.3901305" lon="-2.6240412"><ele>670.0</ele><time>2026-04-13T10:26:16.679Z</time></trkpt><trkpt lat="38.3900416" lon="-2.6237996"><ele>672.0</ele><time>2026-04-13T10:26:17.679Z</time></trkpt><trkpt lat="38.3899497" lon="-2.6235539"><ele>674.0</ele><time>2026-04-13T10:26:18.679Z</time></trkpt><trkpt lat="38.389856" lon="-2.6233042"><ele>675.0</ele><time>2026-04-13T10:26:19.679Z</time></trkpt><trkpt lat="38.3897602" lon="-2.6230504"><ele>676.0</ele><time>2026-04-13T10:26:20.679Z</time></trkpt><trkpt lat="38.3896643" lon="-2.6227978"><ele>677.0</ele><time>2026-04-13T10:26:21.679Z</time></trkpt><trkpt lat="38.3895682" lon="-2.6225453"><ele>677.0</ele><time>2026-04-13T10:26:22.679Z</time></trkpt><trkpt lat="38.3894733" lon="-2.6222865"><ele>677.0</ele><time>2026-04-13T10:26:23.679Z</time></trkpt><trkpt lat="38.389377" lon="-2.6220221"><ele>679.0</ele><time>2026-04-13T10:26:24.679Z</time></trkpt><trkpt lat="38.389276" lon="-2.6217543"><ele>681.0</ele><time>2026-04-13T10:26:25.679Z</time></trkpt><trkpt lat="38.3891726" lon="-2.6214904"><ele>681.0</ele><time>2026-04-13T10:26:26.679Z</time></trkpt><trkpt lat="38.3890683" lon="-2.6212262"><ele>681.0</ele><time>2026-04-13T10:26:27.679Z</time></trkpt><trkpt lat="38.3889669" lon="-2.6209679"><ele>681.0</ele><time>2026-04-13T10:26:28.679Z</time></trkpt><trkpt lat="38.3888673" lon="-2.6207151"><ele>681.0</ele><time>2026-04-13T10:26:29.679Z</time></trkpt><trkpt lat="38.3887721" lon="-2.6204678"><ele>681.0</ele><time>2026-04-13T10:26:30.679Z</time></trkpt><trkpt lat="38.3886772" lon="-2.6202188"><ele>680.6666666666666</ele><time>2026-04-13T10:26:31.679Z</time></trkpt><trkpt lat="38.3885828" lon="-2.6199695"><ele>680.3333333333333</ele><time>2026-04-13T10:26:32.679Z</time></trkpt><trkpt lat="38.3884895" lon="-2.6197234"><ele>680.0</ele><time>2026-04-13T10:26:33.679Z</time></trkpt><trkpt lat="38.3883953" lon="-2.619476"><ele>681.0</ele><time>2026-04-13T10:26:34.679Z</time></trkpt><trkpt lat="38.3883011" lon="-2.6192295"><ele>682.0</ele><time>2026-04-13T10:26:35.679Z</time></trkpt><trkpt lat="38.3882015" lon="-2.6189883"><ele>683.0</ele><time>2026-04-13T10:26:36.679Z</time></trkpt><trkpt lat="38.3880877" lon="-2.6187539"><ele>684.6666666666666</ele><time>2026-04-13T10:26:37.679Z</time></trkpt><trkpt lat="38.3879572" lon="-2.6185353"><ele>686.3333333333334</ele><time>2026-04-13T10:26:38.679Z</time></trkpt><trkpt lat="38.3878108" lon="-2.6183361"><ele>688.0</ele><time>2026-04-13T10:26:39.679Z</time></trkpt><trkpt lat="38.3876504" lon="-2.6181621"><ele>688.0</ele><time>2026-04-13T10:26:40.679Z</time></trkpt><trkpt lat="38.3874818" lon="-2.6180124"><ele>688.0</ele><time>2026-04-13T10:26:41.679Z</time></trkpt><trkpt lat="38.3873075" lon="-2.6178791"><ele>688.0</ele><time>2026-04-13T10:26:42.679Z</time></trkpt><trkpt lat="38.3871344" lon="-2.6177583"><ele>688.0</ele><time>2026-04-13T10:26:43.679Z</time></trkpt><trkpt lat="38.3869677" lon="-2.6176484"><ele>688.0</ele><time>2026-04-13T10:26:44.679Z</time></trkpt><trkpt lat="38.3868062" lon="-2.6175433"><ele>688.0</ele><time>2026-04-13T10:26:45.679Z</time></trkpt><trkpt lat="38.3866487" lon="-2.617437"><ele>688.0</ele><time>2026-04-13T10:26:46.679Z</time></trkpt><trkpt lat="38.3864932" lon="-2.6173273"><ele>688.0</ele><time>2026-04-13T10:26:47.679Z</time></trkpt><trkpt lat="38.3863427" lon="-2.61721"><ele>688.0</ele><time>2026-04-13T10:26:48.679Z</time></trkpt><trkpt lat="38.3861983" lon="-2.6170756"><ele>690.0</ele><time>2026-04-13T10:26:49.679Z</time></trkpt><trkpt lat="38.3860647" lon="-2.6169234"><ele>692.0</ele><time>2026-04-13T10:26:50.68Z</time></trkpt><trkpt lat="38.3859487" lon="-2.6167529"><ele>694.0</ele><time>2026-04-13T10:26:51.679Z</time></trkpt><trkpt lat="38.3858507" lon="-2.616561"><ele>694.0</ele><time>2026-04-13T10:26:52.679Z</time></trkpt><trkpt lat="38.3857717" lon="-2.6163544"><ele>694.0</ele><time>2026-04-13T10:26:53.679Z</time></trkpt><trkpt lat="38.3857148" lon="-2.6161379"><ele>694.0</ele><time>2026-04-13T10:26:54.679Z</time></trkpt><trkpt lat="38.3856817" lon="-2.6159147"><ele>694.3333333333334</ele><time>2026-04-13T10:26:55.679Z</time></trkpt><trkpt lat="38.3856692" lon="-2.6156834"><ele>694.6666666666666</ele><time>2026-04-13T10:26:56.68Z</time></trkpt><trkpt lat="38.3856776" lon="-2.6154494"><ele>695.0</ele><time>2026-04-13T10:26:57.679Z</time></trkpt><trkpt lat="38.3857011" lon="-2.6152126"><ele>695.0</ele><time>2026-04-13T10:26:58.679Z</time></trkpt><trkpt lat="38.3857288" lon="-2.6149733"><ele>695.0</ele><time>2026-04-13T10:26:59.679Z</time></trkpt><trkpt lat="38.3857579" lon="-2.6147308"><ele>695.0</ele><time>2026-04-13T10:27:00.679Z</time></trkpt><trkpt lat="38.3857872" lon="-2.6144832"><ele>694.6666666666666</ele><time>2026-04-13T10:27:01.679Z</time></trkpt><trkpt lat="38.3858178" lon="-2.6142317"><ele>694.3333333333334</ele><time>2026-04-13T10:27:02.679Z</time></trkpt><trkpt lat="38.3858497" lon="-2.6139761"><ele>694.0</ele><time>2026-04-13T10:27:03.679Z</time></trkpt><trkpt lat="38.3858825" lon="-2.6137211"><ele>693.6666666666667</ele><time>2026-04-13T10:27:04.679Z</time></trkpt><trkpt lat="38.3859152" lon="-2.6134658"><ele>693.3333333333334</ele><time>2026-04-13T10:27:05.679Z</time></trkpt><trkpt lat="38.3859487" lon="-2.6132127"><ele>693.0</ele><time>2026-04-13T10:27:06.679Z</time></trkpt><trkpt lat="38.3859803" lon="-2.6129594"><ele>692.0</ele><time>2026-04-13T10:27:07.679Z</time></trkpt><trkpt lat="38.386011" lon="-2.6127061"><ele>691.0</ele><time>2026-04-13T10:27:08.679Z</time></trkpt><trkpt lat="38.3860429" lon="-2.6124521"><ele>690.0</ele><time>2026-04-13T10:27:09.679Z</time></trkpt><trkpt lat="38.3860754" lon="-2.6122"><ele>690.0</ele><time>2026-04-13T10:27:10.679Z</time></trkpt><trkpt lat="38.3861105" lon="-2.6119475"><ele>690.0</ele><time>2026-04-13T10:27:11.679Z</time></trkpt><trkpt lat="38.3861528" lon="-2.6116936"><ele>690.0</ele><time>2026-04-13T10:27:12.679Z</time></trkpt><trkpt lat="38.386209" lon="-2.6114382"><ele>690.0</ele><time>2026-04-13T10:27:13.679Z</time></trkpt><trkpt lat="38.3862858" lon="-2.6111907"><ele>690.0</ele><time>2026-04-13T10:27:14.679Z</time></trkpt><trkpt lat="38.3863847" lon="-2.6109561"><ele>690.0</ele><time>2026-04-13T10:27:15.679Z</time></trkpt><trkpt lat="38.3865013" lon="-2.6107364"><ele>692.6666666666666</ele><time>2026-04-13T10:27:16.679Z</time></trkpt><trkpt lat="38.3866285" lon="-2.6105316"><ele>695.3333333333333</ele><time>2026-04-13T10:27:17.679Z</time></trkpt><trkpt lat="38.386756" lon="-2.6103357"><ele>698.0</ele><time>2026-04-13T10:27:18.679Z</time></trkpt><trkpt lat="38.3868816" lon="-2.6101435"><ele>698.0</ele><time>2026-04-13T10:27:19.679Z</time></trkpt><trkpt lat="38.387001" lon="-2.6099475"><ele>698.0</ele><time>2026-04-13T10:27:20.68Z</time></trkpt><trkpt lat="38.3871142" lon="-2.6097387"><ele>698.0</ele><time>2026-04-13T10:27:21.679Z</time></trkpt><trkpt lat="38.3872148" lon="-2.6095164"><ele>699.0</ele><time>2026-04-13T10:27:22.679Z</time></trkpt><trkpt lat="38.3872986" lon="-2.6092807"><ele>700.0</ele><time>2026-04-13T10:27:23.679Z</time></trkpt><trkpt lat="38.3873662" lon="-2.6090281"><ele>701.0</ele><time>2026-04-13T10:27:24.679Z</time></trkpt><trkpt lat="38.3874219" lon="-2.6087735"><ele>701.0</ele><time>2026-04-13T10:27:25.679Z</time></trkpt><trkpt lat="38.3874716" lon="-2.6085204"><ele>701.0</ele><time>2026-04-13T10:27:26.679Z</time></trkpt><trkpt lat="38.387517" lon="-2.6082742"><ele>701.0</ele><time>2026-04-13T10:27:27.679Z</time></trkpt><trkpt lat="38.3875614" lon="-2.60803"><ele>701.3333333333333</ele><time>2026-04-13T10:27:28.679Z</time></trkpt><trkpt lat="38.3876029" lon="-2.6077869"><ele>701.6666666666666</ele><time>2026-04-13T10:27:29.679Z</time></trkpt><trkpt lat="38.3876463" lon="-2.6075426"><ele>702.0</ele><time>2026-04-13T10:27:30.679Z</time></trkpt><trkpt lat="38.3876898" lon="-2.6073005"><ele>702.0</ele><time>2026-04-13T10:27:31.679Z</time></trkpt><trkpt lat="38.3877352" lon="-2.6070549"><ele>702.0</ele><time>2026-04-13T10:27:32.679Z</time></trkpt><trkpt lat="38.3877811" lon="-2.6068067"><ele>702.0</ele><time>2026-04-13T10:27:33.679Z</time></trkpt><trkpt lat="38.3878262" lon="-2.6065553"><ele>703.0</ele><time>2026-04-13T10:27:34.679Z</time></trkpt><trkpt lat="38.3878699" lon="-2.6063039"><ele>704.0</ele><time>2026-04-13T10:27:35.679Z</time></trkpt><trkpt lat="38.3879126" lon="-2.6060478"><ele>705.0</ele><time>2026-04-13T10:27:36.679Z</time></trkpt><trkpt lat="38.3879531" lon="-2.6057883"><ele>706.0</ele><time>2026-04-13T10:27:37.679Z</time></trkpt><trkpt lat="38.3879877" lon="-2.6055263"><ele>707.0</ele><time>2026-04-13T10:27:38.679Z</time></trkpt><trkpt lat="38.3880132" lon="-2.6052611"><ele>708.0</ele><time>2026-04-13T10:27:39.68Z</time></trkpt><trkpt lat="38.3880276" lon="-2.6049963"><ele>711.3333333333334</ele><time>2026-04-13T10:27:40.679Z</time></trkpt><trkpt lat="38.3880303" lon="-2.6047288"><ele>714.6666666666667</ele><time>2026-04-13T10:27:41.679Z</time></trkpt><trkpt lat="38.3880239" lon="-2.6044624"><ele>718.0</ele><time>2026-04-13T10:27:42.68Z</time></trkpt><trkpt lat="38.388013" lon="-2.6041967"><ele>717.3333333333334</ele><time>2026-04-13T10:27:43.679Z</time></trkpt><trkpt lat="38.3880006" lon="-2.6039339"><ele>716.6666666666666</ele><time>2026-04-13T10:27:44.679Z</time></trkpt><trkpt lat="38.3879874" lon="-2.6036701"><ele>716.0</ele><time>2026-04-13T10:27:45.679Z</time></trkpt><trkpt lat="38.387974" lon="-2.6034081"><ele>717.6666666666666</ele><time>2026-04-13T10:27:46.679Z</time></trkpt><trkpt lat="38.3879608" lon="-2.6031467"><ele>719.3333333333334</ele><time>2026-04-13T10:27:47.679Z</time></trkpt><trkpt lat="38.3879469" lon="-2.6028868"><ele>721.0</ele><time>2026-04-13T10:27:48.679Z</time></trkpt><trkpt lat="38.3879327" lon="-2.6026308"><ele>721.6666666666667</ele><time>2026-04-13T10:27:49.68Z</time></trkpt><trkpt lat="38.3879186" lon="-2.602376"><ele>722.3333333333334</ele><time>2026-04-13T10:27:50.679Z</time></trkpt><trkpt lat="38.3879055" lon="-2.6021231"><ele>723.0</ele><time>2026-04-13T10:27:51.679Z</time></trkpt><trkpt lat="38.3878912" lon="-2.6018688"><ele>723.6666666666666</ele><time>2026-04-13T10:27:52.679Z</time></trkpt><trkpt lat="38.3878733" lon="-2.6016149"><ele>724.3333333333333</ele><time>2026-04-13T10:27:53.679Z</time></trkpt><trkpt lat="38.3878444" lon="-2.6013635"><ele>725.0</ele><time>2026-04-13T10:27:54.679Z</time></trkpt><trkpt lat="38.3877988" lon="-2.601116"><ele>727.0</ele><time>2026-04-13T10:27:55.679Z</time></trkpt><trkpt lat="38.3877341" lon="-2.6008727"><ele>729.0</ele><time>2026-04-13T10:27:56.679Z</time></trkpt><trkpt lat="38.3876498" lon="-2.6006385"><ele>731.0</ele><time>2026-04-13T10:27:57.679Z</time></trkpt><trkpt lat="38.3875441" lon="-2.6004198"><ele>732.6666666666666</ele><time>2026-04-13T10:27:58.679Z</time></trkpt><trkpt lat="38.3874193" lon="-2.6002176"><ele>734.3333333333334</ele><time>2026-04-13T10:27:59.679Z</time></trkpt><trkpt lat="38.387276" lon="-2.6000334"><ele>736.0</ele><time>2026-04-13T10:28:00.679Z</time></trkpt><trkpt lat="38.3871184" lon="-2.5998717"><ele>736.0</ele><time>2026-04-13T10:28:01.679Z</time></trkpt><trkpt lat="38.3869468" lon="-2.5997312"><ele>736.0</ele><time>2026-04-13T10:28:02.679Z</time></trkpt><trkpt lat="38.3867647" lon="-2.5996151"><ele>736.0</ele><time>2026-04-13T10:28:03.679Z</time></trkpt><trkpt lat="38.3865743" lon="-2.5995178"><ele>737.3333333333334</ele><time>2026-04-13T10:28:04.679Z</time></trkpt><trkpt lat="38.386382" lon="-2.5994283"><ele>738.6666666666666</ele><time>2026-04-13T10:28:05.679Z</time></trkpt><trkpt lat="38.3861862" lon="-2.5993402"><ele>740.0</ele><time>2026-04-13T10:28:06.679Z</time></trkpt><trkpt lat="38.385994" lon="-2.5992521"><ele>741.6666666666666</ele><time>2026-04-13T10:28:07.679Z</time></trkpt><trkpt lat="38.3858085" lon="-2.5991663"><ele>743.3333333333334</ele><time>2026-04-13T10:28:08.68Z</time></trkpt><trkpt lat="38.3856295" lon="-2.5990819"><ele>745.0</ele><time>2026-04-13T10:28:09.679Z</time></trkpt><trkpt lat="38.3854559" lon="-2.5989934"><ele>745.6666666666667</ele><time>2026-04-13T10:28:10.679Z</time></trkpt><trkpt lat="38.3852881" lon="-2.5988886"><ele>746.3333333333334</ele><time>2026-04-13T10:28:11.679Z</time></trkpt><trkpt lat="38.3851357" lon="-2.5987606"><ele>747.0</ele><time>2026-04-13T10:28:12.679Z</time></trkpt><trkpt lat="38.3850041" lon="-2.5986069"><ele>747.0</ele><time>2026-04-13T10:28:13.68Z</time></trkpt><trkpt lat="38.3848982" lon="-2.5984309"><ele>747.0</ele><time>2026-04-13T10:28:14.679Z</time></trkpt><trkpt lat="38.384814" lon="-2.5982437"><ele>747.0</ele><time>2026-04-13T10:28:15.679Z</time></trkpt><trkpt lat="38.3847489" lon="-2.5980642"><ele>747.0</ele><time>2026-04-13T10:28:16.679Z</time></trkpt><trkpt lat="38.3846958" lon="-2.59789"><ele>747.0</ele><time>2026-04-13T10:28:17.679Z</time></trkpt><trkpt lat="38.3846468" lon="-2.5977162"><ele>747.0</ele><time>2026-04-13T10:28:18.679Z</time></trkpt><trkpt lat="38.3845928" lon="-2.5975367"><ele>747.0</ele><time>2026-04-13T10:28:19.679Z</time></trkpt><trkpt lat="38.3845287" lon="-2.5973498"><ele>749.6666666666666</ele><time>2026-04-13T10:28:20.679Z</time></trkpt><trkpt lat="38.3844473" lon="-2.597161"><ele>752.3333333333333</ele><time>2026-04-13T10:28:21.679Z</time></trkpt><trkpt lat="38.3843458" lon="-2.5969753"><ele>755.0</ele><time>2026-04-13T10:28:22.679Z</time></trkpt><trkpt lat="38.384231" lon="-2.596797"><ele>748.6666666666666</ele><time>2026-04-13T10:28:23.679Z</time></trkpt><trkpt lat="38.3841097" lon="-2.5966167"><ele>742.3333333333334</ele><time>2026-04-13T10:28:24.679Z</time></trkpt><trkpt lat="38.3839931" lon="-2.596421"><ele>736.0</ele><time>2026-04-13T10:28:25.679Z</time></trkpt><trkpt lat="38.3838939" lon="-2.5961994"><ele>737.0</ele><time>2026-04-13T10:28:26.679Z</time></trkpt><trkpt lat="38.3838152" lon="-2.5959486"><ele>738.0</ele><time>2026-04-13T10:28:27.679Z</time></trkpt><trkpt lat="38.3837533" lon="-2.5956739"><ele>739.0</ele><time>2026-04-13T10:28:28.679Z</time></trkpt><trkpt lat="38.3837005" lon="-2.5953842"><ele>740.5</ele><time>2026-04-13T10:28:29.679Z</time></trkpt><trkpt lat="38.3836485" lon="-2.5950822"><ele>742.0</ele><time>2026-04-13T10:28:30.679Z</time></trkpt><trkpt lat="38.3835933" lon="-2.5947749"><ele>738.0</ele><time>2026-04-13T10:28:31.679Z</time></trkpt><trkpt lat="38.383534" lon="-2.5944617"><ele>734.0</ele><time>2026-04-13T10:28:32.679Z</time></trkpt><trkpt lat="38.3834739" lon="-2.5941429"><ele>734.0</ele><time>2026-04-13T10:28:33.679Z</time></trkpt><trkpt lat="38.3834162" lon="-2.5938218"><ele>734.0</ele><time>2026-04-13T10:28:34.679Z</time></trkpt><trkpt lat="38.3833606" lon="-2.5934942"><ele>733.5</ele><time>2026-04-13T10:28:35.679Z</time></trkpt><trkpt lat="38.3833089" lon="-2.593165"><ele>733.0</ele><time>2026-04-13T10:28:36.679Z</time></trkpt><trkpt lat="38.3832592" lon="-2.5928353"><ele>730.0</ele><time>2026-04-13T10:28:37.679Z</time></trkpt><trkpt lat="38.3832132" lon="-2.5925088"><ele>727.0</ele><time>2026-04-13T10:28:38.679Z</time></trkpt><trkpt lat="38.3831704" lon="-2.5921911"><ele>732.5</ele><time>2026-04-13T10:28:39.679Z</time></trkpt><trkpt lat="38.3831292" lon="-2.59188"><ele>738.0</ele><time>2026-04-13T10:28:40.679Z</time></trkpt><trkpt lat="38.3830918" lon="-2.5915792"><ele>738.0</ele><time>2026-04-13T10:28:41.679Z</time></trkpt><trkpt lat="38.3830535" lon="-2.5912872"><ele>738.0</ele><time>2026-04-13T10:28:42.68Z</time></trkpt><trkpt lat="38.3830165" lon="-2.5910072"><ele>738.0</ele><time>2026-04-13T10:28:43.679Z</time></trkpt><trkpt lat="38.382981" lon="-2.5907395"><ele>738.0</ele><time>2026-04-13T10:28:44.679Z</time></trkpt><trkpt lat="38.3829539" lon="-2.5904879"><ele>738.0</ele><time>2026-04-13T10:28:45.679Z</time></trkpt><trkpt lat="38.3829522" lon="-2.5902653"><ele>738.0</ele><time>2026-04-13T10:28:46.679Z</time></trkpt><trkpt lat="38.3829936" lon="-2.5900636"><ele>738.0</ele><time>2026-04-13T10:28:47.68Z</time></trkpt><trkpt lat="38.3830853" lon="-2.5899053"><ele>738.0</ele><time>2026-04-13T10:28:48.679Z</time></trkpt><trkpt lat="38.3832131" lon="-2.5897998"><ele>741.3333333333334</ele><time>2026-04-13T10:28:49.679Z</time></trkpt><trkpt lat="38.3833625" lon="-2.5897546"><ele>744.6666666666667</ele><time>2026-04-13T10:28:50.679Z</time></trkpt><trkpt lat="38.3835188" lon="-2.5897575"><ele>748.0</ele><time>2026-04-13T10:28:51.679Z</time></trkpt><trkpt lat="38.3837363" lon="-2.5897516"><ele>753.0</ele><time>2026-04-13T10:28:53.575Z</time></trkpt><trkpt lat="38.3839592" lon="-2.5896841"><ele>758.0</ele><time>2026-04-13T10:28:54.687Z</time></trkpt><trkpt lat="38.3840924" lon="-2.5895953"><ele>763.0</ele><time>2026-04-13T10:28:55.685Z</time></trkpt><trkpt lat="38.3842159" lon="-2.5894825"><ele>763.6666666666667</ele><time>2026-04-13T10:28:56.695Z</time></trkpt><trkpt lat="38.3843385" lon="-2.5893643"><ele>764.3333333333334</ele><time>2026-04-13T10:28:57.679Z</time></trkpt><trkpt lat="38.3844615" lon="-2.5892412"><ele>765.0</ele><time>2026-04-13T10:28:58.682Z</time></trkpt><trkpt lat="38.3845837" lon="-2.5891156"><ele>767.6666666666667</ele><time>2026-04-13T10:28:59.682Z</time></trkpt><trkpt lat="38.3846959" lon="-2.588973"><ele>770.3333333333334</ele><time>2026-04-13T10:29:00.682Z</time></trkpt><trkpt lat="38.3847694" lon="-2.5888029"><ele>773.0</ele><time>2026-04-13T10:29:01.682Z</time></trkpt><trkpt lat="38.3847926" lon="-2.5886144"><ele>773.0</ele><time>2026-04-13T10:29:02.682Z</time></trkpt><trkpt lat="38.3847677" lon="-2.5884237"><ele>773.0</ele><time>2026-04-13T10:29:03.682Z</time></trkpt><trkpt lat="38.3847241" lon="-2.5882379"><ele>773.0</ele><time>2026-04-13T10:29:04.682Z</time></trkpt><trkpt lat="38.3846838" lon="-2.588045"><ele>774.3333333333334</ele><time>2026-04-13T10:29:05.682Z</time></trkpt><trkpt lat="38.384667" lon="-2.5878429"><ele>775.6666666666667</ele><time>2026-04-13T10:29:06.682Z</time></trkpt><trkpt lat="38.3846749" lon="-2.5876441"><ele>777.0</ele><time>2026-04-13T10:29:07.682Z</time></trkpt><trkpt lat="38.3847061" lon="-2.5874596"><ele>777.0</ele><time>2026-04-13T10:29:08.682Z</time></trkpt><trkpt lat="38.3847497" lon="-2.5873061"><ele>777.0</ele><time>2026-04-13T10:29:09.682Z</time></trkpt><trkpt lat="38.3847929" lon="-2.5871841"><ele>777.0</ele><time>2026-04-13T10:29:10.682Z</time></trkpt><trkpt lat="38.3848305" lon="-2.5870835"><ele>777.0</ele><time>2026-04-13T10:29:11.682Z</time></trkpt><trkpt lat="38.3848647" lon="-2.5869877"><ele>777.0</ele><time>2026-04-13T10:29:12.682Z</time></trkpt><trkpt lat="38.384901" lon="-2.5868886"><ele>777.6666666666666</ele><time>2026-04-13T10:29:13.682Z</time></trkpt><trkpt lat="38.3849386" lon="-2.5867839"><ele>778.3333333333333</ele><time>2026-04-13T10:29:14.682Z</time></trkpt><trkpt lat="38.3849742" lon="-2.5866709"><ele>779.0</ele><time>2026-04-13T10:29:15.682Z</time></trkpt><trkpt lat="38.385001" lon="-2.5865734"><ele>779.6666666666666</ele><time>2026-04-13T10:29:16.682Z</time></trkpt><trkpt lat="38.3850166" lon="-2.5864887"><ele>780.3333333333333</ele><time>2026-04-13T10:29:17.682Z</time></trkpt><trkpt lat="38.3850245" lon="-2.5864048"><ele>781.0</ele><time>2026-04-13T10:29:18.682Z</time></trkpt><trkpt lat="38.3850273" lon="-2.5863152"><ele>780.9999999999999</ele><time>2026-04-13T10:29:19.682Z</time></trkpt><trkpt lat="38.385028" lon="-2.586219"><ele>781.0</ele><time>2026-04-13T10:29:20.682Z</time></trkpt><trkpt lat="38.3850264" lon="-2.5861159"><ele>781.0</ele><time>2026-04-13T10:29:21.682Z</time></trkpt><trkpt lat="38.3850253" lon="-2.5860072"><ele>781.0</ele><time>2026-04-13T10:29:22.682Z</time></trkpt><trkpt lat="38.3850283" lon="-2.5858908"><ele>780.9999999999999</ele><time>2026-04-13T10:29:23.682Z</time></trkpt><trkpt lat="38.3850415" lon="-2.5857805"><ele>781.0</ele><time>2026-04-13T10:29:24.682Z</time></trkpt><trkpt lat="38.3850603" lon="-2.5856852"><ele>781.8333333333333</ele><time>2026-04-13T10:29:25.683Z</time></trkpt><trkpt lat="38.3850868" lon="-2.5855994"><ele>782.6666666666666</ele><time>2026-04-13T10:29:26.683Z</time></trkpt><trkpt lat="38.3851246" lon="-2.585514"><ele>783.5</ele><time>2026-04-13T10:29:27.682Z</time></trkpt><trkpt lat="38.3851688" lon="-2.5854243"><ele>784.3333333333333</ele><time>2026-04-13T10:29:28.682Z</time></trkpt><trkpt lat="38.3852161" lon="-2.5853281"><ele>785.1666666666666</ele><time>2026-04-13T10:29:29.682Z</time></trkpt><trkpt lat="38.3852686" lon="-2.585228"><ele>786.0</ele><time>2026-04-13T10:29:30.682Z</time></trkpt><trkpt lat="38.3853294" lon="-2.585124"><ele>787.0</ele><time>2026-04-13T10:29:31.682Z</time></trkpt><trkpt lat="38.3853936" lon="-2.5850148"><ele>788.0</ele><time>2026-04-13T10:29:32.682Z</time></trkpt><trkpt lat="38.3854616" lon="-2.584901"><ele>789.0</ele><time>2026-04-13T10:29:33.682Z</time></trkpt><trkpt lat="38.385529" lon="-2.584787"><ele>790.0</ele><time>2026-04-13T10:29:34.682Z</time></trkpt><trkpt lat="38.3855947" lon="-2.5846745"><ele>791.0</ele><time>2026-04-13T10:29:35.682Z</time></trkpt><trkpt lat="38.3856559" lon="-2.5845669"><ele>791.8333333333334</ele><time>2026-04-13T10:29:36.682Z</time></trkpt><trkpt lat="38.3857068" lon="-2.5844789"><ele>792.6666666666667</ele><time>2026-04-13T10:29:37.682Z</time></trkpt><trkpt lat="38.3857473" lon="-2.5844123"><ele>793.5</ele><time>2026-04-13T10:29:38.682Z</time></trkpt><trkpt lat="38.385845" lon="-2.5843063"><ele>794.3333333333333</ele><time>2026-04-13T10:29:40.682Z</time></trkpt><trkpt lat="38.3859111" lon="-2.5842756"><ele>795.1666666666666</ele><time>2026-04-13T10:29:41.682Z</time></trkpt><trkpt lat="38.3859843" lon="-2.5842764"><ele>796.0</ele><time>2026-04-13T10:29:42.682Z</time></trkpt><trkpt lat="38.3860606" lon="-2.5843082"><ele>796.0</ele><time>2026-04-13T10:29:43.682Z</time></trkpt><trkpt lat="38.386131" lon="-2.5843686"><ele>796.0</ele><time>2026-04-13T10:29:44.682Z</time></trkpt><trkpt lat="38.3862026" lon="-2.5844349"><ele>796.0</ele><time>2026-04-13T10:29:45.682Z</time></trkpt><trkpt lat="38.3862631" lon="-2.5844938"><ele>796.0</ele><time>2026-04-13T10:29:46.682Z</time></trkpt><trkpt lat="38.3863602" lon="-2.5845829"><ele>796.0</ele><time>2026-04-13T10:29:48.682Z</time></trkpt><trkpt lat="38.3864717" lon="-2.5846538"><ele>796.6666666666666</ele><time>2026-04-13T10:29:50.682Z</time></trkpt><trkpt lat="38.3865392" lon="-2.5846756"><ele>797.3333333333333</ele><time>2026-04-13T10:29:51.682Z</time></trkpt><trkpt lat="38.3866123" lon="-2.5846904"><ele>798.0</ele><time>2026-04-13T10:29:52.682Z</time></trkpt><trkpt lat="38.3866927" lon="-2.5847007"><ele>798.6666666666667</ele><time>2026-04-13T10:29:53.682Z</time></trkpt><trkpt lat="38.3867788" lon="-2.584709"><ele>799.3333333333334</ele><time>2026-04-13T10:29:54.682Z</time></trkpt><trkpt lat="38.3868706" lon="-2.5847164"><ele>800.0</ele><time>2026-04-13T10:29:55.682Z</time></trkpt><trkpt lat="38.3869624" lon="-2.5847217"><ele>800.0000000000001</ele><time>2026-04-13T10:29:56.682Z</time></trkpt><trkpt lat="38.3870493" lon="-2.5847259"><ele>800.0</ele><time>2026-04-13T10:29:57.682Z</time></trkpt><trkpt lat="38.3871318" lon="-2.5847277"><ele>800.0</ele><time>2026-04-13T10:29:58.683Z</time></trkpt><trkpt lat="38.38721" lon="-2.5847247"><ele>800.0</ele><time>2026-04-13T10:29:59.682Z</time></trkpt><trkpt lat="38.3872883" lon="-2.5847163"><ele>800.0000000000001</ele><time>2026-04-13T10:30:00.682Z</time></trkpt><trkpt lat="38.3873686" lon="-2.5847023"><ele>800.0</ele><time>2026-04-13T10:30:01.682Z</time></trkpt><trkpt lat="38.3874507" lon="-2.5846847"><ele>800.6666666666667</ele><time>2026-04-13T10:30:02.682Z</time></trkpt><trkpt lat="38.3875321" lon="-2.5846661"><ele>801.3333333333334</ele><time>2026-04-13T10:30:03.682Z</time></trkpt><trkpt lat="38.387614" lon="-2.58465"><ele>802.0</ele><time>2026-04-13T10:30:04.682Z</time></trkpt><trkpt lat="38.3876937" lon="-2.5846366"><ele>802.6666666666667</ele><time>2026-04-13T10:30:05.682Z</time></trkpt><trkpt lat="38.3877707" lon="-2.5846268"><ele>803.3333333333334</ele><time>2026-04-13T10:30:06.682Z</time></trkpt><trkpt lat="38.3878445" lon="-2.5846232"><ele>804.0</ele><time>2026-04-13T10:30:07.682Z</time></trkpt><trkpt lat="38.3879146" lon="-2.5846271"><ele>804.0</ele><time>2026-04-13T10:30:08.682Z</time></trkpt><trkpt lat="38.3879772" lon="-2.5846388"><ele>804.0</ele><time>2026-04-13T10:30:09.682Z</time></trkpt><trkpt lat="38.3880836" lon="-2.5846693"><ele>804.0</ele><time>2026-04-13T10:30:11.683Z</time></trkpt><trkpt lat="38.3881992" lon="-2.5847064"><ele>804.0</ele><time>2026-04-13T10:30:13.682Z</time></trkpt><trkpt lat="38.3882661" lon="-2.5847282"><ele>804.0</ele><time>2026-04-13T10:30:14.682Z</time></trkpt><trkpt lat="38.3883388" lon="-2.5847522"><ele>804.0</ele><time>2026-04-13T10:30:15.682Z</time></trkpt><trkpt lat="38.3884157" lon="-2.5847785"><ele>804.5</ele><time>2026-04-13T10:30:16.682Z</time></trkpt><trkpt lat="38.3884985" lon="-2.5848061"><ele>805.0</ele><time>2026-04-13T10:30:17.682Z</time></trkpt><trkpt lat="38.3885822" lon="-2.5848285"><ele>805.5</ele><time>2026-04-13T10:30:18.682Z</time></trkpt><trkpt lat="38.3886689" lon="-2.5848207"><ele>806.0</ele><time>2026-04-13T10:30:19.682Z</time></trkpt><trkpt lat="38.3887529" lon="-2.584773"><ele>806.5</ele><time>2026-04-13T10:30:20.682Z</time></trkpt><trkpt lat="38.388835" lon="-2.5847128"><ele>807.0</ele><time>2026-04-13T10:30:21.682Z</time></trkpt><trkpt lat="38.388923" lon="-2.5846466"><ele>808.8</ele><time>2026-04-13T10:30:22.682Z</time></trkpt><trkpt lat="38.3890189" lon="-2.5846007"><ele>810.6</ele><time>2026-04-13T10:30:23.682Z</time></trkpt><trkpt lat="38.3891175" lon="-2.5845942"><ele>812.4</ele><time>2026-04-13T10:30:24.682Z</time></trkpt><trkpt lat="38.3892112" lon="-2.5846187"><ele>814.1999999999999</ele><time>2026-04-13T10:30:25.682Z</time></trkpt><trkpt lat="38.3893039" lon="-2.5846444"><ele>816.0</ele><time>2026-04-13T10:30:26.682Z</time></trkpt><trkpt lat="38.3893974" lon="-2.584643"><ele>816.0</ele><time>2026-04-13T10:30:27.682Z</time></trkpt><trkpt lat="38.3894882" lon="-2.5846057"><ele>816.0</ele><time>2026-04-13T10:30:28.682Z</time></trkpt><trkpt lat="38.3895688" lon="-2.5845427"><ele>816.0</ele><time>2026-04-13T10:30:29.682Z</time></trkpt><trkpt lat="38.3896422" lon="-2.5844691"><ele>816.0</ele><time>2026-04-13T10:30:30.682Z</time></trkpt><trkpt lat="38.3897054" lon="-2.5844037"><ele>816.0</ele><time>2026-04-13T10:30:31.682Z</time></trkpt><trkpt lat="38.3897547" lon="-2.5843519"><ele>816.0</ele><time>2026-04-13T10:30:32.682Z</time></trkpt><trkpt lat="38.3898335" lon="-2.5842713"><ele>817.0</ele><time>2026-04-13T10:30:34.682Z</time></trkpt><trkpt lat="38.3899134" lon="-2.5841812"><ele>818.0</ele><time>2026-04-13T10:30:36.682Z</time></trkpt><trkpt lat="38.3899924" lon="-2.5840581"><ele>819.0</ele><time>2026-04-13T10:30:38.682Z</time></trkpt><trkpt lat="38.3900229" lon="-2.5839821"><ele>820.0</ele><time>2026-04-13T10:30:39.682Z</time></trkpt><trkpt lat="38.390052" lon="-2.5838995"><ele>821.0</ele><time>2026-04-13T10:30:40.682Z</time></trkpt><trkpt lat="38.3900807" lon="-2.5838127"><ele>822.0</ele><time>2026-04-13T10:30:41.682Z</time></trkpt><trkpt lat="38.3901089" lon="-2.5837216"><ele>822.3333333333334</ele><time>2026-04-13T10:30:42.682Z</time></trkpt><trkpt lat="38.3901329" lon="-2.5836268"><ele>822.6666666666667</ele><time>2026-04-13T10:30:43.682Z</time></trkpt><trkpt lat="38.3901651" lon="-2.5835369"><ele>823.0</ele><time>2026-04-13T10:30:44.682Z</time></trkpt><trkpt lat="38.3902152" lon="-2.5834641"><ele>823.3333333333334</ele><time>2026-04-13T10:30:45.682Z</time></trkpt><trkpt lat="38.3902795" lon="-2.5834139"><ele>823.6666666666667</ele><time>2026-04-13T10:30:46.682Z</time></trkpt><trkpt lat="38.3903509" lon="-2.5833858"><ele>824.0</ele><time>2026-04-13T10:30:47.682Z</time></trkpt><trkpt lat="38.3904316" lon="-2.5833735"><ele>824.0</ele><time>2026-04-13T10:30:48.682Z</time></trkpt><trkpt lat="38.3905186" lon="-2.5833657"><ele>824.0</ele><time>2026-04-13T10:30:49.682Z</time></trkpt><trkpt lat="38.390612" lon="-2.5833591"><ele>824.0</ele><time>2026-04-13T10:30:50.682Z</time></trkpt><trkpt lat="38.3907084" lon="-2.5833426"><ele>824.0</ele><time>2026-04-13T10:30:51.682Z</time></trkpt><trkpt lat="38.3908079" lon="-2.5833177"><ele>824.0</ele><time>2026-04-13T10:30:52.682Z</time></trkpt><trkpt lat="38.3909068" lon="-2.5832957"><ele>824.0</ele><time>2026-04-13T10:30:53.682Z</time></trkpt><trkpt lat="38.3910028" lon="-2.583279"><ele>824.0</ele><time>2026-04-13T10:30:54.682Z</time></trkpt><trkpt lat="38.3910948" lon="-2.5832633"><ele>824.0</ele><time>2026-04-13T10:30:55.682Z</time></trkpt><trkpt lat="38.3911795" lon="-2.5832336"><ele>824.0</ele><time>2026-04-13T10:30:56.682Z</time></trkpt><trkpt lat="38.3912524" lon="-2.5831797"><ele>824.0</ele><time>2026-04-13T10:30:57.682Z</time></trkpt><trkpt lat="38.3913225" lon="-2.5831044"><ele>825.2</ele><time>2026-04-13T10:30:58.682Z</time></trkpt><trkpt lat="38.3913951" lon="-2.5830166"><ele>826.4000000000001</ele><time>2026-04-13T10:30:59.682Z</time></trkpt><trkpt lat="38.3914748" lon="-2.5829247"><ele>827.6</ele><time>2026-04-13T10:31:00.682Z</time></trkpt><trkpt lat="38.3915596" lon="-2.5828311"><ele>828.8</ele><time>2026-04-13T10:31:01.682Z</time></trkpt><trkpt lat="38.3916455" lon="-2.5827361"><ele>830.0</ele><time>2026-04-13T10:31:02.682Z</time></trkpt><trkpt lat="38.3917327" lon="-2.5826379"><ele>830.0</ele><time>2026-04-13T10:31:03.682Z</time></trkpt><trkpt lat="38.3918192" lon="-2.5825378"><ele>830.0</ele><time>2026-04-13T10:31:04.682Z</time></trkpt><trkpt lat="38.391903" lon="-2.5824403"><ele>830.0</ele><time>2026-04-13T10:31:05.682Z</time></trkpt><trkpt lat="38.3919837" lon="-2.5823524"><ele>830.0</ele><time>2026-04-13T10:31:06.682Z</time></trkpt><trkpt lat="38.3920549" lon="-2.5822784"><ele>830.0</ele><time>2026-04-13T10:31:07.682Z</time></trkpt><trkpt lat="38.3921087" lon="-2.5822219"><ele>830.8</ele><time>2026-04-13T10:31:08.682Z</time></trkpt><trkpt lat="38.3921854" lon="-2.5821409"><ele>831.6</ele><time>2026-04-13T10:31:10.682Z</time></trkpt><trkpt lat="38.3922869" lon="-2.5820396"><ele>832.4000000000001</ele><time>2026-04-13T10:31:12.682Z</time></trkpt><trkpt lat="38.3923475" lon="-2.5819816"><ele>833.2</ele><time>2026-04-13T10:31:13.682Z</time></trkpt><trkpt lat="38.3924177" lon="-2.5819217"><ele>834.0</ele><time>2026-04-13T10:31:14.682Z</time></trkpt><trkpt lat="38.3924967" lon="-2.58186"><ele>834.0</ele><time>2026-04-13T10:31:15.682Z</time></trkpt><trkpt lat="38.3925883" lon="-2.581799"><ele>834.0</ele><time>2026-04-13T10:31:16.682Z</time></trkpt><trkpt lat="38.3926911" lon="-2.5817407"><ele>834.0</ele><time>2026-04-13T10:31:17.682Z</time></trkpt><trkpt lat="38.392806" lon="-2.5816852"><ele>834.0</ele><time>2026-04-13T10:31:18.682Z</time></trkpt><trkpt lat="38.39293" lon="-2.5816288"><ele>831.5</ele><time>2026-04-13T10:31:19.682Z</time></trkpt><trkpt lat="38.3930568" lon="-2.5815739"><ele>829.0</ele><time>2026-04-13T10:31:20.682Z</time></trkpt><trkpt lat="38.3931868" lon="-2.5815224"><ele>826.5</ele><time>2026-04-13T10:31:21.682Z</time></trkpt><trkpt lat="38.3933162" lon="-2.5814719"><ele>824.0</ele><time>2026-04-13T10:31:22.682Z</time></trkpt><trkpt lat="38.3934445" lon="-2.581416"><ele>824.0</ele><time>2026-04-13T10:31:23.682Z</time></trkpt><trkpt lat="38.3935675" lon="-2.5813522"><ele>824.0</ele><time>2026-04-13T10:31:24.682Z</time></trkpt><trkpt lat="38.3936782" lon="-2.5812854"><ele>824.0</ele><time>2026-04-13T10:31:25.682Z</time></trkpt><trkpt lat="38.3937751" lon="-2.5812134"><ele>824.0</ele><time>2026-04-13T10:31:26.682Z</time></trkpt><trkpt lat="38.3938625" lon="-2.5811379"><ele>824.25</ele><time>2026-04-13T10:31:27.682Z</time></trkpt><trkpt lat="38.3939473" lon="-2.5810518"><ele>824.5</ele><time>2026-04-13T10:31:28.682Z</time></trkpt><trkpt lat="38.3940345" lon="-2.580952"><ele>824.75</ele><time>2026-04-13T10:31:29.682Z</time></trkpt><trkpt lat="38.3941293" lon="-2.5808415"><ele>825.0</ele><time>2026-04-13T10:31:30.682Z</time></trkpt><trkpt lat="38.3942284" lon="-2.5807238"><ele>825.0</ele><time>2026-04-13T10:31:31.682Z</time></trkpt><trkpt lat="38.3943299" lon="-2.5805998"><ele>825.0</ele><time>2026-04-13T10:31:32.682Z</time></trkpt><trkpt lat="38.3944367" lon="-2.5804695"><ele>825.0</ele><time>2026-04-13T10:31:33.682Z</time></trkpt><trkpt lat="38.39455" lon="-2.5803351"><ele>825.0</ele><time>2026-04-13T10:31:34.682Z</time></trkpt><trkpt lat="38.3946696" lon="-2.5801946"><ele>824.3333333333333</ele><time>2026-04-13T10:31:35.682Z</time></trkpt><trkpt lat="38.394797" lon="-2.5800552"><ele>823.6666666666666</ele><time>2026-04-13T10:31:36.682Z</time></trkpt><trkpt lat="38.3949316" lon="-2.5799221"><ele>823.0</ele><time>2026-04-13T10:31:37.682Z</time></trkpt><trkpt lat="38.3950721" lon="-2.5798033"><ele>823.0</ele><time>2026-04-13T10:31:38.682Z</time></trkpt><trkpt lat="38.3952188" lon="-2.5796994"><ele>823.0</ele><time>2026-04-13T10:31:39.683Z</time></trkpt><trkpt lat="38.3953673" lon="-2.5796101"><ele>823.0</ele><time>2026-04-13T10:31:40.682Z</time></trkpt><trkpt lat="38.3955175" lon="-2.5795297"><ele>828.3333333333333</ele><time>2026-04-13T10:31:41.682Z</time></trkpt><trkpt lat="38.3956702" lon="-2.5794499"><ele>833.6666666666667</ele><time>2026-04-13T10:31:42.682Z</time></trkpt><trkpt lat="38.3958223" lon="-2.5793614"><ele>839.0</ele><time>2026-04-13T10:31:43.682Z</time></trkpt><trkpt lat="38.3959753" lon="-2.5792579"><ele>839.0</ele><time>2026-04-13T10:31:44.682Z</time></trkpt><trkpt lat="38.3961248" lon="-2.579132"><ele>839.0</ele><time>2026-04-13T10:31:45.682Z</time></trkpt><trkpt lat="38.396264" lon="-2.5789762"><ele>839.0</ele><time>2026-04-13T10:31:46.682Z</time></trkpt><trkpt lat="38.3963872" lon="-2.5787844"><ele>833.6666666666667</ele><time>2026-04-13T10:31:47.682Z</time></trkpt><trkpt lat="38.396485" lon="-2.578564"><ele>828.3333333333333</ele><time>2026-04-13T10:31:48.682Z</time></trkpt><trkpt lat="38.3965627" lon="-2.5783205"><ele>823.0</ele><time>2026-04-13T10:31:49.682Z</time></trkpt><trkpt lat="38.3966289" lon="-2.5780681"><ele>827.0</ele><time>2026-04-13T10:31:50.682Z</time></trkpt><trkpt lat="38.3966915" lon="-2.5778075"><ele>831.0</ele><time>2026-04-13T10:31:51.682Z</time></trkpt><trkpt lat="38.3967531" lon="-2.5775414"><ele>835.0</ele><time>2026-04-13T10:31:52.682Z</time></trkpt><trkpt lat="38.3968147" lon="-2.5772688"><ele>840.3333333333333</ele><time>2026-04-13T10:31:53.682Z</time></trkpt><trkpt lat="38.3968761" lon="-2.5769945"><ele>845.6666666666667</ele><time>2026-04-13T10:31:54.682Z</time></trkpt><trkpt lat="38.3969418" lon="-2.57672"><ele>851.0</ele><time>2026-04-13T10:31:55.682Z</time></trkpt><trkpt lat="38.3970111" lon="-2.5764552"><ele>851.0</ele><time>2026-04-13T10:31:56.682Z</time></trkpt><trkpt lat="38.397092" lon="-2.5761955"><ele>851.0</ele><time>2026-04-13T10:31:57.682Z</time></trkpt><trkpt lat="38.3971903" lon="-2.57595"><ele>851.0</ele><time>2026-04-13T10:31:58.682Z</time></trkpt><trkpt lat="38.397307" lon="-2.5757204"><ele>847.6666666666667</ele><time>2026-04-13T10:31:59.682Z</time></trkpt><trkpt lat="38.3974389" lon="-2.5755131"><ele>844.3333333333333</ele><time>2026-04-13T10:32:00.682Z</time></trkpt><trkpt lat="38.3975785" lon="-2.5753255"><ele>841.0</ele><time>2026-04-13T10:32:01.682Z</time></trkpt><trkpt lat="38.3977142" lon="-2.5751511"><ele>841.0</ele><time>2026-04-13T10:32:02.682Z</time></trkpt><trkpt lat="38.3978421" lon="-2.5749772"><ele>841.0</ele><time>2026-04-13T10:32:03.682Z</time></trkpt><trkpt lat="38.3979564" lon="-2.5747939"><ele>841.0</ele><time>2026-04-13T10:32:04.682Z</time></trkpt><trkpt lat="38.3980565" lon="-2.5745929"><ele>835.6666666666666</ele><time>2026-04-13T10:32:05.682Z</time></trkpt><trkpt lat="38.3981374" lon="-2.5743744"><ele>830.3333333333333</ele><time>2026-04-13T10:32:06.682Z</time></trkpt><trkpt lat="38.3981928" lon="-2.5741378"><ele>825.0</ele><time>2026-04-13T10:32:07.682Z</time></trkpt><trkpt lat="38.3982241" lon="-2.5738882"><ele>824.3333333333333</ele><time>2026-04-13T10:32:08.682Z</time></trkpt><trkpt lat="38.3982311" lon="-2.5736354"><ele>823.6666666666666</ele><time>2026-04-13T10:32:09.682Z</time></trkpt><trkpt lat="38.3982151" lon="-2.5733957"><ele>823.0</ele><time>2026-04-13T10:32:10.682Z</time></trkpt><trkpt lat="38.3981762" lon="-2.5731648"><ele>823.0</ele><time>2026-04-13T10:32:11.682Z</time></trkpt><trkpt lat="38.3981162" lon="-2.572946"><ele>823.0</ele><time>2026-04-13T10:32:12.682Z</time></trkpt><trkpt lat="38.398042" lon="-2.5727426"><ele>823.0</ele><time>2026-04-13T10:32:13.682Z</time></trkpt><trkpt lat="38.3979601" lon="-2.5725463"><ele>825.3333333333333</ele><time>2026-04-13T10:32:14.682Z</time></trkpt><trkpt lat="38.3978806" lon="-2.5723517"><ele>827.6666666666667</ele><time>2026-04-13T10:32:15.682Z</time></trkpt><trkpt lat="38.3978066" lon="-2.5721558"><ele>830.0</ele><time>2026-04-13T10:32:16.682Z</time></trkpt><trkpt lat="38.3977393" lon="-2.5719665"><ele>830.0</ele><time>2026-04-13T10:32:17.682Z</time></trkpt><trkpt lat="38.3976758" lon="-2.5717869"><ele>830.0</ele><time>2026-04-13T10:32:18.682Z</time></trkpt><trkpt lat="38.3976146" lon="-2.5716228"><ele>830.0</ele><time>2026-04-13T10:32:19.682Z</time></trkpt><trkpt lat="38.3975498" lon="-2.5714641"><ele>830.0</ele><time>2026-04-13T10:32:20.682Z</time></trkpt><trkpt lat="38.3974763" lon="-2.5713111"><ele>831.0</ele><time>2026-04-13T10:32:21.682Z</time></trkpt><trkpt lat="38.3973931" lon="-2.5711607"><ele>832.0</ele><time>2026-04-13T10:32:22.682Z</time></trkpt><trkpt lat="38.3972985" lon="-2.5710189"><ele>833.0</ele><time>2026-04-13T10:32:23.682Z</time></trkpt><trkpt lat="38.3971943" lon="-2.5708857"><ele>834.0</ele><time>2026-04-13T10:32:24.682Z</time></trkpt><trkpt lat="38.3970832" lon="-2.5707631"><ele>834.0</ele><time>2026-04-13T10:32:25.682Z</time></trkpt><trkpt lat="38.3969704" lon="-2.5706457"><ele>834.0</ele><time>2026-04-13T10:32:26.682Z</time></trkpt><trkpt lat="38.3968587" lon="-2.5705303"><ele>834.0</ele><time>2026-04-13T10:32:27.682Z</time></trkpt><trkpt lat="38.3967555" lon="-2.5704227"><ele>834.0</ele><time>2026-04-13T10:32:28.682Z</time></trkpt><trkpt lat="38.3966589" lon="-2.5703104"><ele>829.5</ele><time>2026-04-13T10:32:29.682Z</time></trkpt><trkpt lat="38.3965724" lon="-2.5701905"><ele>825.0</ele><time>2026-04-13T10:32:30.682Z</time></trkpt><trkpt lat="38.3964974" lon="-2.5700582"><ele>820.5</ele><time>2026-04-13T10:32:31.682Z</time></trkpt><trkpt lat="38.3964395" lon="-2.5699143"><ele>816.0</ele><time>2026-04-13T10:32:32.682Z</time></trkpt><trkpt lat="38.3964006" lon="-2.569761"><ele>816.0</ele><time>2026-04-13T10:32:33.682Z</time></trkpt><trkpt lat="38.3963814" lon="-2.5696036"><ele>816.0</ele><time>2026-04-13T10:32:34.682Z</time></trkpt><trkpt lat="38.3963828" lon="-2.5694422"><ele>816.0</ele><time>2026-04-13T10:32:35.682Z</time></trkpt><trkpt lat="38.3964036" lon="-2.5692827"><ele>816.0</ele><time>2026-04-13T10:32:36.682Z</time></trkpt><trkpt lat="38.3964439" lon="-2.5691287"><ele>815.75</ele><time>2026-04-13T10:32:37.682Z</time></trkpt><trkpt lat="38.3965026" lon="-2.5689859"><ele>815.5</ele><time>2026-04-13T10:32:38.682Z</time></trkpt><trkpt lat="38.3965766" lon="-2.5688527"><ele>815.25</ele><time>2026-04-13T10:32:39.682Z</time></trkpt><trkpt lat="38.3966618" lon="-2.568732"><ele>815.0</ele><time>2026-04-13T10:32:40.682Z</time></trkpt><trkpt lat="38.3967464" lon="-2.5686263"><ele>815.0</ele><time>2026-04-13T10:32:41.682Z</time></trkpt><trkpt lat="38.3968323" lon="-2.5685256"><ele>815.0</ele><time>2026-04-13T10:32:42.682Z</time></trkpt><trkpt lat="38.3969179" lon="-2.5684253"><ele>815.0</ele><time>2026-04-13T10:32:43.682Z</time></trkpt><trkpt lat="38.3970018" lon="-2.5683195"><ele>815.0</ele><time>2026-04-13T10:32:44.682Z</time></trkpt><trkpt lat="38.3970834" lon="-2.5682031"><ele>815.0</ele><time>2026-04-13T10:32:45.682Z</time></trkpt><trkpt lat="38.3971574" lon="-2.5680734"><ele>815.0</ele><time>2026-04-13T10:32:46.682Z</time></trkpt><trkpt lat="38.3972207" lon="-2.5679295"><ele>815.0</ele><time>2026-04-13T10:32:47.682Z</time></trkpt><trkpt lat="38.3972694" lon="-2.5677691"><ele>815.0</ele><time>2026-04-13T10:32:48.682Z</time></trkpt><trkpt lat="38.3973035" lon="-2.5676007"><ele>810.75</ele><time>2026-04-13T10:32:49.683Z</time></trkpt><trkpt lat="38.3973275" lon="-2.5674276"><ele>806.5</ele><time>2026-04-13T10:32:50.682Z</time></trkpt><trkpt lat="38.3973501" lon="-2.5672512"><ele>802.25</ele><time>2026-04-13T10:32:51.682Z</time></trkpt><trkpt lat="38.3973714" lon="-2.5670734"><ele>798.0</ele><time>2026-04-13T10:32:52.682Z</time></trkpt><trkpt lat="38.3973921" lon="-2.5668928"><ele>798.0</ele><time>2026-04-13T10:32:53.682Z</time></trkpt><trkpt lat="38.3974124" lon="-2.5667101"><ele>798.0</ele><time>2026-04-13T10:32:54.682Z</time></trkpt><trkpt lat="38.3974324" lon="-2.5665233"><ele>798.0</ele><time>2026-04-13T10:32:55.682Z</time></trkpt><trkpt lat="38.3974516" lon="-2.5663339"><ele>798.0</ele><time>2026-04-13T10:32:56.682Z</time></trkpt><trkpt lat="38.3974717" lon="-2.5661457"><ele>799.0</ele><time>2026-04-13T10:32:57.682Z</time></trkpt><trkpt lat="38.3974915" lon="-2.5659561"><ele>800.0</ele><time>2026-04-13T10:32:58.682Z</time></trkpt><trkpt lat="38.3975088" lon="-2.5657632"><ele>801.0</ele><time>2026-04-13T10:32:59.682Z</time></trkpt><trkpt lat="38.3975189" lon="-2.5655673"><ele>801.0</ele><time>2026-04-13T10:33:00.682Z</time></trkpt><trkpt lat="38.3975232" lon="-2.565368"><ele>801.0</ele><time>2026-04-13T10:33:01.682Z</time></trkpt><trkpt lat="38.3975176" lon="-2.5651658"><ele>801.0</ele><time>2026-04-13T10:33:02.682Z</time></trkpt><trkpt lat="38.3975019" lon="-2.564963"><ele>801.0</ele><time>2026-04-13T10:33:03.682Z</time></trkpt><trkpt lat="38.3974795" lon="-2.5647582"><ele>801.0</ele><time>2026-04-13T10:33:04.682Z</time></trkpt><trkpt lat="38.397455" lon="-2.5645525"><ele>801.0</ele><time>2026-04-13T10:33:05.682Z</time></trkpt><trkpt lat="38.3974334" lon="-2.5643458"><ele>799.0</ele><time>2026-04-13T10:33:06.682Z</time></trkpt><trkpt lat="38.3974187" lon="-2.5641376"><ele>797.0</ele><time>2026-04-13T10:33:07.682Z</time></trkpt><trkpt lat="38.3974119" lon="-2.563926"><ele>795.0</ele><time>2026-04-13T10:33:08.682Z</time></trkpt><trkpt lat="38.3974143" lon="-2.5637134"><ele>794.6666666666667</ele><time>2026-04-13T10:33:09.682Z</time></trkpt><trkpt lat="38.3974267" lon="-2.5635009"><ele>794.3333333333334</ele><time>2026-04-13T10:33:10.682Z</time></trkpt><trkpt lat="38.39745" lon="-2.5632937"><ele>794.0</ele><time>2026-04-13T10:33:11.682Z</time></trkpt><trkpt lat="38.3974839" lon="-2.5630886"><ele>794.0</ele><time>2026-04-13T10:33:12.682Z</time></trkpt><trkpt lat="38.397529" lon="-2.5628908"><ele>794.0</ele><time>2026-04-13T10:33:13.682Z</time></trkpt><trkpt lat="38.397584" lon="-2.5627015"><ele>794.0</ele><time>2026-04-13T10:33:14.682Z</time></trkpt><trkpt lat="38.3976489" lon="-2.5625237"><ele>797.25</ele><time>2026-04-13T10:33:15.682Z</time></trkpt><trkpt lat="38.3977239" lon="-2.5623551"><ele>800.5</ele><time>2026-04-13T10:33:16.682Z</time></trkpt><trkpt lat="38.3978081" lon="-2.5621965"><ele>803.75</ele><time>2026-04-13T10:33:17.682Z</time></trkpt><trkpt lat="38.3978971" lon="-2.5620502"><ele>807.0</ele><time>2026-04-13T10:33:18.682Z</time></trkpt><trkpt lat="38.3979906" lon="-2.561912"><ele>803.0</ele><time>2026-04-13T10:33:19.682Z</time></trkpt><trkpt lat="38.3980857" lon="-2.5617824"><ele>799.0</ele><time>2026-04-13T10:33:20.682Z</time></trkpt><trkpt lat="38.3981824" lon="-2.561662"><ele>795.0</ele><time>2026-04-13T10:33:21.682Z</time></trkpt><trkpt lat="38.3982807" lon="-2.5615502"><ele>791.0</ele><time>2026-04-13T10:33:22.682Z</time></trkpt><trkpt lat="38.3983809" lon="-2.5614485"><ele>791.0</ele><time>2026-04-13T10:33:23.682Z</time></trkpt><trkpt lat="38.3984708" lon="-2.5613402"><ele>791.0</ele><time>2026-04-13T10:33:24.682Z</time></trkpt><trkpt lat="38.3985375" lon="-2.5612059"><ele>791.0</ele><time>2026-04-13T10:33:25.682Z</time></trkpt><trkpt lat="38.3985702" lon="-2.561055"><ele>791.0</ele><time>2026-04-13T10:33:26.682Z</time></trkpt><trkpt lat="38.3985724" lon="-2.5608898"><ele>793.75</ele><time>2026-04-13T10:33:27.682Z</time></trkpt><trkpt lat="38.3985518" lon="-2.5607269"><ele>796.5</ele><time>2026-04-13T10:33:28.682Z</time></trkpt><trkpt lat="38.3985186" lon="-2.5605727"><ele>799.25</ele><time>2026-04-13T10:33:29.682Z</time></trkpt><trkpt lat="38.3984786" lon="-2.5604192"><ele>802.0</ele><time>2026-04-13T10:33:30.682Z</time></trkpt><trkpt lat="38.3984384" lon="-2.5602722"><ele>802.0</ele><time>2026-04-13T10:33:31.682Z</time></trkpt><trkpt lat="38.3983988" lon="-2.5601259"><ele>802.0</ele><time>2026-04-13T10:33:32.682Z</time></trkpt><trkpt lat="38.3983602" lon="-2.5599761"><ele>802.0</ele><time>2026-04-13T10:33:33.682Z</time></trkpt><trkpt lat="38.3983243" lon="-2.5598303"><ele>802.0</ele><time>2026-04-13T10:33:34.682Z</time></trkpt><trkpt lat="38.3982922" lon="-2.5596854"><ele>802.0</ele><time>2026-04-13T10:33:35.682Z</time></trkpt><trkpt lat="38.3982639" lon="-2.5595377"><ele>802.0</ele><time>2026-04-13T10:33:36.682Z</time></trkpt><trkpt lat="38.3982401" lon="-2.5593876"><ele>802.0</ele><time>2026-04-13T10:33:37.682Z</time></trkpt><trkpt lat="38.3982208" lon="-2.5592278"><ele>802.0</ele><time>2026-04-13T10:33:38.682Z</time></trkpt><trkpt lat="38.3982061" lon="-2.5590604"><ele>799.75</ele><time>2026-04-13T10:33:39.682Z</time></trkpt><trkpt lat="38.3981996" lon="-2.5588853"><ele>797.5</ele><time>2026-04-13T10:33:40.682Z</time></trkpt><trkpt lat="38.3982002" lon="-2.5587052"><ele>795.25</ele><time>2026-04-13T10:33:41.682Z</time></trkpt><trkpt lat="38.3982105" lon="-2.5585198"><ele>793.0</ele><time>2026-04-13T10:33:42.682Z</time></trkpt><trkpt lat="38.3982315" lon="-2.5583352"><ele>793.0</ele><time>2026-04-13T10:33:43.682Z</time></trkpt><trkpt lat="38.3982634" lon="-2.5581534"><ele>793.0</ele><time>2026-04-13T10:33:44.682Z</time></trkpt><trkpt lat="38.3983042" lon="-2.5579755"><ele>793.0</ele><time>2026-04-13T10:33:45.682Z</time></trkpt><trkpt lat="38.3983508" lon="-2.5578013"><ele>793.0</ele><time>2026-04-13T10:33:46.682Z</time></trkpt><trkpt lat="38.3984017" lon="-2.5576275"><ele>791.75</ele><time>2026-04-13T10:33:47.682Z</time></trkpt><trkpt lat="38.3984564" lon="-2.5574558"><ele>790.5</ele><time>2026-04-13T10:33:48.682Z</time></trkpt><trkpt lat="38.3985113" lon="-2.557286"><ele>789.25</ele><time>2026-04-13T10:33:49.682Z</time></trkpt><trkpt lat="38.3985656" lon="-2.5571181"><ele>788.0</ele><time>2026-04-13T10:33:50.682Z</time></trkpt><trkpt lat="38.3986194" lon="-2.556951"><ele>786.75</ele><time>2026-04-13T10:33:51.682Z</time></trkpt><trkpt lat="38.3986723" lon="-2.5567873"><ele>785.5</ele><time>2026-04-13T10:33:52.682Z</time></trkpt><trkpt lat="38.398724" lon="-2.556627"><ele>784.25</ele><time>2026-04-13T10:33:53.682Z</time></trkpt><trkpt lat="38.3987743" lon="-2.5564711"><ele>783.0</ele><time>2026-04-13T10:33:54.682Z</time></trkpt><trkpt lat="38.3988236" lon="-2.5563173"><ele>787.0</ele><time>2026-04-13T10:33:55.682Z</time></trkpt><trkpt lat="38.3988718" lon="-2.5561678"><ele>791.0</ele><time>2026-04-13T10:33:56.682Z</time></trkpt><trkpt lat="38.3989217" lon="-2.5560145"><ele>795.0</ele><time>2026-04-13T10:33:57.682Z</time></trkpt><trkpt lat="38.3989723" lon="-2.5558596"><ele>799.0</ele><time>2026-04-13T10:33:58.682Z</time></trkpt><trkpt lat="38.3990264" lon="-2.5556986"><ele>799.0</ele><time>2026-04-13T10:33:59.682Z</time></trkpt><trkpt lat="38.3990828" lon="-2.5555335"><ele>799.0</ele><time>2026-04-13T10:34:00.682Z</time></trkpt><trkpt lat="38.3991392" lon="-2.5553633"><ele>799.0</ele><time>2026-04-13T10:34:01.682Z</time></trkpt><trkpt lat="38.3991973" lon="-2.5551896"><ele>799.0</ele><time>2026-04-13T10:34:02.682Z</time></trkpt><trkpt lat="38.399257" lon="-2.5550113"><ele>797.3333333333333</ele><time>2026-04-13T10:34:03.682Z</time></trkpt><trkpt lat="38.3993156" lon="-2.5548286"><ele>795.6666666666667</ele><time>2026-04-13T10:34:04.682Z</time></trkpt><trkpt lat="38.3993754" lon="-2.5546435"><ele>794.0</ele><time>2026-04-13T10:34:05.682Z</time></trkpt><trkpt lat="38.3994368" lon="-2.5544577"><ele>792.0</ele><time>2026-04-13T10:34:06.682Z</time></trkpt><trkpt lat="38.3995024" lon="-2.5542688"><ele>790.0</ele><time>2026-04-13T10:34:07.682Z</time></trkpt><trkpt lat="38.3995726" lon="-2.5540802"><ele>788.0</ele><time>2026-04-13T10:34:08.682Z</time></trkpt><trkpt lat="38.3996489" lon="-2.5538935"><ele>791.0</ele><time>2026-04-13T10:34:09.682Z</time></trkpt><trkpt lat="38.3997337" lon="-2.5537119"><ele>794.0</ele><time>2026-04-13T10:34:10.682Z</time></trkpt><trkpt lat="38.3998273" lon="-2.5535345"><ele>797.0</ele><time>2026-04-13T10:34:11.682Z</time></trkpt><trkpt lat="38.3999261" lon="-2.5533617"><ele>797.0</ele><time>2026-04-13T10:34:12.682Z</time></trkpt><trkpt lat="38.400033" lon="-2.5531943"><ele>797.0</ele><time>2026-04-13T10:34:13.682Z</time></trkpt><trkpt lat="38.4001477" lon="-2.5530354"><ele>797.0</ele><time>2026-04-13T10:34:14.682Z</time></trkpt><trkpt lat="38.4002675" lon="-2.5528872"><ele>795.0</ele><time>2026-04-13T10:34:15.682Z</time></trkpt><trkpt lat="38.4003925" lon="-2.5527505"><ele>793.0</ele><time>2026-04-13T10:34:16.682Z</time></trkpt><trkpt lat="38.4005202" lon="-2.5526209"><ele>791.0</ele><time>2026-04-13T10:34:17.682Z</time></trkpt><trkpt lat="38.4006503" lon="-2.5524982"><ele>795.3333333333334</ele><time>2026-04-13T10:34:18.682Z</time></trkpt><trkpt lat="38.4007823" lon="-2.5523795"><ele>799.6666666666667</ele><time>2026-04-13T10:34:19.682Z</time></trkpt><trkpt lat="38.4009164" lon="-2.5522623"><ele>804.0</ele><time>2026-04-13T10:34:20.682Z</time></trkpt><trkpt lat="38.401054" lon="-2.5521437"><ele>805.0</ele><time>2026-04-13T10:34:21.682Z</time></trkpt><trkpt lat="38.4011933" lon="-2.5520231"><ele>806.0</ele><time>2026-04-13T10:34:22.682Z</time></trkpt><trkpt lat="38.4013335" lon="-2.5519013"><ele>807.0</ele><time>2026-04-13T10:34:23.682Z</time></trkpt><trkpt lat="38.401476" lon="-2.5517789"><ele>807.0</ele><time>2026-04-13T10:34:24.682Z</time></trkpt><trkpt lat="38.401619" lon="-2.5516574"><ele>807.0</ele><time>2026-04-13T10:34:25.682Z</time></trkpt><trkpt lat="38.4017617" lon="-2.5515369"><ele>807.0</ele><time>2026-04-13T10:34:26.683Z</time></trkpt><trkpt lat="38.401903" lon="-2.551418"><ele>807.0</ele><time>2026-04-13T10:34:27.682Z</time></trkpt><trkpt lat="38.4020418" lon="-2.5513017"><ele>807.0</ele><time>2026-04-13T10:34:28.682Z</time></trkpt><trkpt lat="38.4021762" lon="-2.5511872"><ele>807.0</ele><time>2026-04-13T10:34:29.682Z</time></trkpt><trkpt lat="38.4023105" lon="-2.5510719"><ele>806.6666666666667</ele><time>2026-04-13T10:34:30.682Z</time></trkpt><trkpt lat="38.4024452" lon="-2.5509571"><ele>806.3333333333334</ele><time>2026-04-13T10:34:31.682Z</time></trkpt><trkpt lat="38.402578" lon="-2.5508439"><ele>806.0</ele><time>2026-04-13T10:34:32.682Z</time></trkpt><trkpt lat="38.4027082" lon="-2.5507339"><ele>806.0</ele><time>2026-04-13T10:34:33.682Z</time></trkpt><trkpt lat="38.4028363" lon="-2.550625"><ele>806.0</ele><time>2026-04-13T10:34:34.682Z</time></trkpt><trkpt lat="38.4029624" lon="-2.5505181"><ele>806.0</ele><time>2026-04-13T10:34:35.682Z</time></trkpt><trkpt lat="38.4030847" lon="-2.5504131"><ele>806.5</ele><time>2026-04-13T10:34:36.682Z</time></trkpt><trkpt lat="38.403207" lon="-2.550314"><ele>807.0</ele><time>2026-04-13T10:34:37.682Z</time></trkpt><trkpt lat="38.4033353" lon="-2.5502281"><ele>807.5</ele><time>2026-04-13T10:34:38.682Z</time></trkpt><trkpt lat="38.4034712" lon="-2.5501599"><ele>808.0</ele><time>2026-04-13T10:34:39.682Z</time></trkpt><trkpt lat="38.4036141" lon="-2.550107"><ele>808.0</ele><time>2026-04-13T10:34:40.682Z</time></trkpt><trkpt lat="38.4037627" lon="-2.5500676"><ele>808.0</ele><time>2026-04-13T10:34:41.682Z</time></trkpt><trkpt lat="38.4039129" lon="-2.5500374"><ele>808.0</ele><time>2026-04-13T10:34:42.682Z</time></trkpt><trkpt lat="38.4040567" lon="-2.550016"><ele>808.0</ele><time>2026-04-13T10:34:43.682Z</time></trkpt><trkpt lat="38.4041949" lon="-2.5500045"><ele>806.75</ele><time>2026-04-13T10:34:44.682Z</time></trkpt><trkpt lat="38.4043303" lon="-2.5500181"><ele>805.5</ele><time>2026-04-13T10:34:45.682Z</time></trkpt><trkpt lat="38.4044609" lon="-2.5500647"><ele>804.25</ele><time>2026-04-13T10:34:46.682Z</time></trkpt><trkpt lat="38.4045878" lon="-2.5501334"><ele>803.0</ele><time>2026-04-13T10:34:47.682Z</time></trkpt><trkpt lat="38.4047151" lon="-2.5502129"><ele>803.75</ele><time>2026-04-13T10:34:48.682Z</time></trkpt><trkpt lat="38.4048442" lon="-2.5502895"><ele>804.5</ele><time>2026-04-13T10:34:49.682Z</time></trkpt><trkpt lat="38.4049821" lon="-2.5503544"><ele>805.25</ele><time>2026-04-13T10:34:50.682Z</time></trkpt><trkpt lat="38.4051295" lon="-2.550405"><ele>806.0</ele><time>2026-04-13T10:34:51.682Z</time></trkpt><trkpt lat="38.4052794" lon="-2.55044"><ele>806.0</ele><time>2026-04-13T10:34:52.682Z</time></trkpt><trkpt lat="38.405435" lon="-2.5504658"><ele>806.0</ele><time>2026-04-13T10:34:53.683Z</time></trkpt><trkpt lat="38.4055908" lon="-2.5504895"><ele>806.0</ele><time>2026-04-13T10:34:54.682Z</time></trkpt><trkpt lat="38.4057413" lon="-2.5505134"><ele>803.25</ele><time>2026-04-13T10:34:55.682Z</time></trkpt><trkpt lat="38.405884" lon="-2.55054"><ele>800.5</ele><time>2026-04-13T10:34:56.682Z</time></trkpt><trkpt lat="38.4060272" lon="-2.5505691"><ele>797.75</ele><time>2026-04-13T10:34:57.682Z</time></trkpt><trkpt lat="38.4061711" lon="-2.5505977"><ele>795.0</ele><time>2026-04-13T10:34:58.682Z</time></trkpt><trkpt lat="38.4063174" lon="-2.5506211"><ele>794.3333333333333</ele><time>2026-04-13T10:34:59.682Z</time></trkpt><trkpt lat="38.4064664" lon="-2.5506336"><ele>793.6666666666666</ele><time>2026-04-13T10:35:00.682Z</time></trkpt><trkpt lat="38.4066188" lon="-2.5506285"><ele>793.0</ele><time>2026-04-13T10:35:01.682Z</time></trkpt><trkpt lat="38.4067728" lon="-2.5506058"><ele>793.0</ele><time>2026-04-13T10:35:02.683Z</time></trkpt><trkpt lat="38.4069259" lon="-2.5505705"><ele>793.0</ele><time>2026-04-13T10:35:03.682Z</time></trkpt><trkpt lat="38.4070757" lon="-2.5505326"><ele>793.0</ele><time>2026-04-13T10:35:04.682Z</time></trkpt><trkpt lat="38.4072239" lon="-2.5505053"><ele>790.6666666666666</ele><time>2026-04-13T10:35:05.682Z</time></trkpt><trkpt lat="38.4073744" lon="-2.5504957"><ele>788.3333333333333</ele><time>2026-04-13T10:35:06.682Z</time></trkpt><trkpt lat="38.4075262" lon="-2.5505107"><ele>786.0</ele><time>2026-04-13T10:35:07.682Z</time></trkpt><trkpt lat="38.4076751" lon="-2.5505494"><ele>786.0</ele><time>2026-04-13T10:35:08.682Z</time></trkpt><trkpt lat="38.4078236" lon="-2.5506017"><ele>786.0</ele><time>2026-04-13T10:35:09.682Z</time></trkpt><trkpt lat="38.4079667" lon="-2.5506544"><ele>786.0</ele><time>2026-04-13T10:35:10.682Z</time></trkpt><trkpt lat="38.4081078" lon="-2.550699"><ele>786.0</ele><time>2026-04-13T10:35:11.682Z</time></trkpt><trkpt lat="38.4082541" lon="-2.5507233"><ele>783.75</ele><time>2026-04-13T10:35:12.682Z</time></trkpt><trkpt lat="38.408403" lon="-2.5507159"><ele>781.5</ele><time>2026-04-13T10:35:13.682Z</time></trkpt><trkpt lat="38.4085521" lon="-2.5506746"><ele>779.25</ele><time>2026-04-13T10:35:14.682Z</time></trkpt><trkpt lat="38.4086888" lon="-2.5506057"><ele>777.0</ele><time>2026-04-13T10:35:15.682Z</time></trkpt><trkpt lat="38.4088074" lon="-2.5505196"><ele>774.75</ele><time>2026-04-13T10:35:16.682Z</time></trkpt><trkpt lat="38.4089146" lon="-2.5504114"><ele>772.5</ele><time>2026-04-13T10:35:17.682Z</time></trkpt><trkpt lat="38.4090057" lon="-2.5502814"><ele>770.25</ele><time>2026-04-13T10:35:18.682Z</time></trkpt><trkpt lat="38.4090806" lon="-2.5501316"><ele>768.0</ele><time>2026-04-13T10:35:19.682Z</time></trkpt><trkpt lat="38.4091357" lon="-2.5499664"><ele>766.5</ele><time>2026-04-13T10:35:20.682Z</time></trkpt><trkpt lat="38.40917" lon="-2.5498003"><ele>765.0</ele><time>2026-04-13T10:35:21.682Z</time></trkpt><trkpt lat="38.4091854" lon="-2.5496344"><ele>763.5</ele><time>2026-04-13T10:35:22.682Z</time></trkpt><trkpt lat="38.4091818" lon="-2.5494657"><ele>762.0</ele><time>2026-04-13T10:35:23.682Z</time></trkpt><trkpt lat="38.4091605" lon="-2.5492963"><ele>760.5</ele><time>2026-04-13T10:35:24.682Z</time></trkpt><trkpt lat="38.4091321" lon="-2.5491259"><ele>759.0</ele><time>2026-04-13T10:35:25.682Z</time></trkpt><trkpt lat="38.4091049" lon="-2.5489515"><ele>757.5</ele><time>2026-04-13T10:35:26.682Z</time></trkpt><trkpt lat="38.409085" lon="-2.5487713"><ele>756.0</ele><time>2026-04-13T10:35:27.682Z</time></trkpt><trkpt lat="38.4090792" lon="-2.5485851"><ele>754.6666666666666</ele><time>2026-04-13T10:35:28.682Z</time></trkpt><trkpt lat="38.4090931" lon="-2.5483956"><ele>753.3333333333333</ele><time>2026-04-13T10:35:29.682Z</time></trkpt><trkpt lat="38.4091288" lon="-2.5482066"><ele>752.0</ele><time>2026-04-13T10:35:30.682Z</time></trkpt><trkpt lat="38.4091864" lon="-2.5480212"><ele>753.3333333333333</ele><time>2026-04-13T10:35:31.682Z</time></trkpt><trkpt lat="38.4092666" lon="-2.5478432"><ele>754.6666666666666</ele><time>2026-04-13T10:35:32.682Z</time></trkpt><trkpt lat="38.4093656" lon="-2.5476805"><ele>756.0</ele><time>2026-04-13T10:35:33.682Z</time></trkpt><trkpt lat="38.4094842" lon="-2.5475386"><ele>756.0</ele><time>2026-04-13T10:35:34.682Z</time></trkpt><trkpt lat="38.4096191" lon="-2.5474207"><ele>756.0</ele><time>2026-04-13T10:35:35.682Z</time></trkpt><trkpt lat="38.4097682" lon="-2.5473299"><ele>756.0</ele><time>2026-04-13T10:35:36.682Z</time></trkpt><trkpt lat="38.4099274" lon="-2.547268"><ele>753.6666666666666</ele><time>2026-04-13T10:35:37.682Z</time></trkpt><trkpt lat="38.4100929" lon="-2.5472317"><ele>751.3333333333333</ele><time>2026-04-13T10:35:38.682Z</time></trkpt><trkpt lat="38.410264" lon="-2.5472082"><ele>749.0</ele><time>2026-04-13T10:35:39.682Z</time></trkpt><trkpt lat="38.4104386" lon="-2.5471908"><ele>748.3333333333333</ele><time>2026-04-13T10:35:40.682Z</time></trkpt><trkpt lat="38.4106149" lon="-2.5471747"><ele>747.6666666666666</ele><time>2026-04-13T10:35:41.682Z</time></trkpt><trkpt lat="38.4107963" lon="-2.5471588"><ele>747.0</ele><time>2026-04-13T10:35:42.682Z</time></trkpt><trkpt lat="38.4109822" lon="-2.5471429"><ele>747.0</ele><time>2026-04-13T10:35:43.682Z</time></trkpt><trkpt lat="38.4111749" lon="-2.5471271"><ele>747.0</ele><time>2026-04-13T10:35:44.682Z</time></trkpt><trkpt lat="38.4113712" lon="-2.5471112"><ele>747.0</ele><time>2026-04-13T10:35:45.682Z</time></trkpt><trkpt lat="38.41157" lon="-2.5470944"><ele>747.3333333333334</ele><time>2026-04-13T10:35:46.682Z</time></trkpt><trkpt lat="38.4117736" lon="-2.5470778"><ele>747.6666666666667</ele><time>2026-04-13T10:35:47.682Z</time></trkpt><trkpt lat="38.4119792" lon="-2.5470595"><ele>748.0</ele><time>2026-04-13T10:35:48.682Z</time></trkpt><trkpt lat="38.4121843" lon="-2.5470408"><ele>748.0</ele><time>2026-04-13T10:35:49.682Z</time></trkpt><trkpt lat="38.4123872" lon="-2.5470226"><ele>748.0</ele><time>2026-04-13T10:35:50.682Z</time></trkpt><trkpt lat="38.4125907" lon="-2.5470058"><ele>748.0</ele><time>2026-04-13T10:35:51.682Z</time></trkpt><trkpt lat="38.4127932" lon="-2.5469943"><ele>746.6666666666667</ele><time>2026-04-13T10:35:52.682Z</time></trkpt><trkpt lat="38.4129943" lon="-2.5469846"><ele>745.3333333333334</ele><time>2026-04-13T10:35:53.682Z</time></trkpt><trkpt lat="38.4131923" lon="-2.5469696"><ele>744.0</ele><time>2026-04-13T10:35:54.682Z</time></trkpt><trkpt lat="38.4133902" lon="-2.546949"><ele>744.0</ele><time>2026-04-13T10:35:55.682Z</time></trkpt><trkpt lat="38.4135866" lon="-2.5469287"><ele>744.0</ele><time>2026-04-13T10:35:56.682Z</time></trkpt><trkpt lat="38.4137817" lon="-2.54691"><ele>744.0</ele><time>2026-04-13T10:35:57.683Z</time></trkpt><trkpt lat="38.4139752" lon="-2.5468921"><ele>743.6666666666666</ele><time>2026-04-13T10:35:58.682Z</time></trkpt><trkpt lat="38.4141579" lon="-2.5468762"><ele>743.3333333333333</ele><time>2026-04-13T10:35:59.682Z</time></trkpt><trkpt lat="38.4143308" lon="-2.5468613"><ele>743.0</ele><time>2026-04-13T10:36:00.682Z</time></trkpt><trkpt lat="38.4144986" lon="-2.5468459"><ele>741.3333333333333</ele><time>2026-04-13T10:36:01.682Z</time></trkpt><trkpt lat="38.4146633" lon="-2.5468332"><ele>739.6666666666666</ele><time>2026-04-13T10:36:02.682Z</time></trkpt><trkpt lat="38.4148303" lon="-2.546817"><ele>738.0</ele><time>2026-04-13T10:36:03.682Z</time></trkpt><trkpt lat="38.4149985" lon="-2.546794"><ele>738.0</ele><time>2026-04-13T10:36:04.682Z</time></trkpt><trkpt lat="38.415167" lon="-2.5467581"><ele>738.0</ele><time>2026-04-13T10:36:05.682Z</time></trkpt><trkpt lat="38.4153344" lon="-2.5467108"><ele>738.0</ele><time>2026-04-13T10:36:06.682Z</time></trkpt><trkpt lat="38.4155009" lon="-2.5466512"><ele>736.0</ele><time>2026-04-13T10:36:07.682Z</time></trkpt><trkpt lat="38.4156636" lon="-2.5465799"><ele>734.0</ele><time>2026-04-13T10:36:08.682Z</time></trkpt><trkpt lat="38.415824" lon="-2.5464998"><ele>732.0</ele><time>2026-04-13T10:36:09.682Z</time></trkpt><trkpt lat="38.4159817" lon="-2.5464146"><ele>732.0</ele><time>2026-04-13T10:36:10.682Z</time></trkpt><trkpt lat="38.41614" lon="-2.5463308"><ele>732.0</ele><time>2026-04-13T10:36:11.682Z</time></trkpt><trkpt lat="38.4162983" lon="-2.5462513"><ele>732.0</ele><time>2026-04-13T10:36:12.682Z</time></trkpt><trkpt lat="38.416456" lon="-2.5461758"><ele>731.3333333333334</ele><time>2026-04-13T10:36:13.682Z</time></trkpt><trkpt lat="38.4166129" lon="-2.5461029"><ele>730.6666666666667</ele><time>2026-04-13T10:36:14.682Z</time></trkpt><trkpt lat="38.4167699" lon="-2.5460374"><ele>730.0</ele><time>2026-04-13T10:36:15.682Z</time></trkpt><trkpt lat="38.4169293" lon="-2.5459788"><ele>730.0</ele><time>2026-04-13T10:36:16.682Z</time></trkpt><trkpt lat="38.417091" lon="-2.5459261"><ele>730.0</ele><time>2026-04-13T10:36:17.682Z</time></trkpt><trkpt lat="38.4172572" lon="-2.5458744"><ele>730.0</ele><time>2026-04-13T10:36:18.682Z</time></trkpt><trkpt lat="38.4174253" lon="-2.5458235"><ele>729.0</ele><time>2026-04-13T10:36:19.682Z</time></trkpt><trkpt lat="38.4175907" lon="-2.5457741"><ele>728.0</ele><time>2026-04-13T10:36:20.681Z</time></trkpt><trkpt lat="38.417752" lon="-2.5457258"><ele>727.0</ele><time>2026-04-13T10:36:21.683Z</time></trkpt><trkpt lat="38.4179111" lon="-2.5456771"><ele>728.3333333333334</ele><time>2026-04-13T10:36:22.682Z</time></trkpt><trkpt lat="38.4180671" lon="-2.5456258"><ele>729.6666666666666</ele><time>2026-04-13T10:36:23.682Z</time></trkpt><trkpt lat="38.4182183" lon="-2.54556"><ele>731.0</ele><time>2026-04-13T10:36:24.682Z</time></trkpt><trkpt lat="38.4183655" lon="-2.5454679"><ele>733.0</ele><time>2026-04-13T10:36:25.682Z</time></trkpt><trkpt lat="38.4185055" lon="-2.5453388"><ele>735.0</ele><time>2026-04-13T10:36:26.682Z</time></trkpt><trkpt lat="38.4186441" lon="-2.5451942"><ele>737.0</ele><time>2026-04-13T10:36:27.682Z</time></trkpt><trkpt lat="38.4187854" lon="-2.5450398"><ele>734.6666666666666</ele><time>2026-04-13T10:36:28.682Z</time></trkpt><trkpt lat="38.4189325" lon="-2.5448753"><ele>732.3333333333334</ele><time>2026-04-13T10:36:29.682Z</time></trkpt><trkpt lat="38.4190819" lon="-2.5446998"><ele>730.0</ele><time>2026-04-13T10:36:30.682Z</time></trkpt><trkpt lat="38.4192331" lon="-2.5445153"><ele>729.6666666666667</ele><time>2026-04-13T10:36:31.682Z</time></trkpt><trkpt lat="38.4193825" lon="-2.5443258"><ele>729.3333333333334</ele><time>2026-04-13T10:36:32.682Z</time></trkpt><trkpt lat="38.4195332" lon="-2.5441279"><ele>729.0</ele><time>2026-04-13T10:36:33.682Z</time></trkpt><trkpt lat="38.4196855" lon="-2.5439219"><ele>736.0</ele><time>2026-04-13T10:36:34.682Z</time></trkpt><trkpt lat="38.4198408" lon="-2.5437126"><ele>743.0</ele><time>2026-04-13T10:36:35.682Z</time></trkpt><trkpt lat="38.4199992" lon="-2.5435081"><ele>743.0</ele><time>2026-04-13T10:36:36.682Z</time></trkpt><trkpt lat="38.4201591" lon="-2.5433033"><ele>743.0</ele><time>2026-04-13T10:36:37.682Z</time></trkpt><trkpt lat="38.4203206" lon="-2.5431029"><ele>743.0</ele><time>2026-04-13T10:36:38.682Z</time></trkpt><trkpt lat="38.4204816" lon="-2.5429057"><ele>743.0</ele><time>2026-04-13T10:36:39.682Z</time></trkpt><trkpt lat="38.4206399" lon="-2.5427099"><ele>743.0</ele><time>2026-04-13T10:36:40.682Z</time></trkpt><trkpt lat="38.4207995" lon="-2.5425133"><ele>741.6666666666666</ele><time>2026-04-13T10:36:41.682Z</time></trkpt><trkpt lat="38.4209578" lon="-2.542318"><ele>740.3333333333334</ele><time>2026-04-13T10:36:42.682Z</time></trkpt><trkpt lat="38.4211132" lon="-2.5421244"><ele>739.0</ele><time>2026-04-13T10:36:43.682Z</time></trkpt><trkpt lat="38.4212643" lon="-2.5419365"><ele>738.3333333333334</ele><time>2026-04-13T10:36:44.682Z</time></trkpt><trkpt lat="38.421408" lon="-2.5417658"><ele>737.6666666666666</ele><time>2026-04-13T10:36:45.682Z</time></trkpt><trkpt lat="38.4215566" lon="-2.5416157"><ele>737.0</ele><time>2026-04-13T10:36:46.682Z</time></trkpt><trkpt lat="38.4217184" lon="-2.5414979"><ele>737.0</ele><time>2026-04-13T10:36:47.682Z</time></trkpt><trkpt lat="38.4218938" lon="-2.5414205"><ele>737.0</ele><time>2026-04-13T10:36:48.682Z</time></trkpt><trkpt lat="38.4220775" lon="-2.5413823"><ele>737.0</ele><time>2026-04-13T10:36:49.682Z</time></trkpt><trkpt lat="38.4222666" lon="-2.5413701"><ele>736.3333333333333</ele><time>2026-04-13T10:36:50.682Z</time></trkpt><trkpt lat="38.4224574" lon="-2.5413574"><ele>735.6666666666666</ele><time>2026-04-13T10:36:51.682Z</time></trkpt><trkpt lat="38.4226468" lon="-2.5413273"><ele>735.0</ele><time>2026-04-13T10:36:52.682Z</time></trkpt><trkpt lat="38.422831" lon="-2.5412652"><ele>734.3333333333334</ele><time>2026-04-13T10:36:53.682Z</time></trkpt><trkpt lat="38.4230047" lon="-2.5411611"><ele>733.6666666666667</ele><time>2026-04-13T10:36:54.682Z</time></trkpt><trkpt lat="38.4231636" lon="-2.541022"><ele>733.0</ele><time>2026-04-13T10:36:55.682Z</time></trkpt><trkpt lat="38.4233011" lon="-2.5408446"><ele>733.0</ele><time>2026-04-13T10:36:56.682Z</time></trkpt><trkpt lat="38.4234168" lon="-2.5406408"><ele>733.0</ele><time>2026-04-13T10:36:57.682Z</time></trkpt><trkpt lat="38.4235095" lon="-2.5404124"><ele>733.0</ele><time>2026-04-13T10:36:58.682Z</time></trkpt><trkpt lat="38.4235823" lon="-2.5401673"><ele>736.3333333333334</ele><time>2026-04-13T10:36:59.682Z</time></trkpt><trkpt lat="38.4236514" lon="-2.5399187"><ele>739.6666666666666</ele><time>2026-04-13T10:37:00.682Z</time></trkpt><trkpt lat="38.4237201" lon="-2.5396675"><ele>743.0</ele><time>2026-04-13T10:37:01.682Z</time></trkpt><trkpt lat="38.4237908" lon="-2.5394146"><ele>744.0</ele><time>2026-04-13T10:37:02.682Z</time></trkpt><trkpt lat="38.4238638" lon="-2.5391586"><ele>745.0</ele><time>2026-04-13T10:37:03.682Z</time></trkpt><trkpt lat="38.4239392" lon="-2.5389024"><ele>746.0</ele><time>2026-04-13T10:37:04.682Z</time></trkpt><trkpt lat="38.4240162" lon="-2.5386501"><ele>746.0</ele><time>2026-04-13T10:37:05.682Z</time></trkpt><trkpt lat="38.4240943" lon="-2.5383981"><ele>746.0</ele><time>2026-04-13T10:37:06.682Z</time></trkpt><trkpt lat="38.4241734" lon="-2.5381495"><ele>746.0</ele><time>2026-04-13T10:37:07.682Z</time></trkpt><trkpt lat="38.4242505" lon="-2.5379021"><ele>746.6666666666666</ele><time>2026-04-13T10:37:08.682Z</time></trkpt><trkpt lat="38.4243226" lon="-2.5376567"><ele>747.3333333333334</ele><time>2026-04-13T10:37:09.682Z</time></trkpt><trkpt lat="38.4243882" lon="-2.5374079"><ele>748.0</ele><time>2026-04-13T10:37:10.682Z</time></trkpt><trkpt lat="38.4245293" lon="-2.5369244"><ele>746.6666666666667</ele><time>2026-04-13T10:37:12.93Z</time></trkpt><trkpt lat="38.4246308" lon="-2.5366928"><ele>745.3333333333334</ele><time>2026-04-13T10:37:13.699Z</time></trkpt><trkpt lat="38.4247586" lon="-2.5364819"><ele>744.0</ele><time>2026-04-13T10:37:14.682Z</time></trkpt><trkpt lat="38.4248952" lon="-2.5362917"><ele>747.0</ele><time>2026-04-13T10:37:15.698Z</time></trkpt><trkpt lat="38.4250496" lon="-2.5361245"><ele>750.0</ele><time>2026-04-13T10:37:16.695Z</time></trkpt><trkpt lat="38.4252182" lon="-2.535968"><ele>753.0</ele><time>2026-04-13T10:37:17.681Z</time></trkpt><trkpt lat="38.4253925" lon="-2.5358108"><ele>752.3333333333334</ele><time>2026-04-13T10:37:18.676Z</time></trkpt><trkpt lat="38.4255697" lon="-2.5356468"><ele>751.6666666666667</ele><time>2026-04-13T10:37:19.676Z</time></trkpt><trkpt lat="38.4257398" lon="-2.53546"><ele>751.0</ele><time>2026-04-13T10:37:20.676Z</time></trkpt><trkpt lat="38.4258947" lon="-2.535245"><ele>751.0</ele><time>2026-04-13T10:37:21.676Z</time></trkpt><trkpt lat="38.4260156" lon="-2.5350106"><ele>751.0</ele><time>2026-04-13T10:37:22.676Z</time></trkpt><trkpt lat="38.4261268" lon="-2.5347523"><ele>750.5</ele><time>2026-04-13T10:37:23.677Z</time></trkpt><trkpt lat="38.4262251" lon="-2.5344876"><ele>750.0</ele><time>2026-04-13T10:37:24.676Z</time></trkpt><trkpt lat="38.4263233" lon="-2.5342189"><ele>750.0</ele><time>2026-04-13T10:37:25.676Z</time></trkpt><trkpt lat="38.4264207" lon="-2.5339496"><ele>750.0</ele><time>2026-04-13T10:37:26.676Z</time></trkpt><trkpt lat="38.4265187" lon="-2.5336819"><ele>753.5</ele><time>2026-04-13T10:37:27.676Z</time></trkpt><trkpt lat="38.426616" lon="-2.5334124"><ele>757.0</ele><time>2026-04-13T10:37:28.676Z</time></trkpt><trkpt lat="38.4267111" lon="-2.5331477"><ele>757.0</ele><time>2026-04-13T10:37:29.677Z</time></trkpt><trkpt lat="38.4268072" lon="-2.5328894"><ele>757.0</ele><time>2026-04-13T10:37:30.676Z</time></trkpt><trkpt lat="38.4269141" lon="-2.5326485"><ele>757.0</ele><time>2026-04-13T10:37:31.676Z</time></trkpt><trkpt lat="38.4270442" lon="-2.5324332"><ele>757.3333333333334</ele><time>2026-04-13T10:37:32.676Z</time></trkpt><trkpt lat="38.4271989" lon="-2.5322506"><ele>757.6666666666666</ele><time>2026-04-13T10:37:33.676Z</time></trkpt><trkpt lat="38.4273772" lon="-2.5321078"><ele>758.0</ele><time>2026-04-13T10:37:34.676Z</time></trkpt><trkpt lat="38.4275734" lon="-2.5320028"><ele>758.0</ele><time>2026-04-13T10:37:35.676Z</time></trkpt><trkpt lat="38.4277793" lon="-2.5319218"><ele>758.0</ele><time>2026-04-13T10:37:36.676Z</time></trkpt><trkpt lat="38.4279894" lon="-2.5318489"><ele>758.0</ele><time>2026-04-13T10:37:37.677Z</time></trkpt><trkpt lat="38.428202" lon="-2.5317759"><ele>757.3333333333333</ele><time>2026-04-13T10:37:38.676Z</time></trkpt><trkpt lat="38.4284165" lon="-2.5316997"><ele>756.6666666666666</ele><time>2026-04-13T10:37:39.676Z</time></trkpt><trkpt lat="38.4286334" lon="-2.5316211"><ele>756.0</ele><time>2026-04-13T10:37:40.676Z</time></trkpt><trkpt lat="38.4288462" lon="-2.5315456"><ele>753.6666666666666</ele><time>2026-04-13T10:37:41.676Z</time></trkpt><trkpt lat="38.4290519" lon="-2.5314689"><ele>751.3333333333333</ele><time>2026-04-13T10:37:42.676Z</time></trkpt><trkpt lat="38.4292454" lon="-2.5313918"><ele>749.0</ele><time>2026-04-13T10:37:43.676Z</time></trkpt><trkpt lat="38.4294275" lon="-2.5312928"><ele>748.0</ele><time>2026-04-13T10:37:44.676Z</time></trkpt><trkpt lat="38.4295954" lon="-2.5311563"><ele>747.0</ele><time>2026-04-13T10:37:45.676Z</time></trkpt><trkpt lat="38.4297445" lon="-2.5309965"><ele>746.0</ele><time>2026-04-13T10:37:46.676Z</time></trkpt><trkpt lat="38.4298814" lon="-2.5308264"><ele>746.0</ele><time>2026-04-13T10:37:47.676Z</time></trkpt><trkpt lat="38.4300066" lon="-2.5306631"><ele>746.0</ele><time>2026-04-13T10:37:48.676Z</time></trkpt><trkpt lat="38.4301233" lon="-2.5305113"><ele>746.0</ele><time>2026-04-13T10:37:49.676Z</time></trkpt><trkpt lat="38.4302305" lon="-2.5303707"><ele>745.75</ele><time>2026-04-13T10:37:50.676Z</time></trkpt><trkpt lat="38.4303332" lon="-2.5302389"><ele>745.5</ele><time>2026-04-13T10:37:51.676Z</time></trkpt><trkpt lat="38.4304331" lon="-2.5301112"><ele>745.25</ele><time>2026-04-13T10:37:52.676Z</time></trkpt><trkpt lat="38.4305327" lon="-2.5299835"><ele>745.0</ele><time>2026-04-13T10:37:53.677Z</time></trkpt><trkpt lat="38.4306293" lon="-2.5298532"><ele>745.0</ele><time>2026-04-13T10:37:54.676Z</time></trkpt><trkpt lat="38.430724" lon="-2.5297212"><ele>745.0</ele><time>2026-04-13T10:37:55.676Z</time></trkpt><trkpt lat="38.4308209" lon="-2.5295884"><ele>745.0</ele><time>2026-04-13T10:37:56.676Z</time></trkpt><trkpt lat="38.4309178" lon="-2.5294564"><ele>745.0</ele><time>2026-04-13T10:37:57.676Z</time></trkpt><trkpt lat="38.4310163" lon="-2.5293243"><ele>745.5</ele><time>2026-04-13T10:37:58.676Z</time></trkpt><trkpt lat="38.4311155" lon="-2.5291923"><ele>746.0</ele><time>2026-04-13T10:37:59.676Z</time></trkpt><trkpt lat="38.4312157" lon="-2.5290591"><ele>746.5</ele><time>2026-04-13T10:38:00.676Z</time></trkpt><trkpt lat="38.4313179" lon="-2.5289239"><ele>747.0</ele><time>2026-04-13T10:38:01.676Z</time></trkpt><trkpt lat="38.431421" lon="-2.5287878"><ele>747.0</ele><time>2026-04-13T10:38:02.676Z</time></trkpt><trkpt lat="38.4315252" lon="-2.5286504"><ele>747.0</ele><time>2026-04-13T10:38:03.676Z</time></trkpt><trkpt lat="38.4316297" lon="-2.528512"><ele>747.0</ele><time>2026-04-13T10:38:04.676Z</time></trkpt><trkpt lat="38.431735" lon="-2.5283723"><ele>747.0</ele><time>2026-04-13T10:38:05.676Z</time></trkpt><trkpt lat="38.431841" lon="-2.5282327"><ele>747.0</ele><time>2026-04-13T10:38:06.676Z</time></trkpt><trkpt lat="38.4319476" lon="-2.5280928"><ele>747.0</ele><time>2026-04-13T10:38:07.676Z</time></trkpt><trkpt lat="38.4320562" lon="-2.5279502"><ele>747.0</ele><time>2026-04-13T10:38:08.676Z</time></trkpt><trkpt lat="38.4321693" lon="-2.5278014"><ele>747.0</ele><time>2026-04-13T10:38:09.677Z</time></trkpt><trkpt lat="38.4322848" lon="-2.5276488"><ele>747.0</ele><time>2026-04-13T10:38:10.677Z</time></trkpt><trkpt lat="38.4324013" lon="-2.5274951"><ele>747.0</ele><time>2026-04-13T10:38:11.676Z</time></trkpt><trkpt lat="38.4325174" lon="-2.5273416"><ele>747.0</ele><time>2026-04-13T10:38:12.676Z</time></trkpt><trkpt lat="38.4326336" lon="-2.5271926"><ele>747.0</ele><time>2026-04-13T10:38:13.676Z</time></trkpt><trkpt lat="38.4327511" lon="-2.5270442"><ele>747.6666666666666</ele><time>2026-04-13T10:38:14.676Z</time></trkpt><trkpt lat="38.4328705" lon="-2.5268906"><ele>748.3333333333333</ele><time>2026-04-13T10:38:15.676Z</time></trkpt><trkpt lat="38.4329908" lon="-2.526733"><ele>749.0</ele><time>2026-04-13T10:38:16.676Z</time></trkpt><trkpt lat="38.4331143" lon="-2.5265684"><ele>749.0</ele><time>2026-04-13T10:38:17.676Z</time></trkpt><trkpt lat="38.4332405" lon="-2.5263975"><ele>749.0</ele><time>2026-04-13T10:38:18.676Z</time></trkpt><trkpt lat="38.4333703" lon="-2.5262236"><ele>749.0</ele><time>2026-04-13T10:38:19.676Z</time></trkpt><trkpt lat="38.4335039" lon="-2.5260441"><ele>749.3333333333333</ele><time>2026-04-13T10:38:20.676Z</time></trkpt><trkpt lat="38.4336397" lon="-2.5258632"><ele>749.6666666666666</ele><time>2026-04-13T10:38:21.676Z</time></trkpt><trkpt lat="38.4337746" lon="-2.5256827"><ele>750.0</ele><time>2026-04-13T10:38:22.676Z</time></trkpt><trkpt lat="38.4339099" lon="-2.5255022"><ele>750.6666666666666</ele><time>2026-04-13T10:38:23.676Z</time></trkpt><trkpt lat="38.4340433" lon="-2.5253273"><ele>751.3333333333333</ele><time>2026-04-13T10:38:24.676Z</time></trkpt><trkpt lat="38.4341753" lon="-2.5251561"><ele>752.0</ele><time>2026-04-13T10:38:25.676Z</time></trkpt><trkpt lat="38.4343037" lon="-2.5249886"><ele>752.0</ele><time>2026-04-13T10:38:26.676Z</time></trkpt><trkpt lat="38.4344291" lon="-2.5248237"><ele>752.0</ele><time>2026-04-13T10:38:27.676Z</time></trkpt><trkpt lat="38.4345528" lon="-2.52466"><ele>752.0</ele><time>2026-04-13T10:38:28.676Z</time></trkpt><trkpt lat="38.4346768" lon="-2.5244942"><ele>752.0</ele><time>2026-04-13T10:38:29.677Z</time></trkpt><trkpt lat="38.4348023" lon="-2.5243267"><ele>752.0</ele><time>2026-04-13T10:38:30.676Z</time></trkpt><trkpt lat="38.4349314" lon="-2.5241556"><ele>752.0</ele><time>2026-04-13T10:38:31.676Z</time></trkpt><trkpt lat="38.4350639" lon="-2.5239821"><ele>752.0</ele><time>2026-04-13T10:38:32.676Z</time></trkpt><trkpt lat="38.4351982" lon="-2.5238072"><ele>752.0</ele><time>2026-04-13T10:38:33.676Z</time></trkpt><trkpt lat="38.4353346" lon="-2.5236292"><ele>752.0</ele><time>2026-04-13T10:38:34.676Z</time></trkpt><trkpt lat="38.4354722" lon="-2.5234485"><ele>753.3333333333333</ele><time>2026-04-13T10:38:35.676Z</time></trkpt><trkpt lat="38.4356113" lon="-2.5232647"><ele>754.6666666666666</ele><time>2026-04-13T10:38:36.676Z</time></trkpt><trkpt lat="38.4357529" lon="-2.5230768"><ele>756.0</ele><time>2026-04-13T10:38:37.676Z</time></trkpt><trkpt lat="38.4358952" lon="-2.5228876"><ele>756.6666666666666</ele><time>2026-04-13T10:38:38.676Z</time></trkpt><trkpt lat="38.4360412" lon="-2.5226951"><ele>757.3333333333333</ele><time>2026-04-13T10:38:39.676Z</time></trkpt><trkpt lat="38.4361886" lon="-2.5225005"><ele>758.0</ele><time>2026-04-13T10:38:40.676Z</time></trkpt><trkpt lat="38.4363387" lon="-2.5223031"><ele>758.0</ele><time>2026-04-13T10:38:41.676Z</time></trkpt><trkpt lat="38.4364905" lon="-2.5221023"><ele>758.0</ele><time>2026-04-13T10:38:42.676Z</time></trkpt><trkpt lat="38.436642" lon="-2.5219003"><ele>758.0</ele><time>2026-04-13T10:38:43.676Z</time></trkpt><trkpt lat="38.4367966" lon="-2.5216955"><ele>762.0</ele><time>2026-04-13T10:38:44.677Z</time></trkpt><trkpt lat="38.4369527" lon="-2.5214902"><ele>766.0</ele><time>2026-04-13T10:38:45.676Z</time></trkpt><trkpt lat="38.4371143" lon="-2.5212886"><ele>769.5</ele><time>2026-04-13T10:38:46.676Z</time></trkpt><trkpt lat="38.4372847" lon="-2.5210988"><ele>773.0</ele><time>2026-04-13T10:38:47.676Z</time></trkpt><trkpt lat="38.4374668" lon="-2.5209211"><ele>773.0</ele><time>2026-04-13T10:38:48.676Z</time></trkpt><trkpt lat="38.4376576" lon="-2.5207561"><ele>773.0</ele><time>2026-04-13T10:38:49.676Z</time></trkpt><trkpt lat="38.4378554" lon="-2.5206015"><ele>775.0</ele><time>2026-04-13T10:38:50.676Z</time></trkpt><trkpt lat="38.4380571" lon="-2.5204487"><ele>777.0</ele><time>2026-04-13T10:38:51.676Z</time></trkpt><trkpt lat="38.4382561" lon="-2.5202939"><ele>777.0</ele><time>2026-04-13T10:38:52.676Z</time></trkpt><trkpt lat="38.4384509" lon="-2.5201283"><ele>777.0</ele><time>2026-04-13T10:38:53.676Z</time></trkpt><trkpt lat="38.438629" lon="-2.5199413"><ele>777.0</ele><time>2026-04-13T10:38:54.676Z</time></trkpt><trkpt lat="38.4387895" lon="-2.5197382"><ele>777.0</ele><time>2026-04-13T10:38:55.676Z</time></trkpt><trkpt lat="38.4389414" lon="-2.5195382"><ele>777.0</ele><time>2026-04-13T10:38:56.676Z</time></trkpt><trkpt lat="38.4391005" lon="-2.5193635"><ele>778.3333333333333</ele><time>2026-04-13T10:38:57.676Z</time></trkpt><trkpt lat="38.439276" lon="-2.5192172"><ele>779.6666666666666</ele><time>2026-04-13T10:38:58.676Z</time></trkpt><trkpt lat="38.4394628" lon="-2.5190867"><ele>781.0</ele><time>2026-04-13T10:38:59.676Z</time></trkpt><trkpt lat="38.4396466" lon="-2.5189497"><ele>783.0</ele><time>2026-04-13T10:39:00.676Z</time></trkpt><trkpt lat="38.4398242" lon="-2.5187909"><ele>785.0</ele><time>2026-04-13T10:39:01.676Z</time></trkpt><trkpt lat="38.4399805" lon="-2.518607"><ele>787.0</ele><time>2026-04-13T10:39:02.676Z</time></trkpt><trkpt lat="38.4401215" lon="-2.5184034"><ele>787.0</ele><time>2026-04-13T10:39:03.676Z</time></trkpt><trkpt lat="38.4402606" lon="-2.5182019"><ele>787.0</ele><time>2026-04-13T10:39:04.676Z</time></trkpt><trkpt lat="38.4404151" lon="-2.5180196"><ele>787.0</ele><time>2026-04-13T10:39:05.676Z</time></trkpt><trkpt lat="38.4405899" lon="-2.5178786"><ele>790.0</ele><time>2026-04-13T10:39:06.676Z</time></trkpt><trkpt lat="38.440786" lon="-2.5177849"><ele>793.0</ele><time>2026-04-13T10:39:07.676Z</time></trkpt><trkpt lat="38.4409953" lon="-2.5177363"><ele>796.0</ele><time>2026-04-13T10:39:08.676Z</time></trkpt><trkpt lat="38.4412092" lon="-2.5177201"><ele>796.0</ele><time>2026-04-13T10:39:09.676Z</time></trkpt><trkpt lat="38.4414272" lon="-2.5177149"><ele>796.0</ele><time>2026-04-13T10:39:10.676Z</time></trkpt><trkpt lat="38.4416469" lon="-2.5177101"><ele>796.0</ele><time>2026-04-13T10:39:11.676Z</time></trkpt><trkpt lat="38.4418688" lon="-2.5177035"><ele>796.0</ele><time>2026-04-13T10:39:12.676Z</time></trkpt><trkpt lat="38.4420886" lon="-2.5176952"><ele>796.0</ele><time>2026-04-13T10:39:13.676Z</time></trkpt><trkpt lat="38.4423052" lon="-2.5176787"><ele>796.0</ele><time>2026-04-13T10:39:14.676Z</time></trkpt><trkpt lat="38.4425191" lon="-2.5176374"><ele>795.3333333333333</ele><time>2026-04-13T10:39:15.676Z</time></trkpt><trkpt lat="38.4427289" lon="-2.5175569"><ele>794.6666666666667</ele><time>2026-04-13T10:39:16.676Z</time></trkpt><trkpt lat="38.4429272" lon="-2.5174302"><ele>794.0</ele><time>2026-04-13T10:39:17.676Z</time></trkpt><trkpt lat="38.4431037" lon="-2.5172654"><ele>791.6666666666667</ele><time>2026-04-13T10:39:18.676Z</time></trkpt><trkpt lat="38.4432589" lon="-2.5170727"><ele>789.3333333333333</ele><time>2026-04-13T10:39:19.676Z</time></trkpt><trkpt lat="38.4433944" lon="-2.5168714"><ele>787.0</ele><time>2026-04-13T10:39:20.676Z</time></trkpt><trkpt lat="38.4435217" lon="-2.5166769"><ele>788.3333333333333</ele><time>2026-04-13T10:39:21.676Z</time></trkpt><trkpt lat="38.4436586" lon="-2.5165073"><ele>789.6666666666667</ele><time>2026-04-13T10:39:22.676Z</time></trkpt><trkpt lat="38.4438159" lon="-2.5163703"><ele>791.0</ele><time>2026-04-13T10:39:23.676Z</time></trkpt><trkpt lat="38.4439884" lon="-2.5162615"><ele>798.6666666666667</ele><time>2026-04-13T10:39:24.676Z</time></trkpt><trkpt lat="38.4441714" lon="-2.5161664"><ele>806.3333333333333</ele><time>2026-04-13T10:39:25.676Z</time></trkpt><trkpt lat="38.4443565" lon="-2.5160702"><ele>814.0</ele><time>2026-04-13T10:39:26.676Z</time></trkpt><trkpt lat="38.4445421" lon="-2.5159673"><ele>810.0</ele><time>2026-04-13T10:39:27.676Z</time></trkpt><trkpt lat="38.4447276" lon="-2.5158513"><ele>806.0</ele><time>2026-04-13T10:39:28.676Z</time></trkpt><trkpt lat="38.4449083" lon="-2.5157205"><ele>802.0</ele><time>2026-04-13T10:39:29.676Z</time></trkpt><trkpt lat="38.4450838" lon="-2.5155709"><ele>802.0</ele><time>2026-04-13T10:39:30.677Z</time></trkpt><trkpt lat="38.4452538" lon="-2.5154066"><ele>802.0</ele><time>2026-04-13T10:39:31.676Z</time></trkpt><trkpt lat="38.4454188" lon="-2.5152264"><ele>802.0</ele><time>2026-04-13T10:39:32.676Z</time></trkpt><trkpt lat="38.445577" lon="-2.5150303"><ele>803.3333333333333</ele><time>2026-04-13T10:39:33.676Z</time></trkpt><trkpt lat="38.4457241" lon="-2.5148219"><ele>804.6666666666667</ele><time>2026-04-13T10:39:34.676Z</time></trkpt><trkpt lat="38.4458657" lon="-2.5146015"><ele>806.0</ele><time>2026-04-13T10:39:35.676Z</time></trkpt><trkpt lat="38.4460016" lon="-2.5143747"><ele>807.3333333333334</ele><time>2026-04-13T10:39:36.676Z</time></trkpt><trkpt lat="38.4461285" lon="-2.5141391"><ele>808.6666666666667</ele><time>2026-04-13T10:39:37.676Z</time></trkpt><trkpt lat="38.4462443" lon="-2.5138935"><ele>810.0</ele><time>2026-04-13T10:39:38.676Z</time></trkpt><trkpt lat="38.4463481" lon="-2.5136387"><ele>810.0</ele><time>2026-04-13T10:39:39.676Z</time></trkpt><trkpt lat="38.4464517" lon="-2.5133823"><ele>810.0</ele><time>2026-04-13T10:39:40.676Z</time></trkpt><trkpt lat="38.4465615" lon="-2.5131309"><ele>816.0</ele><time>2026-04-13T10:39:41.676Z</time></trkpt><trkpt lat="38.4466755" lon="-2.5128819"><ele>822.0</ele><time>2026-04-13T10:39:42.676Z</time></trkpt><trkpt lat="38.4467896" lon="-2.5126349"><ele>822.0</ele><time>2026-04-13T10:39:43.676Z</time></trkpt><trkpt lat="38.4469004" lon="-2.512391"><ele>822.0</ele><time>2026-04-13T10:39:44.676Z</time></trkpt><trkpt lat="38.4470028" lon="-2.5121455"><ele>822.0</ele><time>2026-04-13T10:39:45.676Z</time></trkpt><trkpt lat="38.4470885" lon="-2.5118896"><ele>822.0</ele><time>2026-04-13T10:39:46.676Z</time></trkpt><trkpt lat="38.447147" lon="-2.5116231"><ele>822.0</ele><time>2026-04-13T10:39:47.677Z</time></trkpt><trkpt lat="38.4471775" lon="-2.511349"><ele>822.0</ele><time>2026-04-13T10:39:48.676Z</time></trkpt><trkpt lat="38.4471845" lon="-2.5110726"><ele>823.0</ele><time>2026-04-13T10:39:49.676Z</time></trkpt><trkpt lat="38.4471696" lon="-2.5107951"><ele>824.0</ele><time>2026-04-13T10:39:50.676Z</time></trkpt><trkpt lat="38.447136" lon="-2.5105256"><ele>825.0</ele><time>2026-04-13T10:39:51.676Z</time></trkpt><trkpt lat="38.4471003" lon="-2.5102676"><ele>827.3333333333333</ele><time>2026-04-13T10:39:52.676Z</time></trkpt><trkpt lat="38.4470837" lon="-2.5100156"><ele>829.6666666666666</ele><time>2026-04-13T10:39:53.676Z</time></trkpt><trkpt lat="38.4471082" lon="-2.5097737"><ele>832.0</ele><time>2026-04-13T10:39:54.676Z</time></trkpt><trkpt lat="38.4471765" lon="-2.5095531"><ele>832.0</ele><time>2026-04-13T10:39:55.676Z</time></trkpt><trkpt lat="38.4472805" lon="-2.5093573"><ele>832.0</ele><time>2026-04-13T10:39:56.676Z</time></trkpt><trkpt lat="38.4474007" lon="-2.5091798"><ele>832.0</ele><time>2026-04-13T10:39:57.677Z</time></trkpt><trkpt lat="38.4475094" lon="-2.5090006"><ele>832.0</ele><time>2026-04-13T10:39:58.676Z</time></trkpt><trkpt lat="38.4475807" lon="-2.5088075"><ele>832.0</ele><time>2026-04-13T10:39:59.676Z</time></trkpt><trkpt lat="38.4475993" lon="-2.5086074"><ele>832.0</ele><time>2026-04-13T10:40:00.676Z</time></trkpt><trkpt lat="38.4475652" lon="-2.5084113"><ele>833.3333333333333</ele><time>2026-04-13T10:40:01.676Z</time></trkpt><trkpt lat="38.4475111" lon="-2.5082182"><ele>834.6666666666667</ele><time>2026-04-13T10:40:02.676Z</time></trkpt><trkpt lat="38.4474526" lon="-2.5080238"><ele>836.0</ele><time>2026-04-13T10:40:03.676Z</time></trkpt><trkpt lat="38.4474006" lon="-2.5078273"><ele>837.0</ele><time>2026-04-13T10:40:04.676Z</time></trkpt><trkpt lat="38.4473791" lon="-2.5076274"><ele>838.0</ele><time>2026-04-13T10:40:05.676Z</time></trkpt><trkpt lat="38.4474002" lon="-2.5074334"><ele>839.0</ele><time>2026-04-13T10:40:06.676Z</time></trkpt><trkpt lat="38.4474565" lon="-2.5072533"><ele>842.3333333333334</ele><time>2026-04-13T10:40:07.676Z</time></trkpt><trkpt lat="38.447525" lon="-2.5070755"><ele>845.6666666666667</ele><time>2026-04-13T10:40:08.676Z</time></trkpt><trkpt lat="38.4475821" lon="-2.5068893"><ele>849.0</ele><time>2026-04-13T10:40:09.677Z</time></trkpt><trkpt lat="38.4476167" lon="-2.5066968"><ele>849.0</ele><time>2026-04-13T10:40:10.676Z</time></trkpt><trkpt lat="38.4476244" lon="-2.5065001"><ele>849.0</ele><time>2026-04-13T10:40:11.676Z</time></trkpt><trkpt lat="38.4476066" lon="-2.5063026"><ele>849.0</ele><time>2026-04-13T10:40:12.676Z</time></trkpt><trkpt lat="38.4475721" lon="-2.5061097"><ele>851.0</ele><time>2026-04-13T10:40:13.677Z</time></trkpt><trkpt lat="38.4475315" lon="-2.5059151"><ele>853.0</ele><time>2026-04-13T10:40:14.676Z</time></trkpt><trkpt lat="38.4474895" lon="-2.505718"><ele>855.0</ele><time>2026-04-13T10:40:15.676Z</time></trkpt><trkpt lat="38.4474416" lon="-2.5055201"><ele>851.6666666666667</ele><time>2026-04-13T10:40:16.676Z</time></trkpt><trkpt lat="38.4473759" lon="-2.5053324"><ele>848.3333333333334</ele><time>2026-04-13T10:40:17.676Z</time></trkpt><trkpt lat="38.447292" lon="-2.5051642"><ele>845.0</ele><time>2026-04-13T10:40:18.676Z</time></trkpt><trkpt lat="38.4471927" lon="-2.5050177"><ele>851.0</ele><time>2026-04-13T10:40:19.676Z</time></trkpt><trkpt lat="38.447079" lon="-2.5048886"><ele>857.0</ele><time>2026-04-13T10:40:20.676Z</time></trkpt><trkpt lat="38.4469489" lon="-2.5047788"><ele>863.0</ele><time>2026-04-13T10:40:21.676Z</time></trkpt><trkpt lat="38.4468078" lon="-2.5046885"><ele>863.0</ele><time>2026-04-13T10:40:22.677Z</time></trkpt><trkpt lat="38.446666" lon="-2.5046075"><ele>863.0</ele><time>2026-04-13T10:40:23.676Z</time></trkpt><trkpt lat="38.4465253" lon="-2.5045278"><ele>863.0</ele><time>2026-04-13T10:40:24.677Z</time></trkpt><trkpt lat="38.446386" lon="-2.504444"><ele>867.6666666666667</ele><time>2026-04-13T10:40:25.676Z</time></trkpt><trkpt lat="38.4462503" lon="-2.5043426"><ele>872.3333333333333</ele><time>2026-04-13T10:40:26.676Z</time></trkpt><trkpt lat="38.4461251" lon="-2.5042181"><ele>877.0</ele><time>2026-04-13T10:40:27.676Z</time></trkpt><trkpt lat="38.4460129" lon="-2.5040729"><ele>877.0</ele><time>2026-04-13T10:40:28.676Z</time></trkpt><trkpt lat="38.4459048" lon="-2.5039151"><ele>877.0</ele><time>2026-04-13T10:40:29.676Z</time></trkpt><trkpt lat="38.4458" lon="-2.5037567"><ele>877.0</ele><time>2026-04-13T10:40:30.676Z</time></trkpt><trkpt lat="38.4456949" lon="-2.5036002"><ele>871.3333333333333</ele><time>2026-04-13T10:40:31.676Z</time></trkpt><trkpt lat="38.4455873" lon="-2.5034421"><ele>865.6666666666667</ele><time>2026-04-13T10:40:32.676Z</time></trkpt><trkpt lat="38.4454776" lon="-2.5032833"><ele>860.0</ele><time>2026-04-13T10:40:33.676Z</time></trkpt><trkpt lat="38.4453664" lon="-2.5031258"><ele>865.0</ele><time>2026-04-13T10:40:34.676Z</time></trkpt><trkpt lat="38.4452554" lon="-2.5029654"><ele>870.0</ele><time>2026-04-13T10:40:35.676Z</time></trkpt><trkpt lat="38.4451455" lon="-2.5028057"><ele>875.0</ele><time>2026-04-13T10:40:36.676Z</time></trkpt><trkpt lat="38.4450352" lon="-2.5026444"><ele>875.0</ele><time>2026-04-13T10:40:37.676Z</time></trkpt><trkpt lat="38.444922" lon="-2.5024832"><ele>875.0</ele><time>2026-04-13T10:40:38.676Z</time></trkpt><trkpt lat="38.4448096" lon="-2.5023299"><ele>875.0</ele><time>2026-04-13T10:40:39.676Z</time></trkpt><trkpt lat="38.4446889" lon="-2.5021906"><ele>876.5</ele><time>2026-04-13T10:40:40.676Z</time></trkpt><trkpt lat="38.4445675" lon="-2.5020754"><ele>878.0</ele><time>2026-04-13T10:40:41.676Z</time></trkpt><trkpt lat="38.444443" lon="-2.5019741"><ele>879.5</ele><time>2026-04-13T10:40:42.676Z</time></trkpt><trkpt lat="38.4443275" lon="-2.5018669"><ele>881.0</ele><time>2026-04-13T10:40:43.676Z</time></trkpt><trkpt lat="38.4442336" lon="-2.5017329"><ele>881.0</ele><time>2026-04-13T10:40:44.676Z</time></trkpt><trkpt lat="38.4441713" lon="-2.5015715"><ele>881.0</ele><time>2026-04-13T10:40:45.676Z</time></trkpt><trkpt lat="38.4441311" lon="-2.501397"><ele>881.0</ele><time>2026-04-13T10:40:46.676Z</time></trkpt><trkpt lat="38.4440982" lon="-2.5012191"><ele>881.0</ele><time>2026-04-13T10:40:47.676Z</time></trkpt><trkpt lat="38.4440574" lon="-2.501039"><ele>878.3333333333334</ele><time>2026-04-13T10:40:48.676Z</time></trkpt><trkpt lat="38.4439941" lon="-2.5008677"><ele>875.6666666666667</ele><time>2026-04-13T10:40:49.676Z</time></trkpt><trkpt lat="38.4439032" lon="-2.500706"><ele>873.0</ele><time>2026-04-13T10:40:50.676Z</time></trkpt><trkpt lat="38.4437915" lon="-2.50056"><ele>878.0</ele><time>2026-04-13T10:40:51.676Z</time></trkpt><trkpt lat="38.4436728" lon="-2.5004258"><ele>883.0</ele><time>2026-04-13T10:40:52.676Z</time></trkpt><trkpt lat="38.4435458" lon="-2.500288"><ele>888.0</ele><time>2026-04-13T10:40:53.676Z</time></trkpt><trkpt lat="38.4434165" lon="-2.5001531"><ele>888.0</ele><time>2026-04-13T10:40:54.676Z</time></trkpt><trkpt lat="38.4432884" lon="-2.5000187"><ele>888.0</ele><time>2026-04-13T10:40:55.676Z</time></trkpt><trkpt lat="38.4431648" lon="-2.4998865"><ele>888.0</ele><time>2026-04-13T10:40:56.676Z</time></trkpt><trkpt lat="38.4430418" lon="-2.4997563"><ele>891.6666666666667</ele><time>2026-04-13T10:40:57.676Z</time></trkpt><trkpt lat="38.4429218" lon="-2.4996272"><ele>895.3333333333334</ele><time>2026-04-13T10:40:58.676Z</time></trkpt><trkpt lat="38.4428107" lon="-2.4994905"><ele>899.0</ele><time>2026-04-13T10:40:59.677Z</time></trkpt><trkpt lat="38.4427257" lon="-2.4993326"><ele>899.0</ele><time>2026-04-13T10:41:00.676Z</time></trkpt><trkpt lat="38.4426832" lon="-2.4991572"><ele>899.0</ele><time>2026-04-13T10:41:01.676Z</time></trkpt><trkpt lat="38.442688" lon="-2.4989735"><ele>899.0</ele><time>2026-04-13T10:41:02.676Z</time></trkpt><trkpt lat="38.4427369" lon="-2.4987998"><ele>899.0</ele><time>2026-04-13T10:41:03.676Z</time></trkpt><trkpt lat="38.4428202" lon="-2.4986425"><ele>896.6666666666667</ele><time>2026-04-13T10:41:04.676Z</time></trkpt><trkpt lat="38.44292" lon="-2.4984899"><ele>894.3333333333333</ele><time>2026-04-13T10:41:05.676Z</time></trkpt><trkpt lat="38.4430236" lon="-2.4983401"><ele>892.0</ele><time>2026-04-13T10:41:06.676Z</time></trkpt><trkpt lat="38.4431211" lon="-2.4981809"><ele>892.0</ele><time>2026-04-13T10:41:07.676Z</time></trkpt><trkpt lat="38.4432061" lon="-2.498006"><ele>892.0</ele><time>2026-04-13T10:41:08.676Z</time></trkpt><trkpt lat="38.4432703" lon="-2.497817"><ele>892.0</ele><time>2026-04-13T10:41:09.676Z</time></trkpt><trkpt lat="38.4433151" lon="-2.4976137"><ele>895.0</ele><time>2026-04-13T10:41:10.676Z</time></trkpt><trkpt lat="38.4433385" lon="-2.4974033"><ele>898.0</ele><time>2026-04-13T10:41:11.676Z</time></trkpt><trkpt lat="38.4433379" lon="-2.4971896"><ele>901.0</ele><time>2026-04-13T10:41:12.676Z</time></trkpt><trkpt lat="38.4433125" lon="-2.4969758"><ele>902.3333333333333</ele><time>2026-04-13T10:41:13.676Z</time></trkpt><trkpt lat="38.4432672" lon="-2.4967675"><ele>903.6666666666667</ele><time>2026-04-13T10:41:14.676Z</time></trkpt><trkpt lat="38.4432094" lon="-2.4965616"><ele>905.0</ele><time>2026-04-13T10:41:15.676Z</time></trkpt><trkpt lat="38.4431494" lon="-2.4963539"><ele>904.3333333333334</ele><time>2026-04-13T10:41:16.677Z</time></trkpt><trkpt lat="38.443106" lon="-2.4961401"><ele>903.6666666666667</ele><time>2026-04-13T10:41:17.676Z</time></trkpt><trkpt lat="38.4430912" lon="-2.4959224"><ele>903.0</ele><time>2026-04-13T10:41:18.676Z</time></trkpt><trkpt lat="38.4431057" lon="-2.4957006"><ele>903.0</ele><time>2026-04-13T10:41:19.676Z</time></trkpt><trkpt lat="38.4431382" lon="-2.4954807"><ele>903.0</ele><time>2026-04-13T10:41:20.676Z</time></trkpt><trkpt lat="38.4431759" lon="-2.4952599"><ele>903.0</ele><time>2026-04-13T10:41:21.676Z</time></trkpt><trkpt lat="38.4432131" lon="-2.4950405"><ele>906.0</ele><time>2026-04-13T10:41:22.676Z</time></trkpt><trkpt lat="38.4432475" lon="-2.4948244"><ele>909.0</ele><time>2026-04-13T10:41:23.676Z</time></trkpt><trkpt lat="38.4432841" lon="-2.4946089"><ele>912.0</ele><time>2026-04-13T10:41:24.676Z</time></trkpt><trkpt lat="38.4433337" lon="-2.4943925"><ele>913.0</ele><time>2026-04-13T10:41:25.676Z</time></trkpt><trkpt lat="38.4434067" lon="-2.4941842"><ele>914.0</ele><time>2026-04-13T10:41:26.676Z</time></trkpt><trkpt lat="38.4435032" lon="-2.4939839"><ele>915.0</ele><time>2026-04-13T10:41:27.676Z</time></trkpt><trkpt lat="38.443615" lon="-2.4937926"><ele>912.6666666666667</ele><time>2026-04-13T10:41:28.676Z</time></trkpt><trkpt lat="38.4437322" lon="-2.4936026"><ele>910.3333333333334</ele><time>2026-04-13T10:41:29.677Z</time></trkpt><trkpt lat="38.4438457" lon="-2.4934087"><ele>908.0</ele><time>2026-04-13T10:41:30.677Z</time></trkpt><trkpt lat="38.4439499" lon="-2.4932072"><ele>908.0</ele><time>2026-04-13T10:41:31.676Z</time></trkpt><trkpt lat="38.444044" lon="-2.4929919"><ele>908.0</ele><time>2026-04-13T10:41:32.676Z</time></trkpt><trkpt lat="38.4441281" lon="-2.4927694"><ele>908.0</ele><time>2026-04-13T10:41:33.676Z</time></trkpt><trkpt lat="38.4442039" lon="-2.492542"><ele>912.3333333333334</ele><time>2026-04-13T10:41:34.676Z</time></trkpt><trkpt lat="38.4442758" lon="-2.4923104"><ele>916.6666666666667</ele><time>2026-04-13T10:41:35.676Z</time></trkpt><trkpt lat="38.4443476" lon="-2.4920777"><ele>921.0</ele><time>2026-04-13T10:41:36.676Z</time></trkpt><trkpt lat="38.4444207" lon="-2.4918443"><ele>921.6666666666667</ele><time>2026-04-13T10:41:37.676Z</time></trkpt><trkpt lat="38.4444948" lon="-2.4916121"><ele>922.3333333333334</ele><time>2026-04-13T10:41:38.676Z</time></trkpt><trkpt lat="38.4445702" lon="-2.4913768"><ele>923.0</ele><time>2026-04-13T10:41:39.676Z</time></trkpt><trkpt lat="38.4446451" lon="-2.4911391"><ele>923.0</ele><time>2026-04-13T10:41:40.676Z</time></trkpt><trkpt lat="38.4447184" lon="-2.4909024"><ele>923.0</ele><time>2026-04-13T10:41:41.676Z</time></trkpt><trkpt lat="38.444793" lon="-2.4906631"><ele>923.0</ele><time>2026-04-13T10:41:42.676Z</time></trkpt><trkpt lat="38.4448673" lon="-2.4904249"><ele>924.3333333333334</ele><time>2026-04-13T10:41:43.676Z</time></trkpt><trkpt lat="38.4449425" lon="-2.4901851"><ele>925.6666666666667</ele><time>2026-04-13T10:41:44.676Z</time></trkpt><trkpt lat="38.445018" lon="-2.4899438"><ele>927.0</ele><time>2026-04-13T10:41:45.676Z</time></trkpt><trkpt lat="38.4450939" lon="-2.4897"><ele>928.6666666666667</ele><time>2026-04-13T10:41:46.676Z</time></trkpt><trkpt lat="38.4451706" lon="-2.4894558"><ele>930.3333333333334</ele><time>2026-04-13T10:41:47.676Z</time></trkpt><trkpt lat="38.4452475" lon="-2.4892132"><ele>932.0</ele><time>2026-04-13T10:41:48.676Z</time></trkpt><trkpt lat="38.4453234" lon="-2.4889726"><ele>933.3333333333334</ele><time>2026-04-13T10:41:49.676Z</time></trkpt><trkpt lat="38.4453978" lon="-2.4887364"><ele>934.6666666666667</ele><time>2026-04-13T10:41:50.676Z</time></trkpt><trkpt lat="38.4454703" lon="-2.4885029"><ele>936.0</ele><time>2026-04-13T10:41:51.676Z</time></trkpt><trkpt lat="38.4455461" lon="-2.4882663"><ele>936.0</ele><time>2026-04-13T10:41:52.676Z</time></trkpt><trkpt lat="38.4456357" lon="-2.4880349"><ele>936.0</ele><time>2026-04-13T10:41:53.676Z</time></trkpt><trkpt lat="38.4457427" lon="-2.4878075"><ele>936.0</ele><time>2026-04-13T10:41:54.676Z</time></trkpt><trkpt lat="38.4458674" lon="-2.4875905"><ele>938.0</ele><time>2026-04-13T10:41:55.676Z</time></trkpt><trkpt lat="38.4460099" lon="-2.4873869"><ele>940.0</ele><time>2026-04-13T10:41:56.676Z</time></trkpt><trkpt lat="38.4461676" lon="-2.4871952"><ele>942.0</ele><time>2026-04-13T10:41:57.676Z</time></trkpt><trkpt lat="38.4463296" lon="-2.4870088"><ele>943.3333333333333</ele><time>2026-04-13T10:41:58.677Z</time></trkpt><trkpt lat="38.4464887" lon="-2.4868264"><ele>944.6666666666666</ele><time>2026-04-13T10:41:59.676Z</time></trkpt><trkpt lat="38.4466423" lon="-2.4866487"><ele>946.0</ele><time>2026-04-13T10:42:00.676Z</time></trkpt><trkpt lat="38.44679" lon="-2.486477"><ele>946.0</ele><time>2026-04-13T10:42:01.676Z</time></trkpt><trkpt lat="38.4469331" lon="-2.4863113"><ele>946.0</ele><time>2026-04-13T10:42:02.676Z</time></trkpt><trkpt lat="38.4470653" lon="-2.4861453"><ele>946.0</ele><time>2026-04-13T10:42:03.676Z</time></trkpt><trkpt lat="38.4471718" lon="-2.4859668"><ele>945.0</ele><time>2026-04-13T10:42:04.676Z</time></trkpt><trkpt lat="38.4472404" lon="-2.4857693"><ele>944.0</ele><time>2026-04-13T10:42:05.677Z</time></trkpt><trkpt lat="38.4472795" lon="-2.4855658"><ele>943.0</ele><time>2026-04-13T10:42:06.676Z</time></trkpt><trkpt lat="38.4473099" lon="-2.4853631"><ele>947.3333333333333</ele><time>2026-04-13T10:42:07.676Z</time></trkpt><trkpt lat="38.4473568" lon="-2.4851709"><ele>951.6666666666667</ele><time>2026-04-13T10:42:08.676Z</time></trkpt><trkpt lat="38.4474394" lon="-2.4850072"><ele>956.0</ele><time>2026-04-13T10:42:09.676Z</time></trkpt><trkpt lat="38.4475522" lon="-2.4848769"><ele>956.0</ele><time>2026-04-13T10:42:10.676Z</time></trkpt><trkpt lat="38.4476667" lon="-2.4847638"><ele>956.0</ele><time>2026-04-13T10:42:11.676Z</time></trkpt><trkpt lat="38.4477711" lon="-2.4846655"><ele>956.0</ele><time>2026-04-13T10:42:12.676Z</time></trkpt><trkpt lat="38.4478644" lon="-2.4845574"><ele>956.0</ele><time>2026-04-13T10:42:13.676Z</time></trkpt><trkpt lat="38.4479379" lon="-2.4844238"><ele>956.5</ele><time>2026-04-13T10:42:14.677Z</time></trkpt><trkpt lat="38.4479845" lon="-2.4842694"><ele>957.0</ele><time>2026-04-13T10:42:15.676Z</time></trkpt><trkpt lat="38.4480068" lon="-2.4840956"><ele>957.5</ele><time>2026-04-13T10:42:16.676Z</time></trkpt><trkpt lat="38.4480225" lon="-2.4839144"><ele>958.0</ele><time>2026-04-13T10:42:17.676Z</time></trkpt><trkpt lat="38.4480437" lon="-2.4837267"><ele>958.0</ele><time>2026-04-13T10:42:18.676Z</time></trkpt><trkpt lat="38.4480825" lon="-2.4835418"><ele>958.0</ele><time>2026-04-13T10:42:19.676Z</time></trkpt><trkpt lat="38.4481447" lon="-2.4833642"><ele>958.0</ele><time>2026-04-13T10:42:20.676Z</time></trkpt><trkpt lat="38.4482282" lon="-2.4831978"><ele>958.0</ele><time>2026-04-13T10:42:21.676Z</time></trkpt><trkpt lat="38.4483246" lon="-2.4830346"><ele>958.0</ele><time>2026-04-13T10:42:22.676Z</time></trkpt><trkpt lat="38.4484261" lon="-2.482871"><ele>958.0</ele><time>2026-04-13T10:42:23.676Z</time></trkpt><trkpt lat="38.4485293" lon="-2.4827038"><ele>956.3333333333333</ele><time>2026-04-13T10:42:24.676Z</time></trkpt><trkpt lat="38.448635" lon="-2.482534"><ele>954.6666666666667</ele><time>2026-04-13T10:42:25.676Z</time></trkpt><trkpt lat="38.4487377" lon="-2.4823681"><ele>953.0</ele><time>2026-04-13T10:42:26.676Z</time></trkpt><trkpt lat="38.4488345" lon="-2.4821905"><ele>958.0</ele><time>2026-04-13T10:42:27.676Z</time></trkpt><trkpt lat="38.4489062" lon="-2.4819983"><ele>963.0</ele><time>2026-04-13T10:42:28.676Z</time></trkpt><trkpt lat="38.4489525" lon="-2.481799"><ele>968.0</ele><time>2026-04-13T10:42:29.676Z</time></trkpt><trkpt lat="38.4489921" lon="-2.4815948"><ele>968.0</ele><time>2026-04-13T10:42:30.676Z</time></trkpt><trkpt lat="38.4490512" lon="-2.4813922"><ele>968.0</ele><time>2026-04-13T10:42:31.676Z</time></trkpt><trkpt lat="38.4491415" lon="-2.4812039"><ele>968.0</ele><time>2026-04-13T10:42:32.676Z</time></trkpt><trkpt lat="38.4492473" lon="-2.4810235"><ele>975.3333333333334</ele><time>2026-04-13T10:42:33.676Z</time></trkpt><trkpt lat="38.4493493" lon="-2.4808333"><ele>982.6666666666667</ele><time>2026-04-13T10:42:34.676Z</time></trkpt><trkpt lat="38.4494354" lon="-2.4806266"><ele>990.0</ele><time>2026-04-13T10:42:35.676Z</time></trkpt><trkpt lat="38.4494958" lon="-2.4804063"><ele>994.0</ele><time>2026-04-13T10:42:36.676Z</time></trkpt><trkpt lat="38.4495313" lon="-2.4801784"><ele>998.0</ele><time>2026-04-13T10:42:37.676Z</time></trkpt><trkpt lat="38.4495455" lon="-2.479946"><ele>1002.0</ele><time>2026-04-13T10:42:38.676Z</time></trkpt><trkpt lat="38.4495508" lon="-2.479711"><ele>1004.3333333333333</ele><time>2026-04-13T10:42:39.676Z</time></trkpt><trkpt lat="38.4495659" lon="-2.4794684"><ele>1006.6666666666666</ele><time>2026-04-13T10:42:40.676Z</time></trkpt><trkpt lat="38.4495977" lon="-2.4792251"><ele>1009.0</ele><time>2026-04-13T10:42:41.677Z</time></trkpt><trkpt lat="38.4496388" lon="-2.4789777"><ele>1001.6666666666666</ele><time>2026-04-13T10:42:42.676Z</time></trkpt><trkpt lat="38.4496841" lon="-2.4787296"><ele>994.3333333333333</ele><time>2026-04-13T10:42:43.676Z</time></trkpt><trkpt lat="38.4497288" lon="-2.4784807"><ele>987.0</ele><time>2026-04-13T10:42:44.676Z</time></trkpt><trkpt lat="38.4497721" lon="-2.4782302"><ele>987.0</ele><time>2026-04-13T10:42:45.676Z</time></trkpt><trkpt lat="38.4498156" lon="-2.4779766"><ele>987.0</ele><time>2026-04-13T10:42:46.676Z</time></trkpt><trkpt lat="38.449857" lon="-2.4777236"><ele>987.0</ele><time>2026-04-13T10:42:47.676Z</time></trkpt><trkpt lat="38.4498986" lon="-2.4774727"><ele>989.0</ele><time>2026-04-13T10:42:48.676Z</time></trkpt><trkpt lat="38.4499454" lon="-2.4772267"><ele>991.0</ele><time>2026-04-13T10:42:49.676Z</time></trkpt><trkpt lat="38.4500108" lon="-2.4769889"><ele>993.0</ele><time>2026-04-13T10:42:50.676Z</time></trkpt><trkpt lat="38.4500907" lon="-2.4767651"><ele>995.6666666666667</ele><time>2026-04-13T10:42:51.676Z</time></trkpt><trkpt lat="38.4501816" lon="-2.4765531"><ele>998.3333333333334</ele><time>2026-04-13T10:42:52.676Z</time></trkpt><trkpt lat="38.450269" lon="-2.4763436"><ele>1001.0</ele><time>2026-04-13T10:42:53.676Z</time></trkpt><trkpt lat="38.4503337" lon="-2.4761214"><ele>1006.0</ele><time>2026-04-13T10:42:54.676Z</time></trkpt><trkpt lat="38.4503737" lon="-2.4758873"><ele>1011.0</ele><time>2026-04-13T10:42:55.676Z</time></trkpt><trkpt lat="38.4503952" lon="-2.4756456"><ele>1016.0</ele><time>2026-04-13T10:42:56.676Z</time></trkpt><trkpt lat="38.4504108" lon="-2.4754163"><ele>1018.6666666666667</ele><time>2026-04-13T10:42:57.676Z</time></trkpt><trkpt lat="38.4504246" lon="-2.4752143"><ele>1021.3333333333333</ele><time>2026-04-13T10:42:58.676Z</time></trkpt><trkpt lat="38.4504393" lon="-2.4750277"><ele>1024.0</ele><time>2026-04-13T10:42:59.676Z</time></trkpt><trkpt lat="38.450456" lon="-2.4748408"><ele>1016.3333333333333</ele><time>2026-04-13T10:43:00.676Z</time></trkpt><trkpt lat="38.4504725" lon="-2.4746481"><ele>1008.6666666666667</ele><time>2026-04-13T10:43:01.676Z</time></trkpt><trkpt lat="38.4504883" lon="-2.4744493"><ele>1001.0</ele><time>2026-04-13T10:43:02.676Z</time></trkpt><trkpt lat="38.4505035" lon="-2.4742465"><ele>1001.0</ele><time>2026-04-13T10:43:03.676Z</time></trkpt><trkpt lat="38.4505215" lon="-2.474037"><ele>1001.0</ele><time>2026-04-13T10:43:04.676Z</time></trkpt><trkpt lat="38.4505479" lon="-2.4738219"><ele>1001.0</ele><time>2026-04-13T10:43:05.676Z</time></trkpt><trkpt lat="38.450585" lon="-2.4736063"><ele>1003.3333333333334</ele><time>2026-04-13T10:43:06.676Z</time></trkpt><trkpt lat="38.4506312" lon="-2.4733975"><ele>1005.6666666666667</ele><time>2026-04-13T10:43:07.677Z</time></trkpt><trkpt lat="38.4506869" lon="-2.4731926"><ele>1008.0</ele><time>2026-04-13T10:43:08.676Z</time></trkpt><trkpt lat="38.4507473" lon="-2.4729911"><ele>1012.0</ele><time>2026-04-13T10:43:09.676Z</time></trkpt><trkpt lat="38.4508113" lon="-2.472788"><ele>1016.0</ele><time>2026-04-13T10:43:10.676Z</time></trkpt><trkpt lat="38.4508751" lon="-2.4725865"><ele>1020.0</ele><time>2026-04-13T10:43:11.676Z</time></trkpt><trkpt lat="38.4509364" lon="-2.4723856"><ele>1020.0</ele><time>2026-04-13T10:43:12.676Z</time></trkpt><trkpt lat="38.4510126" lon="-2.4721951"><ele>1020.0</ele><time>2026-04-13T10:43:13.676Z</time></trkpt><trkpt lat="38.4511157" lon="-2.4720353"><ele>1020.0</ele><time>2026-04-13T10:43:14.676Z</time></trkpt><trkpt lat="38.4512444" lon="-2.4719133"><ele>1020.25</ele><time>2026-04-13T10:43:15.676Z</time></trkpt><trkpt lat="38.4513898" lon="-2.4718352"><ele>1020.5</ele><time>2026-04-13T10:43:16.676Z</time></trkpt><trkpt lat="38.4515353" lon="-2.4717907"><ele>1020.75</ele><time>2026-04-13T10:43:17.676Z</time></trkpt><trkpt lat="38.4516676" lon="-2.4717559"><ele>1021.0</ele><time>2026-04-13T10:43:18.676Z</time></trkpt><trkpt lat="38.4517886" lon="-2.4717046"><ele>1021.0</ele><time>2026-04-13T10:43:19.676Z</time></trkpt><trkpt lat="38.4518939" lon="-2.4716174"><ele>1021.0</ele><time>2026-04-13T10:43:20.676Z</time></trkpt><trkpt lat="38.4519754" lon="-2.4715096"><ele>1021.0</ele><time>2026-04-13T10:43:21.676Z</time></trkpt><trkpt lat="38.45203" lon="-2.4713762"><ele>1021.0</ele><time>2026-04-13T10:43:22.676Z</time></trkpt><trkpt lat="38.4520659" lon="-2.4712382"><ele>1018.75</ele><time>2026-04-13T10:43:23.676Z</time></trkpt><trkpt lat="38.4520926" lon="-2.471094"><ele>1016.5</ele><time>2026-04-13T10:43:24.676Z</time></trkpt><trkpt lat="38.4521164" lon="-2.4709449"><ele>1014.25</ele><time>2026-04-13T10:43:25.676Z</time></trkpt><trkpt lat="38.4521401" lon="-2.4707896"><ele>1012.0</ele><time>2026-04-13T10:43:26.676Z</time></trkpt><trkpt lat="38.4521651" lon="-2.4706261"><ele>1012.0</ele><time>2026-04-13T10:43:27.676Z</time></trkpt><trkpt lat="38.4521921" lon="-2.4704554"><ele>1012.0</ele><time>2026-04-13T10:43:28.676Z</time></trkpt><trkpt lat="38.4522222" lon="-2.4702775"><ele>1012.0</ele><time>2026-04-13T10:43:29.676Z</time></trkpt><trkpt lat="38.4522522" lon="-2.470101"><ele>1012.0</ele><time>2026-04-13T10:43:30.676Z</time></trkpt><trkpt lat="38.4522798" lon="-2.4699264"><ele>1013.25</ele><time>2026-04-13T10:43:31.676Z</time></trkpt><trkpt lat="38.4522984" lon="-2.4697511"><ele>1014.5</ele><time>2026-04-13T10:43:32.676Z</time></trkpt><trkpt lat="38.4523003" lon="-2.4695814"><ele>1015.75</ele><time>2026-04-13T10:43:33.676Z</time></trkpt><trkpt lat="38.4522852" lon="-2.4694269"><ele>1017.0</ele><time>2026-04-13T10:43:34.676Z</time></trkpt><trkpt lat="38.4522521" lon="-2.4692828"><ele>1017.0</ele><time>2026-04-13T10:43:35.676Z</time></trkpt><trkpt lat="38.4522007" lon="-2.4691409"><ele>1017.0</ele><time>2026-04-13T10:43:36.676Z</time></trkpt><trkpt lat="38.4521279" lon="-2.4690063"><ele>1017.0</ele><time>2026-04-13T10:43:37.677Z</time></trkpt><trkpt lat="38.452035" lon="-2.4688818"><ele>1017.0</ele><time>2026-04-13T10:43:38.676Z</time></trkpt><trkpt lat="38.45193" lon="-2.4687657"><ele>1020.5</ele><time>2026-04-13T10:43:39.676Z</time></trkpt><trkpt lat="38.4518208" lon="-2.4686516"><ele>1024.0</ele><time>2026-04-13T10:43:40.676Z</time></trkpt><trkpt lat="38.4517083" lon="-2.4685335"><ele>1027.5</ele><time>2026-04-13T10:43:41.676Z</time></trkpt><trkpt lat="38.4516021" lon="-2.4684154"><ele>1031.0</ele><time>2026-04-13T10:43:42.676Z</time></trkpt><trkpt lat="38.4515038" lon="-2.4682841"><ele>1031.0</ele><time>2026-04-13T10:43:43.676Z</time></trkpt><trkpt lat="38.4514272" lon="-2.4681384"><ele>1031.0</ele><time>2026-04-13T10:43:44.676Z</time></trkpt><trkpt lat="38.4513829" lon="-2.4679741"><ele>1031.0</ele><time>2026-04-13T10:43:45.676Z</time></trkpt><trkpt lat="38.4513829" lon="-2.4678093"><ele>1031.0</ele><time>2026-04-13T10:43:46.676Z</time></trkpt><trkpt lat="38.4514207" lon="-2.4676472"><ele>1029.0</ele><time>2026-04-13T10:43:47.676Z</time></trkpt><trkpt lat="38.4514933" lon="-2.4675066"><ele>1027.0</ele><time>2026-04-13T10:43:48.676Z</time></trkpt><trkpt lat="38.4515957" lon="-2.4673908"><ele>1025.0</ele><time>2026-04-13T10:43:49.676Z</time></trkpt><trkpt lat="38.4517194" lon="-2.4673189"><ele>1023.0</ele><time>2026-04-13T10:43:50.676Z</time></trkpt><trkpt lat="38.4518529" lon="-2.4672977"><ele>1023.0</ele><time>2026-04-13T10:43:51.676Z</time></trkpt><trkpt lat="38.4519853" lon="-2.4673225"><ele>1023.0</ele><time>2026-04-13T10:43:52.676Z</time></trkpt><trkpt lat="38.4521146" lon="-2.4673855"><ele>1023.0</ele><time>2026-04-13T10:43:53.676Z</time></trkpt><trkpt lat="38.4522444" lon="-2.4674624"><ele>1023.0</ele><time>2026-04-13T10:43:54.676Z</time></trkpt><trkpt lat="38.4523743" lon="-2.4675416"><ele>1027.75</ele><time>2026-04-13T10:43:55.676Z</time></trkpt><trkpt lat="38.4525051" lon="-2.4676217"><ele>1032.5</ele><time>2026-04-13T10:43:56.676Z</time></trkpt><trkpt lat="38.4526368" lon="-2.4677002"><ele>1037.25</ele><time>2026-04-13T10:43:57.676Z</time></trkpt><trkpt lat="38.4527685" lon="-2.4677804"><ele>1042.0</ele><time>2026-04-13T10:43:58.676Z</time></trkpt><trkpt lat="38.4529009" lon="-2.4678613"><ele>1039.5</ele><time>2026-04-13T10:43:59.676Z</time></trkpt><trkpt lat="38.4530307" lon="-2.4679391"><ele>1037.0</ele><time>2026-04-13T10:44:00.676Z</time></trkpt><trkpt lat="38.4531573" lon="-2.4680136"><ele>1034.5</ele><time>2026-04-13T10:44:01.677Z</time></trkpt><trkpt lat="38.4532886" lon="-2.468071"><ele>1032.0</ele><time>2026-04-13T10:44:02.676Z</time></trkpt><trkpt lat="38.4534241" lon="-2.4680921"><ele>1032.0</ele><time>2026-04-13T10:44:03.676Z</time></trkpt><trkpt lat="38.4535567" lon="-2.4680642"><ele>1032.0</ele><time>2026-04-13T10:44:04.676Z</time></trkpt><trkpt lat="38.4536769" lon="-2.4679853"><ele>1032.0</ele><time>2026-04-13T10:44:05.676Z</time></trkpt><trkpt lat="38.4537786" lon="-2.4678643"><ele>1032.0</ele><time>2026-04-13T10:44:06.676Z</time></trkpt><trkpt lat="38.4538634" lon="-2.4677203"><ele>1033.5</ele><time>2026-04-13T10:44:07.676Z</time></trkpt><trkpt lat="38.453945" lon="-2.4675646"><ele>1035.0</ele><time>2026-04-13T10:44:08.676Z</time></trkpt><trkpt lat="38.4540247" lon="-2.4674031"><ele>1036.5</ele><time>2026-04-13T10:44:09.676Z</time></trkpt><trkpt lat="38.4541066" lon="-2.4672387"><ele>1038.0</ele><time>2026-04-13T10:44:10.676Z</time></trkpt><trkpt lat="38.4541868" lon="-2.4670785"><ele>1043.25</ele><time>2026-04-13T10:44:11.676Z</time></trkpt><trkpt lat="38.4542637" lon="-2.4669227"><ele>1048.5</ele><time>2026-04-13T10:44:12.676Z</time></trkpt><trkpt lat="38.4543423" lon="-2.4667664"><ele>1053.75</ele><time>2026-04-13T10:44:13.677Z</time></trkpt><trkpt lat="38.4544234" lon="-2.4666146"><ele>1059.0</ele><time>2026-04-13T10:44:14.676Z</time></trkpt><trkpt lat="38.454527" lon="-2.4664775"><ele>1051.6666666666667</ele><time>2026-04-13T10:44:15.676Z</time></trkpt><trkpt lat="38.4546596" lon="-2.4663763"><ele>1044.3333333333335</ele><time>2026-04-13T10:44:16.676Z</time></trkpt><trkpt lat="38.454816" lon="-2.4663337"><ele>1037.0</ele><time>2026-04-13T10:44:17.676Z</time></trkpt><trkpt lat="38.4549774" lon="-2.4663243"><ele>1037.0</ele><time>2026-04-13T10:44:18.676Z</time></trkpt><trkpt lat="38.4551372" lon="-2.4663282"><ele>1037.0</ele><time>2026-04-13T10:44:19.676Z</time></trkpt><trkpt lat="38.4552781" lon="-2.4663347"><ele>1037.0</ele><time>2026-04-13T10:44:20.676Z</time></trkpt><trkpt lat="38.4554078" lon="-2.466344"><ele>1037.0</ele><time>2026-04-13T10:44:21.676Z</time></trkpt><trkpt lat="38.4555355" lon="-2.4663683"><ele>1038.75</ele><time>2026-04-13T10:44:22.676Z</time></trkpt><trkpt lat="38.455661" lon="-2.4664299"><ele>1040.5</ele><time>2026-04-13T10:44:23.676Z</time></trkpt><trkpt lat="38.4557723" lon="-2.4665361"><ele>1042.25</ele><time>2026-04-13T10:44:24.677Z</time></trkpt><trkpt lat="38.4558758" lon="-2.466666"><ele>1044.0</ele><time>2026-04-13T10:44:25.676Z</time></trkpt><trkpt lat="38.4559888" lon="-2.4667903"><ele>1044.0</ele><time>2026-04-13T10:44:26.676Z</time></trkpt><trkpt lat="38.4561195" lon="-2.4668877"><ele>1044.0</ele><time>2026-04-13T10:44:27.676Z</time></trkpt><trkpt lat="38.4562635" lon="-2.4669572"><ele>1044.0</ele><time>2026-04-13T10:44:28.676Z</time></trkpt><trkpt lat="38.4564172" lon="-2.4669953"><ele>1044.3333333333333</ele><time>2026-04-13T10:44:29.676Z</time></trkpt><trkpt lat="38.4565758" lon="-2.4669978"><ele>1044.6666666666665</ele><time>2026-04-13T10:44:30.676Z</time></trkpt><trkpt lat="38.4567313" lon="-2.4669596"><ele>1045.0</ele><time>2026-04-13T10:44:31.676Z</time></trkpt><trkpt lat="38.4568797" lon="-2.466898"><ele>1045.0</ele><time>2026-04-13T10:44:32.676Z</time></trkpt><trkpt lat="38.4570223" lon="-2.466835"><ele>1045.0</ele><time>2026-04-13T10:44:33.676Z</time></trkpt><trkpt lat="38.4571628" lon="-2.4667792"><ele>1045.0</ele><time>2026-04-13T10:44:34.676Z</time></trkpt><trkpt lat="38.457306" lon="-2.4667401"><ele>1045.0</ele><time>2026-04-13T10:44:35.676Z</time></trkpt><trkpt lat="38.4574519" lon="-2.4667424"><ele>1046.0</ele><time>2026-04-13T10:44:36.676Z</time></trkpt><trkpt lat="38.4575991" lon="-2.4667797"><ele>1047.0</ele><time>2026-04-13T10:44:37.676Z</time></trkpt><trkpt lat="38.4577447" lon="-2.4668355"><ele>1048.0</ele><time>2026-04-13T10:44:38.676Z</time></trkpt><trkpt lat="38.4578928" lon="-2.46688"><ele>1049.3333333333333</ele><time>2026-04-13T10:44:39.676Z</time></trkpt><trkpt lat="38.4580448" lon="-2.4668873"><ele>1050.6666666666667</ele><time>2026-04-13T10:44:40.676Z</time></trkpt><trkpt lat="38.4581937" lon="-2.4668495"><ele>1052.0</ele><time>2026-04-13T10:44:41.676Z</time></trkpt><trkpt lat="38.4583252" lon="-2.4667685"><ele>1052.0</ele><time>2026-04-13T10:44:42.676Z</time></trkpt><trkpt lat="38.4584405" lon="-2.4666592"><ele>1052.0</ele><time>2026-04-13T10:44:43.676Z</time></trkpt><trkpt lat="38.4585516" lon="-2.4665339"><ele>1052.0</ele><time>2026-04-13T10:44:44.676Z</time></trkpt><trkpt lat="38.4586672" lon="-2.4663999"><ele>1052.0</ele><time>2026-04-13T10:44:45.676Z</time></trkpt><trkpt lat="38.4587945" lon="-2.4662717"><ele>1056.3333333333335</ele><time>2026-04-13T10:44:46.676Z</time></trkpt><trkpt lat="38.4589381" lon="-2.4661574"><ele>1060.6666666666667</ele><time>2026-04-13T10:44:47.676Z</time></trkpt><trkpt lat="38.4590974" lon="-2.4660627"><ele>1065.0</ele><time>2026-04-13T10:44:48.676Z</time></trkpt><trkpt lat="38.4592701" lon="-2.46598"><ele>1065.0</ele><time>2026-04-13T10:44:49.676Z</time></trkpt><trkpt lat="38.4594493" lon="-2.4658974"><ele>1065.0</ele><time>2026-04-13T10:44:50.676Z</time></trkpt><trkpt lat="38.4596321" lon="-2.4658153"><ele>1065.0</ele><time>2026-04-13T10:44:51.676Z</time></trkpt><trkpt lat="38.4598175" lon="-2.4657308"><ele>1064.0</ele><time>2026-04-13T10:44:52.676Z</time></trkpt><trkpt lat="38.4600084" lon="-2.4656412"><ele>1063.0</ele><time>2026-04-13T10:44:53.677Z</time></trkpt><trkpt lat="38.4601979" lon="-2.4655505"><ele>1062.0</ele><time>2026-04-13T10:44:54.676Z</time></trkpt><trkpt lat="38.4603918" lon="-2.4654498"><ele>1066.6666666666667</ele><time>2026-04-13T10:44:55.676Z</time></trkpt><trkpt lat="38.4605856" lon="-2.465349"><ele>1071.3333333333335</ele><time>2026-04-13T10:44:56.676Z</time></trkpt><trkpt lat="38.4607823" lon="-2.4652535"><ele>1076.0</ele><time>2026-04-13T10:44:57.676Z</time></trkpt><trkpt lat="38.4609816" lon="-2.4651604"><ele>1076.0</ele><time>2026-04-13T10:44:58.676Z</time></trkpt><trkpt lat="38.4611813" lon="-2.4650705"><ele>1076.0</ele><time>2026-04-13T10:44:59.676Z</time></trkpt><trkpt lat="38.4613806" lon="-2.4649807"><ele>1076.0</ele><time>2026-04-13T10:45:00.676Z</time></trkpt><trkpt lat="38.4615827" lon="-2.4648888"><ele>1074.6666666666667</ele><time>2026-04-13T10:45:01.676Z</time></trkpt><trkpt lat="38.4617852" lon="-2.4647957"><ele>1073.3333333333333</ele><time>2026-04-13T10:45:02.676Z</time></trkpt><trkpt lat="38.4619901" lon="-2.464706"><ele>1072.0</ele><time>2026-04-13T10:45:03.676Z</time></trkpt><trkpt lat="38.4621928" lon="-2.4646106"><ele>1076.3333333333333</ele><time>2026-04-13T10:45:04.676Z</time></trkpt><trkpt lat="38.462389" lon="-2.4644829"><ele>1080.6666666666667</ele><time>2026-04-13T10:45:05.676Z</time></trkpt><trkpt lat="38.4625641" lon="-2.4643189"><ele>1085.0</ele><time>2026-04-13T10:45:06.676Z</time></trkpt><trkpt lat="38.4627138" lon="-2.4641274"><ele>1085.0</ele><time>2026-04-13T10:45:07.677Z</time></trkpt><trkpt lat="38.4628527" lon="-2.4639222"><ele>1085.0</ele><time>2026-04-13T10:45:08.677Z</time></trkpt><trkpt lat="38.4629888" lon="-2.4637196"><ele>1085.0</ele><time>2026-04-13T10:45:09.676Z</time></trkpt><trkpt lat="38.4631262" lon="-2.4635165"><ele>1086.6666666666667</ele><time>2026-04-13T10:45:10.676Z</time></trkpt><trkpt lat="38.4632809" lon="-2.463351"><ele>1088.3333333333333</ele><time>2026-04-13T10:45:11.676Z</time></trkpt><trkpt lat="38.463458" lon="-2.4632556"><ele>1090.0</ele><time>2026-04-13T10:45:12.676Z</time></trkpt><trkpt lat="38.4636473" lon="-2.4631991"><ele>1091.0</ele><time>2026-04-13T10:45:13.676Z</time></trkpt><trkpt lat="38.4638352" lon="-2.4631145"><ele>1092.0</ele><time>2026-04-13T10:45:14.676Z</time></trkpt><trkpt lat="38.4640053" lon="-2.4629915"><ele>1093.0</ele><time>2026-04-13T10:45:15.676Z</time></trkpt><trkpt lat="38.464155" lon="-2.4628274"><ele>1096.6666666666665</ele><time>2026-04-13T10:45:16.676Z</time></trkpt><trkpt lat="38.4642948" lon="-2.4626457"><ele>1100.3333333333333</ele><time>2026-04-13T10:45:17.676Z</time></trkpt><trkpt lat="38.4644348" lon="-2.4624604"><ele>1104.0</ele><time>2026-04-13T10:45:18.676Z</time></trkpt><trkpt lat="38.464576" lon="-2.4622756"><ele>1105.0</ele><time>2026-04-13T10:45:19.676Z</time></trkpt><trkpt lat="38.4647158" lon="-2.4620832"><ele>1106.0</ele><time>2026-04-13T10:45:20.676Z</time></trkpt><trkpt lat="38.4648516" lon="-2.4618848"><ele>1107.0</ele><time>2026-04-13T10:45:21.676Z</time></trkpt><trkpt lat="38.4649804" lon="-2.4616782"><ele>1107.0</ele><time>2026-04-13T10:45:22.676Z</time></trkpt><trkpt lat="38.4651092" lon="-2.4614703"><ele>1107.0</ele><time>2026-04-13T10:45:23.676Z</time></trkpt><trkpt lat="38.4652532" lon="-2.4612743"><ele>1107.0</ele><time>2026-04-13T10:45:24.676Z</time></trkpt><trkpt lat="38.4654099" lon="-2.4610932"><ele>1107.6666666666667</ele><time>2026-04-13T10:45:25.676Z</time></trkpt><trkpt lat="38.4655729" lon="-2.460916"><ele>1108.3333333333335</ele><time>2026-04-13T10:45:26.677Z</time></trkpt><trkpt lat="38.4657333" lon="-2.460734"><ele>1109.0</ele><time>2026-04-13T10:45:27.676Z</time></trkpt><trkpt lat="38.4658788" lon="-2.4605331"><ele>1112.0</ele><time>2026-04-13T10:45:28.676Z</time></trkpt><trkpt lat="38.4660031" lon="-2.4603085"><ele>1115.0</ele><time>2026-04-13T10:45:29.676Z</time></trkpt><trkpt lat="38.466103" lon="-2.4600638"><ele>1118.0</ele><time>2026-04-13T10:45:30.676Z</time></trkpt><trkpt lat="38.4661794" lon="-2.4598039"><ele>1120.0</ele><time>2026-04-13T10:45:31.676Z</time></trkpt><trkpt lat="38.4662371" lon="-2.4595332"><ele>1122.0</ele><time>2026-04-13T10:45:32.677Z</time></trkpt><trkpt lat="38.4662909" lon="-2.4592647"><ele>1124.0</ele><time>2026-04-13T10:45:33.676Z</time></trkpt><trkpt lat="38.4663595" lon="-2.459004"><ele>1126.0</ele><time>2026-04-13T10:45:34.676Z</time></trkpt><trkpt lat="38.4664618" lon="-2.4587668"><ele>1128.0</ele><time>2026-04-13T10:45:35.676Z</time></trkpt><trkpt lat="38.4666054" lon="-2.4585624"><ele>1130.0</ele><time>2026-04-13T10:45:36.676Z</time></trkpt><trkpt lat="38.4667773" lon="-2.4583728"><ele>1130.0</ele><time>2026-04-13T10:45:37.676Z</time></trkpt><trkpt lat="38.4669581" lon="-2.4582076"><ele>1130.0</ele><time>2026-04-13T10:45:38.676Z</time></trkpt><trkpt lat="38.4671398" lon="-2.4580482"><ele>1130.0</ele><time>2026-04-13T10:45:39.676Z</time></trkpt><trkpt lat="38.4673082" lon="-2.4578805"><ele>1132.3333333333335</ele><time>2026-04-13T10:45:40.676Z</time></trkpt><trkpt lat="38.4674395" lon="-2.4576928"><ele>1134.6666666666667</ele><time>2026-04-13T10:45:41.676Z</time></trkpt><trkpt lat="38.4675182" lon="-2.4574809"><ele>1137.0</ele><time>2026-04-13T10:45:42.676Z</time></trkpt><trkpt lat="38.4675707" lon="-2.4572519"><ele>1139.3333333333333</ele><time>2026-04-13T10:45:43.676Z</time></trkpt><trkpt lat="38.4676245" lon="-2.4570192"><ele>1141.6666666666665</ele><time>2026-04-13T10:45:44.676Z</time></trkpt><trkpt lat="38.4676921" lon="-2.4567914"><ele>1144.0</ele><time>2026-04-13T10:45:45.676Z</time></trkpt><trkpt lat="38.4677782" lon="-2.456575"><ele>1144.0</ele><time>2026-04-13T10:45:46.676Z</time></trkpt><trkpt lat="38.4678732" lon="-2.4563728"><ele>1144.0</ele><time>2026-04-13T10:45:47.676Z</time></trkpt><trkpt lat="38.4679728" lon="-2.4561695"><ele>1144.0</ele><time>2026-04-13T10:45:48.676Z</time></trkpt><trkpt lat="38.4680753" lon="-2.4559619"><ele>1144.3333333333333</ele><time>2026-04-13T10:45:49.676Z</time></trkpt><trkpt lat="38.4681799" lon="-2.4557443"><ele>1144.6666666666667</ele><time>2026-04-13T10:45:50.676Z</time></trkpt><trkpt lat="38.4682834" lon="-2.4555168"><ele>1145.0</ele><time>2026-04-13T10:45:51.676Z</time></trkpt><trkpt lat="38.4683874" lon="-2.4552759"><ele>1145.0</ele><time>2026-04-13T10:45:52.676Z</time></trkpt><trkpt lat="38.4684916" lon="-2.4550252"><ele>1145.0</ele><time>2026-04-13T10:45:53.676Z</time></trkpt><trkpt lat="38.4685973" lon="-2.4547627"><ele>1144.5</ele><time>2026-04-13T10:45:54.676Z</time></trkpt><trkpt lat="38.4687057" lon="-2.4545029"><ele>1144.0</ele><time>2026-04-13T10:45:55.676Z</time></trkpt><trkpt lat="38.4688299" lon="-2.4542531"><ele>1139.0</ele><time>2026-04-13T10:45:56.676Z</time></trkpt><trkpt lat="38.4689794" lon="-2.4540305"><ele>1134.0</ele><time>2026-04-13T10:45:57.676Z</time></trkpt><trkpt lat="38.4691366" lon="-2.4538203"><ele>1132.3333333333333</ele><time>2026-04-13T10:45:58.677Z</time></trkpt><trkpt lat="38.4692921" lon="-2.453617"><ele>1130.6666666666665</ele><time>2026-04-13T10:45:59.676Z</time></trkpt><trkpt lat="38.4694219" lon="-2.4534148"><ele>1129.0</ele><time>2026-04-13T10:46:00.676Z</time></trkpt><trkpt lat="38.4695276" lon="-2.4531987"><ele>1130.0</ele><time>2026-04-13T10:46:01.676Z</time></trkpt><trkpt lat="38.4696185" lon="-2.4529661"><ele>1131.0</ele><time>2026-04-13T10:46:02.676Z</time></trkpt><trkpt lat="38.4697032" lon="-2.452716"><ele>1132.0</ele><time>2026-04-13T10:46:03.676Z</time></trkpt><trkpt lat="38.4697834" lon="-2.4524543"><ele>1132.0</ele><time>2026-04-13T10:46:04.676Z</time></trkpt><trkpt lat="38.4698615" lon="-2.4521751"><ele>1132.0</ele><time>2026-04-13T10:46:05.676Z</time></trkpt><trkpt lat="38.4699337" lon="-2.4518868"><ele>1128.5</ele><time>2026-04-13T10:46:06.676Z</time></trkpt><trkpt lat="38.4700055" lon="-2.451583"><ele>1125.0</ele><time>2026-04-13T10:46:07.676Z</time></trkpt><trkpt lat="38.4700749" lon="-2.4512786"><ele>1120.5</ele><time>2026-04-13T10:46:08.676Z</time></trkpt><trkpt lat="38.4701407" lon="-2.4509701"><ele>1116.0</ele><time>2026-04-13T10:46:09.676Z</time></trkpt><trkpt lat="38.4702109" lon="-2.4506548"><ele>1114.0</ele><time>2026-04-13T10:46:10.676Z</time></trkpt><trkpt lat="38.4702977" lon="-2.4503417"><ele>1112.0</ele><time>2026-04-13T10:46:11.676Z</time></trkpt><trkpt lat="38.4704059" lon="-2.4500372"><ele>1113.0</ele><time>2026-04-13T10:46:12.676Z</time></trkpt><trkpt lat="38.4705248" lon="-2.4497372"><ele>1114.0</ele><time>2026-04-13T10:46:13.676Z</time></trkpt><trkpt lat="38.4706524" lon="-2.4494363"><ele>1114.0</ele><time>2026-04-13T10:46:14.676Z</time></trkpt><trkpt lat="38.4707793" lon="-2.4491394"><ele>1114.0</ele><time>2026-04-13T10:46:15.677Z</time></trkpt><trkpt lat="38.4709121" lon="-2.448845"><ele>1110.0</ele><time>2026-04-13T10:46:16.676Z</time></trkpt><trkpt lat="38.4710499" lon="-2.4485611"><ele>1106.0</ele><time>2026-04-13T10:46:17.676Z</time></trkpt><trkpt lat="38.4711931" lon="-2.4482803"><ele>1106.0</ele><time>2026-04-13T10:46:18.676Z</time></trkpt><trkpt lat="38.4713343" lon="-2.4480107"><ele>1106.0</ele><time>2026-04-13T10:46:19.677Z</time></trkpt><trkpt lat="38.471467" lon="-2.4477596"><ele>1106.0</ele><time>2026-04-13T10:46:20.676Z</time></trkpt><trkpt lat="38.471591" lon="-2.447533"><ele>1106.0</ele><time>2026-04-13T10:46:21.676Z</time></trkpt><trkpt lat="38.4717155" lon="-2.4473184"><ele>1106.0</ele><time>2026-04-13T10:46:22.676Z</time></trkpt><trkpt lat="38.4718537" lon="-2.4471138"><ele>1104.6666666666667</ele><time>2026-04-13T10:46:23.676Z</time></trkpt><trkpt lat="38.4720078" lon="-2.4469217"><ele>1103.3333333333333</ele><time>2026-04-13T10:46:24.676Z</time></trkpt><trkpt lat="38.4721649" lon="-2.4467486"><ele>1102.0</ele><time>2026-04-13T10:46:25.676Z</time></trkpt><trkpt lat="38.4723139" lon="-2.4465946"><ele>1102.0</ele><time>2026-04-13T10:46:26.676Z</time></trkpt><trkpt lat="38.472463" lon="-2.4464624"><ele>1102.0</ele><time>2026-04-13T10:46:27.676Z</time></trkpt><trkpt lat="38.4726262" lon="-2.446368"><ele>1102.0</ele><time>2026-04-13T10:46:28.676Z</time></trkpt><trkpt lat="38.4728083" lon="-2.4463163"><ele>1098.6666666666665</ele><time>2026-04-13T10:46:29.676Z</time></trkpt><trkpt lat="38.4730054" lon="-2.446288"><ele>1095.3333333333333</ele><time>2026-04-13T10:46:30.676Z</time></trkpt><trkpt lat="38.4732089" lon="-2.4462678"><ele>1092.0</ele><time>2026-04-13T10:46:31.676Z</time></trkpt><trkpt lat="38.4734184" lon="-2.4462679"><ele>1092.0</ele><time>2026-04-13T10:46:32.676Z</time></trkpt><trkpt lat="38.4736248" lon="-2.4462938"><ele>1092.0</ele><time>2026-04-13T10:46:33.676Z</time></trkpt><trkpt lat="38.4738307" lon="-2.446337"><ele>1092.0</ele><time>2026-04-13T10:46:34.676Z</time></trkpt><trkpt lat="38.4740323" lon="-2.4463733"><ele>1089.6666666666667</ele><time>2026-04-13T10:46:35.676Z</time></trkpt><trkpt lat="38.4742366" lon="-2.4463797"><ele>1087.3333333333335</ele><time>2026-04-13T10:46:36.676Z</time></trkpt><trkpt lat="38.474435" lon="-2.446339"><ele>1085.0</ele><time>2026-04-13T10:46:37.676Z</time></trkpt><trkpt lat="38.4746355" lon="-2.4462624"><ele>1085.0</ele><time>2026-04-13T10:46:38.676Z</time></trkpt><trkpt lat="38.4748392" lon="-2.4461673"><ele>1085.0</ele><time>2026-04-13T10:46:39.676Z</time></trkpt><trkpt lat="38.4750483" lon="-2.4460663"><ele>1085.0</ele><time>2026-04-13T10:46:40.676Z</time></trkpt><trkpt lat="38.4752613" lon="-2.4459619"><ele>1083.6666666666667</ele><time>2026-04-13T10:46:41.676Z</time></trkpt><trkpt lat="38.4754711" lon="-2.4458622"><ele>1082.3333333333333</ele><time>2026-04-13T10:46:42.676Z</time></trkpt><trkpt lat="38.4756703" lon="-2.4457653"><ele>1081.0</ele><time>2026-04-13T10:46:43.676Z</time></trkpt><trkpt lat="38.4758507" lon="-2.4456652"><ele>1081.0</ele><time>2026-04-13T10:46:44.676Z</time></trkpt><trkpt lat="38.4760123" lon="-2.4455392"><ele>1081.0</ele><time>2026-04-13T10:46:45.676Z</time></trkpt><trkpt lat="38.4761426" lon="-2.4453722"><ele>1081.0</ele><time>2026-04-13T10:46:46.676Z</time></trkpt><trkpt lat="38.4762332" lon="-2.4451651"><ele>1079.6666666666665</ele><time>2026-04-13T10:46:47.676Z</time></trkpt><trkpt lat="38.4762792" lon="-2.444931"><ele>1078.3333333333333</ele><time>2026-04-13T10:46:48.676Z</time></trkpt><trkpt lat="38.4762854" lon="-2.4446835"><ele>1077.0</ele><time>2026-04-13T10:46:49.676Z</time></trkpt><trkpt lat="38.4762736" lon="-2.4444305"><ele>1077.0</ele><time>2026-04-13T10:46:50.676Z</time></trkpt><trkpt lat="38.4762661" lon="-2.4441812"><ele>1077.0</ele><time>2026-04-13T10:46:51.677Z</time></trkpt><trkpt lat="38.4762861" lon="-2.4439248"><ele>1077.0</ele><time>2026-04-13T10:46:52.676Z</time></trkpt><trkpt lat="38.4763475" lon="-2.4436719"><ele>1075.0</ele><time>2026-04-13T10:46:53.676Z</time></trkpt><trkpt lat="38.4764358" lon="-2.443423"><ele>1073.0</ele><time>2026-04-13T10:46:54.676Z</time></trkpt><trkpt lat="38.4765361" lon="-2.4431678"><ele>1071.0</ele><time>2026-04-13T10:46:55.676Z</time></trkpt><trkpt lat="38.4766396" lon="-2.4429035"><ele>1066.5</ele><time>2026-04-13T10:46:56.676Z</time></trkpt><trkpt lat="38.4767426" lon="-2.4426284"><ele>1062.0</ele><time>2026-04-13T10:46:57.676Z</time></trkpt><trkpt lat="38.476844" lon="-2.4423485"><ele>1057.5</ele><time>2026-04-13T10:46:58.676Z</time></trkpt><trkpt lat="38.4769448" lon="-2.4420598"><ele>1053.0</ele><time>2026-04-13T10:46:59.676Z</time></trkpt><trkpt lat="38.4770452" lon="-2.4417693"><ele>1057.0</ele><time>2026-04-13T10:47:00.676Z</time></trkpt><trkpt lat="38.4771388" lon="-2.4414797"><ele>1061.0</ele><time>2026-04-13T10:47:01.676Z</time></trkpt><trkpt lat="38.4772322" lon="-2.4411832"><ele>1061.0</ele><time>2026-04-13T10:47:02.676Z</time></trkpt><trkpt lat="38.477323" lon="-2.4408736"><ele>1061.0</ele><time>2026-04-13T10:47:03.676Z</time></trkpt><trkpt lat="38.4774075" lon="-2.4405559"><ele>1058.0</ele><time>2026-04-13T10:47:04.676Z</time></trkpt><trkpt lat="38.4774742" lon="-2.4402288"><ele>1055.0</ele><time>2026-04-13T10:47:05.676Z</time></trkpt><trkpt lat="38.477527" lon="-2.4398886"><ele>1053.0</ele><time>2026-04-13T10:47:06.676Z</time></trkpt><trkpt lat="38.4775753" lon="-2.4395434"><ele>1051.0</ele><time>2026-04-13T10:47:07.676Z</time></trkpt><trkpt lat="38.4776218" lon="-2.4392114"><ele>1051.0</ele><time>2026-04-13T10:47:08.676Z</time></trkpt><trkpt lat="38.4776662" lon="-2.4389085"><ele>1051.0</ele><time>2026-04-13T10:47:09.676Z</time></trkpt><trkpt lat="38.4777125" lon="-2.4386264"><ele>1049.3333333333333</ele><time>2026-04-13T10:47:10.676Z</time></trkpt><trkpt lat="38.4777742" lon="-2.438359"><ele>1047.6666666666667</ele><time>2026-04-13T10:47:11.676Z</time></trkpt><trkpt lat="38.4778653" lon="-2.4381094"><ele>1046.0</ele><time>2026-04-13T10:47:12.676Z</time></trkpt><trkpt lat="38.4779906" lon="-2.4378809"><ele>1046.0</ele><time>2026-04-13T10:47:13.676Z</time></trkpt><trkpt lat="38.4781396" lon="-2.4376552"><ele>1046.0</ele><time>2026-04-13T10:47:14.676Z</time></trkpt><trkpt lat="38.4782992" lon="-2.4374293"><ele>1046.0</ele><time>2026-04-13T10:47:15.676Z</time></trkpt><trkpt lat="38.4784613" lon="-2.4371979"><ele>1046.0</ele><time>2026-04-13T10:47:16.676Z</time></trkpt><trkpt lat="38.4786146" lon="-2.4369503"><ele>1043.5</ele><time>2026-04-13T10:47:17.676Z</time></trkpt><trkpt lat="38.4787467" lon="-2.436679"><ele>1041.0</ele><time>2026-04-13T10:47:18.676Z</time></trkpt><trkpt lat="38.4788596" lon="-2.4363905"><ele>1045.0</ele><time>2026-04-13T10:47:19.676Z</time></trkpt><trkpt lat="38.4789651" lon="-2.4360974"><ele>1049.0</ele><time>2026-04-13T10:47:20.676Z</time></trkpt><trkpt lat="38.4790681" lon="-2.4358092"><ele>1049.0</ele><time>2026-04-13T10:47:21.676Z</time></trkpt><trkpt lat="38.4791673" lon="-2.435534"><ele>1049.0</ele><time>2026-04-13T10:47:22.676Z</time></trkpt><trkpt lat="38.479265" lon="-2.4352669"><ele>1044.5</ele><time>2026-04-13T10:47:23.676Z</time></trkpt><trkpt lat="38.4793676" lon="-2.4350046"><ele>1040.0</ele><time>2026-04-13T10:47:24.676Z</time></trkpt><trkpt lat="38.4794859" lon="-2.4347548"><ele>1041.0</ele><time>2026-04-13T10:47:25.676Z</time></trkpt><trkpt lat="38.4796215" lon="-2.4345211"><ele>1042.0</ele><time>2026-04-13T10:47:26.676Z</time></trkpt><trkpt lat="38.4797623" lon="-2.434303"><ele>1043.0</ele><time>2026-04-13T10:47:27.676Z</time></trkpt><trkpt lat="38.4798966" lon="-2.434106"><ele>1043.0</ele><time>2026-04-13T10:47:28.676Z</time></trkpt><trkpt lat="38.4800148" lon="-2.4339293"><ele>1043.0</ele><time>2026-04-13T10:47:29.676Z</time></trkpt><trkpt lat="38.4801138" lon="-2.4337692"><ele>1043.0</ele><time>2026-04-13T10:47:30.676Z</time></trkpt><trkpt lat="38.4801922" lon="-2.4336241"><ele>1041.25</ele><time>2026-04-13T10:47:31.676Z</time></trkpt><trkpt lat="38.4802515" lon="-2.4334855"><ele>1039.5</ele><time>2026-04-13T10:47:32.676Z</time></trkpt><trkpt lat="38.4802977" lon="-2.4333424"><ele>1037.75</ele><time>2026-04-13T10:47:33.676Z</time></trkpt><trkpt lat="38.480333" lon="-2.4331937"><ele>1036.0</ele><time>2026-04-13T10:47:34.677Z</time></trkpt><trkpt lat="38.4803564" lon="-2.433042"><ele>1035.0</ele><time>2026-04-13T10:47:35.676Z</time></trkpt><trkpt lat="38.4803674" lon="-2.4328834"><ele>1034.0</ele><time>2026-04-13T10:47:36.676Z</time></trkpt><trkpt lat="38.480366" lon="-2.4327206"><ele>1033.0</ele><time>2026-04-13T10:47:37.676Z</time></trkpt><trkpt lat="38.4803558" lon="-2.4325542"><ele>1032.0</ele><time>2026-04-13T10:47:38.676Z</time></trkpt><trkpt lat="38.4803429" lon="-2.4323855"><ele>1032.0</ele><time>2026-04-13T10:47:39.676Z</time></trkpt><trkpt lat="38.4803325" lon="-2.432214"><ele>1032.0</ele><time>2026-04-13T10:47:40.676Z</time></trkpt><trkpt lat="38.4803284" lon="-2.4320394"><ele>1032.0</ele><time>2026-04-13T10:47:41.676Z</time></trkpt><trkpt lat="38.480337" lon="-2.4318658"><ele>1032.0</ele><time>2026-04-13T10:47:42.676Z</time></trkpt><trkpt lat="38.4803631" lon="-2.4316883"><ele>1031.3333333333333</ele><time>2026-04-13T10:47:43.676Z</time></trkpt><trkpt lat="38.4804087" lon="-2.4315083"><ele>1030.6666666666665</ele><time>2026-04-13T10:47:44.676Z</time></trkpt><trkpt lat="38.4804745" lon="-2.4313338"><ele>1030.0</ele><time>2026-04-13T10:47:45.676Z</time></trkpt><trkpt lat="38.4805635" lon="-2.4311593"><ele>1030.0</ele><time>2026-04-13T10:47:46.677Z</time></trkpt><trkpt lat="38.4806647" lon="-2.4309752"><ele>1030.0</ele><time>2026-04-13T10:47:47.676Z</time></trkpt><trkpt lat="38.4807752" lon="-2.4307855"><ele>1030.0</ele><time>2026-04-13T10:47:48.676Z</time></trkpt><trkpt lat="38.4808911" lon="-2.430587"><ele>1030.3333333333333</ele><time>2026-04-13T10:47:49.676Z</time></trkpt><trkpt lat="38.4810103" lon="-2.4303752"><ele>1030.6666666666667</ele><time>2026-04-13T10:47:50.676Z</time></trkpt><trkpt lat="38.4811345" lon="-2.4301519"><ele>1031.0</ele><time>2026-04-13T10:47:51.676Z</time></trkpt><trkpt lat="38.4812585" lon="-2.4299322"><ele>1032.0</ele><time>2026-04-13T10:47:52.676Z</time></trkpt><trkpt lat="38.4813891" lon="-2.4297063"><ele>1033.0</ele><time>2026-04-13T10:47:53.676Z</time></trkpt><trkpt lat="38.4815251" lon="-2.4294779"><ele>1034.0</ele><time>2026-04-13T10:47:54.676Z</time></trkpt><trkpt lat="38.4816614" lon="-2.4292526"><ele>1032.0</ele><time>2026-04-13T10:47:55.676Z</time></trkpt><trkpt lat="38.4817989" lon="-2.4290254"><ele>1030.0</ele><time>2026-04-13T10:47:56.676Z</time></trkpt><trkpt lat="38.4819356" lon="-2.4288039"><ele>1028.0</ele><time>2026-04-13T10:47:57.676Z</time></trkpt><trkpt lat="38.4820641" lon="-2.428593"><ele>1028.6666666666667</ele><time>2026-04-13T10:47:58.676Z</time></trkpt><trkpt lat="38.4821793" lon="-2.4283862"><ele>1029.3333333333333</ele><time>2026-04-13T10:47:59.676Z</time></trkpt><trkpt lat="38.4822649" lon="-2.428168"><ele>1030.0</ele><time>2026-04-13T10:48:00.676Z</time></trkpt><trkpt lat="38.4823141" lon="-2.4279356"><ele>1030.0</ele><time>2026-04-13T10:48:01.676Z</time></trkpt><trkpt lat="38.482327" lon="-2.4276963"><ele>1030.0</ele><time>2026-04-13T10:48:02.676Z</time></trkpt><trkpt lat="38.4823124" lon="-2.4274578"><ele>1030.0</ele><time>2026-04-13T10:48:03.676Z</time></trkpt><trkpt lat="38.4822923" lon="-2.4272258"><ele>1030.0</ele><time>2026-04-13T10:48:04.676Z</time></trkpt><trkpt lat="38.4822878" lon="-2.4269954"><ele>1030.0</ele><time>2026-04-13T10:48:05.676Z</time></trkpt><trkpt lat="38.4823136" lon="-2.4267677"><ele>1030.0</ele><time>2026-04-13T10:48:06.676Z</time></trkpt><trkpt lat="38.4823749" lon="-2.426551"><ele>1030.0</ele><time>2026-04-13T10:48:07.676Z</time></trkpt><trkpt lat="38.4824724" lon="-2.4263476"><ele>1030.0</ele><time>2026-04-13T10:48:08.676Z</time></trkpt><trkpt lat="38.4826001" lon="-2.4261624"><ele>1030.0</ele><time>2026-04-13T10:48:09.676Z</time></trkpt><trkpt lat="38.4827473" lon="-2.4259866"><ele>1031.6666666666665</ele><time>2026-04-13T10:48:10.676Z</time></trkpt><trkpt lat="38.4829032" lon="-2.4258091"><ele>1033.3333333333333</ele><time>2026-04-13T10:48:11.676Z</time></trkpt><trkpt lat="38.4830631" lon="-2.4256291"><ele>1035.0</ele><time>2026-04-13T10:48:12.676Z</time></trkpt><trkpt lat="38.4832258" lon="-2.4254461"><ele>1029.3333333333333</ele><time>2026-04-13T10:48:13.676Z</time></trkpt><trkpt lat="38.4833886" lon="-2.4252629"><ele>1023.6666666666666</ele><time>2026-04-13T10:48:14.676Z</time></trkpt><trkpt lat="38.4835489" lon="-2.4250832"><ele>1018.0</ele><time>2026-04-13T10:48:15.676Z</time></trkpt><trkpt lat="38.4837005" lon="-2.4249132"><ele>1018.0</ele><time>2026-04-13T10:48:16.676Z</time></trkpt><trkpt lat="38.4838439" lon="-2.4247521"><ele>1018.0</ele><time>2026-04-13T10:48:17.676Z</time></trkpt><trkpt lat="38.483982" lon="-2.4245986"><ele>1018.0</ele><time>2026-04-13T10:48:18.676Z</time></trkpt><trkpt lat="38.4841107" lon="-2.4244506"><ele>1018.0</ele><time>2026-04-13T10:48:19.676Z</time></trkpt><trkpt lat="38.4842234" lon="-2.4242905"><ele>1018.0</ele><time>2026-04-13T10:48:20.676Z</time></trkpt><trkpt lat="38.4843077" lon="-2.4241113"><ele>1018.0</ele><time>2026-04-13T10:48:21.676Z</time></trkpt><trkpt lat="38.4843533" lon="-2.4239132"><ele>1020.3333333333333</ele><time>2026-04-13T10:48:22.676Z</time></trkpt><trkpt lat="38.4843542" lon="-2.4237038"><ele>1022.6666666666667</ele><time>2026-04-13T10:48:23.676Z</time></trkpt><trkpt lat="38.4843122" lon="-2.4235049"><ele>1025.0</ele><time>2026-04-13T10:48:24.676Z</time></trkpt><trkpt lat="38.4842266" lon="-2.4233197"><ele>1025.0</ele><time>2026-04-13T10:48:25.676Z</time></trkpt><trkpt lat="38.4841018" lon="-2.4231668"><ele>1025.0</ele><time>2026-04-13T10:48:26.676Z</time></trkpt><trkpt lat="38.4839493" lon="-2.423057"><ele>1025.0</ele><time>2026-04-13T10:48:27.676Z</time></trkpt><trkpt lat="38.4837799" lon="-2.4229759"><ele>1022.3333333333334</ele><time>2026-04-13T10:48:28.676Z</time></trkpt><trkpt lat="38.4836051" lon="-2.4228947"><ele>1019.6666666666667</ele><time>2026-04-13T10:48:29.676Z</time></trkpt><trkpt lat="38.4834325" lon="-2.4227877"><ele>1017.0</ele><time>2026-04-13T10:48:30.676Z</time></trkpt><trkpt lat="38.4832634" lon="-2.4226538"><ele>1017.0</ele><time>2026-04-13T10:48:31.676Z</time></trkpt><trkpt lat="38.483103" lon="-2.4224968"><ele>1017.0</ele><time>2026-04-13T10:48:32.676Z</time></trkpt><trkpt lat="38.4829416" lon="-2.4223235"><ele>1017.0</ele><time>2026-04-13T10:48:33.676Z</time></trkpt><trkpt lat="38.4827838" lon="-2.4221448"><ele>1016.6666666666667</ele><time>2026-04-13T10:48:34.676Z</time></trkpt><trkpt lat="38.4826309" lon="-2.4219712"><ele>1016.3333333333334</ele><time>2026-04-13T10:48:35.676Z</time></trkpt><trkpt lat="38.4824866" lon="-2.4218103"><ele>1016.0</ele><time>2026-04-13T10:48:36.676Z</time></trkpt><trkpt lat="38.4823537" lon="-2.4216605"><ele>1016.0</ele><time>2026-04-13T10:48:37.676Z</time></trkpt><trkpt lat="38.4822372" lon="-2.4214953"><ele>1016.0</ele><time>2026-04-13T10:48:38.676Z</time></trkpt><trkpt lat="38.4821443" lon="-2.4213142"><ele>1016.0</ele><time>2026-04-13T10:48:39.676Z</time></trkpt><trkpt lat="38.4820761" lon="-2.4211247"><ele>1014.6666666666667</ele><time>2026-04-13T10:48:40.677Z</time></trkpt><trkpt lat="38.4820406" lon="-2.4209373"><ele>1013.3333333333333</ele><time>2026-04-13T10:48:41.677Z</time></trkpt><trkpt lat="38.4820437" lon="-2.4207466"><ele>1012.0</ele><time>2026-04-13T10:48:42.676Z</time></trkpt><trkpt lat="38.4820884" lon="-2.420554"><ele>1012.6666666666666</ele><time>2026-04-13T10:48:43.676Z</time></trkpt><trkpt lat="38.482167" lon="-2.420377"><ele>1013.3333333333333</ele><time>2026-04-13T10:48:44.676Z</time></trkpt><trkpt lat="38.4822705" lon="-2.4202104"><ele>1014.0</ele><time>2026-04-13T10:48:45.676Z</time></trkpt><trkpt lat="38.4823714" lon="-2.4200444"><ele>1014.0</ele><time>2026-04-13T10:48:46.676Z</time></trkpt><trkpt lat="38.4824569" lon="-2.4198716"><ele>1014.0</ele><time>2026-04-13T10:48:47.676Z</time></trkpt><trkpt lat="38.4825093" lon="-2.4196828"><ele>1014.0</ele><time>2026-04-13T10:48:48.676Z</time></trkpt><trkpt lat="38.4825417" lon="-2.4195089"><ele>1010.75</ele><time>2026-04-13T10:48:49.676Z</time></trkpt><trkpt lat="38.4825789" lon="-2.4193454"><ele>1007.5</ele><time>2026-04-13T10:48:50.676Z</time></trkpt><trkpt lat="38.4826365" lon="-2.4192006"><ele>1004.25</ele><time>2026-04-13T10:48:51.676Z</time></trkpt><trkpt lat="38.482713" lon="-2.4190644"><ele>1001.0</ele><time>2026-04-13T10:48:52.676Z</time></trkpt><trkpt lat="38.4827867" lon="-2.4189251"><ele>999.5</ele><time>2026-04-13T10:48:53.677Z</time></trkpt><trkpt lat="38.4828389" lon="-2.4187622"><ele>998.0</ele><time>2026-04-13T10:48:54.676Z</time></trkpt><trkpt lat="38.4828521" lon="-2.4185848"><ele>996.5</ele><time>2026-04-13T10:48:55.676Z</time></trkpt><trkpt lat="38.4828405" lon="-2.4183952"><ele>995.0</ele><time>2026-04-13T10:48:56.676Z</time></trkpt><trkpt lat="38.4828185" lon="-2.4181947"><ele>995.0</ele><time>2026-04-13T10:48:57.676Z</time></trkpt><trkpt lat="38.4828003" lon="-2.4180093"><ele>995.0</ele><time>2026-04-13T10:48:58.676Z</time></trkpt><trkpt lat="38.4827983" lon="-2.4178406"><ele>995.0</ele><time>2026-04-13T10:48:59.676Z</time></trkpt><trkpt lat="38.4828254" lon="-2.4176748"><ele>995.0</ele><time>2026-04-13T10:49:00.676Z</time></trkpt><trkpt lat="38.4828755" lon="-2.4175111"><ele>998.25</ele><time>2026-04-13T10:49:01.676Z</time></trkpt><trkpt lat="38.4829357" lon="-2.4173419"><ele>1001.5</ele><time>2026-04-13T10:49:02.676Z</time></trkpt><trkpt lat="38.4829988" lon="-2.4171705"><ele>1004.75</ele><time>2026-04-13T10:49:03.676Z</time></trkpt><trkpt lat="38.483053" lon="-2.4170108"><ele>1008.0</ele><time>2026-04-13T10:49:04.676Z</time></trkpt><trkpt lat="38.4830825" lon="-2.4168601"><ele>1008.0</ele><time>2026-04-13T10:49:05.676Z</time></trkpt><trkpt lat="38.4830677" lon="-2.4167112"><ele>1008.0</ele><time>2026-04-13T10:49:06.676Z</time></trkpt><trkpt lat="38.4830085" lon="-2.4165792"><ele>1008.0</ele><time>2026-04-13T10:49:07.676Z</time></trkpt><trkpt lat="38.4829257" lon="-2.4164788"><ele>1008.0</ele><time>2026-04-13T10:49:08.676Z</time></trkpt><trkpt lat="38.4828298" lon="-2.4163773"><ele>1004.0</ele><time>2026-04-13T10:49:09.676Z</time></trkpt><trkpt lat="38.4827298" lon="-2.4162714"><ele>1000.0</ele><time>2026-04-13T10:49:10.676Z</time></trkpt><trkpt lat="38.4826347" lon="-2.4161578"><ele>996.0</ele><time>2026-04-13T10:49:11.676Z</time></trkpt><trkpt lat="38.4825486" lon="-2.4160225"><ele>992.0</ele><time>2026-04-13T10:49:12.676Z</time></trkpt><trkpt lat="38.482487" lon="-2.4158676"><ele>992.0</ele><time>2026-04-13T10:49:13.676Z</time></trkpt><trkpt lat="38.4824554" lon="-2.4156992"><ele>992.0</ele><time>2026-04-13T10:49:14.676Z</time></trkpt><trkpt lat="38.4824659" lon="-2.4155258"><ele>992.0</ele><time>2026-04-13T10:49:15.676Z</time></trkpt><trkpt lat="38.4825132" lon="-2.415367"><ele>992.0</ele><time>2026-04-13T10:49:16.676Z</time></trkpt><trkpt lat="38.4825817" lon="-2.4152149"><ele>990.5</ele><time>2026-04-13T10:49:17.676Z</time></trkpt><trkpt lat="38.4826552" lon="-2.4150621"><ele>989.0</ele><time>2026-04-13T10:49:18.676Z</time></trkpt><trkpt lat="38.4827225" lon="-2.414902"><ele>987.5</ele><time>2026-04-13T10:49:19.676Z</time></trkpt><trkpt lat="38.4827686" lon="-2.4147307"><ele>986.0</ele><time>2026-04-13T10:49:20.676Z</time></trkpt><trkpt lat="38.4827845" lon="-2.4145557"><ele>984.25</ele><time>2026-04-13T10:49:21.676Z</time></trkpt><trkpt lat="38.4827804" lon="-2.414374"><ele>982.5</ele><time>2026-04-13T10:49:22.676Z</time></trkpt><trkpt lat="38.4827694" lon="-2.4141939"><ele>980.75</ele><time>2026-04-13T10:49:23.676Z</time></trkpt><trkpt lat="38.4827589" lon="-2.4140306"><ele>979.0</ele><time>2026-04-13T10:49:24.676Z</time></trkpt><trkpt lat="38.4827477" lon="-2.4138753"><ele>978.75</ele><time>2026-04-13T10:49:25.676Z</time></trkpt><trkpt lat="38.4827371" lon="-2.4137246"><ele>978.5</ele><time>2026-04-13T10:49:26.676Z</time></trkpt><trkpt lat="38.4827301" lon="-2.4135715"><ele>978.25</ele><time>2026-04-13T10:49:27.676Z</time></trkpt><trkpt lat="38.4827296" lon="-2.4134136"><ele>978.0</ele><time>2026-04-13T10:49:28.676Z</time></trkpt><trkpt lat="38.4827375" lon="-2.4132507"><ele>978.0</ele><time>2026-04-13T10:49:29.676Z</time></trkpt><trkpt lat="38.4827609" lon="-2.4130842"><ele>978.0</ele><time>2026-04-13T10:49:30.676Z</time></trkpt><trkpt lat="38.4828023" lon="-2.412915"><ele>978.0</ele><time>2026-04-13T10:49:31.676Z</time></trkpt><trkpt lat="38.4828663" lon="-2.4127532"><ele>978.0</ele><time>2026-04-13T10:49:32.676Z</time></trkpt><trkpt lat="38.4829493" lon="-2.4125993"><ele>977.0</ele><time>2026-04-13T10:49:33.676Z</time></trkpt><trkpt lat="38.4830435" lon="-2.4124506"><ele>976.0</ele><time>2026-04-13T10:49:34.676Z</time></trkpt><trkpt lat="38.483136" lon="-2.4122982"><ele>975.0</ele><time>2026-04-13T10:49:35.676Z</time></trkpt><trkpt lat="38.483216" lon="-2.4121483"><ele>974.0</ele><time>2026-04-13T10:49:36.676Z</time></trkpt><trkpt lat="38.483282" lon="-2.4120081"><ele>974.0</ele><time>2026-04-13T10:49:37.676Z</time></trkpt><trkpt lat="38.4833407" lon="-2.4118758"><ele>974.0</ele><time>2026-04-13T10:49:38.676Z</time></trkpt><trkpt lat="38.4833954" lon="-2.4117446"><ele>974.0</ele><time>2026-04-13T10:49:39.676Z</time></trkpt><trkpt lat="38.4834477" lon="-2.4116087"><ele>974.0</ele><time>2026-04-13T10:49:40.677Z</time></trkpt><trkpt lat="38.4834985" lon="-2.4114659"><ele>971.0</ele><time>2026-04-13T10:49:41.676Z</time></trkpt><trkpt lat="38.4835467" lon="-2.4113175"><ele>968.0</ele><time>2026-04-13T10:49:42.676Z</time></trkpt><trkpt lat="38.4835911" lon="-2.4111656"><ele>965.0</ele><time>2026-04-13T10:49:43.676Z</time></trkpt><trkpt lat="38.4836317" lon="-2.4110097"><ele>962.0</ele><time>2026-04-13T10:49:44.676Z</time></trkpt><trkpt lat="38.4836675" lon="-2.4108542"><ele>962.0</ele><time>2026-04-13T10:49:45.676Z</time></trkpt><trkpt lat="38.483699" lon="-2.4107023"><ele>962.0</ele><time>2026-04-13T10:49:46.676Z</time></trkpt><trkpt lat="38.4837276" lon="-2.4105513"><ele>962.0</ele><time>2026-04-13T10:49:47.676Z</time></trkpt><trkpt lat="38.4837574" lon="-2.4103973"><ele>962.0</ele><time>2026-04-13T10:49:48.676Z</time></trkpt><trkpt lat="38.4837862" lon="-2.4102434"><ele>963.75</ele><time>2026-04-13T10:49:49.676Z</time></trkpt><trkpt lat="38.483816" lon="-2.4100908"><ele>965.5</ele><time>2026-04-13T10:49:50.676Z</time></trkpt><trkpt lat="38.4838507" lon="-2.4099412"><ele>967.25</ele><time>2026-04-13T10:49:51.676Z</time></trkpt><trkpt lat="38.4838946" lon="-2.4097937"><ele>969.0</ele><time>2026-04-13T10:49:52.676Z</time></trkpt><trkpt lat="38.483953" lon="-2.4096509"><ele>969.0</ele><time>2026-04-13T10:49:53.676Z</time></trkpt><trkpt lat="38.484024" lon="-2.4095148"><ele>969.0</ele><time>2026-04-13T10:49:54.676Z</time></trkpt><trkpt lat="38.4841081" lon="-2.4093847"><ele>969.0</ele><time>2026-04-13T10:49:55.676Z</time></trkpt><trkpt lat="38.4842093" lon="-2.4092629"><ele>969.0</ele><time>2026-04-13T10:49:56.676Z</time></trkpt><trkpt lat="38.4843296" lon="-2.4091556"><ele>969.0</ele><time>2026-04-13T10:49:57.676Z</time></trkpt><trkpt lat="38.4844662" lon="-2.40907"><ele>969.0</ele><time>2026-04-13T10:49:58.676Z</time></trkpt><trkpt lat="38.4846158" lon="-2.4090085"><ele>969.0</ele><time>2026-04-13T10:49:59.677Z</time></trkpt><trkpt lat="38.484773" lon="-2.4089643"><ele>970.6666666666667</ele><time>2026-04-13T10:50:00.676Z</time></trkpt><trkpt lat="38.4849318" lon="-2.4089258"><ele>972.3333333333334</ele><time>2026-04-13T10:50:01.676Z</time></trkpt><trkpt lat="38.4850873" lon="-2.4088771"><ele>974.0</ele><time>2026-04-13T10:50:02.676Z</time></trkpt><trkpt lat="38.485242" lon="-2.4088157"><ele>968.3333333333334</ele><time>2026-04-13T10:50:03.676Z</time></trkpt><trkpt lat="38.4853961" lon="-2.4087468"><ele>962.6666666666667</ele><time>2026-04-13T10:50:04.676Z</time></trkpt><trkpt lat="38.4855428" lon="-2.4086778"><ele>957.0</ele><time>2026-04-13T10:50:05.676Z</time></trkpt><trkpt lat="38.4856798" lon="-2.4086122"><ele>957.0</ele><time>2026-04-13T10:50:06.676Z</time></trkpt><trkpt lat="38.4858121" lon="-2.4085503"><ele>957.0</ele><time>2026-04-13T10:50:07.676Z</time></trkpt><trkpt lat="38.4859422" lon="-2.4084874"><ele>957.0</ele><time>2026-04-13T10:50:08.676Z</time></trkpt><trkpt lat="38.4860739" lon="-2.4084288"><ele>957.0</ele><time>2026-04-13T10:50:09.676Z</time></trkpt><trkpt lat="38.4862121" lon="-2.4083815"><ele>956.25</ele><time>2026-04-13T10:50:10.676Z</time></trkpt><trkpt lat="38.4863534" lon="-2.4083507"><ele>955.5</ele><time>2026-04-13T10:50:11.677Z</time></trkpt><trkpt lat="38.4864987" lon="-2.4083399"><ele>954.75</ele><time>2026-04-13T10:50:12.676Z</time></trkpt><trkpt lat="38.4866478" lon="-2.4083494"><ele>954.0</ele><time>2026-04-13T10:50:13.676Z</time></trkpt><trkpt lat="38.4867971" lon="-2.4083789"><ele>954.0</ele><time>2026-04-13T10:50:14.676Z</time></trkpt><trkpt lat="38.4869386" lon="-2.4084214"><ele>954.0</ele><time>2026-04-13T10:50:15.676Z</time></trkpt><trkpt lat="38.4870615" lon="-2.4084652"><ele>954.0</ele><time>2026-04-13T10:50:16.676Z</time></trkpt><trkpt lat="38.4871752" lon="-2.4085074"><ele>954.0</ele><time>2026-04-13T10:50:17.676Z</time></trkpt><trkpt lat="38.4872868" lon="-2.4085495"><ele>952.5</ele><time>2026-04-13T10:50:18.676Z</time></trkpt><trkpt lat="38.4873989" lon="-2.4085914"><ele>951.0</ele><time>2026-04-13T10:50:19.676Z</time></trkpt><trkpt lat="38.4875137" lon="-2.4086366"><ele>949.5</ele><time>2026-04-13T10:50:20.676Z</time></trkpt><trkpt lat="38.487632" lon="-2.4086835"><ele>948.0</ele><time>2026-04-13T10:50:21.676Z</time></trkpt><trkpt lat="38.4877576" lon="-2.4087328"><ele>948.0</ele><time>2026-04-13T10:50:22.676Z</time></trkpt><trkpt lat="38.4878914" lon="-2.4087895"><ele>948.0</ele><time>2026-04-13T10:50:23.676Z</time></trkpt><trkpt lat="38.4880299" lon="-2.4088532"><ele>948.0</ele><time>2026-04-13T10:50:24.676Z</time></trkpt><trkpt lat="38.4881586" lon="-2.4089194"><ele>948.0</ele><time>2026-04-13T10:50:25.676Z</time></trkpt><trkpt lat="38.488281" lon="-2.4089895"><ele>948.75</ele><time>2026-04-13T10:50:26.676Z</time></trkpt><trkpt lat="38.4883985" lon="-2.4090626"><ele>949.5</ele><time>2026-04-13T10:50:27.676Z</time></trkpt><trkpt lat="38.4885147" lon="-2.4091403"><ele>950.25</ele><time>2026-04-13T10:50:28.676Z</time></trkpt><trkpt lat="38.4886351" lon="-2.4092251"><ele>951.0</ele><time>2026-04-13T10:50:29.676Z</time></trkpt><trkpt lat="38.4887606" lon="-2.4093205"><ele>951.0</ele><time>2026-04-13T10:50:30.676Z</time></trkpt><trkpt lat="38.488887" lon="-2.4094263"><ele>951.0</ele><time>2026-04-13T10:50:31.676Z</time></trkpt><trkpt lat="38.4890122" lon="-2.4095406"><ele>951.0</ele><time>2026-04-13T10:50:32.676Z</time></trkpt><trkpt lat="38.4891345" lon="-2.4096621"><ele>951.0</ele><time>2026-04-13T10:50:33.676Z</time></trkpt><trkpt lat="38.4892545" lon="-2.4097904"><ele>951.0</ele><time>2026-04-13T10:50:34.676Z</time></trkpt><trkpt lat="38.4893702" lon="-2.4099245"><ele>951.0</ele><time>2026-04-13T10:50:35.676Z</time></trkpt><trkpt lat="38.4894826" lon="-2.4100651"><ele>951.0</ele><time>2026-04-13T10:50:36.677Z</time></trkpt><trkpt lat="38.4895906" lon="-2.4102064"><ele>951.0</ele><time>2026-04-13T10:50:37.676Z</time></trkpt><trkpt lat="38.4896955" lon="-2.4103514"><ele>951.0</ele><time>2026-04-13T10:50:38.676Z</time></trkpt><trkpt lat="38.4897984" lon="-2.410497"><ele>949.6666666666667</ele><time>2026-04-13T10:50:39.676Z</time></trkpt><trkpt lat="38.4899013" lon="-2.4106461"><ele>948.3333333333334</ele><time>2026-04-13T10:50:40.676Z</time></trkpt><trkpt lat="38.4900047" lon="-2.4107966"><ele>947.0</ele><time>2026-04-13T10:50:41.676Z</time></trkpt><trkpt lat="38.4901086" lon="-2.41095"><ele>947.0</ele><time>2026-04-13T10:50:42.676Z</time></trkpt><trkpt lat="38.4902153" lon="-2.4111062"><ele>947.0</ele><time>2026-04-13T10:50:43.676Z</time></trkpt><trkpt lat="38.4903232" lon="-2.4112626"><ele>947.0</ele><time>2026-04-13T10:50:44.676Z</time></trkpt><trkpt lat="38.4904336" lon="-2.4114208"><ele>944.6666666666667</ele><time>2026-04-13T10:50:45.676Z</time></trkpt><trkpt lat="38.4905447" lon="-2.41158"><ele>942.3333333333333</ele><time>2026-04-13T10:50:46.676Z</time></trkpt><trkpt lat="38.4906557" lon="-2.4117409"><ele>940.0</ele><time>2026-04-13T10:50:47.676Z</time></trkpt><trkpt lat="38.4907666" lon="-2.4119021"><ele>940.0</ele><time>2026-04-13T10:50:48.676Z</time></trkpt><trkpt lat="38.490882" lon="-2.4120595"><ele>940.0</ele><time>2026-04-13T10:50:49.676Z</time></trkpt><trkpt lat="38.491005" lon="-2.4122056"><ele>940.0</ele><time>2026-04-13T10:50:50.676Z</time></trkpt><trkpt lat="38.4911405" lon="-2.4123306"><ele>940.6666666666666</ele><time>2026-04-13T10:50:51.676Z</time></trkpt><trkpt lat="38.4912881" lon="-2.4124278"><ele>941.3333333333333</ele><time>2026-04-13T10:50:52.676Z</time></trkpt><trkpt lat="38.4914449" lon="-2.4124934"><ele>942.0</ele><time>2026-04-13T10:50:53.676Z</time></trkpt><trkpt lat="38.4915985" lon="-2.41253"><ele>942.0</ele><time>2026-04-13T10:50:54.676Z</time></trkpt><trkpt lat="38.4917498" lon="-2.4125403"><ele>942.0</ele><time>2026-04-13T10:50:55.676Z</time></trkpt><trkpt lat="38.4918944" lon="-2.412529"><ele>942.0</ele><time>2026-04-13T10:50:56.676Z</time></trkpt><trkpt lat="38.4920338" lon="-2.4124949"><ele>942.0</ele><time>2026-04-13T10:50:57.676Z</time></trkpt><trkpt lat="38.4921671" lon="-2.4124418"><ele>941.25</ele><time>2026-04-13T10:50:58.676Z</time></trkpt><trkpt lat="38.4922912" lon="-2.4123742"><ele>940.5</ele><time>2026-04-13T10:50:59.676Z</time></trkpt><trkpt lat="38.4924063" lon="-2.4123019"><ele>939.75</ele><time>2026-04-13T10:51:00.676Z</time></trkpt><trkpt lat="38.4925129" lon="-2.4122315"><ele>939.0</ele><time>2026-04-13T10:51:01.676Z</time></trkpt><trkpt lat="38.4926113" lon="-2.4121651"><ele>939.2</ele><time>2026-04-13T10:51:02.676Z</time></trkpt><trkpt lat="38.492705" lon="-2.4121014"><ele>939.4000000000001</ele><time>2026-04-13T10:51:03.676Z</time></trkpt><trkpt lat="38.4927914" lon="-2.412044"><ele>939.6</ele><time>2026-04-13T10:51:04.676Z</time></trkpt><trkpt lat="38.4928696" lon="-2.4119939"><ele>939.8</ele><time>2026-04-13T10:51:05.676Z</time></trkpt><trkpt lat="38.4929342" lon="-2.4119508"><ele>940.0</ele><time>2026-04-13T10:51:06.676Z</time></trkpt><trkpt lat="38.4930299" lon="-2.4118886"><ele>939.9999999999999</ele><time>2026-04-13T10:51:08.676Z</time></trkpt><trkpt lat="38.4931152" lon="-2.4118338"><ele>940.0</ele><time>2026-04-13T10:51:10.676Z</time></trkpt><trkpt lat="38.4931977" lon="-2.4117794"><ele>940.0</ele><time>2026-04-13T10:51:12.676Z</time></trkpt><trkpt lat="38.4932689" lon="-2.4117334"><ele>940.0</ele><time>2026-04-13T10:51:14.676Z</time></trkpt><trkpt lat="38.4932955" lon="-2.4116576"><ele>939.9999999999999</ele><time>2026-04-13T10:51:18.676Z</time></trkpt><trkpt lat="38.4933231" lon="-2.4117681"><ele>940.0</ele><time>2026-04-13T10:51:36.676Z</time></trkpt><trkpt lat="38.4933764" lon="-2.4118171"><ele>939.9999999999999</ele><time>2026-04-13T10:51:42.676Z</time></trkpt><trkpt lat="38.4933932" lon="-2.4119015"><ele>940.0</ele><time>2026-04-13T10:51:59.676Z</time></trkpt><trkpt lat="38.4934356" lon="-2.4119673"><ele>940.0</ele><time>2026-04-13T10:52:08.676Z</time></trkpt><trkpt lat="38.4934806" lon="-2.4120275"><ele>940.0</ele><time>2026-04-13T10:52:14.672Z</time></trkpt><trkpt lat="38.4934026" lon="-2.4118903"><ele>939.9999999999999</ele><time>2026-04-13T10:52:28.684Z</time></trkpt><trkpt lat="38.4933529" lon="-2.4118241"><ele>940.0</ele><time>2026-04-13T11:11:06.671Z</time></trkpt><trkpt lat="38.4933014" lon="-2.4117564"><ele>939.9999999999999</ele><time>2026-04-13T11:11:13.659Z</time></trkpt><trkpt lat="38.4933042" lon="-2.4116659"><ele>940.0</ele><time>2026-04-13T11:11:19.675Z</time></trkpt><trkpt lat="38.4933193" lon="-2.4115757"><ele>940.0</ele><time>2026-04-13T11:12:40.682Z</time></trkpt><trkpt lat="38.4933266" lon="-2.4114803"><ele>940.0</ele><time>2026-04-13T11:12:46.682Z</time></trkpt><trkpt lat="38.4932952" lon="-2.4113869"><ele>939.9999999999999</ele><time>2026-04-13T11:12:48.682Z</time></trkpt><trkpt lat="38.4932637" lon="-2.4112948"><ele>940.0</ele><time>2026-04-13T11:12:49.682Z</time></trkpt><trkpt lat="38.4932281" lon="-2.4112029"><ele>940.0</ele><time>2026-04-13T11:12:50.682Z</time></trkpt><trkpt lat="38.4931835" lon="-2.4110858"><ele>940.0</ele><time>2026-04-13T11:12:51.683Z</time></trkpt><trkpt lat="38.4931364" lon="-2.4109607"><ele>940.0</ele><time>2026-04-13T11:12:52.682Z</time></trkpt><trkpt lat="38.4930831" lon="-2.4108219"><ele>940.0</ele><time>2026-04-13T11:12:53.682Z</time></trkpt><trkpt lat="38.4930236" lon="-2.4106702"><ele>940.0</ele><time>2026-04-13T11:12:54.682Z</time></trkpt><trkpt lat="38.4929603" lon="-2.4105142"><ele>940.0</ele><time>2026-04-13T11:12:55.682Z</time></trkpt><trkpt lat="38.4928896" lon="-2.4103408"><ele>940.0</ele><time>2026-04-13T11:12:56.682Z</time></trkpt><trkpt lat="38.492821" lon="-2.4101587"><ele>940.0</ele><time>2026-04-13T11:12:57.682Z</time></trkpt><trkpt lat="38.4927476" lon="-2.4099729"><ele>938.3333333333333</ele><time>2026-04-13T11:12:58.682Z</time></trkpt><trkpt lat="38.4926686" lon="-2.4097691"><ele>936.6666666666667</ele><time>2026-04-13T11:12:59.682Z</time></trkpt><trkpt lat="38.4925901" lon="-2.4095687"><ele>935.0</ele><time>2026-04-13T11:13:00.682Z</time></trkpt><trkpt lat="38.4925035" lon="-2.4093491"><ele>935.0</ele><time>2026-04-13T11:13:01.682Z</time></trkpt><trkpt lat="38.4924203" lon="-2.409133"><ele>935.0</ele><time>2026-04-13T11:13:02.682Z</time></trkpt><trkpt lat="38.4923352" lon="-2.4089156"><ele>935.0</ele><time>2026-04-13T11:13:03.682Z</time></trkpt><trkpt lat="38.4922456" lon="-2.4086899"><ele>935.3333333333334</ele><time>2026-04-13T11:13:04.682Z</time></trkpt><trkpt lat="38.4921582" lon="-2.4084638"><ele>935.6666666666667</ele><time>2026-04-13T11:13:05.682Z</time></trkpt><trkpt lat="38.4920706" lon="-2.4082324"><ele>936.0</ele><time>2026-04-13T11:13:06.682Z</time></trkpt><trkpt lat="38.4919834" lon="-2.408001"><ele>936.0</ele><time>2026-04-13T11:13:07.682Z</time></trkpt><trkpt lat="38.4918968" lon="-2.4077721"><ele>936.0</ele><time>2026-04-13T11:13:08.682Z</time></trkpt><trkpt lat="38.4918077" lon="-2.4075462"><ele>936.0</ele><time>2026-04-13T11:13:09.682Z</time></trkpt><trkpt lat="38.4917175" lon="-2.4073165"><ele>935.6666666666667</ele><time>2026-04-13T11:13:10.682Z</time></trkpt><trkpt lat="38.4916234" lon="-2.4070861"><ele>935.3333333333334</ele><time>2026-04-13T11:13:11.682Z</time></trkpt><trkpt lat="38.4915293" lon="-2.4068483"><ele>935.0</ele><time>2026-04-13T11:13:12.682Z</time></trkpt><trkpt lat="38.4914355" lon="-2.406609"><ele>935.0</ele><time>2026-04-13T11:13:13.682Z</time></trkpt><trkpt lat="38.4913426" lon="-2.4063711"><ele>935.0</ele><time>2026-04-13T11:13:14.682Z</time></trkpt><trkpt lat="38.4912492" lon="-2.4061286"><ele>935.0</ele><time>2026-04-13T11:13:15.682Z</time></trkpt><trkpt lat="38.4911534" lon="-2.405881"><ele>934.6666666666667</ele><time>2026-04-13T11:13:16.682Z</time></trkpt><trkpt lat="38.4910596" lon="-2.4056315"><ele>934.3333333333333</ele><time>2026-04-13T11:13:17.682Z</time></trkpt><trkpt lat="38.4909632" lon="-2.4053815"><ele>934.0</ele><time>2026-04-13T11:13:18.682Z</time></trkpt><trkpt lat="38.4908642" lon="-2.4051283"><ele>934.3333333333333</ele><time>2026-04-13T11:13:19.682Z</time></trkpt><trkpt lat="38.4907673" lon="-2.4048838"><ele>934.6666666666667</ele><time>2026-04-13T11:13:20.682Z</time></trkpt><trkpt lat="38.4906753" lon="-2.4046444"><ele>935.0</ele><time>2026-04-13T11:13:21.682Z</time></trkpt><trkpt lat="38.4905857" lon="-2.4044069"><ele>935.0</ele><time>2026-04-13T11:13:22.682Z</time></trkpt><trkpt lat="38.4904919" lon="-2.404166"><ele>935.0</ele><time>2026-04-13T11:13:23.682Z</time></trkpt><trkpt lat="38.4903978" lon="-2.403922"><ele>935.0</ele><time>2026-04-13T11:13:24.682Z</time></trkpt><trkpt lat="38.4902993" lon="-2.4036772"><ele>934.0</ele><time>2026-04-13T11:13:25.682Z</time></trkpt><trkpt lat="38.4902003" lon="-2.4034264"><ele>933.0</ele><time>2026-04-13T11:13:26.682Z</time></trkpt><trkpt lat="38.4901016" lon="-2.4031728"><ele>932.0</ele><time>2026-04-13T11:13:27.682Z</time></trkpt><trkpt lat="38.4900049" lon="-2.4029201"><ele>931.6666666666667</ele><time>2026-04-13T11:13:28.682Z</time></trkpt><trkpt lat="38.4899017" lon="-2.402669"><ele>931.3333333333333</ele><time>2026-04-13T11:13:29.683Z</time></trkpt><trkpt lat="38.4898117" lon="-2.4024341"><ele>931.0</ele><time>2026-04-13T11:13:30.682Z</time></trkpt><trkpt lat="38.4897261" lon="-2.4022039"><ele>930.6666666666666</ele><time>2026-04-13T11:13:31.682Z</time></trkpt><trkpt lat="38.4896533" lon="-2.4019743"><ele>930.3333333333333</ele><time>2026-04-13T11:13:32.682Z</time></trkpt><trkpt lat="38.4895879" lon="-2.4017317"><ele>930.0</ele><time>2026-04-13T11:13:33.682Z</time></trkpt><trkpt lat="38.4895362" lon="-2.4014773"><ele>929.6666666666667</ele><time>2026-04-13T11:13:34.682Z</time></trkpt><trkpt lat="38.4895021" lon="-2.4012192"><ele>929.3333333333334</ele><time>2026-04-13T11:13:35.682Z</time></trkpt><trkpt lat="38.4894774" lon="-2.400953"><ele>929.0</ele><time>2026-04-13T11:13:36.682Z</time></trkpt><trkpt lat="38.4894685" lon="-2.4006843"><ele>929.0</ele><time>2026-04-13T11:13:37.682Z</time></trkpt><trkpt lat="38.4894798" lon="-2.4004141"><ele>929.0</ele><time>2026-04-13T11:13:38.682Z</time></trkpt><trkpt lat="38.4895011" lon="-2.4001433"><ele>929.0</ele><time>2026-04-13T11:13:39.682Z</time></trkpt><trkpt lat="38.489521" lon="-2.3998821"><ele>929.3333333333334</ele><time>2026-04-13T11:13:40.682Z</time></trkpt><trkpt lat="38.4895406" lon="-2.3996139"><ele>929.6666666666667</ele><time>2026-04-13T11:13:41.682Z</time></trkpt><trkpt lat="38.4895591" lon="-2.3993466"><ele>930.0</ele><time>2026-04-13T11:13:42.682Z</time></trkpt><trkpt lat="38.4895768" lon="-2.3990896"><ele>929.6666666666667</ele><time>2026-04-13T11:13:43.682Z</time></trkpt><trkpt lat="38.4895936" lon="-2.3988335"><ele>929.3333333333334</ele><time>2026-04-13T11:13:44.682Z</time></trkpt><trkpt lat="38.48959" lon="-2.3985907"><ele>929.0</ele><time>2026-04-13T11:13:45.682Z</time></trkpt><trkpt lat="38.4895487" lon="-2.3983693"><ele>929.6666666666667</ele><time>2026-04-13T11:13:46.682Z</time></trkpt><trkpt lat="38.4894848" lon="-2.3981697"><ele>930.3333333333333</ele><time>2026-04-13T11:13:47.682Z</time></trkpt><trkpt lat="38.4893626" lon="-2.3980062"><ele>931.0</ele><time>2026-04-13T11:13:48.682Z</time></trkpt><trkpt lat="38.4892231" lon="-2.3978828"><ele>932.0</ele><time>2026-04-13T11:13:49.682Z</time></trkpt><trkpt lat="38.4890585" lon="-2.397793"><ele>933.0</ele><time>2026-04-13T11:13:50.682Z</time></trkpt><trkpt lat="38.4888832" lon="-2.3977292"><ele>934.0</ele><time>2026-04-13T11:13:51.682Z</time></trkpt><trkpt lat="38.4887001" lon="-2.3976649"><ele>934.0</ele><time>2026-04-13T11:13:52.682Z</time></trkpt><trkpt lat="38.488515" lon="-2.3975945"><ele>934.0</ele><time>2026-04-13T11:13:53.683Z</time></trkpt><trkpt lat="38.488336" lon="-2.397515"><ele>934.0</ele><time>2026-04-13T11:13:54.682Z</time></trkpt><trkpt lat="38.4880919" lon="-2.3973515"><ele>932.5</ele><time>2026-04-13T11:13:56.612Z</time></trkpt><trkpt lat="38.4878339" lon="-2.3971359"><ele>931.0</ele><time>2026-04-13T11:13:57.678Z</time></trkpt><trkpt lat="38.4876843" lon="-2.396964"><ele>931.0</ele><time>2026-04-13T11:13:58.681Z</time></trkpt><trkpt lat="38.4875475" lon="-2.3967719"><ele>931.0</ele><time>2026-04-13T11:13:59.683Z</time></trkpt><trkpt lat="38.4874166" lon="-2.3965685"><ele>931.0</ele><time>2026-04-13T11:14:00.675Z</time></trkpt><trkpt lat="38.4872906" lon="-2.3963622"><ele>931.0</ele><time>2026-04-13T11:14:01.678Z</time></trkpt><trkpt lat="38.4871673" lon="-2.3961617"><ele>931.0</ele><time>2026-04-13T11:14:02.679Z</time></trkpt><trkpt lat="38.4870485" lon="-2.3959599"><ele>931.0</ele><time>2026-04-13T11:14:03.678Z</time></trkpt><trkpt lat="38.4869363" lon="-2.3957563"><ele>931.0</ele><time>2026-04-13T11:14:04.678Z</time></trkpt><trkpt lat="38.4868344" lon="-2.3955392"><ele>931.0</ele><time>2026-04-13T11:14:05.678Z</time></trkpt><trkpt lat="38.4867426" lon="-2.3953177"><ele>931.0</ele><time>2026-04-13T11:14:06.678Z</time></trkpt><trkpt lat="38.4866555" lon="-2.3950834"><ele>930.6666666666666</ele><time>2026-04-13T11:14:07.678Z</time></trkpt><trkpt lat="38.4865769" lon="-2.3948431"><ele>930.3333333333333</ele><time>2026-04-13T11:14:08.678Z</time></trkpt><trkpt lat="38.4864991" lon="-2.3945949"><ele>930.0</ele><time>2026-04-13T11:14:09.679Z</time></trkpt><trkpt lat="38.4864272" lon="-2.3943465"><ele>930.0</ele><time>2026-04-13T11:14:10.678Z</time></trkpt><trkpt lat="38.4863562" lon="-2.3940907"><ele>930.0</ele><time>2026-04-13T11:14:11.678Z</time></trkpt><trkpt lat="38.4862856" lon="-2.393834"><ele>930.0</ele><time>2026-04-13T11:14:12.679Z</time></trkpt><trkpt lat="38.4862167" lon="-2.3935747"><ele>930.0</ele><time>2026-04-13T11:14:13.678Z</time></trkpt><trkpt lat="38.4861476" lon="-2.3933136"><ele>930.0</ele><time>2026-04-13T11:14:14.678Z</time></trkpt><trkpt lat="38.4860765" lon="-2.393053"><ele>930.0</ele><time>2026-04-13T11:14:15.679Z</time></trkpt><trkpt lat="38.486005" lon="-2.3927897"><ele>930.3333333333333</ele><time>2026-04-13T11:14:16.678Z</time></trkpt><trkpt lat="38.4859365" lon="-2.3925216"><ele>930.6666666666666</ele><time>2026-04-13T11:14:17.678Z</time></trkpt><trkpt lat="38.4858682" lon="-2.3922549"><ele>931.0</ele><time>2026-04-13T11:14:18.678Z</time></trkpt><trkpt lat="38.4858016" lon="-2.3919867"><ele>931.3333333333333</ele><time>2026-04-13T11:14:19.678Z</time></trkpt><trkpt lat="38.4857364" lon="-2.3917102"><ele>931.6666666666667</ele><time>2026-04-13T11:14:20.678Z</time></trkpt><trkpt lat="38.4856777" lon="-2.3914376"><ele>932.0</ele><time>2026-04-13T11:14:21.678Z</time></trkpt><trkpt lat="38.4856196" lon="-2.3911673"><ele>936.3333333333334</ele><time>2026-04-13T11:14:22.678Z</time></trkpt><trkpt lat="38.4855653" lon="-2.3908913"><ele>940.6666666666667</ele><time>2026-04-13T11:14:23.678Z</time></trkpt><trkpt lat="38.4855145" lon="-2.3906141"><ele>945.0</ele><time>2026-04-13T11:14:24.678Z</time></trkpt><trkpt lat="38.4854672" lon="-2.3903383"><ele>940.3333333333333</ele><time>2026-04-13T11:14:25.678Z</time></trkpt><trkpt lat="38.4854248" lon="-2.3900657"><ele>935.6666666666666</ele><time>2026-04-13T11:14:26.678Z</time></trkpt><trkpt lat="38.4853836" lon="-2.389798"><ele>931.0</ele><time>2026-04-13T11:14:27.678Z</time></trkpt><trkpt lat="38.4853449" lon="-2.3895383"><ele>930.6666666666666</ele><time>2026-04-13T11:14:28.678Z</time></trkpt><trkpt lat="38.4853129" lon="-2.3892834"><ele>930.3333333333333</ele><time>2026-04-13T11:14:29.679Z</time></trkpt><trkpt lat="38.4853063" lon="-2.3890304"><ele>930.0</ele><time>2026-04-13T11:14:30.678Z</time></trkpt><trkpt lat="38.4853276" lon="-2.3887778"><ele>929.6666666666667</ele><time>2026-04-13T11:14:31.678Z</time></trkpt><trkpt lat="38.4853738" lon="-2.3885293"><ele>929.3333333333334</ele><time>2026-04-13T11:14:32.678Z</time></trkpt><trkpt lat="38.4854311" lon="-2.388286"><ele>929.0</ele><time>2026-04-13T11:14:33.678Z</time></trkpt><trkpt lat="38.4854823" lon="-2.3880443"><ele>934.0</ele><time>2026-04-13T11:14:34.679Z</time></trkpt><trkpt lat="38.4855226" lon="-2.3878148"><ele>939.0</ele><time>2026-04-13T11:14:35.678Z</time></trkpt><trkpt lat="38.4855476" lon="-2.387581"><ele>944.0</ele><time>2026-04-13T11:14:36.678Z</time></trkpt><trkpt lat="38.4855361" lon="-2.3873429"><ele>943.0</ele><time>2026-04-13T11:14:37.678Z</time></trkpt><trkpt lat="38.4854963" lon="-2.3871013"><ele>942.0</ele><time>2026-04-13T11:14:38.678Z</time></trkpt><trkpt lat="38.4854376" lon="-2.3868563"><ele>941.0</ele><time>2026-04-13T11:14:39.678Z</time></trkpt><trkpt lat="38.4853818" lon="-2.3866003"><ele>937.0</ele><time>2026-04-13T11:14:40.678Z</time></trkpt><trkpt lat="38.4853385" lon="-2.3863385"><ele>933.0</ele><time>2026-04-13T11:14:41.678Z</time></trkpt><trkpt lat="38.4853047" lon="-2.3860662"><ele>929.0</ele><time>2026-04-13T11:14:42.678Z</time></trkpt><trkpt lat="38.485276" lon="-2.3857824"><ele>928.0</ele><time>2026-04-13T11:14:43.678Z</time></trkpt><trkpt lat="38.4852515" lon="-2.3854944"><ele>927.0</ele><time>2026-04-13T11:14:44.679Z</time></trkpt><trkpt lat="38.4852272" lon="-2.3852082"><ele>927.0</ele><time>2026-04-13T11:14:45.678Z</time></trkpt><trkpt lat="38.4852034" lon="-2.3849245"><ele>927.0</ele><time>2026-04-13T11:14:46.678Z</time></trkpt><trkpt lat="38.4851783" lon="-2.3846429"><ele>927.0</ele><time>2026-04-13T11:14:47.678Z</time></trkpt><trkpt lat="38.485155" lon="-2.3843688"><ele>927.3333333333333</ele><time>2026-04-13T11:14:48.678Z</time></trkpt><trkpt lat="38.4851254" lon="-2.3841118"><ele>927.6666666666666</ele><time>2026-04-13T11:14:49.678Z</time></trkpt><trkpt lat="38.4850853" lon="-2.3838634"><ele>928.0</ele><time>2026-04-13T11:14:50.678Z</time></trkpt><trkpt lat="38.4850345" lon="-2.3836183"><ele>929.3333333333333</ele><time>2026-04-13T11:14:51.678Z</time></trkpt><trkpt lat="38.4849793" lon="-2.3833725"><ele>930.6666666666667</ele><time>2026-04-13T11:14:52.678Z</time></trkpt><trkpt lat="38.4849319" lon="-2.3831231"><ele>932.0</ele><time>2026-04-13T11:14:53.678Z</time></trkpt><trkpt lat="38.4848966" lon="-2.3828671"><ele>931.6666666666667</ele><time>2026-04-13T11:14:54.678Z</time></trkpt><trkpt lat="38.4848749" lon="-2.3826049"><ele>931.3333333333333</ele><time>2026-04-13T11:14:55.678Z</time></trkpt><trkpt lat="38.4848692" lon="-2.3823376"><ele>931.0</ele><time>2026-04-13T11:14:56.678Z</time></trkpt><trkpt lat="38.4848782" lon="-2.3820646"><ele>931.0</ele><time>2026-04-13T11:14:57.678Z</time></trkpt><trkpt lat="38.4849049" lon="-2.3817921"><ele>931.0</ele><time>2026-04-13T11:14:58.678Z</time></trkpt><trkpt lat="38.4849446" lon="-2.3815221"><ele>931.0</ele><time>2026-04-13T11:14:59.678Z</time></trkpt><trkpt lat="38.4850086" lon="-2.3812593"><ele>929.6666666666666</ele><time>2026-04-13T11:15:00.678Z</time></trkpt><trkpt lat="38.4850822" lon="-2.3809941"><ele>928.3333333333333</ele><time>2026-04-13T11:15:01.678Z</time></trkpt><trkpt lat="38.4851567" lon="-2.3807295"><ele>927.0</ele><time>2026-04-13T11:15:02.678Z</time></trkpt><trkpt lat="38.4852297" lon="-2.3804698"><ele>926.0</ele><time>2026-04-13T11:15:03.678Z</time></trkpt><trkpt lat="38.4853003" lon="-2.3802149"><ele>925.0</ele><time>2026-04-13T11:15:04.678Z</time></trkpt><trkpt lat="38.4853628" lon="-2.3799721"><ele>924.0</ele><time>2026-04-13T11:15:05.678Z</time></trkpt><trkpt lat="38.4854106" lon="-2.3797439"><ele>927.0</ele><time>2026-04-13T11:15:06.678Z</time></trkpt><trkpt lat="38.4854425" lon="-2.3795321"><ele>930.0</ele><time>2026-04-13T11:15:07.678Z</time></trkpt><trkpt lat="38.4854648" lon="-2.3793383"><ele>933.0</ele><time>2026-04-13T11:15:08.679Z</time></trkpt><trkpt lat="38.4854731" lon="-2.3791456"><ele>933.0</ele><time>2026-04-13T11:15:09.678Z</time></trkpt><trkpt lat="38.4854725" lon="-2.3789579"><ele>933.0</ele><time>2026-04-13T11:15:10.678Z</time></trkpt><trkpt lat="38.4854609" lon="-2.3787707"><ele>933.0</ele><time>2026-04-13T11:15:11.678Z</time></trkpt><trkpt lat="38.4854386" lon="-2.3785844"><ele>933.0</ele><time>2026-04-13T11:15:12.678Z</time></trkpt><trkpt lat="38.4854074" lon="-2.3784009"><ele>929.3333333333333</ele><time>2026-04-13T11:15:13.678Z</time></trkpt><trkpt lat="38.4853708" lon="-2.3782184"><ele>925.6666666666666</ele><time>2026-04-13T11:15:14.678Z</time></trkpt><trkpt lat="38.4853215" lon="-2.3780363"><ele>922.0</ele><time>2026-04-13T11:15:15.678Z</time></trkpt><trkpt lat="38.485262" lon="-2.3778557"><ele>921.5</ele><time>2026-04-13T11:15:16.678Z</time></trkpt><trkpt lat="38.4851908" lon="-2.3776845"><ele>921.0</ele><time>2026-04-13T11:15:17.678Z</time></trkpt><trkpt lat="38.4851237" lon="-2.3775314"><ele>920.5</ele><time>2026-04-13T11:15:18.678Z</time></trkpt><trkpt lat="38.4850598" lon="-2.3773931"><ele>920.0</ele><time>2026-04-13T11:15:19.678Z</time></trkpt><trkpt lat="38.4849974" lon="-2.3772525"><ele>922.5</ele><time>2026-04-13T11:15:20.678Z</time></trkpt><trkpt lat="38.4849323" lon="-2.3771039"><ele>925.0</ele><time>2026-04-13T11:15:21.678Z</time></trkpt><trkpt lat="38.4848683" lon="-2.3769549"><ele>927.5</ele><time>2026-04-13T11:15:22.678Z</time></trkpt><trkpt lat="38.4848055" lon="-2.3767979"><ele>930.0</ele><time>2026-04-13T11:15:23.678Z</time></trkpt><trkpt lat="38.4847457" lon="-2.3766365"><ele>930.0</ele><time>2026-04-13T11:15:24.678Z</time></trkpt><trkpt lat="38.4846918" lon="-2.3764682"><ele>930.0</ele><time>2026-04-13T11:15:25.678Z</time></trkpt><trkpt lat="38.4846462" lon="-2.3762975"><ele>930.0</ele><time>2026-04-13T11:15:26.678Z</time></trkpt><trkpt lat="38.4846062" lon="-2.3761214"><ele>930.0</ele><time>2026-04-13T11:15:27.678Z</time></trkpt><trkpt lat="38.4845736" lon="-2.3759482"><ele>925.75</ele><time>2026-04-13T11:15:28.678Z</time></trkpt><trkpt lat="38.4845442" lon="-2.3757744"><ele>921.5</ele><time>2026-04-13T11:15:29.678Z</time></trkpt><trkpt lat="38.484517" lon="-2.3756036"><ele>917.25</ele><time>2026-04-13T11:15:30.679Z</time></trkpt><trkpt lat="38.4844909" lon="-2.3754382"><ele>913.0</ele><time>2026-04-13T11:15:31.678Z</time></trkpt><trkpt lat="38.4844657" lon="-2.3752782"><ele>912.75</ele><time>2026-04-13T11:15:32.678Z</time></trkpt><trkpt lat="38.4844387" lon="-2.3751198"><ele>912.5</ele><time>2026-04-13T11:15:33.678Z</time></trkpt><trkpt lat="38.4844146" lon="-2.3749653"><ele>912.25</ele><time>2026-04-13T11:15:34.678Z</time></trkpt><trkpt lat="38.4843919" lon="-2.3748161"><ele>912.0</ele><time>2026-04-13T11:15:35.678Z</time></trkpt><trkpt lat="38.4843655" lon="-2.3746666"><ele>912.0</ele><time>2026-04-13T11:15:36.679Z</time></trkpt><trkpt lat="38.4843413" lon="-2.3745195"><ele>912.0</ele><time>2026-04-13T11:15:37.678Z</time></trkpt><trkpt lat="38.4843172" lon="-2.3743718"><ele>912.0</ele><time>2026-04-13T11:15:38.678Z</time></trkpt><trkpt lat="38.4842937" lon="-2.3742193"><ele>912.0</ele><time>2026-04-13T11:15:39.678Z</time></trkpt><trkpt lat="38.4842741" lon="-2.3740591"><ele>912.0</ele><time>2026-04-13T11:15:40.678Z</time></trkpt><trkpt lat="38.4842557" lon="-2.3738878"><ele>912.0</ele><time>2026-04-13T11:15:41.678Z</time></trkpt><trkpt lat="38.4842391" lon="-2.3737062"><ele>912.0</ele><time>2026-04-13T11:15:42.678Z</time></trkpt><trkpt lat="38.4842239" lon="-2.3735163"><ele>912.0</ele><time>2026-04-13T11:15:43.678Z</time></trkpt><trkpt lat="38.484211" lon="-2.3733247"><ele>912.75</ele><time>2026-04-13T11:15:44.678Z</time></trkpt><trkpt lat="38.4842046" lon="-2.3731372"><ele>913.5</ele><time>2026-04-13T11:15:45.678Z</time></trkpt><trkpt lat="38.4842018" lon="-2.3729552"><ele>914.25</ele><time>2026-04-13T11:15:46.678Z</time></trkpt><trkpt lat="38.4841982" lon="-2.3727664"><ele>915.0</ele><time>2026-04-13T11:15:47.678Z</time></trkpt><trkpt lat="38.4841968" lon="-2.3725718"><ele>915.3333333333333</ele><time>2026-04-13T11:15:48.678Z</time></trkpt><trkpt lat="38.4841951" lon="-2.3723695"><ele>915.6666666666666</ele><time>2026-04-13T11:15:49.678Z</time></trkpt><trkpt lat="38.4841926" lon="-2.3721628"><ele>916.0</ele><time>2026-04-13T11:15:50.678Z</time></trkpt><trkpt lat="38.4841918" lon="-2.3719517"><ele>916.0</ele><time>2026-04-13T11:15:51.678Z</time></trkpt><trkpt lat="38.4841912" lon="-2.3717369"><ele>916.0</ele><time>2026-04-13T11:15:52.678Z</time></trkpt><trkpt lat="38.4841892" lon="-2.3715153"><ele>916.0</ele><time>2026-04-13T11:15:53.678Z</time></trkpt><trkpt lat="38.4841858" lon="-2.3712926"><ele>914.3333333333333</ele><time>2026-04-13T11:15:54.678Z</time></trkpt><trkpt lat="38.4841824" lon="-2.3710718"><ele>912.6666666666667</ele><time>2026-04-13T11:15:55.678Z</time></trkpt><trkpt lat="38.4841798" lon="-2.3708499"><ele>911.0</ele><time>2026-04-13T11:15:56.678Z</time></trkpt><trkpt lat="38.4841761" lon="-2.3706289"><ele>912.0</ele><time>2026-04-13T11:15:57.678Z</time></trkpt><trkpt lat="38.4841677" lon="-2.3704111"><ele>913.0</ele><time>2026-04-13T11:15:58.678Z</time></trkpt><trkpt lat="38.4841568" lon="-2.370202"><ele>914.0</ele><time>2026-04-13T11:15:59.678Z</time></trkpt><trkpt lat="38.4841373" lon="-2.3699956"><ele>914.0</ele><time>2026-04-13T11:16:00.678Z</time></trkpt><trkpt lat="38.4841131" lon="-2.3697947"><ele>914.0</ele><time>2026-04-13T11:16:01.678Z</time></trkpt><trkpt lat="38.4840878" lon="-2.369598"><ele>914.0</ele><time>2026-04-13T11:16:02.678Z</time></trkpt><trkpt lat="38.4840557" lon="-2.3694112"><ele>915.25</ele><time>2026-04-13T11:16:03.678Z</time></trkpt><trkpt lat="38.4840226" lon="-2.3692281"><ele>916.5</ele><time>2026-04-13T11:16:04.678Z</time></trkpt><trkpt lat="38.483986" lon="-2.3690561"><ele>917.75</ele><time>2026-04-13T11:16:05.678Z</time></trkpt><trkpt lat="38.4839497" lon="-2.3688875"><ele>919.0</ele><time>2026-04-13T11:16:06.678Z</time></trkpt><trkpt lat="38.4839131" lon="-2.3687253"><ele>919.0</ele><time>2026-04-13T11:16:07.678Z</time></trkpt><trkpt lat="38.4838802" lon="-2.3685704"><ele>919.0</ele><time>2026-04-13T11:16:08.678Z</time></trkpt><trkpt lat="38.4838501" lon="-2.3684075"><ele>919.0</ele><time>2026-04-13T11:16:09.678Z</time></trkpt><trkpt lat="38.4838293" lon="-2.3682057"><ele>919.0</ele><time>2026-04-13T11:16:10.678Z</time></trkpt><trkpt lat="38.4838351" lon="-2.3680123"><ele>915.6666666666666</ele><time>2026-04-13T11:16:11.678Z</time></trkpt><trkpt lat="38.4838735" lon="-2.3678202"><ele>912.3333333333333</ele><time>2026-04-13T11:16:12.678Z</time></trkpt><trkpt lat="38.4839329" lon="-2.3676378"><ele>909.0</ele><time>2026-04-13T11:16:13.678Z</time></trkpt><trkpt lat="38.4840203" lon="-2.3674707"><ele>909.0</ele><time>2026-04-13T11:16:14.678Z</time></trkpt><trkpt lat="38.4841208" lon="-2.367299"><ele>909.0</ele><time>2026-04-13T11:16:15.678Z</time></trkpt><trkpt lat="38.4842208" lon="-2.3671245"><ele>909.0</ele><time>2026-04-13T11:16:16.678Z</time></trkpt><trkpt lat="38.4843181" lon="-2.3669419"><ele>908.3333333333333</ele><time>2026-04-13T11:16:17.678Z</time></trkpt><trkpt lat="38.4844032" lon="-2.3667411"><ele>907.6666666666666</ele><time>2026-04-13T11:16:18.678Z</time></trkpt><trkpt lat="38.4844676" lon="-2.3665333"><ele>907.0</ele><time>2026-04-13T11:16:19.678Z</time></trkpt><trkpt lat="38.4845069" lon="-2.366311"><ele>907.0</ele><time>2026-04-13T11:16:20.678Z</time></trkpt><trkpt lat="38.4845293" lon="-2.3660765"><ele>907.0</ele><time>2026-04-13T11:16:21.679Z</time></trkpt><trkpt lat="38.4845342" lon="-2.3658315"><ele>907.0</ele><time>2026-04-13T11:16:22.678Z</time></trkpt><trkpt lat="38.4845211" lon="-2.365581"><ele>906.6666666666666</ele><time>2026-04-13T11:16:23.678Z</time></trkpt><trkpt lat="38.4844901" lon="-2.3653244"><ele>906.3333333333333</ele><time>2026-04-13T11:16:24.678Z</time></trkpt><trkpt lat="38.4844435" lon="-2.3650634"><ele>906.0</ele><time>2026-04-13T11:16:25.678Z</time></trkpt><trkpt lat="38.4843919" lon="-2.3647967"><ele>906.3333333333333</ele><time>2026-04-13T11:16:26.678Z</time></trkpt><trkpt lat="38.4843324" lon="-2.3645214"><ele>906.6666666666666</ele><time>2026-04-13T11:16:27.678Z</time></trkpt><trkpt lat="38.4842741" lon="-2.364243"><ele>907.0</ele><time>2026-04-13T11:16:28.678Z</time></trkpt><trkpt lat="38.4842151" lon="-2.3639622"><ele>908.0</ele><time>2026-04-13T11:16:29.679Z</time></trkpt><trkpt lat="38.4841586" lon="-2.363679"><ele>909.0</ele><time>2026-04-13T11:16:30.678Z</time></trkpt><trkpt lat="38.4841019" lon="-2.3633922"><ele>909.0</ele><time>2026-04-13T11:16:31.678Z</time></trkpt><trkpt lat="38.4840437" lon="-2.3631069"><ele>909.0</ele><time>2026-04-13T11:16:32.678Z</time></trkpt><trkpt lat="38.4839749" lon="-2.3628299"><ele>909.5</ele><time>2026-04-13T11:16:33.678Z</time></trkpt><trkpt lat="38.4839026" lon="-2.3625546"><ele>910.0</ele><time>2026-04-13T11:16:34.678Z</time></trkpt><trkpt lat="38.4838261" lon="-2.3622839"><ele>909.0</ele><time>2026-04-13T11:16:35.678Z</time></trkpt><trkpt lat="38.4837429" lon="-2.3620235"><ele>908.0</ele><time>2026-04-13T11:16:36.678Z</time></trkpt><trkpt lat="38.4836622" lon="-2.3617683"><ele>907.0</ele><time>2026-04-13T11:16:37.678Z</time></trkpt><trkpt lat="38.4835809" lon="-2.3615163"><ele>907.3333333333333</ele><time>2026-04-13T11:16:38.678Z</time></trkpt><trkpt lat="38.4835005" lon="-2.3612673"><ele>907.6666666666667</ele><time>2026-04-13T11:16:39.678Z</time></trkpt><trkpt lat="38.4834224" lon="-2.3610259"><ele>908.0</ele><time>2026-04-13T11:16:40.678Z</time></trkpt><trkpt lat="38.4833482" lon="-2.3607899"><ele>908.0</ele><time>2026-04-13T11:16:41.678Z</time></trkpt><trkpt lat="38.4832752" lon="-2.3605598"><ele>908.0</ele><time>2026-04-13T11:16:42.679Z</time></trkpt><trkpt lat="38.4832088" lon="-2.3603412"><ele>908.0</ele><time>2026-04-13T11:16:43.678Z</time></trkpt><trkpt lat="38.4831499" lon="-2.3601208"><ele>908.0</ele><time>2026-04-13T11:16:44.678Z</time></trkpt><trkpt lat="38.4831053" lon="-2.3598903"><ele>908.0</ele><time>2026-04-13T11:16:45.678Z</time></trkpt><trkpt lat="38.4830893" lon="-2.3596532"><ele>908.0</ele><time>2026-04-13T11:16:46.678Z</time></trkpt><trkpt lat="38.483104" lon="-2.3594121"><ele>908.0</ele><time>2026-04-13T11:16:47.678Z</time></trkpt><trkpt lat="38.4831478" lon="-2.3591775"><ele>908.0</ele><time>2026-04-13T11:16:48.678Z</time></trkpt><trkpt lat="38.4832193" lon="-2.3589472"><ele>908.0</ele><time>2026-04-13T11:16:49.679Z</time></trkpt><trkpt lat="38.483312" lon="-2.3587249"><ele>912.6666666666667</ele><time>2026-04-13T11:16:50.678Z</time></trkpt><trkpt lat="38.4834255" lon="-2.3585079"><ele>917.3333333333333</ele><time>2026-04-13T11:16:51.678Z</time></trkpt><trkpt lat="38.4835433" lon="-2.3583026"><ele>922.0</ele><time>2026-04-13T11:16:52.678Z</time></trkpt><trkpt lat="38.4836682" lon="-2.3580979"><ele>918.0</ele><time>2026-04-13T11:16:53.678Z</time></trkpt><trkpt lat="38.4838157" lon="-2.3579048"><ele>914.0</ele><time>2026-04-13T11:16:54.678Z</time></trkpt><trkpt lat="38.4839662" lon="-2.3577331"><ele>910.0</ele><time>2026-04-13T11:16:55.678Z</time></trkpt><trkpt lat="38.4841203" lon="-2.3575565"><ele>910.0</ele><time>2026-04-13T11:16:56.678Z</time></trkpt><trkpt lat="38.4842673" lon="-2.3573667"><ele>910.0</ele><time>2026-04-13T11:16:57.679Z</time></trkpt><trkpt lat="38.4843974" lon="-2.3571513"><ele>910.0</ele><time>2026-04-13T11:16:58.678Z</time></trkpt><trkpt lat="38.4845122" lon="-2.35691"><ele>904.5</ele><time>2026-04-13T11:16:59.678Z</time></trkpt><trkpt lat="38.4846204" lon="-2.3566533"><ele>899.0</ele><time>2026-04-13T11:17:00.678Z</time></trkpt><trkpt lat="38.4847287" lon="-2.3563916"><ele>902.5</ele><time>2026-04-13T11:17:01.678Z</time></trkpt><trkpt lat="38.4848397" lon="-2.3561282"><ele>906.0</ele><time>2026-04-13T11:17:02.678Z</time></trkpt><trkpt lat="38.484934" lon="-2.3558585"><ele>906.0</ele><time>2026-04-13T11:17:03.678Z</time></trkpt><trkpt lat="38.4850138" lon="-2.3555762"><ele>906.0</ele><time>2026-04-13T11:17:04.678Z</time></trkpt><trkpt lat="38.485079" lon="-2.3552884"><ele>906.6666666666667</ele><time>2026-04-13T11:17:05.678Z</time></trkpt><trkpt lat="38.4851275" lon="-2.3550183"><ele>907.3333333333334</ele><time>2026-04-13T11:17:06.678Z</time></trkpt><trkpt lat="38.485155" lon="-2.3547827"><ele>908.0</ele><time>2026-04-13T11:17:07.678Z</time></trkpt><trkpt lat="38.4851546" lon="-2.3545539"><ele>908.0</ele><time>2026-04-13T11:17:08.678Z</time></trkpt><trkpt lat="38.4851214" lon="-2.3543335"><ele>908.0</ele><time>2026-04-13T11:17:09.678Z</time></trkpt><trkpt lat="38.4850525" lon="-2.3541184"><ele>908.0</ele><time>2026-04-13T11:17:10.678Z</time></trkpt><trkpt lat="38.4849548" lon="-2.3539157"><ele>906.0</ele><time>2026-04-13T11:17:11.678Z</time></trkpt><trkpt lat="38.4848286" lon="-2.3537335"><ele>904.0</ele><time>2026-04-13T11:17:12.678Z</time></trkpt><trkpt lat="38.4846939" lon="-2.3535677"><ele>902.0</ele><time>2026-04-13T11:17:13.678Z</time></trkpt><trkpt lat="38.4845679" lon="-2.3533852"><ele>905.3333333333334</ele><time>2026-04-13T11:17:14.678Z</time></trkpt><trkpt lat="38.4844753" lon="-2.3531726"><ele>908.6666666666667</ele><time>2026-04-13T11:17:15.678Z</time></trkpt><trkpt lat="38.4844009" lon="-2.352939"><ele>912.0</ele><time>2026-04-13T11:17:16.678Z</time></trkpt><trkpt lat="38.4843298" lon="-2.3526969"><ele>912.0</ele><time>2026-04-13T11:17:17.678Z</time></trkpt><trkpt lat="38.4842615" lon="-2.3524514"><ele>912.0</ele><time>2026-04-13T11:17:18.678Z</time></trkpt><trkpt lat="38.4841979" lon="-2.3522143"><ele>912.0</ele><time>2026-04-13T11:17:19.678Z</time></trkpt><trkpt lat="38.484134" lon="-2.3519789"><ele>910.6666666666667</ele><time>2026-04-13T11:17:20.678Z</time></trkpt><trkpt lat="38.48408" lon="-2.3517294"><ele>909.3333333333334</ele><time>2026-04-13T11:17:21.679Z</time></trkpt><trkpt lat="38.484045" lon="-2.351471"><ele>908.0</ele><time>2026-04-13T11:17:22.678Z</time></trkpt><trkpt lat="38.4840433" lon="-2.3512075"><ele>907.3333333333334</ele><time>2026-04-13T11:17:23.678Z</time></trkpt><trkpt lat="38.4840652" lon="-2.3509366"><ele>906.6666666666667</ele><time>2026-04-13T11:17:24.678Z</time></trkpt><trkpt lat="38.4841046" lon="-2.3506594"><ele>906.0</ele><time>2026-04-13T11:17:25.678Z</time></trkpt><trkpt lat="38.484145" lon="-2.3503818"><ele>908.3333333333333</ele><time>2026-04-13T11:17:26.678Z</time></trkpt><trkpt lat="38.4841897" lon="-2.3501051"><ele>910.6666666666666</ele><time>2026-04-13T11:17:27.678Z</time></trkpt><trkpt lat="38.4842338" lon="-2.34983"><ele>913.0</ele><time>2026-04-13T11:17:28.678Z</time></trkpt><trkpt lat="38.4842747" lon="-2.3495598"><ele>913.0</ele><time>2026-04-13T11:17:29.678Z</time></trkpt><trkpt lat="38.4843167" lon="-2.3492975"><ele>913.0</ele><time>2026-04-13T11:17:30.678Z</time></trkpt><trkpt lat="38.4843571" lon="-2.3490503"><ele>913.0</ele><time>2026-04-13T11:17:31.678Z</time></trkpt><trkpt lat="38.4843957" lon="-2.348818"><ele>910.0</ele><time>2026-04-13T11:17:32.678Z</time></trkpt><trkpt lat="38.4844325" lon="-2.3486001"><ele>907.0</ele><time>2026-04-13T11:17:33.678Z</time></trkpt><trkpt lat="38.4844687" lon="-2.3483873"><ele>904.0</ele><time>2026-04-13T11:17:34.678Z</time></trkpt><trkpt lat="38.484521" lon="-2.3481884"><ele>909.0</ele><time>2026-04-13T11:17:35.678Z</time></trkpt><trkpt lat="38.4845933" lon="-2.3479968"><ele>914.0</ele><time>2026-04-13T11:17:36.678Z</time></trkpt><trkpt lat="38.484705" lon="-2.347842"><ele>919.0</ele><time>2026-04-13T11:17:37.678Z</time></trkpt><trkpt lat="38.4848379" lon="-2.3477163"><ele>919.0</ele><time>2026-04-13T11:17:38.679Z</time></trkpt><trkpt lat="38.4849932" lon="-2.3476342"><ele>919.0</ele><time>2026-04-13T11:17:39.678Z</time></trkpt><trkpt lat="38.4851629" lon="-2.3475955"><ele>919.0</ele><time>2026-04-13T11:17:40.678Z</time></trkpt><trkpt lat="38.4853373" lon="-2.3476006"><ele>920.0</ele><time>2026-04-13T11:17:41.678Z</time></trkpt><trkpt lat="38.4855074" lon="-2.3476275"><ele>921.0</ele><time>2026-04-13T11:17:42.678Z</time></trkpt><trkpt lat="38.4856761" lon="-2.3476619"><ele>922.0</ele><time>2026-04-13T11:17:43.678Z</time></trkpt><trkpt lat="38.4858432" lon="-2.3476895"><ele>922.0</ele><time>2026-04-13T11:17:44.678Z</time></trkpt><trkpt lat="38.4860045" lon="-2.3476904"><ele>922.0</ele><time>2026-04-13T11:17:45.678Z</time></trkpt><trkpt lat="38.4861511" lon="-2.3476511"><ele>922.0</ele><time>2026-04-13T11:17:46.678Z</time></trkpt><trkpt lat="38.4862882" lon="-2.3475697"><ele>920.6666666666666</ele><time>2026-04-13T11:17:47.678Z</time></trkpt><trkpt lat="38.4864113" lon="-2.3474536"><ele>919.3333333333333</ele><time>2026-04-13T11:17:48.678Z</time></trkpt><trkpt lat="38.4865024" lon="-2.3472869"><ele>918.0</ele><time>2026-04-13T11:17:49.678Z</time></trkpt><trkpt lat="38.4865591" lon="-2.3470941"><ele>920.6666666666667</ele><time>2026-04-13T11:17:50.678Z</time></trkpt><trkpt lat="38.4865833" lon="-2.3468872"><ele>923.3333333333334</ele><time>2026-04-13T11:17:51.678Z</time></trkpt><trkpt lat="38.4865812" lon="-2.3466716"><ele>926.0</ele><time>2026-04-13T11:17:52.679Z</time></trkpt><trkpt lat="38.4865722" lon="-2.3464536"><ele>927.3333333333334</ele><time>2026-04-13T11:17:53.678Z</time></trkpt><trkpt lat="38.4865641" lon="-2.3462303"><ele>928.6666666666667</ele><time>2026-04-13T11:17:54.678Z</time></trkpt><trkpt lat="38.4865511" lon="-2.3460045"><ele>930.0</ele><time>2026-04-13T11:17:55.678Z</time></trkpt><trkpt lat="38.486541" lon="-2.3457749"><ele>930.3333333333333</ele><time>2026-04-13T11:17:56.678Z</time></trkpt><trkpt lat="38.4865314" lon="-2.3455401"><ele>930.6666666666666</ele><time>2026-04-13T11:17:57.678Z</time></trkpt><trkpt lat="38.4865186" lon="-2.3453012"><ele>931.0</ele><time>2026-04-13T11:17:58.678Z</time></trkpt><trkpt lat="38.4865064" lon="-2.3450697"><ele>931.0</ele><time>2026-04-13T11:17:59.678Z</time></trkpt><trkpt lat="38.4864999" lon="-2.3448414"><ele>931.0</ele><time>2026-04-13T11:18:00.678Z</time></trkpt><trkpt lat="38.4865115" lon="-2.3446248"><ele>931.0</ele><time>2026-04-13T11:18:01.678Z</time></trkpt><trkpt lat="38.4865626" lon="-2.3444258"><ele>932.0</ele><time>2026-04-13T11:18:02.678Z</time></trkpt><trkpt lat="38.4866487" lon="-2.3442417"><ele>933.0</ele><time>2026-04-13T11:18:03.678Z</time></trkpt><trkpt lat="38.4867666" lon="-2.3440824"><ele>934.0</ele><time>2026-04-13T11:18:04.678Z</time></trkpt><trkpt lat="38.4868844" lon="-2.3439295"><ele>929.0</ele><time>2026-04-13T11:18:05.678Z</time></trkpt><trkpt lat="38.487008" lon="-2.3437596"><ele>924.0</ele><time>2026-04-13T11:18:06.678Z</time></trkpt><trkpt lat="38.4871076" lon="-2.343576"><ele>919.0</ele><time>2026-04-13T11:18:07.678Z</time></trkpt><trkpt lat="38.4871895" lon="-2.3433331"><ele>919.0</ele><time>2026-04-13T11:18:08.678Z</time></trkpt><trkpt lat="38.48726" lon="-2.3430998"><ele>919.0</ele><time>2026-04-13T11:18:09.678Z</time></trkpt><trkpt lat="38.4873214" lon="-2.3428677"><ele>919.0</ele><time>2026-04-13T11:18:10.678Z</time></trkpt><trkpt lat="38.4873743" lon="-2.3426486"><ele>923.0</ele><time>2026-04-13T11:18:11.678Z</time></trkpt><trkpt lat="38.4874013" lon="-2.3424351"><ele>927.0</ele><time>2026-04-13T11:18:12.678Z</time></trkpt><trkpt lat="38.4873772" lon="-2.3422267"><ele>931.0</ele><time>2026-04-13T11:18:13.678Z</time></trkpt><trkpt lat="38.487334" lon="-2.3420328"><ele>931.3333333333333</ele><time>2026-04-13T11:18:14.678Z</time></trkpt><trkpt lat="38.4871907" lon="-2.3418712"><ele>931.6666666666667</ele><time>2026-04-13T11:18:15.678Z</time></trkpt><trkpt lat="38.487076" lon="-2.3417114"><ele>932.0</ele><time>2026-04-13T11:18:16.678Z</time></trkpt><trkpt lat="38.4869881" lon="-2.3415533"><ele>933.3333333333334</ele><time>2026-04-13T11:18:17.678Z</time></trkpt><trkpt lat="38.4869486" lon="-2.3413717"><ele>934.6666666666667</ele><time>2026-04-13T11:18:18.678Z</time></trkpt><trkpt lat="38.486945" lon="-2.3411678"><ele>936.0</ele><time>2026-04-13T11:18:19.678Z</time></trkpt><trkpt lat="38.4869505" lon="-2.3409686"><ele>936.0</ele><time>2026-04-13T11:18:20.678Z</time></trkpt><trkpt lat="38.4869357" lon="-2.3407992"><ele>936.0</ele><time>2026-04-13T11:18:21.678Z</time></trkpt><trkpt lat="38.4868913" lon="-2.3406559"><ele>936.0</ele><time>2026-04-13T11:18:22.678Z</time></trkpt><trkpt lat="38.4868052" lon="-2.3405354"><ele>936.0</ele><time>2026-04-13T11:18:23.678Z</time></trkpt><trkpt lat="38.4866789" lon="-2.3404663"><ele>934.3333333333333</ele><time>2026-04-13T11:18:24.678Z</time></trkpt><trkpt lat="38.4865318" lon="-2.3404579"><ele>932.6666666666666</ele><time>2026-04-13T11:18:25.678Z</time></trkpt><trkpt lat="38.4863841" lon="-2.3405021"><ele>931.0</ele><time>2026-04-13T11:18:26.678Z</time></trkpt><trkpt lat="38.486235" lon="-2.3405692"><ele>931.0</ele><time>2026-04-13T11:18:27.678Z</time></trkpt><trkpt lat="38.4860973" lon="-2.3406184"><ele>931.0</ele><time>2026-04-13T11:18:28.678Z</time></trkpt><trkpt lat="38.4859666" lon="-2.3406193"><ele>931.0</ele><time>2026-04-13T11:18:29.678Z</time></trkpt><trkpt lat="38.4858371" lon="-2.3405619"><ele>931.0</ele><time>2026-04-13T11:18:30.678Z</time></trkpt><trkpt lat="38.485726" lon="-2.3404401"><ele>925.0</ele><time>2026-04-13T11:18:31.678Z</time></trkpt><trkpt lat="38.4856302" lon="-2.3402777"><ele>919.0</ele><time>2026-04-13T11:18:32.678Z</time></trkpt><trkpt lat="38.4855314" lon="-2.3400993"><ele>913.0</ele><time>2026-04-13T11:18:33.678Z</time></trkpt><trkpt lat="38.4854298" lon="-2.339912"><ele>911.6666666666666</ele><time>2026-04-13T11:18:34.678Z</time></trkpt><trkpt lat="38.485319" lon="-2.3397133"><ele>910.3333333333333</ele><time>2026-04-13T11:18:35.678Z</time></trkpt><trkpt lat="38.4852086" lon="-2.3395132"><ele>909.0</ele><time>2026-04-13T11:18:36.678Z</time></trkpt><trkpt lat="38.4850968" lon="-2.3393089"><ele>909.0</ele><time>2026-04-13T11:18:37.678Z</time></trkpt><trkpt lat="38.4849865" lon="-2.3391085"><ele>909.0</ele><time>2026-04-13T11:18:38.678Z</time></trkpt><trkpt lat="38.484877" lon="-2.3389122"><ele>909.0</ele><time>2026-04-13T11:18:39.678Z</time></trkpt><trkpt lat="38.4847699" lon="-2.3387196"><ele>905.6666666666667</ele><time>2026-04-13T11:18:40.678Z</time></trkpt><trkpt lat="38.4846694" lon="-2.3385312"><ele>902.3333333333334</ele><time>2026-04-13T11:18:41.678Z</time></trkpt><trkpt lat="38.4845785" lon="-2.3383512"><ele>899.0</ele><time>2026-04-13T11:18:42.678Z</time></trkpt><trkpt lat="38.4845032" lon="-2.3381843"><ele>907.25</ele><time>2026-04-13T11:18:43.678Z</time></trkpt><trkpt lat="38.4844535" lon="-2.3380097"><ele>915.5</ele><time>2026-04-13T11:18:44.678Z</time></trkpt><trkpt lat="38.4844385" lon="-2.3378215"><ele>923.75</ele><time>2026-04-13T11:18:45.678Z</time></trkpt><trkpt lat="38.4844616" lon="-2.3376305"><ele>932.0</ele><time>2026-04-13T11:18:46.678Z</time></trkpt><trkpt lat="38.4845024" lon="-2.3374477"><ele>932.0</ele><time>2026-04-13T11:18:47.678Z</time></trkpt><trkpt lat="38.4845726" lon="-2.3372517"><ele>932.0</ele><time>2026-04-13T11:18:48.678Z</time></trkpt><trkpt lat="38.4846449" lon="-2.3370527"><ele>932.0</ele><time>2026-04-13T11:18:49.678Z</time></trkpt><trkpt lat="38.484709" lon="-2.3368479"><ele>927.6666666666667</ele><time>2026-04-13T11:18:50.678Z</time></trkpt><trkpt lat="38.4847778" lon="-2.3366496"><ele>923.3333333333333</ele><time>2026-04-13T11:18:51.678Z</time></trkpt><trkpt lat="38.4848464" lon="-2.3364546"><ele>919.0</ele><time>2026-04-13T11:18:52.678Z</time></trkpt><trkpt lat="38.4849089" lon="-2.3362471"><ele>919.0</ele><time>2026-04-13T11:18:53.678Z</time></trkpt><trkpt lat="38.4849578" lon="-2.3360324"><ele>919.0</ele><time>2026-04-13T11:18:54.678Z</time></trkpt><trkpt lat="38.4849897" lon="-2.3357965"><ele>919.0</ele><time>2026-04-13T11:18:55.678Z</time></trkpt><trkpt lat="38.4849992" lon="-2.3355526"><ele>919.6666666666666</ele><time>2026-04-13T11:18:56.678Z</time></trkpt><trkpt lat="38.4849973" lon="-2.3353143"><ele>920.3333333333333</ele><time>2026-04-13T11:18:57.678Z</time></trkpt><trkpt lat="38.4849866" lon="-2.3350733"><ele>921.0</ele><time>2026-04-13T11:18:58.678Z</time></trkpt><trkpt lat="38.484981" lon="-2.3348345"><ele>921.3333333333333</ele><time>2026-04-13T11:18:59.678Z</time></trkpt><trkpt lat="38.4849799" lon="-2.3346034"><ele>921.6666666666666</ele><time>2026-04-13T11:19:00.678Z</time></trkpt><trkpt lat="38.4849902" lon="-2.3343798"><ele>922.0</ele><time>2026-04-13T11:19:01.678Z</time></trkpt><trkpt lat="38.4850067" lon="-2.3341564"><ele>922.0</ele><time>2026-04-13T11:19:02.678Z</time></trkpt><trkpt lat="38.4850246" lon="-2.3339113"><ele>922.0</ele><time>2026-04-13T11:19:04.288Z</time></trkpt><trkpt lat="38.4850642" lon="-2.3335626"><ele>922.0</ele><time>2026-04-13T11:19:05.68Z</time></trkpt><trkpt lat="38.4850777" lon="-2.3333982"><ele>922.0</ele><time>2026-04-13T11:19:06.683Z</time></trkpt><trkpt lat="38.4850884" lon="-2.3332371"><ele>922.0</ele><time>2026-04-13T11:19:07.679Z</time></trkpt><trkpt lat="38.4851014" lon="-2.333078"><ele>922.0</ele><time>2026-04-13T11:19:08.687Z</time></trkpt><trkpt lat="38.4851223" lon="-2.332917"><ele>922.0</ele><time>2026-04-13T11:19:09.673Z</time></trkpt><trkpt lat="38.4851562" lon="-2.3327569"><ele>922.0</ele><time>2026-04-13T11:19:10.673Z</time></trkpt><trkpt lat="38.4852043" lon="-2.3326002"><ele>922.0</ele><time>2026-04-13T11:19:11.673Z</time></trkpt><trkpt lat="38.4852697" lon="-2.3324459"><ele>922.0</ele><time>2026-04-13T11:19:12.673Z</time></trkpt><trkpt lat="38.4853563" lon="-2.3323021"><ele>918.5</ele><time>2026-04-13T11:19:13.673Z</time></trkpt><trkpt lat="38.4854552" lon="-2.3321745"><ele>915.0</ele><time>2026-04-13T11:19:14.673Z</time></trkpt><trkpt lat="38.4855691" lon="-2.3320612"><ele>911.5</ele><time>2026-04-13T11:19:15.673Z</time></trkpt><trkpt lat="38.4856853" lon="-2.3319576"><ele>908.0</ele><time>2026-04-13T11:19:16.673Z</time></trkpt><trkpt lat="38.4858046" lon="-2.3318517"><ele>908.0</ele><time>2026-04-13T11:19:17.673Z</time></trkpt><trkpt lat="38.485921" lon="-2.331746"><ele>908.0</ele><time>2026-04-13T11:19:18.673Z</time></trkpt><trkpt lat="38.4860235" lon="-2.3316506"><ele>908.0</ele><time>2026-04-13T11:19:19.673Z</time></trkpt><trkpt lat="38.4861102" lon="-2.3315608"><ele>908.0</ele><time>2026-04-13T11:19:20.673Z</time></trkpt><trkpt lat="38.4861733" lon="-2.3314648"><ele>911.8</ele><time>2026-04-13T11:19:21.673Z</time></trkpt><trkpt lat="38.4862155" lon="-2.3313524"><ele>915.5999999999999</ele><time>2026-04-13T11:19:22.673Z</time></trkpt><trkpt lat="38.4862334" lon="-2.3312219"><ele>919.4000000000001</ele><time>2026-04-13T11:19:23.673Z</time></trkpt><trkpt lat="38.4862327" lon="-2.3310806"><ele>923.2</ele><time>2026-04-13T11:19:24.673Z</time></trkpt><trkpt lat="38.4862172" lon="-2.3309401"><ele>927.0</ele><time>2026-04-13T11:19:25.673Z</time></trkpt><trkpt lat="38.486195" lon="-2.3308059"><ele>927.0</ele><time>2026-04-13T11:19:26.673Z</time></trkpt><trkpt lat="38.486174" lon="-2.3306762"><ele>927.0</ele><time>2026-04-13T11:19:27.673Z</time></trkpt><trkpt lat="38.4861524" lon="-2.3305512"><ele>927.0</ele><time>2026-04-13T11:19:28.673Z</time></trkpt><trkpt lat="38.4861471" lon="-2.3304259"><ele>927.0</ele><time>2026-04-13T11:19:29.673Z</time></trkpt><trkpt lat="38.486161" lon="-2.3303055"><ele>927.0</ele><time>2026-04-13T11:19:30.673Z</time></trkpt><trkpt lat="38.4862005" lon="-2.3301955"><ele>928.4000000000001</ele><time>2026-04-13T11:19:31.673Z</time></trkpt><trkpt lat="38.4862495" lon="-2.3300977"><ele>929.8000000000001</ele><time>2026-04-13T11:19:32.673Z</time></trkpt><trkpt lat="38.4863024" lon="-2.3300044"><ele>931.2</ele><time>2026-04-13T11:19:33.673Z</time></trkpt><trkpt lat="38.4863447" lon="-2.3298971"><ele>932.6</ele><time>2026-04-13T11:19:34.673Z</time></trkpt><trkpt lat="38.486388" lon="-2.3297795"><ele>934.0</ele><time>2026-04-13T11:19:35.673Z</time></trkpt><trkpt lat="38.4864049" lon="-2.3296476"><ele>925.8000000000001</ele><time>2026-04-13T11:19:36.673Z</time></trkpt><trkpt lat="38.4864073" lon="-2.3295121"><ele>917.6000000000001</ele><time>2026-04-13T11:19:37.673Z</time></trkpt><trkpt lat="38.4864047" lon="-2.3293775"><ele>909.4</ele><time>2026-04-13T11:19:38.674Z</time></trkpt><trkpt lat="38.4863995" lon="-2.3292416"><ele>901.2</ele><time>2026-04-13T11:19:39.673Z</time></trkpt><trkpt lat="38.4863973" lon="-2.3291003"><ele>893.0</ele><time>2026-04-13T11:19:40.673Z</time></trkpt><trkpt lat="38.4864076" lon="-2.3289621"><ele>895.2</ele><time>2026-04-13T11:19:41.673Z</time></trkpt><trkpt lat="38.4864348" lon="-2.3288228"><ele>897.4</ele><time>2026-04-13T11:19:42.673Z</time></trkpt><trkpt lat="38.4864833" lon="-2.3286901"><ele>899.6000000000001</ele><time>2026-04-13T11:19:43.673Z</time></trkpt><trkpt lat="38.4865425" lon="-2.3285704"><ele>901.8000000000001</ele><time>2026-04-13T11:19:44.673Z</time></trkpt><trkpt lat="38.4866025" lon="-2.3284505"><ele>904.0</ele><time>2026-04-13T11:19:45.673Z</time></trkpt><trkpt lat="38.4866587" lon="-2.328332"><ele>904.0</ele><time>2026-04-13T11:19:46.673Z</time></trkpt><trkpt lat="38.4867147" lon="-2.3282203"><ele>904.0000000000001</ele><time>2026-04-13T11:19:47.673Z</time></trkpt><trkpt lat="38.486777" lon="-2.3281089"><ele>904.0000000000001</ele><time>2026-04-13T11:19:48.673Z</time></trkpt><trkpt lat="38.4868459" lon="-2.3280025"><ele>904.0</ele><time>2026-04-13T11:19:49.673Z</time></trkpt><trkpt lat="38.4869306" lon="-2.3279101"><ele>904.0</ele><time>2026-04-13T11:19:50.673Z</time></trkpt><trkpt lat="38.4870182" lon="-2.3278328"><ele>902.0</ele><time>2026-04-13T11:19:51.673Z</time></trkpt><trkpt lat="38.4871122" lon="-2.3277678"><ele>900.0000000000001</ele><time>2026-04-13T11:19:52.673Z</time></trkpt><trkpt lat="38.487205" lon="-2.3277013"><ele>898.0000000000001</ele><time>2026-04-13T11:19:53.673Z</time></trkpt><trkpt lat="38.4872863" lon="-2.327623"><ele>896.0</ele><time>2026-04-13T11:19:54.673Z</time></trkpt><trkpt lat="38.4873505" lon="-2.3275212"><ele>894.0</ele><time>2026-04-13T11:19:55.673Z</time></trkpt><trkpt lat="38.4873883" lon="-2.3273885"><ele>894.0</ele><time>2026-04-13T11:19:56.673Z</time></trkpt><trkpt lat="38.4873998" lon="-2.3272435"><ele>894.0</ele><time>2026-04-13T11:19:57.673Z</time></trkpt><trkpt lat="38.4873923" lon="-2.3270914"><ele>894.0</ele><time>2026-04-13T11:19:58.673Z</time></trkpt><trkpt lat="38.4873752" lon="-2.3269365"><ele>894.0</ele><time>2026-04-13T11:19:59.673Z</time></trkpt><trkpt lat="38.4873627" lon="-2.3267837"><ele>896.0</ele><time>2026-04-13T11:20:00.673Z</time></trkpt><trkpt lat="38.4873602" lon="-2.326627"><ele>898.0</ele><time>2026-04-13T11:20:01.673Z</time></trkpt><trkpt lat="38.4873603" lon="-2.3264744"><ele>900.0</ele><time>2026-04-13T11:20:02.673Z</time></trkpt><trkpt lat="38.4873689" lon="-2.3263269"><ele>902.0</ele><time>2026-04-13T11:20:03.673Z</time></trkpt><trkpt lat="38.4873848" lon="-2.3261808"><ele>903.4000000000001</ele><time>2026-04-13T11:20:04.673Z</time></trkpt><trkpt lat="38.4874088" lon="-2.326038"><ele>904.8000000000001</ele><time>2026-04-13T11:20:05.673Z</time></trkpt><trkpt lat="38.4874371" lon="-2.3259008"><ele>906.2</ele><time>2026-04-13T11:20:06.673Z</time></trkpt><trkpt lat="38.4874685" lon="-2.3257685"><ele>907.6</ele><time>2026-04-13T11:20:07.673Z</time></trkpt><trkpt lat="38.4875034" lon="-2.3256348"><ele>909.0</ele><time>2026-04-13T11:20:08.673Z</time></trkpt><trkpt lat="38.4875458" lon="-2.3254981"><ele>913.4000000000001</ele><time>2026-04-13T11:20:09.673Z</time></trkpt><trkpt lat="38.4875932" lon="-2.325355"><ele>917.8000000000001</ele><time>2026-04-13T11:20:10.673Z</time></trkpt><trkpt lat="38.4876377" lon="-2.3252325"><ele>922.1999999999999</ele><time>2026-04-13T11:20:11.673Z</time></trkpt><trkpt lat="38.4876805" lon="-2.325108"><ele>926.5999999999999</ele><time>2026-04-13T11:20:12.673Z</time></trkpt><trkpt lat="38.4877301" lon="-2.3249935"><ele>931.0</ele><time>2026-04-13T11:20:13.673Z</time></trkpt><trkpt lat="38.4877776" lon="-2.3248834"><ele>931.0</ele><time>2026-04-13T11:20:14.673Z</time></trkpt><trkpt lat="38.4878695" lon="-2.3248253"><ele>930.9999999999999</ele><time>2026-04-13T11:20:15.673Z</time></trkpt><trkpt lat="38.4879836" lon="-2.3247816"><ele>930.9999999999999</ele><time>2026-04-13T11:20:16.673Z</time></trkpt><trkpt lat="38.4880795" lon="-2.3247284"><ele>931.0</ele><time>2026-04-13T11:20:17.673Z</time></trkpt><trkpt lat="38.4881604" lon="-2.3246469"><ele>931.0</ele><time>2026-04-13T11:20:18.674Z</time></trkpt><trkpt lat="38.4882162" lon="-2.3245391"><ele>927.4</ele><time>2026-04-13T11:20:19.674Z</time></trkpt><trkpt lat="38.4882477" lon="-2.3244183"><ele>923.8</ele><time>2026-04-13T11:20:20.673Z</time></trkpt><trkpt lat="38.4882686" lon="-2.324293"><ele>920.1999999999999</ele><time>2026-04-13T11:20:21.673Z</time></trkpt><trkpt lat="38.4882869" lon="-2.3241743"><ele>916.5999999999999</ele><time>2026-04-13T11:20:22.673Z</time></trkpt><trkpt lat="38.488302" lon="-2.3240577"><ele>913.0</ele><time>2026-04-13T11:20:23.673Z</time></trkpt><trkpt lat="38.4883161" lon="-2.3239465"><ele>914.6666666666666</ele><time>2026-04-13T11:20:24.673Z</time></trkpt><trkpt lat="38.4883217" lon="-2.3238337"><ele>916.3333333333333</ele><time>2026-04-13T11:20:25.673Z</time></trkpt><trkpt lat="38.488314" lon="-2.3237278"><ele>918.0</ele><time>2026-04-13T11:20:26.673Z</time></trkpt><trkpt lat="38.4882869" lon="-2.3236243"><ele>919.6666666666667</ele><time>2026-04-13T11:20:27.673Z</time></trkpt><trkpt lat="38.4882481" lon="-2.3235275"><ele>921.3333333333334</ele><time>2026-04-13T11:20:28.673Z</time></trkpt><trkpt lat="38.4881987" lon="-2.3234495"><ele>923.0</ele><time>2026-04-13T11:20:29.673Z</time></trkpt><trkpt lat="38.4881469" lon="-2.3233868"><ele>923.0</ele><time>2026-04-13T11:20:30.673Z</time></trkpt><trkpt lat="38.4881016" lon="-2.3233291"><ele>923.0</ele><time>2026-04-13T11:20:31.673Z</time></trkpt><trkpt lat="38.4880598" lon="-2.3232682"><ele>923.0</ele><time>2026-04-13T11:20:32.673Z</time></trkpt><trkpt lat="38.4880409" lon="-2.323185"><ele>923.0</ele><time>2026-04-13T11:20:33.673Z</time></trkpt><trkpt lat="38.4880309" lon="-2.3230981"><ele>923.0</ele><time>2026-04-13T11:20:34.673Z</time></trkpt><trkpt lat="38.4880456" lon="-2.3230076"><ele>923.0</ele><time>2026-04-13T11:20:35.673Z</time></trkpt><trkpt lat="38.4880841" lon="-2.3229237"><ele>923.0</ele><time>2026-04-13T11:20:36.673Z</time></trkpt><trkpt lat="38.4881392" lon="-2.3228584"><ele>927.8333333333334</ele><time>2026-04-13T11:20:37.673Z</time></trkpt><trkpt lat="38.4882144" lon="-2.3228181"><ele>932.6666666666667</ele><time>2026-04-13T11:20:38.673Z</time></trkpt><trkpt lat="38.4882986" lon="-2.3228019"><ele>937.5</ele><time>2026-04-13T11:20:39.673Z</time></trkpt><trkpt lat="38.4883816" lon="-2.3227958"><ele>942.3333333333333</ele><time>2026-04-13T11:20:40.673Z</time></trkpt><trkpt lat="38.4884646" lon="-2.3227938"><ele>947.1666666666666</ele><time>2026-04-13T11:20:41.673Z</time></trkpt><trkpt lat="38.4885502" lon="-2.3227939"><ele>952.0</ele><time>2026-04-13T11:20:42.673Z</time></trkpt><trkpt lat="38.4886354" lon="-2.3227933"><ele>952.0</ele><time>2026-04-13T11:20:43.673Z</time></trkpt><trkpt lat="38.4887248" lon="-2.3227863"><ele>952.0</ele><time>2026-04-13T11:20:44.673Z</time></trkpt><trkpt lat="38.4888147" lon="-2.3227815"><ele>952.0</ele><time>2026-04-13T11:20:45.673Z</time></trkpt><trkpt lat="38.4889072" lon="-2.32276"><ele>952.0</ele><time>2026-04-13T11:20:46.673Z</time></trkpt><trkpt lat="38.4889956" lon="-2.3227289"><ele>952.0</ele><time>2026-04-13T11:20:47.673Z</time></trkpt><trkpt lat="38.489074" lon="-2.3226831"><ele>952.6</ele><time>2026-04-13T11:20:48.673Z</time></trkpt><trkpt lat="38.4891467" lon="-2.3226034"><ele>953.2</ele><time>2026-04-13T11:20:49.673Z</time></trkpt><trkpt lat="38.4892059" lon="-2.3225065"><ele>953.8</ele><time>2026-04-13T11:20:50.673Z</time></trkpt><trkpt lat="38.4892514" lon="-2.3223871"><ele>954.4</ele><time>2026-04-13T11:20:51.673Z</time></trkpt><trkpt lat="38.4892885" lon="-2.3222694"><ele>955.0</ele><time>2026-04-13T11:20:52.673Z</time></trkpt><trkpt lat="38.489328" lon="-2.3221496"><ele>955.0</ele><time>2026-04-13T11:20:53.673Z</time></trkpt><trkpt lat="38.4893688" lon="-2.3220289"><ele>955.0</ele><time>2026-04-13T11:20:54.673Z</time></trkpt><trkpt lat="38.489408" lon="-2.3219099"><ele>955.0</ele><time>2026-04-13T11:20:55.674Z</time></trkpt><trkpt lat="38.4894467" lon="-2.3217925"><ele>955.0</ele><time>2026-04-13T11:20:56.673Z</time></trkpt><trkpt lat="38.4894889" lon="-2.3216777"><ele>955.0</ele><time>2026-04-13T11:20:57.673Z</time></trkpt><trkpt lat="38.4895315" lon="-2.3215612"><ele>955.0</ele><time>2026-04-13T11:20:58.673Z</time></trkpt><trkpt lat="38.4895746" lon="-2.3214442"><ele>955.0</ele><time>2026-04-13T11:20:59.674Z</time></trkpt><trkpt lat="38.4896161" lon="-2.3213301"><ele>955.0</ele><time>2026-04-13T11:21:00.673Z</time></trkpt><trkpt lat="38.4896699" lon="-2.3212181"><ele>955.0</ele><time>2026-04-13T11:21:01.673Z</time></trkpt><trkpt lat="38.4897307" lon="-2.321111"><ele>955.0</ele><time>2026-04-13T11:21:02.673Z</time></trkpt><trkpt lat="38.4898039" lon="-2.3210191"><ele>952.8</ele><time>2026-04-13T11:21:03.674Z</time></trkpt><trkpt lat="38.4898831" lon="-2.3209348"><ele>950.6</ele><time>2026-04-13T11:21:04.673Z</time></trkpt><trkpt lat="38.4899782" lon="-2.3208862"><ele>948.4000000000001</ele><time>2026-04-13T11:21:05.673Z</time></trkpt><trkpt lat="38.4900734" lon="-2.3208449"><ele>946.2</ele><time>2026-04-13T11:21:06.673Z</time></trkpt><trkpt lat="38.4901667" lon="-2.3208186"><ele>944.0</ele><time>2026-04-13T11:21:07.673Z</time></trkpt><trkpt lat="38.4902661" lon="-2.3207916"><ele>944.0</ele><time>2026-04-13T11:21:08.673Z</time></trkpt><trkpt lat="38.4903733" lon="-2.3207653"><ele>944.0000000000001</ele><time>2026-04-13T11:21:09.673Z</time></trkpt><trkpt lat="38.4904818" lon="-2.3207323"><ele>944.0000000000001</ele><time>2026-04-13T11:21:10.673Z</time></trkpt><trkpt lat="38.4905915" lon="-2.3206926"><ele>944.0</ele><time>2026-04-13T11:21:11.673Z</time></trkpt><trkpt lat="38.4906878" lon="-2.3206341"><ele>944.0</ele><time>2026-04-13T11:21:12.673Z</time></trkpt><trkpt lat="38.4907644" lon="-2.3205498"><ele>945.0</ele><time>2026-04-13T11:21:13.673Z</time></trkpt><trkpt lat="38.4908025" lon="-2.3204268"><ele>946.0000000000001</ele><time>2026-04-13T11:21:14.673Z</time></trkpt><trkpt lat="38.4908165" lon="-2.3203046"><ele>947.0000000000001</ele><time>2026-04-13T11:21:15.673Z</time></trkpt><trkpt lat="38.4908082" lon="-2.320181"><ele>948.0</ele><time>2026-04-13T11:21:16.673Z</time></trkpt><trkpt lat="38.4907921" lon="-2.3200605"><ele>949.0</ele><time>2026-04-13T11:21:17.673Z</time></trkpt><trkpt lat="38.4907773" lon="-2.3199486"><ele>948.9999999999999</ele><time>2026-04-13T11:21:18.673Z</time></trkpt><trkpt lat="38.4907735" lon="-2.3198365"><ele>949.0</ele><time>2026-04-13T11:21:19.673Z</time></trkpt><trkpt lat="38.4907729" lon="-2.3197288"><ele>949.0</ele><time>2026-04-13T11:21:20.673Z</time></trkpt><trkpt lat="38.4908068" lon="-2.3196283"><ele>949.0</ele><time>2026-04-13T11:21:21.673Z</time></trkpt><trkpt lat="38.4908567" lon="-2.3195305"><ele>948.9999999999999</ele><time>2026-04-13T11:21:22.673Z</time></trkpt><trkpt lat="38.4909157" lon="-2.3194387"><ele>949.0</ele><time>2026-04-13T11:21:23.673Z</time></trkpt><trkpt lat="38.4909795" lon="-2.3193458"><ele>950.4000000000001</ele><time>2026-04-13T11:21:24.673Z</time></trkpt><trkpt lat="38.4910504" lon="-2.3192594"><ele>951.8000000000001</ele><time>2026-04-13T11:21:25.673Z</time></trkpt><trkpt lat="38.4911265" lon="-2.3191632"><ele>953.1999999999999</ele><time>2026-04-13T11:21:26.673Z</time></trkpt><trkpt lat="38.4912041" lon="-2.3190636"><ele>954.5999999999999</ele><time>2026-04-13T11:21:27.673Z</time></trkpt><trkpt lat="38.4912905" lon="-2.3189713"><ele>956.0</ele><time>2026-04-13T11:21:28.673Z</time></trkpt><trkpt lat="38.4913775" lon="-2.3188908"><ele>959.75</ele><time>2026-04-13T11:21:29.673Z</time></trkpt><trkpt lat="38.491475" lon="-2.3188167"><ele>963.5</ele><time>2026-04-13T11:21:30.673Z</time></trkpt><trkpt lat="38.4915774" lon="-2.3187529"><ele>967.25</ele><time>2026-04-13T11:21:31.673Z</time></trkpt><trkpt lat="38.4916873" lon="-2.3187034"><ele>971.0</ele><time>2026-04-13T11:21:32.673Z</time></trkpt><trkpt lat="38.4918047" lon="-2.3186554"><ele>971.0</ele><time>2026-04-13T11:21:33.673Z</time></trkpt><trkpt lat="38.4919198" lon="-2.3186129"><ele>971.0</ele><time>2026-04-13T11:21:34.673Z</time></trkpt><trkpt lat="38.4920373" lon="-2.3185776"><ele>971.0</ele><time>2026-04-13T11:21:35.673Z</time></trkpt><trkpt lat="38.4921477" lon="-2.3185401"><ele>971.0</ele><time>2026-04-13T11:21:36.673Z</time></trkpt><trkpt lat="38.4922649" lon="-2.3184949"><ele>970.5</ele><time>2026-04-13T11:21:37.673Z</time></trkpt><trkpt lat="38.4923842" lon="-2.3184518"><ele>970.0</ele><time>2026-04-13T11:21:38.673Z</time></trkpt><trkpt lat="38.4925007" lon="-2.3184088"><ele>969.5</ele><time>2026-04-13T11:21:39.673Z</time></trkpt><trkpt lat="38.492619" lon="-2.318367"><ele>969.0</ele><time>2026-04-13T11:21:40.673Z</time></trkpt><trkpt lat="38.4927389" lon="-2.3183132"><ele>969.0</ele><time>2026-04-13T11:21:41.673Z</time></trkpt><trkpt lat="38.4928544" lon="-2.3182324"><ele>969.0</ele><time>2026-04-13T11:21:42.673Z</time></trkpt><trkpt lat="38.4929685" lon="-2.3181418"><ele>969.0</ele><time>2026-04-13T11:21:43.673Z</time></trkpt><trkpt lat="38.4930527" lon="-2.3180078"><ele>969.0</ele><time>2026-04-13T11:21:44.673Z</time></trkpt><trkpt lat="38.493132" lon="-2.3178874"><ele>970.0</ele><time>2026-04-13T11:21:45.673Z</time></trkpt><trkpt lat="38.4932021" lon="-2.3177647"><ele>971.0</ele><time>2026-04-13T11:21:46.673Z</time></trkpt><trkpt lat="38.493267" lon="-2.3176422"><ele>972.0</ele><time>2026-04-13T11:21:47.673Z</time></trkpt><trkpt lat="38.493322" lon="-2.3175074"><ele>973.0</ele><time>2026-04-13T11:21:48.673Z</time></trkpt><trkpt lat="38.4933654" lon="-2.3173662"><ele>974.75</ele><time>2026-04-13T11:21:49.674Z</time></trkpt><trkpt lat="38.4933965" lon="-2.3172185"><ele>976.5</ele><time>2026-04-13T11:21:50.673Z</time></trkpt><trkpt lat="38.4934101" lon="-2.3170637"><ele>978.25</ele><time>2026-04-13T11:21:51.673Z</time></trkpt><trkpt lat="38.4934042" lon="-2.3169087"><ele>980.0</ele><time>2026-04-13T11:21:52.673Z</time></trkpt><trkpt lat="38.4933815" lon="-2.3167607"><ele>980.0</ele><time>2026-04-13T11:21:53.673Z</time></trkpt><trkpt lat="38.4933445" lon="-2.3166229"><ele>980.0</ele><time>2026-04-13T11:21:54.673Z</time></trkpt><trkpt lat="38.4932927" lon="-2.3164863"><ele>980.0</ele><time>2026-04-13T11:21:55.673Z</time></trkpt><trkpt lat="38.4932256" lon="-2.3163639"><ele>980.0</ele><time>2026-04-13T11:21:56.673Z</time></trkpt><trkpt lat="38.4931418" lon="-2.316262"><ele>983.5</ele><time>2026-04-13T11:21:57.673Z</time></trkpt><trkpt lat="38.4930387" lon="-2.3161695"><ele>987.0</ele><time>2026-04-13T11:21:58.673Z</time></trkpt><trkpt lat="38.4929276" lon="-2.3160958"><ele>990.5</ele><time>2026-04-13T11:21:59.673Z</time></trkpt><trkpt lat="38.4928145" lon="-2.316041"><ele>994.0</ele><time>2026-04-13T11:22:00.673Z</time></trkpt><trkpt lat="38.4927037" lon="-2.3159865"><ele>994.0</ele><time>2026-04-13T11:22:01.673Z</time></trkpt><trkpt lat="38.4926012" lon="-2.3159285"><ele>994.0</ele><time>2026-04-13T11:22:02.673Z</time></trkpt><trkpt lat="38.4925059" lon="-2.3158504"><ele>994.0</ele><time>2026-04-13T11:22:03.673Z</time></trkpt><trkpt lat="38.4924262" lon="-2.3157475"><ele>994.0</ele><time>2026-04-13T11:22:04.673Z</time></trkpt><trkpt lat="38.4923678" lon="-2.3156258"><ele>991.2</ele><time>2026-04-13T11:22:05.673Z</time></trkpt><trkpt lat="38.4923227" lon="-2.315495"><ele>988.4000000000001</ele><time>2026-04-13T11:22:06.673Z</time></trkpt><trkpt lat="38.492278" lon="-2.3153629"><ele>985.6</ele><time>2026-04-13T11:22:07.673Z</time></trkpt><trkpt lat="38.4922313" lon="-2.3152355"><ele>982.8</ele><time>2026-04-13T11:22:08.673Z</time></trkpt><trkpt lat="38.4921828" lon="-2.3151051"><ele>980.0</ele><time>2026-04-13T11:22:09.673Z</time></trkpt><trkpt lat="38.4921344" lon="-2.3149787"><ele>987.2</ele><time>2026-04-13T11:22:10.673Z</time></trkpt><trkpt lat="38.4920836" lon="-2.3148551"><ele>994.4</ele><time>2026-04-13T11:22:11.673Z</time></trkpt><trkpt lat="38.4920345" lon="-2.3147281"><ele>1001.5999999999999</ele><time>2026-04-13T11:22:12.673Z</time></trkpt><trkpt lat="38.4919947" lon="-2.3145956"><ele>1008.8</ele><time>2026-04-13T11:22:13.673Z</time></trkpt><trkpt lat="38.4919734" lon="-2.3144563"><ele>1016.0</ele><time>2026-04-13T11:22:14.673Z</time></trkpt><trkpt lat="38.4919746" lon="-2.3143176"><ele>1016.0</ele><time>2026-04-13T11:22:15.673Z</time></trkpt><trkpt lat="38.492" lon="-2.3141839"><ele>1015.9999999999999</ele><time>2026-04-13T11:22:16.673Z</time></trkpt><trkpt lat="38.4920468" lon="-2.3140642"><ele>1015.9999999999999</ele><time>2026-04-13T11:22:17.673Z</time></trkpt><trkpt lat="38.4920999" lon="-2.3139499"><ele>1016.0</ele><time>2026-04-13T11:22:18.673Z</time></trkpt><trkpt lat="38.4921448" lon="-2.3138401"><ele>1016.0</ele><time>2026-04-13T11:22:19.673Z</time></trkpt><trkpt lat="38.492184" lon="-2.3137247"><ele>1015.0</ele><time>2026-04-13T11:22:20.673Z</time></trkpt><trkpt lat="38.492205" lon="-2.313605"><ele>1013.9999999999999</ele><time>2026-04-13T11:22:21.673Z</time></trkpt><trkpt lat="38.4922031" lon="-2.3134778"><ele>1012.9999999999999</ele><time>2026-04-13T11:22:22.673Z</time></trkpt><trkpt lat="38.4921757" lon="-2.3133574"><ele>1012.0</ele><time>2026-04-13T11:22:23.673Z</time></trkpt><trkpt lat="38.4921264" lon="-2.3132508"><ele>1011.0</ele><time>2026-04-13T11:22:24.673Z</time></trkpt><trkpt lat="38.4920478" lon="-2.313172"><ele>1011.0</ele><time>2026-04-13T11:22:25.673Z</time></trkpt><trkpt lat="38.4919585" lon="-2.313121"><ele>1010.9999999999999</ele><time>2026-04-13T11:22:26.673Z</time></trkpt><trkpt lat="38.4918576" lon="-2.3130976"><ele>1010.9999999999999</ele><time>2026-04-13T11:22:27.673Z</time></trkpt><trkpt lat="38.4917612" lon="-2.313091"><ele>1011.0</ele><time>2026-04-13T11:22:28.673Z</time></trkpt><trkpt lat="38.4916706" lon="-2.3130936"><ele>1011.0</ele><time>2026-04-13T11:22:29.673Z</time></trkpt><trkpt lat="38.4915839" lon="-2.3130977"><ele>1011.0</ele><time>2026-04-13T11:22:30.673Z</time></trkpt><trkpt lat="38.4914909" lon="-2.3130997"><ele>1010.9999999999999</ele><time>2026-04-13T11:22:31.673Z</time></trkpt><trkpt lat="38.491394" lon="-2.3131047"><ele>1010.9999999999999</ele><time>2026-04-13T11:22:32.673Z</time></trkpt><trkpt lat="38.4912887" lon="-2.3131095"><ele>1011.0</ele><time>2026-04-13T11:22:33.673Z</time></trkpt><trkpt lat="38.4911826" lon="-2.3131041"><ele>1011.0</ele><time>2026-04-13T11:22:34.673Z</time></trkpt><trkpt lat="38.4910742" lon="-2.3130802"><ele>1010.5999999999999</ele><time>2026-04-13T11:22:35.673Z</time></trkpt><trkpt lat="38.4909772" lon="-2.3130185"><ele>1010.1999999999999</ele><time>2026-04-13T11:22:36.673Z</time></trkpt><trkpt lat="38.4908934" lon="-2.3129255"><ele>1009.8000000000001</ele><time>2026-04-13T11:22:37.673Z</time></trkpt><trkpt lat="38.490826" lon="-2.3128179"><ele>1009.4000000000001</ele><time>2026-04-13T11:22:38.673Z</time></trkpt><trkpt lat="38.490768" lon="-2.312692"><ele>1009.0</ele><time>2026-04-13T11:22:39.673Z</time></trkpt><trkpt lat="38.4907085" lon="-2.312567"><ele>1009.0</ele><time>2026-04-13T11:22:40.673Z</time></trkpt><trkpt lat="38.4906496" lon="-2.312433"><ele>1009.0</ele><time>2026-04-13T11:22:41.673Z</time></trkpt><trkpt lat="38.4905923" lon="-2.3122992"><ele>1009.0</ele><time>2026-04-13T11:22:42.673Z</time></trkpt><trkpt lat="38.490543" lon="-2.3121682"><ele>1009.0</ele><time>2026-04-13T11:22:43.673Z</time></trkpt><trkpt lat="38.4905054" lon="-2.3120286"><ele>1007.75</ele><time>2026-04-13T11:22:44.673Z</time></trkpt><trkpt lat="38.4904846" lon="-2.3118749"><ele>1006.5</ele><time>2026-04-13T11:22:45.673Z</time></trkpt><trkpt lat="38.4904765" lon="-2.3117183"><ele>1005.25</ele><time>2026-04-13T11:22:46.673Z</time></trkpt><trkpt lat="38.4904763" lon="-2.3115611"><ele>1004.0</ele><time>2026-04-13T11:22:47.673Z</time></trkpt><trkpt lat="38.4904754" lon="-2.3114124"><ele>1004.25</ele><time>2026-04-13T11:22:48.673Z</time></trkpt><trkpt lat="38.4904745" lon="-2.3112565"><ele>1004.5</ele><time>2026-04-13T11:22:49.673Z</time></trkpt><trkpt lat="38.4904717" lon="-2.3110999"><ele>1004.75</ele><time>2026-04-13T11:22:50.673Z</time></trkpt><trkpt lat="38.4904692" lon="-2.3109376"><ele>1005.0</ele><time>2026-04-13T11:22:51.673Z</time></trkpt><trkpt lat="38.490466" lon="-2.3107747"><ele>1005.0</ele><time>2026-04-13T11:22:52.673Z</time></trkpt><trkpt lat="38.4904622" lon="-2.3106061"><ele>1005.0</ele><time>2026-04-13T11:22:53.674Z</time></trkpt><trkpt lat="38.4904556" lon="-2.3104336"><ele>1005.0</ele><time>2026-04-13T11:22:54.673Z</time></trkpt><trkpt lat="38.4904507" lon="-2.310262"><ele>1005.0</ele><time>2026-04-13T11:22:55.673Z</time></trkpt><trkpt lat="38.4904465" lon="-2.3100941"><ele>1005.75</ele><time>2026-04-13T11:22:56.673Z</time></trkpt><trkpt lat="38.4904483" lon="-2.3099242"><ele>1006.5</ele><time>2026-04-13T11:22:57.673Z</time></trkpt><trkpt lat="38.490445" lon="-2.3097655"><ele>1007.25</ele><time>2026-04-13T11:22:58.673Z</time></trkpt><trkpt lat="38.4904336" lon="-2.309611"><ele>1008.0</ele><time>2026-04-13T11:22:59.673Z</time></trkpt><trkpt lat="38.4904021" lon="-2.3094609"><ele>1013.5</ele><time>2026-04-13T11:23:00.673Z</time></trkpt><trkpt lat="38.4903541" lon="-2.3093135"><ele>1019.0</ele><time>2026-04-13T11:23:01.673Z</time></trkpt><trkpt lat="38.4902844" lon="-2.3091758"><ele>1024.5</ele><time>2026-04-13T11:23:02.673Z</time></trkpt><trkpt lat="38.4902029" lon="-2.3090485"><ele>1030.0</ele><time>2026-04-13T11:23:03.673Z</time></trkpt><trkpt lat="38.4901177" lon="-2.3089437"><ele>1028.0</ele><time>2026-04-13T11:23:04.673Z</time></trkpt><trkpt lat="38.4900267" lon="-2.3088393"><ele>1026.0</ele><time>2026-04-13T11:23:05.673Z</time></trkpt><trkpt lat="38.4899315" lon="-2.3087358"><ele>1024.0</ele><time>2026-04-13T11:23:06.673Z</time></trkpt><trkpt lat="38.4898342" lon="-2.3086304"><ele>1022.0</ele><time>2026-04-13T11:23:07.673Z</time></trkpt><trkpt lat="38.4897334" lon="-2.3085098"><ele>1022.0</ele><time>2026-04-13T11:23:08.673Z</time></trkpt><trkpt lat="38.4896331" lon="-2.3083743"><ele>1022.0</ele><time>2026-04-13T11:23:09.673Z</time></trkpt><trkpt lat="38.4895423" lon="-2.3082342"><ele>1022.0</ele><time>2026-04-13T11:23:10.673Z</time></trkpt><trkpt lat="38.4894627" lon="-2.3080817"><ele>1022.0</ele><time>2026-04-13T11:23:11.673Z</time></trkpt><trkpt lat="38.4893894" lon="-2.3079232"><ele>1027.5</ele><time>2026-04-13T11:23:12.673Z</time></trkpt><trkpt lat="38.4893187" lon="-2.3077608"><ele>1033.0</ele><time>2026-04-13T11:23:13.673Z</time></trkpt><trkpt lat="38.4892516" lon="-2.3076029"><ele>1038.5</ele><time>2026-04-13T11:23:14.673Z</time></trkpt><trkpt lat="38.4891899" lon="-2.3074459"><ele>1044.0</ele><time>2026-04-13T11:23:15.673Z</time></trkpt><trkpt lat="38.4891263" lon="-2.3072904"><ele>1041.0</ele><time>2026-04-13T11:23:16.673Z</time></trkpt><trkpt lat="38.4890642" lon="-2.30714"><ele>1038.0</ele><time>2026-04-13T11:23:17.673Z</time></trkpt><trkpt lat="38.4890057" lon="-2.3069877"><ele>1035.0</ele><time>2026-04-13T11:23:18.673Z</time></trkpt><trkpt lat="38.4889437" lon="-2.3068349"><ele>1032.0</ele><time>2026-04-13T11:23:19.673Z</time></trkpt><trkpt lat="38.4888853" lon="-2.3066871"><ele>1032.0</ele><time>2026-04-13T11:23:20.673Z</time></trkpt><trkpt lat="38.4888256" lon="-2.3065346"><ele>1032.0</ele><time>2026-04-13T11:23:21.673Z</time></trkpt><trkpt lat="38.4887683" lon="-2.3063738"><ele>1032.0</ele><time>2026-04-13T11:23:22.673Z</time></trkpt><trkpt lat="38.4887199" lon="-2.3062066"><ele>1032.0</ele><time>2026-04-13T11:23:23.673Z</time></trkpt><trkpt lat="38.4886798" lon="-2.3060304"><ele>1043.6666666666667</ele><time>2026-04-13T11:23:24.674Z</time></trkpt><trkpt lat="38.4886524" lon="-2.3058496"><ele>1055.3333333333335</ele><time>2026-04-13T11:23:25.673Z</time></trkpt><trkpt lat="38.4886324" lon="-2.3056592"><ele>1067.0</ele><time>2026-04-13T11:23:26.673Z</time></trkpt><trkpt lat="38.4886452" lon="-2.3054566"><ele>1067.6666666666667</ele><time>2026-04-13T11:23:27.673Z</time></trkpt><trkpt lat="38.4886504" lon="-2.3052515"><ele>1068.3333333333333</ele><time>2026-04-13T11:23:28.673Z</time></trkpt><trkpt lat="38.4886494" lon="-2.3050394"><ele>1069.0</ele><time>2026-04-13T11:23:29.673Z</time></trkpt><trkpt lat="38.4886317" lon="-2.3048228"><ele>1067.3333333333333</ele><time>2026-04-13T11:23:30.673Z</time></trkpt><trkpt lat="38.4885968" lon="-2.3046034"><ele>1065.6666666666667</ele><time>2026-04-13T11:23:31.673Z</time></trkpt><trkpt lat="38.4885574" lon="-2.3043828"><ele>1064.0</ele><time>2026-04-13T11:23:32.673Z</time></trkpt><trkpt lat="38.4885095" lon="-2.3041553"><ele>1064.0</ele><time>2026-04-13T11:23:33.673Z</time></trkpt><trkpt lat="38.4884387" lon="-2.3039295"><ele>1064.0</ele><time>2026-04-13T11:23:34.673Z</time></trkpt><trkpt lat="38.4883633" lon="-2.3036981"><ele>1064.0</ele><time>2026-04-13T11:23:35.673Z</time></trkpt><trkpt lat="38.4882954" lon="-2.303461"><ele>1061.6666666666667</ele><time>2026-04-13T11:23:36.673Z</time></trkpt><trkpt lat="38.4882387" lon="-2.3032158"><ele>1059.3333333333333</ele><time>2026-04-13T11:23:37.673Z</time></trkpt><trkpt lat="38.4881932" lon="-2.3029624"><ele>1057.0</ele><time>2026-04-13T11:23:38.673Z</time></trkpt><trkpt lat="38.488158" lon="-2.3026975"><ele>1057.3333333333333</ele><time>2026-04-13T11:23:39.673Z</time></trkpt><trkpt lat="38.4881524" lon="-2.3024316"><ele>1057.6666666666667</ele><time>2026-04-13T11:23:40.673Z</time></trkpt><trkpt lat="38.4881342" lon="-2.3021609"><ele>1058.0</ele><time>2026-04-13T11:23:41.673Z</time></trkpt><trkpt lat="38.4881081" lon="-2.3018934"><ele>1058.0</ele><time>2026-04-13T11:23:42.673Z</time></trkpt><trkpt lat="38.4880676" lon="-2.3016253"><ele>1058.0</ele><time>2026-04-13T11:23:43.673Z</time></trkpt><trkpt lat="38.4880142" lon="-2.3013599"><ele>1058.0</ele><time>2026-04-13T11:23:44.673Z</time></trkpt><trkpt lat="38.4879599" lon="-2.3010924"><ele>1071.6666666666667</ele><time>2026-04-13T11:23:45.673Z</time></trkpt><trkpt lat="38.4879157" lon="-2.300823"><ele>1085.3333333333333</ele><time>2026-04-13T11:23:46.673Z</time></trkpt><trkpt lat="38.4878824" lon="-2.3005566"><ele>1099.0</ele><time>2026-04-13T11:23:47.673Z</time></trkpt><trkpt lat="38.4878547" lon="-2.3002915"><ele>1099.0</ele><time>2026-04-13T11:23:48.673Z</time></trkpt><trkpt lat="38.4878345" lon="-2.3000253"><ele>1099.0</ele><time>2026-04-13T11:23:49.673Z</time></trkpt><trkpt lat="38.4878158" lon="-2.2997623"><ele>1099.0</ele><time>2026-04-13T11:23:50.674Z</time></trkpt><trkpt lat="38.487826" lon="-2.2995062"><ele>1101.0</ele><time>2026-04-13T11:23:51.673Z</time></trkpt><trkpt lat="38.4878452" lon="-2.2992669"><ele>1103.0</ele><time>2026-04-13T11:23:52.673Z</time></trkpt><trkpt lat="38.4878765" lon="-2.2990289"><ele>1105.0</ele><time>2026-04-13T11:23:53.673Z</time></trkpt><trkpt lat="38.4879007" lon="-2.29879"><ele>1108.0</ele><time>2026-04-13T11:23:54.673Z</time></trkpt><trkpt lat="38.4879141" lon="-2.2985544"><ele>1111.0</ele><time>2026-04-13T11:23:55.674Z</time></trkpt><trkpt lat="38.487917" lon="-2.2983223"><ele>1114.0</ele><time>2026-04-13T11:23:56.674Z</time></trkpt><trkpt lat="38.4879184" lon="-2.2980944"><ele>1119.3333333333333</ele><time>2026-04-13T11:23:57.673Z</time></trkpt><trkpt lat="38.4879228" lon="-2.2978727"><ele>1124.6666666666667</ele><time>2026-04-13T11:23:58.673Z</time></trkpt><trkpt lat="38.4879377" lon="-2.2976503"><ele>1130.0</ele><time>2026-04-13T11:23:59.673Z</time></trkpt><trkpt lat="38.4879675" lon="-2.2974301"><ele>1120.3333333333335</ele><time>2026-04-13T11:24:00.673Z</time></trkpt><trkpt lat="38.4880467" lon="-2.2972186"><ele>1110.6666666666667</ele><time>2026-04-13T11:24:01.673Z</time></trkpt><trkpt lat="38.4881447" lon="-2.2970298"><ele>1101.0</ele><time>2026-04-13T11:24:02.673Z</time></trkpt><trkpt lat="38.4882474" lon="-2.2968535"><ele>1101.0</ele><time>2026-04-13T11:24:03.673Z</time></trkpt><trkpt lat="38.4883499" lon="-2.2967065"><ele>1101.0</ele><time>2026-04-13T11:24:04.673Z</time></trkpt><trkpt lat="38.4884706" lon="-2.2966016"><ele>1101.0</ele><time>2026-04-13T11:24:05.673Z</time></trkpt><trkpt lat="38.4886316" lon="-2.2966086"><ele>1097.0</ele><time>2026-04-13T11:24:06.673Z</time></trkpt><trkpt lat="38.4887817" lon="-2.2966563"><ele>1093.0</ele><time>2026-04-13T11:24:07.673Z</time></trkpt><trkpt lat="38.4889265" lon="-2.296664"><ele>1089.0</ele><time>2026-04-13T11:24:08.673Z</time></trkpt><trkpt lat="38.4890658" lon="-2.2966144"><ele>1085.0</ele><time>2026-04-13T11:24:09.673Z</time></trkpt><trkpt lat="38.4891731" lon="-2.2965007"><ele>1087.75</ele><time>2026-04-13T11:24:10.673Z</time></trkpt><trkpt lat="38.4892343" lon="-2.2963369"><ele>1090.5</ele><time>2026-04-13T11:24:11.673Z</time></trkpt><trkpt lat="38.4892487" lon="-2.2961448"><ele>1093.25</ele><time>2026-04-13T11:24:12.673Z</time></trkpt><trkpt lat="38.4892213" lon="-2.2959517"><ele>1096.0</ele><time>2026-04-13T11:24:13.673Z</time></trkpt><trkpt lat="38.4891772" lon="-2.2957584"><ele>1091.6666666666665</ele><time>2026-04-13T11:24:14.673Z</time></trkpt><trkpt lat="38.4891146" lon="-2.2955636"><ele>1087.3333333333333</ele><time>2026-04-13T11:24:15.673Z</time></trkpt><trkpt lat="38.4890278" lon="-2.2953666"><ele>1083.0</ele><time>2026-04-13T11:24:16.673Z</time></trkpt><trkpt lat="38.4889275" lon="-2.2951734"><ele>1083.0</ele><time>2026-04-13T11:24:17.673Z</time></trkpt><trkpt lat="38.4888255" lon="-2.2949742"><ele>1083.0</ele><time>2026-04-13T11:24:18.673Z</time></trkpt><trkpt lat="38.4887162" lon="-2.2947755"><ele>1083.0</ele><time>2026-04-13T11:24:19.673Z</time></trkpt><trkpt lat="38.4885974" lon="-2.2945808"><ele>1086.6666666666667</ele><time>2026-04-13T11:24:20.673Z</time></trkpt><trkpt lat="38.4884486" lon="-2.2944131"><ele>1090.3333333333335</ele><time>2026-04-13T11:24:21.673Z</time></trkpt><trkpt lat="38.4882962" lon="-2.2942473"><ele>1094.0</ele><time>2026-04-13T11:24:22.673Z</time></trkpt><trkpt lat="38.4881467" lon="-2.2940809"><ele>1100.0</ele><time>2026-04-13T11:24:23.673Z</time></trkpt><trkpt lat="38.4879995" lon="-2.2939077"><ele>1106.0</ele><time>2026-04-13T11:24:24.673Z</time></trkpt><trkpt lat="38.4878749" lon="-2.2937021"><ele>1112.0</ele><time>2026-04-13T11:24:25.673Z</time></trkpt><trkpt lat="38.4877808" lon="-2.2934786"><ele>1112.0</ele><time>2026-04-13T11:24:26.673Z</time></trkpt><trkpt lat="38.4877036" lon="-2.2932458"><ele>1112.0</ele><time>2026-04-13T11:24:27.673Z</time></trkpt><trkpt lat="38.4876357" lon="-2.2930113"><ele>1112.0</ele><time>2026-04-13T11:24:28.673Z</time></trkpt><trkpt lat="38.4875747" lon="-2.2927795"><ele>1110.0</ele><time>2026-04-13T11:24:29.673Z</time></trkpt><trkpt lat="38.4875402" lon="-2.2925435"><ele>1108.0</ele><time>2026-04-13T11:24:30.673Z</time></trkpt><trkpt lat="38.4875302" lon="-2.2923175"><ele>1106.0</ele><time>2026-04-13T11:24:31.673Z</time></trkpt><trkpt lat="38.4875147" lon="-2.2921046"><ele>1102.6666666666667</ele><time>2026-04-13T11:24:32.673Z</time></trkpt><trkpt lat="38.4874595" lon="-2.2919096"><ele>1099.3333333333333</ele><time>2026-04-13T11:24:33.673Z</time></trkpt><trkpt lat="38.4873699" lon="-2.291728"><ele>1096.0</ele><time>2026-04-13T11:24:34.673Z</time></trkpt><trkpt lat="38.4872664" lon="-2.2915548"><ele>1091.0</ele><time>2026-04-13T11:24:35.673Z</time></trkpt><trkpt lat="38.4871752" lon="-2.2913665"><ele>1086.0</ele><time>2026-04-13T11:24:36.673Z</time></trkpt><trkpt lat="38.4871075" lon="-2.2911568"><ele>1081.0</ele><time>2026-04-13T11:24:37.673Z</time></trkpt><trkpt lat="38.4870568" lon="-2.2909427"><ele>1087.0</ele><time>2026-04-13T11:24:38.673Z</time></trkpt><trkpt lat="38.4870129" lon="-2.2907282"><ele>1093.0</ele><time>2026-04-13T11:24:39.673Z</time></trkpt><trkpt lat="38.4869551" lon="-2.2905167"><ele>1099.0</ele><time>2026-04-13T11:24:40.673Z</time></trkpt><trkpt lat="38.4868709" lon="-2.2903159"><ele>1099.0</ele><time>2026-04-13T11:24:41.673Z</time></trkpt><trkpt lat="38.486753" lon="-2.2901361"><ele>1099.0</ele><time>2026-04-13T11:24:42.673Z</time></trkpt><trkpt lat="38.4866166" lon="-2.2899844"><ele>1099.0</ele><time>2026-04-13T11:24:43.673Z</time></trkpt><trkpt lat="38.4864698" lon="-2.289839"><ele>1093.3333333333333</ele><time>2026-04-13T11:24:44.673Z</time></trkpt><trkpt lat="38.486338" lon="-2.2896777"><ele>1087.6666666666667</ele><time>2026-04-13T11:24:45.673Z</time></trkpt><trkpt lat="38.4862276" lon="-2.2894876"><ele>1082.0</ele><time>2026-04-13T11:24:46.673Z</time></trkpt><trkpt lat="38.4861377" lon="-2.2892833"><ele>1094.3333333333335</ele><time>2026-04-13T11:24:47.673Z</time></trkpt><trkpt lat="38.4860576" lon="-2.2890704"><ele>1106.6666666666667</ele><time>2026-04-13T11:24:48.673Z</time></trkpt><trkpt lat="38.4859887" lon="-2.288859"><ele>1119.0</ele><time>2026-04-13T11:24:49.673Z</time></trkpt><trkpt lat="38.4859397" lon="-2.2886426"><ele>1119.0</ele><time>2026-04-13T11:24:50.673Z</time></trkpt><trkpt lat="38.4859169" lon="-2.2884291"><ele>1119.0</ele><time>2026-04-13T11:24:51.673Z</time></trkpt><trkpt lat="38.4859542" lon="-2.2882171"><ele>1119.0</ele><time>2026-04-13T11:24:52.673Z</time></trkpt><trkpt lat="38.4860341" lon="-2.2880249"><ele>1122.0</ele><time>2026-04-13T11:24:53.673Z</time></trkpt><trkpt lat="38.4861458" lon="-2.2878636"><ele>1125.0</ele><time>2026-04-13T11:24:54.673Z</time></trkpt><trkpt lat="38.4862755" lon="-2.287723"><ele>1128.0</ele><time>2026-04-13T11:24:55.673Z</time></trkpt><trkpt lat="38.4864111" lon="-2.2875976"><ele>1121.6666666666667</ele><time>2026-04-13T11:24:56.673Z</time></trkpt><trkpt lat="38.4865339" lon="-2.2874562"><ele>1115.3333333333335</ele><time>2026-04-13T11:24:57.673Z</time></trkpt><trkpt lat="38.4866039" lon="-2.2872836"><ele>1109.0</ele><time>2026-04-13T11:24:58.673Z</time></trkpt><trkpt lat="38.4866248" lon="-2.2870941"><ele>1109.0</ele><time>2026-04-13T11:24:59.673Z</time></trkpt><trkpt lat="38.4866039" lon="-2.2868914"><ele>1109.0</ele><time>2026-04-13T11:25:00.673Z</time></trkpt><trkpt lat="38.486575" lon="-2.2867067"><ele>1109.0</ele><time>2026-04-13T11:25:01.673Z</time></trkpt><trkpt lat="38.4865689" lon="-2.2865294"><ele>1109.0</ele><time>2026-04-13T11:25:02.673Z</time></trkpt><trkpt lat="38.4865951" lon="-2.2863494"><ele>1111.25</ele><time>2026-04-13T11:25:03.673Z</time></trkpt><trkpt lat="38.4866697" lon="-2.2861935"><ele>1113.5</ele><time>2026-04-13T11:25:04.673Z</time></trkpt><trkpt lat="38.4867616" lon="-2.2860446"><ele>1115.75</ele><time>2026-04-13T11:25:05.673Z</time></trkpt><trkpt lat="38.4868559" lon="-2.2858948"><ele>1118.0</ele><time>2026-04-13T11:25:06.673Z</time></trkpt><trkpt lat="38.4869539" lon="-2.2857433"><ele>1117.3333333333335</ele><time>2026-04-13T11:25:07.673Z</time></trkpt><trkpt lat="38.4870549" lon="-2.2855895"><ele>1116.6666666666667</ele><time>2026-04-13T11:25:08.673Z</time></trkpt><trkpt lat="38.4871556" lon="-2.2854321"><ele>1116.0</ele><time>2026-04-13T11:25:09.673Z</time></trkpt><trkpt lat="38.4872563" lon="-2.2852732"><ele>1116.0</ele><time>2026-04-13T11:25:10.673Z</time></trkpt><trkpt lat="38.4873611" lon="-2.2851234"><ele>1116.0</ele><time>2026-04-13T11:25:11.673Z</time></trkpt><trkpt lat="38.4874834" lon="-2.2849984"><ele>1116.0</ele><time>2026-04-13T11:25:12.673Z</time></trkpt><trkpt lat="38.4876293" lon="-2.2849127"><ele>1116.0</ele><time>2026-04-13T11:25:13.673Z</time></trkpt><trkpt lat="38.4877917" lon="-2.2848657"><ele>1116.0</ele><time>2026-04-13T11:25:14.673Z</time></trkpt><trkpt lat="38.487961" lon="-2.284856"><ele>1116.0</ele><time>2026-04-13T11:25:15.673Z</time></trkpt><trkpt lat="38.4881346" lon="-2.2848661"><ele>1115.3333333333333</ele><time>2026-04-13T11:25:16.673Z</time></trkpt><trkpt lat="38.4883129" lon="-2.2848832"><ele>1114.6666666666665</ele><time>2026-04-13T11:25:17.673Z</time></trkpt><trkpt lat="38.4884868" lon="-2.2849006"><ele>1114.0</ele><time>2026-04-13T11:25:18.673Z</time></trkpt><trkpt lat="38.4886619" lon="-2.2849138"><ele>1115.3333333333333</ele><time>2026-04-13T11:25:19.673Z</time></trkpt><trkpt lat="38.4888306" lon="-2.2849227"><ele>1116.6666666666667</ele><time>2026-04-13T11:25:20.673Z</time></trkpt><trkpt lat="38.4889921" lon="-2.2848889"><ele>1118.0</ele><time>2026-04-13T11:25:21.673Z</time></trkpt><trkpt lat="38.4891475" lon="-2.2848109"><ele>1122.0</ele><time>2026-04-13T11:25:22.673Z</time></trkpt><trkpt lat="38.4892886" lon="-2.2846808"><ele>1126.0</ele><time>2026-04-13T11:25:23.673Z</time></trkpt><trkpt lat="38.4894029" lon="-2.2845143"><ele>1130.0</ele><time>2026-04-13T11:25:24.673Z</time></trkpt><trkpt lat="38.4895049" lon="-2.2843253"><ele>1130.3333333333335</ele><time>2026-04-13T11:25:25.673Z</time></trkpt><trkpt lat="38.4896131" lon="-2.284139"><ele>1130.6666666666667</ele><time>2026-04-13T11:25:26.673Z</time></trkpt><trkpt lat="38.4897379" lon="-2.2839715"><ele>1131.0</ele><time>2026-04-13T11:25:27.673Z</time></trkpt><trkpt lat="38.4898822" lon="-2.2838193"><ele>1131.0</ele><time>2026-04-13T11:25:28.673Z</time></trkpt><trkpt lat="38.4900439" lon="-2.2836808"><ele>1131.0</ele><time>2026-04-13T11:25:29.673Z</time></trkpt><trkpt lat="38.4902126" lon="-2.2835475"><ele>1131.0</ele><time>2026-04-13T11:25:30.673Z</time></trkpt><trkpt lat="38.490382" lon="-2.2834121"><ele>1130.3333333333333</ele><time>2026-04-13T11:25:31.674Z</time></trkpt><trkpt lat="38.4905508" lon="-2.2832751"><ele>1129.6666666666665</ele><time>2026-04-13T11:25:32.673Z</time></trkpt><trkpt lat="38.4907212" lon="-2.2831353"><ele>1129.0</ele><time>2026-04-13T11:25:33.674Z</time></trkpt><trkpt lat="38.4908904" lon="-2.2829974"><ele>1129.6666666666665</ele><time>2026-04-13T11:25:34.673Z</time></trkpt><trkpt lat="38.4910538" lon="-2.282862"><ele>1130.3333333333333</ele><time>2026-04-13T11:25:35.673Z</time></trkpt><trkpt lat="38.4912138" lon="-2.2827261"><ele>1131.0</ele><time>2026-04-13T11:25:36.673Z</time></trkpt><trkpt lat="38.491361" lon="-2.2825758"><ele>1131.0</ele><time>2026-04-13T11:25:37.673Z</time></trkpt><trkpt lat="38.4915013" lon="-2.2824117"><ele>1131.0</ele><time>2026-04-13T11:25:38.673Z</time></trkpt><trkpt lat="38.4916339" lon="-2.2822291"><ele>1131.0</ele><time>2026-04-13T11:25:39.673Z</time></trkpt><trkpt lat="38.4917554" lon="-2.2820316"><ele>1130.6666666666667</ele><time>2026-04-13T11:25:40.674Z</time></trkpt><trkpt lat="38.4918669" lon="-2.2818137"><ele>1130.3333333333335</ele><time>2026-04-13T11:25:41.673Z</time></trkpt><trkpt lat="38.4919713" lon="-2.2815991"><ele>1130.0</ele><time>2026-04-13T11:25:42.673Z</time></trkpt><trkpt lat="38.4920439" lon="-2.2813131"><ele>1127.6666666666667</ele><time>2026-04-13T11:25:43.673Z</time></trkpt><trkpt lat="38.4921162" lon="-2.2810477"><ele>1125.3333333333333</ele><time>2026-04-13T11:25:44.673Z</time></trkpt><trkpt lat="38.4921899" lon="-2.2807785"><ele>1123.0</ele><time>2026-04-13T11:25:45.673Z</time></trkpt><trkpt lat="38.4922571" lon="-2.2805178"><ele>1123.0</ele><time>2026-04-13T11:25:46.673Z</time></trkpt><trkpt lat="38.4923287" lon="-2.2802183"><ele>1123.0</ele><time>2026-04-13T11:25:47.673Z</time></trkpt><trkpt lat="38.4923996" lon="-2.2799286"><ele>1122.0</ele><time>2026-04-13T11:25:48.673Z</time></trkpt><trkpt lat="38.4924693" lon="-2.2796416"><ele>1121.0</ele><time>2026-04-13T11:25:49.673Z</time></trkpt><trkpt lat="38.4925412" lon="-2.279346"><ele>1121.0</ele><time>2026-04-13T11:25:50.673Z</time></trkpt><trkpt lat="38.4926132" lon="-2.2790465"><ele>1121.0</ele><time>2026-04-13T11:25:51.673Z</time></trkpt><trkpt lat="38.4926859" lon="-2.2787453"><ele>1120.5</ele><time>2026-04-13T11:25:52.673Z</time></trkpt><trkpt lat="38.492757" lon="-2.2784483"><ele>1120.0</ele><time>2026-04-13T11:25:53.673Z</time></trkpt><trkpt lat="38.4928307" lon="-2.2781502"><ele>1119.0</ele><time>2026-04-13T11:25:54.673Z</time></trkpt><trkpt lat="38.4929053" lon="-2.2778562"><ele>1118.0</ele><time>2026-04-13T11:25:55.673Z</time></trkpt><trkpt lat="38.4929755" lon="-2.277578"><ele>1116.6666666666667</ele><time>2026-04-13T11:25:56.673Z</time></trkpt><trkpt lat="38.4930425" lon="-2.2773078"><ele>1115.3333333333333</ele><time>2026-04-13T11:25:57.673Z</time></trkpt><trkpt lat="38.4931104" lon="-2.2770338"><ele>1114.0</ele><time>2026-04-13T11:25:58.674Z</time></trkpt><trkpt lat="38.4931662" lon="-2.2767573"><ele>1112.5</ele><time>2026-04-13T11:25:59.673Z</time></trkpt><trkpt lat="38.4932027" lon="-2.2764706"><ele>1111.0</ele><time>2026-04-13T11:26:00.673Z</time></trkpt><trkpt lat="38.4932117" lon="-2.2761787"><ele>1107.5</ele><time>2026-04-13T11:26:01.673Z</time></trkpt><trkpt lat="38.4931964" lon="-2.2758799"><ele>1104.0</ele><time>2026-04-13T11:26:02.673Z</time></trkpt><trkpt lat="38.4931719" lon="-2.2755793"><ele>1103.0</ele><time>2026-04-13T11:26:03.673Z</time></trkpt><trkpt lat="38.493152" lon="-2.2752754"><ele>1102.0</ele><time>2026-04-13T11:26:04.673Z</time></trkpt><trkpt lat="38.4931479" lon="-2.2749666"><ele>1099.0</ele><time>2026-04-13T11:26:05.674Z</time></trkpt><trkpt lat="38.4931635" lon="-2.2746521"><ele>1096.0</ele><time>2026-04-13T11:26:06.673Z</time></trkpt><trkpt lat="38.4931999" lon="-2.2743317"><ele>1096.0</ele><time>2026-04-13T11:26:07.673Z</time></trkpt><trkpt lat="38.4932387" lon="-2.2740143"><ele>1096.0</ele><time>2026-04-13T11:26:08.673Z</time></trkpt><trkpt lat="38.4932785" lon="-2.273696"><ele>1092.5</ele><time>2026-04-13T11:26:09.673Z</time></trkpt><trkpt lat="38.4933134" lon="-2.2733762"><ele>1089.0</ele><time>2026-04-13T11:26:10.673Z</time></trkpt><trkpt lat="38.4933504" lon="-2.2730589"><ele>1088.0</ele><time>2026-04-13T11:26:11.673Z</time></trkpt><trkpt lat="38.4933907" lon="-2.2727443"><ele>1087.0</ele><time>2026-04-13T11:26:12.673Z</time></trkpt><trkpt lat="38.4934423" lon="-2.27243"><ele>1084.5</ele><time>2026-04-13T11:26:13.673Z</time></trkpt><trkpt lat="38.4935118" lon="-2.2721229"><ele>1082.0</ele><time>2026-04-13T11:26:14.673Z</time></trkpt><trkpt lat="38.4936032" lon="-2.2718212"><ele>1082.0</ele><time>2026-04-13T11:26:15.673Z</time></trkpt><trkpt lat="38.4937008" lon="-2.2715204"><ele>1082.0</ele><time>2026-04-13T11:26:16.673Z</time></trkpt><trkpt lat="38.4938011" lon="-2.2712154"><ele>1081.0</ele><time>2026-04-13T11:26:17.673Z</time></trkpt><trkpt lat="38.493902" lon="-2.2709105"><ele>1080.0</ele><time>2026-04-13T11:26:18.673Z</time></trkpt><trkpt lat="38.4940063" lon="-2.2706047"><ele>1077.0</ele><time>2026-04-13T11:26:19.673Z</time></trkpt><trkpt lat="38.4941067" lon="-2.2703004"><ele>1074.0</ele><time>2026-04-13T11:26:20.673Z</time></trkpt><trkpt lat="38.4942058" lon="-2.2699938"><ele>1073.0</ele><time>2026-04-13T11:26:21.673Z</time></trkpt><trkpt lat="38.4943071" lon="-2.2696924"><ele>1072.0</ele><time>2026-04-13T11:26:22.673Z</time></trkpt><trkpt lat="38.4944099" lon="-2.2693909"><ele>1072.0</ele><time>2026-04-13T11:26:23.673Z</time></trkpt><trkpt lat="38.4945109" lon="-2.2690889"><ele>1072.0</ele><time>2026-04-13T11:26:24.673Z</time></trkpt><trkpt lat="38.4946145" lon="-2.2687867"><ele>1072.5</ele><time>2026-04-13T11:26:25.673Z</time></trkpt><trkpt lat="38.4947134" lon="-2.2684854"><ele>1073.0</ele><time>2026-04-13T11:26:26.673Z</time></trkpt><trkpt lat="38.494801" lon="-2.2681776"><ele>1071.0</ele><time>2026-04-13T11:26:27.673Z</time></trkpt><trkpt lat="38.4948785" lon="-2.2678573"><ele>1069.0</ele><time>2026-04-13T11:26:28.673Z</time></trkpt><trkpt lat="38.4949462" lon="-2.2675349"><ele>1069.0</ele><time>2026-04-13T11:26:29.673Z</time></trkpt><trkpt lat="38.4949953" lon="-2.2672039"><ele>1069.0</ele><time>2026-04-13T11:26:30.673Z</time></trkpt><trkpt lat="38.4950318" lon="-2.2668633"><ele>1069.0</ele><time>2026-04-13T11:26:31.673Z</time></trkpt><trkpt lat="38.4950673" lon="-2.2665191"><ele>1069.0</ele><time>2026-04-13T11:26:32.673Z</time></trkpt><trkpt lat="38.4951018" lon="-2.2661786"><ele>1067.0</ele><time>2026-04-13T11:26:33.673Z</time></trkpt><trkpt lat="38.4951363" lon="-2.2658382"><ele>1065.0</ele><time>2026-04-13T11:26:34.673Z</time></trkpt><trkpt lat="38.4951656" lon="-2.2655023"><ele>1063.5</ele><time>2026-04-13T11:26:35.673Z</time></trkpt><trkpt lat="38.4951768" lon="-2.265165"><ele>1062.0</ele><time>2026-04-13T11:26:36.673Z</time></trkpt><trkpt lat="38.4951703" lon="-2.2648279"><ele>1061.0</ele><time>2026-04-13T11:26:37.673Z</time></trkpt><trkpt lat="38.4951518" lon="-2.2644906"><ele>1060.0</ele><time>2026-04-13T11:26:38.673Z</time></trkpt><trkpt lat="38.4951263" lon="-2.2641587"><ele>1061.0</ele><time>2026-04-13T11:26:39.673Z</time></trkpt><trkpt lat="38.4950992" lon="-2.2638301"><ele>1062.0</ele><time>2026-04-13T11:26:40.673Z</time></trkpt><trkpt lat="38.4950697" lon="-2.2635064"><ele>1062.0</ele><time>2026-04-13T11:26:41.673Z</time></trkpt><trkpt lat="38.4950424" lon="-2.2631845"><ele>1062.0</ele><time>2026-04-13T11:26:42.673Z</time></trkpt><trkpt lat="38.4950158" lon="-2.2628717"><ele>1061.0</ele><time>2026-04-13T11:26:43.673Z</time></trkpt><trkpt lat="38.4949896" lon="-2.2625621"><ele>1060.0</ele><time>2026-04-13T11:26:44.673Z</time></trkpt><trkpt lat="38.4949657" lon="-2.2622604"><ele>1059.0</ele><time>2026-04-13T11:26:45.673Z</time></trkpt><trkpt lat="38.4949538" lon="-2.261958"><ele>1058.0</ele><time>2026-04-13T11:26:46.673Z</time></trkpt><trkpt lat="38.4949581" lon="-2.2616561"><ele>1056.0</ele><time>2026-04-13T11:26:47.673Z</time></trkpt><trkpt lat="38.4949886" lon="-2.26135"><ele>1054.0</ele><time>2026-04-13T11:26:48.673Z</time></trkpt><trkpt lat="38.4950413" lon="-2.2610471"><ele>1054.0</ele><time>2026-04-13T11:26:49.673Z</time></trkpt><trkpt lat="38.4951108" lon="-2.260745"><ele>1054.0</ele><time>2026-04-13T11:26:50.673Z</time></trkpt><trkpt lat="38.495191" lon="-2.2604425"><ele>1051.0</ele><time>2026-04-13T11:26:51.673Z</time></trkpt><trkpt lat="38.4952731" lon="-2.2601392"><ele>1048.0</ele><time>2026-04-13T11:26:52.673Z</time></trkpt><trkpt lat="38.4953483" lon="-2.259837"><ele>1044.0</ele><time>2026-04-13T11:26:53.673Z</time></trkpt><trkpt lat="38.4954115" lon="-2.2595281"><ele>1040.0</ele><time>2026-04-13T11:26:54.673Z</time></trkpt><trkpt lat="38.4954779" lon="-2.2592156"><ele>1044.5</ele><time>2026-04-13T11:26:55.673Z</time></trkpt><trkpt lat="38.4955502" lon="-2.258908"><ele>1049.0</ele><time>2026-04-13T11:26:56.673Z</time></trkpt><trkpt lat="38.4956228" lon="-2.2586037"><ele>1049.0</ele><time>2026-04-13T11:26:57.673Z</time></trkpt><trkpt lat="38.4956992" lon="-2.2583041"><ele>1049.0</ele><time>2026-04-13T11:26:58.673Z</time></trkpt><trkpt lat="38.4957737" lon="-2.258005"><ele>1047.0</ele><time>2026-04-13T11:26:59.673Z</time></trkpt><trkpt lat="38.4958268" lon="-2.2577137"><ele>1045.0</ele><time>2026-04-13T11:27:00.673Z</time></trkpt><trkpt lat="38.4958621" lon="-2.2574188"><ele>1044.0</ele><time>2026-04-13T11:27:01.673Z</time></trkpt><trkpt lat="38.4958607" lon="-2.2571206"><ele>1043.0</ele><time>2026-04-13T11:27:02.673Z</time></trkpt><trkpt lat="38.4958391" lon="-2.2568162"><ele>1043.0</ele><time>2026-04-13T11:27:03.673Z</time></trkpt><trkpt lat="38.4958148" lon="-2.2565091"><ele>1043.0</ele><time>2026-04-13T11:27:04.673Z</time></trkpt><trkpt lat="38.4958055" lon="-2.2561985"><ele>1040.5</ele><time>2026-04-13T11:27:05.673Z</time></trkpt><trkpt lat="38.4958238" lon="-2.2558805"><ele>1038.0</ele><time>2026-04-13T11:27:06.673Z</time></trkpt><trkpt lat="38.4958561" lon="-2.2555612"><ele>1034.5</ele><time>2026-04-13T11:27:07.673Z</time></trkpt><trkpt lat="38.4958952" lon="-2.2552399"><ele>1031.0</ele><time>2026-04-13T11:27:08.673Z</time></trkpt><trkpt lat="38.495928" lon="-2.2549138"><ele>1029.0</ele><time>2026-04-13T11:27:09.673Z</time></trkpt><trkpt lat="38.4959655" lon="-2.2545873"><ele>1027.0</ele><time>2026-04-13T11:27:10.673Z</time></trkpt><trkpt lat="38.4960027" lon="-2.254257"><ele>1023.5</ele><time>2026-04-13T11:27:11.673Z</time></trkpt><trkpt lat="38.4960402" lon="-2.2539217"><ele>1020.0</ele><time>2026-04-13T11:27:12.673Z</time></trkpt><trkpt lat="38.4960776" lon="-2.2535849"><ele>1020.0</ele><time>2026-04-13T11:27:13.673Z</time></trkpt><trkpt lat="38.4961105" lon="-2.2532547"><ele>1020.0</ele><time>2026-04-13T11:27:14.673Z</time></trkpt><trkpt lat="38.4961468" lon="-2.2529087"><ele>1018.0</ele><time>2026-04-13T11:27:15.673Z</time></trkpt><trkpt lat="38.4961871" lon="-2.2525633"><ele>1016.0</ele><time>2026-04-13T11:27:16.673Z</time></trkpt><trkpt lat="38.4962221" lon="-2.2522245"><ele>1016.5</ele><time>2026-04-13T11:27:17.673Z</time></trkpt><trkpt lat="38.4962536" lon="-2.2519034"><ele>1017.0</ele><time>2026-04-13T11:27:18.673Z</time></trkpt><trkpt lat="38.4962906" lon="-2.2515836"><ele>1012.5</ele><time>2026-04-13T11:27:19.673Z</time></trkpt><trkpt lat="38.496321" lon="-2.2512545"><ele>1008.0</ele><time>2026-04-13T11:27:20.673Z</time></trkpt><trkpt lat="38.49634" lon="-2.2509235"><ele>1005.5</ele><time>2026-04-13T11:27:21.673Z</time></trkpt><trkpt lat="38.4963404" lon="-2.2505905"><ele>1003.0</ele><time>2026-04-13T11:27:22.673Z</time></trkpt><trkpt lat="38.496314" lon="-2.2502492"><ele>1003.0</ele><time>2026-04-13T11:27:23.673Z</time></trkpt><trkpt lat="38.4962635" lon="-2.2499116"><ele>1003.0</ele><time>2026-04-13T11:27:24.673Z</time></trkpt><trkpt lat="38.4961946" lon="-2.2495832"><ele>1001.0</ele><time>2026-04-13T11:27:25.673Z</time></trkpt><trkpt lat="38.4961075" lon="-2.2492599"><ele>999.0</ele><time>2026-04-13T11:27:26.673Z</time></trkpt><trkpt lat="38.4960156" lon="-2.2489458"><ele>999.0</ele><time>2026-04-13T11:27:27.673Z</time></trkpt><trkpt lat="38.4959231" lon="-2.2486395"><ele>999.0</ele><time>2026-04-13T11:27:28.673Z</time></trkpt><trkpt lat="38.4958319" lon="-2.2483431"><ele>1004.0</ele><time>2026-04-13T11:27:29.673Z</time></trkpt><trkpt lat="38.495748" lon="-2.2480629"><ele>1009.0</ele><time>2026-04-13T11:27:30.673Z</time></trkpt><trkpt lat="38.4956681" lon="-2.247796"><ele>1009.0</ele><time>2026-04-13T11:27:31.673Z</time></trkpt><trkpt lat="38.4955884" lon="-2.2475422"><ele>1009.0</ele><time>2026-04-13T11:27:32.673Z</time></trkpt><trkpt lat="38.4955175" lon="-2.2473046"><ele>1009.0</ele><time>2026-04-13T11:27:33.673Z</time></trkpt><trkpt lat="38.4954533" lon="-2.2470835"><ele>1007.3333333333333</ele><time>2026-04-13T11:27:34.673Z</time></trkpt><trkpt lat="38.4954054" lon="-2.2468686"><ele>1005.6666666666667</ele><time>2026-04-13T11:27:35.673Z</time></trkpt><trkpt lat="38.4953776" lon="-2.2466546"><ele>1004.0</ele><time>2026-04-13T11:27:36.673Z</time></trkpt><trkpt lat="38.4953705" lon="-2.2464468"><ele>1004.0</ele><time>2026-04-13T11:27:37.673Z</time></trkpt><trkpt lat="38.4953839" lon="-2.2462452"><ele>1004.0</ele><time>2026-04-13T11:27:38.673Z</time></trkpt><trkpt lat="38.495403" lon="-2.2460503"><ele>1004.0</ele><time>2026-04-13T11:27:39.673Z</time></trkpt><trkpt lat="38.4954266" lon="-2.245862"><ele>1007.5</ele><time>2026-04-13T11:27:40.673Z</time></trkpt><trkpt lat="38.4954478" lon="-2.2456885"><ele>1011.0</ele><time>2026-04-13T11:27:41.673Z</time></trkpt><trkpt lat="38.4954624" lon="-2.2455275"><ele>1014.5</ele><time>2026-04-13T11:27:42.673Z</time></trkpt><trkpt lat="38.4954746" lon="-2.245369"><ele>1018.0</ele><time>2026-04-13T11:27:43.673Z</time></trkpt><trkpt lat="38.4954802" lon="-2.2452166"><ele>1018.5</ele><time>2026-04-13T11:27:44.673Z</time></trkpt><trkpt lat="38.4954778" lon="-2.2450606"><ele>1019.0</ele><time>2026-04-13T11:27:45.673Z</time></trkpt><trkpt lat="38.4954665" lon="-2.2448966"><ele>1019.5</ele><time>2026-04-13T11:27:46.673Z</time></trkpt><trkpt lat="38.4954448" lon="-2.2447264"><ele>1020.0</ele><time>2026-04-13T11:27:47.673Z</time></trkpt><trkpt lat="38.4954146" lon="-2.2445528"><ele>1018.75</ele><time>2026-04-13T11:27:48.673Z</time></trkpt><trkpt lat="38.495373" lon="-2.2443853"><ele>1017.5</ele><time>2026-04-13T11:27:49.673Z</time></trkpt><trkpt lat="38.4953225" lon="-2.2442258"><ele>1016.25</ele><time>2026-04-13T11:27:50.673Z</time></trkpt><trkpt lat="38.4952637" lon="-2.2440717"><ele>1015.0</ele><time>2026-04-13T11:27:51.673Z</time></trkpt><trkpt lat="38.495198" lon="-2.2439254"><ele>1015.0</ele><time>2026-04-13T11:27:52.673Z</time></trkpt><trkpt lat="38.4951276" lon="-2.2437887"><ele>1015.0</ele><time>2026-04-13T11:27:53.673Z</time></trkpt><trkpt lat="38.4950487" lon="-2.2436569"><ele>1015.0</ele><time>2026-04-13T11:27:54.673Z</time></trkpt><trkpt lat="38.4949697" lon="-2.2435332"><ele>1015.0</ele><time>2026-04-13T11:27:55.673Z</time></trkpt><trkpt lat="38.4948891" lon="-2.243416"><ele>1015.0</ele><time>2026-04-13T11:27:56.673Z</time></trkpt><trkpt lat="38.4948084" lon="-2.2433041"><ele>1015.0</ele><time>2026-04-13T11:27:57.673Z</time></trkpt><trkpt lat="38.4947289" lon="-2.2431926"><ele>1015.0</ele><time>2026-04-13T11:27:58.673Z</time></trkpt><trkpt lat="38.494653" lon="-2.243087"><ele>1015.0</ele><time>2026-04-13T11:27:59.673Z</time></trkpt><trkpt lat="38.4945767" lon="-2.2429841"><ele>1014.8333333333333</ele><time>2026-04-13T11:28:00.673Z</time></trkpt><trkpt lat="38.4945028" lon="-2.2428794"><ele>1014.6666666666666</ele><time>2026-04-13T11:28:01.673Z</time></trkpt><trkpt lat="38.4944465" lon="-2.2428031"><ele>1014.5</ele><time>2026-04-13T11:28:02.673Z</time></trkpt><trkpt lat="38.4943905" lon="-2.2427211"><ele>1014.3333333333333</ele><time>2026-04-13T11:28:03.673Z</time></trkpt><trkpt lat="38.494338" lon="-2.2426491"><ele>1014.1666666666666</ele><time>2026-04-13T11:28:04.673Z</time></trkpt><trkpt lat="38.4942878" lon="-2.2425779"><ele>1014.0</ele><time>2026-04-13T11:28:05.673Z</time></trkpt><trkpt lat="38.4942368" lon="-2.2425099"><ele>1014.0</ele><time>2026-04-13T11:28:06.673Z</time></trkpt><trkpt lat="38.4941842" lon="-2.2424383"><ele>1014.0</ele><time>2026-04-13T11:28:07.673Z</time></trkpt><trkpt lat="38.4941294" lon="-2.2423648"><ele>1014.0</ele><time>2026-04-13T11:28:08.673Z</time></trkpt><trkpt lat="38.4940735" lon="-2.2422849"><ele>1014.0</ele><time>2026-04-13T11:28:09.673Z</time></trkpt><trkpt lat="38.4940071" lon="-2.242199"><ele>1014.0</ele><time>2026-04-13T11:28:10.673Z</time></trkpt><trkpt lat="38.4939368" lon="-2.2421015"><ele>1014.0</ele><time>2026-04-13T11:28:11.673Z</time></trkpt><trkpt lat="38.4938561" lon="-2.2419914"><ele>1012.5</ele><time>2026-04-13T11:28:12.673Z</time></trkpt><trkpt lat="38.4937707" lon="-2.2418724"><ele>1011.0</ele><time>2026-04-13T11:28:13.673Z</time></trkpt><trkpt lat="38.493679" lon="-2.241749"><ele>1009.5</ele><time>2026-04-13T11:28:14.673Z</time></trkpt><trkpt lat="38.4935867" lon="-2.2416203"><ele>1008.0</ele><time>2026-04-13T11:28:15.673Z</time></trkpt><trkpt lat="38.4934836" lon="-2.241483"><ele>1012.3333333333333</ele><time>2026-04-13T11:28:16.673Z</time></trkpt><trkpt lat="38.493375" lon="-2.2413335"><ele>1016.6666666666666</ele><time>2026-04-13T11:28:17.673Z</time></trkpt><trkpt lat="38.4932618" lon="-2.2411758"><ele>1021.0</ele><time>2026-04-13T11:28:18.673Z</time></trkpt><trkpt lat="38.4931403" lon="-2.2410107"><ele>1021.0</ele><time>2026-04-13T11:28:19.674Z</time></trkpt><trkpt lat="38.4930133" lon="-2.2408352"><ele>1021.0</ele><time>2026-04-13T11:28:20.673Z</time></trkpt><trkpt lat="38.4928848" lon="-2.2406557"><ele>1021.0</ele><time>2026-04-13T11:28:21.673Z</time></trkpt><trkpt lat="38.4927487" lon="-2.240474"><ele>1018.3333333333333</ele><time>2026-04-13T11:28:22.673Z</time></trkpt><trkpt lat="38.4926145" lon="-2.2402834"><ele>1015.6666666666667</ele><time>2026-04-13T11:28:23.673Z</time></trkpt><trkpt lat="38.4924762" lon="-2.2400843"><ele>1013.0</ele><time>2026-04-13T11:28:24.674Z</time></trkpt><trkpt lat="38.4923397" lon="-2.2398731"><ele>1011.3333333333334</ele><time>2026-04-13T11:28:25.673Z</time></trkpt><trkpt lat="38.4922093" lon="-2.2396529"><ele>1009.6666666666667</ele><time>2026-04-13T11:28:26.673Z</time></trkpt><trkpt lat="38.4920826" lon="-2.2394221"><ele>1008.0</ele><time>2026-04-13T11:28:27.673Z</time></trkpt><trkpt lat="38.4919576" lon="-2.2391761"><ele>1000.5</ele><time>2026-04-13T11:28:28.673Z</time></trkpt><trkpt lat="38.4918478" lon="-2.2389158"><ele>993.0</ele><time>2026-04-13T11:28:29.673Z</time></trkpt><trkpt lat="38.4917438" lon="-2.2386489"><ele>993.0</ele><time>2026-04-13T11:28:30.673Z</time></trkpt><trkpt lat="38.4916468" lon="-2.2383776"><ele>993.0</ele><time>2026-04-13T11:28:31.673Z</time></trkpt><trkpt lat="38.4915607" lon="-2.2380953"><ele>994.5</ele><time>2026-04-13T11:28:32.673Z</time></trkpt><trkpt lat="38.4914896" lon="-2.2378106"><ele>996.0</ele><time>2026-04-13T11:28:33.673Z</time></trkpt><trkpt lat="38.4914312" lon="-2.2375171"><ele>999.5</ele><time>2026-04-13T11:28:34.673Z</time></trkpt><trkpt lat="38.4913791" lon="-2.2372265"><ele>1003.0</ele><time>2026-04-13T11:28:35.673Z</time></trkpt><trkpt lat="38.491335" lon="-2.2369311"><ele>1003.0</ele><time>2026-04-13T11:28:36.673Z</time></trkpt><trkpt lat="38.4913014" lon="-2.2366385"><ele>1003.0</ele><time>2026-04-13T11:28:37.673Z</time></trkpt><trkpt lat="38.4912647" lon="-2.2363482"><ele>1010.0</ele><time>2026-04-13T11:28:38.673Z</time></trkpt><trkpt lat="38.4912302" lon="-2.236059"><ele>1017.0</ele><time>2026-04-13T11:28:39.673Z</time></trkpt><trkpt lat="38.4911946" lon="-2.2357525"><ele>1017.6666666666667</ele><time>2026-04-13T11:28:40.673Z</time></trkpt><trkpt lat="38.4911479" lon="-2.2354917"><ele>1018.3333333333334</ele><time>2026-04-13T11:28:41.673Z</time></trkpt><trkpt lat="38.4911154" lon="-2.2352251"><ele>1019.0</ele><time>2026-04-13T11:28:42.673Z</time></trkpt><trkpt lat="38.4910903" lon="-2.2349772"><ele>1019.6666666666667</ele><time>2026-04-13T11:28:43.673Z</time></trkpt><trkpt lat="38.4910567" lon="-2.2347229"><ele>1020.3333333333333</ele><time>2026-04-13T11:28:44.673Z</time></trkpt><trkpt lat="38.4910247" lon="-2.2344738"><ele>1021.0</ele><time>2026-04-13T11:28:45.673Z</time></trkpt><trkpt lat="38.4909927" lon="-2.2342305"><ele>1021.0</ele><time>2026-04-13T11:28:46.673Z</time></trkpt><trkpt lat="38.4909644" lon="-2.2339945"><ele>1021.0</ele><time>2026-04-13T11:28:47.673Z</time></trkpt><trkpt lat="38.4909363" lon="-2.2337635"><ele>1021.0</ele><time>2026-04-13T11:28:48.673Z</time></trkpt><trkpt lat="38.4909084" lon="-2.2335316"><ele>1021.6666666666666</ele><time>2026-04-13T11:28:49.673Z</time></trkpt><trkpt lat="38.49088" lon="-2.2332958"><ele>1022.3333333333333</ele><time>2026-04-13T11:28:50.673Z</time></trkpt><trkpt lat="38.4908507" lon="-2.233059"><ele>1023.0</ele><time>2026-04-13T11:28:51.673Z</time></trkpt><trkpt lat="38.4908188" lon="-2.2328198"><ele>1021.6666666666667</ele><time>2026-04-13T11:28:52.673Z</time></trkpt><trkpt lat="38.4907878" lon="-2.2325769"><ele>1020.3333333333334</ele><time>2026-04-13T11:28:53.673Z</time></trkpt><trkpt lat="38.4907562" lon="-2.2323344"><ele>1019.0</ele><time>2026-04-13T11:28:54.673Z</time></trkpt><trkpt lat="38.4907182" lon="-2.2320855"><ele>1018.3333333333334</ele><time>2026-04-13T11:28:55.673Z</time></trkpt><trkpt lat="38.4906732" lon="-2.2318408"><ele>1017.6666666666667</ele><time>2026-04-13T11:28:56.673Z</time></trkpt><trkpt lat="38.4906183" lon="-2.2315853"><ele>1017.0</ele><time>2026-04-13T11:28:57.673Z</time></trkpt><trkpt lat="38.4905546" lon="-2.2313272"><ele>1016.5</ele><time>2026-04-13T11:28:58.674Z</time></trkpt><trkpt lat="38.4904688" lon="-2.2310598"><ele>1016.0</ele><time>2026-04-13T11:28:59.673Z</time></trkpt><trkpt lat="38.4903725" lon="-2.2307816"><ele>1013.0</ele><time>2026-04-13T11:29:00.673Z</time></trkpt><trkpt lat="38.4902604" lon="-2.2305013"><ele>1010.0</ele><time>2026-04-13T11:29:01.673Z</time></trkpt><trkpt lat="38.4901301" lon="-2.2302144"><ele>1010.0</ele><time>2026-04-13T11:29:02.673Z</time></trkpt><trkpt lat="38.4899879" lon="-2.2299232"><ele>1010.0</ele><time>2026-04-13T11:29:03.673Z</time></trkpt><trkpt lat="38.4898355" lon="-2.229636"><ele>1008.0</ele><time>2026-04-13T11:29:04.673Z</time></trkpt><trkpt lat="38.4896759" lon="-2.2293508"><ele>1006.0</ele><time>2026-04-13T11:29:05.673Z</time></trkpt><trkpt lat="38.4895115" lon="-2.229065"><ele>1004.5</ele><time>2026-04-13T11:29:06.673Z</time></trkpt><trkpt lat="38.489347" lon="-2.2287811"><ele>1003.0</ele><time>2026-04-13T11:29:07.673Z</time></trkpt><trkpt lat="38.4891807" lon="-2.228495"><ele>1003.0</ele><time>2026-04-13T11:29:08.673Z</time></trkpt><trkpt lat="38.4890168" lon="-2.2282015"><ele>1003.0</ele><time>2026-04-13T11:29:09.673Z</time></trkpt><trkpt lat="38.4888613" lon="-2.2278941"><ele>1001.0</ele><time>2026-04-13T11:29:10.673Z</time></trkpt><trkpt lat="38.4887139" lon="-2.2275667"><ele>999.0</ele><time>2026-04-13T11:29:11.673Z</time></trkpt><trkpt lat="38.4885735" lon="-2.2272248"><ele>998.0</ele><time>2026-04-13T11:29:12.674Z</time></trkpt><trkpt lat="38.488427" lon="-2.2268793"><ele>997.0</ele><time>2026-04-13T11:29:13.673Z</time></trkpt><trkpt lat="38.4882805" lon="-2.2265283"><ele>996.0</ele><time>2026-04-13T11:29:14.673Z</time></trkpt><trkpt lat="38.4881302" lon="-2.226184"><ele>995.0</ele><time>2026-04-13T11:29:15.673Z</time></trkpt><trkpt lat="38.487982" lon="-2.2258472"><ele>994.0</ele><time>2026-04-13T11:29:16.673Z</time></trkpt><trkpt lat="38.4878308" lon="-2.2255225"><ele>993.0</ele><time>2026-04-13T11:29:17.673Z</time></trkpt><trkpt lat="38.4876861" lon="-2.2252167"><ele>993.0</ele><time>2026-04-13T11:29:18.673Z</time></trkpt><trkpt lat="38.487522" lon="-2.224933"><ele>993.0</ele><time>2026-04-13T11:29:19.673Z</time></trkpt><trkpt lat="38.4873318" lon="-2.2246705"><ele>994.0</ele><time>2026-04-13T11:29:20.673Z</time></trkpt><trkpt lat="38.487129" lon="-2.2244284"><ele>995.0</ele><time>2026-04-13T11:29:21.673Z</time></trkpt><trkpt lat="38.486924" lon="-2.2241918"><ele>991.5</ele><time>2026-04-13T11:29:22.673Z</time></trkpt><trkpt lat="38.4867146" lon="-2.2239558"><ele>988.0</ele><time>2026-04-13T11:29:23.673Z</time></trkpt><trkpt lat="38.4865051" lon="-2.2237231"><ele>988.0</ele><time>2026-04-13T11:29:24.674Z</time></trkpt><trkpt lat="38.4862971" lon="-2.2234871"><ele>988.0</ele><time>2026-04-13T11:29:25.674Z</time></trkpt><trkpt lat="38.486092" lon="-2.2232514"><ele>986.5</ele><time>2026-04-13T11:29:26.673Z</time></trkpt><trkpt lat="38.4858843" lon="-2.2230181"><ele>985.0</ele><time>2026-04-13T11:29:27.673Z</time></trkpt><trkpt lat="38.4856832" lon="-2.2227908"><ele>985.0</ele><time>2026-04-13T11:29:28.673Z</time></trkpt><trkpt lat="38.4854824" lon="-2.2225643"><ele>985.0</ele><time>2026-04-13T11:29:29.673Z</time></trkpt><trkpt lat="38.4852866" lon="-2.2223432"><ele>983.5</ele><time>2026-04-13T11:29:30.673Z</time></trkpt><trkpt lat="38.4850932" lon="-2.2221193"><ele>982.0</ele><time>2026-04-13T11:29:31.673Z</time></trkpt><trkpt lat="38.4849056" lon="-2.221881"><ele>982.0</ele><time>2026-04-13T11:29:32.673Z</time></trkpt><trkpt lat="38.4847265" lon="-2.221632"><ele>982.0</ele><time>2026-04-13T11:29:33.674Z</time></trkpt><trkpt lat="38.4845524" lon="-2.2213678"><ele>979.0</ele><time>2026-04-13T11:29:34.673Z</time></trkpt><trkpt lat="38.4843889" lon="-2.2210818"><ele>976.0</ele><time>2026-04-13T11:29:35.673Z</time></trkpt><trkpt lat="38.4842239" lon="-2.2207999"><ele>976.5</ele><time>2026-04-13T11:29:36.673Z</time></trkpt><trkpt lat="38.4840595" lon="-2.220518"><ele>977.0</ele><time>2026-04-13T11:29:37.673Z</time></trkpt><trkpt lat="38.4838954" lon="-2.2202398"><ele>976.0</ele><time>2026-04-13T11:29:38.673Z</time></trkpt><trkpt lat="38.4837312" lon="-2.2199622"><ele>975.0</ele><time>2026-04-13T11:29:39.673Z</time></trkpt><trkpt lat="38.483571" lon="-2.2196847"><ele>975.0</ele><time>2026-04-13T11:29:40.673Z</time></trkpt><trkpt lat="38.4834095" lon="-2.2194092"><ele>975.0</ele><time>2026-04-13T11:29:41.673Z</time></trkpt><trkpt lat="38.4832461" lon="-2.2191316"><ele>977.0</ele><time>2026-04-13T11:29:42.673Z</time></trkpt><trkpt lat="38.4830831" lon="-2.2188552"><ele>979.0</ele><time>2026-04-13T11:29:43.673Z</time></trkpt><trkpt lat="38.4829178" lon="-2.2185804"><ele>974.0</ele><time>2026-04-13T11:29:44.673Z</time></trkpt><trkpt lat="38.4827526" lon="-2.2183116"><ele>969.0</ele><time>2026-04-13T11:29:45.673Z</time></trkpt><trkpt lat="38.4825786" lon="-2.2180539"><ele>969.0</ele><time>2026-04-13T11:29:46.673Z</time></trkpt><trkpt lat="38.4823972" lon="-2.2178061"><ele>969.0</ele><time>2026-04-13T11:29:47.674Z</time></trkpt><trkpt lat="38.4822069" lon="-2.2175716"><ele>969.0</ele><time>2026-04-13T11:29:48.673Z</time></trkpt><trkpt lat="38.4820118" lon="-2.2173466"><ele>969.0</ele><time>2026-04-13T11:29:49.673Z</time></trkpt><trkpt lat="38.4818128" lon="-2.2171249"><ele>969.0</ele><time>2026-04-13T11:29:50.673Z</time></trkpt><trkpt lat="38.4816115" lon="-2.2169031"><ele>969.0</ele><time>2026-04-13T11:29:51.673Z</time></trkpt><trkpt lat="38.481408" lon="-2.2166817"><ele>964.5</ele><time>2026-04-13T11:29:52.673Z</time></trkpt><trkpt lat="38.4812043" lon="-2.2164532"><ele>960.0</ele><time>2026-04-13T11:29:53.673Z</time></trkpt><trkpt lat="38.4810071" lon="-2.216232"><ele>960.0</ele><time>2026-04-13T11:29:54.673Z</time></trkpt><trkpt lat="38.4808122" lon="-2.2159846"><ele>960.0</ele><time>2026-04-13T11:29:55.673Z</time></trkpt><trkpt lat="38.4806302" lon="-2.2157284"><ele>961.0</ele><time>2026-04-13T11:29:56.674Z</time></trkpt><trkpt lat="38.4804597" lon="-2.2154596"><ele>962.0</ele><time>2026-04-13T11:29:57.673Z</time></trkpt><trkpt lat="38.4803004" lon="-2.2151846"><ele>960.5</ele><time>2026-04-13T11:29:58.673Z</time></trkpt><trkpt lat="38.4801581" lon="-2.2148927"><ele>959.0</ele><time>2026-04-13T11:29:59.673Z</time></trkpt><trkpt lat="38.4800291" lon="-2.2145911"><ele>959.0</ele><time>2026-04-13T11:30:00.673Z</time></trkpt><trkpt lat="38.4799124" lon="-2.2142786"><ele>959.0</ele><time>2026-04-13T11:30:01.673Z</time></trkpt><trkpt lat="38.4798118" lon="-2.2139561"><ele>959.0</ele><time>2026-04-13T11:30:02.674Z</time></trkpt><trkpt lat="38.4797252" lon="-2.213624"><ele>959.0</ele><time>2026-04-13T11:30:03.673Z</time></trkpt><trkpt lat="38.4796486" lon="-2.213285"><ele>955.5</ele><time>2026-04-13T11:30:04.673Z</time></trkpt><trkpt lat="38.4795733" lon="-2.2129509"><ele>952.0</ele><time>2026-04-13T11:30:05.673Z</time></trkpt><trkpt lat="38.4795175" lon="-2.2125926"><ele>954.0</ele><time>2026-04-13T11:30:06.673Z</time></trkpt><trkpt lat="38.4794551" lon="-2.2122448"><ele>956.0</ele><time>2026-04-13T11:30:07.673Z</time></trkpt><trkpt lat="38.4793853" lon="-2.2118956"><ele>956.0</ele><time>2026-04-13T11:30:08.674Z</time></trkpt><trkpt lat="38.4793185" lon="-2.2115411"><ele>956.0</ele><time>2026-04-13T11:30:09.673Z</time></trkpt><trkpt lat="38.4792134" lon="-2.2112029"><ele>955.0</ele><time>2026-04-13T11:30:10.673Z</time></trkpt><trkpt lat="38.4790953" lon="-2.2108665"><ele>954.0</ele><time>2026-04-13T11:30:11.673Z</time></trkpt><trkpt lat="38.4789708" lon="-2.2105275"><ele>952.5</ele><time>2026-04-13T11:30:12.673Z</time></trkpt><trkpt lat="38.4788458" lon="-2.2101903"><ele>951.0</ele><time>2026-04-13T11:30:13.673Z</time></trkpt><trkpt lat="38.4787224" lon="-2.2098488"><ele>947.0</ele><time>2026-04-13T11:30:14.673Z</time></trkpt><trkpt lat="38.4785988" lon="-2.2095058"><ele>943.0</ele><time>2026-04-13T11:30:15.673Z</time></trkpt><trkpt lat="38.4784689" lon="-2.2091595"><ele>943.0</ele><time>2026-04-13T11:30:16.673Z</time></trkpt><trkpt lat="38.4783453" lon="-2.2088183"><ele>943.0</ele><time>2026-04-13T11:30:17.673Z</time></trkpt><trkpt lat="38.4782194" lon="-2.2084798"><ele>942.5</ele><time>2026-04-13T11:30:18.673Z</time></trkpt><trkpt lat="38.4780956" lon="-2.2081426"><ele>942.0</ele><time>2026-04-13T11:30:19.673Z</time></trkpt><trkpt lat="38.4779763" lon="-2.2078151"><ele>939.5</ele><time>2026-04-13T11:30:20.673Z</time></trkpt><trkpt lat="38.4778533" lon="-2.2074876"><ele>937.0</ele><time>2026-04-13T11:30:21.673Z</time></trkpt><trkpt lat="38.4777242" lon="-2.2071611"><ele>937.0</ele><time>2026-04-13T11:30:22.673Z</time></trkpt><trkpt lat="38.4775872" lon="-2.2068394"><ele>937.0</ele><time>2026-04-13T11:30:23.673Z</time></trkpt><trkpt lat="38.4774473" lon="-2.2065194"><ele>938.5</ele><time>2026-04-13T11:30:24.673Z</time></trkpt><trkpt lat="38.4773078" lon="-2.206204"><ele>940.0</ele><time>2026-04-13T11:30:25.673Z</time></trkpt><trkpt lat="38.4771675" lon="-2.2058953"><ele>937.5</ele><time>2026-04-13T11:30:26.673Z</time></trkpt><trkpt lat="38.4770259" lon="-2.2055867"><ele>935.0</ele><time>2026-04-13T11:30:27.673Z</time></trkpt><trkpt lat="38.4768862" lon="-2.2052849"><ele>935.0</ele><time>2026-04-13T11:30:28.673Z</time></trkpt><trkpt lat="38.4767381" lon="-2.2049928"><ele>935.0</ele><time>2026-04-13T11:30:29.673Z</time></trkpt><trkpt lat="38.4765731" lon="-2.2047114"><ele>934.5</ele><time>2026-04-13T11:30:30.673Z</time></trkpt><trkpt lat="38.4763927" lon="-2.2044452"><ele>934.0</ele><time>2026-04-13T11:30:31.673Z</time></trkpt><trkpt lat="38.4762112" lon="-2.2041867"><ele>933.0</ele><time>2026-04-13T11:30:32.673Z</time></trkpt><trkpt lat="38.47603" lon="-2.2039277"><ele>932.0</ele><time>2026-04-13T11:30:33.673Z</time></trkpt><trkpt lat="38.4758518" lon="-2.2036717"><ele>932.0</ele><time>2026-04-13T11:30:34.673Z</time></trkpt><trkpt lat="38.4756766" lon="-2.2034153"><ele>932.0</ele><time>2026-04-13T11:30:35.673Z</time></trkpt><trkpt lat="38.4755073" lon="-2.2031527"><ele>930.5</ele><time>2026-04-13T11:30:36.673Z</time></trkpt><trkpt lat="38.4753486" lon="-2.2028724"><ele>929.0</ele><time>2026-04-13T11:30:37.673Z</time></trkpt><trkpt lat="38.4752136" lon="-2.2025721"><ele>928.5</ele><time>2026-04-13T11:30:38.674Z</time></trkpt><trkpt lat="38.47509" lon="-2.2022608"><ele>928.0</ele><time>2026-04-13T11:30:39.673Z</time></trkpt><trkpt lat="38.4749711" lon="-2.2019579"><ele>928.0</ele><time>2026-04-13T11:30:40.673Z</time></trkpt><trkpt lat="38.4748586" lon="-2.2016725"><ele>928.0</ele><time>2026-04-13T11:30:41.673Z</time></trkpt><trkpt lat="38.4747546" lon="-2.2013858"><ele>928.0</ele><time>2026-04-13T11:30:42.673Z</time></trkpt><trkpt lat="38.4746686" lon="-2.2010832"><ele>928.0</ele><time>2026-04-13T11:30:43.673Z</time></trkpt><trkpt lat="38.4746121" lon="-2.200769"><ele>925.0</ele><time>2026-04-13T11:30:44.673Z</time></trkpt><trkpt lat="38.4745866" lon="-2.2004426"><ele>922.0</ele><time>2026-04-13T11:30:45.673Z</time></trkpt><trkpt lat="38.4745868" lon="-2.2001119"><ele>922.0</ele><time>2026-04-13T11:30:46.673Z</time></trkpt><trkpt lat="38.4746182" lon="-2.1997778"><ele>922.0</ele><time>2026-04-13T11:30:47.673Z</time></trkpt><trkpt lat="38.4746759" lon="-2.1994435"><ele>922.0</ele><time>2026-04-13T11:30:48.673Z</time></trkpt><trkpt lat="38.4747545" lon="-2.1991032"><ele>922.0</ele><time>2026-04-13T11:30:49.673Z</time></trkpt><trkpt lat="38.4748323" lon="-2.1987662"><ele>921.0</ele><time>2026-04-13T11:30:50.673Z</time></trkpt><trkpt lat="38.4749096" lon="-2.1984326"><ele>920.0</ele><time>2026-04-13T11:30:51.673Z</time></trkpt><trkpt lat="38.474986" lon="-2.1981016"><ele>918.0</ele><time>2026-04-13T11:30:52.673Z</time></trkpt><trkpt lat="38.4750643" lon="-2.1977688"><ele>916.0</ele><time>2026-04-13T11:30:53.673Z</time></trkpt><trkpt lat="38.4751417" lon="-2.1974361"><ele>914.5</ele><time>2026-04-13T11:30:54.673Z</time></trkpt><trkpt lat="38.4752146" lon="-2.1971044"><ele>913.0</ele><time>2026-04-13T11:30:55.673Z</time></trkpt><trkpt lat="38.4752785" lon="-2.1967716"><ele>913.5</ele><time>2026-04-13T11:30:56.673Z</time></trkpt><trkpt lat="38.4753413" lon="-2.1964394"><ele>914.0</ele><time>2026-04-13T11:30:57.673Z</time></trkpt><trkpt lat="38.4753959" lon="-2.1961074"><ele>919.0</ele><time>2026-04-13T11:30:58.673Z</time></trkpt><trkpt lat="38.4754437" lon="-2.1957713"><ele>924.0</ele><time>2026-04-13T11:30:59.673Z</time></trkpt><trkpt lat="38.4754869" lon="-2.1954432"><ele>924.5</ele><time>2026-04-13T11:31:00.673Z</time></trkpt><trkpt lat="38.4755241" lon="-2.19511"><ele>925.0</ele><time>2026-04-13T11:31:01.673Z</time></trkpt><trkpt lat="38.4755595" lon="-2.1947746"><ele>925.0</ele><time>2026-04-13T11:31:02.674Z</time></trkpt><trkpt lat="38.4755912" lon="-2.1944397"><ele>925.0</ele><time>2026-04-13T11:31:03.673Z</time></trkpt><trkpt lat="38.4756208" lon="-2.1941021"><ele>924.5</ele><time>2026-04-13T11:31:04.673Z</time></trkpt><trkpt lat="38.4756409" lon="-2.1937618"><ele>924.0</ele><time>2026-04-13T11:31:05.674Z</time></trkpt><trkpt lat="38.4756553" lon="-2.1934187"><ele>922.5</ele><time>2026-04-13T11:31:06.674Z</time></trkpt><trkpt lat="38.4756627" lon="-2.1930683"><ele>921.0</ele><time>2026-04-13T11:31:07.673Z</time></trkpt><trkpt lat="38.4756677" lon="-2.1927122"><ele>921.0</ele><time>2026-04-13T11:31:08.673Z</time></trkpt><trkpt lat="38.4756713" lon="-2.1923556"><ele>921.0</ele><time>2026-04-13T11:31:09.673Z</time></trkpt><trkpt lat="38.4756715" lon="-2.191996"><ele>919.0</ele><time>2026-04-13T11:31:10.673Z</time></trkpt><trkpt lat="38.4756708" lon="-2.191636"><ele>917.0</ele><time>2026-04-13T11:31:11.673Z</time></trkpt><trkpt lat="38.4756694" lon="-2.1912857"><ele>915.5</ele><time>2026-04-13T11:31:12.673Z</time></trkpt><trkpt lat="38.4756673" lon="-2.1909341"><ele>914.0</ele><time>2026-04-13T11:31:13.673Z</time></trkpt><trkpt lat="38.4756653" lon="-2.1905864"><ele>913.0</ele><time>2026-04-13T11:31:14.673Z</time></trkpt><trkpt lat="38.4756651" lon="-2.1902424"><ele>912.0</ele><time>2026-04-13T11:31:15.673Z</time></trkpt><trkpt lat="38.4756614" lon="-2.1898984"><ele>910.0</ele><time>2026-04-13T11:31:16.673Z</time></trkpt><trkpt lat="38.4756605" lon="-2.1895569"><ele>908.0</ele><time>2026-04-13T11:31:17.673Z</time></trkpt><trkpt lat="38.4756599" lon="-2.1892194"><ele>906.0</ele><time>2026-04-13T11:31:18.673Z</time></trkpt><trkpt lat="38.4756581" lon="-2.18889"><ele>904.0</ele><time>2026-04-13T11:31:19.673Z</time></trkpt><trkpt lat="38.475656" lon="-2.1885875"><ele>904.0</ele><time>2026-04-13T11:31:20.673Z</time></trkpt><trkpt lat="38.4756377" lon="-2.1882846"><ele>904.0</ele><time>2026-04-13T11:31:21.673Z</time></trkpt><trkpt lat="38.4755787" lon="-2.1879919"><ele>906.0</ele><time>2026-04-13T11:31:22.673Z</time></trkpt><trkpt lat="38.4754843" lon="-2.1877084"><ele>908.0</ele><time>2026-04-13T11:31:23.673Z</time></trkpt><trkpt lat="38.475369" lon="-2.1874274"><ele>904.5</ele><time>2026-04-13T11:31:24.673Z</time></trkpt><trkpt lat="38.4752495" lon="-2.1871422"><ele>901.0</ele><time>2026-04-13T11:31:25.673Z</time></trkpt><trkpt lat="38.4751261" lon="-2.1868515"><ele>901.0</ele><time>2026-04-13T11:31:26.673Z</time></trkpt><trkpt lat="38.4750042" lon="-2.1865702"><ele>901.0</ele><time>2026-04-13T11:31:27.673Z</time></trkpt><trkpt lat="38.4748819" lon="-2.1862896"><ele>903.5</ele><time>2026-04-13T11:31:28.673Z</time></trkpt><trkpt lat="38.4747694" lon="-2.1860196"><ele>906.0</ele><time>2026-04-13T11:31:29.673Z</time></trkpt><trkpt lat="38.4746793" lon="-2.1857443"><ele>907.0</ele><time>2026-04-13T11:31:30.673Z</time></trkpt><trkpt lat="38.4746243" lon="-2.1854536"><ele>908.0</ele><time>2026-04-13T11:31:31.673Z</time></trkpt><trkpt lat="38.474587" lon="-2.1851526"><ele>901.5</ele><time>2026-04-13T11:31:32.673Z</time></trkpt><trkpt lat="38.4745577" lon="-2.1848481"><ele>895.0</ele><time>2026-04-13T11:31:33.673Z</time></trkpt><trkpt lat="38.4745262" lon="-2.1845473"><ele>895.0</ele><time>2026-04-13T11:31:34.673Z</time></trkpt><trkpt lat="38.4744859" lon="-2.18427"><ele>895.0</ele><time>2026-04-13T11:31:35.673Z</time></trkpt><trkpt lat="38.474422" lon="-2.1840065"><ele>895.0</ele><time>2026-04-13T11:31:36.673Z</time></trkpt><trkpt lat="38.474312" lon="-2.183771"><ele>896.3333333333333</ele><time>2026-04-13T11:31:37.673Z</time></trkpt><trkpt lat="38.4741705" lon="-2.1835633"><ele>897.6666666666667</ele><time>2026-04-13T11:31:38.673Z</time></trkpt><trkpt lat="38.4740311" lon="-2.1833567"><ele>899.0</ele><time>2026-04-13T11:31:39.673Z</time></trkpt><trkpt lat="38.4739081" lon="-2.1831294"><ele>899.0</ele><time>2026-04-13T11:31:40.673Z</time></trkpt><trkpt lat="38.473817" lon="-2.1828826"><ele>899.0</ele><time>2026-04-13T11:31:41.673Z</time></trkpt><trkpt lat="38.4737582" lon="-2.1826062"><ele>899.0</ele><time>2026-04-13T11:31:42.673Z</time></trkpt><trkpt lat="38.4737374" lon="-2.1823191"><ele>898.0</ele><time>2026-04-13T11:31:43.673Z</time></trkpt><trkpt lat="38.473753" lon="-2.182026"><ele>897.0</ele><time>2026-04-13T11:31:44.673Z</time></trkpt><trkpt lat="38.4737956" lon="-2.1817401"><ele>895.0</ele><time>2026-04-13T11:31:45.673Z</time></trkpt><trkpt lat="38.4738492" lon="-2.1814609"><ele>893.0</ele><time>2026-04-13T11:31:46.673Z</time></trkpt><trkpt lat="38.4738972" lon="-2.1811938"><ele>891.0</ele><time>2026-04-13T11:31:47.674Z</time></trkpt><trkpt lat="38.4739451" lon="-2.1809437"><ele>891.0</ele><time>2026-04-13T11:31:48.673Z</time></trkpt><trkpt lat="38.4740032" lon="-2.1807064"><ele>891.0</ele><time>2026-04-13T11:31:49.673Z</time></trkpt><trkpt lat="38.4740977" lon="-2.180491"><ele>891.0</ele><time>2026-04-13T11:31:50.673Z</time></trkpt><trkpt lat="38.474229" lon="-2.180302"><ele>890.3333333333333</ele><time>2026-04-13T11:31:51.673Z</time></trkpt><trkpt lat="38.4743819" lon="-2.1801447"><ele>889.6666666666666</ele><time>2026-04-13T11:31:52.673Z</time></trkpt><trkpt lat="38.4745327" lon="-2.180005"><ele>889.0</ele><time>2026-04-13T11:31:53.673Z</time></trkpt><trkpt lat="38.4746586" lon="-2.1798551"><ele>889.0</ele><time>2026-04-13T11:31:54.673Z</time></trkpt><trkpt lat="38.4747605" lon="-2.1796819"><ele>889.0</ele><time>2026-04-13T11:31:55.674Z</time></trkpt><trkpt lat="38.4748339" lon="-2.1794764"><ele>889.0</ele><time>2026-04-13T11:31:56.673Z</time></trkpt><trkpt lat="38.4748781" lon="-2.1792499"><ele>887.6666666666666</ele><time>2026-04-13T11:31:57.673Z</time></trkpt><trkpt lat="38.4749066" lon="-2.1790062"><ele>886.3333333333333</ele><time>2026-04-13T11:31:58.673Z</time></trkpt><trkpt lat="38.4749386" lon="-2.1787528"><ele>885.0</ele><time>2026-04-13T11:31:59.673Z</time></trkpt><trkpt lat="38.4749737" lon="-2.1784937"><ele>885.0</ele><time>2026-04-13T11:32:00.673Z</time></trkpt><trkpt lat="38.4750084" lon="-2.1782244"><ele>885.0</ele><time>2026-04-13T11:32:01.673Z</time></trkpt><trkpt lat="38.4750427" lon="-2.1779573"><ele>885.0</ele><time>2026-04-13T11:32:02.673Z</time></trkpt><trkpt lat="38.4750765" lon="-2.1776867"><ele>884.6666666666667</ele><time>2026-04-13T11:32:03.673Z</time></trkpt><trkpt lat="38.4751128" lon="-2.1774197"><ele>884.3333333333334</ele><time>2026-04-13T11:32:04.673Z</time></trkpt><trkpt lat="38.4751472" lon="-2.1771571"><ele>884.0</ele><time>2026-04-13T11:32:05.673Z</time></trkpt><trkpt lat="38.4751681" lon="-2.1769006"><ele>884.0</ele><time>2026-04-13T11:32:06.673Z</time></trkpt><trkpt lat="38.475157" lon="-2.1766449"><ele>884.0</ele><time>2026-04-13T11:32:07.673Z</time></trkpt><trkpt lat="38.4751119" lon="-2.1763916"><ele>884.0</ele><time>2026-04-13T11:32:08.673Z</time></trkpt><trkpt lat="38.4750357" lon="-2.1761466"><ele>886.3333333333334</ele><time>2026-04-13T11:32:09.673Z</time></trkpt><trkpt lat="38.4749231" lon="-2.1759163"><ele>888.6666666666667</ele><time>2026-04-13T11:32:10.673Z</time></trkpt><trkpt lat="38.4747825" lon="-2.1756973"><ele>891.0</ele><time>2026-04-13T11:32:11.673Z</time></trkpt><trkpt lat="38.4746386" lon="-2.1754772"><ele>885.5</ele><time>2026-04-13T11:32:12.673Z</time></trkpt><trkpt lat="38.4744894" lon="-2.1752538"><ele>880.0</ele><time>2026-04-13T11:32:13.673Z</time></trkpt><trkpt lat="38.4743386" lon="-2.1750242"><ele>887.0</ele><time>2026-04-13T11:32:14.673Z</time></trkpt><trkpt lat="38.4741904" lon="-2.1747964"><ele>894.0</ele><time>2026-04-13T11:32:15.673Z</time></trkpt><trkpt lat="38.4740406" lon="-2.1745691"><ele>894.0</ele><time>2026-04-13T11:32:16.673Z</time></trkpt><trkpt lat="38.4738926" lon="-2.1743402"><ele>894.0</ele><time>2026-04-13T11:32:17.673Z</time></trkpt><trkpt lat="38.4737438" lon="-2.1741061"><ele>890.5</ele><time>2026-04-13T11:32:18.673Z</time></trkpt><trkpt lat="38.4735943" lon="-2.173874"><ele>887.0</ele><time>2026-04-13T11:32:19.673Z</time></trkpt><trkpt lat="38.4734483" lon="-2.1736486"><ele>887.0</ele><time>2026-04-13T11:32:20.673Z</time></trkpt><trkpt lat="38.4733028" lon="-2.1734309"><ele>887.0</ele><time>2026-04-13T11:32:21.673Z</time></trkpt><trkpt lat="38.4731662" lon="-2.1732147"><ele>887.0</ele><time>2026-04-13T11:32:22.673Z</time></trkpt><trkpt lat="38.4730328" lon="-2.1730001"><ele>884.0</ele><time>2026-04-13T11:32:23.673Z</time></trkpt><trkpt lat="38.4729202" lon="-2.1727768"><ele>881.0</ele><time>2026-04-13T11:32:24.673Z</time></trkpt><trkpt lat="38.4728345" lon="-2.1725345"><ele>878.0</ele><time>2026-04-13T11:32:25.673Z</time></trkpt><trkpt lat="38.4727776" lon="-2.1722739"><ele>877.6666666666667</ele><time>2026-04-13T11:32:26.673Z</time></trkpt><trkpt lat="38.4727496" lon="-2.1720046"><ele>877.3333333333333</ele><time>2026-04-13T11:32:27.673Z</time></trkpt><trkpt lat="38.4727449" lon="-2.1717224"><ele>877.0</ele><time>2026-04-13T11:32:28.673Z</time></trkpt><trkpt lat="38.4727416" lon="-2.1714362"><ele>876.0</ele><time>2026-04-13T11:32:29.673Z</time></trkpt><trkpt lat="38.4727319" lon="-2.1711413"><ele>875.0</ele><time>2026-04-13T11:32:30.673Z</time></trkpt><trkpt lat="38.4726969" lon="-2.1708482"><ele>876.5</ele><time>2026-04-13T11:32:31.673Z</time></trkpt><trkpt lat="38.4726292" lon="-2.1705539"><ele>878.0</ele><time>2026-04-13T11:32:32.673Z</time></trkpt><trkpt lat="38.4725233" lon="-2.1702684"><ele>878.0</ele><time>2026-04-13T11:32:33.673Z</time></trkpt><trkpt lat="38.4724044" lon="-2.1699841"><ele>878.0</ele><time>2026-04-13T11:32:34.673Z</time></trkpt><trkpt lat="38.4722835" lon="-2.1697031"><ele>875.0</ele><time>2026-04-13T11:32:35.673Z</time></trkpt><trkpt lat="38.4721587" lon="-2.1694155"><ele>872.0</ele><time>2026-04-13T11:32:36.673Z</time></trkpt><trkpt lat="38.4720305" lon="-2.1691267"><ele>870.5</ele><time>2026-04-13T11:32:37.673Z</time></trkpt><trkpt lat="38.4719078" lon="-2.1688386"><ele>869.0</ele><time>2026-04-13T11:32:38.673Z</time></trkpt><trkpt lat="38.4717854" lon="-2.1685485"><ele>869.0</ele><time>2026-04-13T11:32:39.673Z</time></trkpt><trkpt lat="38.4716635" lon="-2.1682659"><ele>869.0</ele><time>2026-04-13T11:32:40.673Z</time></trkpt><trkpt lat="38.47154" lon="-2.1679826"><ele>870.5</ele><time>2026-04-13T11:32:41.673Z</time></trkpt><trkpt lat="38.4714178" lon="-2.1677042"><ele>872.0</ele><time>2026-04-13T11:32:42.673Z</time></trkpt><trkpt lat="38.4713066" lon="-2.1674421"><ele>870.3333333333334</ele><time>2026-04-13T11:32:43.673Z</time></trkpt><trkpt lat="38.4711987" lon="-2.1671896"><ele>868.6666666666667</ele><time>2026-04-13T11:32:44.673Z</time></trkpt><trkpt lat="38.4710898" lon="-2.1669499"><ele>867.0</ele><time>2026-04-13T11:32:45.673Z</time></trkpt><trkpt lat="38.4709658" lon="-2.1667294"><ele>867.0</ele><time>2026-04-13T11:32:46.673Z</time></trkpt><trkpt lat="38.4708203" lon="-2.1665349"><ele>867.0</ele><time>2026-04-13T11:32:47.673Z</time></trkpt><trkpt lat="38.4706546" lon="-2.1663593"><ele>867.0</ele><time>2026-04-13T11:32:48.673Z</time></trkpt><trkpt lat="38.4704771" lon="-2.166192"><ele>866.0</ele><time>2026-04-13T11:32:49.673Z</time></trkpt><trkpt lat="38.4702965" lon="-2.1660241"><ele>865.0</ele><time>2026-04-13T11:32:50.673Z</time></trkpt><trkpt lat="38.4701165" lon="-2.1658563"><ele>864.0</ele><time>2026-04-13T11:32:51.673Z</time></trkpt><trkpt lat="38.4699394" lon="-2.1656869"><ele>863.6666666666667</ele><time>2026-04-13T11:32:52.673Z</time></trkpt><trkpt lat="38.4697642" lon="-2.1655187"><ele>863.3333333333334</ele><time>2026-04-13T11:32:53.673Z</time></trkpt><trkpt lat="38.4696094" lon="-2.1653285"><ele>863.0</ele><time>2026-04-13T11:32:54.673Z</time></trkpt><trkpt lat="38.4694824" lon="-2.16511"><ele>863.0</ele><time>2026-04-13T11:32:55.673Z</time></trkpt><trkpt lat="38.4693917" lon="-2.1648675"><ele>863.0</ele><time>2026-04-13T11:32:56.673Z</time></trkpt><trkpt lat="38.4693294" lon="-2.1646016"><ele>863.0</ele><time>2026-04-13T11:32:57.673Z</time></trkpt><trkpt lat="38.4692689" lon="-2.1643369"><ele>862.6666666666667</ele><time>2026-04-13T11:32:58.673Z</time></trkpt><trkpt lat="38.4692006" lon="-2.1640746"><ele>862.3333333333333</ele><time>2026-04-13T11:32:59.673Z</time></trkpt><trkpt lat="38.4691177" lon="-2.1638159"><ele>862.0</ele><time>2026-04-13T11:33:00.673Z</time></trkpt><trkpt lat="38.4690114" lon="-2.1635694"><ele>861.5</ele><time>2026-04-13T11:33:01.673Z</time></trkpt><trkpt lat="38.468896" lon="-2.1633281"><ele>861.0</ele><time>2026-04-13T11:33:02.673Z</time></trkpt><trkpt lat="38.4687706" lon="-2.1630799"><ele>863.0</ele><time>2026-04-13T11:33:03.673Z</time></trkpt><trkpt lat="38.4686449" lon="-2.162828"><ele>865.0</ele><time>2026-04-13T11:33:04.673Z</time></trkpt><trkpt lat="38.4685187" lon="-2.162575"><ele>862.5</ele><time>2026-04-13T11:33:05.673Z</time></trkpt><trkpt lat="38.4683898" lon="-2.1623201"><ele>860.0</ele><time>2026-04-13T11:33:06.673Z</time></trkpt><trkpt lat="38.4682574" lon="-2.162059"><ele>860.0</ele><time>2026-04-13T11:33:07.673Z</time></trkpt><trkpt lat="38.4681276" lon="-2.161801"><ele>860.0</ele><time>2026-04-13T11:33:08.673Z</time></trkpt><trkpt lat="38.4679953" lon="-2.1615411"><ele>861.5</ele><time>2026-04-13T11:33:09.673Z</time></trkpt><trkpt lat="38.4678667" lon="-2.1612827"><ele>863.0</ele><time>2026-04-13T11:33:10.673Z</time></trkpt><trkpt lat="38.4677361" lon="-2.1610274"><ele>863.0</ele><time>2026-04-13T11:33:11.673Z</time></trkpt><trkpt lat="38.4676075" lon="-2.1607731"><ele>863.0</ele><time>2026-04-13T11:33:12.673Z</time></trkpt><trkpt lat="38.4674756" lon="-2.1605144"><ele>860.0</ele><time>2026-04-13T11:33:13.673Z</time></trkpt><trkpt lat="38.4673453" lon="-2.1602556"><ele>857.0</ele><time>2026-04-13T11:33:14.673Z</time></trkpt><trkpt lat="38.4672192" lon="-2.1600002"><ele>857.0</ele><time>2026-04-13T11:33:15.673Z</time></trkpt><trkpt lat="38.4670929" lon="-2.1597454"><ele>857.0</ele><time>2026-04-13T11:33:16.673Z</time></trkpt><trkpt lat="38.4669608" lon="-2.1594874"><ele>857.0</ele><time>2026-04-13T11:33:17.673Z</time></trkpt><trkpt lat="38.4668334" lon="-2.1592338"><ele>857.0</ele><time>2026-04-13T11:33:18.673Z</time></trkpt><trkpt lat="38.4667028" lon="-2.1589754"><ele>855.0</ele><time>2026-04-13T11:33:19.673Z</time></trkpt><trkpt lat="38.4665714" lon="-2.158715"><ele>853.0</ele><time>2026-04-13T11:33:20.673Z</time></trkpt><trkpt lat="38.4664424" lon="-2.1584619"><ele>853.5</ele><time>2026-04-13T11:33:21.673Z</time></trkpt><trkpt lat="38.4663178" lon="-2.1582007"><ele>854.0</ele><time>2026-04-13T11:33:22.673Z</time></trkpt><trkpt lat="38.4662115" lon="-2.1579272"><ele>859.5</ele><time>2026-04-13T11:33:23.673Z</time></trkpt><trkpt lat="38.4661296" lon="-2.1576383"><ele>865.0</ele><time>2026-04-13T11:33:24.673Z</time></trkpt><trkpt lat="38.4660742" lon="-2.1573413"><ele>865.5</ele><time>2026-04-13T11:33:25.673Z</time></trkpt><trkpt lat="38.4660459" lon="-2.157037"><ele>866.0</ele><time>2026-04-13T11:33:26.673Z</time></trkpt><trkpt lat="38.4660497" lon="-2.1567349"><ele>871.5</ele><time>2026-04-13T11:33:27.673Z</time></trkpt><trkpt lat="38.4660724" lon="-2.1564401"><ele>877.0</ele><time>2026-04-13T11:33:28.673Z</time></trkpt><trkpt lat="38.4661093" lon="-2.1561473"><ele>877.0</ele><time>2026-04-13T11:33:29.673Z</time></trkpt><trkpt lat="38.4661504" lon="-2.1558586"><ele>877.0</ele><time>2026-04-13T11:33:30.673Z</time></trkpt><trkpt lat="38.4661864" lon="-2.1555656"><ele>880.0</ele><time>2026-04-13T11:33:31.673Z</time></trkpt><trkpt lat="38.466202" lon="-2.1552638"><ele>883.0</ele><time>2026-04-13T11:33:32.673Z</time></trkpt><trkpt lat="38.4661991" lon="-2.1549611"><ele>881.0</ele><time>2026-04-13T11:33:33.673Z</time></trkpt><trkpt lat="38.4661627" lon="-2.1546576"><ele>879.0</ele><time>2026-04-13T11:33:34.673Z</time></trkpt><trkpt lat="38.4661041" lon="-2.1543638"><ele>879.0</ele><time>2026-04-13T11:33:35.673Z</time></trkpt><trkpt lat="38.4660176" lon="-2.1540676"><ele>879.0</ele><time>2026-04-13T11:33:36.673Z</time></trkpt><trkpt lat="38.4659154" lon="-2.1537833"><ele>874.0</ele><time>2026-04-13T11:33:37.674Z</time></trkpt><trkpt lat="38.4657912" lon="-2.1535084"><ele>869.0</ele><time>2026-04-13T11:33:38.673Z</time></trkpt><trkpt lat="38.4656501" lon="-2.1532402"><ele>870.5</ele><time>2026-04-13T11:33:39.673Z</time></trkpt><trkpt lat="38.4655151" lon="-2.1529671"><ele>872.0</ele><time>2026-04-13T11:33:40.673Z</time></trkpt><trkpt lat="38.4653849" lon="-2.1526881"><ele>878.5</ele><time>2026-04-13T11:33:41.673Z</time></trkpt><trkpt lat="38.4652605" lon="-2.1524051"><ele>885.0</ele><time>2026-04-13T11:33:42.673Z</time></trkpt><trkpt lat="38.4651472" lon="-2.1521157"><ele>885.0</ele><time>2026-04-13T11:33:43.673Z</time></trkpt><trkpt lat="38.4650461" lon="-2.1518225"><ele>885.0</ele><time>2026-04-13T11:33:44.673Z</time></trkpt><trkpt lat="38.4649443" lon="-2.1515268"><ele>885.0</ele><time>2026-04-13T11:33:45.674Z</time></trkpt><trkpt lat="38.4648523" lon="-2.1512354"><ele>885.0</ele><time>2026-04-13T11:33:46.673Z</time></trkpt><trkpt lat="38.4647557" lon="-2.150947"><ele>885.0</ele><time>2026-04-13T11:33:47.673Z</time></trkpt><trkpt lat="38.4646562" lon="-2.1506591"><ele>885.0</ele><time>2026-04-13T11:33:48.673Z</time></trkpt><trkpt lat="38.4645494" lon="-2.1503721"><ele>886.0</ele><time>2026-04-13T11:33:49.673Z</time></trkpt><trkpt lat="38.4644394" lon="-2.1500842"><ele>887.0</ele><time>2026-04-13T11:33:50.673Z</time></trkpt><trkpt lat="38.4643252" lon="-2.1497973"><ele>884.0</ele><time>2026-04-13T11:33:51.673Z</time></trkpt><trkpt lat="38.4642053" lon="-2.149507"><ele>881.0</ele><time>2026-04-13T11:33:52.673Z</time></trkpt><trkpt lat="38.464082" lon="-2.1492162"><ele>879.5</ele><time>2026-04-13T11:33:53.673Z</time></trkpt><trkpt lat="38.4639528" lon="-2.1489215"><ele>878.0</ele><time>2026-04-13T11:33:54.673Z</time></trkpt><trkpt lat="38.4638212" lon="-2.1486308"><ele>878.5</ele><time>2026-04-13T11:33:55.674Z</time></trkpt><trkpt lat="38.4636858" lon="-2.1483391"><ele>879.0</ele><time>2026-04-13T11:33:56.673Z</time></trkpt><trkpt lat="38.4635508" lon="-2.1480483"><ele>876.5</ele><time>2026-04-13T11:33:57.673Z</time></trkpt><trkpt lat="38.4634069" lon="-2.1477587"><ele>874.0</ele><time>2026-04-13T11:33:58.673Z</time></trkpt><trkpt lat="38.463262" lon="-2.1474738"><ele>873.5</ele><time>2026-04-13T11:33:59.673Z</time></trkpt><trkpt lat="38.4631141" lon="-2.147189"><ele>873.0</ele><time>2026-04-13T11:34:00.673Z</time></trkpt><trkpt lat="38.4629648" lon="-2.1469043"><ele>873.5</ele><time>2026-04-13T11:34:01.673Z</time></trkpt><trkpt lat="38.4628171" lon="-2.1466243"><ele>874.0</ele><time>2026-04-13T11:34:02.673Z</time></trkpt><trkpt lat="38.4626692" lon="-2.1463409"><ele>871.0</ele><time>2026-04-13T11:34:03.673Z</time></trkpt><trkpt lat="38.4625208" lon="-2.1460559"><ele>868.0</ele><time>2026-04-13T11:34:04.674Z</time></trkpt><trkpt lat="38.4623792" lon="-2.1457719"><ele>869.0</ele><time>2026-04-13T11:34:05.673Z</time></trkpt><trkpt lat="38.4622301" lon="-2.1454922"><ele>870.0</ele><time>2026-04-13T11:34:06.673Z</time></trkpt><trkpt lat="38.4620786" lon="-2.1452004"><ele>868.0</ele><time>2026-04-13T11:34:07.673Z</time></trkpt><trkpt lat="38.461941" lon="-2.1449241"><ele>866.0</ele><time>2026-04-13T11:34:08.674Z</time></trkpt><trkpt lat="38.4617978" lon="-2.1446478"><ele>863.5</ele><time>2026-04-13T11:34:09.673Z</time></trkpt><trkpt lat="38.4616561" lon="-2.1443713"><ele>861.0</ele><time>2026-04-13T11:34:10.673Z</time></trkpt><trkpt lat="38.4615137" lon="-2.1440982"><ele>861.5</ele><time>2026-04-13T11:34:11.673Z</time></trkpt><trkpt lat="38.461371" lon="-2.1438247"><ele>862.0</ele><time>2026-04-13T11:34:12.673Z</time></trkpt><trkpt lat="38.4612316" lon="-2.1435514"><ele>864.0</ele><time>2026-04-13T11:34:13.673Z</time></trkpt><trkpt lat="38.4610887" lon="-2.1432821"><ele>866.0</ele><time>2026-04-13T11:34:14.673Z</time></trkpt><trkpt lat="38.4609486" lon="-2.143012"><ele>866.0</ele><time>2026-04-13T11:34:15.673Z</time></trkpt><trkpt lat="38.4608086" lon="-2.1427414"><ele>866.0</ele><time>2026-04-13T11:34:16.673Z</time></trkpt><trkpt lat="38.4606647" lon="-2.1424691"><ele>868.5</ele><time>2026-04-13T11:34:17.673Z</time></trkpt><trkpt lat="38.4605157" lon="-2.1421894"><ele>871.0</ele><time>2026-04-13T11:34:18.673Z</time></trkpt><trkpt lat="38.4603684" lon="-2.1419066"><ele>871.0</ele><time>2026-04-13T11:34:19.673Z</time></trkpt><trkpt lat="38.46022" lon="-2.1416213"><ele>871.0</ele><time>2026-04-13T11:34:20.673Z</time></trkpt><trkpt lat="38.460071" lon="-2.1413324"><ele>863.0</ele><time>2026-04-13T11:34:21.673Z</time></trkpt><trkpt lat="38.4599378" lon="-2.1410299"><ele>855.0</ele><time>2026-04-13T11:34:22.673Z</time></trkpt><trkpt lat="38.4598273" lon="-2.1407122"><ele>851.0</ele><time>2026-04-13T11:34:23.673Z</time></trkpt><trkpt lat="38.4597389" lon="-2.1403829"><ele>847.0</ele><time>2026-04-13T11:34:24.673Z</time></trkpt><trkpt lat="38.4596679" lon="-2.1400488"><ele>851.0</ele><time>2026-04-13T11:34:25.673Z</time></trkpt><trkpt lat="38.4596065" lon="-2.1397138"><ele>855.0</ele><time>2026-04-13T11:34:26.673Z</time></trkpt><trkpt lat="38.4595416" lon="-2.1393844"><ele>855.0</ele><time>2026-04-13T11:34:27.673Z</time></trkpt><trkpt lat="38.4594752" lon="-2.1390569"><ele>855.0</ele><time>2026-04-13T11:34:28.674Z</time></trkpt><trkpt lat="38.4594079" lon="-2.1387304"><ele>853.5</ele><time>2026-04-13T11:34:29.673Z</time></trkpt><trkpt lat="38.4593426" lon="-2.1384073"><ele>852.0</ele><time>2026-04-13T11:34:30.673Z</time></trkpt><trkpt lat="38.4592811" lon="-2.13809"><ele>851.5</ele><time>2026-04-13T11:34:31.673Z</time></trkpt><trkpt lat="38.459215" lon="-2.1377652"><ele>851.0</ele><time>2026-04-13T11:34:32.673Z</time></trkpt><trkpt lat="38.4591485" lon="-2.1374419"><ele>851.5</ele><time>2026-04-13T11:34:33.673Z</time></trkpt><trkpt lat="38.4590831" lon="-2.1371216"><ele>852.0</ele><time>2026-04-13T11:34:34.673Z</time></trkpt><trkpt lat="38.4590159" lon="-2.1368005"><ele>849.0</ele><time>2026-04-13T11:34:35.673Z</time></trkpt><trkpt lat="38.4589538" lon="-2.1364852"><ele>846.0</ele><time>2026-04-13T11:34:36.673Z</time></trkpt><trkpt lat="38.4588926" lon="-2.1361709"><ele>846.0</ele><time>2026-04-13T11:34:37.673Z</time></trkpt><trkpt lat="38.4588333" lon="-2.1358548"><ele>846.0</ele><time>2026-04-13T11:34:38.673Z</time></trkpt><trkpt lat="38.4587709" lon="-2.1355307"><ele>843.0</ele><time>2026-04-13T11:34:39.673Z</time></trkpt><trkpt lat="38.4587015" lon="-2.1352084"><ele>840.0</ele><time>2026-04-13T11:34:40.673Z</time></trkpt><trkpt lat="38.458633" lon="-2.1348851"><ele>837.5</ele><time>2026-04-13T11:34:41.673Z</time></trkpt><trkpt lat="38.4585667" lon="-2.1345678"><ele>835.0</ele><time>2026-04-13T11:34:42.673Z</time></trkpt><trkpt lat="38.4585011" lon="-2.1342552"><ele>834.0</ele><time>2026-04-13T11:34:43.673Z</time></trkpt><trkpt lat="38.458437" lon="-2.1339485"><ele>833.0</ele><time>2026-04-13T11:34:44.673Z</time></trkpt><trkpt lat="38.4583802" lon="-2.133646"><ele>833.0</ele><time>2026-04-13T11:34:45.673Z</time></trkpt><trkpt lat="38.4583168" lon="-2.1333407"><ele>833.0</ele><time>2026-04-13T11:34:46.673Z</time></trkpt><trkpt lat="38.4582607" lon="-2.1330522"><ele>829.5</ele><time>2026-04-13T11:34:47.673Z</time></trkpt><trkpt lat="38.4582055" lon="-2.1327701"><ele>826.0</ele><time>2026-04-13T11:34:48.673Z</time></trkpt><trkpt lat="38.4581741" lon="-2.1324824"><ele>823.5</ele><time>2026-04-13T11:34:49.673Z</time></trkpt><trkpt lat="38.4581736" lon="-2.1321897"><ele>821.0</ele><time>2026-04-13T11:34:50.673Z</time></trkpt><trkpt lat="38.4582006" lon="-2.1319011"><ele>821.0</ele><time>2026-04-13T11:34:51.673Z</time></trkpt><trkpt lat="38.4582572" lon="-2.1316151"><ele>821.0</ele><time>2026-04-13T11:34:52.673Z</time></trkpt><trkpt lat="38.4583365" lon="-2.131335"><ele>821.5</ele><time>2026-04-13T11:34:53.673Z</time></trkpt><trkpt lat="38.4584126" lon="-2.1310535"><ele>822.0</ele><time>2026-04-13T11:34:54.673Z</time></trkpt><trkpt lat="38.4584745" lon="-2.1307696"><ele>821.0</ele><time>2026-04-13T11:34:55.673Z</time></trkpt><trkpt lat="38.4585091" lon="-2.1304738"><ele>820.0</ele><time>2026-04-13T11:34:56.673Z</time></trkpt><trkpt lat="38.4585138" lon="-2.130169"><ele>818.0</ele><time>2026-04-13T11:34:57.673Z</time></trkpt><trkpt lat="38.4584813" lon="-2.1298668"><ele>816.0</ele><time>2026-04-13T11:34:58.673Z</time></trkpt><trkpt lat="38.4584242" lon="-2.1295662"><ele>816.0</ele><time>2026-04-13T11:34:59.673Z</time></trkpt><trkpt lat="38.4583558" lon="-2.129266"><ele>816.0</ele><time>2026-04-13T11:35:00.673Z</time></trkpt><trkpt lat="38.458284" lon="-2.1289676"><ele>813.5</ele><time>2026-04-13T11:35:01.673Z</time></trkpt><trkpt lat="38.458209" lon="-2.1286674"><ele>811.0</ele><time>2026-04-13T11:35:02.673Z</time></trkpt><trkpt lat="38.4581299" lon="-2.1283672"><ele>812.5</ele><time>2026-04-13T11:35:03.673Z</time></trkpt><trkpt lat="38.4580449" lon="-2.12807"><ele>814.0</ele><time>2026-04-13T11:35:04.673Z</time></trkpt><trkpt lat="38.4579451" lon="-2.1277739"><ele>810.5</ele><time>2026-04-13T11:35:05.673Z</time></trkpt><trkpt lat="38.457832" lon="-2.1274803"><ele>807.0</ele><time>2026-04-13T11:35:06.673Z</time></trkpt><trkpt lat="38.4577128" lon="-2.1271927"><ele>807.0</ele><time>2026-04-13T11:35:07.673Z</time></trkpt><trkpt lat="38.4575873" lon="-2.1269173"><ele>807.0</ele><time>2026-04-13T11:35:08.673Z</time></trkpt><trkpt lat="38.4574636" lon="-2.1266438"><ele>809.0</ele><time>2026-04-13T11:35:09.673Z</time></trkpt><trkpt lat="38.4573416" lon="-2.1263721"><ele>811.0</ele><time>2026-04-13T11:35:10.673Z</time></trkpt><trkpt lat="38.4572199" lon="-2.1261015"><ele>807.0</ele><time>2026-04-13T11:35:11.673Z</time></trkpt><trkpt lat="38.4570999" lon="-2.1258303"><ele>803.0</ele><time>2026-04-13T11:35:12.673Z</time></trkpt><trkpt lat="38.45698" lon="-2.1255538"><ele>803.0</ele><time>2026-04-13T11:35:13.673Z</time></trkpt><trkpt lat="38.4568624" lon="-2.1252677"><ele>803.0</ele><time>2026-04-13T11:35:14.673Z</time></trkpt><trkpt lat="38.4567474" lon="-2.1249824"><ele>803.0</ele><time>2026-04-13T11:35:15.673Z</time></trkpt><trkpt lat="38.4566364" lon="-2.124684"><ele>803.0</ele><time>2026-04-13T11:35:16.673Z</time></trkpt><trkpt lat="38.4565303" lon="-2.1243813"><ele>803.0</ele><time>2026-04-13T11:35:17.673Z</time></trkpt><trkpt lat="38.4564277" lon="-2.1240771"><ele>803.0</ele><time>2026-04-13T11:35:18.673Z</time></trkpt><trkpt lat="38.4563288" lon="-2.1237677"><ele>798.0</ele><time>2026-04-13T11:35:19.673Z</time></trkpt><trkpt lat="38.456238" lon="-2.1234528"><ele>793.0</ele><time>2026-04-13T11:35:20.673Z</time></trkpt><trkpt lat="38.4561495" lon="-2.1231412"><ele>791.5</ele><time>2026-04-13T11:35:21.673Z</time></trkpt><trkpt lat="38.4560585" lon="-2.1228328"><ele>790.0</ele><time>2026-04-13T11:35:22.673Z</time></trkpt><trkpt lat="38.4559665" lon="-2.1225242"><ele>789.5</ele><time>2026-04-13T11:35:23.673Z</time></trkpt><trkpt lat="38.4558771" lon="-2.1222187"><ele>789.0</ele><time>2026-04-13T11:35:24.673Z</time></trkpt><trkpt lat="38.4557896" lon="-2.1219094"><ele>789.0</ele><time>2026-04-13T11:35:25.673Z</time></trkpt><trkpt lat="38.4557011" lon="-2.1216018"><ele>789.0</ele><time>2026-04-13T11:35:26.673Z</time></trkpt><trkpt lat="38.4556165" lon="-2.1212944"><ele>789.0</ele><time>2026-04-13T11:35:27.673Z</time></trkpt><trkpt lat="38.4555299" lon="-2.1209897"><ele>789.0</ele><time>2026-04-13T11:35:28.673Z</time></trkpt><trkpt lat="38.4554444" lon="-2.120684"><ele>786.0</ele><time>2026-04-13T11:35:29.674Z</time></trkpt><trkpt lat="38.4553576" lon="-2.1203791"><ele>783.0</ele><time>2026-04-13T11:35:30.673Z</time></trkpt><trkpt lat="38.4552742" lon="-2.1200778"><ele>783.0</ele><time>2026-04-13T11:35:31.673Z</time></trkpt><trkpt lat="38.4551907" lon="-2.1197769"><ele>783.0</ele><time>2026-04-13T11:35:32.673Z</time></trkpt><trkpt lat="38.455107" lon="-2.1194764"><ele>783.0</ele><time>2026-04-13T11:35:33.673Z</time></trkpt><trkpt lat="38.4550293" lon="-2.1191751"><ele>783.0</ele><time>2026-04-13T11:35:34.673Z</time></trkpt><trkpt lat="38.4549416" lon="-2.1188741"><ele>782.5</ele><time>2026-04-13T11:35:35.673Z</time></trkpt><trkpt lat="38.4548568" lon="-2.1185729"><ele>782.0</ele><time>2026-04-13T11:35:36.673Z</time></trkpt><trkpt lat="38.4547708" lon="-2.118269"><ele>781.0</ele><time>2026-04-13T11:35:37.673Z</time></trkpt><trkpt lat="38.4546868" lon="-2.1179689"><ele>780.0</ele><time>2026-04-13T11:35:38.673Z</time></trkpt><trkpt lat="38.4546006" lon="-2.117666"><ele>777.5</ele><time>2026-04-13T11:35:39.673Z</time></trkpt><trkpt lat="38.4545141" lon="-2.1173651"><ele>775.0</ele><time>2026-04-13T11:35:40.673Z</time></trkpt><trkpt lat="38.4544337" lon="-2.117068"><ele>775.0</ele><time>2026-04-13T11:35:41.673Z</time></trkpt><trkpt lat="38.4543504" lon="-2.1167737"><ele>775.0</ele><time>2026-04-13T11:35:42.674Z</time></trkpt><trkpt lat="38.4542583" lon="-2.1164825"><ele>776.0</ele><time>2026-04-13T11:35:43.673Z</time></trkpt><trkpt lat="38.4541491" lon="-2.1162002"><ele>777.0</ele><time>2026-04-13T11:35:44.673Z</time></trkpt><trkpt lat="38.4540176" lon="-2.1159344"><ele>779.5</ele><time>2026-04-13T11:35:45.673Z</time></trkpt><trkpt lat="38.4538592" lon="-2.1156898"><ele>782.0</ele><time>2026-04-13T11:35:46.673Z</time></trkpt><trkpt lat="38.4536821" lon="-2.1154673"><ele>782.0</ele><time>2026-04-13T11:35:47.673Z</time></trkpt><trkpt lat="38.4534815" lon="-2.1152659"><ele>782.0</ele><time>2026-04-13T11:35:48.674Z</time></trkpt><trkpt lat="38.4532652" lon="-2.1150955"><ele>782.0</ele><time>2026-04-13T11:35:49.673Z</time></trkpt><trkpt lat="38.4530356" lon="-2.1149553"><ele>782.0</ele><time>2026-04-13T11:35:50.673Z</time></trkpt><trkpt lat="38.4527943" lon="-2.114845"><ele>782.5</ele><time>2026-04-13T11:35:51.673Z</time></trkpt><trkpt lat="38.4525524" lon="-2.1147672"><ele>783.0</ele><time>2026-04-13T11:35:52.673Z</time></trkpt><trkpt lat="38.4523097" lon="-2.1146884"><ele>777.5</ele><time>2026-04-13T11:35:53.673Z</time></trkpt><trkpt lat="38.4520761" lon="-2.1146017"><ele>772.0</ele><time>2026-04-13T11:35:54.673Z</time></trkpt><trkpt lat="38.4518516" lon="-2.1144915"><ele>772.0</ele><time>2026-04-13T11:35:55.673Z</time></trkpt><trkpt lat="38.4516422" lon="-2.1143475"><ele>772.0</ele><time>2026-04-13T11:35:56.673Z</time></trkpt><trkpt lat="38.4514449" lon="-2.1141794"><ele>768.5</ele><time>2026-04-13T11:35:57.673Z</time></trkpt><trkpt lat="38.4512761" lon="-2.1139659"><ele>765.0</ele><time>2026-04-13T11:35:58.673Z</time></trkpt><trkpt lat="38.4511279" lon="-2.1137313"><ele>765.0</ele><time>2026-04-13T11:35:59.673Z</time></trkpt><trkpt lat="38.4510024" lon="-2.1134742"><ele>765.0</ele><time>2026-04-13T11:36:00.673Z</time></trkpt><trkpt lat="38.4508969" lon="-2.1131915"><ele>765.0</ele><time>2026-04-13T11:36:01.673Z</time></trkpt><trkpt lat="38.4508002" lon="-2.1128967"><ele>765.0</ele><time>2026-04-13T11:36:02.673Z</time></trkpt><trkpt lat="38.4507062" lon="-2.1125889"><ele>765.0</ele><time>2026-04-13T11:36:03.673Z</time></trkpt><trkpt lat="38.4506096" lon="-2.1122783"><ele>765.0</ele><time>2026-04-13T11:36:04.673Z</time></trkpt><trkpt lat="38.4505162" lon="-2.1119713"><ele>762.0</ele><time>2026-04-13T11:36:05.673Z</time></trkpt><trkpt lat="38.4504241" lon="-2.1116663"><ele>759.0</ele><time>2026-04-13T11:36:06.673Z</time></trkpt><trkpt lat="38.4503336" lon="-2.1113632"><ele>759.0</ele><time>2026-04-13T11:36:07.673Z</time></trkpt><trkpt lat="38.4502432" lon="-2.1110646"><ele>759.0</ele><time>2026-04-13T11:36:08.673Z</time></trkpt><trkpt lat="38.4501526" lon="-2.1107732"><ele>762.5</ele><time>2026-04-13T11:36:09.673Z</time></trkpt><trkpt lat="38.4500636" lon="-2.1104889"><ele>766.0</ele><time>2026-04-13T11:36:10.673Z</time></trkpt><trkpt lat="38.4499722" lon="-2.1102033"><ele>766.0</ele><time>2026-04-13T11:36:11.673Z</time></trkpt><trkpt lat="38.4498835" lon="-2.1099121"><ele>766.0</ele><time>2026-04-13T11:36:12.673Z</time></trkpt><trkpt lat="38.449795" lon="-2.1096208"><ele>769.0</ele><time>2026-04-13T11:36:13.673Z</time></trkpt><trkpt lat="38.4497062" lon="-2.1093263"><ele>772.0</ele><time>2026-04-13T11:36:14.673Z</time></trkpt><trkpt lat="38.449617" lon="-2.1090283"><ele>762.5</ele><time>2026-04-13T11:36:15.673Z</time></trkpt><trkpt lat="38.4495258" lon="-2.108731"><ele>753.0</ele><time>2026-04-13T11:36:16.673Z</time></trkpt><trkpt lat="38.4494301" lon="-2.1084292"><ele>753.0</ele><time>2026-04-13T11:36:17.673Z</time></trkpt><trkpt lat="38.4493351" lon="-2.1081305"><ele>753.0</ele><time>2026-04-13T11:36:18.673Z</time></trkpt><trkpt lat="38.4492481" lon="-2.1078346"><ele>753.0</ele><time>2026-04-13T11:36:19.674Z</time></trkpt><trkpt lat="38.4491759" lon="-2.1075297"><ele>753.0</ele><time>2026-04-13T11:36:20.673Z</time></trkpt><trkpt lat="38.4491263" lon="-2.1072192"><ele>752.5</ele><time>2026-04-13T11:36:21.673Z</time></trkpt><trkpt lat="38.4490975" lon="-2.1069034"><ele>752.0</ele><time>2026-04-13T11:36:22.673Z</time></trkpt><trkpt lat="38.4490724" lon="-2.1065886"><ele>753.0</ele><time>2026-04-13T11:36:23.673Z</time></trkpt><trkpt lat="38.4490455" lon="-2.1062757"><ele>754.0</ele><time>2026-04-13T11:36:24.673Z</time></trkpt><trkpt lat="38.4490191" lon="-2.1059666"><ele>754.0</ele><time>2026-04-13T11:36:25.673Z</time></trkpt><trkpt lat="38.4489932" lon="-2.1056584"><ele>754.0</ele><time>2026-04-13T11:36:26.673Z</time></trkpt><trkpt lat="38.448967" lon="-2.1053505"><ele>754.0</ele><time>2026-04-13T11:36:27.673Z</time></trkpt><trkpt lat="38.4489377" lon="-2.1050395"><ele>754.0</ele><time>2026-04-13T11:36:28.673Z</time></trkpt><trkpt lat="38.4489089" lon="-2.1047288"><ele>755.0</ele><time>2026-04-13T11:36:29.673Z</time></trkpt><trkpt lat="38.4488925" lon="-2.1044175"><ele>756.0</ele><time>2026-04-13T11:36:30.673Z</time></trkpt><trkpt lat="38.4488989" lon="-2.1041094"><ele>755.0</ele><time>2026-04-13T11:36:31.673Z</time></trkpt><trkpt lat="38.4489407" lon="-2.1038082"><ele>754.0</ele><time>2026-04-13T11:36:32.673Z</time></trkpt><trkpt lat="38.449024" lon="-2.1035154"><ele>751.5</ele><time>2026-04-13T11:36:33.673Z</time></trkpt><trkpt lat="38.4491348" lon="-2.1032338"><ele>749.0</ele><time>2026-04-13T11:36:34.673Z</time></trkpt><trkpt lat="38.4492664" lon="-2.1029738"><ele>749.0</ele><time>2026-04-13T11:36:35.673Z</time></trkpt><trkpt lat="38.4494002" lon="-2.1027099"><ele>749.0</ele><time>2026-04-13T11:36:36.673Z</time></trkpt><trkpt lat="38.4495201" lon="-2.1024308"><ele>750.0</ele><time>2026-04-13T11:36:37.673Z</time></trkpt><trkpt lat="38.4496137" lon="-2.1021325"><ele>751.0</ele><time>2026-04-13T11:36:38.673Z</time></trkpt><trkpt lat="38.4496926" lon="-2.1018259"><ele>749.5</ele><time>2026-04-13T11:36:39.673Z</time></trkpt><trkpt lat="38.4497507" lon="-2.1015204"><ele>748.0</ele><time>2026-04-13T11:36:40.673Z</time></trkpt><trkpt lat="38.4497681" lon="-2.101212"><ele>748.0</ele><time>2026-04-13T11:36:41.673Z</time></trkpt><trkpt lat="38.4498006" lon="-2.1009092"><ele>748.0</ele><time>2026-04-13T11:36:42.673Z</time></trkpt><trkpt lat="38.4498278" lon="-2.100596"><ele>746.0</ele><time>2026-04-13T11:36:43.673Z</time></trkpt><trkpt lat="38.4498614" lon="-2.1002912"><ele>744.0</ele><time>2026-04-13T11:36:44.673Z</time></trkpt><trkpt lat="38.4498956" lon="-2.0999848"><ele>743.5</ele><time>2026-04-13T11:36:45.673Z</time></trkpt><trkpt lat="38.449932" lon="-2.0996773"><ele>743.0</ele><time>2026-04-13T11:36:46.673Z</time></trkpt><trkpt lat="38.4499645" lon="-2.0993714"><ele>740.5</ele><time>2026-04-13T11:36:47.673Z</time></trkpt><trkpt lat="38.4499976" lon="-2.0990606"><ele>738.0</ele><time>2026-04-13T11:36:48.673Z</time></trkpt><trkpt lat="38.450037" lon="-2.0987464"><ele>738.0</ele><time>2026-04-13T11:36:49.674Z</time></trkpt><trkpt lat="38.4500739" lon="-2.0984321"><ele>738.0</ele><time>2026-04-13T11:36:50.673Z</time></trkpt><trkpt lat="38.4501133" lon="-2.0981122"><ele>736.0</ele><time>2026-04-13T11:36:51.673Z</time></trkpt><trkpt lat="38.4501548" lon="-2.0977932"><ele>734.0</ele><time>2026-04-13T11:36:52.673Z</time></trkpt><trkpt lat="38.4502166" lon="-2.0974779"><ele>731.5</ele><time>2026-04-13T11:36:53.673Z</time></trkpt><trkpt lat="38.4503013" lon="-2.0971675"><ele>729.0</ele><time>2026-04-13T11:36:54.673Z</time></trkpt><trkpt lat="38.4503898" lon="-2.0968527"><ele>732.0</ele><time>2026-04-13T11:36:55.673Z</time></trkpt><trkpt lat="38.4504751" lon="-2.0965332"><ele>735.0</ele><time>2026-04-13T11:36:56.674Z</time></trkpt><trkpt lat="38.4505422" lon="-2.0962099"><ele>735.0</ele><time>2026-04-13T11:36:57.673Z</time></trkpt><trkpt lat="38.4505825" lon="-2.0958762"><ele>735.0</ele><time>2026-04-13T11:36:58.673Z</time></trkpt><trkpt lat="38.4506075" lon="-2.0955413"><ele>732.5</ele><time>2026-04-13T11:36:59.673Z</time></trkpt><trkpt lat="38.4506257" lon="-2.095207"><ele>730.0</ele><time>2026-04-13T11:37:00.673Z</time></trkpt><trkpt lat="38.4506378" lon="-2.0948724"><ele>728.0</ele><time>2026-04-13T11:37:01.673Z</time></trkpt><trkpt lat="38.4506352" lon="-2.0945383"><ele>726.0</ele><time>2026-04-13T11:37:02.673Z</time></trkpt><trkpt lat="38.4506233" lon="-2.0942051"><ele>723.0</ele><time>2026-04-13T11:37:03.673Z</time></trkpt><trkpt lat="38.4505889" lon="-2.093873"><ele>720.0</ele><time>2026-04-13T11:37:04.674Z</time></trkpt><trkpt lat="38.4505338" lon="-2.0935421"><ele>717.5</ele><time>2026-04-13T11:37:05.673Z</time></trkpt><trkpt lat="38.4504625" lon="-2.093219"><ele>715.0</ele><time>2026-04-13T11:37:06.673Z</time></trkpt><trkpt lat="38.4503813" lon="-2.0928987"><ele>714.5</ele><time>2026-04-13T11:37:07.673Z</time></trkpt><trkpt lat="38.4502857" lon="-2.0925816"><ele>714.0</ele><time>2026-04-13T11:37:08.673Z</time></trkpt><trkpt lat="38.4501906" lon="-2.0922683"><ele>713.5</ele><time>2026-04-13T11:37:09.673Z</time></trkpt><trkpt lat="38.4500918" lon="-2.0919616"><ele>713.0</ele><time>2026-04-13T11:37:10.673Z</time></trkpt><trkpt lat="38.4499949" lon="-2.0916522"><ele>712.0</ele><time>2026-04-13T11:37:11.673Z</time></trkpt><trkpt lat="38.449903" lon="-2.091346"><ele>711.0</ele><time>2026-04-13T11:37:12.673Z</time></trkpt><trkpt lat="38.4498196" lon="-2.0910347"><ele>708.5</ele><time>2026-04-13T11:37:13.673Z</time></trkpt><trkpt lat="38.4497436" lon="-2.0907161"><ele>706.0</ele><time>2026-04-13T11:37:14.673Z</time></trkpt><trkpt lat="38.4496743" lon="-2.0903923"><ele>710.0</ele><time>2026-04-13T11:37:15.673Z</time></trkpt><trkpt lat="38.4496101" lon="-2.0900643"><ele>714.0</ele><time>2026-04-13T11:37:16.673Z</time></trkpt><trkpt lat="38.4495508" lon="-2.0897397"><ele>714.0</ele><time>2026-04-13T11:37:17.673Z</time></trkpt><trkpt lat="38.4494932" lon="-2.0894169"><ele>714.0</ele><time>2026-04-13T11:37:18.673Z</time></trkpt><trkpt lat="38.4494375" lon="-2.0890999"><ele>710.0</ele><time>2026-04-13T11:37:19.673Z</time></trkpt><trkpt lat="38.4493853" lon="-2.0887922"><ele>706.0</ele><time>2026-04-13T11:37:20.673Z</time></trkpt><trkpt lat="38.4493314" lon="-2.0884864"><ele>704.5</ele><time>2026-04-13T11:37:21.673Z</time></trkpt><trkpt lat="38.4492758" lon="-2.0881799"><ele>703.0</ele><time>2026-04-13T11:37:22.673Z</time></trkpt><trkpt lat="38.4492216" lon="-2.0878685"><ele>703.0</ele><time>2026-04-13T11:37:23.673Z</time></trkpt><trkpt lat="38.4491655" lon="-2.0875591"><ele>703.0</ele><time>2026-04-13T11:37:24.673Z</time></trkpt><trkpt lat="38.4491107" lon="-2.0872561"><ele>700.0</ele><time>2026-04-13T11:37:25.673Z</time></trkpt><trkpt lat="38.4490594" lon="-2.0869531"><ele>697.0</ele><time>2026-04-13T11:37:26.673Z</time></trkpt><trkpt lat="38.4490171" lon="-2.0866513"><ele>696.5</ele><time>2026-04-13T11:37:27.673Z</time></trkpt><trkpt lat="38.4489912" lon="-2.0863456"><ele>696.0</ele><time>2026-04-13T11:37:28.673Z</time></trkpt><trkpt lat="38.4489787" lon="-2.0860345"><ele>696.5</ele><time>2026-04-13T11:37:29.673Z</time></trkpt><trkpt lat="38.4489936" lon="-2.0857243"><ele>697.0</ele><time>2026-04-13T11:37:30.673Z</time></trkpt><trkpt lat="38.4490266" lon="-2.0854249"><ele>697.0</ele><time>2026-04-13T11:37:31.673Z</time></trkpt><trkpt lat="38.449083" lon="-2.0851142"><ele>697.0</ele><time>2026-04-13T11:37:32.673Z</time></trkpt><trkpt lat="38.4491577" lon="-2.0848091"><ele>699.0</ele><time>2026-04-13T11:37:33.674Z</time></trkpt><trkpt lat="38.4492449" lon="-2.084503"><ele>701.0</ele><time>2026-04-13T11:37:34.673Z</time></trkpt><trkpt lat="38.4493331" lon="-2.0842276"><ele>701.4</ele><time>2026-04-13T11:37:35.673Z</time></trkpt><trkpt lat="38.4493937" lon="-2.0840354"><ele>701.8</ele><time>2026-04-13T11:37:36.673Z</time></trkpt><trkpt lat="38.4494427" lon="-2.0839032"><ele>702.1999999999999</ele><time>2026-04-13T11:37:37.673Z</time></trkpt><trkpt lat="38.4494741" lon="-2.0838049"><ele>702.5999999999999</ele><time>2026-04-13T11:37:38.673Z</time></trkpt><trkpt lat="38.449499" lon="-2.0837079"><ele>703.0</ele><time>2026-04-13T11:37:39.673Z</time></trkpt><trkpt lat="38.4495226" lon="-2.0835988"><ele>703.0</ele><time>2026-04-13T11:37:40.673Z</time></trkpt><trkpt lat="38.4495502" lon="-2.0834813"><ele>703.0</ele><time>2026-04-13T11:37:41.673Z</time></trkpt><trkpt lat="38.4495841" lon="-2.0833504"><ele>703.0</ele><time>2026-04-13T11:37:42.673Z</time></trkpt><trkpt lat="38.4496264" lon="-2.083208"><ele>703.0</ele><time>2026-04-13T11:37:43.673Z</time></trkpt><trkpt lat="38.4496693" lon="-2.0830529"><ele>700.5</ele><time>2026-04-13T11:37:44.673Z</time></trkpt><trkpt lat="38.4497174" lon="-2.0828878"><ele>698.0</ele><time>2026-04-13T11:37:45.673Z</time></trkpt><trkpt lat="38.449768" lon="-2.0827102"><ele>695.5</ele><time>2026-04-13T11:37:46.673Z</time></trkpt><trkpt lat="38.4498256" lon="-2.0825233"><ele>693.0</ele><time>2026-04-13T11:37:47.673Z</time></trkpt><trkpt lat="38.4498865" lon="-2.0823302"><ele>693.0</ele><time>2026-04-13T11:37:48.673Z</time></trkpt><trkpt lat="38.4499483" lon="-2.0821191"><ele>693.0</ele><time>2026-04-13T11:37:49.673Z</time></trkpt><trkpt lat="38.4500115" lon="-2.0819003"><ele>693.0</ele><time>2026-04-13T11:37:50.673Z</time></trkpt><trkpt lat="38.4500796" lon="-2.081671"><ele>694.0</ele><time>2026-04-13T11:37:51.673Z</time></trkpt><trkpt lat="38.4501503" lon="-2.0814281"><ele>695.0</ele><time>2026-04-13T11:37:52.673Z</time></trkpt><trkpt lat="38.4502242" lon="-2.0811803"><ele>696.0</ele><time>2026-04-13T11:37:53.673Z</time></trkpt><trkpt lat="38.450301" lon="-2.0809234"><ele>694.6666666666666</ele><time>2026-04-13T11:37:54.673Z</time></trkpt><trkpt lat="38.4503774" lon="-2.0806633"><ele>693.3333333333333</ele><time>2026-04-13T11:37:55.673Z</time></trkpt><trkpt lat="38.4504546" lon="-2.0803943"><ele>692.0</ele><time>2026-04-13T11:37:56.673Z</time></trkpt><trkpt lat="38.4505356" lon="-2.0801207"><ele>692.5</ele><time>2026-04-13T11:37:57.673Z</time></trkpt><trkpt lat="38.4506201" lon="-2.0798402"><ele>693.0</ele><time>2026-04-13T11:37:58.673Z</time></trkpt><trkpt lat="38.4507031" lon="-2.0795578"><ele>693.0</ele><time>2026-04-13T11:37:59.673Z</time></trkpt><trkpt lat="38.4507763" lon="-2.0792679"><ele>693.0</ele><time>2026-04-13T11:38:00.673Z</time></trkpt><trkpt lat="38.450844" lon="-2.0789755"><ele>694.5</ele><time>2026-04-13T11:38:01.673Z</time></trkpt><trkpt lat="38.4508893" lon="-2.0786672"><ele>696.0</ele><time>2026-04-13T11:38:02.674Z</time></trkpt><trkpt lat="38.450921" lon="-2.078353"><ele>695.0</ele><time>2026-04-13T11:38:03.673Z</time></trkpt><trkpt lat="38.4509306" lon="-2.0780232"><ele>694.0</ele><time>2026-04-13T11:38:04.673Z</time></trkpt><trkpt lat="38.4509316" lon="-2.0776862"><ele>693.5</ele><time>2026-04-13T11:38:05.673Z</time></trkpt><trkpt lat="38.450928" lon="-2.0773445"><ele>693.0</ele><time>2026-04-13T11:38:06.673Z</time></trkpt><trkpt lat="38.450925" lon="-2.0770078"><ele>693.0</ele><time>2026-04-13T11:38:07.673Z</time></trkpt><trkpt lat="38.4509227" lon="-2.0766742"><ele>693.0</ele><time>2026-04-13T11:38:08.673Z</time></trkpt><trkpt lat="38.4509262" lon="-2.0763534"><ele>692.5</ele><time>2026-04-13T11:38:09.673Z</time></trkpt><trkpt lat="38.4509311" lon="-2.0760522"><ele>692.0</ele><time>2026-04-13T11:38:10.673Z</time></trkpt><trkpt lat="38.4509259" lon="-2.0757555"><ele>691.5</ele><time>2026-04-13T11:38:11.673Z</time></trkpt><trkpt lat="38.4509059" lon="-2.0754648"><ele>691.0</ele><time>2026-04-13T11:38:12.673Z</time></trkpt><trkpt lat="38.4508624" lon="-2.0751793"><ele>689.5</ele><time>2026-04-13T11:38:13.673Z</time></trkpt><trkpt lat="38.4507848" lon="-2.0749072"><ele>688.0</ele><time>2026-04-13T11:38:14.674Z</time></trkpt><trkpt lat="38.4506868" lon="-2.0746485"><ele>688.0</ele><time>2026-04-13T11:38:15.673Z</time></trkpt><trkpt lat="38.4505902" lon="-2.0743944"><ele>688.0</ele><time>2026-04-13T11:38:16.673Z</time></trkpt><trkpt lat="38.4505141" lon="-2.0741258"><ele>688.0</ele><time>2026-04-13T11:38:17.673Z</time></trkpt><trkpt lat="38.4504673" lon="-2.0738513"><ele>687.0</ele><time>2026-04-13T11:38:18.673Z</time></trkpt><trkpt lat="38.4504535" lon="-2.0735666"><ele>686.0</ele><time>2026-04-13T11:38:19.673Z</time></trkpt><trkpt lat="38.4504689" lon="-2.073273"><ele>683.5</ele><time>2026-04-13T11:38:20.673Z</time></trkpt><trkpt lat="38.4505149" lon="-2.0729799"><ele>681.0</ele><time>2026-04-13T11:38:21.673Z</time></trkpt><trkpt lat="38.4505965" lon="-2.0726912"><ele>688.0</ele><time>2026-04-13T11:38:22.673Z</time></trkpt><trkpt lat="38.4507135" lon="-2.0724193"><ele>695.0</ele><time>2026-04-13T11:38:23.673Z</time></trkpt><trkpt lat="38.4508636" lon="-2.0721707"><ele>695.0</ele><time>2026-04-13T11:38:24.673Z</time></trkpt><trkpt lat="38.4510457" lon="-2.0719542"><ele>695.0</ele><time>2026-04-13T11:38:25.673Z</time></trkpt><trkpt lat="38.4512495" lon="-2.0717717"><ele>698.5</ele><time>2026-04-13T11:38:26.673Z</time></trkpt><trkpt lat="38.451467" lon="-2.0716226"><ele>702.0</ele><time>2026-04-13T11:38:27.673Z</time></trkpt><trkpt lat="38.4516975" lon="-2.0714973"><ele>702.0</ele><time>2026-04-13T11:38:28.673Z</time></trkpt><trkpt lat="38.4519254" lon="-2.0713805"><ele>702.0</ele><time>2026-04-13T11:38:29.673Z</time></trkpt><trkpt lat="38.4521572" lon="-2.0712635"><ele>700.5</ele><time>2026-04-13T11:38:30.673Z</time></trkpt><trkpt lat="38.4523917" lon="-2.0711527"><ele>699.0</ele><time>2026-04-13T11:38:31.673Z</time></trkpt><trkpt lat="38.4526241" lon="-2.0710396"><ele>699.0</ele><time>2026-04-13T11:38:32.673Z</time></trkpt><trkpt lat="38.4528567" lon="-2.0709221"><ele>699.0</ele><time>2026-04-13T11:38:33.673Z</time></trkpt><trkpt lat="38.4530853" lon="-2.0708048"><ele>695.0</ele><time>2026-04-13T11:38:34.673Z</time></trkpt><trkpt lat="38.4533131" lon="-2.0706815"><ele>691.0</ele><time>2026-04-13T11:38:35.674Z</time></trkpt><trkpt lat="38.4535332" lon="-2.0705426"><ele>691.0</ele><time>2026-04-13T11:38:36.673Z</time></trkpt><trkpt lat="38.4537341" lon="-2.0703783"><ele>691.0</ele><time>2026-04-13T11:38:37.673Z</time></trkpt><trkpt lat="38.4539195" lon="-2.0701807"><ele>685.5</ele><time>2026-04-13T11:38:38.673Z</time></trkpt><trkpt lat="38.4540779" lon="-2.0699421"><ele>680.0</ele><time>2026-04-13T11:38:39.673Z</time></trkpt><trkpt lat="38.4542053" lon="-2.0696756"><ele>679.0</ele><time>2026-04-13T11:38:40.673Z</time></trkpt><trkpt lat="38.4542964" lon="-2.0693865"><ele>678.0</ele><time>2026-04-13T11:38:41.673Z</time></trkpt><trkpt lat="38.4543558" lon="-2.0690828"><ele>677.0</ele><time>2026-04-13T11:38:42.673Z</time></trkpt><trkpt lat="38.4543775" lon="-2.0687689"><ele>676.0</ele><time>2026-04-13T11:38:43.673Z</time></trkpt><trkpt lat="38.4543583" lon="-2.0684331"><ele>671.0</ele><time>2026-04-13T11:38:44.673Z</time></trkpt><trkpt lat="38.4543433" lon="-2.0680935"><ele>666.0</ele><time>2026-04-13T11:38:45.673Z</time></trkpt><trkpt lat="38.4543147" lon="-2.0677458"><ele>663.5</ele><time>2026-04-13T11:38:46.673Z</time></trkpt><trkpt lat="38.4542524" lon="-2.067371"><ele>661.0</ele><time>2026-04-13T11:38:47.673Z</time></trkpt><trkpt lat="38.4542023" lon="-2.0670068"><ele>661.0</ele><time>2026-04-13T11:38:48.673Z</time></trkpt><trkpt lat="38.4541573" lon="-2.0666421"><ele>661.0</ele><time>2026-04-13T11:38:49.673Z</time></trkpt><trkpt lat="38.4541132" lon="-2.0662766"><ele>658.5</ele><time>2026-04-13T11:38:50.673Z</time></trkpt><trkpt lat="38.4540663" lon="-2.0659089"><ele>656.0</ele><time>2026-04-13T11:38:51.673Z</time></trkpt><trkpt lat="38.4540197" lon="-2.0655449"><ele>655.5</ele><time>2026-04-13T11:38:52.673Z</time></trkpt><trkpt lat="38.4539689" lon="-2.0651833"><ele>655.0</ele><time>2026-04-13T11:38:53.673Z</time></trkpt><trkpt lat="38.4539283" lon="-2.0648314"><ele>656.5</ele><time>2026-04-13T11:38:54.673Z</time></trkpt><trkpt lat="38.4538849" lon="-2.0644837"><ele>658.0</ele><time>2026-04-13T11:38:55.673Z</time></trkpt><trkpt lat="38.4538432" lon="-2.0641414"><ele>660.0</ele><time>2026-04-13T11:38:56.673Z</time></trkpt><trkpt lat="38.4538015" lon="-2.0638053"><ele>662.0</ele><time>2026-04-13T11:38:57.673Z</time></trkpt><trkpt lat="38.4537596" lon="-2.0634783"><ele>662.0</ele><time>2026-04-13T11:38:58.673Z</time></trkpt><trkpt lat="38.4537145" lon="-2.0631606"><ele>662.0</ele><time>2026-04-13T11:38:59.674Z</time></trkpt><trkpt lat="38.453655" lon="-2.0628615"><ele>662.0</ele><time>2026-04-13T11:39:00.673Z</time></trkpt><trkpt lat="38.453568" lon="-2.0625865"><ele>662.0</ele><time>2026-04-13T11:39:01.673Z</time></trkpt><trkpt lat="38.4534578" lon="-2.0623365"><ele>665.3333333333333</ele><time>2026-04-13T11:39:02.674Z</time></trkpt><trkpt lat="38.4533336" lon="-2.0621"><ele>668.6666666666666</ele><time>2026-04-13T11:39:03.673Z</time></trkpt><trkpt lat="38.4532054" lon="-2.0618702"><ele>672.0</ele><time>2026-04-13T11:39:04.673Z</time></trkpt><trkpt lat="38.4530804" lon="-2.0616443"><ele>670.0</ele><time>2026-04-13T11:39:05.673Z</time></trkpt><trkpt lat="38.4529641" lon="-2.0614154"><ele>668.0</ele><time>2026-04-13T11:39:06.673Z</time></trkpt><trkpt lat="38.4528571" lon="-2.0611746"><ele>666.0</ele><time>2026-04-13T11:39:07.673Z</time></trkpt><trkpt lat="38.4527733" lon="-2.060918"><ele>664.0</ele><time>2026-04-13T11:39:08.673Z</time></trkpt><trkpt lat="38.4527174" lon="-2.0606461"><ele>662.0</ele><time>2026-04-13T11:39:09.673Z</time></trkpt><trkpt lat="38.4526856" lon="-2.0603661"><ele>660.0</ele><time>2026-04-13T11:39:10.673Z</time></trkpt><trkpt lat="38.4526742" lon="-2.0600784"><ele>658.0</ele><time>2026-04-13T11:39:11.673Z</time></trkpt><trkpt lat="38.452667" lon="-2.0597815"><ele>656.0</ele><time>2026-04-13T11:39:12.673Z</time></trkpt><trkpt lat="38.4526608" lon="-2.0594846"><ele>656.0</ele><time>2026-04-13T11:39:13.673Z</time></trkpt><trkpt lat="38.4526565" lon="-2.0591936"><ele>656.0</ele><time>2026-04-13T11:39:14.673Z</time></trkpt><trkpt lat="38.4526547" lon="-2.0589142"><ele>656.0</ele><time>2026-04-13T11:39:15.673Z</time></trkpt><trkpt lat="38.4526544" lon="-2.0586349"><ele>654.6666666666666</ele><time>2026-04-13T11:39:16.673Z</time></trkpt><trkpt lat="38.4526529" lon="-2.0583694"><ele>653.3333333333334</ele><time>2026-04-13T11:39:17.673Z</time></trkpt><trkpt lat="38.4526563" lon="-2.0581269"><ele>652.0</ele><time>2026-04-13T11:39:18.673Z</time></trkpt><trkpt lat="38.4526592" lon="-2.0578949"><ele>650.6666666666667</ele><time>2026-04-13T11:39:19.673Z</time></trkpt><trkpt lat="38.4526693" lon="-2.0576731"><ele>649.3333333333334</ele><time>2026-04-13T11:39:20.673Z</time></trkpt><trkpt lat="38.4526823" lon="-2.0574359"><ele>648.0</ele><time>2026-04-13T11:39:21.673Z</time></trkpt><trkpt lat="38.4526973" lon="-2.0571969"><ele>646.0</ele><time>2026-04-13T11:39:22.673Z</time></trkpt><trkpt lat="38.4527203" lon="-2.0569601"><ele>644.0</ele><time>2026-04-13T11:39:23.673Z</time></trkpt><trkpt lat="38.4527447" lon="-2.0567184"><ele>642.0</ele><time>2026-04-13T11:39:24.674Z</time></trkpt><trkpt lat="38.4527692" lon="-2.0564735"><ele>641.0</ele><time>2026-04-13T11:39:25.673Z</time></trkpt><trkpt lat="38.4527952" lon="-2.0562288"><ele>640.0</ele><time>2026-04-13T11:39:26.673Z</time></trkpt><trkpt lat="38.452816" lon="-2.0559997"><ele>639.0</ele><time>2026-04-13T11:39:27.673Z</time></trkpt><trkpt lat="38.4528376" lon="-2.0557845"><ele>638.0</ele><time>2026-04-13T11:39:28.673Z</time></trkpt><trkpt lat="38.452854" lon="-2.055562"><ele>637.0</ele><time>2026-04-13T11:39:29.673Z</time></trkpt><trkpt lat="38.4528611" lon="-2.0553437"><ele>636.0</ele><time>2026-04-13T11:39:30.673Z</time></trkpt><trkpt lat="38.4528611" lon="-2.0551254"><ele>637.0</ele><time>2026-04-13T11:39:31.673Z</time></trkpt><trkpt lat="38.4528539" lon="-2.0549064"><ele>638.0</ele><time>2026-04-13T11:39:32.673Z</time></trkpt><trkpt lat="38.4528353" lon="-2.0546966"><ele>639.0</ele><time>2026-04-13T11:39:33.673Z</time></trkpt><trkpt lat="38.4528101" lon="-2.054502"><ele>639.0</ele><time>2026-04-13T11:39:34.673Z</time></trkpt><trkpt lat="38.4527822" lon="-2.0543391"><ele>639.0</ele><time>2026-04-13T11:39:35.673Z</time></trkpt><trkpt lat="38.4527509" lon="-2.0541834"><ele>639.0</ele><time>2026-04-13T11:39:36.673Z</time></trkpt><trkpt lat="38.452724" lon="-2.0540368"><ele>639.0</ele><time>2026-04-13T11:39:37.673Z</time></trkpt><trkpt lat="38.4526923" lon="-2.0538879"><ele>639.6</ele><time>2026-04-13T11:39:38.673Z</time></trkpt><trkpt lat="38.4526552" lon="-2.0537331"><ele>640.2</ele><time>2026-04-13T11:39:39.673Z</time></trkpt><trkpt lat="38.4526307" lon="-2.0536152"><ele>640.8000000000001</ele><time>2026-04-13T11:39:40.673Z</time></trkpt><trkpt lat="38.4526011" lon="-2.0534882"><ele>641.4</ele><time>2026-04-13T11:39:41.673Z</time></trkpt><trkpt lat="38.4525713" lon="-2.0533584"><ele>642.0</ele><time>2026-04-13T11:39:42.673Z</time></trkpt><trkpt lat="38.4525379" lon="-2.0532266"><ele>642.4000000000001</ele><time>2026-04-13T11:39:43.673Z</time></trkpt><trkpt lat="38.4525102" lon="-2.0530992"><ele>642.8000000000001</ele><time>2026-04-13T11:39:44.673Z</time></trkpt><trkpt lat="38.4524838" lon="-2.0529728"><ele>643.2</ele><time>2026-04-13T11:39:45.673Z</time></trkpt><trkpt lat="38.4524612" lon="-2.0528508"><ele>643.6</ele><time>2026-04-13T11:39:46.673Z</time></trkpt><trkpt lat="38.4524403" lon="-2.0527264"><ele>644.0</ele><time>2026-04-13T11:39:47.673Z</time></trkpt><trkpt lat="38.4524197" lon="-2.0526021"><ele>644.0</ele><time>2026-04-13T11:39:48.673Z</time></trkpt><trkpt lat="38.4523993" lon="-2.0524811"><ele>644.0</ele><time>2026-04-13T11:39:49.674Z</time></trkpt><trkpt lat="38.4523818" lon="-2.0523616"><ele>644.0</ele><time>2026-04-13T11:39:50.673Z</time></trkpt><trkpt lat="38.4523617" lon="-2.0522403"><ele>644.0</ele><time>2026-04-13T11:39:51.673Z</time></trkpt><trkpt lat="38.4523404" lon="-2.0521206"><ele>644.0</ele><time>2026-04-13T11:39:52.673Z</time></trkpt><trkpt lat="38.4523227" lon="-2.0520043"><ele>644.3333333333333</ele><time>2026-04-13T11:39:53.673Z</time></trkpt><trkpt lat="38.4523057" lon="-2.0518924"><ele>644.6666666666666</ele><time>2026-04-13T11:39:54.673Z</time></trkpt><trkpt lat="38.4522876" lon="-2.0517821"><ele>645.0</ele><time>2026-04-13T11:39:55.673Z</time></trkpt><trkpt lat="38.4522705" lon="-2.0516808"><ele>645.3333333333334</ele><time>2026-04-13T11:39:56.673Z</time></trkpt><trkpt lat="38.4522525" lon="-2.0515796"><ele>645.6666666666667</ele><time>2026-04-13T11:39:57.673Z</time></trkpt><trkpt lat="38.4522374" lon="-2.0514809"><ele>646.0</ele><time>2026-04-13T11:39:58.673Z</time></trkpt><trkpt lat="38.4522244" lon="-2.0513889"><ele>646.6666666666667</ele><time>2026-04-13T11:39:59.673Z</time></trkpt><trkpt lat="38.4522133" lon="-2.0513071"><ele>647.3333333333334</ele><time>2026-04-13T11:40:00.673Z</time></trkpt><trkpt lat="38.4521981" lon="-2.0511721"><ele>648.0</ele><time>2026-04-13T11:40:02.673Z</time></trkpt><trkpt lat="38.4521771" lon="-2.0510358"><ele>648.6666666666666</ele><time>2026-04-13T11:40:04.673Z</time></trkpt><trkpt lat="38.4521613" lon="-2.0509377"><ele>649.3333333333333</ele><time>2026-04-13T11:40:05.673Z</time></trkpt><trkpt lat="38.4521475" lon="-2.0508384"><ele>650.0</ele><time>2026-04-13T11:40:06.673Z</time></trkpt><trkpt lat="38.4521344" lon="-2.0507396"><ele>650.1666666666666</ele><time>2026-04-13T11:40:07.673Z</time></trkpt><trkpt lat="38.4521208" lon="-2.0506372"><ele>650.3333333333333</ele><time>2026-04-13T11:40:08.673Z</time></trkpt><trkpt lat="38.4521014" lon="-2.0505353"><ele>650.5</ele><time>2026-04-13T11:40:09.673Z</time></trkpt><trkpt lat="38.4520816" lon="-2.0504277"><ele>650.6666666666666</ele><time>2026-04-13T11:40:10.673Z</time></trkpt><trkpt lat="38.4520716" lon="-2.050345"><ele>650.8333333333334</ele><time>2026-04-13T11:40:11.673Z</time></trkpt><trkpt lat="38.4520615" lon="-2.0502613"><ele>651.0</ele><time>2026-04-13T11:40:12.673Z</time></trkpt><trkpt lat="38.4520467" lon="-2.0501742"><ele>651.0</ele><time>2026-04-13T11:40:13.673Z</time></trkpt><trkpt lat="38.4520344" lon="-2.050076"><ele>651.0</ele><time>2026-04-13T11:40:14.673Z</time></trkpt><trkpt lat="38.4520196" lon="-2.0499814"><ele>651.0</ele><time>2026-04-13T11:40:15.673Z</time></trkpt><trkpt lat="38.452001" lon="-2.0498953"><ele>651.0</ele><time>2026-04-13T11:40:16.673Z</time></trkpt><trkpt lat="38.4519834" lon="-2.0498095"><ele>651.0</ele><time>2026-04-13T11:40:17.673Z</time></trkpt><trkpt lat="38.451967" lon="-2.0497197"><ele>651.0</ele><time>2026-04-13T11:40:18.673Z</time></trkpt><trkpt lat="38.4519481" lon="-2.0496321"><ele>651.0</ele><time>2026-04-13T11:40:19.673Z</time></trkpt><trkpt lat="38.4519245" lon="-2.0495444"><ele>650.8333333333334</ele><time>2026-04-13T11:40:20.673Z</time></trkpt><trkpt lat="38.4518874" lon="-2.0494688"><ele>650.6666666666666</ele><time>2026-04-13T11:40:21.673Z</time></trkpt><trkpt lat="38.4518372" lon="-2.0493938"><ele>650.5</ele><time>2026-04-13T11:40:22.673Z</time></trkpt><trkpt lat="38.4517835" lon="-2.0493255"><ele>650.3333333333333</ele><time>2026-04-13T11:40:23.673Z</time></trkpt><trkpt lat="38.4517272" lon="-2.0492578"><ele>650.1666666666666</ele><time>2026-04-13T11:40:24.673Z</time></trkpt><trkpt lat="38.4516747" lon="-2.0491942"><ele>650.0</ele><time>2026-04-13T11:40:25.673Z</time></trkpt><trkpt lat="38.4515925" lon="-2.0490951"><ele>649.0</ele><time>2026-04-13T11:40:27.673Z</time></trkpt><trkpt lat="38.4515416" lon="-2.0490381"><ele>648.0</ele><time>2026-04-13T11:40:29.673Z</time></trkpt><trkpt lat="38.4514899" lon="-2.0489826"><ele>647.0</ele><time>2026-04-13T11:40:31.674Z</time></trkpt><trkpt lat="38.4514209" lon="-2.0489044"><ele>646.0</ele><time>2026-04-13T11:40:34.673Z</time></trkpt><trkpt lat="38.4513604" lon="-2.0488355"><ele>645.0</ele><time>2026-04-13T11:40:36.673Z</time></trkpt><trkpt lat="38.4512702" lon="-2.0487501"><ele>644.0</ele><time>2026-04-13T11:40:38.673Z</time></trkpt><trkpt lat="38.4511672" lon="-2.0486637"><ele>643.6666666666666</ele><time>2026-04-13T11:40:40.673Z</time></trkpt><trkpt lat="38.4510634" lon="-2.0485812"><ele>643.3333333333333</ele><time>2026-04-13T11:40:42.673Z</time></trkpt><trkpt lat="38.4509953" lon="-2.0485284"><ele>643.0</ele><time>2026-04-13T11:40:44.673Z</time></trkpt><trkpt lat="38.4509341" lon="-2.0484804"><ele>642.6666666666666</ele><time>2026-04-13T11:40:46.673Z</time></trkpt><trkpt lat="38.4508426" lon="-2.0484051"><ele>642.3333333333334</ele><time>2026-04-13T11:40:48.673Z</time></trkpt><trkpt lat="38.4507865" lon="-2.0483631"><ele>642.0</ele><time>2026-04-13T11:40:49.673Z</time></trkpt><trkpt lat="38.4507268" lon="-2.0483223"><ele>641.9999999999999</ele><time>2026-04-13T11:40:50.673Z</time></trkpt><trkpt lat="38.4506675" lon="-2.0482778"><ele>642.0</ele><time>2026-04-13T11:40:51.673Z</time></trkpt><trkpt lat="38.4506175" lon="-2.0482265"><ele>642.0</ele><time>2026-04-13T11:40:52.673Z</time></trkpt><trkpt lat="38.4505785" lon="-2.04815"><ele>642.0</ele><time>2026-04-13T11:40:53.673Z</time></trkpt><trkpt lat="38.4505566" lon="-2.048053"><ele>642.0</ele><time>2026-04-13T11:40:54.673Z</time></trkpt><trkpt lat="38.4505691" lon="-2.0479607"><ele>641.9999999999999</ele><time>2026-04-13T11:40:55.673Z</time></trkpt><trkpt lat="38.4505869" lon="-2.0478785"><ele>642.0</ele><time>2026-04-13T11:40:56.673Z</time></trkpt><trkpt lat="38.4506033" lon="-2.0477965"><ele>642.0</ele><time>2026-04-13T11:40:57.673Z</time></trkpt><trkpt lat="38.4506237" lon="-2.0476905"><ele>642.0</ele><time>2026-04-13T11:40:59.673Z</time></trkpt><trkpt lat="38.4506459" lon="-2.0475802"><ele>642.0</ele><time>2026-04-13T11:41:01.673Z</time></trkpt><trkpt lat="38.4506816" lon="-2.0474204"><ele>642.0</ele><time>2026-04-13T11:41:03.673Z</time></trkpt><trkpt lat="38.4507071" lon="-2.047326"><ele>642.0</ele><time>2026-04-13T11:41:04.673Z</time></trkpt><trkpt lat="38.4507318" lon="-2.0472252"><ele>642.0</ele><time>2026-04-13T11:41:05.673Z</time></trkpt><trkpt lat="38.4507575" lon="-2.0471326"><ele>642.0</ele><time>2026-04-13T11:41:06.673Z</time></trkpt><trkpt lat="38.4507729" lon="-2.0470418"><ele>642.0</ele><time>2026-04-13T11:41:07.673Z</time></trkpt><trkpt lat="38.4508017" lon="-2.0468909"><ele>642.0</ele><time>2026-04-13T11:41:09.674Z</time></trkpt><trkpt lat="38.450816" lon="-2.0468107"><ele>642.0</ele><time>2026-04-13T11:41:10.673Z</time></trkpt><trkpt lat="38.4508721" lon="-2.0466244"><ele>642.0</ele><time>2026-04-13T11:41:12.673Z</time></trkpt><trkpt lat="38.4508946" lon="-2.0465188"><ele>642.0</ele><time>2026-04-13T11:41:13.673Z</time></trkpt><trkpt lat="38.4509165" lon="-2.046415"><ele>642.0</ele><time>2026-04-13T11:41:14.673Z</time></trkpt><trkpt lat="38.4509333" lon="-2.0463033"><ele>642.0</ele><time>2026-04-13T11:41:15.673Z</time></trkpt><trkpt lat="38.4509588" lon="-2.0462004"><ele>642.0</ele><time>2026-04-13T11:41:16.673Z</time></trkpt><trkpt lat="38.4509805" lon="-2.0460904"><ele>642.0</ele><time>2026-04-13T11:41:17.673Z</time></trkpt><trkpt lat="38.4510069" lon="-2.0459795"><ele>642.0</ele><time>2026-04-13T11:41:18.673Z</time></trkpt><trkpt lat="38.451031" lon="-2.045864"><ele>642.0</ele><time>2026-04-13T11:41:19.673Z</time></trkpt><trkpt lat="38.4510614" lon="-2.0457434"><ele>642.0</ele><time>2026-04-13T11:41:20.673Z</time></trkpt><trkpt lat="38.4510893" lon="-2.045617"><ele>642.0</ele><time>2026-04-13T11:41:21.673Z</time></trkpt><trkpt lat="38.4511096" lon="-2.0455011"><ele>642.0</ele><time>2026-04-13T11:41:22.673Z</time></trkpt><trkpt lat="38.4511325" lon="-2.0453731"><ele>642.6</ele><time>2026-04-13T11:41:23.673Z</time></trkpt><trkpt lat="38.4511565" lon="-2.0452587"><ele>643.2</ele><time>2026-04-13T11:41:24.673Z</time></trkpt><trkpt lat="38.4511788" lon="-2.045145"><ele>643.8</ele><time>2026-04-13T11:41:25.673Z</time></trkpt><trkpt lat="38.4511991" lon="-2.0450559"><ele>644.4</ele><time>2026-04-13T11:41:26.673Z</time></trkpt><trkpt lat="38.4512289" lon="-2.0449258"><ele>645.0</ele><time>2026-04-13T11:41:28.673Z</time></trkpt><trkpt lat="38.4512441" lon="-2.0447599"><ele>645.3333333333334</ele><time>2026-04-13T11:41:30.673Z</time></trkpt><trkpt lat="38.4512574" lon="-2.0446716"><ele>645.6666666666666</ele><time>2026-04-13T11:41:31.673Z</time></trkpt><trkpt lat="38.4512708" lon="-2.0445721"><ele>646.0</ele><time>2026-04-13T11:41:32.673Z</time></trkpt><trkpt lat="38.4512806" lon="-2.0444669"><ele>646.3333333333333</ele><time>2026-04-13T11:41:33.673Z</time></trkpt><trkpt lat="38.451287" lon="-2.0443501"><ele>646.6666666666666</ele><time>2026-04-13T11:41:34.673Z</time></trkpt><trkpt lat="38.4512888" lon="-2.0442359"><ele>647.0</ele><time>2026-04-13T11:41:35.673Z</time></trkpt><trkpt lat="38.4512831" lon="-2.0441196"><ele>647.5</ele><time>2026-04-13T11:41:36.673Z</time></trkpt><trkpt lat="38.4512776" lon="-2.0439902"><ele>648.0</ele><time>2026-04-13T11:41:37.673Z</time></trkpt><trkpt lat="38.4512689" lon="-2.0438684"><ele>648.5</ele><time>2026-04-13T11:41:38.673Z</time></trkpt><trkpt lat="38.4512622" lon="-2.0437543"><ele>649.0</ele><time>2026-04-13T11:41:39.673Z</time></trkpt><trkpt lat="38.4512536" lon="-2.0436635"><ele>649.5</ele><time>2026-04-13T11:41:40.673Z</time></trkpt><trkpt lat="38.4512372" lon="-2.0435514"><ele>650.0</ele><time>2026-04-13T11:41:42.673Z</time></trkpt><trkpt lat="38.4512174" lon="-2.0434317"><ele>650.0</ele><time>2026-04-13T11:41:44.673Z</time></trkpt><trkpt lat="38.4512031" lon="-2.0433483"><ele>650.0</ele><time>2026-04-13T11:41:45.673Z</time></trkpt><trkpt lat="38.4511892" lon="-2.0432496"><ele>650.0</ele><time>2026-04-13T11:41:46.673Z</time></trkpt><trkpt lat="38.4511731" lon="-2.0431436"><ele>650.0</ele><time>2026-04-13T11:41:47.673Z</time></trkpt><trkpt lat="38.4511569" lon="-2.0430372"><ele>650.0</ele><time>2026-04-13T11:41:48.673Z</time></trkpt><trkpt lat="38.4511403" lon="-2.042924"><ele>650.0</ele><time>2026-04-13T11:41:49.673Z</time></trkpt><trkpt lat="38.4511221" lon="-2.0427993"><ele>650.6</ele><time>2026-04-13T11:41:50.673Z</time></trkpt><trkpt lat="38.4511076" lon="-2.0426676"><ele>651.2</ele><time>2026-04-13T11:41:51.673Z</time></trkpt><trkpt lat="38.4511015" lon="-2.0425295"><ele>651.8</ele><time>2026-04-13T11:41:52.673Z</time></trkpt><trkpt lat="38.4511048" lon="-2.0423933"><ele>652.4</ele><time>2026-04-13T11:41:53.673Z</time></trkpt><trkpt lat="38.4511166" lon="-2.0422496"><ele>653.0</ele><time>2026-04-13T11:41:54.673Z</time></trkpt><trkpt lat="38.4511405" lon="-2.0421028"><ele>653.0</ele><time>2026-04-13T11:41:55.673Z</time></trkpt><trkpt lat="38.4511694" lon="-2.0419524"><ele>653.0</ele><time>2026-04-13T11:41:56.673Z</time></trkpt><trkpt lat="38.4512007" lon="-2.0417997"><ele>653.0</ele><time>2026-04-13T11:41:57.673Z</time></trkpt><trkpt lat="38.4512341" lon="-2.0416391"><ele>653.0</ele><time>2026-04-13T11:41:58.673Z</time></trkpt><trkpt lat="38.4512673" lon="-2.0414746"><ele>656.25</ele><time>2026-04-13T11:41:59.673Z</time></trkpt><trkpt lat="38.4513033" lon="-2.0413048"><ele>659.5</ele><time>2026-04-13T11:42:00.673Z</time></trkpt><trkpt lat="38.4513402" lon="-2.0411317"><ele>662.75</ele><time>2026-04-13T11:42:01.673Z</time></trkpt><trkpt lat="38.4513788" lon="-2.0409491"><ele>666.0</ele><time>2026-04-13T11:42:02.673Z</time></trkpt><trkpt lat="38.4514168" lon="-2.0407644"><ele>666.6666666666666</ele><time>2026-04-13T11:42:03.673Z</time></trkpt><trkpt lat="38.451461" lon="-2.0405732"><ele>667.3333333333333</ele><time>2026-04-13T11:42:04.673Z</time></trkpt><trkpt lat="38.4515012" lon="-2.0403842"><ele>668.0</ele><time>2026-04-13T11:42:05.673Z</time></trkpt><trkpt lat="38.45154" lon="-2.040189"><ele>668.0</ele><time>2026-04-13T11:42:06.673Z</time></trkpt><trkpt lat="38.4515797" lon="-2.0399927"><ele>668.0</ele><time>2026-04-13T11:42:07.673Z</time></trkpt><trkpt lat="38.4516238" lon="-2.0397928"><ele>668.0</ele><time>2026-04-13T11:42:08.673Z</time></trkpt><trkpt lat="38.4516691" lon="-2.0395931"><ele>671.0</ele><time>2026-04-13T11:42:09.673Z</time></trkpt><trkpt lat="38.4517186" lon="-2.0393993"><ele>674.0</ele><time>2026-04-13T11:42:10.673Z</time></trkpt><trkpt lat="38.4517732" lon="-2.0392052"><ele>677.0</ele><time>2026-04-13T11:42:11.673Z</time></trkpt><trkpt lat="38.4518414" lon="-2.0390173"><ele>683.3333333333333</ele><time>2026-04-13T11:42:12.673Z</time></trkpt><trkpt lat="38.4519179" lon="-2.0388341"><ele>689.6666666666666</ele><time>2026-04-13T11:42:13.673Z</time></trkpt><trkpt lat="38.4520011" lon="-2.0386582"><ele>696.0</ele><time>2026-04-13T11:42:14.673Z</time></trkpt><trkpt lat="38.4520925" lon="-2.0384821"><ele>695.3333333333334</ele><time>2026-04-13T11:42:15.673Z</time></trkpt><trkpt lat="38.4521837" lon="-2.0383002"><ele>694.6666666666667</ele><time>2026-04-13T11:42:16.673Z</time></trkpt><trkpt lat="38.4522771" lon="-2.038116"><ele>694.0</ele><time>2026-04-13T11:42:17.674Z</time></trkpt><trkpt lat="38.4523726" lon="-2.0379285"><ele>694.0</ele><time>2026-04-13T11:42:18.673Z</time></trkpt><trkpt lat="38.4524664" lon="-2.0377317"><ele>694.0</ele><time>2026-04-13T11:42:19.673Z</time></trkpt><trkpt lat="38.4525637" lon="-2.0375396"><ele>694.0</ele><time>2026-04-13T11:42:20.673Z</time></trkpt><trkpt lat="38.4526558" lon="-2.0373448"><ele>696.3333333333334</ele><time>2026-04-13T11:42:21.673Z</time></trkpt><trkpt lat="38.4527453" lon="-2.0371415"><ele>698.6666666666666</ele><time>2026-04-13T11:42:22.673Z</time></trkpt><trkpt lat="38.4528265" lon="-2.0369303"><ele>701.0</ele><time>2026-04-13T11:42:23.673Z</time></trkpt><trkpt lat="38.4528894" lon="-2.0366999"><ele>700.0</ele><time>2026-04-13T11:42:24.673Z</time></trkpt><trkpt lat="38.4529428" lon="-2.0364589"><ele>699.0</ele><time>2026-04-13T11:42:25.673Z</time></trkpt><trkpt lat="38.4529816" lon="-2.0362095"><ele>698.0</ele><time>2026-04-13T11:42:26.673Z</time></trkpt><trkpt lat="38.4530018" lon="-2.0359541"><ele>694.0</ele><time>2026-04-13T11:42:27.673Z</time></trkpt><trkpt lat="38.4530035" lon="-2.0356866"><ele>690.0</ele><time>2026-04-13T11:42:28.673Z</time></trkpt><trkpt lat="38.4529829" lon="-2.035407"><ele>686.0</ele><time>2026-04-13T11:42:29.673Z</time></trkpt><trkpt lat="38.4529445" lon="-2.0351338"><ele>684.3333333333333</ele><time>2026-04-13T11:42:30.673Z</time></trkpt><trkpt lat="38.4528968" lon="-2.0348608"><ele>682.6666666666666</ele><time>2026-04-13T11:42:31.673Z</time></trkpt><trkpt lat="38.452844" lon="-2.0345833"><ele>681.0</ele><time>2026-04-13T11:42:32.673Z</time></trkpt><trkpt lat="38.4527952" lon="-2.0342943"><ele>679.0</ele><time>2026-04-13T11:42:33.673Z</time></trkpt><trkpt lat="38.4527576" lon="-2.0339987"><ele>677.0</ele><time>2026-04-13T11:42:34.673Z</time></trkpt><trkpt lat="38.452746" lon="-2.033706"><ele>677.0</ele><time>2026-04-13T11:42:35.673Z</time></trkpt><trkpt lat="38.4527556" lon="-2.0334117"><ele>677.0</ele><time>2026-04-13T11:42:36.673Z</time></trkpt><trkpt lat="38.4527907" lon="-2.0331214"><ele>675.5</ele><time>2026-04-13T11:42:37.673Z</time></trkpt><trkpt lat="38.4528454" lon="-2.0328352"><ele>674.0</ele><time>2026-04-13T11:42:38.673Z</time></trkpt><trkpt lat="38.4529267" lon="-2.0325596"><ele>672.0</ele><time>2026-04-13T11:42:39.673Z</time></trkpt><trkpt lat="38.4530293" lon="-2.0322958"><ele>670.0</ele><time>2026-04-13T11:42:40.673Z</time></trkpt><trkpt lat="38.4531371" lon="-2.032036"><ele>670.0</ele><time>2026-04-13T11:42:41.673Z</time></trkpt><trkpt lat="38.4532493" lon="-2.0317801"><ele>670.0</ele><time>2026-04-13T11:42:42.673Z</time></trkpt><trkpt lat="38.4533624" lon="-2.0315265"><ele>671.5</ele><time>2026-04-13T11:42:43.673Z</time></trkpt><trkpt lat="38.4534815" lon="-2.0312807"><ele>673.0</ele><time>2026-04-13T11:42:44.673Z</time></trkpt><trkpt lat="38.4536142" lon="-2.0310503"><ele>673.0</ele><time>2026-04-13T11:42:45.673Z</time></trkpt><trkpt lat="38.4537627" lon="-2.0308362"><ele>673.0</ele><time>2026-04-13T11:42:46.673Z</time></trkpt><trkpt lat="38.45393" lon="-2.0306454"><ele>673.0</ele><time>2026-04-13T11:42:47.673Z</time></trkpt><trkpt lat="38.4541103" lon="-2.030472"><ele>671.5</ele><time>2026-04-13T11:42:48.673Z</time></trkpt><trkpt lat="38.4543027" lon="-2.0303144"><ele>670.0</ele><time>2026-04-13T11:42:49.673Z</time></trkpt><trkpt lat="38.4545094" lon="-2.0301775"><ele>669.0</ele><time>2026-04-13T11:42:50.673Z</time></trkpt><trkpt lat="38.4547143" lon="-2.030051"><ele>668.0</ele><time>2026-04-13T11:42:51.673Z</time></trkpt><trkpt lat="38.4549207" lon="-2.0299241"><ele>674.0</ele><time>2026-04-13T11:42:52.673Z</time></trkpt><trkpt lat="38.4551234" lon="-2.0297933"><ele>680.0</ele><time>2026-04-13T11:42:53.673Z</time></trkpt><trkpt lat="38.4553196" lon="-2.02964"><ele>674.5</ele><time>2026-04-13T11:42:54.673Z</time></trkpt><trkpt lat="38.4555026" lon="-2.0294619"><ele>669.0</ele><time>2026-04-13T11:42:55.673Z</time></trkpt><trkpt lat="38.4556717" lon="-2.0292591"><ele>672.5</ele><time>2026-04-13T11:42:56.674Z</time></trkpt><trkpt lat="38.4558322" lon="-2.0290363"><ele>676.0</ele><time>2026-04-13T11:42:57.673Z</time></trkpt><trkpt lat="38.4559899" lon="-2.028806"><ele>676.0</ele><time>2026-04-13T11:42:58.673Z</time></trkpt><trkpt lat="38.456143" lon="-2.0285703"><ele>676.0</ele><time>2026-04-13T11:42:59.673Z</time></trkpt><trkpt lat="38.4562959" lon="-2.0283321"><ele>668.0</ele><time>2026-04-13T11:43:00.673Z</time></trkpt><trkpt lat="38.4564473" lon="-2.028095"><ele>660.0</ele><time>2026-04-13T11:43:01.673Z</time></trkpt><trkpt lat="38.4565936" lon="-2.0278629"><ele>660.0</ele><time>2026-04-13T11:43:02.673Z</time></trkpt><trkpt lat="38.4567357" lon="-2.0276378"><ele>660.0</ele><time>2026-04-13T11:43:03.673Z</time></trkpt><trkpt lat="38.4568669" lon="-2.0274018"><ele>662.5</ele><time>2026-04-13T11:43:04.673Z</time></trkpt><trkpt lat="38.4569861" lon="-2.0271543"><ele>665.0</ele><time>2026-04-13T11:43:05.673Z</time></trkpt><trkpt lat="38.4570838" lon="-2.0268898"><ele>655.0</ele><time>2026-04-13T11:43:06.673Z</time></trkpt><trkpt lat="38.4571627" lon="-2.0266148"><ele>645.0</ele><time>2026-04-13T11:43:07.673Z</time></trkpt><trkpt lat="38.4572338" lon="-2.0263341"><ele>645.0</ele><time>2026-04-13T11:43:08.673Z</time></trkpt><trkpt lat="38.4573063" lon="-2.0260505"><ele>645.0</ele><time>2026-04-13T11:43:09.673Z</time></trkpt><trkpt lat="38.4573769" lon="-2.0257624"><ele>647.5</ele><time>2026-04-13T11:43:10.673Z</time></trkpt><trkpt lat="38.4574471" lon="-2.0254777"><ele>650.0</ele><time>2026-04-13T11:43:11.673Z</time></trkpt><trkpt lat="38.4575168" lon="-2.0251977"><ele>654.3333333333333</ele><time>2026-04-13T11:43:12.673Z</time></trkpt><trkpt lat="38.4575888" lon="-2.0249279"><ele>658.6666666666666</ele><time>2026-04-13T11:43:13.673Z</time></trkpt><trkpt lat="38.4576651" lon="-2.0246649"><ele>663.0</ele><time>2026-04-13T11:43:14.673Z</time></trkpt><trkpt lat="38.4577507" lon="-2.0244226"><ele>663.0</ele><time>2026-04-13T11:43:15.673Z</time></trkpt><trkpt lat="38.4578553" lon="-2.0241975"><ele>663.0</ele><time>2026-04-13T11:43:16.674Z</time></trkpt><trkpt lat="38.4579846" lon="-2.0239983"><ele>663.0</ele><time>2026-04-13T11:43:17.673Z</time></trkpt><trkpt lat="38.4581306" lon="-2.0238218"><ele>660.3333333333334</ele><time>2026-04-13T11:43:18.673Z</time></trkpt><trkpt lat="38.4582985" lon="-2.0236775"><ele>657.6666666666667</ele><time>2026-04-13T11:43:19.673Z</time></trkpt><trkpt lat="38.4584821" lon="-2.0235602"><ele>655.0</ele><time>2026-04-13T11:43:20.673Z</time></trkpt><trkpt lat="38.4586817" lon="-2.0234709"><ele>656.6666666666667</ele><time>2026-04-13T11:43:21.673Z</time></trkpt><trkpt lat="38.4588961" lon="-2.0234105"><ele>658.3333333333334</ele><time>2026-04-13T11:43:22.673Z</time></trkpt><trkpt lat="38.4591137" lon="-2.0233633"><ele>660.0</ele><time>2026-04-13T11:43:23.673Z</time></trkpt><trkpt lat="38.4593338" lon="-2.0233095"><ele>660.0</ele><time>2026-04-13T11:43:24.673Z</time></trkpt><trkpt lat="38.4595539" lon="-2.0232608"><ele>660.0</ele><time>2026-04-13T11:43:25.673Z</time></trkpt><trkpt lat="38.4597717" lon="-2.0232086"><ele>660.0</ele><time>2026-04-13T11:43:26.673Z</time></trkpt><trkpt lat="38.4599921" lon="-2.0231579"><ele>658.0</ele><time>2026-04-13T11:43:27.673Z</time></trkpt><trkpt lat="38.4602092" lon="-2.0231084"><ele>656.0</ele><time>2026-04-13T11:43:28.673Z</time></trkpt><trkpt lat="38.4604208" lon="-2.0230649"><ele>654.0</ele><time>2026-04-13T11:43:29.673Z</time></trkpt><trkpt lat="38.4606217" lon="-2.02302"><ele>649.3333333333334</ele><time>2026-04-13T11:43:30.674Z</time></trkpt><trkpt lat="38.460818" lon="-2.0229772"><ele>644.6666666666667</ele><time>2026-04-13T11:43:31.673Z</time></trkpt><trkpt lat="38.4610182" lon="-2.0229283"><ele>640.0</ele><time>2026-04-13T11:43:32.673Z</time></trkpt><trkpt lat="38.4612103" lon="-2.0228868"><ele>636.6666666666667</ele><time>2026-04-13T11:43:33.673Z</time></trkpt><trkpt lat="38.4613944" lon="-2.0228469"><ele>633.3333333333334</ele><time>2026-04-13T11:43:34.673Z</time></trkpt><trkpt lat="38.461568" lon="-2.0228067"><ele>630.0</ele><time>2026-04-13T11:43:35.673Z</time></trkpt><trkpt lat="38.4617382" lon="-2.02276"><ele>630.0</ele><time>2026-04-13T11:43:36.673Z</time></trkpt><trkpt lat="38.461906" lon="-2.0226902"><ele>630.0</ele><time>2026-04-13T11:43:37.673Z</time></trkpt><trkpt lat="38.4620771" lon="-2.0225939"><ele>630.0</ele><time>2026-04-13T11:43:38.673Z</time></trkpt><trkpt lat="38.4622356" lon="-2.0224676"><ele>628.0</ele><time>2026-04-13T11:43:39.673Z</time></trkpt><trkpt lat="38.4623861" lon="-2.0223128"><ele>626.0</ele><time>2026-04-13T11:43:40.673Z</time></trkpt><trkpt lat="38.4625174" lon="-2.0221265"><ele>624.0</ele><time>2026-04-13T11:43:41.673Z</time></trkpt><trkpt lat="38.4626279" lon="-2.0219183"><ele>624.0</ele><time>2026-04-13T11:43:42.673Z</time></trkpt><trkpt lat="38.4627104" lon="-2.021688"><ele>624.0</ele><time>2026-04-13T11:43:43.673Z</time></trkpt><trkpt lat="38.4627643" lon="-2.0214398"><ele>624.0</ele><time>2026-04-13T11:43:44.673Z</time></trkpt><trkpt lat="38.4627868" lon="-2.0211844"><ele>623.0</ele><time>2026-04-13T11:43:45.673Z</time></trkpt><trkpt lat="38.4627992" lon="-2.0209326"><ele>622.0</ele><time>2026-04-13T11:43:46.673Z</time></trkpt><trkpt lat="38.4627551" lon="-2.020684"><ele>621.0</ele><time>2026-04-13T11:43:47.673Z</time></trkpt><trkpt lat="38.4627082" lon="-2.0204364"><ele>621.0</ele><time>2026-04-13T11:43:48.673Z</time></trkpt><trkpt lat="38.4626557" lon="-2.0201856"><ele>621.0</ele><time>2026-04-13T11:43:49.673Z</time></trkpt><trkpt lat="38.4626036" lon="-2.0199379"><ele>621.0</ele><time>2026-04-13T11:43:50.673Z</time></trkpt><trkpt lat="38.4625501" lon="-2.0196794"><ele>621.6666666666666</ele><time>2026-04-13T11:43:51.673Z</time></trkpt><trkpt lat="38.4624979" lon="-2.0194162"><ele>622.3333333333333</ele><time>2026-04-13T11:43:52.673Z</time></trkpt><trkpt lat="38.462455" lon="-2.019146"><ele>623.0</ele><time>2026-04-13T11:43:53.673Z</time></trkpt><trkpt lat="38.462431" lon="-2.0188755"><ele>623.0</ele><time>2026-04-13T11:43:54.673Z</time></trkpt><trkpt lat="38.4624301" lon="-2.0185989"><ele>623.0</ele><time>2026-04-13T11:43:55.673Z</time></trkpt><trkpt lat="38.4624439" lon="-2.0183193"><ele>623.0</ele><time>2026-04-13T11:43:56.673Z</time></trkpt><trkpt lat="38.4624716" lon="-2.0180408"><ele>623.0</ele><time>2026-04-13T11:43:57.673Z</time></trkpt><trkpt lat="38.4625087" lon="-2.0177596"><ele>623.0</ele><time>2026-04-13T11:43:58.673Z</time></trkpt><trkpt lat="38.4625432" lon="-2.0174799"><ele>623.0</ele><time>2026-04-13T11:43:59.673Z</time></trkpt><trkpt lat="38.4625767" lon="-2.0171965"><ele>623.0</ele><time>2026-04-13T11:44:00.673Z</time></trkpt><trkpt lat="38.4626096" lon="-2.0169084"><ele>623.0</ele><time>2026-04-13T11:44:01.673Z</time></trkpt><trkpt lat="38.4626416" lon="-2.0166156"><ele>623.5</ele><time>2026-04-13T11:44:02.673Z</time></trkpt><trkpt lat="38.4626745" lon="-2.0163194"><ele>624.0</ele><time>2026-04-13T11:44:03.673Z</time></trkpt><trkpt lat="38.4627119" lon="-2.0160214"><ele>624.0</ele><time>2026-04-13T11:44:04.673Z</time></trkpt><trkpt lat="38.4627469" lon="-2.01572"><ele>624.0</ele><time>2026-04-13T11:44:05.673Z</time></trkpt><trkpt lat="38.4627804" lon="-2.0154205"><ele>624.0</ele><time>2026-04-13T11:44:06.673Z</time></trkpt><trkpt lat="38.4628126" lon="-2.0151143"><ele>624.0</ele><time>2026-04-13T11:44:07.673Z</time></trkpt><trkpt lat="38.4628458" lon="-2.0148087"><ele>624.0</ele><time>2026-04-13T11:44:08.673Z</time></trkpt><trkpt lat="38.4628822" lon="-2.0144974"><ele>624.0</ele><time>2026-04-13T11:44:09.673Z</time></trkpt><trkpt lat="38.4629198" lon="-2.0141912"><ele>626.5</ele><time>2026-04-13T11:44:10.674Z</time></trkpt><trkpt lat="38.4629529" lon="-2.0138866"><ele>629.0</ele><time>2026-04-13T11:44:11.673Z</time></trkpt><trkpt lat="38.4629939" lon="-2.0135864"><ele>629.5</ele><time>2026-04-13T11:44:12.673Z</time></trkpt><trkpt lat="38.4630215" lon="-2.0132725"><ele>630.0</ele><time>2026-04-13T11:44:13.673Z</time></trkpt><trkpt lat="38.4630702" lon="-2.0129789"><ele>630.0</ele><time>2026-04-13T11:44:14.673Z</time></trkpt><trkpt lat="38.4631209" lon="-2.0126223"><ele>630.0</ele><time>2026-04-13T11:44:15.673Z</time></trkpt><trkpt lat="38.4631642" lon="-2.0122931"><ele>629.0</ele><time>2026-04-13T11:44:16.673Z</time></trkpt><trkpt lat="38.4632111" lon="-2.0119673"><ele>628.0</ele><time>2026-04-13T11:44:17.673Z</time></trkpt><trkpt lat="38.4632469" lon="-2.0116351"><ele>626.5</ele><time>2026-04-13T11:44:18.673Z</time></trkpt><trkpt lat="38.4632872" lon="-2.0112987"><ele>625.0</ele><time>2026-04-13T11:44:19.673Z</time></trkpt><trkpt lat="38.4633294" lon="-2.0109741"><ele>624.5</ele><time>2026-04-13T11:44:20.673Z</time></trkpt><trkpt lat="38.4633702" lon="-2.0106465"><ele>624.0</ele><time>2026-04-13T11:44:21.673Z</time></trkpt><trkpt lat="38.4634084" lon="-2.0103175"><ele>624.0</ele><time>2026-04-13T11:44:22.673Z</time></trkpt><trkpt lat="38.4634465" lon="-2.0099952"><ele>624.0</ele><time>2026-04-13T11:44:23.674Z</time></trkpt><trkpt lat="38.4634886" lon="-2.0096775"><ele>622.5</ele><time>2026-04-13T11:44:24.673Z</time></trkpt><trkpt lat="38.4635273" lon="-2.0093592"><ele>621.0</ele><time>2026-04-13T11:44:25.673Z</time></trkpt><trkpt lat="38.4635652" lon="-2.0090353"><ele>619.5</ele><time>2026-04-13T11:44:26.673Z</time></trkpt><trkpt lat="38.4636046" lon="-2.0087116"><ele>618.0</ele><time>2026-04-13T11:44:27.673Z</time></trkpt><trkpt lat="38.4636458" lon="-2.0083856"><ele>618.0</ele><time>2026-04-13T11:44:28.673Z</time></trkpt><trkpt lat="38.4636851" lon="-2.0080616"><ele>618.0</ele><time>2026-04-13T11:44:29.673Z</time></trkpt><trkpt lat="38.4637247" lon="-2.0077315"><ele>618.5</ele><time>2026-04-13T11:44:30.673Z</time></trkpt><trkpt lat="38.4637623" lon="-2.0073967"><ele>619.0</ele><time>2026-04-13T11:44:31.673Z</time></trkpt><trkpt lat="38.4638045" lon="-2.0070589"><ele>620.0</ele><time>2026-04-13T11:44:32.673Z</time></trkpt><trkpt lat="38.463849" lon="-2.0067166"><ele>621.0</ele><time>2026-04-13T11:44:33.673Z</time></trkpt><trkpt lat="38.4638853" lon="-2.0063747"><ele>621.0</ele><time>2026-04-13T11:44:34.674Z</time></trkpt><trkpt lat="38.4639247" lon="-2.0060396"><ele>621.0</ele><time>2026-04-13T11:44:35.673Z</time></trkpt><trkpt lat="38.4639696" lon="-2.0057105"><ele>621.0</ele><time>2026-04-13T11:44:36.673Z</time></trkpt><trkpt lat="38.4640061" lon="-2.0053788"><ele>621.0</ele><time>2026-04-13T11:44:37.673Z</time></trkpt><trkpt lat="38.4640416" lon="-2.0050508"><ele>622.5</ele><time>2026-04-13T11:44:38.673Z</time></trkpt><trkpt lat="38.4640776" lon="-2.0047252"><ele>624.0</ele><time>2026-04-13T11:44:39.673Z</time></trkpt><trkpt lat="38.4641119" lon="-2.0043979"><ele>624.0</ele><time>2026-04-13T11:44:40.673Z</time></trkpt><trkpt lat="38.4641505" lon="-2.0040767"><ele>624.0</ele><time>2026-04-13T11:44:41.674Z</time></trkpt><trkpt lat="38.4641899" lon="-2.0037559"><ele>624.0</ele><time>2026-04-13T11:44:42.673Z</time></trkpt><trkpt lat="38.4642284" lon="-2.0034378"><ele>624.0</ele><time>2026-04-13T11:44:43.673Z</time></trkpt><trkpt lat="38.4642686" lon="-2.0031196"><ele>624.5</ele><time>2026-04-13T11:44:44.673Z</time></trkpt><trkpt lat="38.4643093" lon="-2.0027994"><ele>625.0</ele><time>2026-04-13T11:44:45.673Z</time></trkpt><trkpt lat="38.4643499" lon="-2.0024765"><ele>625.5</ele><time>2026-04-13T11:44:46.673Z</time></trkpt><trkpt lat="38.4643897" lon="-2.002149"><ele>626.0</ele><time>2026-04-13T11:44:47.673Z</time></trkpt><trkpt lat="38.464425" lon="-2.0018195"><ele>625.5</ele><time>2026-04-13T11:44:48.673Z</time></trkpt><trkpt lat="38.4644669" lon="-2.0014943"><ele>625.0</ele><time>2026-04-13T11:44:49.673Z</time></trkpt><trkpt lat="38.4645078" lon="-2.0011668"><ele>625.0</ele><time>2026-04-13T11:44:50.673Z</time></trkpt><trkpt lat="38.464553" lon="-2.0008458"><ele>625.0</ele><time>2026-04-13T11:44:51.673Z</time></trkpt><trkpt lat="38.4645945" lon="-2.0005237"><ele>624.5</ele><time>2026-04-13T11:44:52.673Z</time></trkpt><trkpt lat="38.4646338" lon="-2.0001999"><ele>624.0</ele><time>2026-04-13T11:44:53.673Z</time></trkpt><trkpt lat="38.4646727" lon="-1.9998709"><ele>624.0</ele><time>2026-04-13T11:44:54.673Z</time></trkpt><trkpt lat="38.4647113" lon="-1.9995391"><ele>624.0</ele><time>2026-04-13T11:44:55.673Z</time></trkpt><trkpt lat="38.4647518" lon="-1.9992104"><ele>625.0</ele><time>2026-04-13T11:44:56.673Z</time></trkpt><trkpt lat="38.464789" lon="-1.9988816"><ele>626.0</ele><time>2026-04-13T11:44:57.673Z</time></trkpt><trkpt lat="38.4648244" lon="-1.9985465"><ele>628.0</ele><time>2026-04-13T11:44:58.673Z</time></trkpt><trkpt lat="38.464865" lon="-1.9982111"><ele>630.0</ele><time>2026-04-13T11:44:59.673Z</time></trkpt><trkpt lat="38.464905" lon="-1.9978742"><ele>630.0</ele><time>2026-04-13T11:45:00.673Z</time></trkpt><trkpt lat="38.4649465" lon="-1.9975366"><ele>630.0</ele><time>2026-04-13T11:45:01.674Z</time></trkpt><trkpt lat="38.4649907" lon="-1.9971986"><ele>631.5</ele><time>2026-04-13T11:45:02.673Z</time></trkpt><trkpt lat="38.4650338" lon="-1.9968605"><ele>633.0</ele><time>2026-04-13T11:45:03.673Z</time></trkpt><trkpt lat="38.4650764" lon="-1.9965228"><ele>634.0</ele><time>2026-04-13T11:45:04.673Z</time></trkpt><trkpt lat="38.4651155" lon="-1.9961814"><ele>635.0</ele><time>2026-04-13T11:45:05.673Z</time></trkpt><trkpt lat="38.4651548" lon="-1.995845"><ele>636.5</ele><time>2026-04-13T11:45:06.673Z</time></trkpt><trkpt lat="38.4651989" lon="-1.9955087"><ele>638.0</ele><time>2026-04-13T11:45:07.673Z</time></trkpt><trkpt lat="38.4652403" lon="-1.9951729"><ele>638.0</ele><time>2026-04-13T11:45:08.673Z</time></trkpt><trkpt lat="38.465283" lon="-1.9948375"><ele>638.0</ele><time>2026-04-13T11:45:09.674Z</time></trkpt><trkpt lat="38.4653214" lon="-1.9944955"><ele>638.5</ele><time>2026-04-13T11:45:10.673Z</time></trkpt><trkpt lat="38.465354" lon="-1.9941549"><ele>639.0</ele><time>2026-04-13T11:45:11.673Z</time></trkpt><trkpt lat="38.4653915" lon="-1.9938192"><ele>639.0</ele><time>2026-04-13T11:45:12.673Z</time></trkpt><trkpt lat="38.4654319" lon="-1.9934811"><ele>639.0</ele><time>2026-04-13T11:45:13.673Z</time></trkpt><trkpt lat="38.4654739" lon="-1.993149"><ele>641.5</ele><time>2026-04-13T11:45:14.673Z</time></trkpt><trkpt lat="38.4655154" lon="-1.9928162"><ele>644.0</ele><time>2026-04-13T11:45:15.673Z</time></trkpt><trkpt lat="38.4655529" lon="-1.9924812"><ele>644.5</ele><time>2026-04-13T11:45:16.673Z</time></trkpt><trkpt lat="38.4655925" lon="-1.9921473"><ele>645.0</ele><time>2026-04-13T11:45:17.673Z</time></trkpt><trkpt lat="38.4656234" lon="-1.9918167"><ele>645.0</ele><time>2026-04-13T11:45:18.673Z</time></trkpt><trkpt lat="38.4656685" lon="-1.9914837"><ele>645.0</ele><time>2026-04-13T11:45:19.673Z</time></trkpt><trkpt lat="38.4657056" lon="-1.9911501"><ele>646.5</ele><time>2026-04-13T11:45:20.673Z</time></trkpt><trkpt lat="38.4657467" lon="-1.9908172"><ele>648.0</ele><time>2026-04-13T11:45:21.673Z</time></trkpt><trkpt lat="38.4657884" lon="-1.9904861"><ele>648.0</ele><time>2026-04-13T11:45:22.673Z</time></trkpt><trkpt lat="38.4658288" lon="-1.9901589"><ele>648.0</ele><time>2026-04-13T11:45:23.673Z</time></trkpt><trkpt lat="38.4658693" lon="-1.9898292"><ele>648.5</ele><time>2026-04-13T11:45:24.673Z</time></trkpt><trkpt lat="38.4659083" lon="-1.9895033"><ele>649.0</ele><time>2026-04-13T11:45:25.673Z</time></trkpt><trkpt lat="38.465949" lon="-1.989173"><ele>649.0</ele><time>2026-04-13T11:45:26.673Z</time></trkpt><trkpt lat="38.465989" lon="-1.9888409"><ele>649.0</ele><time>2026-04-13T11:45:27.673Z</time></trkpt><trkpt lat="38.4660254" lon="-1.9885103"><ele>649.0</ele><time>2026-04-13T11:45:28.673Z</time></trkpt><trkpt lat="38.4660648" lon="-1.9881871"><ele>649.0</ele><time>2026-04-13T11:45:29.673Z</time></trkpt><trkpt lat="38.4660899" lon="-1.9879569"><ele>649.0</ele><time>2026-04-13T11:45:30.897Z</time></trkpt><trkpt lat="38.466136" lon="-1.987569"><ele>648.0</ele><time>2026-04-13T11:45:32.081Z</time></trkpt><trkpt lat="38.4662185" lon="-1.9868955"><ele>647.5</ele><time>2026-04-13T11:45:33.68Z</time></trkpt><trkpt lat="38.4662554" lon="-1.9865791"><ele>647.0</ele><time>2026-04-13T11:45:34.679Z</time></trkpt><trkpt lat="38.466296" lon="-1.9862613"><ele>650.5</ele><time>2026-04-13T11:45:35.675Z</time></trkpt><trkpt lat="38.4663339" lon="-1.9859427"><ele>654.0</ele><time>2026-04-13T11:45:36.675Z</time></trkpt><trkpt lat="38.4663749" lon="-1.9856218"><ele>654.0</ele><time>2026-04-13T11:45:37.673Z</time></trkpt><trkpt lat="38.4664144" lon="-1.9853035"><ele>654.0</ele><time>2026-04-13T11:45:38.673Z</time></trkpt><trkpt lat="38.4664539" lon="-1.9849849"><ele>654.5</ele><time>2026-04-13T11:45:39.673Z</time></trkpt><trkpt lat="38.4664922" lon="-1.9846693"><ele>655.0</ele><time>2026-04-13T11:45:40.673Z</time></trkpt><trkpt lat="38.4665295" lon="-1.9843548"><ele>656.0</ele><time>2026-04-13T11:45:41.673Z</time></trkpt><trkpt lat="38.4665698" lon="-1.9840388"><ele>657.0</ele><time>2026-04-13T11:45:42.673Z</time></trkpt><trkpt lat="38.4666066" lon="-1.9837318"><ele>657.0</ele><time>2026-04-13T11:45:43.673Z</time></trkpt><trkpt lat="38.4666468" lon="-1.9834119"><ele>657.0</ele><time>2026-04-13T11:45:44.673Z</time></trkpt><trkpt lat="38.4666843" lon="-1.9830981"><ele>657.5</ele><time>2026-04-13T11:45:45.673Z</time></trkpt><trkpt lat="38.4667253" lon="-1.9827836"><ele>658.0</ele><time>2026-04-13T11:45:46.673Z</time></trkpt><trkpt lat="38.4667623" lon="-1.9824693"><ele>657.0</ele><time>2026-04-13T11:45:47.673Z</time></trkpt><trkpt lat="38.4668031" lon="-1.9821525"><ele>656.0</ele><time>2026-04-13T11:45:48.673Z</time></trkpt><trkpt lat="38.4668468" lon="-1.9818312"><ele>655.5</ele><time>2026-04-13T11:45:49.673Z</time></trkpt><trkpt lat="38.466889" lon="-1.9815206"><ele>655.0</ele><time>2026-04-13T11:45:50.673Z</time></trkpt><trkpt lat="38.4669251" lon="-1.9812013"><ele>655.0</ele><time>2026-04-13T11:45:51.673Z</time></trkpt><trkpt lat="38.4669598" lon="-1.9808835"><ele>655.0</ele><time>2026-04-13T11:45:52.673Z</time></trkpt><trkpt lat="38.4669948" lon="-1.9805662"><ele>656.0</ele><time>2026-04-13T11:45:53.673Z</time></trkpt><trkpt lat="38.4670306" lon="-1.9802527"><ele>657.0</ele><time>2026-04-13T11:45:54.673Z</time></trkpt><trkpt lat="38.467065" lon="-1.9799456"><ele>659.5</ele><time>2026-04-13T11:45:55.673Z</time></trkpt><trkpt lat="38.4671012" lon="-1.9796219"><ele>662.0</ele><time>2026-04-13T11:45:56.673Z</time></trkpt><trkpt lat="38.4671441" lon="-1.9793213"><ele>661.5</ele><time>2026-04-13T11:45:57.673Z</time></trkpt><trkpt lat="38.4671864" lon="-1.979012"><ele>661.0</ele><time>2026-04-13T11:45:58.674Z</time></trkpt><trkpt lat="38.4672113" lon="-1.9786984"><ele>661.0</ele><time>2026-04-13T11:45:59.673Z</time></trkpt><trkpt lat="38.4672464" lon="-1.9783893"><ele>661.0</ele><time>2026-04-13T11:46:00.673Z</time></trkpt><trkpt lat="38.4672832" lon="-1.9780862"><ele>663.0</ele><time>2026-04-13T11:46:01.673Z</time></trkpt><trkpt lat="38.4673218" lon="-1.9777687"><ele>665.0</ele><time>2026-04-13T11:46:02.673Z</time></trkpt><trkpt lat="38.4673575" lon="-1.9774623"><ele>666.0</ele><time>2026-04-13T11:46:03.673Z</time></trkpt><trkpt lat="38.4673942" lon="-1.9771516"><ele>667.0</ele><time>2026-04-13T11:46:04.673Z</time></trkpt><trkpt lat="38.4674336" lon="-1.9768376"><ele>669.0</ele><time>2026-04-13T11:46:05.673Z</time></trkpt><trkpt lat="38.4674717" lon="-1.9765252"><ele>671.0</ele><time>2026-04-13T11:46:06.673Z</time></trkpt><trkpt lat="38.4675098" lon="-1.9762052"><ele>671.0</ele><time>2026-04-13T11:46:07.673Z</time></trkpt><trkpt lat="38.4675475" lon="-1.9758842"><ele>671.0</ele><time>2026-04-13T11:46:08.673Z</time></trkpt><trkpt lat="38.4675871" lon="-1.9755674"><ele>671.0</ele><time>2026-04-13T11:46:09.673Z</time></trkpt><trkpt lat="38.4676254" lon="-1.975255"><ele>671.0</ele><time>2026-04-13T11:46:10.673Z</time></trkpt><trkpt lat="38.4676577" lon="-1.9749468"><ele>672.5</ele><time>2026-04-13T11:46:11.673Z</time></trkpt><trkpt lat="38.467697" lon="-1.9746425"><ele>674.0</ele><time>2026-04-13T11:46:12.674Z</time></trkpt><trkpt lat="38.4677325" lon="-1.9743405"><ele>674.0</ele><time>2026-04-13T11:46:13.673Z</time></trkpt><trkpt lat="38.4677686" lon="-1.9740397"><ele>674.0</ele><time>2026-04-13T11:46:14.673Z</time></trkpt><trkpt lat="38.4678044" lon="-1.973742"><ele>674.0</ele><time>2026-04-13T11:46:15.673Z</time></trkpt><trkpt lat="38.4678434" lon="-1.9734429"><ele>674.0</ele><time>2026-04-13T11:46:16.673Z</time></trkpt><trkpt lat="38.4678806" lon="-1.9731444"><ele>674.0</ele><time>2026-04-13T11:46:17.673Z</time></trkpt><trkpt lat="38.4679192" lon="-1.972846"><ele>674.0</ele><time>2026-04-13T11:46:18.673Z</time></trkpt><trkpt lat="38.4679574" lon="-1.9725476"><ele>676.5</ele><time>2026-04-13T11:46:19.673Z</time></trkpt><trkpt lat="38.4679917" lon="-1.9722428"><ele>679.0</ele><time>2026-04-13T11:46:20.673Z</time></trkpt><trkpt lat="38.4680299" lon="-1.9719376"><ele>679.0</ele><time>2026-04-13T11:46:21.673Z</time></trkpt><trkpt lat="38.4680673" lon="-1.971627"><ele>679.0</ele><time>2026-04-13T11:46:22.673Z</time></trkpt><trkpt lat="38.468106" lon="-1.9713141"><ele>679.0</ele><time>2026-04-13T11:46:23.673Z</time></trkpt><trkpt lat="38.4681452" lon="-1.9710015"><ele>679.0</ele><time>2026-04-13T11:46:24.673Z</time></trkpt><trkpt lat="38.4681827" lon="-1.9706853"><ele>678.5</ele><time>2026-04-13T11:46:25.673Z</time></trkpt><trkpt lat="38.468222" lon="-1.9703718"><ele>678.0</ele><time>2026-04-13T11:46:26.673Z</time></trkpt><trkpt lat="38.4682631" lon="-1.9700627"><ele>678.5</ele><time>2026-04-13T11:46:27.673Z</time></trkpt><trkpt lat="38.4683003" lon="-1.9697579"><ele>679.0</ele><time>2026-04-13T11:46:28.673Z</time></trkpt><trkpt lat="38.4683264" lon="-1.9694536"><ele>680.0</ele><time>2026-04-13T11:46:29.673Z</time></trkpt><trkpt lat="38.4683362" lon="-1.9691542"><ele>681.0</ele><time>2026-04-13T11:46:30.673Z</time></trkpt><trkpt lat="38.4683277" lon="-1.9688598"><ele>681.0</ele><time>2026-04-13T11:46:31.673Z</time></trkpt><trkpt lat="38.468309" lon="-1.9685669"><ele>681.0</ele><time>2026-04-13T11:46:32.674Z</time></trkpt><trkpt lat="38.4682815" lon="-1.9682667"><ele>682.5</ele><time>2026-04-13T11:46:33.673Z</time></trkpt><trkpt lat="38.4682546" lon="-1.9679757"><ele>684.0</ele><time>2026-04-13T11:46:34.673Z</time></trkpt><trkpt lat="38.4682286" lon="-1.9676951"><ele>685.0</ele><time>2026-04-13T11:46:35.673Z</time></trkpt><trkpt lat="38.4681999" lon="-1.9674148"><ele>686.0</ele><time>2026-04-13T11:46:36.673Z</time></trkpt><trkpt lat="38.4681701" lon="-1.9671397"><ele>687.0</ele><time>2026-04-13T11:46:37.673Z</time></trkpt><trkpt lat="38.4681428" lon="-1.966868"><ele>687.3333333333334</ele><time>2026-04-13T11:46:38.673Z</time></trkpt><trkpt lat="38.468118" lon="-1.9665958"><ele>687.6666666666667</ele><time>2026-04-13T11:46:39.673Z</time></trkpt><trkpt lat="38.4680927" lon="-1.9663245"><ele>688.0</ele><time>2026-04-13T11:46:40.673Z</time></trkpt><trkpt lat="38.4680654" lon="-1.9660516"><ele>689.0</ele><time>2026-04-13T11:46:41.673Z</time></trkpt><trkpt lat="38.4680405" lon="-1.9657766"><ele>690.0</ele><time>2026-04-13T11:46:42.673Z</time></trkpt><trkpt lat="38.4680137" lon="-1.9655037"><ele>691.0</ele><time>2026-04-13T11:46:43.673Z</time></trkpt><trkpt lat="38.4679877" lon="-1.9652314"><ele>691.0</ele><time>2026-04-13T11:46:44.673Z</time></trkpt><trkpt lat="38.4679614" lon="-1.9649652"><ele>691.0</ele><time>2026-04-13T11:46:45.673Z</time></trkpt><trkpt lat="38.4679355" lon="-1.9647005"><ele>691.0</ele><time>2026-04-13T11:46:46.673Z</time></trkpt><trkpt lat="38.4679118" lon="-1.9644323"><ele>692.0</ele><time>2026-04-13T11:46:47.673Z</time></trkpt><trkpt lat="38.467887" lon="-1.9641635"><ele>693.0</ele><time>2026-04-13T11:46:48.673Z</time></trkpt><trkpt lat="38.4678621" lon="-1.9638942"><ele>694.0</ele><time>2026-04-13T11:46:49.673Z</time></trkpt><trkpt lat="38.4678378" lon="-1.9636291"><ele>694.0</ele><time>2026-04-13T11:46:50.673Z</time></trkpt><trkpt lat="38.467806" lon="-1.9633647"><ele>694.0</ele><time>2026-04-13T11:46:51.673Z</time></trkpt><trkpt lat="38.4677782" lon="-1.9631011"><ele>694.0</ele><time>2026-04-13T11:46:52.673Z</time></trkpt><trkpt lat="38.4677496" lon="-1.9628384"><ele>694.6666666666667</ele><time>2026-04-13T11:46:53.673Z</time></trkpt><trkpt lat="38.4677227" lon="-1.9625776"><ele>695.3333333333334</ele><time>2026-04-13T11:46:54.673Z</time></trkpt><trkpt lat="38.4676969" lon="-1.9623135"><ele>696.0</ele><time>2026-04-13T11:46:55.673Z</time></trkpt><trkpt lat="38.4676719" lon="-1.9620498"><ele>696.3333333333334</ele><time>2026-04-13T11:46:56.673Z</time></trkpt><trkpt lat="38.4676472" lon="-1.9617854"><ele>696.6666666666667</ele><time>2026-04-13T11:46:57.673Z</time></trkpt><trkpt lat="38.4676193" lon="-1.9615235"><ele>697.0</ele><time>2026-04-13T11:46:58.673Z</time></trkpt><trkpt lat="38.467588" lon="-1.9612598"><ele>697.0</ele><time>2026-04-13T11:46:59.673Z</time></trkpt><trkpt lat="38.4675594" lon="-1.9609931"><ele>697.0</ele><time>2026-04-13T11:47:00.673Z</time></trkpt><trkpt lat="38.4675293" lon="-1.9607285"><ele>697.0</ele><time>2026-04-13T11:47:01.673Z</time></trkpt><trkpt lat="38.4674991" lon="-1.9604638"><ele>696.3333333333334</ele><time>2026-04-13T11:47:02.673Z</time></trkpt><trkpt lat="38.4674652" lon="-1.9602039"><ele>695.6666666666666</ele><time>2026-04-13T11:47:03.673Z</time></trkpt><trkpt lat="38.4674251" lon="-1.9599506"><ele>695.0</ele><time>2026-04-13T11:47:04.673Z</time></trkpt><trkpt lat="38.4673797" lon="-1.9596966"><ele>695.0</ele><time>2026-04-13T11:47:05.673Z</time></trkpt><trkpt lat="38.4673275" lon="-1.9594417"><ele>695.0</ele><time>2026-04-13T11:47:06.673Z</time></trkpt><trkpt lat="38.4672666" lon="-1.9591922"><ele>695.0</ele><time>2026-04-13T11:47:07.673Z</time></trkpt><trkpt lat="38.4672013" lon="-1.958942"><ele>695.0</ele><time>2026-04-13T11:47:08.673Z</time></trkpt><trkpt lat="38.4671324" lon="-1.9586935"><ele>695.0</ele><time>2026-04-13T11:47:09.673Z</time></trkpt><trkpt lat="38.4670629" lon="-1.9584465"><ele>695.0</ele><time>2026-04-13T11:47:10.673Z</time></trkpt><trkpt lat="38.4669937" lon="-1.9582032"><ele>694.0</ele><time>2026-04-13T11:47:11.673Z</time></trkpt><trkpt lat="38.4669246" lon="-1.9579602"><ele>693.0</ele><time>2026-04-13T11:47:12.673Z</time></trkpt><trkpt lat="38.4668549" lon="-1.9577149"><ele>692.0</ele><time>2026-04-13T11:47:13.673Z</time></trkpt><trkpt lat="38.4667792" lon="-1.9574638"><ele>691.6666666666666</ele><time>2026-04-13T11:47:14.673Z</time></trkpt><trkpt lat="38.4667019" lon="-1.9572015"><ele>691.3333333333334</ele><time>2026-04-13T11:47:15.673Z</time></trkpt><trkpt lat="38.4666236" lon="-1.9569297"><ele>691.0</ele><time>2026-04-13T11:47:16.673Z</time></trkpt><trkpt lat="38.4665424" lon="-1.9566527"><ele>689.5</ele><time>2026-04-13T11:47:17.673Z</time></trkpt><trkpt lat="38.4664614" lon="-1.9563662"><ele>688.0</ele><time>2026-04-13T11:47:18.673Z</time></trkpt><trkpt lat="38.4663841" lon="-1.956062"><ele>688.0</ele><time>2026-04-13T11:47:19.673Z</time></trkpt><trkpt lat="38.4662976" lon="-1.9557499"><ele>688.0</ele><time>2026-04-13T11:47:20.673Z</time></trkpt><trkpt lat="38.4661981" lon="-1.9554351"><ele>687.5</ele><time>2026-04-13T11:47:21.673Z</time></trkpt><trkpt lat="38.466099" lon="-1.9551162"><ele>687.0</ele><time>2026-04-13T11:47:22.673Z</time></trkpt><trkpt lat="38.4659907" lon="-1.9547904"><ele>687.0</ele><time>2026-04-13T11:47:23.673Z</time></trkpt><trkpt lat="38.4658826" lon="-1.9544593"><ele>687.0</ele><time>2026-04-13T11:47:24.673Z</time></trkpt><trkpt lat="38.4657717" lon="-1.9541279"><ele>686.0</ele><time>2026-04-13T11:47:25.673Z</time></trkpt><trkpt lat="38.4656632" lon="-1.9537956"><ele>685.0</ele><time>2026-04-13T11:47:26.673Z</time></trkpt><trkpt lat="38.465555" lon="-1.9534684"><ele>685.5</ele><time>2026-04-13T11:47:27.673Z</time></trkpt><trkpt lat="38.4654502" lon="-1.9531411"><ele>686.0</ele><time>2026-04-13T11:47:28.673Z</time></trkpt><trkpt lat="38.4653467" lon="-1.9528139"><ele>684.5</ele><time>2026-04-13T11:47:29.673Z</time></trkpt><trkpt lat="38.4652445" lon="-1.9524808"><ele>683.0</ele><time>2026-04-13T11:47:30.673Z</time></trkpt><trkpt lat="38.4651379" lon="-1.9521407"><ele>683.0</ele><time>2026-04-13T11:47:31.674Z</time></trkpt><trkpt lat="38.4650314" lon="-1.9517912"><ele>683.0</ele><time>2026-04-13T11:47:32.673Z</time></trkpt><trkpt lat="38.4649246" lon="-1.951444"><ele>681.0</ele><time>2026-04-13T11:47:33.673Z</time></trkpt><trkpt lat="38.4648219" lon="-1.9511003"><ele>679.0</ele><time>2026-04-13T11:47:34.673Z</time></trkpt><trkpt lat="38.4647172" lon="-1.950757"><ele>678.0</ele><time>2026-04-13T11:47:35.673Z</time></trkpt><trkpt lat="38.4646139" lon="-1.9504137"><ele>677.0</ele><time>2026-04-13T11:47:36.673Z</time></trkpt><trkpt lat="38.4645103" lon="-1.9500705"><ele>677.0</ele><time>2026-04-13T11:47:37.673Z</time></trkpt><trkpt lat="38.464404" lon="-1.9497329"><ele>677.0</ele><time>2026-04-13T11:47:38.673Z</time></trkpt><trkpt lat="38.464299" lon="-1.9493938"><ele>675.0</ele><time>2026-04-13T11:47:39.673Z</time></trkpt><trkpt lat="38.4641942" lon="-1.9490548"><ele>673.0</ele><time>2026-04-13T11:47:40.673Z</time></trkpt><trkpt lat="38.4640906" lon="-1.9487106"><ele>672.5</ele><time>2026-04-13T11:47:41.674Z</time></trkpt><trkpt lat="38.4639858" lon="-1.9483673"><ele>672.0</ele><time>2026-04-13T11:47:42.673Z</time></trkpt><trkpt lat="38.4638822" lon="-1.9480213"><ele>671.5</ele><time>2026-04-13T11:47:43.673Z</time></trkpt><trkpt lat="38.4637796" lon="-1.9476767"><ele>671.0</ele><time>2026-04-13T11:47:44.673Z</time></trkpt><trkpt lat="38.4636752" lon="-1.9473282"><ele>671.0</ele><time>2026-04-13T11:47:45.673Z</time></trkpt><trkpt lat="38.4635684" lon="-1.9469809"><ele>671.0</ele><time>2026-04-13T11:47:46.673Z</time></trkpt><trkpt lat="38.4634608" lon="-1.9466349"><ele>670.0</ele><time>2026-04-13T11:47:47.673Z</time></trkpt><trkpt lat="38.4633496" lon="-1.9462895"><ele>669.0</ele><time>2026-04-13T11:47:48.673Z</time></trkpt><trkpt lat="38.4632423" lon="-1.9459417"><ele>668.5</ele><time>2026-04-13T11:47:49.673Z</time></trkpt><trkpt lat="38.4631372" lon="-1.9455934"><ele>668.0</ele><time>2026-04-13T11:47:50.673Z</time></trkpt><trkpt lat="38.463032" lon="-1.9452433"><ele>666.5</ele><time>2026-04-13T11:47:51.673Z</time></trkpt><trkpt lat="38.4629297" lon="-1.9448947"><ele>665.0</ele><time>2026-04-13T11:47:52.673Z</time></trkpt><trkpt lat="38.462826" lon="-1.9445508"><ele>664.5</ele><time>2026-04-13T11:47:53.673Z</time></trkpt><trkpt lat="38.4627193" lon="-1.9442098"><ele>664.0</ele><time>2026-04-13T11:47:54.673Z</time></trkpt><trkpt lat="38.462616" lon="-1.9438692"><ele>664.0</ele><time>2026-04-13T11:47:55.673Z</time></trkpt><trkpt lat="38.4625105" lon="-1.9435297"><ele>664.0</ele><time>2026-04-13T11:47:56.673Z</time></trkpt><trkpt lat="38.4624047" lon="-1.9431916"><ele>664.0</ele><time>2026-04-13T11:47:57.673Z</time></trkpt><trkpt lat="38.4622989" lon="-1.9428521"><ele>664.0</ele><time>2026-04-13T11:47:58.673Z</time></trkpt><trkpt lat="38.4621936" lon="-1.9425132"><ele>662.0</ele><time>2026-04-13T11:47:59.673Z</time></trkpt><trkpt lat="38.4620893" lon="-1.9421711"><ele>660.0</ele><time>2026-04-13T11:48:00.673Z</time></trkpt><trkpt lat="38.4619832" lon="-1.941825"><ele>660.0</ele><time>2026-04-13T11:48:01.673Z</time></trkpt><trkpt lat="38.461877" lon="-1.941482"><ele>660.0</ele><time>2026-04-13T11:48:02.673Z</time></trkpt><trkpt lat="38.4617704" lon="-1.9411442"><ele>658.5</ele><time>2026-04-13T11:48:03.673Z</time></trkpt><trkpt lat="38.46166" lon="-1.9408055"><ele>657.0</ele><time>2026-04-13T11:48:04.673Z</time></trkpt><trkpt lat="38.4615458" lon="-1.9404678"><ele>657.0</ele><time>2026-04-13T11:48:05.674Z</time></trkpt><trkpt lat="38.4614232" lon="-1.9401303"><ele>657.0</ele><time>2026-04-13T11:48:06.673Z</time></trkpt><trkpt lat="38.4612944" lon="-1.9397963"><ele>655.5</ele><time>2026-04-13T11:48:07.673Z</time></trkpt><trkpt lat="38.4611592" lon="-1.9394714"><ele>654.0</ele><time>2026-04-13T11:48:08.673Z</time></trkpt><trkpt lat="38.4610204" lon="-1.9391403"><ele>654.0</ele><time>2026-04-13T11:48:09.673Z</time></trkpt><trkpt lat="38.4608809" lon="-1.9388058"><ele>654.0</ele><time>2026-04-13T11:48:10.673Z</time></trkpt><trkpt lat="38.4607409" lon="-1.9384771"><ele>654.5</ele><time>2026-04-13T11:48:11.673Z</time></trkpt><trkpt lat="38.460604" lon="-1.9381487"><ele>655.0</ele><time>2026-04-13T11:48:12.673Z</time></trkpt><trkpt lat="38.4604674" lon="-1.9378179"><ele>654.0</ele><time>2026-04-13T11:48:13.673Z</time></trkpt><trkpt lat="38.4603291" lon="-1.93749"><ele>653.0</ele><time>2026-04-13T11:48:14.674Z</time></trkpt><trkpt lat="38.4601935" lon="-1.9371654"><ele>653.0</ele><time>2026-04-13T11:48:15.673Z</time></trkpt><trkpt lat="38.4600618" lon="-1.9368443"><ele>653.0</ele><time>2026-04-13T11:48:16.673Z</time></trkpt><trkpt lat="38.4599332" lon="-1.9365237"><ele>652.5</ele><time>2026-04-13T11:48:17.673Z</time></trkpt><trkpt lat="38.4598068" lon="-1.9362014"><ele>652.0</ele><time>2026-04-13T11:48:18.673Z</time></trkpt><trkpt lat="38.4596848" lon="-1.9358791"><ele>651.5</ele><time>2026-04-13T11:48:19.673Z</time></trkpt><trkpt lat="38.4595669" lon="-1.9355517"><ele>651.0</ele><time>2026-04-13T11:48:20.673Z</time></trkpt><trkpt lat="38.4594554" lon="-1.9352224"><ele>651.0</ele><time>2026-04-13T11:48:21.673Z</time></trkpt><trkpt lat="38.4593419" lon="-1.9348858"><ele>651.0</ele><time>2026-04-13T11:48:22.673Z</time></trkpt><trkpt lat="38.459234" lon="-1.93455"><ele>651.0</ele><time>2026-04-13T11:48:23.673Z</time></trkpt><trkpt lat="38.4591221" lon="-1.9342114"><ele>651.0</ele><time>2026-04-13T11:48:24.673Z</time></trkpt><trkpt lat="38.459014" lon="-1.9338714"><ele>651.0</ele><time>2026-04-13T11:48:25.673Z</time></trkpt><trkpt lat="38.4589109" lon="-1.9335415"><ele>651.0</ele><time>2026-04-13T11:48:26.673Z</time></trkpt><trkpt lat="38.4588116" lon="-1.9332314"><ele>646.5</ele><time>2026-04-13T11:48:27.673Z</time></trkpt><trkpt lat="38.4587164" lon="-1.9329252"><ele>642.0</ele><time>2026-04-13T11:48:28.673Z</time></trkpt><trkpt lat="38.4586162" lon="-1.9326261"><ele>642.5</ele><time>2026-04-13T11:48:29.673Z</time></trkpt><trkpt lat="38.4584983" lon="-1.9323373"><ele>643.0</ele><time>2026-04-13T11:48:30.673Z</time></trkpt><trkpt lat="38.4583543" lon="-1.9320654"><ele>643.0</ele><time>2026-04-13T11:48:31.673Z</time></trkpt><trkpt lat="38.4581844" lon="-1.9318097"><ele>643.0</ele><time>2026-04-13T11:48:32.673Z</time></trkpt><trkpt lat="38.4579862" lon="-1.9315757"><ele>642.5</ele><time>2026-04-13T11:48:33.673Z</time></trkpt><trkpt lat="38.4577701" lon="-1.9313575"><ele>642.0</ele><time>2026-04-13T11:48:34.673Z</time></trkpt><trkpt lat="38.4575489" lon="-1.9311453"><ele>642.0</ele><time>2026-04-13T11:48:35.673Z</time></trkpt><trkpt lat="38.4573207" lon="-1.9309292"><ele>642.0</ele><time>2026-04-13T11:48:36.673Z</time></trkpt><trkpt lat="38.4570926" lon="-1.9307141"><ele>639.5</ele><time>2026-04-13T11:48:37.673Z</time></trkpt><trkpt lat="38.4568695" lon="-1.9304987"><ele>637.0</ele><time>2026-04-13T11:48:38.673Z</time></trkpt><trkpt lat="38.456643" lon="-1.9302835"><ele>637.0</ele><time>2026-04-13T11:48:39.673Z</time></trkpt><trkpt lat="38.4564194" lon="-1.9300754"><ele>637.0</ele><time>2026-04-13T11:48:40.673Z</time></trkpt><trkpt lat="38.4562058" lon="-1.9298738"><ele>637.5</ele><time>2026-04-13T11:48:41.673Z</time></trkpt><trkpt lat="38.4560005" lon="-1.9296711"><ele>638.0</ele><time>2026-04-13T11:48:42.673Z</time></trkpt><trkpt lat="38.4558068" lon="-1.9294565"><ele>635.0</ele><time>2026-04-13T11:48:43.673Z</time></trkpt><trkpt lat="38.4556323" lon="-1.9292163"><ele>632.0</ele><time>2026-04-13T11:48:44.673Z</time></trkpt><trkpt lat="38.4554804" lon="-1.9289421"><ele>632.0</ele><time>2026-04-13T11:48:45.673Z</time></trkpt><trkpt lat="38.4553519" lon="-1.9286455"><ele>632.0</ele><time>2026-04-13T11:48:46.673Z</time></trkpt><trkpt lat="38.4552486" lon="-1.9283232"><ele>630.5</ele><time>2026-04-13T11:48:47.673Z</time></trkpt><trkpt lat="38.4551648" lon="-1.9279872"><ele>629.0</ele><time>2026-04-13T11:48:48.673Z</time></trkpt><trkpt lat="38.4550866" lon="-1.92765"><ele>629.5</ele><time>2026-04-13T11:48:49.673Z</time></trkpt><trkpt lat="38.4550108" lon="-1.9273199"><ele>630.0</ele><time>2026-04-13T11:48:50.673Z</time></trkpt><trkpt lat="38.4549395" lon="-1.9270007"><ele>632.0</ele><time>2026-04-13T11:48:51.673Z</time></trkpt><trkpt lat="38.4548708" lon="-1.9266835"><ele>634.0</ele><time>2026-04-13T11:48:52.673Z</time></trkpt><trkpt lat="38.4548262" lon="-1.9263592"><ele>634.0</ele><time>2026-04-13T11:48:53.673Z</time></trkpt><trkpt lat="38.4547997" lon="-1.9260218"><ele>634.0</ele><time>2026-04-13T11:48:54.673Z</time></trkpt><trkpt lat="38.4547945" lon="-1.9256793"><ele>635.5</ele><time>2026-04-13T11:48:55.673Z</time></trkpt><trkpt lat="38.4547956" lon="-1.9253336"><ele>637.0</ele><time>2026-04-13T11:48:56.673Z</time></trkpt><trkpt lat="38.4547944" lon="-1.9249865"><ele>637.0</ele><time>2026-04-13T11:48:57.673Z</time></trkpt><trkpt lat="38.4547934" lon="-1.9246339"><ele>637.0</ele><time>2026-04-13T11:48:58.673Z</time></trkpt><trkpt lat="38.4547949" lon="-1.9242798"><ele>634.5</ele><time>2026-04-13T11:48:59.673Z</time></trkpt><trkpt lat="38.4547977" lon="-1.9239298"><ele>632.0</ele><time>2026-04-13T11:49:00.673Z</time></trkpt><trkpt lat="38.4547979" lon="-1.9235822"><ele>631.0</ele><time>2026-04-13T11:49:01.673Z</time></trkpt><trkpt lat="38.4547957" lon="-1.9232359"><ele>630.0</ele><time>2026-04-13T11:49:02.673Z</time></trkpt><trkpt lat="38.4547948" lon="-1.9228913"><ele>628.5</ele><time>2026-04-13T11:49:03.674Z</time></trkpt><trkpt lat="38.4547951" lon="-1.922547"><ele>627.0</ele><time>2026-04-13T11:49:04.673Z</time></trkpt><trkpt lat="38.4547938" lon="-1.9222057"><ele>627.0</ele><time>2026-04-13T11:49:05.673Z</time></trkpt><trkpt lat="38.4547957" lon="-1.921865"><ele>627.0</ele><time>2026-04-13T11:49:06.673Z</time></trkpt><trkpt lat="38.4547936" lon="-1.9215264"><ele>625.5</ele><time>2026-04-13T11:49:07.673Z</time></trkpt><trkpt lat="38.4547937" lon="-1.9211868"><ele>624.0</ele><time>2026-04-13T11:49:08.673Z</time></trkpt><trkpt lat="38.4547912" lon="-1.920854"><ele>622.5</ele><time>2026-04-13T11:49:09.673Z</time></trkpt><trkpt lat="38.4547891" lon="-1.9205148"><ele>621.0</ele><time>2026-04-13T11:49:10.673Z</time></trkpt><trkpt lat="38.4547837" lon="-1.9201733"><ele>620.0</ele><time>2026-04-13T11:49:11.673Z</time></trkpt><trkpt lat="38.4547793" lon="-1.9198326"><ele>619.0</ele><time>2026-04-13T11:49:12.673Z</time></trkpt><trkpt lat="38.4547743" lon="-1.9194893"><ele>616.0</ele><time>2026-04-13T11:49:13.673Z</time></trkpt><trkpt lat="38.4547682" lon="-1.9191491"><ele>613.0</ele><time>2026-04-13T11:49:14.673Z</time></trkpt><trkpt lat="38.454762" lon="-1.9188089"><ele>613.0</ele><time>2026-04-13T11:49:15.673Z</time></trkpt><trkpt lat="38.4547462" lon="-1.9184744"><ele>613.0</ele><time>2026-04-13T11:49:16.673Z</time></trkpt><trkpt lat="38.4547103" lon="-1.9181422"><ele>610.5</ele><time>2026-04-13T11:49:17.673Z</time></trkpt><trkpt lat="38.4546555" lon="-1.9178156"><ele>608.0</ele><time>2026-04-13T11:49:18.673Z</time></trkpt><trkpt lat="38.4545823" lon="-1.9174943"><ele>607.0</ele><time>2026-04-13T11:49:19.673Z</time></trkpt><trkpt lat="38.4544935" lon="-1.9171873"><ele>606.0</ele><time>2026-04-13T11:49:20.674Z</time></trkpt><trkpt lat="38.4543924" lon="-1.9168945"><ele>607.0</ele><time>2026-04-13T11:49:21.674Z</time></trkpt><trkpt lat="38.45429" lon="-1.9166021"><ele>608.0</ele><time>2026-04-13T11:49:22.673Z</time></trkpt><trkpt lat="38.4541903" lon="-1.9163"><ele>608.0</ele><time>2026-04-13T11:49:23.673Z</time></trkpt><trkpt lat="38.4540997" lon="-1.9159879"><ele>608.0</ele><time>2026-04-13T11:49:24.673Z</time></trkpt><trkpt lat="38.4540193" lon="-1.9156698"><ele>608.5</ele><time>2026-04-13T11:49:25.673Z</time></trkpt><trkpt lat="38.4539525" lon="-1.9153496"><ele>609.0</ele><time>2026-04-13T11:49:26.673Z</time></trkpt><trkpt lat="38.4538887" lon="-1.9150255"><ele>606.5</ele><time>2026-04-13T11:49:27.674Z</time></trkpt><trkpt lat="38.4538227" lon="-1.9147019"><ele>604.0</ele><time>2026-04-13T11:49:28.673Z</time></trkpt><trkpt lat="38.4537487" lon="-1.914374"><ele>607.5</ele><time>2026-04-13T11:49:29.673Z</time></trkpt><trkpt lat="38.4536564" lon="-1.9140534"><ele>611.0</ele><time>2026-04-13T11:49:30.673Z</time></trkpt><trkpt lat="38.4535537" lon="-1.9137338"><ele>611.0</ele><time>2026-04-13T11:49:31.673Z</time></trkpt><trkpt lat="38.4534467" lon="-1.9134119"><ele>611.0</ele><time>2026-04-13T11:49:32.673Z</time></trkpt><trkpt lat="38.4533346" lon="-1.9130903"><ele>606.5</ele><time>2026-04-13T11:49:33.673Z</time></trkpt><trkpt lat="38.453224" lon="-1.9127711"><ele>602.0</ele><time>2026-04-13T11:49:34.673Z</time></trkpt><trkpt lat="38.4531132" lon="-1.9124526"><ele>602.0</ele><time>2026-04-13T11:49:35.673Z</time></trkpt><trkpt lat="38.4530054" lon="-1.9121325"><ele>602.0</ele><time>2026-04-13T11:49:36.673Z</time></trkpt><trkpt lat="38.4528977" lon="-1.9118103"><ele>600.5</ele><time>2026-04-13T11:49:37.673Z</time></trkpt><trkpt lat="38.4527866" lon="-1.9114818"><ele>599.0</ele><time>2026-04-13T11:49:38.673Z</time></trkpt><trkpt lat="38.452675" lon="-1.9111533"><ele>598.0</ele><time>2026-04-13T11:49:39.673Z</time></trkpt><trkpt lat="38.4525612" lon="-1.9108236"><ele>597.0</ele><time>2026-04-13T11:49:40.674Z</time></trkpt><trkpt lat="38.4524493" lon="-1.9104919"><ele>597.0</ele><time>2026-04-13T11:49:41.673Z</time></trkpt><trkpt lat="38.4523326" lon="-1.9101592"><ele>597.0</ele><time>2026-04-13T11:49:42.673Z</time></trkpt><trkpt lat="38.4522203" lon="-1.9098279"><ele>597.0</ele><time>2026-04-13T11:49:43.673Z</time></trkpt><trkpt lat="38.4521062" lon="-1.9094969"><ele>597.0</ele><time>2026-04-13T11:49:44.673Z</time></trkpt><trkpt lat="38.4519926" lon="-1.9091662"><ele>597.0</ele><time>2026-04-13T11:49:45.673Z</time></trkpt><trkpt lat="38.4518757" lon="-1.9088335"><ele>597.0</ele><time>2026-04-13T11:49:46.673Z</time></trkpt><trkpt lat="38.4517578" lon="-1.9084969"><ele>595.5</ele><time>2026-04-13T11:49:47.673Z</time></trkpt><trkpt lat="38.4516411" lon="-1.908158"><ele>594.0</ele><time>2026-04-13T11:49:48.673Z</time></trkpt><trkpt lat="38.4515246" lon="-1.9078174"><ele>591.5</ele><time>2026-04-13T11:49:49.673Z</time></trkpt><trkpt lat="38.451408" lon="-1.9074741"><ele>589.0</ele><time>2026-04-13T11:49:50.673Z</time></trkpt><trkpt lat="38.4512917" lon="-1.9071328"><ele>589.0</ele><time>2026-04-13T11:49:51.673Z</time></trkpt><trkpt lat="38.451175" lon="-1.9067909"><ele>589.0</ele><time>2026-04-13T11:49:52.673Z</time></trkpt><trkpt lat="38.4510584" lon="-1.9064523"><ele>589.0</ele><time>2026-04-13T11:49:53.673Z</time></trkpt><trkpt lat="38.4509409" lon="-1.9061142"><ele>589.0</ele><time>2026-04-13T11:49:54.673Z</time></trkpt><trkpt lat="38.4508246" lon="-1.9057747"><ele>587.0</ele><time>2026-04-13T11:49:55.673Z</time></trkpt><trkpt lat="38.4507057" lon="-1.9054331"><ele>585.0</ele><time>2026-04-13T11:49:56.673Z</time></trkpt><trkpt lat="38.4505891" lon="-1.9050932"><ele>583.5</ele><time>2026-04-13T11:49:57.673Z</time></trkpt><trkpt lat="38.4504704" lon="-1.9047519"><ele>582.0</ele><time>2026-04-13T11:49:58.673Z</time></trkpt><trkpt lat="38.4503535" lon="-1.9044088"><ele>580.0</ele><time>2026-04-13T11:49:59.673Z</time></trkpt><trkpt lat="38.4502357" lon="-1.904067"><ele>578.0</ele><time>2026-04-13T11:50:00.673Z</time></trkpt><trkpt lat="38.4501157" lon="-1.9037216"><ele>577.5</ele><time>2026-04-13T11:50:01.673Z</time></trkpt><trkpt lat="38.4499992" lon="-1.9033764"><ele>577.0</ele><time>2026-04-13T11:50:02.673Z</time></trkpt><trkpt lat="38.4498878" lon="-1.9030309"><ele>577.0</ele><time>2026-04-13T11:50:03.673Z</time></trkpt><trkpt lat="38.4497826" lon="-1.9026806"><ele>577.0</ele><time>2026-04-13T11:50:04.673Z</time></trkpt><trkpt lat="38.4496807" lon="-1.9023263"><ele>575.5</ele><time>2026-04-13T11:50:05.673Z</time></trkpt><trkpt lat="38.4495888" lon="-1.9019696"><ele>574.0</ele><time>2026-04-13T11:50:06.673Z</time></trkpt><trkpt lat="38.4495049" lon="-1.9016099"><ele>573.5</ele><time>2026-04-13T11:50:07.674Z</time></trkpt><trkpt lat="38.4494314" lon="-1.9012432"><ele>573.0</ele><time>2026-04-13T11:50:08.673Z</time></trkpt><trkpt lat="38.449368" lon="-1.9008698"><ele>570.5</ele><time>2026-04-13T11:50:09.673Z</time></trkpt><trkpt lat="38.4493094" lon="-1.9004944"><ele>568.0</ele><time>2026-04-13T11:50:10.673Z</time></trkpt><trkpt lat="38.4492538" lon="-1.9001164"><ele>567.0</ele><time>2026-04-13T11:50:11.673Z</time></trkpt><trkpt lat="38.4492011" lon="-1.8997454"><ele>566.0</ele><time>2026-04-13T11:50:12.673Z</time></trkpt><trkpt lat="38.4491486" lon="-1.8993784"><ele>565.0</ele><time>2026-04-13T11:50:13.673Z</time></trkpt><trkpt lat="38.4490936" lon="-1.8990106"><ele>564.0</ele><time>2026-04-13T11:50:14.673Z</time></trkpt><trkpt lat="38.4490378" lon="-1.898644"><ele>564.0</ele><time>2026-04-13T11:50:15.673Z</time></trkpt><trkpt lat="38.4489835" lon="-1.8982762"><ele>564.0</ele><time>2026-04-13T11:50:16.673Z</time></trkpt><trkpt lat="38.4489286" lon="-1.8979064"><ele>564.5</ele><time>2026-04-13T11:50:17.673Z</time></trkpt><trkpt lat="38.448872" lon="-1.8975286"><ele>565.0</ele><time>2026-04-13T11:50:18.673Z</time></trkpt><trkpt lat="38.4488156" lon="-1.8971494"><ele>563.0</ele><time>2026-04-13T11:50:19.673Z</time></trkpt><trkpt lat="38.4487571" lon="-1.8967658"><ele>561.0</ele><time>2026-04-13T11:50:20.673Z</time></trkpt><trkpt lat="38.4486986" lon="-1.8963846"><ele>560.5</ele><time>2026-04-13T11:50:21.673Z</time></trkpt><trkpt lat="38.4486423" lon="-1.8960009"><ele>560.0</ele><time>2026-04-13T11:50:22.673Z</time></trkpt><trkpt lat="38.4485878" lon="-1.8956125"><ele>560.0</ele><time>2026-04-13T11:50:23.673Z</time></trkpt><trkpt lat="38.4485316" lon="-1.8952297"><ele>560.0</ele><time>2026-04-13T11:50:24.673Z</time></trkpt><trkpt lat="38.448474" lon="-1.8948549"><ele>559.5</ele><time>2026-04-13T11:50:25.673Z</time></trkpt><trkpt lat="38.4484202" lon="-1.8944972"><ele>559.0</ele><time>2026-04-13T11:50:26.673Z</time></trkpt><trkpt lat="38.4483684" lon="-1.8941432"><ele>558.0</ele><time>2026-04-13T11:50:27.673Z</time></trkpt><trkpt lat="38.4483144" lon="-1.8937927"><ele>557.0</ele><time>2026-04-13T11:50:28.673Z</time></trkpt><trkpt lat="38.4482611" lon="-1.8934355"><ele>557.5</ele><time>2026-04-13T11:50:29.673Z</time></trkpt><trkpt lat="38.448207" lon="-1.8930795"><ele>558.0</ele><time>2026-04-13T11:50:30.673Z</time></trkpt><trkpt lat="38.4481526" lon="-1.8927204"><ele>557.5</ele><time>2026-04-13T11:50:31.673Z</time></trkpt><trkpt lat="38.4481008" lon="-1.8923595"><ele>557.0</ele><time>2026-04-13T11:50:32.673Z</time></trkpt><trkpt lat="38.4480492" lon="-1.891995"><ele>556.5</ele><time>2026-04-13T11:50:33.673Z</time></trkpt><trkpt lat="38.4479958" lon="-1.8916302"><ele>556.0</ele><time>2026-04-13T11:50:34.673Z</time></trkpt><trkpt lat="38.4479383" lon="-1.8912601"><ele>553.0</ele><time>2026-04-13T11:50:35.673Z</time></trkpt><trkpt lat="38.4478853" lon="-1.8908881"><ele>550.0</ele><time>2026-04-13T11:50:36.673Z</time></trkpt><trkpt lat="38.4478276" lon="-1.8905176"><ele>550.0</ele><time>2026-04-13T11:50:37.673Z</time></trkpt><trkpt lat="38.4477698" lon="-1.8901471"><ele>550.0</ele><time>2026-04-13T11:50:38.673Z</time></trkpt><trkpt lat="38.4477162" lon="-1.8897806"><ele>548.5</ele><time>2026-04-13T11:50:39.673Z</time></trkpt><trkpt lat="38.4476595" lon="-1.8894067"><ele>547.0</ele><time>2026-04-13T11:50:40.673Z</time></trkpt><trkpt lat="38.4476069" lon="-1.8890389"><ele>546.5</ele><time>2026-04-13T11:50:41.673Z</time></trkpt><trkpt lat="38.4475503" lon="-1.8886766"><ele>546.0</ele><time>2026-04-13T11:50:42.673Z</time></trkpt><trkpt lat="38.4474935" lon="-1.8883126"><ele>547.0</ele><time>2026-04-13T11:50:43.673Z</time></trkpt><trkpt lat="38.4474389" lon="-1.8879471"><ele>548.0</ele><time>2026-04-13T11:50:44.673Z</time></trkpt><trkpt lat="38.4473871" lon="-1.8875829"><ele>549.5</ele><time>2026-04-13T11:50:45.673Z</time></trkpt><trkpt lat="38.4473353" lon="-1.8872278"><ele>551.0</ele><time>2026-04-13T11:50:46.673Z</time></trkpt><trkpt lat="38.4472843" lon="-1.8868739"><ele>551.5</ele><time>2026-04-13T11:50:47.673Z</time></trkpt><trkpt lat="38.4472353" lon="-1.8865205"><ele>552.0</ele><time>2026-04-13T11:50:48.673Z</time></trkpt><trkpt lat="38.4471824" lon="-1.8861747"><ele>552.0</ele><time>2026-04-13T11:50:49.673Z</time></trkpt><trkpt lat="38.4471316" lon="-1.8858336"><ele>552.0</ele><time>2026-04-13T11:50:50.673Z</time></trkpt><trkpt lat="38.4470782" lon="-1.8854902"><ele>552.0</ele><time>2026-04-13T11:50:51.673Z</time></trkpt><trkpt lat="38.4470289" lon="-1.8851399"><ele>552.0</ele><time>2026-04-13T11:50:52.673Z</time></trkpt><trkpt lat="38.4469766" lon="-1.8847863"><ele>552.5</ele><time>2026-04-13T11:50:53.673Z</time></trkpt><trkpt lat="38.4469254" lon="-1.884443"><ele>553.0</ele><time>2026-04-13T11:50:54.673Z</time></trkpt><trkpt lat="38.4468742" lon="-1.8840966"><ele>554.0</ele><time>2026-04-13T11:50:55.673Z</time></trkpt><trkpt lat="38.4468227" lon="-1.8837533"><ele>555.0</ele><time>2026-04-13T11:50:56.673Z</time></trkpt><trkpt lat="38.4467721" lon="-1.8834059"><ele>555.0</ele><time>2026-04-13T11:50:57.673Z</time></trkpt><trkpt lat="38.4467192" lon="-1.8830606"><ele>555.0</ele><time>2026-04-13T11:50:58.673Z</time></trkpt><trkpt lat="38.4466672" lon="-1.8827239"><ele>555.0</ele><time>2026-04-13T11:50:59.673Z</time></trkpt><trkpt lat="38.4466161" lon="-1.8823878"><ele>555.0</ele><time>2026-04-13T11:51:00.673Z</time></trkpt><trkpt lat="38.4465676" lon="-1.8820563"><ele>554.5</ele><time>2026-04-13T11:51:01.673Z</time></trkpt><trkpt lat="38.446517" lon="-1.8817147"><ele>554.0</ele><time>2026-04-13T11:51:02.673Z</time></trkpt><trkpt lat="38.4464703" lon="-1.8813738"><ele>554.0</ele><time>2026-04-13T11:51:03.673Z</time></trkpt><trkpt lat="38.4464283" lon="-1.8810371"><ele>554.0</ele><time>2026-04-13T11:51:04.673Z</time></trkpt><trkpt lat="38.4463963" lon="-1.8806964"><ele>553.5</ele><time>2026-04-13T11:51:05.673Z</time></trkpt><trkpt lat="38.4463705" lon="-1.8803494"><ele>553.0</ele><time>2026-04-13T11:51:06.673Z</time></trkpt><trkpt lat="38.4463459" lon="-1.8799974"><ele>552.5</ele><time>2026-04-13T11:51:07.673Z</time></trkpt><trkpt lat="38.4463231" lon="-1.8796475"><ele>552.0</ele><time>2026-04-13T11:51:08.674Z</time></trkpt><trkpt lat="38.4463024" lon="-1.8792962"><ele>547.0</ele><time>2026-04-13T11:51:09.673Z</time></trkpt><trkpt lat="38.4462792" lon="-1.8789444"><ele>542.0</ele><time>2026-04-13T11:51:10.673Z</time></trkpt><trkpt lat="38.4462573" lon="-1.8785964"><ele>542.5</ele><time>2026-04-13T11:51:11.673Z</time></trkpt><trkpt lat="38.4462365" lon="-1.8782547"><ele>543.0</ele><time>2026-04-13T11:51:12.673Z</time></trkpt><trkpt lat="38.4462135" lon="-1.877921"><ele>543.5</ele><time>2026-04-13T11:51:13.673Z</time></trkpt><trkpt lat="38.4461951" lon="-1.8775906"><ele>544.0</ele><time>2026-04-13T11:51:14.673Z</time></trkpt><trkpt lat="38.4461733" lon="-1.8772544"><ele>544.0</ele><time>2026-04-13T11:51:15.673Z</time></trkpt><trkpt lat="38.4461516" lon="-1.8769283"><ele>544.0</ele><time>2026-04-13T11:51:16.673Z</time></trkpt><trkpt lat="38.4461266" lon="-1.8765801"><ele>544.5</ele><time>2026-04-13T11:51:17.673Z</time></trkpt><trkpt lat="38.4461063" lon="-1.8762393"><ele>545.0</ele><time>2026-04-13T11:51:18.673Z</time></trkpt><trkpt lat="38.4460877" lon="-1.8759051"><ele>546.0</ele><time>2026-04-13T11:51:19.673Z</time></trkpt><trkpt lat="38.4460654" lon="-1.8755661"><ele>547.0</ele><time>2026-04-13T11:51:20.673Z</time></trkpt><trkpt lat="38.4460476" lon="-1.8752249"><ele>548.5</ele><time>2026-04-13T11:51:21.673Z</time></trkpt><trkpt lat="38.4460331" lon="-1.8749027"><ele>550.0</ele><time>2026-04-13T11:51:22.673Z</time></trkpt><trkpt lat="38.4460052" lon="-1.8745796"><ele>551.5</ele><time>2026-04-13T11:51:23.673Z</time></trkpt><trkpt lat="38.4459803" lon="-1.8742431"><ele>553.0</ele><time>2026-04-13T11:51:24.673Z</time></trkpt><trkpt lat="38.4459561" lon="-1.8739048"><ele>553.0</ele><time>2026-04-13T11:51:25.673Z</time></trkpt><trkpt lat="38.445932" lon="-1.8735652"><ele>553.0</ele><time>2026-04-13T11:51:26.673Z</time></trkpt><trkpt lat="38.4459094" lon="-1.873235"><ele>554.5</ele><time>2026-04-13T11:51:27.673Z</time></trkpt><trkpt lat="38.4458877" lon="-1.8729047"><ele>556.0</ele><time>2026-04-13T11:51:28.673Z</time></trkpt><trkpt lat="38.4458635" lon="-1.8725717"><ele>558.0</ele><time>2026-04-13T11:51:29.673Z</time></trkpt><trkpt lat="38.4458405" lon="-1.8722395"><ele>560.0</ele><time>2026-04-13T11:51:30.673Z</time></trkpt><trkpt lat="38.445814" lon="-1.8719008"><ele>561.5</ele><time>2026-04-13T11:51:31.673Z</time></trkpt><trkpt lat="38.4457747" lon="-1.8715646"><ele>563.0</ele><time>2026-04-13T11:51:32.673Z</time></trkpt><trkpt lat="38.4457182" lon="-1.8712295"><ele>564.0</ele><time>2026-04-13T11:51:33.673Z</time></trkpt><trkpt lat="38.4456515" lon="-1.8708931"><ele>565.0</ele><time>2026-04-13T11:51:34.673Z</time></trkpt><trkpt lat="38.4455758" lon="-1.8705606"><ele>565.0</ele><time>2026-04-13T11:51:35.673Z</time></trkpt><trkpt lat="38.4454942" lon="-1.8702251"><ele>565.0</ele><time>2026-04-13T11:51:36.673Z</time></trkpt><trkpt lat="38.4454094" lon="-1.8698897"><ele>562.0</ele><time>2026-04-13T11:51:37.673Z</time></trkpt><trkpt lat="38.4453294" lon="-1.8695535"><ele>559.0</ele><time>2026-04-13T11:51:38.673Z</time></trkpt><trkpt lat="38.4452456" lon="-1.8692176"><ele>559.0</ele><time>2026-04-13T11:51:39.673Z</time></trkpt><trkpt lat="38.4451646" lon="-1.8688794"><ele>559.0</ele><time>2026-04-13T11:51:40.673Z</time></trkpt><trkpt lat="38.4450817" lon="-1.8685452"><ele>559.5</ele><time>2026-04-13T11:51:41.673Z</time></trkpt><trkpt lat="38.4449995" lon="-1.868209"><ele>560.0</ele><time>2026-04-13T11:51:42.673Z</time></trkpt><trkpt lat="38.4449164" lon="-1.8678729"><ele>560.0</ele><time>2026-04-13T11:51:43.674Z</time></trkpt><trkpt lat="38.4448334" lon="-1.8675388"><ele>560.0</ele><time>2026-04-13T11:51:44.673Z</time></trkpt><trkpt lat="38.4447556" lon="-1.8672061"><ele>560.0</ele><time>2026-04-13T11:51:45.673Z</time></trkpt><trkpt lat="38.444678" lon="-1.8668773"><ele>560.0</ele><time>2026-04-13T11:51:46.673Z</time></trkpt><trkpt lat="38.4445967" lon="-1.8665445"><ele>560.0</ele><time>2026-04-13T11:51:47.673Z</time></trkpt><trkpt lat="38.4445177" lon="-1.8662125"><ele>560.0</ele><time>2026-04-13T11:51:48.673Z</time></trkpt><trkpt lat="38.4444361" lon="-1.865882"><ele>560.5</ele><time>2026-04-13T11:51:49.673Z</time></trkpt><trkpt lat="38.4443542" lon="-1.865551"><ele>561.0</ele><time>2026-04-13T11:51:50.673Z</time></trkpt><trkpt lat="38.4442726" lon="-1.8652187"><ele>561.5</ele><time>2026-04-13T11:51:51.673Z</time></trkpt><trkpt lat="38.4441927" lon="-1.864886"><ele>562.0</ele><time>2026-04-13T11:51:52.673Z</time></trkpt><trkpt lat="38.4441124" lon="-1.8645514"><ele>562.5</ele><time>2026-04-13T11:51:53.673Z</time></trkpt><trkpt lat="38.4440321" lon="-1.8642185"><ele>563.0</ele><time>2026-04-13T11:51:54.673Z</time></trkpt><trkpt lat="38.4439523" lon="-1.8638824"><ele>563.0</ele><time>2026-04-13T11:51:55.673Z</time></trkpt><trkpt lat="38.4438725" lon="-1.863549"><ele>563.0</ele><time>2026-04-13T11:51:56.673Z</time></trkpt><trkpt lat="38.4437939" lon="-1.8632154"><ele>563.5</ele><time>2026-04-13T11:51:57.673Z</time></trkpt><trkpt lat="38.4437127" lon="-1.8628802"><ele>564.0</ele><time>2026-04-13T11:51:58.673Z</time></trkpt><trkpt lat="38.4436321" lon="-1.8625496"><ele>566.5</ele><time>2026-04-13T11:51:59.673Z</time></trkpt><trkpt lat="38.4435495" lon="-1.8622167"><ele>569.0</ele><time>2026-04-13T11:52:00.674Z</time></trkpt><trkpt lat="38.4434694" lon="-1.861888"><ele>567.5</ele><time>2026-04-13T11:52:01.673Z</time></trkpt><trkpt lat="38.4433896" lon="-1.8615635"><ele>566.0</ele><time>2026-04-13T11:52:02.673Z</time></trkpt><trkpt lat="38.4433122" lon="-1.8612412"><ele>566.5</ele><time>2026-04-13T11:52:03.673Z</time></trkpt><trkpt lat="38.4432343" lon="-1.8609232"><ele>567.0</ele><time>2026-04-13T11:52:04.673Z</time></trkpt><trkpt lat="38.4431567" lon="-1.8606093"><ele>567.0</ele><time>2026-04-13T11:52:05.673Z</time></trkpt><trkpt lat="38.4430794" lon="-1.860291"><ele>567.0</ele><time>2026-04-13T11:52:06.673Z</time></trkpt><trkpt lat="38.4430069" lon="-1.8599696"><ele>568.5</ele><time>2026-04-13T11:52:07.673Z</time></trkpt><trkpt lat="38.4429315" lon="-1.8596474"><ele>570.0</ele><time>2026-04-13T11:52:08.673Z</time></trkpt><trkpt lat="38.4428627" lon="-1.8593199"><ele>570.0</ele><time>2026-04-13T11:52:09.673Z</time></trkpt><trkpt lat="38.4428041" lon="-1.858989"><ele>570.0</ele><time>2026-04-13T11:52:10.673Z</time></trkpt><trkpt lat="38.4427589" lon="-1.8586552"><ele>570.5</ele><time>2026-04-13T11:52:11.673Z</time></trkpt><trkpt lat="38.4427207" lon="-1.8583181"><ele>571.0</ele><time>2026-04-13T11:52:12.673Z</time></trkpt><trkpt lat="38.4426891" lon="-1.8579769"><ele>571.0</ele><time>2026-04-13T11:52:13.673Z</time></trkpt><trkpt lat="38.442661" lon="-1.8576329"><ele>571.0</ele><time>2026-04-13T11:52:14.673Z</time></trkpt><trkpt lat="38.4426341" lon="-1.8572844"><ele>570.5</ele><time>2026-04-13T11:52:15.673Z</time></trkpt><trkpt lat="38.4426104" lon="-1.8569375"><ele>570.0</ele><time>2026-04-13T11:52:16.673Z</time></trkpt><trkpt lat="38.4425831" lon="-1.8565917"><ele>570.0</ele><time>2026-04-13T11:52:17.673Z</time></trkpt><trkpt lat="38.442557" lon="-1.8562417"><ele>570.0</ele><time>2026-04-13T11:52:18.673Z</time></trkpt><trkpt lat="38.4425341" lon="-1.8558968"><ele>569.5</ele><time>2026-04-13T11:52:19.673Z</time></trkpt><trkpt lat="38.4425076" lon="-1.8555484"><ele>569.0</ele><time>2026-04-13T11:52:20.673Z</time></trkpt><trkpt lat="38.4424828" lon="-1.8552002"><ele>567.5</ele><time>2026-04-13T11:52:21.673Z</time></trkpt><trkpt lat="38.4424575" lon="-1.8548559"><ele>566.0</ele><time>2026-04-13T11:52:22.673Z</time></trkpt><trkpt lat="38.442434" lon="-1.8545031"><ele>566.0</ele><time>2026-04-13T11:52:23.673Z</time></trkpt><trkpt lat="38.4424083" lon="-1.8541583"><ele>566.0</ele><time>2026-04-13T11:52:24.674Z</time></trkpt><trkpt lat="38.4423795" lon="-1.8538192"><ele>566.0</ele><time>2026-04-13T11:52:25.673Z</time></trkpt><trkpt lat="38.4423574" lon="-1.8534682"><ele>566.0</ele><time>2026-04-13T11:52:26.673Z</time></trkpt><trkpt lat="38.4423307" lon="-1.8531194"><ele>566.5</ele><time>2026-04-13T11:52:27.673Z</time></trkpt><trkpt lat="38.4423035" lon="-1.8527752"><ele>567.0</ele><time>2026-04-13T11:52:28.673Z</time></trkpt><trkpt lat="38.4422752" lon="-1.8524273"><ele>567.0</ele><time>2026-04-13T11:52:29.673Z</time></trkpt><trkpt lat="38.4422493" lon="-1.8520825"><ele>567.0</ele><time>2026-04-13T11:52:30.673Z</time></trkpt><trkpt lat="38.4422232" lon="-1.851739"><ele>568.0</ele><time>2026-04-13T11:52:31.673Z</time></trkpt><trkpt lat="38.4421982" lon="-1.8513949"><ele>569.0</ele><time>2026-04-13T11:52:32.673Z</time></trkpt><trkpt lat="38.4421752" lon="-1.8510506"><ele>568.5</ele><time>2026-04-13T11:52:33.673Z</time></trkpt><trkpt lat="38.4421497" lon="-1.8507067"><ele>568.0</ele><time>2026-04-13T11:52:34.673Z</time></trkpt><trkpt lat="38.442124" lon="-1.8503592"><ele>566.0</ele><time>2026-04-13T11:52:35.673Z</time></trkpt><trkpt lat="38.4420977" lon="-1.850009"><ele>564.0</ele><time>2026-04-13T11:52:36.673Z</time></trkpt><trkpt lat="38.442072" lon="-1.8496566"><ele>564.0</ele><time>2026-04-13T11:52:37.673Z</time></trkpt><trkpt lat="38.4420448" lon="-1.8493058"><ele>564.0</ele><time>2026-04-13T11:52:38.673Z</time></trkpt><trkpt lat="38.4420186" lon="-1.8489555"><ele>564.0</ele><time>2026-04-13T11:52:39.674Z</time></trkpt><trkpt lat="38.4419958" lon="-1.8486045"><ele>564.0</ele><time>2026-04-13T11:52:40.673Z</time></trkpt><trkpt lat="38.4419704" lon="-1.8482499"><ele>564.0</ele><time>2026-04-13T11:52:41.673Z</time></trkpt><trkpt lat="38.4419443" lon="-1.8478932"><ele>564.0</ele><time>2026-04-13T11:52:42.673Z</time></trkpt><trkpt lat="38.4419173" lon="-1.8475354"><ele>563.0</ele><time>2026-04-13T11:52:43.673Z</time></trkpt><trkpt lat="38.4418896" lon="-1.8471724"><ele>562.0</ele><time>2026-04-13T11:52:44.673Z</time></trkpt><trkpt lat="38.4418612" lon="-1.8468113"><ele>560.5</ele><time>2026-04-13T11:52:45.673Z</time></trkpt><trkpt lat="38.4418355" lon="-1.8464541"><ele>559.0</ele><time>2026-04-13T11:52:46.673Z</time></trkpt><trkpt lat="38.4418104" lon="-1.8461021"><ele>558.5</ele><time>2026-04-13T11:52:47.673Z</time></trkpt><trkpt lat="38.4417843" lon="-1.845754"><ele>558.0</ele><time>2026-04-13T11:52:48.673Z</time></trkpt><trkpt lat="38.4417577" lon="-1.8454034"><ele>559.0</ele><time>2026-04-13T11:52:49.673Z</time></trkpt><trkpt lat="38.4417313" lon="-1.845057"><ele>560.0</ele><time>2026-04-13T11:52:50.673Z</time></trkpt><trkpt lat="38.4417048" lon="-1.8447107"><ele>560.0</ele><time>2026-04-13T11:52:51.673Z</time></trkpt><trkpt lat="38.4416775" lon="-1.8443649"><ele>560.0</ele><time>2026-04-13T11:52:52.673Z</time></trkpt><trkpt lat="38.4416487" lon="-1.844017"><ele>560.0</ele><time>2026-04-13T11:52:53.673Z</time></trkpt><trkpt lat="38.4416223" lon="-1.8436699"><ele>560.0</ele><time>2026-04-13T11:52:54.673Z</time></trkpt><trkpt lat="38.441595" lon="-1.8433227"><ele>559.5</ele><time>2026-04-13T11:52:55.673Z</time></trkpt><trkpt lat="38.4415691" lon="-1.8429727"><ele>559.0</ele><time>2026-04-13T11:52:56.673Z</time></trkpt><trkpt lat="38.441543" lon="-1.8426242"><ele>557.5</ele><time>2026-04-13T11:52:57.673Z</time></trkpt><trkpt lat="38.4415165" lon="-1.8422699"><ele>556.0</ele><time>2026-04-13T11:52:58.673Z</time></trkpt><trkpt lat="38.4414905" lon="-1.8419166"><ele>556.0</ele><time>2026-04-13T11:52:59.673Z</time></trkpt><trkpt lat="38.4414623" lon="-1.8415598"><ele>556.0</ele><time>2026-04-13T11:53:00.673Z</time></trkpt><trkpt lat="38.4414337" lon="-1.8411994"><ele>555.0</ele><time>2026-04-13T11:53:01.673Z</time></trkpt><trkpt lat="38.4414067" lon="-1.8408368"><ele>554.0</ele><time>2026-04-13T11:53:02.673Z</time></trkpt><trkpt lat="38.4413799" lon="-1.840473"><ele>553.0</ele><time>2026-04-13T11:53:03.673Z</time></trkpt><trkpt lat="38.4413531" lon="-1.8401053"><ele>552.0</ele><time>2026-04-13T11:53:04.673Z</time></trkpt><trkpt lat="38.441324" lon="-1.8397371"><ele>551.0</ele><time>2026-04-13T11:53:05.673Z</time></trkpt><trkpt lat="38.4412978" lon="-1.8393654"><ele>550.0</ele><time>2026-04-13T11:53:06.673Z</time></trkpt><trkpt lat="38.4412708" lon="-1.8389917"><ele>549.0</ele><time>2026-04-13T11:53:07.673Z</time></trkpt><trkpt lat="38.4412415" lon="-1.8386155"><ele>548.0</ele><time>2026-04-13T11:53:08.673Z</time></trkpt><trkpt lat="38.4412111" lon="-1.8382379"><ele>547.5</ele><time>2026-04-13T11:53:09.673Z</time></trkpt><trkpt lat="38.4411815" lon="-1.8378615"><ele>547.0</ele><time>2026-04-13T11:53:10.673Z</time></trkpt><trkpt lat="38.4411529" lon="-1.8374846"><ele>546.5</ele><time>2026-04-13T11:53:11.673Z</time></trkpt><trkpt lat="38.441125" lon="-1.83711"><ele>546.0</ele><time>2026-04-13T11:53:12.673Z</time></trkpt><trkpt lat="38.4410966" lon="-1.8367361"><ele>546.0</ele><time>2026-04-13T11:53:13.673Z</time></trkpt><trkpt lat="38.4410698" lon="-1.8363626"><ele>546.0</ele><time>2026-04-13T11:53:14.673Z</time></trkpt><trkpt lat="38.441041" lon="-1.8359902"><ele>547.0</ele><time>2026-04-13T11:53:15.673Z</time></trkpt><trkpt lat="38.4410111" lon="-1.8356205"><ele>548.0</ele><time>2026-04-13T11:53:16.673Z</time></trkpt><trkpt lat="38.4409848" lon="-1.8352559"><ele>547.5</ele><time>2026-04-13T11:53:17.673Z</time></trkpt><trkpt lat="38.4409609" lon="-1.8348978"><ele>547.0</ele><time>2026-04-13T11:53:18.673Z</time></trkpt><trkpt lat="38.4409347" lon="-1.8345427"><ele>547.0</ele><time>2026-04-13T11:53:19.673Z</time></trkpt><trkpt lat="38.4409077" lon="-1.8341873"><ele>547.0</ele><time>2026-04-13T11:53:20.673Z</time></trkpt><trkpt lat="38.4408808" lon="-1.8338305"><ele>546.0</ele><time>2026-04-13T11:53:21.673Z</time></trkpt><trkpt lat="38.4408548" lon="-1.8334691"><ele>545.0</ele><time>2026-04-13T11:53:22.673Z</time></trkpt><trkpt lat="38.4408275" lon="-1.8331083"><ele>545.0</ele><time>2026-04-13T11:53:23.673Z</time></trkpt><trkpt lat="38.4407978" lon="-1.8327449"><ele>545.0</ele><time>2026-04-13T11:53:24.673Z</time></trkpt><trkpt lat="38.440771" lon="-1.8323854"><ele>544.5</ele><time>2026-04-13T11:53:25.673Z</time></trkpt><trkpt lat="38.4407419" lon="-1.8320221"><ele>544.0</ele><time>2026-04-13T11:53:26.673Z</time></trkpt><trkpt lat="38.4407149" lon="-1.8316588"><ele>544.0</ele><time>2026-04-13T11:53:27.673Z</time></trkpt><trkpt lat="38.4406886" lon="-1.8312941"><ele>544.0</ele><time>2026-04-13T11:53:28.673Z</time></trkpt><trkpt lat="38.4406634" lon="-1.8309319"><ele>544.5</ele><time>2026-04-13T11:53:29.673Z</time></trkpt><trkpt lat="38.4406375" lon="-1.8305742"><ele>545.0</ele><time>2026-04-13T11:53:30.673Z</time></trkpt><trkpt lat="38.4406072" lon="-1.8302188"><ele>546.5</ele><time>2026-04-13T11:53:31.673Z</time></trkpt><trkpt lat="38.4405793" lon="-1.829863"><ele>548.0</ele><time>2026-04-13T11:53:32.673Z</time></trkpt><trkpt lat="38.4405522" lon="-1.8295127"><ele>548.0</ele><time>2026-04-13T11:53:33.673Z</time></trkpt><trkpt lat="38.4405224" lon="-1.8291661"><ele>548.0</ele><time>2026-04-13T11:53:34.673Z</time></trkpt><trkpt lat="38.4404942" lon="-1.8288163"><ele>548.0</ele><time>2026-04-13T11:53:35.673Z</time></trkpt><trkpt lat="38.4404661" lon="-1.8284671"><ele>548.0</ele><time>2026-04-13T11:53:36.673Z</time></trkpt><trkpt lat="38.4404495" lon="-1.8281171"><ele>548.0</ele><time>2026-04-13T11:53:37.673Z</time></trkpt><trkpt lat="38.4404397" lon="-1.8277672"><ele>548.0</ele><time>2026-04-13T11:53:38.673Z</time></trkpt><trkpt lat="38.4404444" lon="-1.8274157"><ele>548.0</ele><time>2026-04-13T11:53:39.673Z</time></trkpt><trkpt lat="38.4404597" lon="-1.8270664"><ele>548.0</ele><time>2026-04-13T11:53:40.673Z</time></trkpt><trkpt lat="38.4404872" lon="-1.8267171"><ele>549.0</ele><time>2026-04-13T11:53:41.673Z</time></trkpt><trkpt lat="38.4405245" lon="-1.8263684"><ele>550.0</ele><time>2026-04-13T11:53:42.673Z</time></trkpt><trkpt lat="38.4405759" lon="-1.8260229"><ele>549.0</ele><time>2026-04-13T11:53:43.673Z</time></trkpt><trkpt lat="38.4406369" lon="-1.8256813"><ele>548.0</ele><time>2026-04-13T11:53:44.673Z</time></trkpt><trkpt lat="38.4407055" lon="-1.8253455"><ele>548.0</ele><time>2026-04-13T11:53:45.673Z</time></trkpt><trkpt lat="38.4407745" lon="-1.8250206"><ele>548.0</ele><time>2026-04-13T11:53:46.673Z</time></trkpt><trkpt lat="38.4408354" lon="-1.8246796"><ele>548.0</ele><time>2026-04-13T11:53:47.673Z</time></trkpt><trkpt lat="38.4408789" lon="-1.824333"><ele>548.0</ele><time>2026-04-13T11:53:48.673Z</time></trkpt><trkpt lat="38.4408985" lon="-1.8239835"><ele>547.5</ele><time>2026-04-13T11:53:49.673Z</time></trkpt><trkpt lat="38.4409137" lon="-1.8236317"><ele>547.0</ele><time>2026-04-13T11:53:50.673Z</time></trkpt><trkpt lat="38.4409297" lon="-1.8232793"><ele>546.0</ele><time>2026-04-13T11:53:51.673Z</time></trkpt><trkpt lat="38.4409514" lon="-1.8229242"><ele>545.0</ele><time>2026-04-13T11:53:52.673Z</time></trkpt><trkpt lat="38.4409799" lon="-1.8225717"><ele>542.0</ele><time>2026-04-13T11:53:53.673Z</time></trkpt><trkpt lat="38.4410137" lon="-1.8222197"><ele>539.0</ele><time>2026-04-13T11:53:54.673Z</time></trkpt><trkpt lat="38.4410546" lon="-1.8218633"><ele>536.0</ele><time>2026-04-13T11:53:55.673Z</time></trkpt><trkpt lat="38.4411002" lon="-1.821507"><ele>533.0</ele><time>2026-04-13T11:53:56.673Z</time></trkpt><trkpt lat="38.4411508" lon="-1.8211484"><ele>532.0</ele><time>2026-04-13T11:53:57.673Z</time></trkpt><trkpt lat="38.4412062" lon="-1.8207879"><ele>531.0</ele><time>2026-04-13T11:53:58.673Z</time></trkpt><trkpt lat="38.4412592" lon="-1.8204281"><ele>527.5</ele><time>2026-04-13T11:53:59.673Z</time></trkpt><trkpt lat="38.441317" lon="-1.8200695"><ele>524.0</ele><time>2026-04-13T11:54:00.673Z</time></trkpt><trkpt lat="38.4413626" lon="-1.8197042"><ele>524.0</ele><time>2026-04-13T11:54:01.673Z</time></trkpt><trkpt lat="38.4413995" lon="-1.8193438"><ele>524.0</ele><time>2026-04-13T11:54:02.674Z</time></trkpt><trkpt lat="38.4414337" lon="-1.8189893"><ele>524.0</ele><time>2026-04-13T11:54:03.673Z</time></trkpt><trkpt lat="38.4414645" lon="-1.8186455"><ele>524.0</ele><time>2026-04-13T11:54:04.673Z</time></trkpt><trkpt lat="38.441495" lon="-1.8183186"><ele>524.0</ele><time>2026-04-13T11:54:05.673Z</time></trkpt><trkpt lat="38.441523" lon="-1.8180132"><ele>524.0</ele><time>2026-04-13T11:54:06.673Z</time></trkpt><trkpt lat="38.4415454" lon="-1.8177113"><ele>522.6666666666666</ele><time>2026-04-13T11:54:07.673Z</time></trkpt><trkpt lat="38.4415688" lon="-1.8174223"><ele>521.3333333333334</ele><time>2026-04-13T11:54:08.673Z</time></trkpt><trkpt lat="38.4415844" lon="-1.8171436"><ele>520.0</ele><time>2026-04-13T11:54:09.673Z</time></trkpt><trkpt lat="38.4415753" lon="-1.8168739"><ele>518.6666666666667</ele><time>2026-04-13T11:54:10.673Z</time></trkpt><trkpt lat="38.4415335" lon="-1.8166053"><ele>517.3333333333334</ele><time>2026-04-13T11:54:11.673Z</time></trkpt><trkpt lat="38.4414578" lon="-1.8163477"><ele>516.0</ele><time>2026-04-13T11:54:12.673Z</time></trkpt><trkpt lat="38.4413548" lon="-1.8161062"><ele>514.3333333333334</ele><time>2026-04-13T11:54:13.673Z</time></trkpt><trkpt lat="38.4412368" lon="-1.8158743"><ele>512.6666666666667</ele><time>2026-04-13T11:54:14.673Z</time></trkpt><trkpt lat="38.4411153" lon="-1.8156463"><ele>511.0</ele><time>2026-04-13T11:54:15.673Z</time></trkpt><trkpt lat="38.4409999" lon="-1.8154233"><ele>511.0</ele><time>2026-04-13T11:54:16.673Z</time></trkpt><trkpt lat="38.4408985" lon="-1.8152021"><ele>511.0</ele><time>2026-04-13T11:54:17.673Z</time></trkpt><trkpt lat="38.4408222" lon="-1.8149822"><ele>511.0</ele><time>2026-04-13T11:54:18.673Z</time></trkpt><trkpt lat="38.4407839" lon="-1.8147519"><ele>509.6666666666667</ele><time>2026-04-13T11:54:19.673Z</time></trkpt><trkpt lat="38.4407789" lon="-1.8145134"><ele>508.33333333333337</ele><time>2026-04-13T11:54:20.673Z</time></trkpt><trkpt lat="38.4408095" lon="-1.8142864"><ele>507.0</ele><time>2026-04-13T11:54:21.673Z</time></trkpt><trkpt lat="38.4408734" lon="-1.8140646"><ele>505.66666666666663</ele><time>2026-04-13T11:54:22.673Z</time></trkpt><trkpt lat="38.4409725" lon="-1.8138578"><ele>504.3333333333333</ele><time>2026-04-13T11:54:23.673Z</time></trkpt><trkpt lat="38.4411069" lon="-1.8136766"><ele>503.0</ele><time>2026-04-13T11:54:24.673Z</time></trkpt><trkpt lat="38.4412635" lon="-1.8135168"><ele>500.66666666666663</ele><time>2026-04-13T11:54:25.673Z</time></trkpt><trkpt lat="38.4414306" lon="-1.8133565"><ele>498.33333333333337</ele><time>2026-04-13T11:54:26.673Z</time></trkpt><trkpt lat="38.4416071" lon="-1.8131974"><ele>496.0</ele><time>2026-04-13T11:54:27.673Z</time></trkpt><trkpt lat="38.4417855" lon="-1.8130269"><ele>496.0</ele><time>2026-04-13T11:54:28.673Z</time></trkpt><trkpt lat="38.4419703" lon="-1.8128541"><ele>496.0</ele><time>2026-04-13T11:54:29.673Z</time></trkpt><trkpt lat="38.4421586" lon="-1.8126745"><ele>497.0</ele><time>2026-04-13T11:54:30.673Z</time></trkpt><trkpt lat="38.4423561" lon="-1.8124947"><ele>498.0</ele><time>2026-04-13T11:54:31.673Z</time></trkpt><trkpt lat="38.4425605" lon="-1.81232"><ele>498.0</ele><time>2026-04-13T11:54:32.673Z</time></trkpt><trkpt lat="38.4427659" lon="-1.8121444"><ele>498.0</ele><time>2026-04-13T11:54:33.673Z</time></trkpt><trkpt lat="38.4429654" lon="-1.8119585"><ele>501.5</ele><time>2026-04-13T11:54:34.673Z</time></trkpt><trkpt lat="38.4431601" lon="-1.8117659"><ele>505.0</ele><time>2026-04-13T11:54:35.673Z</time></trkpt><trkpt lat="38.4433483" lon="-1.8115737"><ele>505.0</ele><time>2026-04-13T11:54:36.673Z</time></trkpt><trkpt lat="38.4435374" lon="-1.8113759"><ele>505.0</ele><time>2026-04-13T11:54:37.673Z</time></trkpt><trkpt lat="38.4437241" lon="-1.8111896"><ele>502.5</ele><time>2026-04-13T11:54:38.673Z</time></trkpt><trkpt lat="38.4439081" lon="-1.8110144"><ele>500.0</ele><time>2026-04-13T11:54:39.673Z</time></trkpt><trkpt lat="38.4440892" lon="-1.8108467"><ele>500.0</ele><time>2026-04-13T11:54:40.673Z</time></trkpt><trkpt lat="38.4442762" lon="-1.8106819"><ele>500.0</ele><time>2026-04-13T11:54:41.674Z</time></trkpt><trkpt lat="38.4444744" lon="-1.8105267"><ele>501.5</ele><time>2026-04-13T11:54:42.673Z</time></trkpt><trkpt lat="38.4446848" lon="-1.810389"><ele>503.0</ele><time>2026-04-13T11:54:43.673Z</time></trkpt><trkpt lat="38.4449006" lon="-1.8102663"><ele>498.5</ele><time>2026-04-13T11:54:44.673Z</time></trkpt><trkpt lat="38.4451208" lon="-1.810146"><ele>494.0</ele><time>2026-04-13T11:54:45.673Z</time></trkpt><trkpt lat="38.4453403" lon="-1.8100269"><ele>495.5</ele><time>2026-04-13T11:54:46.673Z</time></trkpt><trkpt lat="38.4455592" lon="-1.8099085"><ele>497.0</ele><time>2026-04-13T11:54:47.673Z</time></trkpt><trkpt lat="38.4457791" lon="-1.8097885"><ele>497.0</ele><time>2026-04-13T11:54:48.673Z</time></trkpt><trkpt lat="38.4459947" lon="-1.8096681"><ele>497.0</ele><time>2026-04-13T11:54:49.673Z</time></trkpt><trkpt lat="38.4462145" lon="-1.80955"><ele>493.0</ele><time>2026-04-13T11:54:50.673Z</time></trkpt><trkpt lat="38.4464374" lon="-1.8094266"><ele>489.0</ele><time>2026-04-13T11:54:51.673Z</time></trkpt><trkpt lat="38.4466588" lon="-1.8093027"><ele>489.0</ele><time>2026-04-13T11:54:52.673Z</time></trkpt><trkpt lat="38.4468818" lon="-1.8091854"><ele>489.0</ele><time>2026-04-13T11:54:53.673Z</time></trkpt><trkpt lat="38.4471039" lon="-1.8090635"><ele>490.5</ele><time>2026-04-13T11:54:54.673Z</time></trkpt><trkpt lat="38.4473235" lon="-1.8089407"><ele>492.0</ele><time>2026-04-13T11:54:55.673Z</time></trkpt><trkpt lat="38.4475366" lon="-1.8088225"><ele>492.0</ele><time>2026-04-13T11:54:56.673Z</time></trkpt><trkpt lat="38.4477476" lon="-1.808709"><ele>492.0</ele><time>2026-04-13T11:54:57.673Z</time></trkpt><trkpt lat="38.4479615" lon="-1.8086116"><ele>496.0</ele><time>2026-04-13T11:54:58.673Z</time></trkpt><trkpt lat="38.4481914" lon="-1.8085643"><ele>500.0</ele><time>2026-04-13T11:54:59.673Z</time></trkpt><trkpt lat="38.4484215" lon="-1.8085238"><ele>500.0</ele><time>2026-04-13T11:55:00.673Z</time></trkpt><trkpt lat="38.4486506" lon="-1.8085686"><ele>500.0</ele><time>2026-04-13T11:55:01.673Z</time></trkpt><trkpt lat="38.4488795" lon="-1.8086326"><ele>496.0</ele><time>2026-04-13T11:55:02.673Z</time></trkpt><trkpt lat="38.4491047" lon="-1.808739"><ele>492.0</ele><time>2026-04-13T11:55:03.673Z</time></trkpt><trkpt lat="38.449326" lon="-1.8088682"><ele>492.0</ele><time>2026-04-13T11:55:04.673Z</time></trkpt><trkpt lat="38.4495497" lon="-1.8090119"><ele>492.0</ele><time>2026-04-13T11:55:05.673Z</time></trkpt><trkpt lat="38.4497711" lon="-1.8091686"><ele>491.5</ele><time>2026-04-13T11:55:06.673Z</time></trkpt><trkpt lat="38.4499938" lon="-1.8093323"><ele>491.0</ele><time>2026-04-13T11:55:07.673Z</time></trkpt><trkpt lat="38.4502196" lon="-1.8094938"><ele>491.0</ele><time>2026-04-13T11:55:08.673Z</time></trkpt><trkpt lat="38.4504528" lon="-1.8096537"><ele>491.0</ele><time>2026-04-13T11:55:09.673Z</time></trkpt><trkpt lat="38.4506872" lon="-1.8097983"><ele>484.0</ele><time>2026-04-13T11:55:10.673Z</time></trkpt><trkpt lat="38.4509316" lon="-1.8099048"><ele>477.0</ele><time>2026-04-13T11:55:11.673Z</time></trkpt><trkpt lat="38.4511863" lon="-1.809978"><ele>476.5</ele><time>2026-04-13T11:55:12.673Z</time></trkpt><trkpt lat="38.4514383" lon="-1.8100249"><ele>476.0</ele><time>2026-04-13T11:55:13.673Z</time></trkpt><trkpt lat="38.4516872" lon="-1.8100508"><ele>476.0</ele><time>2026-04-13T11:55:14.673Z</time></trkpt><trkpt lat="38.4519312" lon="-1.8100606"><ele>476.0</ele><time>2026-04-13T11:55:15.673Z</time></trkpt><trkpt lat="38.4521719" lon="-1.8100688"><ele>476.0</ele><time>2026-04-13T11:55:16.673Z</time></trkpt><trkpt lat="38.4524111" lon="-1.8100784"><ele>476.0</ele><time>2026-04-13T11:55:17.673Z</time></trkpt><trkpt lat="38.4526481" lon="-1.8100822"><ele>476.0</ele><time>2026-04-13T11:55:18.673Z</time></trkpt><trkpt lat="38.452881" lon="-1.8100836"><ele>476.0</ele><time>2026-04-13T11:55:19.673Z</time></trkpt><trkpt lat="38.4531115" lon="-1.8100828"><ele>473.0</ele><time>2026-04-13T11:55:20.673Z</time></trkpt><trkpt lat="38.4533452" lon="-1.8100728"><ele>470.0</ele><time>2026-04-13T11:55:21.674Z</time></trkpt><trkpt lat="38.4535721" lon="-1.8100437"><ele>472.0</ele><time>2026-04-13T11:55:22.673Z</time></trkpt><trkpt lat="38.4537896" lon="-1.8099843"><ele>474.0</ele><time>2026-04-13T11:55:23.673Z</time></trkpt><trkpt lat="38.4540058" lon="-1.8098929"><ele>474.0</ele><time>2026-04-13T11:55:24.673Z</time></trkpt><trkpt lat="38.4542127" lon="-1.8097774"><ele>474.0</ele><time>2026-04-13T11:55:25.673Z</time></trkpt><trkpt lat="38.4544158" lon="-1.8096469"><ele>474.0</ele><time>2026-04-13T11:55:26.673Z</time></trkpt><trkpt lat="38.4546195" lon="-1.8095142"><ele>474.0</ele><time>2026-04-13T11:55:27.673Z</time></trkpt><trkpt lat="38.4548189" lon="-1.8093834"><ele>473.0</ele><time>2026-04-13T11:55:28.673Z</time></trkpt><trkpt lat="38.4550229" lon="-1.8092563"><ele>472.0</ele><time>2026-04-13T11:55:29.673Z</time></trkpt><trkpt lat="38.4552293" lon="-1.8091351"><ele>472.0</ele><time>2026-04-13T11:55:30.673Z</time></trkpt><trkpt lat="38.4554438" lon="-1.8090398"><ele>472.0</ele><time>2026-04-13T11:55:31.673Z</time></trkpt><trkpt lat="38.4556632" lon="-1.8089695"><ele>474.33333333333337</ele><time>2026-04-13T11:55:32.673Z</time></trkpt><trkpt lat="38.45588" lon="-1.8089145"><ele>476.66666666666663</ele><time>2026-04-13T11:55:33.673Z</time></trkpt><trkpt lat="38.4560843" lon="-1.8088621"><ele>479.0</ele><time>2026-04-13T11:55:34.673Z</time></trkpt><trkpt lat="38.4562798" lon="-1.8088135"><ele>479.3333333333333</ele><time>2026-04-13T11:55:35.673Z</time></trkpt><trkpt lat="38.4564757" lon="-1.808765"><ele>479.66666666666663</ele><time>2026-04-13T11:55:36.673Z</time></trkpt><trkpt lat="38.4566668" lon="-1.8087154"><ele>480.0</ele><time>2026-04-13T11:55:37.673Z</time></trkpt><trkpt lat="38.4568594" lon="-1.8086675"><ele>480.0</ele><time>2026-04-13T11:55:38.673Z</time></trkpt><trkpt lat="38.4570502" lon="-1.8086199"><ele>480.0</ele><time>2026-04-13T11:55:39.674Z</time></trkpt><trkpt lat="38.4572381" lon="-1.8085729"><ele>480.0</ele><time>2026-04-13T11:55:40.673Z</time></trkpt><trkpt lat="38.457431" lon="-1.808522"><ele>475.66666666666663</ele><time>2026-04-13T11:55:41.673Z</time></trkpt><trkpt lat="38.4576247" lon="-1.8084719"><ele>471.3333333333333</ele><time>2026-04-13T11:55:42.673Z</time></trkpt><trkpt lat="38.4578214" lon="-1.808419"><ele>467.0</ele><time>2026-04-13T11:55:43.673Z</time></trkpt><trkpt lat="38.4580179" lon="-1.8083635"><ele>467.0</ele><time>2026-04-13T11:55:44.673Z</time></trkpt><trkpt lat="38.4582218" lon="-1.8083037"><ele>467.0</ele><time>2026-04-13T11:55:45.673Z</time></trkpt><trkpt lat="38.4584216" lon="-1.8082307"><ele>467.0</ele><time>2026-04-13T11:55:46.673Z</time></trkpt><trkpt lat="38.4586236" lon="-1.8081511"><ele>465.66666666666663</ele><time>2026-04-13T11:55:47.673Z</time></trkpt><trkpt lat="38.4588216" lon="-1.8080557"><ele>464.33333333333337</ele><time>2026-04-13T11:55:48.673Z</time></trkpt><trkpt lat="38.459017" lon="-1.8079407"><ele>463.0</ele><time>2026-04-13T11:55:49.673Z</time></trkpt><trkpt lat="38.4592054" lon="-1.8078164"><ele>463.0</ele><time>2026-04-13T11:55:50.673Z</time></trkpt><trkpt lat="38.4593881" lon="-1.8076826"><ele>463.0</ele><time>2026-04-13T11:55:51.673Z</time></trkpt><trkpt lat="38.4595642" lon="-1.8075334"><ele>463.0</ele><time>2026-04-13T11:55:52.673Z</time></trkpt><trkpt lat="38.4597355" lon="-1.8073736"><ele>464.33333333333337</ele><time>2026-04-13T11:55:53.673Z</time></trkpt><trkpt lat="38.4599037" lon="-1.8071916"><ele>465.66666666666663</ele><time>2026-04-13T11:55:54.673Z</time></trkpt><trkpt lat="38.460067" lon="-1.8070002"><ele>467.0</ele><time>2026-04-13T11:55:55.673Z</time></trkpt><trkpt lat="38.46022" lon="-1.8068079"><ele>467.0</ele><time>2026-04-13T11:55:56.673Z</time></trkpt><trkpt lat="38.4603689" lon="-1.8066143"><ele>467.0</ele><time>2026-04-13T11:55:57.673Z</time></trkpt><trkpt lat="38.4605141" lon="-1.8064162"><ele>467.0</ele><time>2026-04-13T11:55:58.673Z</time></trkpt><trkpt lat="38.4606559" lon="-1.8062239"><ele>464.0</ele><time>2026-04-13T11:55:59.673Z</time></trkpt><trkpt lat="38.4607968" lon="-1.8060318"><ele>461.0</ele><time>2026-04-13T11:56:00.673Z</time></trkpt><trkpt lat="38.4609359" lon="-1.8058438"><ele>458.0</ele><time>2026-04-13T11:56:01.673Z</time></trkpt><trkpt lat="38.4610721" lon="-1.8056563"><ele>458.0</ele><time>2026-04-13T11:56:02.673Z</time></trkpt><trkpt lat="38.4612117" lon="-1.8054685"><ele>458.0</ele><time>2026-04-13T11:56:03.673Z</time></trkpt><trkpt lat="38.4613576" lon="-1.805276"><ele>458.0</ele><time>2026-04-13T11:56:04.673Z</time></trkpt><trkpt lat="38.4615017" lon="-1.805079"><ele>457.3333333333333</ele><time>2026-04-13T11:56:05.673Z</time></trkpt><trkpt lat="38.4616474" lon="-1.8048753"><ele>456.66666666666663</ele><time>2026-04-13T11:56:06.673Z</time></trkpt><trkpt lat="38.4617945" lon="-1.8046731"><ele>456.0</ele><time>2026-04-13T11:56:07.673Z</time></trkpt><trkpt lat="38.4619428" lon="-1.8044639"><ele>456.33333333333337</ele><time>2026-04-13T11:56:08.674Z</time></trkpt><trkpt lat="38.4620856" lon="-1.8042628"><ele>456.6666666666667</ele><time>2026-04-13T11:56:09.673Z</time></trkpt><trkpt lat="38.462242" lon="-1.8040508"><ele>457.0</ele><time>2026-04-13T11:56:10.673Z</time></trkpt><trkpt lat="38.4623914" lon="-1.8038444"><ele>455.6666666666667</ele><time>2026-04-13T11:56:11.673Z</time></trkpt><trkpt lat="38.4625415" lon="-1.8036383"><ele>454.33333333333337</ele><time>2026-04-13T11:56:12.673Z</time></trkpt><trkpt lat="38.4626876" lon="-1.8034333"><ele>453.0</ele><time>2026-04-13T11:56:13.673Z</time></trkpt><trkpt lat="38.4628284" lon="-1.8032382"><ele>452.33333333333337</ele><time>2026-04-13T11:56:14.673Z</time></trkpt><trkpt lat="38.4629698" lon="-1.8030451"><ele>451.6666666666667</ele><time>2026-04-13T11:56:15.673Z</time></trkpt><trkpt lat="38.4631098" lon="-1.8028528"><ele>451.0</ele><time>2026-04-13T11:56:16.673Z</time></trkpt><trkpt lat="38.4632483" lon="-1.8026617"><ele>450.6666666666667</ele><time>2026-04-13T11:56:17.673Z</time></trkpt><trkpt lat="38.463386" lon="-1.8024691"><ele>450.33333333333337</ele><time>2026-04-13T11:56:18.673Z</time></trkpt><trkpt lat="38.4635249" lon="-1.8022709"><ele>450.0</ele><time>2026-04-13T11:56:19.673Z</time></trkpt><trkpt lat="38.4636551" lon="-1.8020674"><ele>450.0</ele><time>2026-04-13T11:56:20.673Z</time></trkpt><trkpt lat="38.4637734" lon="-1.8018493"><ele>450.0</ele><time>2026-04-13T11:56:21.673Z</time></trkpt><trkpt lat="38.4638763" lon="-1.8016171"><ele>450.0</ele><time>2026-04-13T11:56:22.673Z</time></trkpt><trkpt lat="38.4639605" lon="-1.8013684"><ele>449.0</ele><time>2026-04-13T11:56:23.673Z</time></trkpt><trkpt lat="38.4640207" lon="-1.8011025"><ele>448.0</ele><time>2026-04-13T11:56:24.673Z</time></trkpt><trkpt lat="38.4640636" lon="-1.8008371"><ele>447.0</ele><time>2026-04-13T11:56:25.673Z</time></trkpt><trkpt lat="38.4641057" lon="-1.8005643"><ele>447.0</ele><time>2026-04-13T11:56:26.673Z</time></trkpt><trkpt lat="38.4641401" lon="-1.8002797"><ele>447.0</ele><time>2026-04-13T11:56:27.673Z</time></trkpt><trkpt lat="38.4641727" lon="-1.7999826"><ele>447.0</ele><time>2026-04-13T11:56:28.673Z</time></trkpt><trkpt lat="38.4642085" lon="-1.7996772"><ele>447.0</ele><time>2026-04-13T11:56:29.673Z</time></trkpt><trkpt lat="38.4642485" lon="-1.799361"><ele>447.0</ele><time>2026-04-13T11:56:30.673Z</time></trkpt><trkpt lat="38.4642949" lon="-1.7990394"><ele>447.0</ele><time>2026-04-13T11:56:31.673Z</time></trkpt><trkpt lat="38.4643445" lon="-1.7987299"><ele>446.0</ele><time>2026-04-13T11:56:32.673Z</time></trkpt><trkpt lat="38.4643911" lon="-1.7983734"><ele>445.0</ele><time>2026-04-13T11:56:33.673Z</time></trkpt><trkpt lat="38.4644258" lon="-1.7980043"><ele>443.5</ele><time>2026-04-13T11:56:34.673Z</time></trkpt><trkpt lat="38.4644603" lon="-1.7976525"><ele>442.0</ele><time>2026-04-13T11:56:35.673Z</time></trkpt><trkpt lat="38.4644884" lon="-1.7972959"><ele>442.0</ele><time>2026-04-13T11:56:36.673Z</time></trkpt><trkpt lat="38.4645206" lon="-1.7969405"><ele>442.0</ele><time>2026-04-13T11:56:37.674Z</time></trkpt><trkpt lat="38.4645534" lon="-1.7965851"><ele>441.5</ele><time>2026-04-13T11:56:38.673Z</time></trkpt><trkpt lat="38.4645908" lon="-1.7962327"><ele>441.0</ele><time>2026-04-13T11:56:39.673Z</time></trkpt><trkpt lat="38.4646261" lon="-1.7958848"><ele>438.5</ele><time>2026-04-13T11:56:40.674Z</time></trkpt><trkpt lat="38.4646611" lon="-1.795543"><ele>436.0</ele><time>2026-04-13T11:56:41.673Z</time></trkpt><trkpt lat="38.4646908" lon="-1.7952052"><ele>435.0</ele><time>2026-04-13T11:56:42.673Z</time></trkpt><trkpt lat="38.4647313" lon="-1.7948842"><ele>434.0</ele><time>2026-04-13T11:56:43.673Z</time></trkpt><trkpt lat="38.4647799" lon="-1.7945747"><ele>434.0</ele><time>2026-04-13T11:56:44.673Z</time></trkpt><trkpt lat="38.4648501" lon="-1.7942721"><ele>434.0</ele><time>2026-04-13T11:56:45.673Z</time></trkpt><trkpt lat="38.4649442" lon="-1.7939846"><ele>434.0</ele><time>2026-04-13T11:56:46.673Z</time></trkpt><trkpt lat="38.4650594" lon="-1.7937048"><ele>434.0</ele><time>2026-04-13T11:56:47.673Z</time></trkpt><trkpt lat="38.4651883" lon="-1.7934302"><ele>434.5</ele><time>2026-04-13T11:56:48.673Z</time></trkpt><trkpt lat="38.4653192" lon="-1.7931624"><ele>435.0</ele><time>2026-04-13T11:56:49.673Z</time></trkpt><trkpt lat="38.4654474" lon="-1.792894"><ele>433.0</ele><time>2026-04-13T11:56:50.673Z</time></trkpt><trkpt lat="38.4655788" lon="-1.7926247"><ele>431.0</ele><time>2026-04-13T11:56:51.673Z</time></trkpt><trkpt lat="38.4657121" lon="-1.7923522"><ele>431.0</ele><time>2026-04-13T11:56:52.673Z</time></trkpt><trkpt lat="38.4658372" lon="-1.79207"><ele>431.0</ele><time>2026-04-13T11:56:53.673Z</time></trkpt><trkpt lat="38.4659475" lon="-1.7917718"><ele>431.0</ele><time>2026-04-13T11:56:54.673Z</time></trkpt><trkpt lat="38.4660467" lon="-1.7914586"><ele>431.0</ele><time>2026-04-13T11:56:55.673Z</time></trkpt><trkpt lat="38.4661326" lon="-1.7911382"><ele>430.0</ele><time>2026-04-13T11:56:56.673Z</time></trkpt><trkpt lat="38.4662168" lon="-1.7908087"><ele>429.0</ele><time>2026-04-13T11:56:57.673Z</time></trkpt><trkpt lat="38.4663028" lon="-1.7904731"><ele>429.5</ele><time>2026-04-13T11:56:58.673Z</time></trkpt><trkpt lat="38.4663941" lon="-1.7901288"><ele>430.0</ele><time>2026-04-13T11:56:59.673Z</time></trkpt><trkpt lat="38.4664911" lon="-1.7897771"><ele>430.0</ele><time>2026-04-13T11:57:00.673Z</time></trkpt><trkpt lat="38.4665866" lon="-1.7894264"><ele>430.0</ele><time>2026-04-13T11:57:01.673Z</time></trkpt><trkpt lat="38.4666744" lon="-1.7890921"><ele>430.0</ele><time>2026-04-13T11:57:02.673Z</time></trkpt><trkpt lat="38.4667575" lon="-1.7887752"><ele>430.0</ele><time>2026-04-13T11:57:03.673Z</time></trkpt><trkpt lat="38.466836" lon="-1.7884806"><ele>429.0</ele><time>2026-04-13T11:57:04.673Z</time></trkpt><trkpt lat="38.4669145" lon="-1.7881937"><ele>428.0</ele><time>2026-04-13T11:57:05.673Z</time></trkpt><trkpt lat="38.4669905" lon="-1.7879087"><ele>427.5</ele><time>2026-04-13T11:57:06.673Z</time></trkpt><trkpt lat="38.4670668" lon="-1.7876292"><ele>427.0</ele><time>2026-04-13T11:57:07.673Z</time></trkpt><trkpt lat="38.4671395" lon="-1.7873613"><ele>429.33333333333337</ele><time>2026-04-13T11:57:08.673Z</time></trkpt><trkpt lat="38.4672045" lon="-1.7871062"><ele>431.66666666666663</ele><time>2026-04-13T11:57:09.673Z</time></trkpt><trkpt lat="38.4672729" lon="-1.7868783"><ele>434.0</ele><time>2026-04-13T11:57:10.673Z</time></trkpt><trkpt lat="38.4673332" lon="-1.7866478"><ele>434.0</ele><time>2026-04-13T11:57:11.673Z</time></trkpt><trkpt lat="38.4673909" lon="-1.7864219"><ele>434.0</ele><time>2026-04-13T11:57:12.673Z</time></trkpt><trkpt lat="38.4674496" lon="-1.786205"><ele>434.0</ele><time>2026-04-13T11:57:13.673Z</time></trkpt><trkpt lat="38.467504" lon="-1.7859956"><ele>433.0</ele><time>2026-04-13T11:57:14.673Z</time></trkpt><trkpt lat="38.4675553" lon="-1.7857917"><ele>432.0</ele><time>2026-04-13T11:57:15.673Z</time></trkpt><trkpt lat="38.4676046" lon="-1.7855952"><ele>431.0</ele><time>2026-04-13T11:57:16.673Z</time></trkpt><trkpt lat="38.4676511" lon="-1.785406"><ele>431.0</ele><time>2026-04-13T11:57:17.673Z</time></trkpt><trkpt lat="38.4677036" lon="-1.7852175"><ele>431.0</ele><time>2026-04-13T11:57:18.673Z</time></trkpt><trkpt lat="38.4677519" lon="-1.7850258"><ele>431.0</ele><time>2026-04-13T11:57:19.673Z</time></trkpt><trkpt lat="38.4678063" lon="-1.7848374"><ele>430.66666666666663</ele><time>2026-04-13T11:57:20.673Z</time></trkpt><trkpt lat="38.4678607" lon="-1.7846475"><ele>430.33333333333337</ele><time>2026-04-13T11:57:21.673Z</time></trkpt><trkpt lat="38.4679229" lon="-1.7844588"><ele>430.0</ele><time>2026-04-13T11:57:22.673Z</time></trkpt><trkpt lat="38.4679885" lon="-1.7842783"><ele>431.75</ele><time>2026-04-13T11:57:23.673Z</time></trkpt><trkpt lat="38.4680599" lon="-1.7841122"><ele>433.5</ele><time>2026-04-13T11:57:24.674Z</time></trkpt><trkpt lat="38.4681348" lon="-1.7839605"><ele>435.25</ele><time>2026-04-13T11:57:25.673Z</time></trkpt><trkpt lat="38.4682068" lon="-1.7838332"><ele>437.0</ele><time>2026-04-13T11:57:26.673Z</time></trkpt><trkpt lat="38.468271" lon="-1.7837357"><ele>436.99999999999994</ele><time>2026-04-13T11:57:27.673Z</time></trkpt><trkpt lat="38.4683325" lon="-1.7836486"><ele>437.0</ele><time>2026-04-13T11:57:28.673Z</time></trkpt><trkpt lat="38.4683875" lon="-1.7835748"><ele>437.0</ele><time>2026-04-13T11:57:29.673Z</time></trkpt><trkpt lat="38.468438" lon="-1.783505"><ele>437.0</ele><time>2026-04-13T11:57:30.673Z</time></trkpt><trkpt lat="38.468489" lon="-1.7834421"><ele>436.99999999999994</ele><time>2026-04-13T11:57:31.673Z</time></trkpt><trkpt lat="38.4685374" lon="-1.7833759"><ele>437.0</ele><time>2026-04-13T11:57:32.673Z</time></trkpt><trkpt lat="38.4685877" lon="-1.7833162"><ele>437.20000000000005</ele><time>2026-04-13T11:57:33.673Z</time></trkpt><trkpt lat="38.4686427" lon="-1.7832461"><ele>437.40000000000003</ele><time>2026-04-13T11:57:34.673Z</time></trkpt><trkpt lat="38.4687101" lon="-1.7831536"><ele>437.59999999999997</ele><time>2026-04-13T11:57:35.673Z</time></trkpt><trkpt lat="38.4687875" lon="-1.7830608"><ele>437.79999999999995</ele><time>2026-04-13T11:57:36.673Z</time></trkpt><trkpt lat="38.4688693" lon="-1.7829569"><ele>438.0</ele><time>2026-04-13T11:57:37.673Z</time></trkpt><trkpt lat="38.4689559" lon="-1.7828378"><ele>438.0</ele><time>2026-04-13T11:57:38.673Z</time></trkpt><trkpt lat="38.4690479" lon="-1.7827207"><ele>438.0</ele><time>2026-04-13T11:57:39.673Z</time></trkpt><trkpt lat="38.4691435" lon="-1.7825978"><ele>438.0</ele><time>2026-04-13T11:57:40.673Z</time></trkpt><trkpt lat="38.4692495" lon="-1.7824639"><ele>438.0</ele><time>2026-04-13T11:57:41.673Z</time></trkpt><trkpt lat="38.4693592" lon="-1.7823192"><ele>436.33333333333337</ele><time>2026-04-13T11:57:42.673Z</time></trkpt><trkpt lat="38.4694792" lon="-1.7821644"><ele>434.6666666666667</ele><time>2026-04-13T11:57:43.673Z</time></trkpt><trkpt lat="38.4696062" lon="-1.7820062"><ele>433.0</ele><time>2026-04-13T11:57:44.673Z</time></trkpt><trkpt lat="38.4697395" lon="-1.7818416"><ele>431.6666666666667</ele><time>2026-04-13T11:57:45.673Z</time></trkpt><trkpt lat="38.4698767" lon="-1.781668"><ele>430.33333333333337</ele><time>2026-04-13T11:57:46.673Z</time></trkpt><trkpt lat="38.4700154" lon="-1.7814913"><ele>429.0</ele><time>2026-04-13T11:57:47.673Z</time></trkpt><trkpt lat="38.4701603" lon="-1.7813078"><ele>429.0</ele><time>2026-04-13T11:57:48.673Z</time></trkpt><trkpt lat="38.470306" lon="-1.7811266"><ele>429.0</ele><time>2026-04-13T11:57:49.673Z</time></trkpt><trkpt lat="38.4704538" lon="-1.780941"><ele>429.0</ele><time>2026-04-13T11:57:50.673Z</time></trkpt><trkpt lat="38.4706035" lon="-1.7807513"><ele>431.66666666666663</ele><time>2026-04-13T11:57:51.673Z</time></trkpt><trkpt lat="38.4707568" lon="-1.7805588"><ele>434.3333333333333</ele><time>2026-04-13T11:57:52.673Z</time></trkpt><trkpt lat="38.4709098" lon="-1.7803617"><ele>437.0</ele><time>2026-04-13T11:57:53.673Z</time></trkpt><trkpt lat="38.4710669" lon="-1.7801629"><ele>437.0</ele><time>2026-04-13T11:57:54.673Z</time></trkpt><trkpt lat="38.4712232" lon="-1.7799654"><ele>437.0</ele><time>2026-04-13T11:57:55.673Z</time></trkpt><trkpt lat="38.4713821" lon="-1.7797634"><ele>437.0</ele><time>2026-04-13T11:57:56.674Z</time></trkpt><trkpt lat="38.471544" lon="-1.7795569"><ele>438.5</ele><time>2026-04-13T11:57:57.673Z</time></trkpt><trkpt lat="38.4717043" lon="-1.779346"><ele>440.0</ele><time>2026-04-13T11:57:58.673Z</time></trkpt><trkpt lat="38.471871" lon="-1.7791312"><ele>440.0</ele><time>2026-04-13T11:57:59.673Z</time></trkpt><trkpt lat="38.4720399" lon="-1.7789183"><ele>440.0</ele><time>2026-04-13T11:58:00.673Z</time></trkpt><trkpt lat="38.4722083" lon="-1.7787024"><ele>440.0</ele><time>2026-04-13T11:58:01.673Z</time></trkpt><trkpt lat="38.4723768" lon="-1.7784911"><ele>440.0</ele><time>2026-04-13T11:58:02.673Z</time></trkpt><trkpt lat="38.4725491" lon="-1.7782823"><ele>440.0</ele><time>2026-04-13T11:58:03.673Z</time></trkpt><trkpt lat="38.4727196" lon="-1.7780783"><ele>440.0</ele><time>2026-04-13T11:58:04.673Z</time></trkpt><trkpt lat="38.472894" lon="-1.7778773"><ele>443.0</ele><time>2026-04-13T11:58:05.673Z</time></trkpt><trkpt lat="38.473069" lon="-1.7776883"><ele>446.0</ele><time>2026-04-13T11:58:06.673Z</time></trkpt><trkpt lat="38.473245" lon="-1.7775018"><ele>446.0</ele><time>2026-04-13T11:58:07.673Z</time></trkpt><trkpt lat="38.4734182" lon="-1.7773253"><ele>446.0</ele><time>2026-04-13T11:58:08.673Z</time></trkpt><trkpt lat="38.4735907" lon="-1.7771603"><ele>446.0</ele><time>2026-04-13T11:58:09.673Z</time></trkpt><trkpt lat="38.4737601" lon="-1.7770115"><ele>446.0</ele><time>2026-04-13T11:58:10.673Z</time></trkpt><trkpt lat="38.4739221" lon="-1.7768749"><ele>446.0</ele><time>2026-04-13T11:58:11.673Z</time></trkpt><trkpt lat="38.4740845" lon="-1.77675"><ele>446.0</ele><time>2026-04-13T11:58:12.673Z</time></trkpt><trkpt lat="38.4742453" lon="-1.7766294"><ele>446.0</ele><time>2026-04-13T11:58:13.673Z</time></trkpt><trkpt lat="38.4744027" lon="-1.7765188"><ele>446.0</ele><time>2026-04-13T11:58:14.673Z</time></trkpt><trkpt lat="38.4745526" lon="-1.7764162"><ele>446.0</ele><time>2026-04-13T11:58:15.673Z</time></trkpt><trkpt lat="38.4746902" lon="-1.7763297"><ele>446.25</ele><time>2026-04-13T11:58:16.673Z</time></trkpt><trkpt lat="38.4748049" lon="-1.7762544"><ele>446.5</ele><time>2026-04-13T11:58:17.673Z</time></trkpt><trkpt lat="38.4748996" lon="-1.776171"><ele>446.75</ele><time>2026-04-13T11:58:18.673Z</time></trkpt><trkpt lat="38.474972" lon="-1.7760643"><ele>447.0</ele><time>2026-04-13T11:58:19.673Z</time></trkpt><trkpt lat="38.4750349" lon="-1.7759448"><ele>447.0</ele><time>2026-04-13T11:58:20.673Z</time></trkpt><trkpt lat="38.4751155" lon="-1.7758402"><ele>447.0</ele><time>2026-04-13T11:58:21.673Z</time></trkpt><trkpt lat="38.4752177" lon="-1.7757759"><ele>447.0</ele><time>2026-04-13T11:58:22.673Z</time></trkpt><trkpt lat="38.4753305" lon="-1.7757733"><ele>447.0</ele><time>2026-04-13T11:58:23.673Z</time></trkpt><trkpt lat="38.4754468" lon="-1.7758003"><ele>447.25</ele><time>2026-04-13T11:58:24.673Z</time></trkpt><trkpt lat="38.4755706" lon="-1.7758183"><ele>447.5</ele><time>2026-04-13T11:58:25.673Z</time></trkpt><trkpt lat="38.475699" lon="-1.7757967"><ele>447.75</ele><time>2026-04-13T11:58:26.673Z</time></trkpt><trkpt lat="38.4758347" lon="-1.7757538"><ele>448.0</ele><time>2026-04-13T11:58:27.673Z</time></trkpt><trkpt lat="38.4759765" lon="-1.7757053"><ele>448.0</ele><time>2026-04-13T11:58:28.673Z</time></trkpt><trkpt lat="38.4761234" lon="-1.7756572"><ele>448.0</ele><time>2026-04-13T11:58:29.673Z</time></trkpt><trkpt lat="38.4762738" lon="-1.7756103"><ele>448.0</ele><time>2026-04-13T11:58:30.673Z</time></trkpt><trkpt lat="38.4764334" lon="-1.7755671"><ele>448.6666666666667</ele><time>2026-04-13T11:58:31.673Z</time></trkpt><trkpt lat="38.4765997" lon="-1.775522"><ele>449.33333333333337</ele><time>2026-04-13T11:58:32.673Z</time></trkpt><trkpt lat="38.4767748" lon="-1.7754816"><ele>450.0</ele><time>2026-04-13T11:58:33.673Z</time></trkpt><trkpt lat="38.4769524" lon="-1.7754484"><ele>450.33333333333337</ele><time>2026-04-13T11:58:34.673Z</time></trkpt><trkpt lat="38.4771405" lon="-1.7754188"><ele>450.6666666666667</ele><time>2026-04-13T11:58:35.673Z</time></trkpt><trkpt lat="38.4773324" lon="-1.7753901"><ele>451.0</ele><time>2026-04-13T11:58:36.673Z</time></trkpt><trkpt lat="38.4775302" lon="-1.7753753"><ele>451.0</ele><time>2026-04-13T11:58:37.673Z</time></trkpt><trkpt lat="38.4777338" lon="-1.7753596"><ele>451.0</ele><time>2026-04-13T11:58:38.673Z</time></trkpt><trkpt lat="38.4779421" lon="-1.7753463"><ele>451.0</ele><time>2026-04-13T11:58:39.673Z</time></trkpt><trkpt lat="38.4781491" lon="-1.775335"><ele>450.6666666666667</ele><time>2026-04-13T11:58:40.673Z</time></trkpt><trkpt lat="38.4783525" lon="-1.7753297"><ele>450.33333333333337</ele><time>2026-04-13T11:58:41.673Z</time></trkpt><trkpt lat="38.4785566" lon="-1.7753314"><ele>450.0</ele><time>2026-04-13T11:58:42.673Z</time></trkpt><trkpt lat="38.4787632" lon="-1.7753278"><ele>451.0</ele><time>2026-04-13T11:58:43.673Z</time></trkpt><trkpt lat="38.4789711" lon="-1.7753218"><ele>452.0</ele><time>2026-04-13T11:58:44.673Z</time></trkpt><trkpt lat="38.4791816" lon="-1.7753163"><ele>453.0</ele><time>2026-04-13T11:58:45.673Z</time></trkpt><trkpt lat="38.4793939" lon="-1.7753124"><ele>454.0</ele><time>2026-04-13T11:58:46.673Z</time></trkpt><trkpt lat="38.4796071" lon="-1.7753086"><ele>455.0</ele><time>2026-04-13T11:58:47.673Z</time></trkpt><trkpt lat="38.4798253" lon="-1.7753079"><ele>456.0</ele><time>2026-04-13T11:58:48.673Z</time></trkpt><trkpt lat="38.4800432" lon="-1.7753067"><ele>456.0</ele><time>2026-04-13T11:58:49.673Z</time></trkpt><trkpt lat="38.4802626" lon="-1.775304"><ele>456.0</ele><time>2026-04-13T11:58:50.673Z</time></trkpt><trkpt lat="38.4804785" lon="-1.7753018"><ele>456.0</ele><time>2026-04-13T11:58:51.673Z</time></trkpt><trkpt lat="38.4806907" lon="-1.7752954"><ele>456.66666666666663</ele><time>2026-04-13T11:58:52.673Z</time></trkpt><trkpt lat="38.4809049" lon="-1.7752915"><ele>457.3333333333333</ele><time>2026-04-13T11:58:53.673Z</time></trkpt><trkpt lat="38.481117" lon="-1.7752874"><ele>458.0</ele><time>2026-04-13T11:58:54.673Z</time></trkpt><trkpt lat="38.4813316" lon="-1.7752884"><ele>460.3333333333333</ele><time>2026-04-13T11:58:55.673Z</time></trkpt><trkpt lat="38.4815448" lon="-1.7752887"><ele>462.66666666666663</ele><time>2026-04-13T11:58:56.673Z</time></trkpt><trkpt lat="38.481756" lon="-1.7752874"><ele>465.0</ele><time>2026-04-13T11:58:57.673Z</time></trkpt><trkpt lat="38.4819684" lon="-1.7752853"><ele>467.33333333333337</ele><time>2026-04-13T11:58:58.673Z</time></trkpt><trkpt lat="38.4821824" lon="-1.775284"><ele>469.6666666666667</ele><time>2026-04-13T11:58:59.673Z</time></trkpt><trkpt lat="38.4823971" lon="-1.775282"><ele>472.0</ele><time>2026-04-13T11:59:00.673Z</time></trkpt><trkpt lat="38.482618" lon="-1.7752793"><ele>472.0</ele><time>2026-04-13T11:59:01.673Z</time></trkpt><trkpt lat="38.4828384" lon="-1.775278"><ele>472.0</ele><time>2026-04-13T11:59:02.673Z</time></trkpt><trkpt lat="38.4830575" lon="-1.7752754"><ele>472.0</ele><time>2026-04-13T11:59:03.673Z</time></trkpt><trkpt lat="38.4832765" lon="-1.7752742"><ele>472.6666666666667</ele><time>2026-04-13T11:59:04.673Z</time></trkpt><trkpt lat="38.4834985" lon="-1.7752719"><ele>473.33333333333337</ele><time>2026-04-13T11:59:05.673Z</time></trkpt><trkpt lat="38.4837179" lon="-1.7752661"><ele>474.0</ele><time>2026-04-13T11:59:06.673Z</time></trkpt><trkpt lat="38.4839372" lon="-1.7752577"><ele>474.0</ele><time>2026-04-13T11:59:07.673Z</time></trkpt><trkpt lat="38.4841594" lon="-1.7752541"><ele>474.0</ele><time>2026-04-13T11:59:08.673Z</time></trkpt><trkpt lat="38.4843812" lon="-1.7752501"><ele>474.0</ele><time>2026-04-13T11:59:09.673Z</time></trkpt><trkpt lat="38.4846015" lon="-1.7752496"><ele>474.0</ele><time>2026-04-13T11:59:10.673Z</time></trkpt><trkpt lat="38.4848217" lon="-1.7752479"><ele>474.0</ele><time>2026-04-13T11:59:11.673Z</time></trkpt><trkpt lat="38.4850394" lon="-1.7752504"><ele>474.0</ele><time>2026-04-13T11:59:12.673Z</time></trkpt><trkpt lat="38.4852606" lon="-1.7752466"><ele>474.66666666666663</ele><time>2026-04-13T11:59:13.673Z</time></trkpt><trkpt lat="38.4854808" lon="-1.7752416"><ele>475.3333333333333</ele><time>2026-04-13T11:59:14.673Z</time></trkpt><trkpt lat="38.4856981" lon="-1.7752377"><ele>476.0</ele><time>2026-04-13T11:59:15.673Z</time></trkpt><trkpt lat="38.4859189" lon="-1.7752379"><ele>476.0</ele><time>2026-04-13T11:59:16.673Z</time></trkpt><trkpt lat="38.4861443" lon="-1.7752376"><ele>476.0</ele><time>2026-04-13T11:59:17.673Z</time></trkpt><trkpt lat="38.4863705" lon="-1.7752358"><ele>476.66666666666663</ele><time>2026-04-13T11:59:18.673Z</time></trkpt><trkpt lat="38.4865915" lon="-1.7752344"><ele>477.33333333333337</ele><time>2026-04-13T11:59:19.673Z</time></trkpt><trkpt lat="38.4868168" lon="-1.7752292"><ele>478.0</ele><time>2026-04-13T11:59:20.673Z</time></trkpt><trkpt lat="38.4870431" lon="-1.7752235"><ele>479.0</ele><time>2026-04-13T11:59:21.673Z</time></trkpt><trkpt lat="38.4872708" lon="-1.7752193"><ele>480.0</ele><time>2026-04-13T11:59:22.673Z</time></trkpt><trkpt lat="38.487499" lon="-1.7752138"><ele>480.0</ele><time>2026-04-13T11:59:23.673Z</time></trkpt><trkpt lat="38.487728" lon="-1.7752112"><ele>480.0</ele><time>2026-04-13T11:59:24.673Z</time></trkpt><trkpt lat="38.4879582" lon="-1.7752087"><ele>481.5</ele><time>2026-04-13T11:59:25.673Z</time></trkpt><trkpt lat="38.4881905" lon="-1.7752102"><ele>483.0</ele><time>2026-04-13T11:59:26.673Z</time></trkpt><trkpt lat="38.4884231" lon="-1.7752061"><ele>483.0</ele><time>2026-04-13T11:59:27.673Z</time></trkpt><trkpt lat="38.4886592" lon="-1.7751945"><ele>483.0</ele><time>2026-04-13T11:59:28.673Z</time></trkpt><trkpt lat="38.4888943" lon="-1.7751753"><ele>486.5</ele><time>2026-04-13T11:59:29.673Z</time></trkpt><trkpt lat="38.4891349" lon="-1.7751456"><ele>490.0</ele><time>2026-04-13T11:59:30.673Z</time></trkpt><trkpt lat="38.4893743" lon="-1.7751131"><ele>490.0</ele><time>2026-04-13T11:59:31.673Z</time></trkpt><trkpt lat="38.4896082" lon="-1.7750766"><ele>490.0</ele><time>2026-04-13T11:59:32.673Z</time></trkpt><trkpt lat="38.4898443" lon="-1.7750319"><ele>490.0</ele><time>2026-04-13T11:59:33.673Z</time></trkpt><trkpt lat="38.4900782" lon="-1.7749789"><ele>490.0</ele><time>2026-04-13T11:59:34.673Z</time></trkpt><trkpt lat="38.4903123" lon="-1.7749173"><ele>491.5</ele><time>2026-04-13T11:59:35.673Z</time></trkpt><trkpt lat="38.490546" lon="-1.7748493"><ele>493.0</ele><time>2026-04-13T11:59:36.673Z</time></trkpt><trkpt lat="38.4907779" lon="-1.7747701"><ele>493.0</ele><time>2026-04-13T11:59:37.673Z</time></trkpt><trkpt lat="38.4910132" lon="-1.7746967"><ele>493.0</ele><time>2026-04-13T11:59:38.673Z</time></trkpt><trkpt lat="38.4912432" lon="-1.774617"><ele>494.5</ele><time>2026-04-13T11:59:39.674Z</time></trkpt><trkpt lat="38.4914724" lon="-1.7745378"><ele>496.0</ele><time>2026-04-13T11:59:40.673Z</time></trkpt><trkpt lat="38.4917042" lon="-1.7744589"><ele>496.0</ele><time>2026-04-13T11:59:41.673Z</time></trkpt><trkpt lat="38.4919321" lon="-1.7743781"><ele>496.0</ele><time>2026-04-13T11:59:42.673Z</time></trkpt><trkpt lat="38.4921612" lon="-1.7742964"><ele>499.0</ele><time>2026-04-13T11:59:43.673Z</time></trkpt><trkpt lat="38.4923942" lon="-1.774218"><ele>502.0</ele><time>2026-04-13T11:59:44.673Z</time></trkpt><trkpt lat="38.4926231" lon="-1.7741401"><ele>502.0</ele><time>2026-04-13T11:59:45.673Z</time></trkpt><trkpt lat="38.4928522" lon="-1.774067"><ele>502.0</ele><time>2026-04-13T11:59:46.673Z</time></trkpt><trkpt lat="38.4930808" lon="-1.7739912"><ele>503.5</ele><time>2026-04-13T11:59:47.673Z</time></trkpt><trkpt lat="38.4933055" lon="-1.7739144"><ele>505.0</ele><time>2026-04-13T11:59:48.673Z</time></trkpt><trkpt lat="38.4935317" lon="-1.7738367"><ele>505.0</ele><time>2026-04-13T11:59:49.673Z</time></trkpt><trkpt lat="38.4937542" lon="-1.7737603"><ele>505.0</ele><time>2026-04-13T11:59:50.673Z</time></trkpt><trkpt lat="38.4939769" lon="-1.7736822"><ele>506.0</ele><time>2026-04-13T11:59:51.673Z</time></trkpt><trkpt lat="38.4941968" lon="-1.7736068"><ele>507.0</ele><time>2026-04-13T11:59:52.673Z</time></trkpt><trkpt lat="38.4944204" lon="-1.7735313"><ele>508.0</ele><time>2026-04-13T11:59:53.674Z</time></trkpt><trkpt lat="38.4946396" lon="-1.7734546"><ele>509.0</ele><time>2026-04-13T11:59:54.673Z</time></trkpt><trkpt lat="38.4948654" lon="-1.7733773"><ele>509.0</ele><time>2026-04-13T11:59:55.673Z</time></trkpt><trkpt lat="38.4950901" lon="-1.7732998"><ele>509.0</ele><time>2026-04-13T11:59:56.673Z</time></trkpt><trkpt lat="38.4953168" lon="-1.7732216"><ele>510.0</ele><time>2026-04-13T11:59:57.674Z</time></trkpt><trkpt lat="38.4955463" lon="-1.7731402"><ele>511.0</ele><time>2026-04-13T11:59:58.673Z</time></trkpt><trkpt lat="38.4957747" lon="-1.7730613"><ele>511.0</ele><time>2026-04-13T11:59:59.673Z</time></trkpt><trkpt lat="38.4960007" lon="-1.7729833"><ele>511.0</ele><time>2026-04-13T12:00:00.673Z</time></trkpt><trkpt lat="38.4962315" lon="-1.7729032"><ele>513.0</ele><time>2026-04-13T12:00:01.673Z</time></trkpt><trkpt lat="38.4964589" lon="-1.7728228"><ele>515.0</ele><time>2026-04-13T12:00:02.674Z</time></trkpt><trkpt lat="38.4966818" lon="-1.7727438"><ele>515.0</ele><time>2026-04-13T12:00:03.673Z</time></trkpt><trkpt lat="38.4969066" lon="-1.7726674"><ele>515.0</ele><time>2026-04-13T12:00:04.673Z</time></trkpt><trkpt lat="38.4971316" lon="-1.7725906"><ele>516.5</ele><time>2026-04-13T12:00:05.673Z</time></trkpt><trkpt lat="38.4973561" lon="-1.7725127"><ele>518.0</ele><time>2026-04-13T12:00:06.673Z</time></trkpt><trkpt lat="38.4975743" lon="-1.7724354"><ele>518.0</ele><time>2026-04-13T12:00:07.673Z</time></trkpt><trkpt lat="38.4977928" lon="-1.7723635"><ele>518.0</ele><time>2026-04-13T12:00:08.673Z</time></trkpt><trkpt lat="38.4980105" lon="-1.7722881"><ele>519.6666666666666</ele><time>2026-04-13T12:00:09.673Z</time></trkpt><trkpt lat="38.4982279" lon="-1.7722156"><ele>521.3333333333334</ele><time>2026-04-13T12:00:10.673Z</time></trkpt><trkpt lat="38.498442" lon="-1.7721377"><ele>523.0</ele><time>2026-04-13T12:00:11.673Z</time></trkpt><trkpt lat="38.498658" lon="-1.7720623"><ele>524.3333333333334</ele><time>2026-04-13T12:00:12.673Z</time></trkpt><trkpt lat="38.4988708" lon="-1.7719814"><ele>525.6666666666666</ele><time>2026-04-13T12:00:13.673Z</time></trkpt><trkpt lat="38.4990787" lon="-1.7718972"><ele>527.0</ele><time>2026-04-13T12:00:14.673Z</time></trkpt><trkpt lat="38.4992858" lon="-1.7718108"><ele>527.0</ele><time>2026-04-13T12:00:15.673Z</time></trkpt><trkpt lat="38.4994929" lon="-1.7717188"><ele>527.0</ele><time>2026-04-13T12:00:16.673Z</time></trkpt><trkpt lat="38.499702" lon="-1.7716213"><ele>527.0</ele><time>2026-04-13T12:00:17.673Z</time></trkpt><trkpt lat="38.4999126" lon="-1.7715251"><ele>528.0</ele><time>2026-04-13T12:00:18.673Z</time></trkpt><trkpt lat="38.5001262" lon="-1.7714229"><ele>529.0</ele><time>2026-04-13T12:00:19.673Z</time></trkpt><trkpt lat="38.5003383" lon="-1.7713092"><ele>529.0</ele><time>2026-04-13T12:00:20.673Z</time></trkpt><trkpt lat="38.5005527" lon="-1.7711866"><ele>529.0</ele><time>2026-04-13T12:00:21.673Z</time></trkpt><trkpt lat="38.5007663" lon="-1.7710555"><ele>528.5</ele><time>2026-04-13T12:00:22.673Z</time></trkpt><trkpt lat="38.5009784" lon="-1.7709184"><ele>528.0</ele><time>2026-04-13T12:00:23.673Z</time></trkpt><trkpt lat="38.5011923" lon="-1.7707773"><ele>529.0</ele><time>2026-04-13T12:00:24.673Z</time></trkpt><trkpt lat="38.5014011" lon="-1.7706226"><ele>530.0</ele><time>2026-04-13T12:00:25.673Z</time></trkpt><trkpt lat="38.5016075" lon="-1.7704572"><ele>530.0</ele><time>2026-04-13T12:00:26.673Z</time></trkpt><trkpt lat="38.5018136" lon="-1.7702862"><ele>530.0</ele><time>2026-04-13T12:00:27.673Z</time></trkpt><trkpt lat="38.502015" lon="-1.7701075"><ele>528.0</ele><time>2026-04-13T12:00:28.673Z</time></trkpt><trkpt lat="38.5022132" lon="-1.7699234"><ele>526.0</ele><time>2026-04-13T12:00:29.673Z</time></trkpt><trkpt lat="38.5024065" lon="-1.7697322"><ele>526.0</ele><time>2026-04-13T12:00:30.673Z</time></trkpt><trkpt lat="38.5025968" lon="-1.7695285"><ele>526.0</ele><time>2026-04-13T12:00:31.673Z</time></trkpt><trkpt lat="38.5027832" lon="-1.7693196"><ele>526.5</ele><time>2026-04-13T12:00:32.673Z</time></trkpt><trkpt lat="38.5029639" lon="-1.7691023"><ele>527.0</ele><time>2026-04-13T12:00:33.673Z</time></trkpt><trkpt lat="38.5031391" lon="-1.7688792"><ele>527.0</ele><time>2026-04-13T12:00:34.673Z</time></trkpt><trkpt lat="38.5033129" lon="-1.7686527"><ele>527.0</ele><time>2026-04-13T12:00:35.673Z</time></trkpt><trkpt lat="38.5034822" lon="-1.7684148"><ele>526.5</ele><time>2026-04-13T12:00:36.673Z</time></trkpt><trkpt lat="38.5036426" lon="-1.7681761"><ele>526.0</ele><time>2026-04-13T12:00:37.673Z</time></trkpt><trkpt lat="38.5038033" lon="-1.7679188"><ele>526.0</ele><time>2026-04-13T12:00:38.673Z</time></trkpt><trkpt lat="38.5039612" lon="-1.7676593"><ele>526.0</ele><time>2026-04-13T12:00:39.673Z</time></trkpt><trkpt lat="38.5041119" lon="-1.7673905"><ele>526.0</ele><time>2026-04-13T12:00:40.673Z</time></trkpt><trkpt lat="38.5042637" lon="-1.7671128"><ele>526.0</ele><time>2026-04-13T12:00:41.673Z</time></trkpt><trkpt lat="38.5044075" lon="-1.766825"><ele>526.0</ele><time>2026-04-13T12:00:42.673Z</time></trkpt><trkpt lat="38.5045537" lon="-1.7665362"><ele>526.0</ele><time>2026-04-13T12:00:43.673Z</time></trkpt><trkpt lat="38.5046949" lon="-1.76624"><ele>525.5</ele><time>2026-04-13T12:00:44.673Z</time></trkpt><trkpt lat="38.5048303" lon="-1.7659378"><ele>525.0</ele><time>2026-04-13T12:00:45.673Z</time></trkpt><trkpt lat="38.5049653" lon="-1.765636"><ele>525.0</ele><time>2026-04-13T12:00:46.673Z</time></trkpt><trkpt lat="38.5050958" lon="-1.7653285"><ele>525.0</ele><time>2026-04-13T12:00:47.673Z</time></trkpt><trkpt lat="38.5052261" lon="-1.765019"><ele>524.5</ele><time>2026-04-13T12:00:48.673Z</time></trkpt><trkpt lat="38.5053514" lon="-1.7647221"><ele>524.0</ele><time>2026-04-13T12:00:49.673Z</time></trkpt><trkpt lat="38.5054779" lon="-1.764399"><ele>525.0</ele><time>2026-04-13T12:00:50.673Z</time></trkpt><trkpt lat="38.5056029" lon="-1.7640836"><ele>526.0</ele><time>2026-04-13T12:00:51.673Z</time></trkpt><trkpt lat="38.5057358" lon="-1.7637685"><ele>527.0</ele><time>2026-04-13T12:00:52.673Z</time></trkpt><trkpt lat="38.5058647" lon="-1.7634507"><ele>528.0</ele><time>2026-04-13T12:00:53.673Z</time></trkpt><trkpt lat="38.5059916" lon="-1.7631307"><ele>528.0</ele><time>2026-04-13T12:00:54.674Z</time></trkpt><trkpt lat="38.506118" lon="-1.7628132"><ele>528.0</ele><time>2026-04-13T12:00:55.673Z</time></trkpt><trkpt lat="38.5062419" lon="-1.7624925"><ele>530.0</ele><time>2026-04-13T12:00:56.673Z</time></trkpt><trkpt lat="38.5063668" lon="-1.762174"><ele>532.0</ele><time>2026-04-13T12:00:57.673Z</time></trkpt><trkpt lat="38.5064941" lon="-1.7618586"><ele>532.0</ele><time>2026-04-13T12:00:58.673Z</time></trkpt><trkpt lat="38.5066193" lon="-1.7615434"><ele>532.0</ele><time>2026-04-13T12:00:59.673Z</time></trkpt><trkpt lat="38.5067418" lon="-1.761224"><ele>531.0</ele><time>2026-04-13T12:01:00.673Z</time></trkpt><trkpt lat="38.5068677" lon="-1.7609077"><ele>530.0</ele><time>2026-04-13T12:01:01.673Z</time></trkpt><trkpt lat="38.5069931" lon="-1.7605958"><ele>532.5</ele><time>2026-04-13T12:01:02.673Z</time></trkpt><trkpt lat="38.5071175" lon="-1.7602826"><ele>535.0</ele><time>2026-04-13T12:01:03.673Z</time></trkpt><trkpt lat="38.5072452" lon="-1.7599688"><ele>535.0</ele><time>2026-04-13T12:01:04.673Z</time></trkpt><trkpt lat="38.5073741" lon="-1.7596577"><ele>535.0</ele><time>2026-04-13T12:01:05.673Z</time></trkpt><trkpt lat="38.5074991" lon="-1.7593442"><ele>534.5</ele><time>2026-04-13T12:01:06.673Z</time></trkpt><trkpt lat="38.5076183" lon="-1.7590322"><ele>534.0</ele><time>2026-04-13T12:01:07.673Z</time></trkpt><trkpt lat="38.5077414" lon="-1.7587237"><ele>534.5</ele><time>2026-04-13T12:01:08.674Z</time></trkpt><trkpt lat="38.5078643" lon="-1.7584177"><ele>535.0</ele><time>2026-04-13T12:01:09.673Z</time></trkpt><trkpt lat="38.5079852" lon="-1.7581112"><ele>536.5</ele><time>2026-04-13T12:01:10.673Z</time></trkpt><trkpt lat="38.508103" lon="-1.7577998"><ele>538.0</ele><time>2026-04-13T12:01:11.674Z</time></trkpt><trkpt lat="38.5082165" lon="-1.7574879"><ele>538.0</ele><time>2026-04-13T12:01:12.673Z</time></trkpt><trkpt lat="38.5083273" lon="-1.7571757"><ele>538.0</ele><time>2026-04-13T12:01:13.673Z</time></trkpt><trkpt lat="38.50843" lon="-1.7568583"><ele>537.5</ele><time>2026-04-13T12:01:14.673Z</time></trkpt><trkpt lat="38.5085318" lon="-1.756542"><ele>537.0</ele><time>2026-04-13T12:01:15.673Z</time></trkpt><trkpt lat="38.5086336" lon="-1.756225"><ele>536.0</ele><time>2026-04-13T12:01:16.673Z</time></trkpt><trkpt lat="38.5087301" lon="-1.7559087"><ele>535.0</ele><time>2026-04-13T12:01:17.673Z</time></trkpt><trkpt lat="38.5088236" lon="-1.7555894"><ele>537.0</ele><time>2026-04-13T12:01:18.673Z</time></trkpt><trkpt lat="38.5089118" lon="-1.7552756"><ele>539.0</ele><time>2026-04-13T12:01:19.673Z</time></trkpt><trkpt lat="38.5089945" lon="-1.7549573"><ele>539.0</ele><time>2026-04-13T12:01:20.673Z</time></trkpt><trkpt lat="38.5090742" lon="-1.7546383"><ele>539.0</ele><time>2026-04-13T12:01:21.673Z</time></trkpt><trkpt lat="38.5091496" lon="-1.7543269"><ele>538.0</ele><time>2026-04-13T12:01:22.673Z</time></trkpt><trkpt lat="38.5092176" lon="-1.754031"><ele>537.0</ele><time>2026-04-13T12:01:23.673Z</time></trkpt><trkpt lat="38.5092814" lon="-1.7537372"><ele>535.5</ele><time>2026-04-13T12:01:24.673Z</time></trkpt><trkpt lat="38.509338" lon="-1.7534529"><ele>534.0</ele><time>2026-04-13T12:01:25.673Z</time></trkpt><trkpt lat="38.5093909" lon="-1.7531761"><ele>534.0</ele><time>2026-04-13T12:01:26.673Z</time></trkpt><trkpt lat="38.5094365" lon="-1.7529186"><ele>534.0</ele><time>2026-04-13T12:01:27.674Z</time></trkpt><trkpt lat="38.5094803" lon="-1.7526787"><ele>534.0</ele><time>2026-04-13T12:01:28.673Z</time></trkpt><trkpt lat="38.5095211" lon="-1.7524484"><ele>533.3333333333334</ele><time>2026-04-13T12:01:29.673Z</time></trkpt><trkpt lat="38.5095615" lon="-1.7522287"><ele>532.6666666666667</ele><time>2026-04-13T12:01:30.673Z</time></trkpt><trkpt lat="38.509593" lon="-1.7520347"><ele>532.0</ele><time>2026-04-13T12:01:31.673Z</time></trkpt><trkpt lat="38.5096245" lon="-1.7518579"><ele>531.6</ele><time>2026-04-13T12:01:32.673Z</time></trkpt><trkpt lat="38.5096488" lon="-1.7517072"><ele>531.2</ele><time>2026-04-13T12:01:33.673Z</time></trkpt><trkpt lat="38.5096522" lon="-1.7515709"><ele>530.8</ele><time>2026-04-13T12:01:34.673Z</time></trkpt><trkpt lat="38.5096304" lon="-1.7514353"><ele>530.4</ele><time>2026-04-13T12:01:35.673Z</time></trkpt><trkpt lat="38.5095832" lon="-1.7513054"><ele>530.0</ele><time>2026-04-13T12:01:36.673Z</time></trkpt><trkpt lat="38.5095186" lon="-1.7511769"><ele>530.0</ele><time>2026-04-13T12:01:37.673Z</time></trkpt><trkpt lat="38.5094311" lon="-1.7510665"><ele>530.0</ele><time>2026-04-13T12:01:38.673Z</time></trkpt><trkpt lat="38.5093213" lon="-1.7509842"><ele>530.0</ele><time>2026-04-13T12:01:39.674Z</time></trkpt><trkpt lat="38.5091962" lon="-1.7509294"><ele>530.0</ele><time>2026-04-13T12:01:40.673Z</time></trkpt><trkpt lat="38.5090609" lon="-1.750875"><ele>529.0</ele><time>2026-04-13T12:01:41.673Z</time></trkpt><trkpt lat="38.5089172" lon="-1.7508237"><ele>528.0</ele><time>2026-04-13T12:01:42.673Z</time></trkpt><trkpt lat="38.5087718" lon="-1.7507679"><ele>527.0</ele><time>2026-04-13T12:01:43.673Z</time></trkpt><trkpt lat="38.5086242" lon="-1.7507131"><ele>526.3333333333333</ele><time>2026-04-13T12:01:44.673Z</time></trkpt><trkpt lat="38.5084755" lon="-1.750659"><ele>525.6666666666666</ele><time>2026-04-13T12:01:45.673Z</time></trkpt><trkpt lat="38.5083262" lon="-1.7506016"><ele>525.0</ele><time>2026-04-13T12:01:46.673Z</time></trkpt><trkpt lat="38.5081741" lon="-1.7505436"><ele>525.0</ele><time>2026-04-13T12:01:47.673Z</time></trkpt><trkpt lat="38.5080186" lon="-1.7504892"><ele>525.0</ele><time>2026-04-13T12:01:48.673Z</time></trkpt><trkpt lat="38.5078709" lon="-1.7504377"><ele>525.0</ele><time>2026-04-13T12:01:49.673Z</time></trkpt><trkpt lat="38.5077351" lon="-1.7503925"><ele>525.25</ele><time>2026-04-13T12:01:50.673Z</time></trkpt><trkpt lat="38.5076145" lon="-1.7503463"><ele>525.5</ele><time>2026-04-13T12:01:51.673Z</time></trkpt><trkpt lat="38.5074952" lon="-1.7503033"><ele>525.75</ele><time>2026-04-13T12:01:52.673Z</time></trkpt><trkpt lat="38.5073704" lon="-1.7502589"><ele>526.0</ele><time>2026-04-13T12:01:53.673Z</time></trkpt><trkpt lat="38.5072357" lon="-1.7502174"><ele>525.5</ele><time>2026-04-13T12:01:54.674Z</time></trkpt><trkpt lat="38.5070976" lon="-1.7501741"><ele>525.0</ele><time>2026-04-13T12:01:55.673Z</time></trkpt><trkpt lat="38.5069544" lon="-1.7501281"><ele>524.5</ele><time>2026-04-13T12:01:56.673Z</time></trkpt><trkpt lat="38.5068114" lon="-1.7500845"><ele>524.0</ele><time>2026-04-13T12:01:57.673Z</time></trkpt><trkpt lat="38.506671" lon="-1.7500392"><ele>523.75</ele><time>2026-04-13T12:01:58.673Z</time></trkpt><trkpt lat="38.5065303" lon="-1.7499935"><ele>523.5</ele><time>2026-04-13T12:01:59.673Z</time></trkpt><trkpt lat="38.5064018" lon="-1.7499536"><ele>523.25</ele><time>2026-04-13T12:02:00.673Z</time></trkpt><trkpt lat="38.5062913" lon="-1.74993"><ele>523.0</ele><time>2026-04-13T12:02:01.673Z</time></trkpt><trkpt lat="38.5061791" lon="-1.7499095"><ele>522.8</ele><time>2026-04-13T12:02:02.673Z</time></trkpt><trkpt lat="38.5061177" lon="-1.7499931"><ele>522.5999999999999</ele><time>2026-04-13T12:02:03.673Z</time></trkpt><trkpt lat="38.5060659" lon="-1.7500836"><ele>522.4000000000001</ele><time>2026-04-13T12:02:04.673Z</time></trkpt><trkpt lat="38.5060243" lon="-1.7501932"><ele>522.2</ele><time>2026-04-13T12:02:05.673Z</time></trkpt><trkpt lat="38.5059779" lon="-1.7503126"><ele>522.0</ele><time>2026-04-13T12:02:06.673Z</time></trkpt><trkpt lat="38.505925" lon="-1.750436"><ele>522.0</ele><time>2026-04-13T12:02:07.673Z</time></trkpt><trkpt lat="38.5058547" lon="-1.7505543"><ele>522.0</ele><time>2026-04-13T12:02:08.673Z</time></trkpt><trkpt lat="38.505767" lon="-1.7506693"><ele>522.0</ele><time>2026-04-13T12:02:09.673Z</time></trkpt><trkpt lat="38.505673" lon="-1.7507673"><ele>522.0</ele><time>2026-04-13T12:02:10.674Z</time></trkpt><trkpt lat="38.5055631" lon="-1.7508491"><ele>522.0</ele><time>2026-04-13T12:02:11.673Z</time></trkpt><trkpt lat="38.5054372" lon="-1.7509008"><ele>522.0</ele><time>2026-04-13T12:02:12.673Z</time></trkpt><trkpt lat="38.5053041" lon="-1.750921"><ele>522.0</ele><time>2026-04-13T12:02:13.673Z</time></trkpt><trkpt lat="38.5051674" lon="-1.7509396"><ele>522.0</ele><time>2026-04-13T12:02:14.673Z</time></trkpt><trkpt lat="38.5050339" lon="-1.7509596"><ele>521.5</ele><time>2026-04-13T12:02:15.673Z</time></trkpt><trkpt lat="38.5049011" lon="-1.7509813"><ele>521.0</ele><time>2026-04-13T12:02:16.673Z</time></trkpt><trkpt lat="38.5047637" lon="-1.750991"><ele>520.5</ele><time>2026-04-13T12:02:17.673Z</time></trkpt><trkpt lat="38.5046264" lon="-1.7509747"><ele>520.0</ele><time>2026-04-13T12:02:18.673Z</time></trkpt><trkpt lat="38.5044904" lon="-1.7509647"><ele>519.75</ele><time>2026-04-13T12:02:19.673Z</time></trkpt><trkpt lat="38.5043482" lon="-1.7509714"><ele>519.5</ele><time>2026-04-13T12:02:20.673Z</time></trkpt><trkpt lat="38.5042085" lon="-1.7509839"><ele>519.25</ele><time>2026-04-13T12:02:21.673Z</time></trkpt><trkpt lat="38.5040657" lon="-1.7509956"><ele>519.0</ele><time>2026-04-13T12:02:22.673Z</time></trkpt><trkpt lat="38.5039276" lon="-1.7510435"><ele>519.0</ele><time>2026-04-13T12:02:23.673Z</time></trkpt><trkpt lat="38.5037894" lon="-1.7510922"><ele>519.0</ele><time>2026-04-13T12:02:24.673Z</time></trkpt><trkpt lat="38.5036542" lon="-1.7511706"><ele>519.0</ele><time>2026-04-13T12:02:25.673Z</time></trkpt><trkpt lat="38.5035317" lon="-1.7512763"><ele>519.0</ele><time>2026-04-13T12:02:26.673Z</time></trkpt><trkpt lat="38.5034109" lon="-1.7513944"><ele>518.0</ele><time>2026-04-13T12:02:27.673Z</time></trkpt><trkpt lat="38.5032921" lon="-1.7515207"><ele>517.0</ele><time>2026-04-13T12:02:28.673Z</time></trkpt><trkpt lat="38.5031718" lon="-1.7516466"><ele>516.0</ele><time>2026-04-13T12:02:29.673Z</time></trkpt><trkpt lat="38.5030523" lon="-1.7517715"><ele>515.6666666666666</ele><time>2026-04-13T12:02:30.673Z</time></trkpt><trkpt lat="38.5029342" lon="-1.7518985"><ele>515.3333333333333</ele><time>2026-04-13T12:02:31.673Z</time></trkpt><trkpt lat="38.5028177" lon="-1.7520219"><ele>515.0</ele><time>2026-04-13T12:02:32.673Z</time></trkpt><trkpt lat="38.5027041" lon="-1.7521419"><ele>515.0</ele><time>2026-04-13T12:02:33.673Z</time></trkpt><trkpt lat="38.5025892" lon="-1.7522625"><ele>515.0</ele><time>2026-04-13T12:02:34.674Z</time></trkpt><trkpt lat="38.5024636" lon="-1.752351"><ele>515.0</ele><time>2026-04-13T12:02:35.673Z</time></trkpt><trkpt lat="38.5023306" lon="-1.7524257"><ele>515.0</ele><time>2026-04-13T12:02:36.673Z</time></trkpt><trkpt lat="38.5021835" lon="-1.752474"><ele>513.6666666666666</ele><time>2026-04-13T12:02:37.673Z</time></trkpt><trkpt lat="38.5020328" lon="-1.7525004"><ele>512.3333333333334</ele><time>2026-04-13T12:02:38.673Z</time></trkpt><trkpt lat="38.5018797" lon="-1.7525213"><ele>511.0</ele><time>2026-04-13T12:02:39.673Z</time></trkpt><trkpt lat="38.501725" lon="-1.7525411"><ele>511.0</ele><time>2026-04-13T12:02:40.673Z</time></trkpt><trkpt lat="38.501569" lon="-1.7525682"><ele>511.0</ele><time>2026-04-13T12:02:41.673Z</time></trkpt><trkpt lat="38.501417" lon="-1.7525917"><ele>511.0</ele><time>2026-04-13T12:02:42.673Z</time></trkpt><trkpt lat="38.5012644" lon="-1.7526184"><ele>510.75</ele><time>2026-04-13T12:02:43.673Z</time></trkpt><trkpt lat="38.5011167" lon="-1.752649"><ele>510.5</ele><time>2026-04-13T12:02:44.673Z</time></trkpt><trkpt lat="38.5009698" lon="-1.7526845"><ele>510.25</ele><time>2026-04-13T12:02:45.673Z</time></trkpt><trkpt lat="38.5008246" lon="-1.7527218"><ele>510.0</ele><time>2026-04-13T12:02:46.673Z</time></trkpt><trkpt lat="38.500682" lon="-1.7527659"><ele>509.75</ele><time>2026-04-13T12:02:47.673Z</time></trkpt><trkpt lat="38.5005366" lon="-1.7528118"><ele>509.5</ele><time>2026-04-13T12:02:48.673Z</time></trkpt><trkpt lat="38.5003985" lon="-1.7528635"><ele>509.25</ele><time>2026-04-13T12:02:49.673Z</time></trkpt><trkpt lat="38.5002601" lon="-1.7529116"><ele>509.0</ele><time>2026-04-13T12:02:50.674Z</time></trkpt><trkpt lat="38.5001228" lon="-1.7529578"><ele>508.5</ele><time>2026-04-13T12:02:51.673Z</time></trkpt><trkpt lat="38.5000059" lon="-1.7530021"><ele>508.0</ele><time>2026-04-13T12:02:52.673Z</time></trkpt><trkpt lat="38.499893" lon="-1.7530385"><ele>507.5</ele><time>2026-04-13T12:02:53.673Z</time></trkpt><trkpt lat="38.4997784" lon="-1.7530699"><ele>507.0</ele><time>2026-04-13T12:02:54.673Z</time></trkpt><trkpt lat="38.4996579" lon="-1.7530938"><ele>507.25</ele><time>2026-04-13T12:02:55.673Z</time></trkpt><trkpt lat="38.4995296" lon="-1.7531088"><ele>507.5</ele><time>2026-04-13T12:02:56.673Z</time></trkpt><trkpt lat="38.499392" lon="-1.7531049"><ele>507.75</ele><time>2026-04-13T12:02:57.673Z</time></trkpt><trkpt lat="38.4992533" lon="-1.7530908"><ele>508.0</ele><time>2026-04-13T12:02:58.673Z</time></trkpt><trkpt lat="38.4991145" lon="-1.753058"><ele>508.0</ele><time>2026-04-13T12:02:59.673Z</time></trkpt><trkpt lat="38.4989781" lon="-1.753006"><ele>508.0</ele><time>2026-04-13T12:03:00.673Z</time></trkpt><trkpt lat="38.4988464" lon="-1.7529284"><ele>508.0</ele><time>2026-04-13T12:03:01.673Z</time></trkpt><trkpt lat="38.4987278" lon="-1.7528239"><ele>508.0</ele><time>2026-04-13T12:03:02.673Z</time></trkpt><trkpt lat="38.4986148" lon="-1.7527008"><ele>508.0</ele><time>2026-04-13T12:03:03.673Z</time></trkpt><trkpt lat="38.4985165" lon="-1.752561"><ele>508.0</ele><time>2026-04-13T12:03:04.673Z</time></trkpt><trkpt lat="38.4984286" lon="-1.7524027"><ele>508.0</ele><time>2026-04-13T12:03:05.673Z</time></trkpt><trkpt lat="38.498355" lon="-1.7522334"><ele>508.0</ele><time>2026-04-13T12:03:06.673Z</time></trkpt><trkpt lat="38.4982732" lon="-1.752075"><ele>508.0</ele><time>2026-04-13T12:03:07.673Z</time></trkpt><trkpt lat="38.4981838" lon="-1.7519298"><ele>508.0</ele><time>2026-04-13T12:03:08.673Z</time></trkpt><trkpt lat="38.4980831" lon="-1.7517881"><ele>508.0</ele><time>2026-04-13T12:03:09.673Z</time></trkpt><trkpt lat="38.4979795" lon="-1.7516547"><ele>507.75</ele><time>2026-04-13T12:03:10.673Z</time></trkpt><trkpt lat="38.4978664" lon="-1.7515318"><ele>507.5</ele><time>2026-04-13T12:03:11.673Z</time></trkpt><trkpt lat="38.4977408" lon="-1.7514316"><ele>507.25</ele><time>2026-04-13T12:03:12.673Z</time></trkpt><trkpt lat="38.4976138" lon="-1.7513394"><ele>507.0</ele><time>2026-04-13T12:03:13.673Z</time></trkpt><trkpt lat="38.4974918" lon="-1.7512356"><ele>507.0</ele><time>2026-04-13T12:03:14.673Z</time></trkpt><trkpt lat="38.4973787" lon="-1.751116"><ele>507.0</ele><time>2026-04-13T12:03:15.673Z</time></trkpt><trkpt lat="38.4972709" lon="-1.7509816"><ele>507.0</ele><time>2026-04-13T12:03:16.673Z</time></trkpt><trkpt lat="38.4971688" lon="-1.7508381"><ele>507.0</ele><time>2026-04-13T12:03:17.673Z</time></trkpt><trkpt lat="38.4970694" lon="-1.7506961"><ele>506.75</ele><time>2026-04-13T12:03:18.673Z</time></trkpt><trkpt lat="38.4969762" lon="-1.7505467"><ele>506.5</ele><time>2026-04-13T12:03:19.673Z</time></trkpt><trkpt lat="38.4969102" lon="-1.750405"><ele>506.25</ele><time>2026-04-13T12:03:20.673Z</time></trkpt><trkpt lat="38.4968787" lon="-1.7502469"><ele>506.0</ele><time>2026-04-13T12:03:21.673Z</time></trkpt><trkpt lat="38.4968815" lon="-1.7500787"><ele>506.0</ele><time>2026-04-13T12:03:22.673Z</time></trkpt><trkpt lat="38.4968962" lon="-1.7499095"><ele>506.0</ele><time>2026-04-13T12:03:23.673Z</time></trkpt><trkpt lat="38.4969165" lon="-1.7497299"><ele>506.0</ele><time>2026-04-13T12:03:24.673Z</time></trkpt><trkpt lat="38.4969398" lon="-1.7495569"><ele>506.0</ele><time>2026-04-13T12:03:25.673Z</time></trkpt><trkpt lat="38.4969603" lon="-1.7493825"><ele>507.5</ele><time>2026-04-13T12:03:26.673Z</time></trkpt><trkpt lat="38.4969793" lon="-1.749209"><ele>509.0</ele><time>2026-04-13T12:03:27.673Z</time></trkpt><trkpt lat="38.4969921" lon="-1.7490459"><ele>510.5</ele><time>2026-04-13T12:03:28.673Z</time></trkpt><trkpt lat="38.4970039" lon="-1.7488939"><ele>512.0</ele><time>2026-04-13T12:03:29.673Z</time></trkpt><trkpt lat="38.4970085" lon="-1.7487499"><ele>512.0</ele><time>2026-04-13T12:03:30.673Z</time></trkpt><trkpt lat="38.4969874" lon="-1.7486115"><ele>512.0</ele><time>2026-04-13T12:03:31.673Z</time></trkpt><trkpt lat="38.4969464" lon="-1.748471"><ele>512.0</ele><time>2026-04-13T12:03:32.673Z</time></trkpt><trkpt lat="38.4968843" lon="-1.7483383"><ele>512.0</ele><time>2026-04-13T12:03:33.673Z</time></trkpt><trkpt lat="38.4968098" lon="-1.7482096"><ele>513.0</ele><time>2026-04-13T12:03:34.673Z</time></trkpt><trkpt lat="38.4967126" lon="-1.7481015"><ele>514.0</ele><time>2026-04-13T12:03:35.673Z</time></trkpt><trkpt lat="38.4965926" lon="-1.7480165"><ele>515.0</ele><time>2026-04-13T12:03:36.673Z</time></trkpt><trkpt lat="38.4964632" lon="-1.7479477"><ele>516.0</ele><time>2026-04-13T12:03:37.673Z</time></trkpt><trkpt lat="38.4963338" lon="-1.747889"><ele>515.25</ele><time>2026-04-13T12:03:38.673Z</time></trkpt><trkpt lat="38.4962024" lon="-1.7478275"><ele>514.5</ele><time>2026-04-13T12:03:39.673Z</time></trkpt><trkpt lat="38.4960875" lon="-1.7477712"><ele>513.75</ele><time>2026-04-13T12:03:40.673Z</time></trkpt><trkpt lat="38.4959861" lon="-1.7477123"><ele>513.0</ele><time>2026-04-13T12:03:41.673Z</time></trkpt><trkpt lat="38.4958982" lon="-1.7476263"><ele>512.0</ele><time>2026-04-13T12:03:42.673Z</time></trkpt><trkpt lat="38.4958358" lon="-1.7475125"><ele>510.99999999999994</ele><time>2026-04-13T12:03:43.673Z</time></trkpt><trkpt lat="38.495804" lon="-1.7473767"><ele>509.99999999999994</ele><time>2026-04-13T12:03:44.673Z</time></trkpt><trkpt lat="38.4957774" lon="-1.747235"><ele>509.0</ele><time>2026-04-13T12:03:45.673Z</time></trkpt><trkpt lat="38.4957386" lon="-1.7471026"><ele>508.0</ele><time>2026-04-13T12:03:46.673Z</time></trkpt><trkpt lat="38.4956728" lon="-1.747005"><ele>508.0</ele><time>2026-04-13T12:03:47.673Z</time></trkpt><trkpt lat="38.4955819" lon="-1.7469417"><ele>507.99999999999994</ele><time>2026-04-13T12:03:48.673Z</time></trkpt><trkpt lat="38.4954772" lon="-1.7469172"><ele>507.99999999999994</ele><time>2026-04-13T12:03:49.673Z</time></trkpt><trkpt lat="38.4953651" lon="-1.7469176"><ele>508.0</ele><time>2026-04-13T12:03:50.673Z</time></trkpt><trkpt lat="38.4952517" lon="-1.7469066"><ele>508.0</ele><time>2026-04-13T12:03:51.673Z</time></trkpt><trkpt lat="38.4951439" lon="-1.7468764"><ele>508.2</ele><time>2026-04-13T12:03:52.673Z</time></trkpt><trkpt lat="38.4950447" lon="-1.7468196"><ele>508.4</ele><time>2026-04-13T12:03:53.673Z</time></trkpt><trkpt lat="38.4949626" lon="-1.7467365"><ele>508.59999999999997</ele><time>2026-04-13T12:03:54.673Z</time></trkpt><trkpt lat="38.4948896" lon="-1.7466389"><ele>508.79999999999995</ele><time>2026-04-13T12:03:55.673Z</time></trkpt><trkpt lat="38.4948127" lon="-1.7465448"><ele>509.0</ele><time>2026-04-13T12:03:56.673Z</time></trkpt><trkpt lat="38.49473" lon="-1.7464539"><ele>509.0</ele><time>2026-04-13T12:03:57.673Z</time></trkpt><trkpt lat="38.4946394" lon="-1.7463703"><ele>509.0</ele><time>2026-04-13T12:03:58.673Z</time></trkpt><trkpt lat="38.4945454" lon="-1.7462834"><ele>509.0</ele><time>2026-04-13T12:03:59.673Z</time></trkpt><trkpt lat="38.4944664" lon="-1.7461718"><ele>509.0</ele><time>2026-04-13T12:04:00.673Z</time></trkpt><trkpt lat="38.4944041" lon="-1.7460348"><ele>508.25</ele><time>2026-04-13T12:04:01.673Z</time></trkpt><trkpt lat="38.4943531" lon="-1.7458837"><ele>507.5</ele><time>2026-04-13T12:04:02.673Z</time></trkpt><trkpt lat="38.4943075" lon="-1.7457264"><ele>506.75</ele><time>2026-04-13T12:04:03.673Z</time></trkpt><trkpt lat="38.4942616" lon="-1.7455666"><ele>506.0</ele><time>2026-04-13T12:04:04.673Z</time></trkpt><trkpt lat="38.4942025" lon="-1.7454155"><ele>506.0</ele><time>2026-04-13T12:04:05.673Z</time></trkpt><trkpt lat="38.4941339" lon="-1.7452698"><ele>506.0</ele><time>2026-04-13T12:04:06.673Z</time></trkpt><trkpt lat="38.4940662" lon="-1.7451232"><ele>506.0</ele><time>2026-04-13T12:04:07.673Z</time></trkpt><trkpt lat="38.4939912" lon="-1.7449781"><ele>506.0</ele><time>2026-04-13T12:04:08.673Z</time></trkpt><trkpt lat="38.4939143" lon="-1.7448367"><ele>506.0</ele><time>2026-04-13T12:04:09.673Z</time></trkpt><trkpt lat="38.4938315" lon="-1.7447028"><ele>506.0</ele><time>2026-04-13T12:04:10.673Z</time></trkpt><trkpt lat="38.4937419" lon="-1.7445849"><ele>506.0</ele><time>2026-04-13T12:04:11.673Z</time></trkpt><trkpt lat="38.4936503" lon="-1.7444685"><ele>506.0</ele><time>2026-04-13T12:04:12.673Z</time></trkpt><trkpt lat="38.4935644" lon="-1.7443497"><ele>505.0</ele><time>2026-04-13T12:04:13.673Z</time></trkpt><trkpt lat="38.4934888" lon="-1.7442242"><ele>504.0</ele><time>2026-04-13T12:04:14.673Z</time></trkpt><trkpt lat="38.4934246" lon="-1.7440848"><ele>503.0</ele><time>2026-04-13T12:04:15.673Z</time></trkpt><trkpt lat="38.4933766" lon="-1.7439351"><ele>502.0</ele><time>2026-04-13T12:04:16.673Z</time></trkpt><trkpt lat="38.4933314" lon="-1.7437871"><ele>502.0</ele><time>2026-04-13T12:04:17.673Z</time></trkpt><trkpt lat="38.493289" lon="-1.7436396"><ele>502.0</ele><time>2026-04-13T12:04:18.673Z</time></trkpt><trkpt lat="38.4932537" lon="-1.7434889"><ele>502.0</ele><time>2026-04-13T12:04:19.673Z</time></trkpt><trkpt lat="38.4932264" lon="-1.7433321"><ele>502.0</ele><time>2026-04-13T12:04:20.673Z</time></trkpt><trkpt lat="38.4932162" lon="-1.7431696"><ele>502.75</ele><time>2026-04-13T12:04:21.673Z</time></trkpt><trkpt lat="38.4932117" lon="-1.7430101"><ele>503.5</ele><time>2026-04-13T12:04:22.673Z</time></trkpt><trkpt lat="38.4932086" lon="-1.7428505"><ele>504.25</ele><time>2026-04-13T12:04:23.673Z</time></trkpt><trkpt lat="38.4932006" lon="-1.7426928"><ele>505.0</ele><time>2026-04-13T12:04:24.673Z</time></trkpt><trkpt lat="38.4931991" lon="-1.742532"><ele>505.25</ele><time>2026-04-13T12:04:25.673Z</time></trkpt><trkpt lat="38.4932092" lon="-1.7423686"><ele>505.5</ele><time>2026-04-13T12:04:26.673Z</time></trkpt><trkpt lat="38.4932382" lon="-1.7422057"><ele>505.75</ele><time>2026-04-13T12:04:27.673Z</time></trkpt><trkpt lat="38.4932653" lon="-1.742047"><ele>506.0</ele><time>2026-04-13T12:04:28.673Z</time></trkpt><trkpt lat="38.4932937" lon="-1.741886"><ele>506.0</ele><time>2026-04-13T12:04:29.673Z</time></trkpt><trkpt lat="38.4933194" lon="-1.7417273"><ele>506.0</ele><time>2026-04-13T12:04:30.673Z</time></trkpt><trkpt lat="38.4933458" lon="-1.7415698"><ele>506.0</ele><time>2026-04-13T12:04:31.673Z</time></trkpt><trkpt lat="38.4933722" lon="-1.7414177"><ele>506.0</ele><time>2026-04-13T12:04:32.673Z</time></trkpt><trkpt lat="38.4933942" lon="-1.7412654"><ele>506.0</ele><time>2026-04-13T12:04:33.673Z</time></trkpt><trkpt lat="38.4934084" lon="-1.7411294"><ele>506.0</ele><time>2026-04-13T12:04:34.673Z</time></trkpt><trkpt lat="38.4934104" lon="-1.7409995"><ele>506.0</ele><time>2026-04-13T12:04:35.673Z</time></trkpt><trkpt lat="38.4933961" lon="-1.7408755"><ele>506.0</ele><time>2026-04-13T12:04:36.673Z</time></trkpt><trkpt lat="38.4933654" lon="-1.7407525"><ele>506.0</ele><time>2026-04-13T12:04:37.673Z</time></trkpt><trkpt lat="38.4933335" lon="-1.7406228"><ele>506.20000000000005</ele><time>2026-04-13T12:04:38.673Z</time></trkpt><trkpt lat="38.4933078" lon="-1.7404871"><ele>506.40000000000003</ele><time>2026-04-13T12:04:39.673Z</time></trkpt><trkpt lat="38.4933026" lon="-1.7403477"><ele>506.6</ele><time>2026-04-13T12:04:40.673Z</time></trkpt><trkpt lat="38.493306" lon="-1.7402047"><ele>506.8</ele><time>2026-04-13T12:04:41.673Z</time></trkpt><trkpt lat="38.4933229" lon="-1.7400616"><ele>507.0</ele><time>2026-04-13T12:04:42.673Z</time></trkpt><trkpt lat="38.4933461" lon="-1.7399201"><ele>506.6</ele><time>2026-04-13T12:04:43.673Z</time></trkpt><trkpt lat="38.4933603" lon="-1.7397796"><ele>506.20000000000005</ele><time>2026-04-13T12:04:44.673Z</time></trkpt><trkpt lat="38.4933625" lon="-1.7396386"><ele>505.8</ele><time>2026-04-13T12:04:45.673Z</time></trkpt><trkpt lat="38.4933701" lon="-1.7395001"><ele>505.4</ele><time>2026-04-13T12:04:46.673Z</time></trkpt><trkpt lat="38.4933847" lon="-1.7393674"><ele>505.0</ele><time>2026-04-13T12:04:47.673Z</time></trkpt><trkpt lat="38.4934024" lon="-1.739242"><ele>505.0</ele><time>2026-04-13T12:04:48.673Z</time></trkpt><trkpt lat="38.4934175" lon="-1.7391249"><ele>505.0</ele><time>2026-04-13T12:04:49.673Z</time></trkpt><trkpt lat="38.4934235" lon="-1.7390341"><ele>505.0</ele><time>2026-04-13T12:04:50.673Z</time></trkpt><trkpt lat="38.4934131" lon="-1.7389078"><ele>505.0</ele><time>2026-04-13T12:04:52.673Z</time></trkpt><trkpt lat="38.4933915" lon="-1.7387943"><ele>505.0</ele><time>2026-04-13T12:05:03.673Z</time></trkpt><trkpt lat="38.4934234" lon="-1.73865"><ele>505.00000000000006</ele><time>2026-04-13T12:05:05.673Z</time></trkpt><trkpt lat="38.4934454" lon="-1.7385734"><ele>505.0</ele><time>2026-04-13T12:05:06.673Z</time></trkpt><trkpt lat="38.4934545" lon="-1.7384487"><ele>505.0</ele><time>2026-04-13T12:05:07.673Z</time></trkpt><trkpt lat="38.4934569" lon="-1.7383282"><ele>505.0</ele><time>2026-04-13T12:05:08.673Z</time></trkpt><trkpt lat="38.4934493" lon="-1.738208"><ele>505.00000000000006</ele><time>2026-04-13T12:05:09.673Z</time></trkpt><trkpt lat="38.4934348" lon="-1.7380859"><ele>505.0</ele><time>2026-04-13T12:05:10.673Z</time></trkpt><trkpt lat="38.4934209" lon="-1.7379688"><ele>505.0</ele><time>2026-04-13T12:05:11.673Z</time></trkpt><trkpt lat="38.4934044" lon="-1.7378551"><ele>505.0</ele><time>2026-04-13T12:05:12.673Z</time></trkpt><trkpt lat="38.493389" lon="-1.7377408"><ele>505.0</ele><time>2026-04-13T12:05:13.673Z</time></trkpt><trkpt lat="38.4933717" lon="-1.7375978"><ele>505.0</ele><time>2026-04-13T12:05:15.673Z</time></trkpt><trkpt lat="38.4933571" lon="-1.737485"><ele>505.0</ele><time>2026-04-13T12:05:17.673Z</time></trkpt><trkpt lat="38.4933353" lon="-1.737332"><ele>504.4</ele><time>2026-04-13T12:05:19.673Z</time></trkpt><trkpt lat="38.4933202" lon="-1.7372287"><ele>503.8</ele><time>2026-04-13T12:05:20.674Z</time></trkpt><trkpt lat="38.4933027" lon="-1.737105"><ele>503.20000000000005</ele><time>2026-04-13T12:05:21.673Z</time></trkpt><trkpt lat="38.4932836" lon="-1.7369732"><ele>502.6</ele><time>2026-04-13T12:05:22.673Z</time></trkpt><trkpt lat="38.4932621" lon="-1.7368317"><ele>502.0</ele><time>2026-04-13T12:05:23.673Z</time></trkpt><trkpt lat="38.4932428" lon="-1.7366911"><ele>501.0</ele><time>2026-04-13T12:05:24.673Z</time></trkpt><trkpt lat="38.4932165" lon="-1.7365099"><ele>500.0</ele><time>2026-04-13T12:05:25.673Z</time></trkpt><trkpt lat="38.4931874" lon="-1.7363239"><ele>499.0</ele><time>2026-04-13T12:05:26.673Z</time></trkpt><trkpt lat="38.4931651" lon="-1.7361336"><ele>498.0</ele><time>2026-04-13T12:05:27.673Z</time></trkpt><trkpt lat="38.493148" lon="-1.7359306"><ele>496.66666666666663</ele><time>2026-04-13T12:05:28.673Z</time></trkpt><trkpt lat="38.4931402" lon="-1.735713"><ele>495.3333333333333</ele><time>2026-04-13T12:05:29.673Z</time></trkpt><trkpt lat="38.4931499" lon="-1.7354933"><ele>494.0</ele><time>2026-04-13T12:05:30.673Z</time></trkpt><trkpt lat="38.4931788" lon="-1.7352701"><ele>492.0</ele><time>2026-04-13T12:05:31.673Z</time></trkpt><trkpt lat="38.4932304" lon="-1.7350511"><ele>490.0</ele><time>2026-04-13T12:05:32.673Z</time></trkpt><trkpt lat="38.4932992" lon="-1.7348271"><ele>488.0</ele><time>2026-04-13T12:05:33.674Z</time></trkpt><trkpt lat="38.4933712" lon="-1.7346089"><ele>488.0</ele><time>2026-04-13T12:05:34.673Z</time></trkpt><trkpt lat="38.4934554" lon="-1.7343973"><ele>488.0</ele><time>2026-04-13T12:05:35.673Z</time></trkpt><trkpt lat="38.4935445" lon="-1.7342094"><ele>488.0</ele><time>2026-04-13T12:05:36.673Z</time></trkpt><trkpt lat="38.4936223" lon="-1.7340624"><ele>489.0</ele><time>2026-04-13T12:05:37.674Z</time></trkpt><trkpt lat="38.4936944" lon="-1.7339451"><ele>490.0</ele><time>2026-04-13T12:05:38.673Z</time></trkpt><trkpt lat="38.4937707" lon="-1.7338276"><ele>491.0</ele><time>2026-04-13T12:05:39.673Z</time></trkpt><trkpt lat="38.493852" lon="-1.733705"><ele>492.0</ele><time>2026-04-13T12:05:40.673Z</time></trkpt><trkpt lat="38.4939403" lon="-1.7335705"><ele>492.5</ele><time>2026-04-13T12:05:41.673Z</time></trkpt><trkpt lat="38.4940337" lon="-1.7334295"><ele>493.0</ele><time>2026-04-13T12:05:42.673Z</time></trkpt><trkpt lat="38.4941246" lon="-1.7332897"><ele>493.5</ele><time>2026-04-13T12:05:43.673Z</time></trkpt><trkpt lat="38.4942216" lon="-1.7331425"><ele>494.0</ele><time>2026-04-13T12:05:44.673Z</time></trkpt><trkpt lat="38.49432" lon="-1.7329904"><ele>494.0</ele><time>2026-04-13T12:05:45.673Z</time></trkpt><trkpt lat="38.4944272" lon="-1.7328349"><ele>494.0</ele><time>2026-04-13T12:05:46.674Z</time></trkpt><trkpt lat="38.4945382" lon="-1.7326747"><ele>494.0</ele><time>2026-04-13T12:05:47.673Z</time></trkpt><trkpt lat="38.494648" lon="-1.7325082"><ele>495.66666666666663</ele><time>2026-04-13T12:05:48.673Z</time></trkpt><trkpt lat="38.4947587" lon="-1.7323396"><ele>497.33333333333337</ele><time>2026-04-13T12:05:49.673Z</time></trkpt><trkpt lat="38.4948692" lon="-1.7321689"><ele>499.0</ele><time>2026-04-13T12:05:50.673Z</time></trkpt><trkpt lat="38.4949804" lon="-1.7319987"><ele>500.0</ele><time>2026-04-13T12:05:51.673Z</time></trkpt><trkpt lat="38.4950963" lon="-1.7318264"><ele>501.0</ele><time>2026-04-13T12:05:52.673Z</time></trkpt><trkpt lat="38.4952149" lon="-1.7316551"><ele>502.0</ele><time>2026-04-13T12:05:53.673Z</time></trkpt><trkpt lat="38.4953314" lon="-1.7314756"><ele>502.33333333333337</ele><time>2026-04-13T12:05:54.673Z</time></trkpt><trkpt lat="38.4954478" lon="-1.7313027"><ele>502.66666666666663</ele><time>2026-04-13T12:05:55.673Z</time></trkpt><trkpt lat="38.4955455" lon="-1.7311214"><ele>503.0</ele><time>2026-04-13T12:05:56.673Z</time></trkpt><trkpt lat="38.4956274" lon="-1.730931"><ele>503.66666666666663</ele><time>2026-04-13T12:05:57.673Z</time></trkpt><trkpt lat="38.495703" lon="-1.730732"><ele>504.33333333333337</ele><time>2026-04-13T12:05:58.673Z</time></trkpt><trkpt lat="38.4957763" lon="-1.7305313"><ele>505.0</ele><time>2026-04-13T12:05:59.673Z</time></trkpt><trkpt lat="38.4958501" lon="-1.7303304"><ele>506.0</ele><time>2026-04-13T12:06:00.673Z</time></trkpt><trkpt lat="38.4959237" lon="-1.7301286"><ele>507.0</ele><time>2026-04-13T12:06:01.673Z</time></trkpt><trkpt lat="38.495998" lon="-1.7299239"><ele>508.0</ele><time>2026-04-13T12:06:02.673Z</time></trkpt><trkpt lat="38.4960719" lon="-1.7297207"><ele>508.0</ele><time>2026-04-13T12:06:03.673Z</time></trkpt><trkpt lat="38.4961466" lon="-1.7295231"><ele>508.0</ele><time>2026-04-13T12:06:04.673Z</time></trkpt><trkpt lat="38.4962188" lon="-1.7293283"><ele>508.0</ele><time>2026-04-13T12:06:05.673Z</time></trkpt><trkpt lat="38.4962856" lon="-1.7291398"><ele>508.25</ele><time>2026-04-13T12:06:06.673Z</time></trkpt><trkpt lat="38.4963462" lon="-1.7289682"><ele>508.5</ele><time>2026-04-13T12:06:07.673Z</time></trkpt><trkpt lat="38.4963973" lon="-1.7288173"><ele>508.75</ele><time>2026-04-13T12:06:08.673Z</time></trkpt><trkpt lat="38.4964373" lon="-1.7286908"><ele>509.0</ele><time>2026-04-13T12:06:09.673Z</time></trkpt><trkpt lat="38.4964622" lon="-1.7285869"><ele>509.6</ele><time>2026-04-13T12:06:10.673Z</time></trkpt><trkpt lat="38.4964704" lon="-1.7284858"><ele>510.2</ele><time>2026-04-13T12:06:11.673Z</time></trkpt><trkpt lat="38.4964568" lon="-1.7283731"><ele>510.80000000000007</ele><time>2026-04-13T12:06:12.673Z</time></trkpt><trkpt lat="38.4964324" lon="-1.7282609"><ele>511.40000000000003</ele><time>2026-04-13T12:06:13.673Z</time></trkpt><trkpt lat="38.4963708" lon="-1.7281516"><ele>512.0</ele><time>2026-04-13T12:06:14.673Z</time></trkpt><trkpt lat="38.4963007" lon="-1.7280399"><ele>513.25</ele><time>2026-04-13T12:06:15.673Z</time></trkpt><trkpt lat="38.4962254" lon="-1.7279112"><ele>514.5</ele><time>2026-04-13T12:06:16.673Z</time></trkpt><trkpt lat="38.4961507" lon="-1.7277766"><ele>515.75</ele><time>2026-04-13T12:06:17.674Z</time></trkpt><trkpt lat="38.4960726" lon="-1.7276431"><ele>517.0</ele><time>2026-04-13T12:06:18.673Z</time></trkpt><trkpt lat="38.4959792" lon="-1.7274821"><ele>517.0</ele><time>2026-04-13T12:06:19.673Z</time></trkpt><trkpt lat="38.4958896" lon="-1.7273344"><ele>517.0</ele><time>2026-04-13T12:06:20.673Z</time></trkpt><trkpt lat="38.4957996" lon="-1.7271702"><ele>517.0</ele><time>2026-04-13T12:06:21.673Z</time></trkpt><trkpt lat="38.4957199" lon="-1.7269966"><ele>516.6666666666667</ele><time>2026-04-13T12:06:22.673Z</time></trkpt><trkpt lat="38.4956528" lon="-1.7267979"><ele>516.3333333333334</ele><time>2026-04-13T12:06:23.673Z</time></trkpt><trkpt lat="38.4955985" lon="-1.7265898"><ele>516.0</ele><time>2026-04-13T12:06:24.673Z</time></trkpt><trkpt lat="38.4955506" lon="-1.7263756"><ele>516.0</ele><time>2026-04-13T12:06:25.673Z</time></trkpt><trkpt lat="38.4954998" lon="-1.7261443"><ele>516.0</ele><time>2026-04-13T12:06:26.673Z</time></trkpt><trkpt lat="38.4954554" lon="-1.7259204"><ele>516.0</ele><time>2026-04-13T12:06:27.674Z</time></trkpt><trkpt lat="38.4954106" lon="-1.725699"><ele>513.3333333333334</ele><time>2026-04-13T12:06:28.673Z</time></trkpt><trkpt lat="38.4953655" lon="-1.7254756"><ele>510.6666666666667</ele><time>2026-04-13T12:06:29.673Z</time></trkpt><trkpt lat="38.4953165" lon="-1.7252491"><ele>508.0</ele><time>2026-04-13T12:06:30.673Z</time></trkpt><trkpt lat="38.495269" lon="-1.7250246"><ele>508.0</ele><time>2026-04-13T12:06:31.673Z</time></trkpt><trkpt lat="38.4952214" lon="-1.7248051"><ele>508.0</ele><time>2026-04-13T12:06:32.673Z</time></trkpt><trkpt lat="38.4951727" lon="-1.7245814"><ele>508.0</ele><time>2026-04-13T12:06:33.673Z</time></trkpt><trkpt lat="38.4951236" lon="-1.7243598"><ele>508.0</ele><time>2026-04-13T12:06:34.673Z</time></trkpt><trkpt lat="38.4950741" lon="-1.7241422"><ele>508.0</ele><time>2026-04-13T12:06:35.673Z</time></trkpt><trkpt lat="38.4950252" lon="-1.7239215"><ele>508.0</ele><time>2026-04-13T12:06:36.673Z</time></trkpt><trkpt lat="38.4949711" lon="-1.723704"><ele>508.33333333333337</ele><time>2026-04-13T12:06:37.673Z</time></trkpt><trkpt lat="38.4949166" lon="-1.7234801"><ele>508.66666666666663</ele><time>2026-04-13T12:06:38.673Z</time></trkpt><trkpt lat="38.4948641" lon="-1.7232623"><ele>509.0</ele><time>2026-04-13T12:06:39.673Z</time></trkpt><trkpt lat="38.4948073" lon="-1.7230354"><ele>509.0</ele><time>2026-04-13T12:06:40.673Z</time></trkpt><trkpt lat="38.4947518" lon="-1.7228093"><ele>509.0</ele><time>2026-04-13T12:06:41.673Z</time></trkpt><trkpt lat="38.494691" lon="-1.7225761"><ele>509.0</ele><time>2026-04-13T12:06:42.673Z</time></trkpt><trkpt lat="38.4946357" lon="-1.7223403"><ele>509.3333333333333</ele><time>2026-04-13T12:06:43.673Z</time></trkpt><trkpt lat="38.4945763" lon="-1.722107"><ele>509.66666666666663</ele><time>2026-04-13T12:06:44.673Z</time></trkpt><trkpt lat="38.4945185" lon="-1.7218692"><ele>510.0</ele><time>2026-04-13T12:06:45.674Z</time></trkpt><trkpt lat="38.4944591" lon="-1.7216342"><ele>510.33333333333337</ele><time>2026-04-13T12:06:46.673Z</time></trkpt><trkpt lat="38.4943888" lon="-1.7214064"><ele>510.6666666666667</ele><time>2026-04-13T12:06:47.673Z</time></trkpt><trkpt lat="38.4943199" lon="-1.7211819"><ele>511.0</ele><time>2026-04-13T12:06:48.673Z</time></trkpt><trkpt lat="38.4942558" lon="-1.720983"><ele>511.0</ele><time>2026-04-13T12:06:49.673Z</time></trkpt><trkpt lat="38.4941848" lon="-1.7207728"><ele>511.0</ele><time>2026-04-13T12:06:50.673Z</time></trkpt><trkpt lat="38.4941164" lon="-1.7205585"><ele>511.0</ele><time>2026-04-13T12:06:51.673Z</time></trkpt><trkpt lat="38.4940683" lon="-1.7203462"><ele>511.0</ele><time>2026-04-13T12:06:52.673Z</time></trkpt><trkpt lat="38.49403" lon="-1.7201211"><ele>511.0</ele><time>2026-04-13T12:06:53.673Z</time></trkpt><trkpt lat="38.4940016" lon="-1.7198959"><ele>511.0</ele><time>2026-04-13T12:06:54.673Z</time></trkpt><trkpt lat="38.493974" lon="-1.7196686"><ele>511.0</ele><time>2026-04-13T12:06:55.673Z</time></trkpt><trkpt lat="38.4939489" lon="-1.7194419"><ele>511.0</ele><time>2026-04-13T12:06:56.673Z</time></trkpt><trkpt lat="38.4939249" lon="-1.7192207"><ele>511.0</ele><time>2026-04-13T12:06:57.673Z</time></trkpt><trkpt lat="38.4938921" lon="-1.719005"><ele>511.33333333333337</ele><time>2026-04-13T12:06:58.673Z</time></trkpt><trkpt lat="38.4938492" lon="-1.7187943"><ele>511.66666666666663</ele><time>2026-04-13T12:06:59.673Z</time></trkpt><trkpt lat="38.4937985" lon="-1.7185876"><ele>512.0</ele><time>2026-04-13T12:07:00.673Z</time></trkpt><trkpt lat="38.4937422" lon="-1.7183826"><ele>510.66666666666663</ele><time>2026-04-13T12:07:01.673Z</time></trkpt><trkpt lat="38.4936841" lon="-1.71818"><ele>509.33333333333337</ele><time>2026-04-13T12:07:02.673Z</time></trkpt><trkpt lat="38.4936291" lon="-1.7179824"><ele>508.0</ele><time>2026-04-13T12:07:03.673Z</time></trkpt><trkpt lat="38.4935759" lon="-1.7177838"><ele>507.33333333333337</ele><time>2026-04-13T12:07:04.673Z</time></trkpt><trkpt lat="38.4935197" lon="-1.7175816"><ele>506.66666666666663</ele><time>2026-04-13T12:07:05.673Z</time></trkpt><trkpt lat="38.4934587" lon="-1.7173726"><ele>506.0</ele><time>2026-04-13T12:07:06.673Z</time></trkpt><trkpt lat="38.4934054" lon="-1.7171786"><ele>506.0</ele><time>2026-04-13T12:07:07.673Z</time></trkpt><trkpt lat="38.493349" lon="-1.7169804"><ele>506.0</ele><time>2026-04-13T12:07:08.673Z</time></trkpt><trkpt lat="38.4932967" lon="-1.7167888"><ele>506.0</ele><time>2026-04-13T12:07:09.673Z</time></trkpt><trkpt lat="38.4932422" lon="-1.71659"><ele>506.3333333333333</ele><time>2026-04-13T12:07:10.673Z</time></trkpt><trkpt lat="38.4931854" lon="-1.7163969"><ele>506.66666666666663</ele><time>2026-04-13T12:07:11.673Z</time></trkpt><trkpt lat="38.4931322" lon="-1.7162043"><ele>507.0</ele><time>2026-04-13T12:07:12.673Z</time></trkpt><trkpt lat="38.4930789" lon="-1.716011"><ele>507.0</ele><time>2026-04-13T12:07:13.673Z</time></trkpt><trkpt lat="38.4930237" lon="-1.7158142"><ele>507.0</ele><time>2026-04-13T12:07:14.673Z</time></trkpt><trkpt lat="38.4929537" lon="-1.7156175"><ele>507.0</ele><time>2026-04-13T12:07:15.673Z</time></trkpt><trkpt lat="38.4928666" lon="-1.7154376"><ele>507.0</ele><time>2026-04-13T12:07:16.673Z</time></trkpt><trkpt lat="38.4927618" lon="-1.71526"><ele>507.0</ele><time>2026-04-13T12:07:17.673Z</time></trkpt><trkpt lat="38.4926543" lon="-1.7150785"><ele>507.0</ele><time>2026-04-13T12:07:18.673Z</time></trkpt><trkpt lat="38.492544" lon="-1.7148946"><ele>507.0</ele><time>2026-04-13T12:07:19.673Z</time></trkpt><trkpt lat="38.4924324" lon="-1.7147123"><ele>507.0</ele><time>2026-04-13T12:07:20.673Z</time></trkpt><trkpt lat="38.4923194" lon="-1.7145305"><ele>507.0</ele><time>2026-04-13T12:07:21.673Z</time></trkpt><trkpt lat="38.4922076" lon="-1.714345"><ele>506.66666666666663</ele><time>2026-04-13T12:07:22.673Z</time></trkpt><trkpt lat="38.492096" lon="-1.7141608"><ele>506.3333333333333</ele><time>2026-04-13T12:07:23.673Z</time></trkpt><trkpt lat="38.4919822" lon="-1.7139838"><ele>506.0</ele><time>2026-04-13T12:07:24.673Z</time></trkpt><trkpt lat="38.4918719" lon="-1.7138003"><ele>506.0</ele><time>2026-04-13T12:07:25.673Z</time></trkpt><trkpt lat="38.4917606" lon="-1.7136181"><ele>506.0</ele><time>2026-04-13T12:07:26.673Z</time></trkpt><trkpt lat="38.4916463" lon="-1.7134352"><ele>506.0</ele><time>2026-04-13T12:07:27.673Z</time></trkpt><trkpt lat="38.4915342" lon="-1.7132524"><ele>505.66666666666663</ele><time>2026-04-13T12:07:28.673Z</time></trkpt><trkpt lat="38.4914218" lon="-1.7130734"><ele>505.33333333333337</ele><time>2026-04-13T12:07:29.673Z</time></trkpt><trkpt lat="38.4913124" lon="-1.7128969"><ele>505.0</ele><time>2026-04-13T12:07:30.673Z</time></trkpt><trkpt lat="38.4912039" lon="-1.712716"><ele>505.0</ele><time>2026-04-13T12:07:31.673Z</time></trkpt><trkpt lat="38.4910948" lon="-1.7125329"><ele>505.0</ele><time>2026-04-13T12:07:32.673Z</time></trkpt><trkpt lat="38.4909893" lon="-1.7123628"><ele>505.0</ele><time>2026-04-13T12:07:33.673Z</time></trkpt><trkpt lat="38.4908855" lon="-1.7121882"><ele>505.0</ele><time>2026-04-13T12:07:34.673Z</time></trkpt><trkpt lat="38.4907793" lon="-1.7120145"><ele>505.0</ele><time>2026-04-13T12:07:35.673Z</time></trkpt><trkpt lat="38.4906752" lon="-1.7118371"><ele>505.0</ele><time>2026-04-13T12:07:36.673Z</time></trkpt><trkpt lat="38.4905716" lon="-1.7116592"><ele>505.6666666666667</ele><time>2026-04-13T12:07:37.673Z</time></trkpt><trkpt lat="38.4904626" lon="-1.7114818"><ele>506.33333333333337</ele><time>2026-04-13T12:07:38.673Z</time></trkpt><trkpt lat="38.4903581" lon="-1.7113063"><ele>507.0</ele><time>2026-04-13T12:07:39.673Z</time></trkpt><trkpt lat="38.4902532" lon="-1.7111352"><ele>506.33333333333337</ele><time>2026-04-13T12:07:40.673Z</time></trkpt><trkpt lat="38.4901483" lon="-1.7109647"><ele>505.6666666666667</ele><time>2026-04-13T12:07:41.673Z</time></trkpt><trkpt lat="38.4900354" lon="-1.7108001"><ele>505.0</ele><time>2026-04-13T12:07:42.673Z</time></trkpt><trkpt lat="38.4899231" lon="-1.7106415"><ele>505.0</ele><time>2026-04-13T12:07:43.673Z</time></trkpt><trkpt lat="38.4898075" lon="-1.7104909"><ele>505.0</ele><time>2026-04-13T12:07:44.673Z</time></trkpt><trkpt lat="38.4896908" lon="-1.7103554"><ele>505.0</ele><time>2026-04-13T12:07:45.673Z</time></trkpt><trkpt lat="38.4895787" lon="-1.7102259"><ele>505.75</ele><time>2026-04-13T12:07:46.673Z</time></trkpt><trkpt lat="38.4894775" lon="-1.7101104"><ele>506.5</ele><time>2026-04-13T12:07:47.673Z</time></trkpt><trkpt lat="38.489383" lon="-1.7099995"><ele>507.25</ele><time>2026-04-13T12:07:48.673Z</time></trkpt><trkpt lat="38.4892968" lon="-1.7098992"><ele>508.0</ele><time>2026-04-13T12:07:49.673Z</time></trkpt><trkpt lat="38.4892176" lon="-1.7098105"><ele>508.00000000000006</ele><time>2026-04-13T12:07:50.673Z</time></trkpt><trkpt lat="38.489151" lon="-1.7097396"><ele>508.0</ele><time>2026-04-13T12:07:51.673Z</time></trkpt><trkpt lat="38.4890849" lon="-1.7096806"><ele>508.0</ele><time>2026-04-13T12:07:52.673Z</time></trkpt><trkpt lat="38.4890118" lon="-1.7096447"><ele>508.0</ele><time>2026-04-13T12:07:53.673Z</time></trkpt><trkpt lat="38.4889407" lon="-1.7096144"><ele>508.00000000000006</ele><time>2026-04-13T12:07:54.673Z</time></trkpt><trkpt lat="38.488881" lon="-1.709553"><ele>508.0</ele><time>2026-04-13T12:07:55.673Z</time></trkpt><trkpt lat="38.4888384" lon="-1.7094607"><ele>507.4</ele><time>2026-04-13T12:07:56.673Z</time></trkpt><trkpt lat="38.4887895" lon="-1.7093525"><ele>506.79999999999995</ele><time>2026-04-13T12:07:57.673Z</time></trkpt><trkpt lat="38.4887193" lon="-1.7092508"><ele>506.2</ele><time>2026-04-13T12:07:58.673Z</time></trkpt><trkpt lat="38.4886334" lon="-1.7091496"><ele>505.6</ele><time>2026-04-13T12:07:59.673Z</time></trkpt><trkpt lat="38.4885409" lon="-1.7090445"><ele>505.0</ele><time>2026-04-13T12:08:00.673Z</time></trkpt><trkpt lat="38.4884465" lon="-1.7089356"><ele>504.75</ele><time>2026-04-13T12:08:01.673Z</time></trkpt><trkpt lat="38.488344" lon="-1.7088155"><ele>504.5</ele><time>2026-04-13T12:08:02.673Z</time></trkpt><trkpt lat="38.4882379" lon="-1.7086905"><ele>504.25</ele><time>2026-04-13T12:08:03.673Z</time></trkpt><trkpt lat="38.4881277" lon="-1.7085587"><ele>504.0</ele><time>2026-04-13T12:08:04.673Z</time></trkpt><trkpt lat="38.4880134" lon="-1.7084215"><ele>504.0</ele><time>2026-04-13T12:08:05.673Z</time></trkpt><trkpt lat="38.4879056" lon="-1.7082834"><ele>504.0</ele><time>2026-04-13T12:08:06.673Z</time></trkpt><trkpt lat="38.4877905" lon="-1.7081368"><ele>504.0</ele><time>2026-04-13T12:08:07.673Z</time></trkpt><trkpt lat="38.4876815" lon="-1.7079888"><ele>504.0</ele><time>2026-04-13T12:08:08.674Z</time></trkpt><trkpt lat="38.4875874" lon="-1.7078539"><ele>504.0</ele><time>2026-04-13T12:08:09.673Z</time></trkpt><trkpt lat="38.4874981" lon="-1.7077245"><ele>504.0</ele><time>2026-04-13T12:08:10.673Z</time></trkpt><trkpt lat="38.4874076" lon="-1.7075955"><ele>504.0</ele><time>2026-04-13T12:08:11.673Z</time></trkpt><trkpt lat="38.4873164" lon="-1.707459"><ele>503.66666666666663</ele><time>2026-04-13T12:08:12.673Z</time></trkpt><trkpt lat="38.4872202" lon="-1.7073185"><ele>503.3333333333333</ele><time>2026-04-13T12:08:13.673Z</time></trkpt><trkpt lat="38.4871182" lon="-1.7071728"><ele>503.0</ele><time>2026-04-13T12:08:14.673Z</time></trkpt><trkpt lat="38.4870137" lon="-1.7070267"><ele>502.0</ele><time>2026-04-13T12:08:15.673Z</time></trkpt><trkpt lat="38.4869091" lon="-1.7068758"><ele>501.0</ele><time>2026-04-13T12:08:16.673Z</time></trkpt><trkpt lat="38.4868031" lon="-1.7067305"><ele>500.0</ele><time>2026-04-13T12:08:17.673Z</time></trkpt><trkpt lat="38.4866999" lon="-1.706579"><ele>500.0</ele><time>2026-04-13T12:08:18.673Z</time></trkpt><trkpt lat="38.4865964" lon="-1.7064291"><ele>500.0</ele><time>2026-04-13T12:08:19.673Z</time></trkpt><trkpt lat="38.4864896" lon="-1.7062821"><ele>500.0</ele><time>2026-04-13T12:08:20.673Z</time></trkpt><trkpt lat="38.4863826" lon="-1.7061361"><ele>499.66666666666663</ele><time>2026-04-13T12:08:21.673Z</time></trkpt><trkpt lat="38.4862775" lon="-1.7059873"><ele>499.33333333333337</ele><time>2026-04-13T12:08:22.674Z</time></trkpt><trkpt lat="38.4861731" lon="-1.7058374"><ele>499.0</ele><time>2026-04-13T12:08:23.673Z</time></trkpt><trkpt lat="38.4860685" lon="-1.7056907"><ele>499.6666666666667</ele><time>2026-04-13T12:08:24.673Z</time></trkpt><trkpt lat="38.4859654" lon="-1.7055461"><ele>500.33333333333337</ele><time>2026-04-13T12:08:25.673Z</time></trkpt><trkpt lat="38.4858618" lon="-1.7053986"><ele>501.0</ele><time>2026-04-13T12:08:26.673Z</time></trkpt><trkpt lat="38.4857564" lon="-1.7052511"><ele>500.0</ele><time>2026-04-13T12:08:27.673Z</time></trkpt><trkpt lat="38.4856534" lon="-1.7051055"><ele>499.0</ele><time>2026-04-13T12:08:28.673Z</time></trkpt><trkpt lat="38.4855497" lon="-1.7049617"><ele>498.0</ele><time>2026-04-13T12:08:29.673Z</time></trkpt><trkpt lat="38.4854458" lon="-1.7048161"><ele>499.33333333333337</ele><time>2026-04-13T12:08:30.673Z</time></trkpt><trkpt lat="38.4853443" lon="-1.7046672"><ele>500.6666666666667</ele><time>2026-04-13T12:08:31.673Z</time></trkpt><trkpt lat="38.4852424" lon="-1.7045235"><ele>502.0</ele><time>2026-04-13T12:08:32.674Z</time></trkpt><trkpt lat="38.485141" lon="-1.7043806"><ele>502.25</ele><time>2026-04-13T12:08:33.673Z</time></trkpt><trkpt lat="38.48504" lon="-1.7042383"><ele>502.5</ele><time>2026-04-13T12:08:34.673Z</time></trkpt><trkpt lat="38.4849497" lon="-1.7040899"><ele>502.75</ele><time>2026-04-13T12:08:35.673Z</time></trkpt><trkpt lat="38.4848719" lon="-1.7039317"><ele>503.0</ele><time>2026-04-13T12:08:36.673Z</time></trkpt><trkpt lat="38.4848017" lon="-1.703765"><ele>503.0</ele><time>2026-04-13T12:08:37.673Z</time></trkpt><trkpt lat="38.4847356" lon="-1.7035961"><ele>503.0</ele><time>2026-04-13T12:08:38.673Z</time></trkpt><trkpt lat="38.4846723" lon="-1.7034267"><ele>503.0</ele><time>2026-04-13T12:08:39.673Z</time></trkpt><trkpt lat="38.4846089" lon="-1.7032611"><ele>503.0</ele><time>2026-04-13T12:08:40.673Z</time></trkpt><trkpt lat="38.4845531" lon="-1.7030935"><ele>502.5</ele><time>2026-04-13T12:08:41.673Z</time></trkpt><trkpt lat="38.4844946" lon="-1.7029242"><ele>502.0</ele><time>2026-04-13T12:08:42.673Z</time></trkpt><trkpt lat="38.4844354" lon="-1.7027506"><ele>501.5</ele><time>2026-04-13T12:08:43.673Z</time></trkpt><trkpt lat="38.484374" lon="-1.7025747"><ele>501.0</ele><time>2026-04-13T12:08:44.673Z</time></trkpt><trkpt lat="38.4843224" lon="-1.7023933"><ele>501.0</ele><time>2026-04-13T12:08:45.673Z</time></trkpt><trkpt lat="38.484289" lon="-1.7022031"><ele>501.0</ele><time>2026-04-13T12:08:46.673Z</time></trkpt><trkpt lat="38.4842669" lon="-1.7020059"><ele>501.0</ele><time>2026-04-13T12:08:47.673Z</time></trkpt><trkpt lat="38.4842483" lon="-1.7018014"><ele>501.0</ele><time>2026-04-13T12:08:48.673Z</time></trkpt><trkpt lat="38.4842314" lon="-1.7015966"><ele>501.0</ele><time>2026-04-13T12:08:49.673Z</time></trkpt><trkpt lat="38.4842158" lon="-1.7013883"><ele>501.0</ele><time>2026-04-13T12:08:50.673Z</time></trkpt><trkpt lat="38.4841977" lon="-1.7011772"><ele>499.5</ele><time>2026-04-13T12:08:51.673Z</time></trkpt><trkpt lat="38.4841788" lon="-1.7008969"><ele>498.0</ele><time>2026-04-13T12:08:53.555Z</time></trkpt><trkpt lat="38.4841543" lon="-1.7005461"><ele>498.0</ele><time>2026-04-13T12:08:54.676Z</time></trkpt><trkpt lat="38.4841384" lon="-1.7003238"><ele>498.0</ele><time>2026-04-13T12:08:55.679Z</time></trkpt><trkpt lat="38.484123" lon="-1.7000996"><ele>498.0</ele><time>2026-04-13T12:08:56.697Z</time></trkpt><trkpt lat="38.4841075" lon="-1.6998754"><ele>497.33333333333337</ele><time>2026-04-13T12:08:57.672Z</time></trkpt><trkpt lat="38.4840915" lon="-1.6996562"><ele>496.6666666666667</ele><time>2026-04-13T12:08:58.674Z</time></trkpt><trkpt lat="38.484077" lon="-1.6994353"><ele>496.0</ele><time>2026-04-13T12:08:59.674Z</time></trkpt><trkpt lat="38.4840643" lon="-1.6992226"><ele>495.33333333333337</ele><time>2026-04-13T12:09:00.674Z</time></trkpt><trkpt lat="38.4840477" lon="-1.699001"><ele>494.66666666666663</ele><time>2026-04-13T12:09:01.674Z</time></trkpt><trkpt lat="38.4840357" lon="-1.6987838"><ele>494.0</ele><time>2026-04-13T12:09:02.674Z</time></trkpt><trkpt lat="38.4840226" lon="-1.6985613"><ele>493.66666666666663</ele><time>2026-04-13T12:09:03.674Z</time></trkpt><trkpt lat="38.484005" lon="-1.6983369"><ele>493.33333333333337</ele><time>2026-04-13T12:09:04.674Z</time></trkpt><trkpt lat="38.4839873" lon="-1.6981163"><ele>493.0</ele><time>2026-04-13T12:09:05.674Z</time></trkpt><trkpt lat="38.4839716" lon="-1.6978907"><ele>493.33333333333337</ele><time>2026-04-13T12:09:06.674Z</time></trkpt><trkpt lat="38.4839545" lon="-1.6976602"><ele>493.66666666666663</ele><time>2026-04-13T12:09:07.674Z</time></trkpt><trkpt lat="38.4839397" lon="-1.697432"><ele>494.0</ele><time>2026-04-13T12:09:08.674Z</time></trkpt><trkpt lat="38.483921" lon="-1.697207"><ele>494.0</ele><time>2026-04-13T12:09:09.674Z</time></trkpt><trkpt lat="38.4839075" lon="-1.696984"><ele>494.0</ele><time>2026-04-13T12:09:10.674Z</time></trkpt><trkpt lat="38.4839008" lon="-1.6967595"><ele>494.0</ele><time>2026-04-13T12:09:11.674Z</time></trkpt><trkpt lat="38.4839075" lon="-1.6965337"><ele>494.0</ele><time>2026-04-13T12:09:12.674Z</time></trkpt><trkpt lat="38.4839237" lon="-1.6963088"><ele>494.0</ele><time>2026-04-13T12:09:13.674Z</time></trkpt><trkpt lat="38.4839492" lon="-1.6960859"><ele>494.0</ele><time>2026-04-13T12:09:14.674Z</time></trkpt><trkpt lat="38.4839727" lon="-1.6958615"><ele>493.66666666666663</ele><time>2026-04-13T12:09:15.674Z</time></trkpt><trkpt lat="38.4839999" lon="-1.6956405"><ele>493.33333333333337</ele><time>2026-04-13T12:09:16.674Z</time></trkpt><trkpt lat="38.4840253" lon="-1.6954185"><ele>493.0</ele><time>2026-04-13T12:09:17.674Z</time></trkpt><trkpt lat="38.4840531" lon="-1.6952051"><ele>493.6666666666667</ele><time>2026-04-13T12:09:18.674Z</time></trkpt><trkpt lat="38.484081" lon="-1.6949915"><ele>494.33333333333337</ele><time>2026-04-13T12:09:19.674Z</time></trkpt><trkpt lat="38.4841099" lon="-1.6947759"><ele>495.0</ele><time>2026-04-13T12:09:20.675Z</time></trkpt><trkpt lat="38.4841361" lon="-1.6945558"><ele>495.33333333333337</ele><time>2026-04-13T12:09:21.674Z</time></trkpt><trkpt lat="38.4841641" lon="-1.6943374"><ele>495.6666666666667</ele><time>2026-04-13T12:09:22.674Z</time></trkpt><trkpt lat="38.484193" lon="-1.694122"><ele>496.0</ele><time>2026-04-13T12:09:23.674Z</time></trkpt><trkpt lat="38.484221" lon="-1.6939011"><ele>496.0</ele><time>2026-04-13T12:09:24.674Z</time></trkpt><trkpt lat="38.484247" lon="-1.6936826"><ele>496.0</ele><time>2026-04-13T12:09:25.674Z</time></trkpt><trkpt lat="38.4842696" lon="-1.6934658"><ele>496.0</ele><time>2026-04-13T12:09:26.674Z</time></trkpt><trkpt lat="38.4842945" lon="-1.6932441"><ele>496.0</ele><time>2026-04-13T12:09:27.674Z</time></trkpt><trkpt lat="38.4843175" lon="-1.693021"><ele>496.0</ele><time>2026-04-13T12:09:28.674Z</time></trkpt><trkpt lat="38.4843434" lon="-1.6928013"><ele>496.0</ele><time>2026-04-13T12:09:29.674Z</time></trkpt><trkpt lat="38.4843736" lon="-1.6925763"><ele>496.0</ele><time>2026-04-13T12:09:30.674Z</time></trkpt><trkpt lat="38.4844026" lon="-1.6923477"><ele>496.0</ele><time>2026-04-13T12:09:31.674Z</time></trkpt><trkpt lat="38.4844288" lon="-1.692118"><ele>496.0</ele><time>2026-04-13T12:09:32.674Z</time></trkpt><trkpt lat="38.4844426" lon="-1.6918919"><ele>496.0</ele><time>2026-04-13T12:09:33.674Z</time></trkpt><trkpt lat="38.4844681" lon="-1.6916617"><ele>496.0</ele><time>2026-04-13T12:09:34.674Z</time></trkpt><trkpt lat="38.4844947" lon="-1.6914349"><ele>496.0</ele><time>2026-04-13T12:09:35.675Z</time></trkpt><trkpt lat="38.4845215" lon="-1.6912103"><ele>496.0</ele><time>2026-04-13T12:09:36.674Z</time></trkpt><trkpt lat="38.4845496" lon="-1.6909907"><ele>496.0</ele><time>2026-04-13T12:09:37.674Z</time></trkpt><trkpt lat="38.4845738" lon="-1.6907711"><ele>496.0</ele><time>2026-04-13T12:09:38.674Z</time></trkpt><trkpt lat="38.4846016" lon="-1.690548"><ele>496.0</ele><time>2026-04-13T12:09:39.675Z</time></trkpt><trkpt lat="38.4846328" lon="-1.6903293"><ele>496.0</ele><time>2026-04-13T12:09:40.674Z</time></trkpt><trkpt lat="38.4846582" lon="-1.6901111"><ele>496.0</ele><time>2026-04-13T12:09:41.674Z</time></trkpt><trkpt lat="38.4846836" lon="-1.6898903"><ele>495.6666666666667</ele><time>2026-04-13T12:09:42.674Z</time></trkpt><trkpt lat="38.4847122" lon="-1.6896688"><ele>495.33333333333337</ele><time>2026-04-13T12:09:43.674Z</time></trkpt><trkpt lat="38.4847399" lon="-1.6894452"><ele>495.0</ele><time>2026-04-13T12:09:44.674Z</time></trkpt><trkpt lat="38.4847666" lon="-1.6892206"><ele>495.0</ele><time>2026-04-13T12:09:45.674Z</time></trkpt><trkpt lat="38.4847978" lon="-1.6889944"><ele>495.0</ele><time>2026-04-13T12:09:46.674Z</time></trkpt><trkpt lat="38.4848274" lon="-1.6887668"><ele>495.0</ele><time>2026-04-13T12:09:47.674Z</time></trkpt><trkpt lat="38.484858" lon="-1.6885358"><ele>495.0</ele><time>2026-04-13T12:09:48.674Z</time></trkpt><trkpt lat="38.4848871" lon="-1.6883086"><ele>495.0</ele><time>2026-04-13T12:09:49.674Z</time></trkpt><trkpt lat="38.4849165" lon="-1.6880743"><ele>495.0</ele><time>2026-04-13T12:09:50.674Z</time></trkpt><trkpt lat="38.4849451" lon="-1.6878428"><ele>494.66666666666663</ele><time>2026-04-13T12:09:51.674Z</time></trkpt><trkpt lat="38.4849746" lon="-1.6876122"><ele>494.3333333333333</ele><time>2026-04-13T12:09:52.674Z</time></trkpt><trkpt lat="38.4849998" lon="-1.6873854"><ele>494.0</ele><time>2026-04-13T12:09:53.674Z</time></trkpt><trkpt lat="38.4850258" lon="-1.6871632"><ele>494.0</ele><time>2026-04-13T12:09:54.674Z</time></trkpt><trkpt lat="38.4850513" lon="-1.6869421"><ele>494.0</ele><time>2026-04-13T12:09:55.674Z</time></trkpt><trkpt lat="38.4850778" lon="-1.6867144"><ele>494.0</ele><time>2026-04-13T12:09:56.674Z</time></trkpt><trkpt lat="38.4851051" lon="-1.6864866"><ele>493.66666666666663</ele><time>2026-04-13T12:09:57.674Z</time></trkpt><trkpt lat="38.4851305" lon="-1.6862581"><ele>493.33333333333337</ele><time>2026-04-13T12:09:58.674Z</time></trkpt><trkpt lat="38.4851583" lon="-1.686032"><ele>493.0</ele><time>2026-04-13T12:09:59.674Z</time></trkpt><trkpt lat="38.4851842" lon="-1.6858051"><ele>493.0</ele><time>2026-04-13T12:10:00.674Z</time></trkpt><trkpt lat="38.4852158" lon="-1.6855784"><ele>493.0</ele><time>2026-04-13T12:10:01.674Z</time></trkpt><trkpt lat="38.4852427" lon="-1.6853501"><ele>493.0</ele><time>2026-04-13T12:10:02.674Z</time></trkpt><trkpt lat="38.4852694" lon="-1.6851231"><ele>492.6666666666667</ele><time>2026-04-13T12:10:03.674Z</time></trkpt><trkpt lat="38.4852968" lon="-1.6848957"><ele>492.33333333333337</ele><time>2026-04-13T12:10:04.674Z</time></trkpt><trkpt lat="38.4853248" lon="-1.6846654"><ele>492.0</ele><time>2026-04-13T12:10:05.674Z</time></trkpt><trkpt lat="38.485353" lon="-1.6844344"><ele>492.0</ele><time>2026-04-13T12:10:06.674Z</time></trkpt><trkpt lat="38.4853769" lon="-1.6842046"><ele>492.0</ele><time>2026-04-13T12:10:07.674Z</time></trkpt><trkpt lat="38.4854074" lon="-1.6839793"><ele>492.0</ele><time>2026-04-13T12:10:08.674Z</time></trkpt><trkpt lat="38.485436" lon="-1.6837599"><ele>491.33333333333337</ele><time>2026-04-13T12:10:09.674Z</time></trkpt><trkpt lat="38.4854599" lon="-1.6835426"><ele>490.6666666666667</ele><time>2026-04-13T12:10:10.675Z</time></trkpt><trkpt lat="38.4854829" lon="-1.6833331"><ele>490.0</ele><time>2026-04-13T12:10:11.675Z</time></trkpt><trkpt lat="38.4855" lon="-1.6831519"><ele>490.0</ele><time>2026-04-13T12:10:12.674Z</time></trkpt><trkpt lat="38.4855238" lon="-1.6829776"><ele>490.0</ele><time>2026-04-13T12:10:13.674Z</time></trkpt><trkpt lat="38.4855478" lon="-1.6828008"><ele>490.0</ele><time>2026-04-13T12:10:14.674Z</time></trkpt><trkpt lat="38.4855677" lon="-1.6826319"><ele>490.0</ele><time>2026-04-13T12:10:15.674Z</time></trkpt><trkpt lat="38.4855895" lon="-1.6824625"><ele>490.25</ele><time>2026-04-13T12:10:16.674Z</time></trkpt><trkpt lat="38.4856145" lon="-1.682293"><ele>490.5</ele><time>2026-04-13T12:10:17.674Z</time></trkpt><trkpt lat="38.4856363" lon="-1.6821188"><ele>490.75</ele><time>2026-04-13T12:10:18.674Z</time></trkpt><trkpt lat="38.4856578" lon="-1.6819389"><ele>491.0</ele><time>2026-04-13T12:10:19.674Z</time></trkpt><trkpt lat="38.4856819" lon="-1.6817625"><ele>491.0</ele><time>2026-04-13T12:10:20.674Z</time></trkpt><trkpt lat="38.4857044" lon="-1.6815769"><ele>491.0</ele><time>2026-04-13T12:10:21.674Z</time></trkpt><trkpt lat="38.4857286" lon="-1.6813915"><ele>491.0</ele><time>2026-04-13T12:10:22.674Z</time></trkpt><trkpt lat="38.4857514" lon="-1.6812056"><ele>491.0</ele><time>2026-04-13T12:10:23.674Z</time></trkpt><trkpt lat="38.4857749" lon="-1.6810241"><ele>491.3333333333333</ele><time>2026-04-13T12:10:24.675Z</time></trkpt><trkpt lat="38.4857997" lon="-1.6808344"><ele>491.66666666666663</ele><time>2026-04-13T12:10:25.674Z</time></trkpt><trkpt lat="38.4858234" lon="-1.6806435"><ele>492.0</ele><time>2026-04-13T12:10:26.674Z</time></trkpt><trkpt lat="38.4858475" lon="-1.6804497"><ele>491.75</ele><time>2026-04-13T12:10:27.674Z</time></trkpt><trkpt lat="38.4858738" lon="-1.6802561"><ele>491.5</ele><time>2026-04-13T12:10:28.675Z</time></trkpt><trkpt lat="38.4858944" lon="-1.680071"><ele>491.25</ele><time>2026-04-13T12:10:29.674Z</time></trkpt><trkpt lat="38.4859156" lon="-1.6798834"><ele>491.0</ele><time>2026-04-13T12:10:30.674Z</time></trkpt><trkpt lat="38.4859362" lon="-1.6797046"><ele>491.0</ele><time>2026-04-13T12:10:31.675Z</time></trkpt><trkpt lat="38.4859535" lon="-1.679527"><ele>491.0</ele><time>2026-04-13T12:10:32.674Z</time></trkpt><trkpt lat="38.4859546" lon="-1.6793732"><ele>491.0</ele><time>2026-04-13T12:10:33.674Z</time></trkpt><trkpt lat="38.4859442" lon="-1.6792479"><ele>491.0</ele><time>2026-04-13T12:10:34.674Z</time></trkpt><trkpt lat="38.4859255" lon="-1.6791399"><ele>491.0</ele><time>2026-04-13T12:10:35.674Z</time></trkpt><trkpt lat="38.4858995" lon="-1.6790427"><ele>490.8</ele><time>2026-04-13T12:10:36.674Z</time></trkpt><trkpt lat="38.4858828" lon="-1.6789373"><ele>490.6</ele><time>2026-04-13T12:10:37.674Z</time></trkpt><trkpt lat="38.4858837" lon="-1.6788173"><ele>490.4</ele><time>2026-04-13T12:10:38.674Z</time></trkpt><trkpt lat="38.485902" lon="-1.6786902"><ele>490.2</ele><time>2026-04-13T12:10:39.674Z</time></trkpt><trkpt lat="38.4859151" lon="-1.6785552"><ele>490.0</ele><time>2026-04-13T12:10:40.674Z</time></trkpt><trkpt lat="38.4859153" lon="-1.6784092"><ele>490.0</ele><time>2026-04-13T12:10:41.674Z</time></trkpt><trkpt lat="38.4859051" lon="-1.6782499"><ele>490.0</ele><time>2026-04-13T12:10:42.674Z</time></trkpt><trkpt lat="38.4858942" lon="-1.6780839"><ele>490.0</ele><time>2026-04-13T12:10:43.674Z</time></trkpt><trkpt lat="38.4858784" lon="-1.6779047"><ele>490.0</ele><time>2026-04-13T12:10:44.675Z</time></trkpt><trkpt lat="38.4858592" lon="-1.6777151"><ele>489.6666666666667</ele><time>2026-04-13T12:10:45.674Z</time></trkpt><trkpt lat="38.4858388" lon="-1.6775152"><ele>489.33333333333337</ele><time>2026-04-13T12:10:46.674Z</time></trkpt><trkpt lat="38.4858184" lon="-1.6773052"><ele>489.0</ele><time>2026-04-13T12:10:47.674Z</time></trkpt><trkpt lat="38.4857985" lon="-1.6770938"><ele>489.33333333333337</ele><time>2026-04-13T12:10:48.674Z</time></trkpt><trkpt lat="38.4857771" lon="-1.6768811"><ele>489.6666666666667</ele><time>2026-04-13T12:10:49.674Z</time></trkpt><trkpt lat="38.4857548" lon="-1.6766604"><ele>490.0</ele><time>2026-04-13T12:10:50.674Z</time></trkpt><trkpt lat="38.4857293" lon="-1.6764356"><ele>490.0</ele><time>2026-04-13T12:10:51.674Z</time></trkpt><trkpt lat="38.4857033" lon="-1.6762116"><ele>490.0</ele><time>2026-04-13T12:10:52.674Z</time></trkpt><trkpt lat="38.4856838" lon="-1.6759857"><ele>490.0</ele><time>2026-04-13T12:10:53.674Z</time></trkpt><trkpt lat="38.4856574" lon="-1.6757675"><ele>489.6666666666667</ele><time>2026-04-13T12:10:54.674Z</time></trkpt><trkpt lat="38.4856331" lon="-1.6755454"><ele>489.33333333333337</ele><time>2026-04-13T12:10:55.674Z</time></trkpt><trkpt lat="38.4856085" lon="-1.6753202"><ele>489.0</ele><time>2026-04-13T12:10:56.674Z</time></trkpt><trkpt lat="38.4855884" lon="-1.6750989"><ele>488.66666666666663</ele><time>2026-04-13T12:10:57.674Z</time></trkpt><trkpt lat="38.4855685" lon="-1.674878"><ele>488.3333333333333</ele><time>2026-04-13T12:10:58.675Z</time></trkpt><trkpt lat="38.4855477" lon="-1.6746572"><ele>488.0</ele><time>2026-04-13T12:10:59.674Z</time></trkpt><trkpt lat="38.4855264" lon="-1.6744373"><ele>488.66666666666663</ele><time>2026-04-13T12:11:00.674Z</time></trkpt><trkpt lat="38.4855056" lon="-1.6742149"><ele>489.33333333333337</ele><time>2026-04-13T12:11:01.674Z</time></trkpt><trkpt lat="38.4854885" lon="-1.6739958"><ele>490.0</ele><time>2026-04-13T12:11:02.674Z</time></trkpt><trkpt lat="38.485474" lon="-1.6737821"><ele>489.6666666666667</ele><time>2026-04-13T12:11:03.674Z</time></trkpt><trkpt lat="38.4854583" lon="-1.6735704"><ele>489.33333333333337</ele><time>2026-04-13T12:11:04.674Z</time></trkpt><trkpt lat="38.4854435" lon="-1.6733641"><ele>489.0</ele><time>2026-04-13T12:11:05.674Z</time></trkpt><trkpt lat="38.485428" lon="-1.6731485"><ele>487.66666666666663</ele><time>2026-04-13T12:11:06.674Z</time></trkpt><trkpt lat="38.4854128" lon="-1.6729352"><ele>486.3333333333333</ele><time>2026-04-13T12:11:07.674Z</time></trkpt><trkpt lat="38.4853967" lon="-1.672727"><ele>485.0</ele><time>2026-04-13T12:11:08.674Z</time></trkpt><trkpt lat="38.4853776" lon="-1.6725214"><ele>485.0</ele><time>2026-04-13T12:11:09.674Z</time></trkpt><trkpt lat="38.4853567" lon="-1.6723126"><ele>485.0</ele><time>2026-04-13T12:11:10.674Z</time></trkpt><trkpt lat="38.4853386" lon="-1.6721093"><ele>485.0</ele><time>2026-04-13T12:11:11.674Z</time></trkpt><trkpt lat="38.4853221" lon="-1.6719056"><ele>485.3333333333333</ele><time>2026-04-13T12:11:12.674Z</time></trkpt><trkpt lat="38.4853185" lon="-1.6717041"><ele>485.66666666666663</ele><time>2026-04-13T12:11:13.674Z</time></trkpt><trkpt lat="38.4853264" lon="-1.6714874"><ele>486.0</ele><time>2026-04-13T12:11:14.674Z</time></trkpt><trkpt lat="38.4853484" lon="-1.6712755"><ele>486.33333333333337</ele><time>2026-04-13T12:11:15.674Z</time></trkpt><trkpt lat="38.4853845" lon="-1.6710424"><ele>486.6666666666667</ele><time>2026-04-13T12:11:16.674Z</time></trkpt><trkpt lat="38.4854225" lon="-1.6708122"><ele>487.0</ele><time>2026-04-13T12:11:17.674Z</time></trkpt><trkpt lat="38.4854596" lon="-1.6705728"><ele>487.33333333333337</ele><time>2026-04-13T12:11:18.674Z</time></trkpt><trkpt lat="38.4854941" lon="-1.6703411"><ele>487.66666666666663</ele><time>2026-04-13T12:11:19.674Z</time></trkpt><trkpt lat="38.4855299" lon="-1.6701106"><ele>488.0</ele><time>2026-04-13T12:11:20.674Z</time></trkpt><trkpt lat="38.4855633" lon="-1.6698788"><ele>488.0</ele><time>2026-04-13T12:11:21.674Z</time></trkpt><trkpt lat="38.4855956" lon="-1.6696512"><ele>488.0</ele><time>2026-04-13T12:11:22.674Z</time></trkpt><trkpt lat="38.4856313" lon="-1.6694185"><ele>488.0</ele><time>2026-04-13T12:11:23.674Z</time></trkpt><trkpt lat="38.4856633" lon="-1.6691865"><ele>488.0</ele><time>2026-04-13T12:11:24.674Z</time></trkpt><trkpt lat="38.4857018" lon="-1.6689413"><ele>488.0</ele><time>2026-04-13T12:11:25.674Z</time></trkpt><trkpt lat="38.485734" lon="-1.6686942"><ele>488.0</ele><time>2026-04-13T12:11:26.674Z</time></trkpt><trkpt lat="38.4857772" lon="-1.6684415"><ele>487.66666666666663</ele><time>2026-04-13T12:11:27.674Z</time></trkpt><trkpt lat="38.4858185" lon="-1.6681898"><ele>487.33333333333337</ele><time>2026-04-13T12:11:28.674Z</time></trkpt><trkpt lat="38.4858575" lon="-1.6679389"><ele>487.0</ele><time>2026-04-13T12:11:29.674Z</time></trkpt><trkpt lat="38.4858931" lon="-1.6677083"><ele>487.0</ele><time>2026-04-13T12:11:30.674Z</time></trkpt><trkpt lat="38.4859298" lon="-1.6675162"><ele>487.0</ele><time>2026-04-13T12:11:31.674Z</time></trkpt><trkpt lat="38.4859555" lon="-1.6673598"><ele>487.0</ele><time>2026-04-13T12:11:32.674Z</time></trkpt><trkpt lat="38.485976" lon="-1.6672502"><ele>487.0</ele><time>2026-04-13T12:11:33.674Z</time></trkpt><trkpt lat="38.4859931" lon="-1.6671408"><ele>487.0</ele><time>2026-04-13T12:11:35.674Z</time></trkpt><trkpt lat="38.485948" lon="-1.667079"><ele>487.0</ele><time>2026-04-13T12:11:42.674Z</time></trkpt><trkpt lat="38.485904" lon="-1.6670051"><ele>487.0</ele><time>2026-04-13T12:13:12.705Z</time></trkpt><trkpt lat="38.4858441" lon="-1.666952"><ele>487.0</ele><time>2026-04-13T12:13:14.702Z</time></trkpt><trkpt lat="38.4857722" lon="-1.6668991"><ele>487.0</ele><time>2026-04-13T12:13:16.705Z</time></trkpt><trkpt lat="38.485712" lon="-1.6668572"><ele>487.0</ele><time>2026-04-13T12:13:18.701Z</time></trkpt><trkpt lat="38.4856661" lon="-1.666787"><ele>487.0</ele><time>2026-04-13T12:13:22.699Z</time></trkpt><trkpt lat="38.4857289" lon="-1.6668172"><ele>487.00000000000006</ele><time>2026-04-13T12:13:37.734Z</time></trkpt><trkpt lat="38.4857883" lon="-1.6668919"><ele>487.0</ele><time>2026-04-13T12:13:41.706Z</time></trkpt><trkpt lat="38.485852" lon="-1.6669706"><ele>487.0</ele><time>2026-04-13T12:13:44.704Z</time></trkpt><trkpt lat="38.4859163" lon="-1.6670335"><ele>487.0</ele><time>2026-04-13T12:13:47.7Z</time></trkpt><trkpt lat="38.4859781" lon="-1.6670519"><ele>487.00000000000006</ele><time>2026-04-13T12:13:51.74Z</time></trkpt><trkpt lat="38.4860512" lon="-1.6670263"><ele>487.0</ele><time>2026-04-13T12:13:55.712Z</time></trkpt><trkpt lat="38.4860491" lon="-1.6668694"><ele>486.8</ele><time>2026-04-13T12:13:56.701Z</time></trkpt><trkpt lat="38.486064" lon="-1.666783"><ele>486.6</ele><time>2026-04-13T12:13:57.702Z</time></trkpt><trkpt lat="38.4860833" lon="-1.6666757"><ele>486.40000000000003</ele><time>2026-04-13T12:13:58.729Z</time></trkpt><trkpt lat="38.4861046" lon="-1.6665484"><ele>486.20000000000005</ele><time>2026-04-13T12:13:59.703Z</time></trkpt><trkpt lat="38.486128" lon="-1.6664177"><ele>486.0</ele><time>2026-04-13T12:14:00.703Z</time></trkpt><trkpt lat="38.4861595" lon="-1.6662697"><ele>486.25</ele><time>2026-04-13T12:14:01.701Z</time></trkpt><trkpt lat="38.4861897" lon="-1.6661105"><ele>486.5</ele><time>2026-04-13T12:14:02.708Z</time></trkpt><trkpt lat="38.4862227" lon="-1.6659298"><ele>486.75</ele><time>2026-04-13T12:14:03.7Z</time></trkpt><trkpt lat="38.4862551" lon="-1.6657427"><ele>487.0</ele><time>2026-04-13T12:14:04.7Z</time></trkpt><trkpt lat="38.4862883" lon="-1.6655441"><ele>487.0</ele><time>2026-04-13T12:14:05.699Z</time></trkpt><trkpt lat="38.4863249" lon="-1.6653357"><ele>487.0</ele><time>2026-04-13T12:14:06.709Z</time></trkpt><trkpt lat="38.4863653" lon="-1.6651186"><ele>487.0</ele><time>2026-04-13T12:14:07.717Z</time></trkpt><trkpt lat="38.4864036" lon="-1.6648965"><ele>487.0</ele><time>2026-04-13T12:14:08.711Z</time></trkpt><trkpt lat="38.4864441" lon="-1.6646687"><ele>487.0</ele><time>2026-04-13T12:14:09.713Z</time></trkpt><trkpt lat="38.4864881" lon="-1.664438"><ele>487.0</ele><time>2026-04-13T12:14:10.701Z</time></trkpt><trkpt lat="38.4865499" lon="-1.6642031"><ele>487.0</ele><time>2026-04-13T12:14:11.702Z</time></trkpt><trkpt lat="38.4866366" lon="-1.6639762"><ele>487.0</ele><time>2026-04-13T12:14:12.708Z</time></trkpt><trkpt lat="38.4867403" lon="-1.6637528"><ele>487.0</ele><time>2026-04-13T12:14:13.706Z</time></trkpt><trkpt lat="38.4868478" lon="-1.6635264"><ele>486.6666666666667</ele><time>2026-04-13T12:14:14.705Z</time></trkpt><trkpt lat="38.4869512" lon="-1.6632932"><ele>486.33333333333337</ele><time>2026-04-13T12:14:15.709Z</time></trkpt><trkpt lat="38.4870567" lon="-1.6630519"><ele>486.0</ele><time>2026-04-13T12:14:16.705Z</time></trkpt><trkpt lat="38.4871663" lon="-1.6628059"><ele>485.0</ele><time>2026-04-13T12:14:17.704Z</time></trkpt><trkpt lat="38.4872809" lon="-1.6625612"><ele>484.0</ele><time>2026-04-13T12:14:18.708Z</time></trkpt><trkpt lat="38.487392" lon="-1.6623101"><ele>483.0</ele><time>2026-04-13T12:14:19.711Z</time></trkpt><trkpt lat="38.4875041" lon="-1.6620573"><ele>483.5</ele><time>2026-04-13T12:14:20.702Z</time></trkpt><trkpt lat="38.487615" lon="-1.6618047"><ele>484.0</ele><time>2026-04-13T12:14:21.71Z</time></trkpt><trkpt lat="38.4877279" lon="-1.6615513"><ele>484.0</ele><time>2026-04-13T12:14:22.713Z</time></trkpt><trkpt lat="38.4878371" lon="-1.6613005"><ele>484.0</ele><time>2026-04-13T12:14:23.703Z</time></trkpt><trkpt lat="38.4880576" lon="-1.6607997"><ele>484.33333333333337</ele><time>2026-04-13T12:14:25.677Z</time></trkpt><trkpt lat="38.4881665" lon="-1.660553"><ele>484.66666666666663</ele><time>2026-04-13T12:14:26.673Z</time></trkpt><trkpt lat="38.4882769" lon="-1.6603052"><ele>485.0</ele><time>2026-04-13T12:14:27.689Z</time></trkpt><trkpt lat="38.4883875" lon="-1.6600587"><ele>485.0</ele><time>2026-04-13T12:14:28.676Z</time></trkpt><trkpt lat="38.4884981" lon="-1.6598131"><ele>485.0</ele><time>2026-04-13T12:14:29.684Z</time></trkpt><trkpt lat="38.4885994" lon="-1.6595662"><ele>485.0</ele><time>2026-04-13T12:14:30.686Z</time></trkpt><trkpt lat="38.4887071" lon="-1.659321"><ele>483.66666666666663</ele><time>2026-04-13T12:14:31.686Z</time></trkpt><trkpt lat="38.4888153" lon="-1.6590748"><ele>482.33333333333337</ele><time>2026-04-13T12:14:32.686Z</time></trkpt><trkpt lat="38.4889302" lon="-1.6588252"><ele>481.0</ele><time>2026-04-13T12:14:33.686Z</time></trkpt><trkpt lat="38.4890413" lon="-1.658576"><ele>480.5</ele><time>2026-04-13T12:14:34.686Z</time></trkpt><trkpt lat="38.4891554" lon="-1.6583233"><ele>480.0</ele><time>2026-04-13T12:14:35.686Z</time></trkpt><trkpt lat="38.4892705" lon="-1.6580693"><ele>480.0</ele><time>2026-04-13T12:14:36.686Z</time></trkpt><trkpt lat="38.4893827" lon="-1.6578152"><ele>480.0</ele><time>2026-04-13T12:14:37.686Z</time></trkpt><trkpt lat="38.4894931" lon="-1.6575566"><ele>479.5</ele><time>2026-04-13T12:14:38.686Z</time></trkpt><trkpt lat="38.4896179" lon="-1.6573103"><ele>479.0</ele><time>2026-04-13T12:14:39.686Z</time></trkpt><trkpt lat="38.4897166" lon="-1.6570453"><ele>479.66666666666663</ele><time>2026-04-13T12:14:40.687Z</time></trkpt><trkpt lat="38.4898292" lon="-1.6568047"><ele>480.33333333333337</ele><time>2026-04-13T12:14:41.686Z</time></trkpt><trkpt lat="38.4899436" lon="-1.6565637"><ele>481.0</ele><time>2026-04-13T12:14:42.686Z</time></trkpt><trkpt lat="38.4900458" lon="-1.6563294"><ele>481.0</ele><time>2026-04-13T12:14:43.686Z</time></trkpt><trkpt lat="38.4901336" lon="-1.6561205"><ele>481.0</ele><time>2026-04-13T12:14:44.686Z</time></trkpt><trkpt lat="38.4902199" lon="-1.6559132"><ele>481.0</ele><time>2026-04-13T12:14:45.686Z</time></trkpt><trkpt lat="38.4902945" lon="-1.6557035"><ele>480.6666666666667</ele><time>2026-04-13T12:14:46.686Z</time></trkpt><trkpt lat="38.4903656" lon="-1.6554847"><ele>480.33333333333337</ele><time>2026-04-13T12:14:47.686Z</time></trkpt><trkpt lat="38.4904399" lon="-1.6552708"><ele>480.0</ele><time>2026-04-13T12:14:48.686Z</time></trkpt><trkpt lat="38.4905073" lon="-1.6550485"><ele>479.66666666666663</ele><time>2026-04-13T12:14:49.686Z</time></trkpt><trkpt lat="38.4905697" lon="-1.6548265"><ele>479.3333333333333</ele><time>2026-04-13T12:14:50.686Z</time></trkpt><trkpt lat="38.4906349" lon="-1.6546152"><ele>479.0</ele><time>2026-04-13T12:14:51.686Z</time></trkpt><trkpt lat="38.4906956" lon="-1.654412"><ele>479.0</ele><time>2026-04-13T12:14:52.686Z</time></trkpt><trkpt lat="38.4907584" lon="-1.654201"><ele>479.0</ele><time>2026-04-13T12:14:53.686Z</time></trkpt><trkpt lat="38.4908146" lon="-1.654001"><ele>479.0</ele><time>2026-04-13T12:14:54.686Z</time></trkpt><trkpt lat="38.4908793" lon="-1.6537991"><ele>478.66666666666663</ele><time>2026-04-13T12:14:55.686Z</time></trkpt><trkpt lat="38.4909362" lon="-1.6535925"><ele>478.33333333333337</ele><time>2026-04-13T12:14:56.686Z</time></trkpt><trkpt lat="38.4909878" lon="-1.6533808"><ele>478.0</ele><time>2026-04-13T12:14:57.686Z</time></trkpt><trkpt lat="38.4910414" lon="-1.6531614"><ele>478.0</ele><time>2026-04-13T12:14:58.686Z</time></trkpt><trkpt lat="38.4910894" lon="-1.6529516"><ele>478.0</ele><time>2026-04-13T12:14:59.686Z</time></trkpt><trkpt lat="38.4911357" lon="-1.6527295"><ele>478.0</ele><time>2026-04-13T12:15:00.686Z</time></trkpt><trkpt lat="38.4911836" lon="-1.6525051"><ele>478.33333333333337</ele><time>2026-04-13T12:15:01.686Z</time></trkpt><trkpt lat="38.4912373" lon="-1.6522779"><ele>478.66666666666663</ele><time>2026-04-13T12:15:02.687Z</time></trkpt><trkpt lat="38.4912915" lon="-1.6520493"><ele>479.0</ele><time>2026-04-13T12:15:03.686Z</time></trkpt><trkpt lat="38.4913464" lon="-1.6518213"><ele>477.66666666666663</ele><time>2026-04-13T12:15:04.686Z</time></trkpt><trkpt lat="38.4913995" lon="-1.6515948"><ele>476.33333333333337</ele><time>2026-04-13T12:15:05.686Z</time></trkpt><trkpt lat="38.4914538" lon="-1.6513763"><ele>475.0</ele><time>2026-04-13T12:15:06.686Z</time></trkpt><trkpt lat="38.4915044" lon="-1.651166"><ele>475.33333333333337</ele><time>2026-04-13T12:15:07.686Z</time></trkpt><trkpt lat="38.491556" lon="-1.6509636"><ele>475.66666666666663</ele><time>2026-04-13T12:15:08.686Z</time></trkpt><trkpt lat="38.4916055" lon="-1.6507579"><ele>476.0</ele><time>2026-04-13T12:15:09.686Z</time></trkpt><trkpt lat="38.4916529" lon="-1.6505562"><ele>476.0</ele><time>2026-04-13T12:15:10.686Z</time></trkpt><trkpt lat="38.4916962" lon="-1.6503573"><ele>476.0</ele><time>2026-04-13T12:15:11.686Z</time></trkpt><trkpt lat="38.4917405" lon="-1.6501555"><ele>476.0</ele><time>2026-04-13T12:15:12.686Z</time></trkpt><trkpt lat="38.4917888" lon="-1.6499593"><ele>476.0</ele><time>2026-04-13T12:15:13.686Z</time></trkpt><trkpt lat="38.4918376" lon="-1.6497587"><ele>476.0</ele><time>2026-04-13T12:15:14.686Z</time></trkpt><trkpt lat="38.4918844" lon="-1.6495623"><ele>476.0</ele><time>2026-04-13T12:15:15.686Z</time></trkpt><trkpt lat="38.4919296" lon="-1.6493682"><ele>476.3333333333333</ele><time>2026-04-13T12:15:16.686Z</time></trkpt><trkpt lat="38.4919749" lon="-1.6491652"><ele>476.66666666666663</ele><time>2026-04-13T12:15:17.686Z</time></trkpt><trkpt lat="38.4920195" lon="-1.6489734"><ele>477.0</ele><time>2026-04-13T12:15:18.686Z</time></trkpt><trkpt lat="38.4920663" lon="-1.6487824"><ele>476.66666666666663</ele><time>2026-04-13T12:15:19.686Z</time></trkpt><trkpt lat="38.4921171" lon="-1.6485832"><ele>476.3333333333333</ele><time>2026-04-13T12:15:20.686Z</time></trkpt><trkpt lat="38.492166" lon="-1.6483787"><ele>476.0</ele><time>2026-04-13T12:15:21.686Z</time></trkpt><trkpt lat="38.4922153" lon="-1.6481722"><ele>476.0</ele><time>2026-04-13T12:15:22.686Z</time></trkpt><trkpt lat="38.4922724" lon="-1.6479582"><ele>476.0</ele><time>2026-04-13T12:15:23.686Z</time></trkpt><trkpt lat="38.4923255" lon="-1.6477454"><ele>476.0</ele><time>2026-04-13T12:15:24.686Z</time></trkpt><trkpt lat="38.492377" lon="-1.6475266"><ele>476.0</ele><time>2026-04-13T12:15:25.686Z</time></trkpt><trkpt lat="38.4924295" lon="-1.6473016"><ele>476.0</ele><time>2026-04-13T12:15:26.686Z</time></trkpt><trkpt lat="38.4924826" lon="-1.6470884"><ele>476.0</ele><time>2026-04-13T12:15:27.686Z</time></trkpt><trkpt lat="38.4925374" lon="-1.6468663"><ele>476.66666666666663</ele><time>2026-04-13T12:15:28.686Z</time></trkpt><trkpt lat="38.4925886" lon="-1.6466462"><ele>477.33333333333337</ele><time>2026-04-13T12:15:29.686Z</time></trkpt><trkpt lat="38.4926395" lon="-1.6464388"><ele>478.0</ele><time>2026-04-13T12:15:30.686Z</time></trkpt><trkpt lat="38.4926944" lon="-1.6462324"><ele>477.6666666666667</ele><time>2026-04-13T12:15:31.686Z</time></trkpt><trkpt lat="38.4927497" lon="-1.6460257"><ele>477.33333333333337</ele><time>2026-04-13T12:15:32.686Z</time></trkpt><trkpt lat="38.4928132" lon="-1.6458181"><ele>477.0</ele><time>2026-04-13T12:15:33.686Z</time></trkpt><trkpt lat="38.492871" lon="-1.6456097"><ele>476.33333333333337</ele><time>2026-04-13T12:15:34.686Z</time></trkpt><trkpt lat="38.4929395" lon="-1.6454045"><ele>475.6666666666667</ele><time>2026-04-13T12:15:35.686Z</time></trkpt><trkpt lat="38.4930068" lon="-1.645193"><ele>475.0</ele><time>2026-04-13T12:15:36.686Z</time></trkpt><trkpt lat="38.4930719" lon="-1.6449893"><ele>474.6666666666667</ele><time>2026-04-13T12:15:37.686Z</time></trkpt><trkpt lat="38.4931416" lon="-1.6447857"><ele>474.33333333333337</ele><time>2026-04-13T12:15:38.686Z</time></trkpt><trkpt lat="38.4932072" lon="-1.6445783"><ele>474.0</ele><time>2026-04-13T12:15:39.686Z</time></trkpt><trkpt lat="38.493269" lon="-1.6443697"><ele>474.66666666666663</ele><time>2026-04-13T12:15:40.686Z</time></trkpt><trkpt lat="38.4933265" lon="-1.6441663"><ele>475.3333333333333</ele><time>2026-04-13T12:15:41.686Z</time></trkpt><trkpt lat="38.4933865" lon="-1.6439669"><ele>476.0</ele><time>2026-04-13T12:15:42.686Z</time></trkpt><trkpt lat="38.4934469" lon="-1.6437724"><ele>476.0</ele><time>2026-04-13T12:15:43.686Z</time></trkpt><trkpt lat="38.4935085" lon="-1.6435814"><ele>476.0</ele><time>2026-04-13T12:15:44.686Z</time></trkpt><trkpt lat="38.4935711" lon="-1.6433879"><ele>476.0</ele><time>2026-04-13T12:15:45.686Z</time></trkpt><trkpt lat="38.4936265" lon="-1.643217"><ele>476.0</ele><time>2026-04-13T12:15:46.686Z</time></trkpt><trkpt lat="38.4936822" lon="-1.6430546"><ele>476.0</ele><time>2026-04-13T12:15:47.686Z</time></trkpt><trkpt lat="38.4937324" lon="-1.6429087"><ele>476.0</ele><time>2026-04-13T12:15:48.686Z</time></trkpt><trkpt lat="38.4937643" lon="-1.6427707"><ele>476.0</ele><time>2026-04-13T12:15:49.686Z</time></trkpt><trkpt lat="38.4937761" lon="-1.6426504"><ele>475.8</ele><time>2026-04-13T12:15:50.686Z</time></trkpt><trkpt lat="38.493767" lon="-1.6425255"><ele>475.6</ele><time>2026-04-13T12:15:51.686Z</time></trkpt><trkpt lat="38.4937503" lon="-1.6424041"><ele>475.4</ele><time>2026-04-13T12:15:52.686Z</time></trkpt><trkpt lat="38.4937416" lon="-1.6422724"><ele>475.2</ele><time>2026-04-13T12:15:53.686Z</time></trkpt><trkpt lat="38.4937343" lon="-1.6421262"><ele>475.0</ele><time>2026-04-13T12:15:54.686Z</time></trkpt><trkpt lat="38.4937065" lon="-1.6419701"><ele>474.5</ele><time>2026-04-13T12:15:55.686Z</time></trkpt><trkpt lat="38.4936468" lon="-1.641814"><ele>474.0</ele><time>2026-04-13T12:15:56.686Z</time></trkpt><trkpt lat="38.4935592" lon="-1.6416571"><ele>473.5</ele><time>2026-04-13T12:15:57.686Z</time></trkpt><trkpt lat="38.4934775" lon="-1.641497"><ele>473.0</ele><time>2026-04-13T12:15:58.686Z</time></trkpt><trkpt lat="38.4933795" lon="-1.6413344"><ele>473.0</ele><time>2026-04-13T12:15:59.686Z</time></trkpt><trkpt lat="38.4932777" lon="-1.6411657"><ele>473.0</ele><time>2026-04-13T12:16:00.686Z</time></trkpt><trkpt lat="38.4931772" lon="-1.6409833"><ele>473.0</ele><time>2026-04-13T12:16:01.686Z</time></trkpt><trkpt lat="38.4930775" lon="-1.6407929"><ele>472.66666666666663</ele><time>2026-04-13T12:16:02.686Z</time></trkpt><trkpt lat="38.4929851" lon="-1.6405859"><ele>472.33333333333337</ele><time>2026-04-13T12:16:03.686Z</time></trkpt><trkpt lat="38.4928958" lon="-1.640371"><ele>472.0</ele><time>2026-04-13T12:16:04.686Z</time></trkpt><trkpt lat="38.492811" lon="-1.6401411"><ele>472.33333333333337</ele><time>2026-04-13T12:16:05.686Z</time></trkpt><trkpt lat="38.4927355" lon="-1.6398978"><ele>472.66666666666663</ele><time>2026-04-13T12:16:06.686Z</time></trkpt><trkpt lat="38.4926689" lon="-1.6396398"><ele>473.0</ele><time>2026-04-13T12:16:07.686Z</time></trkpt><trkpt lat="38.4926115" lon="-1.6393737"><ele>473.0</ele><time>2026-04-13T12:16:08.686Z</time></trkpt><trkpt lat="38.4925622" lon="-1.6390977"><ele>473.0</ele><time>2026-04-13T12:16:09.686Z</time></trkpt><trkpt lat="38.4925231" lon="-1.6388069"><ele>473.0</ele><time>2026-04-13T12:16:10.686Z</time></trkpt><trkpt lat="38.4924966" lon="-1.6385066"><ele>473.0</ele><time>2026-04-13T12:16:11.686Z</time></trkpt><trkpt lat="38.4924851" lon="-1.6382001"><ele>473.0</ele><time>2026-04-13T12:16:12.686Z</time></trkpt><trkpt lat="38.4924864" lon="-1.6378855"><ele>473.0</ele><time>2026-04-13T12:16:13.686Z</time></trkpt><trkpt lat="38.492496" lon="-1.6375702"><ele>473.5</ele><time>2026-04-13T12:16:14.686Z</time></trkpt><trkpt lat="38.492509" lon="-1.6372487"><ele>474.0</ele><time>2026-04-13T12:16:15.686Z</time></trkpt><trkpt lat="38.4925222" lon="-1.6369236"><ele>474.0</ele><time>2026-04-13T12:16:16.686Z</time></trkpt><trkpt lat="38.4925383" lon="-1.6365974"><ele>474.0</ele><time>2026-04-13T12:16:17.686Z</time></trkpt><trkpt lat="38.4925548" lon="-1.6362643"><ele>473.0</ele><time>2026-04-13T12:16:18.686Z</time></trkpt><trkpt lat="38.4925674" lon="-1.6359331"><ele>472.0</ele><time>2026-04-13T12:16:19.686Z</time></trkpt><trkpt lat="38.4925833" lon="-1.6355997"><ele>472.0</ele><time>2026-04-13T12:16:20.686Z</time></trkpt><trkpt lat="38.4925942" lon="-1.6352621"><ele>472.0</ele><time>2026-04-13T12:16:21.687Z</time></trkpt><trkpt lat="38.4926081" lon="-1.6349267"><ele>472.0</ele><time>2026-04-13T12:16:22.686Z</time></trkpt><trkpt lat="38.4926175" lon="-1.6345854"><ele>472.0</ele><time>2026-04-13T12:16:23.686Z</time></trkpt><trkpt lat="38.4926343" lon="-1.6342493"><ele>472.0</ele><time>2026-04-13T12:16:24.686Z</time></trkpt><trkpt lat="38.4926489" lon="-1.6339113"><ele>472.0</ele><time>2026-04-13T12:16:25.686Z</time></trkpt><trkpt lat="38.4926553" lon="-1.633573"><ele>472.0</ele><time>2026-04-13T12:16:26.686Z</time></trkpt><trkpt lat="38.4926698" lon="-1.6332395"><ele>472.0</ele><time>2026-04-13T12:16:27.686Z</time></trkpt><trkpt lat="38.492686" lon="-1.6329053"><ele>472.0</ele><time>2026-04-13T12:16:28.686Z</time></trkpt><trkpt lat="38.4927031" lon="-1.6325724"><ele>472.0</ele><time>2026-04-13T12:16:29.686Z</time></trkpt><trkpt lat="38.4927153" lon="-1.6322374"><ele>472.0</ele><time>2026-04-13T12:16:30.686Z</time></trkpt><trkpt lat="38.4927327" lon="-1.6319061"><ele>472.0</ele><time>2026-04-13T12:16:31.686Z</time></trkpt><trkpt lat="38.4927496" lon="-1.6315743"><ele>472.0</ele><time>2026-04-13T12:16:32.686Z</time></trkpt><trkpt lat="38.4927675" lon="-1.6312443"><ele>472.0</ele><time>2026-04-13T12:16:33.686Z</time></trkpt><trkpt lat="38.4927816" lon="-1.6309191"><ele>473.0</ele><time>2026-04-13T12:16:34.686Z</time></trkpt><trkpt lat="38.492796" lon="-1.6305927"><ele>474.0</ele><time>2026-04-13T12:16:35.686Z</time></trkpt><trkpt lat="38.4928112" lon="-1.630275"><ele>474.5</ele><time>2026-04-13T12:16:36.686Z</time></trkpt><trkpt lat="38.4928232" lon="-1.6299682"><ele>475.0</ele><time>2026-04-13T12:16:37.686Z</time></trkpt><trkpt lat="38.4928271" lon="-1.629671"><ele>476.0</ele><time>2026-04-13T12:16:38.686Z</time></trkpt><trkpt lat="38.4928115" lon="-1.629382"><ele>477.0</ele><time>2026-04-13T12:16:39.686Z</time></trkpt><trkpt lat="38.492797" lon="-1.6290918"><ele>477.0</ele><time>2026-04-13T12:16:40.687Z</time></trkpt><trkpt lat="38.4927063" lon="-1.6288184"><ele>477.0</ele><time>2026-04-13T12:16:41.686Z</time></trkpt><trkpt lat="38.4926207" lon="-1.628548"><ele>475.5</ele><time>2026-04-13T12:16:42.686Z</time></trkpt><trkpt lat="38.4925153" lon="-1.628283"><ele>474.0</ele><time>2026-04-13T12:16:43.686Z</time></trkpt><trkpt lat="38.4923801" lon="-1.6280322"><ele>472.5</ele><time>2026-04-13T12:16:44.686Z</time></trkpt><trkpt lat="38.492221" lon="-1.6277959"><ele>471.0</ele><time>2026-04-13T12:16:45.686Z</time></trkpt><trkpt lat="38.4920523" lon="-1.6275709"><ele>471.0</ele><time>2026-04-13T12:16:46.686Z</time></trkpt><trkpt lat="38.491877" lon="-1.6273452"><ele>471.0</ele><time>2026-04-13T12:16:47.686Z</time></trkpt><trkpt lat="38.4916951" lon="-1.6271176"><ele>470.0</ele><time>2026-04-13T12:16:48.686Z</time></trkpt><trkpt lat="38.4915103" lon="-1.6268879"><ele>469.0</ele><time>2026-04-13T12:16:49.686Z</time></trkpt><trkpt lat="38.4913252" lon="-1.6266595"><ele>469.0</ele><time>2026-04-13T12:16:50.686Z</time></trkpt><trkpt lat="38.4911379" lon="-1.6264268"><ele>469.0</ele><time>2026-04-13T12:16:51.686Z</time></trkpt><trkpt lat="38.4909517" lon="-1.6261918"><ele>468.5</ele><time>2026-04-13T12:16:52.686Z</time></trkpt><trkpt lat="38.4907633" lon="-1.625957"><ele>468.0</ele><time>2026-04-13T12:16:53.686Z</time></trkpt><trkpt lat="38.4905769" lon="-1.625721"><ele>467.5</ele><time>2026-04-13T12:16:54.686Z</time></trkpt><trkpt lat="38.4903879" lon="-1.6254891"><ele>467.0</ele><time>2026-04-13T12:16:55.686Z</time></trkpt><trkpt lat="38.4901996" lon="-1.6252555"><ele>467.0</ele><time>2026-04-13T12:16:56.686Z</time></trkpt><trkpt lat="38.4900077" lon="-1.6250225"><ele>467.0</ele><time>2026-04-13T12:16:57.686Z</time></trkpt><trkpt lat="38.4898148" lon="-1.6247849"><ele>467.0</ele><time>2026-04-13T12:16:58.686Z</time></trkpt><trkpt lat="38.4896213" lon="-1.6245479"><ele>467.0</ele><time>2026-04-13T12:16:59.686Z</time></trkpt><trkpt lat="38.489431" lon="-1.6243084"><ele>466.5</ele><time>2026-04-13T12:17:00.686Z</time></trkpt><trkpt lat="38.4892435" lon="-1.6240689"><ele>466.0</ele><time>2026-04-13T12:17:01.686Z</time></trkpt><trkpt lat="38.4890538" lon="-1.6238329"><ele>465.5</ele><time>2026-04-13T12:17:02.686Z</time></trkpt><trkpt lat="38.4888662" lon="-1.6235992"><ele>465.0</ele><time>2026-04-13T12:17:03.686Z</time></trkpt><trkpt lat="38.4886818" lon="-1.6233643"><ele>464.0</ele><time>2026-04-13T12:17:04.686Z</time></trkpt><trkpt lat="38.4884957" lon="-1.6231345"><ele>463.0</ele><time>2026-04-13T12:17:05.686Z</time></trkpt><trkpt lat="38.4883123" lon="-1.622905"><ele>464.5</ele><time>2026-04-13T12:17:06.686Z</time></trkpt><trkpt lat="38.4881302" lon="-1.6226751"><ele>466.0</ele><time>2026-04-13T12:17:07.686Z</time></trkpt><trkpt lat="38.4879457" lon="-1.6224442"><ele>466.5</ele><time>2026-04-13T12:17:08.686Z</time></trkpt><trkpt lat="38.4877606" lon="-1.6222117"><ele>467.0</ele><time>2026-04-13T12:17:09.686Z</time></trkpt><trkpt lat="38.4875749" lon="-1.6219773"><ele>465.5</ele><time>2026-04-13T12:17:10.686Z</time></trkpt><trkpt lat="38.4873879" lon="-1.6217425"><ele>464.0</ele><time>2026-04-13T12:17:11.686Z</time></trkpt><trkpt lat="38.487199" lon="-1.6215086"><ele>464.5</ele><time>2026-04-13T12:17:12.686Z</time></trkpt><trkpt lat="38.4870091" lon="-1.6212773"><ele>465.0</ele><time>2026-04-13T12:17:13.686Z</time></trkpt><trkpt lat="38.4868226" lon="-1.6210423"><ele>464.0</ele><time>2026-04-13T12:17:14.686Z</time></trkpt><trkpt lat="38.4866378" lon="-1.620806"><ele>463.0</ele><time>2026-04-13T12:17:15.686Z</time></trkpt><trkpt lat="38.4864517" lon="-1.6205704"><ele>463.0</ele><time>2026-04-13T12:17:16.686Z</time></trkpt><trkpt lat="38.4862654" lon="-1.6203382"><ele>463.0</ele><time>2026-04-13T12:17:17.686Z</time></trkpt><trkpt lat="38.4860771" lon="-1.620104"><ele>462.5</ele><time>2026-04-13T12:17:18.686Z</time></trkpt><trkpt lat="38.4858883" lon="-1.619865"><ele>462.0</ele><time>2026-04-13T12:17:19.686Z</time></trkpt><trkpt lat="38.4856973" lon="-1.6196314"><ele>461.0</ele><time>2026-04-13T12:17:20.686Z</time></trkpt><trkpt lat="38.4855071" lon="-1.6193986"><ele>460.0</ele><time>2026-04-13T12:17:21.686Z</time></trkpt><trkpt lat="38.4853194" lon="-1.6191635"><ele>462.5</ele><time>2026-04-13T12:17:22.686Z</time></trkpt><trkpt lat="38.4851316" lon="-1.6189287"><ele>465.0</ele><time>2026-04-13T12:17:23.686Z</time></trkpt><trkpt lat="38.4849466" lon="-1.6186939"><ele>464.5</ele><time>2026-04-13T12:17:24.686Z</time></trkpt><trkpt lat="38.4847597" lon="-1.6184607"><ele>464.0</ele><time>2026-04-13T12:17:25.686Z</time></trkpt><trkpt lat="38.4845742" lon="-1.6182339"><ele>464.0</ele><time>2026-04-13T12:17:26.686Z</time></trkpt><trkpt lat="38.4843897" lon="-1.6180092"><ele>464.0</ele><time>2026-04-13T12:17:27.687Z</time></trkpt><trkpt lat="38.484211" lon="-1.6177895"><ele>463.0</ele><time>2026-04-13T12:17:28.686Z</time></trkpt><trkpt lat="38.4840304" lon="-1.6175689"><ele>462.0</ele><time>2026-04-13T12:17:29.686Z</time></trkpt><trkpt lat="38.4838567" lon="-1.6173418"><ele>463.0</ele><time>2026-04-13T12:17:30.686Z</time></trkpt><trkpt lat="38.4836907" lon="-1.6171005"><ele>464.0</ele><time>2026-04-13T12:17:31.686Z</time></trkpt><trkpt lat="38.483538" lon="-1.6168438"><ele>462.0</ele><time>2026-04-13T12:17:32.686Z</time></trkpt><trkpt lat="38.4833942" lon="-1.6165744"><ele>460.0</ele><time>2026-04-13T12:17:33.686Z</time></trkpt><trkpt lat="38.483251" lon="-1.6163014"><ele>458.0</ele><time>2026-04-13T12:17:34.686Z</time></trkpt><trkpt lat="38.4831095" lon="-1.6160307"><ele>456.0</ele><time>2026-04-13T12:17:35.686Z</time></trkpt><trkpt lat="38.4829669" lon="-1.6157606"><ele>457.5</ele><time>2026-04-13T12:17:36.686Z</time></trkpt><trkpt lat="38.4828266" lon="-1.6154921"><ele>459.0</ele><time>2026-04-13T12:17:37.687Z</time></trkpt><trkpt lat="38.4826796" lon="-1.6152294"><ele>459.0</ele><time>2026-04-13T12:17:38.686Z</time></trkpt><trkpt lat="38.4825274" lon="-1.6149558"><ele>459.0</ele><time>2026-04-13T12:17:39.686Z</time></trkpt><trkpt lat="38.4823829" lon="-1.6146782"><ele>459.0</ele><time>2026-04-13T12:17:40.686Z</time></trkpt><trkpt lat="38.4822331" lon="-1.6144031"><ele>459.0</ele><time>2026-04-13T12:17:41.686Z</time></trkpt><trkpt lat="38.4820846" lon="-1.6141274"><ele>459.0</ele><time>2026-04-13T12:17:42.686Z</time></trkpt><trkpt lat="38.4819349" lon="-1.6138494"><ele>459.0</ele><time>2026-04-13T12:17:43.686Z</time></trkpt><trkpt lat="38.4817835" lon="-1.6135707"><ele>457.0</ele><time>2026-04-13T12:17:44.686Z</time></trkpt><trkpt lat="38.4816352" lon="-1.6132942"><ele>455.0</ele><time>2026-04-13T12:17:45.686Z</time></trkpt><trkpt lat="38.4814777" lon="-1.6130262"><ele>455.5</ele><time>2026-04-13T12:17:46.686Z</time></trkpt><trkpt lat="38.4813056" lon="-1.6127729"><ele>456.0</ele><time>2026-04-13T12:17:47.686Z</time></trkpt><trkpt lat="38.4811272" lon="-1.6125371"><ele>456.0</ele><time>2026-04-13T12:17:48.686Z</time></trkpt><trkpt lat="38.4809484" lon="-1.6123033"><ele>456.0</ele><time>2026-04-13T12:17:49.686Z</time></trkpt><trkpt lat="38.4807565" lon="-1.6120783"><ele>454.0</ele><time>2026-04-13T12:17:50.686Z</time></trkpt><trkpt lat="38.4805708" lon="-1.6118531"><ele>452.0</ele><time>2026-04-13T12:17:51.686Z</time></trkpt><trkpt lat="38.4803888" lon="-1.6116251"><ele>452.0</ele><time>2026-04-13T12:17:52.686Z</time></trkpt><trkpt lat="38.4802051" lon="-1.6113976"><ele>452.0</ele><time>2026-04-13T12:17:53.686Z</time></trkpt><trkpt lat="38.4800252" lon="-1.6111657"><ele>450.0</ele><time>2026-04-13T12:17:54.686Z</time></trkpt><trkpt lat="38.4798498" lon="-1.6109217"><ele>448.0</ele><time>2026-04-13T12:17:55.686Z</time></trkpt><trkpt lat="38.4796943" lon="-1.6106604"><ele>446.5</ele><time>2026-04-13T12:17:56.686Z</time></trkpt><trkpt lat="38.4795516" lon="-1.6103785"><ele>445.0</ele><time>2026-04-13T12:17:57.686Z</time></trkpt><trkpt lat="38.4794235" lon="-1.6100908"><ele>445.0</ele><time>2026-04-13T12:17:58.686Z</time></trkpt><trkpt lat="38.4792986" lon="-1.6098016"><ele>445.0</ele><time>2026-04-13T12:17:59.686Z</time></trkpt><trkpt lat="38.4791701" lon="-1.6095095"><ele>445.5</ele><time>2026-04-13T12:18:00.686Z</time></trkpt><trkpt lat="38.4790396" lon="-1.6092058"><ele>446.0</ele><time>2026-04-13T12:18:01.686Z</time></trkpt><trkpt lat="38.4789068" lon="-1.6089145"><ele>447.0</ele><time>2026-04-13T12:18:02.686Z</time></trkpt><trkpt lat="38.4787785" lon="-1.6086124"><ele>448.0</ele><time>2026-04-13T12:18:03.686Z</time></trkpt><trkpt lat="38.4786574" lon="-1.6083039"><ele>451.5</ele><time>2026-04-13T12:18:04.686Z</time></trkpt><trkpt lat="38.4785453" lon="-1.6079956"><ele>455.0</ele><time>2026-04-13T12:18:05.686Z</time></trkpt><trkpt lat="38.4784387" lon="-1.6076807"><ele>455.0</ele><time>2026-04-13T12:18:06.686Z</time></trkpt><trkpt lat="38.4783341" lon="-1.607366"><ele>455.0</ele><time>2026-04-13T12:18:07.686Z</time></trkpt><trkpt lat="38.4782341" lon="-1.6070512"><ele>456.0</ele><time>2026-04-13T12:18:08.686Z</time></trkpt><trkpt lat="38.4781411" lon="-1.6067359"><ele>457.0</ele><time>2026-04-13T12:18:09.686Z</time></trkpt><trkpt lat="38.4780586" lon="-1.6064193"><ele>456.5</ele><time>2026-04-13T12:18:10.686Z</time></trkpt><trkpt lat="38.4779856" lon="-1.6060974"><ele>456.0</ele><time>2026-04-13T12:18:11.686Z</time></trkpt><trkpt lat="38.4779246" lon="-1.6057685"><ele>457.5</ele><time>2026-04-13T12:18:12.686Z</time></trkpt><trkpt lat="38.4778743" lon="-1.6054421"><ele>459.0</ele><time>2026-04-13T12:18:13.686Z</time></trkpt><trkpt lat="38.4778362" lon="-1.6051203"><ele>459.0</ele><time>2026-04-13T12:18:14.686Z</time></trkpt><trkpt lat="38.4777896" lon="-1.604805"><ele>459.0</ele><time>2026-04-13T12:18:15.686Z</time></trkpt><trkpt lat="38.4777373" lon="-1.6044955"><ele>458.0</ele><time>2026-04-13T12:18:16.686Z</time></trkpt><trkpt lat="38.4776657" lon="-1.604192"><ele>457.0</ele><time>2026-04-13T12:18:17.686Z</time></trkpt><trkpt lat="38.4775706" lon="-1.6038946"><ele>457.5</ele><time>2026-04-13T12:18:18.686Z</time></trkpt><trkpt lat="38.4774542" lon="-1.6036088"><ele>458.0</ele><time>2026-04-13T12:18:19.686Z</time></trkpt><trkpt lat="38.4773353" lon="-1.6033264"><ele>458.0</ele><time>2026-04-13T12:18:20.686Z</time></trkpt><trkpt lat="38.477214" lon="-1.6030471"><ele>458.0</ele><time>2026-04-13T12:18:21.686Z</time></trkpt><trkpt lat="38.4770907" lon="-1.6027695"><ele>456.5</ele><time>2026-04-13T12:18:22.686Z</time></trkpt><trkpt lat="38.4769687" lon="-1.6024923"><ele>455.0</ele><time>2026-04-13T12:18:23.686Z</time></trkpt><trkpt lat="38.4768522" lon="-1.6022105"><ele>455.0</ele><time>2026-04-13T12:18:24.686Z</time></trkpt><trkpt lat="38.4767348" lon="-1.601926"><ele>455.0</ele><time>2026-04-13T12:18:25.686Z</time></trkpt><trkpt lat="38.4766134" lon="-1.6016462"><ele>455.0</ele><time>2026-04-13T12:18:26.686Z</time></trkpt><trkpt lat="38.4764912" lon="-1.6013677"><ele>455.0</ele><time>2026-04-13T12:18:27.686Z</time></trkpt><trkpt lat="38.4763707" lon="-1.6010921"><ele>454.5</ele><time>2026-04-13T12:18:28.686Z</time></trkpt><trkpt lat="38.4762407" lon="-1.600826"><ele>454.0</ele><time>2026-04-13T12:18:29.686Z</time></trkpt><trkpt lat="38.476095" lon="-1.6005764"><ele>454.0</ele><time>2026-04-13T12:18:30.686Z</time></trkpt><trkpt lat="38.4759376" lon="-1.6003478"><ele>454.0</ele><time>2026-04-13T12:18:31.686Z</time></trkpt><trkpt lat="38.4757605" lon="-1.6001423"><ele>455.0</ele><time>2026-04-13T12:18:32.686Z</time></trkpt><trkpt lat="38.475569" lon="-1.5999696"><ele>456.0</ele><time>2026-04-13T12:18:33.686Z</time></trkpt><trkpt lat="38.4753603" lon="-1.599821"><ele>456.0</ele><time>2026-04-13T12:18:34.686Z</time></trkpt><trkpt lat="38.4751387" lon="-1.599705"><ele>456.0</ele><time>2026-04-13T12:18:35.686Z</time></trkpt><trkpt lat="38.4749022" lon="-1.5996227"><ele>456.0</ele><time>2026-04-13T12:18:36.686Z</time></trkpt><trkpt lat="38.4746591" lon="-1.5995702"><ele>456.0</ele><time>2026-04-13T12:18:37.686Z</time></trkpt><trkpt lat="38.4744099" lon="-1.5995358"><ele>454.0</ele><time>2026-04-13T12:18:38.686Z</time></trkpt><trkpt lat="38.4741595" lon="-1.599541"><ele>452.0</ele><time>2026-04-13T12:18:39.687Z</time></trkpt><trkpt lat="38.4739044" lon="-1.5995761"><ele>449.5</ele><time>2026-04-13T12:18:40.686Z</time></trkpt><trkpt lat="38.4736464" lon="-1.5996297"><ele>447.0</ele><time>2026-04-13T12:18:41.686Z</time></trkpt><trkpt lat="38.4733817" lon="-1.5996826"><ele>447.0</ele><time>2026-04-13T12:18:42.686Z</time></trkpt><trkpt lat="38.4731234" lon="-1.5997319"><ele>447.0</ele><time>2026-04-13T12:18:43.686Z</time></trkpt><trkpt lat="38.4728658" lon="-1.59978"><ele>446.5</ele><time>2026-04-13T12:18:44.686Z</time></trkpt><trkpt lat="38.4726097" lon="-1.599817"><ele>446.0</ele><time>2026-04-13T12:18:45.686Z</time></trkpt><trkpt lat="38.4723518" lon="-1.5998371"><ele>443.0</ele><time>2026-04-13T12:18:46.686Z</time></trkpt><trkpt lat="38.4720919" lon="-1.59983"><ele>440.0</ele><time>2026-04-13T12:18:47.686Z</time></trkpt><trkpt lat="38.4718345" lon="-1.5998091"><ele>440.0</ele><time>2026-04-13T12:18:48.686Z</time></trkpt><trkpt lat="38.4715825" lon="-1.5997691"><ele>440.0</ele><time>2026-04-13T12:18:49.686Z</time></trkpt><trkpt lat="38.4713296" lon="-1.5997111"><ele>441.0</ele><time>2026-04-13T12:18:50.686Z</time></trkpt><trkpt lat="38.4710778" lon="-1.5996409"><ele>442.0</ele><time>2026-04-13T12:18:51.686Z</time></trkpt><trkpt lat="38.4708308" lon="-1.5995495"><ele>442.0</ele><time>2026-04-13T12:18:52.686Z</time></trkpt><trkpt lat="38.4705876" lon="-1.5994444"><ele>442.0</ele><time>2026-04-13T12:18:53.686Z</time></trkpt><trkpt lat="38.470349" lon="-1.5993271"><ele>442.0</ele><time>2026-04-13T12:18:54.686Z</time></trkpt><trkpt lat="38.4701092" lon="-1.5992051"><ele>442.0</ele><time>2026-04-13T12:18:55.686Z</time></trkpt><trkpt lat="38.4698646" lon="-1.5990768"><ele>442.0</ele><time>2026-04-13T12:18:56.686Z</time></trkpt><trkpt lat="38.4696225" lon="-1.5989383"><ele>442.0</ele><time>2026-04-13T12:18:57.686Z</time></trkpt><trkpt lat="38.469388" lon="-1.598802"><ele>443.0</ele><time>2026-04-13T12:18:58.686Z</time></trkpt><trkpt lat="38.4691502" lon="-1.5986462"><ele>444.0</ele><time>2026-04-13T12:18:59.686Z</time></trkpt><trkpt lat="38.4689063" lon="-1.598496"><ele>443.5</ele><time>2026-04-13T12:19:00.686Z</time></trkpt><trkpt lat="38.4686667" lon="-1.5983424"><ele>443.0</ele><time>2026-04-13T12:19:01.686Z</time></trkpt><trkpt lat="38.468437" lon="-1.5981875"><ele>443.0</ele><time>2026-04-13T12:19:02.686Z</time></trkpt><trkpt lat="38.4682097" lon="-1.5980342"><ele>443.0</ele><time>2026-04-13T12:19:03.686Z</time></trkpt><trkpt lat="38.4679826" lon="-1.5978835"><ele>442.5</ele><time>2026-04-13T12:19:04.686Z</time></trkpt><trkpt lat="38.4677584" lon="-1.5977346"><ele>442.0</ele><time>2026-04-13T12:19:05.686Z</time></trkpt><trkpt lat="38.4675329" lon="-1.5975931"><ele>442.0</ele><time>2026-04-13T12:19:06.686Z</time></trkpt><trkpt lat="38.4673143" lon="-1.5974456"><ele>442.0</ele><time>2026-04-13T12:19:07.686Z</time></trkpt><trkpt lat="38.4670995" lon="-1.5973007"><ele>443.0</ele><time>2026-04-13T12:19:08.686Z</time></trkpt><trkpt lat="38.4668888" lon="-1.597159"><ele>444.0</ele><time>2026-04-13T12:19:09.686Z</time></trkpt><trkpt lat="38.4666757" lon="-1.5970127"><ele>444.66666666666663</ele><time>2026-04-13T12:19:10.686Z</time></trkpt><trkpt lat="38.4664875" lon="-1.5968971"><ele>445.3333333333333</ele><time>2026-04-13T12:19:11.686Z</time></trkpt><trkpt lat="38.4662938" lon="-1.5967743"><ele>446.0</ele><time>2026-04-13T12:19:12.686Z</time></trkpt><trkpt lat="38.4661301" lon="-1.5966582"><ele>446.0</ele><time>2026-04-13T12:19:13.686Z</time></trkpt><trkpt lat="38.4659647" lon="-1.596549"><ele>446.0</ele><time>2026-04-13T12:19:14.686Z</time></trkpt><trkpt lat="38.4658015" lon="-1.5964364"><ele>446.0</ele><time>2026-04-13T12:19:15.686Z</time></trkpt><trkpt lat="38.4656396" lon="-1.5963264"><ele>446.0</ele><time>2026-04-13T12:19:16.686Z</time></trkpt><trkpt lat="38.4654847" lon="-1.5962275"><ele>446.0</ele><time>2026-04-13T12:19:17.686Z</time></trkpt><trkpt lat="38.4653323" lon="-1.5961232"><ele>446.0</ele><time>2026-04-13T12:19:18.686Z</time></trkpt><trkpt lat="38.4651881" lon="-1.5960292"><ele>446.3333333333333</ele><time>2026-04-13T12:19:19.686Z</time></trkpt><trkpt lat="38.4650491" lon="-1.5959339"><ele>446.66666666666663</ele><time>2026-04-13T12:19:20.686Z</time></trkpt><trkpt lat="38.4649168" lon="-1.5958362"><ele>447.0</ele><time>2026-04-13T12:19:21.686Z</time></trkpt><trkpt lat="38.4648009" lon="-1.5957267"><ele>447.0</ele><time>2026-04-13T12:19:22.686Z</time></trkpt><trkpt lat="38.4646939" lon="-1.5955968"><ele>447.0</ele><time>2026-04-13T12:19:23.686Z</time></trkpt><trkpt lat="38.4645998" lon="-1.5954471"><ele>447.0</ele><time>2026-04-13T12:19:24.686Z</time></trkpt><trkpt lat="38.4645248" lon="-1.5952804"><ele>447.0</ele><time>2026-04-13T12:19:25.686Z</time></trkpt><trkpt lat="38.4644677" lon="-1.5951023"><ele>446.75</ele><time>2026-04-13T12:19:26.686Z</time></trkpt><trkpt lat="38.4644368" lon="-1.5949142"><ele>446.5</ele><time>2026-04-13T12:19:27.686Z</time></trkpt><trkpt lat="38.4644229" lon="-1.5947232"><ele>446.25</ele><time>2026-04-13T12:19:28.686Z</time></trkpt><trkpt lat="38.464423" lon="-1.5945334"><ele>446.0</ele><time>2026-04-13T12:19:29.686Z</time></trkpt><trkpt lat="38.4643688" lon="-1.5943982"><ele>446.5</ele><time>2026-04-13T12:19:30.686Z</time></trkpt><trkpt lat="38.4643991" lon="-1.5942066"><ele>447.0</ele><time>2026-04-13T12:19:31.686Z</time></trkpt><trkpt lat="38.4643903" lon="-1.5940478"><ele>447.5</ele><time>2026-04-13T12:19:32.686Z</time></trkpt><trkpt lat="38.4643755" lon="-1.5939135"><ele>448.0</ele><time>2026-04-13T12:19:33.686Z</time></trkpt><trkpt lat="38.4643522" lon="-1.5937964"><ele>448.00000000000006</ele><time>2026-04-13T12:19:34.686Z</time></trkpt><trkpt lat="38.4643088" lon="-1.5937136"><ele>448.0</ele><time>2026-04-13T12:19:35.686Z</time></trkpt><trkpt lat="38.4642473" lon="-1.5936619"><ele>448.0</ele><time>2026-04-13T12:19:36.686Z</time></trkpt><trkpt lat="38.4641696" lon="-1.5936377"><ele>448.0</ele><time>2026-04-13T12:19:37.686Z</time></trkpt><trkpt lat="38.4640855" lon="-1.5936093"><ele>448.00000000000006</ele><time>2026-04-13T12:19:38.686Z</time></trkpt><trkpt lat="38.464011" lon="-1.5935522"><ele>448.0</ele><time>2026-04-13T12:19:39.686Z</time></trkpt><trkpt lat="38.4639565" lon="-1.5934669"><ele>448.4</ele><time>2026-04-13T12:19:40.686Z</time></trkpt><trkpt lat="38.4639285" lon="-1.5933674"><ele>448.79999999999995</ele><time>2026-04-13T12:19:41.687Z</time></trkpt><trkpt lat="38.463934" lon="-1.5932628"><ele>449.2</ele><time>2026-04-13T12:19:42.686Z</time></trkpt><trkpt lat="38.4639656" lon="-1.5931754"><ele>449.6</ele><time>2026-04-13T12:19:43.686Z</time></trkpt><trkpt lat="38.4640207" lon="-1.5931116"><ele>450.0</ele><time>2026-04-13T12:19:44.686Z</time></trkpt><trkpt lat="38.4641598" lon="-1.5930537"><ele>450.0</ele><time>2026-04-13T12:19:46.686Z</time></trkpt><trkpt lat="38.4642377" lon="-1.5930694"><ele>450.0</ele><time>2026-04-13T12:19:47.686Z</time></trkpt><trkpt lat="38.4643235" lon="-1.593113"><ele>450.0</ele><time>2026-04-13T12:19:48.686Z</time></trkpt><trkpt lat="38.4644197" lon="-1.5931363"><ele>450.0</ele><time>2026-04-13T12:19:49.686Z</time></trkpt><trkpt lat="38.4645239" lon="-1.5931568"><ele>450.0</ele><time>2026-04-13T12:19:50.686Z</time></trkpt><trkpt lat="38.4645894" lon="-1.5931987"><ele>450.0</ele><time>2026-04-13T12:19:51.686Z</time></trkpt><trkpt lat="38.4647477" lon="-1.5930659"><ele>450.25</ele><time>2026-04-13T12:19:52.686Z</time></trkpt><trkpt lat="38.4648706" lon="-1.5930057"><ele>450.5</ele><time>2026-04-13T12:19:53.686Z</time></trkpt><trkpt lat="38.4650014" lon="-1.592943"><ele>450.75</ele><time>2026-04-13T12:19:54.686Z</time></trkpt><trkpt lat="38.4651364" lon="-1.5928666"><ele>451.0</ele><time>2026-04-13T12:19:55.686Z</time></trkpt><trkpt lat="38.4652712" lon="-1.5927796"><ele>451.0</ele><time>2026-04-13T12:19:56.686Z</time></trkpt><trkpt lat="38.465398" lon="-1.5926603"><ele>451.0</ele><time>2026-04-13T12:19:57.686Z</time></trkpt><trkpt lat="38.4655133" lon="-1.5925023"><ele>451.0</ele><time>2026-04-13T12:19:58.686Z</time></trkpt><trkpt lat="38.4655975" lon="-1.5923109"><ele>451.0</ele><time>2026-04-13T12:19:59.686Z</time></trkpt><trkpt lat="38.4656576" lon="-1.5920939"><ele>451.0</ele><time>2026-04-13T12:20:00.686Z</time></trkpt><trkpt lat="38.4657046" lon="-1.591864"><ele>451.0</ele><time>2026-04-13T12:20:01.686Z</time></trkpt><trkpt lat="38.4657527" lon="-1.5916261"><ele>451.33333333333337</ele><time>2026-04-13T12:20:02.686Z</time></trkpt><trkpt lat="38.4658018" lon="-1.5913777"><ele>451.66666666666663</ele><time>2026-04-13T12:20:03.686Z</time></trkpt><trkpt lat="38.4658536" lon="-1.5911294"><ele>452.0</ele><time>2026-04-13T12:20:04.686Z</time></trkpt><trkpt lat="38.4659011" lon="-1.5908852"><ele>452.66666666666663</ele><time>2026-04-13T12:20:05.686Z</time></trkpt><trkpt lat="38.4659106" lon="-1.5907136"><ele>453.33333333333337</ele><time>2026-04-13T12:20:06.686Z</time></trkpt><trkpt lat="38.4660043" lon="-1.5903682"><ele>454.0</ele><time>2026-04-13T12:20:07.686Z</time></trkpt><trkpt lat="38.4660632" lon="-1.590093"><ele>454.0</ele><time>2026-04-13T12:20:08.686Z</time></trkpt><trkpt lat="38.4661146" lon="-1.5898128"><ele>454.0</ele><time>2026-04-13T12:20:09.686Z</time></trkpt><trkpt lat="38.4661733" lon="-1.5895287"><ele>454.5</ele><time>2026-04-13T12:20:10.686Z</time></trkpt><trkpt lat="38.4662317" lon="-1.5892447"><ele>455.0</ele><time>2026-04-13T12:20:11.686Z</time></trkpt><trkpt lat="38.4662902" lon="-1.5889543"><ele>457.5</ele><time>2026-04-13T12:20:12.686Z</time></trkpt><trkpt lat="38.4663508" lon="-1.58866"><ele>460.0</ele><time>2026-04-13T12:20:13.686Z</time></trkpt><trkpt lat="38.4664105" lon="-1.5883622"><ele>460.0</ele><time>2026-04-13T12:20:14.686Z</time></trkpt><trkpt lat="38.466471" lon="-1.588064"><ele>460.0</ele><time>2026-04-13T12:20:15.686Z</time></trkpt><trkpt lat="38.4665343" lon="-1.5877634"><ele>461.0</ele><time>2026-04-13T12:20:16.686Z</time></trkpt><trkpt lat="38.4665989" lon="-1.5874638"><ele>462.0</ele><time>2026-04-13T12:20:17.686Z</time></trkpt><trkpt lat="38.4666582" lon="-1.5871605"><ele>462.5</ele><time>2026-04-13T12:20:18.686Z</time></trkpt><trkpt lat="38.4667201" lon="-1.5868596"><ele>463.0</ele><time>2026-04-13T12:20:19.686Z</time></trkpt><trkpt lat="38.4667813" lon="-1.5865547"><ele>463.0</ele><time>2026-04-13T12:20:20.686Z</time></trkpt><trkpt lat="38.4668442" lon="-1.5862498"><ele>463.0</ele><time>2026-04-13T12:20:21.686Z</time></trkpt><trkpt lat="38.4669041" lon="-1.5859455"><ele>464.0</ele><time>2026-04-13T12:20:22.686Z</time></trkpt><trkpt lat="38.4669663" lon="-1.585641"><ele>465.0</ele><time>2026-04-13T12:20:23.686Z</time></trkpt><trkpt lat="38.4670284" lon="-1.5853369"><ele>466.0</ele><time>2026-04-13T12:20:24.686Z</time></trkpt><trkpt lat="38.4670931" lon="-1.5850262"><ele>467.0</ele><time>2026-04-13T12:20:25.686Z</time></trkpt><trkpt lat="38.4671567" lon="-1.5847195"><ele>469.5</ele><time>2026-04-13T12:20:26.686Z</time></trkpt><trkpt lat="38.4672235" lon="-1.584409"><ele>472.0</ele><time>2026-04-13T12:20:27.686Z</time></trkpt><trkpt lat="38.4672942" lon="-1.5841019"><ele>472.0</ele><time>2026-04-13T12:20:28.686Z</time></trkpt><trkpt lat="38.4673528" lon="-1.5837855"><ele>472.0</ele><time>2026-04-13T12:20:29.686Z</time></trkpt><trkpt lat="38.4674173" lon="-1.5834727"><ele>473.0</ele><time>2026-04-13T12:20:30.686Z</time></trkpt><trkpt lat="38.4674802" lon="-1.5831672"><ele>474.0</ele><time>2026-04-13T12:20:31.686Z</time></trkpt><trkpt lat="38.4675439" lon="-1.5828535"><ele>475.0</ele><time>2026-04-13T12:20:32.686Z</time></trkpt><trkpt lat="38.4676071" lon="-1.5825375"><ele>476.0</ele><time>2026-04-13T12:20:33.686Z</time></trkpt><trkpt lat="38.467665" lon="-1.5822208"><ele>477.0</ele><time>2026-04-13T12:20:34.686Z</time></trkpt><trkpt lat="38.467727" lon="-1.5819063"><ele>478.0</ele><time>2026-04-13T12:20:35.686Z</time></trkpt><trkpt lat="38.4677935" lon="-1.5815945"><ele>478.0</ele><time>2026-04-13T12:20:36.686Z</time></trkpt><trkpt lat="38.4678559" lon="-1.5812803"><ele>478.0</ele><time>2026-04-13T12:20:37.686Z</time></trkpt><trkpt lat="38.4679199" lon="-1.5809695"><ele>480.5</ele><time>2026-04-13T12:20:38.686Z</time></trkpt><trkpt lat="38.4679819" lon="-1.5806596"><ele>483.0</ele><time>2026-04-13T12:20:39.686Z</time></trkpt><trkpt lat="38.468045" lon="-1.5803525"><ele>483.0</ele><time>2026-04-13T12:20:40.686Z</time></trkpt><trkpt lat="38.4681076" lon="-1.5800445"><ele>483.0</ele><time>2026-04-13T12:20:41.686Z</time></trkpt><trkpt lat="38.468168" lon="-1.5797403"><ele>485.0</ele><time>2026-04-13T12:20:42.686Z</time></trkpt><trkpt lat="38.4682344" lon="-1.5794392"><ele>487.0</ele><time>2026-04-13T12:20:43.687Z</time></trkpt><trkpt lat="38.4682977" lon="-1.5791371"><ele>487.0</ele><time>2026-04-13T12:20:44.686Z</time></trkpt><trkpt lat="38.4683582" lon="-1.5788362"><ele>487.0</ele><time>2026-04-13T12:20:45.686Z</time></trkpt><trkpt lat="38.4684123" lon="-1.5785365"><ele>488.0</ele><time>2026-04-13T12:20:46.686Z</time></trkpt><trkpt lat="38.4684774" lon="-1.5782371"><ele>489.0</ele><time>2026-04-13T12:20:47.686Z</time></trkpt><trkpt lat="38.4685326" lon="-1.5779375"><ele>491.5</ele><time>2026-04-13T12:20:48.686Z</time></trkpt><trkpt lat="38.4686028" lon="-1.5776374"><ele>494.0</ele><time>2026-04-13T12:20:49.686Z</time></trkpt><trkpt lat="38.4686696" lon="-1.5773469"><ele>494.0</ele><time>2026-04-13T12:20:50.686Z</time></trkpt><trkpt lat="38.4687239" lon="-1.5770472"><ele>494.0</ele><time>2026-04-13T12:20:51.686Z</time></trkpt><trkpt lat="38.4687835" lon="-1.5767553"><ele>494.5</ele><time>2026-04-13T12:20:52.686Z</time></trkpt><trkpt lat="38.4688453" lon="-1.5764639"><ele>495.0</ele><time>2026-04-13T12:20:53.686Z</time></trkpt><trkpt lat="38.4688973" lon="-1.5761714"><ele>496.5</ele><time>2026-04-13T12:20:54.686Z</time></trkpt><trkpt lat="38.4689136" lon="-1.5758699"><ele>498.0</ele><time>2026-04-13T12:20:55.686Z</time></trkpt><trkpt lat="38.4688948" lon="-1.575566"><ele>499.5</ele><time>2026-04-13T12:20:56.686Z</time></trkpt><trkpt lat="38.4688447" lon="-1.5752622"><ele>501.0</ele><time>2026-04-13T12:20:57.686Z</time></trkpt><trkpt lat="38.4687811" lon="-1.5749658"><ele>501.5</ele><time>2026-04-13T12:20:58.686Z</time></trkpt><trkpt lat="38.4687177" lon="-1.574666"><ele>502.0</ele><time>2026-04-13T12:20:59.686Z</time></trkpt><trkpt lat="38.4686584" lon="-1.5743639"><ele>503.5</ele><time>2026-04-13T12:21:00.686Z</time></trkpt><trkpt lat="38.4686025" lon="-1.5740695"><ele>505.0</ele><time>2026-04-13T12:21:01.686Z</time></trkpt><trkpt lat="38.4685431" lon="-1.5737722"><ele>506.5</ele><time>2026-04-13T12:21:02.686Z</time></trkpt><trkpt lat="38.4684803" lon="-1.5734682"><ele>508.0</ele><time>2026-04-13T12:21:03.686Z</time></trkpt><trkpt lat="38.4684116" lon="-1.5731678"><ele>508.0</ele><time>2026-04-13T12:21:04.686Z</time></trkpt><trkpt lat="38.4683225" lon="-1.5728762"><ele>508.0</ele><time>2026-04-13T12:21:05.686Z</time></trkpt><trkpt lat="38.4682117" lon="-1.5726071"><ele>508.5</ele><time>2026-04-13T12:21:06.686Z</time></trkpt><trkpt lat="38.468072" lon="-1.5723519"><ele>509.0</ele><time>2026-04-13T12:21:07.686Z</time></trkpt><trkpt lat="38.4679171" lon="-1.5721061"><ele>512.5</ele><time>2026-04-13T12:21:08.686Z</time></trkpt><trkpt lat="38.4677543" lon="-1.5718649"><ele>516.0</ele><time>2026-04-13T12:21:09.686Z</time></trkpt><trkpt lat="38.4675902" lon="-1.5716266"><ele>516.0</ele><time>2026-04-13T12:21:10.686Z</time></trkpt><trkpt lat="38.4674301" lon="-1.5713867"><ele>516.0</ele><time>2026-04-13T12:21:11.686Z</time></trkpt><trkpt lat="38.4672888" lon="-1.5711477"><ele>515.0</ele><time>2026-04-13T12:21:12.686Z</time></trkpt><trkpt lat="38.467174" lon="-1.5708942"><ele>514.0</ele><time>2026-04-13T12:21:13.686Z</time></trkpt><trkpt lat="38.4670855" lon="-1.5706221"><ele>508.0</ele><time>2026-04-13T12:21:14.686Z</time></trkpt><trkpt lat="38.4670226" lon="-1.5703331"><ele>502.0</ele><time>2026-04-13T12:21:15.687Z</time></trkpt><trkpt lat="38.4669884" lon="-1.5700409"><ele>502.0</ele><time>2026-04-13T12:21:16.686Z</time></trkpt><trkpt lat="38.4669805" lon="-1.5697384"><ele>502.0</ele><time>2026-04-13T12:21:17.686Z</time></trkpt><trkpt lat="38.4669821" lon="-1.5694279"><ele>502.0</ele><time>2026-04-13T12:21:18.686Z</time></trkpt><trkpt lat="38.466988" lon="-1.5691127"><ele>502.0</ele><time>2026-04-13T12:21:19.686Z</time></trkpt><trkpt lat="38.4669925" lon="-1.5687917"><ele>502.5</ele><time>2026-04-13T12:21:20.686Z</time></trkpt><trkpt lat="38.4669974" lon="-1.5684638"><ele>503.0</ele><time>2026-04-13T12:21:21.686Z</time></trkpt><trkpt lat="38.4670033" lon="-1.5681377"><ele>503.5</ele><time>2026-04-13T12:21:22.686Z</time></trkpt><trkpt lat="38.4670094" lon="-1.5678048"><ele>504.0</ele><time>2026-04-13T12:21:23.686Z</time></trkpt><trkpt lat="38.4670152" lon="-1.5674728"><ele>504.0</ele><time>2026-04-13T12:21:24.686Z</time></trkpt><trkpt lat="38.4670227" lon="-1.5671402"><ele>504.0</ele><time>2026-04-13T12:21:25.686Z</time></trkpt><trkpt lat="38.4670338" lon="-1.5667988"><ele>504.0</ele><time>2026-04-13T12:21:26.686Z</time></trkpt><trkpt lat="38.467037" lon="-1.5664651"><ele>504.0</ele><time>2026-04-13T12:21:27.686Z</time></trkpt><trkpt lat="38.4670428" lon="-1.5661249"><ele>504.0</ele><time>2026-04-13T12:21:28.686Z</time></trkpt><trkpt lat="38.4670504" lon="-1.565791"><ele>504.0</ele><time>2026-04-13T12:21:29.686Z</time></trkpt><trkpt lat="38.4670575" lon="-1.5654619"><ele>505.0</ele><time>2026-04-13T12:21:30.686Z</time></trkpt><trkpt lat="38.4670622" lon="-1.5651368"><ele>506.0</ele><time>2026-04-13T12:21:31.686Z</time></trkpt><trkpt lat="38.4670704" lon="-1.5648182"><ele>506.0</ele><time>2026-04-13T12:21:32.686Z</time></trkpt><trkpt lat="38.4670742" lon="-1.5645017"><ele>506.0</ele><time>2026-04-13T12:21:33.686Z</time></trkpt><trkpt lat="38.4670859" lon="-1.5641919"><ele>506.0</ele><time>2026-04-13T12:21:34.686Z</time></trkpt><trkpt lat="38.4670933" lon="-1.5638877"><ele>506.0</ele><time>2026-04-13T12:21:35.686Z</time></trkpt><trkpt lat="38.467101" lon="-1.5635871"><ele>506.0</ele><time>2026-04-13T12:21:36.686Z</time></trkpt><trkpt lat="38.4671091" lon="-1.5632932"><ele>506.0</ele><time>2026-04-13T12:21:37.686Z</time></trkpt><trkpt lat="38.4671148" lon="-1.5629956"><ele>510.5</ele><time>2026-04-13T12:21:38.686Z</time></trkpt><trkpt lat="38.4671245" lon="-1.5627018"><ele>515.0</ele><time>2026-04-13T12:21:39.686Z</time></trkpt><trkpt lat="38.4671283" lon="-1.5624036"><ele>515.0</ele><time>2026-04-13T12:21:40.686Z</time></trkpt><trkpt lat="38.4671331" lon="-1.562105"><ele>515.0</ele><time>2026-04-13T12:21:41.686Z</time></trkpt><trkpt lat="38.4671387" lon="-1.5618067"><ele>515.5</ele><time>2026-04-13T12:21:42.686Z</time></trkpt><trkpt lat="38.4671417" lon="-1.5615121"><ele>516.0</ele><time>2026-04-13T12:21:43.686Z</time></trkpt><trkpt lat="38.4671509" lon="-1.561208"><ele>517.5</ele><time>2026-04-13T12:21:44.686Z</time></trkpt><trkpt lat="38.4671587" lon="-1.5609014"><ele>519.0</ele><time>2026-04-13T12:21:45.686Z</time></trkpt><trkpt lat="38.467171" lon="-1.5605938"><ele>520.0</ele><time>2026-04-13T12:21:46.686Z</time></trkpt><trkpt lat="38.4671844" lon="-1.5602846"><ele>521.0</ele><time>2026-04-13T12:21:47.686Z</time></trkpt><trkpt lat="38.4671934" lon="-1.5599729"><ele>521.0</ele><time>2026-04-13T12:21:48.686Z</time></trkpt><trkpt lat="38.4672031" lon="-1.5596651"><ele>521.0</ele><time>2026-04-13T12:21:49.687Z</time></trkpt><trkpt lat="38.4672158" lon="-1.5593622"><ele>520.5</ele><time>2026-04-13T12:21:50.686Z</time></trkpt><trkpt lat="38.46723" lon="-1.5590597"><ele>520.0</ele><time>2026-04-13T12:21:51.686Z</time></trkpt><trkpt lat="38.4672484" lon="-1.5587558"><ele>519.5</ele><time>2026-04-13T12:21:52.686Z</time></trkpt><trkpt lat="38.467292" lon="-1.5584549"><ele>519.0</ele><time>2026-04-13T12:21:53.686Z</time></trkpt><trkpt lat="38.4673524" lon="-1.5581545"><ele>518.5</ele><time>2026-04-13T12:21:54.686Z</time></trkpt><trkpt lat="38.4674345" lon="-1.5578575"><ele>518.0</ele><time>2026-04-13T12:21:55.686Z</time></trkpt><trkpt lat="38.4675218" lon="-1.5575604"><ele>518.0</ele><time>2026-04-13T12:21:56.686Z</time></trkpt><trkpt lat="38.4676084" lon="-1.5572634"><ele>518.0</ele><time>2026-04-13T12:21:57.686Z</time></trkpt><trkpt lat="38.4676967" lon="-1.5569634"><ele>518.0</ele><time>2026-04-13T12:21:58.686Z</time></trkpt><trkpt lat="38.4677838" lon="-1.5566666"><ele>518.0</ele><time>2026-04-13T12:21:59.686Z</time></trkpt><trkpt lat="38.4678686" lon="-1.556381"><ele>519.0</ele><time>2026-04-13T12:22:00.686Z</time></trkpt><trkpt lat="38.4679521" lon="-1.5560918"><ele>520.0</ele><time>2026-04-13T12:22:01.686Z</time></trkpt><trkpt lat="38.4680365" lon="-1.5558042"><ele>520.0</ele><time>2026-04-13T12:22:02.686Z</time></trkpt><trkpt lat="38.4681244" lon="-1.5555052"><ele>520.0</ele><time>2026-04-13T12:22:03.686Z</time></trkpt><trkpt lat="38.4682149" lon="-1.55521"><ele>518.5</ele><time>2026-04-13T12:22:04.686Z</time></trkpt><trkpt lat="38.4683027" lon="-1.5549146"><ele>517.0</ele><time>2026-04-13T12:22:05.686Z</time></trkpt><trkpt lat="38.4683913" lon="-1.5546163"><ele>517.0</ele><time>2026-04-13T12:22:06.686Z</time></trkpt><trkpt lat="38.4684825" lon="-1.5543282"><ele>517.0</ele><time>2026-04-13T12:22:07.686Z</time></trkpt><trkpt lat="38.4685707" lon="-1.554037"><ele>517.0</ele><time>2026-04-13T12:22:08.686Z</time></trkpt><trkpt lat="38.4686596" lon="-1.5537488"><ele>517.0</ele><time>2026-04-13T12:22:09.686Z</time></trkpt><trkpt lat="38.4687453" lon="-1.5534585"><ele>517.5</ele><time>2026-04-13T12:22:10.686Z</time></trkpt><trkpt lat="38.4688326" lon="-1.5531672"><ele>518.0</ele><time>2026-04-13T12:22:11.686Z</time></trkpt><trkpt lat="38.4689167" lon="-1.5528738"><ele>520.0</ele><time>2026-04-13T12:22:12.686Z</time></trkpt><trkpt lat="38.4689998" lon="-1.5525808"><ele>522.0</ele><time>2026-04-13T12:22:13.686Z</time></trkpt><trkpt lat="38.4690858" lon="-1.5522821"><ele>521.5</ele><time>2026-04-13T12:22:14.686Z</time></trkpt><trkpt lat="38.4691725" lon="-1.5519858"><ele>521.0</ele><time>2026-04-13T12:22:15.686Z</time></trkpt><trkpt lat="38.4692581" lon="-1.5516916"><ele>521.0</ele><time>2026-04-13T12:22:16.686Z</time></trkpt><trkpt lat="38.4693343" lon="-1.5513963"><ele>521.0</ele><time>2026-04-13T12:22:17.686Z</time></trkpt><trkpt lat="38.4694161" lon="-1.5511043"><ele>521.5</ele><time>2026-04-13T12:22:18.686Z</time></trkpt><trkpt lat="38.4695038" lon="-1.5508163"><ele>522.0</ele><time>2026-04-13T12:22:19.687Z</time></trkpt><trkpt lat="38.4695898" lon="-1.5505245"><ele>522.5</ele><time>2026-04-13T12:22:20.687Z</time></trkpt><trkpt lat="38.4696771" lon="-1.550235"><ele>523.0</ele><time>2026-04-13T12:22:21.686Z</time></trkpt><trkpt lat="38.469758" lon="-1.549945"><ele>523.0</ele><time>2026-04-13T12:22:22.686Z</time></trkpt><trkpt lat="38.4698439" lon="-1.5496571"><ele>523.0</ele><time>2026-04-13T12:22:23.686Z</time></trkpt><trkpt lat="38.4699278" lon="-1.549374"><ele>523.5</ele><time>2026-04-13T12:22:24.686Z</time></trkpt><trkpt lat="38.4700111" lon="-1.5490871"><ele>524.0</ele><time>2026-04-13T12:22:25.686Z</time></trkpt><trkpt lat="38.4700954" lon="-1.5488014"><ele>524.5</ele><time>2026-04-13T12:22:26.686Z</time></trkpt><trkpt lat="38.4701815" lon="-1.5485124"><ele>525.0</ele><time>2026-04-13T12:22:27.686Z</time></trkpt><trkpt lat="38.4702614" lon="-1.548225"><ele>525.0</ele><time>2026-04-13T12:22:28.686Z</time></trkpt><trkpt lat="38.470346" lon="-1.5479323"><ele>525.0</ele><time>2026-04-13T12:22:29.686Z</time></trkpt><trkpt lat="38.4704287" lon="-1.5476369"><ele>526.5</ele><time>2026-04-13T12:22:30.686Z</time></trkpt><trkpt lat="38.4705125" lon="-1.5473408"><ele>528.0</ele><time>2026-04-13T12:22:31.686Z</time></trkpt><trkpt lat="38.4706012" lon="-1.5470439"><ele>528.0</ele><time>2026-04-13T12:22:32.686Z</time></trkpt><trkpt lat="38.4706865" lon="-1.5467513"><ele>528.0</ele><time>2026-04-13T12:22:33.686Z</time></trkpt><trkpt lat="38.4707731" lon="-1.5464536"><ele>528.0</ele><time>2026-04-13T12:22:34.686Z</time></trkpt><trkpt lat="38.4708519" lon="-1.5461583"><ele>528.0</ele><time>2026-04-13T12:22:35.686Z</time></trkpt><trkpt lat="38.4709367" lon="-1.5458615"><ele>528.0</ele><time>2026-04-13T12:22:36.686Z</time></trkpt><trkpt lat="38.4710237" lon="-1.5455687"><ele>528.0</ele><time>2026-04-13T12:22:37.686Z</time></trkpt><trkpt lat="38.4711096" lon="-1.5452714"><ele>528.5</ele><time>2026-04-13T12:22:38.686Z</time></trkpt><trkpt lat="38.4712112" lon="-1.5449715"><ele>529.0</ele><time>2026-04-13T12:22:39.686Z</time></trkpt><trkpt lat="38.4712992" lon="-1.544675"><ele>531.5</ele><time>2026-04-13T12:22:40.686Z</time></trkpt><trkpt lat="38.4713893" lon="-1.5443823"><ele>534.0</ele><time>2026-04-13T12:22:41.686Z</time></trkpt><trkpt lat="38.4714784" lon="-1.5440846"><ele>534.0</ele><time>2026-04-13T12:22:42.686Z</time></trkpt><trkpt lat="38.4715678" lon="-1.5437911"><ele>534.0</ele><time>2026-04-13T12:22:43.686Z</time></trkpt><trkpt lat="38.4716562" lon="-1.5435008"><ele>533.0</ele><time>2026-04-13T12:22:44.686Z</time></trkpt><trkpt lat="38.4717433" lon="-1.5432237"><ele>532.0</ele><time>2026-04-13T12:22:45.686Z</time></trkpt><trkpt lat="38.4718226" lon="-1.5429323"><ele>532.5</ele><time>2026-04-13T12:22:46.686Z</time></trkpt><trkpt lat="38.4718768" lon="-1.5426282"><ele>533.0</ele><time>2026-04-13T12:22:47.686Z</time></trkpt><trkpt lat="38.4718898" lon="-1.5423219"><ele>533.5</ele><time>2026-04-13T12:22:48.686Z</time></trkpt><trkpt lat="38.4718769" lon="-1.5419959"><ele>534.0</ele><time>2026-04-13T12:22:49.686Z</time></trkpt><trkpt lat="38.4718301" lon="-1.5416927"><ele>534.0</ele><time>2026-04-13T12:22:50.686Z</time></trkpt><trkpt lat="38.4717632" lon="-1.541398"><ele>534.0</ele><time>2026-04-13T12:22:51.687Z</time></trkpt><trkpt lat="38.4717026" lon="-1.5410901"><ele>534.5</ele><time>2026-04-13T12:22:52.687Z</time></trkpt><trkpt lat="38.4716412" lon="-1.5407779"><ele>535.0</ele><time>2026-04-13T12:22:53.686Z</time></trkpt><trkpt lat="38.4716002" lon="-1.5404641"><ele>535.5</ele><time>2026-04-13T12:22:54.686Z</time></trkpt><trkpt lat="38.4715965" lon="-1.5401471"><ele>536.0</ele><time>2026-04-13T12:22:55.686Z</time></trkpt><trkpt lat="38.4716202" lon="-1.5398287"><ele>536.0</ele><time>2026-04-13T12:22:56.686Z</time></trkpt><trkpt lat="38.4716761" lon="-1.5395077"><ele>536.0</ele><time>2026-04-13T12:22:57.686Z</time></trkpt><trkpt lat="38.4717371" lon="-1.5391862"><ele>536.0</ele><time>2026-04-13T12:22:58.686Z</time></trkpt><trkpt lat="38.4718021" lon="-1.5388654"><ele>536.0</ele><time>2026-04-13T12:22:59.686Z</time></trkpt><trkpt lat="38.471867" lon="-1.5385445"><ele>537.0</ele><time>2026-04-13T12:23:00.686Z</time></trkpt><trkpt lat="38.4719323" lon="-1.538225"><ele>538.0</ele><time>2026-04-13T12:23:01.686Z</time></trkpt><trkpt lat="38.4719982" lon="-1.5379079"><ele>539.0</ele><time>2026-04-13T12:23:02.686Z</time></trkpt><trkpt lat="38.4720617" lon="-1.5375933"><ele>540.0</ele><time>2026-04-13T12:23:03.686Z</time></trkpt><trkpt lat="38.4721276" lon="-1.5372826"><ele>541.0</ele><time>2026-04-13T12:23:04.686Z</time></trkpt><trkpt lat="38.4721928" lon="-1.5369715"><ele>542.0</ele><time>2026-04-13T12:23:05.686Z</time></trkpt><trkpt lat="38.472257" lon="-1.5366645"><ele>542.0</ele><time>2026-04-13T12:23:06.686Z</time></trkpt><trkpt lat="38.4723186" lon="-1.5363545"><ele>542.0</ele><time>2026-04-13T12:23:07.686Z</time></trkpt><trkpt lat="38.4723848" lon="-1.536042"><ele>543.0</ele><time>2026-04-13T12:23:08.686Z</time></trkpt><trkpt lat="38.4724479" lon="-1.5357259"><ele>544.0</ele><time>2026-04-13T12:23:09.686Z</time></trkpt><trkpt lat="38.4725148" lon="-1.5354076"><ele>544.5</ele><time>2026-04-13T12:23:10.686Z</time></trkpt><trkpt lat="38.4725802" lon="-1.5350963"><ele>545.0</ele><time>2026-04-13T12:23:11.686Z</time></trkpt><trkpt lat="38.4726475" lon="-1.5347794"><ele>546.0</ele><time>2026-04-13T12:23:12.686Z</time></trkpt><trkpt lat="38.4727204" lon="-1.5344651"><ele>547.0</ele><time>2026-04-13T12:23:13.686Z</time></trkpt><trkpt lat="38.4727824" lon="-1.5341362"><ele>547.0</ele><time>2026-04-13T12:23:14.686Z</time></trkpt><trkpt lat="38.4728502" lon="-1.5338157"><ele>547.0</ele><time>2026-04-13T12:23:15.686Z</time></trkpt><trkpt lat="38.4729216" lon="-1.5334967"><ele>549.5</ele><time>2026-04-13T12:23:16.687Z</time></trkpt><trkpt lat="38.4729902" lon="-1.5331728"><ele>552.0</ele><time>2026-04-13T12:23:17.686Z</time></trkpt><trkpt lat="38.4730554" lon="-1.5328427"><ele>552.5</ele><time>2026-04-13T12:23:18.686Z</time></trkpt><trkpt lat="38.4731102" lon="-1.5325123"><ele>553.0</ele><time>2026-04-13T12:23:19.686Z</time></trkpt><trkpt lat="38.473154" lon="-1.5321731"><ele>552.5</ele><time>2026-04-13T12:23:20.686Z</time></trkpt><trkpt lat="38.4731962" lon="-1.5318404"><ele>552.0</ele><time>2026-04-13T12:23:21.686Z</time></trkpt><trkpt lat="38.473213" lon="-1.5314963"><ele>552.5</ele><time>2026-04-13T12:23:22.686Z</time></trkpt><trkpt lat="38.4732364" lon="-1.5311557"><ele>553.0</ele><time>2026-04-13T12:23:23.686Z</time></trkpt><trkpt lat="38.473249" lon="-1.5308329"><ele>553.0</ele><time>2026-04-13T12:23:24.686Z</time></trkpt><trkpt lat="38.4732808" lon="-1.5304724"><ele>553.0</ele><time>2026-04-13T12:23:25.686Z</time></trkpt><trkpt lat="38.4733058" lon="-1.5301178"><ele>553.5</ele><time>2026-04-13T12:23:26.686Z</time></trkpt><trkpt lat="38.4733294" lon="-1.5297684"><ele>554.0</ele><time>2026-04-13T12:23:27.687Z</time></trkpt><trkpt lat="38.4733512" lon="-1.5294205"><ele>554.5</ele><time>2026-04-13T12:23:28.686Z</time></trkpt><trkpt lat="38.4733695" lon="-1.5290742"><ele>555.0</ele><time>2026-04-13T12:23:29.686Z</time></trkpt><trkpt lat="38.473384" lon="-1.5287301"><ele>555.5</ele><time>2026-04-13T12:23:30.687Z</time></trkpt><trkpt lat="38.4734011" lon="-1.528386"><ele>556.0</ele><time>2026-04-13T12:23:31.686Z</time></trkpt><trkpt lat="38.4734222" lon="-1.5280403"><ele>555.0</ele><time>2026-04-13T12:23:32.687Z</time></trkpt><trkpt lat="38.473447" lon="-1.5277"><ele>554.0</ele><time>2026-04-13T12:23:33.686Z</time></trkpt><trkpt lat="38.4734675" lon="-1.5273546"><ele>554.5</ele><time>2026-04-13T12:23:34.686Z</time></trkpt><trkpt lat="38.4734915" lon="-1.5270089"><ele>555.0</ele><time>2026-04-13T12:23:35.686Z</time></trkpt><trkpt lat="38.4735127" lon="-1.5266604"><ele>555.0</ele><time>2026-04-13T12:23:36.686Z</time></trkpt><trkpt lat="38.4735324" lon="-1.5263087"><ele>555.0</ele><time>2026-04-13T12:23:37.686Z</time></trkpt><trkpt lat="38.473553" lon="-1.5259589"><ele>556.0</ele><time>2026-04-13T12:23:38.686Z</time></trkpt><trkpt lat="38.4735723" lon="-1.5256065"><ele>557.0</ele><time>2026-04-13T12:23:39.686Z</time></trkpt><trkpt lat="38.4735952" lon="-1.5252556"><ele>558.0</ele><time>2026-04-13T12:23:40.686Z</time></trkpt><trkpt lat="38.4736096" lon="-1.5248952"><ele>559.0</ele><time>2026-04-13T12:23:41.686Z</time></trkpt><trkpt lat="38.4736356" lon="-1.5245472"><ele>560.0</ele><time>2026-04-13T12:23:42.686Z</time></trkpt><trkpt lat="38.4736531" lon="-1.5241962"><ele>561.0</ele><time>2026-04-13T12:23:43.686Z</time></trkpt><trkpt lat="38.4736784" lon="-1.5238415"><ele>560.0</ele><time>2026-04-13T12:23:44.686Z</time></trkpt><trkpt lat="38.4736994" lon="-1.5234904"><ele>559.0</ele><time>2026-04-13T12:23:45.686Z</time></trkpt><trkpt lat="38.4737221" lon="-1.5231405"><ele>559.5</ele><time>2026-04-13T12:23:46.686Z</time></trkpt><trkpt lat="38.4737439" lon="-1.5227939"><ele>560.0</ele><time>2026-04-13T12:23:47.686Z</time></trkpt><trkpt lat="38.4737662" lon="-1.5224393"><ele>562.5</ele><time>2026-04-13T12:23:48.686Z</time></trkpt><trkpt lat="38.4737821" lon="-1.5220975"><ele>565.0</ele><time>2026-04-13T12:23:49.686Z</time></trkpt><trkpt lat="38.4738043" lon="-1.5217486"><ele>565.0</ele><time>2026-04-13T12:23:50.686Z</time></trkpt><trkpt lat="38.473822" lon="-1.521405"><ele>565.0</ele><time>2026-04-13T12:23:51.687Z</time></trkpt><trkpt lat="38.4738414" lon="-1.5210637"><ele>565.5</ele><time>2026-04-13T12:23:52.687Z</time></trkpt><trkpt lat="38.4738616" lon="-1.520728"><ele>566.0</ele><time>2026-04-13T12:23:53.686Z</time></trkpt><trkpt lat="38.4738832" lon="-1.5203938"><ele>566.0</ele><time>2026-04-13T12:23:54.686Z</time></trkpt><trkpt lat="38.4739059" lon="-1.5200591"><ele>566.0</ele><time>2026-04-13T12:23:55.687Z</time></trkpt><trkpt lat="38.4739229" lon="-1.5197256"><ele>566.5</ele><time>2026-04-13T12:23:56.686Z</time></trkpt><trkpt lat="38.4739448" lon="-1.5193914"><ele>567.0</ele><time>2026-04-13T12:23:57.686Z</time></trkpt><trkpt lat="38.4739662" lon="-1.5190582"><ele>567.0</ele><time>2026-04-13T12:23:58.686Z</time></trkpt><trkpt lat="38.473983" lon="-1.5187254"><ele>567.0</ele><time>2026-04-13T12:23:59.686Z</time></trkpt><trkpt lat="38.4740017" lon="-1.5183928"><ele>567.0</ele><time>2026-04-13T12:24:00.686Z</time></trkpt><trkpt lat="38.4740215" lon="-1.5180595"><ele>567.0</ele><time>2026-04-13T12:24:01.686Z</time></trkpt><trkpt lat="38.4740504" lon="-1.5177216"><ele>568.0</ele><time>2026-04-13T12:24:02.686Z</time></trkpt><trkpt lat="38.4740688" lon="-1.5173811"><ele>569.0</ele><time>2026-04-13T12:24:03.686Z</time></trkpt><trkpt lat="38.474089" lon="-1.5170432"><ele>569.5</ele><time>2026-04-13T12:24:04.686Z</time></trkpt><trkpt lat="38.4741077" lon="-1.5167023"><ele>570.0</ele><time>2026-04-13T12:24:05.686Z</time></trkpt><trkpt lat="38.474123" lon="-1.5163606"><ele>571.0</ele><time>2026-04-13T12:24:06.686Z</time></trkpt><trkpt lat="38.474145" lon="-1.5160171"><ele>572.0</ele><time>2026-04-13T12:24:07.686Z</time></trkpt><trkpt lat="38.4741691" lon="-1.5156696"><ele>573.0</ele><time>2026-04-13T12:24:08.686Z</time></trkpt><trkpt lat="38.4741925" lon="-1.5153212"><ele>574.0</ele><time>2026-04-13T12:24:09.686Z</time></trkpt><trkpt lat="38.4742148" lon="-1.5149725"><ele>574.0</ele><time>2026-04-13T12:24:10.686Z</time></trkpt><trkpt lat="38.4742333" lon="-1.5146224"><ele>574.0</ele><time>2026-04-13T12:24:11.687Z</time></trkpt><trkpt lat="38.4742541" lon="-1.5142689"><ele>574.0</ele><time>2026-04-13T12:24:12.686Z</time></trkpt><trkpt lat="38.4742766" lon="-1.5139206"><ele>574.0</ele><time>2026-04-13T12:24:13.687Z</time></trkpt><trkpt lat="38.4742976" lon="-1.5135684"><ele>574.0</ele><time>2026-04-13T12:24:14.686Z</time></trkpt><trkpt lat="38.4743178" lon="-1.5132163"><ele>574.0</ele><time>2026-04-13T12:24:15.686Z</time></trkpt><trkpt lat="38.4743374" lon="-1.5128639"><ele>574.0</ele><time>2026-04-13T12:24:16.686Z</time></trkpt><trkpt lat="38.4743602" lon="-1.512509"><ele>574.0</ele><time>2026-04-13T12:24:17.686Z</time></trkpt><trkpt lat="38.4743779" lon="-1.5121583"><ele>575.5</ele><time>2026-04-13T12:24:18.686Z</time></trkpt><trkpt lat="38.4743986" lon="-1.5118046"><ele>577.0</ele><time>2026-04-13T12:24:19.686Z</time></trkpt><trkpt lat="38.4744178" lon="-1.5114497"><ele>577.0</ele><time>2026-04-13T12:24:20.686Z</time></trkpt><trkpt lat="38.4744394" lon="-1.5110949"><ele>577.0</ele><time>2026-04-13T12:24:21.686Z</time></trkpt><trkpt lat="38.4744611" lon="-1.5107405"><ele>578.5</ele><time>2026-04-13T12:24:22.686Z</time></trkpt><trkpt lat="38.4744827" lon="-1.5103851"><ele>580.0</ele><time>2026-04-13T12:24:23.686Z</time></trkpt><trkpt lat="38.4745031" lon="-1.5100274"><ele>580.0</ele><time>2026-04-13T12:24:24.686Z</time></trkpt><trkpt lat="38.4745271" lon="-1.5096706"><ele>580.0</ele><time>2026-04-13T12:24:25.686Z</time></trkpt><trkpt lat="38.4745502" lon="-1.5093108"><ele>581.5</ele><time>2026-04-13T12:24:26.686Z</time></trkpt><trkpt lat="38.4745725" lon="-1.5089543"><ele>583.0</ele><time>2026-04-13T12:24:27.686Z</time></trkpt><trkpt lat="38.4745937" lon="-1.5085963"><ele>583.0</ele><time>2026-04-13T12:24:28.686Z</time></trkpt><trkpt lat="38.4746161" lon="-1.5082392"><ele>583.0</ele><time>2026-04-13T12:24:29.686Z</time></trkpt><trkpt lat="38.4746372" lon="-1.507882"><ele>584.5</ele><time>2026-04-13T12:24:30.686Z</time></trkpt><trkpt lat="38.4746535" lon="-1.5075217"><ele>586.0</ele><time>2026-04-13T12:24:31.686Z</time></trkpt><trkpt lat="38.4746748" lon="-1.5071655"><ele>586.5</ele><time>2026-04-13T12:24:32.686Z</time></trkpt><trkpt lat="38.4746975" lon="-1.5068093"><ele>587.0</ele><time>2026-04-13T12:24:33.686Z</time></trkpt><trkpt lat="38.4747177" lon="-1.5064551"><ele>588.5</ele><time>2026-04-13T12:24:34.686Z</time></trkpt><trkpt lat="38.4747398" lon="-1.5061015"><ele>590.0</ele><time>2026-04-13T12:24:35.686Z</time></trkpt><trkpt lat="38.47476" lon="-1.5057511"><ele>589.5</ele><time>2026-04-13T12:24:36.686Z</time></trkpt><trkpt lat="38.4747811" lon="-1.5054002"><ele>589.0</ele><time>2026-04-13T12:24:37.686Z</time></trkpt><trkpt lat="38.4748015" lon="-1.5050529"><ele>589.0</ele><time>2026-04-13T12:24:38.686Z</time></trkpt><trkpt lat="38.4748229" lon="-1.5047057"><ele>589.0</ele><time>2026-04-13T12:24:39.686Z</time></trkpt><trkpt lat="38.4748452" lon="-1.5043571"><ele>590.5</ele><time>2026-04-13T12:24:40.686Z</time></trkpt><trkpt lat="38.4748656" lon="-1.5040084"><ele>592.0</ele><time>2026-04-13T12:24:41.686Z</time></trkpt><trkpt lat="38.4748858" lon="-1.5036609"><ele>592.5</ele><time>2026-04-13T12:24:42.686Z</time></trkpt><trkpt lat="38.4749072" lon="-1.5033099"><ele>593.0</ele><time>2026-04-13T12:24:43.686Z</time></trkpt><trkpt lat="38.4749294" lon="-1.5029577"><ele>593.5</ele><time>2026-04-13T12:24:44.686Z</time></trkpt><trkpt lat="38.4749436" lon="-1.5026151"><ele>594.0</ele><time>2026-04-13T12:24:45.686Z</time></trkpt><trkpt lat="38.4749628" lon="-1.5022599"><ele>595.0</ele><time>2026-04-13T12:24:46.686Z</time></trkpt><trkpt lat="38.4749859" lon="-1.5019053"><ele>596.0</ele><time>2026-04-13T12:24:47.686Z</time></trkpt><trkpt lat="38.4750076" lon="-1.5015528"><ele>597.0</ele><time>2026-04-13T12:24:48.686Z</time></trkpt><trkpt lat="38.4750259" lon="-1.5012039"><ele>598.0</ele><time>2026-04-13T12:24:49.686Z</time></trkpt><trkpt lat="38.4750501" lon="-1.5008497"><ele>598.0</ele><time>2026-04-13T12:24:50.686Z</time></trkpt><trkpt lat="38.4750741" lon="-1.5004991"><ele>598.0</ele><time>2026-04-13T12:24:51.686Z</time></trkpt><trkpt lat="38.4751019" lon="-1.5001606"><ele>598.0</ele><time>2026-04-13T12:24:52.686Z</time></trkpt><trkpt lat="38.4751154" lon="-1.4997811"><ele>598.0</ele><time>2026-04-13T12:24:53.686Z</time></trkpt><trkpt lat="38.4751325" lon="-1.49941"><ele>599.5</ele><time>2026-04-13T12:24:54.686Z</time></trkpt><trkpt lat="38.4751578" lon="-1.4990797"><ele>601.0</ele><time>2026-04-13T12:24:55.687Z</time></trkpt><trkpt lat="38.4751733" lon="-1.4987249"><ele>603.0</ele><time>2026-04-13T12:24:56.686Z</time></trkpt><trkpt lat="38.4751962" lon="-1.4983744"><ele>605.0</ele><time>2026-04-13T12:24:57.686Z</time></trkpt><trkpt lat="38.4752153" lon="-1.498031"><ele>605.5</ele><time>2026-04-13T12:24:58.686Z</time></trkpt><trkpt lat="38.4752345" lon="-1.4976859"><ele>606.0</ele><time>2026-04-13T12:24:59.686Z</time></trkpt><trkpt lat="38.4752569" lon="-1.4973419"><ele>606.0</ele><time>2026-04-13T12:25:00.686Z</time></trkpt><trkpt lat="38.4752855" lon="-1.4969992"><ele>606.0</ele><time>2026-04-13T12:25:01.686Z</time></trkpt><trkpt lat="38.4753032" lon="-1.4966758"><ele>606.0</ele><time>2026-04-13T12:25:02.687Z</time></trkpt><trkpt lat="38.475317" lon="-1.4963451"><ele>606.0</ele><time>2026-04-13T12:25:03.686Z</time></trkpt><trkpt lat="38.4753024" lon="-1.4960175"><ele>606.5</ele><time>2026-04-13T12:25:04.686Z</time></trkpt><trkpt lat="38.4752513" lon="-1.495694"><ele>607.0</ele><time>2026-04-13T12:25:05.686Z</time></trkpt><trkpt lat="38.47517" lon="-1.4953776"><ele>607.0</ele><time>2026-04-13T12:25:06.686Z</time></trkpt><trkpt lat="38.4750838" lon="-1.4950581"><ele>607.0</ele><time>2026-04-13T12:25:07.686Z</time></trkpt><trkpt lat="38.4749936" lon="-1.4947378"><ele>607.0</ele><time>2026-04-13T12:25:08.686Z</time></trkpt><trkpt lat="38.4749075" lon="-1.4944107"><ele>607.0</ele><time>2026-04-13T12:25:09.686Z</time></trkpt><trkpt lat="38.4748188" lon="-1.4940842"><ele>607.0</ele><time>2026-04-13T12:25:10.686Z</time></trkpt><trkpt lat="38.4747312" lon="-1.4937562"><ele>607.0</ele><time>2026-04-13T12:25:11.686Z</time></trkpt><trkpt lat="38.4746418" lon="-1.4934291"><ele>605.0</ele><time>2026-04-13T12:25:12.686Z</time></trkpt><trkpt lat="38.4745518" lon="-1.4930975"><ele>603.0</ele><time>2026-04-13T12:25:13.686Z</time></trkpt><trkpt lat="38.4744589" lon="-1.4927625"><ele>603.0</ele><time>2026-04-13T12:25:14.686Z</time></trkpt><trkpt lat="38.474349" lon="-1.4924151"><ele>603.0</ele><time>2026-04-13T12:25:15.686Z</time></trkpt><trkpt lat="38.4742759" lon="-1.4920884"><ele>603.0</ele><time>2026-04-13T12:25:16.686Z</time></trkpt><trkpt lat="38.474187" lon="-1.4917591"><ele>603.0</ele><time>2026-04-13T12:25:17.686Z</time></trkpt><trkpt lat="38.4741013" lon="-1.4914327"><ele>603.5</ele><time>2026-04-13T12:25:18.687Z</time></trkpt><trkpt lat="38.4740085" lon="-1.4911126"><ele>604.0</ele><time>2026-04-13T12:25:19.686Z</time></trkpt><trkpt lat="38.4739234" lon="-1.4907882"><ele>604.0</ele><time>2026-04-13T12:25:20.686Z</time></trkpt><trkpt lat="38.4738352" lon="-1.4904579"><ele>604.0</ele><time>2026-04-13T12:25:21.687Z</time></trkpt><trkpt lat="38.4737516" lon="-1.4901461"><ele>605.0</ele><time>2026-04-13T12:25:22.686Z</time></trkpt><trkpt lat="38.4736678" lon="-1.4898305"><ele>606.0</ele><time>2026-04-13T12:25:23.686Z</time></trkpt><trkpt lat="38.4735832" lon="-1.4895126"><ele>607.5</ele><time>2026-04-13T12:25:24.686Z</time></trkpt><trkpt lat="38.4735" lon="-1.4892047"><ele>609.0</ele><time>2026-04-13T12:25:25.686Z</time></trkpt><trkpt lat="38.4734125" lon="-1.4888889"><ele>610.0</ele><time>2026-04-13T12:25:26.687Z</time></trkpt><trkpt lat="38.4733319" lon="-1.4885821"><ele>611.0</ele><time>2026-04-13T12:25:27.686Z</time></trkpt><trkpt lat="38.4732459" lon="-1.4882706"><ele>611.0</ele><time>2026-04-13T12:25:28.686Z</time></trkpt><trkpt lat="38.4731638" lon="-1.4879595"><ele>611.0</ele><time>2026-04-13T12:25:29.686Z</time></trkpt><trkpt lat="38.47308" lon="-1.4876494"><ele>612.0</ele><time>2026-04-13T12:25:30.686Z</time></trkpt><trkpt lat="38.4729802" lon="-1.4873525"><ele>613.0</ele><time>2026-04-13T12:25:31.686Z</time></trkpt><trkpt lat="38.4728526" lon="-1.4870678"><ele>613.0</ele><time>2026-04-13T12:25:32.686Z</time></trkpt><trkpt lat="38.4727011" lon="-1.4867923"><ele>613.0</ele><time>2026-04-13T12:25:33.686Z</time></trkpt><trkpt lat="38.4725456" lon="-1.4865141"><ele>612.5</ele><time>2026-04-13T12:25:34.686Z</time></trkpt><trkpt lat="38.4723924" lon="-1.4862299"><ele>612.0</ele><time>2026-04-13T12:25:35.686Z</time></trkpt><trkpt lat="38.4722358" lon="-1.4859421"><ele>611.0</ele><time>2026-04-13T12:25:36.686Z</time></trkpt><trkpt lat="38.4720735" lon="-1.4856572"><ele>610.0</ele><time>2026-04-13T12:25:37.686Z</time></trkpt><trkpt lat="38.4719172" lon="-1.4853741"><ele>610.0</ele><time>2026-04-13T12:25:38.686Z</time></trkpt><trkpt lat="38.4717639" lon="-1.4850906"><ele>610.0</ele><time>2026-04-13T12:25:39.686Z</time></trkpt><trkpt lat="38.4716128" lon="-1.4848062"><ele>610.0</ele><time>2026-04-13T12:25:40.686Z</time></trkpt><trkpt lat="38.4714575" lon="-1.4845324"><ele>610.0</ele><time>2026-04-13T12:25:41.686Z</time></trkpt><trkpt lat="38.4713021" lon="-1.4842525"><ele>609.0</ele><time>2026-04-13T12:25:42.686Z</time></trkpt><trkpt lat="38.4711512" lon="-1.4839751"><ele>608.0</ele><time>2026-04-13T12:25:43.686Z</time></trkpt><trkpt lat="38.4709998" lon="-1.4837001"><ele>606.0</ele><time>2026-04-13T12:25:44.686Z</time></trkpt><trkpt lat="38.4708451" lon="-1.4834228"><ele>604.0</ele><time>2026-04-13T12:25:45.686Z</time></trkpt><trkpt lat="38.4706932" lon="-1.4831478"><ele>604.5</ele><time>2026-04-13T12:25:46.686Z</time></trkpt><trkpt lat="38.4705414" lon="-1.4828681"><ele>605.0</ele><time>2026-04-13T12:25:47.686Z</time></trkpt><trkpt lat="38.4703966" lon="-1.4826054"><ele>604.0</ele><time>2026-04-13T12:25:48.686Z</time></trkpt><trkpt lat="38.4702673" lon="-1.4823621"><ele>603.0</ele><time>2026-04-13T12:25:49.686Z</time></trkpt><trkpt lat="38.4701405" lon="-1.4821293"><ele>602.3333333333334</ele><time>2026-04-13T12:25:50.686Z</time></trkpt><trkpt lat="38.4700344" lon="-1.481889"><ele>601.6666666666667</ele><time>2026-04-13T12:25:51.686Z</time></trkpt><trkpt lat="38.4699368" lon="-1.4816333"><ele>601.0</ele><time>2026-04-13T12:25:52.686Z</time></trkpt><trkpt lat="38.4698407" lon="-1.481385"><ele>602.0</ele><time>2026-04-13T12:25:53.686Z</time></trkpt><trkpt lat="38.4698246" lon="-1.4810835"><ele>603.0</ele><time>2026-04-13T12:25:54.686Z</time></trkpt><trkpt lat="38.4698027" lon="-1.4808015"><ele>603.0</ele><time>2026-04-13T12:25:55.686Z</time></trkpt><trkpt lat="38.469806" lon="-1.4805165"><ele>603.0</ele><time>2026-04-13T12:25:56.686Z</time></trkpt><trkpt lat="38.4698278" lon="-1.4802336"><ele>603.0</ele><time>2026-04-13T12:25:57.686Z</time></trkpt><trkpt lat="38.4698475" lon="-1.479952"><ele>604.0</ele><time>2026-04-13T12:25:58.686Z</time></trkpt><trkpt lat="38.4698641" lon="-1.4796736"><ele>605.0</ele><time>2026-04-13T12:25:59.686Z</time></trkpt><trkpt lat="38.4698664" lon="-1.4793904"><ele>606.0</ele><time>2026-04-13T12:26:00.686Z</time></trkpt><trkpt lat="38.4698469" lon="-1.4791093"><ele>606.0</ele><time>2026-04-13T12:26:01.686Z</time></trkpt><trkpt lat="38.4697983" lon="-1.4788276"><ele>606.0</ele><time>2026-04-13T12:26:02.686Z</time></trkpt><trkpt lat="38.4697188" lon="-1.4785515"><ele>607.0</ele><time>2026-04-13T12:26:03.686Z</time></trkpt><trkpt lat="38.4696088" lon="-1.478287"><ele>608.0</ele><time>2026-04-13T12:26:04.686Z</time></trkpt><trkpt lat="38.4694754" lon="-1.4780395"><ele>608.0</ele><time>2026-04-13T12:26:05.687Z</time></trkpt><trkpt lat="38.4693199" lon="-1.4778085"><ele>608.0</ele><time>2026-04-13T12:26:06.686Z</time></trkpt><trkpt lat="38.4691452" lon="-1.4775935"><ele>608.0</ele><time>2026-04-13T12:26:07.686Z</time></trkpt><trkpt lat="38.4689572" lon="-1.4773869"><ele>608.0</ele><time>2026-04-13T12:26:08.686Z</time></trkpt><trkpt lat="38.468759" lon="-1.4771903"><ele>610.0</ele><time>2026-04-13T12:26:09.686Z</time></trkpt><trkpt lat="38.4685578" lon="-1.4769948"><ele>612.0</ele><time>2026-04-13T12:26:10.686Z</time></trkpt><trkpt lat="38.4683627" lon="-1.4767885"><ele>612.0</ele><time>2026-04-13T12:26:11.686Z</time></trkpt><trkpt lat="38.4681699" lon="-1.4765747"><ele>612.0</ele><time>2026-04-13T12:26:12.686Z</time></trkpt><trkpt lat="38.4679874" lon="-1.4763487"><ele>615.5</ele><time>2026-04-13T12:26:13.686Z</time></trkpt><trkpt lat="38.4678151" lon="-1.4761065"><ele>619.0</ele><time>2026-04-13T12:26:14.686Z</time></trkpt><trkpt lat="38.4676567" lon="-1.4758499"><ele>619.0</ele><time>2026-04-13T12:26:15.686Z</time></trkpt><trkpt lat="38.4675129" lon="-1.4755882"><ele>619.0</ele><time>2026-04-13T12:26:16.686Z</time></trkpt><trkpt lat="38.46738" lon="-1.4753287"><ele>619.6666666666667</ele><time>2026-04-13T12:26:17.686Z</time></trkpt><trkpt lat="38.4672577" lon="-1.4750807"><ele>620.3333333333334</ele><time>2026-04-13T12:26:18.686Z</time></trkpt><trkpt lat="38.4671446" lon="-1.474842"><ele>621.0</ele><time>2026-04-13T12:26:19.686Z</time></trkpt><trkpt lat="38.4670468" lon="-1.4745944"><ele>621.6666666666666</ele><time>2026-04-13T12:26:20.686Z</time></trkpt><trkpt lat="38.4669677" lon="-1.4743354"><ele>622.3333333333333</ele><time>2026-04-13T12:26:21.687Z</time></trkpt><trkpt lat="38.4669039" lon="-1.4740642"><ele>623.0</ele><time>2026-04-13T12:26:22.686Z</time></trkpt><trkpt lat="38.4668341" lon="-1.4737915"><ele>624.5</ele><time>2026-04-13T12:26:23.686Z</time></trkpt><trkpt lat="38.466745" lon="-1.4735202"><ele>626.0</ele><time>2026-04-13T12:26:24.686Z</time></trkpt><trkpt lat="38.4666382" lon="-1.4732669"><ele>626.0</ele><time>2026-04-13T12:26:25.686Z</time></trkpt><trkpt lat="38.4665201" lon="-1.4730103"><ele>626.0</ele><time>2026-04-13T12:26:26.686Z</time></trkpt><trkpt lat="38.4663995" lon="-1.472748"><ele>628.0</ele><time>2026-04-13T12:26:27.686Z</time></trkpt><trkpt lat="38.4662763" lon="-1.4724844"><ele>630.0</ele><time>2026-04-13T12:26:28.686Z</time></trkpt><trkpt lat="38.4661521" lon="-1.4722144"><ele>630.5</ele><time>2026-04-13T12:26:29.686Z</time></trkpt><trkpt lat="38.4660293" lon="-1.4719444"><ele>631.0</ele><time>2026-04-13T12:26:30.686Z</time></trkpt><trkpt lat="38.4659076" lon="-1.4716678"><ele>631.0</ele><time>2026-04-13T12:26:31.686Z</time></trkpt><trkpt lat="38.4657801" lon="-1.4713967"><ele>631.0</ele><time>2026-04-13T12:26:32.686Z</time></trkpt><trkpt lat="38.4656621" lon="-1.4711404"><ele>633.0</ele><time>2026-04-13T12:26:33.686Z</time></trkpt><trkpt lat="38.4655523" lon="-1.4708775"><ele>635.0</ele><time>2026-04-13T12:26:34.686Z</time></trkpt><trkpt lat="38.4654575" lon="-1.4706127"><ele>633.0</ele><time>2026-04-13T12:26:35.686Z</time></trkpt><trkpt lat="38.4653682" lon="-1.4703309"><ele>631.0</ele><time>2026-04-13T12:26:36.686Z</time></trkpt><trkpt lat="38.46529" lon="-1.4700389"><ele>631.0</ele><time>2026-04-13T12:26:37.686Z</time></trkpt><trkpt lat="38.4652268" lon="-1.4697433"><ele>631.0</ele><time>2026-04-13T12:26:38.686Z</time></trkpt><trkpt lat="38.4651567" lon="-1.4694366"><ele>632.5</ele><time>2026-04-13T12:26:39.686Z</time></trkpt><trkpt lat="38.4650936" lon="-1.4691297"><ele>634.0</ele><time>2026-04-13T12:26:40.686Z</time></trkpt><trkpt lat="38.4650326" lon="-1.4688253"><ele>634.5</ele><time>2026-04-13T12:26:41.686Z</time></trkpt><trkpt lat="38.4649751" lon="-1.4685181"><ele>635.0</ele><time>2026-04-13T12:26:42.686Z</time></trkpt><trkpt lat="38.4649267" lon="-1.4682064"><ele>638.0</ele><time>2026-04-13T12:26:43.686Z</time></trkpt><trkpt lat="38.4648777" lon="-1.4678973"><ele>641.0</ele><time>2026-04-13T12:26:44.686Z</time></trkpt><trkpt lat="38.4648247" lon="-1.4675908"><ele>641.0</ele><time>2026-04-13T12:26:45.686Z</time></trkpt><trkpt lat="38.4647716" lon="-1.4672889"><ele>641.0</ele><time>2026-04-13T12:26:46.686Z</time></trkpt><trkpt lat="38.464718" lon="-1.4669852"><ele>640.0</ele><time>2026-04-13T12:26:47.686Z</time></trkpt><trkpt lat="38.4646598" lon="-1.4666803"><ele>639.0</ele><time>2026-04-13T12:26:48.686Z</time></trkpt><trkpt lat="38.4646028" lon="-1.4663764"><ele>640.0</ele><time>2026-04-13T12:26:49.686Z</time></trkpt><trkpt lat="38.4645331" lon="-1.4660769"><ele>641.0</ele><time>2026-04-13T12:26:50.686Z</time></trkpt><trkpt lat="38.4644529" lon="-1.4657831"><ele>641.0</ele><time>2026-04-13T12:26:51.686Z</time></trkpt><trkpt lat="38.4643648" lon="-1.4654818"><ele>641.0</ele><time>2026-04-13T12:26:52.686Z</time></trkpt><trkpt lat="38.464269" lon="-1.4651886"><ele>643.0</ele><time>2026-04-13T12:26:53.686Z</time></trkpt><trkpt lat="38.4641612" lon="-1.4648944"><ele>645.0</ele><time>2026-04-13T12:26:54.686Z</time></trkpt><trkpt lat="38.4640444" lon="-1.4646065"><ele>647.0</ele><time>2026-04-13T12:26:55.686Z</time></trkpt><trkpt lat="38.4639189" lon="-1.4643174"><ele>649.0</ele><time>2026-04-13T12:26:56.686Z</time></trkpt><trkpt lat="38.4637964" lon="-1.464033"><ele>648.5</ele><time>2026-04-13T12:26:57.686Z</time></trkpt><trkpt lat="38.4636687" lon="-1.4637452"><ele>648.0</ele><time>2026-04-13T12:26:58.686Z</time></trkpt><trkpt lat="38.463544" lon="-1.4634609"><ele>648.0</ele><time>2026-04-13T12:26:59.686Z</time></trkpt><trkpt lat="38.4634151" lon="-1.4631806"><ele>648.0</ele><time>2026-04-13T12:27:00.686Z</time></trkpt><trkpt lat="38.4632817" lon="-1.4629086"><ele>650.0</ele><time>2026-04-13T12:27:01.686Z</time></trkpt><trkpt lat="38.4631283" lon="-1.4626588"><ele>652.0</ele><time>2026-04-13T12:27:02.686Z</time></trkpt><trkpt lat="38.4629715" lon="-1.4624283"><ele>651.5</ele><time>2026-04-13T12:27:03.686Z</time></trkpt><trkpt lat="38.4628133" lon="-1.4622082"><ele>651.0</ele><time>2026-04-13T12:27:04.686Z</time></trkpt><trkpt lat="38.4626614" lon="-1.4619813"><ele>651.0</ele><time>2026-04-13T12:27:05.686Z</time></trkpt><trkpt lat="38.4625157" lon="-1.4617407"><ele>651.0</ele><time>2026-04-13T12:27:06.686Z</time></trkpt><trkpt lat="38.4623765" lon="-1.4614933"><ele>653.0</ele><time>2026-04-13T12:27:07.686Z</time></trkpt><trkpt lat="38.4622521" lon="-1.4612326"><ele>655.0</ele><time>2026-04-13T12:27:08.686Z</time></trkpt><trkpt lat="38.462146" lon="-1.4609653"><ele>654.0</ele><time>2026-04-13T12:27:09.686Z</time></trkpt><trkpt lat="38.462057" lon="-1.4606906"><ele>653.0</ele><time>2026-04-13T12:27:10.686Z</time></trkpt><trkpt lat="38.4619915" lon="-1.4604046"><ele>653.0</ele><time>2026-04-13T12:27:11.686Z</time></trkpt><trkpt lat="38.4619456" lon="-1.4601113"><ele>653.0</ele><time>2026-04-13T12:27:12.686Z</time></trkpt><trkpt lat="38.4619184" lon="-1.4598124"><ele>651.5</ele><time>2026-04-13T12:27:13.686Z</time></trkpt><trkpt lat="38.4619063" lon="-1.4595089"><ele>650.0</ele><time>2026-04-13T12:27:14.686Z</time></trkpt><trkpt lat="38.4619139" lon="-1.4592005"><ele>650.0</ele><time>2026-04-13T12:27:15.686Z</time></trkpt><trkpt lat="38.4619439" lon="-1.4588938"><ele>650.0</ele><time>2026-04-13T12:27:16.686Z</time></trkpt><trkpt lat="38.4619889" lon="-1.4585879"><ele>650.0</ele><time>2026-04-13T12:27:17.686Z</time></trkpt><trkpt lat="38.4620502" lon="-1.4582859"><ele>650.0</ele><time>2026-04-13T12:27:18.686Z</time></trkpt><trkpt lat="38.4621213" lon="-1.4579902"><ele>652.0</ele><time>2026-04-13T12:27:19.686Z</time></trkpt><trkpt lat="38.4622153" lon="-1.4577024"><ele>654.0</ele><time>2026-04-13T12:27:20.687Z</time></trkpt><trkpt lat="38.4623348" lon="-1.457422"><ele>654.0</ele><time>2026-04-13T12:27:21.686Z</time></trkpt><trkpt lat="38.4624649" lon="-1.4571526"><ele>654.0</ele><time>2026-04-13T12:27:22.686Z</time></trkpt><trkpt lat="38.4626042" lon="-1.4568923"><ele>652.5</ele><time>2026-04-13T12:27:23.686Z</time></trkpt><trkpt lat="38.4627436" lon="-1.4566286"><ele>651.0</ele><time>2026-04-13T12:27:24.686Z</time></trkpt><trkpt lat="38.4628916" lon="-1.4563661"><ele>652.0</ele><time>2026-04-13T12:27:25.686Z</time></trkpt><trkpt lat="38.4630376" lon="-1.4561046"><ele>653.0</ele><time>2026-04-13T12:27:26.687Z</time></trkpt><trkpt lat="38.463185" lon="-1.4558457"><ele>653.0</ele><time>2026-04-13T12:27:27.686Z</time></trkpt><trkpt lat="38.4633366" lon="-1.4555884"><ele>653.0</ele><time>2026-04-13T12:27:28.686Z</time></trkpt><trkpt lat="38.4634882" lon="-1.4553315"><ele>652.5</ele><time>2026-04-13T12:27:29.686Z</time></trkpt><trkpt lat="38.4636394" lon="-1.4550762"><ele>652.0</ele><time>2026-04-13T12:27:30.686Z</time></trkpt><trkpt lat="38.463793" lon="-1.4548259"><ele>652.0</ele><time>2026-04-13T12:27:31.686Z</time></trkpt><trkpt lat="38.4639516" lon="-1.4545799"><ele>652.0</ele><time>2026-04-13T12:27:32.686Z</time></trkpt><trkpt lat="38.4641126" lon="-1.454338"><ele>652.0</ele><time>2026-04-13T12:27:33.686Z</time></trkpt><trkpt lat="38.4642794" lon="-1.4541036"><ele>652.0</ele><time>2026-04-13T12:27:34.686Z</time></trkpt><trkpt lat="38.4644533" lon="-1.4538809"><ele>651.0</ele><time>2026-04-13T12:27:35.686Z</time></trkpt><trkpt lat="38.4646337" lon="-1.4536602"><ele>650.0</ele><time>2026-04-13T12:27:36.686Z</time></trkpt><trkpt lat="38.4648186" lon="-1.4534439"><ele>650.0</ele><time>2026-04-13T12:27:37.686Z</time></trkpt><trkpt lat="38.4650056" lon="-1.453237"><ele>650.0</ele><time>2026-04-13T12:27:38.686Z</time></trkpt><trkpt lat="38.4651946" lon="-1.4530273"><ele>650.0</ele><time>2026-04-13T12:27:39.686Z</time></trkpt><trkpt lat="38.4653836" lon="-1.4528218"><ele>650.0</ele><time>2026-04-13T12:27:40.686Z</time></trkpt><trkpt lat="38.4655729" lon="-1.4526198"><ele>648.5</ele><time>2026-04-13T12:27:41.686Z</time></trkpt><trkpt lat="38.4657589" lon="-1.4524111"><ele>647.0</ele><time>2026-04-13T12:27:42.686Z</time></trkpt><trkpt lat="38.4659425" lon="-1.4521988"><ele>647.5</ele><time>2026-04-13T12:27:43.686Z</time></trkpt><trkpt lat="38.4661243" lon="-1.4519825"><ele>648.0</ele><time>2026-04-13T12:27:44.686Z</time></trkpt><trkpt lat="38.4663012" lon="-1.4517608"><ele>648.0</ele><time>2026-04-13T12:27:45.686Z</time></trkpt><trkpt lat="38.4664728" lon="-1.4515336"><ele>648.0</ele><time>2026-04-13T12:27:46.686Z</time></trkpt><trkpt lat="38.4666429" lon="-1.4513033"><ele>647.0</ele><time>2026-04-13T12:27:47.686Z</time></trkpt><trkpt lat="38.466812" lon="-1.4510696"><ele>646.0</ele><time>2026-04-13T12:27:48.687Z</time></trkpt><trkpt lat="38.4669777" lon="-1.4508272"><ele>647.5</ele><time>2026-04-13T12:27:49.687Z</time></trkpt><trkpt lat="38.4671415" lon="-1.4505833"><ele>649.0</ele><time>2026-04-13T12:27:50.686Z</time></trkpt><trkpt lat="38.4673023" lon="-1.4503394"><ele>649.0</ele><time>2026-04-13T12:27:51.686Z</time></trkpt><trkpt lat="38.4674636" lon="-1.4500961"><ele>649.0</ele><time>2026-04-13T12:27:52.686Z</time></trkpt><trkpt lat="38.4676257" lon="-1.4498532"><ele>648.0</ele><time>2026-04-13T12:27:53.686Z</time></trkpt><trkpt lat="38.4677907" lon="-1.4496189"><ele>647.0</ele><time>2026-04-13T12:27:54.686Z</time></trkpt><trkpt lat="38.4679484" lon="-1.4493681"><ele>647.0</ele><time>2026-04-13T12:27:55.687Z</time></trkpt><trkpt lat="38.4681016" lon="-1.4491217"><ele>647.0</ele><time>2026-04-13T12:27:56.686Z</time></trkpt><trkpt lat="38.4682524" lon="-1.4488712"><ele>647.0</ele><time>2026-04-13T12:27:57.686Z</time></trkpt><trkpt lat="38.4683962" lon="-1.4486131"><ele>647.0</ele><time>2026-04-13T12:27:58.686Z</time></trkpt><trkpt lat="38.468534" lon="-1.4483427"><ele>647.0</ele><time>2026-04-13T12:27:59.686Z</time></trkpt><trkpt lat="38.4686534" lon="-1.4480613"><ele>647.0</ele><time>2026-04-13T12:28:00.686Z</time></trkpt><trkpt lat="38.4687573" lon="-1.4477684"><ele>649.5</ele><time>2026-04-13T12:28:01.687Z</time></trkpt><trkpt lat="38.4688501" lon="-1.4474673"><ele>652.0</ele><time>2026-04-13T12:28:02.686Z</time></trkpt><trkpt lat="38.4689231" lon="-1.4471624"><ele>651.0</ele><time>2026-04-13T12:28:03.686Z</time></trkpt><trkpt lat="38.4689849" lon="-1.446862"><ele>650.0</ele><time>2026-04-13T12:28:04.686Z</time></trkpt><trkpt lat="38.469036" lon="-1.4465648"><ele>647.0</ele><time>2026-04-13T12:28:05.686Z</time></trkpt><trkpt lat="38.4690632" lon="-1.4462591"><ele>644.0</ele><time>2026-04-13T12:28:06.686Z</time></trkpt><trkpt lat="38.4690764" lon="-1.4459498"><ele>644.0</ele><time>2026-04-13T12:28:07.686Z</time></trkpt><trkpt lat="38.4690708" lon="-1.445638"><ele>644.0</ele><time>2026-04-13T12:28:08.686Z</time></trkpt><trkpt lat="38.4690541" lon="-1.4453303"><ele>643.5</ele><time>2026-04-13T12:28:09.686Z</time></trkpt><trkpt lat="38.4690249" lon="-1.4450189"><ele>643.0</ele><time>2026-04-13T12:28:10.686Z</time></trkpt><trkpt lat="38.4689797" lon="-1.4447062"><ele>646.5</ele><time>2026-04-13T12:28:11.687Z</time></trkpt><trkpt lat="38.468923" lon="-1.4443992"><ele>650.0</ele><time>2026-04-13T12:28:12.686Z</time></trkpt><trkpt lat="38.4688459" lon="-1.4440967"><ele>648.0</ele><time>2026-04-13T12:28:13.686Z</time></trkpt><trkpt lat="38.4687523" lon="-1.443795"><ele>646.0</ele><time>2026-04-13T12:28:14.686Z</time></trkpt><trkpt lat="38.4686359" lon="-1.4434983"><ele>646.0</ele><time>2026-04-13T12:28:15.686Z</time></trkpt><trkpt lat="38.4685105" lon="-1.4432097"><ele>646.0</ele><time>2026-04-13T12:28:16.687Z</time></trkpt><trkpt lat="38.4683814" lon="-1.4429197"><ele>648.5</ele><time>2026-04-13T12:28:17.686Z</time></trkpt><trkpt lat="38.4682477" lon="-1.4426383"><ele>651.0</ele><time>2026-04-13T12:28:18.686Z</time></trkpt><trkpt lat="38.4681143" lon="-1.4423583"><ele>654.0</ele><time>2026-04-13T12:28:19.686Z</time></trkpt><trkpt lat="38.4679833" lon="-1.4420726"><ele>657.0</ele><time>2026-04-13T12:28:20.686Z</time></trkpt><trkpt lat="38.4678607" lon="-1.441786"><ele>652.5</ele><time>2026-04-13T12:28:21.686Z</time></trkpt><trkpt lat="38.467742" lon="-1.4414989"><ele>648.0</ele><time>2026-04-13T12:28:22.686Z</time></trkpt><trkpt lat="38.4676296" lon="-1.4412072"><ele>648.0</ele><time>2026-04-13T12:28:23.686Z</time></trkpt><trkpt lat="38.4675222" lon="-1.4409138"><ele>648.0</ele><time>2026-04-13T12:28:24.686Z</time></trkpt><trkpt lat="38.4674162" lon="-1.4406186"><ele>649.0</ele><time>2026-04-13T12:28:25.686Z</time></trkpt><trkpt lat="38.467322" lon="-1.4403248"><ele>650.0</ele><time>2026-04-13T12:28:26.686Z</time></trkpt><trkpt lat="38.467232" lon="-1.440028"><ele>650.0</ele><time>2026-04-13T12:28:27.686Z</time></trkpt><trkpt lat="38.4671518" lon="-1.4397254"><ele>650.0</ele><time>2026-04-13T12:28:28.687Z</time></trkpt><trkpt lat="38.4670763" lon="-1.4394228"><ele>645.0</ele><time>2026-04-13T12:28:29.686Z</time></trkpt><trkpt lat="38.4670058" lon="-1.4391236"><ele>640.0</ele><time>2026-04-13T12:28:30.686Z</time></trkpt><trkpt lat="38.4669379" lon="-1.4388219"><ele>641.5</ele><time>2026-04-13T12:28:31.686Z</time></trkpt><trkpt lat="38.4668672" lon="-1.4385183"><ele>643.0</ele><time>2026-04-13T12:28:32.686Z</time></trkpt><trkpt lat="38.4668057" lon="-1.4382256"><ele>645.5</ele><time>2026-04-13T12:28:33.686Z</time></trkpt><trkpt lat="38.4667544" lon="-1.4379452"><ele>648.0</ele><time>2026-04-13T12:28:34.686Z</time></trkpt><trkpt lat="38.4666783" lon="-1.4376504"><ele>648.0</ele><time>2026-04-13T12:28:35.686Z</time></trkpt><trkpt lat="38.4666053" lon="-1.4373611"><ele>648.0</ele><time>2026-04-13T12:28:36.686Z</time></trkpt><trkpt lat="38.4665461" lon="-1.4370851"><ele>648.5</ele><time>2026-04-13T12:28:37.686Z</time></trkpt><trkpt lat="38.4664992" lon="-1.4368016"><ele>649.0</ele><time>2026-04-13T12:28:38.686Z</time></trkpt><trkpt lat="38.4664488" lon="-1.4365215"><ele>650.5</ele><time>2026-04-13T12:28:39.686Z</time></trkpt><trkpt lat="38.4664021" lon="-1.4362386"><ele>652.0</ele><time>2026-04-13T12:28:40.686Z</time></trkpt><trkpt lat="38.4663576" lon="-1.4359553"><ele>652.0</ele><time>2026-04-13T12:28:41.686Z</time></trkpt><trkpt lat="38.4663142" lon="-1.4356676"><ele>652.0</ele><time>2026-04-13T12:28:42.686Z</time></trkpt><trkpt lat="38.4662813" lon="-1.4353789"><ele>648.5</ele><time>2026-04-13T12:28:43.686Z</time></trkpt><trkpt lat="38.4662448" lon="-1.4350908"><ele>645.0</ele><time>2026-04-13T12:28:44.686Z</time></trkpt><trkpt lat="38.4662123" lon="-1.4347998"><ele>645.5</ele><time>2026-04-13T12:28:45.686Z</time></trkpt><trkpt lat="38.4661805" lon="-1.4345122"><ele>646.0</ele><time>2026-04-13T12:28:46.686Z</time></trkpt><trkpt lat="38.4661525" lon="-1.4342254"><ele>646.0</ele><time>2026-04-13T12:28:47.686Z</time></trkpt><trkpt lat="38.4661218" lon="-1.4339336"><ele>646.0</ele><time>2026-04-13T12:28:48.686Z</time></trkpt><trkpt lat="38.4660936" lon="-1.4336394"><ele>646.0</ele><time>2026-04-13T12:28:49.686Z</time></trkpt><trkpt lat="38.4660655" lon="-1.433346"><ele>646.0</ele><time>2026-04-13T12:28:50.686Z</time></trkpt><trkpt lat="38.4660356" lon="-1.4330466"><ele>645.5</ele><time>2026-04-13T12:28:51.686Z</time></trkpt><trkpt lat="38.4660055" lon="-1.4327433"><ele>645.0</ele><time>2026-04-13T12:28:52.686Z</time></trkpt><trkpt lat="38.4659737" lon="-1.4324338"><ele>645.5</ele><time>2026-04-13T12:28:53.686Z</time></trkpt><trkpt lat="38.465943" lon="-1.4321215"><ele>646.0</ele><time>2026-04-13T12:28:54.686Z</time></trkpt><trkpt lat="38.4659191" lon="-1.431807"><ele>646.0</ele><time>2026-04-13T12:28:55.686Z</time></trkpt><trkpt lat="38.4659014" lon="-1.4314853"><ele>646.0</ele><time>2026-04-13T12:28:56.686Z</time></trkpt><trkpt lat="38.4658865" lon="-1.4311791"><ele>645.0</ele><time>2026-04-13T12:28:57.686Z</time></trkpt><trkpt lat="38.4659026" lon="-1.4308544"><ele>644.0</ele><time>2026-04-13T12:28:58.686Z</time></trkpt><trkpt lat="38.4659302" lon="-1.43053"><ele>643.0</ele><time>2026-04-13T12:28:59.686Z</time></trkpt><trkpt lat="38.465968" lon="-1.4302089"><ele>642.0</ele><time>2026-04-13T12:29:00.686Z</time></trkpt><trkpt lat="38.46602" lon="-1.4298969"><ele>641.0</ele><time>2026-04-13T12:29:01.686Z</time></trkpt><trkpt lat="38.4660828" lon="-1.4295858"><ele>640.0</ele><time>2026-04-13T12:29:02.686Z</time></trkpt><trkpt lat="38.4661624" lon="-1.4292769"><ele>640.0</ele><time>2026-04-13T12:29:03.686Z</time></trkpt><trkpt lat="38.4662601" lon="-1.4289836"><ele>640.0</ele><time>2026-04-13T12:29:04.686Z</time></trkpt><trkpt lat="38.4663677" lon="-1.4286853"><ele>643.0</ele><time>2026-04-13T12:29:05.686Z</time></trkpt><trkpt lat="38.4664767" lon="-1.4283882"><ele>646.0</ele><time>2026-04-13T12:29:06.686Z</time></trkpt><trkpt lat="38.4666196" lon="-1.4281314"><ele>647.0</ele><time>2026-04-13T12:29:07.686Z</time></trkpt><trkpt lat="38.4667625" lon="-1.4278584"><ele>648.0</ele><time>2026-04-13T12:29:08.686Z</time></trkpt><trkpt lat="38.4669153" lon="-1.4276008"><ele>648.0</ele><time>2026-04-13T12:29:09.686Z</time></trkpt><trkpt lat="38.4670771" lon="-1.4273511"><ele>648.0</ele><time>2026-04-13T12:29:10.686Z</time></trkpt><trkpt lat="38.4672468" lon="-1.4271082"><ele>649.5</ele><time>2026-04-13T12:29:11.686Z</time></trkpt><trkpt lat="38.4674178" lon="-1.4268696"><ele>651.0</ele><time>2026-04-13T12:29:12.686Z</time></trkpt><trkpt lat="38.4675862" lon="-1.4266302"><ele>651.0</ele><time>2026-04-13T12:29:13.686Z</time></trkpt><trkpt lat="38.4677555" lon="-1.4263912"><ele>651.0</ele><time>2026-04-13T12:29:14.686Z</time></trkpt><trkpt lat="38.4679256" lon="-1.4261531"><ele>651.5</ele><time>2026-04-13T12:29:15.686Z</time></trkpt><trkpt lat="38.4680938" lon="-1.4259122"><ele>652.0</ele><time>2026-04-13T12:29:16.686Z</time></trkpt><trkpt lat="38.4682639" lon="-1.4256717"><ele>653.5</ele><time>2026-04-13T12:29:17.686Z</time></trkpt><trkpt lat="38.4684327" lon="-1.4254325"><ele>655.0</ele><time>2026-04-13T12:29:18.687Z</time></trkpt><trkpt lat="38.4685987" lon="-1.4251877"><ele>655.0</ele><time>2026-04-13T12:29:19.686Z</time></trkpt><trkpt lat="38.468765" lon="-1.4249399"><ele>655.0</ele><time>2026-04-13T12:29:20.686Z</time></trkpt><trkpt lat="38.4689348" lon="-1.4246977"><ele>654.0</ele><time>2026-04-13T12:29:21.686Z</time></trkpt><trkpt lat="38.4691073" lon="-1.424454"><ele>653.0</ele><time>2026-04-13T12:29:22.686Z</time></trkpt><trkpt lat="38.4692813" lon="-1.4242014"><ele>653.0</ele><time>2026-04-13T12:29:23.686Z</time></trkpt><trkpt lat="38.4694536" lon="-1.4239587"><ele>653.0</ele><time>2026-04-13T12:29:24.686Z</time></trkpt><trkpt lat="38.4696263" lon="-1.4237173"><ele>652.0</ele><time>2026-04-13T12:29:25.686Z</time></trkpt><trkpt lat="38.4697982" lon="-1.4234729"><ele>651.0</ele><time>2026-04-13T12:29:26.686Z</time></trkpt><trkpt lat="38.4699696" lon="-1.4232326"><ele>651.0</ele><time>2026-04-13T12:29:27.686Z</time></trkpt><trkpt lat="38.4701399" lon="-1.4229867"><ele>651.0</ele><time>2026-04-13T12:29:28.686Z</time></trkpt><trkpt lat="38.4703116" lon="-1.4227409"><ele>651.5</ele><time>2026-04-13T12:29:29.686Z</time></trkpt><trkpt lat="38.4704817" lon="-1.422494"><ele>652.0</ele><time>2026-04-13T12:29:30.686Z</time></trkpt><trkpt lat="38.4706521" lon="-1.4222496"><ele>651.5</ele><time>2026-04-13T12:29:31.686Z</time></trkpt><trkpt lat="38.470824" lon="-1.4220075"><ele>651.0</ele><time>2026-04-13T12:29:32.686Z</time></trkpt><trkpt lat="38.4709946" lon="-1.4217652"><ele>651.0</ele><time>2026-04-13T12:29:33.686Z</time></trkpt><trkpt lat="38.4711645" lon="-1.4215271"><ele>651.0</ele><time>2026-04-13T12:29:34.686Z</time></trkpt><trkpt lat="38.4713358" lon="-1.4212953"><ele>650.5</ele><time>2026-04-13T12:29:35.686Z</time></trkpt><trkpt lat="38.471502" lon="-1.4210459"><ele>650.0</ele><time>2026-04-13T12:29:36.686Z</time></trkpt><trkpt lat="38.4716661" lon="-1.4208038"><ele>650.0</ele><time>2026-04-13T12:29:37.686Z</time></trkpt><trkpt lat="38.4718332" lon="-1.4205633"><ele>650.0</ele><time>2026-04-13T12:29:38.686Z</time></trkpt><trkpt lat="38.4720111" lon="-1.4203341"><ele>651.0</ele><time>2026-04-13T12:29:39.686Z</time></trkpt><trkpt lat="38.4721811" lon="-1.4200963"><ele>652.0</ele><time>2026-04-13T12:29:40.686Z</time></trkpt><trkpt lat="38.4723543" lon="-1.419856"><ele>651.0</ele><time>2026-04-13T12:29:41.686Z</time></trkpt><trkpt lat="38.4725268" lon="-1.4196096"><ele>650.0</ele><time>2026-04-13T12:29:42.686Z</time></trkpt><trkpt lat="38.4727032" lon="-1.4193563"><ele>650.0</ele><time>2026-04-13T12:29:43.686Z</time></trkpt><trkpt lat="38.4728821" lon="-1.4191009"><ele>650.0</ele><time>2026-04-13T12:29:44.686Z</time></trkpt><trkpt lat="38.4730648" lon="-1.4188448"><ele>650.5</ele><time>2026-04-13T12:29:45.686Z</time></trkpt><trkpt lat="38.4732492" lon="-1.4185831"><ele>651.0</ele><time>2026-04-13T12:29:46.687Z</time></trkpt><trkpt lat="38.4734355" lon="-1.4183229"><ele>651.0</ele><time>2026-04-13T12:29:47.686Z</time></trkpt><trkpt lat="38.4736232" lon="-1.4180556"><ele>651.0</ele><time>2026-04-13T12:29:48.686Z</time></trkpt><trkpt lat="38.4738087" lon="-1.4177901"><ele>649.5</ele><time>2026-04-13T12:29:49.687Z</time></trkpt><trkpt lat="38.473997" lon="-1.417525"><ele>648.0</ele><time>2026-04-13T12:29:50.686Z</time></trkpt><trkpt lat="38.474185" lon="-1.4172573"><ele>647.5</ele><time>2026-04-13T12:29:51.686Z</time></trkpt><trkpt lat="38.4743723" lon="-1.4169893"><ele>647.0</ele><time>2026-04-13T12:29:52.686Z</time></trkpt><trkpt lat="38.4745592" lon="-1.4167211"><ele>646.5</ele><time>2026-04-13T12:29:53.686Z</time></trkpt><trkpt lat="38.4747472" lon="-1.4164589"><ele>646.0</ele><time>2026-04-13T12:29:54.686Z</time></trkpt><trkpt lat="38.4749362" lon="-1.4161949"><ele>645.0</ele><time>2026-04-13T12:29:55.686Z</time></trkpt><trkpt lat="38.4751244" lon="-1.4159318"><ele>644.0</ele><time>2026-04-13T12:29:56.686Z</time></trkpt><trkpt lat="38.4753121" lon="-1.4156687"><ele>643.5</ele><time>2026-04-13T12:29:57.686Z</time></trkpt><trkpt lat="38.4755011" lon="-1.4154047"><ele>643.0</ele><time>2026-04-13T12:29:58.686Z</time></trkpt><trkpt lat="38.4756827" lon="-1.4151419"><ele>643.0</ele><time>2026-04-13T12:29:59.686Z</time></trkpt><trkpt lat="38.4758672" lon="-1.4148785"><ele>643.0</ele><time>2026-04-13T12:30:00.686Z</time></trkpt><trkpt lat="38.4760522" lon="-1.4146229"><ele>642.5</ele><time>2026-04-13T12:30:01.686Z</time></trkpt><trkpt lat="38.4762348" lon="-1.4143666"><ele>642.0</ele><time>2026-04-13T12:30:02.686Z</time></trkpt><trkpt lat="38.4764159" lon="-1.4141031"><ele>642.5</ele><time>2026-04-13T12:30:03.686Z</time></trkpt><trkpt lat="38.4765978" lon="-1.4138457"><ele>643.0</ele><time>2026-04-13T12:30:04.686Z</time></trkpt><trkpt lat="38.4767841" lon="-1.4135909"><ele>643.0</ele><time>2026-04-13T12:30:05.686Z</time></trkpt><trkpt lat="38.4769614" lon="-1.4133207"><ele>643.0</ele><time>2026-04-13T12:30:06.686Z</time></trkpt><trkpt lat="38.4771343" lon="-1.413054"><ele>643.5</ele><time>2026-04-13T12:30:07.686Z</time></trkpt><trkpt lat="38.4773037" lon="-1.4127851"><ele>644.0</ele><time>2026-04-13T12:30:08.686Z</time></trkpt><trkpt lat="38.477474" lon="-1.4125087"><ele>644.0</ele><time>2026-04-13T12:30:09.686Z</time></trkpt><trkpt lat="38.4776322" lon="-1.4122249"><ele>644.0</ele><time>2026-04-13T12:30:10.686Z</time></trkpt><trkpt lat="38.4777842" lon="-1.4119354"><ele>644.0</ele><time>2026-04-13T12:30:11.686Z</time></trkpt><trkpt lat="38.4779359" lon="-1.4116461"><ele>644.0</ele><time>2026-04-13T12:30:12.686Z</time></trkpt><trkpt lat="38.4780792" lon="-1.4113503"><ele>641.5</ele><time>2026-04-13T12:30:13.686Z</time></trkpt><trkpt lat="38.4782172" lon="-1.4110479"><ele>639.0</ele><time>2026-04-13T12:30:14.686Z</time></trkpt><trkpt lat="38.4783557" lon="-1.4107341"><ele>637.0</ele><time>2026-04-13T12:30:15.686Z</time></trkpt><trkpt lat="38.4784866" lon="-1.410419"><ele>635.0</ele><time>2026-04-13T12:30:16.686Z</time></trkpt><trkpt lat="38.4786104" lon="-1.4100915"><ele>635.0</ele><time>2026-04-13T12:30:17.686Z</time></trkpt><trkpt lat="38.4787296" lon="-1.4097611"><ele>635.0</ele><time>2026-04-13T12:30:18.686Z</time></trkpt><trkpt lat="38.4788456" lon="-1.4094262"><ele>634.5</ele><time>2026-04-13T12:30:19.686Z</time></trkpt><trkpt lat="38.4789526" lon="-1.4090905"><ele>634.0</ele><time>2026-04-13T12:30:20.686Z</time></trkpt><trkpt lat="38.4790525" lon="-1.4087506"><ele>634.0</ele><time>2026-04-13T12:30:21.687Z</time></trkpt><trkpt lat="38.4791417" lon="-1.4084075"><ele>634.0</ele><time>2026-04-13T12:30:22.686Z</time></trkpt><trkpt lat="38.4792261" lon="-1.4080626"><ele>634.5</ele><time>2026-04-13T12:30:23.686Z</time></trkpt><trkpt lat="38.4793011" lon="-1.4077147"><ele>635.0</ele><time>2026-04-13T12:30:24.686Z</time></trkpt><trkpt lat="38.479362" lon="-1.4073656"><ele>635.5</ele><time>2026-04-13T12:30:25.686Z</time></trkpt><trkpt lat="38.4794066" lon="-1.4070136"><ele>636.0</ele><time>2026-04-13T12:30:26.686Z</time></trkpt><trkpt lat="38.4794305" lon="-1.4066587"><ele>636.5</ele><time>2026-04-13T12:30:27.686Z</time></trkpt><trkpt lat="38.4794342" lon="-1.4063005"><ele>637.0</ele><time>2026-04-13T12:30:28.686Z</time></trkpt><trkpt lat="38.4794187" lon="-1.4059538"><ele>637.0</ele><time>2026-04-13T12:30:29.686Z</time></trkpt><trkpt lat="38.4793839" lon="-1.4056082"><ele>637.0</ele><time>2026-04-13T12:30:30.686Z</time></trkpt><trkpt lat="38.479335" lon="-1.4052689"><ele>637.0</ele><time>2026-04-13T12:30:31.686Z</time></trkpt><trkpt lat="38.4792814" lon="-1.4049383"><ele>637.0</ele><time>2026-04-13T12:30:32.686Z</time></trkpt><trkpt lat="38.4792225" lon="-1.4046066"><ele>636.0</ele><time>2026-04-13T12:30:33.686Z</time></trkpt><trkpt lat="38.4791672" lon="-1.4042796"><ele>635.0</ele><time>2026-04-13T12:30:34.686Z</time></trkpt><trkpt lat="38.4791231" lon="-1.40395"><ele>633.5</ele><time>2026-04-13T12:30:35.686Z</time></trkpt><trkpt lat="38.4790928" lon="-1.403617"><ele>632.0</ele><time>2026-04-13T12:30:36.686Z</time></trkpt><trkpt lat="38.4790826" lon="-1.4032856"><ele>631.0</ele><time>2026-04-13T12:30:37.686Z</time></trkpt><trkpt lat="38.4790803" lon="-1.4029455"><ele>630.0</ele><time>2026-04-13T12:30:38.686Z</time></trkpt><trkpt lat="38.4791121" lon="-1.4026085"><ele>630.0</ele><time>2026-04-13T12:30:39.686Z</time></trkpt><trkpt lat="38.4791483" lon="-1.4022747"><ele>630.0</ele><time>2026-04-13T12:30:40.686Z</time></trkpt><trkpt lat="38.4792009" lon="-1.4019506"><ele>629.5</ele><time>2026-04-13T12:30:41.686Z</time></trkpt><trkpt lat="38.4792733" lon="-1.4016272"><ele>629.0</ele><time>2026-04-13T12:30:42.686Z</time></trkpt><trkpt lat="38.4793605" lon="-1.4013026"><ele>628.0</ele><time>2026-04-13T12:30:43.686Z</time></trkpt><trkpt lat="38.4794568" lon="-1.4009793"><ele>627.0</ele><time>2026-04-13T12:30:44.686Z</time></trkpt><trkpt lat="38.4795598" lon="-1.400654"><ele>627.5</ele><time>2026-04-13T12:30:45.686Z</time></trkpt><trkpt lat="38.4796639" lon="-1.4003293"><ele>628.0</ele><time>2026-04-13T12:30:46.686Z</time></trkpt><trkpt lat="38.4797679" lon="-1.4000043"><ele>628.0</ele><time>2026-04-13T12:30:47.686Z</time></trkpt><trkpt lat="38.4798717" lon="-1.3996783"><ele>628.0</ele><time>2026-04-13T12:30:48.686Z</time></trkpt><trkpt lat="38.4799748" lon="-1.399355"><ele>627.0</ele><time>2026-04-13T12:30:49.686Z</time></trkpt><trkpt lat="38.4800828" lon="-1.399031"><ele>626.0</ele><time>2026-04-13T12:30:50.686Z</time></trkpt><trkpt lat="38.4801906" lon="-1.3987063"><ele>624.5</ele><time>2026-04-13T12:30:51.686Z</time></trkpt><trkpt lat="38.4802959" lon="-1.3983858"><ele>623.0</ele><time>2026-04-13T12:30:52.686Z</time></trkpt><trkpt lat="38.4804025" lon="-1.3980714"><ele>624.5</ele><time>2026-04-13T12:30:53.686Z</time></trkpt><trkpt lat="38.480511" lon="-1.3977568"><ele>626.0</ele><time>2026-04-13T12:30:54.686Z</time></trkpt><trkpt lat="38.4806218" lon="-1.3974431"><ele>626.5</ele><time>2026-04-13T12:30:55.686Z</time></trkpt><trkpt lat="38.4807338" lon="-1.39713"><ele>627.0</ele><time>2026-04-13T12:30:56.686Z</time></trkpt><trkpt lat="38.4808549" lon="-1.3968206"><ele>627.0</ele><time>2026-04-13T12:30:57.686Z</time></trkpt><trkpt lat="38.4809825" lon="-1.3965109"><ele>627.0</ele><time>2026-04-13T12:30:58.686Z</time></trkpt><trkpt lat="38.4811094" lon="-1.3962126"><ele>627.5</ele><time>2026-04-13T12:30:59.686Z</time></trkpt><trkpt lat="38.4812362" lon="-1.3959226"><ele>628.0</ele><time>2026-04-13T12:31:00.686Z</time></trkpt><trkpt lat="38.4813689" lon="-1.3956347"><ele>629.0</ele><time>2026-04-13T12:31:01.686Z</time></trkpt><trkpt lat="38.4815105" lon="-1.3953635"><ele>630.0</ele><time>2026-04-13T12:31:02.686Z</time></trkpt><trkpt lat="38.4816429" lon="-1.3950766"><ele>630.0</ele><time>2026-04-13T12:31:03.686Z</time></trkpt><trkpt lat="38.4817762" lon="-1.3948022"><ele>630.0</ele><time>2026-04-13T12:31:04.686Z</time></trkpt><trkpt lat="38.4819231" lon="-1.3945373"><ele>630.5</ele><time>2026-04-13T12:31:05.686Z</time></trkpt><trkpt lat="38.4820622" lon="-1.394267"><ele>631.0</ele><time>2026-04-13T12:31:06.686Z</time></trkpt><trkpt lat="38.4822004" lon="-1.3940041"><ele>631.5</ele><time>2026-04-13T12:31:07.686Z</time></trkpt><trkpt lat="38.4823438" lon="-1.3937414"><ele>632.0</ele><time>2026-04-13T12:31:08.686Z</time></trkpt><trkpt lat="38.4824832" lon="-1.393476"><ele>632.0</ele><time>2026-04-13T12:31:09.686Z</time></trkpt><trkpt lat="38.4826218" lon="-1.3932126"><ele>632.0</ele><time>2026-04-13T12:31:10.686Z</time></trkpt><trkpt lat="38.48276" lon="-1.3929529"><ele>631.0</ele><time>2026-04-13T12:31:11.686Z</time></trkpt><trkpt lat="38.4828997" lon="-1.392689"><ele>630.0</ele><time>2026-04-13T12:31:12.686Z</time></trkpt><trkpt lat="38.4830392" lon="-1.3924205"><ele>629.0</ele><time>2026-04-13T12:31:13.686Z</time></trkpt><trkpt lat="38.483174" lon="-1.3921517"><ele>628.0</ele><time>2026-04-13T12:31:14.686Z</time></trkpt><trkpt lat="38.4833101" lon="-1.3918763"><ele>628.0</ele><time>2026-04-13T12:31:15.686Z</time></trkpt><trkpt lat="38.4834419" lon="-1.3915977"><ele>628.0</ele><time>2026-04-13T12:31:16.686Z</time></trkpt><trkpt lat="38.4835706" lon="-1.3913158"><ele>628.5</ele><time>2026-04-13T12:31:17.686Z</time></trkpt><trkpt lat="38.4836978" lon="-1.3910323"><ele>629.0</ele><time>2026-04-13T12:31:18.686Z</time></trkpt><trkpt lat="38.4838182" lon="-1.3907422"><ele>628.0</ele><time>2026-04-13T12:31:19.686Z</time></trkpt><trkpt lat="38.4839337" lon="-1.3904498"><ele>627.0</ele><time>2026-04-13T12:31:20.686Z</time></trkpt><trkpt lat="38.4840488" lon="-1.3901533"><ele>627.0</ele><time>2026-04-13T12:31:21.686Z</time></trkpt><trkpt lat="38.4841527" lon="-1.3898565"><ele>627.0</ele><time>2026-04-13T12:31:22.686Z</time></trkpt><trkpt lat="38.4842515" lon="-1.3895587"><ele>625.5</ele><time>2026-04-13T12:31:23.686Z</time></trkpt><trkpt lat="38.4843444" lon="-1.3892601"><ele>624.0</ele><time>2026-04-13T12:31:24.686Z</time></trkpt><trkpt lat="38.4844365" lon="-1.388958"><ele>624.0</ele><time>2026-04-13T12:31:25.686Z</time></trkpt><trkpt lat="38.4845263" lon="-1.3886461"><ele>624.0</ele><time>2026-04-13T12:31:26.686Z</time></trkpt><trkpt lat="38.4846126" lon="-1.388325"><ele>622.5</ele><time>2026-04-13T12:31:27.687Z</time></trkpt><trkpt lat="38.4846972" lon="-1.3879975"><ele>621.0</ele><time>2026-04-13T12:31:28.686Z</time></trkpt><trkpt lat="38.4847813" lon="-1.387672"><ele>621.0</ele><time>2026-04-13T12:31:29.686Z</time></trkpt><trkpt lat="38.4848571" lon="-1.3873303"><ele>621.0</ele><time>2026-04-13T12:31:30.686Z</time></trkpt><trkpt lat="38.4849287" lon="-1.3869949"><ele>621.0</ele><time>2026-04-13T12:31:31.686Z</time></trkpt><trkpt lat="38.4850159" lon="-1.3866573"><ele>621.0</ele><time>2026-04-13T12:31:32.686Z</time></trkpt><trkpt lat="38.485095" lon="-1.3863206"><ele>620.5</ele><time>2026-04-13T12:31:33.686Z</time></trkpt><trkpt lat="38.4851715" lon="-1.3859845"><ele>620.0</ele><time>2026-04-13T12:31:34.686Z</time></trkpt><trkpt lat="38.485249" lon="-1.3856466"><ele>619.0</ele><time>2026-04-13T12:31:35.686Z</time></trkpt><trkpt lat="38.4853286" lon="-1.385314"><ele>618.0</ele><time>2026-04-13T12:31:36.686Z</time></trkpt><trkpt lat="38.4854063" lon="-1.3849867"><ele>619.5</ele><time>2026-04-13T12:31:37.686Z</time></trkpt><trkpt lat="38.4854845" lon="-1.3846606"><ele>621.0</ele><time>2026-04-13T12:31:38.686Z</time></trkpt><trkpt lat="38.4855596" lon="-1.3843396"><ele>621.0</ele><time>2026-04-13T12:31:39.686Z</time></trkpt><trkpt lat="38.4856273" lon="-1.3840198"><ele>621.0</ele><time>2026-04-13T12:31:40.686Z</time></trkpt><trkpt lat="38.485686" lon="-1.3836966"><ele>621.0</ele><time>2026-04-13T12:31:41.686Z</time></trkpt><trkpt lat="38.4857387" lon="-1.3833729"><ele>621.0</ele><time>2026-04-13T12:31:42.686Z</time></trkpt><trkpt lat="38.485786" lon="-1.3830454"><ele>622.5</ele><time>2026-04-13T12:31:43.686Z</time></trkpt><trkpt lat="38.4858278" lon="-1.3827177"><ele>624.0</ele><time>2026-04-13T12:31:44.686Z</time></trkpt><trkpt lat="38.4858651" lon="-1.382392"><ele>627.5</ele><time>2026-04-13T12:31:45.686Z</time></trkpt><trkpt lat="38.4858945" lon="-1.3820614"><ele>631.0</ele><time>2026-04-13T12:31:46.686Z</time></trkpt><trkpt lat="38.485915" lon="-1.3817322"><ele>631.0</ele><time>2026-04-13T12:31:47.686Z</time></trkpt><trkpt lat="38.4859381" lon="-1.3814042"><ele>631.0</ele><time>2026-04-13T12:31:48.686Z</time></trkpt><trkpt lat="38.4859496" lon="-1.381076"><ele>633.5</ele><time>2026-04-13T12:31:49.686Z</time></trkpt><trkpt lat="38.485957" lon="-1.3807473"><ele>636.0</ele><time>2026-04-13T12:31:50.686Z</time></trkpt><trkpt lat="38.4859557" lon="-1.3804136"><ele>637.5</ele><time>2026-04-13T12:31:51.686Z</time></trkpt><trkpt lat="38.4859476" lon="-1.3800828"><ele>639.0</ele><time>2026-04-13T12:31:52.686Z</time></trkpt><trkpt lat="38.4859375" lon="-1.3797449"><ele>638.0</ele><time>2026-04-13T12:31:53.686Z</time></trkpt><trkpt lat="38.4859223" lon="-1.3794019"><ele>637.0</ele><time>2026-04-13T12:31:54.686Z</time></trkpt><trkpt lat="38.4859005" lon="-1.3790545"><ele>636.0</ele><time>2026-04-13T12:31:55.686Z</time></trkpt><trkpt lat="38.4858757" lon="-1.3787083"><ele>635.0</ele><time>2026-04-13T12:31:56.686Z</time></trkpt><trkpt lat="38.4858412" lon="-1.3783561"><ele>633.0</ele><time>2026-04-13T12:31:57.686Z</time></trkpt><trkpt lat="38.4858162" lon="-1.3780049"><ele>631.0</ele><time>2026-04-13T12:31:58.686Z</time></trkpt><trkpt lat="38.4858077" lon="-1.3776452"><ele>631.0</ele><time>2026-04-13T12:31:59.686Z</time></trkpt><trkpt lat="38.4857964" lon="-1.3772791"><ele>631.0</ele><time>2026-04-13T12:32:00.686Z</time></trkpt><trkpt lat="38.4857938" lon="-1.3769062"><ele>629.5</ele><time>2026-04-13T12:32:01.686Z</time></trkpt><trkpt lat="38.4857955" lon="-1.3765329"><ele>628.0</ele><time>2026-04-13T12:32:02.686Z</time></trkpt><trkpt lat="38.4858084" lon="-1.3761613"><ele>626.0</ele><time>2026-04-13T12:32:03.686Z</time></trkpt><trkpt lat="38.4858256" lon="-1.3757848"><ele>624.0</ele><time>2026-04-13T12:32:04.686Z</time></trkpt><trkpt lat="38.485852" lon="-1.3754124"><ele>622.0</ele><time>2026-04-13T12:32:05.686Z</time></trkpt><trkpt lat="38.4858804" lon="-1.3750355"><ele>620.0</ele><time>2026-04-13T12:32:06.686Z</time></trkpt><trkpt lat="38.4859123" lon="-1.3746617"><ele>618.5</ele><time>2026-04-13T12:32:07.686Z</time></trkpt><trkpt lat="38.4859516" lon="-1.3742871"><ele>617.0</ele><time>2026-04-13T12:32:08.686Z</time></trkpt><trkpt lat="38.485993" lon="-1.3739111"><ele>615.0</ele><time>2026-04-13T12:32:09.686Z</time></trkpt><trkpt lat="38.4860376" lon="-1.3735378"><ele>613.0</ele><time>2026-04-13T12:32:10.686Z</time></trkpt><trkpt lat="38.4860835" lon="-1.3731656"><ele>610.5</ele><time>2026-04-13T12:32:11.686Z</time></trkpt><trkpt lat="38.4861282" lon="-1.3727907"><ele>608.0</ele><time>2026-04-13T12:32:12.686Z</time></trkpt><trkpt lat="38.4861708" lon="-1.372417"><ele>608.0</ele><time>2026-04-13T12:32:13.686Z</time></trkpt><trkpt lat="38.4862148" lon="-1.3720495"><ele>608.0</ele><time>2026-04-13T12:32:14.686Z</time></trkpt><trkpt lat="38.4862588" lon="-1.3716803"><ele>605.5</ele><time>2026-04-13T12:32:15.686Z</time></trkpt><trkpt lat="38.4863" lon="-1.3713134"><ele>603.0</ele><time>2026-04-13T12:32:16.686Z</time></trkpt><trkpt lat="38.4863433" lon="-1.3709449"><ele>603.0</ele><time>2026-04-13T12:32:17.686Z</time></trkpt><trkpt lat="38.4863851" lon="-1.3705802"><ele>603.0</ele><time>2026-04-13T12:32:18.686Z</time></trkpt><trkpt lat="38.4864246" lon="-1.3702168"><ele>602.0</ele><time>2026-04-13T12:32:19.686Z</time></trkpt><trkpt lat="38.4864682" lon="-1.3698598"><ele>601.0</ele><time>2026-04-13T12:32:20.686Z</time></trkpt><trkpt lat="38.4864991" lon="-1.3694939"><ele>599.5</ele><time>2026-04-13T12:32:21.686Z</time></trkpt><trkpt lat="38.4865375" lon="-1.3691397"><ele>598.0</ele><time>2026-04-13T12:32:22.686Z</time></trkpt><trkpt lat="38.4865881" lon="-1.368785"><ele>596.5</ele><time>2026-04-13T12:32:23.686Z</time></trkpt><trkpt lat="38.4866361" lon="-1.3684393"><ele>595.0</ele><time>2026-04-13T12:32:24.686Z</time></trkpt><trkpt lat="38.4866964" lon="-1.3680981"><ele>594.5</ele><time>2026-04-13T12:32:25.686Z</time></trkpt><trkpt lat="38.4867763" lon="-1.3677611"><ele>594.0</ele><time>2026-04-13T12:32:26.686Z</time></trkpt><trkpt lat="38.4868693" lon="-1.3674286"><ele>594.5</ele><time>2026-04-13T12:32:27.686Z</time></trkpt><trkpt lat="38.4869758" lon="-1.367108"><ele>595.0</ele><time>2026-04-13T12:32:28.687Z</time></trkpt><trkpt lat="38.4871015" lon="-1.3667906"><ele>593.0</ele><time>2026-04-13T12:32:29.686Z</time></trkpt><trkpt lat="38.4872397" lon="-1.3664889"><ele>591.0</ele><time>2026-04-13T12:32:30.686Z</time></trkpt><trkpt lat="38.4873861" lon="-1.3661942"><ele>591.0</ele><time>2026-04-13T12:32:31.686Z</time></trkpt><trkpt lat="38.4875313" lon="-1.3659076"><ele>591.0</ele><time>2026-04-13T12:32:32.686Z</time></trkpt><trkpt lat="38.4876739" lon="-1.3656219"><ele>590.5</ele><time>2026-04-13T12:32:33.686Z</time></trkpt><trkpt lat="38.4878146" lon="-1.3653358"><ele>590.0</ele><time>2026-04-13T12:32:34.686Z</time></trkpt><trkpt lat="38.4879571" lon="-1.3650577"><ele>590.0</ele><time>2026-04-13T12:32:35.686Z</time></trkpt><trkpt lat="38.488096" lon="-1.3647854"><ele>590.0</ele><time>2026-04-13T12:32:36.686Z</time></trkpt><trkpt lat="38.4882285" lon="-1.3645091"><ele>591.0</ele><time>2026-04-13T12:32:37.686Z</time></trkpt><trkpt lat="38.4883511" lon="-1.3642295"><ele>592.0</ele><time>2026-04-13T12:32:38.686Z</time></trkpt><trkpt lat="38.488459" lon="-1.3639451"><ele>592.5</ele><time>2026-04-13T12:32:39.686Z</time></trkpt><trkpt lat="38.4885551" lon="-1.3636571"><ele>593.0</ele><time>2026-04-13T12:32:40.686Z</time></trkpt><trkpt lat="38.4886357" lon="-1.3633542"><ele>593.0</ele><time>2026-04-13T12:32:41.686Z</time></trkpt><trkpt lat="38.4887037" lon="-1.3630388"><ele>593.0</ele><time>2026-04-13T12:32:42.686Z</time></trkpt><trkpt lat="38.4887577" lon="-1.3627126"><ele>588.0</ele><time>2026-04-13T12:32:43.686Z</time></trkpt><trkpt lat="38.488803" lon="-1.3623846"><ele>583.0</ele><time>2026-04-13T12:32:44.686Z</time></trkpt><trkpt lat="38.4888152" lon="-1.3620426"><ele>583.0</ele><time>2026-04-13T12:32:45.686Z</time></trkpt><trkpt lat="38.488809" lon="-1.3617068"><ele>583.0</ele><time>2026-04-13T12:32:46.686Z</time></trkpt><trkpt lat="38.4888006" lon="-1.3613597"><ele>583.0</ele><time>2026-04-13T12:32:47.686Z</time></trkpt><trkpt lat="38.4887634" lon="-1.361015"><ele>583.0</ele><time>2026-04-13T12:32:48.686Z</time></trkpt><trkpt lat="38.4887107" lon="-1.3606756"><ele>585.0</ele><time>2026-04-13T12:32:49.686Z</time></trkpt><trkpt lat="38.4886366" lon="-1.3603407"><ele>587.0</ele><time>2026-04-13T12:32:50.686Z</time></trkpt><trkpt lat="38.4885492" lon="-1.3600061"><ele>585.0</ele><time>2026-04-13T12:32:51.686Z</time></trkpt><trkpt lat="38.4884561" lon="-1.3596746"><ele>583.0</ele><time>2026-04-13T12:32:52.686Z</time></trkpt><trkpt lat="38.4883615" lon="-1.3593395"><ele>583.0</ele><time>2026-04-13T12:32:53.686Z</time></trkpt><trkpt lat="38.488268" lon="-1.3589997"><ele>583.0</ele><time>2026-04-13T12:32:54.686Z</time></trkpt><trkpt lat="38.4881743" lon="-1.3586639"><ele>580.0</ele><time>2026-04-13T12:32:55.686Z</time></trkpt><trkpt lat="38.4880837" lon="-1.3583271"><ele>577.0</ele><time>2026-04-13T12:32:56.686Z</time></trkpt><trkpt lat="38.487996" lon="-1.3579896"><ele>576.5</ele><time>2026-04-13T12:32:57.686Z</time></trkpt><trkpt lat="38.4879029" lon="-1.3576461"><ele>576.0</ele><time>2026-04-13T12:32:58.686Z</time></trkpt><trkpt lat="38.4878079" lon="-1.3573181"><ele>574.5</ele><time>2026-04-13T12:32:59.686Z</time></trkpt><trkpt lat="38.487705" lon="-1.3570004"><ele>573.0</ele><time>2026-04-13T12:33:00.686Z</time></trkpt><trkpt lat="38.487606" lon="-1.3566806"><ele>573.0</ele><time>2026-04-13T12:33:01.686Z</time></trkpt><trkpt lat="38.4875134" lon="-1.3563703"><ele>573.0</ele><time>2026-04-13T12:33:02.686Z</time></trkpt><trkpt lat="38.4874223" lon="-1.3560592"><ele>572.0</ele><time>2026-04-13T12:33:03.686Z</time></trkpt><trkpt lat="38.4873325" lon="-1.3557468"><ele>571.0</ele><time>2026-04-13T12:33:04.686Z</time></trkpt><trkpt lat="38.4872447" lon="-1.3554355"><ele>571.0</ele><time>2026-04-13T12:33:05.686Z</time></trkpt><trkpt lat="38.487159" lon="-1.3551205"><ele>571.0</ele><time>2026-04-13T12:33:06.686Z</time></trkpt><trkpt lat="38.4870687" lon="-1.3548052"><ele>574.0</ele><time>2026-04-13T12:33:07.686Z</time></trkpt><trkpt lat="38.4869761" lon="-1.3544845"><ele>577.0</ele><time>2026-04-13T12:33:08.686Z</time></trkpt><trkpt lat="38.4868874" lon="-1.3541651"><ele>574.5</ele><time>2026-04-13T12:33:09.686Z</time></trkpt><trkpt lat="38.4867845" lon="-1.3538473"><ele>572.0</ele><time>2026-04-13T12:33:10.686Z</time></trkpt><trkpt lat="38.4866895" lon="-1.3535276"><ele>572.0</ele><time>2026-04-13T12:33:11.686Z</time></trkpt><trkpt lat="38.4866055" lon="-1.3532018"><ele>572.0</ele><time>2026-04-13T12:33:12.686Z</time></trkpt><trkpt lat="38.4865202" lon="-1.3528862"><ele>569.5</ele><time>2026-04-13T12:33:13.686Z</time></trkpt><trkpt lat="38.4864222" lon="-1.3525626"><ele>567.0</ele><time>2026-04-13T12:33:14.686Z</time></trkpt><trkpt lat="38.4863472" lon="-1.3522351"><ele>564.0</ele><time>2026-04-13T12:33:15.686Z</time></trkpt><trkpt lat="38.4862656" lon="-1.3519071"><ele>561.0</ele><time>2026-04-13T12:33:16.686Z</time></trkpt><trkpt lat="38.4861897" lon="-1.3515752"><ele>559.0</ele><time>2026-04-13T12:33:17.686Z</time></trkpt><trkpt lat="38.4861141" lon="-1.3512429"><ele>557.0</ele><time>2026-04-13T12:33:18.686Z</time></trkpt><trkpt lat="38.4860471" lon="-1.350904"><ele>557.0</ele><time>2026-04-13T12:33:19.686Z</time></trkpt><trkpt lat="38.4859808" lon="-1.350566"><ele>557.0</ele><time>2026-04-13T12:33:20.686Z</time></trkpt><trkpt lat="38.485916" lon="-1.3502247"><ele>555.5</ele><time>2026-04-13T12:33:21.686Z</time></trkpt><trkpt lat="38.4858538" lon="-1.3498804"><ele>554.0</ele><time>2026-04-13T12:33:22.686Z</time></trkpt><trkpt lat="38.4857963" lon="-1.3495571"><ele>553.5</ele><time>2026-04-13T12:33:23.686Z</time></trkpt><trkpt lat="38.4857451" lon="-1.3492468"><ele>553.0</ele><time>2026-04-13T12:33:24.686Z</time></trkpt><trkpt lat="38.4856956" lon="-1.3489365"><ele>552.0</ele><time>2026-04-13T12:33:25.686Z</time></trkpt><trkpt lat="38.4856462" lon="-1.3486194"><ele>551.0</ele><time>2026-04-13T12:33:26.687Z</time></trkpt><trkpt lat="38.4856018" lon="-1.3483103"><ele>549.0</ele><time>2026-04-13T12:33:27.686Z</time></trkpt><trkpt lat="38.4855568" lon="-1.3479893"><ele>547.0</ele><time>2026-04-13T12:33:28.686Z</time></trkpt><trkpt lat="38.4855104" lon="-1.347678"><ele>547.0</ele><time>2026-04-13T12:33:29.686Z</time></trkpt><trkpt lat="38.4854674" lon="-1.3473634"><ele>547.0</ele><time>2026-04-13T12:33:30.686Z</time></trkpt><trkpt lat="38.4854206" lon="-1.3470507"><ele>544.0</ele><time>2026-04-13T12:33:31.686Z</time></trkpt><trkpt lat="38.4853779" lon="-1.3467512"><ele>541.0</ele><time>2026-04-13T12:33:32.686Z</time></trkpt><trkpt lat="38.4853374" lon="-1.3464672"><ele>540.6666666666667</ele><time>2026-04-13T12:33:33.686Z</time></trkpt><trkpt lat="38.4852968" lon="-1.3461922"><ele>540.3333333333334</ele><time>2026-04-13T12:33:34.686Z</time></trkpt><trkpt lat="38.4852609" lon="-1.3459198"><ele>540.0</ele><time>2026-04-13T12:33:35.686Z</time></trkpt><trkpt lat="38.4852253" lon="-1.3456552"><ele>540.3333333333334</ele><time>2026-04-13T12:33:36.686Z</time></trkpt><trkpt lat="38.4851905" lon="-1.3454088"><ele>540.6666666666667</ele><time>2026-04-13T12:33:37.686Z</time></trkpt><trkpt lat="38.4851582" lon="-1.3451766"><ele>541.0</ele><time>2026-04-13T12:33:38.686Z</time></trkpt><trkpt lat="38.4851265" lon="-1.3449568"><ele>541.0</ele><time>2026-04-13T12:33:39.686Z</time></trkpt><trkpt lat="38.4850959" lon="-1.3447436"><ele>541.0</ele><time>2026-04-13T12:33:40.686Z</time></trkpt><trkpt lat="38.4850673" lon="-1.3445425"><ele>541.0</ele><time>2026-04-13T12:33:41.686Z</time></trkpt><trkpt lat="38.4850346" lon="-1.3443489"><ele>540.0</ele><time>2026-04-13T12:33:42.686Z</time></trkpt><trkpt lat="38.4850118" lon="-1.3441826"><ele>539.0</ele><time>2026-04-13T12:33:43.687Z</time></trkpt><trkpt lat="38.4849877" lon="-1.3440384"><ele>538.0</ele><time>2026-04-13T12:33:44.686Z</time></trkpt><trkpt lat="38.4849654" lon="-1.3439182"><ele>537.0</ele><time>2026-04-13T12:33:45.686Z</time></trkpt><trkpt lat="38.4849369" lon="-1.3438134"><ele>536.0</ele><time>2026-04-13T12:33:46.686Z</time></trkpt><trkpt lat="38.4849059" lon="-1.3437027"><ele>535.6</ele><time>2026-04-13T12:33:47.686Z</time></trkpt><trkpt lat="38.4848738" lon="-1.343591"><ele>535.2</ele><time>2026-04-13T12:33:48.686Z</time></trkpt><trkpt lat="38.4848522" lon="-1.3434693"><ele>534.8</ele><time>2026-04-13T12:33:49.686Z</time></trkpt><trkpt lat="38.4848351" lon="-1.3433368"><ele>534.4</ele><time>2026-04-13T12:33:50.686Z</time></trkpt><trkpt lat="38.4848092" lon="-1.3431959"><ele>534.0</ele><time>2026-04-13T12:33:51.686Z</time></trkpt><trkpt lat="38.4847717" lon="-1.3430478"><ele>533.5</ele><time>2026-04-13T12:33:52.686Z</time></trkpt><trkpt lat="38.4847183" lon="-1.342899"><ele>533.0</ele><time>2026-04-13T12:33:53.686Z</time></trkpt><trkpt lat="38.4846337" lon="-1.3427626"><ele>532.5</ele><time>2026-04-13T12:33:54.686Z</time></trkpt><trkpt lat="38.4845332" lon="-1.3426438"><ele>532.0</ele><time>2026-04-13T12:33:55.686Z</time></trkpt><trkpt lat="38.484421" lon="-1.3425376"><ele>532.0</ele><time>2026-04-13T12:33:56.686Z</time></trkpt><trkpt lat="38.4843229" lon="-1.3424515"><ele>532.0</ele><time>2026-04-13T12:33:57.686Z</time></trkpt><trkpt lat="38.4842435" lon="-1.3423885"><ele>532.0</ele><time>2026-04-13T12:33:58.686Z</time></trkpt><trkpt lat="38.4841662" lon="-1.3423416"><ele>532.0</ele><time>2026-04-13T12:33:59.686Z</time></trkpt><trkpt lat="38.4840943" lon="-1.3423163"><ele>532.0</ele><time>2026-04-13T12:34:00.686Z</time></trkpt><trkpt lat="38.4840277" lon="-1.3423061"><ele>532.0</ele><time>2026-04-13T12:34:01.686Z</time></trkpt><trkpt lat="38.4839056" lon="-1.342345"><ele>532.0</ele><time>2026-04-13T12:34:03.686Z</time></trkpt><trkpt lat="38.4838425" lon="-1.3423996"><ele>532.0</ele><time>2026-04-13T12:34:04.686Z</time></trkpt><trkpt lat="38.4837735" lon="-1.342474"><ele>532.0</ele><time>2026-04-13T12:34:05.686Z</time></trkpt><trkpt lat="38.4836939" lon="-1.3425567"><ele>532.0</ele><time>2026-04-13T12:34:06.686Z</time></trkpt><trkpt lat="38.4836078" lon="-1.3426278"><ele>532.0</ele><time>2026-04-13T12:34:07.686Z</time></trkpt><trkpt lat="38.4835076" lon="-1.3426839"><ele>531.25</ele><time>2026-04-13T12:34:08.686Z</time></trkpt><trkpt lat="38.4834085" lon="-1.3427407"><ele>530.5</ele><time>2026-04-13T12:34:09.686Z</time></trkpt><trkpt lat="38.48327" lon="-1.3427261"><ele>529.75</ele><time>2026-04-13T12:34:10.687Z</time></trkpt><trkpt lat="38.4831389" lon="-1.3426959"><ele>529.0</ele><time>2026-04-13T12:34:11.686Z</time></trkpt><trkpt lat="38.4830045" lon="-1.3426452"><ele>528.75</ele><time>2026-04-13T12:34:12.686Z</time></trkpt><trkpt lat="38.4828881" lon="-1.3425536"><ele>528.5</ele><time>2026-04-13T12:34:13.686Z</time></trkpt><trkpt lat="38.4827792" lon="-1.3424361"><ele>528.25</ele><time>2026-04-13T12:34:14.686Z</time></trkpt><trkpt lat="38.4826795" lon="-1.3423068"><ele>528.0</ele><time>2026-04-13T12:34:15.686Z</time></trkpt><trkpt lat="38.4825847" lon="-1.3421641"><ele>527.75</ele><time>2026-04-13T12:34:16.686Z</time></trkpt><trkpt lat="38.4824867" lon="-1.3420243"><ele>527.5</ele><time>2026-04-13T12:34:17.686Z</time></trkpt><trkpt lat="38.4823822" lon="-1.341895"><ele>527.25</ele><time>2026-04-13T12:34:18.686Z</time></trkpt><trkpt lat="38.4822481" lon="-1.3418119"><ele>527.0</ele><time>2026-04-13T12:34:19.686Z</time></trkpt><trkpt lat="38.4821018" lon="-1.3417658"><ele>526.6666666666666</ele><time>2026-04-13T12:34:20.686Z</time></trkpt><trkpt lat="38.4819495" lon="-1.3417498"><ele>526.3333333333334</ele><time>2026-04-13T12:34:21.686Z</time></trkpt><trkpt lat="38.4817999" lon="-1.3417384"><ele>526.0</ele><time>2026-04-13T12:34:22.686Z</time></trkpt><trkpt lat="38.4816243" lon="-1.3417585"><ele>526.0</ele><time>2026-04-13T12:34:23.686Z</time></trkpt><trkpt lat="38.4814416" lon="-1.3417654"><ele>526.0</ele><time>2026-04-13T12:34:24.686Z</time></trkpt><trkpt lat="38.4812568" lon="-1.3417731"><ele>526.0</ele><time>2026-04-13T12:34:25.686Z</time></trkpt><trkpt lat="38.4810712" lon="-1.3417763"><ele>525.6666666666667</ele><time>2026-04-13T12:34:26.686Z</time></trkpt><trkpt lat="38.4808762" lon="-1.3417732"><ele>525.3333333333334</ele><time>2026-04-13T12:34:27.686Z</time></trkpt><trkpt lat="38.4806695" lon="-1.341763"><ele>525.0</ele><time>2026-04-13T12:34:28.686Z</time></trkpt><trkpt lat="38.4804614" lon="-1.3417542"><ele>525.0</ele><time>2026-04-13T12:34:29.686Z</time></trkpt><trkpt lat="38.4802458" lon="-1.3417436"><ele>525.0</ele><time>2026-04-13T12:34:30.686Z</time></trkpt><trkpt lat="38.4800238" lon="-1.3417283"><ele>525.0</ele><time>2026-04-13T12:34:31.686Z</time></trkpt><trkpt lat="38.4797988" lon="-1.3417114"><ele>522.5</ele><time>2026-04-13T12:34:32.686Z</time></trkpt><trkpt lat="38.4795709" lon="-1.3416852"><ele>520.0</ele><time>2026-04-13T12:34:33.686Z</time></trkpt><trkpt lat="38.479338" lon="-1.3416538"><ele>520.0</ele><time>2026-04-13T12:34:34.686Z</time></trkpt><trkpt lat="38.4791031" lon="-1.3416156"><ele>520.0</ele><time>2026-04-13T12:34:35.686Z</time></trkpt><trkpt lat="38.4788648" lon="-1.3415747"><ele>520.0</ele><time>2026-04-13T12:34:36.686Z</time></trkpt><trkpt lat="38.4786209" lon="-1.3415291"><ele>520.0</ele><time>2026-04-13T12:34:37.686Z</time></trkpt><trkpt lat="38.4783773" lon="-1.3414749"><ele>520.0</ele><time>2026-04-13T12:34:38.686Z</time></trkpt><trkpt lat="38.478132" lon="-1.3414145"><ele>520.0</ele><time>2026-04-13T12:34:39.686Z</time></trkpt><trkpt lat="38.4778861" lon="-1.3413488"><ele>518.0</ele><time>2026-04-13T12:34:40.686Z</time></trkpt><trkpt lat="38.4776411" lon="-1.3412799"><ele>516.0</ele><time>2026-04-13T12:34:41.687Z</time></trkpt><trkpt lat="38.4773993" lon="-1.3412116"><ele>516.0</ele><time>2026-04-13T12:34:42.686Z</time></trkpt><trkpt lat="38.4771557" lon="-1.3411435"><ele>516.0</ele><time>2026-04-13T12:34:43.686Z</time></trkpt><trkpt lat="38.4769078" lon="-1.3410797"><ele>514.5</ele><time>2026-04-13T12:34:44.686Z</time></trkpt><trkpt lat="38.4766603" lon="-1.3410091"><ele>513.0</ele><time>2026-04-13T12:34:45.686Z</time></trkpt><trkpt lat="38.4764148" lon="-1.3409396"><ele>512.5</ele><time>2026-04-13T12:34:46.686Z</time></trkpt><trkpt lat="38.4761641" lon="-1.3408717"><ele>512.0</ele><time>2026-04-13T12:34:47.686Z</time></trkpt><trkpt lat="38.4759163" lon="-1.3408045"><ele>512.0</ele><time>2026-04-13T12:34:48.686Z</time></trkpt><trkpt lat="38.4756656" lon="-1.3407342"><ele>512.0</ele><time>2026-04-13T12:34:49.686Z</time></trkpt><trkpt lat="38.475412" lon="-1.3406658"><ele>512.0</ele><time>2026-04-13T12:34:50.686Z</time></trkpt><trkpt lat="38.4751618" lon="-1.3405931"><ele>512.0</ele><time>2026-04-13T12:34:51.686Z</time></trkpt><trkpt lat="38.4749154" lon="-1.3405154"><ele>511.5</ele><time>2026-04-13T12:34:52.687Z</time></trkpt><trkpt lat="38.4746649" lon="-1.3404427"><ele>511.0</ele><time>2026-04-13T12:34:53.686Z</time></trkpt><trkpt lat="38.4744129" lon="-1.3403679"><ele>510.5</ele><time>2026-04-13T12:34:54.686Z</time></trkpt><trkpt lat="38.4741615" lon="-1.3402962"><ele>510.0</ele><time>2026-04-13T12:34:55.686Z</time></trkpt><trkpt lat="38.4739093" lon="-1.3402264"><ele>510.5</ele><time>2026-04-13T12:34:56.686Z</time></trkpt><trkpt lat="38.4736566" lon="-1.3401555"><ele>511.0</ele><time>2026-04-13T12:34:57.686Z</time></trkpt><trkpt lat="38.4734151" lon="-1.3400751"><ele>511.0</ele><time>2026-04-13T12:34:58.686Z</time></trkpt><trkpt lat="38.4731592" lon="-1.3400153"><ele>511.0</ele><time>2026-04-13T12:34:59.686Z</time></trkpt><trkpt lat="38.4729088" lon="-1.3399454"><ele>509.0</ele><time>2026-04-13T12:35:00.686Z</time></trkpt><trkpt lat="38.4726606" lon="-1.3398745"><ele>507.0</ele><time>2026-04-13T12:35:01.686Z</time></trkpt><trkpt lat="38.4724164" lon="-1.3398066"><ele>507.0</ele><time>2026-04-13T12:35:02.686Z</time></trkpt><trkpt lat="38.472176" lon="-1.3397787"><ele>507.0</ele><time>2026-04-13T12:35:03.686Z</time></trkpt><trkpt lat="38.471927" lon="-1.3396846"><ele>505.5</ele><time>2026-04-13T12:35:04.686Z</time></trkpt><trkpt lat="38.4716983" lon="-1.3396773"><ele>504.0</ele><time>2026-04-13T12:35:05.686Z</time></trkpt><trkpt lat="38.4714497" lon="-1.3395438"><ele>503.0</ele><time>2026-04-13T12:35:06.686Z</time></trkpt><trkpt lat="38.4712061" lon="-1.3394605"><ele>502.0</ele><time>2026-04-13T12:35:07.686Z</time></trkpt><trkpt lat="38.4709595" lon="-1.3393838"><ele>502.0</ele><time>2026-04-13T12:35:08.686Z</time></trkpt><trkpt lat="38.4707128" lon="-1.3392937"><ele>502.0</ele><time>2026-04-13T12:35:09.686Z</time></trkpt><trkpt lat="38.4704712" lon="-1.3392038"><ele>501.0</ele><time>2026-04-13T12:35:10.686Z</time></trkpt><trkpt lat="38.4702214" lon="-1.3391031"><ele>500.0</ele><time>2026-04-13T12:35:11.686Z</time></trkpt><trkpt lat="38.4699869" lon="-1.3389999"><ele>500.0</ele><time>2026-04-13T12:35:12.686Z</time></trkpt><trkpt lat="38.4697499" lon="-1.3388921"><ele>500.0</ele><time>2026-04-13T12:35:13.686Z</time></trkpt><trkpt lat="38.469518" lon="-1.3387793"><ele>498.5</ele><time>2026-04-13T12:35:14.686Z</time></trkpt><trkpt lat="38.4692859" lon="-1.3386547"><ele>497.0</ele><time>2026-04-13T12:35:15.686Z</time></trkpt><trkpt lat="38.4690649" lon="-1.3385177"><ele>497.0</ele><time>2026-04-13T12:35:16.686Z</time></trkpt><trkpt lat="38.4688432" lon="-1.3383684"><ele>497.0</ele><time>2026-04-13T12:35:17.686Z</time></trkpt><trkpt lat="38.4686251" lon="-1.3382129"><ele>495.5</ele><time>2026-04-13T12:35:18.686Z</time></trkpt><trkpt lat="38.4684111" lon="-1.3380452"><ele>494.0</ele><time>2026-04-13T12:35:19.686Z</time></trkpt><trkpt lat="38.4681972" lon="-1.337867"><ele>494.0</ele><time>2026-04-13T12:35:20.686Z</time></trkpt><trkpt lat="38.4679867" lon="-1.3376784"><ele>494.0</ele><time>2026-04-13T12:35:21.686Z</time></trkpt><trkpt lat="38.4677792" lon="-1.3374864"><ele>494.0</ele><time>2026-04-13T12:35:22.686Z</time></trkpt><trkpt lat="38.4675739" lon="-1.3372821"><ele>494.0</ele><time>2026-04-13T12:35:23.686Z</time></trkpt><trkpt lat="38.4673758" lon="-1.3370697"><ele>492.5</ele><time>2026-04-13T12:35:24.686Z</time></trkpt><trkpt lat="38.4671842" lon="-1.3368496"><ele>491.0</ele><time>2026-04-13T12:35:25.686Z</time></trkpt><trkpt lat="38.467" lon="-1.3366225"><ele>490.5</ele><time>2026-04-13T12:35:26.686Z</time></trkpt><trkpt lat="38.4668215" lon="-1.336385"><ele>490.0</ele><time>2026-04-13T12:35:27.686Z</time></trkpt><trkpt lat="38.4666526" lon="-1.3361446"><ele>490.0</ele><time>2026-04-13T12:35:28.686Z</time></trkpt><trkpt lat="38.4664869" lon="-1.3358939"><ele>490.0</ele><time>2026-04-13T12:35:29.686Z</time></trkpt><trkpt lat="38.4663311" lon="-1.3356401"><ele>491.0</ele><time>2026-04-13T12:35:30.686Z</time></trkpt><trkpt lat="38.4661777" lon="-1.3353794"><ele>492.0</ele><time>2026-04-13T12:35:31.686Z</time></trkpt><trkpt lat="38.4660342" lon="-1.3351131"><ele>492.0</ele><time>2026-04-13T12:35:32.686Z</time></trkpt><trkpt lat="38.4658931" lon="-1.3348396"><ele>492.0</ele><time>2026-04-13T12:35:33.686Z</time></trkpt><trkpt lat="38.4657623" lon="-1.3345562"><ele>490.5</ele><time>2026-04-13T12:35:34.686Z</time></trkpt><trkpt lat="38.4656381" lon="-1.3342703"><ele>489.0</ele><time>2026-04-13T12:35:35.686Z</time></trkpt><trkpt lat="38.4655237" lon="-1.3339835"><ele>490.0</ele><time>2026-04-13T12:35:36.686Z</time></trkpt><trkpt lat="38.4654195" lon="-1.3336915"><ele>491.0</ele><time>2026-04-13T12:35:37.686Z</time></trkpt><trkpt lat="38.4653226" lon="-1.3334009"><ele>491.0</ele><time>2026-04-13T12:35:38.686Z</time></trkpt><trkpt lat="38.4652324" lon="-1.3331043"><ele>491.0</ele><time>2026-04-13T12:35:39.686Z</time></trkpt><trkpt lat="38.4651539" lon="-1.332804"><ele>490.0</ele><time>2026-04-13T12:35:40.686Z</time></trkpt><trkpt lat="38.4650798" lon="-1.3325068"><ele>489.0</ele><time>2026-04-13T12:35:41.686Z</time></trkpt><trkpt lat="38.4650154" lon="-1.3322015"><ele>488.5</ele><time>2026-04-13T12:35:42.686Z</time></trkpt><trkpt lat="38.4649535" lon="-1.3318931"><ele>488.0</ele><time>2026-04-13T12:35:43.686Z</time></trkpt><trkpt lat="38.4649043" lon="-1.3315815"><ele>488.5</ele><time>2026-04-13T12:35:44.686Z</time></trkpt><trkpt lat="38.4648603" lon="-1.3312616"><ele>489.0</ele><time>2026-04-13T12:35:45.686Z</time></trkpt><trkpt lat="38.4648232" lon="-1.3309416"><ele>489.0</ele><time>2026-04-13T12:35:46.686Z</time></trkpt><trkpt lat="38.4647931" lon="-1.3306239"><ele>489.0</ele><time>2026-04-13T12:35:47.686Z</time></trkpt><trkpt lat="38.4647727" lon="-1.3303075"><ele>489.0</ele><time>2026-04-13T12:35:48.686Z</time></trkpt><trkpt lat="38.4647592" lon="-1.3299934"><ele>489.0</ele><time>2026-04-13T12:35:49.686Z</time></trkpt><trkpt lat="38.4647521" lon="-1.3296798"><ele>488.5</ele><time>2026-04-13T12:35:50.686Z</time></trkpt><trkpt lat="38.4647506" lon="-1.3293678"><ele>488.0</ele><time>2026-04-13T12:35:51.686Z</time></trkpt><trkpt lat="38.4647572" lon="-1.3290581"><ele>487.5</ele><time>2026-04-13T12:35:52.686Z</time></trkpt><trkpt lat="38.4647625" lon="-1.3287421"><ele>487.0</ele><time>2026-04-13T12:35:53.686Z</time></trkpt><trkpt lat="38.4647785" lon="-1.3284291"><ele>487.0</ele><time>2026-04-13T12:35:54.686Z</time></trkpt><trkpt lat="38.4647879" lon="-1.3281304"><ele>487.0</ele><time>2026-04-13T12:35:55.686Z</time></trkpt><trkpt lat="38.4648115" lon="-1.3278242"><ele>487.0</ele><time>2026-04-13T12:35:56.686Z</time></trkpt><trkpt lat="38.4648185" lon="-1.3275206"><ele>487.0</ele><time>2026-04-13T12:35:57.686Z</time></trkpt><trkpt lat="38.46483" lon="-1.3272255"><ele>485.5</ele><time>2026-04-13T12:35:58.686Z</time></trkpt><trkpt lat="38.4648381" lon="-1.3269269"><ele>484.0</ele><time>2026-04-13T12:35:59.686Z</time></trkpt><trkpt lat="38.4648464" lon="-1.3266393"><ele>483.0</ele><time>2026-04-13T12:36:00.686Z</time></trkpt><trkpt lat="38.4648532" lon="-1.3263459"><ele>482.0</ele><time>2026-04-13T12:36:01.687Z</time></trkpt><trkpt lat="38.4648603" lon="-1.3260466"><ele>482.0</ele><time>2026-04-13T12:36:02.686Z</time></trkpt><trkpt lat="38.4648694" lon="-1.3257514"><ele>482.0</ele><time>2026-04-13T12:36:03.686Z</time></trkpt><trkpt lat="38.4648814" lon="-1.3254515"><ele>481.5</ele><time>2026-04-13T12:36:04.687Z</time></trkpt><trkpt lat="38.4648929" lon="-1.3251518"><ele>481.0</ele><time>2026-04-13T12:36:05.686Z</time></trkpt><trkpt lat="38.4649032" lon="-1.3248486"><ele>480.5</ele><time>2026-04-13T12:36:06.686Z</time></trkpt><trkpt lat="38.464914" lon="-1.3245436"><ele>480.0</ele><time>2026-04-13T12:36:07.686Z</time></trkpt><trkpt lat="38.4649257" lon="-1.3242392"><ele>480.0</ele><time>2026-04-13T12:36:08.686Z</time></trkpt><trkpt lat="38.4649384" lon="-1.323932"><ele>480.0</ele><time>2026-04-13T12:36:09.686Z</time></trkpt><trkpt lat="38.4649499" lon="-1.3236273"><ele>480.5</ele><time>2026-04-13T12:36:10.686Z</time></trkpt><trkpt lat="38.4649622" lon="-1.3233261"><ele>481.0</ele><time>2026-04-13T12:36:11.687Z</time></trkpt><trkpt lat="38.4649736" lon="-1.3230195"><ele>481.0</ele><time>2026-04-13T12:36:12.686Z</time></trkpt><trkpt lat="38.4649875" lon="-1.3227166"><ele>481.0</ele><time>2026-04-13T12:36:13.686Z</time></trkpt><trkpt lat="38.4649983" lon="-1.3224087"><ele>481.0</ele><time>2026-04-13T12:36:14.686Z</time></trkpt><trkpt lat="38.4650101" lon="-1.3221017"><ele>481.0</ele><time>2026-04-13T12:36:15.686Z</time></trkpt><trkpt lat="38.4650198" lon="-1.3218015"><ele>481.0</ele><time>2026-04-13T12:36:16.686Z</time></trkpt><trkpt lat="38.4650294" lon="-1.3214997"><ele>481.0</ele><time>2026-04-13T12:36:17.686Z</time></trkpt><trkpt lat="38.4650388" lon="-1.321205"><ele>480.0</ele><time>2026-04-13T12:36:18.686Z</time></trkpt><trkpt lat="38.4650489" lon="-1.320905"><ele>479.0</ele><time>2026-04-13T12:36:19.686Z</time></trkpt><trkpt lat="38.4650594" lon="-1.32061"><ele>478.0</ele><time>2026-04-13T12:36:20.686Z</time></trkpt><trkpt lat="38.4650685" lon="-1.3203127"><ele>477.0</ele><time>2026-04-13T12:36:21.686Z</time></trkpt><trkpt lat="38.4650757" lon="-1.3200138"><ele>477.5</ele><time>2026-04-13T12:36:22.686Z</time></trkpt><trkpt lat="38.4650816" lon="-1.319712"><ele>478.0</ele><time>2026-04-13T12:36:23.686Z</time></trkpt><trkpt lat="38.4650775" lon="-1.3194072"><ele>478.0</ele><time>2026-04-13T12:36:24.686Z</time></trkpt><trkpt lat="38.4650767" lon="-1.3191023"><ele>478.0</ele><time>2026-04-13T12:36:25.686Z</time></trkpt><trkpt lat="38.4650737" lon="-1.3188003"><ele>478.5</ele><time>2026-04-13T12:36:26.686Z</time></trkpt><trkpt lat="38.4650726" lon="-1.318498"><ele>479.0</ele><time>2026-04-13T12:36:27.686Z</time></trkpt><trkpt lat="38.4650622" lon="-1.3181896"><ele>478.5</ele><time>2026-04-13T12:36:28.686Z</time></trkpt><trkpt lat="38.4650502" lon="-1.3178793"><ele>478.0</ele><time>2026-04-13T12:36:29.686Z</time></trkpt><trkpt lat="38.4650348" lon="-1.3175678"><ele>478.0</ele><time>2026-04-13T12:36:30.686Z</time></trkpt><trkpt lat="38.4650172" lon="-1.3172584"><ele>478.0</ele><time>2026-04-13T12:36:31.686Z</time></trkpt><trkpt lat="38.4649965" lon="-1.3169488"><ele>477.0</ele><time>2026-04-13T12:36:32.686Z</time></trkpt><trkpt lat="38.4649702" lon="-1.3166367"><ele>476.0</ele><time>2026-04-13T12:36:33.686Z</time></trkpt><trkpt lat="38.4649457" lon="-1.3163226"><ele>473.5</ele><time>2026-04-13T12:36:34.686Z</time></trkpt><trkpt lat="38.4649132" lon="-1.3160121"><ele>471.0</ele><time>2026-04-13T12:36:35.686Z</time></trkpt><trkpt lat="38.4648837" lon="-1.3156986"><ele>472.5</ele><time>2026-04-13T12:36:36.686Z</time></trkpt><trkpt lat="38.46485" lon="-1.3153859"><ele>474.0</ele><time>2026-04-13T12:36:37.686Z</time></trkpt><trkpt lat="38.4648162" lon="-1.3150724"><ele>474.0</ele><time>2026-04-13T12:36:38.686Z</time></trkpt><trkpt lat="38.4647804" lon="-1.3147579"><ele>474.0</ele><time>2026-04-13T12:36:39.686Z</time></trkpt><trkpt lat="38.4647447" lon="-1.3144477"><ele>474.0</ele><time>2026-04-13T12:36:40.686Z</time></trkpt><trkpt lat="38.4647125" lon="-1.3141394"><ele>474.0</ele><time>2026-04-13T12:36:41.686Z</time></trkpt><trkpt lat="38.4646741" lon="-1.313831"><ele>474.0</ele><time>2026-04-13T12:36:42.686Z</time></trkpt><trkpt lat="38.4646477" lon="-1.3135168"><ele>474.0</ele><time>2026-04-13T12:36:43.686Z</time></trkpt><trkpt lat="38.4646164" lon="-1.3132039"><ele>474.0</ele><time>2026-04-13T12:36:44.686Z</time></trkpt><trkpt lat="38.4645843" lon="-1.3128915"><ele>474.0</ele><time>2026-04-13T12:36:45.686Z</time></trkpt><trkpt lat="38.4645526" lon="-1.3125813"><ele>474.0</ele><time>2026-04-13T12:36:46.686Z</time></trkpt><trkpt lat="38.4645216" lon="-1.3122661"><ele>474.0</ele><time>2026-04-13T12:36:47.686Z</time></trkpt><trkpt lat="38.4644906" lon="-1.3119518"><ele>474.0</ele><time>2026-04-13T12:36:48.686Z</time></trkpt><trkpt lat="38.4644642" lon="-1.3116284"><ele>474.0</ele><time>2026-04-13T12:36:49.686Z</time></trkpt><trkpt lat="38.4644297" lon="-1.311316"><ele>474.0</ele><time>2026-04-13T12:36:50.686Z</time></trkpt><trkpt lat="38.4643978" lon="-1.3109994"><ele>474.0</ele><time>2026-04-13T12:36:51.686Z</time></trkpt><trkpt lat="38.4643622" lon="-1.3106825"><ele>474.0</ele><time>2026-04-13T12:36:52.686Z</time></trkpt><trkpt lat="38.4643276" lon="-1.3103631"><ele>474.0</ele><time>2026-04-13T12:36:53.686Z</time></trkpt><trkpt lat="38.4642915" lon="-1.3100484"><ele>473.0</ele><time>2026-04-13T12:36:54.686Z</time></trkpt><trkpt lat="38.4642583" lon="-1.3097309"><ele>472.0</ele><time>2026-04-13T12:36:55.686Z</time></trkpt><trkpt lat="38.4642227" lon="-1.3094015"><ele>472.0</ele><time>2026-04-13T12:36:56.686Z</time></trkpt><trkpt lat="38.4641909" lon="-1.3090846"><ele>472.0</ele><time>2026-04-13T12:36:57.686Z</time></trkpt><trkpt lat="38.4641571" lon="-1.3087636"><ele>473.5</ele><time>2026-04-13T12:36:58.686Z</time></trkpt><trkpt lat="38.4641279" lon="-1.3084428"><ele>475.0</ele><time>2026-04-13T12:36:59.686Z</time></trkpt><trkpt lat="38.4640995" lon="-1.308119"><ele>475.0</ele><time>2026-04-13T12:37:00.686Z</time></trkpt><trkpt lat="38.4640665" lon="-1.3077958"><ele>475.0</ele><time>2026-04-13T12:37:01.686Z</time></trkpt><trkpt lat="38.4640305" lon="-1.3074725"><ele>475.0</ele><time>2026-04-13T12:37:02.686Z</time></trkpt><trkpt lat="38.4639933" lon="-1.3071459"><ele>475.0</ele><time>2026-04-13T12:37:03.686Z</time></trkpt><trkpt lat="38.463961" lon="-1.3068218"><ele>475.0</ele><time>2026-04-13T12:37:04.686Z</time></trkpt><trkpt lat="38.4639295" lon="-1.3064964"><ele>475.0</ele><time>2026-04-13T12:37:05.686Z</time></trkpt><trkpt lat="38.4638952" lon="-1.3061667"><ele>475.5</ele><time>2026-04-13T12:37:06.686Z</time></trkpt><trkpt lat="38.4638678" lon="-1.3058388"><ele>476.0</ele><time>2026-04-13T12:37:07.686Z</time></trkpt><trkpt lat="38.4638343" lon="-1.3055133"><ele>476.5</ele><time>2026-04-13T12:37:08.686Z</time></trkpt><trkpt lat="38.4637971" lon="-1.3051881"><ele>477.0</ele><time>2026-04-13T12:37:09.686Z</time></trkpt><trkpt lat="38.4637602" lon="-1.304858"><ele>475.5</ele><time>2026-04-13T12:37:10.686Z</time></trkpt><trkpt lat="38.4637219" lon="-1.3045265"><ele>474.0</ele><time>2026-04-13T12:37:11.686Z</time></trkpt><trkpt lat="38.4636827" lon="-1.3041968"><ele>475.5</ele><time>2026-04-13T12:37:12.686Z</time></trkpt><trkpt lat="38.463639" lon="-1.3038659"><ele>477.0</ele><time>2026-04-13T12:37:13.686Z</time></trkpt><trkpt lat="38.4635939" lon="-1.3035374"><ele>477.0</ele><time>2026-04-13T12:37:14.686Z</time></trkpt><trkpt lat="38.4635425" lon="-1.3032063"><ele>477.0</ele><time>2026-04-13T12:37:15.686Z</time></trkpt><trkpt lat="38.4634878" lon="-1.302877"><ele>477.0</ele><time>2026-04-13T12:37:16.686Z</time></trkpt><trkpt lat="38.4634248" lon="-1.3025453"><ele>477.0</ele><time>2026-04-13T12:37:17.686Z</time></trkpt><trkpt lat="38.4633606" lon="-1.3022138"><ele>477.5</ele><time>2026-04-13T12:37:18.686Z</time></trkpt><trkpt lat="38.4632916" lon="-1.3018862"><ele>478.0</ele><time>2026-04-13T12:37:19.686Z</time></trkpt><trkpt lat="38.4632216" lon="-1.3015632"><ele>477.5</ele><time>2026-04-13T12:37:20.686Z</time></trkpt><trkpt lat="38.4631428" lon="-1.3012371"><ele>477.0</ele><time>2026-04-13T12:37:21.686Z</time></trkpt><trkpt lat="38.463058" lon="-1.3009163"><ele>477.0</ele><time>2026-04-13T12:37:22.686Z</time></trkpt><trkpt lat="38.4630005" lon="-1.3005847"><ele>477.0</ele><time>2026-04-13T12:37:23.686Z</time></trkpt><trkpt lat="38.4629033" lon="-1.3002913"><ele>477.0</ele><time>2026-04-13T12:37:24.686Z</time></trkpt><trkpt lat="38.4627808" lon="-1.299979"><ele>477.0</ele><time>2026-04-13T12:37:25.686Z</time></trkpt><trkpt lat="38.4626755" lon="-1.2996529"><ele>478.0</ele><time>2026-04-13T12:37:26.686Z</time></trkpt><trkpt lat="38.462563" lon="-1.2993384"><ele>479.0</ele><time>2026-04-13T12:37:27.686Z</time></trkpt><trkpt lat="38.4624455" lon="-1.2990247"><ele>478.0</ele><time>2026-04-13T12:37:28.686Z</time></trkpt><trkpt lat="38.4623279" lon="-1.2987157"><ele>477.0</ele><time>2026-04-13T12:37:29.686Z</time></trkpt><trkpt lat="38.4622065" lon="-1.2984078"><ele>477.0</ele><time>2026-04-13T12:37:30.686Z</time></trkpt><trkpt lat="38.4620757" lon="-1.2981039"><ele>477.0</ele><time>2026-04-13T12:37:31.686Z</time></trkpt><trkpt lat="38.4619415" lon="-1.2978035"><ele>477.0</ele><time>2026-04-13T12:37:32.686Z</time></trkpt><trkpt lat="38.4618013" lon="-1.2975057"><ele>477.0</ele><time>2026-04-13T12:37:33.686Z</time></trkpt><trkpt lat="38.4616541" lon="-1.2972013"><ele>477.0</ele><time>2026-04-13T12:37:34.686Z</time></trkpt><trkpt lat="38.4615098" lon="-1.2969146"><ele>477.0</ele><time>2026-04-13T12:37:35.686Z</time></trkpt><trkpt lat="38.4613552" lon="-1.296627"><ele>477.0</ele><time>2026-04-13T12:37:36.686Z</time></trkpt><trkpt lat="38.4612008" lon="-1.296343"><ele>477.0</ele><time>2026-04-13T12:37:37.686Z</time></trkpt><trkpt lat="38.4610465" lon="-1.2960664"><ele>477.0</ele><time>2026-04-13T12:37:38.686Z</time></trkpt><trkpt lat="38.4608925" lon="-1.2957962"><ele>477.0</ele><time>2026-04-13T12:37:39.686Z</time></trkpt><trkpt lat="38.4607352" lon="-1.2955245"><ele>477.0</ele><time>2026-04-13T12:37:40.686Z</time></trkpt><trkpt lat="38.4605774" lon="-1.2952592"><ele>477.0</ele><time>2026-04-13T12:37:41.686Z</time></trkpt><trkpt lat="38.460425" lon="-1.2949929"><ele>478.5</ele><time>2026-04-13T12:37:42.686Z</time></trkpt><trkpt lat="38.4602704" lon="-1.2947268"><ele>480.0</ele><time>2026-04-13T12:37:43.686Z</time></trkpt><trkpt lat="38.4601158" lon="-1.2944589"><ele>480.0</ele><time>2026-04-13T12:37:44.686Z</time></trkpt><trkpt lat="38.4599593" lon="-1.2941894"><ele>480.0</ele><time>2026-04-13T12:37:45.686Z</time></trkpt><trkpt lat="38.4598031" lon="-1.2939255"><ele>479.5</ele><time>2026-04-13T12:37:46.686Z</time></trkpt><trkpt lat="38.4596501" lon="-1.2936557"><ele>479.0</ele><time>2026-04-13T12:37:47.687Z</time></trkpt><trkpt lat="38.4594981" lon="-1.2933922"><ele>478.5</ele><time>2026-04-13T12:37:48.686Z</time></trkpt><trkpt lat="38.4593457" lon="-1.2931311"><ele>478.0</ele><time>2026-04-13T12:37:49.686Z</time></trkpt><trkpt lat="38.459191" lon="-1.2928657"><ele>478.0</ele><time>2026-04-13T12:37:50.686Z</time></trkpt><trkpt lat="38.4590357" lon="-1.2925955"><ele>478.0</ele><time>2026-04-13T12:37:51.686Z</time></trkpt><trkpt lat="38.4588827" lon="-1.2923278"><ele>480.0</ele><time>2026-04-13T12:37:52.686Z</time></trkpt><trkpt lat="38.4587267" lon="-1.2920618"><ele>482.0</ele><time>2026-04-13T12:37:53.687Z</time></trkpt><trkpt lat="38.4585727" lon="-1.2917931"><ele>482.0</ele><time>2026-04-13T12:37:54.686Z</time></trkpt><trkpt lat="38.4584161" lon="-1.2915243"><ele>482.0</ele><time>2026-04-13T12:37:55.686Z</time></trkpt><trkpt lat="38.4582624" lon="-1.2912554"><ele>483.5</ele><time>2026-04-13T12:37:56.686Z</time></trkpt><trkpt lat="38.4581095" lon="-1.2909883"><ele>485.0</ele><time>2026-04-13T12:37:57.686Z</time></trkpt><trkpt lat="38.4579537" lon="-1.2907175"><ele>483.5</ele><time>2026-04-13T12:37:58.686Z</time></trkpt><trkpt lat="38.4577943" lon="-1.2904544"><ele>482.0</ele><time>2026-04-13T12:37:59.686Z</time></trkpt><trkpt lat="38.4576337" lon="-1.2901846"><ele>482.0</ele><time>2026-04-13T12:38:00.686Z</time></trkpt><trkpt lat="38.4574706" lon="-1.2899154"><ele>482.0</ele><time>2026-04-13T12:38:01.686Z</time></trkpt><trkpt lat="38.4573149" lon="-1.2896451"><ele>482.5</ele><time>2026-04-13T12:38:02.686Z</time></trkpt><trkpt lat="38.457154" lon="-1.2893751"><ele>483.0</ele><time>2026-04-13T12:38:03.686Z</time></trkpt><trkpt lat="38.4567697" lon="-1.2887075"><ele>484.0</ele><time>2026-04-13T12:38:06.681Z</time></trkpt><trkpt lat="38.4564521" lon="-1.2881883"><ele>484.5</ele><time>2026-04-13T12:38:08.595Z</time></trkpt><trkpt lat="38.4562012" lon="-1.2877656"><ele>485.0</ele><time>2026-04-13T12:38:09.675Z</time></trkpt><trkpt lat="38.4560456" lon="-1.2874978"><ele>486.0</ele><time>2026-04-13T12:38:10.672Z</time></trkpt><trkpt lat="38.4558885" lon="-1.2872365"><ele>487.0</ele><time>2026-04-13T12:38:11.67Z</time></trkpt><trkpt lat="38.4557325" lon="-1.2869676"><ele>487.0</ele><time>2026-04-13T12:38:12.671Z</time></trkpt><trkpt lat="38.4555761" lon="-1.2867046"><ele>487.0</ele><time>2026-04-13T12:38:13.686Z</time></trkpt><trkpt lat="38.4554221" lon="-1.2864394"><ele>488.5</ele><time>2026-04-13T12:38:14.686Z</time></trkpt><trkpt lat="38.4552724" lon="-1.2861761"><ele>490.0</ele><time>2026-04-13T12:38:15.686Z</time></trkpt><trkpt lat="38.4551173" lon="-1.2859135"><ele>490.0</ele><time>2026-04-13T12:38:16.686Z</time></trkpt><trkpt lat="38.4549646" lon="-1.2856552"><ele>490.0</ele><time>2026-04-13T12:38:17.686Z</time></trkpt><trkpt lat="38.4548138" lon="-1.2853964"><ele>490.0</ele><time>2026-04-13T12:38:18.686Z</time></trkpt><trkpt lat="38.4546621" lon="-1.2851416"><ele>490.0</ele><time>2026-04-13T12:38:19.686Z</time></trkpt><trkpt lat="38.4545131" lon="-1.284884"><ele>490.5</ele><time>2026-04-13T12:38:20.686Z</time></trkpt><trkpt lat="38.4543612" lon="-1.2846308"><ele>491.0</ele><time>2026-04-13T12:38:21.686Z</time></trkpt><trkpt lat="38.4542153" lon="-1.2843773"><ele>491.0</ele><time>2026-04-13T12:38:22.686Z</time></trkpt><trkpt lat="38.4540665" lon="-1.2841171"><ele>491.0</ele><time>2026-04-13T12:38:23.686Z</time></trkpt><trkpt lat="38.453914" lon="-1.2838543"><ele>491.5</ele><time>2026-04-13T12:38:24.686Z</time></trkpt><trkpt lat="38.453766" lon="-1.2835937"><ele>492.0</ele><time>2026-04-13T12:38:25.686Z</time></trkpt><trkpt lat="38.4536082" lon="-1.2833244"><ele>491.0</ele><time>2026-04-13T12:38:26.686Z</time></trkpt><trkpt lat="38.4534562" lon="-1.2830636"><ele>490.0</ele><time>2026-04-13T12:38:27.686Z</time></trkpt><trkpt lat="38.4533001" lon="-1.2827982"><ele>490.0</ele><time>2026-04-13T12:38:28.686Z</time></trkpt><trkpt lat="38.4531436" lon="-1.2825295"><ele>490.0</ele><time>2026-04-13T12:38:29.686Z</time></trkpt><trkpt lat="38.4529872" lon="-1.2822627"><ele>493.0</ele><time>2026-04-13T12:38:30.686Z</time></trkpt><trkpt lat="38.4528332" lon="-1.2819934"><ele>496.0</ele><time>2026-04-13T12:38:31.686Z</time></trkpt><trkpt lat="38.4526751" lon="-1.2817263"><ele>496.0</ele><time>2026-04-13T12:38:32.686Z</time></trkpt><trkpt lat="38.4525163" lon="-1.2814635"><ele>496.0</ele><time>2026-04-13T12:38:33.686Z</time></trkpt><trkpt lat="38.4523584" lon="-1.2811973"><ele>495.5</ele><time>2026-04-13T12:38:34.686Z</time></trkpt><trkpt lat="38.4521994" lon="-1.2809291"><ele>495.0</ele><time>2026-04-13T12:38:35.686Z</time></trkpt><trkpt lat="38.4520441" lon="-1.2806629"><ele>495.5</ele><time>2026-04-13T12:38:36.686Z</time></trkpt><trkpt lat="38.4518876" lon="-1.2803925"><ele>496.0</ele><time>2026-04-13T12:38:37.686Z</time></trkpt><trkpt lat="38.4517276" lon="-1.2801188"><ele>496.0</ele><time>2026-04-13T12:38:38.686Z</time></trkpt><trkpt lat="38.4515701" lon="-1.2798512"><ele>496.0</ele><time>2026-04-13T12:38:39.686Z</time></trkpt><trkpt lat="38.4514097" lon="-1.2795726"><ele>496.0</ele><time>2026-04-13T12:38:40.686Z</time></trkpt><trkpt lat="38.4512499" lon="-1.2793007"><ele>496.0</ele><time>2026-04-13T12:38:41.686Z</time></trkpt><trkpt lat="38.4510915" lon="-1.2790274"><ele>496.5</ele><time>2026-04-13T12:38:42.686Z</time></trkpt><trkpt lat="38.4509334" lon="-1.2787596"><ele>497.0</ele><time>2026-04-13T12:38:43.686Z</time></trkpt><trkpt lat="38.4507797" lon="-1.2784966"><ele>497.0</ele><time>2026-04-13T12:38:44.686Z</time></trkpt><trkpt lat="38.450622" lon="-1.278228"><ele>497.0</ele><time>2026-04-13T12:38:45.686Z</time></trkpt><trkpt lat="38.4504662" lon="-1.2779609"><ele>499.5</ele><time>2026-04-13T12:38:46.686Z</time></trkpt><trkpt lat="38.4503145" lon="-1.2776966"><ele>502.0</ele><time>2026-04-13T12:38:47.686Z</time></trkpt><trkpt lat="38.4501603" lon="-1.2774329"><ele>500.5</ele><time>2026-04-13T12:38:48.686Z</time></trkpt><trkpt lat="38.4500064" lon="-1.2771636"><ele>499.0</ele><time>2026-04-13T12:38:49.686Z</time></trkpt><trkpt lat="38.4498515" lon="-1.276902"><ele>499.0</ele><time>2026-04-13T12:38:50.686Z</time></trkpt><trkpt lat="38.4496953" lon="-1.2766331"><ele>499.0</ele><time>2026-04-13T12:38:51.686Z</time></trkpt><trkpt lat="38.4495408" lon="-1.2763675"><ele>499.5</ele><time>2026-04-13T12:38:52.686Z</time></trkpt><trkpt lat="38.4493863" lon="-1.2760997"><ele>500.0</ele><time>2026-04-13T12:38:53.686Z</time></trkpt><trkpt lat="38.4492343" lon="-1.2758324"><ele>500.0</ele><time>2026-04-13T12:38:54.686Z</time></trkpt><trkpt lat="38.44908" lon="-1.2755661"><ele>500.0</ele><time>2026-04-13T12:38:55.686Z</time></trkpt><trkpt lat="38.4489249" lon="-1.2752993"><ele>501.0</ele><time>2026-04-13T12:38:56.686Z</time></trkpt><trkpt lat="38.4487699" lon="-1.2750346"><ele>502.0</ele><time>2026-04-13T12:38:57.687Z</time></trkpt><trkpt lat="38.4486131" lon="-1.2747678"><ele>503.0</ele><time>2026-04-13T12:38:58.686Z</time></trkpt><trkpt lat="38.4484575" lon="-1.2745004"><ele>504.0</ele><time>2026-04-13T12:38:59.686Z</time></trkpt><trkpt lat="38.4483015" lon="-1.2742284"><ele>504.0</ele><time>2026-04-13T12:39:00.686Z</time></trkpt><trkpt lat="38.4481435" lon="-1.2739625"><ele>504.0</ele><time>2026-04-13T12:39:01.686Z</time></trkpt><trkpt lat="38.4479874" lon="-1.2736937"><ele>503.5</ele><time>2026-04-13T12:39:02.686Z</time></trkpt><trkpt lat="38.4478302" lon="-1.2734217"><ele>503.0</ele><time>2026-04-13T12:39:03.686Z</time></trkpt><trkpt lat="38.4476727" lon="-1.2731481"><ele>502.5</ele><time>2026-04-13T12:39:04.686Z</time></trkpt><trkpt lat="38.4475165" lon="-1.2728777"><ele>502.0</ele><time>2026-04-13T12:39:05.686Z</time></trkpt><trkpt lat="38.447363" lon="-1.27261"><ele>502.0</ele><time>2026-04-13T12:39:06.686Z</time></trkpt><trkpt lat="38.4472075" lon="-1.2723404"><ele>502.0</ele><time>2026-04-13T12:39:07.686Z</time></trkpt><trkpt lat="38.4470513" lon="-1.2720698"><ele>502.5</ele><time>2026-04-13T12:39:08.686Z</time></trkpt><trkpt lat="38.4468978" lon="-1.2718016"><ele>503.0</ele><time>2026-04-13T12:39:09.686Z</time></trkpt><trkpt lat="38.4467438" lon="-1.2715347"><ele>503.5</ele><time>2026-04-13T12:39:10.686Z</time></trkpt><trkpt lat="38.446591" lon="-1.2712739"><ele>504.0</ele><time>2026-04-13T12:39:11.686Z</time></trkpt><trkpt lat="38.4464424" lon="-1.2710267"><ele>505.0</ele><time>2026-04-13T12:39:12.686Z</time></trkpt><trkpt lat="38.4462934" lon="-1.2707716"><ele>506.0</ele><time>2026-04-13T12:39:13.686Z</time></trkpt><trkpt lat="38.4461469" lon="-1.2705215"><ele>506.5</ele><time>2026-04-13T12:39:14.686Z</time></trkpt><trkpt lat="38.4460008" lon="-1.2702668"><ele>507.0</ele><time>2026-04-13T12:39:15.686Z</time></trkpt><trkpt lat="38.4458568" lon="-1.2700192"><ele>507.5</ele><time>2026-04-13T12:39:16.686Z</time></trkpt><trkpt lat="38.4457109" lon="-1.2697721"><ele>508.0</ele><time>2026-04-13T12:39:17.686Z</time></trkpt><trkpt lat="38.4455636" lon="-1.2695221"><ele>509.0</ele><time>2026-04-13T12:39:18.686Z</time></trkpt><trkpt lat="38.4454188" lon="-1.2692721"><ele>510.0</ele><time>2026-04-13T12:39:19.686Z</time></trkpt><trkpt lat="38.4452768" lon="-1.2690184"><ele>510.0</ele><time>2026-04-13T12:39:20.686Z</time></trkpt><trkpt lat="38.4451265" lon="-1.2687678"><ele>510.0</ele><time>2026-04-13T12:39:21.686Z</time></trkpt><trkpt lat="38.4449762" lon="-1.2685182"><ele>510.0</ele><time>2026-04-13T12:39:22.686Z</time></trkpt><trkpt lat="38.444829" lon="-1.2682629"><ele>510.0</ele><time>2026-04-13T12:39:23.686Z</time></trkpt><trkpt lat="38.4446771" lon="-1.2680066"><ele>511.5</ele><time>2026-04-13T12:39:24.686Z</time></trkpt><trkpt lat="38.4445306" lon="-1.2677593"><ele>513.0</ele><time>2026-04-13T12:39:25.686Z</time></trkpt><trkpt lat="38.4443733" lon="-1.2674979"><ele>511.5</ele><time>2026-04-13T12:39:26.686Z</time></trkpt><trkpt lat="38.4442221" lon="-1.2672354"><ele>510.0</ele><time>2026-04-13T12:39:27.686Z</time></trkpt><trkpt lat="38.4440696" lon="-1.2669763"><ele>510.0</ele><time>2026-04-13T12:39:28.686Z</time></trkpt><trkpt lat="38.4439187" lon="-1.2667189"><ele>510.0</ele><time>2026-04-13T12:39:29.686Z</time></trkpt><trkpt lat="38.4437681" lon="-1.2664626"><ele>511.0</ele><time>2026-04-13T12:39:30.686Z</time></trkpt><trkpt lat="38.4436182" lon="-1.2661997"><ele>512.0</ele><time>2026-04-13T12:39:31.686Z</time></trkpt><trkpt lat="38.4434724" lon="-1.2659478"><ele>512.0</ele><time>2026-04-13T12:39:32.686Z</time></trkpt><trkpt lat="38.443324" lon="-1.2656943"><ele>512.0</ele><time>2026-04-13T12:39:33.686Z</time></trkpt><trkpt lat="38.4431763" lon="-1.265441"><ele>511.0</ele><time>2026-04-13T12:39:34.686Z</time></trkpt><trkpt lat="38.4430279" lon="-1.2651855"><ele>510.0</ele><time>2026-04-13T12:39:35.686Z</time></trkpt><trkpt lat="38.4428806" lon="-1.2649315"><ele>511.5</ele><time>2026-04-13T12:39:36.686Z</time></trkpt><trkpt lat="38.4427293" lon="-1.2646776"><ele>513.0</ele><time>2026-04-13T12:39:37.686Z</time></trkpt><trkpt lat="38.4425758" lon="-1.2644181"><ele>513.0</ele><time>2026-04-13T12:39:38.686Z</time></trkpt><trkpt lat="38.4424189" lon="-1.2641543"><ele>513.0</ele><time>2026-04-13T12:39:39.686Z</time></trkpt><trkpt lat="38.4422599" lon="-1.2638891"><ele>514.0</ele><time>2026-04-13T12:39:40.686Z</time></trkpt><trkpt lat="38.4421" lon="-1.2636221"><ele>515.0</ele><time>2026-04-13T12:39:41.686Z</time></trkpt><trkpt lat="38.4419421" lon="-1.2633516"><ele>515.0</ele><time>2026-04-13T12:39:42.686Z</time></trkpt><trkpt lat="38.4417867" lon="-1.2630864"><ele>515.0</ele><time>2026-04-13T12:39:43.686Z</time></trkpt><trkpt lat="38.4416292" lon="-1.2628162"><ele>515.0</ele><time>2026-04-13T12:39:44.686Z</time></trkpt><trkpt lat="38.4414693" lon="-1.2625458"><ele>515.0</ele><time>2026-04-13T12:39:45.686Z</time></trkpt><trkpt lat="38.4413168" lon="-1.2622696"><ele>517.5</ele><time>2026-04-13T12:39:46.686Z</time></trkpt><trkpt lat="38.4411615" lon="-1.2620035"><ele>520.0</ele><time>2026-04-13T12:39:47.686Z</time></trkpt><trkpt lat="38.4410046" lon="-1.2617399"><ele>520.0</ele><time>2026-04-13T12:39:48.686Z</time></trkpt><trkpt lat="38.4408535" lon="-1.2614772"><ele>520.0</ele><time>2026-04-13T12:39:49.686Z</time></trkpt><trkpt lat="38.4407035" lon="-1.2612184"><ele>519.0</ele><time>2026-04-13T12:39:50.686Z</time></trkpt><trkpt lat="38.4405575" lon="-1.2609629"><ele>518.0</ele><time>2026-04-13T12:39:51.686Z</time></trkpt><trkpt lat="38.4404147" lon="-1.2607105"><ele>519.0</ele><time>2026-04-13T12:39:52.686Z</time></trkpt><trkpt lat="38.4402658" lon="-1.2604597"><ele>520.0</ele><time>2026-04-13T12:39:53.686Z</time></trkpt><trkpt lat="38.4401169" lon="-1.2602117"><ele>520.0</ele><time>2026-04-13T12:39:54.686Z</time></trkpt><trkpt lat="38.4399705" lon="-1.2599547"><ele>520.0</ele><time>2026-04-13T12:39:55.686Z</time></trkpt><trkpt lat="38.4398214" lon="-1.259699"><ele>519.5</ele><time>2026-04-13T12:39:56.686Z</time></trkpt><trkpt lat="38.4396717" lon="-1.2594439"><ele>519.0</ele><time>2026-04-13T12:39:57.686Z</time></trkpt><trkpt lat="38.4395195" lon="-1.2591858"><ele>520.0</ele><time>2026-04-13T12:39:58.686Z</time></trkpt><trkpt lat="38.4393679" lon="-1.2589287"><ele>521.0</ele><time>2026-04-13T12:39:59.686Z</time></trkpt><trkpt lat="38.4392171" lon="-1.2586674"><ele>521.0</ele><time>2026-04-13T12:40:00.686Z</time></trkpt><trkpt lat="38.4390675" lon="-1.2584091"><ele>521.0</ele><time>2026-04-13T12:40:01.686Z</time></trkpt><trkpt lat="38.4389139" lon="-1.2581457"><ele>522.5</ele><time>2026-04-13T12:40:02.686Z</time></trkpt><trkpt lat="38.4387605" lon="-1.2578856"><ele>524.0</ele><time>2026-04-13T12:40:03.686Z</time></trkpt><trkpt lat="38.4386028" lon="-1.2576229"><ele>524.0</ele><time>2026-04-13T12:40:04.686Z</time></trkpt><trkpt lat="38.4384471" lon="-1.2573542"><ele>524.0</ele><time>2026-04-13T12:40:05.686Z</time></trkpt><trkpt lat="38.4382919" lon="-1.2570975"><ele>522.0</ele><time>2026-04-13T12:40:06.686Z</time></trkpt><trkpt lat="38.4381398" lon="-1.2568367"><ele>520.0</ele><time>2026-04-13T12:40:07.686Z</time></trkpt><trkpt lat="38.4379938" lon="-1.2565756"><ele>522.0</ele><time>2026-04-13T12:40:08.686Z</time></trkpt><trkpt lat="38.4378569" lon="-1.2563179"><ele>524.0</ele><time>2026-04-13T12:40:09.686Z</time></trkpt><trkpt lat="38.4377204" lon="-1.2560683"><ele>524.0</ele><time>2026-04-13T12:40:10.686Z</time></trkpt><trkpt lat="38.4375946" lon="-1.2558436"><ele>524.0</ele><time>2026-04-13T12:40:11.686Z</time></trkpt><trkpt lat="38.4374678" lon="-1.2556317"><ele>524.0</ele><time>2026-04-13T12:40:12.686Z</time></trkpt><trkpt lat="38.4373294" lon="-1.2554404"><ele>524.0</ele><time>2026-04-13T12:40:13.687Z</time></trkpt><trkpt lat="38.4371741" lon="-1.2552651"><ele>524.0</ele><time>2026-04-13T12:40:14.686Z</time></trkpt><trkpt lat="38.4370136" lon="-1.2551141"><ele>524.0</ele><time>2026-04-13T12:40:15.686Z</time></trkpt><trkpt lat="38.4368437" lon="-1.2549812"><ele>524.0</ele><time>2026-04-13T12:40:16.686Z</time></trkpt><trkpt lat="38.4366632" lon="-1.2548716"><ele>524.0</ele><time>2026-04-13T12:40:17.686Z</time></trkpt><trkpt lat="38.4364855" lon="-1.2547823"><ele>524.0</ele><time>2026-04-13T12:40:18.686Z</time></trkpt><trkpt lat="38.4363031" lon="-1.2547025"><ele>524.6666666666666</ele><time>2026-04-13T12:40:19.686Z</time></trkpt><trkpt lat="38.4361222" lon="-1.2546306"><ele>525.3333333333334</ele><time>2026-04-13T12:40:20.686Z</time></trkpt><trkpt lat="38.4359533" lon="-1.25456"><ele>526.0</ele><time>2026-04-13T12:40:21.686Z</time></trkpt><trkpt lat="38.4357914" lon="-1.2544877"><ele>526.0</ele><time>2026-04-13T12:40:22.686Z</time></trkpt><trkpt lat="38.4356535" lon="-1.2544066"><ele>526.0</ele><time>2026-04-13T12:40:23.686Z</time></trkpt><trkpt lat="38.4355253" lon="-1.254304"><ele>526.0</ele><time>2026-04-13T12:40:24.686Z</time></trkpt><trkpt lat="38.4354107" lon="-1.2541836"><ele>526.5</ele><time>2026-04-13T12:40:25.686Z</time></trkpt><trkpt lat="38.4353259" lon="-1.2540369"><ele>527.0</ele><time>2026-04-13T12:40:26.686Z</time></trkpt><trkpt lat="38.4352711" lon="-1.2538734"><ele>527.5</ele><time>2026-04-13T12:40:27.686Z</time></trkpt><trkpt lat="38.435243" lon="-1.2537096"><ele>528.0</ele><time>2026-04-13T12:40:28.687Z</time></trkpt><trkpt lat="38.4352444" lon="-1.2535517"><ele>528.0</ele><time>2026-04-13T12:40:29.686Z</time></trkpt><trkpt lat="38.4352617" lon="-1.253408"><ele>528.0</ele><time>2026-04-13T12:40:30.686Z</time></trkpt><trkpt lat="38.4352758" lon="-1.2532822"><ele>528.0</ele><time>2026-04-13T12:40:31.686Z</time></trkpt><trkpt lat="38.4352673" lon="-1.2531669"><ele>528.0</ele><time>2026-04-13T12:40:32.686Z</time></trkpt><trkpt lat="38.4352334" lon="-1.2530586"><ele>528.0</ele><time>2026-04-13T12:40:33.686Z</time></trkpt><trkpt lat="38.4351843" lon="-1.2529553"><ele>527.6</ele><time>2026-04-13T12:40:34.686Z</time></trkpt><trkpt lat="38.4351379" lon="-1.2528456"><ele>527.1999999999999</ele><time>2026-04-13T12:40:35.686Z</time></trkpt><trkpt lat="38.4351011" lon="-1.2527142"><ele>526.8</ele><time>2026-04-13T12:40:36.686Z</time></trkpt><trkpt lat="38.4350828" lon="-1.252575"><ele>526.4</ele><time>2026-04-13T12:40:37.686Z</time></trkpt><trkpt lat="38.4350764" lon="-1.2524303"><ele>526.0</ele><time>2026-04-13T12:40:38.686Z</time></trkpt><trkpt lat="38.435092" lon="-1.2522852"><ele>525.2</ele><time>2026-04-13T12:40:39.686Z</time></trkpt><trkpt lat="38.4351313" lon="-1.2521482"><ele>524.4000000000001</ele><time>2026-04-13T12:40:40.686Z</time></trkpt><trkpt lat="38.4351856" lon="-1.252021"><ele>523.6</ele><time>2026-04-13T12:40:41.686Z</time></trkpt><trkpt lat="38.4352569" lon="-1.251913"><ele>522.8000000000001</ele><time>2026-04-13T12:40:42.686Z</time></trkpt><trkpt lat="38.4353415" lon="-1.2518281"><ele>522.0</ele><time>2026-04-13T12:40:43.686Z</time></trkpt><trkpt lat="38.4354355" lon="-1.2517704"><ele>522.0</ele><time>2026-04-13T12:40:44.686Z</time></trkpt><trkpt lat="38.4355385" lon="-1.2517339"><ele>522.0</ele><time>2026-04-13T12:40:45.686Z</time></trkpt><trkpt lat="38.435641" lon="-1.2517119"><ele>522.0</ele><time>2026-04-13T12:40:46.686Z</time></trkpt><trkpt lat="38.435736" lon="-1.2516886"><ele>522.0</ele><time>2026-04-13T12:40:47.686Z</time></trkpt><trkpt lat="38.4358203" lon="-1.2516455"><ele>522.0</ele><time>2026-04-13T12:40:48.686Z</time></trkpt><trkpt lat="38.4358951" lon="-1.2515781"><ele>522.0</ele><time>2026-04-13T12:40:49.686Z</time></trkpt><trkpt lat="38.4359495" lon="-1.2514915"><ele>522.0</ele><time>2026-04-13T12:40:50.686Z</time></trkpt><trkpt lat="38.4359812" lon="-1.2513751"><ele>522.0</ele><time>2026-04-13T12:40:51.686Z</time></trkpt><trkpt lat="38.4359881" lon="-1.2512464"><ele>522.0</ele><time>2026-04-13T12:40:52.686Z</time></trkpt><trkpt lat="38.4359665" lon="-1.2511064"><ele>522.0</ele><time>2026-04-13T12:40:53.686Z</time></trkpt><trkpt lat="38.4359129" lon="-1.2509761"><ele>522.0</ele><time>2026-04-13T12:40:54.686Z</time></trkpt><trkpt lat="38.4358247" lon="-1.2508531"><ele>522.0</ele><time>2026-04-13T12:40:55.686Z</time></trkpt><trkpt lat="38.4357253" lon="-1.2507523"><ele>522.0</ele><time>2026-04-13T12:40:56.686Z</time></trkpt><trkpt lat="38.4355948" lon="-1.2506933"><ele>522.0</ele><time>2026-04-13T12:40:57.686Z</time></trkpt><trkpt lat="38.4354557" lon="-1.2506317"><ele>520.3333333333334</ele><time>2026-04-13T12:40:58.686Z</time></trkpt><trkpt lat="38.4353072" lon="-1.2505672"><ele>518.6666666666667</ele><time>2026-04-13T12:40:59.686Z</time></trkpt><trkpt lat="38.4351553" lon="-1.2504953"><ele>517.0</ele><time>2026-04-13T12:41:00.686Z</time></trkpt><trkpt lat="38.4349993" lon="-1.2504123"><ele>517.0</ele><time>2026-04-13T12:41:01.686Z</time></trkpt><trkpt lat="38.4348444" lon="-1.2503213"><ele>517.0</ele><time>2026-04-13T12:41:02.686Z</time></trkpt><trkpt lat="38.4346931" lon="-1.250222"><ele>517.0</ele><time>2026-04-13T12:41:03.686Z</time></trkpt><trkpt lat="38.4345531" lon="-1.2501168"><ele>517.0</ele><time>2026-04-13T12:41:04.686Z</time></trkpt><trkpt lat="38.4344302" lon="-1.2500119"><ele>517.0</ele><time>2026-04-13T12:41:05.686Z</time></trkpt><trkpt lat="38.4343241" lon="-1.2499225"><ele>517.0</ele><time>2026-04-13T12:41:06.686Z</time></trkpt><trkpt lat="38.4342301" lon="-1.2498553"><ele>517.0</ele><time>2026-04-13T12:41:07.686Z</time></trkpt><trkpt lat="38.4341368" lon="-1.249815"><ele>517.0</ele><time>2026-04-13T12:41:08.686Z</time></trkpt><trkpt lat="38.4340394" lon="-1.2498026"><ele>517.0</ele><time>2026-04-13T12:41:09.686Z</time></trkpt><trkpt lat="38.4339391" lon="-1.249797"><ele>517.0</ele><time>2026-04-13T12:41:10.686Z</time></trkpt><trkpt lat="38.4338411" lon="-1.2497663"><ele>517.0</ele><time>2026-04-13T12:41:11.686Z</time></trkpt><trkpt lat="38.4337549" lon="-1.2496974"><ele>517.0</ele><time>2026-04-13T12:41:12.686Z</time></trkpt><trkpt lat="38.4336974" lon="-1.2496071"><ele>516.6</ele><time>2026-04-13T12:41:13.686Z</time></trkpt><trkpt lat="38.4336863" lon="-1.2494857"><ele>516.2</ele><time>2026-04-13T12:41:14.686Z</time></trkpt><trkpt lat="38.4337114" lon="-1.2493741"><ele>515.8</ele><time>2026-04-13T12:41:15.686Z</time></trkpt><trkpt lat="38.4337647" lon="-1.2492866"><ele>515.4</ele><time>2026-04-13T12:41:16.686Z</time></trkpt><trkpt lat="38.4338284" lon="-1.2492112"><ele>515.0</ele><time>2026-04-13T12:41:17.686Z</time></trkpt><trkpt lat="38.4338887" lon="-1.2491268"><ele>515.0</ele><time>2026-04-13T12:41:18.686Z</time></trkpt><trkpt lat="38.433921" lon="-1.2490211"><ele>515.0</ele><time>2026-04-13T12:41:19.686Z</time></trkpt><trkpt lat="38.4339105" lon="-1.2489076"><ele>515.0</ele><time>2026-04-13T12:41:20.686Z</time></trkpt><trkpt lat="38.4338533" lon="-1.2488045"><ele>515.0</ele><time>2026-04-13T12:41:21.686Z</time></trkpt><trkpt lat="38.4337697" lon="-1.248712"><ele>515.0</ele><time>2026-04-13T12:41:22.686Z</time></trkpt><trkpt lat="38.4336665" lon="-1.2486353"><ele>515.5</ele><time>2026-04-13T12:41:23.686Z</time></trkpt><trkpt lat="38.4335447" lon="-1.2485582"><ele>516.0</ele><time>2026-04-13T12:41:24.686Z</time></trkpt><trkpt lat="38.4334162" lon="-1.2484786"><ele>516.5</ele><time>2026-04-13T12:41:25.686Z</time></trkpt><trkpt lat="38.4332871" lon="-1.2483867"><ele>517.0</ele><time>2026-04-13T12:41:26.686Z</time></trkpt><trkpt lat="38.4331571" lon="-1.2482757"><ele>517.0</ele><time>2026-04-13T12:41:27.686Z</time></trkpt><trkpt lat="38.4330325" lon="-1.248133"><ele>517.0</ele><time>2026-04-13T12:41:28.686Z</time></trkpt><trkpt lat="38.4329179" lon="-1.2479613"><ele>517.0</ele><time>2026-04-13T12:41:29.686Z</time></trkpt><trkpt lat="38.4328041" lon="-1.2477772"><ele>516.6666666666667</ele><time>2026-04-13T12:41:30.686Z</time></trkpt><trkpt lat="38.4326877" lon="-1.2475964"><ele>516.3333333333334</ele><time>2026-04-13T12:41:31.686Z</time></trkpt><trkpt lat="38.4325625" lon="-1.2474074"><ele>516.0</ele><time>2026-04-13T12:41:32.686Z</time></trkpt><trkpt lat="38.4324325" lon="-1.2472184"><ele>515.0</ele><time>2026-04-13T12:41:33.686Z</time></trkpt><trkpt lat="38.4322954" lon="-1.2470329"><ele>514.0</ele><time>2026-04-13T12:41:34.686Z</time></trkpt><trkpt lat="38.4321496" lon="-1.2468486"><ele>513.0</ele><time>2026-04-13T12:41:35.686Z</time></trkpt><trkpt lat="38.4319983" lon="-1.2466709"><ele>513.0</ele><time>2026-04-13T12:41:36.686Z</time></trkpt><trkpt lat="38.4318387" lon="-1.2464859"><ele>513.0</ele><time>2026-04-13T12:41:37.686Z</time></trkpt><trkpt lat="38.4316785" lon="-1.2463099"><ele>513.0</ele><time>2026-04-13T12:41:38.686Z</time></trkpt><trkpt lat="38.4315195" lon="-1.2461376"><ele>512.6666666666666</ele><time>2026-04-13T12:41:39.686Z</time></trkpt><trkpt lat="38.4313584" lon="-1.2459582"><ele>512.3333333333333</ele><time>2026-04-13T12:41:40.686Z</time></trkpt><trkpt lat="38.431193" lon="-1.2457739"><ele>512.0</ele><time>2026-04-13T12:41:41.686Z</time></trkpt><trkpt lat="38.4310262" lon="-1.2455891"><ele>511.3333333333333</ele><time>2026-04-13T12:41:42.686Z</time></trkpt><trkpt lat="38.4308709" lon="-1.245414"><ele>510.66666666666663</ele><time>2026-04-13T12:41:43.686Z</time></trkpt><trkpt lat="38.4307185" lon="-1.2452252"><ele>510.0</ele><time>2026-04-13T12:41:44.686Z</time></trkpt><trkpt lat="38.4305716" lon="-1.2450166"><ele>509.33333333333337</ele><time>2026-04-13T12:41:45.686Z</time></trkpt><trkpt lat="38.4304358" lon="-1.244788"><ele>508.6666666666667</ele><time>2026-04-13T12:41:46.686Z</time></trkpt><trkpt lat="38.4303081" lon="-1.2445559"><ele>508.0</ele><time>2026-04-13T12:41:47.686Z</time></trkpt><trkpt lat="38.4301897" lon="-1.2443095"><ele>508.0</ele><time>2026-04-13T12:41:48.686Z</time></trkpt><trkpt lat="38.4300519" lon="-1.2440645"><ele>508.0</ele><time>2026-04-13T12:41:49.686Z</time></trkpt><trkpt lat="38.4299014" lon="-1.2438222"><ele>507.5</ele><time>2026-04-13T12:41:50.686Z</time></trkpt><trkpt lat="38.4297355" lon="-1.2435985"><ele>507.0</ele><time>2026-04-13T12:41:51.686Z</time></trkpt><trkpt lat="38.4295529" lon="-1.2433714"><ele>507.0</ele><time>2026-04-13T12:41:52.686Z</time></trkpt><trkpt lat="38.4293724" lon="-1.2431386"><ele>507.0</ele><time>2026-04-13T12:41:53.686Z</time></trkpt><trkpt lat="38.4291857" lon="-1.2429092"><ele>504.5</ele><time>2026-04-13T12:41:54.686Z</time></trkpt><trkpt lat="38.4290019" lon="-1.2426846"><ele>502.0</ele><time>2026-04-13T12:41:55.686Z</time></trkpt><trkpt lat="38.4288234" lon="-1.2424597"><ele>498.0</ele><time>2026-04-13T12:41:56.686Z</time></trkpt><trkpt lat="38.4286472" lon="-1.2422294"><ele>494.0</ele><time>2026-04-13T12:41:57.686Z</time></trkpt><trkpt lat="38.4284709" lon="-1.2419952"><ele>494.0</ele><time>2026-04-13T12:41:58.686Z</time></trkpt><trkpt lat="38.4282951" lon="-1.241758"><ele>494.0</ele><time>2026-04-13T12:41:59.686Z</time></trkpt><trkpt lat="38.4281254" lon="-1.2415051"><ele>493.5</ele><time>2026-04-13T12:42:00.686Z</time></trkpt><trkpt lat="38.427959" lon="-1.2412514"><ele>493.0</ele><time>2026-04-13T12:42:01.686Z</time></trkpt><trkpt lat="38.4277934" lon="-1.2409993"><ele>493.0</ele><time>2026-04-13T12:42:02.686Z</time></trkpt><trkpt lat="38.4276296" lon="-1.2407401"><ele>493.0</ele><time>2026-04-13T12:42:03.686Z</time></trkpt><trkpt lat="38.4274685" lon="-1.2404834"><ele>489.5</ele><time>2026-04-13T12:42:04.686Z</time></trkpt><trkpt lat="38.4273087" lon="-1.2402237"><ele>486.0</ele><time>2026-04-13T12:42:05.686Z</time></trkpt><trkpt lat="38.4271527" lon="-1.2399608"><ele>487.0</ele><time>2026-04-13T12:42:06.686Z</time></trkpt><trkpt lat="38.4270262" lon="-1.2397306"><ele>488.0</ele><time>2026-04-13T12:42:07.686Z</time></trkpt><trkpt lat="38.4268938" lon="-1.2394931"><ele>489.0</ele><time>2026-04-13T12:42:08.687Z</time></trkpt><trkpt lat="38.4267573" lon="-1.2392546"><ele>489.0</ele><time>2026-04-13T12:42:09.686Z</time></trkpt><trkpt lat="38.4266231" lon="-1.2390297"><ele>489.0</ele><time>2026-04-13T12:42:10.686Z</time></trkpt><trkpt lat="38.4264776" lon="-1.2388089"><ele>489.0</ele><time>2026-04-13T12:42:11.686Z</time></trkpt><trkpt lat="38.426323" lon="-1.2386095"><ele>487.33333333333337</ele><time>2026-04-13T12:42:12.686Z</time></trkpt><trkpt lat="38.4261524" lon="-1.2384168"><ele>485.6666666666667</ele><time>2026-04-13T12:42:13.686Z</time></trkpt><trkpt lat="38.4259757" lon="-1.2382515"><ele>484.0</ele><time>2026-04-13T12:42:14.686Z</time></trkpt><trkpt lat="38.4257763" lon="-1.2381317"><ele>484.0</ele><time>2026-04-13T12:42:15.686Z</time></trkpt><trkpt lat="38.4255693" lon="-1.238034"><ele>484.0</ele><time>2026-04-13T12:42:16.686Z</time></trkpt><trkpt lat="38.4253516" lon="-1.2379642"><ele>484.0</ele><time>2026-04-13T12:42:17.686Z</time></trkpt><trkpt lat="38.4251292" lon="-1.2379152"><ele>482.6666666666667</ele><time>2026-04-13T12:42:18.686Z</time></trkpt><trkpt lat="38.4249047" lon="-1.237892"><ele>481.33333333333337</ele><time>2026-04-13T12:42:19.686Z</time></trkpt><trkpt lat="38.4246809" lon="-1.2379045"><ele>480.0</ele><time>2026-04-13T12:42:20.686Z</time></trkpt><trkpt lat="38.4244629" lon="-1.2379521"><ele>480.0</ele><time>2026-04-13T12:42:21.686Z</time></trkpt><trkpt lat="38.4242443" lon="-1.2380071"><ele>480.0</ele><time>2026-04-13T12:42:22.686Z</time></trkpt><trkpt lat="38.4240243" lon="-1.2380514"><ele>480.0</ele><time>2026-04-13T12:42:23.686Z</time></trkpt><trkpt lat="38.4238012" lon="-1.2380744"><ele>481.66666666666663</ele><time>2026-04-13T12:42:24.686Z</time></trkpt><trkpt lat="38.4235801" lon="-1.2380721"><ele>483.3333333333333</ele><time>2026-04-13T12:42:25.686Z</time></trkpt><trkpt lat="38.4233618" lon="-1.2380375"><ele>485.0</ele><time>2026-04-13T12:42:26.686Z</time></trkpt><trkpt lat="38.4231427" lon="-1.2379826"><ele>484.3333333333333</ele><time>2026-04-13T12:42:27.686Z</time></trkpt><trkpt lat="38.4229373" lon="-1.2379089"><ele>483.66666666666663</ele><time>2026-04-13T12:42:28.686Z</time></trkpt><trkpt lat="38.4227315" lon="-1.2378431"><ele>483.0</ele><time>2026-04-13T12:42:29.686Z</time></trkpt><trkpt lat="38.4225287" lon="-1.2377881"><ele>483.0</ele><time>2026-04-13T12:42:30.686Z</time></trkpt><trkpt lat="38.4223167" lon="-1.2377545"><ele>483.0</ele><time>2026-04-13T12:42:31.686Z</time></trkpt><trkpt lat="38.4221016" lon="-1.2377488"><ele>483.0</ele><time>2026-04-13T12:42:32.686Z</time></trkpt><trkpt lat="38.4218822" lon="-1.237749"><ele>482.33333333333337</ele><time>2026-04-13T12:42:33.686Z</time></trkpt><trkpt lat="38.4216568" lon="-1.2377503"><ele>481.6666666666667</ele><time>2026-04-13T12:42:34.686Z</time></trkpt><trkpt lat="38.4214347" lon="-1.2377359"><ele>481.0</ele><time>2026-04-13T12:42:35.686Z</time></trkpt><trkpt lat="38.4212143" lon="-1.2377086"><ele>481.0</ele><time>2026-04-13T12:42:36.686Z</time></trkpt><trkpt lat="38.4209924" lon="-1.2376792"><ele>481.0</ele><time>2026-04-13T12:42:37.686Z</time></trkpt><trkpt lat="38.4207781" lon="-1.2376479"><ele>481.0</ele><time>2026-04-13T12:42:38.686Z</time></trkpt><trkpt lat="38.4205693" lon="-1.2376129"><ele>480.0</ele><time>2026-04-13T12:42:39.686Z</time></trkpt><trkpt lat="38.4203648" lon="-1.2375751"><ele>479.0</ele><time>2026-04-13T12:42:40.686Z</time></trkpt><trkpt lat="38.4201744" lon="-1.2375448"><ele>478.0</ele><time>2026-04-13T12:42:41.686Z</time></trkpt><trkpt lat="38.4199759" lon="-1.2375083"><ele>478.0</ele><time>2026-04-13T12:42:42.686Z</time></trkpt><trkpt lat="38.4197954" lon="-1.2374448"><ele>478.0</ele><time>2026-04-13T12:42:43.686Z</time></trkpt><trkpt lat="38.4196177" lon="-1.2373545"><ele>478.0</ele><time>2026-04-13T12:42:44.686Z</time></trkpt><trkpt lat="38.4194527" lon="-1.237227"><ele>477.33333333333337</ele><time>2026-04-13T12:42:45.687Z</time></trkpt><trkpt lat="38.4193014" lon="-1.2370819"><ele>476.66666666666663</ele><time>2026-04-13T12:42:46.686Z</time></trkpt><trkpt lat="38.4191564" lon="-1.236922"><ele>476.0</ele><time>2026-04-13T12:42:47.686Z</time></trkpt><trkpt lat="38.4190171" lon="-1.2367533"><ele>476.0</ele><time>2026-04-13T12:42:48.686Z</time></trkpt><trkpt lat="38.4188797" lon="-1.2365777"><ele>476.0</ele><time>2026-04-13T12:42:49.686Z</time></trkpt><trkpt lat="38.4187394" lon="-1.2364039"><ele>476.0</ele><time>2026-04-13T12:42:50.686Z</time></trkpt><trkpt lat="38.4186017" lon="-1.2362459"><ele>473.66666666666663</ele><time>2026-04-13T12:42:51.687Z</time></trkpt><trkpt lat="38.4184488" lon="-1.2360989"><ele>471.33333333333337</ele><time>2026-04-13T12:42:52.686Z</time></trkpt><trkpt lat="38.418287" lon="-1.2359723"><ele>469.0</ele><time>2026-04-13T12:42:53.686Z</time></trkpt><trkpt lat="38.4181133" lon="-1.2358612"><ele>468.33333333333337</ele><time>2026-04-13T12:42:54.686Z</time></trkpt><trkpt lat="38.4179337" lon="-1.2357668"><ele>467.66666666666663</ele><time>2026-04-13T12:42:55.686Z</time></trkpt><trkpt lat="38.4177514" lon="-1.2356769"><ele>467.0</ele><time>2026-04-13T12:42:56.686Z</time></trkpt><trkpt lat="38.4175695" lon="-1.2355846"><ele>465.66666666666663</ele><time>2026-04-13T12:42:57.686Z</time></trkpt><trkpt lat="38.417392" lon="-1.2354965"><ele>464.33333333333337</ele><time>2026-04-13T12:42:58.686Z</time></trkpt><trkpt lat="38.4172184" lon="-1.2354167"><ele>463.0</ele><time>2026-04-13T12:42:59.686Z</time></trkpt><trkpt lat="38.4170426" lon="-1.235336"><ele>462.0</ele><time>2026-04-13T12:43:00.686Z</time></trkpt><trkpt lat="38.4168614" lon="-1.2352594"><ele>461.0</ele><time>2026-04-13T12:43:01.687Z</time></trkpt><trkpt lat="38.4166796" lon="-1.2351997"><ele>460.0</ele><time>2026-04-13T12:43:02.686Z</time></trkpt><trkpt lat="38.416493" lon="-1.2351627"><ele>458.33333333333337</ele><time>2026-04-13T12:43:03.686Z</time></trkpt><trkpt lat="38.4163084" lon="-1.2351629"><ele>456.66666666666663</ele><time>2026-04-13T12:43:04.686Z</time></trkpt><trkpt lat="38.4161345" lon="-1.2352004"><ele>455.0</ele><time>2026-04-13T12:43:05.686Z</time></trkpt><trkpt lat="38.4159718" lon="-1.2352691"><ele>455.0</ele><time>2026-04-13T12:43:06.686Z</time></trkpt><trkpt lat="38.4158198" lon="-1.2353485"><ele>455.0</ele><time>2026-04-13T12:43:07.686Z</time></trkpt><trkpt lat="38.415677" lon="-1.2354349"><ele>455.0</ele><time>2026-04-13T12:43:08.686Z</time></trkpt><trkpt lat="38.4155436" lon="-1.2355269"><ele>454.25</ele><time>2026-04-13T12:43:09.686Z</time></trkpt><trkpt lat="38.4154232" lon="-1.2356267"><ele>453.5</ele><time>2026-04-13T12:43:10.686Z</time></trkpt><trkpt lat="38.4153135" lon="-1.2357381"><ele>452.75</ele><time>2026-04-13T12:43:11.686Z</time></trkpt><trkpt lat="38.4152179" lon="-1.2358614"><ele>452.0</ele><time>2026-04-13T12:43:12.686Z</time></trkpt><trkpt lat="38.4151259" lon="-1.2359859"><ele>452.0</ele><time>2026-04-13T12:43:13.686Z</time></trkpt><trkpt lat="38.4150418" lon="-1.2361057"><ele>452.00000000000006</ele><time>2026-04-13T12:43:14.687Z</time></trkpt><trkpt lat="38.4149658" lon="-1.2362157"><ele>452.00000000000006</ele><time>2026-04-13T12:43:15.686Z</time></trkpt><trkpt lat="38.4148969" lon="-1.2363192"><ele>452.0</ele><time>2026-04-13T12:43:16.686Z</time></trkpt><trkpt lat="38.4148466" lon="-1.2364206"><ele>452.0</ele><time>2026-04-13T12:43:17.686Z</time></trkpt><trkpt lat="38.4148124" lon="-1.2365287"><ele>452.16666666666663</ele><time>2026-04-13T12:43:18.686Z</time></trkpt><trkpt lat="38.4147751" lon="-1.236636"><ele>452.3333333333333</ele><time>2026-04-13T12:43:19.686Z</time></trkpt><trkpt lat="38.4147254" lon="-1.2367216"><ele>452.5</ele><time>2026-04-13T12:43:20.686Z</time></trkpt><trkpt lat="38.4146501" lon="-1.2367926"><ele>452.66666666666663</ele><time>2026-04-13T12:43:21.686Z</time></trkpt><trkpt lat="38.4145639" lon="-1.2368182"><ele>452.8333333333333</ele><time>2026-04-13T12:43:22.686Z</time></trkpt><trkpt lat="38.4144841" lon="-1.2367943"><ele>453.0</ele><time>2026-04-13T12:43:23.686Z</time></trkpt><trkpt lat="38.4144125" lon="-1.2367389"><ele>453.0</ele><time>2026-04-13T12:43:24.686Z</time></trkpt><trkpt lat="38.4143698" lon="-1.2366478"><ele>453.0</ele><time>2026-04-13T12:43:25.686Z</time></trkpt><trkpt lat="38.4143608" lon="-1.2365323"><ele>453.0</ele><time>2026-04-13T12:43:26.686Z</time></trkpt><trkpt lat="38.4143792" lon="-1.236423"><ele>453.0</ele><time>2026-04-13T12:43:27.686Z</time></trkpt><trkpt lat="38.4144054" lon="-1.2363154"><ele>453.0</ele><time>2026-04-13T12:43:28.686Z</time></trkpt><trkpt lat="38.4144288" lon="-1.2362013"><ele>453.0</ele><time>2026-04-13T12:43:29.686Z</time></trkpt><trkpt lat="38.414421" lon="-1.2360731"><ele>452.0</ele><time>2026-04-13T12:43:30.686Z</time></trkpt><trkpt lat="38.4143875" lon="-1.2359431"><ele>451.0</ele><time>2026-04-13T12:43:31.686Z</time></trkpt><trkpt lat="38.4143505" lon="-1.2358205"><ele>450.0</ele><time>2026-04-13T12:43:32.686Z</time></trkpt><trkpt lat="38.4143035" lon="-1.2356563"><ele>449.0</ele><time>2026-04-13T12:43:33.686Z</time></trkpt><trkpt lat="38.4142614" lon="-1.235484"><ele>448.75</ele><time>2026-04-13T12:43:34.686Z</time></trkpt><trkpt lat="38.4142191" lon="-1.2353134"><ele>448.5</ele><time>2026-04-13T12:43:35.686Z</time></trkpt><trkpt lat="38.4141708" lon="-1.2351525"><ele>448.25</ele><time>2026-04-13T12:43:36.686Z</time></trkpt><trkpt lat="38.414122" lon="-1.2349794"><ele>448.0</ele><time>2026-04-13T12:43:37.686Z</time></trkpt><trkpt lat="38.4140663" lon="-1.2347841"><ele>448.0</ele><time>2026-04-13T12:43:38.686Z</time></trkpt><trkpt lat="38.4140108" lon="-1.2345987"><ele>448.0</ele><time>2026-04-13T12:43:39.686Z</time></trkpt><trkpt lat="38.4139358" lon="-1.2344052"><ele>448.0</ele><time>2026-04-13T12:43:40.686Z</time></trkpt><trkpt lat="38.413849" lon="-1.2342153"><ele>448.0</ele><time>2026-04-13T12:43:41.686Z</time></trkpt><trkpt lat="38.4137391" lon="-1.2340275"><ele>448.0</ele><time>2026-04-13T12:43:42.686Z</time></trkpt><trkpt lat="38.4136165" lon="-1.2338414"><ele>448.0</ele><time>2026-04-13T12:43:43.686Z</time></trkpt><trkpt lat="38.4134733" lon="-1.2336646"><ele>448.0</ele><time>2026-04-13T12:43:44.686Z</time></trkpt><trkpt lat="38.4133124" lon="-1.2335008"><ele>448.0</ele><time>2026-04-13T12:43:45.686Z</time></trkpt><trkpt lat="38.4131435" lon="-1.2333291"><ele>448.0</ele><time>2026-04-13T12:43:46.686Z</time></trkpt><trkpt lat="38.4129728" lon="-1.2331632"><ele>446.6666666666667</ele><time>2026-04-13T12:43:47.687Z</time></trkpt><trkpt lat="38.4128001" lon="-1.2329918"><ele>445.33333333333337</ele><time>2026-04-13T12:43:48.686Z</time></trkpt><trkpt lat="38.4126264" lon="-1.2328183"><ele>444.0</ele><time>2026-04-13T12:43:49.686Z</time></trkpt><trkpt lat="38.4124474" lon="-1.2326432"><ele>444.0</ele><time>2026-04-13T12:43:50.686Z</time></trkpt><trkpt lat="38.4122656" lon="-1.2324648"><ele>444.0</ele><time>2026-04-13T12:43:51.687Z</time></trkpt><trkpt lat="38.4120798" lon="-1.2322839"><ele>444.0</ele><time>2026-04-13T12:43:52.686Z</time></trkpt><trkpt lat="38.4118912" lon="-1.2320997"><ele>444.0</ele><time>2026-04-13T12:43:53.686Z</time></trkpt><trkpt lat="38.4117025" lon="-1.2319086"><ele>444.0</ele><time>2026-04-13T12:43:54.686Z</time></trkpt><trkpt lat="38.4115079" lon="-1.23172"><ele>444.0</ele><time>2026-04-13T12:43:55.686Z</time></trkpt><trkpt lat="38.4113118" lon="-1.2315275"><ele>443.0</ele><time>2026-04-13T12:43:56.686Z</time></trkpt><trkpt lat="38.4111124" lon="-1.2313367"><ele>442.0</ele><time>2026-04-13T12:43:57.686Z</time></trkpt><trkpt lat="38.4109136" lon="-1.231142"><ele>442.0</ele><time>2026-04-13T12:43:58.686Z</time></trkpt><trkpt lat="38.4107134" lon="-1.2309477"><ele>442.0</ele><time>2026-04-13T12:43:59.687Z</time></trkpt><trkpt lat="38.4105122" lon="-1.2307488"><ele>441.5</ele><time>2026-04-13T12:44:00.687Z</time></trkpt><trkpt lat="38.4103072" lon="-1.2305447"><ele>441.0</ele><time>2026-04-13T12:44:01.686Z</time></trkpt><trkpt lat="38.4100981" lon="-1.2303379"><ele>441.0</ele><time>2026-04-13T12:44:02.686Z</time></trkpt><trkpt lat="38.4098863" lon="-1.2301251"><ele>441.0</ele><time>2026-04-13T12:44:03.686Z</time></trkpt><trkpt lat="38.4096747" lon="-1.2299141"><ele>440.0</ele><time>2026-04-13T12:44:04.686Z</time></trkpt><trkpt lat="38.4094591" lon="-1.229708"><ele>439.0</ele><time>2026-04-13T12:44:05.686Z</time></trkpt><trkpt lat="38.4092478" lon="-1.2295073"><ele>439.0</ele><time>2026-04-13T12:44:06.686Z</time></trkpt><trkpt lat="38.409038" lon="-1.2293038"><ele>439.0</ele><time>2026-04-13T12:44:07.686Z</time></trkpt><trkpt lat="38.4088244" lon="-1.2290993"><ele>438.5</ele><time>2026-04-13T12:44:08.686Z</time></trkpt><trkpt lat="38.4086126" lon="-1.2288906"><ele>438.0</ele><time>2026-04-13T12:44:09.686Z</time></trkpt><trkpt lat="38.4084016" lon="-1.2286797"><ele>438.0</ele><time>2026-04-13T12:44:10.686Z</time></trkpt><trkpt lat="38.4081892" lon="-1.2284707"><ele>438.0</ele><time>2026-04-13T12:44:11.686Z</time></trkpt><trkpt lat="38.407977" lon="-1.2282609"><ele>437.0</ele><time>2026-04-13T12:44:12.687Z</time></trkpt><trkpt lat="38.4077631" lon="-1.2280514"><ele>436.0</ele><time>2026-04-13T12:44:13.686Z</time></trkpt><trkpt lat="38.4075473" lon="-1.2278392"><ele>436.0</ele><time>2026-04-13T12:44:14.686Z</time></trkpt><trkpt lat="38.4073297" lon="-1.2276266"><ele>436.0</ele><time>2026-04-13T12:44:15.686Z</time></trkpt><trkpt lat="38.4071113" lon="-1.2274107"><ele>435.5</ele><time>2026-04-13T12:44:16.686Z</time></trkpt><trkpt lat="38.4068917" lon="-1.2271962"><ele>435.0</ele><time>2026-04-13T12:44:17.686Z</time></trkpt><trkpt lat="38.4066701" lon="-1.2269805"><ele>435.0</ele><time>2026-04-13T12:44:18.686Z</time></trkpt><trkpt lat="38.4064479" lon="-1.2267607"><ele>435.0</ele><time>2026-04-13T12:44:19.686Z</time></trkpt><trkpt lat="38.4062254" lon="-1.2265442"><ele>434.5</ele><time>2026-04-13T12:44:20.686Z</time></trkpt><trkpt lat="38.406004" lon="-1.2263263"><ele>434.0</ele><time>2026-04-13T12:44:21.686Z</time></trkpt><trkpt lat="38.4057821" lon="-1.2261111"><ele>434.0</ele><time>2026-04-13T12:44:22.686Z</time></trkpt><trkpt lat="38.4055592" lon="-1.2258914"><ele>434.0</ele><time>2026-04-13T12:44:23.686Z</time></trkpt><trkpt lat="38.4053372" lon="-1.2256744"><ele>434.0</ele><time>2026-04-13T12:44:24.686Z</time></trkpt><trkpt lat="38.4051136" lon="-1.2254573"><ele>434.0</ele><time>2026-04-13T12:44:25.686Z</time></trkpt><trkpt lat="38.4048956" lon="-1.2252417"><ele>434.0</ele><time>2026-04-13T12:44:26.686Z</time></trkpt><trkpt lat="38.4046776" lon="-1.2250296"><ele>434.0</ele><time>2026-04-13T12:44:27.686Z</time></trkpt><trkpt lat="38.4044611" lon="-1.2248179"><ele>433.5</ele><time>2026-04-13T12:44:28.686Z</time></trkpt><trkpt lat="38.4042466" lon="-1.2246052"><ele>433.0</ele><time>2026-04-13T12:44:29.686Z</time></trkpt><trkpt lat="38.4040336" lon="-1.224394"><ele>432.0</ele><time>2026-04-13T12:44:30.686Z</time></trkpt><trkpt lat="38.4038239" lon="-1.2241892"><ele>431.0</ele><time>2026-04-13T12:44:31.686Z</time></trkpt><trkpt lat="38.4036133" lon="-1.223987"><ele>431.0</ele><time>2026-04-13T12:44:32.686Z</time></trkpt><trkpt lat="38.4034051" lon="-1.2237813"><ele>431.0</ele><time>2026-04-13T12:44:33.686Z</time></trkpt><trkpt lat="38.4031952" lon="-1.2235742"><ele>430.5</ele><time>2026-04-13T12:44:34.686Z</time></trkpt><trkpt lat="38.4029885" lon="-1.2233711"><ele>430.0</ele><time>2026-04-13T12:44:35.686Z</time></trkpt><trkpt lat="38.4027788" lon="-1.2231669"><ele>431.0</ele><time>2026-04-13T12:44:36.686Z</time></trkpt><trkpt lat="38.4025666" lon="-1.2229631"><ele>432.0</ele><time>2026-04-13T12:44:37.686Z</time></trkpt><trkpt lat="38.4023549" lon="-1.2227568"><ele>431.0</ele><time>2026-04-13T12:44:38.686Z</time></trkpt><trkpt lat="38.402139" lon="-1.2225451"><ele>430.0</ele><time>2026-04-13T12:44:39.686Z</time></trkpt><trkpt lat="38.4019262" lon="-1.2223336"><ele>430.5</ele><time>2026-04-13T12:44:40.686Z</time></trkpt><trkpt lat="38.4017076" lon="-1.2221195"><ele>431.0</ele><time>2026-04-13T12:44:41.686Z</time></trkpt><trkpt lat="38.4014877" lon="-1.221904"><ele>430.5</ele><time>2026-04-13T12:44:42.686Z</time></trkpt><trkpt lat="38.4012649" lon="-1.2216862"><ele>430.0</ele><time>2026-04-13T12:44:43.686Z</time></trkpt><trkpt lat="38.4010417" lon="-1.2214699"><ele>430.0</ele><time>2026-04-13T12:44:44.686Z</time></trkpt><trkpt lat="38.4008179" lon="-1.2212479"><ele>430.0</ele><time>2026-04-13T12:44:45.686Z</time></trkpt><trkpt lat="38.4005905" lon="-1.2210249"><ele>430.5</ele><time>2026-04-13T12:44:46.686Z</time></trkpt><trkpt lat="38.4003641" lon="-1.2208022"><ele>431.0</ele><time>2026-04-13T12:44:47.686Z</time></trkpt><trkpt lat="38.4001387" lon="-1.2205863"><ele>432.5</ele><time>2026-04-13T12:44:48.686Z</time></trkpt><trkpt lat="38.3999166" lon="-1.2203688"><ele>434.0</ele><time>2026-04-13T12:44:49.686Z</time></trkpt><trkpt lat="38.3996944" lon="-1.2201559"><ele>433.5</ele><time>2026-04-13T12:44:50.686Z</time></trkpt><trkpt lat="38.3994753" lon="-1.2199393"><ele>433.0</ele><time>2026-04-13T12:44:51.686Z</time></trkpt><trkpt lat="38.3992554" lon="-1.2197218"><ele>434.5</ele><time>2026-04-13T12:44:52.686Z</time></trkpt><trkpt lat="38.3990355" lon="-1.2195065"><ele>436.0</ele><time>2026-04-13T12:44:53.686Z</time></trkpt><trkpt lat="38.3988165" lon="-1.2192914"><ele>436.0</ele><time>2026-04-13T12:44:54.686Z</time></trkpt><trkpt lat="38.3985968" lon="-1.219078"><ele>436.0</ele><time>2026-04-13T12:44:55.686Z</time></trkpt><trkpt lat="38.3983769" lon="-1.2188686"><ele>438.0</ele><time>2026-04-13T12:44:56.686Z</time></trkpt><trkpt lat="38.3981612" lon="-1.2186595"><ele>440.0</ele><time>2026-04-13T12:44:57.686Z</time></trkpt><trkpt lat="38.3979488" lon="-1.2184481"><ele>440.5</ele><time>2026-04-13T12:44:58.686Z</time></trkpt><trkpt lat="38.3977373" lon="-1.2182351"><ele>441.0</ele><time>2026-04-13T12:44:59.686Z</time></trkpt><trkpt lat="38.3975238" lon="-1.2180267"><ele>442.5</ele><time>2026-04-13T12:45:00.686Z</time></trkpt><trkpt lat="38.3973098" lon="-1.2178167"><ele>444.0</ele><time>2026-04-13T12:45:01.687Z</time></trkpt><trkpt lat="38.3971022" lon="-1.2176101"><ele>444.5</ele><time>2026-04-13T12:45:02.686Z</time></trkpt><trkpt lat="38.396896" lon="-1.2174059"><ele>445.0</ele><time>2026-04-13T12:45:03.686Z</time></trkpt><trkpt lat="38.3966876" lon="-1.2172038"><ele>445.0</ele><time>2026-04-13T12:45:04.686Z</time></trkpt><trkpt lat="38.3964824" lon="-1.2170029"><ele>445.0</ele><time>2026-04-13T12:45:05.686Z</time></trkpt><trkpt lat="38.3962753" lon="-1.2167997"><ele>445.0</ele><time>2026-04-13T12:45:06.686Z</time></trkpt><trkpt lat="38.396069" lon="-1.2165966"><ele>445.0</ele><time>2026-04-13T12:45:07.686Z</time></trkpt><trkpt lat="38.3958624" lon="-1.2163957"><ele>447.0</ele><time>2026-04-13T12:45:08.686Z</time></trkpt><trkpt lat="38.3956552" lon="-1.2161928"><ele>449.0</ele><time>2026-04-13T12:45:09.686Z</time></trkpt><trkpt lat="38.3954461" lon="-1.2159912"><ele>449.0</ele><time>2026-04-13T12:45:10.686Z</time></trkpt><trkpt lat="38.395243" lon="-1.2157913"><ele>449.0</ele><time>2026-04-13T12:45:11.686Z</time></trkpt><trkpt lat="38.3950376" lon="-1.215588"><ele>451.0</ele><time>2026-04-13T12:45:12.686Z</time></trkpt><trkpt lat="38.3948381" lon="-1.2153907"><ele>453.0</ele><time>2026-04-13T12:45:13.686Z</time></trkpt><trkpt lat="38.3946343" lon="-1.2151927"><ele>453.5</ele><time>2026-04-13T12:45:14.686Z</time></trkpt><trkpt lat="38.3944348" lon="-1.2149975"><ele>454.0</ele><time>2026-04-13T12:45:15.686Z</time></trkpt><trkpt lat="38.3942356" lon="-1.2148035"><ele>456.0</ele><time>2026-04-13T12:45:16.686Z</time></trkpt><trkpt lat="38.3940393" lon="-1.2146103"><ele>458.0</ele><time>2026-04-13T12:45:17.686Z</time></trkpt><trkpt lat="38.3938438" lon="-1.2144181"><ele>458.0</ele><time>2026-04-13T12:45:18.686Z</time></trkpt><trkpt lat="38.3936516" lon="-1.2142266"><ele>458.0</ele><time>2026-04-13T12:45:19.686Z</time></trkpt><trkpt lat="38.3934589" lon="-1.2140344"><ele>460.0</ele><time>2026-04-13T12:45:20.686Z</time></trkpt><trkpt lat="38.3932636" lon="-1.2138421"><ele>462.0</ele><time>2026-04-13T12:45:21.686Z</time></trkpt><trkpt lat="38.3930675" lon="-1.2136489"><ele>463.0</ele><time>2026-04-13T12:45:22.686Z</time></trkpt><trkpt lat="38.3928685" lon="-1.2134574"><ele>464.0</ele><time>2026-04-13T12:45:23.686Z</time></trkpt><trkpt lat="38.392678" lon="-1.2132738"><ele>465.5</ele><time>2026-04-13T12:45:24.686Z</time></trkpt><trkpt lat="38.3924864" lon="-1.2130872"><ele>467.0</ele><time>2026-04-13T12:45:25.686Z</time></trkpt><trkpt lat="38.3922937" lon="-1.2128998"><ele>468.0</ele><time>2026-04-13T12:45:26.686Z</time></trkpt><trkpt lat="38.3921135" lon="-1.2127065"><ele>469.0</ele><time>2026-04-13T12:45:27.686Z</time></trkpt><trkpt lat="38.3919429" lon="-1.2124968"><ele>470.5</ele><time>2026-04-13T12:45:28.686Z</time></trkpt><trkpt lat="38.3917921" lon="-1.2122637"><ele>472.0</ele><time>2026-04-13T12:45:29.686Z</time></trkpt><trkpt lat="38.3916614" lon="-1.2120095"><ele>472.0</ele><time>2026-04-13T12:45:30.686Z</time></trkpt><trkpt lat="38.3915436" lon="-1.2117443"><ele>472.0</ele><time>2026-04-13T12:45:31.686Z</time></trkpt><trkpt lat="38.3914309" lon="-1.21147"><ele>473.5</ele><time>2026-04-13T12:45:32.686Z</time></trkpt><trkpt lat="38.3913199" lon="-1.2111899"><ele>475.0</ele><time>2026-04-13T12:45:33.686Z</time></trkpt><trkpt lat="38.3912074" lon="-1.210908"><ele>477.0</ele><time>2026-04-13T12:45:34.686Z</time></trkpt><trkpt lat="38.3910944" lon="-1.2106224"><ele>479.0</ele><time>2026-04-13T12:45:35.686Z</time></trkpt><trkpt lat="38.3909834" lon="-1.2103378"><ele>479.0</ele><time>2026-04-13T12:45:36.686Z</time></trkpt><trkpt lat="38.3908684" lon="-1.2100546"><ele>479.0</ele><time>2026-04-13T12:45:37.686Z</time></trkpt><trkpt lat="38.3907533" lon="-1.2097694"><ele>480.0</ele><time>2026-04-13T12:45:38.686Z</time></trkpt><trkpt lat="38.3906471" lon="-1.2094812"><ele>481.0</ele><time>2026-04-13T12:45:39.686Z</time></trkpt><trkpt lat="38.3905576" lon="-1.2091901"><ele>481.5</ele><time>2026-04-13T12:45:40.686Z</time></trkpt><trkpt lat="38.3904946" lon="-1.2088813"><ele>482.0</ele><time>2026-04-13T12:45:41.686Z</time></trkpt><trkpt lat="38.3904465" lon="-1.2085657"><ele>482.0</ele><time>2026-04-13T12:45:42.686Z</time></trkpt><trkpt lat="38.3904127" lon="-1.208262"><ele>482.0</ele><time>2026-04-13T12:45:43.686Z</time></trkpt><trkpt lat="38.3903831" lon="-1.2079328"><ele>482.0</ele><time>2026-04-13T12:45:44.686Z</time></trkpt><trkpt lat="38.3903588" lon="-1.2076295"><ele>482.0</ele><time>2026-04-13T12:45:45.686Z</time></trkpt><trkpt lat="38.3903336" lon="-1.2073235"><ele>483.0</ele><time>2026-04-13T12:45:46.687Z</time></trkpt><trkpt lat="38.3903088" lon="-1.2070161"><ele>484.0</ele><time>2026-04-13T12:45:47.686Z</time></trkpt><trkpt lat="38.3902829" lon="-1.2067128"><ele>484.5</ele><time>2026-04-13T12:45:48.686Z</time></trkpt><trkpt lat="38.390255" lon="-1.2064123"><ele>485.0</ele><time>2026-04-13T12:45:49.686Z</time></trkpt><trkpt lat="38.3902289" lon="-1.2061188"><ele>485.0</ele><time>2026-04-13T12:45:50.686Z</time></trkpt><trkpt lat="38.3902" lon="-1.2058171"><ele>485.0</ele><time>2026-04-13T12:45:51.686Z</time></trkpt><trkpt lat="38.390173" lon="-1.2055201"><ele>485.5</ele><time>2026-04-13T12:45:52.686Z</time></trkpt><trkpt lat="38.3901458" lon="-1.2052225"><ele>486.0</ele><time>2026-04-13T12:45:53.686Z</time></trkpt><trkpt lat="38.3901173" lon="-1.2049239"><ele>488.5</ele><time>2026-04-13T12:45:54.686Z</time></trkpt><trkpt lat="38.3900988" lon="-1.2046243"><ele>491.0</ele><time>2026-04-13T12:45:55.686Z</time></trkpt><trkpt lat="38.3900999" lon="-1.2043232"><ele>491.0</ele><time>2026-04-13T12:45:56.686Z</time></trkpt><trkpt lat="38.3901209" lon="-1.2040165"><ele>491.0</ele><time>2026-04-13T12:45:57.686Z</time></trkpt><trkpt lat="38.3901475" lon="-1.2037062"><ele>493.0</ele><time>2026-04-13T12:45:58.686Z</time></trkpt><trkpt lat="38.3901652" lon="-1.2033969"><ele>495.0</ele><time>2026-04-13T12:45:59.686Z</time></trkpt><trkpt lat="38.3901666" lon="-1.2030925"><ele>497.0</ele><time>2026-04-13T12:46:00.686Z</time></trkpt><trkpt lat="38.390135" lon="-1.2028081"><ele>499.0</ele><time>2026-04-13T12:46:01.686Z</time></trkpt><trkpt lat="38.3900679" lon="-1.2025156"><ele>501.0</ele><time>2026-04-13T12:46:02.686Z</time></trkpt><trkpt lat="38.389968" lon="-1.2022379"><ele>503.0</ele><time>2026-04-13T12:46:03.686Z</time></trkpt><trkpt lat="38.3898466" lon="-1.2019623"><ele>503.0</ele><time>2026-04-13T12:46:04.686Z</time></trkpt><trkpt lat="38.3897154" lon="-1.2016944"><ele>503.0</ele><time>2026-04-13T12:46:05.686Z</time></trkpt><trkpt lat="38.3895793" lon="-1.2014289"><ele>504.5</ele><time>2026-04-13T12:46:06.687Z</time></trkpt><trkpt lat="38.3894403" lon="-1.2011703"><ele>506.0</ele><time>2026-04-13T12:46:07.686Z</time></trkpt><trkpt lat="38.3892969" lon="-1.2009148"><ele>508.5</ele><time>2026-04-13T12:46:08.686Z</time></trkpt><trkpt lat="38.3891579" lon="-1.2006606"><ele>511.0</ele><time>2026-04-13T12:46:09.686Z</time></trkpt><trkpt lat="38.3890203" lon="-1.2004"><ele>511.0</ele><time>2026-04-13T12:46:10.687Z</time></trkpt><trkpt lat="38.3888787" lon="-1.2001305"><ele>511.0</ele><time>2026-04-13T12:46:11.686Z</time></trkpt><trkpt lat="38.3887414" lon="-1.1998673"><ele>510.5</ele><time>2026-04-13T12:46:12.686Z</time></trkpt><trkpt lat="38.3886134" lon="-1.1996048"><ele>510.0</ele><time>2026-04-13T12:46:13.686Z</time></trkpt><trkpt lat="38.3884845" lon="-1.1993335"><ele>510.0</ele><time>2026-04-13T12:46:14.686Z</time></trkpt><trkpt lat="38.3883527" lon="-1.1990589"><ele>510.0</ele><time>2026-04-13T12:46:15.686Z</time></trkpt><trkpt lat="38.3882212" lon="-1.19879"><ele>513.5</ele><time>2026-04-13T12:46:16.686Z</time></trkpt><trkpt lat="38.3880909" lon="-1.1985214"><ele>517.0</ele><time>2026-04-13T12:46:17.686Z</time></trkpt><trkpt lat="38.3879623" lon="-1.1982658"><ele>519.5</ele><time>2026-04-13T12:46:18.686Z</time></trkpt><trkpt lat="38.3878365" lon="-1.1980145"><ele>522.0</ele><time>2026-04-13T12:46:19.686Z</time></trkpt><trkpt lat="38.3877177" lon="-1.1977711"><ele>522.0</ele><time>2026-04-13T12:46:20.686Z</time></trkpt><trkpt lat="38.387612" lon="-1.1975231"><ele>522.0</ele><time>2026-04-13T12:46:21.686Z</time></trkpt><trkpt lat="38.3875237" lon="-1.1972614"><ele>522.0</ele><time>2026-04-13T12:46:22.686Z</time></trkpt><trkpt lat="38.3874575" lon="-1.1969905"><ele>523.3333333333334</ele><time>2026-04-13T12:46:23.686Z</time></trkpt><trkpt lat="38.3874103" lon="-1.1967143"><ele>524.6666666666667</ele><time>2026-04-13T12:46:24.686Z</time></trkpt><trkpt lat="38.3873915" lon="-1.1964354"><ele>526.0</ele><time>2026-04-13T12:46:25.686Z</time></trkpt><trkpt lat="38.3873876" lon="-1.1961543"><ele>526.0</ele><time>2026-04-13T12:46:26.686Z</time></trkpt><trkpt lat="38.3874088" lon="-1.1958724"><ele>526.0</ele><time>2026-04-13T12:46:27.686Z</time></trkpt><trkpt lat="38.3874505" lon="-1.1955878"><ele>526.0</ele><time>2026-04-13T12:46:28.686Z</time></trkpt><trkpt lat="38.387508" lon="-1.1953133"><ele>526.0</ele><time>2026-04-13T12:46:29.686Z</time></trkpt><trkpt lat="38.3875728" lon="-1.1950363"><ele>526.0</ele><time>2026-04-13T12:46:30.686Z</time></trkpt><trkpt lat="38.3876434" lon="-1.1947587"><ele>526.0</ele><time>2026-04-13T12:46:31.686Z</time></trkpt><trkpt lat="38.3877234" lon="-1.1944803"><ele>526.0</ele><time>2026-04-13T12:46:32.686Z</time></trkpt><trkpt lat="38.3877951" lon="-1.1941961"><ele>528.0</ele><time>2026-04-13T12:46:33.686Z</time></trkpt><trkpt lat="38.3878701" lon="-1.1939113"><ele>530.0</ele><time>2026-04-13T12:46:34.686Z</time></trkpt><trkpt lat="38.3879419" lon="-1.193636"><ele>531.5</ele><time>2026-04-13T12:46:35.686Z</time></trkpt><trkpt lat="38.3880178" lon="-1.1933608"><ele>533.0</ele><time>2026-04-13T12:46:36.686Z</time></trkpt><trkpt lat="38.3880834" lon="-1.1930875"><ele>534.0</ele><time>2026-04-13T12:46:37.686Z</time></trkpt><trkpt lat="38.3881308" lon="-1.1928045"><ele>535.0</ele><time>2026-04-13T12:46:38.686Z</time></trkpt><trkpt lat="38.3881523" lon="-1.1925106"><ele>536.0</ele><time>2026-04-13T12:46:39.686Z</time></trkpt><trkpt lat="38.388161" lon="-1.192211"><ele>537.0</ele><time>2026-04-13T12:46:40.686Z</time></trkpt><trkpt lat="38.3881665" lon="-1.1919091"><ele>537.0</ele><time>2026-04-13T12:46:41.686Z</time></trkpt><trkpt lat="38.3881718" lon="-1.1916125"><ele>537.0</ele><time>2026-04-13T12:46:42.686Z</time></trkpt><trkpt lat="38.3881758" lon="-1.191323"><ele>538.5</ele><time>2026-04-13T12:46:43.686Z</time></trkpt><trkpt lat="38.3881815" lon="-1.1910349"><ele>540.0</ele><time>2026-04-13T12:46:44.687Z</time></trkpt><trkpt lat="38.3881842" lon="-1.1907473"><ele>540.0</ele><time>2026-04-13T12:46:45.686Z</time></trkpt><trkpt lat="38.3881901" lon="-1.1904596"><ele>540.0</ele><time>2026-04-13T12:46:46.686Z</time></trkpt><trkpt lat="38.3881931" lon="-1.1901703"><ele>540.0</ele><time>2026-04-13T12:46:47.686Z</time></trkpt><trkpt lat="38.388196" lon="-1.1898785"><ele>540.0</ele><time>2026-04-13T12:46:48.686Z</time></trkpt><trkpt lat="38.3882001" lon="-1.1895806"><ele>541.5</ele><time>2026-04-13T12:46:49.686Z</time></trkpt><trkpt lat="38.3882074" lon="-1.1892843"><ele>543.0</ele><time>2026-04-13T12:46:50.686Z</time></trkpt><trkpt lat="38.3882125" lon="-1.1889912"><ele>545.0</ele><time>2026-04-13T12:46:51.686Z</time></trkpt><trkpt lat="38.3882165" lon="-1.1886962"><ele>547.0</ele><time>2026-04-13T12:46:52.686Z</time></trkpt><trkpt lat="38.3882214" lon="-1.1883998"><ele>549.0</ele><time>2026-04-13T12:46:53.686Z</time></trkpt><trkpt lat="38.3882421" lon="-1.1880971"><ele>551.0</ele><time>2026-04-13T12:46:54.686Z</time></trkpt><trkpt lat="38.3882812" lon="-1.1877985"><ele>551.0</ele><time>2026-04-13T12:46:55.686Z</time></trkpt><trkpt lat="38.3883334" lon="-1.1875051"><ele>551.0</ele><time>2026-04-13T12:46:56.686Z</time></trkpt><trkpt lat="38.388388" lon="-1.1872067"><ele>553.5</ele><time>2026-04-13T12:46:57.686Z</time></trkpt><trkpt lat="38.3884456" lon="-1.186902"><ele>556.0</ele><time>2026-04-13T12:46:58.686Z</time></trkpt><trkpt lat="38.3885085" lon="-1.1865936"><ele>557.5</ele><time>2026-04-13T12:46:59.686Z</time></trkpt><trkpt lat="38.3885744" lon="-1.1863027"><ele>559.0</ele><time>2026-04-13T12:47:00.686Z</time></trkpt><trkpt lat="38.3886489" lon="-1.1860248"><ele>559.0</ele><time>2026-04-13T12:47:01.686Z</time></trkpt><trkpt lat="38.388749" lon="-1.185762"><ele>559.0</ele><time>2026-04-13T12:47:02.686Z</time></trkpt><trkpt lat="38.3888647" lon="-1.1855229"><ele>559.0</ele><time>2026-04-13T12:47:03.686Z</time></trkpt><trkpt lat="38.388981" lon="-1.1852949"><ele>559.3333333333334</ele><time>2026-04-13T12:47:04.686Z</time></trkpt><trkpt lat="38.3890955" lon="-1.185083"><ele>559.6666666666666</ele><time>2026-04-13T12:47:05.686Z</time></trkpt><trkpt lat="38.3892063" lon="-1.1848746"><ele>560.0</ele><time>2026-04-13T12:47:06.687Z</time></trkpt><trkpt lat="38.3893065" lon="-1.1846698"><ele>562.3333333333333</ele><time>2026-04-13T12:47:07.686Z</time></trkpt><trkpt lat="38.3893878" lon="-1.1844546"><ele>564.6666666666666</ele><time>2026-04-13T12:47:08.686Z</time></trkpt><trkpt lat="38.389451" lon="-1.1842302"><ele>567.0</ele><time>2026-04-13T12:47:09.686Z</time></trkpt><trkpt lat="38.3895006" lon="-1.1840062"><ele>569.6666666666666</ele><time>2026-04-13T12:47:10.686Z</time></trkpt><trkpt lat="38.3895387" lon="-1.1837901"><ele>572.3333333333333</ele><time>2026-04-13T12:47:11.686Z</time></trkpt><trkpt lat="38.3895547" lon="-1.1835689"><ele>575.0</ele><time>2026-04-13T12:47:12.686Z</time></trkpt><trkpt lat="38.3895232" lon="-1.1833582"><ele>575.3333333333333</ele><time>2026-04-13T12:47:13.687Z</time></trkpt><trkpt lat="38.3894757" lon="-1.1831328"><ele>575.6666666666666</ele><time>2026-04-13T12:47:14.687Z</time></trkpt><trkpt lat="38.3894255" lon="-1.1829066"><ele>576.0</ele><time>2026-04-13T12:47:15.686Z</time></trkpt><trkpt lat="38.3893743" lon="-1.1826731"><ele>576.0</ele><time>2026-04-13T12:47:16.686Z</time></trkpt><trkpt lat="38.3893256" lon="-1.1824421"><ele>576.0</ele><time>2026-04-13T12:47:17.686Z</time></trkpt><trkpt lat="38.389289" lon="-1.182205"><ele>576.0</ele><time>2026-04-13T12:47:18.687Z</time></trkpt><trkpt lat="38.3892709" lon="-1.1819689"><ele>575.3333333333334</ele><time>2026-04-13T12:47:19.686Z</time></trkpt><trkpt lat="38.3892604" lon="-1.1817369"><ele>574.6666666666667</ele><time>2026-04-13T12:47:20.686Z</time></trkpt><trkpt lat="38.3892519" lon="-1.1815108"><ele>574.0</ele><time>2026-04-13T12:47:21.686Z</time></trkpt><trkpt lat="38.3892444" lon="-1.1812819"><ele>573.6666666666667</ele><time>2026-04-13T12:47:22.686Z</time></trkpt><trkpt lat="38.3892374" lon="-1.1810609"><ele>573.3333333333334</ele><time>2026-04-13T12:47:23.686Z</time></trkpt><trkpt lat="38.389244" lon="-1.1808364"><ele>573.0</ele><time>2026-04-13T12:47:24.686Z</time></trkpt><trkpt lat="38.3892667" lon="-1.1806154"><ele>574.6666666666666</ele><time>2026-04-13T12:47:25.686Z</time></trkpt><trkpt lat="38.3893185" lon="-1.1803966"><ele>576.3333333333333</ele><time>2026-04-13T12:47:26.687Z</time></trkpt><trkpt lat="38.3893931" lon="-1.1801939"><ele>578.0</ele><time>2026-04-13T12:47:27.686Z</time></trkpt><trkpt lat="38.3894808" lon="-1.180018"><ele>578.6666666666666</ele><time>2026-04-13T12:47:28.686Z</time></trkpt><trkpt lat="38.3895767" lon="-1.1798484"><ele>579.3333333333334</ele><time>2026-04-13T12:47:29.686Z</time></trkpt><trkpt lat="38.3896841" lon="-1.1796787"><ele>580.0</ele><time>2026-04-13T12:47:30.686Z</time></trkpt><trkpt lat="38.3897944" lon="-1.1795207"><ele>580.0</ele><time>2026-04-13T12:47:31.686Z</time></trkpt><trkpt lat="38.389903" lon="-1.1793596"><ele>580.0</ele><time>2026-04-13T12:47:32.686Z</time></trkpt><trkpt lat="38.3900129" lon="-1.1791958"><ele>580.0</ele><time>2026-04-13T12:47:33.686Z</time></trkpt><trkpt lat="38.3901104" lon="-1.1790357"><ele>580.6666666666667</ele><time>2026-04-13T12:47:34.685Z</time></trkpt><trkpt lat="38.3902095" lon="-1.1788693"><ele>581.3333333333334</ele><time>2026-04-13T12:47:35.686Z</time></trkpt><trkpt lat="38.390279" lon="-1.1787129"><ele>582.0</ele><time>2026-04-13T12:47:36.686Z</time></trkpt><trkpt lat="38.3903443" lon="-1.1785477"><ele>582.0</ele><time>2026-04-13T12:47:37.686Z</time></trkpt><trkpt lat="38.3903514" lon="-1.17836"><ele>582.0</ele><time>2026-04-13T12:47:38.686Z</time></trkpt><trkpt lat="38.3903284" lon="-1.1781634"><ele>582.0</ele><time>2026-04-13T12:47:39.686Z</time></trkpt><trkpt lat="38.3902587" lon="-1.1779697"><ele>581.3333333333334</ele><time>2026-04-13T12:47:40.686Z</time></trkpt><trkpt lat="38.3901647" lon="-1.1777797"><ele>580.6666666666667</ele><time>2026-04-13T12:47:41.686Z</time></trkpt><trkpt lat="38.3900689" lon="-1.1775991"><ele>580.0</ele><time>2026-04-13T12:47:42.686Z</time></trkpt><trkpt lat="38.3899684" lon="-1.1774161"><ele>579.6666666666667</ele><time>2026-04-13T12:47:43.686Z</time></trkpt><trkpt lat="38.3898667" lon="-1.1772371"><ele>579.3333333333334</ele><time>2026-04-13T12:47:44.686Z</time></trkpt><trkpt lat="38.3897641" lon="-1.1770547"><ele>579.0</ele><time>2026-04-13T12:47:45.686Z</time></trkpt><trkpt lat="38.3896599" lon="-1.1768703"><ele>578.0</ele><time>2026-04-13T12:47:46.686Z</time></trkpt><trkpt lat="38.389556" lon="-1.1766881"><ele>577.0</ele><time>2026-04-13T12:47:47.686Z</time></trkpt><trkpt lat="38.3894489" lon="-1.1764997"><ele>576.0</ele><time>2026-04-13T12:47:48.686Z</time></trkpt><trkpt lat="38.3893424" lon="-1.1763064"><ele>575.3333333333334</ele><time>2026-04-13T12:47:49.686Z</time></trkpt><trkpt lat="38.3892348" lon="-1.176114"><ele>574.6666666666667</ele><time>2026-04-13T12:47:50.686Z</time></trkpt><trkpt lat="38.3891261" lon="-1.1759201"><ele>574.0</ele><time>2026-04-13T12:47:51.686Z</time></trkpt><trkpt lat="38.3890169" lon="-1.1757192"><ele>574.3333333333334</ele><time>2026-04-13T12:47:52.686Z</time></trkpt><trkpt lat="38.3889024" lon="-1.1755157"><ele>574.6666666666666</ele><time>2026-04-13T12:47:53.686Z</time></trkpt><trkpt lat="38.3887851" lon="-1.1753093"><ele>575.0</ele><time>2026-04-13T12:47:54.686Z</time></trkpt><trkpt lat="38.3886641" lon="-1.175097"><ele>574.6666666666666</ele><time>2026-04-13T12:47:55.686Z</time></trkpt><trkpt lat="38.3885404" lon="-1.1748737"><ele>574.3333333333334</ele><time>2026-04-13T12:47:56.686Z</time></trkpt><trkpt lat="38.3884123" lon="-1.1746476"><ele>574.0</ele><time>2026-04-13T12:47:57.686Z</time></trkpt><trkpt lat="38.3882855" lon="-1.174419"><ele>574.0</ele><time>2026-04-13T12:47:58.686Z</time></trkpt><trkpt lat="38.3881556" lon="-1.1741905"><ele>574.0</ele><time>2026-04-13T12:47:59.686Z</time></trkpt><trkpt lat="38.3880266" lon="-1.1739572"><ele>574.0</ele><time>2026-04-13T12:48:00.686Z</time></trkpt><trkpt lat="38.3878936" lon="-1.1737203"><ele>573.0</ele><time>2026-04-13T12:48:01.686Z</time></trkpt><trkpt lat="38.3877601" lon="-1.1734783"><ele>572.0</ele><time>2026-04-13T12:48:02.686Z</time></trkpt><trkpt lat="38.3876244" lon="-1.1732402"><ele>575.0</ele><time>2026-04-13T12:48:03.686Z</time></trkpt><trkpt lat="38.3874871" lon="-1.1729969"><ele>578.0</ele><time>2026-04-13T12:48:04.686Z</time></trkpt><trkpt lat="38.3873506" lon="-1.1727553"><ele>578.0</ele><time>2026-04-13T12:48:05.686Z</time></trkpt><trkpt lat="38.3872157" lon="-1.1725161"><ele>578.0</ele><time>2026-04-13T12:48:06.686Z</time></trkpt><trkpt lat="38.3870849" lon="-1.1722696"><ele>577.0</ele><time>2026-04-13T12:48:07.686Z</time></trkpt><trkpt lat="38.38695" lon="-1.172025"><ele>576.0</ele><time>2026-04-13T12:48:08.686Z</time></trkpt><trkpt lat="38.3868245" lon="-1.1717783"><ele>576.0</ele><time>2026-04-13T12:48:09.686Z</time></trkpt><trkpt lat="38.3866968" lon="-1.1715277"><ele>576.0</ele><time>2026-04-13T12:48:10.686Z</time></trkpt><trkpt lat="38.3865768" lon="-1.1712646"><ele>578.5</ele><time>2026-04-13T12:48:11.686Z</time></trkpt><trkpt lat="38.3864712" lon="-1.1710005"><ele>581.0</ele><time>2026-04-13T12:48:12.686Z</time></trkpt><trkpt lat="38.3863709" lon="-1.1707282"><ele>579.0</ele><time>2026-04-13T12:48:13.686Z</time></trkpt><trkpt lat="38.386281" lon="-1.1704477"><ele>577.0</ele><time>2026-04-13T12:48:14.686Z</time></trkpt><trkpt lat="38.386194" lon="-1.1701652"><ele>577.0</ele><time>2026-04-13T12:48:15.686Z</time></trkpt><trkpt lat="38.3861046" lon="-1.1698784"><ele>577.0</ele><time>2026-04-13T12:48:16.686Z</time></trkpt><trkpt lat="38.3860162" lon="-1.169594"><ele>580.0</ele><time>2026-04-13T12:48:17.687Z</time></trkpt><trkpt lat="38.3859289" lon="-1.1693085"><ele>583.0</ele><time>2026-04-13T12:48:18.686Z</time></trkpt><trkpt lat="38.3858408" lon="-1.1690212"><ele>585.5</ele><time>2026-04-13T12:48:19.686Z</time></trkpt><trkpt lat="38.385752" lon="-1.1687315"><ele>588.0</ele><time>2026-04-13T12:48:20.686Z</time></trkpt><trkpt lat="38.3856646" lon="-1.1684418"><ele>587.0</ele><time>2026-04-13T12:48:21.686Z</time></trkpt><trkpt lat="38.3855772" lon="-1.1681474"><ele>586.0</ele><time>2026-04-13T12:48:22.686Z</time></trkpt><trkpt lat="38.3854967" lon="-1.167851"><ele>586.0</ele><time>2026-04-13T12:48:23.686Z</time></trkpt><trkpt lat="38.3854306" lon="-1.1675468"><ele>586.0</ele><time>2026-04-13T12:48:24.686Z</time></trkpt><trkpt lat="38.3853863" lon="-1.1672466"><ele>585.0</ele><time>2026-04-13T12:48:25.686Z</time></trkpt><trkpt lat="38.3853648" lon="-1.1669468"><ele>584.0</ele><time>2026-04-13T12:48:26.686Z</time></trkpt><trkpt lat="38.3853682" lon="-1.1666441"><ele>586.0</ele><time>2026-04-13T12:48:27.686Z</time></trkpt><trkpt lat="38.3854007" lon="-1.1663444"><ele>588.0</ele><time>2026-04-13T12:48:28.687Z</time></trkpt><trkpt lat="38.3854767" lon="-1.1660599"><ele>589.0</ele><time>2026-04-13T12:48:29.686Z</time></trkpt><trkpt lat="38.3855693" lon="-1.1657953"><ele>590.0</ele><time>2026-04-13T12:48:30.686Z</time></trkpt><trkpt lat="38.3856721" lon="-1.1655435"><ele>590.0</ele><time>2026-04-13T12:48:31.686Z</time></trkpt><trkpt lat="38.3857784" lon="-1.1652984"><ele>590.0</ele><time>2026-04-13T12:48:32.686Z</time></trkpt><trkpt lat="38.3858833" lon="-1.1650564"><ele>590.0</ele><time>2026-04-13T12:48:33.686Z</time></trkpt><trkpt lat="38.38599" lon="-1.1648131"><ele>590.6666666666666</ele><time>2026-04-13T12:48:34.686Z</time></trkpt><trkpt lat="38.3860942" lon="-1.1645618"><ele>591.3333333333334</ele><time>2026-04-13T12:48:35.686Z</time></trkpt><trkpt lat="38.3862036" lon="-1.1643088"><ele>592.0</ele><time>2026-04-13T12:48:36.686Z</time></trkpt><trkpt lat="38.3863132" lon="-1.1640573"><ele>594.5</ele><time>2026-04-13T12:48:37.686Z</time></trkpt><trkpt lat="38.3864244" lon="-1.1637992"><ele>597.0</ele><time>2026-04-13T12:48:38.686Z</time></trkpt><trkpt lat="38.3865396" lon="-1.163544"><ele>597.0</ele><time>2026-04-13T12:48:39.686Z</time></trkpt><trkpt lat="38.386652" lon="-1.1632847"><ele>597.0</ele><time>2026-04-13T12:48:40.686Z</time></trkpt><trkpt lat="38.3867654" lon="-1.1630253"><ele>598.0</ele><time>2026-04-13T12:48:41.686Z</time></trkpt><trkpt lat="38.3868732" lon="-1.1627688"><ele>599.0</ele><time>2026-04-13T12:48:42.686Z</time></trkpt><trkpt lat="38.3869827" lon="-1.1625111"><ele>599.0</ele><time>2026-04-13T12:48:43.686Z</time></trkpt><trkpt lat="38.3870905" lon="-1.1622542"><ele>599.0</ele><time>2026-04-13T12:48:44.686Z</time></trkpt><trkpt lat="38.3871997" lon="-1.1620006"><ele>599.5</ele><time>2026-04-13T12:48:45.686Z</time></trkpt><trkpt lat="38.3873102" lon="-1.1617437"><ele>600.0</ele><time>2026-04-13T12:48:46.686Z</time></trkpt><trkpt lat="38.3874182" lon="-1.1614801"><ele>600.0</ele><time>2026-04-13T12:48:47.686Z</time></trkpt><trkpt lat="38.3875139" lon="-1.1612063"><ele>600.0</ele><time>2026-04-13T12:48:48.686Z</time></trkpt><trkpt lat="38.3876004" lon="-1.1609229"><ele>600.0</ele><time>2026-04-13T12:48:49.686Z</time></trkpt><trkpt lat="38.3876769" lon="-1.1606367"><ele>600.0</ele><time>2026-04-13T12:48:50.686Z</time></trkpt><trkpt lat="38.3877558" lon="-1.1603456"><ele>600.0</ele><time>2026-04-13T12:48:51.686Z</time></trkpt><trkpt lat="38.3878328" lon="-1.1600586"><ele>600.0</ele><time>2026-04-13T12:48:52.686Z</time></trkpt><trkpt lat="38.3879113" lon="-1.1597738"><ele>599.0</ele><time>2026-04-13T12:48:53.686Z</time></trkpt><trkpt lat="38.3879905" lon="-1.1594876"><ele>598.0</ele><time>2026-04-13T12:48:54.686Z</time></trkpt><trkpt lat="38.3880678" lon="-1.1592022"><ele>601.5</ele><time>2026-04-13T12:48:55.686Z</time></trkpt><trkpt lat="38.3881445" lon="-1.1589155"><ele>605.0</ele><time>2026-04-13T12:48:56.686Z</time></trkpt><trkpt lat="38.3882191" lon="-1.1586221"><ele>605.0</ele><time>2026-04-13T12:48:57.686Z</time></trkpt><trkpt lat="38.3882874" lon="-1.1583322"><ele>605.0</ele><time>2026-04-13T12:48:58.686Z</time></trkpt><trkpt lat="38.3883476" lon="-1.1580398"><ele>605.0</ele><time>2026-04-13T12:48:59.686Z</time></trkpt><trkpt lat="38.3883872" lon="-1.1577354"><ele>605.0</ele><time>2026-04-13T12:49:00.686Z</time></trkpt><trkpt lat="38.3884155" lon="-1.1574234"><ele>605.0</ele><time>2026-04-13T12:49:01.686Z</time></trkpt><trkpt lat="38.3884364" lon="-1.1571143"><ele>605.0</ele><time>2026-04-13T12:49:02.686Z</time></trkpt><trkpt lat="38.3884592" lon="-1.1567976"><ele>604.5</ele><time>2026-04-13T12:49:03.686Z</time></trkpt><trkpt lat="38.3884818" lon="-1.1564787"><ele>604.0</ele><time>2026-04-13T12:49:04.686Z</time></trkpt><trkpt lat="38.388506" lon="-1.1561705"><ele>604.0</ele><time>2026-04-13T12:49:05.686Z</time></trkpt><trkpt lat="38.3885304" lon="-1.1558541"><ele>604.0</ele><time>2026-04-13T12:49:06.686Z</time></trkpt><trkpt lat="38.3885524" lon="-1.1555418"><ele>603.0</ele><time>2026-04-13T12:49:07.686Z</time></trkpt><trkpt lat="38.3885724" lon="-1.1552289"><ele>602.0</ele><time>2026-04-13T12:49:08.686Z</time></trkpt><trkpt lat="38.3885953" lon="-1.1549153"><ele>602.5</ele><time>2026-04-13T12:49:09.686Z</time></trkpt><trkpt lat="38.3886191" lon="-1.154599"><ele>603.0</ele><time>2026-04-13T12:49:10.686Z</time></trkpt><trkpt lat="38.3886406" lon="-1.1542841"><ele>604.0</ele><time>2026-04-13T12:49:11.686Z</time></trkpt><trkpt lat="38.3886649" lon="-1.1539609"><ele>605.0</ele><time>2026-04-13T12:49:12.686Z</time></trkpt><trkpt lat="38.3886885" lon="-1.1536385"><ele>605.0</ele><time>2026-04-13T12:49:13.686Z</time></trkpt><trkpt lat="38.3887145" lon="-1.1533196"><ele>605.0</ele><time>2026-04-13T12:49:14.686Z</time></trkpt><trkpt lat="38.3887375" lon="-1.1529945"><ele>605.0</ele><time>2026-04-13T12:49:15.686Z</time></trkpt><trkpt lat="38.3887603" lon="-1.1526755"><ele>605.0</ele><time>2026-04-13T12:49:16.686Z</time></trkpt><trkpt lat="38.3887806" lon="-1.1523583"><ele>605.0</ele><time>2026-04-13T12:49:17.686Z</time></trkpt><trkpt lat="38.3888032" lon="-1.1520395"><ele>605.0</ele><time>2026-04-13T12:49:18.686Z</time></trkpt><trkpt lat="38.3888293" lon="-1.1517204"><ele>607.0</ele><time>2026-04-13T12:49:19.686Z</time></trkpt><trkpt lat="38.3888702" lon="-1.1514089"><ele>609.0</ele><time>2026-04-13T12:49:20.686Z</time></trkpt><trkpt lat="38.3889359" lon="-1.1511078"><ele>609.0</ele><time>2026-04-13T12:49:21.686Z</time></trkpt><trkpt lat="38.3890131" lon="-1.1508128"><ele>609.0</ele><time>2026-04-13T12:49:22.686Z</time></trkpt><trkpt lat="38.3890925" lon="-1.1505156"><ele>608.5</ele><time>2026-04-13T12:49:23.686Z</time></trkpt><trkpt lat="38.3891703" lon="-1.1502225"><ele>608.0</ele><time>2026-04-13T12:49:24.686Z</time></trkpt><trkpt lat="38.3892515" lon="-1.1499312"><ele>607.5</ele><time>2026-04-13T12:49:25.686Z</time></trkpt><trkpt lat="38.3893265" lon="-1.1496423"><ele>607.0</ele><time>2026-04-13T12:49:26.686Z</time></trkpt><trkpt lat="38.3894048" lon="-1.1493548"><ele>607.0</ele><time>2026-04-13T12:49:27.686Z</time></trkpt><trkpt lat="38.3894824" lon="-1.149069"><ele>607.0</ele><time>2026-04-13T12:49:28.686Z</time></trkpt><trkpt lat="38.3895603" lon="-1.1487806"><ele>606.0</ele><time>2026-04-13T12:49:29.686Z</time></trkpt><trkpt lat="38.3896389" lon="-1.1484893"><ele>605.0</ele><time>2026-04-13T12:49:30.686Z</time></trkpt><trkpt lat="38.3897166" lon="-1.1482005"><ele>607.0</ele><time>2026-04-13T12:49:31.686Z</time></trkpt><trkpt lat="38.3897911" lon="-1.147911"><ele>609.0</ele><time>2026-04-13T12:49:32.686Z</time></trkpt><trkpt lat="38.3898703" lon="-1.1476195"><ele>608.5</ele><time>2026-04-13T12:49:33.686Z</time></trkpt><trkpt lat="38.389947" lon="-1.1473341"><ele>608.0</ele><time>2026-04-13T12:49:34.686Z</time></trkpt><trkpt lat="38.3900229" lon="-1.1470438"><ele>608.0</ele><time>2026-04-13T12:49:35.686Z</time></trkpt><trkpt lat="38.3901022" lon="-1.1467508"><ele>608.0</ele><time>2026-04-13T12:49:36.686Z</time></trkpt><trkpt lat="38.3901806" lon="-1.146457"><ele>607.5</ele><time>2026-04-13T12:49:37.686Z</time></trkpt><trkpt lat="38.3902596" lon="-1.1461656"><ele>607.0</ele><time>2026-04-13T12:49:38.686Z</time></trkpt><trkpt lat="38.3903369" lon="-1.1458707"><ele>606.0</ele><time>2026-04-13T12:49:39.686Z</time></trkpt><trkpt lat="38.3904155" lon="-1.1455785"><ele>605.0</ele><time>2026-04-13T12:49:40.686Z</time></trkpt><trkpt lat="38.3904922" lon="-1.1452814"><ele>606.0</ele><time>2026-04-13T12:49:41.686Z</time></trkpt><trkpt lat="38.3905713" lon="-1.1449875"><ele>607.0</ele><time>2026-04-13T12:49:42.686Z</time></trkpt><trkpt lat="38.3906502" lon="-1.1446901"><ele>608.5</ele><time>2026-04-13T12:49:43.686Z</time></trkpt><trkpt lat="38.3907291" lon="-1.1443955"><ele>610.0</ele><time>2026-04-13T12:49:44.686Z</time></trkpt><trkpt lat="38.3908065" lon="-1.1440982"><ele>610.5</ele><time>2026-04-13T12:49:45.686Z</time></trkpt><trkpt lat="38.3908838" lon="-1.1438038"><ele>611.0</ele><time>2026-04-13T12:49:46.686Z</time></trkpt><trkpt lat="38.3909621" lon="-1.1435091"><ele>611.0</ele><time>2026-04-13T12:49:47.686Z</time></trkpt><trkpt lat="38.39104" lon="-1.1432155"><ele>611.0</ele><time>2026-04-13T12:49:48.686Z</time></trkpt><trkpt lat="38.3911176" lon="-1.1429194"><ele>611.0</ele><time>2026-04-13T12:49:49.686Z</time></trkpt><trkpt lat="38.3911955" lon="-1.1426192"><ele>611.0</ele><time>2026-04-13T12:49:50.686Z</time></trkpt><trkpt lat="38.3912753" lon="-1.1423195"><ele>613.0</ele><time>2026-04-13T12:49:51.686Z</time></trkpt><trkpt lat="38.3913572" lon="-1.1420167"><ele>615.0</ele><time>2026-04-13T12:49:52.686Z</time></trkpt><trkpt lat="38.3914382" lon="-1.1417137"><ele>615.5</ele><time>2026-04-13T12:49:53.686Z</time></trkpt><trkpt lat="38.3915175" lon="-1.1414075"><ele>616.0</ele><time>2026-04-13T12:49:54.686Z</time></trkpt><trkpt lat="38.3915982" lon="-1.1411007"><ele>616.0</ele><time>2026-04-13T12:49:55.686Z</time></trkpt><trkpt lat="38.3916784" lon="-1.1407935"><ele>616.0</ele><time>2026-04-13T12:49:56.686Z</time></trkpt><trkpt lat="38.391759" lon="-1.1404887"><ele>615.5</ele><time>2026-04-13T12:49:57.686Z</time></trkpt><trkpt lat="38.391841" lon="-1.1401814"><ele>615.0</ele><time>2026-04-13T12:49:58.686Z</time></trkpt><trkpt lat="38.3919208" lon="-1.1398717"><ele>616.0</ele><time>2026-04-13T12:49:59.686Z</time></trkpt><trkpt lat="38.3920048" lon="-1.1395592"><ele>617.0</ele><time>2026-04-13T12:50:00.686Z</time></trkpt><trkpt lat="38.3920888" lon="-1.13925"><ele>617.0</ele><time>2026-04-13T12:50:01.686Z</time></trkpt><trkpt lat="38.3921729" lon="-1.1389402"><ele>617.0</ele><time>2026-04-13T12:50:02.686Z</time></trkpt><trkpt lat="38.3922557" lon="-1.1386296"><ele>618.5</ele><time>2026-04-13T12:50:03.686Z</time></trkpt><trkpt lat="38.3923413" lon="-1.1383171"><ele>620.0</ele><time>2026-04-13T12:50:04.686Z</time></trkpt><trkpt lat="38.3924233" lon="-1.1380018"><ele>620.0</ele><time>2026-04-13T12:50:05.686Z</time></trkpt><trkpt lat="38.3925036" lon="-1.1376878"><ele>620.0</ele><time>2026-04-13T12:50:06.687Z</time></trkpt><trkpt lat="38.3925853" lon="-1.1373725"><ele>620.0</ele><time>2026-04-13T12:50:07.686Z</time></trkpt><trkpt lat="38.3926655" lon="-1.137056"><ele>620.0</ele><time>2026-04-13T12:50:08.686Z</time></trkpt><trkpt lat="38.3927511" lon="-1.1367437"><ele>620.0</ele><time>2026-04-13T12:50:09.686Z</time></trkpt><trkpt lat="38.392834" lon="-1.1364392"><ele>620.0</ele><time>2026-04-13T12:50:10.686Z</time></trkpt><trkpt lat="38.3929142" lon="-1.1361315"><ele>620.0</ele><time>2026-04-13T12:50:11.686Z</time></trkpt><trkpt lat="38.3929975" lon="-1.1358252"><ele>620.0</ele><time>2026-04-13T12:50:12.686Z</time></trkpt><trkpt lat="38.3930785" lon="-1.1355152"><ele>621.0</ele><time>2026-04-13T12:50:13.686Z</time></trkpt><trkpt lat="38.3931626" lon="-1.1352033"><ele>622.0</ele><time>2026-04-13T12:50:14.686Z</time></trkpt><trkpt lat="38.3932456" lon="-1.1348967"><ele>622.5</ele><time>2026-04-13T12:50:15.686Z</time></trkpt><trkpt lat="38.3933284" lon="-1.1345845"><ele>623.0</ele><time>2026-04-13T12:50:16.686Z</time></trkpt><trkpt lat="38.3934097" lon="-1.1342708"><ele>622.5</ele><time>2026-04-13T12:50:17.686Z</time></trkpt><trkpt lat="38.3934928" lon="-1.1339559"><ele>622.0</ele><time>2026-04-13T12:50:18.686Z</time></trkpt><trkpt lat="38.3935775" lon="-1.1336468"><ele>622.0</ele><time>2026-04-13T12:50:19.686Z</time></trkpt><trkpt lat="38.3936592" lon="-1.1333363"><ele>622.0</ele><time>2026-04-13T12:50:20.686Z</time></trkpt><trkpt lat="38.3937427" lon="-1.1330207"><ele>622.0</ele><time>2026-04-13T12:50:21.686Z</time></trkpt><trkpt lat="38.3938244" lon="-1.1327084"><ele>622.0</ele><time>2026-04-13T12:50:22.686Z</time></trkpt><trkpt lat="38.3939072" lon="-1.1323941"><ele>623.5</ele><time>2026-04-13T12:50:23.686Z</time></trkpt><trkpt lat="38.3939894" lon="-1.1320837"><ele>625.0</ele><time>2026-04-13T12:50:24.686Z</time></trkpt><trkpt lat="38.3940733" lon="-1.1317715"><ele>625.0</ele><time>2026-04-13T12:50:25.686Z</time></trkpt><trkpt lat="38.3941557" lon="-1.1314604"><ele>625.0</ele><time>2026-04-13T12:50:26.686Z</time></trkpt><trkpt lat="38.3942375" lon="-1.1311476"><ele>625.0</ele><time>2026-04-13T12:50:27.686Z</time></trkpt><trkpt lat="38.3943175" lon="-1.1308338"><ele>625.0</ele><time>2026-04-13T12:50:28.686Z</time></trkpt><trkpt lat="38.3943996" lon="-1.1305195"><ele>624.5</ele><time>2026-04-13T12:50:29.686Z</time></trkpt><trkpt lat="38.3944829" lon="-1.1302082"><ele>624.0</ele><time>2026-04-13T12:50:30.686Z</time></trkpt><trkpt lat="38.394566" lon="-1.1298979"><ele>623.0</ele><time>2026-04-13T12:50:31.686Z</time></trkpt><trkpt lat="38.3946497" lon="-1.1295836"><ele>622.0</ele><time>2026-04-13T12:50:32.686Z</time></trkpt><trkpt lat="38.3947326" lon="-1.1292685"><ele>623.0</ele><time>2026-04-13T12:50:33.686Z</time></trkpt><trkpt lat="38.3948129" lon="-1.1289555"><ele>624.0</ele><time>2026-04-13T12:50:34.686Z</time></trkpt><trkpt lat="38.3948946" lon="-1.1286428"><ele>624.0</ele><time>2026-04-13T12:50:35.686Z</time></trkpt><trkpt lat="38.3949773" lon="-1.1283298"><ele>624.0</ele><time>2026-04-13T12:50:36.686Z</time></trkpt><trkpt lat="38.3950627" lon="-1.1280198"><ele>622.5</ele><time>2026-04-13T12:50:37.686Z</time></trkpt><trkpt lat="38.3951438" lon="-1.1277064"><ele>621.0</ele><time>2026-04-13T12:50:38.686Z</time></trkpt><trkpt lat="38.3952259" lon="-1.1273954"><ele>621.0</ele><time>2026-04-13T12:50:39.686Z</time></trkpt><trkpt lat="38.3953085" lon="-1.1270889"><ele>621.0</ele><time>2026-04-13T12:50:40.686Z</time></trkpt><trkpt lat="38.3953909" lon="-1.1267797"><ele>621.0</ele><time>2026-04-13T12:50:41.686Z</time></trkpt><trkpt lat="38.3954729" lon="-1.1264728"><ele>621.0</ele><time>2026-04-13T12:50:42.686Z</time></trkpt><trkpt lat="38.3955527" lon="-1.1261676"><ele>622.0</ele><time>2026-04-13T12:50:43.686Z</time></trkpt><trkpt lat="38.3956343" lon="-1.1258592"><ele>623.0</ele><time>2026-04-13T12:50:44.686Z</time></trkpt><trkpt lat="38.3957151" lon="-1.1255471"><ele>621.0</ele><time>2026-04-13T12:50:45.686Z</time></trkpt><trkpt lat="38.3957977" lon="-1.1252367"><ele>619.0</ele><time>2026-04-13T12:50:46.686Z</time></trkpt><trkpt lat="38.395879" lon="-1.1249211"><ele>618.5</ele><time>2026-04-13T12:50:47.686Z</time></trkpt><trkpt lat="38.3959621" lon="-1.1246067"><ele>618.0</ele><time>2026-04-13T12:50:48.686Z</time></trkpt><trkpt lat="38.396044" lon="-1.1242902"><ele>619.5</ele><time>2026-04-13T12:50:49.686Z</time></trkpt><trkpt lat="38.3961265" lon="-1.1239763"><ele>621.0</ele><time>2026-04-13T12:50:50.686Z</time></trkpt><trkpt lat="38.3962107" lon="-1.1236579"><ele>621.0</ele><time>2026-04-13T12:50:51.686Z</time></trkpt><trkpt lat="38.3962927" lon="-1.1233413"><ele>621.0</ele><time>2026-04-13T12:50:52.686Z</time></trkpt><trkpt lat="38.3963746" lon="-1.1230263"><ele>623.0</ele><time>2026-04-13T12:50:53.686Z</time></trkpt><trkpt lat="38.396455" lon="-1.122716"><ele>625.0</ele><time>2026-04-13T12:50:54.686Z</time></trkpt><trkpt lat="38.3965358" lon="-1.1224057"><ele>626.5</ele><time>2026-04-13T12:50:55.686Z</time></trkpt><trkpt lat="38.396615" lon="-1.1220957"><ele>628.0</ele><time>2026-04-13T12:50:56.686Z</time></trkpt><trkpt lat="38.3966919" lon="-1.1217825"><ele>628.5</ele><time>2026-04-13T12:50:57.686Z</time></trkpt><trkpt lat="38.3967736" lon="-1.1214727"><ele>629.0</ele><time>2026-04-13T12:50:58.686Z</time></trkpt><trkpt lat="38.3968598" lon="-1.1211395"><ele>629.0</ele><time>2026-04-13T12:50:59.686Z</time></trkpt><trkpt lat="38.396939" lon="-1.1208371"><ele>629.0</ele><time>2026-04-13T12:51:00.686Z</time></trkpt><trkpt lat="38.3970208" lon="-1.1205315"><ele>628.5</ele><time>2026-04-13T12:51:01.686Z</time></trkpt><trkpt lat="38.3970997" lon="-1.1202336"><ele>628.0</ele><time>2026-04-13T12:51:02.686Z</time></trkpt><trkpt lat="38.3971794" lon="-1.1199357"><ele>629.0</ele><time>2026-04-13T12:51:03.686Z</time></trkpt><trkpt lat="38.3972603" lon="-1.1196361"><ele>630.0</ele><time>2026-04-13T12:51:04.686Z</time></trkpt><trkpt lat="38.3973435" lon="-1.1193259"><ele>631.0</ele><time>2026-04-13T12:51:05.686Z</time></trkpt><trkpt lat="38.3974261" lon="-1.119019"><ele>632.0</ele><time>2026-04-13T12:51:06.686Z</time></trkpt><trkpt lat="38.3975067" lon="-1.1187145"><ele>632.0</ele><time>2026-04-13T12:51:07.686Z</time></trkpt><trkpt lat="38.3975907" lon="-1.1184083"><ele>632.0</ele><time>2026-04-13T12:51:08.686Z</time></trkpt><trkpt lat="38.3976702" lon="-1.1181004"><ele>631.0</ele><time>2026-04-13T12:51:09.686Z</time></trkpt><trkpt lat="38.3977488" lon="-1.1177942"><ele>630.0</ele><time>2026-04-13T12:51:10.686Z</time></trkpt><trkpt lat="38.3978264" lon="-1.1174876"><ele>629.0</ele><time>2026-04-13T12:51:11.686Z</time></trkpt><trkpt lat="38.3979056" lon="-1.1171865"><ele>628.0</ele><time>2026-04-13T12:51:12.686Z</time></trkpt><trkpt lat="38.397985" lon="-1.116885"><ele>629.0</ele><time>2026-04-13T12:51:13.686Z</time></trkpt><trkpt lat="38.3980654" lon="-1.1165774"><ele>630.0</ele><time>2026-04-13T12:51:14.686Z</time></trkpt><trkpt lat="38.3981458" lon="-1.116269"><ele>630.0</ele><time>2026-04-13T12:51:15.686Z</time></trkpt><trkpt lat="38.3982273" lon="-1.1159598"><ele>630.0</ele><time>2026-04-13T12:51:16.686Z</time></trkpt><trkpt lat="38.3983099" lon="-1.115649"><ele>630.0</ele><time>2026-04-13T12:51:17.686Z</time></trkpt><trkpt lat="38.3983914" lon="-1.1153419"><ele>630.0</ele><time>2026-04-13T12:51:18.686Z</time></trkpt><trkpt lat="38.3984749" lon="-1.1150347"><ele>629.0</ele><time>2026-04-13T12:51:19.686Z</time></trkpt><trkpt lat="38.3985573" lon="-1.1147251"><ele>628.0</ele><time>2026-04-13T12:51:20.686Z</time></trkpt><trkpt lat="38.3986336" lon="-1.1144162"><ele>628.0</ele><time>2026-04-13T12:51:21.686Z</time></trkpt><trkpt lat="38.3987137" lon="-1.1141065"><ele>628.0</ele><time>2026-04-13T12:51:22.686Z</time></trkpt><trkpt lat="38.3987951" lon="-1.1137992"><ele>627.5</ele><time>2026-04-13T12:51:23.686Z</time></trkpt><trkpt lat="38.3988755" lon="-1.1134968"><ele>627.0</ele><time>2026-04-13T12:51:24.686Z</time></trkpt><trkpt lat="38.3989597" lon="-1.1131812"><ele>627.0</ele><time>2026-04-13T12:51:25.686Z</time></trkpt><trkpt lat="38.3990404" lon="-1.1128763"><ele>627.0</ele><time>2026-04-13T12:51:26.686Z</time></trkpt><trkpt lat="38.3991209" lon="-1.1125706"><ele>625.5</ele><time>2026-04-13T12:51:27.686Z</time></trkpt><trkpt lat="38.3992008" lon="-1.112265"><ele>624.0</ele><time>2026-04-13T12:51:28.686Z</time></trkpt><trkpt lat="38.3992797" lon="-1.1119564"><ele>624.0</ele><time>2026-04-13T12:51:29.686Z</time></trkpt><trkpt lat="38.3993587" lon="-1.1116512"><ele>624.0</ele><time>2026-04-13T12:51:30.686Z</time></trkpt><trkpt lat="38.3994398" lon="-1.1113438"><ele>624.0</ele><time>2026-04-13T12:51:31.686Z</time></trkpt><trkpt lat="38.3995202" lon="-1.1110337"><ele>624.0</ele><time>2026-04-13T12:51:32.687Z</time></trkpt><trkpt lat="38.3996018" lon="-1.1107231"><ele>625.5</ele><time>2026-04-13T12:51:33.686Z</time></trkpt><trkpt lat="38.399683" lon="-1.1104145"><ele>627.0</ele><time>2026-04-13T12:51:34.686Z</time></trkpt><trkpt lat="38.3997616" lon="-1.1101026"><ele>628.0</ele><time>2026-04-13T12:51:35.686Z</time></trkpt><trkpt lat="38.3998411" lon="-1.1097875"><ele>629.0</ele><time>2026-04-13T12:51:36.686Z</time></trkpt><trkpt lat="38.3999267" lon="-1.1094553"><ele>629.0</ele><time>2026-04-13T12:51:37.686Z</time></trkpt><trkpt lat="38.4000049" lon="-1.1091509"><ele>629.0</ele><time>2026-04-13T12:51:38.686Z</time></trkpt><trkpt lat="38.4000869" lon="-1.1088426"><ele>631.5</ele><time>2026-04-13T12:51:39.686Z</time></trkpt><trkpt lat="38.400164" lon="-1.108536"><ele>634.0</ele><time>2026-04-13T12:51:40.686Z</time></trkpt><trkpt lat="38.4002432" lon="-1.1082308"><ele>634.5</ele><time>2026-04-13T12:51:41.686Z</time></trkpt><trkpt lat="38.400325" lon="-1.1079243"><ele>635.0</ele><time>2026-04-13T12:51:42.686Z</time></trkpt><trkpt lat="38.4004046" lon="-1.1076184"><ele>635.5</ele><time>2026-04-13T12:51:43.686Z</time></trkpt><trkpt lat="38.4004819" lon="-1.1073076"><ele>636.0</ele><time>2026-04-13T12:51:44.686Z</time></trkpt><trkpt lat="38.4005648" lon="-1.1069965"><ele>637.0</ele><time>2026-04-13T12:51:45.686Z</time></trkpt><trkpt lat="38.400646" lon="-1.1066819"><ele>638.0</ele><time>2026-04-13T12:51:46.686Z</time></trkpt><trkpt lat="38.4007277" lon="-1.1063666"><ele>638.5</ele><time>2026-04-13T12:51:47.686Z</time></trkpt><trkpt lat="38.4008093" lon="-1.1060529"><ele>639.0</ele><time>2026-04-13T12:51:48.686Z</time></trkpt><trkpt lat="38.4008922" lon="-1.1057383"><ele>639.0</ele><time>2026-04-13T12:51:49.686Z</time></trkpt><trkpt lat="38.4009739" lon="-1.1054237"><ele>639.0</ele><time>2026-04-13T12:51:50.686Z</time></trkpt><trkpt lat="38.4010579" lon="-1.105104"><ele>638.0</ele><time>2026-04-13T12:51:51.686Z</time></trkpt><trkpt lat="38.401139" lon="-1.1047822"><ele>637.0</ele><time>2026-04-13T12:51:52.686Z</time></trkpt><trkpt lat="38.4012032" lon="-1.1044579"><ele>637.0</ele><time>2026-04-13T12:51:53.686Z</time></trkpt><trkpt lat="38.4012455" lon="-1.1041253"><ele>637.0</ele><time>2026-04-13T12:51:54.686Z</time></trkpt><trkpt lat="38.4012676" lon="-1.103783"><ele>638.0</ele><time>2026-04-13T12:51:55.686Z</time></trkpt><trkpt lat="38.4012827" lon="-1.1034422"><ele>639.0</ele><time>2026-04-13T12:51:56.686Z</time></trkpt><trkpt lat="38.4012962" lon="-1.1031122"><ele>639.0</ele><time>2026-04-13T12:51:57.686Z</time></trkpt><trkpt lat="38.4013124" lon="-1.1027866"><ele>639.0</ele><time>2026-04-13T12:51:58.686Z</time></trkpt><trkpt lat="38.4013309" lon="-1.1024701"><ele>640.0</ele><time>2026-04-13T12:51:59.686Z</time></trkpt><trkpt lat="38.4013544" lon="-1.1021627"><ele>641.0</ele><time>2026-04-13T12:52:00.686Z</time></trkpt><trkpt lat="38.4013942" lon="-1.1018587"><ele>641.0</ele><time>2026-04-13T12:52:01.686Z</time></trkpt><trkpt lat="38.4014528" lon="-1.1015546"><ele>641.0</ele><time>2026-04-13T12:52:02.687Z</time></trkpt><trkpt lat="38.4015232" lon="-1.1012524"><ele>641.0</ele><time>2026-04-13T12:52:03.686Z</time></trkpt><trkpt lat="38.4015944" lon="-1.1009572"><ele>641.0</ele><time>2026-04-13T12:52:04.686Z</time></trkpt><trkpt lat="38.4016665" lon="-1.1006657"><ele>639.5</ele><time>2026-04-13T12:52:05.686Z</time></trkpt><trkpt lat="38.4017403" lon="-1.1003731"><ele>638.0</ele><time>2026-04-13T12:52:06.686Z</time></trkpt><trkpt lat="38.4018107" lon="-1.1000837"><ele>636.0</ele><time>2026-04-13T12:52:07.686Z</time></trkpt><trkpt lat="38.4018819" lon="-1.0997905"><ele>634.0</ele><time>2026-04-13T12:52:08.686Z</time></trkpt><trkpt lat="38.4019547" lon="-1.0994965"><ele>634.0</ele><time>2026-04-13T12:52:09.686Z</time></trkpt><trkpt lat="38.4020259" lon="-1.0992058"><ele>634.0</ele><time>2026-04-13T12:52:10.686Z</time></trkpt><trkpt lat="38.4020988" lon="-1.0989164"><ele>635.0</ele><time>2026-04-13T12:52:11.686Z</time></trkpt><trkpt lat="38.4021697" lon="-1.0986288"><ele>636.0</ele><time>2026-04-13T12:52:12.686Z</time></trkpt><trkpt lat="38.4022408" lon="-1.098339"><ele>636.5</ele><time>2026-04-13T12:52:13.686Z</time></trkpt><trkpt lat="38.4023107" lon="-1.0980464"><ele>637.0</ele><time>2026-04-13T12:52:14.686Z</time></trkpt><trkpt lat="38.4023814" lon="-1.0977464"><ele>637.0</ele><time>2026-04-13T12:52:15.686Z</time></trkpt><trkpt lat="38.4024539" lon="-1.0974485"><ele>637.0</ele><time>2026-04-13T12:52:16.686Z</time></trkpt><trkpt lat="38.4025318" lon="-1.0971538"><ele>637.0</ele><time>2026-04-13T12:52:17.686Z</time></trkpt><trkpt lat="38.4026058" lon="-1.0968581"><ele>637.0</ele><time>2026-04-13T12:52:18.686Z</time></trkpt><trkpt lat="38.4026758" lon="-1.0965588"><ele>637.0</ele><time>2026-04-13T12:52:19.686Z</time></trkpt><trkpt lat="38.4027481" lon="-1.0962621"><ele>637.0</ele><time>2026-04-13T12:52:20.686Z</time></trkpt><trkpt lat="38.4028199" lon="-1.0959607"><ele>636.5</ele><time>2026-04-13T12:52:21.686Z</time></trkpt><trkpt lat="38.4029004" lon="-1.0956587"><ele>636.0</ele><time>2026-04-13T12:52:22.686Z</time></trkpt><trkpt lat="38.4029905" lon="-1.095356"><ele>636.5</ele><time>2026-04-13T12:52:23.686Z</time></trkpt><trkpt lat="38.4030867" lon="-1.0950552"><ele>637.0</ele><time>2026-04-13T12:52:24.686Z</time></trkpt><trkpt lat="38.4031862" lon="-1.0947468"><ele>637.0</ele><time>2026-04-13T12:52:25.686Z</time></trkpt><trkpt lat="38.4032859" lon="-1.0944411"><ele>637.0</ele><time>2026-04-13T12:52:26.686Z</time></trkpt><trkpt lat="38.4033865" lon="-1.09414"><ele>636.0</ele><time>2026-04-13T12:52:27.686Z</time></trkpt><trkpt lat="38.4034848" lon="-1.0938378"><ele>635.0</ele><time>2026-04-13T12:52:28.686Z</time></trkpt><trkpt lat="38.4035828" lon="-1.0935267"><ele>635.5</ele><time>2026-04-13T12:52:29.686Z</time></trkpt><trkpt lat="38.4036809" lon="-1.0932163"><ele>636.0</ele><time>2026-04-13T12:52:30.686Z</time></trkpt><trkpt lat="38.4037811" lon="-1.0929053"><ele>637.0</ele><time>2026-04-13T12:52:31.686Z</time></trkpt><trkpt lat="38.4038833" lon="-1.0926009"><ele>638.0</ele><time>2026-04-13T12:52:32.686Z</time></trkpt><trkpt lat="38.403985" lon="-1.0922946"><ele>638.0</ele><time>2026-04-13T12:52:33.686Z</time></trkpt><trkpt lat="38.4040868" lon="-1.0919902"><ele>638.0</ele><time>2026-04-13T12:52:34.687Z</time></trkpt><trkpt lat="38.4041877" lon="-1.0916901"><ele>638.0</ele><time>2026-04-13T12:52:35.686Z</time></trkpt><trkpt lat="38.4042874" lon="-1.0913874"><ele>638.0</ele><time>2026-04-13T12:52:36.686Z</time></trkpt><trkpt lat="38.4043845" lon="-1.091086"><ele>638.0</ele><time>2026-04-13T12:52:37.687Z</time></trkpt><trkpt lat="38.4044819" lon="-1.0907865"><ele>638.0</ele><time>2026-04-13T12:52:38.686Z</time></trkpt><trkpt lat="38.4045774" lon="-1.0904844"><ele>639.5</ele><time>2026-04-13T12:52:39.686Z</time></trkpt><trkpt lat="38.4046735" lon="-1.0901868"><ele>641.0</ele><time>2026-04-13T12:52:40.686Z</time></trkpt><trkpt lat="38.404771" lon="-1.0898886"><ele>642.5</ele><time>2026-04-13T12:52:41.686Z</time></trkpt><trkpt lat="38.4048664" lon="-1.0895926"><ele>644.0</ele><time>2026-04-13T12:52:42.686Z</time></trkpt><trkpt lat="38.404956" lon="-1.0892897"><ele>643.5</ele><time>2026-04-13T12:52:43.686Z</time></trkpt><trkpt lat="38.4050387" lon="-1.088985"><ele>643.0</ele><time>2026-04-13T12:52:44.686Z</time></trkpt><trkpt lat="38.4051112" lon="-1.0886759"><ele>643.0</ele><time>2026-04-13T12:52:45.686Z</time></trkpt><trkpt lat="38.405171" lon="-1.0883631"><ele>643.0</ele><time>2026-04-13T12:52:46.686Z</time></trkpt><trkpt lat="38.4052136" lon="-1.0880771"><ele>641.6666666666667</ele><time>2026-04-13T12:52:47.686Z</time></trkpt><trkpt lat="38.4052488" lon="-1.0877969"><ele>640.3333333333334</ele><time>2026-04-13T12:52:48.686Z</time></trkpt><trkpt lat="38.405273" lon="-1.0875089"><ele>639.0</ele><time>2026-04-13T12:52:49.686Z</time></trkpt><trkpt lat="38.4052971" lon="-1.0872103"><ele>637.5</ele><time>2026-04-13T12:52:50.686Z</time></trkpt><trkpt lat="38.4053219" lon="-1.0869031"><ele>636.0</ele><time>2026-04-13T12:52:51.686Z</time></trkpt><trkpt lat="38.4053446" lon="-1.0865902"><ele>635.0</ele><time>2026-04-13T12:52:52.686Z</time></trkpt><trkpt lat="38.4053688" lon="-1.0862739"><ele>634.0</ele><time>2026-04-13T12:52:53.686Z</time></trkpt><trkpt lat="38.4053915" lon="-1.0859522"><ele>632.5</ele><time>2026-04-13T12:52:54.686Z</time></trkpt><trkpt lat="38.4054104" lon="-1.0856274"><ele>631.0</ele><time>2026-04-13T12:52:55.686Z</time></trkpt><trkpt lat="38.4054269" lon="-1.085303"><ele>631.0</ele><time>2026-04-13T12:52:56.686Z</time></trkpt><trkpt lat="38.4054336" lon="-1.0849785"><ele>631.0</ele><time>2026-04-13T12:52:57.686Z</time></trkpt><trkpt lat="38.4054318" lon="-1.0846531"><ele>631.0</ele><time>2026-04-13T12:52:58.686Z</time></trkpt><trkpt lat="38.4054236" lon="-1.0843293"><ele>631.0</ele><time>2026-04-13T12:52:59.686Z</time></trkpt><trkpt lat="38.405408" lon="-1.0840071"><ele>629.5</ele><time>2026-04-13T12:53:00.686Z</time></trkpt><trkpt lat="38.405385" lon="-1.0836864"><ele>628.0</ele><time>2026-04-13T12:53:01.686Z</time></trkpt><trkpt lat="38.40536" lon="-1.0833712"><ele>627.5</ele><time>2026-04-13T12:53:02.686Z</time></trkpt><trkpt lat="38.4053301" lon="-1.0830799"><ele>627.0</ele><time>2026-04-13T12:53:03.686Z</time></trkpt><trkpt lat="38.4052973" lon="-1.0827998"><ele>627.0</ele><time>2026-04-13T12:53:04.686Z</time></trkpt><trkpt lat="38.4052612" lon="-1.0825282"><ele>627.0</ele><time>2026-04-13T12:53:05.686Z</time></trkpt><trkpt lat="38.4052197" lon="-1.0822642"><ele>627.0</ele><time>2026-04-13T12:53:06.686Z</time></trkpt><trkpt lat="38.4051738" lon="-1.0820078"><ele>626.6666666666666</ele><time>2026-04-13T12:53:07.686Z</time></trkpt><trkpt lat="38.4051206" lon="-1.081756"><ele>626.3333333333333</ele><time>2026-04-13T12:53:08.686Z</time></trkpt><trkpt lat="38.4050643" lon="-1.0814996"><ele>626.0</ele><time>2026-04-13T12:53:09.686Z</time></trkpt><trkpt lat="38.4050017" lon="-1.0812439"><ele>625.3333333333333</ele><time>2026-04-13T12:53:10.686Z</time></trkpt><trkpt lat="38.4049341" lon="-1.0809838"><ele>624.6666666666666</ele><time>2026-04-13T12:53:11.686Z</time></trkpt><trkpt lat="38.4048632" lon="-1.080722"><ele>624.0</ele><time>2026-04-13T12:53:12.687Z</time></trkpt><trkpt lat="38.404788" lon="-1.0804526"><ele>624.0</ele><time>2026-04-13T12:53:13.686Z</time></trkpt><trkpt lat="38.4047134" lon="-1.0801778"><ele>624.0</ele><time>2026-04-13T12:53:14.686Z</time></trkpt><trkpt lat="38.404643" lon="-1.0799009"><ele>620.5</ele><time>2026-04-13T12:53:15.686Z</time></trkpt><trkpt lat="38.4045715" lon="-1.0796177"><ele>617.0</ele><time>2026-04-13T12:53:16.686Z</time></trkpt><trkpt lat="38.404504" lon="-1.0793302"><ele>617.5</ele><time>2026-04-13T12:53:17.686Z</time></trkpt><trkpt lat="38.4044429" lon="-1.0790358"><ele>618.0</ele><time>2026-04-13T12:53:18.686Z</time></trkpt><trkpt lat="38.4043886" lon="-1.0787336"><ele>618.0</ele><time>2026-04-13T12:53:19.686Z</time></trkpt><trkpt lat="38.4043456" lon="-1.0784281"><ele>618.0</ele><time>2026-04-13T12:53:20.686Z</time></trkpt><trkpt lat="38.4043121" lon="-1.0781146"><ele>617.5</ele><time>2026-04-13T12:53:21.686Z</time></trkpt><trkpt lat="38.4042881" lon="-1.0777962"><ele>617.0</ele><time>2026-04-13T12:53:22.686Z</time></trkpt><trkpt lat="38.4042733" lon="-1.0774749"><ele>615.5</ele><time>2026-04-13T12:53:23.686Z</time></trkpt><trkpt lat="38.4042665" lon="-1.0771523"><ele>614.0</ele><time>2026-04-13T12:53:24.686Z</time></trkpt><trkpt lat="38.4042695" lon="-1.0768268"><ele>611.5</ele><time>2026-04-13T12:53:25.686Z</time></trkpt><trkpt lat="38.4042818" lon="-1.0765031"><ele>609.0</ele><time>2026-04-13T12:53:26.686Z</time></trkpt><trkpt lat="38.404304" lon="-1.0761825"><ele>609.0</ele><time>2026-04-13T12:53:27.686Z</time></trkpt><trkpt lat="38.4043315" lon="-1.0758628"><ele>609.0</ele><time>2026-04-13T12:53:28.686Z</time></trkpt><trkpt lat="38.404355" lon="-1.0755447"><ele>608.5</ele><time>2026-04-13T12:53:29.686Z</time></trkpt><trkpt lat="38.4043715" lon="-1.075223"><ele>608.0</ele><time>2026-04-13T12:53:30.686Z</time></trkpt><trkpt lat="38.4043846" lon="-1.0748955"><ele>607.5</ele><time>2026-04-13T12:53:31.686Z</time></trkpt><trkpt lat="38.4043854" lon="-1.0745823"><ele>607.0</ele><time>2026-04-13T12:53:32.686Z</time></trkpt><trkpt lat="38.4043759" lon="-1.074264"><ele>605.5</ele><time>2026-04-13T12:53:33.686Z</time></trkpt><trkpt lat="38.4043515" lon="-1.0739541"><ele>604.0</ele><time>2026-04-13T12:53:34.686Z</time></trkpt><trkpt lat="38.4043228" lon="-1.073649"><ele>604.0</ele><time>2026-04-13T12:53:35.686Z</time></trkpt><trkpt lat="38.4042822" lon="-1.0733535"><ele>604.0</ele><time>2026-04-13T12:53:36.686Z</time></trkpt><trkpt lat="38.4042338" lon="-1.0730635"><ele>604.0</ele><time>2026-04-13T12:53:37.686Z</time></trkpt><trkpt lat="38.4041826" lon="-1.0727806"><ele>604.0</ele><time>2026-04-13T12:53:38.686Z</time></trkpt><trkpt lat="38.4041302" lon="-1.0725017"><ele>603.0</ele><time>2026-04-13T12:53:39.686Z</time></trkpt><trkpt lat="38.4040797" lon="-1.0722245"><ele>602.0</ele><time>2026-04-13T12:53:40.686Z</time></trkpt><trkpt lat="38.4040266" lon="-1.0719519"><ele>601.0</ele><time>2026-04-13T12:53:41.686Z</time></trkpt><trkpt lat="38.4039745" lon="-1.0716787"><ele>600.6666666666667</ele><time>2026-04-13T12:53:42.686Z</time></trkpt><trkpt lat="38.4039216" lon="-1.0714099"><ele>600.3333333333334</ele><time>2026-04-13T12:53:43.686Z</time></trkpt><trkpt lat="38.403869" lon="-1.0711397"><ele>600.0</ele><time>2026-04-13T12:53:44.687Z</time></trkpt><trkpt lat="38.4038225" lon="-1.0708653"><ele>599.0</ele><time>2026-04-13T12:53:45.687Z</time></trkpt><trkpt lat="38.4037837" lon="-1.0705843"><ele>598.0</ele><time>2026-04-13T12:53:46.686Z</time></trkpt><trkpt lat="38.4037549" lon="-1.0702933"><ele>598.0</ele><time>2026-04-13T12:53:47.686Z</time></trkpt><trkpt lat="38.4037303" lon="-1.0699938"><ele>598.0</ele><time>2026-04-13T12:53:48.686Z</time></trkpt><trkpt lat="38.4037135" lon="-1.0696935"><ele>597.0</ele><time>2026-04-13T12:53:49.686Z</time></trkpt><trkpt lat="38.4037032" lon="-1.0693877"><ele>596.0</ele><time>2026-04-13T12:53:50.686Z</time></trkpt><trkpt lat="38.4036965" lon="-1.0690819"><ele>595.0</ele><time>2026-04-13T12:53:51.686Z</time></trkpt><trkpt lat="38.4036932" lon="-1.0687799"><ele>594.0</ele><time>2026-04-13T12:53:52.686Z</time></trkpt><trkpt lat="38.403687" lon="-1.0684749"><ele>593.5</ele><time>2026-04-13T12:53:53.686Z</time></trkpt><trkpt lat="38.4036855" lon="-1.0681741"><ele>593.0</ele><time>2026-04-13T12:53:54.686Z</time></trkpt><trkpt lat="38.4036824" lon="-1.0678758"><ele>593.0</ele><time>2026-04-13T12:53:55.686Z</time></trkpt><trkpt lat="38.4036792" lon="-1.0675728"><ele>593.0</ele><time>2026-04-13T12:53:56.686Z</time></trkpt><trkpt lat="38.4036767" lon="-1.0672705"><ele>591.5</ele><time>2026-04-13T12:53:57.687Z</time></trkpt><trkpt lat="38.4036744" lon="-1.066964"><ele>590.0</ele><time>2026-04-13T12:53:58.686Z</time></trkpt><trkpt lat="38.403673" lon="-1.0666556"><ele>588.5</ele><time>2026-04-13T12:53:59.686Z</time></trkpt><trkpt lat="38.4036703" lon="-1.0663468"><ele>587.0</ele><time>2026-04-13T12:54:00.686Z</time></trkpt><trkpt lat="38.4036676" lon="-1.0660395"><ele>586.5</ele><time>2026-04-13T12:54:01.686Z</time></trkpt><trkpt lat="38.4036654" lon="-1.0657329"><ele>586.0</ele><time>2026-04-13T12:54:02.686Z</time></trkpt><trkpt lat="38.4036606" lon="-1.0654272"><ele>586.0</ele><time>2026-04-13T12:54:03.686Z</time></trkpt><trkpt lat="38.4036561" lon="-1.0651287"><ele>586.0</ele><time>2026-04-13T12:54:04.686Z</time></trkpt><trkpt lat="38.4036514" lon="-1.0648322"><ele>585.5</ele><time>2026-04-13T12:54:05.686Z</time></trkpt><trkpt lat="38.4036449" lon="-1.0645362"><ele>585.0</ele><time>2026-04-13T12:54:06.686Z</time></trkpt><trkpt lat="38.4036367" lon="-1.0642466"><ele>585.5</ele><time>2026-04-13T12:54:07.686Z</time></trkpt><trkpt lat="38.4036262" lon="-1.0639474"><ele>586.0</ele><time>2026-04-13T12:54:08.686Z</time></trkpt><trkpt lat="38.4036111" lon="-1.0636596"><ele>586.0</ele><time>2026-04-13T12:54:09.686Z</time></trkpt><trkpt lat="38.4035929" lon="-1.0633656"><ele>586.0</ele><time>2026-04-13T12:54:10.686Z</time></trkpt><trkpt lat="38.4035756" lon="-1.0630805"><ele>585.0</ele><time>2026-04-13T12:54:11.686Z</time></trkpt><trkpt lat="38.4035489" lon="-1.0627892"><ele>584.0</ele><time>2026-04-13T12:54:12.686Z</time></trkpt><trkpt lat="38.4035178" lon="-1.0625044"><ele>583.6666666666666</ele><time>2026-04-13T12:54:13.686Z</time></trkpt><trkpt lat="38.4034843" lon="-1.0622226"><ele>583.3333333333334</ele><time>2026-04-13T12:54:14.686Z</time></trkpt><trkpt lat="38.4034463" lon="-1.061945"><ele>583.0</ele><time>2026-04-13T12:54:15.686Z</time></trkpt><trkpt lat="38.4034062" lon="-1.0616762"><ele>582.5</ele><time>2026-04-13T12:54:16.686Z</time></trkpt><trkpt lat="38.4033588" lon="-1.0613916"><ele>582.0</ele><time>2026-04-13T12:54:17.686Z</time></trkpt><trkpt lat="38.4033116" lon="-1.0611013"><ele>582.0</ele><time>2026-04-13T12:54:18.686Z</time></trkpt><trkpt lat="38.4032651" lon="-1.060822"><ele>582.0</ele><time>2026-04-13T12:54:19.686Z</time></trkpt><trkpt lat="38.4032202" lon="-1.0605384"><ele>581.5</ele><time>2026-04-13T12:54:20.686Z</time></trkpt><trkpt lat="38.4031791" lon="-1.0602471"><ele>581.0</ele><time>2026-04-13T12:54:21.686Z</time></trkpt><trkpt lat="38.4031413" lon="-1.0599516"><ele>581.0</ele><time>2026-04-13T12:54:22.686Z</time></trkpt><trkpt lat="38.4031096" lon="-1.0596613"><ele>581.0</ele><time>2026-04-13T12:54:23.686Z</time></trkpt><trkpt lat="38.4030818" lon="-1.0593691"><ele>580.0</ele><time>2026-04-13T12:54:24.686Z</time></trkpt><trkpt lat="38.4030568" lon="-1.0590714"><ele>579.0</ele><time>2026-04-13T12:54:25.686Z</time></trkpt><trkpt lat="38.4030316" lon="-1.0587789"><ele>579.0</ele><time>2026-04-13T12:54:26.686Z</time></trkpt><trkpt lat="38.4030073" lon="-1.0584835"><ele>579.0</ele><time>2026-04-13T12:54:27.686Z</time></trkpt><trkpt lat="38.402988" lon="-1.0581943"><ele>578.0</ele><time>2026-04-13T12:54:28.686Z</time></trkpt><trkpt lat="38.4029684" lon="-1.0579066"><ele>577.0</ele><time>2026-04-13T12:54:29.686Z</time></trkpt><trkpt lat="38.4029409" lon="-1.0576227"><ele>576.6666666666667</ele><time>2026-04-13T12:54:30.686Z</time></trkpt><trkpt lat="38.4029219" lon="-1.0573372"><ele>576.3333333333334</ele><time>2026-04-13T12:54:31.686Z</time></trkpt><trkpt lat="38.4029031" lon="-1.0570653"><ele>576.0</ele><time>2026-04-13T12:54:32.687Z</time></trkpt><trkpt lat="38.4028863" lon="-1.056804"><ele>575.6666666666666</ele><time>2026-04-13T12:54:33.686Z</time></trkpt><trkpt lat="38.4028702" lon="-1.0565471"><ele>575.3333333333333</ele><time>2026-04-13T12:54:34.686Z</time></trkpt><trkpt lat="38.4028538" lon="-1.0562987"><ele>575.0</ele><time>2026-04-13T12:54:35.686Z</time></trkpt><trkpt lat="38.40284" lon="-1.0560558"><ele>575.0</ele><time>2026-04-13T12:54:36.686Z</time></trkpt><trkpt lat="38.4028286" lon="-1.0558086"><ele>575.0</ele><time>2026-04-13T12:54:37.687Z</time></trkpt><trkpt lat="38.4028244" lon="-1.055566"><ele>575.0</ele><time>2026-04-13T12:54:38.686Z</time></trkpt><trkpt lat="38.4028217" lon="-1.055326"><ele>574.6666666666666</ele><time>2026-04-13T12:54:39.686Z</time></trkpt><trkpt lat="38.4028182" lon="-1.0551026"><ele>574.3333333333334</ele><time>2026-04-13T12:54:40.686Z</time></trkpt><trkpt lat="38.402815" lon="-1.0548798"><ele>574.0</ele><time>2026-04-13T12:54:41.686Z</time></trkpt><trkpt lat="38.4028141" lon="-1.0546608"><ele>574.0</ele><time>2026-04-13T12:54:42.686Z</time></trkpt><trkpt lat="38.4028125" lon="-1.0544491"><ele>574.0</ele><time>2026-04-13T12:54:43.686Z</time></trkpt><trkpt lat="38.4028095" lon="-1.0542447"><ele>574.0</ele><time>2026-04-13T12:54:44.686Z</time></trkpt><trkpt lat="38.4028081" lon="-1.0540484"><ele>574.0</ele><time>2026-04-13T12:54:45.686Z</time></trkpt><trkpt lat="38.4028072" lon="-1.0538698"><ele>574.0</ele><time>2026-04-13T12:54:46.686Z</time></trkpt><trkpt lat="38.4028059" lon="-1.053701"><ele>574.0</ele><time>2026-04-13T12:54:47.686Z</time></trkpt><trkpt lat="38.4028049" lon="-1.0535474"><ele>574.0</ele><time>2026-04-13T12:54:48.686Z</time></trkpt><trkpt lat="38.4028043" lon="-1.0534213"><ele>574.0</ele><time>2026-04-13T12:54:49.686Z</time></trkpt><trkpt lat="38.4028001" lon="-1.053335"><ele>574.0</ele><time>2026-04-13T12:54:50.686Z</time></trkpt><trkpt lat="38.402801" lon="-1.0531869"><ele>574.0</ele><time>2026-04-13T12:54:52.686Z</time></trkpt><trkpt lat="38.4027956" lon="-1.0530928"><ele>574.0</ele><time>2026-04-13T12:54:53.686Z</time></trkpt><trkpt lat="38.4027862" lon="-1.0529893"><ele>574.0</ele><time>2026-04-13T12:54:54.686Z</time></trkpt><trkpt lat="38.4027654" lon="-1.0528797"><ele>574.0</ele><time>2026-04-13T12:54:55.686Z</time></trkpt><trkpt lat="38.4027235" lon="-1.0527754"><ele>573.8333333333334</ele><time>2026-04-13T12:54:56.686Z</time></trkpt><trkpt lat="38.4026789" lon="-1.0526752"><ele>573.6666666666667</ele><time>2026-04-13T12:54:57.686Z</time></trkpt><trkpt lat="38.4026394" lon="-1.052574"><ele>573.5</ele><time>2026-04-13T12:54:58.686Z</time></trkpt><trkpt lat="38.4026363" lon="-1.052458"><ele>573.3333333333334</ele><time>2026-04-13T12:54:59.686Z</time></trkpt><trkpt lat="38.402658" lon="-1.052353"><ele>573.1666666666666</ele><time>2026-04-13T12:55:00.686Z</time></trkpt><trkpt lat="38.402702" lon="-1.0522633"><ele>573.0</ele><time>2026-04-13T12:55:01.686Z</time></trkpt><trkpt lat="38.4027702" lon="-1.0521819"><ele>573.4</ele><time>2026-04-13T12:55:02.686Z</time></trkpt><trkpt lat="38.402871" lon="-1.0521416"><ele>573.8</ele><time>2026-04-13T12:55:03.686Z</time></trkpt><trkpt lat="38.4029612" lon="-1.0520816"><ele>574.2</ele><time>2026-04-13T12:55:04.686Z</time></trkpt><trkpt lat="38.4030482" lon="-1.0519915"><ele>574.6</ele><time>2026-04-13T12:55:05.686Z</time></trkpt><trkpt lat="38.403117" lon="-1.0518802"><ele>575.0</ele><time>2026-04-13T12:55:06.686Z</time></trkpt><trkpt lat="38.4031693" lon="-1.0517495"><ele>574.75</ele><time>2026-04-13T12:55:07.686Z</time></trkpt><trkpt lat="38.4032159" lon="-1.0515961"><ele>574.5</ele><time>2026-04-13T12:55:08.686Z</time></trkpt><trkpt lat="38.4032612" lon="-1.0514357"><ele>574.25</ele><time>2026-04-13T12:55:09.686Z</time></trkpt><trkpt lat="38.4033035" lon="-1.0512645"><ele>574.0</ele><time>2026-04-13T12:55:10.686Z</time></trkpt><trkpt lat="38.4033538" lon="-1.0511033"><ele>574.0</ele><time>2026-04-13T12:55:11.686Z</time></trkpt><trkpt lat="38.4034071" lon="-1.050928"><ele>574.0</ele><time>2026-04-13T12:55:12.686Z</time></trkpt><trkpt lat="38.4034627" lon="-1.0507494"><ele>574.0</ele><time>2026-04-13T12:55:13.686Z</time></trkpt><trkpt lat="38.4035254" lon="-1.0505639"><ele>573.6666666666667</ele><time>2026-04-13T12:55:14.686Z</time></trkpt><trkpt lat="38.403589" lon="-1.0503827"><ele>573.3333333333334</ele><time>2026-04-13T12:55:15.686Z</time></trkpt><trkpt lat="38.4036558" lon="-1.0501897"><ele>573.0</ele><time>2026-04-13T12:55:16.686Z</time></trkpt><trkpt lat="38.4037231" lon="-1.0500021"><ele>573.0</ele><time>2026-04-13T12:55:17.686Z</time></trkpt><trkpt lat="38.4037946" lon="-1.0498072"><ele>573.0</ele><time>2026-04-13T12:55:18.686Z</time></trkpt><trkpt lat="38.4038728" lon="-1.0496117"><ele>573.0</ele><time>2026-04-13T12:55:19.686Z</time></trkpt><trkpt lat="38.4039605" lon="-1.0494097"><ele>573.0</ele><time>2026-04-13T12:55:20.686Z</time></trkpt><trkpt lat="38.4040505" lon="-1.0492016"><ele>573.0</ele><time>2026-04-13T12:55:21.686Z</time></trkpt><trkpt lat="38.4041519" lon="-1.0489853"><ele>573.0</ele><time>2026-04-13T12:55:22.686Z</time></trkpt><trkpt lat="38.4042567" lon="-1.0487774"><ele>572.6666666666666</ele><time>2026-04-13T12:55:23.686Z</time></trkpt><trkpt lat="38.4043679" lon="-1.0485696"><ele>572.3333333333333</ele><time>2026-04-13T12:55:24.686Z</time></trkpt><trkpt lat="38.4044833" lon="-1.0483654"><ele>572.0</ele><time>2026-04-13T12:55:25.687Z</time></trkpt><trkpt lat="38.4046031" lon="-1.0481638"><ele>572.0</ele><time>2026-04-13T12:55:26.686Z</time></trkpt><trkpt lat="38.4047244" lon="-1.0479651"><ele>572.0</ele><time>2026-04-13T12:55:27.686Z</time></trkpt><trkpt lat="38.4048485" lon="-1.0477718"><ele>572.0</ele><time>2026-04-13T12:55:28.686Z</time></trkpt><trkpt lat="38.4049771" lon="-1.0475761"><ele>571.6666666666666</ele><time>2026-04-13T12:55:29.686Z</time></trkpt><trkpt lat="38.4051047" lon="-1.0473895"><ele>571.3333333333334</ele><time>2026-04-13T12:55:30.686Z</time></trkpt><trkpt lat="38.4052334" lon="-1.0472028"><ele>571.0</ele><time>2026-04-13T12:55:31.686Z</time></trkpt><trkpt lat="38.4053698" lon="-1.047019"><ele>571.6666666666667</ele><time>2026-04-13T12:55:32.686Z</time></trkpt><trkpt lat="38.4055063" lon="-1.0468364"><ele>572.3333333333334</ele><time>2026-04-13T12:55:33.686Z</time></trkpt><trkpt lat="38.4056443" lon="-1.0466527"><ele>573.0</ele><time>2026-04-13T12:55:34.686Z</time></trkpt><trkpt lat="38.4057853" lon="-1.0464711"><ele>573.0</ele><time>2026-04-13T12:55:35.686Z</time></trkpt><trkpt lat="38.4059149" lon="-1.0463015"><ele>573.0</ele><time>2026-04-13T12:55:36.686Z</time></trkpt><trkpt lat="38.4060434" lon="-1.0461426"><ele>573.0</ele><time>2026-04-13T12:55:37.686Z</time></trkpt><trkpt lat="38.4061585" lon="-1.0459955"><ele>573.0</ele><time>2026-04-13T12:55:38.686Z</time></trkpt><trkpt lat="38.4062735" lon="-1.0458576"><ele>573.0</ele><time>2026-04-13T12:55:39.686Z</time></trkpt><trkpt lat="38.4063771" lon="-1.0457347"><ele>573.0</ele><time>2026-04-13T12:55:40.686Z</time></trkpt><trkpt lat="38.4064701" lon="-1.0456188"><ele>573.0</ele><time>2026-04-13T12:55:41.686Z</time></trkpt><trkpt lat="38.4065496" lon="-1.0455286"><ele>573.6</ele><time>2026-04-13T12:55:42.686Z</time></trkpt><trkpt lat="38.4066189" lon="-1.045452"><ele>574.1999999999999</ele><time>2026-04-13T12:55:43.686Z</time></trkpt><trkpt lat="38.4066844" lon="-1.0453732"><ele>574.8</ele><time>2026-04-13T12:55:44.686Z</time></trkpt><trkpt lat="38.4067521" lon="-1.0452975"><ele>575.4</ele><time>2026-04-13T12:55:45.686Z</time></trkpt><trkpt lat="38.4068264" lon="-1.0452193"><ele>576.0</ele><time>2026-04-13T12:55:46.686Z</time></trkpt><trkpt lat="38.406904" lon="-1.0451372"><ele>576.0</ele><time>2026-04-13T12:55:47.686Z</time></trkpt><trkpt lat="38.4069863" lon="-1.0450533"><ele>576.0</ele><time>2026-04-13T12:55:48.686Z</time></trkpt><trkpt lat="38.4070726" lon="-1.0449625"><ele>576.0</ele><time>2026-04-13T12:55:49.686Z</time></trkpt><trkpt lat="38.4071639" lon="-1.0448724"><ele>576.0</ele><time>2026-04-13T12:55:50.687Z</time></trkpt><trkpt lat="38.4072562" lon="-1.0447775"><ele>575.5</ele><time>2026-04-13T12:55:51.686Z</time></trkpt><trkpt lat="38.407351" lon="-1.0446825"><ele>575.0</ele><time>2026-04-13T12:55:52.686Z</time></trkpt><trkpt lat="38.4074468" lon="-1.0445817"><ele>574.5</ele><time>2026-04-13T12:55:53.686Z</time></trkpt><trkpt lat="38.4075492" lon="-1.0444757"><ele>574.0</ele><time>2026-04-13T12:55:54.686Z</time></trkpt><trkpt lat="38.4076529" lon="-1.044375"><ele>574.0</ele><time>2026-04-13T12:55:55.686Z</time></trkpt><trkpt lat="38.4077617" lon="-1.0442668"><ele>574.0</ele><time>2026-04-13T12:55:56.686Z</time></trkpt><trkpt lat="38.4078821" lon="-1.0441586"><ele>574.0</ele><time>2026-04-13T12:55:57.686Z</time></trkpt><trkpt lat="38.4080045" lon="-1.0440434"><ele>574.0</ele><time>2026-04-13T12:55:58.686Z</time></trkpt><trkpt lat="38.4081333" lon="-1.0439258"><ele>575.3333333333334</ele><time>2026-04-13T12:55:59.686Z</time></trkpt><trkpt lat="38.4082669" lon="-1.0438041"><ele>576.6666666666666</ele><time>2026-04-13T12:56:00.686Z</time></trkpt><trkpt lat="38.408405" lon="-1.0436808"><ele>578.0</ele><time>2026-04-13T12:56:01.686Z</time></trkpt><trkpt lat="38.4085471" lon="-1.043556"><ele>578.0</ele><time>2026-04-13T12:56:02.686Z</time></trkpt><trkpt lat="38.4086917" lon="-1.0434352"><ele>578.0</ele><time>2026-04-13T12:56:03.686Z</time></trkpt><trkpt lat="38.4088346" lon="-1.0433145"><ele>578.0</ele><time>2026-04-13T12:56:04.686Z</time></trkpt><trkpt lat="38.4089785" lon="-1.0431942"><ele>581.0</ele><time>2026-04-13T12:56:05.686Z</time></trkpt><trkpt lat="38.4091272" lon="-1.0430704"><ele>584.0</ele><time>2026-04-13T12:56:06.686Z</time></trkpt><trkpt lat="38.409277" lon="-1.0429493"><ele>587.0</ele><time>2026-04-13T12:56:07.686Z</time></trkpt><trkpt lat="38.4094319" lon="-1.0428323"><ele>587.0</ele><time>2026-04-13T12:56:08.686Z</time></trkpt><trkpt lat="38.4095814" lon="-1.0427171"><ele>587.0</ele><time>2026-04-13T12:56:09.686Z</time></trkpt><trkpt lat="38.4097249" lon="-1.0426057"><ele>587.0</ele><time>2026-04-13T12:56:10.686Z</time></trkpt><trkpt lat="38.4098644" lon="-1.0424939"><ele>590.0</ele><time>2026-04-13T12:56:11.686Z</time></trkpt><trkpt lat="38.4100036" lon="-1.0423832"><ele>593.0</ele><time>2026-04-13T12:56:12.686Z</time></trkpt><trkpt lat="38.4101472" lon="-1.042273"><ele>596.0</ele><time>2026-04-13T12:56:13.686Z</time></trkpt><trkpt lat="38.4102902" lon="-1.0421583"><ele>596.0</ele><time>2026-04-13T12:56:14.686Z</time></trkpt><trkpt lat="38.4104315" lon="-1.042046"><ele>596.0</ele><time>2026-04-13T12:56:15.686Z</time></trkpt><trkpt lat="38.4105724" lon="-1.041934"><ele>596.0</ele><time>2026-04-13T12:56:16.686Z</time></trkpt><trkpt lat="38.4107078" lon="-1.0418234"><ele>596.0</ele><time>2026-04-13T12:56:17.687Z</time></trkpt><trkpt lat="38.4108363" lon="-1.0417079"><ele>596.0</ele><time>2026-04-13T12:56:18.686Z</time></trkpt><trkpt lat="38.4109552" lon="-1.0415967"><ele>596.0</ele><time>2026-04-13T12:56:19.686Z</time></trkpt><trkpt lat="38.4110556" lon="-1.0414805"><ele>596.0</ele><time>2026-04-13T12:56:20.686Z</time></trkpt><trkpt lat="38.4111465" lon="-1.041361"><ele>596.0</ele><time>2026-04-13T12:56:21.686Z</time></trkpt><trkpt lat="38.4112318" lon="-1.0412452"><ele>596.0</ele><time>2026-04-13T12:56:22.686Z</time></trkpt><trkpt lat="38.4113115" lon="-1.0411194"><ele>596.0</ele><time>2026-04-13T12:56:23.686Z</time></trkpt><trkpt lat="38.4113864" lon="-1.0409861"><ele>596.0</ele><time>2026-04-13T12:56:24.686Z</time></trkpt><trkpt lat="38.4114535" lon="-1.0408429"><ele>594.0</ele><time>2026-04-13T12:56:25.686Z</time></trkpt><trkpt lat="38.4115134" lon="-1.0406921"><ele>592.0</ele><time>2026-04-13T12:56:26.686Z</time></trkpt><trkpt lat="38.4115663" lon="-1.0405409"><ele>590.0</ele><time>2026-04-13T12:56:27.686Z</time></trkpt><trkpt lat="38.4116078" lon="-1.0404"><ele>588.0</ele><time>2026-04-13T12:56:28.686Z</time></trkpt><trkpt lat="38.4116431" lon="-1.0402668"><ele>588.0</ele><time>2026-04-13T12:56:29.686Z</time></trkpt><trkpt lat="38.4116681" lon="-1.0401548"><ele>588.0</ele><time>2026-04-13T12:56:30.686Z</time></trkpt><trkpt lat="38.4116885" lon="-1.0400311"><ele>588.0</ele><time>2026-04-13T12:56:31.686Z</time></trkpt><trkpt lat="38.4116885" lon="-1.0399151"><ele>588.0</ele><time>2026-04-13T12:56:32.686Z</time></trkpt><trkpt lat="38.4116648" lon="-1.0398018"><ele>588.0</ele><time>2026-04-13T12:56:33.686Z</time></trkpt><trkpt lat="38.411629" lon="-1.0397"><ele>587.8</ele><time>2026-04-13T12:56:34.686Z</time></trkpt><trkpt lat="38.4115742" lon="-1.039603"><ele>587.5999999999999</ele><time>2026-04-13T12:56:35.686Z</time></trkpt><trkpt lat="38.4115158" lon="-1.0394957"><ele>587.4000000000001</ele><time>2026-04-13T12:56:36.686Z</time></trkpt><trkpt lat="38.4114711" lon="-1.039379"><ele>587.2</ele><time>2026-04-13T12:56:37.686Z</time></trkpt><trkpt lat="38.4114485" lon="-1.0392443"><ele>587.0</ele><time>2026-04-13T12:56:38.686Z</time></trkpt><trkpt lat="38.4114537" lon="-1.0391106"><ele>586.8333333333333</ele><time>2026-04-13T12:56:39.686Z</time></trkpt><trkpt lat="38.4114808" lon="-1.0389879"><ele>586.6666666666666</ele><time>2026-04-13T12:56:40.686Z</time></trkpt><trkpt lat="38.4114957" lon="-1.0388754"><ele>586.5</ele><time>2026-04-13T12:56:41.686Z</time></trkpt><trkpt lat="38.4114867" lon="-1.0387769"><ele>586.3333333333334</ele><time>2026-04-13T12:56:42.686Z</time></trkpt><trkpt lat="38.4114453" lon="-1.038687"><ele>586.1666666666667</ele><time>2026-04-13T12:56:43.686Z</time></trkpt><trkpt lat="38.4113844" lon="-1.0386035"><ele>586.0</ele><time>2026-04-13T12:56:44.686Z</time></trkpt><trkpt lat="38.4113111" lon="-1.0385175"><ele>585.5</ele><time>2026-04-13T12:56:45.686Z</time></trkpt><trkpt lat="38.4112267" lon="-1.0384258"><ele>585.0</ele><time>2026-04-13T12:56:46.686Z</time></trkpt><trkpt lat="38.4111368" lon="-1.0383291"><ele>584.5</ele><time>2026-04-13T12:56:47.686Z</time></trkpt><trkpt lat="38.4110468" lon="-1.0382257"><ele>584.0</ele><time>2026-04-13T12:56:48.686Z</time></trkpt><trkpt lat="38.4109578" lon="-1.038124"><ele>584.0</ele><time>2026-04-13T12:56:49.686Z</time></trkpt><trkpt lat="38.4108658" lon="-1.0380201"><ele>584.0</ele><time>2026-04-13T12:56:50.686Z</time></trkpt><trkpt lat="38.4107748" lon="-1.0379085"><ele>584.0</ele><time>2026-04-13T12:56:51.686Z</time></trkpt><trkpt lat="38.4106783" lon="-1.0377962"><ele>584.0</ele><time>2026-04-13T12:56:52.686Z</time></trkpt><trkpt lat="38.410587" lon="-1.0376791"><ele>584.0</ele><time>2026-04-13T12:56:53.686Z</time></trkpt><trkpt lat="38.4104929" lon="-1.03756"><ele>584.0</ele><time>2026-04-13T12:56:54.686Z</time></trkpt><trkpt lat="38.4103917" lon="-1.0374352"><ele>584.0</ele><time>2026-04-13T12:56:55.686Z</time></trkpt><trkpt lat="38.4102876" lon="-1.0373089"><ele>584.0</ele><time>2026-04-13T12:56:56.687Z</time></trkpt><trkpt lat="38.4101871" lon="-1.0371847"><ele>583.6666666666666</ele><time>2026-04-13T12:56:57.686Z</time></trkpt><trkpt lat="38.410081" lon="-1.0370435"><ele>583.3333333333334</ele><time>2026-04-13T12:56:58.686Z</time></trkpt><trkpt lat="38.4099771" lon="-1.036907"><ele>583.0</ele><time>2026-04-13T12:56:59.686Z</time></trkpt><trkpt lat="38.4098698" lon="-1.0367609"><ele>583.3333333333334</ele><time>2026-04-13T12:57:00.686Z</time></trkpt><trkpt lat="38.4097651" lon="-1.0366114"><ele>583.6666666666666</ele><time>2026-04-13T12:57:01.686Z</time></trkpt><trkpt lat="38.4096576" lon="-1.0364554"><ele>584.0</ele><time>2026-04-13T12:57:02.686Z</time></trkpt><trkpt lat="38.4095535" lon="-1.0362986"><ele>583.0</ele><time>2026-04-13T12:57:03.686Z</time></trkpt><trkpt lat="38.4094509" lon="-1.0361398"><ele>582.0</ele><time>2026-04-13T12:57:04.687Z</time></trkpt><trkpt lat="38.409349" lon="-1.0359796"><ele>581.0</ele><time>2026-04-13T12:57:05.686Z</time></trkpt><trkpt lat="38.4092495" lon="-1.0358209"><ele>581.0</ele><time>2026-04-13T12:57:06.686Z</time></trkpt><trkpt lat="38.4091511" lon="-1.0356618"><ele>581.0</ele><time>2026-04-13T12:57:07.686Z</time></trkpt><trkpt lat="38.409057" lon="-1.0355018"><ele>581.0</ele><time>2026-04-13T12:57:08.686Z</time></trkpt><trkpt lat="38.408959" lon="-1.0353438"><ele>581.0</ele><time>2026-04-13T12:57:09.686Z</time></trkpt><trkpt lat="38.408864" lon="-1.035189"><ele>581.0</ele><time>2026-04-13T12:57:10.686Z</time></trkpt><trkpt lat="38.4087688" lon="-1.035038"><ele>581.0</ele><time>2026-04-13T12:57:11.686Z</time></trkpt><trkpt lat="38.4086726" lon="-1.0348919"><ele>581.6</ele><time>2026-04-13T12:57:12.686Z</time></trkpt><trkpt lat="38.4085877" lon="-1.034768"><ele>582.2</ele><time>2026-04-13T12:57:13.686Z</time></trkpt><trkpt lat="38.4085193" lon="-1.0346678"><ele>582.8</ele><time>2026-04-13T12:57:14.686Z</time></trkpt><trkpt lat="38.4084577" lon="-1.0345764"><ele>583.4</ele><time>2026-04-13T12:57:15.686Z</time></trkpt><trkpt lat="38.4083932" lon="-1.0344853"><ele>584.0</ele><time>2026-04-13T12:57:16.686Z</time></trkpt><trkpt lat="38.4083232" lon="-1.0343883"><ele>584.0</ele><time>2026-04-13T12:57:17.686Z</time></trkpt><trkpt lat="38.4082504" lon="-1.0342868"><ele>584.0</ele><time>2026-04-13T12:57:18.686Z</time></trkpt><trkpt lat="38.4081706" lon="-1.0341813"><ele>584.0</ele><time>2026-04-13T12:57:19.686Z</time></trkpt><trkpt lat="38.4080848" lon="-1.0340707"><ele>584.0</ele><time>2026-04-13T12:57:20.686Z</time></trkpt><trkpt lat="38.4079913" lon="-1.0339543"><ele>583.5</ele><time>2026-04-13T12:57:21.687Z</time></trkpt><trkpt lat="38.4078902" lon="-1.0338386"><ele>583.0</ele><time>2026-04-13T12:57:22.686Z</time></trkpt><trkpt lat="38.4077822" lon="-1.0337153"><ele>582.5</ele><time>2026-04-13T12:57:23.686Z</time></trkpt><trkpt lat="38.4076673" lon="-1.0335867"><ele>582.0</ele><time>2026-04-13T12:57:24.686Z</time></trkpt><trkpt lat="38.4075484" lon="-1.0334589"><ele>582.0</ele><time>2026-04-13T12:57:25.686Z</time></trkpt><trkpt lat="38.4074188" lon="-1.0333269"><ele>582.0</ele><time>2026-04-13T12:57:26.686Z</time></trkpt><trkpt lat="38.407287" lon="-1.0331937"><ele>582.0</ele><time>2026-04-13T12:57:27.686Z</time></trkpt><trkpt lat="38.4071486" lon="-1.0330598"><ele>582.6666666666666</ele><time>2026-04-13T12:57:28.686Z</time></trkpt><trkpt lat="38.407019" lon="-1.0329356"><ele>583.3333333333333</ele><time>2026-04-13T12:57:29.686Z</time></trkpt><trkpt lat="38.4068744" lon="-1.0328053"><ele>584.0</ele><time>2026-04-13T12:57:30.686Z</time></trkpt><trkpt lat="38.406735" lon="-1.0326847"><ele>584.0</ele><time>2026-04-13T12:57:31.686Z</time></trkpt><trkpt lat="38.4065893" lon="-1.0325709"><ele>584.0</ele><time>2026-04-13T12:57:32.686Z</time></trkpt><trkpt lat="38.4064467" lon="-1.032461"><ele>584.0</ele><time>2026-04-13T12:57:33.686Z</time></trkpt><trkpt lat="38.4063036" lon="-1.0323553"><ele>583.3333333333333</ele><time>2026-04-13T12:57:34.686Z</time></trkpt><trkpt lat="38.4061584" lon="-1.0322474"><ele>582.6666666666666</ele><time>2026-04-13T12:57:35.686Z</time></trkpt><trkpt lat="38.406021" lon="-1.0321515"><ele>582.0</ele><time>2026-04-13T12:57:36.686Z</time></trkpt><trkpt lat="38.40589" lon="-1.0320656"><ele>582.0</ele><time>2026-04-13T12:57:37.686Z</time></trkpt><trkpt lat="38.4057634" lon="-1.0319763"><ele>582.0</ele><time>2026-04-13T12:57:38.686Z</time></trkpt><trkpt lat="38.4056502" lon="-1.0319006"><ele>582.0</ele><time>2026-04-13T12:57:39.686Z</time></trkpt><trkpt lat="38.4055586" lon="-1.0318355"><ele>582.0</ele><time>2026-04-13T12:57:40.686Z</time></trkpt><trkpt lat="38.4054795" lon="-1.031781"><ele>581.8000000000001</ele><time>2026-04-13T12:57:41.686Z</time></trkpt><trkpt lat="38.405413" lon="-1.0317434"><ele>581.6</ele><time>2026-04-13T12:57:42.686Z</time></trkpt><trkpt lat="38.4053016" lon="-1.0317007"><ele>581.4000000000001</ele><time>2026-04-13T12:57:44.686Z</time></trkpt><trkpt lat="38.4051928" lon="-1.0316861"><ele>581.2</ele><time>2026-04-13T12:57:46.686Z</time></trkpt><trkpt lat="38.4050636" lon="-1.0317158"><ele>581.0</ele><time>2026-04-13T12:57:48.686Z</time></trkpt><trkpt lat="38.4049905" lon="-1.0317464"><ele>581.0</ele><time>2026-04-13T12:57:49.686Z</time></trkpt><trkpt lat="38.404917" lon="-1.0317692"><ele>581.0</ele><time>2026-04-13T12:57:50.686Z</time></trkpt><trkpt lat="38.4048418" lon="-1.0317722"><ele>581.0</ele><time>2026-04-13T12:57:51.687Z</time></trkpt><trkpt lat="38.404768" lon="-1.0317544"><ele>581.0</ele><time>2026-04-13T12:57:52.686Z</time></trkpt><trkpt lat="38.4046983" lon="-1.0317141"><ele>581.0</ele><time>2026-04-13T12:57:53.686Z</time></trkpt><trkpt lat="38.4046353" lon="-1.0316496"><ele>581.0</ele><time>2026-04-13T12:57:54.686Z</time></trkpt><trkpt lat="38.4045809" lon="-1.0315659"><ele>580.8333333333333</ele><time>2026-04-13T12:57:55.686Z</time></trkpt><trkpt lat="38.4045449" lon="-1.0314641"><ele>580.6666666666666</ele><time>2026-04-13T12:57:56.686Z</time></trkpt><trkpt lat="38.404532" lon="-1.031354"><ele>580.5</ele><time>2026-04-13T12:57:57.686Z</time></trkpt><trkpt lat="38.4045458" lon="-1.0312422"><ele>580.3333333333334</ele><time>2026-04-13T12:57:58.686Z</time></trkpt><trkpt lat="38.4045785" lon="-1.03114"><ele>580.1666666666667</ele><time>2026-04-13T12:57:59.686Z</time></trkpt><trkpt lat="38.4046344" lon="-1.0310503"><ele>580.0</ele><time>2026-04-13T12:58:00.686Z</time></trkpt><trkpt lat="38.4047053" lon="-1.0309685"><ele>580.0</ele><time>2026-04-13T12:58:01.686Z</time></trkpt><trkpt lat="38.4047852" lon="-1.0308905"><ele>580.0</ele><time>2026-04-13T12:58:02.686Z</time></trkpt><trkpt lat="38.4048589" lon="-1.0307937"><ele>580.0</ele><time>2026-04-13T12:58:03.686Z</time></trkpt><trkpt lat="38.404926" lon="-1.030678"><ele>580.0</ele><time>2026-04-13T12:58:04.686Z</time></trkpt><trkpt lat="38.4049808" lon="-1.0305387"><ele>580.0</ele><time>2026-04-13T12:58:05.686Z</time></trkpt><trkpt lat="38.4050173" lon="-1.030402"><ele>580.0</ele><time>2026-04-13T12:58:06.686Z</time></trkpt><trkpt lat="38.4050455" lon="-1.0302522"><ele>580.0</ele><time>2026-04-13T12:58:07.686Z</time></trkpt><trkpt lat="38.4050745" lon="-1.0301125"><ele>580.0</ele><time>2026-04-13T12:58:08.686Z</time></trkpt><trkpt lat="38.4051069" lon="-1.0299372"><ele>580.0</ele><time>2026-04-13T12:58:09.686Z</time></trkpt><trkpt lat="38.4051414" lon="-1.0297683"><ele>580.75</ele><time>2026-04-13T12:58:10.686Z</time></trkpt><trkpt lat="38.4051788" lon="-1.0295914"><ele>581.5</ele><time>2026-04-13T12:58:11.686Z</time></trkpt><trkpt lat="38.4052156" lon="-1.0294101"><ele>582.25</ele><time>2026-04-13T12:58:12.686Z</time></trkpt><trkpt lat="38.4052496" lon="-1.0292292"><ele>583.0</ele><time>2026-04-13T12:58:13.686Z</time></trkpt><trkpt lat="38.4052817" lon="-1.0290471"><ele>584.0</ele><time>2026-04-13T12:58:14.686Z</time></trkpt><trkpt lat="38.4053164" lon="-1.0288618"><ele>585.0</ele><time>2026-04-13T12:58:15.686Z</time></trkpt><trkpt lat="38.4053517" lon="-1.0286748"><ele>586.0</ele><time>2026-04-13T12:58:16.686Z</time></trkpt><trkpt lat="38.4053905" lon="-1.0284874"><ele>587.6666666666667</ele><time>2026-04-13T12:58:17.686Z</time></trkpt><trkpt lat="38.405428" lon="-1.0282982"><ele>589.3333333333334</ele><time>2026-04-13T12:58:18.686Z</time></trkpt><trkpt lat="38.4054653" lon="-1.028108"><ele>591.0</ele><time>2026-04-13T12:58:19.686Z</time></trkpt><trkpt lat="38.4055028" lon="-1.0279154"><ele>593.0</ele><time>2026-04-13T12:58:20.686Z</time></trkpt><trkpt lat="38.4055373" lon="-1.0277242"><ele>595.0</ele><time>2026-04-13T12:58:21.686Z</time></trkpt><trkpt lat="38.4055762" lon="-1.0275302"><ele>597.0</ele><time>2026-04-13T12:58:22.686Z</time></trkpt><trkpt lat="38.405615" lon="-1.027332"><ele>597.0</ele><time>2026-04-13T12:58:23.686Z</time></trkpt><trkpt lat="38.4056539" lon="-1.0271292"><ele>597.0</ele><time>2026-04-13T12:58:24.686Z</time></trkpt><trkpt lat="38.4056924" lon="-1.0269237"><ele>597.0</ele><time>2026-04-13T12:58:25.686Z</time></trkpt><trkpt lat="38.4057324" lon="-1.0267122"><ele>596.3333333333334</ele><time>2026-04-13T12:58:26.686Z</time></trkpt><trkpt lat="38.4057764" lon="-1.0264936"><ele>595.6666666666667</ele><time>2026-04-13T12:58:27.686Z</time></trkpt><trkpt lat="38.4058198" lon="-1.02628"><ele>595.0</ele><time>2026-04-13T12:58:28.686Z</time></trkpt><trkpt lat="38.4058696" lon="-1.0260452"><ele>594.0</ele><time>2026-04-13T12:58:29.686Z</time></trkpt><trkpt lat="38.4059125" lon="-1.0258066"><ele>593.0</ele><time>2026-04-13T12:58:30.686Z</time></trkpt><trkpt lat="38.4059581" lon="-1.0255594"><ele>592.0</ele><time>2026-04-13T12:58:31.686Z</time></trkpt><trkpt lat="38.4060029" lon="-1.0253112"><ele>592.0</ele><time>2026-04-13T12:58:32.686Z</time></trkpt><trkpt lat="38.406052" lon="-1.0250633"><ele>592.0</ele><time>2026-04-13T12:58:33.686Z</time></trkpt><trkpt lat="38.4061011" lon="-1.0248068"><ele>592.0</ele><time>2026-04-13T12:58:34.686Z</time></trkpt><trkpt lat="38.4061512" lon="-1.0245459"><ele>591.6666666666667</ele><time>2026-04-13T12:58:35.686Z</time></trkpt><trkpt lat="38.4062058" lon="-1.0242764"><ele>591.3333333333334</ele><time>2026-04-13T12:58:36.686Z</time></trkpt><trkpt lat="38.4062598" lon="-1.024004"><ele>591.0</ele><time>2026-04-13T12:58:37.686Z</time></trkpt><trkpt lat="38.4063174" lon="-1.0237265"><ele>591.0</ele><time>2026-04-13T12:58:38.686Z</time></trkpt><trkpt lat="38.4063811" lon="-1.0234392"><ele>591.0</ele><time>2026-04-13T12:58:39.686Z</time></trkpt><trkpt lat="38.4064537" lon="-1.0231579"><ele>591.0</ele><time>2026-04-13T12:58:40.686Z</time></trkpt><trkpt lat="38.4065328" lon="-1.0228752"><ele>591.0</ele><time>2026-04-13T12:58:41.686Z</time></trkpt><trkpt lat="38.4066162" lon="-1.0225926"><ele>590.0</ele><time>2026-04-13T12:58:42.686Z</time></trkpt><trkpt lat="38.406706" lon="-1.0223202"><ele>589.0</ele><time>2026-04-13T12:58:43.686Z</time></trkpt><trkpt lat="38.4068024" lon="-1.0220558"><ele>589.0</ele><time>2026-04-13T12:58:44.686Z</time></trkpt><trkpt lat="38.4069022" lon="-1.0218007"><ele>589.0</ele><time>2026-04-13T12:58:45.686Z</time></trkpt><trkpt lat="38.4070071" lon="-1.0215547"><ele>589.0</ele><time>2026-04-13T12:58:46.686Z</time></trkpt><trkpt lat="38.4071199" lon="-1.0213175"><ele>590.6666666666667</ele><time>2026-04-13T12:58:47.686Z</time></trkpt><trkpt lat="38.4072362" lon="-1.0210866"><ele>592.3333333333334</ele><time>2026-04-13T12:58:48.686Z</time></trkpt><trkpt lat="38.4073559" lon="-1.0208478"><ele>594.0</ele><time>2026-04-13T12:58:49.686Z</time></trkpt><trkpt lat="38.4074776" lon="-1.0206107"><ele>594.0</ele><time>2026-04-13T12:58:50.686Z</time></trkpt><trkpt lat="38.4075995" lon="-1.0203707"><ele>594.0</ele><time>2026-04-13T12:58:51.686Z</time></trkpt><trkpt lat="38.4077819" lon="-1.0200008"><ele>594.0</ele><time>2026-04-13T12:58:53.551Z</time></trkpt><trkpt lat="38.4079878" lon="-1.0195975"><ele>594.0</ele><time>2026-04-13T12:58:54.672Z</time></trkpt><trkpt lat="38.4081159" lon="-1.0193531"><ele>594.0</ele><time>2026-04-13T12:58:55.67Z</time></trkpt><trkpt lat="38.4082434" lon="-1.0191025"><ele>594.0</ele><time>2026-04-13T12:58:56.678Z</time></trkpt><trkpt lat="38.4083735" lon="-1.0188527"><ele>594.0</ele><time>2026-04-13T12:58:57.669Z</time></trkpt><trkpt lat="38.4085033" lon="-1.0186027"><ele>594.0</ele><time>2026-04-13T12:58:58.692Z</time></trkpt><trkpt lat="38.4086328" lon="-1.0183577"><ele>594.0</ele><time>2026-04-13T12:58:59.692Z</time></trkpt><trkpt lat="38.4087597" lon="-1.0181087"><ele>594.0</ele><time>2026-04-13T12:59:00.692Z</time></trkpt><trkpt lat="38.4088839" lon="-1.0178635"><ele>596.5</ele><time>2026-04-13T12:59:01.692Z</time></trkpt><trkpt lat="38.4090095" lon="-1.01762"><ele>599.0</ele><time>2026-04-13T12:59:02.692Z</time></trkpt><trkpt lat="38.4091339" lon="-1.0173783"><ele>600.0</ele><time>2026-04-13T12:59:03.692Z</time></trkpt><trkpt lat="38.4092606" lon="-1.0171366"><ele>601.0</ele><time>2026-04-13T12:59:04.692Z</time></trkpt><trkpt lat="38.4093866" lon="-1.0168993"><ele>601.0</ele><time>2026-04-13T12:59:05.692Z</time></trkpt><trkpt lat="38.4095114" lon="-1.016654"><ele>601.0</ele><time>2026-04-13T12:59:06.692Z</time></trkpt><trkpt lat="38.4096418" lon="-1.0164027"><ele>601.5</ele><time>2026-04-13T12:59:07.692Z</time></trkpt><trkpt lat="38.4097778" lon="-1.0161413"><ele>602.0</ele><time>2026-04-13T12:59:08.692Z</time></trkpt><trkpt lat="38.4099117" lon="-1.0158812"><ele>600.5</ele><time>2026-04-13T12:59:09.692Z</time></trkpt><trkpt lat="38.4100486" lon="-1.015618"><ele>599.0</ele><time>2026-04-13T12:59:10.692Z</time></trkpt><trkpt lat="38.4101862" lon="-1.0153531"><ele>599.0</ele><time>2026-04-13T12:59:11.692Z</time></trkpt><trkpt lat="38.4103229" lon="-1.0150843"><ele>599.0</ele><time>2026-04-13T12:59:12.692Z</time></trkpt><trkpt lat="38.4104632" lon="-1.0148152"><ele>598.5</ele><time>2026-04-13T12:59:13.692Z</time></trkpt><trkpt lat="38.4106001" lon="-1.0145472"><ele>598.0</ele><time>2026-04-13T12:59:14.692Z</time></trkpt><trkpt lat="38.4107387" lon="-1.01428"><ele>597.0</ele><time>2026-04-13T12:59:15.692Z</time></trkpt><trkpt lat="38.410876" lon="-1.0140171"><ele>596.0</ele><time>2026-04-13T12:59:16.692Z</time></trkpt><trkpt lat="38.4110117" lon="-1.0137517"><ele>596.0</ele><time>2026-04-13T12:59:17.692Z</time></trkpt><trkpt lat="38.4111485" lon="-1.0134853"><ele>596.0</ele><time>2026-04-13T12:59:18.692Z</time></trkpt><trkpt lat="38.4112841" lon="-1.0132216"><ele>598.0</ele><time>2026-04-13T12:59:19.692Z</time></trkpt><trkpt lat="38.4114186" lon="-1.0129599"><ele>600.0</ele><time>2026-04-13T12:59:20.692Z</time></trkpt><trkpt lat="38.4115527" lon="-1.0126978"><ele>600.5</ele><time>2026-04-13T12:59:21.692Z</time></trkpt><trkpt lat="38.4116839" lon="-1.0124452"><ele>601.0</ele><time>2026-04-13T12:59:22.692Z</time></trkpt><trkpt lat="38.4118157" lon="-1.0121956"><ele>601.0</ele><time>2026-04-13T12:59:23.692Z</time></trkpt><trkpt lat="38.4119441" lon="-1.0119518"><ele>601.0</ele><time>2026-04-13T12:59:24.692Z</time></trkpt><trkpt lat="38.4120737" lon="-1.0117061"><ele>599.5</ele><time>2026-04-13T12:59:25.692Z</time></trkpt><trkpt lat="38.4122027" lon="-1.0114578"><ele>598.0</ele><time>2026-04-13T12:59:26.692Z</time></trkpt><trkpt lat="38.4123287" lon="-1.0112097"><ele>598.0</ele><time>2026-04-13T12:59:27.692Z</time></trkpt><trkpt lat="38.4124568" lon="-1.0109645"><ele>598.0</ele><time>2026-04-13T12:59:28.692Z</time></trkpt><trkpt lat="38.4125844" lon="-1.0107196"><ele>598.5</ele><time>2026-04-13T12:59:29.693Z</time></trkpt><trkpt lat="38.4127143" lon="-1.0104707"><ele>599.0</ele><time>2026-04-13T12:59:30.692Z</time></trkpt><trkpt lat="38.4128405" lon="-1.0102251"><ele>599.5</ele><time>2026-04-13T12:59:31.692Z</time></trkpt><trkpt lat="38.4129682" lon="-1.0099783"><ele>600.0</ele><time>2026-04-13T12:59:32.692Z</time></trkpt><trkpt lat="38.4130997" lon="-1.0097321"><ele>600.0</ele><time>2026-04-13T12:59:33.692Z</time></trkpt><trkpt lat="38.4132365" lon="-1.009475"><ele>600.0</ele><time>2026-04-13T12:59:34.692Z</time></trkpt><trkpt lat="38.4133756" lon="-1.0092092"><ele>600.5</ele><time>2026-04-13T12:59:35.692Z</time></trkpt><trkpt lat="38.4135148" lon="-1.0089356"><ele>601.0</ele><time>2026-04-13T12:59:36.692Z</time></trkpt><trkpt lat="38.413651" lon="-1.0086676"><ele>601.0</ele><time>2026-04-13T12:59:37.692Z</time></trkpt><trkpt lat="38.4137834" lon="-1.0084036"><ele>601.0</ele><time>2026-04-13T12:59:38.692Z</time></trkpt><trkpt lat="38.4139156" lon="-1.0081459"><ele>600.5</ele><time>2026-04-13T12:59:39.692Z</time></trkpt><trkpt lat="38.4140442" lon="-1.0078951"><ele>600.0</ele><time>2026-04-13T12:59:40.692Z</time></trkpt><trkpt lat="38.4141702" lon="-1.0076455"><ele>600.5</ele><time>2026-04-13T12:59:41.692Z</time></trkpt><trkpt lat="38.4142971" lon="-1.0074036"><ele>601.0</ele><time>2026-04-13T12:59:42.692Z</time></trkpt><trkpt lat="38.4144192" lon="-1.0071648"><ele>601.0</ele><time>2026-04-13T12:59:43.692Z</time></trkpt><trkpt lat="38.4145391" lon="-1.0069304"><ele>601.0</ele><time>2026-04-13T12:59:44.692Z</time></trkpt><trkpt lat="38.4146599" lon="-1.0066995"><ele>601.0</ele><time>2026-04-13T12:59:45.692Z</time></trkpt><trkpt lat="38.4147803" lon="-1.0064672"><ele>601.0</ele><time>2026-04-13T12:59:46.692Z</time></trkpt><trkpt lat="38.4149027" lon="-1.006229"><ele>601.0</ele><time>2026-04-13T12:59:47.692Z</time></trkpt><trkpt lat="38.4150281" lon="-1.00599"><ele>601.0</ele><time>2026-04-13T12:59:48.692Z</time></trkpt><trkpt lat="38.4151555" lon="-1.0057448"><ele>602.5</ele><time>2026-04-13T12:59:49.692Z</time></trkpt><trkpt lat="38.4152858" lon="-1.0054959"><ele>604.0</ele><time>2026-04-13T12:59:50.692Z</time></trkpt><trkpt lat="38.4154185" lon="-1.0052398"><ele>603.5</ele><time>2026-04-13T12:59:51.692Z</time></trkpt><trkpt lat="38.4155477" lon="-1.0049867"><ele>603.0</ele><time>2026-04-13T12:59:52.692Z</time></trkpt><trkpt lat="38.4156768" lon="-1.0047364"><ele>603.0</ele><time>2026-04-13T12:59:53.692Z</time></trkpt><trkpt lat="38.4158066" lon="-1.0044844"><ele>603.0</ele><time>2026-04-13T12:59:54.692Z</time></trkpt><trkpt lat="38.4159376" lon="-1.004227"><ele>604.0</ele><time>2026-04-13T12:59:55.692Z</time></trkpt><trkpt lat="38.4160683" lon="-1.003971"><ele>605.0</ele><time>2026-04-13T12:59:56.692Z</time></trkpt><trkpt lat="38.4162003" lon="-1.003716"><ele>603.0</ele><time>2026-04-13T12:59:57.692Z</time></trkpt><trkpt lat="38.4163317" lon="-1.0034583"><ele>601.0</ele><time>2026-04-13T12:59:58.692Z</time></trkpt><trkpt lat="38.4164648" lon="-1.0032032"><ele>601.0</ele><time>2026-04-13T12:59:59.692Z</time></trkpt><trkpt lat="38.4165964" lon="-1.0029485"><ele>601.0</ele><time>2026-04-13T13:00:00.692Z</time></trkpt><trkpt lat="38.416731" lon="-1.0026908"><ele>602.5</ele><time>2026-04-13T13:00:01.692Z</time></trkpt><trkpt lat="38.4168644" lon="-1.0024366"><ele>604.0</ele><time>2026-04-13T13:00:02.692Z</time></trkpt><trkpt lat="38.4169959" lon="-1.0021817"><ele>604.0</ele><time>2026-04-13T13:00:03.692Z</time></trkpt><trkpt lat="38.4171273" lon="-1.0019218"><ele>604.0</ele><time>2026-04-13T13:00:04.692Z</time></trkpt><trkpt lat="38.4172589" lon="-1.0016658"><ele>602.5</ele><time>2026-04-13T13:00:05.693Z</time></trkpt><trkpt lat="38.4173912" lon="-1.0014133"><ele>601.0</ele><time>2026-04-13T13:00:06.692Z</time></trkpt><trkpt lat="38.4175213" lon="-1.0011601"><ele>601.0</ele><time>2026-04-13T13:00:07.692Z</time></trkpt><trkpt lat="38.4176483" lon="-1.00091"><ele>601.0</ele><time>2026-04-13T13:00:08.692Z</time></trkpt><trkpt lat="38.4177758" lon="-1.0006656"><ele>601.0</ele><time>2026-04-13T13:00:09.693Z</time></trkpt><trkpt lat="38.4178972" lon="-1.0004293"><ele>601.0</ele><time>2026-04-13T13:00:10.692Z</time></trkpt><trkpt lat="38.4180177" lon="-1.0001945"><ele>601.0</ele><time>2026-04-13T13:00:11.692Z</time></trkpt><trkpt lat="38.4181335" lon="-0.9999744"><ele>601.0</ele><time>2026-04-13T13:00:12.692Z</time></trkpt><trkpt lat="38.4182436" lon="-0.9997676"><ele>601.0</ele><time>2026-04-13T13:00:13.692Z</time></trkpt><trkpt lat="38.4183462" lon="-0.9995739"><ele>601.0</ele><time>2026-04-13T13:00:14.692Z</time></trkpt><trkpt lat="38.4184504" lon="-0.9993782"><ele>601.0</ele><time>2026-04-13T13:00:15.692Z</time></trkpt><trkpt lat="38.4185411" lon="-0.9991959"><ele>601.0</ele><time>2026-04-13T13:00:16.692Z</time></trkpt><trkpt lat="38.4186285" lon="-0.9990123"><ele>601.0</ele><time>2026-04-13T13:00:17.692Z</time></trkpt><trkpt lat="38.4187142" lon="-0.9988233"><ele>601.0</ele><time>2026-04-13T13:00:18.692Z</time></trkpt><trkpt lat="38.4187905" lon="-0.9986424"><ele>601.0</ele><time>2026-04-13T13:00:19.692Z</time></trkpt><trkpt lat="38.4188638" lon="-0.9984605"><ele>601.0</ele><time>2026-04-13T13:00:20.692Z</time></trkpt><trkpt lat="38.4189349" lon="-0.9982795"><ele>601.0</ele><time>2026-04-13T13:00:21.692Z</time></trkpt><trkpt lat="38.4189993" lon="-0.9981118"><ele>601.0</ele><time>2026-04-13T13:00:22.692Z</time></trkpt><trkpt lat="38.4190546" lon="-0.9979567"><ele>601.0</ele><time>2026-04-13T13:00:23.692Z</time></trkpt><trkpt lat="38.4191097" lon="-0.9978001"><ele>601.0</ele><time>2026-04-13T13:00:24.692Z</time></trkpt><trkpt lat="38.4191599" lon="-0.9976513"><ele>601.0</ele><time>2026-04-13T13:00:25.692Z</time></trkpt><trkpt lat="38.4192057" lon="-0.9975077"><ele>601.0</ele><time>2026-04-13T13:00:26.692Z</time></trkpt><trkpt lat="38.4192484" lon="-0.9973682"><ele>601.0</ele><time>2026-04-13T13:00:27.692Z</time></trkpt><trkpt lat="38.419281" lon="-0.9972271"><ele>601.0</ele><time>2026-04-13T13:00:28.692Z</time></trkpt><trkpt lat="38.4192989" lon="-0.997077"><ele>601.75</ele><time>2026-04-13T13:00:29.692Z</time></trkpt><trkpt lat="38.4193095" lon="-0.9969102"><ele>602.5</ele><time>2026-04-13T13:00:30.692Z</time></trkpt><trkpt lat="38.4193453" lon="-0.9967453"><ele>603.25</ele><time>2026-04-13T13:00:31.692Z</time></trkpt><trkpt lat="38.4193701" lon="-0.9965605"><ele>604.0</ele><time>2026-04-13T13:00:32.692Z</time></trkpt><trkpt lat="38.4193946" lon="-0.9963752"><ele>604.0</ele><time>2026-04-13T13:00:33.692Z</time></trkpt><trkpt lat="38.4194223" lon="-0.9961893"><ele>604.0</ele><time>2026-04-13T13:00:34.692Z</time></trkpt><trkpt lat="38.4194469" lon="-0.9960057"><ele>604.0</ele><time>2026-04-13T13:00:35.693Z</time></trkpt><trkpt lat="38.4194726" lon="-0.9958243"><ele>604.0</ele><time>2026-04-13T13:00:36.692Z</time></trkpt><trkpt lat="38.4195005" lon="-0.9956452"><ele>603.75</ele><time>2026-04-13T13:00:37.692Z</time></trkpt><trkpt lat="38.41953" lon="-0.9954628"><ele>603.5</ele><time>2026-04-13T13:00:38.692Z</time></trkpt><trkpt lat="38.4195548" lon="-0.9952855"><ele>603.25</ele><time>2026-04-13T13:00:39.692Z</time></trkpt><trkpt lat="38.4195882" lon="-0.995103"><ele>603.0</ele><time>2026-04-13T13:00:40.692Z</time></trkpt><trkpt lat="38.4196213" lon="-0.9949171"><ele>603.0</ele><time>2026-04-13T13:00:41.692Z</time></trkpt><trkpt lat="38.4196558" lon="-0.9947208"><ele>603.0</ele><time>2026-04-13T13:00:42.692Z</time></trkpt><trkpt lat="38.4196958" lon="-0.9945177"><ele>603.0</ele><time>2026-04-13T13:00:43.692Z</time></trkpt><trkpt lat="38.4197451" lon="-0.9943056"><ele>603.3333333333334</ele><time>2026-04-13T13:00:44.692Z</time></trkpt><trkpt lat="38.4198068" lon="-0.9940936"><ele>603.6666666666667</ele><time>2026-04-13T13:00:45.693Z</time></trkpt><trkpt lat="38.4198745" lon="-0.9938818"><ele>604.0</ele><time>2026-04-13T13:00:46.692Z</time></trkpt><trkpt lat="38.4199457" lon="-0.9936644"><ele>604.0</ele><time>2026-04-13T13:00:47.692Z</time></trkpt><trkpt lat="38.4200232" lon="-0.9934477"><ele>604.0</ele><time>2026-04-13T13:00:48.693Z</time></trkpt><trkpt lat="38.420111" lon="-0.9932157"><ele>604.0</ele><time>2026-04-13T13:00:49.692Z</time></trkpt><trkpt lat="38.4202001" lon="-0.9929799"><ele>603.6666666666667</ele><time>2026-04-13T13:00:50.692Z</time></trkpt><trkpt lat="38.4202912" lon="-0.9927362"><ele>603.3333333333334</ele><time>2026-04-13T13:00:51.692Z</time></trkpt><trkpt lat="38.4203772" lon="-0.9924904"><ele>603.0</ele><time>2026-04-13T13:00:52.692Z</time></trkpt><trkpt lat="38.4204633" lon="-0.9922368"><ele>602.3333333333334</ele><time>2026-04-13T13:00:53.692Z</time></trkpt><trkpt lat="38.4205411" lon="-0.9919766"><ele>601.6666666666667</ele><time>2026-04-13T13:00:54.692Z</time></trkpt><trkpt lat="38.4206097" lon="-0.991703"><ele>601.0</ele><time>2026-04-13T13:00:55.692Z</time></trkpt><trkpt lat="38.4206668" lon="-0.9914214"><ele>601.0</ele><time>2026-04-13T13:00:56.692Z</time></trkpt><trkpt lat="38.4207156" lon="-0.9911303"><ele>601.0</ele><time>2026-04-13T13:00:57.692Z</time></trkpt><trkpt lat="38.4207536" lon="-0.9908365"><ele>601.0</ele><time>2026-04-13T13:00:58.692Z</time></trkpt><trkpt lat="38.4207799" lon="-0.9905273"><ele>601.0</ele><time>2026-04-13T13:00:59.692Z</time></trkpt><trkpt lat="38.4207869" lon="-0.990226"><ele>600.0</ele><time>2026-04-13T13:01:00.692Z</time></trkpt><trkpt lat="38.420781" lon="-0.9899172"><ele>599.0</ele><time>2026-04-13T13:01:01.692Z</time></trkpt><trkpt lat="38.4207648" lon="-0.9896142"><ele>599.0</ele><time>2026-04-13T13:01:02.692Z</time></trkpt><trkpt lat="38.4207373" lon="-0.9893108"><ele>599.0</ele><time>2026-04-13T13:01:03.692Z</time></trkpt><trkpt lat="38.4207066" lon="-0.9890098"><ele>598.0</ele><time>2026-04-13T13:01:04.692Z</time></trkpt><trkpt lat="38.4206745" lon="-0.988712"><ele>597.0</ele><time>2026-04-13T13:01:05.692Z</time></trkpt><trkpt lat="38.4206382" lon="-0.9884182"><ele>595.5</ele><time>2026-04-13T13:01:06.692Z</time></trkpt><trkpt lat="38.4206108" lon="-0.988123"><ele>594.0</ele><time>2026-04-13T13:01:07.692Z</time></trkpt><trkpt lat="38.4205871" lon="-0.9878271"><ele>594.0</ele><time>2026-04-13T13:01:08.692Z</time></trkpt><trkpt lat="38.4205584" lon="-0.987526"><ele>594.0</ele><time>2026-04-13T13:01:09.692Z</time></trkpt><trkpt lat="38.4205255" lon="-0.9872166"><ele>593.0</ele><time>2026-04-13T13:01:10.692Z</time></trkpt><trkpt lat="38.4204955" lon="-0.9868955"><ele>592.0</ele><time>2026-04-13T13:01:11.692Z</time></trkpt><trkpt lat="38.4204612" lon="-0.9865652"><ele>592.0</ele><time>2026-04-13T13:01:12.692Z</time></trkpt><trkpt lat="38.4204267" lon="-0.9862237"><ele>592.0</ele><time>2026-04-13T13:01:13.692Z</time></trkpt><trkpt lat="38.420393" lon="-0.985872"><ele>592.0</ele><time>2026-04-13T13:01:14.692Z</time></trkpt><trkpt lat="38.4203657" lon="-0.9855059"><ele>592.0</ele><time>2026-04-13T13:01:15.692Z</time></trkpt><trkpt lat="38.4203347" lon="-0.9851289"><ele>589.5</ele><time>2026-04-13T13:01:16.692Z</time></trkpt><trkpt lat="38.4202982" lon="-0.984748"><ele>587.0</ele><time>2026-04-13T13:01:17.692Z</time></trkpt><trkpt lat="38.4202472" lon="-0.9843622"><ele>586.0</ele><time>2026-04-13T13:01:18.692Z</time></trkpt><trkpt lat="38.4201914" lon="-0.9839724"><ele>585.0</ele><time>2026-04-13T13:01:19.692Z</time></trkpt><trkpt lat="38.4201384" lon="-0.9835784"><ele>584.5</ele><time>2026-04-13T13:01:20.692Z</time></trkpt><trkpt lat="38.4200865" lon="-0.9831804"><ele>584.0</ele><time>2026-04-13T13:01:21.692Z</time></trkpt><trkpt lat="38.4200404" lon="-0.9827759"><ele>583.5</ele><time>2026-04-13T13:01:22.692Z</time></trkpt><trkpt lat="38.4199938" lon="-0.9823669"><ele>583.0</ele><time>2026-04-13T13:01:23.692Z</time></trkpt><trkpt lat="38.4199477" lon="-0.9819543"><ele>582.5</ele><time>2026-04-13T13:01:24.692Z</time></trkpt><trkpt lat="38.4199017" lon="-0.9815364"><ele>582.0</ele><time>2026-04-13T13:01:25.692Z</time></trkpt><trkpt lat="38.4198545" lon="-0.9811115"><ele>581.0</ele><time>2026-04-13T13:01:26.692Z</time></trkpt><trkpt lat="38.4198076" lon="-0.9806899"><ele>580.0</ele><time>2026-04-13T13:01:27.692Z</time></trkpt><trkpt lat="38.4197612" lon="-0.9802724"><ele>578.0</ele><time>2026-04-13T13:01:28.692Z</time></trkpt><trkpt lat="38.4197171" lon="-0.9798595"><ele>576.0</ele><time>2026-04-13T13:01:29.692Z</time></trkpt><trkpt lat="38.4196694" lon="-0.9794488"><ele>576.5</ele><time>2026-04-13T13:01:30.692Z</time></trkpt><trkpt lat="38.4196219" lon="-0.9790432"><ele>577.0</ele><time>2026-04-13T13:01:31.692Z</time></trkpt><trkpt lat="38.4195776" lon="-0.9786421"><ele>576.0</ele><time>2026-04-13T13:01:32.692Z</time></trkpt><trkpt lat="38.4195336" lon="-0.9782464"><ele>575.0</ele><time>2026-04-13T13:01:33.692Z</time></trkpt><trkpt lat="38.4194882" lon="-0.9778616"><ele>574.0</ele><time>2026-04-13T13:01:34.692Z</time></trkpt><trkpt lat="38.4194497" lon="-0.9775036"><ele>573.0</ele><time>2026-04-13T13:01:35.693Z</time></trkpt><trkpt lat="38.4194137" lon="-0.9771753"><ele>573.0</ele><time>2026-04-13T13:01:36.692Z</time></trkpt><trkpt lat="38.419382" lon="-0.9768729"><ele>573.0</ele><time>2026-04-13T13:01:37.692Z</time></trkpt><trkpt lat="38.4193495" lon="-0.9765725"><ele>571.5</ele><time>2026-04-13T13:01:38.692Z</time></trkpt><trkpt lat="38.4193199" lon="-0.9762739"><ele>570.0</ele><time>2026-04-13T13:01:39.692Z</time></trkpt><trkpt lat="38.4192881" lon="-0.975969"><ele>569.5</ele><time>2026-04-13T13:01:40.692Z</time></trkpt><trkpt lat="38.419258" lon="-0.9756634"><ele>569.0</ele><time>2026-04-13T13:01:41.692Z</time></trkpt><trkpt lat="38.4192235" lon="-0.975356"><ele>569.0</ele><time>2026-04-13T13:01:42.692Z</time></trkpt><trkpt lat="38.4191902" lon="-0.9750497"><ele>569.0</ele><time>2026-04-13T13:01:43.692Z</time></trkpt><trkpt lat="38.4191558" lon="-0.9747421"><ele>568.5</ele><time>2026-04-13T13:01:44.692Z</time></trkpt><trkpt lat="38.4191202" lon="-0.9744244"><ele>568.0</ele><time>2026-04-13T13:01:45.692Z</time></trkpt><trkpt lat="38.4190796" lon="-0.9740983"><ele>568.0</ele><time>2026-04-13T13:01:46.692Z</time></trkpt><trkpt lat="38.4190427" lon="-0.9737674"><ele>568.0</ele><time>2026-04-13T13:01:47.692Z</time></trkpt><trkpt lat="38.4190077" lon="-0.9734205"><ele>568.0</ele><time>2026-04-13T13:01:48.692Z</time></trkpt><trkpt lat="38.4189813" lon="-0.9730637"><ele>568.0</ele><time>2026-04-13T13:01:49.692Z</time></trkpt><trkpt lat="38.4189493" lon="-0.972699"><ele>567.5</ele><time>2026-04-13T13:01:50.692Z</time></trkpt><trkpt lat="38.4189105" lon="-0.9723344"><ele>567.0</ele><time>2026-04-13T13:01:51.692Z</time></trkpt><trkpt lat="38.4188638" lon="-0.9719673"><ele>566.0</ele><time>2026-04-13T13:01:52.692Z</time></trkpt><trkpt lat="38.4188083" lon="-0.9716004"><ele>565.0</ele><time>2026-04-13T13:01:53.692Z</time></trkpt><trkpt lat="38.4187563" lon="-0.9712314"><ele>565.0</ele><time>2026-04-13T13:01:54.692Z</time></trkpt><trkpt lat="38.4187067" lon="-0.9708594"><ele>565.0</ele><time>2026-04-13T13:01:55.692Z</time></trkpt><trkpt lat="38.4186628" lon="-0.9704877"><ele>564.5</ele><time>2026-04-13T13:01:56.692Z</time></trkpt><trkpt lat="38.4186223" lon="-0.970114"><ele>564.0</ele><time>2026-04-13T13:01:57.692Z</time></trkpt><trkpt lat="38.4185816" lon="-0.9697412"><ele>563.5</ele><time>2026-04-13T13:01:58.692Z</time></trkpt><trkpt lat="38.4185398" lon="-0.96937"><ele>563.0</ele><time>2026-04-13T13:01:59.692Z</time></trkpt><trkpt lat="38.4184985" lon="-0.9689997"><ele>563.0</ele><time>2026-04-13T13:02:00.692Z</time></trkpt><trkpt lat="38.4184588" lon="-0.9686365"><ele>563.0</ele><time>2026-04-13T13:02:01.692Z</time></trkpt><trkpt lat="38.418418" lon="-0.9682803"><ele>563.0</ele><time>2026-04-13T13:02:02.692Z</time></trkpt><trkpt lat="38.4183724" lon="-0.9679311"><ele>563.0</ele><time>2026-04-13T13:02:03.692Z</time></trkpt><trkpt lat="38.4183181" lon="-0.9675842"><ele>562.5</ele><time>2026-04-13T13:02:04.692Z</time></trkpt><trkpt lat="38.4182552" lon="-0.9672583"><ele>562.0</ele><time>2026-04-13T13:02:05.692Z</time></trkpt><trkpt lat="38.4181883" lon="-0.9669526"><ele>562.3333333333334</ele><time>2026-04-13T13:02:06.692Z</time></trkpt><trkpt lat="38.4181259" lon="-0.9666788"><ele>562.6666666666666</ele><time>2026-04-13T13:02:07.692Z</time></trkpt><trkpt lat="38.4180648" lon="-0.9664252"><ele>563.0</ele><time>2026-04-13T13:02:08.692Z</time></trkpt><trkpt lat="38.4180098" lon="-0.9661804"><ele>561.6666666666666</ele><time>2026-04-13T13:02:09.692Z</time></trkpt><trkpt lat="38.4179565" lon="-0.9659379"><ele>560.3333333333334</ele><time>2026-04-13T13:02:10.692Z</time></trkpt><trkpt lat="38.4179073" lon="-0.9657093"><ele>559.0</ele><time>2026-04-13T13:02:11.692Z</time></trkpt><trkpt lat="38.4178665" lon="-0.9655041"><ele>559.0</ele><time>2026-04-13T13:02:12.692Z</time></trkpt><trkpt lat="38.4178288" lon="-0.9653178"><ele>559.0</ele><time>2026-04-13T13:02:13.692Z</time></trkpt><trkpt lat="38.4177912" lon="-0.9651553"><ele>559.0</ele><time>2026-04-13T13:02:14.692Z</time></trkpt><trkpt lat="38.4177427" lon="-0.9650402"><ele>559.0</ele><time>2026-04-13T13:02:15.692Z</time></trkpt><trkpt lat="38.4176847" lon="-0.9649417"><ele>558.8333333333334</ele><time>2026-04-13T13:02:16.692Z</time></trkpt><trkpt lat="38.4176395" lon="-0.9648467"><ele>558.6666666666667</ele><time>2026-04-13T13:02:17.692Z</time></trkpt><trkpt lat="38.4176234" lon="-0.964745"><ele>558.5</ele><time>2026-04-13T13:02:18.692Z</time></trkpt><trkpt lat="38.4176423" lon="-0.9646425"><ele>558.3333333333334</ele><time>2026-04-13T13:02:19.692Z</time></trkpt><trkpt lat="38.4176912" lon="-0.9645483"><ele>558.1666666666666</ele><time>2026-04-13T13:02:20.692Z</time></trkpt><trkpt lat="38.4177439" lon="-0.9644332"><ele>558.0</ele><time>2026-04-13T13:02:21.692Z</time></trkpt><trkpt lat="38.4177753" lon="-0.9642966"><ele>557.75</ele><time>2026-04-13T13:02:22.692Z</time></trkpt><trkpt lat="38.4177927" lon="-0.9641363"><ele>557.5</ele><time>2026-04-13T13:02:23.692Z</time></trkpt><trkpt lat="38.4178153" lon="-0.963961"><ele>557.25</ele><time>2026-04-13T13:02:24.692Z</time></trkpt><trkpt lat="38.4178411" lon="-0.9637762"><ele>557.0</ele><time>2026-04-13T13:02:25.692Z</time></trkpt><trkpt lat="38.4178712" lon="-0.963586"><ele>557.0</ele><time>2026-04-13T13:02:26.692Z</time></trkpt><trkpt lat="38.417907" lon="-0.9633884"><ele>557.0</ele><time>2026-04-13T13:02:27.692Z</time></trkpt><trkpt lat="38.4179519" lon="-0.963183"><ele>557.0</ele><time>2026-04-13T13:02:28.692Z</time></trkpt><trkpt lat="38.4179934" lon="-0.9629804"><ele>557.0</ele><time>2026-04-13T13:02:29.692Z</time></trkpt><trkpt lat="38.4180513" lon="-0.9627513"><ele>557.0</ele><time>2026-04-13T13:02:30.692Z</time></trkpt><trkpt lat="38.4181121" lon="-0.9625175"><ele>557.0</ele><time>2026-04-13T13:02:31.692Z</time></trkpt><trkpt lat="38.4181829" lon="-0.9622883"><ele>557.0</ele><time>2026-04-13T13:02:32.692Z</time></trkpt><trkpt lat="38.4182602" lon="-0.9620666"><ele>557.0</ele><time>2026-04-13T13:02:33.692Z</time></trkpt><trkpt lat="38.4183457" lon="-0.9618371"><ele>557.0</ele><time>2026-04-13T13:02:34.693Z</time></trkpt><trkpt lat="38.4184415" lon="-0.9616058"><ele>556.6666666666666</ele><time>2026-04-13T13:02:35.692Z</time></trkpt><trkpt lat="38.4185423" lon="-0.9613714"><ele>556.3333333333334</ele><time>2026-04-13T13:02:36.692Z</time></trkpt><trkpt lat="38.4186437" lon="-0.9611473"><ele>556.0</ele><time>2026-04-13T13:02:37.692Z</time></trkpt><trkpt lat="38.4187345" lon="-0.9609324"><ele>558.0</ele><time>2026-04-13T13:02:38.692Z</time></trkpt><trkpt lat="38.4188344" lon="-0.9606607"><ele>560.0</ele><time>2026-04-13T13:02:39.692Z</time></trkpt><trkpt lat="38.4189309" lon="-0.9604022"><ele>560.0</ele><time>2026-04-13T13:02:40.692Z</time></trkpt><trkpt lat="38.4190181" lon="-0.9601236"><ele>560.0</ele><time>2026-04-13T13:02:41.692Z</time></trkpt><trkpt lat="38.4190918" lon="-0.9598323"><ele>561.0</ele><time>2026-04-13T13:02:42.692Z</time></trkpt><trkpt lat="38.419155" lon="-0.9595442"><ele>562.0</ele><time>2026-04-13T13:02:43.693Z</time></trkpt><trkpt lat="38.4192105" lon="-0.9592418"><ele>561.0</ele><time>2026-04-13T13:02:44.692Z</time></trkpt><trkpt lat="38.4192558" lon="-0.9589319"><ele>560.0</ele><time>2026-04-13T13:02:45.692Z</time></trkpt><trkpt lat="38.4192883" lon="-0.9586199"><ele>558.5</ele><time>2026-04-13T13:02:46.692Z</time></trkpt><trkpt lat="38.4193108" lon="-0.9583055"><ele>557.0</ele><time>2026-04-13T13:02:47.692Z</time></trkpt><trkpt lat="38.4193261" lon="-0.9579917"><ele>557.0</ele><time>2026-04-13T13:02:48.693Z</time></trkpt><trkpt lat="38.419339" lon="-0.957671"><ele>557.0</ele><time>2026-04-13T13:02:49.692Z</time></trkpt><trkpt lat="38.4193506" lon="-0.9573513"><ele>555.0</ele><time>2026-04-13T13:02:50.692Z</time></trkpt><trkpt lat="38.4193629" lon="-0.9570277"><ele>553.0</ele><time>2026-04-13T13:02:51.692Z</time></trkpt><trkpt lat="38.4193785" lon="-0.9567138"><ele>552.0</ele><time>2026-04-13T13:02:52.692Z</time></trkpt><trkpt lat="38.4193946" lon="-0.9564002"><ele>551.0</ele><time>2026-04-13T13:02:53.692Z</time></trkpt><trkpt lat="38.41942" lon="-0.9560865"><ele>549.5</ele><time>2026-04-13T13:02:54.692Z</time></trkpt><trkpt lat="38.4194556" lon="-0.9557692"><ele>548.0</ele><time>2026-04-13T13:02:55.692Z</time></trkpt><trkpt lat="38.4195056" lon="-0.9554596"><ele>548.0</ele><time>2026-04-13T13:02:56.692Z</time></trkpt><trkpt lat="38.4195628" lon="-0.9551557"><ele>548.0</ele><time>2026-04-13T13:02:57.692Z</time></trkpt><trkpt lat="38.4196343" lon="-0.9548609"><ele>548.0</ele><time>2026-04-13T13:02:58.692Z</time></trkpt><trkpt lat="38.4197195" lon="-0.9545762"><ele>548.0</ele><time>2026-04-13T13:02:59.692Z</time></trkpt><trkpt lat="38.4198142" lon="-0.9542967"><ele>547.0</ele><time>2026-04-13T13:03:00.692Z</time></trkpt><trkpt lat="38.4199135" lon="-0.954019"><ele>546.0</ele><time>2026-04-13T13:03:01.692Z</time></trkpt><trkpt lat="38.4200119" lon="-0.953746"><ele>546.0</ele><time>2026-04-13T13:03:02.692Z</time></trkpt><trkpt lat="38.4201084" lon="-0.9534782"><ele>546.0</ele><time>2026-04-13T13:03:03.692Z</time></trkpt><trkpt lat="38.4201989" lon="-0.9532178"><ele>545.5</ele><time>2026-04-13T13:03:04.692Z</time></trkpt><trkpt lat="38.4202943" lon="-0.9529555"><ele>545.0</ele><time>2026-04-13T13:03:05.692Z</time></trkpt><trkpt lat="38.4203927" lon="-0.9526946"><ele>543.5</ele><time>2026-04-13T13:03:06.692Z</time></trkpt><trkpt lat="38.4204872" lon="-0.9524296"><ele>542.0</ele><time>2026-04-13T13:03:07.692Z</time></trkpt><trkpt lat="38.4205761" lon="-0.952163"><ele>542.0</ele><time>2026-04-13T13:03:08.692Z</time></trkpt><trkpt lat="38.4206628" lon="-0.9518967"><ele>542.0</ele><time>2026-04-13T13:03:09.692Z</time></trkpt><trkpt lat="38.4207458" lon="-0.9516214"><ele>539.5</ele><time>2026-04-13T13:03:10.692Z</time></trkpt><trkpt lat="38.4208276" lon="-0.9513481"><ele>537.0</ele><time>2026-04-13T13:03:11.692Z</time></trkpt><trkpt lat="38.4209127" lon="-0.9510838"><ele>534.0</ele><time>2026-04-13T13:03:12.692Z</time></trkpt><trkpt lat="38.4210004" lon="-0.950814"><ele>531.0</ele><time>2026-04-13T13:03:13.692Z</time></trkpt><trkpt lat="38.421091" lon="-0.950549"><ele>531.0</ele><time>2026-04-13T13:03:14.692Z</time></trkpt><trkpt lat="38.4211814" lon="-0.9502869"><ele>531.0</ele><time>2026-04-13T13:03:15.692Z</time></trkpt><trkpt lat="38.421275" lon="-0.9500268"><ele>531.0</ele><time>2026-04-13T13:03:16.692Z</time></trkpt><trkpt lat="38.4213679" lon="-0.9497672"><ele>529.0</ele><time>2026-04-13T13:03:17.692Z</time></trkpt><trkpt lat="38.4214621" lon="-0.9495057"><ele>527.0</ele><time>2026-04-13T13:03:18.692Z</time></trkpt><trkpt lat="38.4215572" lon="-0.9492467"><ele>526.6666666666666</ele><time>2026-04-13T13:03:19.692Z</time></trkpt><trkpt lat="38.4216543" lon="-0.9489882"><ele>526.3333333333334</ele><time>2026-04-13T13:03:20.692Z</time></trkpt><trkpt lat="38.4217518" lon="-0.9487313"><ele>526.0</ele><time>2026-04-13T13:03:21.692Z</time></trkpt><trkpt lat="38.4218515" lon="-0.9484737"><ele>525.6666666666667</ele><time>2026-04-13T13:03:22.693Z</time></trkpt><trkpt lat="38.421946" lon="-0.948214"><ele>525.3333333333334</ele><time>2026-04-13T13:03:23.692Z</time></trkpt><trkpt lat="38.4220381" lon="-0.9479549"><ele>525.0</ele><time>2026-04-13T13:03:24.692Z</time></trkpt><trkpt lat="38.4221289" lon="-0.9476978"><ele>524.3333333333334</ele><time>2026-04-13T13:03:25.692Z</time></trkpt><trkpt lat="38.4222209" lon="-0.947439"><ele>523.6666666666667</ele><time>2026-04-13T13:03:26.692Z</time></trkpt><trkpt lat="38.4223142" lon="-0.9471789"><ele>523.0</ele><time>2026-04-13T13:03:27.692Z</time></trkpt><trkpt lat="38.4224083" lon="-0.9469155"><ele>522.0</ele><time>2026-04-13T13:03:28.692Z</time></trkpt><trkpt lat="38.4225017" lon="-0.9466509"><ele>521.0</ele><time>2026-04-13T13:03:29.693Z</time></trkpt><trkpt lat="38.4225958" lon="-0.9463897"><ele>521.0</ele><time>2026-04-13T13:03:30.692Z</time></trkpt><trkpt lat="38.4226895" lon="-0.9461241"><ele>521.0</ele><time>2026-04-13T13:03:31.692Z</time></trkpt><trkpt lat="38.422783" lon="-0.9458553"><ele>521.0</ele><time>2026-04-13T13:03:32.692Z</time></trkpt><trkpt lat="38.422877" lon="-0.9455868"><ele>521.0</ele><time>2026-04-13T13:03:33.692Z</time></trkpt><trkpt lat="38.4229752" lon="-0.9453211"><ele>520.0</ele><time>2026-04-13T13:03:34.692Z</time></trkpt><trkpt lat="38.4230713" lon="-0.9450528"><ele>519.0</ele><time>2026-04-13T13:03:35.692Z</time></trkpt><trkpt lat="38.4231664" lon="-0.9447816"><ele>519.0</ele><time>2026-04-13T13:03:36.692Z</time></trkpt><trkpt lat="38.4232591" lon="-0.9445109"><ele>519.0</ele><time>2026-04-13T13:03:37.692Z</time></trkpt><trkpt lat="38.4233538" lon="-0.9442421"><ele>518.5</ele><time>2026-04-13T13:03:38.692Z</time></trkpt><trkpt lat="38.4234487" lon="-0.9439741"><ele>518.0</ele><time>2026-04-13T13:03:39.692Z</time></trkpt><trkpt lat="38.4235413" lon="-0.9437085"><ele>518.0</ele><time>2026-04-13T13:03:40.692Z</time></trkpt><trkpt lat="38.4236318" lon="-0.9434507"><ele>518.0</ele><time>2026-04-13T13:03:41.692Z</time></trkpt><trkpt lat="38.4237174" lon="-0.9432063"><ele>518.0</ele><time>2026-04-13T13:03:42.692Z</time></trkpt><trkpt lat="38.4238045" lon="-0.942964"><ele>517.6666666666666</ele><time>2026-04-13T13:03:43.692Z</time></trkpt><trkpt lat="38.4238905" lon="-0.9427277"><ele>517.3333333333334</ele><time>2026-04-13T13:03:44.692Z</time></trkpt><trkpt lat="38.4239731" lon="-0.9424964"><ele>517.0</ele><time>2026-04-13T13:03:45.692Z</time></trkpt><trkpt lat="38.4240554" lon="-0.9422689"><ele>517.0</ele><time>2026-04-13T13:03:46.692Z</time></trkpt><trkpt lat="38.4241335" lon="-0.9420422"><ele>517.0</ele><time>2026-04-13T13:03:47.692Z</time></trkpt><trkpt lat="38.4242123" lon="-0.9418239"><ele>517.0</ele><time>2026-04-13T13:03:48.692Z</time></trkpt><trkpt lat="38.4242857" lon="-0.9416179"><ele>516.6666666666667</ele><time>2026-04-13T13:03:49.692Z</time></trkpt><trkpt lat="38.4243538" lon="-0.941425"><ele>516.3333333333334</ele><time>2026-04-13T13:03:50.692Z</time></trkpt><trkpt lat="38.424423" lon="-0.9412395"><ele>516.0</ele><time>2026-04-13T13:03:51.692Z</time></trkpt><trkpt lat="38.4244929" lon="-0.9410608"><ele>516.0</ele><time>2026-04-13T13:03:52.692Z</time></trkpt><trkpt lat="38.4245625" lon="-0.9408831"><ele>516.0</ele><time>2026-04-13T13:03:53.692Z</time></trkpt><trkpt lat="38.4246343" lon="-0.9406943"><ele>516.0</ele><time>2026-04-13T13:03:54.692Z</time></trkpt><trkpt lat="38.4247086" lon="-0.9404948"><ele>515.3333333333334</ele><time>2026-04-13T13:03:55.692Z</time></trkpt><trkpt lat="38.4247857" lon="-0.9402858"><ele>514.6666666666667</ele><time>2026-04-13T13:03:56.692Z</time></trkpt><trkpt lat="38.424858" lon="-0.9400702"><ele>514.0</ele><time>2026-04-13T13:03:57.692Z</time></trkpt><trkpt lat="38.4249357" lon="-0.9398458"><ele>514.0</ele><time>2026-04-13T13:03:58.692Z</time></trkpt><trkpt lat="38.425018" lon="-0.939612"><ele>514.0</ele><time>2026-04-13T13:03:59.692Z</time></trkpt><trkpt lat="38.4250981" lon="-0.9393668"><ele>514.0</ele><time>2026-04-13T13:04:00.692Z</time></trkpt><trkpt lat="38.4251834" lon="-0.9391117"><ele>514.0</ele><time>2026-04-13T13:04:01.692Z</time></trkpt><trkpt lat="38.4252721" lon="-0.9388526"><ele>514.0</ele><time>2026-04-13T13:04:02.692Z</time></trkpt><trkpt lat="38.4253649" lon="-0.9385888"><ele>514.0</ele><time>2026-04-13T13:04:03.692Z</time></trkpt><trkpt lat="38.4254613" lon="-0.9383152"><ele>513.0</ele><time>2026-04-13T13:04:04.692Z</time></trkpt><trkpt lat="38.4255599" lon="-0.9380334"><ele>512.0</ele><time>2026-04-13T13:04:05.692Z</time></trkpt><trkpt lat="38.4256618" lon="-0.9377452"><ele>511.5</ele><time>2026-04-13T13:04:06.692Z</time></trkpt><trkpt lat="38.4257655" lon="-0.9374532"><ele>511.0</ele><time>2026-04-13T13:04:07.692Z</time></trkpt><trkpt lat="38.42587" lon="-0.9371567"><ele>511.0</ele><time>2026-04-13T13:04:08.692Z</time></trkpt><trkpt lat="38.4259788" lon="-0.9368603"><ele>511.0</ele><time>2026-04-13T13:04:09.692Z</time></trkpt><trkpt lat="38.4260876" lon="-0.9365613"><ele>511.5</ele><time>2026-04-13T13:04:10.692Z</time></trkpt><trkpt lat="38.4261949" lon="-0.9362602"><ele>512.0</ele><time>2026-04-13T13:04:11.692Z</time></trkpt><trkpt lat="38.4263011" lon="-0.9359645"><ele>510.0</ele><time>2026-04-13T13:04:12.692Z</time></trkpt><trkpt lat="38.4264066" lon="-0.9356658"><ele>508.0</ele><time>2026-04-13T13:04:13.693Z</time></trkpt><trkpt lat="38.4265092" lon="-0.9353712"><ele>508.0</ele><time>2026-04-13T13:04:14.692Z</time></trkpt><trkpt lat="38.4266129" lon="-0.9350794"><ele>508.0</ele><time>2026-04-13T13:04:15.692Z</time></trkpt><trkpt lat="38.4267153" lon="-0.9347945"><ele>507.5</ele><time>2026-04-13T13:04:16.692Z</time></trkpt><trkpt lat="38.4268155" lon="-0.9345094"><ele>507.0</ele><time>2026-04-13T13:04:17.692Z</time></trkpt><trkpt lat="38.4269135" lon="-0.9342317"><ele>507.0</ele><time>2026-04-13T13:04:18.692Z</time></trkpt><trkpt lat="38.4270084" lon="-0.9339597"><ele>507.0</ele><time>2026-04-13T13:04:19.692Z</time></trkpt><trkpt lat="38.4270999" lon="-0.9337048"><ele>507.66666666666663</ele><time>2026-04-13T13:04:20.692Z</time></trkpt><trkpt lat="38.4271842" lon="-0.9334641"><ele>508.3333333333333</ele><time>2026-04-13T13:04:21.692Z</time></trkpt><trkpt lat="38.4272669" lon="-0.9332299"><ele>509.0</ele><time>2026-04-13T13:04:22.692Z</time></trkpt><trkpt lat="38.4273444" lon="-0.933011"><ele>509.0</ele><time>2026-04-13T13:04:23.692Z</time></trkpt><trkpt lat="38.4274143" lon="-0.93281"><ele>509.0</ele><time>2026-04-13T13:04:24.692Z</time></trkpt><trkpt lat="38.4274827" lon="-0.9326192"><ele>509.0</ele><time>2026-04-13T13:04:25.692Z</time></trkpt><trkpt lat="38.4275545" lon="-0.9324428"><ele>509.0</ele><time>2026-04-13T13:04:26.693Z</time></trkpt><trkpt lat="38.4276269" lon="-0.9322902"><ele>509.0</ele><time>2026-04-13T13:04:27.692Z</time></trkpt><trkpt lat="38.4276989" lon="-0.9321577"><ele>509.0</ele><time>2026-04-13T13:04:28.693Z</time></trkpt><trkpt lat="38.4277523" lon="-0.9320475"><ele>509.0</ele><time>2026-04-13T13:04:29.692Z</time></trkpt><trkpt lat="38.4277799" lon="-0.9319361"><ele>509.0</ele><time>2026-04-13T13:04:30.692Z</time></trkpt><trkpt lat="38.4277759" lon="-0.9318195"><ele>509.0</ele><time>2026-04-13T13:04:31.692Z</time></trkpt><trkpt lat="38.4277732" lon="-0.9317037"><ele>509.0</ele><time>2026-04-13T13:04:32.692Z</time></trkpt><trkpt lat="38.4278056" lon="-0.9315881"><ele>509.0</ele><time>2026-04-13T13:04:33.693Z</time></trkpt><trkpt lat="38.4278729" lon="-0.9314946"><ele>509.0</ele><time>2026-04-13T13:04:34.692Z</time></trkpt><trkpt lat="38.4279439" lon="-0.9313915"><ele>508.5</ele><time>2026-04-13T13:04:35.692Z</time></trkpt><trkpt lat="38.427996" lon="-0.9312587"><ele>508.0</ele><time>2026-04-13T13:04:36.692Z</time></trkpt><trkpt lat="38.4280357" lon="-0.9311064"><ele>507.5</ele><time>2026-04-13T13:04:37.692Z</time></trkpt><trkpt lat="38.4280868" lon="-0.9309423"><ele>507.0</ele><time>2026-04-13T13:04:38.692Z</time></trkpt><trkpt lat="38.4281458" lon="-0.9307763"><ele>507.0</ele><time>2026-04-13T13:04:39.692Z</time></trkpt><trkpt lat="38.4282056" lon="-0.9306075"><ele>507.0</ele><time>2026-04-13T13:04:40.692Z</time></trkpt><trkpt lat="38.4282709" lon="-0.9304327"><ele>507.0</ele><time>2026-04-13T13:04:41.692Z</time></trkpt><trkpt lat="38.4283337" lon="-0.9302602"><ele>507.0</ele><time>2026-04-13T13:04:42.692Z</time></trkpt><trkpt lat="38.4283933" lon="-0.9300896"><ele>507.5</ele><time>2026-04-13T13:04:43.692Z</time></trkpt><trkpt lat="38.4284512" lon="-0.9299252"><ele>508.0</ele><time>2026-04-13T13:04:44.692Z</time></trkpt><trkpt lat="38.4285052" lon="-0.9297674"><ele>508.5</ele><time>2026-04-13T13:04:45.692Z</time></trkpt><trkpt lat="38.4285518" lon="-0.9296299"><ele>509.0</ele><time>2026-04-13T13:04:46.692Z</time></trkpt><trkpt lat="38.4285873" lon="-0.9295085"><ele>509.0</ele><time>2026-04-13T13:04:47.692Z</time></trkpt><trkpt lat="38.4286197" lon="-0.9293877"><ele>509.0</ele><time>2026-04-13T13:04:48.692Z</time></trkpt><trkpt lat="38.4286735" lon="-0.9292615"><ele>509.0</ele><time>2026-04-13T13:04:49.692Z</time></trkpt><trkpt lat="38.42873" lon="-0.9291222"><ele>509.0</ele><time>2026-04-13T13:04:50.692Z</time></trkpt><trkpt lat="38.4287854" lon="-0.9289684"><ele>508.75</ele><time>2026-04-13T13:04:51.692Z</time></trkpt><trkpt lat="38.428843" lon="-0.9287997"><ele>508.5</ele><time>2026-04-13T13:04:52.692Z</time></trkpt><trkpt lat="38.4289036" lon="-0.9286297"><ele>508.25</ele><time>2026-04-13T13:04:53.692Z</time></trkpt><trkpt lat="38.4289699" lon="-0.9284502"><ele>508.0</ele><time>2026-04-13T13:04:54.692Z</time></trkpt><trkpt lat="38.4290395" lon="-0.9282615"><ele>508.0</ele><time>2026-04-13T13:04:55.692Z</time></trkpt><trkpt lat="38.4291121" lon="-0.9280712"><ele>508.0</ele><time>2026-04-13T13:04:56.692Z</time></trkpt><trkpt lat="38.4291839" lon="-0.9278895"><ele>508.0</ele><time>2026-04-13T13:04:57.692Z</time></trkpt><trkpt lat="38.429255" lon="-0.9277071"><ele>507.75</ele><time>2026-04-13T13:04:58.692Z</time></trkpt><trkpt lat="38.4293245" lon="-0.9275402"><ele>507.5</ele><time>2026-04-13T13:04:59.692Z</time></trkpt><trkpt lat="38.429387" lon="-0.9273886"><ele>507.25</ele><time>2026-04-13T13:05:00.692Z</time></trkpt><trkpt lat="38.4294413" lon="-0.927267"><ele>507.0</ele><time>2026-04-13T13:05:01.692Z</time></trkpt><trkpt lat="38.4294824" lon="-0.9271427"><ele>507.0</ele><time>2026-04-13T13:05:02.692Z</time></trkpt><trkpt lat="38.4294995" lon="-0.9270142"><ele>507.00000000000006</ele><time>2026-04-13T13:05:03.692Z</time></trkpt><trkpt lat="38.4295019" lon="-0.9268826"><ele>507.00000000000006</ele><time>2026-04-13T13:05:04.692Z</time></trkpt><trkpt lat="38.4295184" lon="-0.9267569"><ele>507.0</ele><time>2026-04-13T13:05:05.692Z</time></trkpt><trkpt lat="38.4295965" lon="-0.9266627"><ele>507.0</ele><time>2026-04-13T13:05:06.692Z</time></trkpt><trkpt lat="38.4296778" lon="-0.926565"><ele>506.0</ele><time>2026-04-13T13:05:07.692Z</time></trkpt><trkpt lat="38.4297561" lon="-0.9264409"><ele>505.0</ele><time>2026-04-13T13:05:08.692Z</time></trkpt><trkpt lat="38.4298204" lon="-0.9262857"><ele>504.0</ele><time>2026-04-13T13:05:09.692Z</time></trkpt><trkpt lat="38.4298788" lon="-0.9261115"><ele>503.0</ele><time>2026-04-13T13:05:10.692Z</time></trkpt><trkpt lat="38.4299357" lon="-0.9259182"><ele>503.0</ele><time>2026-04-13T13:05:11.692Z</time></trkpt><trkpt lat="38.4299948" lon="-0.9257253"><ele>503.0</ele><time>2026-04-13T13:05:12.692Z</time></trkpt><trkpt lat="38.4300597" lon="-0.9255175"><ele>503.0</ele><time>2026-04-13T13:05:13.692Z</time></trkpt><trkpt lat="38.4301296" lon="-0.9253025"><ele>503.0</ele><time>2026-04-13T13:05:14.692Z</time></trkpt><trkpt lat="38.4302009" lon="-0.9250832"><ele>503.0</ele><time>2026-04-13T13:05:15.692Z</time></trkpt><trkpt lat="38.4302797" lon="-0.9248633"><ele>503.0</ele><time>2026-04-13T13:05:16.692Z</time></trkpt><trkpt lat="38.43036" lon="-0.924634"><ele>503.0</ele><time>2026-04-13T13:05:17.692Z</time></trkpt><trkpt lat="38.4304424" lon="-0.9243992"><ele>503.0</ele><time>2026-04-13T13:05:18.692Z</time></trkpt><trkpt lat="38.4305276" lon="-0.9241573"><ele>503.0</ele><time>2026-04-13T13:05:19.693Z</time></trkpt><trkpt lat="38.4306129" lon="-0.9239147"><ele>502.66666666666663</ele><time>2026-04-13T13:05:20.692Z</time></trkpt><trkpt lat="38.4307004" lon="-0.9236651"><ele>502.33333333333337</ele><time>2026-04-13T13:05:21.692Z</time></trkpt><trkpt lat="38.4307894" lon="-0.9234137"><ele>502.0</ele><time>2026-04-13T13:05:22.692Z</time></trkpt><trkpt lat="38.4308774" lon="-0.9231614"><ele>501.6666666666667</ele><time>2026-04-13T13:05:23.692Z</time></trkpt><trkpt lat="38.4309616" lon="-0.9229056"><ele>501.33333333333337</ele><time>2026-04-13T13:05:24.692Z</time></trkpt><trkpt lat="38.4310485" lon="-0.9226585"><ele>501.0</ele><time>2026-04-13T13:05:25.692Z</time></trkpt><trkpt lat="38.4311408" lon="-0.9224054"><ele>501.0</ele><time>2026-04-13T13:05:26.693Z</time></trkpt><trkpt lat="38.4312326" lon="-0.9221547"><ele>501.0</ele><time>2026-04-13T13:05:27.692Z</time></trkpt><trkpt lat="38.4313273" lon="-0.9219125"><ele>501.0</ele><time>2026-04-13T13:05:28.692Z</time></trkpt><trkpt lat="38.4314181" lon="-0.9216588"><ele>501.0</ele><time>2026-04-13T13:05:29.692Z</time></trkpt><trkpt lat="38.4315084" lon="-0.921406"><ele>501.0</ele><time>2026-04-13T13:05:30.692Z</time></trkpt><trkpt lat="38.4315982" lon="-0.9211534"><ele>501.0</ele><time>2026-04-13T13:05:31.692Z</time></trkpt><trkpt lat="38.431688" lon="-0.9208977"><ele>500.66666666666663</ele><time>2026-04-13T13:05:32.692Z</time></trkpt><trkpt lat="38.4317765" lon="-0.9206434"><ele>500.3333333333333</ele><time>2026-04-13T13:05:33.692Z</time></trkpt><trkpt lat="38.4318612" lon="-0.9203954"><ele>500.0</ele><time>2026-04-13T13:05:34.692Z</time></trkpt><trkpt lat="38.4319449" lon="-0.9201582"><ele>500.0</ele><time>2026-04-13T13:05:35.692Z</time></trkpt><trkpt lat="38.4320245" lon="-0.919932"><ele>500.0</ele><time>2026-04-13T13:05:36.692Z</time></trkpt><trkpt lat="38.4321007" lon="-0.919717"><ele>500.0</ele><time>2026-04-13T13:05:37.692Z</time></trkpt><trkpt lat="38.432169" lon="-0.9195226"><ele>500.25</ele><time>2026-04-13T13:05:38.692Z</time></trkpt><trkpt lat="38.4322343" lon="-0.9193395"><ele>500.5</ele><time>2026-04-13T13:05:39.692Z</time></trkpt><trkpt lat="38.4322888" lon="-0.9191636"><ele>500.75</ele><time>2026-04-13T13:05:40.692Z</time></trkpt><trkpt lat="38.4323381" lon="-0.9190101"><ele>501.0</ele><time>2026-04-13T13:05:41.692Z</time></trkpt><trkpt lat="38.4323725" lon="-0.9188746"><ele>501.0</ele><time>2026-04-13T13:05:42.692Z</time></trkpt><trkpt lat="38.4323936" lon="-0.9187549"><ele>501.0</ele><time>2026-04-13T13:05:43.692Z</time></trkpt><trkpt lat="38.4324064" lon="-0.9186579"><ele>501.0</ele><time>2026-04-13T13:05:44.692Z</time></trkpt><trkpt lat="38.432402" lon="-0.9185732"><ele>501.0</ele><time>2026-04-13T13:05:45.692Z</time></trkpt><trkpt lat="38.4323725" lon="-0.9184895"><ele>501.0</ele><time>2026-04-13T13:05:46.692Z</time></trkpt><trkpt lat="38.4323438" lon="-0.9183981"><ele>501.0</ele><time>2026-04-13T13:05:47.693Z</time></trkpt><trkpt lat="38.432339" lon="-0.9182859"><ele>501.0</ele><time>2026-04-13T13:05:48.692Z</time></trkpt><trkpt lat="38.4323638" lon="-0.9181791"><ele>501.0</ele><time>2026-04-13T13:05:49.692Z</time></trkpt><trkpt lat="38.4324125" lon="-0.9180854"><ele>501.0</ele><time>2026-04-13T13:05:50.692Z</time></trkpt><trkpt lat="38.4324872" lon="-0.9180197"><ele>501.0</ele><time>2026-04-13T13:05:51.692Z</time></trkpt><trkpt lat="38.432573" lon="-0.9179879"><ele>501.0</ele><time>2026-04-13T13:05:52.692Z</time></trkpt><trkpt lat="38.4326681" lon="-0.9179868"><ele>501.0</ele><time>2026-04-13T13:05:53.692Z</time></trkpt><trkpt lat="38.4327467" lon="-0.9180488"><ele>501.0</ele><time>2026-04-13T13:05:54.693Z</time></trkpt><trkpt lat="38.4328061" lon="-0.9181395"><ele>501.0</ele><time>2026-04-13T13:05:55.692Z</time></trkpt><trkpt lat="38.4328363" lon="-0.9182587"><ele>501.0</ele><time>2026-04-13T13:05:56.692Z</time></trkpt><trkpt lat="38.4328324" lon="-0.9183816"><ele>501.0</ele><time>2026-04-13T13:05:57.692Z</time></trkpt><trkpt lat="38.432793" lon="-0.9184914"><ele>501.0</ele><time>2026-04-13T13:05:58.692Z</time></trkpt><trkpt lat="38.4327232" lon="-0.9185731"><ele>501.0</ele><time>2026-04-13T13:05:59.692Z</time></trkpt><trkpt lat="38.4326381" lon="-0.9186161"><ele>501.0</ele><time>2026-04-13T13:06:00.692Z</time></trkpt><trkpt lat="38.4325436" lon="-0.9186137"><ele>501.0</ele><time>2026-04-13T13:06:01.692Z</time></trkpt><trkpt lat="38.4324574" lon="-0.9185701"><ele>501.0</ele><time>2026-04-13T13:06:02.692Z</time></trkpt><trkpt lat="38.4323836" lon="-0.9184895"><ele>501.0</ele><time>2026-04-13T13:06:03.692Z</time></trkpt><trkpt lat="38.4323008" lon="-0.918414"><ele>501.0</ele><time>2026-04-13T13:06:04.692Z</time></trkpt><trkpt lat="38.4321989" lon="-0.9183695"><ele>501.0</ele><time>2026-04-13T13:06:05.692Z</time></trkpt><trkpt lat="38.4320731" lon="-0.9183554"><ele>501.0</ele><time>2026-04-13T13:06:06.692Z</time></trkpt><trkpt lat="38.4319366" lon="-0.9183644"><ele>501.0</ele><time>2026-04-13T13:06:07.692Z</time></trkpt><trkpt lat="38.4317874" lon="-0.9183776"><ele>501.0</ele><time>2026-04-13T13:06:08.693Z</time></trkpt><trkpt lat="38.4316323" lon="-0.9183877"><ele>501.0</ele><time>2026-04-13T13:06:09.692Z</time></trkpt><trkpt lat="38.431471" lon="-0.9183981"><ele>499.66666666666663</ele><time>2026-04-13T13:06:10.692Z</time></trkpt><trkpt lat="38.4312976" lon="-0.9184094"><ele>498.3333333333333</ele><time>2026-04-13T13:06:11.692Z</time></trkpt><trkpt lat="38.4311199" lon="-0.9184033"><ele>497.0</ele><time>2026-04-13T13:06:12.692Z</time></trkpt><trkpt lat="38.4309306" lon="-0.9183858"><ele>497.0</ele><time>2026-04-13T13:06:13.692Z</time></trkpt><trkpt lat="38.4307305" lon="-0.9183721"><ele>497.0</ele><time>2026-04-13T13:06:14.692Z</time></trkpt><trkpt lat="38.4305317" lon="-0.9183724"><ele>497.0</ele><time>2026-04-13T13:06:15.692Z</time></trkpt><trkpt lat="38.4303258" lon="-0.9183842"><ele>497.66666666666663</ele><time>2026-04-13T13:06:16.692Z</time></trkpt><trkpt lat="38.4301154" lon="-0.9184022"><ele>498.33333333333337</ele><time>2026-04-13T13:06:17.692Z</time></trkpt><trkpt lat="38.429904" lon="-0.918416"><ele>499.0</ele><time>2026-04-13T13:06:18.692Z</time></trkpt><trkpt lat="38.4296921" lon="-0.9184072"><ele>499.0</ele><time>2026-04-13T13:06:19.692Z</time></trkpt><trkpt lat="38.4294769" lon="-0.9183926"><ele>499.0</ele><time>2026-04-13T13:06:20.692Z</time></trkpt><trkpt lat="38.4292598" lon="-0.9183807"><ele>499.0</ele><time>2026-04-13T13:06:21.692Z</time></trkpt><trkpt lat="38.4290391" lon="-0.918386"><ele>499.0</ele><time>2026-04-13T13:06:22.692Z</time></trkpt><trkpt lat="38.4288187" lon="-0.9184186"><ele>499.0</ele><time>2026-04-13T13:06:23.692Z</time></trkpt><trkpt lat="38.4285957" lon="-0.9184648"><ele>499.0</ele><time>2026-04-13T13:06:24.692Z</time></trkpt><trkpt lat="38.4283728" lon="-0.9185054"><ele>499.0</ele><time>2026-04-13T13:06:25.692Z</time></trkpt><trkpt lat="38.4281452" lon="-0.9185346"><ele>499.0</ele><time>2026-04-13T13:06:26.692Z</time></trkpt><trkpt lat="38.4279165" lon="-0.9185612"><ele>498.5</ele><time>2026-04-13T13:06:27.692Z</time></trkpt><trkpt lat="38.4276855" lon="-0.9185719"><ele>498.0</ele><time>2026-04-13T13:06:28.692Z</time></trkpt><trkpt lat="38.4274531" lon="-0.9185645"><ele>498.0</ele><time>2026-04-13T13:06:29.693Z</time></trkpt><trkpt lat="38.4272195" lon="-0.9185385"><ele>498.0</ele><time>2026-04-13T13:06:30.692Z</time></trkpt><trkpt lat="38.4269738" lon="-0.9184937"><ele>498.0</ele><time>2026-04-13T13:06:31.692Z</time></trkpt><trkpt lat="38.4267373" lon="-0.9184414"><ele>498.0</ele><time>2026-04-13T13:06:32.692Z</time></trkpt><trkpt lat="38.4265017" lon="-0.9183812"><ele>497.5</ele><time>2026-04-13T13:06:33.692Z</time></trkpt><trkpt lat="38.4262733" lon="-0.9183199"><ele>497.0</ele><time>2026-04-13T13:06:34.692Z</time></trkpt><trkpt lat="38.4260521" lon="-0.9182372"><ele>497.0</ele><time>2026-04-13T13:06:35.692Z</time></trkpt><trkpt lat="38.4258386" lon="-0.9181402"><ele>497.0</ele><time>2026-04-13T13:06:36.693Z</time></trkpt><trkpt lat="38.4256205" lon="-0.9180402"><ele>496.66666666666663</ele><time>2026-04-13T13:06:37.693Z</time></trkpt><trkpt lat="38.4254247" lon="-0.9179663"><ele>496.33333333333337</ele><time>2026-04-13T13:06:38.692Z</time></trkpt><trkpt lat="38.4252128" lon="-0.9179128"><ele>496.0</ele><time>2026-04-13T13:06:39.692Z</time></trkpt><trkpt lat="38.4250073" lon="-0.9179208"><ele>496.0</ele><time>2026-04-13T13:06:40.692Z</time></trkpt><trkpt lat="38.4247916" lon="-0.91793"><ele>496.0</ele><time>2026-04-13T13:06:41.692Z</time></trkpt><trkpt lat="38.4245745" lon="-0.9179455"><ele>496.0</ele><time>2026-04-13T13:06:42.692Z</time></trkpt><trkpt lat="38.4243585" lon="-0.9179548"><ele>495.6666666666667</ele><time>2026-04-13T13:06:43.692Z</time></trkpt><trkpt lat="38.4241362" lon="-0.9179581"><ele>495.33333333333337</ele><time>2026-04-13T13:06:44.692Z</time></trkpt><trkpt lat="38.4239147" lon="-0.9179482"><ele>495.0</ele><time>2026-04-13T13:06:45.692Z</time></trkpt><trkpt lat="38.4236961" lon="-0.9179262"><ele>495.66666666666663</ele><time>2026-04-13T13:06:46.692Z</time></trkpt><trkpt lat="38.4234777" lon="-0.9178986"><ele>496.3333333333333</ele><time>2026-04-13T13:06:47.692Z</time></trkpt><trkpt lat="38.4232619" lon="-0.9178656"><ele>497.0</ele><time>2026-04-13T13:06:48.692Z</time></trkpt><trkpt lat="38.4230478" lon="-0.9178284"><ele>497.0</ele><time>2026-04-13T13:06:49.692Z</time></trkpt><trkpt lat="38.4228379" lon="-0.9177956"><ele>497.0</ele><time>2026-04-13T13:06:50.692Z</time></trkpt><trkpt lat="38.4226279" lon="-0.9177616"><ele>497.0</ele><time>2026-04-13T13:06:51.692Z</time></trkpt><trkpt lat="38.4224158" lon="-0.9177304"><ele>497.0</ele><time>2026-04-13T13:06:52.692Z</time></trkpt><trkpt lat="38.4221994" lon="-0.9176908"><ele>497.0</ele><time>2026-04-13T13:06:53.692Z</time></trkpt><trkpt lat="38.4219762" lon="-0.9176426"><ele>497.0</ele><time>2026-04-13T13:06:54.692Z</time></trkpt><trkpt lat="38.4217492" lon="-0.9175761"><ele>497.0</ele><time>2026-04-13T13:06:55.692Z</time></trkpt><trkpt lat="38.4215176" lon="-0.9174938"><ele>497.0</ele><time>2026-04-13T13:06:56.692Z</time></trkpt><trkpt lat="38.421284" lon="-0.9174009"><ele>497.0</ele><time>2026-04-13T13:06:57.692Z</time></trkpt><trkpt lat="38.4210462" lon="-0.9173072"><ele>497.0</ele><time>2026-04-13T13:06:58.692Z</time></trkpt><trkpt lat="38.4207999" lon="-0.9172194"><ele>497.0</ele><time>2026-04-13T13:06:59.692Z</time></trkpt><trkpt lat="38.4205501" lon="-0.9171331"><ele>497.0</ele><time>2026-04-13T13:07:00.692Z</time></trkpt><trkpt lat="38.4202957" lon="-0.9170514"><ele>496.0</ele><time>2026-04-13T13:07:01.692Z</time></trkpt><trkpt lat="38.4200406" lon="-0.9169709"><ele>495.0</ele><time>2026-04-13T13:07:02.692Z</time></trkpt><trkpt lat="38.4197877" lon="-0.916889"><ele>494.5</ele><time>2026-04-13T13:07:03.692Z</time></trkpt><trkpt lat="38.4195301" lon="-0.9167986"><ele>494.0</ele><time>2026-04-13T13:07:04.692Z</time></trkpt><trkpt lat="38.4192761" lon="-0.9167091"><ele>495.0</ele><time>2026-04-13T13:07:05.692Z</time></trkpt><trkpt lat="38.4190175" lon="-0.9166157"><ele>496.0</ele><time>2026-04-13T13:07:06.692Z</time></trkpt><trkpt lat="38.4187643" lon="-0.9165268"><ele>496.0</ele><time>2026-04-13T13:07:07.692Z</time></trkpt><trkpt lat="38.4185095" lon="-0.9164576"><ele>496.0</ele><time>2026-04-13T13:07:08.692Z</time></trkpt><trkpt lat="38.4182525" lon="-0.916429"><ele>496.0</ele><time>2026-04-13T13:07:09.692Z</time></trkpt><trkpt lat="38.4179954" lon="-0.9164299"><ele>496.0</ele><time>2026-04-13T13:07:10.692Z</time></trkpt><trkpt lat="38.4177406" lon="-0.9164376"><ele>495.0</ele><time>2026-04-13T13:07:11.692Z</time></trkpt><trkpt lat="38.4174831" lon="-0.916438"><ele>494.0</ele><time>2026-04-13T13:07:12.692Z</time></trkpt><trkpt lat="38.4172264" lon="-0.9164337"><ele>494.5</ele><time>2026-04-13T13:07:13.692Z</time></trkpt><trkpt lat="38.4169683" lon="-0.9164294"><ele>495.0</ele><time>2026-04-13T13:07:14.692Z</time></trkpt><trkpt lat="38.4167086" lon="-0.9164228"><ele>495.0</ele><time>2026-04-13T13:07:15.693Z</time></trkpt><trkpt lat="38.4164493" lon="-0.916419"><ele>495.0</ele><time>2026-04-13T13:07:16.692Z</time></trkpt><trkpt lat="38.4161929" lon="-0.9164161"><ele>495.0</ele><time>2026-04-13T13:07:17.692Z</time></trkpt><trkpt lat="38.415939" lon="-0.9164069"><ele>495.0</ele><time>2026-04-13T13:07:18.692Z</time></trkpt><trkpt lat="38.4156799" lon="-0.9163832"><ele>493.5</ele><time>2026-04-13T13:07:19.692Z</time></trkpt><trkpt lat="38.41542" lon="-0.9163424"><ele>492.0</ele><time>2026-04-13T13:07:20.692Z</time></trkpt><trkpt lat="38.4151596" lon="-0.9162884"><ele>492.0</ele><time>2026-04-13T13:07:21.692Z</time></trkpt><trkpt lat="38.4149007" lon="-0.916237"><ele>492.0</ele><time>2026-04-13T13:07:22.692Z</time></trkpt><trkpt lat="38.4146385" lon="-0.9161852"><ele>493.0</ele><time>2026-04-13T13:07:23.692Z</time></trkpt><trkpt lat="38.4143766" lon="-0.9161438"><ele>494.0</ele><time>2026-04-13T13:07:24.692Z</time></trkpt><trkpt lat="38.4141142" lon="-0.9161075"><ele>494.0</ele><time>2026-04-13T13:07:25.692Z</time></trkpt><trkpt lat="38.4138523" lon="-0.9160723"><ele>494.0</ele><time>2026-04-13T13:07:26.692Z</time></trkpt><trkpt lat="38.413588" lon="-0.9160425"><ele>493.0</ele><time>2026-04-13T13:07:27.692Z</time></trkpt><trkpt lat="38.4133254" lon="-0.9160099"><ele>492.0</ele><time>2026-04-13T13:07:28.692Z</time></trkpt><trkpt lat="38.4130632" lon="-0.9159792"><ele>491.0</ele><time>2026-04-13T13:07:29.692Z</time></trkpt><trkpt lat="38.4128025" lon="-0.9159439"><ele>490.0</ele><time>2026-04-13T13:07:30.692Z</time></trkpt><trkpt lat="38.412545" lon="-0.9159101"><ele>490.5</ele><time>2026-04-13T13:07:31.692Z</time></trkpt><trkpt lat="38.4122907" lon="-0.9158785"><ele>491.0</ele><time>2026-04-13T13:07:32.692Z</time></trkpt><trkpt lat="38.4120385" lon="-0.9158419"><ele>491.0</ele><time>2026-04-13T13:07:33.692Z</time></trkpt><trkpt lat="38.4117862" lon="-0.9158131"><ele>491.0</ele><time>2026-04-13T13:07:34.692Z</time></trkpt><trkpt lat="38.4115331" lon="-0.9157883"><ele>491.5</ele><time>2026-04-13T13:07:35.692Z</time></trkpt><trkpt lat="38.4112844" lon="-0.9157562"><ele>492.0</ele><time>2026-04-13T13:07:36.692Z</time></trkpt><trkpt lat="38.4110347" lon="-0.9157005"><ele>492.0</ele><time>2026-04-13T13:07:37.692Z</time></trkpt><trkpt lat="38.4107873" lon="-0.9156244"><ele>492.0</ele><time>2026-04-13T13:07:38.692Z</time></trkpt><trkpt lat="38.4105434" lon="-0.9155352"><ele>491.5</ele><time>2026-04-13T13:07:39.692Z</time></trkpt><trkpt lat="38.4102986" lon="-0.9154432"><ele>491.0</ele><time>2026-04-13T13:07:40.692Z</time></trkpt><trkpt lat="38.4100481" lon="-0.915359"><ele>491.0</ele><time>2026-04-13T13:07:41.692Z</time></trkpt><trkpt lat="38.4097957" lon="-0.9152897"><ele>491.0</ele><time>2026-04-13T13:07:42.692Z</time></trkpt><trkpt lat="38.4095463" lon="-0.9152342"><ele>490.0</ele><time>2026-04-13T13:07:43.692Z</time></trkpt><trkpt lat="38.4093027" lon="-0.9151807"><ele>489.0</ele><time>2026-04-13T13:07:44.692Z</time></trkpt><trkpt lat="38.4090625" lon="-0.9151256"><ele>489.5</ele><time>2026-04-13T13:07:45.692Z</time></trkpt><trkpt lat="38.4088236" lon="-0.9150761"><ele>490.0</ele><time>2026-04-13T13:07:46.692Z</time></trkpt><trkpt lat="38.4086023" lon="-0.9150309"><ele>490.0</ele><time>2026-04-13T13:07:47.692Z</time></trkpt><trkpt lat="38.4083808" lon="-0.9150281"><ele>490.0</ele><time>2026-04-13T13:07:48.692Z</time></trkpt><trkpt lat="38.4081672" lon="-0.9150621"><ele>490.0</ele><time>2026-04-13T13:07:49.693Z</time></trkpt><trkpt lat="38.4079573" lon="-0.9151427"><ele>488.33333333333337</ele><time>2026-04-13T13:07:50.692Z</time></trkpt><trkpt lat="38.4077536" lon="-0.9152455"><ele>486.66666666666663</ele><time>2026-04-13T13:07:51.692Z</time></trkpt><trkpt lat="38.4075576" lon="-0.9153592"><ele>485.0</ele><time>2026-04-13T13:07:52.692Z</time></trkpt><trkpt lat="38.4073772" lon="-0.915467"><ele>485.0</ele><time>2026-04-13T13:07:53.692Z</time></trkpt><trkpt lat="38.4071922" lon="-0.9155569"><ele>485.0</ele><time>2026-04-13T13:07:54.692Z</time></trkpt><trkpt lat="38.407002" lon="-0.9156145"><ele>485.0</ele><time>2026-04-13T13:07:55.692Z</time></trkpt><trkpt lat="38.406808" lon="-0.9156405"><ele>485.3333333333333</ele><time>2026-04-13T13:07:56.692Z</time></trkpt><trkpt lat="38.4066147" lon="-0.9156273"><ele>485.66666666666663</ele><time>2026-04-13T13:07:57.692Z</time></trkpt><trkpt lat="38.4064231" lon="-0.9155817"><ele>486.0</ele><time>2026-04-13T13:07:58.692Z</time></trkpt><trkpt lat="38.4062371" lon="-0.9155065"><ele>488.66666666666663</ele><time>2026-04-13T13:07:59.692Z</time></trkpt><trkpt lat="38.4060569" lon="-0.9154177"><ele>491.3333333333333</ele><time>2026-04-13T13:08:00.692Z</time></trkpt><trkpt lat="38.4058674" lon="-0.9153273"><ele>494.0</ele><time>2026-04-13T13:08:01.692Z</time></trkpt><trkpt lat="38.4056651" lon="-0.9152529"><ele>495.66666666666663</ele><time>2026-04-13T13:08:02.692Z</time></trkpt><trkpt lat="38.4054537" lon="-0.9151871"><ele>497.33333333333337</ele><time>2026-04-13T13:08:03.692Z</time></trkpt><trkpt lat="38.4052399" lon="-0.9151316"><ele>499.0</ele><time>2026-04-13T13:08:04.692Z</time></trkpt><trkpt lat="38.4050209" lon="-0.9150812"><ele>495.0</ele><time>2026-04-13T13:08:05.692Z</time></trkpt><trkpt lat="38.4047979" lon="-0.9150325"><ele>491.0</ele><time>2026-04-13T13:08:06.692Z</time></trkpt><trkpt lat="38.4045719" lon="-0.9149966"><ele>491.0</ele><time>2026-04-13T13:08:07.692Z</time></trkpt><trkpt lat="38.4043422" lon="-0.9149692"><ele>491.0</ele><time>2026-04-13T13:08:08.692Z</time></trkpt><trkpt lat="38.4041129" lon="-0.9149504"><ele>491.0</ele><time>2026-04-13T13:08:09.692Z</time></trkpt><trkpt lat="38.4038834" lon="-0.9149358"><ele>491.0</ele><time>2026-04-13T13:08:10.692Z</time></trkpt><trkpt lat="38.4036529" lon="-0.9149181"><ele>491.0</ele><time>2026-04-13T13:08:11.692Z</time></trkpt><trkpt lat="38.4034253" lon="-0.9148963"><ele>491.0</ele><time>2026-04-13T13:08:12.692Z</time></trkpt><trkpt lat="38.4031946" lon="-0.9148752"><ele>490.66666666666663</ele><time>2026-04-13T13:08:13.692Z</time></trkpt><trkpt lat="38.4029684" lon="-0.9148564"><ele>490.33333333333337</ele><time>2026-04-13T13:08:14.692Z</time></trkpt><trkpt lat="38.4027474" lon="-0.9148406"><ele>490.0</ele><time>2026-04-13T13:08:15.692Z</time></trkpt><trkpt lat="38.4025365" lon="-0.9148349"><ele>490.0</ele><time>2026-04-13T13:08:16.692Z</time></trkpt><trkpt lat="38.4023266" lon="-0.9148522"><ele>490.0</ele><time>2026-04-13T13:08:17.692Z</time></trkpt><trkpt lat="38.4021128" lon="-0.9149005"><ele>490.0</ele><time>2026-04-13T13:08:18.692Z</time></trkpt><trkpt lat="38.4018956" lon="-0.9149566"><ele>489.0</ele><time>2026-04-13T13:08:19.692Z</time></trkpt><trkpt lat="38.4016783" lon="-0.9150118"><ele>488.0</ele><time>2026-04-13T13:08:20.692Z</time></trkpt><trkpt lat="38.4014559" lon="-0.9150655"><ele>487.0</ele><time>2026-04-13T13:08:21.692Z</time></trkpt><trkpt lat="38.4012345" lon="-0.9151236"><ele>487.0</ele><time>2026-04-13T13:08:22.692Z</time></trkpt><trkpt lat="38.4010153" lon="-0.9151804"><ele>487.0</ele><time>2026-04-13T13:08:23.692Z</time></trkpt><trkpt lat="38.4007974" lon="-0.915244"><ele>487.0</ele><time>2026-04-13T13:08:24.692Z</time></trkpt><trkpt lat="38.4005839" lon="-0.9153076"><ele>486.0</ele><time>2026-04-13T13:08:25.692Z</time></trkpt><trkpt lat="38.4003707" lon="-0.915376"><ele>485.0</ele><time>2026-04-13T13:08:26.692Z</time></trkpt><trkpt lat="38.4001564" lon="-0.915441"><ele>484.0</ele><time>2026-04-13T13:08:27.692Z</time></trkpt><trkpt lat="38.3999397" lon="-0.9154986"><ele>484.0</ele><time>2026-04-13T13:08:28.692Z</time></trkpt><trkpt lat="38.3997221" lon="-0.9155406"><ele>484.0</ele><time>2026-04-13T13:08:29.692Z</time></trkpt><trkpt lat="38.3995038" lon="-0.9155869"><ele>484.0</ele><time>2026-04-13T13:08:30.692Z</time></trkpt><trkpt lat="38.3992874" lon="-0.9156304"><ele>483.6666666666667</ele><time>2026-04-13T13:08:31.692Z</time></trkpt><trkpt lat="38.3990777" lon="-0.9156781"><ele>483.33333333333337</ele><time>2026-04-13T13:08:32.692Z</time></trkpt><trkpt lat="38.3988816" lon="-0.9157375"><ele>483.0</ele><time>2026-04-13T13:08:33.692Z</time></trkpt><trkpt lat="38.3986992" lon="-0.9158223"><ele>483.33333333333337</ele><time>2026-04-13T13:08:34.692Z</time></trkpt><trkpt lat="38.3985315" lon="-0.9159425"><ele>483.6666666666667</ele><time>2026-04-13T13:08:35.692Z</time></trkpt><trkpt lat="38.3983654" lon="-0.9160743"><ele>484.0</ele><time>2026-04-13T13:08:36.692Z</time></trkpt><trkpt lat="38.3982101" lon="-0.9162006"><ele>484.0</ele><time>2026-04-13T13:08:37.692Z</time></trkpt><trkpt lat="38.398051" lon="-0.9163008"><ele>484.0</ele><time>2026-04-13T13:08:38.692Z</time></trkpt><trkpt lat="38.3978816" lon="-0.9163529"><ele>484.0</ele><time>2026-04-13T13:08:39.692Z</time></trkpt><trkpt lat="38.3977048" lon="-0.9163564"><ele>484.33333333333337</ele><time>2026-04-13T13:08:40.692Z</time></trkpt><trkpt lat="38.3975225" lon="-0.9163344"><ele>484.66666666666663</ele><time>2026-04-13T13:08:41.692Z</time></trkpt><trkpt lat="38.3973336" lon="-0.9163038"><ele>485.0</ele><time>2026-04-13T13:08:42.692Z</time></trkpt><trkpt lat="38.3971404" lon="-0.9162816"><ele>484.3333333333333</ele><time>2026-04-13T13:08:43.692Z</time></trkpt><trkpt lat="38.3969425" lon="-0.9162829"><ele>483.66666666666663</ele><time>2026-04-13T13:08:44.692Z</time></trkpt><trkpt lat="38.3967457" lon="-0.9163179"><ele>483.0</ele><time>2026-04-13T13:08:45.692Z</time></trkpt><trkpt lat="38.39655" lon="-0.9163869"><ele>483.0</ele><time>2026-04-13T13:08:46.692Z</time></trkpt><trkpt lat="38.3963549" lon="-0.9164713"><ele>483.0</ele><time>2026-04-13T13:08:47.692Z</time></trkpt><trkpt lat="38.3961716" lon="-0.9165501"><ele>483.0</ele><time>2026-04-13T13:08:48.692Z</time></trkpt><trkpt lat="38.3959889" lon="-0.9166241"><ele>482.0</ele><time>2026-04-13T13:08:49.692Z</time></trkpt><trkpt lat="38.395801" lon="-0.9166861"><ele>481.0</ele><time>2026-04-13T13:08:50.692Z</time></trkpt><trkpt lat="38.3956064" lon="-0.9167491"><ele>480.0</ele><time>2026-04-13T13:08:51.692Z</time></trkpt><trkpt lat="38.3954137" lon="-0.9168068"><ele>478.66666666666663</ele><time>2026-04-13T13:08:52.692Z</time></trkpt><trkpt lat="38.3952105" lon="-0.9168624"><ele>477.3333333333333</ele><time>2026-04-13T13:08:53.692Z</time></trkpt><trkpt lat="38.3950106" lon="-0.9169237"><ele>476.0</ele><time>2026-04-13T13:08:54.692Z</time></trkpt><trkpt lat="38.3948065" lon="-0.9169851"><ele>476.0</ele><time>2026-04-13T13:08:55.692Z</time></trkpt><trkpt lat="38.3946034" lon="-0.9170386"><ele>476.0</ele><time>2026-04-13T13:08:56.692Z</time></trkpt><trkpt lat="38.3943954" lon="-0.9170706"><ele>476.0</ele><time>2026-04-13T13:08:57.692Z</time></trkpt><trkpt lat="38.3941859" lon="-0.9170783"><ele>476.0</ele><time>2026-04-13T13:08:58.692Z</time></trkpt><trkpt lat="38.3939745" lon="-0.9170687"><ele>476.0</ele><time>2026-04-13T13:08:59.692Z</time></trkpt><trkpt lat="38.3937603" lon="-0.9170516"><ele>476.0</ele><time>2026-04-13T13:09:00.692Z</time></trkpt><trkpt lat="38.3935465" lon="-0.9170414"><ele>476.0</ele><time>2026-04-13T13:09:01.692Z</time></trkpt><trkpt lat="38.3933357" lon="-0.9170233"><ele>476.0</ele><time>2026-04-13T13:09:02.692Z</time></trkpt><trkpt lat="38.3931242" lon="-0.9170119"><ele>476.0</ele><time>2026-04-13T13:09:03.693Z</time></trkpt><trkpt lat="38.392912" lon="-0.9169996"><ele>475.66666666666663</ele><time>2026-04-13T13:09:04.692Z</time></trkpt><trkpt lat="38.3927007" lon="-0.9169881"><ele>475.33333333333337</ele><time>2026-04-13T13:09:05.692Z</time></trkpt><trkpt lat="38.3924862" lon="-0.9169776"><ele>475.0</ele><time>2026-04-13T13:09:06.692Z</time></trkpt><trkpt lat="38.3922693" lon="-0.9169663"><ele>474.33333333333337</ele><time>2026-04-13T13:09:07.692Z</time></trkpt><trkpt lat="38.3920494" lon="-0.916953"><ele>473.66666666666663</ele><time>2026-04-13T13:09:08.692Z</time></trkpt><trkpt lat="38.3918299" lon="-0.9169381"><ele>473.0</ele><time>2026-04-13T13:09:09.692Z</time></trkpt><trkpt lat="38.3916117" lon="-0.9169217"><ele>473.0</ele><time>2026-04-13T13:09:10.692Z</time></trkpt><trkpt lat="38.3913925" lon="-0.9169077"><ele>473.0</ele><time>2026-04-13T13:09:11.692Z</time></trkpt><trkpt lat="38.3911744" lon="-0.916892"><ele>473.0</ele><time>2026-04-13T13:09:12.692Z</time></trkpt><trkpt lat="38.3909586" lon="-0.9168757"><ele>472.0</ele><time>2026-04-13T13:09:13.692Z</time></trkpt><trkpt lat="38.3907466" lon="-0.9168578"><ele>471.0</ele><time>2026-04-13T13:09:14.692Z</time></trkpt><trkpt lat="38.3905357" lon="-0.9168257"><ele>470.0</ele><time>2026-04-13T13:09:15.692Z</time></trkpt><trkpt lat="38.3903341" lon="-0.9167505"><ele>469.66666666666663</ele><time>2026-04-13T13:09:16.692Z</time></trkpt><trkpt lat="38.3901461" lon="-0.9166369"><ele>469.33333333333337</ele><time>2026-04-13T13:09:17.692Z</time></trkpt><trkpt lat="38.3899547" lon="-0.9165131"><ele>469.0</ele><time>2026-04-13T13:09:18.692Z</time></trkpt><trkpt lat="38.3897616" lon="-0.9163819"><ele>468.33333333333337</ele><time>2026-04-13T13:09:19.692Z</time></trkpt><trkpt lat="38.3895738" lon="-0.9162491"><ele>467.66666666666663</ele><time>2026-04-13T13:09:20.692Z</time></trkpt><trkpt lat="38.3893875" lon="-0.9161178"><ele>467.0</ele><time>2026-04-13T13:09:21.692Z</time></trkpt><trkpt lat="38.3892125" lon="-0.9159894"><ele>467.0</ele><time>2026-04-13T13:09:22.692Z</time></trkpt><trkpt lat="38.3890467" lon="-0.9158488"><ele>467.0</ele><time>2026-04-13T13:09:23.692Z</time></trkpt><trkpt lat="38.3889106" lon="-0.9156742"><ele>467.0</ele><time>2026-04-13T13:09:24.692Z</time></trkpt><trkpt lat="38.3887982" lon="-0.9154639"><ele>466.66666666666663</ele><time>2026-04-13T13:09:25.692Z</time></trkpt><trkpt lat="38.388702" lon="-0.9152356"><ele>466.33333333333337</ele><time>2026-04-13T13:09:26.692Z</time></trkpt><trkpt lat="38.3886073" lon="-0.9150032"><ele>466.0</ele><time>2026-04-13T13:09:27.692Z</time></trkpt><trkpt lat="38.3885117" lon="-0.9147655"><ele>466.0</ele><time>2026-04-13T13:09:28.692Z</time></trkpt><trkpt lat="38.3884132" lon="-0.91452"><ele>466.0</ele><time>2026-04-13T13:09:29.692Z</time></trkpt><trkpt lat="38.3883121" lon="-0.9142697"><ele>466.0</ele><time>2026-04-13T13:09:30.692Z</time></trkpt><trkpt lat="38.3882109" lon="-0.9140205"><ele>467.0</ele><time>2026-04-13T13:09:31.692Z</time></trkpt><trkpt lat="38.3881167" lon="-0.9137664"><ele>468.0</ele><time>2026-04-13T13:09:32.692Z</time></trkpt><trkpt lat="38.3880329" lon="-0.9135106"><ele>469.0</ele><time>2026-04-13T13:09:33.692Z</time></trkpt><trkpt lat="38.3879499" lon="-0.9132467"><ele>466.0</ele><time>2026-04-13T13:09:34.692Z</time></trkpt><trkpt lat="38.387864" lon="-0.9129812"><ele>463.0</ele><time>2026-04-13T13:09:35.692Z</time></trkpt><trkpt lat="38.3877788" lon="-0.9127111"><ele>462.5</ele><time>2026-04-13T13:09:36.692Z</time></trkpt><trkpt lat="38.3876956" lon="-0.9124409"><ele>462.0</ele><time>2026-04-13T13:09:37.692Z</time></trkpt><trkpt lat="38.3876125" lon="-0.9121688"><ele>462.0</ele><time>2026-04-13T13:09:38.692Z</time></trkpt><trkpt lat="38.3875321" lon="-0.911907"><ele>462.0</ele><time>2026-04-13T13:09:39.692Z</time></trkpt><trkpt lat="38.3874501" lon="-0.9116661"><ele>462.0</ele><time>2026-04-13T13:09:40.692Z</time></trkpt><trkpt lat="38.3873597" lon="-0.9114405"><ele>461.33333333333337</ele><time>2026-04-13T13:09:41.692Z</time></trkpt><trkpt lat="38.3872622" lon="-0.9112304"><ele>460.6666666666667</ele><time>2026-04-13T13:09:42.692Z</time></trkpt><trkpt lat="38.3871586" lon="-0.911035"><ele>460.0</ele><time>2026-04-13T13:09:43.692Z</time></trkpt><trkpt lat="38.3870645" lon="-0.9108516"><ele>459.0</ele><time>2026-04-13T13:09:44.692Z</time></trkpt><trkpt lat="38.3869938" lon="-0.910672"><ele>458.0</ele><time>2026-04-13T13:09:45.692Z</time></trkpt><trkpt lat="38.3869516" lon="-0.9104848"><ele>457.0</ele><time>2026-04-13T13:09:46.692Z</time></trkpt><trkpt lat="38.3869448" lon="-0.9102872"><ele>457.0</ele><time>2026-04-13T13:09:47.692Z</time></trkpt><trkpt lat="38.3869615" lon="-0.9100844"><ele>457.0</ele><time>2026-04-13T13:09:48.692Z</time></trkpt><trkpt lat="38.3869904" lon="-0.9098661"><ele>457.0</ele><time>2026-04-13T13:09:49.692Z</time></trkpt><trkpt lat="38.3870285" lon="-0.9096439"><ele>457.0</ele><time>2026-04-13T13:09:50.692Z</time></trkpt><trkpt lat="38.3870672" lon="-0.909418"><ele>457.0</ele><time>2026-04-13T13:09:51.692Z</time></trkpt><trkpt lat="38.3871009" lon="-0.9091885"><ele>457.0</ele><time>2026-04-13T13:09:52.692Z</time></trkpt><trkpt lat="38.3871228" lon="-0.9089466"><ele>457.0</ele><time>2026-04-13T13:09:53.692Z</time></trkpt><trkpt lat="38.3871183" lon="-0.9087011"><ele>457.0</ele><time>2026-04-13T13:09:54.692Z</time></trkpt><trkpt lat="38.3871004" lon="-0.9084568"><ele>457.0</ele><time>2026-04-13T13:09:55.692Z</time></trkpt><trkpt lat="38.3870764" lon="-0.9082203"><ele>456.33333333333337</ele><time>2026-04-13T13:09:56.692Z</time></trkpt><trkpt lat="38.3870439" lon="-0.9079863"><ele>455.66666666666663</ele><time>2026-04-13T13:09:57.692Z</time></trkpt><trkpt lat="38.3869915" lon="-0.9077673"><ele>455.0</ele><time>2026-04-13T13:09:58.692Z</time></trkpt><trkpt lat="38.386903" lon="-0.907582"><ele>454.3333333333333</ele><time>2026-04-13T13:09:59.692Z</time></trkpt><trkpt lat="38.386782" lon="-0.9074242"><ele>453.66666666666663</ele><time>2026-04-13T13:10:00.692Z</time></trkpt><trkpt lat="38.3866509" lon="-0.9072731"><ele>453.0</ele><time>2026-04-13T13:10:01.693Z</time></trkpt><trkpt lat="38.3865109" lon="-0.9071115"><ele>453.0</ele><time>2026-04-13T13:10:02.692Z</time></trkpt><trkpt lat="38.3863708" lon="-0.9069462"><ele>453.0</ele><time>2026-04-13T13:10:03.692Z</time></trkpt><trkpt lat="38.3862271" lon="-0.9067781"><ele>453.0</ele><time>2026-04-13T13:10:04.692Z</time></trkpt><trkpt lat="38.3860825" lon="-0.9066071"><ele>452.0</ele><time>2026-04-13T13:10:05.692Z</time></trkpt><trkpt lat="38.3859375" lon="-0.9064388"><ele>451.0</ele><time>2026-04-13T13:10:06.692Z</time></trkpt><trkpt lat="38.3857945" lon="-0.9062653"><ele>450.0</ele><time>2026-04-13T13:10:07.692Z</time></trkpt><trkpt lat="38.3856536" lon="-0.9061029"><ele>450.0</ele><time>2026-04-13T13:10:08.692Z</time></trkpt><trkpt lat="38.3855174" lon="-0.905964"><ele>450.0</ele><time>2026-04-13T13:10:09.692Z</time></trkpt><trkpt lat="38.3853718" lon="-0.9058631"><ele>450.0</ele><time>2026-04-13T13:10:10.692Z</time></trkpt><trkpt lat="38.3852127" lon="-0.9057772"><ele>450.0</ele><time>2026-04-13T13:10:11.692Z</time></trkpt><trkpt lat="38.3850581" lon="-0.9056931"><ele>450.0</ele><time>2026-04-13T13:10:12.692Z</time></trkpt><trkpt lat="38.3849037" lon="-0.9056024"><ele>450.0</ele><time>2026-04-13T13:10:13.692Z</time></trkpt><trkpt lat="38.3847566" lon="-0.9054926"><ele>451.0</ele><time>2026-04-13T13:10:14.692Z</time></trkpt><trkpt lat="38.3846338" lon="-0.9053673"><ele>452.0</ele><time>2026-04-13T13:10:15.692Z</time></trkpt><trkpt lat="38.3845199" lon="-0.9052457"><ele>453.0</ele><time>2026-04-13T13:10:16.692Z</time></trkpt><trkpt lat="38.3844091" lon="-0.9051284"><ele>452.0</ele><time>2026-04-13T13:10:17.692Z</time></trkpt><trkpt lat="38.3842976" lon="-0.9050208"><ele>451.0</ele><time>2026-04-13T13:10:18.692Z</time></trkpt><trkpt lat="38.3841852" lon="-0.9049281"><ele>450.0</ele><time>2026-04-13T13:10:19.692Z</time></trkpt><trkpt lat="38.3840676" lon="-0.9048535"><ele>449.0</ele><time>2026-04-13T13:10:20.692Z</time></trkpt><trkpt lat="38.3839459" lon="-0.904795"><ele>449.25</ele><time>2026-04-13T13:10:21.692Z</time></trkpt><trkpt lat="38.3838184" lon="-0.9047619"><ele>449.5</ele><time>2026-04-13T13:10:22.692Z</time></trkpt><trkpt lat="38.38368" lon="-0.9047533"><ele>449.75</ele><time>2026-04-13T13:10:23.692Z</time></trkpt><trkpt lat="38.3835424" lon="-0.9047609"><ele>450.0</ele><time>2026-04-13T13:10:24.692Z</time></trkpt><trkpt lat="38.3834002" lon="-0.9047712"><ele>450.0</ele><time>2026-04-13T13:10:25.692Z</time></trkpt><trkpt lat="38.383256" lon="-0.904781"><ele>450.0</ele><time>2026-04-13T13:10:26.692Z</time></trkpt><trkpt lat="38.3831102" lon="-0.904779"><ele>450.0</ele><time>2026-04-13T13:10:27.692Z</time></trkpt><trkpt lat="38.3829598" lon="-0.904753"><ele>450.0</ele><time>2026-04-13T13:10:28.692Z</time></trkpt><trkpt lat="38.3828024" lon="-0.9046988"><ele>449.33333333333337</ele><time>2026-04-13T13:10:29.692Z</time></trkpt><trkpt lat="38.3826426" lon="-0.9046227"><ele>448.6666666666667</ele><time>2026-04-13T13:10:30.692Z</time></trkpt><trkpt lat="38.3824783" lon="-0.9045254"><ele>448.0</ele><time>2026-04-13T13:10:31.692Z</time></trkpt><trkpt lat="38.382315" lon="-0.9044188"><ele>447.33333333333337</ele><time>2026-04-13T13:10:32.692Z</time></trkpt><trkpt lat="38.3821512" lon="-0.9042949"><ele>446.66666666666663</ele><time>2026-04-13T13:10:33.692Z</time></trkpt><trkpt lat="38.3820062" lon="-0.9041435"><ele>446.0</ele><time>2026-04-13T13:10:34.692Z</time></trkpt><trkpt lat="38.3818759" lon="-0.9039686"><ele>444.66666666666663</ele><time>2026-04-13T13:10:35.692Z</time></trkpt><trkpt lat="38.3817514" lon="-0.903779"><ele>443.33333333333337</ele><time>2026-04-13T13:10:36.692Z</time></trkpt><trkpt lat="38.3816141" lon="-0.9035946"><ele>442.0</ele><time>2026-04-13T13:10:37.692Z</time></trkpt><trkpt lat="38.3814627" lon="-0.9034259"><ele>441.0</ele><time>2026-04-13T13:10:38.692Z</time></trkpt><trkpt lat="38.3812846" lon="-0.903301"><ele>440.0</ele><time>2026-04-13T13:10:39.692Z</time></trkpt><trkpt lat="38.3810889" lon="-0.9032208"><ele>439.0</ele><time>2026-04-13T13:10:40.692Z</time></trkpt><trkpt lat="38.3808792" lon="-0.903154"><ele>439.0</ele><time>2026-04-13T13:10:41.692Z</time></trkpt><trkpt lat="38.3806687" lon="-0.9030846"><ele>439.0</ele><time>2026-04-13T13:10:42.692Z</time></trkpt><trkpt lat="38.3804613" lon="-0.9030019"><ele>439.0</ele><time>2026-04-13T13:10:43.692Z</time></trkpt><trkpt lat="38.3802673" lon="-0.9028793"><ele>438.33333333333337</ele><time>2026-04-13T13:10:44.692Z</time></trkpt><trkpt lat="38.380084" lon="-0.9027178"><ele>437.66666666666663</ele><time>2026-04-13T13:10:45.692Z</time></trkpt><trkpt lat="38.3799084" lon="-0.9025392"><ele>437.0</ele><time>2026-04-13T13:10:46.692Z</time></trkpt><trkpt lat="38.3797333" lon="-0.9023585"><ele>436.0</ele><time>2026-04-13T13:10:47.692Z</time></trkpt><trkpt lat="38.3795577" lon="-0.9021762"><ele>435.0</ele><time>2026-04-13T13:10:48.692Z</time></trkpt><trkpt lat="38.3793808" lon="-0.9019948"><ele>435.0</ele><time>2026-04-13T13:10:49.692Z</time></trkpt><trkpt lat="38.3792036" lon="-0.9018123"><ele>435.0</ele><time>2026-04-13T13:10:50.692Z</time></trkpt><trkpt lat="38.3790194" lon="-0.9016266"><ele>434.5</ele><time>2026-04-13T13:10:51.692Z</time></trkpt><trkpt lat="38.3788331" lon="-0.9014394"><ele>434.0</ele><time>2026-04-13T13:10:52.692Z</time></trkpt><trkpt lat="38.3786432" lon="-0.9012479"><ele>434.0</ele><time>2026-04-13T13:10:53.692Z</time></trkpt><trkpt lat="38.3784529" lon="-0.9010552"><ele>434.0</ele><time>2026-04-13T13:10:54.692Z</time></trkpt><trkpt lat="38.3782623" lon="-0.9008657"><ele>434.0</ele><time>2026-04-13T13:10:55.692Z</time></trkpt><trkpt lat="38.3780703" lon="-0.9006791"><ele>434.0</ele><time>2026-04-13T13:10:56.692Z</time></trkpt><trkpt lat="38.3778765" lon="-0.900488"><ele>432.5</ele><time>2026-04-13T13:10:57.692Z</time></trkpt><trkpt lat="38.3776835" lon="-0.9002961"><ele>431.0</ele><time>2026-04-13T13:10:58.692Z</time></trkpt><trkpt lat="38.3774892" lon="-0.9001055"><ele>430.5</ele><time>2026-04-13T13:10:59.692Z</time></trkpt><trkpt lat="38.3772977" lon="-0.8999203"><ele>430.0</ele><time>2026-04-13T13:11:00.692Z</time></trkpt><trkpt lat="38.3771093" lon="-0.8997352"><ele>432.5</ele><time>2026-04-13T13:11:01.692Z</time></trkpt><trkpt lat="38.3769265" lon="-0.8995547"><ele>435.0</ele><time>2026-04-13T13:11:02.692Z</time></trkpt><trkpt lat="38.3767457" lon="-0.8993725"><ele>432.5</ele><time>2026-04-13T13:11:03.692Z</time></trkpt><trkpt lat="38.3765717" lon="-0.8991888"><ele>430.0</ele><time>2026-04-13T13:11:04.692Z</time></trkpt><trkpt lat="38.3763918" lon="-0.8990045"><ele>431.5</ele><time>2026-04-13T13:11:05.692Z</time></trkpt><trkpt lat="38.3762012" lon="-0.8988352"><ele>433.0</ele><time>2026-04-13T13:11:06.692Z</time></trkpt><trkpt lat="38.3759922" lon="-0.8986775"><ele>433.0</ele><time>2026-04-13T13:11:07.692Z</time></trkpt><trkpt lat="38.3757829" lon="-0.8985237"><ele>433.0</ele><time>2026-04-13T13:11:08.692Z</time></trkpt><trkpt lat="38.37557" lon="-0.8983695"><ele>431.5</ele><time>2026-04-13T13:11:09.692Z</time></trkpt><trkpt lat="38.3753562" lon="-0.8982303"><ele>430.0</ele><time>2026-04-13T13:11:10.692Z</time></trkpt><trkpt lat="38.3751452" lon="-0.8980918"><ele>430.0</ele><time>2026-04-13T13:11:11.692Z</time></trkpt><trkpt lat="38.3749404" lon="-0.8979442"><ele>430.0</ele><time>2026-04-13T13:11:12.693Z</time></trkpt><trkpt lat="38.3747473" lon="-0.8978145"><ele>430.0</ele><time>2026-04-13T13:11:13.692Z</time></trkpt><trkpt lat="38.3745585" lon="-0.8977102"><ele>430.0</ele><time>2026-04-13T13:11:14.692Z</time></trkpt><trkpt lat="38.3743618" lon="-0.8976343"><ele>430.0</ele><time>2026-04-13T13:11:15.692Z</time></trkpt><trkpt lat="38.3741553" lon="-0.8975904"><ele>428.0</ele><time>2026-04-13T13:11:16.692Z</time></trkpt><trkpt lat="38.3739504" lon="-0.8975707"><ele>426.0</ele><time>2026-04-13T13:11:17.692Z</time></trkpt><trkpt lat="38.373746" lon="-0.8975497"><ele>424.0</ele><time>2026-04-13T13:11:18.692Z</time></trkpt><trkpt lat="38.3735465" lon="-0.8975238"><ele>424.0</ele><time>2026-04-13T13:11:19.692Z</time></trkpt><trkpt lat="38.3733655" lon="-0.8974835"><ele>424.0</ele><time>2026-04-13T13:11:20.692Z</time></trkpt><trkpt lat="38.3731983" lon="-0.8974365"><ele>424.0</ele><time>2026-04-13T13:11:21.692Z</time></trkpt><trkpt lat="38.3730487" lon="-0.8973929"><ele>424.25</ele><time>2026-04-13T13:11:22.692Z</time></trkpt><trkpt lat="38.3729088" lon="-0.8973527"><ele>424.5</ele><time>2026-04-13T13:11:23.692Z</time></trkpt><trkpt lat="38.3727826" lon="-0.8973212"><ele>424.75</ele><time>2026-04-13T13:11:24.692Z</time></trkpt><trkpt lat="38.3726559" lon="-0.8973014"><ele>425.0</ele><time>2026-04-13T13:11:25.692Z</time></trkpt><trkpt lat="38.3725473" lon="-0.8973117"><ele>425.0</ele><time>2026-04-13T13:11:26.692Z</time></trkpt><trkpt lat="38.372442" lon="-0.8973235"><ele>425.0</ele><time>2026-04-13T13:11:27.692Z</time></trkpt><trkpt lat="38.3723498" lon="-0.8972913"><ele>425.0</ele><time>2026-04-13T13:11:28.692Z</time></trkpt><trkpt lat="38.3722783" lon="-0.8972214"><ele>425.0</ele><time>2026-04-13T13:11:29.692Z</time></trkpt><trkpt lat="38.3722221" lon="-0.8971198"><ele>425.0</ele><time>2026-04-13T13:11:30.692Z</time></trkpt><trkpt lat="38.3721698" lon="-0.89701"><ele>425.0</ele><time>2026-04-13T13:11:31.692Z</time></trkpt><trkpt lat="38.3721027" lon="-0.8968898"><ele>425.0</ele><time>2026-04-13T13:11:32.692Z</time></trkpt><trkpt lat="38.3720225" lon="-0.8967603"><ele>425.0</ele><time>2026-04-13T13:11:33.692Z</time></trkpt><trkpt lat="38.3719306" lon="-0.8966189"><ele>425.0</ele><time>2026-04-13T13:11:34.692Z</time></trkpt><trkpt lat="38.3718368" lon="-0.8964817"><ele>422.66666666666663</ele><time>2026-04-13T13:11:35.692Z</time></trkpt><trkpt lat="38.3717252" lon="-0.8963362"><ele>420.33333333333337</ele><time>2026-04-13T13:11:36.692Z</time></trkpt><trkpt lat="38.3715861" lon="-0.896171"><ele>418.0</ele><time>2026-04-13T13:11:37.692Z</time></trkpt><trkpt lat="38.3714458" lon="-0.8960122"><ele>419.0</ele><time>2026-04-13T13:11:38.692Z</time></trkpt><trkpt lat="38.3712975" lon="-0.8958467"><ele>420.0</ele><time>2026-04-13T13:11:39.692Z</time></trkpt><trkpt lat="38.3711454" lon="-0.8956787"><ele>421.0</ele><time>2026-04-13T13:11:40.692Z</time></trkpt><trkpt lat="38.3709909" lon="-0.8955062"><ele>421.0</ele><time>2026-04-13T13:11:41.692Z</time></trkpt><trkpt lat="38.3708303" lon="-0.8953241"><ele>421.0</ele><time>2026-04-13T13:11:42.692Z</time></trkpt><trkpt lat="38.370664" lon="-0.8951377"><ele>421.0</ele><time>2026-04-13T13:11:43.692Z</time></trkpt><trkpt lat="38.3704975" lon="-0.8949529"><ele>418.0</ele><time>2026-04-13T13:11:44.692Z</time></trkpt><trkpt lat="38.3703283" lon="-0.8947672"><ele>415.0</ele><time>2026-04-13T13:11:45.692Z</time></trkpt><trkpt lat="38.3701538" lon="-0.8945816"><ele>415.0</ele><time>2026-04-13T13:11:46.692Z</time></trkpt><trkpt lat="38.3699707" lon="-0.8943962"><ele>415.0</ele><time>2026-04-13T13:11:47.692Z</time></trkpt><trkpt lat="38.3697719" lon="-0.8942205"><ele>413.5</ele><time>2026-04-13T13:11:48.692Z</time></trkpt><trkpt lat="38.3695586" lon="-0.8940618"><ele>412.0</ele><time>2026-04-13T13:11:49.692Z</time></trkpt><trkpt lat="38.3693391" lon="-0.8939057"><ele>412.0</ele><time>2026-04-13T13:11:50.692Z</time></trkpt><trkpt lat="38.3691208" lon="-0.8937562"><ele>412.0</ele><time>2026-04-13T13:11:51.692Z</time></trkpt><trkpt lat="38.3688979" lon="-0.8936093"><ele>411.5</ele><time>2026-04-13T13:11:52.692Z</time></trkpt><trkpt lat="38.3686753" lon="-0.893463"><ele>411.0</ele><time>2026-04-13T13:11:53.692Z</time></trkpt><trkpt lat="38.368449" lon="-0.8933205"><ele>410.5</ele><time>2026-04-13T13:11:54.692Z</time></trkpt><trkpt lat="38.3682317" lon="-0.8931732"><ele>410.0</ele><time>2026-04-13T13:11:55.692Z</time></trkpt><trkpt lat="38.368014" lon="-0.8930293"><ele>409.5</ele><time>2026-04-13T13:11:56.692Z</time></trkpt><trkpt lat="38.3677953" lon="-0.8928891"><ele>409.0</ele><time>2026-04-13T13:11:57.692Z</time></trkpt><trkpt lat="38.3675828" lon="-0.8927541"><ele>409.0</ele><time>2026-04-13T13:11:58.692Z</time></trkpt><trkpt lat="38.3673721" lon="-0.8926141"><ele>409.0</ele><time>2026-04-13T13:11:59.692Z</time></trkpt><trkpt lat="38.3671651" lon="-0.8924809"><ele>407.5</ele><time>2026-04-13T13:12:00.692Z</time></trkpt><trkpt lat="38.3669633" lon="-0.892352"><ele>406.0</ele><time>2026-04-13T13:12:01.692Z</time></trkpt><trkpt lat="38.3667634" lon="-0.892223"><ele>406.0</ele><time>2026-04-13T13:12:02.692Z</time></trkpt><trkpt lat="38.3665646" lon="-0.8920947"><ele>406.0</ele><time>2026-04-13T13:12:03.692Z</time></trkpt><trkpt lat="38.3663707" lon="-0.8919686"><ele>406.0</ele><time>2026-04-13T13:12:04.692Z</time></trkpt><trkpt lat="38.3661844" lon="-0.8918394"><ele>405.6666666666667</ele><time>2026-04-13T13:12:05.692Z</time></trkpt><trkpt lat="38.3660054" lon="-0.8917203"><ele>405.33333333333337</ele><time>2026-04-13T13:12:06.692Z</time></trkpt><trkpt lat="38.3658282" lon="-0.8916028"><ele>405.0</ele><time>2026-04-13T13:12:07.692Z</time></trkpt><trkpt lat="38.3656493" lon="-0.8914827"><ele>405.33333333333337</ele><time>2026-04-13T13:12:08.692Z</time></trkpt><trkpt lat="38.3654857" lon="-0.8913747"><ele>405.6666666666667</ele><time>2026-04-13T13:12:09.692Z</time></trkpt><trkpt lat="38.365331" lon="-0.8912758"><ele>406.0</ele><time>2026-04-13T13:12:10.692Z</time></trkpt><trkpt lat="38.3651785" lon="-0.89118"><ele>406.0</ele><time>2026-04-13T13:12:11.692Z</time></trkpt><trkpt lat="38.3650272" lon="-0.8910855"><ele>406.0</ele><time>2026-04-13T13:12:12.692Z</time></trkpt><trkpt lat="38.3648779" lon="-0.8910053"><ele>406.0</ele><time>2026-04-13T13:12:13.692Z</time></trkpt><trkpt lat="38.3647333" lon="-0.8909413"><ele>405.25</ele><time>2026-04-13T13:12:14.693Z</time></trkpt><trkpt lat="38.3645935" lon="-0.8908979"><ele>404.5</ele><time>2026-04-13T13:12:15.692Z</time></trkpt><trkpt lat="38.3644647" lon="-0.8908782"><ele>403.75</ele><time>2026-04-13T13:12:16.692Z</time></trkpt><trkpt lat="38.3643516" lon="-0.890879"><ele>403.0</ele><time>2026-04-13T13:12:17.692Z</time></trkpt><trkpt lat="38.3642468" lon="-0.8908968"><ele>403.0</ele><time>2026-04-13T13:12:18.692Z</time></trkpt><trkpt lat="38.3641507" lon="-0.8909351"><ele>403.0</ele><time>2026-04-13T13:12:19.692Z</time></trkpt><trkpt lat="38.36406" lon="-0.8909615"><ele>403.0</ele><time>2026-04-13T13:12:20.692Z</time></trkpt><trkpt lat="38.363975" lon="-0.8909413"><ele>403.0</ele><time>2026-04-13T13:12:21.692Z</time></trkpt><trkpt lat="38.363901" lon="-0.8908837"><ele>403.0</ele><time>2026-04-13T13:12:22.692Z</time></trkpt><trkpt lat="38.3638477" lon="-0.890791"><ele>403.0</ele><time>2026-04-13T13:12:23.692Z</time></trkpt><trkpt lat="38.3638278" lon="-0.8906727"><ele>403.0</ele><time>2026-04-13T13:12:24.692Z</time></trkpt><trkpt lat="38.3638476" lon="-0.8905476"><ele>403.0</ele><time>2026-04-13T13:12:25.692Z</time></trkpt><trkpt lat="38.3638844" lon="-0.8904109"><ele>403.0</ele><time>2026-04-13T13:12:26.692Z</time></trkpt><trkpt lat="38.3639168" lon="-0.8902598"><ele>403.0</ele><time>2026-04-13T13:12:27.692Z</time></trkpt><trkpt lat="38.3639423" lon="-0.8900812"><ele>402.33333333333337</ele><time>2026-04-13T13:12:28.692Z</time></trkpt><trkpt lat="38.3639606" lon="-0.8898932"><ele>401.66666666666663</ele><time>2026-04-13T13:12:29.693Z</time></trkpt><trkpt lat="38.3639822" lon="-0.8896879"><ele>401.0</ele><time>2026-04-13T13:12:30.692Z</time></trkpt><trkpt lat="38.3640039" lon="-0.8894663"><ele>400.66666666666663</ele><time>2026-04-13T13:12:31.692Z</time></trkpt><trkpt lat="38.3640264" lon="-0.8892326"><ele>400.33333333333337</ele><time>2026-04-13T13:12:32.693Z</time></trkpt><trkpt lat="38.3640462" lon="-0.8889937"><ele>400.0</ele><time>2026-04-13T13:12:33.692Z</time></trkpt><trkpt lat="38.3640709" lon="-0.8887478"><ele>400.0</ele><time>2026-04-13T13:12:34.693Z</time></trkpt><trkpt lat="38.3640918" lon="-0.8885007"><ele>400.0</ele><time>2026-04-13T13:12:35.692Z</time></trkpt><trkpt lat="38.3641141" lon="-0.888244"><ele>400.0</ele><time>2026-04-13T13:12:36.692Z</time></trkpt><trkpt lat="38.3641227" lon="-0.8879798"><ele>399.33333333333337</ele><time>2026-04-13T13:12:37.692Z</time></trkpt><trkpt lat="38.3641025" lon="-0.8877011"><ele>398.66666666666663</ele><time>2026-04-13T13:12:38.692Z</time></trkpt><trkpt lat="38.364066" lon="-0.8874183"><ele>398.0</ele><time>2026-04-13T13:12:39.693Z</time></trkpt><trkpt lat="38.3640208" lon="-0.8871282"><ele>398.0</ele><time>2026-04-13T13:12:40.692Z</time></trkpt><trkpt lat="38.363971" lon="-0.8868322"><ele>398.0</ele><time>2026-04-13T13:12:41.692Z</time></trkpt><trkpt lat="38.3639199" lon="-0.8865375"><ele>398.0</ele><time>2026-04-13T13:12:42.692Z</time></trkpt><trkpt lat="38.3638687" lon="-0.8862336"><ele>398.0</ele><time>2026-04-13T13:12:43.692Z</time></trkpt><trkpt lat="38.3638213" lon="-0.8859288"><ele>395.5</ele><time>2026-04-13T13:12:44.692Z</time></trkpt><trkpt lat="38.3637731" lon="-0.8856257"><ele>393.0</ele><time>2026-04-13T13:12:45.692Z</time></trkpt><trkpt lat="38.3637271" lon="-0.8853191"><ele>393.0</ele><time>2026-04-13T13:12:46.692Z</time></trkpt><trkpt lat="38.3636847" lon="-0.8850096"><ele>393.0</ele><time>2026-04-13T13:12:47.692Z</time></trkpt><trkpt lat="38.3636424" lon="-0.8847016"><ele>393.0</ele><time>2026-04-13T13:12:48.692Z</time></trkpt><trkpt lat="38.3636034" lon="-0.8843915"><ele>393.0</ele><time>2026-04-13T13:12:49.692Z</time></trkpt><trkpt lat="38.3635701" lon="-0.8840859"><ele>392.5</ele><time>2026-04-13T13:12:50.692Z</time></trkpt><trkpt lat="38.3635408" lon="-0.8837856"><ele>392.0</ele><time>2026-04-13T13:12:51.692Z</time></trkpt><trkpt lat="38.3635161" lon="-0.8834842"><ele>392.0</ele><time>2026-04-13T13:12:52.692Z</time></trkpt><trkpt lat="38.3634939" lon="-0.8831842"><ele>392.0</ele><time>2026-04-13T13:12:53.692Z</time></trkpt><trkpt lat="38.3634736" lon="-0.8828889"><ele>391.5</ele><time>2026-04-13T13:12:54.692Z</time></trkpt><trkpt lat="38.3634523" lon="-0.8825968"><ele>391.0</ele><time>2026-04-13T13:12:55.692Z</time></trkpt><trkpt lat="38.3634326" lon="-0.8823024"><ele>391.0</ele><time>2026-04-13T13:12:56.692Z</time></trkpt><trkpt lat="38.3634138" lon="-0.882007"><ele>391.0</ele><time>2026-04-13T13:12:57.692Z</time></trkpt><trkpt lat="38.3633945" lon="-0.8817096"><ele>390.5</ele><time>2026-04-13T13:12:58.692Z</time></trkpt><trkpt lat="38.3633767" lon="-0.8814155"><ele>390.0</ele><time>2026-04-13T13:12:59.692Z</time></trkpt><trkpt lat="38.3633611" lon="-0.8811243"><ele>390.0</ele><time>2026-04-13T13:13:00.692Z</time></trkpt><trkpt lat="38.3633451" lon="-0.8808341"><ele>390.0</ele><time>2026-04-13T13:13:01.692Z</time></trkpt><trkpt lat="38.3633262" lon="-0.8805433"><ele>390.0</ele><time>2026-04-13T13:13:02.693Z</time></trkpt><trkpt lat="38.3633085" lon="-0.8802543"><ele>390.0</ele><time>2026-04-13T13:13:03.692Z</time></trkpt><trkpt lat="38.3632948" lon="-0.8799656"><ele>390.0</ele><time>2026-04-13T13:13:04.692Z</time></trkpt><trkpt lat="38.3632935" lon="-0.8796782"><ele>390.0</ele><time>2026-04-13T13:13:05.692Z</time></trkpt><trkpt lat="38.3633045" lon="-0.8793883"><ele>390.0</ele><time>2026-04-13T13:13:06.692Z</time></trkpt><trkpt lat="38.3633198" lon="-0.8790942"><ele>390.0</ele><time>2026-04-13T13:13:07.692Z</time></trkpt><trkpt lat="38.3633428" lon="-0.8788047"><ele>390.0</ele><time>2026-04-13T13:13:08.692Z</time></trkpt><trkpt lat="38.363369" lon="-0.8785024"><ele>390.0</ele><time>2026-04-13T13:13:09.692Z</time></trkpt><trkpt lat="38.3633925" lon="-0.8782033"><ele>389.0</ele><time>2026-04-13T13:13:10.692Z</time></trkpt><trkpt lat="38.3634166" lon="-0.8779067"><ele>388.0</ele><time>2026-04-13T13:13:11.692Z</time></trkpt><trkpt lat="38.3634417" lon="-0.8776111"><ele>388.0</ele><time>2026-04-13T13:13:12.692Z</time></trkpt><trkpt lat="38.3634663" lon="-0.877315"><ele>388.0</ele><time>2026-04-13T13:13:13.692Z</time></trkpt><trkpt lat="38.3634898" lon="-0.8770164"><ele>387.5</ele><time>2026-04-13T13:13:14.692Z</time></trkpt><trkpt lat="38.3635132" lon="-0.8767194"><ele>387.0</ele><time>2026-04-13T13:13:15.692Z</time></trkpt><trkpt lat="38.3635354" lon="-0.8764266"><ele>387.0</ele><time>2026-04-13T13:13:16.692Z</time></trkpt><trkpt lat="38.3635596" lon="-0.8761393"><ele>387.0</ele><time>2026-04-13T13:13:17.692Z</time></trkpt><trkpt lat="38.3635829" lon="-0.8758489"><ele>386.33333333333337</ele><time>2026-04-13T13:13:18.693Z</time></trkpt><trkpt lat="38.363608" lon="-0.8755634"><ele>385.6666666666667</ele><time>2026-04-13T13:13:19.692Z</time></trkpt><trkpt lat="38.3636321" lon="-0.8752888"><ele>385.0</ele><time>2026-04-13T13:13:20.692Z</time></trkpt><trkpt lat="38.3636554" lon="-0.8750155"><ele>385.0</ele><time>2026-04-13T13:13:21.692Z</time></trkpt><trkpt lat="38.3636752" lon="-0.8747515"><ele>385.0</ele><time>2026-04-13T13:13:22.692Z</time></trkpt><trkpt lat="38.3636948" lon="-0.8745003"><ele>385.0</ele><time>2026-04-13T13:13:23.692Z</time></trkpt><trkpt lat="38.3637098" lon="-0.874264"><ele>385.0</ele><time>2026-04-13T13:13:24.692Z</time></trkpt><trkpt lat="38.3637263" lon="-0.8740499"><ele>385.0</ele><time>2026-04-13T13:13:25.692Z</time></trkpt><trkpt lat="38.3637273" lon="-0.8738571"><ele>385.0</ele><time>2026-04-13T13:13:26.692Z</time></trkpt><trkpt lat="38.363711" lon="-0.8736846"><ele>385.0</ele><time>2026-04-13T13:13:27.692Z</time></trkpt><trkpt lat="38.3636848" lon="-0.8735384"><ele>385.0</ele><time>2026-04-13T13:13:28.692Z</time></trkpt><trkpt lat="38.3636485" lon="-0.8734137"><ele>385.0</ele><time>2026-04-13T13:13:29.692Z</time></trkpt><trkpt lat="38.3635778" lon="-0.873361"><ele>385.0</ele><time>2026-04-13T13:13:30.692Z</time></trkpt><trkpt lat="38.3634941" lon="-0.8733209"><ele>385.0</ele><time>2026-04-13T13:13:31.692Z</time></trkpt><trkpt lat="38.3634036" lon="-0.8732866"><ele>385.2</ele><time>2026-04-13T13:13:32.692Z</time></trkpt><trkpt lat="38.3633177" lon="-0.8732252"><ele>385.4</ele><time>2026-04-13T13:13:33.693Z</time></trkpt><trkpt lat="38.3632505" lon="-0.8731543"><ele>385.6</ele><time>2026-04-13T13:13:34.692Z</time></trkpt><trkpt lat="38.3632167" lon="-0.8730171"><ele>385.8</ele><time>2026-04-13T13:13:35.692Z</time></trkpt><trkpt lat="38.363217" lon="-0.8728824"><ele>386.0</ele><time>2026-04-13T13:13:36.692Z</time></trkpt><trkpt lat="38.3632614" lon="-0.8727571"><ele>386.0</ele><time>2026-04-13T13:13:37.692Z</time></trkpt><trkpt lat="38.3633306" lon="-0.8726494"><ele>386.0</ele><time>2026-04-13T13:13:38.692Z</time></trkpt><trkpt lat="38.3634288" lon="-0.8725835"><ele>386.0</ele><time>2026-04-13T13:13:39.692Z</time></trkpt><trkpt lat="38.363537" lon="-0.8725769"><ele>386.0</ele><time>2026-04-13T13:13:40.692Z</time></trkpt><trkpt lat="38.363648" lon="-0.8725582"><ele>386.0</ele><time>2026-04-13T13:13:41.692Z</time></trkpt><trkpt lat="38.3637523" lon="-0.8724918"><ele>386.75</ele><time>2026-04-13T13:13:42.692Z</time></trkpt><trkpt lat="38.3638378" lon="-0.8723955"><ele>387.5</ele><time>2026-04-13T13:13:43.692Z</time></trkpt><trkpt lat="38.3638948" lon="-0.872262"><ele>388.25</ele><time>2026-04-13T13:13:44.692Z</time></trkpt><trkpt lat="38.3639448" lon="-0.8720715"><ele>389.0</ele><time>2026-04-13T13:13:45.692Z</time></trkpt><trkpt lat="38.3639904" lon="-0.8718938"><ele>390.3333333333333</ele><time>2026-04-13T13:13:46.692Z</time></trkpt><trkpt lat="38.3640324" lon="-0.8716958"><ele>391.66666666666663</ele><time>2026-04-13T13:13:47.692Z</time></trkpt><trkpt lat="38.364075" lon="-0.8714887"><ele>393.0</ele><time>2026-04-13T13:13:48.692Z</time></trkpt><trkpt lat="38.3641186" lon="-0.871285"><ele>393.0</ele><time>2026-04-13T13:13:49.692Z</time></trkpt><trkpt lat="38.3641713" lon="-0.871075"><ele>393.0</ele><time>2026-04-13T13:13:50.692Z</time></trkpt><trkpt lat="38.3642331" lon="-0.8708611"><ele>393.0</ele><time>2026-04-13T13:13:51.692Z</time></trkpt><trkpt lat="38.3643003" lon="-0.8706401"><ele>393.66666666666663</ele><time>2026-04-13T13:13:52.692Z</time></trkpt><trkpt lat="38.364373" lon="-0.8704175"><ele>394.3333333333333</ele><time>2026-04-13T13:13:53.692Z</time></trkpt><trkpt lat="38.3644516" lon="-0.8701895"><ele>395.0</ele><time>2026-04-13T13:13:54.692Z</time></trkpt><trkpt lat="38.3645342" lon="-0.869957"><ele>395.3333333333333</ele><time>2026-04-13T13:13:55.692Z</time></trkpt><trkpt lat="38.3646185" lon="-0.8697238"><ele>395.66666666666663</ele><time>2026-04-13T13:13:56.692Z</time></trkpt><trkpt lat="38.3647" lon="-0.8694902"><ele>396.0</ele><time>2026-04-13T13:13:57.692Z</time></trkpt><trkpt lat="38.3647802" lon="-0.8692519"><ele>398.33333333333337</ele><time>2026-04-13T13:13:58.692Z</time></trkpt><trkpt lat="38.3648569" lon="-0.8690062"><ele>400.6666666666667</ele><time>2026-04-13T13:13:59.693Z</time></trkpt><trkpt lat="38.3649256" lon="-0.8687498"><ele>403.0</ele><time>2026-04-13T13:14:00.692Z</time></trkpt><trkpt lat="38.3649834" lon="-0.8684899"><ele>402.6666666666667</ele><time>2026-04-13T13:14:01.692Z</time></trkpt><trkpt lat="38.3650254" lon="-0.8682138"><ele>402.33333333333337</ele><time>2026-04-13T13:14:02.692Z</time></trkpt><trkpt lat="38.3650494" lon="-0.8679335"><ele>402.0</ele><time>2026-04-13T13:14:03.692Z</time></trkpt><trkpt lat="38.3650523" lon="-0.8676452"><ele>403.5</ele><time>2026-04-13T13:14:04.692Z</time></trkpt><trkpt lat="38.3650387" lon="-0.8673521"><ele>405.0</ele><time>2026-04-13T13:14:05.692Z</time></trkpt><trkpt lat="38.3650022" lon="-0.8670574"><ele>405.5</ele><time>2026-04-13T13:14:06.692Z</time></trkpt><trkpt lat="38.364941" lon="-0.8667574"><ele>406.0</ele><time>2026-04-13T13:14:07.692Z</time></trkpt><trkpt lat="38.3648702" lon="-0.8664545"><ele>406.0</ele><time>2026-04-13T13:14:08.692Z</time></trkpt><trkpt lat="38.3647921" lon="-0.8661498"><ele>406.0</ele><time>2026-04-13T13:14:09.692Z</time></trkpt><trkpt lat="38.3647123" lon="-0.8658409"><ele>403.0</ele><time>2026-04-13T13:14:10.692Z</time></trkpt><trkpt lat="38.3646321" lon="-0.8655283"><ele>400.0</ele><time>2026-04-13T13:14:11.692Z</time></trkpt><trkpt lat="38.36455" lon="-0.8652091"><ele>399.5</ele><time>2026-04-13T13:14:12.692Z</time></trkpt><trkpt lat="38.3644685" lon="-0.8648892"><ele>399.0</ele><time>2026-04-13T13:14:13.692Z</time></trkpt><trkpt lat="38.3643875" lon="-0.8645758"><ele>398.0</ele><time>2026-04-13T13:14:14.692Z</time></trkpt><trkpt lat="38.3643088" lon="-0.8642624"><ele>397.0</ele><time>2026-04-13T13:14:15.692Z</time></trkpt><trkpt lat="38.3642315" lon="-0.8639488"><ele>397.0</ele><time>2026-04-13T13:14:16.692Z</time></trkpt><trkpt lat="38.3641573" lon="-0.8636417"><ele>397.0</ele><time>2026-04-13T13:14:17.692Z</time></trkpt><trkpt lat="38.3640844" lon="-0.863331"><ele>397.0</ele><time>2026-04-13T13:14:18.692Z</time></trkpt><trkpt lat="38.3640174" lon="-0.8630257"><ele>397.0</ele><time>2026-04-13T13:14:19.692Z</time></trkpt><trkpt lat="38.3639525" lon="-0.8627195"><ele>396.5</ele><time>2026-04-13T13:14:20.692Z</time></trkpt><trkpt lat="38.3638893" lon="-0.8624142"><ele>396.0</ele><time>2026-04-13T13:14:21.692Z</time></trkpt><trkpt lat="38.3638288" lon="-0.8621141"><ele>394.0</ele><time>2026-04-13T13:14:22.692Z</time></trkpt><trkpt lat="38.3637707" lon="-0.8618118"><ele>392.0</ele><time>2026-04-13T13:14:23.692Z</time></trkpt><trkpt lat="38.3636137" lon="-0.8609341"><ele>392.0</ele><time>2026-04-13T13:14:26.667Z</time></trkpt><trkpt lat="38.3635625" lon="-0.8606365"><ele>392.0</ele><time>2026-04-13T13:14:27.672Z</time></trkpt><trkpt lat="38.3635144" lon="-0.8603332"><ele>391.5</ele><time>2026-04-13T13:14:28.669Z</time></trkpt><trkpt lat="38.3634687" lon="-0.8600263"><ele>391.0</ele><time>2026-04-13T13:14:29.67Z</time></trkpt><trkpt lat="38.3634196" lon="-0.8597197"><ele>391.0</ele><time>2026-04-13T13:14:30.669Z</time></trkpt><trkpt lat="38.3633694" lon="-0.8594123"><ele>391.0</ele><time>2026-04-13T13:14:31.666Z</time></trkpt><trkpt lat="38.3633186" lon="-0.8590952"><ele>391.5</ele><time>2026-04-13T13:14:32.666Z</time></trkpt><trkpt lat="38.3632673" lon="-0.8587787"><ele>392.0</ele><time>2026-04-13T13:14:33.666Z</time></trkpt><trkpt lat="38.3632207" lon="-0.8584627"><ele>390.5</ele><time>2026-04-13T13:14:34.666Z</time></trkpt><trkpt lat="38.3631797" lon="-0.8581368"><ele>389.0</ele><time>2026-04-13T13:14:35.666Z</time></trkpt><trkpt lat="38.3631511" lon="-0.8578067"><ele>388.0</ele><time>2026-04-13T13:14:36.666Z</time></trkpt><trkpt lat="38.3631404" lon="-0.8574742"><ele>387.0</ele><time>2026-04-13T13:14:37.666Z</time></trkpt><trkpt lat="38.363145" lon="-0.8571387"><ele>387.0</ele><time>2026-04-13T13:14:38.666Z</time></trkpt><trkpt lat="38.3631679" lon="-0.8568103"><ele>387.0</ele><time>2026-04-13T13:14:39.666Z</time></trkpt><trkpt lat="38.3631967" lon="-0.8564895"><ele>386.5</ele><time>2026-04-13T13:14:40.666Z</time></trkpt><trkpt lat="38.3632416" lon="-0.8561822"><ele>386.0</ele><time>2026-04-13T13:14:41.666Z</time></trkpt><trkpt lat="38.3632952" lon="-0.8558918"><ele>386.0</ele><time>2026-04-13T13:14:42.666Z</time></trkpt><trkpt lat="38.3633589" lon="-0.8556059"><ele>386.0</ele><time>2026-04-13T13:14:43.666Z</time></trkpt><trkpt lat="38.3634323" lon="-0.855333"><ele>385.5</ele><time>2026-04-13T13:14:44.666Z</time></trkpt><trkpt lat="38.3635087" lon="-0.8550632"><ele>385.0</ele><time>2026-04-13T13:14:45.667Z</time></trkpt><trkpt lat="38.3635883" lon="-0.8547919"><ele>385.0</ele><time>2026-04-13T13:14:46.666Z</time></trkpt><trkpt lat="38.3636679" lon="-0.8545286"><ele>385.0</ele><time>2026-04-13T13:14:47.666Z</time></trkpt><trkpt lat="38.3637425" lon="-0.8542732"><ele>385.0</ele><time>2026-04-13T13:14:48.666Z</time></trkpt><trkpt lat="38.3638128" lon="-0.8540243"><ele>386.33333333333337</ele><time>2026-04-13T13:14:49.666Z</time></trkpt><trkpt lat="38.3638836" lon="-0.8537772"><ele>387.66666666666663</ele><time>2026-04-13T13:14:50.666Z</time></trkpt><trkpt lat="38.3639551" lon="-0.8535288"><ele>389.0</ele><time>2026-04-13T13:14:51.666Z</time></trkpt><trkpt lat="38.3640161" lon="-0.8533167"><ele>389.0</ele><time>2026-04-13T13:14:52.666Z</time></trkpt><trkpt lat="38.3640784" lon="-0.8531037"><ele>389.0</ele><time>2026-04-13T13:14:53.666Z</time></trkpt><trkpt lat="38.3641296" lon="-0.8529378"><ele>389.0</ele><time>2026-04-13T13:14:54.666Z</time></trkpt><trkpt lat="38.3641721" lon="-0.8527834"><ele>389.0</ele><time>2026-04-13T13:14:55.666Z</time></trkpt><trkpt lat="38.3642015" lon="-0.8526485"><ele>388.8333333333333</ele><time>2026-04-13T13:14:56.666Z</time></trkpt><trkpt lat="38.3642176" lon="-0.8525399"><ele>388.66666666666663</ele><time>2026-04-13T13:14:57.666Z</time></trkpt><trkpt lat="38.3642218" lon="-0.8524445"><ele>388.5</ele><time>2026-04-13T13:14:58.666Z</time></trkpt><trkpt lat="38.3641967" lon="-0.8523541"><ele>388.33333333333337</ele><time>2026-04-13T13:14:59.666Z</time></trkpt><trkpt lat="38.3641505" lon="-0.8522677"><ele>388.1666666666667</ele><time>2026-04-13T13:15:00.666Z</time></trkpt><trkpt lat="38.3640825" lon="-0.852207"><ele>388.0</ele><time>2026-04-13T13:15:01.666Z</time></trkpt><trkpt lat="38.3639946" lon="-0.852179"><ele>388.0</ele><time>2026-04-13T13:15:02.666Z</time></trkpt><trkpt lat="38.3638888" lon="-0.8521737"><ele>388.0</ele><time>2026-04-13T13:15:03.666Z</time></trkpt><trkpt lat="38.3637749" lon="-0.8521853"><ele>388.0</ele><time>2026-04-13T13:15:04.666Z</time></trkpt><trkpt lat="38.3636548" lon="-0.8521976"><ele>388.0</ele><time>2026-04-13T13:15:05.666Z</time></trkpt><trkpt lat="38.3635287" lon="-0.8521974"><ele>387.25</ele><time>2026-04-13T13:15:06.666Z</time></trkpt><trkpt lat="38.3633914" lon="-0.85219"><ele>386.5</ele><time>2026-04-13T13:15:07.666Z</time></trkpt><trkpt lat="38.3632453" lon="-0.8521585"><ele>385.75</ele><time>2026-04-13T13:15:08.666Z</time></trkpt><trkpt lat="38.3630909" lon="-0.8521129"><ele>385.0</ele><time>2026-04-13T13:15:09.666Z</time></trkpt><trkpt lat="38.362936" lon="-0.8520563"><ele>383.6666666666667</ele><time>2026-04-13T13:15:10.666Z</time></trkpt><trkpt lat="38.3627785" lon="-0.8519857"><ele>382.33333333333337</ele><time>2026-04-13T13:15:11.666Z</time></trkpt><trkpt lat="38.3626108" lon="-0.8519104"><ele>381.0</ele><time>2026-04-13T13:15:12.666Z</time></trkpt><trkpt lat="38.362435" lon="-0.851836"><ele>380.0</ele><time>2026-04-13T13:15:13.666Z</time></trkpt><trkpt lat="38.3622511" lon="-0.8517619"><ele>379.0</ele><time>2026-04-13T13:15:14.666Z</time></trkpt><trkpt lat="38.3620643" lon="-0.8516838"><ele>378.0</ele><time>2026-04-13T13:15:15.666Z</time></trkpt><trkpt lat="38.3618748" lon="-0.8516096"><ele>377.0</ele><time>2026-04-13T13:15:16.667Z</time></trkpt><trkpt lat="38.3616836" lon="-0.8515335"><ele>376.0</ele><time>2026-04-13T13:15:17.666Z</time></trkpt><trkpt lat="38.3614921" lon="-0.8514564"><ele>375.0</ele><time>2026-04-13T13:15:18.666Z</time></trkpt><trkpt lat="38.3613049" lon="-0.851384"><ele>374.0</ele><time>2026-04-13T13:15:19.666Z</time></trkpt><trkpt lat="38.361125" lon="-0.8513072"><ele>373.0</ele><time>2026-04-13T13:15:20.666Z</time></trkpt><trkpt lat="38.3609537" lon="-0.8512311"><ele>372.0</ele><time>2026-04-13T13:15:21.666Z</time></trkpt><trkpt lat="38.3607882" lon="-0.8511482"><ele>372.0</ele><time>2026-04-13T13:15:22.666Z</time></trkpt><trkpt lat="38.3606272" lon="-0.8510431"><ele>372.0</ele><time>2026-04-13T13:15:23.666Z</time></trkpt><trkpt lat="38.3604834" lon="-0.8509095"><ele>372.0</ele><time>2026-04-13T13:15:24.666Z</time></trkpt><trkpt lat="38.3603483" lon="-0.8507548"><ele>371.0</ele><time>2026-04-13T13:15:25.666Z</time></trkpt><trkpt lat="38.3602188" lon="-0.8505909"><ele>370.0</ele><time>2026-04-13T13:15:26.666Z</time></trkpt><trkpt lat="38.3600894" lon="-0.8504216"><ele>369.0</ele><time>2026-04-13T13:15:27.666Z</time></trkpt><trkpt lat="38.3599594" lon="-0.8502481"><ele>369.3333333333333</ele><time>2026-04-13T13:15:28.666Z</time></trkpt><trkpt lat="38.3598251" lon="-0.8500731"><ele>369.66666666666663</ele><time>2026-04-13T13:15:29.666Z</time></trkpt><trkpt lat="38.3596843" lon="-0.8499129"><ele>370.0</ele><time>2026-04-13T13:15:30.666Z</time></trkpt><trkpt lat="38.3595318" lon="-0.8497719"><ele>368.66666666666663</ele><time>2026-04-13T13:15:31.666Z</time></trkpt><trkpt lat="38.3593613" lon="-0.8496446"><ele>367.3333333333333</ele><time>2026-04-13T13:15:32.666Z</time></trkpt><trkpt lat="38.3591883" lon="-0.8495367"><ele>366.0</ele><time>2026-04-13T13:15:33.666Z</time></trkpt><trkpt lat="38.3590096" lon="-0.8494372"><ele>364.3333333333333</ele><time>2026-04-13T13:15:34.666Z</time></trkpt><trkpt lat="38.3588292" lon="-0.8493396"><ele>362.66666666666663</ele><time>2026-04-13T13:15:35.666Z</time></trkpt><trkpt lat="38.3586512" lon="-0.8492411"><ele>361.0</ele><time>2026-04-13T13:15:36.666Z</time></trkpt><trkpt lat="38.3584818" lon="-0.8491376"><ele>360.66666666666663</ele><time>2026-04-13T13:15:37.666Z</time></trkpt><trkpt lat="38.358313" lon="-0.8490223"><ele>360.3333333333333</ele><time>2026-04-13T13:15:38.666Z</time></trkpt><trkpt lat="38.3581559" lon="-0.8488827"><ele>360.0</ele><time>2026-04-13T13:15:39.666Z</time></trkpt><trkpt lat="38.3580017" lon="-0.848726"><ele>359.0</ele><time>2026-04-13T13:15:40.666Z</time></trkpt><trkpt lat="38.357849" lon="-0.8485619"><ele>358.0</ele><time>2026-04-13T13:15:41.666Z</time></trkpt><trkpt lat="38.3576912" lon="-0.848394"><ele>357.0</ele><time>2026-04-13T13:15:42.666Z</time></trkpt><trkpt lat="38.3575342" lon="-0.8482253"><ele>356.6666666666667</ele><time>2026-04-13T13:15:43.666Z</time></trkpt><trkpt lat="38.357374" lon="-0.8480548"><ele>356.33333333333337</ele><time>2026-04-13T13:15:44.666Z</time></trkpt><trkpt lat="38.3572146" lon="-0.8478865"><ele>356.0</ele><time>2026-04-13T13:15:45.666Z</time></trkpt><trkpt lat="38.3570543" lon="-0.8477233"><ele>355.33333333333337</ele><time>2026-04-13T13:15:46.666Z</time></trkpt><trkpt lat="38.3568905" lon="-0.8475597"><ele>354.6666666666667</ele><time>2026-04-13T13:15:47.666Z</time></trkpt><trkpt lat="38.3567177" lon="-0.8474006"><ele>354.0</ele><time>2026-04-13T13:15:48.666Z</time></trkpt><trkpt lat="38.3565297" lon="-0.8472596"><ele>353.6666666666667</ele><time>2026-04-13T13:15:49.666Z</time></trkpt><trkpt lat="38.3563374" lon="-0.8471295"><ele>353.33333333333337</ele><time>2026-04-13T13:15:50.666Z</time></trkpt><trkpt lat="38.3561351" lon="-0.846998"><ele>353.0</ele><time>2026-04-13T13:15:51.666Z</time></trkpt><trkpt lat="38.355928" lon="-0.84687"><ele>353.0</ele><time>2026-04-13T13:15:52.666Z</time></trkpt><trkpt lat="38.3557201" lon="-0.8467427"><ele>353.0</ele><time>2026-04-13T13:15:53.666Z</time></trkpt><trkpt lat="38.3555085" lon="-0.846622"><ele>351.0</ele><time>2026-04-13T13:15:54.666Z</time></trkpt><trkpt lat="38.3553032" lon="-0.8464978"><ele>349.0</ele><time>2026-04-13T13:15:55.666Z</time></trkpt><trkpt lat="38.3550993" lon="-0.8463731"><ele>349.0</ele><time>2026-04-13T13:15:56.667Z</time></trkpt><trkpt lat="38.3548994" lon="-0.8462492"><ele>349.0</ele><time>2026-04-13T13:15:57.666Z</time></trkpt><trkpt lat="38.3546973" lon="-0.8461278"><ele>349.0</ele><time>2026-04-13T13:15:58.666Z</time></trkpt><trkpt lat="38.3544942" lon="-0.846005"><ele>348.0</ele><time>2026-04-13T13:15:59.666Z</time></trkpt><trkpt lat="38.3542951" lon="-0.8458863"><ele>347.0</ele><time>2026-04-13T13:16:00.666Z</time></trkpt><trkpt lat="38.3540946" lon="-0.8457624"><ele>346.0</ele><time>2026-04-13T13:16:01.666Z</time></trkpt><trkpt lat="38.3539007" lon="-0.8456495"><ele>345.66666666666663</ele><time>2026-04-13T13:16:02.666Z</time></trkpt><trkpt lat="38.3537076" lon="-0.8455337"><ele>345.3333333333333</ele><time>2026-04-13T13:16:03.666Z</time></trkpt><trkpt lat="38.3535107" lon="-0.8454158"><ele>345.0</ele><time>2026-04-13T13:16:04.666Z</time></trkpt><trkpt lat="38.353321" lon="-0.8453001"><ele>345.0</ele><time>2026-04-13T13:16:05.666Z</time></trkpt><trkpt lat="38.3531317" lon="-0.8451879"><ele>345.0</ele><time>2026-04-13T13:16:06.667Z</time></trkpt><trkpt lat="38.352942" lon="-0.8450701"><ele>345.0</ele><time>2026-04-13T13:16:07.666Z</time></trkpt><trkpt lat="38.3527471" lon="-0.8449482"><ele>344.3333333333333</ele><time>2026-04-13T13:16:08.666Z</time></trkpt><trkpt lat="38.3525484" lon="-0.8448276"><ele>343.66666666666663</ele><time>2026-04-13T13:16:09.666Z</time></trkpt><trkpt lat="38.3523471" lon="-0.8447083"><ele>343.0</ele><time>2026-04-13T13:16:10.666Z</time></trkpt><trkpt lat="38.3521451" lon="-0.8445838"><ele>342.0</ele><time>2026-04-13T13:16:11.666Z</time></trkpt><trkpt lat="38.3519444" lon="-0.8444502"><ele>341.0</ele><time>2026-04-13T13:16:12.666Z</time></trkpt><trkpt lat="38.3517525" lon="-0.8442911"><ele>340.5</ele><time>2026-04-13T13:16:13.666Z</time></trkpt><trkpt lat="38.3515673" lon="-0.8441069"><ele>340.0</ele><time>2026-04-13T13:16:14.666Z</time></trkpt><trkpt lat="38.3513882" lon="-0.8439117"><ele>339.5</ele><time>2026-04-13T13:16:15.666Z</time></trkpt><trkpt lat="38.351208" lon="-0.8437155"><ele>339.0</ele><time>2026-04-13T13:16:16.666Z</time></trkpt><trkpt lat="38.3510266" lon="-0.8435167"><ele>339.0</ele><time>2026-04-13T13:16:17.666Z</time></trkpt><trkpt lat="38.3508504" lon="-0.843332"><ele>339.0</ele><time>2026-04-13T13:16:18.666Z</time></trkpt><trkpt lat="38.350669" lon="-0.8431381"><ele>339.0</ele><time>2026-04-13T13:16:19.666Z</time></trkpt><trkpt lat="38.3504858" lon="-0.8429445"><ele>339.0</ele><time>2026-04-13T13:16:20.666Z</time></trkpt><trkpt lat="38.3503019" lon="-0.8427528"><ele>337.0</ele><time>2026-04-13T13:16:21.666Z</time></trkpt><trkpt lat="38.3501242" lon="-0.8425549"><ele>335.0</ele><time>2026-04-13T13:16:22.666Z</time></trkpt><trkpt lat="38.3499568" lon="-0.842343"><ele>335.0</ele><time>2026-04-13T13:16:23.666Z</time></trkpt><trkpt lat="38.3498028" lon="-0.8421193"><ele>335.0</ele><time>2026-04-13T13:16:24.666Z</time></trkpt><trkpt lat="38.3496596" lon="-0.8418833"><ele>334.5</ele><time>2026-04-13T13:16:25.666Z</time></trkpt><trkpt lat="38.3495274" lon="-0.8416368"><ele>334.0</ele><time>2026-04-13T13:16:26.666Z</time></trkpt><trkpt lat="38.3493998" lon="-0.8413887"><ele>334.0</ele><time>2026-04-13T13:16:27.666Z</time></trkpt><trkpt lat="38.3492715" lon="-0.8411424"><ele>334.0</ele><time>2026-04-13T13:16:28.667Z</time></trkpt><trkpt lat="38.3491406" lon="-0.8408986"><ele>335.0</ele><time>2026-04-13T13:16:29.666Z</time></trkpt><trkpt lat="38.3490125" lon="-0.8406533"><ele>336.0</ele><time>2026-04-13T13:16:30.666Z</time></trkpt><trkpt lat="38.348881" lon="-0.8404028"><ele>335.0</ele><time>2026-04-13T13:16:31.666Z</time></trkpt><trkpt lat="38.3487479" lon="-0.8401499"><ele>334.0</ele><time>2026-04-13T13:16:32.666Z</time></trkpt><trkpt lat="38.3486155" lon="-0.8398952"><ele>334.0</ele><time>2026-04-13T13:16:33.666Z</time></trkpt><trkpt lat="38.3484798" lon="-0.8396401"><ele>334.0</ele><time>2026-04-13T13:16:34.666Z</time></trkpt><trkpt lat="38.3483438" lon="-0.8393855"><ele>333.0</ele><time>2026-04-13T13:16:35.666Z</time></trkpt><trkpt lat="38.3482041" lon="-0.8391248"><ele>332.0</ele><time>2026-04-13T13:16:36.666Z</time></trkpt><trkpt lat="38.3480619" lon="-0.8388656"><ele>331.5</ele><time>2026-04-13T13:16:37.666Z</time></trkpt><trkpt lat="38.3479207" lon="-0.8386013"><ele>331.0</ele><time>2026-04-13T13:16:38.666Z</time></trkpt><trkpt lat="38.3477841" lon="-0.8383338"><ele>330.0</ele><time>2026-04-13T13:16:39.666Z</time></trkpt><trkpt lat="38.3476508" lon="-0.8380604"><ele>329.0</ele><time>2026-04-13T13:16:40.666Z</time></trkpt><trkpt lat="38.3475199" lon="-0.8377839"><ele>329.5</ele><time>2026-04-13T13:16:41.666Z</time></trkpt><trkpt lat="38.34739" lon="-0.8375063"><ele>330.0</ele><time>2026-04-13T13:16:42.666Z</time></trkpt><trkpt lat="38.3472604" lon="-0.8372271"><ele>329.5</ele><time>2026-04-13T13:16:43.666Z</time></trkpt><trkpt lat="38.347129" lon="-0.8369465"><ele>329.0</ele><time>2026-04-13T13:16:44.667Z</time></trkpt><trkpt lat="38.3469977" lon="-0.8366638"><ele>328.0</ele><time>2026-04-13T13:16:45.666Z</time></trkpt><trkpt lat="38.3468674" lon="-0.8363776"><ele>327.0</ele><time>2026-04-13T13:16:46.666Z</time></trkpt><trkpt lat="38.3467343" lon="-0.8360906"><ele>327.5</ele><time>2026-04-13T13:16:47.666Z</time></trkpt><trkpt lat="38.346598" lon="-0.8358091"><ele>328.0</ele><time>2026-04-13T13:16:48.666Z</time></trkpt><trkpt lat="38.3464589" lon="-0.8355241"><ele>327.5</ele><time>2026-04-13T13:16:49.667Z</time></trkpt><trkpt lat="38.3463184" lon="-0.8352367"><ele>327.0</ele><time>2026-04-13T13:16:50.666Z</time></trkpt><trkpt lat="38.3461848" lon="-0.8349458"><ele>326.5</ele><time>2026-04-13T13:16:51.666Z</time></trkpt><trkpt lat="38.3460457" lon="-0.834651"><ele>326.0</ele><time>2026-04-13T13:16:52.666Z</time></trkpt><trkpt lat="38.3459065" lon="-0.8343628"><ele>325.5</ele><time>2026-04-13T13:16:53.666Z</time></trkpt><trkpt lat="38.3457761" lon="-0.8340685"><ele>325.0</ele><time>2026-04-13T13:16:54.666Z</time></trkpt><trkpt lat="38.3456344" lon="-0.8337889"><ele>323.5</ele><time>2026-04-13T13:16:55.666Z</time></trkpt><trkpt lat="38.3454895" lon="-0.833512"><ele>322.0</ele><time>2026-04-13T13:16:56.666Z</time></trkpt><trkpt lat="38.3453647" lon="-0.833221"><ele>322.0</ele><time>2026-04-13T13:16:57.666Z</time></trkpt><trkpt lat="38.3452344" lon="-0.8329387"><ele>322.0</ele><time>2026-04-13T13:16:58.666Z</time></trkpt><trkpt lat="38.3450977" lon="-0.8326509"><ele>322.5</ele><time>2026-04-13T13:16:59.666Z</time></trkpt><trkpt lat="38.3449608" lon="-0.8323635"><ele>323.0</ele><time>2026-04-13T13:17:00.666Z</time></trkpt><trkpt lat="38.3448203" lon="-0.8320774"><ele>322.0</ele><time>2026-04-13T13:17:01.666Z</time></trkpt><trkpt lat="38.3446843" lon="-0.8317948"><ele>321.0</ele><time>2026-04-13T13:17:02.666Z</time></trkpt><trkpt lat="38.3445519" lon="-0.8315167"><ele>321.0</ele><time>2026-04-13T13:17:03.666Z</time></trkpt><trkpt lat="38.3444212" lon="-0.8312381"><ele>321.0</ele><time>2026-04-13T13:17:04.666Z</time></trkpt><trkpt lat="38.3442911" lon="-0.830957"><ele>321.0</ele><time>2026-04-13T13:17:05.667Z</time></trkpt><trkpt lat="38.3441556" lon="-0.8306758"><ele>321.0</ele><time>2026-04-13T13:17:06.666Z</time></trkpt><trkpt lat="38.3440217" lon="-0.8303943"><ele>321.0</ele><time>2026-04-13T13:17:07.666Z</time></trkpt><trkpt lat="38.3438862" lon="-0.830108"><ele>321.0</ele><time>2026-04-13T13:17:08.666Z</time></trkpt><trkpt lat="38.3437526" lon="-0.8298297"><ele>319.0</ele><time>2026-04-13T13:17:09.666Z</time></trkpt><trkpt lat="38.3436225" lon="-0.8295508"><ele>317.0</ele><time>2026-04-13T13:17:10.666Z</time></trkpt><trkpt lat="38.3434917" lon="-0.8292684"><ele>317.0</ele><time>2026-04-13T13:17:11.666Z</time></trkpt><trkpt lat="38.3433622" lon="-0.8289942"><ele>317.0</ele><time>2026-04-13T13:17:12.666Z</time></trkpt><trkpt lat="38.3432287" lon="-0.8287157"><ele>317.0</ele><time>2026-04-13T13:17:13.666Z</time></trkpt><trkpt lat="38.3430958" lon="-0.8284391"><ele>317.0</ele><time>2026-04-13T13:17:14.666Z</time></trkpt><trkpt lat="38.3429622" lon="-0.8281625"><ele>315.5</ele><time>2026-04-13T13:17:15.666Z</time></trkpt><trkpt lat="38.342829" lon="-0.8278895"><ele>314.0</ele><time>2026-04-13T13:17:16.667Z</time></trkpt><trkpt lat="38.3427024" lon="-0.8276213"><ele>314.0</ele><time>2026-04-13T13:17:17.666Z</time></trkpt><trkpt lat="38.3425752" lon="-0.8273536"><ele>314.0</ele><time>2026-04-13T13:17:18.666Z</time></trkpt><trkpt lat="38.3424489" lon="-0.8270809"><ele>314.0</ele><time>2026-04-13T13:17:19.666Z</time></trkpt><trkpt lat="38.3423257" lon="-0.8268136"><ele>314.0</ele><time>2026-04-13T13:17:20.666Z</time></trkpt><trkpt lat="38.342199" lon="-0.8265472"><ele>313.0</ele><time>2026-04-13T13:17:21.666Z</time></trkpt><trkpt lat="38.3420712" lon="-0.8262815"><ele>312.0</ele><time>2026-04-13T13:17:22.666Z</time></trkpt><trkpt lat="38.3419439" lon="-0.8260182"><ele>312.0</ele><time>2026-04-13T13:17:23.666Z</time></trkpt><trkpt lat="38.3418166" lon="-0.8257532"><ele>312.0</ele><time>2026-04-13T13:17:24.667Z</time></trkpt><trkpt lat="38.3416891" lon="-0.8254855"><ele>312.0</ele><time>2026-04-13T13:17:25.666Z</time></trkpt><trkpt lat="38.3415629" lon="-0.8252124"><ele>312.0</ele><time>2026-04-13T13:17:26.666Z</time></trkpt><trkpt lat="38.341435" lon="-0.8249459"><ele>310.5</ele><time>2026-04-13T13:17:27.666Z</time></trkpt><trkpt lat="38.3413045" lon="-0.8246691"><ele>309.0</ele><time>2026-04-13T13:17:28.666Z</time></trkpt><trkpt lat="38.3411754" lon="-0.8244014"><ele>309.0</ele><time>2026-04-13T13:17:29.667Z</time></trkpt><trkpt lat="38.3410472" lon="-0.8241314"><ele>309.0</ele><time>2026-04-13T13:17:30.666Z</time></trkpt><trkpt lat="38.3409123" lon="-0.8238676"><ele>309.0</ele><time>2026-04-13T13:17:31.666Z</time></trkpt><trkpt lat="38.3407749" lon="-0.8236061"><ele>309.0</ele><time>2026-04-13T13:17:32.666Z</time></trkpt><trkpt lat="38.340629" lon="-0.8233504"><ele>309.0</ele><time>2026-04-13T13:17:33.666Z</time></trkpt><trkpt lat="38.3404762" lon="-0.8231029"><ele>309.0</ele><time>2026-04-13T13:17:34.666Z</time></trkpt><trkpt lat="38.3403214" lon="-0.8228562"><ele>308.5</ele><time>2026-04-13T13:17:35.666Z</time></trkpt><trkpt lat="38.3401659" lon="-0.8226118"><ele>308.0</ele><time>2026-04-13T13:17:36.666Z</time></trkpt><trkpt lat="38.3400128" lon="-0.8223661"><ele>308.0</ele><time>2026-04-13T13:17:37.667Z</time></trkpt><trkpt lat="38.3398599" lon="-0.8221238"><ele>308.0</ele><time>2026-04-13T13:17:38.666Z</time></trkpt><trkpt lat="38.3397099" lon="-0.8218875"><ele>308.0</ele><time>2026-04-13T13:17:39.666Z</time></trkpt><trkpt lat="38.3395592" lon="-0.8216485"><ele>308.0</ele><time>2026-04-13T13:17:40.666Z</time></trkpt><trkpt lat="38.339411" lon="-0.8214099"><ele>308.0</ele><time>2026-04-13T13:17:41.666Z</time></trkpt><trkpt lat="38.3392619" lon="-0.8211717"><ele>308.0</ele><time>2026-04-13T13:17:42.666Z</time></trkpt><trkpt lat="38.3391136" lon="-0.8209363"><ele>308.33333333333337</ele><time>2026-04-13T13:17:43.666Z</time></trkpt><trkpt lat="38.3389685" lon="-0.8207112"><ele>308.6666666666667</ele><time>2026-04-13T13:17:44.667Z</time></trkpt><trkpt lat="38.3388307" lon="-0.8204959"><ele>309.0</ele><time>2026-04-13T13:17:45.666Z</time></trkpt><trkpt lat="38.3386916" lon="-0.8202828"><ele>307.0</ele><time>2026-04-13T13:17:46.666Z</time></trkpt><trkpt lat="38.3385478" lon="-0.8200715"><ele>305.0</ele><time>2026-04-13T13:17:47.666Z</time></trkpt><trkpt lat="38.3384026" lon="-0.8198692"><ele>303.0</ele><time>2026-04-13T13:17:48.666Z</time></trkpt><trkpt lat="38.3382533" lon="-0.8196681"><ele>303.0</ele><time>2026-04-13T13:17:49.666Z</time></trkpt><trkpt lat="38.3381005" lon="-0.819461"><ele>303.0</ele><time>2026-04-13T13:17:50.666Z</time></trkpt><trkpt lat="38.3379475" lon="-0.8192559"><ele>303.0</ele><time>2026-04-13T13:17:51.667Z</time></trkpt><trkpt lat="38.3377927" lon="-0.8190437"><ele>301.5</ele><time>2026-04-13T13:17:52.666Z</time></trkpt><trkpt lat="38.3376354" lon="-0.8188283"><ele>300.0</ele><time>2026-04-13T13:17:53.666Z</time></trkpt><trkpt lat="38.3374765" lon="-0.8186012"><ele>301.0</ele><time>2026-04-13T13:17:54.666Z</time></trkpt><trkpt lat="38.3373218" lon="-0.8183695"><ele>302.0</ele><time>2026-04-13T13:17:55.666Z</time></trkpt><trkpt lat="38.3371755" lon="-0.8181188"><ele>301.0</ele><time>2026-04-13T13:17:56.666Z</time></trkpt><trkpt lat="38.3370471" lon="-0.8178469"><ele>300.0</ele><time>2026-04-13T13:17:57.666Z</time></trkpt><trkpt lat="38.3369434" lon="-0.8175553"><ele>300.0</ele><time>2026-04-13T13:17:58.666Z</time></trkpt><trkpt lat="38.3368405" lon="-0.8172562"><ele>300.0</ele><time>2026-04-13T13:17:59.666Z</time></trkpt><trkpt lat="38.3367407" lon="-0.8169597"><ele>300.5</ele><time>2026-04-13T13:18:00.666Z</time></trkpt><trkpt lat="38.3366366" lon="-0.8166632"><ele>301.0</ele><time>2026-04-13T13:18:01.666Z</time></trkpt><trkpt lat="38.3365305" lon="-0.8163726"><ele>301.0</ele><time>2026-04-13T13:18:02.666Z</time></trkpt><trkpt lat="38.3364178" lon="-0.8160935"><ele>301.0</ele><time>2026-04-13T13:18:03.666Z</time></trkpt><trkpt lat="38.3362959" lon="-0.81582"><ele>299.5</ele><time>2026-04-13T13:18:04.666Z</time></trkpt><trkpt lat="38.3361689" lon="-0.815555"><ele>298.0</ele><time>2026-04-13T13:18:05.666Z</time></trkpt><trkpt lat="38.3360403" lon="-0.8152921"><ele>297.0</ele><time>2026-04-13T13:18:06.666Z</time></trkpt><trkpt lat="38.3359193" lon="-0.8150292"><ele>296.0</ele><time>2026-04-13T13:18:07.666Z</time></trkpt><trkpt lat="38.3358123" lon="-0.8147574"><ele>296.0</ele><time>2026-04-13T13:18:08.666Z</time></trkpt><trkpt lat="38.3357189" lon="-0.8144752"><ele>296.0</ele><time>2026-04-13T13:18:09.666Z</time></trkpt><trkpt lat="38.3356349" lon="-0.8142002"><ele>296.0</ele><time>2026-04-13T13:18:10.666Z</time></trkpt><trkpt lat="38.3355617" lon="-0.813944"><ele>296.0</ele><time>2026-04-13T13:18:11.666Z</time></trkpt><trkpt lat="38.3354925" lon="-0.8137033"><ele>296.0</ele><time>2026-04-13T13:18:12.666Z</time></trkpt><trkpt lat="38.3354268" lon="-0.8134657"><ele>295.6666666666667</ele><time>2026-04-13T13:18:13.666Z</time></trkpt><trkpt lat="38.3353625" lon="-0.8132297"><ele>295.3333333333333</ele><time>2026-04-13T13:18:14.666Z</time></trkpt><trkpt lat="38.3353073" lon="-0.8129987"><ele>295.0</ele><time>2026-04-13T13:18:15.666Z</time></trkpt><trkpt lat="38.3352602" lon="-0.8127723"><ele>294.3333333333333</ele><time>2026-04-13T13:18:16.666Z</time></trkpt><trkpt lat="38.3352349" lon="-0.8125474"><ele>293.6666666666667</ele><time>2026-04-13T13:18:17.666Z</time></trkpt><trkpt lat="38.3352187" lon="-0.8123329"><ele>293.0</ele><time>2026-04-13T13:18:18.667Z</time></trkpt><trkpt lat="38.3352049" lon="-0.8121192"><ele>293.0</ele><time>2026-04-13T13:18:19.666Z</time></trkpt><trkpt lat="38.335191" lon="-0.8119102"><ele>293.0</ele><time>2026-04-13T13:18:20.666Z</time></trkpt><trkpt lat="38.3351769" lon="-0.811707"><ele>293.0</ele><time>2026-04-13T13:18:21.666Z</time></trkpt><trkpt lat="38.3351598" lon="-0.8114982"><ele>293.0</ele><time>2026-04-13T13:18:22.666Z</time></trkpt><trkpt lat="38.3351402" lon="-0.8112752"><ele>293.0</ele><time>2026-04-13T13:18:23.666Z</time></trkpt><trkpt lat="38.3351229" lon="-0.8110428"><ele>293.0</ele><time>2026-04-13T13:18:24.666Z</time></trkpt><trkpt lat="38.3351184" lon="-0.8107947"><ele>293.33333333333337</ele><time>2026-04-13T13:18:25.666Z</time></trkpt><trkpt lat="38.3351299" lon="-0.8105362"><ele>293.6666666666667</ele><time>2026-04-13T13:18:26.666Z</time></trkpt><trkpt lat="38.3351537" lon="-0.8102637"><ele>294.0</ele><time>2026-04-13T13:18:27.666Z</time></trkpt><trkpt lat="38.3351765" lon="-0.8099878"><ele>292.5</ele><time>2026-04-13T13:18:28.666Z</time></trkpt><trkpt lat="38.3352044" lon="-0.8096953"><ele>291.0</ele><time>2026-04-13T13:18:29.666Z</time></trkpt><trkpt lat="38.3352231" lon="-0.8094038"><ele>290.0</ele><time>2026-04-13T13:18:30.666Z</time></trkpt><trkpt lat="38.3352422" lon="-0.8090968"><ele>289.0</ele><time>2026-04-13T13:18:31.666Z</time></trkpt><trkpt lat="38.3352608" lon="-0.8087877"><ele>287.5</ele><time>2026-04-13T13:18:32.666Z</time></trkpt><trkpt lat="38.3352827" lon="-0.80847"><ele>286.0</ele><time>2026-04-13T13:18:33.666Z</time></trkpt><trkpt lat="38.3353115" lon="-0.8081499"><ele>286.0</ele><time>2026-04-13T13:18:34.666Z</time></trkpt><trkpt lat="38.3353406" lon="-0.8078358"><ele>286.0</ele><time>2026-04-13T13:18:35.666Z</time></trkpt><trkpt lat="38.3353675" lon="-0.807525"><ele>286.5</ele><time>2026-04-13T13:18:36.666Z</time></trkpt><trkpt lat="38.3353961" lon="-0.8072168"><ele>287.0</ele><time>2026-04-13T13:18:37.666Z</time></trkpt><trkpt lat="38.3354238" lon="-0.8069081"><ele>286.0</ele><time>2026-04-13T13:18:38.666Z</time></trkpt><trkpt lat="38.3354503" lon="-0.8066026"><ele>285.0</ele><time>2026-04-13T13:18:39.666Z</time></trkpt><trkpt lat="38.3354738" lon="-0.8063003"><ele>285.0</ele><time>2026-04-13T13:18:40.666Z</time></trkpt><trkpt lat="38.3354926" lon="-0.8060022"><ele>285.0</ele><time>2026-04-13T13:18:41.666Z</time></trkpt><trkpt lat="38.3355177" lon="-0.8057055"><ele>285.0</ele><time>2026-04-13T13:18:42.666Z</time></trkpt><trkpt lat="38.3355612" lon="-0.8054054"><ele>285.0</ele><time>2026-04-13T13:18:43.666Z</time></trkpt><trkpt lat="38.3356196" lon="-0.8051123"><ele>284.0</ele><time>2026-04-13T13:18:44.666Z</time></trkpt><trkpt lat="38.3356847" lon="-0.8048137"><ele>283.0</ele><time>2026-04-13T13:18:45.666Z</time></trkpt><trkpt lat="38.3357523" lon="-0.8045164"><ele>283.5</ele><time>2026-04-13T13:18:46.666Z</time></trkpt><trkpt lat="38.3358208" lon="-0.804222"><ele>284.0</ele><time>2026-04-13T13:18:47.666Z</time></trkpt><trkpt lat="38.3358874" lon="-0.8039252"><ele>284.0</ele><time>2026-04-13T13:18:48.666Z</time></trkpt><trkpt lat="38.3359548" lon="-0.8036241"><ele>284.0</ele><time>2026-04-13T13:18:49.666Z</time></trkpt><trkpt lat="38.3360188" lon="-0.8033313"><ele>283.5</ele><time>2026-04-13T13:18:50.666Z</time></trkpt><trkpt lat="38.3360784" lon="-0.8030329"><ele>283.0</ele><time>2026-04-13T13:18:51.666Z</time></trkpt><trkpt lat="38.336121" lon="-0.8027385"><ele>281.5</ele><time>2026-04-13T13:18:52.666Z</time></trkpt><trkpt lat="38.3361459" lon="-0.8024428"><ele>280.0</ele><time>2026-04-13T13:18:53.666Z</time></trkpt><trkpt lat="38.3361541" lon="-0.8021518"><ele>280.0</ele><time>2026-04-13T13:18:54.666Z</time></trkpt><trkpt lat="38.336161" lon="-0.80186"><ele>280.0</ele><time>2026-04-13T13:18:55.666Z</time></trkpt><trkpt lat="38.3361702" lon="-0.80157"><ele>279.5</ele><time>2026-04-13T13:18:56.666Z</time></trkpt><trkpt lat="38.3361841" lon="-0.8012818"><ele>279.0</ele><time>2026-04-13T13:18:57.666Z</time></trkpt><trkpt lat="38.3362099" lon="-0.8009917"><ele>279.3333333333333</ele><time>2026-04-13T13:18:58.666Z</time></trkpt><trkpt lat="38.3362519" lon="-0.8007102"><ele>279.66666666666663</ele><time>2026-04-13T13:18:59.666Z</time></trkpt><trkpt lat="38.3363117" lon="-0.8004348"><ele>280.0</ele><time>2026-04-13T13:19:00.666Z</time></trkpt><trkpt lat="38.33639" lon="-0.8001608"><ele>280.0</ele><time>2026-04-13T13:19:01.666Z</time></trkpt><trkpt lat="38.3364801" lon="-0.799891"><ele>280.0</ele><time>2026-04-13T13:19:02.666Z</time></trkpt><trkpt lat="38.3365774" lon="-0.7996252"><ele>280.0</ele><time>2026-04-13T13:19:03.666Z</time></trkpt><trkpt lat="38.3366758" lon="-0.7993583"><ele>280.0</ele><time>2026-04-13T13:19:04.666Z</time></trkpt><trkpt lat="38.3367781" lon="-0.7990958"><ele>279.0</ele><time>2026-04-13T13:19:05.666Z</time></trkpt><trkpt lat="38.3368786" lon="-0.7988368"><ele>278.0</ele><time>2026-04-13T13:19:06.666Z</time></trkpt><trkpt lat="38.33698" lon="-0.7985811"><ele>277.33333333333337</ele><time>2026-04-13T13:19:07.666Z</time></trkpt><trkpt lat="38.3370834" lon="-0.7983306"><ele>276.6666666666667</ele><time>2026-04-13T13:19:08.666Z</time></trkpt><trkpt lat="38.3371906" lon="-0.7980924"><ele>276.0</ele><time>2026-04-13T13:19:09.666Z</time></trkpt><trkpt lat="38.3373053" lon="-0.7978539"><ele>275.0</ele><time>2026-04-13T13:19:10.666Z</time></trkpt><trkpt lat="38.3374223" lon="-0.7976199"><ele>274.0</ele><time>2026-04-13T13:19:11.667Z</time></trkpt><trkpt lat="38.3375398" lon="-0.797383"><ele>273.0</ele><time>2026-04-13T13:19:12.666Z</time></trkpt><trkpt lat="38.3376573" lon="-0.7971554"><ele>273.0</ele><time>2026-04-13T13:19:13.666Z</time></trkpt><trkpt lat="38.3377767" lon="-0.7969271"><ele>273.0</ele><time>2026-04-13T13:19:14.666Z</time></trkpt><trkpt lat="38.3378959" lon="-0.7967"><ele>273.0</ele><time>2026-04-13T13:19:15.666Z</time></trkpt><trkpt lat="38.3380147" lon="-0.7964741"><ele>272.3333333333333</ele><time>2026-04-13T13:19:16.666Z</time></trkpt><trkpt lat="38.3381333" lon="-0.7962437"><ele>271.66666666666663</ele><time>2026-04-13T13:19:17.666Z</time></trkpt><trkpt lat="38.3382472" lon="-0.7960167"><ele>271.0</ele><time>2026-04-13T13:19:18.666Z</time></trkpt><trkpt lat="38.338354" lon="-0.7957884"><ele>270.3333333333333</ele><time>2026-04-13T13:19:19.666Z</time></trkpt><trkpt lat="38.3384465" lon="-0.7955515"><ele>269.6666666666667</ele><time>2026-04-13T13:19:20.666Z</time></trkpt><trkpt lat="38.3385251" lon="-0.7953055"><ele>269.0</ele><time>2026-04-13T13:19:21.666Z</time></trkpt><trkpt lat="38.3385921" lon="-0.7950496"><ele>268.6666666666667</ele><time>2026-04-13T13:19:22.666Z</time></trkpt><trkpt lat="38.3386566" lon="-0.7947893"><ele>268.3333333333333</ele><time>2026-04-13T13:19:23.666Z</time></trkpt><trkpt lat="38.3387166" lon="-0.7945295"><ele>268.0</ele><time>2026-04-13T13:19:24.666Z</time></trkpt><trkpt lat="38.3387815" lon="-0.794277"><ele>267.3333333333333</ele><time>2026-04-13T13:19:25.666Z</time></trkpt><trkpt lat="38.3388538" lon="-0.7940184"><ele>266.6666666666667</ele><time>2026-04-13T13:19:26.666Z</time></trkpt><trkpt lat="38.3389202" lon="-0.7937653"><ele>266.0</ele><time>2026-04-13T13:19:27.666Z</time></trkpt><trkpt lat="38.3390374" lon="-0.793254"><ele>265.6666666666667</ele><time>2026-04-13T13:19:29.669Z</time></trkpt><trkpt lat="38.3390859" lon="-0.7930036"><ele>265.3333333333333</ele><time>2026-04-13T13:19:30.67Z</time></trkpt><trkpt lat="38.3391284" lon="-0.7927453"><ele>265.0</ele><time>2026-04-13T13:19:31.67Z</time></trkpt><trkpt lat="38.3391683" lon="-0.7924917"><ele>265.0</ele><time>2026-04-13T13:19:32.671Z</time></trkpt><trkpt lat="38.339205" lon="-0.7922406"><ele>265.0</ele><time>2026-04-13T13:19:33.671Z</time></trkpt><trkpt lat="38.3392301" lon="-0.7919889"><ele>265.0</ele><time>2026-04-13T13:19:34.665Z</time></trkpt><trkpt lat="38.3392386" lon="-0.7917364"><ele>265.0</ele><time>2026-04-13T13:19:35.665Z</time></trkpt><trkpt lat="38.339231" lon="-0.7914856"><ele>265.0</ele><time>2026-04-13T13:19:36.665Z</time></trkpt><trkpt lat="38.3392203" lon="-0.7912246"><ele>265.0</ele><time>2026-04-13T13:19:37.665Z</time></trkpt><trkpt lat="38.3392069" lon="-0.7909676"><ele>264.66666666666663</ele><time>2026-04-13T13:19:38.665Z</time></trkpt><trkpt lat="38.3391986" lon="-0.7907"><ele>264.3333333333333</ele><time>2026-04-13T13:19:39.665Z</time></trkpt><trkpt lat="38.3391888" lon="-0.7904426"><ele>264.0</ele><time>2026-04-13T13:19:40.666Z</time></trkpt><trkpt lat="38.3391792" lon="-0.7901885"><ele>263.6666666666667</ele><time>2026-04-13T13:19:41.665Z</time></trkpt><trkpt lat="38.3391691" lon="-0.7899191"><ele>263.33333333333337</ele><time>2026-04-13T13:19:42.665Z</time></trkpt><trkpt lat="38.3391595" lon="-0.7896605"><ele>263.0</ele><time>2026-04-13T13:19:43.665Z</time></trkpt><trkpt lat="38.3391485" lon="-0.7894032"><ele>263.33333333333337</ele><time>2026-04-13T13:19:44.665Z</time></trkpt><trkpt lat="38.3391389" lon="-0.7891491"><ele>263.6666666666667</ele><time>2026-04-13T13:19:45.665Z</time></trkpt><trkpt lat="38.3391273" lon="-0.7888936"><ele>264.0</ele><time>2026-04-13T13:19:46.665Z</time></trkpt><trkpt lat="38.3391223" lon="-0.7886364"><ele>263.6666666666667</ele><time>2026-04-13T13:19:47.665Z</time></trkpt><trkpt lat="38.339113" lon="-0.7883819"><ele>263.33333333333337</ele><time>2026-04-13T13:19:48.665Z</time></trkpt><trkpt lat="38.3391029" lon="-0.7881267"><ele>263.0</ele><time>2026-04-13T13:19:49.665Z</time></trkpt><trkpt lat="38.3390899" lon="-0.7878731"><ele>262.0</ele><time>2026-04-13T13:19:50.665Z</time></trkpt><trkpt lat="38.3390688" lon="-0.787622"><ele>261.0</ele><time>2026-04-13T13:19:51.665Z</time></trkpt><trkpt lat="38.3390408" lon="-0.7873697"><ele>260.0</ele><time>2026-04-13T13:19:52.665Z</time></trkpt><trkpt lat="38.3390105" lon="-0.787121"><ele>260.0</ele><time>2026-04-13T13:19:53.665Z</time></trkpt><trkpt lat="38.3389868" lon="-0.7868722"><ele>260.0</ele><time>2026-04-13T13:19:54.665Z</time></trkpt><trkpt lat="38.3389609" lon="-0.7866183"><ele>260.0</ele><time>2026-04-13T13:19:55.665Z</time></trkpt><trkpt lat="38.3389389" lon="-0.7863634"><ele>260.0</ele><time>2026-04-13T13:19:56.665Z</time></trkpt><trkpt lat="38.3389251" lon="-0.7861105"><ele>260.0</ele><time>2026-04-13T13:19:57.665Z</time></trkpt><trkpt lat="38.3389126" lon="-0.7858598"><ele>260.0</ele><time>2026-04-13T13:19:58.665Z</time></trkpt><trkpt lat="38.3389039" lon="-0.7856144"><ele>260.0</ele><time>2026-04-13T13:19:59.665Z</time></trkpt><trkpt lat="38.3388925" lon="-0.7853699"><ele>260.0</ele><time>2026-04-13T13:20:00.665Z</time></trkpt><trkpt lat="38.3388828" lon="-0.7851315"><ele>260.0</ele><time>2026-04-13T13:20:01.665Z</time></trkpt><trkpt lat="38.338872" lon="-0.7849506"><ele>259.6666666666667</ele><time>2026-04-13T13:20:02.665Z</time></trkpt><trkpt lat="38.3388546" lon="-0.7847516"><ele>259.3333333333333</ele><time>2026-04-13T13:20:03.665Z</time></trkpt><trkpt lat="38.3388254" lon="-0.7845628"><ele>259.0</ele><time>2026-04-13T13:20:04.665Z</time></trkpt><trkpt lat="38.3387952" lon="-0.7843724"><ele>258.0</ele><time>2026-04-13T13:20:05.665Z</time></trkpt><trkpt lat="38.3387671" lon="-0.7841788"><ele>257.0</ele><time>2026-04-13T13:20:06.666Z</time></trkpt><trkpt lat="38.3387458" lon="-0.7839777"><ele>256.0</ele><time>2026-04-13T13:20:07.665Z</time></trkpt><trkpt lat="38.3387254" lon="-0.7837628"><ele>256.0</ele><time>2026-04-13T13:20:08.665Z</time></trkpt><trkpt lat="38.3387094" lon="-0.7835457"><ele>256.0</ele><time>2026-04-13T13:20:09.665Z</time></trkpt><trkpt lat="38.3386922" lon="-0.7833242"><ele>256.0</ele><time>2026-04-13T13:20:10.665Z</time></trkpt><trkpt lat="38.3386713" lon="-0.7830949"><ele>254.66666666666666</ele><time>2026-04-13T13:20:11.665Z</time></trkpt><trkpt lat="38.338648" lon="-0.7828663"><ele>253.33333333333331</ele><time>2026-04-13T13:20:12.665Z</time></trkpt><trkpt lat="38.3386208" lon="-0.7826432"><ele>252.0</ele><time>2026-04-13T13:20:13.665Z</time></trkpt><trkpt lat="38.3385956" lon="-0.7824311"><ele>252.0</ele><time>2026-04-13T13:20:14.665Z</time></trkpt><trkpt lat="38.3385707" lon="-0.7822372"><ele>252.0</ele><time>2026-04-13T13:20:15.665Z</time></trkpt><trkpt lat="38.3385483" lon="-0.7820467"><ele>252.0</ele><time>2026-04-13T13:20:16.665Z</time></trkpt><trkpt lat="38.3385335" lon="-0.7818544"><ele>252.0</ele><time>2026-04-13T13:20:17.665Z</time></trkpt><trkpt lat="38.3385289" lon="-0.7816609"><ele>252.0</ele><time>2026-04-13T13:20:18.665Z</time></trkpt><trkpt lat="38.338536" lon="-0.7814671"><ele>252.0</ele><time>2026-04-13T13:20:19.665Z</time></trkpt><trkpt lat="38.3385443" lon="-0.7812716"><ele>252.0</ele><time>2026-04-13T13:20:20.665Z</time></trkpt><trkpt lat="38.3385533" lon="-0.7810766"><ele>252.0</ele><time>2026-04-13T13:20:21.665Z</time></trkpt><trkpt lat="38.3385631" lon="-0.7808788"><ele>252.0</ele><time>2026-04-13T13:20:22.665Z</time></trkpt><trkpt lat="38.3385703" lon="-0.7806809"><ele>251.0</ele><time>2026-04-13T13:20:23.665Z</time></trkpt><trkpt lat="38.3385759" lon="-0.7804906"><ele>250.0</ele><time>2026-04-13T13:20:24.665Z</time></trkpt><trkpt lat="38.3385822" lon="-0.7803044"><ele>249.0</ele><time>2026-04-13T13:20:25.665Z</time></trkpt><trkpt lat="38.3385975" lon="-0.7801087"><ele>248.75</ele><time>2026-04-13T13:20:26.665Z</time></trkpt><trkpt lat="38.3386112" lon="-0.7799247"><ele>248.5</ele><time>2026-04-13T13:20:27.665Z</time></trkpt><trkpt lat="38.3386284" lon="-0.7797626"><ele>248.25</ele><time>2026-04-13T13:20:28.665Z</time></trkpt><trkpt lat="38.3386461" lon="-0.7795996"><ele>248.0</ele><time>2026-04-13T13:20:29.665Z</time></trkpt><trkpt lat="38.3386515" lon="-0.7794402"><ele>248.0</ele><time>2026-04-13T13:20:30.665Z</time></trkpt><trkpt lat="38.3386284" lon="-0.7792898"><ele>248.0</ele><time>2026-04-13T13:20:31.665Z</time></trkpt><trkpt lat="38.3385791" lon="-0.7791559"><ele>248.0</ele><time>2026-04-13T13:20:32.665Z</time></trkpt><trkpt lat="38.3385017" lon="-0.779056"><ele>248.0</ele><time>2026-04-13T13:20:33.665Z</time></trkpt><trkpt lat="38.3383968" lon="-0.7789901"><ele>248.0</ele><time>2026-04-13T13:20:34.665Z</time></trkpt><trkpt lat="38.3382771" lon="-0.7789576"><ele>248.0</ele><time>2026-04-13T13:20:35.665Z</time></trkpt><trkpt lat="38.3381506" lon="-0.7789374"><ele>248.0</ele><time>2026-04-13T13:20:36.665Z</time></trkpt><trkpt lat="38.3380228" lon="-0.7789171"><ele>248.0</ele><time>2026-04-13T13:20:37.665Z</time></trkpt><trkpt lat="38.3378902" lon="-0.7788983"><ele>248.5</ele><time>2026-04-13T13:20:38.665Z</time></trkpt><trkpt lat="38.3377477" lon="-0.7788745"><ele>249.0</ele><time>2026-04-13T13:20:39.665Z</time></trkpt><trkpt lat="38.3376082" lon="-0.7788463"><ele>249.5</ele><time>2026-04-13T13:20:40.665Z</time></trkpt><trkpt lat="38.3374686" lon="-0.778814"><ele>250.0</ele><time>2026-04-13T13:20:41.665Z</time></trkpt><trkpt lat="38.3373349" lon="-0.7787678"><ele>250.0</ele><time>2026-04-13T13:20:42.665Z</time></trkpt><trkpt lat="38.337214" lon="-0.778695"><ele>250.0</ele><time>2026-04-13T13:20:43.665Z</time></trkpt><trkpt lat="38.3371103" lon="-0.7786042"><ele>250.0</ele><time>2026-04-13T13:20:44.665Z</time></trkpt><trkpt lat="38.3370288" lon="-0.7785047"><ele>250.0</ele><time>2026-04-13T13:20:45.665Z</time></trkpt><trkpt lat="38.3369587" lon="-0.7784109"><ele>250.49999999999997</ele><time>2026-04-13T13:20:46.665Z</time></trkpt><trkpt lat="38.3369043" lon="-0.778337"><ele>251.0</ele><time>2026-04-13T13:20:47.665Z</time></trkpt><trkpt lat="38.3368393" lon="-0.7782732"><ele>251.5</ele><time>2026-04-13T13:20:49.665Z</time></trkpt><trkpt lat="38.336767" lon="-0.7782568"><ele>252.0</ele><time>2026-04-13T13:20:51.665Z</time></trkpt><trkpt lat="38.3366642" lon="-0.7782649"><ele>252.49999999999997</ele><time>2026-04-13T13:20:53.665Z</time></trkpt><trkpt lat="38.3366028" lon="-0.7782371"><ele>253.0</ele><time>2026-04-13T13:20:54.665Z</time></trkpt><trkpt lat="38.3365429" lon="-0.7781938"><ele>252.99999999999997</ele><time>2026-04-13T13:20:55.665Z</time></trkpt><trkpt lat="38.3365046" lon="-0.7781261"><ele>253.0</ele><time>2026-04-13T13:20:56.665Z</time></trkpt><trkpt lat="38.3364668" lon="-0.7780535"><ele>253.0</ele><time>2026-04-13T13:20:57.665Z</time></trkpt><trkpt lat="38.3364482" lon="-0.777963"><ele>253.0</ele><time>2026-04-13T13:20:58.665Z</time></trkpt><trkpt lat="38.3364857" lon="-0.7778848"><ele>252.99999999999997</ele><time>2026-04-13T13:20:59.665Z</time></trkpt><trkpt lat="38.3365884" lon="-0.7777903"><ele>253.0</ele><time>2026-04-13T13:21:01.665Z</time></trkpt><trkpt lat="38.3366555" lon="-0.7777803"><ele>252.99999999999997</ele><time>2026-04-13T13:21:02.665Z</time></trkpt><trkpt lat="38.3367261" lon="-0.777795"><ele>253.0</ele><time>2026-04-13T13:21:03.665Z</time></trkpt><trkpt lat="38.3367893" lon="-0.7778185"><ele>253.0</ele><time>2026-04-13T13:21:04.665Z</time></trkpt><trkpt lat="38.3369027" lon="-0.7778391"><ele>253.0</ele><time>2026-04-13T13:21:06.665Z</time></trkpt><trkpt lat="38.3370075" lon="-0.7778086"><ele>252.99999999999997</ele><time>2026-04-13T13:21:08.665Z</time></trkpt><trkpt lat="38.3370816" lon="-0.7777458"><ele>253.0</ele><time>2026-04-13T13:21:10.665Z</time></trkpt><trkpt lat="38.3371061" lon="-0.777654"><ele>253.00000000000003</ele><time>2026-04-13T13:21:13.665Z</time></trkpt><trkpt lat="38.337052" lon="-0.7775928"><ele>253.0</ele><time>2026-04-13T13:21:17.665Z</time></trkpt><trkpt lat="38.3369702" lon="-0.7775767"><ele>253.00000000000003</ele><time>2026-04-13T13:21:20.665Z</time></trkpt><trkpt lat="38.3368964" lon="-0.7775348"><ele>253.00000000000003</ele><time>2026-04-13T13:21:22.665Z</time></trkpt><trkpt lat="38.3368332" lon="-0.7774986"><ele>253.0</ele><time>2026-04-13T13:21:24.665Z</time></trkpt><trkpt lat="38.3367788" lon="-0.777554"><ele>253.00000000000003</ele><time>2026-04-13T13:21:34.665Z</time></trkpt><trkpt lat="38.3367521" lon="-0.7776402"><ele>253.00000000000003</ele><time>2026-04-13T13:22:52.666Z</time></trkpt><trkpt lat="38.336804" lon="-0.7776913"><ele>253.00000000000003</ele><time>2026-04-13T13:22:54.666Z</time></trkpt><trkpt lat="38.3368691" lon="-0.7776953"><ele>253.0</ele><time>2026-04-13T13:22:56.666Z</time></trkpt><trkpt lat="38.3369331" lon="-0.7776519"><ele>253.00000000000003</ele><time>2026-04-13T13:22:58.666Z</time></trkpt><trkpt lat="38.3370015" lon="-0.7776165"><ele>253.00000000000003</ele><time>2026-04-13T13:23:01.666Z</time></trkpt><trkpt lat="38.3370497" lon="-0.7775604"><ele>253.0</ele><time>2026-04-13T13:23:04.666Z</time></trkpt><trkpt lat="38.3371167" lon="-0.7775339"><ele>253.00000000000003</ele><time>2026-04-13T13:23:07.666Z</time></trkpt><trkpt lat="38.337152" lon="-0.7776382"><ele>253.00000000000003</ele><time>2026-04-13T13:23:10.666Z</time></trkpt><trkpt lat="38.3372172" lon="-0.7776661"><ele>253.8</ele><time>2026-04-13T13:23:13.666Z</time></trkpt><trkpt lat="38.3373144" lon="-0.7776088"><ele>254.60000000000002</ele><time>2026-04-13T13:23:15.666Z</time></trkpt><trkpt lat="38.3374171" lon="-0.7775455"><ele>255.39999999999998</ele><time>2026-04-13T13:23:17.666Z</time></trkpt><trkpt lat="38.3375056" lon="-0.7774977"><ele>256.2</ele><time>2026-04-13T13:23:19.666Z</time></trkpt><trkpt lat="38.3375828" lon="-0.7774523"><ele>257.0</ele><time>2026-04-13T13:23:21.667Z</time></trkpt><trkpt lat="38.337665" lon="-0.7774079"><ele>257.0</ele><time>2026-04-13T13:23:23.666Z</time></trkpt><trkpt lat="38.3377771" lon="-0.7773414"><ele>257.0</ele><time>2026-04-13T13:23:25.666Z</time></trkpt><trkpt lat="38.3378359" lon="-0.7772955"><ele>257.0</ele><time>2026-04-13T13:23:26.666Z</time></trkpt><trkpt lat="38.3378951" lon="-0.7772421"><ele>257.0</ele><time>2026-04-13T13:23:27.666Z</time></trkpt><trkpt lat="38.337956" lon="-0.7771879"><ele>257.0</ele><time>2026-04-13T13:23:28.666Z</time></trkpt><trkpt lat="38.3380163" lon="-0.7771295"><ele>257.0</ele><time>2026-04-13T13:23:29.666Z</time></trkpt><trkpt lat="38.3380677" lon="-0.7770646"><ele>257.0</ele><time>2026-04-13T13:23:30.666Z</time></trkpt><trkpt lat="38.3381226" lon="-0.7769987"><ele>257.0</ele><time>2026-04-13T13:23:31.666Z</time></trkpt><trkpt lat="38.3381754" lon="-0.7769396"><ele>257.0</ele><time>2026-04-13T13:23:32.666Z</time></trkpt><trkpt lat="38.3382257" lon="-0.7768793"><ele>257.0</ele><time>2026-04-13T13:23:33.666Z</time></trkpt><trkpt lat="38.3382743" lon="-0.7768253"><ele>257.0</ele><time>2026-04-13T13:23:34.666Z</time></trkpt><trkpt lat="38.338378" lon="-0.7767488"><ele>257.0</ele><time>2026-04-13T13:23:36.666Z</time></trkpt><trkpt lat="38.3384772" lon="-0.77665"><ele>257.0</ele><time>2026-04-13T13:23:38.666Z</time></trkpt><trkpt lat="38.3385133" lon="-0.7765833"><ele>257.0</ele><time>2026-04-13T13:23:39.666Z</time></trkpt><trkpt lat="38.3385725" lon="-0.776469"><ele>257.0</ele><time>2026-04-13T13:23:41.666Z</time></trkpt><trkpt lat="38.3386528" lon="-0.7764243"><ele>257.0</ele><time>2026-04-13T13:23:43.666Z</time></trkpt><trkpt lat="38.3386219" lon="-0.776538"><ele>257.0</ele><time>2026-04-13T13:23:44.666Z</time></trkpt><trkpt lat="38.3385344" lon="-0.7766297"><ele>257.0</ele><time>2026-04-13T13:23:46.666Z</time></trkpt><trkpt lat="38.3384755" lon="-0.7766896"><ele>257.0</ele><time>2026-04-13T13:23:47.666Z</time></trkpt><trkpt lat="38.3384122" lon="-0.7767581"><ele>257.0</ele><time>2026-04-13T13:23:48.666Z</time></trkpt><trkpt lat="38.3383426" lon="-0.7768376"><ele>257.0</ele><time>2026-04-13T13:23:49.666Z</time></trkpt><trkpt lat="38.3382718" lon="-0.7769127"><ele>257.0</ele><time>2026-04-13T13:23:50.666Z</time></trkpt><trkpt lat="38.3382006" lon="-0.7769906"><ele>257.0</ele><time>2026-04-13T13:23:51.667Z</time></trkpt><trkpt lat="38.3381279" lon="-0.7770744"><ele>257.0</ele><time>2026-04-13T13:23:52.666Z</time></trkpt><trkpt lat="38.3380548" lon="-0.7771556"><ele>257.0</ele><time>2026-04-13T13:23:53.666Z</time></trkpt><trkpt lat="38.3379909" lon="-0.7772309"><ele>257.0</ele><time>2026-04-13T13:23:54.666Z</time></trkpt><trkpt lat="38.3379284" lon="-0.7772861"><ele>257.0</ele><time>2026-04-13T13:23:55.667Z</time></trkpt><trkpt lat="38.3378633" lon="-0.7773434"><ele>257.0</ele><time>2026-04-13T13:23:56.666Z</time></trkpt><trkpt lat="38.3377936" lon="-0.7774021"><ele>257.0</ele><time>2026-04-13T13:23:57.666Z</time></trkpt><trkpt lat="38.3377102" lon="-0.7774695"><ele>257.0</ele><time>2026-04-13T13:23:58.666Z</time></trkpt><trkpt lat="38.337623" lon="-0.777523"><ele>257.0</ele><time>2026-04-13T13:23:59.666Z</time></trkpt><trkpt lat="38.3375297" lon="-0.7775778"><ele>257.0</ele><time>2026-04-13T13:24:00.666Z</time></trkpt><trkpt lat="38.3374349" lon="-0.7776266"><ele>257.0</ele><time>2026-04-13T13:24:01.666Z</time></trkpt><trkpt lat="38.3373406" lon="-0.7776766"><ele>257.0</ele><time>2026-04-13T13:24:02.666Z</time></trkpt><trkpt lat="38.3372498" lon="-0.7777274"><ele>256.33333333333337</ele><time>2026-04-13T13:24:03.666Z</time></trkpt><trkpt lat="38.3371619" lon="-0.7777841"><ele>255.66666666666669</ele><time>2026-04-13T13:24:04.666Z</time></trkpt><trkpt lat="38.3370794" lon="-0.7778324"><ele>255.0</ele><time>2026-04-13T13:24:05.666Z</time></trkpt><trkpt lat="38.3370052" lon="-0.7778725"><ele>254.33333333333331</ele><time>2026-04-13T13:24:06.666Z</time></trkpt><trkpt lat="38.3369381" lon="-0.7779119"><ele>253.66666666666666</ele><time>2026-04-13T13:24:07.666Z</time></trkpt><trkpt lat="38.3368774" lon="-0.7779723"><ele>253.0</ele><time>2026-04-13T13:24:08.666Z</time></trkpt><trkpt lat="38.3368433" lon="-0.7780407"><ele>252.99999999999997</ele><time>2026-04-13T13:24:09.666Z</time></trkpt><trkpt lat="38.3368007" lon="-0.7781266"><ele>253.0</ele><time>2026-04-13T13:24:10.667Z</time></trkpt><trkpt lat="38.3367438" lon="-0.7781993"><ele>253.0</ele><time>2026-04-13T13:24:11.666Z</time></trkpt><trkpt lat="38.3366681" lon="-0.7782424"><ele>253.0</ele><time>2026-04-13T13:24:12.666Z</time></trkpt><trkpt lat="38.3365837" lon="-0.7782463"><ele>252.99999999999997</ele><time>2026-04-13T13:24:13.666Z</time></trkpt><trkpt lat="38.3364921" lon="-0.7782465"><ele>253.0</ele><time>2026-04-13T13:24:14.666Z</time></trkpt><trkpt lat="38.3363986" lon="-0.7782636"><ele>253.60000000000002</ele><time>2026-04-13T13:24:15.666Z</time></trkpt><trkpt lat="38.3362992" lon="-0.7782948"><ele>254.20000000000002</ele><time>2026-04-13T13:24:16.666Z</time></trkpt><trkpt lat="38.3362012" lon="-0.7783271"><ele>254.8</ele><time>2026-04-13T13:24:17.666Z</time></trkpt><trkpt lat="38.3361041" lon="-0.7783614"><ele>255.4</ele><time>2026-04-13T13:24:18.666Z</time></trkpt><trkpt lat="38.3360274" lon="-0.7783948"><ele>256.0</ele><time>2026-04-13T13:24:19.667Z</time></trkpt><trkpt lat="38.3359528" lon="-0.7784364"><ele>255.4</ele><time>2026-04-13T13:24:20.666Z</time></trkpt><trkpt lat="38.3358968" lon="-0.7785347"><ele>254.8</ele><time>2026-04-13T13:24:24.667Z</time></trkpt><trkpt lat="38.3358249" lon="-0.7786565"><ele>254.20000000000002</ele><time>2026-04-13T13:24:26.666Z</time></trkpt><trkpt lat="38.335767" lon="-0.7787075"><ele>253.60000000000002</ele><time>2026-04-13T13:24:27.666Z</time></trkpt><trkpt lat="38.3356908" lon="-0.7787649"><ele>253.0</ele><time>2026-04-13T13:24:28.666Z</time></trkpt><trkpt lat="38.3356053" lon="-0.7788035"><ele>254.2</ele><time>2026-04-13T13:24:29.666Z</time></trkpt><trkpt lat="38.3355297" lon="-0.7788159"><ele>255.4</ele><time>2026-04-13T13:24:30.666Z</time></trkpt><trkpt lat="38.335428" lon="-0.778712"><ele>256.59999999999997</ele><time>2026-04-13T13:24:31.666Z</time></trkpt><trkpt lat="38.3353554" lon="-0.7785944"><ele>257.8</ele><time>2026-04-13T13:24:32.666Z</time></trkpt><trkpt lat="38.3352705" lon="-0.7784883"><ele>259.0</ele><time>2026-04-13T13:24:33.666Z</time></trkpt><trkpt lat="38.33517" lon="-0.7783891"><ele>259.5</ele><time>2026-04-13T13:24:34.666Z</time></trkpt><trkpt lat="38.3350606" lon="-0.7782897"><ele>260.0</ele><time>2026-04-13T13:24:35.666Z</time></trkpt><trkpt lat="38.3349443" lon="-0.7781841"><ele>260.5</ele><time>2026-04-13T13:24:36.666Z</time></trkpt><trkpt lat="38.3348216" lon="-0.7780716"><ele>261.0</ele><time>2026-04-13T13:24:37.666Z</time></trkpt><trkpt lat="38.3346978" lon="-0.7779613"><ele>262.0</ele><time>2026-04-13T13:24:38.666Z</time></trkpt><trkpt lat="38.3345718" lon="-0.7778516"><ele>263.0</ele><time>2026-04-13T13:24:39.666Z</time></trkpt><trkpt lat="38.3344395" lon="-0.7777409"><ele>264.0</ele><time>2026-04-13T13:24:40.666Z</time></trkpt><trkpt lat="38.334302" lon="-0.7776284"><ele>265.0</ele><time>2026-04-13T13:24:41.666Z</time></trkpt><trkpt lat="38.3341616" lon="-0.7775145"><ele>266.0</ele><time>2026-04-13T13:24:42.666Z</time></trkpt><trkpt lat="38.3340181" lon="-0.7773973"><ele>267.0</ele><time>2026-04-13T13:24:43.666Z</time></trkpt><trkpt lat="38.3338686" lon="-0.7772746"><ele>267.3333333333333</ele><time>2026-04-13T13:24:44.666Z</time></trkpt><trkpt lat="38.3337161" lon="-0.7771525"><ele>267.66666666666663</ele><time>2026-04-13T13:24:45.666Z</time></trkpt><trkpt lat="38.3335579" lon="-0.7770249"><ele>268.0</ele><time>2026-04-13T13:24:46.666Z</time></trkpt><trkpt lat="38.3334002" lon="-0.7768932"><ele>269.0</ele><time>2026-04-13T13:24:47.666Z</time></trkpt><trkpt lat="38.3332383" lon="-0.7767584"><ele>270.0</ele><time>2026-04-13T13:24:48.666Z</time></trkpt><trkpt lat="38.3330775" lon="-0.7766232"><ele>271.0</ele><time>2026-04-13T13:24:49.666Z</time></trkpt><trkpt lat="38.3329201" lon="-0.7764816"><ele>272.3333333333333</ele><time>2026-04-13T13:24:50.666Z</time></trkpt><trkpt lat="38.3327538" lon="-0.7763438"><ele>273.6666666666667</ele><time>2026-04-13T13:24:51.666Z</time></trkpt><trkpt lat="38.332588" lon="-0.7762108"><ele>275.0</ele><time>2026-04-13T13:24:52.666Z</time></trkpt><trkpt lat="38.3324183" lon="-0.7760708"><ele>275.6666666666667</ele><time>2026-04-13T13:24:53.666Z</time></trkpt><trkpt lat="38.3322467" lon="-0.7759292"><ele>276.3333333333333</ele><time>2026-04-13T13:24:54.666Z</time></trkpt><trkpt lat="38.3320748" lon="-0.7757911"><ele>277.0</ele><time>2026-04-13T13:24:55.666Z</time></trkpt><trkpt lat="38.3319034" lon="-0.7756527"><ele>277.66666666666663</ele><time>2026-04-13T13:24:56.666Z</time></trkpt><trkpt lat="38.3317309" lon="-0.7755157"><ele>278.3333333333333</ele><time>2026-04-13T13:24:57.666Z</time></trkpt><trkpt lat="38.3315586" lon="-0.7753739"><ele>279.0</ele><time>2026-04-13T13:24:58.666Z</time></trkpt><trkpt lat="38.3313853" lon="-0.7752377"><ele>281.3333333333333</ele><time>2026-04-13T13:24:59.666Z</time></trkpt><trkpt lat="38.3312111" lon="-0.7750981"><ele>283.66666666666663</ele><time>2026-04-13T13:25:00.666Z</time></trkpt><trkpt lat="38.3310362" lon="-0.7749575"><ele>286.0</ele><time>2026-04-13T13:25:01.666Z</time></trkpt><trkpt lat="38.3308595" lon="-0.7748107"><ele>286.0</ele><time>2026-04-13T13:25:02.666Z</time></trkpt><trkpt lat="38.3306843" lon="-0.7746665"><ele>286.0</ele><time>2026-04-13T13:25:03.666Z</time></trkpt><trkpt lat="38.3305043" lon="-0.7745239"><ele>286.0</ele><time>2026-04-13T13:25:04.666Z</time></trkpt><trkpt lat="38.3303264" lon="-0.7743811"><ele>289.0</ele><time>2026-04-13T13:25:05.666Z</time></trkpt><trkpt lat="38.3301497" lon="-0.7742315"><ele>292.0</ele><time>2026-04-13T13:25:06.666Z</time></trkpt><trkpt lat="38.3299757" lon="-0.7740825"><ele>295.0</ele><time>2026-04-13T13:25:07.666Z</time></trkpt><trkpt lat="38.3298023" lon="-0.7739282"><ele>295.0</ele><time>2026-04-13T13:25:08.666Z</time></trkpt><trkpt lat="38.3296328" lon="-0.7737554"><ele>295.0</ele><time>2026-04-13T13:25:09.666Z</time></trkpt><trkpt lat="38.3294739" lon="-0.7735692"><ele>295.0</ele><time>2026-04-13T13:25:10.666Z</time></trkpt><trkpt lat="38.3293229" lon="-0.7733657"><ele>295.0</ele><time>2026-04-13T13:25:11.666Z</time></trkpt><trkpt lat="38.3291847" lon="-0.7731405"><ele>295.0</ele><time>2026-04-13T13:25:12.666Z</time></trkpt><trkpt lat="38.3290552" lon="-0.7729052"><ele>295.5</ele><time>2026-04-13T13:25:13.666Z</time></trkpt><trkpt lat="38.3289356" lon="-0.7726579"><ele>296.0</ele><time>2026-04-13T13:25:14.666Z</time></trkpt><trkpt lat="38.3288244" lon="-0.7723948"><ele>294.0</ele><time>2026-04-13T13:25:15.666Z</time></trkpt><trkpt lat="38.3287177" lon="-0.772125"><ele>292.0</ele><time>2026-04-13T13:25:16.666Z</time></trkpt><trkpt lat="38.3286161" lon="-0.7718477"><ele>290.0</ele><time>2026-04-13T13:25:17.666Z</time></trkpt><trkpt lat="38.3285158" lon="-0.7715651"><ele>288.0</ele><time>2026-04-13T13:25:18.666Z</time></trkpt><trkpt lat="38.3284188" lon="-0.7712822"><ele>288.5</ele><time>2026-04-13T13:25:19.666Z</time></trkpt><trkpt lat="38.3283226" lon="-0.770995"><ele>289.0</ele><time>2026-04-13T13:25:20.666Z</time></trkpt><trkpt lat="38.3282258" lon="-0.7707156"><ele>289.0</ele><time>2026-04-13T13:25:21.666Z</time></trkpt><trkpt lat="38.3281342" lon="-0.7704561"><ele>289.0</ele><time>2026-04-13T13:25:22.666Z</time></trkpt><trkpt lat="38.3280383" lon="-0.7701922"><ele>289.0</ele><time>2026-04-13T13:25:23.666Z</time></trkpt><trkpt lat="38.327943" lon="-0.769939"><ele>289.0</ele><time>2026-04-13T13:25:24.666Z</time></trkpt><trkpt lat="38.3278466" lon="-0.7696884"><ele>289.0</ele><time>2026-04-13T13:25:25.666Z</time></trkpt><trkpt lat="38.3276643" lon="-0.7692012"><ele>291.0</ele><time>2026-04-13T13:25:27.679Z</time></trkpt><trkpt lat="38.3275744" lon="-0.7689729"><ele>293.0</ele><time>2026-04-13T13:25:28.675Z</time></trkpt><trkpt lat="38.3274866" lon="-0.7687533"><ele>295.0</ele><time>2026-04-13T13:25:29.671Z</time></trkpt><trkpt lat="38.3274005" lon="-0.7685328"><ele>296.3333333333333</ele><time>2026-04-13T13:25:30.67Z</time></trkpt><trkpt lat="38.3273228" lon="-0.7683394"><ele>297.6666666666667</ele><time>2026-04-13T13:25:31.669Z</time></trkpt><trkpt lat="38.327244" lon="-0.7681573"><ele>299.0</ele><time>2026-04-13T13:25:32.672Z</time></trkpt><trkpt lat="38.3271664" lon="-0.7679749"><ele>295.33333333333337</ele><time>2026-04-13T13:25:33.672Z</time></trkpt><trkpt lat="38.3270885" lon="-0.7677971"><ele>291.6666666666667</ele><time>2026-04-13T13:25:34.672Z</time></trkpt><trkpt lat="38.3270077" lon="-0.767626"><ele>288.0</ele><time>2026-04-13T13:25:35.672Z</time></trkpt><trkpt lat="38.3269279" lon="-0.7674552"><ele>288.0</ele><time>2026-04-13T13:25:36.672Z</time></trkpt><trkpt lat="38.3268473" lon="-0.7672918"><ele>288.0</ele><time>2026-04-13T13:25:37.672Z</time></trkpt><trkpt lat="38.3267642" lon="-0.7671387"><ele>288.0</ele><time>2026-04-13T13:25:38.672Z</time></trkpt><trkpt lat="38.3266803" lon="-0.7669895"><ele>288.0</ele><time>2026-04-13T13:25:39.672Z</time></trkpt><trkpt lat="38.3265991" lon="-0.7668681"><ele>288.25</ele><time>2026-04-13T13:25:40.672Z</time></trkpt><trkpt lat="38.326515" lon="-0.7667559"><ele>288.5</ele><time>2026-04-13T13:25:41.672Z</time></trkpt><trkpt lat="38.3264182" lon="-0.7666589"><ele>288.75</ele><time>2026-04-13T13:25:42.672Z</time></trkpt><trkpt lat="38.3263192" lon="-0.7665771"><ele>289.0</ele><time>2026-04-13T13:25:43.672Z</time></trkpt><trkpt lat="38.3262266" lon="-0.7664796"><ele>289.0</ele><time>2026-04-13T13:25:44.672Z</time></trkpt><trkpt lat="38.3261571" lon="-0.7663721"><ele>289.0</ele><time>2026-04-13T13:25:45.672Z</time></trkpt><trkpt lat="38.3261185" lon="-0.7662126"><ele>289.0</ele><time>2026-04-13T13:25:46.672Z</time></trkpt><trkpt lat="38.3260768" lon="-0.7660639"><ele>289.0</ele><time>2026-04-13T13:25:47.672Z</time></trkpt><trkpt lat="38.3260235" lon="-0.7658995"><ele>289.3333333333333</ele><time>2026-04-13T13:25:48.672Z</time></trkpt><trkpt lat="38.3259515" lon="-0.7657288"><ele>289.6666666666667</ele><time>2026-04-13T13:25:49.672Z</time></trkpt><trkpt lat="38.3258741" lon="-0.765572"><ele>290.0</ele><time>2026-04-13T13:25:50.672Z</time></trkpt><trkpt lat="38.325766" lon="-0.7653867"><ele>290.0</ele><time>2026-04-13T13:25:51.672Z</time></trkpt><trkpt lat="38.3256629" lon="-0.7652156"><ele>290.0</ele><time>2026-04-13T13:25:52.672Z</time></trkpt><trkpt lat="38.3255584" lon="-0.7650242"><ele>290.0</ele><time>2026-04-13T13:25:53.672Z</time></trkpt><trkpt lat="38.3254551" lon="-0.7648211"><ele>290.33333333333337</ele><time>2026-04-13T13:25:54.673Z</time></trkpt><trkpt lat="38.3253543" lon="-0.7646047"><ele>290.6666666666667</ele><time>2026-04-13T13:25:55.672Z</time></trkpt><trkpt lat="38.3252529" lon="-0.764378"><ele>291.0</ele><time>2026-04-13T13:25:56.672Z</time></trkpt><trkpt lat="38.3251567" lon="-0.7641488"><ele>291.3333333333333</ele><time>2026-04-13T13:25:57.672Z</time></trkpt><trkpt lat="38.3250638" lon="-0.763916"><ele>291.66666666666663</ele><time>2026-04-13T13:25:58.672Z</time></trkpt><trkpt lat="38.3249732" lon="-0.7636694"><ele>292.0</ele><time>2026-04-13T13:25:59.672Z</time></trkpt><trkpt lat="38.3248865" lon="-0.7634141"><ele>292.3333333333333</ele><time>2026-04-13T13:26:00.672Z</time></trkpt><trkpt lat="38.3248014" lon="-0.7631529"><ele>292.6666666666667</ele><time>2026-04-13T13:26:01.672Z</time></trkpt><trkpt lat="38.3247202" lon="-0.7628863"><ele>293.0</ele><time>2026-04-13T13:26:02.672Z</time></trkpt><trkpt lat="38.3246426" lon="-0.7626126"><ele>298.0</ele><time>2026-04-13T13:26:03.672Z</time></trkpt><trkpt lat="38.3245666" lon="-0.7623354"><ele>303.0</ele><time>2026-04-13T13:26:04.672Z</time></trkpt><trkpt lat="38.3244923" lon="-0.7620507"><ele>298.5</ele><time>2026-04-13T13:26:05.673Z</time></trkpt><trkpt lat="38.3244167" lon="-0.7617678"><ele>294.0</ele><time>2026-04-13T13:26:06.672Z</time></trkpt><trkpt lat="38.3243366" lon="-0.7614824"><ele>294.0</ele><time>2026-04-13T13:26:07.673Z</time></trkpt><trkpt lat="38.3242447" lon="-0.7612051"><ele>294.0</ele><time>2026-04-13T13:26:08.672Z</time></trkpt><trkpt lat="38.3241387" lon="-0.7609381"><ele>290.0</ele><time>2026-04-13T13:26:09.672Z</time></trkpt><trkpt lat="38.324018" lon="-0.7606767"><ele>286.0</ele><time>2026-04-13T13:26:10.672Z</time></trkpt><trkpt lat="38.3238868" lon="-0.7604297"><ele>292.5</ele><time>2026-04-13T13:26:11.672Z</time></trkpt><trkpt lat="38.3237398" lon="-0.7601959"><ele>299.0</ele><time>2026-04-13T13:26:12.672Z</time></trkpt><trkpt lat="38.3235863" lon="-0.759971"><ele>299.0</ele><time>2026-04-13T13:26:13.672Z</time></trkpt><trkpt lat="38.3234262" lon="-0.7597467"><ele>299.0</ele><time>2026-04-13T13:26:14.672Z</time></trkpt><trkpt lat="38.3232672" lon="-0.7595231"><ele>295.0</ele><time>2026-04-13T13:26:15.672Z</time></trkpt><trkpt lat="38.3231069" lon="-0.759299"><ele>291.0</ele><time>2026-04-13T13:26:16.672Z</time></trkpt><trkpt lat="38.3229467" lon="-0.7590792"><ele>291.0</ele><time>2026-04-13T13:26:17.672Z</time></trkpt><trkpt lat="38.3227887" lon="-0.7588548"><ele>291.0</ele><time>2026-04-13T13:26:18.673Z</time></trkpt><trkpt lat="38.3226352" lon="-0.7586323"><ele>284.0</ele><time>2026-04-13T13:26:19.672Z</time></trkpt><trkpt lat="38.3224955" lon="-0.7584044"><ele>277.0</ele><time>2026-04-13T13:26:20.672Z</time></trkpt><trkpt lat="38.3223613" lon="-0.7581675"><ele>277.0</ele><time>2026-04-13T13:26:21.672Z</time></trkpt><trkpt lat="38.3222402" lon="-0.7579192"><ele>277.0</ele><time>2026-04-13T13:26:22.672Z</time></trkpt><trkpt lat="38.3221319" lon="-0.7576646"><ele>275.5</ele><time>2026-04-13T13:26:23.672Z</time></trkpt><trkpt lat="38.3220373" lon="-0.7573974"><ele>274.0</ele><time>2026-04-13T13:26:24.672Z</time></trkpt><trkpt lat="38.3219485" lon="-0.7571239"><ele>272.5</ele><time>2026-04-13T13:26:25.672Z</time></trkpt><trkpt lat="38.321859" lon="-0.7568568"><ele>271.0</ele><time>2026-04-13T13:26:26.672Z</time></trkpt><trkpt lat="38.3217651" lon="-0.7565985"><ele>271.0</ele><time>2026-04-13T13:26:27.673Z</time></trkpt><trkpt lat="38.3216612" lon="-0.7563471"><ele>271.0</ele><time>2026-04-13T13:26:28.672Z</time></trkpt><trkpt lat="38.3215395" lon="-0.7561038"><ele>271.0</ele><time>2026-04-13T13:26:29.672Z</time></trkpt><trkpt lat="38.3214017" lon="-0.7558827"><ele>274.66666666666663</ele><time>2026-04-13T13:26:30.672Z</time></trkpt><trkpt lat="38.3212457" lon="-0.7556738"><ele>278.3333333333333</ele><time>2026-04-13T13:26:31.673Z</time></trkpt><trkpt lat="38.3210743" lon="-0.7554921"><ele>282.0</ele><time>2026-04-13T13:26:32.672Z</time></trkpt><trkpt lat="38.3208888" lon="-0.7553286"><ele>275.0</ele><time>2026-04-13T13:26:33.672Z</time></trkpt><trkpt lat="38.3206907" lon="-0.755185"><ele>268.0</ele><time>2026-04-13T13:26:34.672Z</time></trkpt><trkpt lat="38.320487" lon="-0.7550504"><ele>268.0</ele><time>2026-04-13T13:26:35.672Z</time></trkpt><trkpt lat="38.3202881" lon="-0.7549153"><ele>268.0</ele><time>2026-04-13T13:26:36.672Z</time></trkpt><trkpt lat="38.3200949" lon="-0.7547702"><ele>268.0</ele><time>2026-04-13T13:26:37.672Z</time></trkpt><trkpt lat="38.3199128" lon="-0.7546037"><ele>268.0</ele><time>2026-04-13T13:26:38.672Z</time></trkpt><trkpt lat="38.3197409" lon="-0.7544101"><ele>267.0</ele><time>2026-04-13T13:26:39.672Z</time></trkpt><trkpt lat="38.3195721" lon="-0.7541999"><ele>266.0</ele><time>2026-04-13T13:26:40.672Z</time></trkpt><trkpt lat="38.3194063" lon="-0.753983"><ele>266.0</ele><time>2026-04-13T13:26:41.672Z</time></trkpt><trkpt lat="38.3192394" lon="-0.7537596"><ele>266.0</ele><time>2026-04-13T13:26:42.672Z</time></trkpt><trkpt lat="38.3190713" lon="-0.7535432"><ele>264.5</ele><time>2026-04-13T13:26:43.672Z</time></trkpt><trkpt lat="38.3188986" lon="-0.7533395"><ele>263.0</ele><time>2026-04-13T13:26:44.672Z</time></trkpt><trkpt lat="38.3187081" lon="-0.7531604"><ele>263.0</ele><time>2026-04-13T13:26:45.672Z</time></trkpt><trkpt lat="38.3185111" lon="-0.7530145"><ele>263.0</ele><time>2026-04-13T13:26:46.672Z</time></trkpt><trkpt lat="38.3183207" lon="-0.7529136"><ele>263.0</ele><time>2026-04-13T13:26:47.672Z</time></trkpt><trkpt lat="38.3181479" lon="-0.7528573"><ele>261.25</ele><time>2026-04-13T13:26:48.672Z</time></trkpt><trkpt lat="38.3179882" lon="-0.7528295"><ele>259.5</ele><time>2026-04-13T13:26:49.672Z</time></trkpt><trkpt lat="38.3178447" lon="-0.7528225"><ele>257.75</ele><time>2026-04-13T13:26:50.672Z</time></trkpt><trkpt lat="38.3177135" lon="-0.7528462"><ele>256.0</ele><time>2026-04-13T13:26:51.673Z</time></trkpt><trkpt lat="38.3175887" lon="-0.7528989"><ele>256.0</ele><time>2026-04-13T13:26:52.672Z</time></trkpt><trkpt lat="38.3174778" lon="-0.7529561"><ele>256.0</ele><time>2026-04-13T13:26:53.672Z</time></trkpt><trkpt lat="38.3173674" lon="-0.7529673"><ele>256.0</ele><time>2026-04-13T13:26:54.672Z</time></trkpt><trkpt lat="38.3172624" lon="-0.7529223"><ele>256.0</ele><time>2026-04-13T13:26:55.672Z</time></trkpt><trkpt lat="38.3171514" lon="-0.7528352"><ele>253.33333333333331</ele><time>2026-04-13T13:26:56.672Z</time></trkpt><trkpt lat="38.3170165" lon="-0.7527635"><ele>250.66666666666669</ele><time>2026-04-13T13:26:57.672Z</time></trkpt><trkpt lat="38.3168638" lon="-0.7527122"><ele>248.0</ele><time>2026-04-13T13:26:58.672Z</time></trkpt><trkpt lat="38.3167031" lon="-0.7526762"><ele>246.0</ele><time>2026-04-13T13:26:59.673Z</time></trkpt><trkpt lat="38.3165278" lon="-0.7526397"><ele>244.0</ele><time>2026-04-13T13:27:00.672Z</time></trkpt><trkpt lat="38.3163428" lon="-0.752598"><ele>242.0</ele><time>2026-04-13T13:27:01.672Z</time></trkpt><trkpt lat="38.3161481" lon="-0.7525462"><ele>241.66666666666669</ele><time>2026-04-13T13:27:02.672Z</time></trkpt><trkpt lat="38.3159431" lon="-0.7524839"><ele>241.33333333333331</ele><time>2026-04-13T13:27:03.672Z</time></trkpt><trkpt lat="38.315734" lon="-0.7524136"><ele>241.0</ele><time>2026-04-13T13:27:04.672Z</time></trkpt><trkpt lat="38.3155133" lon="-0.7523362"><ele>245.0</ele><time>2026-04-13T13:27:05.672Z</time></trkpt><trkpt lat="38.3152836" lon="-0.7522621"><ele>249.0</ele><time>2026-04-13T13:27:06.672Z</time></trkpt><trkpt lat="38.31505" lon="-0.7521789"><ele>249.0</ele><time>2026-04-13T13:27:07.672Z</time></trkpt><trkpt lat="38.3148132" lon="-0.752096"><ele>249.0</ele><time>2026-04-13T13:27:08.672Z</time></trkpt><trkpt lat="38.3145767" lon="-0.7520109"><ele>248.0</ele><time>2026-04-13T13:27:09.672Z</time></trkpt><trkpt lat="38.3143426" lon="-0.7519233"><ele>247.0</ele><time>2026-04-13T13:27:10.672Z</time></trkpt><trkpt lat="38.3141145" lon="-0.7518151"><ele>244.0</ele><time>2026-04-13T13:27:11.672Z</time></trkpt><trkpt lat="38.313891" lon="-0.7516881"><ele>241.0</ele><time>2026-04-13T13:27:12.672Z</time></trkpt><trkpt lat="38.3136737" lon="-0.7515457"><ele>241.0</ele><time>2026-04-13T13:27:13.672Z</time></trkpt><trkpt lat="38.3134563" lon="-0.7513874"><ele>241.0</ele><time>2026-04-13T13:27:14.672Z</time></trkpt><trkpt lat="38.3132355" lon="-0.7512407"><ele>238.5</ele><time>2026-04-13T13:27:15.672Z</time></trkpt><trkpt lat="38.3130047" lon="-0.7511117"><ele>236.0</ele><time>2026-04-13T13:27:16.672Z</time></trkpt><trkpt lat="38.3127676" lon="-0.7510177"><ele>230.5</ele><time>2026-04-13T13:27:17.672Z</time></trkpt><trkpt lat="38.3125233" lon="-0.7509745"><ele>225.0</ele><time>2026-04-13T13:27:18.672Z</time></trkpt><trkpt lat="38.3122768" lon="-0.7509653"><ele>224.5</ele><time>2026-04-13T13:27:19.672Z</time></trkpt><trkpt lat="38.3120281" lon="-0.7509712"><ele>224.0</ele><time>2026-04-13T13:27:20.672Z</time></trkpt><trkpt lat="38.3117845" lon="-0.7509701"><ele>224.0</ele><time>2026-04-13T13:27:21.672Z</time></trkpt><trkpt lat="38.311553" lon="-0.7509468"><ele>224.0</ele><time>2026-04-13T13:27:22.672Z</time></trkpt><trkpt lat="38.3113297" lon="-0.7508904"><ele>223.66666666666669</ele><time>2026-04-13T13:27:23.672Z</time></trkpt><trkpt lat="38.3111217" lon="-0.7507987"><ele>223.33333333333331</ele><time>2026-04-13T13:27:24.672Z</time></trkpt><trkpt lat="38.3109258" lon="-0.750671"><ele>223.0</ele><time>2026-04-13T13:27:25.672Z</time></trkpt><trkpt lat="38.3107461" lon="-0.7505086"><ele>223.0</ele><time>2026-04-13T13:27:26.672Z</time></trkpt><trkpt lat="38.3105809" lon="-0.7503204"><ele>223.0</ele><time>2026-04-13T13:27:27.672Z</time></trkpt><trkpt lat="38.3104292" lon="-0.7501167"><ele>223.0</ele><time>2026-04-13T13:27:28.672Z</time></trkpt><trkpt lat="38.310282" lon="-0.7498997"><ele>221.0</ele><time>2026-04-13T13:27:29.673Z</time></trkpt><trkpt lat="38.3101429" lon="-0.7496738"><ele>219.0</ele><time>2026-04-13T13:27:30.672Z</time></trkpt><trkpt lat="38.3100043" lon="-0.7494501"><ele>217.0</ele><time>2026-04-13T13:27:31.672Z</time></trkpt><trkpt lat="38.3098683" lon="-0.7492278"><ele>217.33333333333331</ele><time>2026-04-13T13:27:32.672Z</time></trkpt><trkpt lat="38.3097369" lon="-0.7490082"><ele>217.66666666666669</ele><time>2026-04-13T13:27:33.672Z</time></trkpt><trkpt lat="38.309603" lon="-0.7487948"><ele>218.0</ele><time>2026-04-13T13:27:34.672Z</time></trkpt><trkpt lat="38.3094662" lon="-0.7486012"><ele>218.33333333333334</ele><time>2026-04-13T13:27:35.672Z</time></trkpt><trkpt lat="38.3093196" lon="-0.7484335"><ele>218.66666666666669</ele><time>2026-04-13T13:27:36.672Z</time></trkpt><trkpt lat="38.3091626" lon="-0.7482897"><ele>219.0</ele><time>2026-04-13T13:27:37.672Z</time></trkpt><trkpt lat="38.308998" lon="-0.7481713"><ele>216.66666666666669</ele><time>2026-04-13T13:27:38.672Z</time></trkpt><trkpt lat="38.3088259" lon="-0.7480809"><ele>214.33333333333334</ele><time>2026-04-13T13:27:39.672Z</time></trkpt><trkpt lat="38.3086572" lon="-0.7480167"><ele>212.0</ele><time>2026-04-13T13:27:40.672Z</time></trkpt><trkpt lat="38.3085001" lon="-0.7479718"><ele>212.0</ele><time>2026-04-13T13:27:41.672Z</time></trkpt><trkpt lat="38.3083638" lon="-0.7479526"><ele>212.0</ele><time>2026-04-13T13:27:42.672Z</time></trkpt><trkpt lat="38.3082442" lon="-0.7479469"><ele>212.0</ele><time>2026-04-13T13:27:43.672Z</time></trkpt><trkpt lat="38.3081344" lon="-0.747968"><ele>212.0</ele><time>2026-04-13T13:27:44.673Z</time></trkpt><trkpt lat="38.3080332" lon="-0.7480146"><ele>210.6</ele><time>2026-04-13T13:27:45.672Z</time></trkpt><trkpt lat="38.3079365" lon="-0.7480715"><ele>209.2</ele><time>2026-04-13T13:27:46.672Z</time></trkpt><trkpt lat="38.3078446" lon="-0.7481027"><ele>207.8</ele><time>2026-04-13T13:27:47.673Z</time></trkpt><trkpt lat="38.3077549" lon="-0.7480571"><ele>206.4</ele><time>2026-04-13T13:27:48.672Z</time></trkpt><trkpt lat="38.3076759" lon="-0.7479852"><ele>205.0</ele><time>2026-04-13T13:27:49.672Z</time></trkpt><trkpt lat="38.3076156" lon="-0.7478724"><ele>205.0</ele><time>2026-04-13T13:27:50.672Z</time></trkpt><trkpt lat="38.3075756" lon="-0.7477363"><ele>205.0</ele><time>2026-04-13T13:27:51.672Z</time></trkpt><trkpt lat="38.3075229" lon="-0.7475893"><ele>205.0</ele><time>2026-04-13T13:27:52.672Z</time></trkpt><trkpt lat="38.3074408" lon="-0.7474362"><ele>205.0</ele><time>2026-04-13T13:27:53.672Z</time></trkpt><trkpt lat="38.3073469" lon="-0.7472809"><ele>204.66666666666666</ele><time>2026-04-13T13:27:54.672Z</time></trkpt><trkpt lat="38.3072489" lon="-0.7471113"><ele>204.33333333333331</ele><time>2026-04-13T13:27:55.672Z</time></trkpt><trkpt lat="38.3071588" lon="-0.7469258"><ele>204.0</ele><time>2026-04-13T13:27:56.672Z</time></trkpt><trkpt lat="38.3070848" lon="-0.746715"><ele>204.0</ele><time>2026-04-13T13:27:57.672Z</time></trkpt><trkpt lat="38.307023" lon="-0.7464839"><ele>204.0</ele><time>2026-04-13T13:27:58.672Z</time></trkpt><trkpt lat="38.3069683" lon="-0.7462366"><ele>204.0</ele><time>2026-04-13T13:27:59.672Z</time></trkpt><trkpt lat="38.3069159" lon="-0.745988"><ele>205.0</ele><time>2026-04-13T13:28:00.672Z</time></trkpt><trkpt lat="38.3068569" lon="-0.7457338"><ele>206.0</ele><time>2026-04-13T13:28:01.672Z</time></trkpt><trkpt lat="38.3067834" lon="-0.7454764"><ele>207.0</ele><time>2026-04-13T13:28:02.672Z</time></trkpt><trkpt lat="38.3066878" lon="-0.7452251"><ele>210.0</ele><time>2026-04-13T13:28:03.672Z</time></trkpt><trkpt lat="38.3065691" lon="-0.7449836"><ele>213.0</ele><time>2026-04-13T13:28:04.672Z</time></trkpt><trkpt lat="38.306432" lon="-0.7447493"><ele>209.5</ele><time>2026-04-13T13:28:05.672Z</time></trkpt><trkpt lat="38.3062814" lon="-0.7445218"><ele>206.0</ele><time>2026-04-13T13:28:06.672Z</time></trkpt><trkpt lat="38.3061151" lon="-0.7443038"><ele>204.5</ele><time>2026-04-13T13:28:07.672Z</time></trkpt><trkpt lat="38.3059445" lon="-0.7441001"><ele>203.0</ele><time>2026-04-13T13:28:08.672Z</time></trkpt><trkpt lat="38.3057655" lon="-0.743889"><ele>203.0</ele><time>2026-04-13T13:28:09.672Z</time></trkpt><trkpt lat="38.3055896" lon="-0.7436743"><ele>203.0</ele><time>2026-04-13T13:28:10.672Z</time></trkpt><trkpt lat="38.3054123" lon="-0.7434657"><ele>204.5</ele><time>2026-04-13T13:28:11.672Z</time></trkpt><trkpt lat="38.3052213" lon="-0.7432561"><ele>206.0</ele><time>2026-04-13T13:28:12.672Z</time></trkpt><trkpt lat="38.3050337" lon="-0.7430688"><ele>206.0</ele><time>2026-04-13T13:28:13.673Z</time></trkpt><trkpt lat="38.3048357" lon="-0.7429008"><ele>206.0</ele><time>2026-04-13T13:28:14.672Z</time></trkpt><trkpt lat="38.3046228" lon="-0.7427538"><ele>202.5</ele><time>2026-04-13T13:28:15.672Z</time></trkpt><trkpt lat="38.3044003" lon="-0.7426298"><ele>199.0</ele><time>2026-04-13T13:28:16.673Z</time></trkpt><trkpt lat="38.3041687" lon="-0.7425338"><ele>199.0</ele><time>2026-04-13T13:28:17.672Z</time></trkpt><trkpt lat="38.3039309" lon="-0.7424685"><ele>199.0</ele><time>2026-04-13T13:28:18.673Z</time></trkpt><trkpt lat="38.3036909" lon="-0.7424126"><ele>195.5</ele><time>2026-04-13T13:28:19.672Z</time></trkpt><trkpt lat="38.3034489" lon="-0.7423606"><ele>192.0</ele><time>2026-04-13T13:28:20.672Z</time></trkpt><trkpt lat="38.3032055" lon="-0.7423055"><ele>191.0</ele><time>2026-04-13T13:28:21.672Z</time></trkpt><trkpt lat="38.3029648" lon="-0.7422372"><ele>190.0</ele><time>2026-04-13T13:28:22.672Z</time></trkpt><trkpt lat="38.3027302" lon="-0.7421464"><ele>190.0</ele><time>2026-04-13T13:28:23.672Z</time></trkpt><trkpt lat="38.3025064" lon="-0.7420197"><ele>190.0</ele><time>2026-04-13T13:28:24.672Z</time></trkpt><trkpt lat="38.3022984" lon="-0.7418631"><ele>190.5</ele><time>2026-04-13T13:28:25.672Z</time></trkpt><trkpt lat="38.3021092" lon="-0.7416724"><ele>191.0</ele><time>2026-04-13T13:28:26.672Z</time></trkpt><trkpt lat="38.3019433" lon="-0.7414598"><ele>191.0</ele><time>2026-04-13T13:28:27.672Z</time></trkpt><trkpt lat="38.3017847" lon="-0.7412334"><ele>191.0</ele><time>2026-04-13T13:28:28.672Z</time></trkpt><trkpt lat="38.3016268" lon="-0.7409993"><ele>190.5</ele><time>2026-04-13T13:28:29.672Z</time></trkpt><trkpt lat="38.3014651" lon="-0.7407753"><ele>190.0</ele><time>2026-04-13T13:28:30.672Z</time></trkpt><trkpt lat="38.301295" lon="-0.7405617"><ele>188.0</ele><time>2026-04-13T13:28:31.672Z</time></trkpt><trkpt lat="38.3011145" lon="-0.7403663"><ele>186.0</ele><time>2026-04-13T13:28:32.672Z</time></trkpt><trkpt lat="38.3009263" lon="-0.740188"><ele>185.0</ele><time>2026-04-13T13:28:33.672Z</time></trkpt><trkpt lat="38.3007321" lon="-0.7400244"><ele>184.0</ele><time>2026-04-13T13:28:34.672Z</time></trkpt><trkpt lat="38.300535" lon="-0.7398789"><ele>182.66666666666669</ele><time>2026-04-13T13:28:35.672Z</time></trkpt><trkpt lat="38.3003512" lon="-0.7397497"><ele>181.33333333333334</ele><time>2026-04-13T13:28:36.672Z</time></trkpt><trkpt lat="38.300181" lon="-0.739633"><ele>180.0</ele><time>2026-04-13T13:28:37.672Z</time></trkpt><trkpt lat="38.3000255" lon="-0.7395286"><ele>180.0</ele><time>2026-04-13T13:28:38.673Z</time></trkpt><trkpt lat="38.2998842" lon="-0.7394383"><ele>180.0</ele><time>2026-04-13T13:28:39.672Z</time></trkpt><trkpt lat="38.2997418" lon="-0.739361"><ele>180.0</ele><time>2026-04-13T13:28:40.672Z</time></trkpt><trkpt lat="38.2996076" lon="-0.7393171"><ele>178.75</ele><time>2026-04-13T13:28:41.672Z</time></trkpt><trkpt lat="38.2994794" lon="-0.7393022"><ele>177.5</ele><time>2026-04-13T13:28:42.672Z</time></trkpt><trkpt lat="38.2993589" lon="-0.739284"><ele>176.25</ele><time>2026-04-13T13:28:43.672Z</time></trkpt><trkpt lat="38.2992455" lon="-0.7392263"><ele>175.0</ele><time>2026-04-13T13:28:44.672Z</time></trkpt><trkpt lat="38.2991453" lon="-0.7391216"><ele>175.0</ele><time>2026-04-13T13:28:45.672Z</time></trkpt><trkpt lat="38.2990496" lon="-0.7389864"><ele>175.0</ele><time>2026-04-13T13:28:46.672Z</time></trkpt><trkpt lat="38.2989403" lon="-0.7388498"><ele>175.0</ele><time>2026-04-13T13:28:47.672Z</time></trkpt><trkpt lat="38.2988091" lon="-0.7387212"><ele>175.0</ele><time>2026-04-13T13:28:48.672Z</time></trkpt><trkpt lat="38.2986667" lon="-0.738609"><ele>175.0</ele><time>2026-04-13T13:28:49.672Z</time></trkpt><trkpt lat="38.2985092" lon="-0.7384962"><ele>175.0</ele><time>2026-04-13T13:28:50.672Z</time></trkpt><trkpt lat="38.29835" lon="-0.7383825"><ele>176.33333333333334</ele><time>2026-04-13T13:28:51.672Z</time></trkpt><trkpt lat="38.2981798" lon="-0.7382718"><ele>177.66666666666666</ele><time>2026-04-13T13:28:52.672Z</time></trkpt><trkpt lat="38.2980047" lon="-0.7381547"><ele>179.0</ele><time>2026-04-13T13:28:53.672Z</time></trkpt><trkpt lat="38.2978249" lon="-0.7380336"><ele>179.0</ele><time>2026-04-13T13:28:54.672Z</time></trkpt><trkpt lat="38.2976465" lon="-0.7379086"><ele>179.0</ele><time>2026-04-13T13:28:55.672Z</time></trkpt><trkpt lat="38.2974665" lon="-0.7377821"><ele>179.0</ele><time>2026-04-13T13:28:56.672Z</time></trkpt><trkpt lat="38.2972853" lon="-0.737654"><ele>177.33333333333331</ele><time>2026-04-13T13:28:57.672Z</time></trkpt><trkpt lat="38.2971005" lon="-0.737524"><ele>175.66666666666666</ele><time>2026-04-13T13:28:58.672Z</time></trkpt><trkpt lat="38.2969143" lon="-0.7373906"><ele>174.0</ele><time>2026-04-13T13:28:59.672Z</time></trkpt><trkpt lat="38.2967292" lon="-0.7372516"><ele>174.0</ele><time>2026-04-13T13:29:00.672Z</time></trkpt><trkpt lat="38.2965432" lon="-0.7371023"><ele>174.0</ele><time>2026-04-13T13:29:01.672Z</time></trkpt><trkpt lat="38.29636" lon="-0.7369368"><ele>174.0</ele><time>2026-04-13T13:29:02.673Z</time></trkpt><trkpt lat="38.2961844" lon="-0.7367583"><ele>173.0</ele><time>2026-04-13T13:29:03.672Z</time></trkpt><trkpt lat="38.2960209" lon="-0.7365689"><ele>172.0</ele><time>2026-04-13T13:29:04.672Z</time></trkpt><trkpt lat="38.2958615" lon="-0.7363667"><ele>171.0</ele><time>2026-04-13T13:29:05.673Z</time></trkpt><trkpt lat="38.2957042" lon="-0.7361508"><ele>170.0</ele><time>2026-04-13T13:29:06.672Z</time></trkpt><trkpt lat="38.2955571" lon="-0.7359239"><ele>169.0</ele><time>2026-04-13T13:29:07.672Z</time></trkpt><trkpt lat="38.2954205" lon="-0.735681"><ele>169.0</ele><time>2026-04-13T13:29:08.672Z</time></trkpt><trkpt lat="38.2952949" lon="-0.7354244"><ele>169.0</ele><time>2026-04-13T13:29:09.672Z</time></trkpt><trkpt lat="38.2951801" lon="-0.7351577"><ele>166.0</ele><time>2026-04-13T13:29:10.672Z</time></trkpt><trkpt lat="38.2950774" lon="-0.734888"><ele>163.0</ele><time>2026-04-13T13:29:11.672Z</time></trkpt><trkpt lat="38.2949874" lon="-0.7346097"><ele>161.5</ele><time>2026-04-13T13:29:12.672Z</time></trkpt><trkpt lat="38.2949079" lon="-0.7343208"><ele>160.0</ele><time>2026-04-13T13:29:13.672Z</time></trkpt><trkpt lat="38.2948365" lon="-0.7340328"><ele>160.0</ele><time>2026-04-13T13:29:14.672Z</time></trkpt><trkpt lat="38.2947915" lon="-0.7338231"><ele>160.0</ele><time>2026-04-13T13:29:15.672Z</time></trkpt><trkpt lat="38.2947453" lon="-0.7335805"><ele>160.0</ele><time>2026-04-13T13:29:16.672Z</time></trkpt><trkpt lat="38.294708" lon="-0.7333732"><ele>158.33333333333334</ele><time>2026-04-13T13:29:17.673Z</time></trkpt><trkpt lat="38.2946717" lon="-0.7331649"><ele>156.66666666666666</ele><time>2026-04-13T13:29:18.672Z</time></trkpt><trkpt lat="38.2946362" lon="-0.732981"><ele>155.0</ele><time>2026-04-13T13:29:19.672Z</time></trkpt><trkpt lat="38.2945956" lon="-0.7328012"><ele>154.2</ele><time>2026-04-13T13:29:20.672Z</time></trkpt><trkpt lat="38.2945635" lon="-0.7326863"><ele>153.4</ele><time>2026-04-13T13:29:21.672Z</time></trkpt><trkpt lat="38.2945229" lon="-0.7325471"><ele>152.6</ele><time>2026-04-13T13:29:22.672Z</time></trkpt><trkpt lat="38.2944725" lon="-0.732433"><ele>151.8</ele><time>2026-04-13T13:29:23.672Z</time></trkpt><trkpt lat="38.2944094" lon="-0.7323366"><ele>151.0</ele><time>2026-04-13T13:29:24.672Z</time></trkpt><trkpt lat="38.2943381" lon="-0.7322445"><ele>151.0</ele><time>2026-04-13T13:29:25.672Z</time></trkpt><trkpt lat="38.2942895" lon="-0.7321363"><ele>151.0</ele><time>2026-04-13T13:29:26.672Z</time></trkpt><trkpt lat="38.2942597" lon="-0.7320039"><ele>151.0</ele><time>2026-04-13T13:29:27.672Z</time></trkpt><trkpt lat="38.2942414" lon="-0.7318523"><ele>151.0</ele><time>2026-04-13T13:29:28.672Z</time></trkpt><trkpt lat="38.2941937" lon="-0.7316901"><ele>151.25</ele><time>2026-04-13T13:29:29.672Z</time></trkpt><trkpt lat="38.2941192" lon="-0.7315279"><ele>151.5</ele><time>2026-04-13T13:29:30.672Z</time></trkpt><trkpt lat="38.2940381" lon="-0.7313707"><ele>151.75</ele><time>2026-04-13T13:29:31.672Z</time></trkpt><trkpt lat="38.2939431" lon="-0.7312237"><ele>152.0</ele><time>2026-04-13T13:29:32.672Z</time></trkpt><trkpt lat="38.2938202" lon="-0.7310554"><ele>151.33333333333331</ele><time>2026-04-13T13:29:33.672Z</time></trkpt><trkpt lat="38.2936924" lon="-0.7308994"><ele>150.66666666666666</ele><time>2026-04-13T13:29:34.672Z</time></trkpt><trkpt lat="38.2935482" lon="-0.7307443"><ele>150.0</ele><time>2026-04-13T13:29:35.672Z</time></trkpt><trkpt lat="38.293393" lon="-0.7305878"><ele>150.0</ele><time>2026-04-13T13:29:36.672Z</time></trkpt><trkpt lat="38.2932383" lon="-0.7304366"><ele>150.0</ele><time>2026-04-13T13:29:37.672Z</time></trkpt><trkpt lat="38.293075" lon="-0.7302857"><ele>150.0</ele><time>2026-04-13T13:29:38.672Z</time></trkpt><trkpt lat="38.2929051" lon="-0.7301346"><ele>151.0</ele><time>2026-04-13T13:29:39.672Z</time></trkpt><trkpt lat="38.2927314" lon="-0.7299894"><ele>152.0</ele><time>2026-04-13T13:29:40.672Z</time></trkpt><trkpt lat="38.2925467" lon="-0.729844"><ele>153.0</ele><time>2026-04-13T13:29:41.673Z</time></trkpt><trkpt lat="38.2923568" lon="-0.729698"><ele>151.0</ele><time>2026-04-13T13:29:42.672Z</time></trkpt><trkpt lat="38.2921636" lon="-0.7295453"><ele>149.0</ele><time>2026-04-13T13:29:43.672Z</time></trkpt><trkpt lat="38.2919705" lon="-0.7293868"><ele>153.5</ele><time>2026-04-13T13:29:44.672Z</time></trkpt><trkpt lat="38.2917806" lon="-0.7292178"><ele>158.0</ele><time>2026-04-13T13:29:45.672Z</time></trkpt><trkpt lat="38.29159" lon="-0.7290386"><ele>153.5</ele><time>2026-04-13T13:29:46.672Z</time></trkpt><trkpt lat="38.2914031" lon="-0.7288525"><ele>149.0</ele><time>2026-04-13T13:29:47.672Z</time></trkpt><trkpt lat="38.2912188" lon="-0.7286606"><ele>151.5</ele><time>2026-04-13T13:29:48.672Z</time></trkpt><trkpt lat="38.2910357" lon="-0.728461"><ele>154.0</ele><time>2026-04-13T13:29:49.672Z</time></trkpt><trkpt lat="38.2908534" lon="-0.7282631"><ele>154.0</ele><time>2026-04-13T13:29:50.672Z</time></trkpt><trkpt lat="38.290668" lon="-0.7280675"><ele>154.0</ele><time>2026-04-13T13:29:51.672Z</time></trkpt><trkpt lat="38.2904867" lon="-0.727877"><ele>154.5</ele><time>2026-04-13T13:29:52.672Z</time></trkpt><trkpt lat="38.2903096" lon="-0.7276881"><ele>155.0</ele><time>2026-04-13T13:29:53.672Z</time></trkpt><trkpt lat="38.2901387" lon="-0.7275027"><ele>155.0</ele><time>2026-04-13T13:29:54.672Z</time></trkpt><trkpt lat="38.2899768" lon="-0.727329"><ele>155.0</ele><time>2026-04-13T13:29:55.672Z</time></trkpt><trkpt lat="38.2898282" lon="-0.7271727"><ele>155.0</ele><time>2026-04-13T13:29:56.672Z</time></trkpt><trkpt lat="38.2896925" lon="-0.7270306"><ele>155.5</ele><time>2026-04-13T13:29:57.672Z</time></trkpt><trkpt lat="38.2895684" lon="-0.726898"><ele>156.0</ele><time>2026-04-13T13:29:58.672Z</time></trkpt><trkpt lat="38.2894577" lon="-0.7267873"><ele>156.5</ele><time>2026-04-13T13:29:59.672Z</time></trkpt><trkpt lat="38.2893501" lon="-0.7266969"><ele>157.0</ele><time>2026-04-13T13:30:00.672Z</time></trkpt><trkpt lat="38.289238" lon="-0.7266168"><ele>157.0</ele><time>2026-04-13T13:30:01.672Z</time></trkpt><trkpt lat="38.2891212" lon="-0.7265527"><ele>157.0</ele><time>2026-04-13T13:30:02.672Z</time></trkpt><trkpt lat="38.2890124" lon="-0.7264827"><ele>157.0</ele><time>2026-04-13T13:30:03.672Z</time></trkpt><trkpt lat="38.2889235" lon="-0.7263736"><ele>157.0</ele><time>2026-04-13T13:30:04.672Z</time></trkpt><trkpt lat="38.2888492" lon="-0.7262352"><ele>157.5</ele><time>2026-04-13T13:30:05.672Z</time></trkpt><trkpt lat="38.2887663" lon="-0.7260933"><ele>158.0</ele><time>2026-04-13T13:30:06.672Z</time></trkpt><trkpt lat="38.2886598" lon="-0.7259633"><ele>158.5</ele><time>2026-04-13T13:30:07.672Z</time></trkpt><trkpt lat="38.2885358" lon="-0.7258355"><ele>159.0</ele><time>2026-04-13T13:30:08.672Z</time></trkpt><trkpt lat="38.2884012" lon="-0.725723"><ele>159.0</ele><time>2026-04-13T13:30:09.672Z</time></trkpt><trkpt lat="38.2882522" lon="-0.7256016"><ele>159.0</ele><time>2026-04-13T13:30:10.672Z</time></trkpt><trkpt lat="38.2881014" lon="-0.7254588"><ele>159.0</ele><time>2026-04-13T13:30:11.672Z</time></trkpt><trkpt lat="38.2879511" lon="-0.7252961"><ele>158.0</ele><time>2026-04-13T13:30:12.672Z</time></trkpt><trkpt lat="38.2878063" lon="-0.7251188"><ele>157.0</ele><time>2026-04-13T13:30:13.672Z</time></trkpt><trkpt lat="38.2876692" lon="-0.7249274"><ele>156.0</ele><time>2026-04-13T13:30:14.672Z</time></trkpt><trkpt lat="38.2875366" lon="-0.7247303"><ele>156.0</ele><time>2026-04-13T13:30:15.672Z</time></trkpt><trkpt lat="38.2873982" lon="-0.7245422"><ele>156.0</ele><time>2026-04-13T13:30:16.672Z</time></trkpt><trkpt lat="38.2872512" lon="-0.724374"><ele>156.0</ele><time>2026-04-13T13:30:17.672Z</time></trkpt><trkpt lat="38.2870886" lon="-0.7242344"><ele>158.0</ele><time>2026-04-13T13:30:18.672Z</time></trkpt><trkpt lat="38.2869113" lon="-0.7241298"><ele>160.0</ele><time>2026-04-13T13:30:19.672Z</time></trkpt><trkpt lat="38.2867282" lon="-0.724059"><ele>162.0</ele><time>2026-04-13T13:30:20.672Z</time></trkpt><trkpt lat="38.2865313" lon="-0.7240457"><ele>163.0</ele><time>2026-04-13T13:30:21.672Z</time></trkpt><trkpt lat="38.286334" lon="-0.7240668"><ele>164.0</ele><time>2026-04-13T13:30:22.672Z</time></trkpt><trkpt lat="38.2861372" lon="-0.7241129"><ele>165.0</ele><time>2026-04-13T13:30:23.672Z</time></trkpt><trkpt lat="38.2859369" lon="-0.7241742"><ele>165.0</ele><time>2026-04-13T13:30:24.672Z</time></trkpt><trkpt lat="38.2857381" lon="-0.7242391"><ele>165.0</ele><time>2026-04-13T13:30:25.672Z</time></trkpt><trkpt lat="38.2855385" lon="-0.7243051"><ele>165.0</ele><time>2026-04-13T13:30:26.672Z</time></trkpt><trkpt lat="38.2853385" lon="-0.7243744"><ele>162.66666666666666</ele><time>2026-04-13T13:30:27.672Z</time></trkpt><trkpt lat="38.2851385" lon="-0.7244427"><ele>160.33333333333331</ele><time>2026-04-13T13:30:28.672Z</time></trkpt><trkpt lat="38.2849359" lon="-0.7245112"><ele>158.0</ele><time>2026-04-13T13:30:29.672Z</time></trkpt><trkpt lat="38.2847335" lon="-0.7245785"><ele>157.66666666666666</ele><time>2026-04-13T13:30:30.672Z</time></trkpt><trkpt lat="38.2845317" lon="-0.7246426"><ele>157.33333333333334</ele><time>2026-04-13T13:30:31.672Z</time></trkpt><trkpt lat="38.2843316" lon="-0.7247152"><ele>157.0</ele><time>2026-04-13T13:30:32.673Z</time></trkpt><trkpt lat="38.2841334" lon="-0.7247891"><ele>157.0</ele><time>2026-04-13T13:30:33.672Z</time></trkpt><trkpt lat="38.2839453" lon="-0.7248882"><ele>157.0</ele><time>2026-04-13T13:30:34.672Z</time></trkpt><trkpt lat="38.2837662" lon="-0.7250098"><ele>157.0</ele><time>2026-04-13T13:30:35.672Z</time></trkpt><trkpt lat="38.2835884" lon="-0.725144"><ele>155.33333333333334</ele><time>2026-04-13T13:30:36.672Z</time></trkpt><trkpt lat="38.2834131" lon="-0.7252701"><ele>153.66666666666666</ele><time>2026-04-13T13:30:37.672Z</time></trkpt><trkpt lat="38.2832397" lon="-0.725377"><ele>152.0</ele><time>2026-04-13T13:30:38.672Z</time></trkpt><trkpt lat="38.2830601" lon="-0.7254575"><ele>151.66666666666666</ele><time>2026-04-13T13:30:39.672Z</time></trkpt><trkpt lat="38.2828748" lon="-0.7254999"><ele>151.33333333333334</ele><time>2026-04-13T13:30:40.672Z</time></trkpt><trkpt lat="38.282688" lon="-0.7255073"><ele>151.0</ele><time>2026-04-13T13:30:41.672Z</time></trkpt><trkpt lat="38.2825027" lon="-0.7254876"><ele>151.0</ele><time>2026-04-13T13:30:42.672Z</time></trkpt><trkpt lat="38.2823191" lon="-0.7254549"><ele>151.0</ele><time>2026-04-13T13:30:43.672Z</time></trkpt><trkpt lat="38.2821388" lon="-0.7254193"><ele>151.0</ele><time>2026-04-13T13:30:44.673Z</time></trkpt><trkpt lat="38.281958" lon="-0.7253822"><ele>149.0</ele><time>2026-04-13T13:30:45.672Z</time></trkpt><trkpt lat="38.281777" lon="-0.7253457"><ele>147.0</ele><time>2026-04-13T13:30:46.672Z</time></trkpt><trkpt lat="38.2816057" lon="-0.725311"><ele>145.0</ele><time>2026-04-13T13:30:47.672Z</time></trkpt><trkpt lat="38.2814434" lon="-0.7252821"><ele>144.66666666666669</ele><time>2026-04-13T13:30:48.672Z</time></trkpt><trkpt lat="38.2812862" lon="-0.7252512"><ele>144.33333333333334</ele><time>2026-04-13T13:30:49.672Z</time></trkpt><trkpt lat="38.2811343" lon="-0.7252216"><ele>144.0</ele><time>2026-04-13T13:30:50.672Z</time></trkpt><trkpt lat="38.2809832" lon="-0.7251886"><ele>144.33333333333334</ele><time>2026-04-13T13:30:51.672Z</time></trkpt><trkpt lat="38.2808317" lon="-0.7251638"><ele>144.66666666666669</ele><time>2026-04-13T13:30:52.672Z</time></trkpt><trkpt lat="38.2806812" lon="-0.7251328"><ele>145.0</ele><time>2026-04-13T13:30:53.672Z</time></trkpt><trkpt lat="38.2805323" lon="-0.7251002"><ele>145.0</ele><time>2026-04-13T13:30:54.672Z</time></trkpt><trkpt lat="38.2803843" lon="-0.7250663"><ele>145.0</ele><time>2026-04-13T13:30:55.672Z</time></trkpt><trkpt lat="38.2802361" lon="-0.7250349"><ele>145.0</ele><time>2026-04-13T13:30:56.672Z</time></trkpt><trkpt lat="38.2800914" lon="-0.7250007"><ele>145.0</ele><time>2026-04-13T13:30:57.672Z</time></trkpt><trkpt lat="38.2799458" lon="-0.7249654"><ele>145.0</ele><time>2026-04-13T13:30:58.672Z</time></trkpt><trkpt lat="38.2798" lon="-0.7249352"><ele>145.0</ele><time>2026-04-13T13:30:59.672Z</time></trkpt><trkpt lat="38.2796548" lon="-0.7249049"><ele>145.0</ele><time>2026-04-13T13:31:00.672Z</time></trkpt><trkpt lat="38.2795098" lon="-0.724871"><ele>145.0</ele><time>2026-04-13T13:31:01.672Z</time></trkpt><trkpt lat="38.2793671" lon="-0.7248407"><ele>143.75</ele><time>2026-04-13T13:31:02.672Z</time></trkpt><trkpt lat="38.2792222" lon="-0.7248098"><ele>142.5</ele><time>2026-04-13T13:31:03.672Z</time></trkpt><trkpt lat="38.2790765" lon="-0.7247813"><ele>141.25</ele><time>2026-04-13T13:31:04.672Z</time></trkpt><trkpt lat="38.2789332" lon="-0.7247529"><ele>140.0</ele><time>2026-04-13T13:31:05.672Z</time></trkpt><trkpt lat="38.2787896" lon="-0.7247214"><ele>138.0</ele><time>2026-04-13T13:31:06.672Z</time></trkpt><trkpt lat="38.2786445" lon="-0.72469"><ele>136.0</ele><time>2026-04-13T13:31:07.672Z</time></trkpt><trkpt lat="38.2785005" lon="-0.72466"><ele>134.0</ele><time>2026-04-13T13:31:08.672Z</time></trkpt><trkpt lat="38.2783558" lon="-0.7246297"><ele>132.0</ele><time>2026-04-13T13:31:09.672Z</time></trkpt><trkpt lat="38.2782126" lon="-0.7246027"><ele>130.25</ele><time>2026-04-13T13:31:10.672Z</time></trkpt><trkpt lat="38.2780809" lon="-0.7245735"><ele>128.5</ele><time>2026-04-13T13:31:11.672Z</time></trkpt><trkpt lat="38.2779525" lon="-0.724541"><ele>126.75</ele><time>2026-04-13T13:31:12.672Z</time></trkpt><trkpt lat="38.277834" lon="-0.7245088"><ele>125.0</ele><time>2026-04-13T13:31:13.672Z</time></trkpt><trkpt lat="38.2777202" lon="-0.7244737"><ele>125.0</ele><time>2026-04-13T13:31:14.672Z</time></trkpt><trkpt lat="38.2776076" lon="-0.7244318"><ele>125.0</ele><time>2026-04-13T13:31:15.672Z</time></trkpt><trkpt lat="38.2774964" lon="-0.7243865"><ele>125.0</ele><time>2026-04-13T13:31:16.672Z</time></trkpt><trkpt lat="38.2773899" lon="-0.724342"><ele>125.0</ele><time>2026-04-13T13:31:17.672Z</time></trkpt><trkpt lat="38.2772831" lon="-0.7243003"><ele>125.8</ele><time>2026-04-13T13:31:18.672Z</time></trkpt><trkpt lat="38.2771784" lon="-0.7242623"><ele>126.6</ele><time>2026-04-13T13:31:19.673Z</time></trkpt><trkpt lat="38.2770749" lon="-0.7242429"><ele>127.4</ele><time>2026-04-13T13:31:20.673Z</time></trkpt><trkpt lat="38.276975" lon="-0.7242515"><ele>128.2</ele><time>2026-04-13T13:31:21.672Z</time></trkpt><trkpt lat="38.2768759" lon="-0.7242795"><ele>129.0</ele><time>2026-04-13T13:31:22.672Z</time></trkpt><trkpt lat="38.2767657" lon="-0.7242783"><ele>129.0</ele><time>2026-04-13T13:31:23.672Z</time></trkpt><trkpt lat="38.2766528" lon="-0.72424"><ele>129.0</ele><time>2026-04-13T13:31:24.672Z</time></trkpt><trkpt lat="38.27654" lon="-0.7241892"><ele>129.0</ele><time>2026-04-13T13:31:25.672Z</time></trkpt><trkpt lat="38.2764197" lon="-0.7241659"><ele>129.0</ele><time>2026-04-13T13:31:26.672Z</time></trkpt><trkpt lat="38.2762975" lon="-0.7241627"><ele>129.25</ele><time>2026-04-13T13:31:27.672Z</time></trkpt><trkpt lat="38.2761746" lon="-0.7241563"><ele>129.5</ele><time>2026-04-13T13:31:28.672Z</time></trkpt><trkpt lat="38.2760526" lon="-0.7241413"><ele>129.75</ele><time>2026-04-13T13:31:29.672Z</time></trkpt><trkpt lat="38.2759201" lon="-0.7241161"><ele>130.0</ele><time>2026-04-13T13:31:30.672Z</time></trkpt><trkpt lat="38.2757744" lon="-0.7240771"><ele>130.0</ele><time>2026-04-13T13:31:31.672Z</time></trkpt><trkpt lat="38.2756164" lon="-0.7240306"><ele>130.0</ele><time>2026-04-13T13:31:32.672Z</time></trkpt><trkpt lat="38.2752748" lon="-0.7239436"><ele>129.0</ele><time>2026-04-13T13:31:34.67Z</time></trkpt><trkpt lat="38.2750935" lon="-0.7239141"><ele>128.0</ele><time>2026-04-13T13:31:35.673Z</time></trkpt><trkpt lat="38.274902" lon="-0.7238877"><ele>127.0</ele><time>2026-04-13T13:31:36.672Z</time></trkpt><trkpt lat="38.2747035" lon="-0.7238568"><ele>125.33333333333334</ele><time>2026-04-13T13:31:37.672Z</time></trkpt><trkpt lat="38.2745081" lon="-0.7238265"><ele>123.66666666666666</ele><time>2026-04-13T13:31:38.679Z</time></trkpt><trkpt lat="38.2743118" lon="-0.7237878"><ele>122.0</ele><time>2026-04-13T13:31:39.671Z</time></trkpt><trkpt lat="38.2741166" lon="-0.7237494"><ele>120.66666666666666</ele><time>2026-04-13T13:31:40.671Z</time></trkpt><trkpt lat="38.2739198" lon="-0.7237106"><ele>119.33333333333334</ele><time>2026-04-13T13:31:41.671Z</time></trkpt><trkpt lat="38.2737229" lon="-0.7236663"><ele>118.0</ele><time>2026-04-13T13:31:42.671Z</time></trkpt><trkpt lat="38.2735229" lon="-0.7236311"><ele>118.0</ele><time>2026-04-13T13:31:43.671Z</time></trkpt><trkpt lat="38.2733249" lon="-0.7235889"><ele>118.0</ele><time>2026-04-13T13:31:44.671Z</time></trkpt><trkpt lat="38.2731217" lon="-0.7235493"><ele>118.0</ele><time>2026-04-13T13:31:45.671Z</time></trkpt><trkpt lat="38.2729225" lon="-0.7235128"><ele>118.66666666666667</ele><time>2026-04-13T13:31:46.671Z</time></trkpt><trkpt lat="38.2727252" lon="-0.7234793"><ele>119.33333333333334</ele><time>2026-04-13T13:31:47.671Z</time></trkpt><trkpt lat="38.2725252" lon="-0.7234481"><ele>120.0</ele><time>2026-04-13T13:31:48.671Z</time></trkpt><trkpt lat="38.2723264" lon="-0.723423"><ele>118.66666666666666</ele><time>2026-04-13T13:31:49.672Z</time></trkpt><trkpt lat="38.2721274" lon="-0.7234023"><ele>117.33333333333333</ele><time>2026-04-13T13:31:50.671Z</time></trkpt><trkpt lat="38.271928" lon="-0.7233908"><ele>116.0</ele><time>2026-04-13T13:31:51.671Z</time></trkpt><trkpt lat="38.2717281" lon="-0.7233855"><ele>116.0</ele><time>2026-04-13T13:31:52.671Z</time></trkpt><trkpt lat="38.2715282" lon="-0.7233829"><ele>116.0</ele><time>2026-04-13T13:31:53.672Z</time></trkpt><trkpt lat="38.2713244" lon="-0.7233863"><ele>116.0</ele><time>2026-04-13T13:31:54.671Z</time></trkpt><trkpt lat="38.2711199" lon="-0.7233979"><ele>115.33333333333333</ele><time>2026-04-13T13:31:55.671Z</time></trkpt><trkpt lat="38.2709139" lon="-0.7234161"><ele>114.66666666666666</ele><time>2026-04-13T13:31:56.671Z</time></trkpt><trkpt lat="38.2707082" lon="-0.7234393"><ele>114.0</ele><time>2026-04-13T13:31:57.671Z</time></trkpt><trkpt lat="38.2705023" lon="-0.7234649"><ele>113.33333333333334</ele><time>2026-04-13T13:31:58.671Z</time></trkpt><trkpt lat="38.2703005" lon="-0.7234963"><ele>112.66666666666667</ele><time>2026-04-13T13:31:59.671Z</time></trkpt><trkpt lat="38.2700975" lon="-0.7235239"><ele>112.0</ele><time>2026-04-13T13:32:00.671Z</time></trkpt><trkpt lat="38.2698963" lon="-0.7235514"><ele>110.66666666666667</ele><time>2026-04-13T13:32:01.671Z</time></trkpt><trkpt lat="38.2696976" lon="-0.7235797"><ele>109.33333333333334</ele><time>2026-04-13T13:32:02.671Z</time></trkpt><trkpt lat="38.2695037" lon="-0.7236086"><ele>108.0</ele><time>2026-04-13T13:32:03.671Z</time></trkpt><trkpt lat="38.2693066" lon="-0.7236337"><ele>108.0</ele><time>2026-04-13T13:32:04.671Z</time></trkpt><trkpt lat="38.2691101" lon="-0.7236543"><ele>108.0</ele><time>2026-04-13T13:32:05.672Z</time></trkpt><trkpt lat="38.2689179" lon="-0.7236756"><ele>108.0</ele><time>2026-04-13T13:32:06.671Z</time></trkpt><trkpt lat="38.2687324" lon="-0.7236948"><ele>107.0</ele><time>2026-04-13T13:32:07.671Z</time></trkpt><trkpt lat="38.2685465" lon="-0.7237119"><ele>106.0</ele><time>2026-04-13T13:32:08.671Z</time></trkpt><trkpt lat="38.2683602" lon="-0.7237238"><ele>105.0</ele><time>2026-04-13T13:32:09.671Z</time></trkpt><trkpt lat="38.2681748" lon="-0.7237314"><ele>104.33333333333334</ele><time>2026-04-13T13:32:10.671Z</time></trkpt><trkpt lat="38.2679956" lon="-0.7237398"><ele>103.66666666666667</ele><time>2026-04-13T13:32:11.671Z</time></trkpt><trkpt lat="38.2678229" lon="-0.7237415"><ele>103.0</ele><time>2026-04-13T13:32:12.671Z</time></trkpt><trkpt lat="38.2676599" lon="-0.7237377"><ele>103.0</ele><time>2026-04-13T13:32:13.671Z</time></trkpt><trkpt lat="38.2675065" lon="-0.7237295"><ele>103.0</ele><time>2026-04-13T13:32:14.671Z</time></trkpt><trkpt lat="38.267366" lon="-0.7237247"><ele>103.0</ele><time>2026-04-13T13:32:15.671Z</time></trkpt><trkpt lat="38.2672505" lon="-0.723728"><ele>103.0</ele><time>2026-04-13T13:32:16.671Z</time></trkpt><trkpt lat="38.2671514" lon="-0.7237362"><ele>102.83333333333334</ele><time>2026-04-13T13:32:17.671Z</time></trkpt><trkpt lat="38.2670675" lon="-0.7237488"><ele>102.66666666666667</ele><time>2026-04-13T13:32:18.671Z</time></trkpt><trkpt lat="38.266991" lon="-0.7237595"><ele>102.5</ele><time>2026-04-13T13:32:19.671Z</time></trkpt><trkpt lat="38.2669228" lon="-0.7237761"><ele>102.33333333333334</ele><time>2026-04-13T13:32:20.671Z</time></trkpt><trkpt lat="38.2668596" lon="-0.7237918"><ele>102.16666666666667</ele><time>2026-04-13T13:32:21.671Z</time></trkpt><trkpt lat="38.2667573" lon="-0.7238259"><ele>102.0</ele><time>2026-04-13T13:32:23.671Z</time></trkpt><trkpt lat="38.2666774" lon="-0.7238526"><ele>102.0</ele><time>2026-04-13T13:32:26.671Z</time></trkpt><trkpt lat="38.2665977" lon="-0.7238788"><ele>102.0</ele><time>2026-04-13T13:32:28.671Z</time></trkpt><trkpt lat="38.2665267" lon="-0.7238928"><ele>102.0</ele><time>2026-04-13T13:32:29.671Z</time></trkpt><trkpt lat="38.2664458" lon="-0.7238996"><ele>102.0</ele><time>2026-04-13T13:32:30.671Z</time></trkpt><trkpt lat="38.2663564" lon="-0.7239037"><ele>102.0</ele><time>2026-04-13T13:32:31.671Z</time></trkpt><trkpt lat="38.266249" lon="-0.7238912"><ele>102.0</ele><time>2026-04-13T13:32:32.671Z</time></trkpt><trkpt lat="38.2661341" lon="-0.7238635"><ele>101.75</ele><time>2026-04-13T13:32:33.671Z</time></trkpt><trkpt lat="38.2660155" lon="-0.7238369"><ele>101.5</ele><time>2026-04-13T13:32:34.672Z</time></trkpt><trkpt lat="38.265888" lon="-0.7238071"><ele>101.25</ele><time>2026-04-13T13:32:35.671Z</time></trkpt><trkpt lat="38.2657601" lon="-0.7237776"><ele>101.0</ele><time>2026-04-13T13:32:36.671Z</time></trkpt><trkpt lat="38.2656274" lon="-0.7237461"><ele>99.75</ele><time>2026-04-13T13:32:37.671Z</time></trkpt><trkpt lat="38.2654991" lon="-0.7237194"><ele>98.5</ele><time>2026-04-13T13:32:38.671Z</time></trkpt><trkpt lat="38.265369" lon="-0.723691"><ele>97.25</ele><time>2026-04-13T13:32:39.671Z</time></trkpt><trkpt lat="38.2652402" lon="-0.7236642"><ele>96.0</ele><time>2026-04-13T13:32:40.671Z</time></trkpt><trkpt lat="38.265113" lon="-0.7236384"><ele>96.0</ele><time>2026-04-13T13:32:41.671Z</time></trkpt><trkpt lat="38.2649866" lon="-0.7236183"><ele>96.0</ele><time>2026-04-13T13:32:42.672Z</time></trkpt><trkpt lat="38.264862" lon="-0.7235957"><ele>96.0</ele><time>2026-04-13T13:32:43.671Z</time></trkpt><trkpt lat="38.2647409" lon="-0.7235693"><ele>96.0</ele><time>2026-04-13T13:32:44.671Z</time></trkpt><trkpt lat="38.2646233" lon="-0.7235386"><ele>95.25</ele><time>2026-04-13T13:32:45.671Z</time></trkpt><trkpt lat="38.2645073" lon="-0.7234991"><ele>94.5</ele><time>2026-04-13T13:32:46.671Z</time></trkpt><trkpt lat="38.2643978" lon="-0.7234567"><ele>93.75</ele><time>2026-04-13T13:32:47.671Z</time></trkpt><trkpt lat="38.2642927" lon="-0.7234146"><ele>93.0</ele><time>2026-04-13T13:32:48.671Z</time></trkpt><trkpt lat="38.2641896" lon="-0.723376"><ele>93.0</ele><time>2026-04-13T13:32:49.671Z</time></trkpt><trkpt lat="38.2640903" lon="-0.7233461"><ele>93.0</ele><time>2026-04-13T13:32:50.671Z</time></trkpt><trkpt lat="38.2640008" lon="-0.7233324"><ele>93.0</ele><time>2026-04-13T13:32:51.671Z</time></trkpt><trkpt lat="38.2639298" lon="-0.7233289"><ele>93.0</ele><time>2026-04-13T13:32:52.671Z</time></trkpt><trkpt lat="38.2638309" lon="-0.7233594"><ele>93.0</ele><time>2026-04-13T13:32:54.671Z</time></trkpt><trkpt lat="38.2637731" lon="-0.723425"><ele>93.0</ele><time>2026-04-13T13:32:56.671Z</time></trkpt><trkpt lat="38.2637074" lon="-0.7235124"><ele>93.60000000000001</ele><time>2026-04-13T13:32:58.671Z</time></trkpt><trkpt lat="38.263647" lon="-0.7236018"><ele>94.2</ele><time>2026-04-13T13:33:00.671Z</time></trkpt><trkpt lat="38.263628" lon="-0.7236902"><ele>94.8</ele><time>2026-04-13T13:33:08.671Z</time></trkpt><trkpt lat="38.2635907" lon="-0.7237884"><ele>95.4</ele><time>2026-04-13T13:35:33.666Z</time></trkpt><trkpt lat="38.2635546" lon="-0.7238923"><ele>96.0</ele><time>2026-04-13T13:35:35.666Z</time></trkpt><trkpt lat="38.2635391" lon="-0.7241009"><ele>96.0</ele><time>2026-04-13T13:35:38.666Z</time></trkpt><trkpt lat="38.2636312" lon="-0.7241295"><ele>96.0</ele><time>2026-04-13T13:35:40.666Z</time></trkpt><trkpt lat="38.2637539" lon="-0.7241268"><ele>96.0</ele><time>2026-04-13T13:35:42.666Z</time></trkpt><trkpt lat="38.2638357" lon="-0.7241265"><ele>96.0</ele><time>2026-04-13T13:35:43.666Z</time></trkpt><trkpt lat="38.2639262" lon="-0.7241314"><ele>96.0</ele><time>2026-04-13T13:35:44.666Z</time></trkpt><trkpt lat="38.2640062" lon="-0.7241321"><ele>95.6</ele><time>2026-04-13T13:35:45.666Z</time></trkpt><trkpt lat="38.2640983" lon="-0.7241312"><ele>95.19999999999999</ele><time>2026-04-13T13:35:46.666Z</time></trkpt><trkpt lat="38.2641942" lon="-0.724149"><ele>94.80000000000001</ele><time>2026-04-13T13:35:47.666Z</time></trkpt><trkpt lat="38.2642903" lon="-0.7241719"><ele>94.4</ele><time>2026-04-13T13:35:48.666Z</time></trkpt><trkpt lat="38.2643829" lon="-0.7241954"><ele>94.0</ele><time>2026-04-13T13:35:49.666Z</time></trkpt><trkpt lat="38.2646028" lon="-0.724227"><ele>94.0</ele><time>2026-04-13T13:35:52.81Z</time></trkpt><trkpt lat="38.2646996" lon="-0.7241415"><ele>94.0</ele><time>2026-04-13T13:35:54.683Z</time></trkpt><trkpt lat="38.2647578" lon="-0.7240117"><ele>94.0</ele><time>2026-04-13T13:35:56.665Z</time></trkpt><trkpt lat="38.2647581" lon="-0.7239148"><ele>94.0</ele><time>2026-04-13T13:35:58.665Z</time></trkpt><trkpt lat="38.2647559" lon="-0.7238326"><ele>94.0</ele><time>2026-04-13T13:36:48.667Z</time></trkpt><trkpt lat="38.2647433" lon="-0.7237384"><ele>94.0</ele><time>2026-04-13T13:36:50.667Z</time></trkpt><trkpt lat="38.264715" lon="-0.723607"><ele>94.0</ele><time>2026-04-13T13:36:52.667Z</time></trkpt><trkpt lat="38.2646773" lon="-0.7235356"><ele>94.0</ele><time>2026-04-13T13:36:53.667Z</time></trkpt><trkpt lat="38.264634" lon="-0.7234084"><ele>94.0</ele><time>2026-04-13T13:36:55.667Z</time></trkpt><trkpt lat="38.2645882" lon="-0.7233307"><ele>94.0</ele><time>2026-04-13T13:36:56.667Z</time></trkpt><trkpt lat="38.2645278" lon="-0.7232015"><ele>93.80000000000001</ele><time>2026-04-13T13:36:58.667Z</time></trkpt><trkpt lat="38.264575" lon="-0.7230253"><ele>93.60000000000001</ele><time>2026-04-13T13:37:00.667Z</time></trkpt><trkpt lat="38.2646313" lon="-0.7229409"><ele>93.4</ele><time>2026-04-13T13:37:01.667Z</time></trkpt><trkpt lat="38.2646948" lon="-0.7228718"><ele>93.2</ele><time>2026-04-13T13:37:02.668Z</time></trkpt><trkpt lat="38.2647624" lon="-0.7228315"><ele>93.0</ele><time>2026-04-13T13:37:03.667Z</time></trkpt><trkpt lat="38.2648778" lon="-0.7228166"><ele>93.5</ele><time>2026-04-13T13:37:05.667Z</time></trkpt><trkpt lat="38.2649629" lon="-0.7228298"><ele>94.0</ele><time>2026-04-13T13:37:07.667Z</time></trkpt><trkpt lat="38.2650259" lon="-0.7228385"><ele>94.5</ele><time>2026-04-13T13:37:11.667Z</time></trkpt><trkpt lat="38.2651054" lon="-0.7228643"><ele>95.0</ele><time>2026-04-13T13:37:32.667Z</time></trkpt><trkpt lat="38.2652048" lon="-0.7228804"><ele>95.5</ele><time>2026-04-13T13:37:34.667Z</time></trkpt><trkpt lat="38.2652679" lon="-0.7228956"><ele>96.0</ele><time>2026-04-13T13:37:35.667Z</time></trkpt><trkpt lat="38.2653388" lon="-0.7229103"><ele>96.0</ele><time>2026-04-13T13:37:36.667Z</time></trkpt><trkpt lat="38.2654119" lon="-0.7229258"><ele>96.0</ele><time>2026-04-13T13:37:37.667Z</time></trkpt><trkpt lat="38.2654865" lon="-0.7229418"><ele>96.0</ele><time>2026-04-13T13:37:38.667Z</time></trkpt><trkpt lat="38.2655661" lon="-0.722959"><ele>96.0</ele><time>2026-04-13T13:37:39.667Z</time></trkpt><trkpt lat="38.2656533" lon="-0.7229754"><ele>96.0</ele><time>2026-04-13T13:37:40.667Z</time></trkpt><trkpt lat="38.2657481" lon="-0.7229948"><ele>96.0</ele><time>2026-04-13T13:37:41.667Z</time></trkpt><trkpt lat="38.2658457" lon="-0.7230152"><ele>97.0</ele><time>2026-04-13T13:37:42.667Z</time></trkpt><trkpt lat="38.2659406" lon="-0.7230364"><ele>98.0</ele><time>2026-04-13T13:37:43.667Z</time></trkpt><trkpt lat="38.2660406" lon="-0.7230596"><ele>99.0</ele><time>2026-04-13T13:37:44.668Z</time></trkpt><trkpt lat="38.2661349" lon="-0.7230834"><ele>100.0</ele><time>2026-04-13T13:37:45.667Z</time></trkpt><trkpt lat="38.2662318" lon="-0.7230965"><ele>101.0</ele><time>2026-04-13T13:37:46.667Z</time></trkpt><trkpt lat="38.2663294" lon="-0.7231033"><ele>101.0</ele><time>2026-04-13T13:37:47.667Z</time></trkpt><trkpt lat="38.2664252" lon="-0.7230804"><ele>101.0</ele><time>2026-04-13T13:37:48.667Z</time></trkpt><trkpt lat="38.2665125" lon="-0.7230315"><ele>101.0</ele><time>2026-04-13T13:37:49.667Z</time></trkpt><trkpt lat="38.2666494" lon="-0.7228868"><ele>101.0</ele><time>2026-04-13T13:37:51.667Z</time></trkpt><trkpt lat="38.266688" lon="-0.7228113"><ele>101.0</ele><time>2026-04-13T13:37:52.667Z</time></trkpt><trkpt lat="38.2667095" lon="-0.7227314"><ele>101.0</ele><time>2026-04-13T13:37:53.668Z</time></trkpt><trkpt lat="38.2667051" lon="-0.7226193"><ele>101.0</ele><time>2026-04-13T13:37:55.667Z</time></trkpt><trkpt lat="38.2665784" lon="-0.7225485"><ele>101.0</ele><time>2026-04-13T13:37:57.668Z</time></trkpt><trkpt lat="38.2665051" lon="-0.7225158"><ele>101.0</ele><time>2026-04-13T13:37:58.667Z</time></trkpt><trkpt lat="38.2664301" lon="-0.7224815"><ele>101.0</ele><time>2026-04-13T13:37:59.667Z</time></trkpt><trkpt lat="38.2663511" lon="-0.722447"><ele>100.6</ele><time>2026-04-13T13:38:00.667Z</time></trkpt><trkpt lat="38.266246" lon="-0.7224056"><ele>100.19999999999999</ele><time>2026-04-13T13:38:02.611Z</time></trkpt><trkpt lat="38.2661393" lon="-0.7223539"><ele>99.80000000000001</ele><time>2026-04-13T13:38:03.691Z</time></trkpt><trkpt lat="38.2660523" lon="-0.7222917"><ele>99.4</ele><time>2026-04-13T13:38:05.67Z</time></trkpt><trkpt lat="38.2660309" lon="-0.7221584"><ele>99.0</ele><time>2026-04-13T13:38:07.668Z</time></trkpt><trkpt lat="38.2660634" lon="-0.722038"><ele>99.0</ele><time>2026-04-13T13:38:09.668Z</time></trkpt><trkpt lat="38.2660857" lon="-0.7219592"><ele>99.0</ele><time>2026-04-13T13:38:11.668Z</time></trkpt><trkpt lat="38.2661271" lon="-0.7218855"><ele>100.0</ele><time>2026-04-13T13:39:18.669Z</time></trkpt><trkpt lat="38.2661754" lon="-0.7218229"><ele>100.0</ele><time>2026-04-13T13:39:23.668Z</time></trkpt><trkpt lat="38.2662244" lon="-0.7217643"><ele>100.0</ele><time>2026-04-13T13:39:31.668Z</time></trkpt><trkpt lat="38.2662728" lon="-0.7218325"><ele>100.0</ele><time>2026-04-13T13:39:43.668Z</time></trkpt><trkpt lat="38.2663294" lon="-0.7218809"><ele>100.0</ele><time>2026-04-13T13:41:49.665Z</time></trkpt></trkseg></trk></gpx>